<?xml version="1.0" encoding="UTF-8" standalone="no" ?>
<gpx xmlns="http://www.topografix.com/GPX/1/1" xmlns:xsi="http://www.w3.org/2001/XMLSchema-instance" xsi:schemaLocation="http://www.topografix.com/GPX/1/1 http://www.topografix.com/GPX/1/1/gpx.xsd" version="1.1" creator="VisuGPX - https://www.visugpx.com">
  <metadata>
    <name>Le Faouët </name>
    <desc><![CDATA[Boucle autour de Le Faouët, en passant par les bords de l'Ellé, inondés, Ste Barbe, St Fiacre]]></desc>
  </metadata>
  <trk>
    <name><![CDATA[Tracé 20250226-085929]]></name>
    <extensions>
      <line xmlns="http://www.topografix.com/GPX/gpx_style/0/2">
        <color>0000FF</color>
        <width>4</width>
      </line>
    </extensions>
    <trkseg>
      <trkpt lat="48.03533" lon="-3.50029">
        <ele>150.8</ele>
        <time>2025-02-26T07:59:29Z</time>
      </trkpt>
      <trkpt lat="48.03533" lon="-3.50029">
        <ele>150.8</ele>
        <time>2025-02-26T07:59:30Z</time>
      </trkpt>
      <trkpt lat="48.03533" lon="-3.50027">
        <ele>150.8</ele>
        <time>2025-02-26T07:59:31Z</time>
      </trkpt>
      <trkpt lat="48.03534" lon="-3.50026">
        <ele>150.8</ele>
        <time>2025-02-26T07:59:32Z</time>
      </trkpt>
      <trkpt lat="48.03535" lon="-3.50026">
        <ele>150.8</ele>
        <time>2025-02-26T07:59:33Z</time>
      </trkpt>
      <trkpt lat="48.03536" lon="-3.50025">
        <ele>150.7</ele>
        <time>2025-02-26T07:59:34Z</time>
      </trkpt>
      <trkpt lat="48.03537" lon="-3.50025">
        <ele>150.7</ele>
        <time>2025-02-26T07:59:35Z</time>
      </trkpt>
      <trkpt lat="48.03538" lon="-3.50025">
        <ele>150.6</ele>
        <time>2025-02-26T07:59:36Z</time>
      </trkpt>
      <trkpt lat="48.03539" lon="-3.50024">
        <ele>150.6</ele>
        <time>2025-02-26T07:59:37Z</time>
      </trkpt>
      <trkpt lat="48.0354" lon="-3.50024">
        <ele>150.6</ele>
        <time>2025-02-26T07:59:38Z</time>
      </trkpt>
      <trkpt lat="48.03541" lon="-3.50024">
        <ele>150.5</ele>
        <time>2025-02-26T07:59:39Z</time>
      </trkpt>
      <trkpt lat="48.03542" lon="-3.50023">
        <ele>150.5</ele>
        <time>2025-02-26T07:59:40Z</time>
      </trkpt>
      <trkpt lat="48.03543" lon="-3.50023">
        <ele>150.4</ele>
        <time>2025-02-26T07:59:41Z</time>
      </trkpt>
      <trkpt lat="48.03544" lon="-3.50023">
        <ele>150.4</ele>
        <time>2025-02-26T07:59:42Z</time>
      </trkpt>
      <trkpt lat="48.03546" lon="-3.50022">
        <ele>150.4</ele>
        <time>2025-02-26T07:59:43Z</time>
      </trkpt>
      <trkpt lat="48.03547" lon="-3.50022">
        <ele>150.3</ele>
        <time>2025-02-26T07:59:44Z</time>
      </trkpt>
      <trkpt lat="48.03548" lon="-3.50022">
        <ele>150.3</ele>
        <time>2025-02-26T07:59:45Z</time>
      </trkpt>
      <trkpt lat="48.03549" lon="-3.50021">
        <ele>150.2</ele>
        <time>2025-02-26T07:59:46Z</time>
      </trkpt>
      <trkpt lat="48.03551" lon="-3.50021">
        <ele>150.2</ele>
        <time>2025-02-26T07:59:47Z</time>
      </trkpt>
      <trkpt lat="48.03552" lon="-3.50022">
        <ele>150.1</ele>
        <time>2025-02-26T07:59:48Z</time>
      </trkpt>
      <trkpt lat="48.03553" lon="-3.50022">
        <ele>150.1</ele>
        <time>2025-02-26T07:59:49Z</time>
      </trkpt>
      <trkpt lat="48.03553" lon="-3.50022">
        <ele>150.1</ele>
        <time>2025-02-26T07:59:50Z</time>
      </trkpt>
      <trkpt lat="48.03554" lon="-3.50022">
        <ele>150.1</ele>
        <time>2025-02-26T07:59:51Z</time>
      </trkpt>
      <trkpt lat="48.03555" lon="-3.50022">
        <ele>150</ele>
        <time>2025-02-26T07:59:52Z</time>
      </trkpt>
      <trkpt lat="48.03556" lon="-3.50022">
        <ele>150</ele>
        <time>2025-02-26T07:59:53Z</time>
      </trkpt>
      <trkpt lat="48.03557" lon="-3.50023">
        <ele>149.9</ele>
        <time>2025-02-26T07:59:54Z</time>
      </trkpt>
      <trkpt lat="48.03559" lon="-3.50023">
        <ele>149.9</ele>
        <time>2025-02-26T07:59:55Z</time>
      </trkpt>
      <trkpt lat="48.0356" lon="-3.50023">
        <ele>149.8</ele>
        <time>2025-02-26T07:59:56Z</time>
      </trkpt>
      <trkpt lat="48.03562" lon="-3.50023">
        <ele>149.8</ele>
        <time>2025-02-26T07:59:57Z</time>
      </trkpt>
      <trkpt lat="48.03563" lon="-3.50024">
        <ele>149.7</ele>
        <time>2025-02-26T07:59:58Z</time>
      </trkpt>
      <trkpt lat="48.03564" lon="-3.50025">
        <ele>149.7</ele>
        <time>2025-02-26T07:59:59Z</time>
      </trkpt>
      <trkpt lat="48.03565" lon="-3.50026">
        <ele>149.7</ele>
        <time>2025-02-26T08:00:00Z</time>
      </trkpt>
      <trkpt lat="48.03566" lon="-3.50026">
        <ele>149.6</ele>
        <time>2025-02-26T08:00:01Z</time>
      </trkpt>
      <trkpt lat="48.03567" lon="-3.50026">
        <ele>149.6</ele>
        <time>2025-02-26T08:00:02Z</time>
      </trkpt>
      <trkpt lat="48.03569" lon="-3.50026">
        <ele>149.5</ele>
        <time>2025-02-26T08:00:03Z</time>
      </trkpt>
      <trkpt lat="48.0357" lon="-3.50026">
        <ele>149.5</ele>
        <time>2025-02-26T08:00:04Z</time>
      </trkpt>
      <trkpt lat="48.03571" lon="-3.50026">
        <ele>149.4</ele>
        <time>2025-02-26T08:00:05Z</time>
      </trkpt>
      <trkpt lat="48.03572" lon="-3.50025">
        <ele>149.4</ele>
        <time>2025-02-26T08:00:06Z</time>
      </trkpt>
      <trkpt lat="48.03573" lon="-3.50024">
        <ele>149.4</ele>
        <time>2025-02-26T08:00:07Z</time>
      </trkpt>
      <trkpt lat="48.03574" lon="-3.50023">
        <ele>149.3</ele>
        <time>2025-02-26T08:00:08Z</time>
      </trkpt>
      <trkpt lat="48.03575" lon="-3.50022">
        <ele>149.3</ele>
        <time>2025-02-26T08:00:09Z</time>
      </trkpt>
      <trkpt lat="48.03576" lon="-3.50022">
        <ele>149.3</ele>
        <time>2025-02-26T08:00:10Z</time>
      </trkpt>
      <trkpt lat="48.03577" lon="-3.50022">
        <ele>149.2</ele>
        <time>2025-02-26T08:00:11Z</time>
      </trkpt>
      <trkpt lat="48.03578" lon="-3.50021">
        <ele>149.2</ele>
        <time>2025-02-26T08:00:12Z</time>
      </trkpt>
      <trkpt lat="48.03579" lon="-3.5002">
        <ele>149.2</ele>
        <time>2025-02-26T08:00:13Z</time>
      </trkpt>
      <trkpt lat="48.0358" lon="-3.50019">
        <ele>149.1</ele>
        <time>2025-02-26T08:00:14Z</time>
      </trkpt>
      <trkpt lat="48.03581" lon="-3.50017">
        <ele>149.1</ele>
        <time>2025-02-26T08:00:15Z</time>
      </trkpt>
      <trkpt lat="48.03581" lon="-3.50016">
        <ele>149.1</ele>
        <time>2025-02-26T08:00:16Z</time>
      </trkpt>
      <trkpt lat="48.03582" lon="-3.50014">
        <ele>149.1</ele>
        <time>2025-02-26T08:00:17Z</time>
      </trkpt>
      <trkpt lat="48.03583" lon="-3.50013">
        <ele>149</ele>
        <time>2025-02-26T08:00:18Z</time>
      </trkpt>
      <trkpt lat="48.03583" lon="-3.50012">
        <ele>149</ele>
        <time>2025-02-26T08:00:19Z</time>
      </trkpt>
      <trkpt lat="48.03584" lon="-3.50011">
        <ele>149</ele>
        <time>2025-02-26T08:00:20Z</time>
      </trkpt>
      <trkpt lat="48.03585" lon="-3.5001">
        <ele>148.9</ele>
        <time>2025-02-26T08:00:21Z</time>
      </trkpt>
      <trkpt lat="48.03586" lon="-3.5001">
        <ele>148.8</ele>
        <time>2025-02-26T08:00:22Z</time>
      </trkpt>
      <trkpt lat="48.03587" lon="-3.50009">
        <ele>148.7</ele>
        <time>2025-02-26T08:00:23Z</time>
      </trkpt>
      <trkpt lat="48.03587" lon="-3.50007">
        <ele>148.7</ele>
        <time>2025-02-26T08:00:24Z</time>
      </trkpt>
      <trkpt lat="48.03588" lon="-3.50006">
        <ele>148.6</ele>
        <time>2025-02-26T08:00:25Z</time>
      </trkpt>
      <trkpt lat="48.03589" lon="-3.50006">
        <ele>148.6</ele>
        <time>2025-02-26T08:00:26Z</time>
      </trkpt>
      <trkpt lat="48.0359" lon="-3.50005">
        <ele>148.5</ele>
        <time>2025-02-26T08:00:27Z</time>
      </trkpt>
      <trkpt lat="48.03591" lon="-3.50005">
        <ele>148.4</ele>
        <time>2025-02-26T08:00:28Z</time>
      </trkpt>
      <trkpt lat="48.03592" lon="-3.50004">
        <ele>148.3</ele>
        <time>2025-02-26T08:00:29Z</time>
      </trkpt>
      <trkpt lat="48.03593" lon="-3.50004">
        <ele>148.3</ele>
        <time>2025-02-26T08:00:30Z</time>
      </trkpt>
      <trkpt lat="48.03594" lon="-3.50003">
        <ele>148.2</ele>
        <time>2025-02-26T08:00:31Z</time>
      </trkpt>
      <trkpt lat="48.03595" lon="-3.50003">
        <ele>148.1</ele>
        <time>2025-02-26T08:00:32Z</time>
      </trkpt>
      <trkpt lat="48.03596" lon="-3.50003">
        <ele>148.1</ele>
        <time>2025-02-26T08:00:33Z</time>
      </trkpt>
      <trkpt lat="48.03596" lon="-3.50003">
        <ele>148</ele>
        <time>2025-02-26T08:00:34Z</time>
      </trkpt>
      <trkpt lat="48.03597" lon="-3.50001">
        <ele>148</ele>
        <time>2025-02-26T08:00:35Z</time>
      </trkpt>
      <trkpt lat="48.03599" lon="-3.50001">
        <ele>147.9</ele>
        <time>2025-02-26T08:00:36Z</time>
      </trkpt>
      <trkpt lat="48.036" lon="-3.5">
        <ele>147.8</ele>
        <time>2025-02-26T08:00:37Z</time>
      </trkpt>
      <trkpt lat="48.036" lon="-3.49999">
        <ele>147.8</ele>
        <time>2025-02-26T08:00:38Z</time>
      </trkpt>
      <trkpt lat="48.03602" lon="-3.49998">
        <ele>147.7</ele>
        <time>2025-02-26T08:00:39Z</time>
      </trkpt>
      <trkpt lat="48.03603" lon="-3.49997">
        <ele>147.7</ele>
        <time>2025-02-26T08:00:40Z</time>
      </trkpt>
      <trkpt lat="48.03604" lon="-3.49997">
        <ele>147.6</ele>
        <time>2025-02-26T08:00:41Z</time>
      </trkpt>
      <trkpt lat="48.03605" lon="-3.49996">
        <ele>147.6</ele>
        <time>2025-02-26T08:00:42Z</time>
      </trkpt>
      <trkpt lat="48.03606" lon="-3.49995">
        <ele>147.5</ele>
        <time>2025-02-26T08:00:43Z</time>
      </trkpt>
      <trkpt lat="48.03607" lon="-3.49994">
        <ele>147.5</ele>
        <time>2025-02-26T08:00:44Z</time>
      </trkpt>
      <trkpt lat="48.03609" lon="-3.49993">
        <ele>147.4</ele>
        <time>2025-02-26T08:00:45Z</time>
      </trkpt>
      <trkpt lat="48.0361" lon="-3.49993">
        <ele>147.4</ele>
        <time>2025-02-26T08:00:46Z</time>
      </trkpt>
      <trkpt lat="48.03611" lon="-3.49992">
        <ele>147.3</ele>
        <time>2025-02-26T08:00:47Z</time>
      </trkpt>
      <trkpt lat="48.03613" lon="-3.49991">
        <ele>147.2</ele>
        <time>2025-02-26T08:00:48Z</time>
      </trkpt>
      <trkpt lat="48.03615" lon="-3.49991">
        <ele>147</ele>
        <time>2025-02-26T08:00:49Z</time>
      </trkpt>
      <trkpt lat="48.03616" lon="-3.4999">
        <ele>146.9</ele>
        <time>2025-02-26T08:00:50Z</time>
      </trkpt>
      <trkpt lat="48.03618" lon="-3.49989">
        <ele>146.8</ele>
        <time>2025-02-26T08:00:51Z</time>
      </trkpt>
      <trkpt lat="48.03619" lon="-3.49988">
        <ele>146.7</ele>
        <time>2025-02-26T08:00:52Z</time>
      </trkpt>
      <trkpt lat="48.0362" lon="-3.49987">
        <ele>146.7</ele>
        <time>2025-02-26T08:00:53Z</time>
      </trkpt>
      <trkpt lat="48.03621" lon="-3.49986">
        <ele>146.6</ele>
        <time>2025-02-26T08:00:54Z</time>
      </trkpt>
      <trkpt lat="48.03622" lon="-3.49985">
        <ele>146.6</ele>
        <time>2025-02-26T08:00:55Z</time>
      </trkpt>
      <trkpt lat="48.03623" lon="-3.49983">
        <ele>146.5</ele>
        <time>2025-02-26T08:00:56Z</time>
      </trkpt>
      <trkpt lat="48.03625" lon="-3.49983">
        <ele>146.5</ele>
        <time>2025-02-26T08:00:57Z</time>
      </trkpt>
      <trkpt lat="48.03626" lon="-3.49983">
        <ele>146.3</ele>
        <time>2025-02-26T08:00:58Z</time>
      </trkpt>
      <trkpt lat="48.03628" lon="-3.49982">
        <ele>146.3</ele>
        <time>2025-02-26T08:00:59Z</time>
      </trkpt>
      <trkpt lat="48.03629" lon="-3.49981">
        <ele>146.2</ele>
        <time>2025-02-26T08:01:00Z</time>
      </trkpt>
      <trkpt lat="48.0363" lon="-3.49981">
        <ele>146.1</ele>
        <time>2025-02-26T08:01:01Z</time>
      </trkpt>
      <trkpt lat="48.03631" lon="-3.49981">
        <ele>146.1</ele>
        <time>2025-02-26T08:01:02Z</time>
      </trkpt>
      <trkpt lat="48.03633" lon="-3.49981">
        <ele>145.9</ele>
        <time>2025-02-26T08:01:03Z</time>
      </trkpt>
      <trkpt lat="48.03634" lon="-3.4998">
        <ele>145.8</ele>
        <time>2025-02-26T08:01:04Z</time>
      </trkpt>
      <trkpt lat="48.03635" lon="-3.4998">
        <ele>145.7</ele>
        <time>2025-02-26T08:01:05Z</time>
      </trkpt>
      <trkpt lat="48.03636" lon="-3.49978">
        <ele>145.8</ele>
        <time>2025-02-26T08:01:06Z</time>
      </trkpt>
      <trkpt lat="48.03636" lon="-3.49977">
        <ele>145.9</ele>
        <time>2025-02-26T08:01:07Z</time>
      </trkpt>
      <trkpt lat="48.03637" lon="-3.49976">
        <ele>145.8</ele>
        <time>2025-02-26T08:01:08Z</time>
      </trkpt>
      <trkpt lat="48.03638" lon="-3.49976">
        <ele>145.8</ele>
        <time>2025-02-26T08:01:09Z</time>
      </trkpt>
      <trkpt lat="48.03639" lon="-3.49975">
        <ele>145.8</ele>
        <time>2025-02-26T08:01:10Z</time>
      </trkpt>
      <trkpt lat="48.0364" lon="-3.49974">
        <ele>145.8</ele>
        <time>2025-02-26T08:01:11Z</time>
      </trkpt>
      <trkpt lat="48.0364" lon="-3.49973">
        <ele>145.9</ele>
        <time>2025-02-26T08:01:12Z</time>
      </trkpt>
      <trkpt lat="48.03641" lon="-3.49972">
        <ele>145.9</ele>
        <time>2025-02-26T08:01:13Z</time>
      </trkpt>
      <trkpt lat="48.03642" lon="-3.49971">
        <ele>145.9</ele>
        <time>2025-02-26T08:01:14Z</time>
      </trkpt>
      <trkpt lat="48.03643" lon="-3.4997">
        <ele>145.9</ele>
        <time>2025-02-26T08:01:15Z</time>
      </trkpt>
      <trkpt lat="48.03644" lon="-3.49969">
        <ele>145.8</ele>
        <time>2025-02-26T08:01:16Z</time>
      </trkpt>
      <trkpt lat="48.03646" lon="-3.49969">
        <ele>145.8</ele>
        <time>2025-02-26T08:01:17Z</time>
      </trkpt>
      <trkpt lat="48.03646" lon="-3.49968">
        <ele>145.8</ele>
        <time>2025-02-26T08:01:18Z</time>
      </trkpt>
      <trkpt lat="48.03647" lon="-3.49967">
        <ele>145.8</ele>
        <time>2025-02-26T08:01:19Z</time>
      </trkpt>
      <trkpt lat="48.03648" lon="-3.49966">
        <ele>145.7</ele>
        <time>2025-02-26T08:01:20Z</time>
      </trkpt>
      <trkpt lat="48.0365" lon="-3.49966">
        <ele>145.7</ele>
        <time>2025-02-26T08:01:21Z</time>
      </trkpt>
      <trkpt lat="48.03651" lon="-3.49966">
        <ele>145.7</ele>
        <time>2025-02-26T08:01:22Z</time>
      </trkpt>
      <trkpt lat="48.03652" lon="-3.49965">
        <ele>145.6</ele>
        <time>2025-02-26T08:01:23Z</time>
      </trkpt>
      <trkpt lat="48.03653" lon="-3.49965">
        <ele>145.6</ele>
        <time>2025-02-26T08:01:24Z</time>
      </trkpt>
      <trkpt lat="48.03654" lon="-3.49964">
        <ele>145.6</ele>
        <time>2025-02-26T08:01:25Z</time>
      </trkpt>
      <trkpt lat="48.03655" lon="-3.49963">
        <ele>145.6</ele>
        <time>2025-02-26T08:01:26Z</time>
      </trkpt>
      <trkpt lat="48.03656" lon="-3.49962">
        <ele>145.6</ele>
        <time>2025-02-26T08:01:27Z</time>
      </trkpt>
      <trkpt lat="48.03657" lon="-3.49961">
        <ele>145.6</ele>
        <time>2025-02-26T08:01:28Z</time>
      </trkpt>
      <trkpt lat="48.03658" lon="-3.4996">
        <ele>145.6</ele>
        <time>2025-02-26T08:01:29Z</time>
      </trkpt>
      <trkpt lat="48.03659" lon="-3.4996">
        <ele>145.6</ele>
        <time>2025-02-26T08:01:30Z</time>
      </trkpt>
      <trkpt lat="48.03659" lon="-3.49959">
        <ele>145.6</ele>
        <time>2025-02-26T08:01:31Z</time>
      </trkpt>
      <trkpt lat="48.0366" lon="-3.49958">
        <ele>145.6</ele>
        <time>2025-02-26T08:01:32Z</time>
      </trkpt>
      <trkpt lat="48.03661" lon="-3.49958">
        <ele>145.6</ele>
        <time>2025-02-26T08:01:33Z</time>
      </trkpt>
      <trkpt lat="48.03662" lon="-3.49958">
        <ele>145.6</ele>
        <time>2025-02-26T08:01:34Z</time>
      </trkpt>
      <trkpt lat="48.03663" lon="-3.49958">
        <ele>145.6</ele>
        <time>2025-02-26T08:01:35Z</time>
      </trkpt>
      <trkpt lat="48.03664" lon="-3.49958">
        <ele>145.6</ele>
        <time>2025-02-26T08:01:36Z</time>
      </trkpt>
      <trkpt lat="48.03665" lon="-3.49957">
        <ele>145.6</ele>
        <time>2025-02-26T08:01:37Z</time>
      </trkpt>
      <trkpt lat="48.03667" lon="-3.49957">
        <ele>145.5</ele>
        <time>2025-02-26T08:01:38Z</time>
      </trkpt>
      <trkpt lat="48.03668" lon="-3.49958">
        <ele>145.5</ele>
        <time>2025-02-26T08:01:39Z</time>
      </trkpt>
      <trkpt lat="48.03669" lon="-3.49958">
        <ele>145.5</ele>
        <time>2025-02-26T08:01:40Z</time>
      </trkpt>
      <trkpt lat="48.0367" lon="-3.49958">
        <ele>145.5</ele>
        <time>2025-02-26T08:01:41Z</time>
      </trkpt>
      <trkpt lat="48.03671" lon="-3.49957">
        <ele>145.5</ele>
        <time>2025-02-26T08:01:42Z</time>
      </trkpt>
      <trkpt lat="48.03672" lon="-3.49957">
        <ele>145.5</ele>
        <time>2025-02-26T08:01:43Z</time>
      </trkpt>
      <trkpt lat="48.03673" lon="-3.49956">
        <ele>145.5</ele>
        <time>2025-02-26T08:01:44Z</time>
      </trkpt>
      <trkpt lat="48.03674" lon="-3.49956">
        <ele>145.5</ele>
        <time>2025-02-26T08:01:45Z</time>
      </trkpt>
      <trkpt lat="48.03675" lon="-3.49956">
        <ele>145.5</ele>
        <time>2025-02-26T08:01:46Z</time>
      </trkpt>
      <trkpt lat="48.03675" lon="-3.49956">
        <ele>145.4</ele>
        <time>2025-02-26T08:01:47Z</time>
      </trkpt>
      <trkpt lat="48.03676" lon="-3.49956">
        <ele>145.4</ele>
        <time>2025-02-26T08:01:48Z</time>
      </trkpt>
      <trkpt lat="48.03677" lon="-3.49955">
        <ele>145.5</ele>
        <time>2025-02-26T08:01:49Z</time>
      </trkpt>
      <trkpt lat="48.03678" lon="-3.49954">
        <ele>145.5</ele>
        <time>2025-02-26T08:01:50Z</time>
      </trkpt>
      <trkpt lat="48.03678" lon="-3.49954">
        <ele>145.5</ele>
        <time>2025-02-26T08:01:51Z</time>
      </trkpt>
      <trkpt lat="48.03679" lon="-3.49953">
        <ele>145.6</ele>
        <time>2025-02-26T08:01:52Z</time>
      </trkpt>
      <trkpt lat="48.03679" lon="-3.49953">
        <ele>145.6</ele>
        <time>2025-02-26T08:01:53Z</time>
      </trkpt>
      <trkpt lat="48.03679" lon="-3.49952">
        <ele>145.6</ele>
        <time>2025-02-26T08:01:54Z</time>
      </trkpt>
      <trkpt lat="48.03679" lon="-3.49952">
        <ele>145.6</ele>
        <time>2025-02-26T08:01:55Z</time>
      </trkpt>
      <trkpt lat="48.0368" lon="-3.49952">
        <ele>145.6</ele>
        <time>2025-02-26T08:01:56Z</time>
      </trkpt>
      <trkpt lat="48.0368" lon="-3.49952">
        <ele>145.6</ele>
        <time>2025-02-26T08:01:57Z</time>
      </trkpt>
      <trkpt lat="48.03681" lon="-3.49952">
        <ele>145.6</ele>
        <time>2025-02-26T08:01:58Z</time>
      </trkpt>
      <trkpt lat="48.03681" lon="-3.49953">
        <ele>145.6</ele>
        <time>2025-02-26T08:01:59Z</time>
      </trkpt>
      <trkpt lat="48.03682" lon="-3.49954">
        <ele>145.5</ele>
        <time>2025-02-26T08:02:00Z</time>
      </trkpt>
      <trkpt lat="48.03683" lon="-3.49955">
        <ele>145.4</ele>
        <time>2025-02-26T08:02:01Z</time>
      </trkpt>
      <trkpt lat="48.03683" lon="-3.49956">
        <ele>145.3</ele>
        <time>2025-02-26T08:02:02Z</time>
      </trkpt>
      <trkpt lat="48.03684" lon="-3.49958">
        <ele>145.2</ele>
        <time>2025-02-26T08:02:03Z</time>
      </trkpt>
      <trkpt lat="48.03685" lon="-3.49958">
        <ele>145.2</ele>
        <time>2025-02-26T08:02:04Z</time>
      </trkpt>
      <trkpt lat="48.03685" lon="-3.49959">
        <ele>145.1</ele>
        <time>2025-02-26T08:02:05Z</time>
      </trkpt>
      <trkpt lat="48.03685" lon="-3.4996">
        <ele>145</ele>
        <time>2025-02-26T08:02:06Z</time>
      </trkpt>
      <trkpt lat="48.03686" lon="-3.49961">
        <ele>145</ele>
        <time>2025-02-26T08:02:07Z</time>
      </trkpt>
      <trkpt lat="48.03687" lon="-3.49962">
        <ele>144.9</ele>
        <time>2025-02-26T08:02:08Z</time>
      </trkpt>
      <trkpt lat="48.03688" lon="-3.49962">
        <ele>144.9</ele>
        <time>2025-02-26T08:02:09Z</time>
      </trkpt>
      <trkpt lat="48.03689" lon="-3.49962">
        <ele>144.8</ele>
        <time>2025-02-26T08:02:10Z</time>
      </trkpt>
      <trkpt lat="48.0369" lon="-3.49963">
        <ele>144.8</ele>
        <time>2025-02-26T08:02:11Z</time>
      </trkpt>
      <trkpt lat="48.03691" lon="-3.49963">
        <ele>144.7</ele>
        <time>2025-02-26T08:02:12Z</time>
      </trkpt>
      <trkpt lat="48.03691" lon="-3.49964">
        <ele>144.7</ele>
        <time>2025-02-26T08:02:13Z</time>
      </trkpt>
      <trkpt lat="48.03692" lon="-3.49965">
        <ele>144.6</ele>
        <time>2025-02-26T08:02:14Z</time>
      </trkpt>
      <trkpt lat="48.03692" lon="-3.49966">
        <ele>144.5</ele>
        <time>2025-02-26T08:02:15Z</time>
      </trkpt>
      <trkpt lat="48.03692" lon="-3.49967">
        <ele>144.5</ele>
        <time>2025-02-26T08:02:16Z</time>
      </trkpt>
      <trkpt lat="48.03693" lon="-3.49967">
        <ele>144.4</ele>
        <time>2025-02-26T08:02:17Z</time>
      </trkpt>
      <trkpt lat="48.03694" lon="-3.49969">
        <ele>144.3</ele>
        <time>2025-02-26T08:02:18Z</time>
      </trkpt>
      <trkpt lat="48.03696" lon="-3.4997">
        <ele>144</ele>
        <time>2025-02-26T08:02:19Z</time>
      </trkpt>
      <trkpt lat="48.03698" lon="-3.4997">
        <ele>143.8</ele>
        <time>2025-02-26T08:02:20Z</time>
      </trkpt>
      <trkpt lat="48.03699" lon="-3.49971">
        <ele>143.7</ele>
        <time>2025-02-26T08:02:21Z</time>
      </trkpt>
      <trkpt lat="48.037" lon="-3.49971">
        <ele>143.5</ele>
        <time>2025-02-26T08:02:22Z</time>
      </trkpt>
      <trkpt lat="48.037" lon="-3.4997">
        <ele>143.5</ele>
        <time>2025-02-26T08:02:23Z</time>
      </trkpt>
      <trkpt lat="48.03701" lon="-3.4997">
        <ele>143.5</ele>
        <time>2025-02-26T08:02:24Z</time>
      </trkpt>
      <trkpt lat="48.03702" lon="-3.49969">
        <ele>143.4</ele>
        <time>2025-02-26T08:02:25Z</time>
      </trkpt>
      <trkpt lat="48.03703" lon="-3.49969">
        <ele>143.3</ele>
        <time>2025-02-26T08:02:26Z</time>
      </trkpt>
      <trkpt lat="48.03703" lon="-3.4997">
        <ele>143.2</ele>
        <time>2025-02-26T08:02:27Z</time>
      </trkpt>
      <trkpt lat="48.03704" lon="-3.49971">
        <ele>143</ele>
        <time>2025-02-26T08:02:28Z</time>
      </trkpt>
      <trkpt lat="48.03705" lon="-3.49972">
        <ele>142.9</ele>
        <time>2025-02-26T08:02:29Z</time>
      </trkpt>
      <trkpt lat="48.03706" lon="-3.49973">
        <ele>142.7</ele>
        <time>2025-02-26T08:02:30Z</time>
      </trkpt>
      <trkpt lat="48.03707" lon="-3.49974">
        <ele>142.5</ele>
        <time>2025-02-26T08:02:31Z</time>
      </trkpt>
      <trkpt lat="48.03709" lon="-3.49975">
        <ele>142.3</ele>
        <time>2025-02-26T08:02:32Z</time>
      </trkpt>
      <trkpt lat="48.0371" lon="-3.49976">
        <ele>142</ele>
        <time>2025-02-26T08:02:33Z</time>
      </trkpt>
      <trkpt lat="48.03711" lon="-3.49977">
        <ele>141.8</ele>
        <time>2025-02-26T08:02:34Z</time>
      </trkpt>
      <trkpt lat="48.03713" lon="-3.49979">
        <ele>141.4</ele>
        <time>2025-02-26T08:02:35Z</time>
      </trkpt>
      <trkpt lat="48.03714" lon="-3.4998">
        <ele>141.2</ele>
        <time>2025-02-26T08:02:36Z</time>
      </trkpt>
      <trkpt lat="48.03716" lon="-3.4998">
        <ele>141.1</ele>
        <time>2025-02-26T08:02:37Z</time>
      </trkpt>
      <trkpt lat="48.03717" lon="-3.49981">
        <ele>140.8</ele>
        <time>2025-02-26T08:02:38Z</time>
      </trkpt>
      <trkpt lat="48.03718" lon="-3.49982">
        <ele>140.7</ele>
        <time>2025-02-26T08:02:39Z</time>
      </trkpt>
      <trkpt lat="48.03719" lon="-3.49983">
        <ele>140.5</ele>
        <time>2025-02-26T08:02:40Z</time>
      </trkpt>
      <trkpt lat="48.0372" lon="-3.49984">
        <ele>140.4</ele>
        <time>2025-02-26T08:02:41Z</time>
      </trkpt>
      <trkpt lat="48.03722" lon="-3.49984">
        <ele>140.2</ele>
        <time>2025-02-26T08:02:42Z</time>
      </trkpt>
      <trkpt lat="48.03723" lon="-3.49984">
        <ele>140.1</ele>
        <time>2025-02-26T08:02:43Z</time>
      </trkpt>
      <trkpt lat="48.03723" lon="-3.49985">
        <ele>140.1</ele>
        <time>2025-02-26T08:02:44Z</time>
      </trkpt>
      <trkpt lat="48.03724" lon="-3.49985">
        <ele>140.1</ele>
        <time>2025-02-26T08:02:45Z</time>
      </trkpt>
      <trkpt lat="48.03726" lon="-3.49987">
        <ele>139.9</ele>
        <time>2025-02-26T08:02:46Z</time>
      </trkpt>
      <trkpt lat="48.03726" lon="-3.4999">
        <ele>139.8</ele>
        <time>2025-02-26T08:02:47Z</time>
      </trkpt>
      <trkpt lat="48.03727" lon="-3.49991">
        <ele>139.7</ele>
        <time>2025-02-26T08:02:48Z</time>
      </trkpt>
      <trkpt lat="48.03727" lon="-3.49992">
        <ele>139.6</ele>
        <time>2025-02-26T08:02:49Z</time>
      </trkpt>
      <trkpt lat="48.03728" lon="-3.49993">
        <ele>139.5</ele>
        <time>2025-02-26T08:02:50Z</time>
      </trkpt>
      <trkpt lat="48.03729" lon="-3.49994">
        <ele>139.4</ele>
        <time>2025-02-26T08:02:51Z</time>
      </trkpt>
      <trkpt lat="48.0373" lon="-3.49996">
        <ele>139.3</ele>
        <time>2025-02-26T08:02:52Z</time>
      </trkpt>
      <trkpt lat="48.03731" lon="-3.49997">
        <ele>139.2</ele>
        <time>2025-02-26T08:02:53Z</time>
      </trkpt>
      <trkpt lat="48.03732" lon="-3.49998">
        <ele>139.2</ele>
        <time>2025-02-26T08:02:54Z</time>
      </trkpt>
      <trkpt lat="48.03733" lon="-3.49998">
        <ele>139.1</ele>
        <time>2025-02-26T08:02:55Z</time>
      </trkpt>
      <trkpt lat="48.03733" lon="-3.49999">
        <ele>139.1</ele>
        <time>2025-02-26T08:02:56Z</time>
      </trkpt>
      <trkpt lat="48.03734" lon="-3.50001">
        <ele>138.9</ele>
        <time>2025-02-26T08:02:57Z</time>
      </trkpt>
      <trkpt lat="48.03735" lon="-3.50002">
        <ele>138.8</ele>
        <time>2025-02-26T08:02:58Z</time>
      </trkpt>
      <trkpt lat="48.03736" lon="-3.50004">
        <ele>138.7</ele>
        <time>2025-02-26T08:02:59Z</time>
      </trkpt>
      <trkpt lat="48.03736" lon="-3.50005">
        <ele>138.7</ele>
        <time>2025-02-26T08:03:00Z</time>
      </trkpt>
      <trkpt lat="48.03736" lon="-3.50006">
        <ele>138.5</ele>
        <time>2025-02-26T08:03:01Z</time>
      </trkpt>
      <trkpt lat="48.03737" lon="-3.50008">
        <ele>138.4</ele>
        <time>2025-02-26T08:03:02Z</time>
      </trkpt>
      <trkpt lat="48.03738" lon="-3.50009">
        <ele>138.3</ele>
        <time>2025-02-26T08:03:03Z</time>
      </trkpt>
      <trkpt lat="48.03738" lon="-3.5001">
        <ele>138.3</ele>
        <time>2025-02-26T08:03:04Z</time>
      </trkpt>
      <trkpt lat="48.03739" lon="-3.50011">
        <ele>138.2</ele>
        <time>2025-02-26T08:03:05Z</time>
      </trkpt>
      <trkpt lat="48.0374" lon="-3.50013">
        <ele>138.1</ele>
        <time>2025-02-26T08:03:06Z</time>
      </trkpt>
      <trkpt lat="48.03741" lon="-3.50014">
        <ele>138</ele>
        <time>2025-02-26T08:03:07Z</time>
      </trkpt>
      <trkpt lat="48.03741" lon="-3.50015">
        <ele>137.9</ele>
        <time>2025-02-26T08:03:08Z</time>
      </trkpt>
      <trkpt lat="48.03742" lon="-3.50016">
        <ele>137.8</ele>
        <time>2025-02-26T08:03:09Z</time>
      </trkpt>
      <trkpt lat="48.03743" lon="-3.50017">
        <ele>137.8</ele>
        <time>2025-02-26T08:03:10Z</time>
      </trkpt>
      <trkpt lat="48.03744" lon="-3.50018">
        <ele>137.7</ele>
        <time>2025-02-26T08:03:11Z</time>
      </trkpt>
      <trkpt lat="48.03745" lon="-3.50019">
        <ele>137.6</ele>
        <time>2025-02-26T08:03:12Z</time>
      </trkpt>
      <trkpt lat="48.03746" lon="-3.50019">
        <ele>137.6</ele>
        <time>2025-02-26T08:03:13Z</time>
      </trkpt>
      <trkpt lat="48.03746" lon="-3.50021">
        <ele>137.5</ele>
        <time>2025-02-26T08:03:14Z</time>
      </trkpt>
      <trkpt lat="48.03747" lon="-3.50023">
        <ele>137.4</ele>
        <time>2025-02-26T08:03:15Z</time>
      </trkpt>
      <trkpt lat="48.03748" lon="-3.50024">
        <ele>137.3</ele>
        <time>2025-02-26T08:03:16Z</time>
      </trkpt>
      <trkpt lat="48.03748" lon="-3.50026">
        <ele>137.1</ele>
        <time>2025-02-26T08:03:17Z</time>
      </trkpt>
      <trkpt lat="48.03749" lon="-3.50027">
        <ele>137</ele>
        <time>2025-02-26T08:03:18Z</time>
      </trkpt>
      <trkpt lat="48.0375" lon="-3.50028">
        <ele>137</ele>
        <time>2025-02-26T08:03:19Z</time>
      </trkpt>
      <trkpt lat="48.03752" lon="-3.50029">
        <ele>137</ele>
        <time>2025-02-26T08:03:20Z</time>
      </trkpt>
      <trkpt lat="48.03752" lon="-3.50029">
        <ele>137</ele>
        <time>2025-02-26T08:03:21Z</time>
      </trkpt>
      <trkpt lat="48.03753" lon="-3.50031">
        <ele>137</ele>
        <time>2025-02-26T08:03:22Z</time>
      </trkpt>
      <trkpt lat="48.03754" lon="-3.50032">
        <ele>136.9</ele>
        <time>2025-02-26T08:03:23Z</time>
      </trkpt>
      <trkpt lat="48.03754" lon="-3.50034">
        <ele>136.9</ele>
        <time>2025-02-26T08:03:24Z</time>
      </trkpt>
      <trkpt lat="48.03756" lon="-3.50034">
        <ele>136.9</ele>
        <time>2025-02-26T08:03:25Z</time>
      </trkpt>
      <trkpt lat="48.03756" lon="-3.50034">
        <ele>137</ele>
        <time>2025-02-26T08:03:26Z</time>
      </trkpt>
      <trkpt lat="48.03757" lon="-3.50035">
        <ele>136.9</ele>
        <time>2025-02-26T08:03:27Z</time>
      </trkpt>
      <trkpt lat="48.03758" lon="-3.50036">
        <ele>136.9</ele>
        <time>2025-02-26T08:03:28Z</time>
      </trkpt>
      <trkpt lat="48.03759" lon="-3.50037">
        <ele>136.9</ele>
        <time>2025-02-26T08:03:29Z</time>
      </trkpt>
      <trkpt lat="48.03759" lon="-3.50038">
        <ele>136.8</ele>
        <time>2025-02-26T08:03:30Z</time>
      </trkpt>
      <trkpt lat="48.0376" lon="-3.50039">
        <ele>136.8</ele>
        <time>2025-02-26T08:03:31Z</time>
      </trkpt>
      <trkpt lat="48.0376" lon="-3.5004">
        <ele>136.7</ele>
        <time>2025-02-26T08:03:32Z</time>
      </trkpt>
      <trkpt lat="48.03761" lon="-3.50041">
        <ele>136.7</ele>
        <time>2025-02-26T08:03:33Z</time>
      </trkpt>
      <trkpt lat="48.03762" lon="-3.50042">
        <ele>136.7</ele>
        <time>2025-02-26T08:03:34Z</time>
      </trkpt>
      <trkpt lat="48.03763" lon="-3.50044">
        <ele>136.6</ele>
        <time>2025-02-26T08:03:35Z</time>
      </trkpt>
      <trkpt lat="48.03764" lon="-3.50045">
        <ele>136.6</ele>
        <time>2025-02-26T08:03:36Z</time>
      </trkpt>
      <trkpt lat="48.03765" lon="-3.50047">
        <ele>136.5</ele>
        <time>2025-02-26T08:03:37Z</time>
      </trkpt>
      <trkpt lat="48.03765" lon="-3.50049">
        <ele>136.4</ele>
        <time>2025-02-26T08:03:38Z</time>
      </trkpt>
      <trkpt lat="48.03766" lon="-3.50051">
        <ele>136.3</ele>
        <time>2025-02-26T08:03:39Z</time>
      </trkpt>
      <trkpt lat="48.03767" lon="-3.50052">
        <ele>136.2</ele>
        <time>2025-02-26T08:03:40Z</time>
      </trkpt>
      <trkpt lat="48.03769" lon="-3.50053">
        <ele>136.2</ele>
        <time>2025-02-26T08:03:41Z</time>
      </trkpt>
      <trkpt lat="48.0377" lon="-3.50054">
        <ele>136.1</ele>
        <time>2025-02-26T08:03:42Z</time>
      </trkpt>
      <trkpt lat="48.03771" lon="-3.50055">
        <ele>136.1</ele>
        <time>2025-02-26T08:03:43Z</time>
      </trkpt>
      <trkpt lat="48.03771" lon="-3.50055">
        <ele>136</ele>
        <time>2025-02-26T08:03:44Z</time>
      </trkpt>
      <trkpt lat="48.03772" lon="-3.50057">
        <ele>135.9</ele>
        <time>2025-02-26T08:03:45Z</time>
      </trkpt>
      <trkpt lat="48.03772" lon="-3.50059">
        <ele>135.7</ele>
        <time>2025-02-26T08:03:46Z</time>
      </trkpt>
      <trkpt lat="48.03773" lon="-3.50061">
        <ele>135.6</ele>
        <time>2025-02-26T08:03:47Z</time>
      </trkpt>
      <trkpt lat="48.03773" lon="-3.50063">
        <ele>135.5</ele>
        <time>2025-02-26T08:03:48Z</time>
      </trkpt>
      <trkpt lat="48.03774" lon="-3.50065">
        <ele>135.3</ele>
        <time>2025-02-26T08:03:49Z</time>
      </trkpt>
      <trkpt lat="48.03773" lon="-3.50066">
        <ele>135.2</ele>
        <time>2025-02-26T08:03:50Z</time>
      </trkpt>
      <trkpt lat="48.03773" lon="-3.50068">
        <ele>135.1</ele>
        <time>2025-02-26T08:03:51Z</time>
      </trkpt>
      <trkpt lat="48.03774" lon="-3.5007">
        <ele>135</ele>
        <time>2025-02-26T08:03:52Z</time>
      </trkpt>
      <trkpt lat="48.03774" lon="-3.50072">
        <ele>134.8</ele>
        <time>2025-02-26T08:03:53Z</time>
      </trkpt>
      <trkpt lat="48.03773" lon="-3.50074">
        <ele>134.7</ele>
        <time>2025-02-26T08:03:54Z</time>
      </trkpt>
      <trkpt lat="48.03774" lon="-3.50076">
        <ele>134.6</ele>
        <time>2025-02-26T08:03:55Z</time>
      </trkpt>
      <trkpt lat="48.03774" lon="-3.50077">
        <ele>134.4</ele>
        <time>2025-02-26T08:03:56Z</time>
      </trkpt>
      <trkpt lat="48.03775" lon="-3.50079">
        <ele>134.3</ele>
        <time>2025-02-26T08:03:57Z</time>
      </trkpt>
      <trkpt lat="48.03775" lon="-3.50081">
        <ele>134.2</ele>
        <time>2025-02-26T08:03:58Z</time>
      </trkpt>
      <trkpt lat="48.03775" lon="-3.50083">
        <ele>134</ele>
        <time>2025-02-26T08:03:59Z</time>
      </trkpt>
      <trkpt lat="48.03776" lon="-3.50085">
        <ele>134</ele>
        <time>2025-02-26T08:04:00Z</time>
      </trkpt>
      <trkpt lat="48.03776" lon="-3.50087">
        <ele>133.9</ele>
        <time>2025-02-26T08:04:01Z</time>
      </trkpt>
      <trkpt lat="48.03776" lon="-3.50089">
        <ele>133.8</ele>
        <time>2025-02-26T08:04:02Z</time>
      </trkpt>
      <trkpt lat="48.03777" lon="-3.50092">
        <ele>133.7</ele>
        <time>2025-02-26T08:04:03Z</time>
      </trkpt>
      <trkpt lat="48.03777" lon="-3.50094">
        <ele>133.6</ele>
        <time>2025-02-26T08:04:04Z</time>
      </trkpt>
      <trkpt lat="48.03777" lon="-3.50096">
        <ele>133.5</ele>
        <time>2025-02-26T08:04:05Z</time>
      </trkpt>
      <trkpt lat="48.03777" lon="-3.50098">
        <ele>133.5</ele>
        <time>2025-02-26T08:04:06Z</time>
      </trkpt>
      <trkpt lat="48.03777" lon="-3.501">
        <ele>133.4</ele>
        <time>2025-02-26T08:04:07Z</time>
      </trkpt>
      <trkpt lat="48.03777" lon="-3.50102">
        <ele>133.3</ele>
        <time>2025-02-26T08:04:08Z</time>
      </trkpt>
      <trkpt lat="48.03776" lon="-3.50103">
        <ele>133.3</ele>
        <time>2025-02-26T08:04:09Z</time>
      </trkpt>
      <trkpt lat="48.03776" lon="-3.50105">
        <ele>133.2</ele>
        <time>2025-02-26T08:04:10Z</time>
      </trkpt>
      <trkpt lat="48.03776" lon="-3.50107">
        <ele>133.1</ele>
        <time>2025-02-26T08:04:11Z</time>
      </trkpt>
      <trkpt lat="48.03776" lon="-3.50109">
        <ele>133</ele>
        <time>2025-02-26T08:04:12Z</time>
      </trkpt>
      <trkpt lat="48.03776" lon="-3.50111">
        <ele>132.9</ele>
        <time>2025-02-26T08:04:13Z</time>
      </trkpt>
      <trkpt lat="48.03776" lon="-3.50113">
        <ele>132.9</ele>
        <time>2025-02-26T08:04:14Z</time>
      </trkpt>
      <trkpt lat="48.03776" lon="-3.50115">
        <ele>132.8</ele>
        <time>2025-02-26T08:04:15Z</time>
      </trkpt>
      <trkpt lat="48.03776" lon="-3.50116">
        <ele>132.8</ele>
        <time>2025-02-26T08:04:16Z</time>
      </trkpt>
      <trkpt lat="48.03776" lon="-3.50118">
        <ele>132.7</ele>
        <time>2025-02-26T08:04:17Z</time>
      </trkpt>
      <trkpt lat="48.03777" lon="-3.5012">
        <ele>132.7</ele>
        <time>2025-02-26T08:04:18Z</time>
      </trkpt>
      <trkpt lat="48.03777" lon="-3.50122">
        <ele>132.6</ele>
        <time>2025-02-26T08:04:19Z</time>
      </trkpt>
      <trkpt lat="48.03777" lon="-3.50124">
        <ele>132.5</ele>
        <time>2025-02-26T08:04:20Z</time>
      </trkpt>
      <trkpt lat="48.03777" lon="-3.50125">
        <ele>132.5</ele>
        <time>2025-02-26T08:04:21Z</time>
      </trkpt>
      <trkpt lat="48.03777" lon="-3.50127">
        <ele>132.4</ele>
        <time>2025-02-26T08:04:22Z</time>
      </trkpt>
      <trkpt lat="48.03778" lon="-3.50129">
        <ele>132.4</ele>
        <time>2025-02-26T08:04:23Z</time>
      </trkpt>
      <trkpt lat="48.03779" lon="-3.5013">
        <ele>132.4</ele>
        <time>2025-02-26T08:04:24Z</time>
      </trkpt>
      <trkpt lat="48.0378" lon="-3.50132">
        <ele>132.5</ele>
        <time>2025-02-26T08:04:25Z</time>
      </trkpt>
      <trkpt lat="48.03781" lon="-3.50134">
        <ele>132.5</ele>
        <time>2025-02-26T08:04:26Z</time>
      </trkpt>
      <trkpt lat="48.03782" lon="-3.50135">
        <ele>132.6</ele>
        <time>2025-02-26T08:04:27Z</time>
      </trkpt>
      <trkpt lat="48.03783" lon="-3.50136">
        <ele>132.6</ele>
        <time>2025-02-26T08:04:28Z</time>
      </trkpt>
      <trkpt lat="48.03784" lon="-3.50138">
        <ele>132.7</ele>
        <time>2025-02-26T08:04:29Z</time>
      </trkpt>
      <trkpt lat="48.03785" lon="-3.50139">
        <ele>132.7</ele>
        <time>2025-02-26T08:04:30Z</time>
      </trkpt>
      <trkpt lat="48.03785" lon="-3.5014">
        <ele>132.8</ele>
        <time>2025-02-26T08:04:31Z</time>
      </trkpt>
      <trkpt lat="48.03786" lon="-3.50141">
        <ele>132.9</ele>
        <time>2025-02-26T08:04:32Z</time>
      </trkpt>
      <trkpt lat="48.03787" lon="-3.50142">
        <ele>132.9</ele>
        <time>2025-02-26T08:04:33Z</time>
      </trkpt>
      <trkpt lat="48.03788" lon="-3.50143">
        <ele>132.9</ele>
        <time>2025-02-26T08:04:34Z</time>
      </trkpt>
      <trkpt lat="48.03789" lon="-3.50144">
        <ele>133</ele>
        <time>2025-02-26T08:04:35Z</time>
      </trkpt>
      <trkpt lat="48.0379" lon="-3.50146">
        <ele>133.1</ele>
        <time>2025-02-26T08:04:36Z</time>
      </trkpt>
      <trkpt lat="48.0379" lon="-3.50147">
        <ele>133.1</ele>
        <time>2025-02-26T08:04:37Z</time>
      </trkpt>
      <trkpt lat="48.03791" lon="-3.50148">
        <ele>133.1</ele>
        <time>2025-02-26T08:04:38Z</time>
      </trkpt>
      <trkpt lat="48.03792" lon="-3.50149">
        <ele>133.2</ele>
        <time>2025-02-26T08:04:39Z</time>
      </trkpt>
      <trkpt lat="48.03793" lon="-3.5015">
        <ele>133.3</ele>
        <time>2025-02-26T08:04:40Z</time>
      </trkpt>
      <trkpt lat="48.03795" lon="-3.50151">
        <ele>133.4</ele>
        <time>2025-02-26T08:04:41Z</time>
      </trkpt>
      <trkpt lat="48.03795" lon="-3.50152">
        <ele>133.4</ele>
        <time>2025-02-26T08:04:42Z</time>
      </trkpt>
      <trkpt lat="48.03796" lon="-3.50153">
        <ele>133.5</ele>
        <time>2025-02-26T08:04:43Z</time>
      </trkpt>
      <trkpt lat="48.03797" lon="-3.50153">
        <ele>133.6</ele>
        <time>2025-02-26T08:04:44Z</time>
      </trkpt>
      <trkpt lat="48.03798" lon="-3.50154">
        <ele>133.7</ele>
        <time>2025-02-26T08:04:45Z</time>
      </trkpt>
      <trkpt lat="48.03799" lon="-3.50154">
        <ele>133.7</ele>
        <time>2025-02-26T08:04:46Z</time>
      </trkpt>
      <trkpt lat="48.038" lon="-3.50155">
        <ele>133.8</ele>
        <time>2025-02-26T08:04:47Z</time>
      </trkpt>
      <trkpt lat="48.03801" lon="-3.50155">
        <ele>133.9</ele>
        <time>2025-02-26T08:04:48Z</time>
      </trkpt>
      <trkpt lat="48.03802" lon="-3.50156">
        <ele>134</ele>
        <time>2025-02-26T08:04:49Z</time>
      </trkpt>
      <trkpt lat="48.03803" lon="-3.50156">
        <ele>134.1</ele>
        <time>2025-02-26T08:04:50Z</time>
      </trkpt>
      <trkpt lat="48.03804" lon="-3.50156">
        <ele>134.2</ele>
        <time>2025-02-26T08:04:51Z</time>
      </trkpt>
      <trkpt lat="48.03805" lon="-3.50156">
        <ele>134.3</ele>
        <time>2025-02-26T08:04:52Z</time>
      </trkpt>
      <trkpt lat="48.03806" lon="-3.50157">
        <ele>134.4</ele>
        <time>2025-02-26T08:04:53Z</time>
      </trkpt>
      <trkpt lat="48.03807" lon="-3.50157">
        <ele>134.5</ele>
        <time>2025-02-26T08:04:54Z</time>
      </trkpt>
      <trkpt lat="48.03808" lon="-3.50158">
        <ele>134.6</ele>
        <time>2025-02-26T08:04:55Z</time>
      </trkpt>
      <trkpt lat="48.03809" lon="-3.50158">
        <ele>134.8</ele>
        <time>2025-02-26T08:04:56Z</time>
      </trkpt>
      <trkpt lat="48.0381" lon="-3.50158">
        <ele>134.9</ele>
        <time>2025-02-26T08:04:57Z</time>
      </trkpt>
      <trkpt lat="48.03811" lon="-3.50158">
        <ele>135.1</ele>
        <time>2025-02-26T08:04:58Z</time>
      </trkpt>
      <trkpt lat="48.03812" lon="-3.50158">
        <ele>135.2</ele>
        <time>2025-02-26T08:04:59Z</time>
      </trkpt>
      <trkpt lat="48.03813" lon="-3.50159">
        <ele>135.3</ele>
        <time>2025-02-26T08:05:00Z</time>
      </trkpt>
      <trkpt lat="48.03813" lon="-3.5016">
        <ele>135.3</ele>
        <time>2025-02-26T08:05:01Z</time>
      </trkpt>
      <trkpt lat="48.03814" lon="-3.5016">
        <ele>135.4</ele>
        <time>2025-02-26T08:05:02Z</time>
      </trkpt>
      <trkpt lat="48.03815" lon="-3.50161">
        <ele>135.6</ele>
        <time>2025-02-26T08:05:03Z</time>
      </trkpt>
      <trkpt lat="48.03816" lon="-3.5016">
        <ele>135.7</ele>
        <time>2025-02-26T08:05:04Z</time>
      </trkpt>
      <trkpt lat="48.03817" lon="-3.50161">
        <ele>135.8</ele>
        <time>2025-02-26T08:05:05Z</time>
      </trkpt>
      <trkpt lat="48.03818" lon="-3.50161">
        <ele>136</ele>
        <time>2025-02-26T08:05:06Z</time>
      </trkpt>
      <trkpt lat="48.03819" lon="-3.50162">
        <ele>136.1</ele>
        <time>2025-02-26T08:05:07Z</time>
      </trkpt>
      <trkpt lat="48.0382" lon="-3.50161">
        <ele>136.3</ele>
        <time>2025-02-26T08:05:08Z</time>
      </trkpt>
      <trkpt lat="48.03821" lon="-3.50162">
        <ele>136.5</ele>
        <time>2025-02-26T08:05:09Z</time>
      </trkpt>
      <trkpt lat="48.03822" lon="-3.50162">
        <ele>136.6</ele>
        <time>2025-02-26T08:05:10Z</time>
      </trkpt>
      <trkpt lat="48.03823" lon="-3.50163">
        <ele>136.7</ele>
        <time>2025-02-26T08:05:11Z</time>
      </trkpt>
      <trkpt lat="48.03824" lon="-3.50163">
        <ele>136.8</ele>
        <time>2025-02-26T08:05:12Z</time>
      </trkpt>
      <trkpt lat="48.03825" lon="-3.50164">
        <ele>136.9</ele>
        <time>2025-02-26T08:05:13Z</time>
      </trkpt>
      <trkpt lat="48.03826" lon="-3.50164">
        <ele>137.1</ele>
        <time>2025-02-26T08:05:14Z</time>
      </trkpt>
      <trkpt lat="48.03827" lon="-3.50165">
        <ele>137.2</ele>
        <time>2025-02-26T08:05:15Z</time>
      </trkpt>
      <trkpt lat="48.03828" lon="-3.50165">
        <ele>137.3</ele>
        <time>2025-02-26T08:05:16Z</time>
      </trkpt>
      <trkpt lat="48.03829" lon="-3.50166">
        <ele>137.4</ele>
        <time>2025-02-26T08:05:17Z</time>
      </trkpt>
      <trkpt lat="48.0383" lon="-3.50168">
        <ele>137.5</ele>
        <time>2025-02-26T08:05:18Z</time>
      </trkpt>
      <trkpt lat="48.03831" lon="-3.50169">
        <ele>137.6</ele>
        <time>2025-02-26T08:05:19Z</time>
      </trkpt>
      <trkpt lat="48.03832" lon="-3.5017">
        <ele>137.7</ele>
        <time>2025-02-26T08:05:20Z</time>
      </trkpt>
      <trkpt lat="48.03833" lon="-3.50171">
        <ele>137.7</ele>
        <time>2025-02-26T08:05:21Z</time>
      </trkpt>
      <trkpt lat="48.03833" lon="-3.50173">
        <ele>137.7</ele>
        <time>2025-02-26T08:05:22Z</time>
      </trkpt>
      <trkpt lat="48.03833" lon="-3.50175">
        <ele>137.7</ele>
        <time>2025-02-26T08:05:23Z</time>
      </trkpt>
      <trkpt lat="48.03834" lon="-3.50176">
        <ele>137.7</ele>
        <time>2025-02-26T08:05:24Z</time>
      </trkpt>
      <trkpt lat="48.03835" lon="-3.50178">
        <ele>137.7</ele>
        <time>2025-02-26T08:05:25Z</time>
      </trkpt>
      <trkpt lat="48.03835" lon="-3.5018">
        <ele>137.7</ele>
        <time>2025-02-26T08:05:26Z</time>
      </trkpt>
      <trkpt lat="48.03835" lon="-3.50182">
        <ele>137.6</ele>
        <time>2025-02-26T08:05:27Z</time>
      </trkpt>
      <trkpt lat="48.03836" lon="-3.50184">
        <ele>137.6</ele>
        <time>2025-02-26T08:05:28Z</time>
      </trkpt>
      <trkpt lat="48.03836" lon="-3.50186">
        <ele>137.6</ele>
        <time>2025-02-26T08:05:29Z</time>
      </trkpt>
      <trkpt lat="48.03836" lon="-3.50187">
        <ele>137.6</ele>
        <time>2025-02-26T08:05:30Z</time>
      </trkpt>
      <trkpt lat="48.03837" lon="-3.50189">
        <ele>137.6</ele>
        <time>2025-02-26T08:05:31Z</time>
      </trkpt>
      <trkpt lat="48.03837" lon="-3.50191">
        <ele>137.5</ele>
        <time>2025-02-26T08:05:32Z</time>
      </trkpt>
      <trkpt lat="48.03839" lon="-3.50193">
        <ele>137.7</ele>
        <time>2025-02-26T08:05:33Z</time>
      </trkpt>
      <trkpt lat="48.0384" lon="-3.50194">
        <ele>137.7</ele>
        <time>2025-02-26T08:05:34Z</time>
      </trkpt>
      <trkpt lat="48.0384" lon="-3.50195">
        <ele>137.7</ele>
        <time>2025-02-26T08:05:35Z</time>
      </trkpt>
      <trkpt lat="48.03841" lon="-3.50196">
        <ele>137.7</ele>
        <time>2025-02-26T08:05:36Z</time>
      </trkpt>
      <trkpt lat="48.03841" lon="-3.50198">
        <ele>137.7</ele>
        <time>2025-02-26T08:05:37Z</time>
      </trkpt>
      <trkpt lat="48.03841" lon="-3.50199">
        <ele>137.7</ele>
        <time>2025-02-26T08:05:38Z</time>
      </trkpt>
      <trkpt lat="48.03841" lon="-3.50201">
        <ele>137.6</ele>
        <time>2025-02-26T08:05:39Z</time>
      </trkpt>
      <trkpt lat="48.03841" lon="-3.50202">
        <ele>137.6</ele>
        <time>2025-02-26T08:05:40Z</time>
      </trkpt>
      <trkpt lat="48.03842" lon="-3.50204">
        <ele>137.6</ele>
        <time>2025-02-26T08:05:41Z</time>
      </trkpt>
      <trkpt lat="48.03843" lon="-3.50205">
        <ele>137.7</ele>
        <time>2025-02-26T08:05:42Z</time>
      </trkpt>
      <trkpt lat="48.03844" lon="-3.50206">
        <ele>137.7</ele>
        <time>2025-02-26T08:05:43Z</time>
      </trkpt>
      <trkpt lat="48.03845" lon="-3.50208">
        <ele>137.8</ele>
        <time>2025-02-26T08:05:44Z</time>
      </trkpt>
      <trkpt lat="48.03845" lon="-3.50209">
        <ele>137.7</ele>
        <time>2025-02-26T08:05:45Z</time>
      </trkpt>
      <trkpt lat="48.03845" lon="-3.50211">
        <ele>137.7</ele>
        <time>2025-02-26T08:05:46Z</time>
      </trkpt>
      <trkpt lat="48.03846" lon="-3.50213">
        <ele>137.7</ele>
        <time>2025-02-26T08:05:47Z</time>
      </trkpt>
      <trkpt lat="48.03847" lon="-3.50215">
        <ele>137.7</ele>
        <time>2025-02-26T08:05:48Z</time>
      </trkpt>
      <trkpt lat="48.03848" lon="-3.50216">
        <ele>137.8</ele>
        <time>2025-02-26T08:05:49Z</time>
      </trkpt>
      <trkpt lat="48.03849" lon="-3.50217">
        <ele>137.9</ele>
        <time>2025-02-26T08:05:50Z</time>
      </trkpt>
      <trkpt lat="48.0385" lon="-3.50218">
        <ele>137.9</ele>
        <time>2025-02-26T08:05:51Z</time>
      </trkpt>
      <trkpt lat="48.03851" lon="-3.5022">
        <ele>138</ele>
        <time>2025-02-26T08:05:52Z</time>
      </trkpt>
      <trkpt lat="48.03852" lon="-3.50221">
        <ele>138</ele>
        <time>2025-02-26T08:05:53Z</time>
      </trkpt>
      <trkpt lat="48.03853" lon="-3.50222">
        <ele>138.1</ele>
        <time>2025-02-26T08:05:54Z</time>
      </trkpt>
      <trkpt lat="48.03853" lon="-3.50224">
        <ele>138.1</ele>
        <time>2025-02-26T08:05:55Z</time>
      </trkpt>
      <trkpt lat="48.03853" lon="-3.50226">
        <ele>138</ele>
        <time>2025-02-26T08:05:56Z</time>
      </trkpt>
      <trkpt lat="48.03854" lon="-3.50228">
        <ele>138</ele>
        <time>2025-02-26T08:05:57Z</time>
      </trkpt>
      <trkpt lat="48.03854" lon="-3.50231">
        <ele>137.9</ele>
        <time>2025-02-26T08:05:58Z</time>
      </trkpt>
      <trkpt lat="48.03854" lon="-3.50232">
        <ele>137.9</ele>
        <time>2025-02-26T08:05:59Z</time>
      </trkpt>
      <trkpt lat="48.03855" lon="-3.50234">
        <ele>137.9</ele>
        <time>2025-02-26T08:06:00Z</time>
      </trkpt>
      <trkpt lat="48.03856" lon="-3.50236">
        <ele>137.9</ele>
        <time>2025-02-26T08:06:01Z</time>
      </trkpt>
      <trkpt lat="48.03856" lon="-3.50238">
        <ele>137.9</ele>
        <time>2025-02-26T08:06:02Z</time>
      </trkpt>
      <trkpt lat="48.03856" lon="-3.5024">
        <ele>137.8</ele>
        <time>2025-02-26T08:06:03Z</time>
      </trkpt>
      <trkpt lat="48.03856" lon="-3.50241">
        <ele>137.8</ele>
        <time>2025-02-26T08:06:04Z</time>
      </trkpt>
      <trkpt lat="48.03856" lon="-3.50243">
        <ele>137.8</ele>
        <time>2025-02-26T08:06:05Z</time>
      </trkpt>
      <trkpt lat="48.03857" lon="-3.50243">
        <ele>137.8</ele>
        <time>2025-02-26T08:06:06Z</time>
      </trkpt>
      <trkpt lat="48.03857" lon="-3.50243">
        <ele>137.8</ele>
        <time>2025-02-26T08:06:07Z</time>
      </trkpt>
      <trkpt lat="48.03857" lon="-3.50243">
        <ele>137.8</ele>
        <time>2025-02-26T08:06:08Z</time>
      </trkpt>
      <trkpt lat="48.03857" lon="-3.50243">
        <ele>137.8</ele>
        <time>2025-02-26T08:06:09Z</time>
      </trkpt>
      <trkpt lat="48.03857" lon="-3.50243">
        <ele>137.8</ele>
        <time>2025-02-26T08:06:10Z</time>
      </trkpt>
      <trkpt lat="48.03857" lon="-3.50243">
        <ele>137.8</ele>
        <time>2025-02-26T08:06:11Z</time>
      </trkpt>
      <trkpt lat="48.03857" lon="-3.50243">
        <ele>137.8</ele>
        <time>2025-02-26T08:06:12Z</time>
      </trkpt>
      <trkpt lat="48.03857" lon="-3.50244">
        <ele>137.8</ele>
        <time>2025-02-26T08:06:13Z</time>
      </trkpt>
      <trkpt lat="48.03858" lon="-3.50244">
        <ele>137.8</ele>
        <time>2025-02-26T08:06:14Z</time>
      </trkpt>
      <trkpt lat="48.03858" lon="-3.50245">
        <ele>137.9</ele>
        <time>2025-02-26T08:06:15Z</time>
      </trkpt>
      <trkpt lat="48.03858" lon="-3.50247">
        <ele>137.8</ele>
        <time>2025-02-26T08:06:16Z</time>
      </trkpt>
      <trkpt lat="48.03859" lon="-3.50247">
        <ele>137.9</ele>
        <time>2025-02-26T08:06:17Z</time>
      </trkpt>
      <trkpt lat="48.0386" lon="-3.50248">
        <ele>138</ele>
        <time>2025-02-26T08:06:18Z</time>
      </trkpt>
      <trkpt lat="48.03861" lon="-3.50248">
        <ele>138.1</ele>
        <time>2025-02-26T08:06:19Z</time>
      </trkpt>
      <trkpt lat="48.03862" lon="-3.50248">
        <ele>138.2</ele>
        <time>2025-02-26T08:06:20Z</time>
      </trkpt>
      <trkpt lat="48.03863" lon="-3.50249">
        <ele>138.2</ele>
        <time>2025-02-26T08:06:21Z</time>
      </trkpt>
      <trkpt lat="48.03864" lon="-3.50248">
        <ele>138.3</ele>
        <time>2025-02-26T08:06:22Z</time>
      </trkpt>
      <trkpt lat="48.03865" lon="-3.50248">
        <ele>138.4</ele>
        <time>2025-02-26T08:06:23Z</time>
      </trkpt>
      <trkpt lat="48.03865" lon="-3.50248">
        <ele>138.5</ele>
        <time>2025-02-26T08:06:24Z</time>
      </trkpt>
      <trkpt lat="48.03866" lon="-3.50248">
        <ele>138.6</ele>
        <time>2025-02-26T08:06:25Z</time>
      </trkpt>
      <trkpt lat="48.03867" lon="-3.50248">
        <ele>138.7</ele>
        <time>2025-02-26T08:06:26Z</time>
      </trkpt>
      <trkpt lat="48.03868" lon="-3.50248">
        <ele>138.8</ele>
        <time>2025-02-26T08:06:27Z</time>
      </trkpt>
      <trkpt lat="48.03869" lon="-3.50248">
        <ele>138.9</ele>
        <time>2025-02-26T08:06:28Z</time>
      </trkpt>
      <trkpt lat="48.0387" lon="-3.50249">
        <ele>139</ele>
        <time>2025-02-26T08:06:29Z</time>
      </trkpt>
      <trkpt lat="48.03871" lon="-3.50249">
        <ele>139.1</ele>
        <time>2025-02-26T08:06:30Z</time>
      </trkpt>
      <trkpt lat="48.03872" lon="-3.50249">
        <ele>139.2</ele>
        <time>2025-02-26T08:06:31Z</time>
      </trkpt>
      <trkpt lat="48.03873" lon="-3.50249">
        <ele>139.3</ele>
        <time>2025-02-26T08:06:32Z</time>
      </trkpt>
      <trkpt lat="48.03874" lon="-3.50249">
        <ele>139.4</ele>
        <time>2025-02-26T08:06:33Z</time>
      </trkpt>
      <trkpt lat="48.03875" lon="-3.50249">
        <ele>139.5</ele>
        <time>2025-02-26T08:06:34Z</time>
      </trkpt>
      <trkpt lat="48.03876" lon="-3.5025">
        <ele>139.6</ele>
        <time>2025-02-26T08:06:35Z</time>
      </trkpt>
      <trkpt lat="48.03876" lon="-3.5025">
        <ele>139.6</ele>
        <time>2025-02-26T08:06:36Z</time>
      </trkpt>
      <trkpt lat="48.03877" lon="-3.50251">
        <ele>139.7</ele>
        <time>2025-02-26T08:06:37Z</time>
      </trkpt>
      <trkpt lat="48.03878" lon="-3.5025">
        <ele>139.9</ele>
        <time>2025-02-26T08:06:38Z</time>
      </trkpt>
      <trkpt lat="48.03879" lon="-3.5025">
        <ele>140</ele>
        <time>2025-02-26T08:06:39Z</time>
      </trkpt>
      <trkpt lat="48.0388" lon="-3.5025">
        <ele>140.1</ele>
        <time>2025-02-26T08:06:40Z</time>
      </trkpt>
      <trkpt lat="48.03881" lon="-3.50251">
        <ele>140.2</ele>
        <time>2025-02-26T08:06:41Z</time>
      </trkpt>
      <trkpt lat="48.03882" lon="-3.50251">
        <ele>140.2</ele>
        <time>2025-02-26T08:06:42Z</time>
      </trkpt>
      <trkpt lat="48.03883" lon="-3.50251">
        <ele>140.3</ele>
        <time>2025-02-26T08:06:43Z</time>
      </trkpt>
      <trkpt lat="48.03884" lon="-3.50251">
        <ele>140.4</ele>
        <time>2025-02-26T08:06:44Z</time>
      </trkpt>
      <trkpt lat="48.03885" lon="-3.50251">
        <ele>140.6</ele>
        <time>2025-02-26T08:06:45Z</time>
      </trkpt>
      <trkpt lat="48.03886" lon="-3.50251">
        <ele>140.6</ele>
        <time>2025-02-26T08:06:46Z</time>
      </trkpt>
      <trkpt lat="48.03887" lon="-3.50252">
        <ele>140.7</ele>
        <time>2025-02-26T08:06:47Z</time>
      </trkpt>
      <trkpt lat="48.03888" lon="-3.50252">
        <ele>140.8</ele>
        <time>2025-02-26T08:06:48Z</time>
      </trkpt>
      <trkpt lat="48.03889" lon="-3.50252">
        <ele>140.9</ele>
        <time>2025-02-26T08:06:49Z</time>
      </trkpt>
      <trkpt lat="48.0389" lon="-3.50252">
        <ele>141</ele>
        <time>2025-02-26T08:06:50Z</time>
      </trkpt>
      <trkpt lat="48.03891" lon="-3.50252">
        <ele>141</ele>
        <time>2025-02-26T08:06:51Z</time>
      </trkpt>
      <trkpt lat="48.03892" lon="-3.50252">
        <ele>141</ele>
        <time>2025-02-26T08:06:52Z</time>
      </trkpt>
      <trkpt lat="48.03893" lon="-3.50253">
        <ele>141.1</ele>
        <time>2025-02-26T08:06:53Z</time>
      </trkpt>
      <trkpt lat="48.03894" lon="-3.50254">
        <ele>141.1</ele>
        <time>2025-02-26T08:06:54Z</time>
      </trkpt>
      <trkpt lat="48.03895" lon="-3.50254">
        <ele>141.1</ele>
        <time>2025-02-26T08:06:55Z</time>
      </trkpt>
      <trkpt lat="48.03896" lon="-3.50254">
        <ele>141.2</ele>
        <time>2025-02-26T08:06:56Z</time>
      </trkpt>
      <trkpt lat="48.03898" lon="-3.50254">
        <ele>141.2</ele>
        <time>2025-02-26T08:06:57Z</time>
      </trkpt>
      <trkpt lat="48.03899" lon="-3.50254">
        <ele>141.3</ele>
        <time>2025-02-26T08:06:58Z</time>
      </trkpt>
      <trkpt lat="48.039" lon="-3.50254">
        <ele>141.3</ele>
        <time>2025-02-26T08:06:59Z</time>
      </trkpt>
      <trkpt lat="48.03901" lon="-3.50254">
        <ele>141.4</ele>
        <time>2025-02-26T08:07:00Z</time>
      </trkpt>
      <trkpt lat="48.03902" lon="-3.50255">
        <ele>141.4</ele>
        <time>2025-02-26T08:07:01Z</time>
      </trkpt>
      <trkpt lat="48.03904" lon="-3.50255">
        <ele>141.4</ele>
        <time>2025-02-26T08:07:02Z</time>
      </trkpt>
      <trkpt lat="48.03905" lon="-3.50255">
        <ele>141.5</ele>
        <time>2025-02-26T08:07:03Z</time>
      </trkpt>
      <trkpt lat="48.03906" lon="-3.50255">
        <ele>141.5</ele>
        <time>2025-02-26T08:07:04Z</time>
      </trkpt>
      <trkpt lat="48.03907" lon="-3.50255">
        <ele>141.6</ele>
        <time>2025-02-26T08:07:05Z</time>
      </trkpt>
      <trkpt lat="48.03908" lon="-3.50255">
        <ele>141.6</ele>
        <time>2025-02-26T08:07:06Z</time>
      </trkpt>
      <trkpt lat="48.03909" lon="-3.50255">
        <ele>141.7</ele>
        <time>2025-02-26T08:07:07Z</time>
      </trkpt>
      <trkpt lat="48.03911" lon="-3.50255">
        <ele>141.7</ele>
        <time>2025-02-26T08:07:08Z</time>
      </trkpt>
      <trkpt lat="48.03912" lon="-3.50254">
        <ele>141.8</ele>
        <time>2025-02-26T08:07:09Z</time>
      </trkpt>
      <trkpt lat="48.03913" lon="-3.50253">
        <ele>141.8</ele>
        <time>2025-02-26T08:07:10Z</time>
      </trkpt>
      <trkpt lat="48.03914" lon="-3.50253">
        <ele>141.9</ele>
        <time>2025-02-26T08:07:11Z</time>
      </trkpt>
      <trkpt lat="48.03915" lon="-3.50253">
        <ele>141.9</ele>
        <time>2025-02-26T08:07:12Z</time>
      </trkpt>
      <trkpt lat="48.03916" lon="-3.50253">
        <ele>142</ele>
        <time>2025-02-26T08:07:13Z</time>
      </trkpt>
      <trkpt lat="48.03917" lon="-3.50253">
        <ele>142</ele>
        <time>2025-02-26T08:07:14Z</time>
      </trkpt>
      <trkpt lat="48.03918" lon="-3.50252">
        <ele>142</ele>
        <time>2025-02-26T08:07:15Z</time>
      </trkpt>
      <trkpt lat="48.03919" lon="-3.50252">
        <ele>142.1</ele>
        <time>2025-02-26T08:07:16Z</time>
      </trkpt>
      <trkpt lat="48.0392" lon="-3.50252">
        <ele>142.1</ele>
        <time>2025-02-26T08:07:17Z</time>
      </trkpt>
      <trkpt lat="48.03921" lon="-3.50252">
        <ele>142.1</ele>
        <time>2025-02-26T08:07:18Z</time>
      </trkpt>
      <trkpt lat="48.03922" lon="-3.50253">
        <ele>142.2</ele>
        <time>2025-02-26T08:07:19Z</time>
      </trkpt>
      <trkpt lat="48.03924" lon="-3.50253">
        <ele>142.2</ele>
        <time>2025-02-26T08:07:20Z</time>
      </trkpt>
      <trkpt lat="48.03925" lon="-3.50253">
        <ele>142.3</ele>
        <time>2025-02-26T08:07:21Z</time>
      </trkpt>
      <trkpt lat="48.03926" lon="-3.50252">
        <ele>142.3</ele>
        <time>2025-02-26T08:07:22Z</time>
      </trkpt>
      <trkpt lat="48.03927" lon="-3.50252">
        <ele>142.3</ele>
        <time>2025-02-26T08:07:23Z</time>
      </trkpt>
      <trkpt lat="48.03928" lon="-3.50251">
        <ele>142.4</ele>
        <time>2025-02-26T08:07:24Z</time>
      </trkpt>
      <trkpt lat="48.03929" lon="-3.50251">
        <ele>142.4</ele>
        <time>2025-02-26T08:07:25Z</time>
      </trkpt>
      <trkpt lat="48.0393" lon="-3.50251">
        <ele>142.5</ele>
        <time>2025-02-26T08:07:26Z</time>
      </trkpt>
      <trkpt lat="48.03931" lon="-3.50251">
        <ele>142.5</ele>
        <time>2025-02-26T08:07:27Z</time>
      </trkpt>
      <trkpt lat="48.03932" lon="-3.5025">
        <ele>142.6</ele>
        <time>2025-02-26T08:07:28Z</time>
      </trkpt>
      <trkpt lat="48.03933" lon="-3.5025">
        <ele>142.6</ele>
        <time>2025-02-26T08:07:29Z</time>
      </trkpt>
      <trkpt lat="48.03934" lon="-3.5025">
        <ele>142.6</ele>
        <time>2025-02-26T08:07:30Z</time>
      </trkpt>
      <trkpt lat="48.03936" lon="-3.5025">
        <ele>142.7</ele>
        <time>2025-02-26T08:07:31Z</time>
      </trkpt>
      <trkpt lat="48.03937" lon="-3.50249">
        <ele>142.8</ele>
        <time>2025-02-26T08:07:32Z</time>
      </trkpt>
      <trkpt lat="48.03938" lon="-3.50248">
        <ele>142.9</ele>
        <time>2025-02-26T08:07:33Z</time>
      </trkpt>
      <trkpt lat="48.03939" lon="-3.50248">
        <ele>142.9</ele>
        <time>2025-02-26T08:07:34Z</time>
      </trkpt>
      <trkpt lat="48.0394" lon="-3.50248">
        <ele>143</ele>
        <time>2025-02-26T08:07:35Z</time>
      </trkpt>
      <trkpt lat="48.03941" lon="-3.50247">
        <ele>143.1</ele>
        <time>2025-02-26T08:07:36Z</time>
      </trkpt>
      <trkpt lat="48.03942" lon="-3.50247">
        <ele>143.2</ele>
        <time>2025-02-26T08:07:37Z</time>
      </trkpt>
      <trkpt lat="48.03944" lon="-3.50246">
        <ele>143.2</ele>
        <time>2025-02-26T08:07:38Z</time>
      </trkpt>
      <trkpt lat="48.03945" lon="-3.50246">
        <ele>143.3</ele>
        <time>2025-02-26T08:07:39Z</time>
      </trkpt>
      <trkpt lat="48.03946" lon="-3.50245">
        <ele>143.4</ele>
        <time>2025-02-26T08:07:40Z</time>
      </trkpt>
      <trkpt lat="48.03947" lon="-3.50244">
        <ele>143.4</ele>
        <time>2025-02-26T08:07:41Z</time>
      </trkpt>
      <trkpt lat="48.03948" lon="-3.50244">
        <ele>143.5</ele>
        <time>2025-02-26T08:07:42Z</time>
      </trkpt>
      <trkpt lat="48.03949" lon="-3.50243">
        <ele>143.5</ele>
        <time>2025-02-26T08:07:43Z</time>
      </trkpt>
      <trkpt lat="48.03951" lon="-3.50242">
        <ele>143.5</ele>
        <time>2025-02-26T08:07:44Z</time>
      </trkpt>
      <trkpt lat="48.03952" lon="-3.50242">
        <ele>143.6</ele>
        <time>2025-02-26T08:07:45Z</time>
      </trkpt>
      <trkpt lat="48.03953" lon="-3.50242">
        <ele>143.6</ele>
        <time>2025-02-26T08:07:46Z</time>
      </trkpt>
      <trkpt lat="48.03954" lon="-3.50242">
        <ele>143.6</ele>
        <time>2025-02-26T08:07:47Z</time>
      </trkpt>
      <trkpt lat="48.03955" lon="-3.50242">
        <ele>143.6</ele>
        <time>2025-02-26T08:07:48Z</time>
      </trkpt>
      <trkpt lat="48.03956" lon="-3.50242">
        <ele>143.6</ele>
        <time>2025-02-26T08:07:49Z</time>
      </trkpt>
      <trkpt lat="48.03957" lon="-3.50242">
        <ele>143.6</ele>
        <time>2025-02-26T08:07:50Z</time>
      </trkpt>
      <trkpt lat="48.03958" lon="-3.50241">
        <ele>143.7</ele>
        <time>2025-02-26T08:07:51Z</time>
      </trkpt>
      <trkpt lat="48.0396" lon="-3.5024">
        <ele>143.7</ele>
        <time>2025-02-26T08:07:52Z</time>
      </trkpt>
      <trkpt lat="48.03961" lon="-3.5024">
        <ele>143.7</ele>
        <time>2025-02-26T08:07:53Z</time>
      </trkpt>
      <trkpt lat="48.03962" lon="-3.5024">
        <ele>143.7</ele>
        <time>2025-02-26T08:07:54Z</time>
      </trkpt>
      <trkpt lat="48.03963" lon="-3.50239">
        <ele>143.8</ele>
        <time>2025-02-26T08:07:55Z</time>
      </trkpt>
      <trkpt lat="48.03964" lon="-3.50238">
        <ele>143.9</ele>
        <time>2025-02-26T08:07:56Z</time>
      </trkpt>
      <trkpt lat="48.03966" lon="-3.50237">
        <ele>143.9</ele>
        <time>2025-02-26T08:07:57Z</time>
      </trkpt>
      <trkpt lat="48.03967" lon="-3.50237">
        <ele>144</ele>
        <time>2025-02-26T08:07:58Z</time>
      </trkpt>
      <trkpt lat="48.03968" lon="-3.50236">
        <ele>144</ele>
        <time>2025-02-26T08:07:59Z</time>
      </trkpt>
      <trkpt lat="48.03969" lon="-3.50235">
        <ele>144.1</ele>
        <time>2025-02-26T08:08:00Z</time>
      </trkpt>
      <trkpt lat="48.0397" lon="-3.50234">
        <ele>144.1</ele>
        <time>2025-02-26T08:08:01Z</time>
      </trkpt>
      <trkpt lat="48.03971" lon="-3.50234">
        <ele>144.2</ele>
        <time>2025-02-26T08:08:02Z</time>
      </trkpt>
      <trkpt lat="48.03972" lon="-3.50233">
        <ele>144.2</ele>
        <time>2025-02-26T08:08:03Z</time>
      </trkpt>
      <trkpt lat="48.03973" lon="-3.50232">
        <ele>144.3</ele>
        <time>2025-02-26T08:08:04Z</time>
      </trkpt>
      <trkpt lat="48.03974" lon="-3.50232">
        <ele>144.3</ele>
        <time>2025-02-26T08:08:05Z</time>
      </trkpt>
      <trkpt lat="48.03975" lon="-3.50232">
        <ele>144.4</ele>
        <time>2025-02-26T08:08:06Z</time>
      </trkpt>
      <trkpt lat="48.03976" lon="-3.50231">
        <ele>144.4</ele>
        <time>2025-02-26T08:08:07Z</time>
      </trkpt>
      <trkpt lat="48.03978" lon="-3.50231">
        <ele>144.5</ele>
        <time>2025-02-26T08:08:08Z</time>
      </trkpt>
      <trkpt lat="48.03979" lon="-3.5023">
        <ele>144.6</ele>
        <time>2025-02-26T08:08:09Z</time>
      </trkpt>
      <trkpt lat="48.0398" lon="-3.5023">
        <ele>144.6</ele>
        <time>2025-02-26T08:08:10Z</time>
      </trkpt>
      <trkpt lat="48.03981" lon="-3.50229">
        <ele>144.7</ele>
        <time>2025-02-26T08:08:11Z</time>
      </trkpt>
      <trkpt lat="48.03982" lon="-3.50229">
        <ele>144.8</ele>
        <time>2025-02-26T08:08:12Z</time>
      </trkpt>
      <trkpt lat="48.03983" lon="-3.50229">
        <ele>144.8</ele>
        <time>2025-02-26T08:08:13Z</time>
      </trkpt>
      <trkpt lat="48.03984" lon="-3.50228">
        <ele>144.9</ele>
        <time>2025-02-26T08:08:14Z</time>
      </trkpt>
      <trkpt lat="48.03985" lon="-3.50227">
        <ele>145.1</ele>
        <time>2025-02-26T08:08:15Z</time>
      </trkpt>
      <trkpt lat="48.03986" lon="-3.50225">
        <ele>145.2</ele>
        <time>2025-02-26T08:08:16Z</time>
      </trkpt>
      <trkpt lat="48.03986" lon="-3.50224">
        <ele>145.4</ele>
        <time>2025-02-26T08:08:17Z</time>
      </trkpt>
      <trkpt lat="48.03987" lon="-3.50222">
        <ele>145.5</ele>
        <time>2025-02-26T08:08:18Z</time>
      </trkpt>
      <trkpt lat="48.03988" lon="-3.50221">
        <ele>145.7</ele>
        <time>2025-02-26T08:08:19Z</time>
      </trkpt>
      <trkpt lat="48.03989" lon="-3.50219">
        <ele>145.8</ele>
        <time>2025-02-26T08:08:20Z</time>
      </trkpt>
      <trkpt lat="48.03989" lon="-3.50218">
        <ele>145.9</ele>
        <time>2025-02-26T08:08:21Z</time>
      </trkpt>
      <trkpt lat="48.03989" lon="-3.50216">
        <ele>146.1</ele>
        <time>2025-02-26T08:08:22Z</time>
      </trkpt>
      <trkpt lat="48.03989" lon="-3.50215">
        <ele>146.1</ele>
        <time>2025-02-26T08:08:23Z</time>
      </trkpt>
      <trkpt lat="48.03989" lon="-3.50213">
        <ele>146.2</ele>
        <time>2025-02-26T08:08:24Z</time>
      </trkpt>
      <trkpt lat="48.03988" lon="-3.50212">
        <ele>146.3</ele>
        <time>2025-02-26T08:08:25Z</time>
      </trkpt>
      <trkpt lat="48.03988" lon="-3.5021">
        <ele>146.4</ele>
        <time>2025-02-26T08:08:26Z</time>
      </trkpt>
      <trkpt lat="48.03988" lon="-3.50209">
        <ele>146.5</ele>
        <time>2025-02-26T08:08:27Z</time>
      </trkpt>
      <trkpt lat="48.03987" lon="-3.50208">
        <ele>146.6</ele>
        <time>2025-02-26T08:08:28Z</time>
      </trkpt>
      <trkpt lat="48.03987" lon="-3.50206">
        <ele>146.7</ele>
        <time>2025-02-26T08:08:29Z</time>
      </trkpt>
      <trkpt lat="48.03986" lon="-3.50205">
        <ele>146.8</ele>
        <time>2025-02-26T08:08:30Z</time>
      </trkpt>
      <trkpt lat="48.03986" lon="-3.50203">
        <ele>146.8</ele>
        <time>2025-02-26T08:08:31Z</time>
      </trkpt>
      <trkpt lat="48.03985" lon="-3.50202">
        <ele>146.9</ele>
        <time>2025-02-26T08:08:32Z</time>
      </trkpt>
      <trkpt lat="48.03984" lon="-3.50201">
        <ele>146.9</ele>
        <time>2025-02-26T08:08:33Z</time>
      </trkpt>
      <trkpt lat="48.03984" lon="-3.502">
        <ele>147</ele>
        <time>2025-02-26T08:08:34Z</time>
      </trkpt>
      <trkpt lat="48.03983" lon="-3.502">
        <ele>147</ele>
        <time>2025-02-26T08:08:35Z</time>
      </trkpt>
      <trkpt lat="48.03982" lon="-3.50199">
        <ele>147.1</ele>
        <time>2025-02-26T08:08:36Z</time>
      </trkpt>
      <trkpt lat="48.03982" lon="-3.50198">
        <ele>147.1</ele>
        <time>2025-02-26T08:08:37Z</time>
      </trkpt>
      <trkpt lat="48.03981" lon="-3.50196">
        <ele>147.2</ele>
        <time>2025-02-26T08:08:38Z</time>
      </trkpt>
      <trkpt lat="48.0398" lon="-3.50195">
        <ele>147.2</ele>
        <time>2025-02-26T08:08:39Z</time>
      </trkpt>
      <trkpt lat="48.0398" lon="-3.50194">
        <ele>147.3</ele>
        <time>2025-02-26T08:08:40Z</time>
      </trkpt>
      <trkpt lat="48.03979" lon="-3.50192">
        <ele>147.4</ele>
        <time>2025-02-26T08:08:41Z</time>
      </trkpt>
      <trkpt lat="48.03979" lon="-3.50191">
        <ele>147.5</ele>
        <time>2025-02-26T08:08:42Z</time>
      </trkpt>
      <trkpt lat="48.03978" lon="-3.5019">
        <ele>147.5</ele>
        <time>2025-02-26T08:08:43Z</time>
      </trkpt>
      <trkpt lat="48.03978" lon="-3.50189">
        <ele>147.6</ele>
        <time>2025-02-26T08:08:44Z</time>
      </trkpt>
      <trkpt lat="48.03977" lon="-3.50188">
        <ele>147.7</ele>
        <time>2025-02-26T08:08:45Z</time>
      </trkpt>
      <trkpt lat="48.03976" lon="-3.50187">
        <ele>147.7</ele>
        <time>2025-02-26T08:08:46Z</time>
      </trkpt>
      <trkpt lat="48.03976" lon="-3.50185">
        <ele>147.8</ele>
        <time>2025-02-26T08:08:47Z</time>
      </trkpt>
      <trkpt lat="48.03975" lon="-3.50184">
        <ele>147.8</ele>
        <time>2025-02-26T08:08:48Z</time>
      </trkpt>
      <trkpt lat="48.03974" lon="-3.50183">
        <ele>147.9</ele>
        <time>2025-02-26T08:08:49Z</time>
      </trkpt>
      <trkpt lat="48.03973" lon="-3.50182">
        <ele>147.9</ele>
        <time>2025-02-26T08:08:50Z</time>
      </trkpt>
      <trkpt lat="48.03972" lon="-3.50181">
        <ele>148</ele>
        <time>2025-02-26T08:08:51Z</time>
      </trkpt>
      <trkpt lat="48.03972" lon="-3.50179">
        <ele>148.1</ele>
        <time>2025-02-26T08:08:52Z</time>
      </trkpt>
      <trkpt lat="48.03971" lon="-3.50177">
        <ele>148.2</ele>
        <time>2025-02-26T08:08:53Z</time>
      </trkpt>
      <trkpt lat="48.0397" lon="-3.50175">
        <ele>148.3</ele>
        <time>2025-02-26T08:08:54Z</time>
      </trkpt>
      <trkpt lat="48.0397" lon="-3.50174">
        <ele>148.3</ele>
        <time>2025-02-26T08:08:55Z</time>
      </trkpt>
      <trkpt lat="48.03969" lon="-3.50172">
        <ele>148.4</ele>
        <time>2025-02-26T08:08:56Z</time>
      </trkpt>
      <trkpt lat="48.03968" lon="-3.50171">
        <ele>148.4</ele>
        <time>2025-02-26T08:08:57Z</time>
      </trkpt>
      <trkpt lat="48.03968" lon="-3.5017">
        <ele>148.4</ele>
        <time>2025-02-26T08:08:58Z</time>
      </trkpt>
      <trkpt lat="48.03967" lon="-3.50169">
        <ele>148.5</ele>
        <time>2025-02-26T08:08:59Z</time>
      </trkpt>
      <trkpt lat="48.03966" lon="-3.50168">
        <ele>148.5</ele>
        <time>2025-02-26T08:09:00Z</time>
      </trkpt>
      <trkpt lat="48.03966" lon="-3.50166">
        <ele>148.5</ele>
        <time>2025-02-26T08:09:01Z</time>
      </trkpt>
      <trkpt lat="48.03965" lon="-3.50165">
        <ele>148.7</ele>
        <time>2025-02-26T08:09:02Z</time>
      </trkpt>
      <trkpt lat="48.03965" lon="-3.50164">
        <ele>148.7</ele>
        <time>2025-02-26T08:09:03Z</time>
      </trkpt>
      <trkpt lat="48.03964" lon="-3.50162">
        <ele>148.8</ele>
        <time>2025-02-26T08:09:04Z</time>
      </trkpt>
      <trkpt lat="48.03963" lon="-3.50161">
        <ele>148.9</ele>
        <time>2025-02-26T08:09:05Z</time>
      </trkpt>
      <trkpt lat="48.03963" lon="-3.5016">
        <ele>149</ele>
        <time>2025-02-26T08:09:06Z</time>
      </trkpt>
      <trkpt lat="48.03962" lon="-3.50158">
        <ele>149.1</ele>
        <time>2025-02-26T08:09:07Z</time>
      </trkpt>
      <trkpt lat="48.03962" lon="-3.50156">
        <ele>149.2</ele>
        <time>2025-02-26T08:09:08Z</time>
      </trkpt>
      <trkpt lat="48.03961" lon="-3.50155">
        <ele>149.3</ele>
        <time>2025-02-26T08:09:09Z</time>
      </trkpt>
      <trkpt lat="48.03961" lon="-3.50153">
        <ele>149.4</ele>
        <time>2025-02-26T08:09:10Z</time>
      </trkpt>
      <trkpt lat="48.0396" lon="-3.50151">
        <ele>149.5</ele>
        <time>2025-02-26T08:09:11Z</time>
      </trkpt>
      <trkpt lat="48.0396" lon="-3.5015">
        <ele>149.6</ele>
        <time>2025-02-26T08:09:12Z</time>
      </trkpt>
      <trkpt lat="48.03959" lon="-3.50149">
        <ele>149.7</ele>
        <time>2025-02-26T08:09:13Z</time>
      </trkpt>
      <trkpt lat="48.03959" lon="-3.50148">
        <ele>149.7</ele>
        <time>2025-02-26T08:09:14Z</time>
      </trkpt>
      <trkpt lat="48.03958" lon="-3.50146">
        <ele>149.8</ele>
        <time>2025-02-26T08:09:15Z</time>
      </trkpt>
      <trkpt lat="48.03958" lon="-3.50145">
        <ele>149.9</ele>
        <time>2025-02-26T08:09:16Z</time>
      </trkpt>
      <trkpt lat="48.03957" lon="-3.50143">
        <ele>150</ele>
        <time>2025-02-26T08:09:17Z</time>
      </trkpt>
      <trkpt lat="48.03957" lon="-3.50141">
        <ele>150.2</ele>
        <time>2025-02-26T08:09:18Z</time>
      </trkpt>
      <trkpt lat="48.03957" lon="-3.5014">
        <ele>150.3</ele>
        <time>2025-02-26T08:09:19Z</time>
      </trkpt>
      <trkpt lat="48.03956" lon="-3.50138">
        <ele>150.3</ele>
        <time>2025-02-26T08:09:20Z</time>
      </trkpt>
      <trkpt lat="48.03956" lon="-3.50137">
        <ele>150.3</ele>
        <time>2025-02-26T08:09:21Z</time>
      </trkpt>
      <trkpt lat="48.03955" lon="-3.50136">
        <ele>150.2</ele>
        <time>2025-02-26T08:09:22Z</time>
      </trkpt>
      <trkpt lat="48.03955" lon="-3.50134">
        <ele>150.3</ele>
        <time>2025-02-26T08:09:23Z</time>
      </trkpt>
      <trkpt lat="48.03954" lon="-3.50133">
        <ele>150.3</ele>
        <time>2025-02-26T08:09:24Z</time>
      </trkpt>
      <trkpt lat="48.03953" lon="-3.5013">
        <ele>150.3</ele>
        <time>2025-02-26T08:09:25Z</time>
      </trkpt>
      <trkpt lat="48.03953" lon="-3.50129">
        <ele>150.2</ele>
        <time>2025-02-26T08:09:26Z</time>
      </trkpt>
      <trkpt lat="48.03952" lon="-3.50127">
        <ele>150.2</ele>
        <time>2025-02-26T08:09:27Z</time>
      </trkpt>
      <trkpt lat="48.03951" lon="-3.50125">
        <ele>150.2</ele>
        <time>2025-02-26T08:09:28Z</time>
      </trkpt>
      <trkpt lat="48.0395" lon="-3.50124">
        <ele>150.1</ele>
        <time>2025-02-26T08:09:29Z</time>
      </trkpt>
      <trkpt lat="48.03949" lon="-3.50123">
        <ele>150.1</ele>
        <time>2025-02-26T08:09:30Z</time>
      </trkpt>
      <trkpt lat="48.03948" lon="-3.50121">
        <ele>150.1</ele>
        <time>2025-02-26T08:09:31Z</time>
      </trkpt>
      <trkpt lat="48.03948" lon="-3.50119">
        <ele>150.1</ele>
        <time>2025-02-26T08:09:32Z</time>
      </trkpt>
      <trkpt lat="48.03947" lon="-3.50118">
        <ele>150</ele>
        <time>2025-02-26T08:09:33Z</time>
      </trkpt>
      <trkpt lat="48.03947" lon="-3.50116">
        <ele>150</ele>
        <time>2025-02-26T08:09:34Z</time>
      </trkpt>
      <trkpt lat="48.03946" lon="-3.50115">
        <ele>150</ele>
        <time>2025-02-26T08:09:35Z</time>
      </trkpt>
      <trkpt lat="48.03945" lon="-3.50113">
        <ele>150</ele>
        <time>2025-02-26T08:09:36Z</time>
      </trkpt>
      <trkpt lat="48.03945" lon="-3.50112">
        <ele>150</ele>
        <time>2025-02-26T08:09:37Z</time>
      </trkpt>
      <trkpt lat="48.03944" lon="-3.5011">
        <ele>150</ele>
        <time>2025-02-26T08:09:38Z</time>
      </trkpt>
      <trkpt lat="48.03943" lon="-3.50109">
        <ele>150.1</ele>
        <time>2025-02-26T08:09:39Z</time>
      </trkpt>
      <trkpt lat="48.03943" lon="-3.50107">
        <ele>150.2</ele>
        <time>2025-02-26T08:09:40Z</time>
      </trkpt>
      <trkpt lat="48.03942" lon="-3.50105">
        <ele>150.2</ele>
        <time>2025-02-26T08:09:41Z</time>
      </trkpt>
      <trkpt lat="48.03941" lon="-3.50103">
        <ele>150.3</ele>
        <time>2025-02-26T08:09:42Z</time>
      </trkpt>
      <trkpt lat="48.0394" lon="-3.50101">
        <ele>150.3</ele>
        <time>2025-02-26T08:09:43Z</time>
      </trkpt>
      <trkpt lat="48.0394" lon="-3.501">
        <ele>150.4</ele>
        <time>2025-02-26T08:09:44Z</time>
      </trkpt>
      <trkpt lat="48.03939" lon="-3.50098">
        <ele>150.4</ele>
        <time>2025-02-26T08:09:45Z</time>
      </trkpt>
      <trkpt lat="48.03938" lon="-3.50097">
        <ele>150.4</ele>
        <time>2025-02-26T08:09:46Z</time>
      </trkpt>
      <trkpt lat="48.03937" lon="-3.50096">
        <ele>150.5</ele>
        <time>2025-02-26T08:09:47Z</time>
      </trkpt>
      <trkpt lat="48.03937" lon="-3.50094">
        <ele>150.5</ele>
        <time>2025-02-26T08:09:48Z</time>
      </trkpt>
      <trkpt lat="48.03936" lon="-3.50093">
        <ele>150.6</ele>
        <time>2025-02-26T08:09:49Z</time>
      </trkpt>
      <trkpt lat="48.03936" lon="-3.50091">
        <ele>150.6</ele>
        <time>2025-02-26T08:09:50Z</time>
      </trkpt>
      <trkpt lat="48.03936" lon="-3.50089">
        <ele>150.7</ele>
        <time>2025-02-26T08:09:51Z</time>
      </trkpt>
      <trkpt lat="48.03935" lon="-3.50088">
        <ele>150.7</ele>
        <time>2025-02-26T08:09:52Z</time>
      </trkpt>
      <trkpt lat="48.03935" lon="-3.50086">
        <ele>150.8</ele>
        <time>2025-02-26T08:09:53Z</time>
      </trkpt>
      <trkpt lat="48.03936" lon="-3.50084">
        <ele>151</ele>
        <time>2025-02-26T08:09:54Z</time>
      </trkpt>
      <trkpt lat="48.03936" lon="-3.50083">
        <ele>151.1</ele>
        <time>2025-02-26T08:09:55Z</time>
      </trkpt>
      <trkpt lat="48.03936" lon="-3.50081">
        <ele>151.2</ele>
        <time>2025-02-26T08:09:56Z</time>
      </trkpt>
      <trkpt lat="48.03936" lon="-3.5008">
        <ele>151.3</ele>
        <time>2025-02-26T08:09:57Z</time>
      </trkpt>
      <trkpt lat="48.03936" lon="-3.50078">
        <ele>151.3</ele>
        <time>2025-02-26T08:09:58Z</time>
      </trkpt>
      <trkpt lat="48.03937" lon="-3.50076">
        <ele>151.5</ele>
        <time>2025-02-26T08:09:59Z</time>
      </trkpt>
      <trkpt lat="48.03938" lon="-3.50075">
        <ele>151.7</ele>
        <time>2025-02-26T08:10:00Z</time>
      </trkpt>
      <trkpt lat="48.03939" lon="-3.50075">
        <ele>151.8</ele>
        <time>2025-02-26T08:10:01Z</time>
      </trkpt>
      <trkpt lat="48.0394" lon="-3.50075">
        <ele>151.9</ele>
        <time>2025-02-26T08:10:02Z</time>
      </trkpt>
      <trkpt lat="48.03942" lon="-3.50076">
        <ele>152</ele>
        <time>2025-02-26T08:10:03Z</time>
      </trkpt>
      <trkpt lat="48.03943" lon="-3.50077">
        <ele>152.1</ele>
        <time>2025-02-26T08:10:04Z</time>
      </trkpt>
      <trkpt lat="48.03945" lon="-3.50078">
        <ele>152.2</ele>
        <time>2025-02-26T08:10:05Z</time>
      </trkpt>
      <trkpt lat="48.03946" lon="-3.50078">
        <ele>152.3</ele>
        <time>2025-02-26T08:10:06Z</time>
      </trkpt>
      <trkpt lat="48.03947" lon="-3.50078">
        <ele>152.5</ele>
        <time>2025-02-26T08:10:07Z</time>
      </trkpt>
      <trkpt lat="48.03948" lon="-3.50079">
        <ele>152.6</ele>
        <time>2025-02-26T08:10:08Z</time>
      </trkpt>
      <trkpt lat="48.0395" lon="-3.5008">
        <ele>152.7</ele>
        <time>2025-02-26T08:10:09Z</time>
      </trkpt>
      <trkpt lat="48.03951" lon="-3.50081">
        <ele>152.8</ele>
        <time>2025-02-26T08:10:10Z</time>
      </trkpt>
      <trkpt lat="48.03952" lon="-3.50082">
        <ele>152.8</ele>
        <time>2025-02-26T08:10:11Z</time>
      </trkpt>
      <trkpt lat="48.03953" lon="-3.50083">
        <ele>152.9</ele>
        <time>2025-02-26T08:10:12Z</time>
      </trkpt>
      <trkpt lat="48.03953" lon="-3.50084">
        <ele>152.9</ele>
        <time>2025-02-26T08:10:13Z</time>
      </trkpt>
      <trkpt lat="48.03955" lon="-3.50084">
        <ele>153</ele>
        <time>2025-02-26T08:10:14Z</time>
      </trkpt>
      <trkpt lat="48.03956" lon="-3.50085">
        <ele>153.1</ele>
        <time>2025-02-26T08:10:15Z</time>
      </trkpt>
      <trkpt lat="48.03957" lon="-3.50085">
        <ele>153.3</ele>
        <time>2025-02-26T08:10:16Z</time>
      </trkpt>
      <trkpt lat="48.03958" lon="-3.50085">
        <ele>153.3</ele>
        <time>2025-02-26T08:10:17Z</time>
      </trkpt>
      <trkpt lat="48.0396" lon="-3.50086">
        <ele>153.5</ele>
        <time>2025-02-26T08:10:18Z</time>
      </trkpt>
      <trkpt lat="48.03961" lon="-3.50087">
        <ele>153.5</ele>
        <time>2025-02-26T08:10:19Z</time>
      </trkpt>
      <trkpt lat="48.03962" lon="-3.50088">
        <ele>153.5</ele>
        <time>2025-02-26T08:10:20Z</time>
      </trkpt>
      <trkpt lat="48.03963" lon="-3.50089">
        <ele>153.6</ele>
        <time>2025-02-26T08:10:21Z</time>
      </trkpt>
      <trkpt lat="48.03964" lon="-3.50089">
        <ele>153.7</ele>
        <time>2025-02-26T08:10:22Z</time>
      </trkpt>
      <trkpt lat="48.03965" lon="-3.5009">
        <ele>153.8</ele>
        <time>2025-02-26T08:10:23Z</time>
      </trkpt>
      <trkpt lat="48.03966" lon="-3.50091">
        <ele>153.8</ele>
        <time>2025-02-26T08:10:24Z</time>
      </trkpt>
      <trkpt lat="48.03967" lon="-3.50092">
        <ele>153.8</ele>
        <time>2025-02-26T08:10:25Z</time>
      </trkpt>
      <trkpt lat="48.03969" lon="-3.50092">
        <ele>154</ele>
        <time>2025-02-26T08:10:26Z</time>
      </trkpt>
      <trkpt lat="48.0397" lon="-3.50093">
        <ele>154</ele>
        <time>2025-02-26T08:10:27Z</time>
      </trkpt>
      <trkpt lat="48.03971" lon="-3.50094">
        <ele>154.1</ele>
        <time>2025-02-26T08:10:28Z</time>
      </trkpt>
      <trkpt lat="48.03972" lon="-3.50095">
        <ele>154.1</ele>
        <time>2025-02-26T08:10:29Z</time>
      </trkpt>
      <trkpt lat="48.03973" lon="-3.50096">
        <ele>154.2</ele>
        <time>2025-02-26T08:10:30Z</time>
      </trkpt>
      <trkpt lat="48.03974" lon="-3.50096">
        <ele>154.2</ele>
        <time>2025-02-26T08:10:31Z</time>
      </trkpt>
      <trkpt lat="48.03976" lon="-3.50096">
        <ele>154.3</ele>
        <time>2025-02-26T08:10:32Z</time>
      </trkpt>
      <trkpt lat="48.03977" lon="-3.50097">
        <ele>154.3</ele>
        <time>2025-02-26T08:10:33Z</time>
      </trkpt>
      <trkpt lat="48.03978" lon="-3.50099">
        <ele>154.3</ele>
        <time>2025-02-26T08:10:34Z</time>
      </trkpt>
      <trkpt lat="48.03979" lon="-3.50099">
        <ele>154.4</ele>
        <time>2025-02-26T08:10:35Z</time>
      </trkpt>
      <trkpt lat="48.03981" lon="-3.50099">
        <ele>154.5</ele>
        <time>2025-02-26T08:10:36Z</time>
      </trkpt>
      <trkpt lat="48.03982" lon="-3.501">
        <ele>154.5</ele>
        <time>2025-02-26T08:10:37Z</time>
      </trkpt>
      <trkpt lat="48.03983" lon="-3.501">
        <ele>154.6</ele>
        <time>2025-02-26T08:10:38Z</time>
      </trkpt>
      <trkpt lat="48.03985" lon="-3.501">
        <ele>154.7</ele>
        <time>2025-02-26T08:10:39Z</time>
      </trkpt>
      <trkpt lat="48.03986" lon="-3.50101">
        <ele>154.7</ele>
        <time>2025-02-26T08:10:40Z</time>
      </trkpt>
      <trkpt lat="48.03987" lon="-3.50101">
        <ele>154.8</ele>
        <time>2025-02-26T08:10:41Z</time>
      </trkpt>
      <trkpt lat="48.03988" lon="-3.50101">
        <ele>154.9</ele>
        <time>2025-02-26T08:10:42Z</time>
      </trkpt>
      <trkpt lat="48.03989" lon="-3.50102">
        <ele>154.9</ele>
        <time>2025-02-26T08:10:43Z</time>
      </trkpt>
      <trkpt lat="48.0399" lon="-3.50103">
        <ele>154.9</ele>
        <time>2025-02-26T08:10:44Z</time>
      </trkpt>
      <trkpt lat="48.03991" lon="-3.50104">
        <ele>154.9</ele>
        <time>2025-02-26T08:10:45Z</time>
      </trkpt>
      <trkpt lat="48.03992" lon="-3.50105">
        <ele>154.9</ele>
        <time>2025-02-26T08:10:46Z</time>
      </trkpt>
      <trkpt lat="48.03993" lon="-3.50106">
        <ele>154.9</ele>
        <time>2025-02-26T08:10:47Z</time>
      </trkpt>
      <trkpt lat="48.03994" lon="-3.50107">
        <ele>154.9</ele>
        <time>2025-02-26T08:10:48Z</time>
      </trkpt>
      <trkpt lat="48.03995" lon="-3.50108">
        <ele>154.9</ele>
        <time>2025-02-26T08:10:49Z</time>
      </trkpt>
      <trkpt lat="48.03997" lon="-3.50108">
        <ele>155</ele>
        <time>2025-02-26T08:10:50Z</time>
      </trkpt>
      <trkpt lat="48.03998" lon="-3.50109">
        <ele>155.1</ele>
        <time>2025-02-26T08:10:51Z</time>
      </trkpt>
      <trkpt lat="48.04" lon="-3.50109">
        <ele>155.1</ele>
        <time>2025-02-26T08:10:52Z</time>
      </trkpt>
      <trkpt lat="48.04001" lon="-3.5011">
        <ele>155.2</ele>
        <time>2025-02-26T08:10:53Z</time>
      </trkpt>
      <trkpt lat="48.04002" lon="-3.5011">
        <ele>155.3</ele>
        <time>2025-02-26T08:10:54Z</time>
      </trkpt>
      <trkpt lat="48.04003" lon="-3.50111">
        <ele>155.4</ele>
        <time>2025-02-26T08:10:55Z</time>
      </trkpt>
      <trkpt lat="48.04005" lon="-3.50112">
        <ele>155.4</ele>
        <time>2025-02-26T08:10:56Z</time>
      </trkpt>
      <trkpt lat="48.04006" lon="-3.50113">
        <ele>155.4</ele>
        <time>2025-02-26T08:10:57Z</time>
      </trkpt>
      <trkpt lat="48.04007" lon="-3.50114">
        <ele>155.5</ele>
        <time>2025-02-26T08:10:58Z</time>
      </trkpt>
      <trkpt lat="48.04008" lon="-3.50114">
        <ele>155.6</ele>
        <time>2025-02-26T08:10:59Z</time>
      </trkpt>
      <trkpt lat="48.04009" lon="-3.50115">
        <ele>155.7</ele>
        <time>2025-02-26T08:11:00Z</time>
      </trkpt>
      <trkpt lat="48.04011" lon="-3.50115">
        <ele>155.8</ele>
        <time>2025-02-26T08:11:01Z</time>
      </trkpt>
      <trkpt lat="48.04012" lon="-3.50116">
        <ele>155.9</ele>
        <time>2025-02-26T08:11:02Z</time>
      </trkpt>
      <trkpt lat="48.04013" lon="-3.50117">
        <ele>155.9</ele>
        <time>2025-02-26T08:11:03Z</time>
      </trkpt>
      <trkpt lat="48.04014" lon="-3.50118">
        <ele>156</ele>
        <time>2025-02-26T08:11:04Z</time>
      </trkpt>
      <trkpt lat="48.04015" lon="-3.50118">
        <ele>156</ele>
        <time>2025-02-26T08:11:05Z</time>
      </trkpt>
      <trkpt lat="48.04017" lon="-3.50119">
        <ele>156.1</ele>
        <time>2025-02-26T08:11:06Z</time>
      </trkpt>
      <trkpt lat="48.04018" lon="-3.50121">
        <ele>156</ele>
        <time>2025-02-26T08:11:07Z</time>
      </trkpt>
      <trkpt lat="48.04019" lon="-3.50122">
        <ele>156</ele>
        <time>2025-02-26T08:11:08Z</time>
      </trkpt>
      <trkpt lat="48.0402" lon="-3.50124">
        <ele>155.9</ele>
        <time>2025-02-26T08:11:09Z</time>
      </trkpt>
      <trkpt lat="48.04021" lon="-3.50124">
        <ele>155.9</ele>
        <time>2025-02-26T08:11:10Z</time>
      </trkpt>
      <trkpt lat="48.04021" lon="-3.50125">
        <ele>155.9</ele>
        <time>2025-02-26T08:11:11Z</time>
      </trkpt>
      <trkpt lat="48.04022" lon="-3.50125">
        <ele>156</ele>
        <time>2025-02-26T08:11:12Z</time>
      </trkpt>
      <trkpt lat="48.04023" lon="-3.50126">
        <ele>156</ele>
        <time>2025-02-26T08:11:13Z</time>
      </trkpt>
      <trkpt lat="48.04024" lon="-3.50127">
        <ele>156</ele>
        <time>2025-02-26T08:11:14Z</time>
      </trkpt>
      <trkpt lat="48.04026" lon="-3.50127">
        <ele>156.1</ele>
        <time>2025-02-26T08:11:15Z</time>
      </trkpt>
      <trkpt lat="48.04027" lon="-3.50128">
        <ele>156.1</ele>
        <time>2025-02-26T08:11:16Z</time>
      </trkpt>
      <trkpt lat="48.04028" lon="-3.50129">
        <ele>156.1</ele>
        <time>2025-02-26T08:11:17Z</time>
      </trkpt>
      <trkpt lat="48.04029" lon="-3.5013">
        <ele>156.1</ele>
        <time>2025-02-26T08:11:18Z</time>
      </trkpt>
      <trkpt lat="48.0403" lon="-3.5013">
        <ele>156.1</ele>
        <time>2025-02-26T08:11:19Z</time>
      </trkpt>
      <trkpt lat="48.04031" lon="-3.50132">
        <ele>156</ele>
        <time>2025-02-26T08:11:20Z</time>
      </trkpt>
      <trkpt lat="48.04032" lon="-3.50133">
        <ele>155.9</ele>
        <time>2025-02-26T08:11:21Z</time>
      </trkpt>
      <trkpt lat="48.04033" lon="-3.50133">
        <ele>156</ele>
        <time>2025-02-26T08:11:22Z</time>
      </trkpt>
      <trkpt lat="48.04035" lon="-3.50133">
        <ele>156</ele>
        <time>2025-02-26T08:11:23Z</time>
      </trkpt>
      <trkpt lat="48.04036" lon="-3.50133">
        <ele>156.2</ele>
        <time>2025-02-26T08:11:24Z</time>
      </trkpt>
      <trkpt lat="48.04037" lon="-3.50134">
        <ele>156.1</ele>
        <time>2025-02-26T08:11:25Z</time>
      </trkpt>
      <trkpt lat="48.04038" lon="-3.50135">
        <ele>156.2</ele>
        <time>2025-02-26T08:11:26Z</time>
      </trkpt>
      <trkpt lat="48.0404" lon="-3.50135">
        <ele>156.2</ele>
        <time>2025-02-26T08:11:27Z</time>
      </trkpt>
      <trkpt lat="48.04041" lon="-3.50135">
        <ele>156.3</ele>
        <time>2025-02-26T08:11:28Z</time>
      </trkpt>
      <trkpt lat="48.04042" lon="-3.50136">
        <ele>156.2</ele>
        <time>2025-02-26T08:11:29Z</time>
      </trkpt>
      <trkpt lat="48.04043" lon="-3.50137">
        <ele>156.2</ele>
        <time>2025-02-26T08:11:30Z</time>
      </trkpt>
      <trkpt lat="48.04044" lon="-3.50138">
        <ele>156.2</ele>
        <time>2025-02-26T08:11:31Z</time>
      </trkpt>
      <trkpt lat="48.04044" lon="-3.50138">
        <ele>156.3</ele>
        <time>2025-02-26T08:11:32Z</time>
      </trkpt>
      <trkpt lat="48.04045" lon="-3.50139">
        <ele>156.3</ele>
        <time>2025-02-26T08:11:33Z</time>
      </trkpt>
      <trkpt lat="48.04046" lon="-3.5014">
        <ele>156.2</ele>
        <time>2025-02-26T08:11:34Z</time>
      </trkpt>
      <trkpt lat="48.04047" lon="-3.50141">
        <ele>156.2</ele>
        <time>2025-02-26T08:11:35Z</time>
      </trkpt>
      <trkpt lat="48.04048" lon="-3.50141">
        <ele>156.2</ele>
        <time>2025-02-26T08:11:36Z</time>
      </trkpt>
      <trkpt lat="48.04049" lon="-3.50142">
        <ele>156.2</ele>
        <time>2025-02-26T08:11:37Z</time>
      </trkpt>
      <trkpt lat="48.0405" lon="-3.50142">
        <ele>156.2</ele>
        <time>2025-02-26T08:11:38Z</time>
      </trkpt>
      <trkpt lat="48.04051" lon="-3.50142">
        <ele>156.3</ele>
        <time>2025-02-26T08:11:39Z</time>
      </trkpt>
      <trkpt lat="48.04052" lon="-3.50143">
        <ele>156.3</ele>
        <time>2025-02-26T08:11:40Z</time>
      </trkpt>
      <trkpt lat="48.04053" lon="-3.50143">
        <ele>156.3</ele>
        <time>2025-02-26T08:11:41Z</time>
      </trkpt>
      <trkpt lat="48.04054" lon="-3.50144">
        <ele>156.3</ele>
        <time>2025-02-26T08:11:42Z</time>
      </trkpt>
      <trkpt lat="48.04055" lon="-3.50145">
        <ele>156.3</ele>
        <time>2025-02-26T08:11:43Z</time>
      </trkpt>
      <trkpt lat="48.04056" lon="-3.50146">
        <ele>156.2</ele>
        <time>2025-02-26T08:11:44Z</time>
      </trkpt>
      <trkpt lat="48.04058" lon="-3.50146">
        <ele>156.2</ele>
        <time>2025-02-26T08:11:45Z</time>
      </trkpt>
      <trkpt lat="48.04059" lon="-3.50147">
        <ele>156.1</ele>
        <time>2025-02-26T08:11:46Z</time>
      </trkpt>
      <trkpt lat="48.0406" lon="-3.50148">
        <ele>156</ele>
        <time>2025-02-26T08:11:47Z</time>
      </trkpt>
      <trkpt lat="48.04061" lon="-3.50149">
        <ele>155.9</ele>
        <time>2025-02-26T08:11:48Z</time>
      </trkpt>
      <trkpt lat="48.04062" lon="-3.5015">
        <ele>155.8</ele>
        <time>2025-02-26T08:11:49Z</time>
      </trkpt>
      <trkpt lat="48.04063" lon="-3.50151">
        <ele>155.7</ele>
        <time>2025-02-26T08:11:50Z</time>
      </trkpt>
      <trkpt lat="48.04064" lon="-3.50152">
        <ele>155.7</ele>
        <time>2025-02-26T08:11:51Z</time>
      </trkpt>
      <trkpt lat="48.04065" lon="-3.50153">
        <ele>155.7</ele>
        <time>2025-02-26T08:11:52Z</time>
      </trkpt>
      <trkpt lat="48.04066" lon="-3.50154">
        <ele>155.7</ele>
        <time>2025-02-26T08:11:53Z</time>
      </trkpt>
      <trkpt lat="48.04068" lon="-3.50154">
        <ele>155.7</ele>
        <time>2025-02-26T08:11:54Z</time>
      </trkpt>
      <trkpt lat="48.04069" lon="-3.50154">
        <ele>155.7</ele>
        <time>2025-02-26T08:11:55Z</time>
      </trkpt>
      <trkpt lat="48.0407" lon="-3.50154">
        <ele>155.7</ele>
        <time>2025-02-26T08:11:56Z</time>
      </trkpt>
      <trkpt lat="48.04071" lon="-3.50154">
        <ele>155.8</ele>
        <time>2025-02-26T08:11:57Z</time>
      </trkpt>
      <trkpt lat="48.04072" lon="-3.50155">
        <ele>155.8</ele>
        <time>2025-02-26T08:11:58Z</time>
      </trkpt>
      <trkpt lat="48.04073" lon="-3.50156">
        <ele>155.8</ele>
        <time>2025-02-26T08:11:59Z</time>
      </trkpt>
      <trkpt lat="48.04074" lon="-3.50157">
        <ele>155.9</ele>
        <time>2025-02-26T08:12:00Z</time>
      </trkpt>
      <trkpt lat="48.04075" lon="-3.50158">
        <ele>156</ele>
        <time>2025-02-26T08:12:01Z</time>
      </trkpt>
      <trkpt lat="48.04076" lon="-3.5016">
        <ele>156</ele>
        <time>2025-02-26T08:12:02Z</time>
      </trkpt>
      <trkpt lat="48.04077" lon="-3.50161">
        <ele>156.1</ele>
        <time>2025-02-26T08:12:03Z</time>
      </trkpt>
      <trkpt lat="48.04079" lon="-3.50161">
        <ele>156.3</ele>
        <time>2025-02-26T08:12:04Z</time>
      </trkpt>
      <trkpt lat="48.0408" lon="-3.50161">
        <ele>156.4</ele>
        <time>2025-02-26T08:12:05Z</time>
      </trkpt>
      <trkpt lat="48.04081" lon="-3.50162">
        <ele>156.5</ele>
        <time>2025-02-26T08:12:06Z</time>
      </trkpt>
      <trkpt lat="48.04082" lon="-3.50163">
        <ele>156.6</ele>
        <time>2025-02-26T08:12:07Z</time>
      </trkpt>
      <trkpt lat="48.04083" lon="-3.50163">
        <ele>156.7</ele>
        <time>2025-02-26T08:12:08Z</time>
      </trkpt>
      <trkpt lat="48.04085" lon="-3.50163">
        <ele>156.9</ele>
        <time>2025-02-26T08:12:09Z</time>
      </trkpt>
      <trkpt lat="48.04086" lon="-3.50164">
        <ele>157</ele>
        <time>2025-02-26T08:12:10Z</time>
      </trkpt>
      <trkpt lat="48.04087" lon="-3.50165">
        <ele>157.1</ele>
        <time>2025-02-26T08:12:11Z</time>
      </trkpt>
      <trkpt lat="48.04088" lon="-3.50165">
        <ele>157.3</ele>
        <time>2025-02-26T08:12:12Z</time>
      </trkpt>
      <trkpt lat="48.0409" lon="-3.50165">
        <ele>157.4</ele>
        <time>2025-02-26T08:12:13Z</time>
      </trkpt>
      <trkpt lat="48.04091" lon="-3.50166">
        <ele>157.5</ele>
        <time>2025-02-26T08:12:14Z</time>
      </trkpt>
      <trkpt lat="48.04092" lon="-3.50167">
        <ele>157.6</ele>
        <time>2025-02-26T08:12:15Z</time>
      </trkpt>
      <trkpt lat="48.04093" lon="-3.50168">
        <ele>157.6</ele>
        <time>2025-02-26T08:12:16Z</time>
      </trkpt>
      <trkpt lat="48.04094" lon="-3.50169">
        <ele>157.4</ele>
        <time>2025-02-26T08:12:17Z</time>
      </trkpt>
      <trkpt lat="48.04095" lon="-3.5017">
        <ele>157.4</ele>
        <time>2025-02-26T08:12:18Z</time>
      </trkpt>
      <trkpt lat="48.04096" lon="-3.50171">
        <ele>157.3</ele>
        <time>2025-02-26T08:12:19Z</time>
      </trkpt>
      <trkpt lat="48.04097" lon="-3.50172">
        <ele>157.3</ele>
        <time>2025-02-26T08:12:20Z</time>
      </trkpt>
      <trkpt lat="48.04098" lon="-3.50173">
        <ele>157.2</ele>
        <time>2025-02-26T08:12:21Z</time>
      </trkpt>
      <trkpt lat="48.04098" lon="-3.50173">
        <ele>157.2</ele>
        <time>2025-02-26T08:12:22Z</time>
      </trkpt>
      <trkpt lat="48.04097" lon="-3.50177">
        <ele>156.6</ele>
        <time>2025-02-26T08:12:23Z</time>
      </trkpt>
      <trkpt lat="48.04097" lon="-3.50179">
        <ele>156.5</ele>
        <time>2025-02-26T08:12:24Z</time>
      </trkpt>
      <trkpt lat="48.04098" lon="-3.5018">
        <ele>156.5</ele>
        <time>2025-02-26T08:12:25Z</time>
      </trkpt>
      <trkpt lat="48.041" lon="-3.50179">
        <ele>156.7</ele>
        <time>2025-02-26T08:12:26Z</time>
      </trkpt>
      <trkpt lat="48.04101" lon="-3.50179">
        <ele>156.8</ele>
        <time>2025-02-26T08:12:27Z</time>
      </trkpt>
      <trkpt lat="48.04102" lon="-3.50179">
        <ele>156.9</ele>
        <time>2025-02-26T08:12:28Z</time>
      </trkpt>
      <trkpt lat="48.04104" lon="-3.50179">
        <ele>157</ele>
        <time>2025-02-26T08:12:29Z</time>
      </trkpt>
      <trkpt lat="48.04105" lon="-3.50179">
        <ele>157.1</ele>
        <time>2025-02-26T08:12:30Z</time>
      </trkpt>
      <trkpt lat="48.04106" lon="-3.5018">
        <ele>157.1</ele>
        <time>2025-02-26T08:12:31Z</time>
      </trkpt>
      <trkpt lat="48.04107" lon="-3.50181">
        <ele>157.1</ele>
        <time>2025-02-26T08:12:32Z</time>
      </trkpt>
      <trkpt lat="48.04108" lon="-3.50181">
        <ele>157.1</ele>
        <time>2025-02-26T08:12:33Z</time>
      </trkpt>
      <trkpt lat="48.04109" lon="-3.50182">
        <ele>157.2</ele>
        <time>2025-02-26T08:12:34Z</time>
      </trkpt>
      <trkpt lat="48.0411" lon="-3.50182">
        <ele>157.2</ele>
        <time>2025-02-26T08:12:35Z</time>
      </trkpt>
      <trkpt lat="48.04111" lon="-3.50183">
        <ele>157.3</ele>
        <time>2025-02-26T08:12:36Z</time>
      </trkpt>
      <trkpt lat="48.04112" lon="-3.50183">
        <ele>157.3</ele>
        <time>2025-02-26T08:12:37Z</time>
      </trkpt>
      <trkpt lat="48.04113" lon="-3.50183">
        <ele>157.4</ele>
        <time>2025-02-26T08:12:38Z</time>
      </trkpt>
      <trkpt lat="48.04115" lon="-3.50184">
        <ele>157.5</ele>
        <time>2025-02-26T08:12:39Z</time>
      </trkpt>
      <trkpt lat="48.04116" lon="-3.50184">
        <ele>157.5</ele>
        <time>2025-02-26T08:12:40Z</time>
      </trkpt>
      <trkpt lat="48.04117" lon="-3.50185">
        <ele>157.6</ele>
        <time>2025-02-26T08:12:41Z</time>
      </trkpt>
      <trkpt lat="48.04118" lon="-3.50186">
        <ele>157.6</ele>
        <time>2025-02-26T08:12:42Z</time>
      </trkpt>
      <trkpt lat="48.04119" lon="-3.50187">
        <ele>157.6</ele>
        <time>2025-02-26T08:12:43Z</time>
      </trkpt>
      <trkpt lat="48.0412" lon="-3.50187">
        <ele>157.7</ele>
        <time>2025-02-26T08:12:44Z</time>
      </trkpt>
      <trkpt lat="48.04121" lon="-3.50187">
        <ele>157.8</ele>
        <time>2025-02-26T08:12:45Z</time>
      </trkpt>
      <trkpt lat="48.04122" lon="-3.50188">
        <ele>157.8</ele>
        <time>2025-02-26T08:12:46Z</time>
      </trkpt>
      <trkpt lat="48.04123" lon="-3.50189">
        <ele>157.8</ele>
        <time>2025-02-26T08:12:47Z</time>
      </trkpt>
      <trkpt lat="48.04125" lon="-3.5019">
        <ele>157.9</ele>
        <time>2025-02-26T08:12:48Z</time>
      </trkpt>
      <trkpt lat="48.04126" lon="-3.50191">
        <ele>157.9</ele>
        <time>2025-02-26T08:12:49Z</time>
      </trkpt>
      <trkpt lat="48.04127" lon="-3.50191">
        <ele>158</ele>
        <time>2025-02-26T08:12:50Z</time>
      </trkpt>
      <trkpt lat="48.04128" lon="-3.50192">
        <ele>158</ele>
        <time>2025-02-26T08:12:51Z</time>
      </trkpt>
      <trkpt lat="48.04129" lon="-3.50193">
        <ele>158.1</ele>
        <time>2025-02-26T08:12:52Z</time>
      </trkpt>
      <trkpt lat="48.0413" lon="-3.50194">
        <ele>158.1</ele>
        <time>2025-02-26T08:12:53Z</time>
      </trkpt>
      <trkpt lat="48.04131" lon="-3.50195">
        <ele>158.2</ele>
        <time>2025-02-26T08:12:54Z</time>
      </trkpt>
      <trkpt lat="48.04132" lon="-3.50195">
        <ele>158.1</ele>
        <time>2025-02-26T08:12:55Z</time>
      </trkpt>
      <trkpt lat="48.04133" lon="-3.50196">
        <ele>158</ele>
        <time>2025-02-26T08:12:56Z</time>
      </trkpt>
      <trkpt lat="48.04134" lon="-3.50197">
        <ele>157.9</ele>
        <time>2025-02-26T08:12:57Z</time>
      </trkpt>
      <trkpt lat="48.04134" lon="-3.50199">
        <ele>157.8</ele>
        <time>2025-02-26T08:12:58Z</time>
      </trkpt>
      <trkpt lat="48.04136" lon="-3.50199">
        <ele>157.7</ele>
        <time>2025-02-26T08:12:59Z</time>
      </trkpt>
      <trkpt lat="48.04137" lon="-3.502">
        <ele>157.8</ele>
        <time>2025-02-26T08:13:00Z</time>
      </trkpt>
      <trkpt lat="48.04138" lon="-3.502">
        <ele>157.8</ele>
        <time>2025-02-26T08:13:01Z</time>
      </trkpt>
      <trkpt lat="48.04139" lon="-3.50202">
        <ele>157.7</ele>
        <time>2025-02-26T08:13:02Z</time>
      </trkpt>
      <trkpt lat="48.0414" lon="-3.50202">
        <ele>157.8</ele>
        <time>2025-02-26T08:13:03Z</time>
      </trkpt>
      <trkpt lat="48.04142" lon="-3.50203">
        <ele>157.9</ele>
        <time>2025-02-26T08:13:04Z</time>
      </trkpt>
      <trkpt lat="48.04143" lon="-3.50204">
        <ele>157.9</ele>
        <time>2025-02-26T08:13:05Z</time>
      </trkpt>
      <trkpt lat="48.04144" lon="-3.50204">
        <ele>157.9</ele>
        <time>2025-02-26T08:13:06Z</time>
      </trkpt>
      <trkpt lat="48.04146" lon="-3.50205">
        <ele>158</ele>
        <time>2025-02-26T08:13:07Z</time>
      </trkpt>
      <trkpt lat="48.04147" lon="-3.50205">
        <ele>158.1</ele>
        <time>2025-02-26T08:13:08Z</time>
      </trkpt>
      <trkpt lat="48.04148" lon="-3.50206">
        <ele>158.1</ele>
        <time>2025-02-26T08:13:09Z</time>
      </trkpt>
      <trkpt lat="48.04149" lon="-3.50207">
        <ele>158.1</ele>
        <time>2025-02-26T08:13:10Z</time>
      </trkpt>
      <trkpt lat="48.0415" lon="-3.50208">
        <ele>158.1</ele>
        <time>2025-02-26T08:13:11Z</time>
      </trkpt>
      <trkpt lat="48.04151" lon="-3.50209">
        <ele>158.2</ele>
        <time>2025-02-26T08:13:12Z</time>
      </trkpt>
      <trkpt lat="48.04152" lon="-3.50209">
        <ele>158.3</ele>
        <time>2025-02-26T08:13:13Z</time>
      </trkpt>
      <trkpt lat="48.04154" lon="-3.5021">
        <ele>158.4</ele>
        <time>2025-02-26T08:13:14Z</time>
      </trkpt>
      <trkpt lat="48.04155" lon="-3.50211">
        <ele>158.5</ele>
        <time>2025-02-26T08:13:15Z</time>
      </trkpt>
      <trkpt lat="48.04156" lon="-3.50212">
        <ele>158.4</ele>
        <time>2025-02-26T08:13:16Z</time>
      </trkpt>
      <trkpt lat="48.04157" lon="-3.50213">
        <ele>158.4</ele>
        <time>2025-02-26T08:13:17Z</time>
      </trkpt>
      <trkpt lat="48.04158" lon="-3.50214">
        <ele>158.4</ele>
        <time>2025-02-26T08:13:18Z</time>
      </trkpt>
      <trkpt lat="48.04159" lon="-3.50215">
        <ele>158.5</ele>
        <time>2025-02-26T08:13:19Z</time>
      </trkpt>
      <trkpt lat="48.0416" lon="-3.50217">
        <ele>158.4</ele>
        <time>2025-02-26T08:13:20Z</time>
      </trkpt>
      <trkpt lat="48.04161" lon="-3.50218">
        <ele>158.5</ele>
        <time>2025-02-26T08:13:21Z</time>
      </trkpt>
      <trkpt lat="48.04162" lon="-3.50219">
        <ele>158.5</ele>
        <time>2025-02-26T08:13:22Z</time>
      </trkpt>
      <trkpt lat="48.04163" lon="-3.5022">
        <ele>158.6</ele>
        <time>2025-02-26T08:13:23Z</time>
      </trkpt>
      <trkpt lat="48.04164" lon="-3.50221">
        <ele>158.7</ele>
        <time>2025-02-26T08:13:24Z</time>
      </trkpt>
      <trkpt lat="48.04166" lon="-3.50222">
        <ele>158.8</ele>
        <time>2025-02-26T08:13:25Z</time>
      </trkpt>
      <trkpt lat="48.04167" lon="-3.50224">
        <ele>158.9</ele>
        <time>2025-02-26T08:13:26Z</time>
      </trkpt>
      <trkpt lat="48.04168" lon="-3.50224">
        <ele>159.1</ele>
        <time>2025-02-26T08:13:27Z</time>
      </trkpt>
      <trkpt lat="48.04169" lon="-3.50226">
        <ele>159.1</ele>
        <time>2025-02-26T08:13:28Z</time>
      </trkpt>
      <trkpt lat="48.0417" lon="-3.50228">
        <ele>159.1</ele>
        <time>2025-02-26T08:13:29Z</time>
      </trkpt>
      <trkpt lat="48.04171" lon="-3.50229">
        <ele>159.2</ele>
        <time>2025-02-26T08:13:30Z</time>
      </trkpt>
      <trkpt lat="48.04172" lon="-3.5023">
        <ele>159.3</ele>
        <time>2025-02-26T08:13:31Z</time>
      </trkpt>
      <trkpt lat="48.04173" lon="-3.50231">
        <ele>159.3</ele>
        <time>2025-02-26T08:13:32Z</time>
      </trkpt>
      <trkpt lat="48.04174" lon="-3.50232">
        <ele>159.4</ele>
        <time>2025-02-26T08:13:33Z</time>
      </trkpt>
      <trkpt lat="48.04175" lon="-3.50233">
        <ele>159.4</ele>
        <time>2025-02-26T08:13:34Z</time>
      </trkpt>
      <trkpt lat="48.04176" lon="-3.50234">
        <ele>159.5</ele>
        <time>2025-02-26T08:13:35Z</time>
      </trkpt>
      <trkpt lat="48.04177" lon="-3.50235">
        <ele>159.6</ele>
        <time>2025-02-26T08:13:36Z</time>
      </trkpt>
      <trkpt lat="48.04178" lon="-3.50236">
        <ele>159.7</ele>
        <time>2025-02-26T08:13:37Z</time>
      </trkpt>
      <trkpt lat="48.0418" lon="-3.50237">
        <ele>159.8</ele>
        <time>2025-02-26T08:13:38Z</time>
      </trkpt>
      <trkpt lat="48.04181" lon="-3.50239">
        <ele>159.8</ele>
        <time>2025-02-26T08:13:39Z</time>
      </trkpt>
      <trkpt lat="48.04182" lon="-3.5024">
        <ele>159.9</ele>
        <time>2025-02-26T08:13:40Z</time>
      </trkpt>
      <trkpt lat="48.04182" lon="-3.50242">
        <ele>159.8</ele>
        <time>2025-02-26T08:13:41Z</time>
      </trkpt>
      <trkpt lat="48.04183" lon="-3.50243">
        <ele>159.9</ele>
        <time>2025-02-26T08:13:42Z</time>
      </trkpt>
      <trkpt lat="48.04184" lon="-3.50245">
        <ele>159.9</ele>
        <time>2025-02-26T08:13:43Z</time>
      </trkpt>
      <trkpt lat="48.04185" lon="-3.50246">
        <ele>159.9</ele>
        <time>2025-02-26T08:13:44Z</time>
      </trkpt>
      <trkpt lat="48.04186" lon="-3.50247">
        <ele>159.9</ele>
        <time>2025-02-26T08:13:45Z</time>
      </trkpt>
      <trkpt lat="48.04187" lon="-3.50249">
        <ele>160</ele>
        <time>2025-02-26T08:13:46Z</time>
      </trkpt>
      <trkpt lat="48.04188" lon="-3.5025">
        <ele>160.1</ele>
        <time>2025-02-26T08:13:47Z</time>
      </trkpt>
      <trkpt lat="48.04189" lon="-3.50251">
        <ele>160.2</ele>
        <time>2025-02-26T08:13:48Z</time>
      </trkpt>
      <trkpt lat="48.0419" lon="-3.50253">
        <ele>160.3</ele>
        <time>2025-02-26T08:13:49Z</time>
      </trkpt>
      <trkpt lat="48.04191" lon="-3.50254">
        <ele>160.4</ele>
        <time>2025-02-26T08:13:50Z</time>
      </trkpt>
      <trkpt lat="48.04192" lon="-3.50255">
        <ele>160.5</ele>
        <time>2025-02-26T08:13:51Z</time>
      </trkpt>
      <trkpt lat="48.04193" lon="-3.50257">
        <ele>160.5</ele>
        <time>2025-02-26T08:13:52Z</time>
      </trkpt>
      <trkpt lat="48.04194" lon="-3.50258">
        <ele>160.6</ele>
        <time>2025-02-26T08:13:53Z</time>
      </trkpt>
      <trkpt lat="48.04194" lon="-3.50259">
        <ele>160.6</ele>
        <time>2025-02-26T08:13:54Z</time>
      </trkpt>
      <trkpt lat="48.04195" lon="-3.50261">
        <ele>160.7</ele>
        <time>2025-02-26T08:13:55Z</time>
      </trkpt>
      <trkpt lat="48.04196" lon="-3.50262">
        <ele>160.9</ele>
        <time>2025-02-26T08:13:56Z</time>
      </trkpt>
      <trkpt lat="48.04197" lon="-3.50263">
        <ele>161</ele>
        <time>2025-02-26T08:13:57Z</time>
      </trkpt>
      <trkpt lat="48.04198" lon="-3.50264">
        <ele>161.1</ele>
        <time>2025-02-26T08:13:58Z</time>
      </trkpt>
      <trkpt lat="48.042" lon="-3.50265">
        <ele>161.3</ele>
        <time>2025-02-26T08:13:59Z</time>
      </trkpt>
      <trkpt lat="48.04201" lon="-3.50266">
        <ele>161.4</ele>
        <time>2025-02-26T08:14:00Z</time>
      </trkpt>
      <trkpt lat="48.04201" lon="-3.50268">
        <ele>161.4</ele>
        <time>2025-02-26T08:14:01Z</time>
      </trkpt>
      <trkpt lat="48.04202" lon="-3.50269">
        <ele>161.5</ele>
        <time>2025-02-26T08:14:02Z</time>
      </trkpt>
      <trkpt lat="48.04203" lon="-3.50271">
        <ele>161.6</ele>
        <time>2025-02-26T08:14:03Z</time>
      </trkpt>
      <trkpt lat="48.04204" lon="-3.50272">
        <ele>161.7</ele>
        <time>2025-02-26T08:14:04Z</time>
      </trkpt>
      <trkpt lat="48.04205" lon="-3.50273">
        <ele>161.8</ele>
        <time>2025-02-26T08:14:05Z</time>
      </trkpt>
      <trkpt lat="48.04206" lon="-3.50274">
        <ele>161.9</ele>
        <time>2025-02-26T08:14:06Z</time>
      </trkpt>
      <trkpt lat="48.04207" lon="-3.50276">
        <ele>161.9</ele>
        <time>2025-02-26T08:14:07Z</time>
      </trkpt>
      <trkpt lat="48.04208" lon="-3.50277">
        <ele>162</ele>
        <time>2025-02-26T08:14:08Z</time>
      </trkpt>
      <trkpt lat="48.0421" lon="-3.50277">
        <ele>162.2</ele>
        <time>2025-02-26T08:14:09Z</time>
      </trkpt>
      <trkpt lat="48.0421" lon="-3.50279">
        <ele>162.2</ele>
        <time>2025-02-26T08:14:10Z</time>
      </trkpt>
      <trkpt lat="48.04211" lon="-3.5028">
        <ele>162.2</ele>
        <time>2025-02-26T08:14:11Z</time>
      </trkpt>
      <trkpt lat="48.04212" lon="-3.50282">
        <ele>162.2</ele>
        <time>2025-02-26T08:14:12Z</time>
      </trkpt>
      <trkpt lat="48.04212" lon="-3.50283">
        <ele>162.2</ele>
        <time>2025-02-26T08:14:13Z</time>
      </trkpt>
      <trkpt lat="48.04213" lon="-3.50285">
        <ele>162.1</ele>
        <time>2025-02-26T08:14:14Z</time>
      </trkpt>
      <trkpt lat="48.04214" lon="-3.50286">
        <ele>162.2</ele>
        <time>2025-02-26T08:14:15Z</time>
      </trkpt>
      <trkpt lat="48.04214" lon="-3.50288">
        <ele>162.1</ele>
        <time>2025-02-26T08:14:16Z</time>
      </trkpt>
      <trkpt lat="48.04215" lon="-3.5029">
        <ele>162.1</ele>
        <time>2025-02-26T08:14:17Z</time>
      </trkpt>
      <trkpt lat="48.04216" lon="-3.50292">
        <ele>162</ele>
        <time>2025-02-26T08:14:18Z</time>
      </trkpt>
      <trkpt lat="48.04216" lon="-3.50293">
        <ele>162</ele>
        <time>2025-02-26T08:14:19Z</time>
      </trkpt>
      <trkpt lat="48.04217" lon="-3.50295">
        <ele>162</ele>
        <time>2025-02-26T08:14:20Z</time>
      </trkpt>
      <trkpt lat="48.04218" lon="-3.50297">
        <ele>162</ele>
        <time>2025-02-26T08:14:21Z</time>
      </trkpt>
      <trkpt lat="48.04218" lon="-3.50298">
        <ele>162</ele>
        <time>2025-02-26T08:14:22Z</time>
      </trkpt>
      <trkpt lat="48.04219" lon="-3.503">
        <ele>162</ele>
        <time>2025-02-26T08:14:23Z</time>
      </trkpt>
      <trkpt lat="48.0422" lon="-3.50302">
        <ele>161.9</ele>
        <time>2025-02-26T08:14:24Z</time>
      </trkpt>
      <trkpt lat="48.04221" lon="-3.50303">
        <ele>161.9</ele>
        <time>2025-02-26T08:14:25Z</time>
      </trkpt>
      <trkpt lat="48.04221" lon="-3.50305">
        <ele>161.9</ele>
        <time>2025-02-26T08:14:26Z</time>
      </trkpt>
      <trkpt lat="48.04222" lon="-3.50306">
        <ele>162</ele>
        <time>2025-02-26T08:14:27Z</time>
      </trkpt>
      <trkpt lat="48.04223" lon="-3.50307">
        <ele>162</ele>
        <time>2025-02-26T08:14:28Z</time>
      </trkpt>
      <trkpt lat="48.04224" lon="-3.50308">
        <ele>162</ele>
        <time>2025-02-26T08:14:29Z</time>
      </trkpt>
      <trkpt lat="48.04225" lon="-3.5031">
        <ele>162</ele>
        <time>2025-02-26T08:14:30Z</time>
      </trkpt>
      <trkpt lat="48.04226" lon="-3.50311">
        <ele>162.1</ele>
        <time>2025-02-26T08:14:31Z</time>
      </trkpt>
      <trkpt lat="48.04227" lon="-3.50312">
        <ele>162.1</ele>
        <time>2025-02-26T08:14:32Z</time>
      </trkpt>
      <trkpt lat="48.04228" lon="-3.50313">
        <ele>162.1</ele>
        <time>2025-02-26T08:14:33Z</time>
      </trkpt>
      <trkpt lat="48.04229" lon="-3.50314">
        <ele>162.2</ele>
        <time>2025-02-26T08:14:34Z</time>
      </trkpt>
      <trkpt lat="48.0423" lon="-3.50316">
        <ele>162.2</ele>
        <time>2025-02-26T08:14:35Z</time>
      </trkpt>
      <trkpt lat="48.0423" lon="-3.50318">
        <ele>162.1</ele>
        <time>2025-02-26T08:14:36Z</time>
      </trkpt>
      <trkpt lat="48.04231" lon="-3.50319">
        <ele>162.1</ele>
        <time>2025-02-26T08:14:37Z</time>
      </trkpt>
      <trkpt lat="48.04232" lon="-3.5032">
        <ele>162.1</ele>
        <time>2025-02-26T08:14:38Z</time>
      </trkpt>
      <trkpt lat="48.04232" lon="-3.50321">
        <ele>162.2</ele>
        <time>2025-02-26T08:14:39Z</time>
      </trkpt>
      <trkpt lat="48.04234" lon="-3.50322">
        <ele>162.3</ele>
        <time>2025-02-26T08:14:40Z</time>
      </trkpt>
      <trkpt lat="48.04235" lon="-3.50323">
        <ele>162.4</ele>
        <time>2025-02-26T08:14:41Z</time>
      </trkpt>
      <trkpt lat="48.04236" lon="-3.50324">
        <ele>162.5</ele>
        <time>2025-02-26T08:14:42Z</time>
      </trkpt>
      <trkpt lat="48.04237" lon="-3.50324">
        <ele>162.6</ele>
        <time>2025-02-26T08:14:43Z</time>
      </trkpt>
      <trkpt lat="48.04238" lon="-3.50324">
        <ele>162.7</ele>
        <time>2025-02-26T08:14:44Z</time>
      </trkpt>
      <trkpt lat="48.04239" lon="-3.50323">
        <ele>162.9</ele>
        <time>2025-02-26T08:14:45Z</time>
      </trkpt>
      <trkpt lat="48.0424" lon="-3.50323">
        <ele>163.1</ele>
        <time>2025-02-26T08:14:46Z</time>
      </trkpt>
      <trkpt lat="48.04241" lon="-3.50323">
        <ele>163.2</ele>
        <time>2025-02-26T08:14:47Z</time>
      </trkpt>
      <trkpt lat="48.04242" lon="-3.50323">
        <ele>163.4</ele>
        <time>2025-02-26T08:14:48Z</time>
      </trkpt>
      <trkpt lat="48.04243" lon="-3.50322">
        <ele>163.5</ele>
        <time>2025-02-26T08:14:49Z</time>
      </trkpt>
      <trkpt lat="48.04244" lon="-3.50322">
        <ele>163.7</ele>
        <time>2025-02-26T08:14:50Z</time>
      </trkpt>
      <trkpt lat="48.04245" lon="-3.5032">
        <ele>163.8</ele>
        <time>2025-02-26T08:14:51Z</time>
      </trkpt>
      <trkpt lat="48.04246" lon="-3.50319">
        <ele>164</ele>
        <time>2025-02-26T08:14:52Z</time>
      </trkpt>
      <trkpt lat="48.04247" lon="-3.50318">
        <ele>164.1</ele>
        <time>2025-02-26T08:14:53Z</time>
      </trkpt>
      <trkpt lat="48.04247" lon="-3.50317">
        <ele>164.3</ele>
        <time>2025-02-26T08:14:54Z</time>
      </trkpt>
      <trkpt lat="48.04248" lon="-3.50316">
        <ele>164.4</ele>
        <time>2025-02-26T08:14:55Z</time>
      </trkpt>
      <trkpt lat="48.0425" lon="-3.50315">
        <ele>164.6</ele>
        <time>2025-02-26T08:14:56Z</time>
      </trkpt>
      <trkpt lat="48.04251" lon="-3.50313">
        <ele>164.8</ele>
        <time>2025-02-26T08:14:57Z</time>
      </trkpt>
      <trkpt lat="48.04251" lon="-3.50311">
        <ele>164.9</ele>
        <time>2025-02-26T08:14:58Z</time>
      </trkpt>
      <trkpt lat="48.04252" lon="-3.5031">
        <ele>165</ele>
        <time>2025-02-26T08:14:59Z</time>
      </trkpt>
      <trkpt lat="48.04252" lon="-3.50308">
        <ele>165.1</ele>
        <time>2025-02-26T08:15:00Z</time>
      </trkpt>
      <trkpt lat="48.04253" lon="-3.50306">
        <ele>165.2</ele>
        <time>2025-02-26T08:15:01Z</time>
      </trkpt>
      <trkpt lat="48.04254" lon="-3.50304">
        <ele>165.4</ele>
        <time>2025-02-26T08:15:02Z</time>
      </trkpt>
      <trkpt lat="48.04254" lon="-3.50303">
        <ele>165.5</ele>
        <time>2025-02-26T08:15:03Z</time>
      </trkpt>
      <trkpt lat="48.04255" lon="-3.50302">
        <ele>165.6</ele>
        <time>2025-02-26T08:15:04Z</time>
      </trkpt>
      <trkpt lat="48.04256" lon="-3.503">
        <ele>165.8</ele>
        <time>2025-02-26T08:15:05Z</time>
      </trkpt>
      <trkpt lat="48.04257" lon="-3.503">
        <ele>165.9</ele>
        <time>2025-02-26T08:15:06Z</time>
      </trkpt>
      <trkpt lat="48.04258" lon="-3.50298">
        <ele>166</ele>
        <time>2025-02-26T08:15:07Z</time>
      </trkpt>
      <trkpt lat="48.04258" lon="-3.50297">
        <ele>166.1</ele>
        <time>2025-02-26T08:15:08Z</time>
      </trkpt>
      <trkpt lat="48.04259" lon="-3.50296">
        <ele>166.3</ele>
        <time>2025-02-26T08:15:09Z</time>
      </trkpt>
      <trkpt lat="48.0426" lon="-3.50294">
        <ele>166.4</ele>
        <time>2025-02-26T08:15:10Z</time>
      </trkpt>
      <trkpt lat="48.04261" lon="-3.50293">
        <ele>166.5</ele>
        <time>2025-02-26T08:15:11Z</time>
      </trkpt>
      <trkpt lat="48.04262" lon="-3.50291">
        <ele>166.7</ele>
        <time>2025-02-26T08:15:12Z</time>
      </trkpt>
      <trkpt lat="48.04263" lon="-3.50289">
        <ele>166.8</ele>
        <time>2025-02-26T08:15:13Z</time>
      </trkpt>
      <trkpt lat="48.04263" lon="-3.50288">
        <ele>166.9</ele>
        <time>2025-02-26T08:15:14Z</time>
      </trkpt>
      <trkpt lat="48.04264" lon="-3.50287">
        <ele>167</ele>
        <time>2025-02-26T08:15:15Z</time>
      </trkpt>
      <trkpt lat="48.04265" lon="-3.50287">
        <ele>167.1</ele>
        <time>2025-02-26T08:15:16Z</time>
      </trkpt>
      <trkpt lat="48.04266" lon="-3.50286">
        <ele>167.1</ele>
        <time>2025-02-26T08:15:17Z</time>
      </trkpt>
      <trkpt lat="48.04267" lon="-3.50285">
        <ele>167.2</ele>
        <time>2025-02-26T08:15:18Z</time>
      </trkpt>
      <trkpt lat="48.04268" lon="-3.50284">
        <ele>167.3</ele>
        <time>2025-02-26T08:15:19Z</time>
      </trkpt>
      <trkpt lat="48.04269" lon="-3.50283">
        <ele>167.4</ele>
        <time>2025-02-26T08:15:20Z</time>
      </trkpt>
      <trkpt lat="48.0427" lon="-3.50282">
        <ele>167.5</ele>
        <time>2025-02-26T08:15:21Z</time>
      </trkpt>
      <trkpt lat="48.0427" lon="-3.5028">
        <ele>167.6</ele>
        <time>2025-02-26T08:15:22Z</time>
      </trkpt>
      <trkpt lat="48.04271" lon="-3.50279">
        <ele>167.7</ele>
        <time>2025-02-26T08:15:23Z</time>
      </trkpt>
      <trkpt lat="48.04272" lon="-3.50278">
        <ele>167.8</ele>
        <time>2025-02-26T08:15:24Z</time>
      </trkpt>
      <trkpt lat="48.04272" lon="-3.50276">
        <ele>167.9</ele>
        <time>2025-02-26T08:15:25Z</time>
      </trkpt>
      <trkpt lat="48.04273" lon="-3.50275">
        <ele>167.9</ele>
        <time>2025-02-26T08:15:26Z</time>
      </trkpt>
      <trkpt lat="48.04273" lon="-3.50273">
        <ele>168</ele>
        <time>2025-02-26T08:15:27Z</time>
      </trkpt>
      <trkpt lat="48.04274" lon="-3.50272">
        <ele>168.1</ele>
        <time>2025-02-26T08:15:28Z</time>
      </trkpt>
      <trkpt lat="48.04276" lon="-3.50271">
        <ele>168.2</ele>
        <time>2025-02-26T08:15:29Z</time>
      </trkpt>
      <trkpt lat="48.04277" lon="-3.5027">
        <ele>168.2</ele>
        <time>2025-02-26T08:15:30Z</time>
      </trkpt>
      <trkpt lat="48.04278" lon="-3.50269">
        <ele>168.3</ele>
        <time>2025-02-26T08:15:31Z</time>
      </trkpt>
      <trkpt lat="48.04278" lon="-3.50267">
        <ele>168.4</ele>
        <time>2025-02-26T08:15:32Z</time>
      </trkpt>
      <trkpt lat="48.04279" lon="-3.50266">
        <ele>168.5</ele>
        <time>2025-02-26T08:15:33Z</time>
      </trkpt>
      <trkpt lat="48.04279" lon="-3.50265">
        <ele>168.6</ele>
        <time>2025-02-26T08:15:34Z</time>
      </trkpt>
      <trkpt lat="48.0428" lon="-3.50264">
        <ele>168.6</ele>
        <time>2025-02-26T08:15:35Z</time>
      </trkpt>
      <trkpt lat="48.04281" lon="-3.50263">
        <ele>168.7</ele>
        <time>2025-02-26T08:15:36Z</time>
      </trkpt>
      <trkpt lat="48.04282" lon="-3.50261">
        <ele>168.8</ele>
        <time>2025-02-26T08:15:37Z</time>
      </trkpt>
      <trkpt lat="48.04282" lon="-3.5026">
        <ele>168.9</ele>
        <time>2025-02-26T08:15:38Z</time>
      </trkpt>
      <trkpt lat="48.04283" lon="-3.50258">
        <ele>168.9</ele>
        <time>2025-02-26T08:15:39Z</time>
      </trkpt>
      <trkpt lat="48.04283" lon="-3.50258">
        <ele>169</ele>
        <time>2025-02-26T08:15:40Z</time>
      </trkpt>
      <trkpt lat="48.04284" lon="-3.50257">
        <ele>169</ele>
        <time>2025-02-26T08:15:41Z</time>
      </trkpt>
      <trkpt lat="48.04285" lon="-3.50256">
        <ele>169.1</ele>
        <time>2025-02-26T08:15:42Z</time>
      </trkpt>
      <trkpt lat="48.04286" lon="-3.50255">
        <ele>169.2</ele>
        <time>2025-02-26T08:15:43Z</time>
      </trkpt>
      <trkpt lat="48.04286" lon="-3.50255">
        <ele>169.2</ele>
        <time>2025-02-26T08:15:44Z</time>
      </trkpt>
      <trkpt lat="48.04287" lon="-3.50254">
        <ele>169.2</ele>
        <time>2025-02-26T08:15:45Z</time>
      </trkpt>
      <trkpt lat="48.04288" lon="-3.50253">
        <ele>169.3</ele>
        <time>2025-02-26T08:15:46Z</time>
      </trkpt>
      <trkpt lat="48.04289" lon="-3.50252">
        <ele>169.3</ele>
        <time>2025-02-26T08:15:47Z</time>
      </trkpt>
      <trkpt lat="48.0429" lon="-3.50252">
        <ele>169.4</ele>
        <time>2025-02-26T08:15:48Z</time>
      </trkpt>
      <trkpt lat="48.04291" lon="-3.5025">
        <ele>169.5</ele>
        <time>2025-02-26T08:15:49Z</time>
      </trkpt>
      <trkpt lat="48.04291" lon="-3.50248">
        <ele>169.5</ele>
        <time>2025-02-26T08:15:50Z</time>
      </trkpt>
      <trkpt lat="48.04291" lon="-3.50247">
        <ele>169.6</ele>
        <time>2025-02-26T08:15:51Z</time>
      </trkpt>
      <trkpt lat="48.04292" lon="-3.50245">
        <ele>169.7</ele>
        <time>2025-02-26T08:15:52Z</time>
      </trkpt>
      <trkpt lat="48.04291" lon="-3.50243">
        <ele>169.8</ele>
        <time>2025-02-26T08:15:53Z</time>
      </trkpt>
      <trkpt lat="48.04292" lon="-3.50241">
        <ele>169.8</ele>
        <time>2025-02-26T08:15:54Z</time>
      </trkpt>
      <trkpt lat="48.04292" lon="-3.50239">
        <ele>169.9</ele>
        <time>2025-02-26T08:15:55Z</time>
      </trkpt>
      <trkpt lat="48.04293" lon="-3.50238">
        <ele>170</ele>
        <time>2025-02-26T08:15:56Z</time>
      </trkpt>
      <trkpt lat="48.04294" lon="-3.50236">
        <ele>170.1</ele>
        <time>2025-02-26T08:15:57Z</time>
      </trkpt>
      <trkpt lat="48.04294" lon="-3.50234">
        <ele>170.2</ele>
        <time>2025-02-26T08:15:58Z</time>
      </trkpt>
      <trkpt lat="48.04295" lon="-3.50232">
        <ele>170.2</ele>
        <time>2025-02-26T08:15:59Z</time>
      </trkpt>
      <trkpt lat="48.04295" lon="-3.50231">
        <ele>170.3</ele>
        <time>2025-02-26T08:16:00Z</time>
      </trkpt>
      <trkpt lat="48.04296" lon="-3.50229">
        <ele>170.4</ele>
        <time>2025-02-26T08:16:01Z</time>
      </trkpt>
      <trkpt lat="48.04296" lon="-3.50228">
        <ele>170.5</ele>
        <time>2025-02-26T08:16:02Z</time>
      </trkpt>
      <trkpt lat="48.04296" lon="-3.50226">
        <ele>170.5</ele>
        <time>2025-02-26T08:16:03Z</time>
      </trkpt>
      <trkpt lat="48.04297" lon="-3.50225">
        <ele>170.6</ele>
        <time>2025-02-26T08:16:04Z</time>
      </trkpt>
      <trkpt lat="48.04298" lon="-3.50223">
        <ele>170.7</ele>
        <time>2025-02-26T08:16:05Z</time>
      </trkpt>
      <trkpt lat="48.04298" lon="-3.50221">
        <ele>170.8</ele>
        <time>2025-02-26T08:16:06Z</time>
      </trkpt>
      <trkpt lat="48.04299" lon="-3.50219">
        <ele>170.9</ele>
        <time>2025-02-26T08:16:07Z</time>
      </trkpt>
      <trkpt lat="48.04299" lon="-3.50218">
        <ele>170.9</ele>
        <time>2025-02-26T08:16:08Z</time>
      </trkpt>
      <trkpt lat="48.043" lon="-3.50217">
        <ele>171</ele>
        <time>2025-02-26T08:16:09Z</time>
      </trkpt>
      <trkpt lat="48.04301" lon="-3.50216">
        <ele>171.1</ele>
        <time>2025-02-26T08:16:10Z</time>
      </trkpt>
      <trkpt lat="48.04302" lon="-3.50214">
        <ele>171.2</ele>
        <time>2025-02-26T08:16:11Z</time>
      </trkpt>
      <trkpt lat="48.04303" lon="-3.50213">
        <ele>171.2</ele>
        <time>2025-02-26T08:16:12Z</time>
      </trkpt>
      <trkpt lat="48.04303" lon="-3.50211">
        <ele>171.3</ele>
        <time>2025-02-26T08:16:13Z</time>
      </trkpt>
      <trkpt lat="48.04304" lon="-3.5021">
        <ele>171.4</ele>
        <time>2025-02-26T08:16:14Z</time>
      </trkpt>
      <trkpt lat="48.04305" lon="-3.50208">
        <ele>171.5</ele>
        <time>2025-02-26T08:16:15Z</time>
      </trkpt>
      <trkpt lat="48.04306" lon="-3.50207">
        <ele>171.6</ele>
        <time>2025-02-26T08:16:16Z</time>
      </trkpt>
      <trkpt lat="48.04306" lon="-3.50205">
        <ele>171.6</ele>
        <time>2025-02-26T08:16:17Z</time>
      </trkpt>
      <trkpt lat="48.04307" lon="-3.50203">
        <ele>171.7</ele>
        <time>2025-02-26T08:16:18Z</time>
      </trkpt>
      <trkpt lat="48.04307" lon="-3.50202">
        <ele>171.8</ele>
        <time>2025-02-26T08:16:19Z</time>
      </trkpt>
      <trkpt lat="48.04308" lon="-3.50201">
        <ele>171.9</ele>
        <time>2025-02-26T08:16:20Z</time>
      </trkpt>
      <trkpt lat="48.04309" lon="-3.50199">
        <ele>172</ele>
        <time>2025-02-26T08:16:21Z</time>
      </trkpt>
      <trkpt lat="48.0431" lon="-3.50198">
        <ele>172</ele>
        <time>2025-02-26T08:16:22Z</time>
      </trkpt>
      <trkpt lat="48.04311" lon="-3.50197">
        <ele>172.1</ele>
        <time>2025-02-26T08:16:23Z</time>
      </trkpt>
      <trkpt lat="48.04312" lon="-3.50196">
        <ele>172.2</ele>
        <time>2025-02-26T08:16:24Z</time>
      </trkpt>
      <trkpt lat="48.04313" lon="-3.50195">
        <ele>172.3</ele>
        <time>2025-02-26T08:16:25Z</time>
      </trkpt>
      <trkpt lat="48.04314" lon="-3.50193">
        <ele>172.3</ele>
        <time>2025-02-26T08:16:26Z</time>
      </trkpt>
      <trkpt lat="48.04314" lon="-3.50191">
        <ele>172.4</ele>
        <time>2025-02-26T08:16:27Z</time>
      </trkpt>
      <trkpt lat="48.04315" lon="-3.5019">
        <ele>172.5</ele>
        <time>2025-02-26T08:16:28Z</time>
      </trkpt>
      <trkpt lat="48.04316" lon="-3.50188">
        <ele>172.6</ele>
        <time>2025-02-26T08:16:29Z</time>
      </trkpt>
      <trkpt lat="48.04316" lon="-3.50186">
        <ele>172.7</ele>
        <time>2025-02-26T08:16:30Z</time>
      </trkpt>
      <trkpt lat="48.04316" lon="-3.50185">
        <ele>172.7</ele>
        <time>2025-02-26T08:16:31Z</time>
      </trkpt>
      <trkpt lat="48.04316" lon="-3.50183">
        <ele>172.8</ele>
        <time>2025-02-26T08:16:32Z</time>
      </trkpt>
      <trkpt lat="48.04317" lon="-3.50181">
        <ele>172.9</ele>
        <time>2025-02-26T08:16:33Z</time>
      </trkpt>
      <trkpt lat="48.04318" lon="-3.5018">
        <ele>173</ele>
        <time>2025-02-26T08:16:34Z</time>
      </trkpt>
      <trkpt lat="48.04319" lon="-3.50179">
        <ele>173</ele>
        <time>2025-02-26T08:16:35Z</time>
      </trkpt>
      <trkpt lat="48.0432" lon="-3.50178">
        <ele>173.1</ele>
        <time>2025-02-26T08:16:36Z</time>
      </trkpt>
      <trkpt lat="48.0432" lon="-3.50176">
        <ele>173.2</ele>
        <time>2025-02-26T08:16:37Z</time>
      </trkpt>
      <trkpt lat="48.04321" lon="-3.50175">
        <ele>173.3</ele>
        <time>2025-02-26T08:16:38Z</time>
      </trkpt>
      <trkpt lat="48.04321" lon="-3.50173">
        <ele>173.3</ele>
        <time>2025-02-26T08:16:39Z</time>
      </trkpt>
      <trkpt lat="48.04322" lon="-3.50172">
        <ele>173.4</ele>
        <time>2025-02-26T08:16:40Z</time>
      </trkpt>
      <trkpt lat="48.04323" lon="-3.5017">
        <ele>173.5</ele>
        <time>2025-02-26T08:16:41Z</time>
      </trkpt>
      <trkpt lat="48.04323" lon="-3.50169">
        <ele>173.6</ele>
        <time>2025-02-26T08:16:42Z</time>
      </trkpt>
      <trkpt lat="48.04324" lon="-3.50167">
        <ele>173.6</ele>
        <time>2025-02-26T08:16:43Z</time>
      </trkpt>
      <trkpt lat="48.04325" lon="-3.50166">
        <ele>173.7</ele>
        <time>2025-02-26T08:16:44Z</time>
      </trkpt>
      <trkpt lat="48.04326" lon="-3.50166">
        <ele>173.7</ele>
        <time>2025-02-26T08:16:45Z</time>
      </trkpt>
      <trkpt lat="48.04327" lon="-3.50165">
        <ele>173.8</ele>
        <time>2025-02-26T08:16:46Z</time>
      </trkpt>
      <trkpt lat="48.04328" lon="-3.50164">
        <ele>173.8</ele>
        <time>2025-02-26T08:16:47Z</time>
      </trkpt>
      <trkpt lat="48.04329" lon="-3.50163">
        <ele>173.9</ele>
        <time>2025-02-26T08:16:48Z</time>
      </trkpt>
      <trkpt lat="48.04329" lon="-3.50162">
        <ele>173.9</ele>
        <time>2025-02-26T08:16:49Z</time>
      </trkpt>
      <trkpt lat="48.04329" lon="-3.5016">
        <ele>173.9</ele>
        <time>2025-02-26T08:16:50Z</time>
      </trkpt>
      <trkpt lat="48.0433" lon="-3.50159">
        <ele>173.9</ele>
        <time>2025-02-26T08:16:51Z</time>
      </trkpt>
      <trkpt lat="48.04331" lon="-3.50158">
        <ele>173.9</ele>
        <time>2025-02-26T08:16:52Z</time>
      </trkpt>
      <trkpt lat="48.04331" lon="-3.50157">
        <ele>173.9</ele>
        <time>2025-02-26T08:16:53Z</time>
      </trkpt>
      <trkpt lat="48.04332" lon="-3.50156">
        <ele>174</ele>
        <time>2025-02-26T08:16:54Z</time>
      </trkpt>
      <trkpt lat="48.04332" lon="-3.50153">
        <ele>174</ele>
        <time>2025-02-26T08:16:55Z</time>
      </trkpt>
      <trkpt lat="48.04332" lon="-3.50151">
        <ele>174</ele>
        <time>2025-02-26T08:16:56Z</time>
      </trkpt>
      <trkpt lat="48.04332" lon="-3.5015">
        <ele>174</ele>
        <time>2025-02-26T08:16:57Z</time>
      </trkpt>
      <trkpt lat="48.04333" lon="-3.50149">
        <ele>174</ele>
        <time>2025-02-26T08:16:58Z</time>
      </trkpt>
      <trkpt lat="48.04333" lon="-3.50148">
        <ele>174</ele>
        <time>2025-02-26T08:16:59Z</time>
      </trkpt>
      <trkpt lat="48.04334" lon="-3.50146">
        <ele>174</ele>
        <time>2025-02-26T08:17:00Z</time>
      </trkpt>
      <trkpt lat="48.04334" lon="-3.50145">
        <ele>174</ele>
        <time>2025-02-26T08:17:01Z</time>
      </trkpt>
      <trkpt lat="48.04335" lon="-3.50144">
        <ele>174</ele>
        <time>2025-02-26T08:17:02Z</time>
      </trkpt>
      <trkpt lat="48.04336" lon="-3.50143">
        <ele>174</ele>
        <time>2025-02-26T08:17:03Z</time>
      </trkpt>
      <trkpt lat="48.04336" lon="-3.50142">
        <ele>174</ele>
        <time>2025-02-26T08:17:04Z</time>
      </trkpt>
      <trkpt lat="48.04337" lon="-3.50141">
        <ele>174</ele>
        <time>2025-02-26T08:17:05Z</time>
      </trkpt>
      <trkpt lat="48.04338" lon="-3.50141">
        <ele>174</ele>
        <time>2025-02-26T08:17:06Z</time>
      </trkpt>
      <trkpt lat="48.04339" lon="-3.50141">
        <ele>174</ele>
        <time>2025-02-26T08:17:07Z</time>
      </trkpt>
      <trkpt lat="48.04339" lon="-3.5014">
        <ele>174</ele>
        <time>2025-02-26T08:17:08Z</time>
      </trkpt>
      <trkpt lat="48.0434" lon="-3.50139">
        <ele>174</ele>
        <time>2025-02-26T08:17:09Z</time>
      </trkpt>
      <trkpt lat="48.04341" lon="-3.50138">
        <ele>174</ele>
        <time>2025-02-26T08:17:10Z</time>
      </trkpt>
      <trkpt lat="48.04342" lon="-3.50138">
        <ele>174</ele>
        <time>2025-02-26T08:17:11Z</time>
      </trkpt>
      <trkpt lat="48.04343" lon="-3.50137">
        <ele>174.1</ele>
        <time>2025-02-26T08:17:12Z</time>
      </trkpt>
      <trkpt lat="48.04343" lon="-3.50136">
        <ele>174.1</ele>
        <time>2025-02-26T08:17:13Z</time>
      </trkpt>
      <trkpt lat="48.04344" lon="-3.50134">
        <ele>174.2</ele>
        <time>2025-02-26T08:17:14Z</time>
      </trkpt>
      <trkpt lat="48.04345" lon="-3.50133">
        <ele>174.2</ele>
        <time>2025-02-26T08:17:15Z</time>
      </trkpt>
      <trkpt lat="48.04345" lon="-3.50132">
        <ele>174.3</ele>
        <time>2025-02-26T08:17:16Z</time>
      </trkpt>
      <trkpt lat="48.04346" lon="-3.5013">
        <ele>174.3</ele>
        <time>2025-02-26T08:17:17Z</time>
      </trkpt>
      <trkpt lat="48.04346" lon="-3.50128">
        <ele>174.4</ele>
        <time>2025-02-26T08:17:18Z</time>
      </trkpt>
      <trkpt lat="48.04347" lon="-3.50127">
        <ele>174.4</ele>
        <time>2025-02-26T08:17:19Z</time>
      </trkpt>
      <trkpt lat="48.04348" lon="-3.50125">
        <ele>174.5</ele>
        <time>2025-02-26T08:17:20Z</time>
      </trkpt>
      <trkpt lat="48.04348" lon="-3.50123">
        <ele>174.6</ele>
        <time>2025-02-26T08:17:21Z</time>
      </trkpt>
      <trkpt lat="48.04348" lon="-3.50122">
        <ele>174.6</ele>
        <time>2025-02-26T08:17:22Z</time>
      </trkpt>
      <trkpt lat="48.0435" lon="-3.5012">
        <ele>174.7</ele>
        <time>2025-02-26T08:17:23Z</time>
      </trkpt>
      <trkpt lat="48.04351" lon="-3.50119">
        <ele>174.7</ele>
        <time>2025-02-26T08:17:24Z</time>
      </trkpt>
      <trkpt lat="48.04352" lon="-3.50118">
        <ele>174.8</ele>
        <time>2025-02-26T08:17:25Z</time>
      </trkpt>
      <trkpt lat="48.04352" lon="-3.50116">
        <ele>174.8</ele>
        <time>2025-02-26T08:17:26Z</time>
      </trkpt>
      <trkpt lat="48.04353" lon="-3.50115">
        <ele>174.9</ele>
        <time>2025-02-26T08:17:27Z</time>
      </trkpt>
      <trkpt lat="48.04354" lon="-3.50113">
        <ele>174.9</ele>
        <time>2025-02-26T08:17:28Z</time>
      </trkpt>
      <trkpt lat="48.04355" lon="-3.50112">
        <ele>175</ele>
        <time>2025-02-26T08:17:29Z</time>
      </trkpt>
      <trkpt lat="48.04356" lon="-3.5011">
        <ele>175.1</ele>
        <time>2025-02-26T08:17:30Z</time>
      </trkpt>
      <trkpt lat="48.04356" lon="-3.50108">
        <ele>175.1</ele>
        <time>2025-02-26T08:17:31Z</time>
      </trkpt>
      <trkpt lat="48.04357" lon="-3.50106">
        <ele>175.2</ele>
        <time>2025-02-26T08:17:32Z</time>
      </trkpt>
      <trkpt lat="48.04358" lon="-3.50105">
        <ele>175.2</ele>
        <time>2025-02-26T08:17:33Z</time>
      </trkpt>
      <trkpt lat="48.04358" lon="-3.50103">
        <ele>175.3</ele>
        <time>2025-02-26T08:17:34Z</time>
      </trkpt>
      <trkpt lat="48.04358" lon="-3.501">
        <ele>175.4</ele>
        <time>2025-02-26T08:17:35Z</time>
      </trkpt>
      <trkpt lat="48.04359" lon="-3.50098">
        <ele>175.5</ele>
        <time>2025-02-26T08:17:36Z</time>
      </trkpt>
      <trkpt lat="48.04359" lon="-3.50095">
        <ele>175.6</ele>
        <time>2025-02-26T08:17:37Z</time>
      </trkpt>
      <trkpt lat="48.04359" lon="-3.50093">
        <ele>175.6</ele>
        <time>2025-02-26T08:17:38Z</time>
      </trkpt>
      <trkpt lat="48.04359" lon="-3.50091">
        <ele>175.7</ele>
        <time>2025-02-26T08:17:39Z</time>
      </trkpt>
      <trkpt lat="48.0436" lon="-3.5009">
        <ele>175.8</ele>
        <time>2025-02-26T08:17:40Z</time>
      </trkpt>
      <trkpt lat="48.04361" lon="-3.50088">
        <ele>175.8</ele>
        <time>2025-02-26T08:17:41Z</time>
      </trkpt>
      <trkpt lat="48.04362" lon="-3.50088">
        <ele>175.8</ele>
        <time>2025-02-26T08:17:42Z</time>
      </trkpt>
      <trkpt lat="48.04364" lon="-3.50088">
        <ele>175.7</ele>
        <time>2025-02-26T08:17:43Z</time>
      </trkpt>
      <trkpt lat="48.04366" lon="-3.50089">
        <ele>175.7</ele>
        <time>2025-02-26T08:17:44Z</time>
      </trkpt>
      <trkpt lat="48.04367" lon="-3.50091">
        <ele>175.6</ele>
        <time>2025-02-26T08:17:45Z</time>
      </trkpt>
      <trkpt lat="48.04368" lon="-3.50093">
        <ele>175.5</ele>
        <time>2025-02-26T08:17:46Z</time>
      </trkpt>
      <trkpt lat="48.0437" lon="-3.50095">
        <ele>175.4</ele>
        <time>2025-02-26T08:17:47Z</time>
      </trkpt>
      <trkpt lat="48.04371" lon="-3.50096">
        <ele>175.3</ele>
        <time>2025-02-26T08:17:48Z</time>
      </trkpt>
      <trkpt lat="48.04373" lon="-3.50098">
        <ele>175.3</ele>
        <time>2025-02-26T08:17:49Z</time>
      </trkpt>
      <trkpt lat="48.04373" lon="-3.501">
        <ele>175.2</ele>
        <time>2025-02-26T08:17:50Z</time>
      </trkpt>
      <trkpt lat="48.04374" lon="-3.50101">
        <ele>175.2</ele>
        <time>2025-02-26T08:17:51Z</time>
      </trkpt>
      <trkpt lat="48.04375" lon="-3.50103">
        <ele>175.2</ele>
        <time>2025-02-26T08:17:52Z</time>
      </trkpt>
      <trkpt lat="48.04376" lon="-3.50104">
        <ele>175.1</ele>
        <time>2025-02-26T08:17:53Z</time>
      </trkpt>
      <trkpt lat="48.04377" lon="-3.50105">
        <ele>175.1</ele>
        <time>2025-02-26T08:17:54Z</time>
      </trkpt>
      <trkpt lat="48.04377" lon="-3.50106">
        <ele>175.1</ele>
        <time>2025-02-26T08:17:55Z</time>
      </trkpt>
      <trkpt lat="48.04378" lon="-3.50107">
        <ele>175.1</ele>
        <time>2025-02-26T08:17:56Z</time>
      </trkpt>
      <trkpt lat="48.04379" lon="-3.50109">
        <ele>175</ele>
        <time>2025-02-26T08:17:57Z</time>
      </trkpt>
      <trkpt lat="48.04379" lon="-3.5011">
        <ele>175</ele>
        <time>2025-02-26T08:17:58Z</time>
      </trkpt>
      <trkpt lat="48.0438" lon="-3.50111">
        <ele>175</ele>
        <time>2025-02-26T08:17:59Z</time>
      </trkpt>
      <trkpt lat="48.04381" lon="-3.50112">
        <ele>175</ele>
        <time>2025-02-26T08:18:00Z</time>
      </trkpt>
      <trkpt lat="48.04382" lon="-3.50113">
        <ele>174.9</ele>
        <time>2025-02-26T08:18:01Z</time>
      </trkpt>
      <trkpt lat="48.04383" lon="-3.50115">
        <ele>174.9</ele>
        <time>2025-02-26T08:18:02Z</time>
      </trkpt>
      <trkpt lat="48.04384" lon="-3.50116">
        <ele>174.8</ele>
        <time>2025-02-26T08:18:03Z</time>
      </trkpt>
      <trkpt lat="48.04385" lon="-3.50117">
        <ele>174.8</ele>
        <time>2025-02-26T08:18:04Z</time>
      </trkpt>
      <trkpt lat="48.04386" lon="-3.50118">
        <ele>174.7</ele>
        <time>2025-02-26T08:18:05Z</time>
      </trkpt>
      <trkpt lat="48.04387" lon="-3.50119">
        <ele>174.7</ele>
        <time>2025-02-26T08:18:06Z</time>
      </trkpt>
      <trkpt lat="48.04388" lon="-3.5012">
        <ele>174.7</ele>
        <time>2025-02-26T08:18:07Z</time>
      </trkpt>
      <trkpt lat="48.04389" lon="-3.5012">
        <ele>174.7</ele>
        <time>2025-02-26T08:18:08Z</time>
      </trkpt>
      <trkpt lat="48.0439" lon="-3.50121">
        <ele>174.6</ele>
        <time>2025-02-26T08:18:09Z</time>
      </trkpt>
      <trkpt lat="48.04391" lon="-3.50122">
        <ele>174.6</ele>
        <time>2025-02-26T08:18:10Z</time>
      </trkpt>
      <trkpt lat="48.04392" lon="-3.50123">
        <ele>174.5</ele>
        <time>2025-02-26T08:18:11Z</time>
      </trkpt>
      <trkpt lat="48.04393" lon="-3.50125">
        <ele>174.4</ele>
        <time>2025-02-26T08:18:12Z</time>
      </trkpt>
      <trkpt lat="48.04394" lon="-3.50126">
        <ele>174.4</ele>
        <time>2025-02-26T08:18:13Z</time>
      </trkpt>
      <trkpt lat="48.04395" lon="-3.50127">
        <ele>174.3</ele>
        <time>2025-02-26T08:18:14Z</time>
      </trkpt>
      <trkpt lat="48.04396" lon="-3.50127">
        <ele>174.3</ele>
        <time>2025-02-26T08:18:15Z</time>
      </trkpt>
      <trkpt lat="48.04397" lon="-3.50128">
        <ele>174.3</ele>
        <time>2025-02-26T08:18:16Z</time>
      </trkpt>
      <trkpt lat="48.04398" lon="-3.5013">
        <ele>174.2</ele>
        <time>2025-02-26T08:18:17Z</time>
      </trkpt>
      <trkpt lat="48.04399" lon="-3.50131">
        <ele>174.2</ele>
        <time>2025-02-26T08:18:18Z</time>
      </trkpt>
      <trkpt lat="48.044" lon="-3.50132">
        <ele>174.1</ele>
        <time>2025-02-26T08:18:19Z</time>
      </trkpt>
      <trkpt lat="48.04401" lon="-3.50134">
        <ele>174.1</ele>
        <time>2025-02-26T08:18:20Z</time>
      </trkpt>
      <trkpt lat="48.04402" lon="-3.50135">
        <ele>174.1</ele>
        <time>2025-02-26T08:18:21Z</time>
      </trkpt>
      <trkpt lat="48.04403" lon="-3.50136">
        <ele>174</ele>
        <time>2025-02-26T08:18:22Z</time>
      </trkpt>
      <trkpt lat="48.04404" lon="-3.50137">
        <ele>174</ele>
        <time>2025-02-26T08:18:23Z</time>
      </trkpt>
      <trkpt lat="48.04406" lon="-3.50138">
        <ele>174</ele>
        <time>2025-02-26T08:18:24Z</time>
      </trkpt>
      <trkpt lat="48.04407" lon="-3.50139">
        <ele>174</ele>
        <time>2025-02-26T08:18:25Z</time>
      </trkpt>
      <trkpt lat="48.04408" lon="-3.5014">
        <ele>174</ele>
        <time>2025-02-26T08:18:26Z</time>
      </trkpt>
      <trkpt lat="48.04409" lon="-3.50141">
        <ele>173.9</ele>
        <time>2025-02-26T08:18:27Z</time>
      </trkpt>
      <trkpt lat="48.04409" lon="-3.50142">
        <ele>173.9</ele>
        <time>2025-02-26T08:18:28Z</time>
      </trkpt>
      <trkpt lat="48.0441" lon="-3.50144">
        <ele>173.8</ele>
        <time>2025-02-26T08:18:29Z</time>
      </trkpt>
      <trkpt lat="48.04411" lon="-3.50144">
        <ele>173.8</ele>
        <time>2025-02-26T08:18:30Z</time>
      </trkpt>
      <trkpt lat="48.04412" lon="-3.50145">
        <ele>173.8</ele>
        <time>2025-02-26T08:18:31Z</time>
      </trkpt>
      <trkpt lat="48.04413" lon="-3.50146">
        <ele>173.7</ele>
        <time>2025-02-26T08:18:32Z</time>
      </trkpt>
      <trkpt lat="48.04414" lon="-3.50147">
        <ele>173.7</ele>
        <time>2025-02-26T08:18:33Z</time>
      </trkpt>
      <trkpt lat="48.04415" lon="-3.50148">
        <ele>173.7</ele>
        <time>2025-02-26T08:18:34Z</time>
      </trkpt>
      <trkpt lat="48.04416" lon="-3.50149">
        <ele>173.6</ele>
        <time>2025-02-26T08:18:35Z</time>
      </trkpt>
      <trkpt lat="48.04418" lon="-3.5015">
        <ele>173.6</ele>
        <time>2025-02-26T08:18:36Z</time>
      </trkpt>
      <trkpt lat="48.04419" lon="-3.5015">
        <ele>173.6</ele>
        <time>2025-02-26T08:18:37Z</time>
      </trkpt>
      <trkpt lat="48.0442" lon="-3.50151">
        <ele>173.6</ele>
        <time>2025-02-26T08:18:38Z</time>
      </trkpt>
      <trkpt lat="48.04421" lon="-3.50152">
        <ele>173.5</ele>
        <time>2025-02-26T08:18:39Z</time>
      </trkpt>
      <trkpt lat="48.04422" lon="-3.50153">
        <ele>173.5</ele>
        <time>2025-02-26T08:18:40Z</time>
      </trkpt>
      <trkpt lat="48.04422" lon="-3.50154">
        <ele>173.5</ele>
        <time>2025-02-26T08:18:41Z</time>
      </trkpt>
      <trkpt lat="48.04423" lon="-3.50155">
        <ele>173.4</ele>
        <time>2025-02-26T08:18:42Z</time>
      </trkpt>
      <trkpt lat="48.04424" lon="-3.50157">
        <ele>173.4</ele>
        <time>2025-02-26T08:18:43Z</time>
      </trkpt>
      <trkpt lat="48.04425" lon="-3.50158">
        <ele>173.3</ele>
        <time>2025-02-26T08:18:44Z</time>
      </trkpt>
      <trkpt lat="48.04426" lon="-3.50159">
        <ele>173.3</ele>
        <time>2025-02-26T08:18:45Z</time>
      </trkpt>
      <trkpt lat="48.04426" lon="-3.5016">
        <ele>173.2</ele>
        <time>2025-02-26T08:18:46Z</time>
      </trkpt>
      <trkpt lat="48.04427" lon="-3.50161">
        <ele>173.2</ele>
        <time>2025-02-26T08:18:47Z</time>
      </trkpt>
      <trkpt lat="48.04428" lon="-3.50162">
        <ele>173.2</ele>
        <time>2025-02-26T08:18:48Z</time>
      </trkpt>
      <trkpt lat="48.04429" lon="-3.50163">
        <ele>173.1</ele>
        <time>2025-02-26T08:18:49Z</time>
      </trkpt>
      <trkpt lat="48.0443" lon="-3.50164">
        <ele>173.1</ele>
        <time>2025-02-26T08:18:50Z</time>
      </trkpt>
      <trkpt lat="48.04431" lon="-3.50165">
        <ele>173.1</ele>
        <time>2025-02-26T08:18:51Z</time>
      </trkpt>
      <trkpt lat="48.04432" lon="-3.50165">
        <ele>173</ele>
        <time>2025-02-26T08:18:52Z</time>
      </trkpt>
      <trkpt lat="48.04432" lon="-3.50167">
        <ele>173</ele>
        <time>2025-02-26T08:18:53Z</time>
      </trkpt>
      <trkpt lat="48.04433" lon="-3.50168">
        <ele>173</ele>
        <time>2025-02-26T08:18:54Z</time>
      </trkpt>
      <trkpt lat="48.04434" lon="-3.50169">
        <ele>173</ele>
        <time>2025-02-26T08:18:55Z</time>
      </trkpt>
      <trkpt lat="48.04435" lon="-3.50169">
        <ele>173</ele>
        <time>2025-02-26T08:18:56Z</time>
      </trkpt>
      <trkpt lat="48.04436" lon="-3.5017">
        <ele>173</ele>
        <time>2025-02-26T08:18:57Z</time>
      </trkpt>
      <trkpt lat="48.04437" lon="-3.50172">
        <ele>173</ele>
        <time>2025-02-26T08:18:58Z</time>
      </trkpt>
      <trkpt lat="48.04438" lon="-3.50173">
        <ele>173</ele>
        <time>2025-02-26T08:18:59Z</time>
      </trkpt>
      <trkpt lat="48.04439" lon="-3.50174">
        <ele>173</ele>
        <time>2025-02-26T08:19:00Z</time>
      </trkpt>
      <trkpt lat="48.0444" lon="-3.50175">
        <ele>173</ele>
        <time>2025-02-26T08:19:01Z</time>
      </trkpt>
      <trkpt lat="48.04441" lon="-3.50176">
        <ele>173</ele>
        <time>2025-02-26T08:19:02Z</time>
      </trkpt>
      <trkpt lat="48.04442" lon="-3.50177">
        <ele>173</ele>
        <time>2025-02-26T08:19:03Z</time>
      </trkpt>
      <trkpt lat="48.04443" lon="-3.50178">
        <ele>173</ele>
        <time>2025-02-26T08:19:04Z</time>
      </trkpt>
      <trkpt lat="48.04444" lon="-3.50179">
        <ele>173</ele>
        <time>2025-02-26T08:19:05Z</time>
      </trkpt>
      <trkpt lat="48.04446" lon="-3.50179">
        <ele>173</ele>
        <time>2025-02-26T08:19:06Z</time>
      </trkpt>
      <trkpt lat="48.04447" lon="-3.50179">
        <ele>173</ele>
        <time>2025-02-26T08:19:07Z</time>
      </trkpt>
      <trkpt lat="48.04448" lon="-3.5018">
        <ele>173</ele>
        <time>2025-02-26T08:19:08Z</time>
      </trkpt>
      <trkpt lat="48.04449" lon="-3.5018">
        <ele>173</ele>
        <time>2025-02-26T08:19:09Z</time>
      </trkpt>
      <trkpt lat="48.0445" lon="-3.50181">
        <ele>173</ele>
        <time>2025-02-26T08:19:10Z</time>
      </trkpt>
      <trkpt lat="48.04451" lon="-3.50182">
        <ele>173</ele>
        <time>2025-02-26T08:19:11Z</time>
      </trkpt>
      <trkpt lat="48.04452" lon="-3.50183">
        <ele>173</ele>
        <time>2025-02-26T08:19:12Z</time>
      </trkpt>
      <trkpt lat="48.04453" lon="-3.50185">
        <ele>173</ele>
        <time>2025-02-26T08:19:13Z</time>
      </trkpt>
      <trkpt lat="48.04454" lon="-3.50186">
        <ele>173</ele>
        <time>2025-02-26T08:19:14Z</time>
      </trkpt>
      <trkpt lat="48.04455" lon="-3.50187">
        <ele>173</ele>
        <time>2025-02-26T08:19:15Z</time>
      </trkpt>
      <trkpt lat="48.04456" lon="-3.50189">
        <ele>173</ele>
        <time>2025-02-26T08:19:16Z</time>
      </trkpt>
      <trkpt lat="48.04458" lon="-3.50189">
        <ele>173</ele>
        <time>2025-02-26T08:19:17Z</time>
      </trkpt>
      <trkpt lat="48.04459" lon="-3.5019">
        <ele>173</ele>
        <time>2025-02-26T08:19:18Z</time>
      </trkpt>
      <trkpt lat="48.0446" lon="-3.50192">
        <ele>173</ele>
        <time>2025-02-26T08:19:19Z</time>
      </trkpt>
      <trkpt lat="48.04461" lon="-3.50193">
        <ele>173</ele>
        <time>2025-02-26T08:19:20Z</time>
      </trkpt>
      <trkpt lat="48.04462" lon="-3.50195">
        <ele>173</ele>
        <time>2025-02-26T08:19:21Z</time>
      </trkpt>
      <trkpt lat="48.04463" lon="-3.50196">
        <ele>172.9</ele>
        <time>2025-02-26T08:19:22Z</time>
      </trkpt>
      <trkpt lat="48.04464" lon="-3.50198">
        <ele>172.9</ele>
        <time>2025-02-26T08:19:23Z</time>
      </trkpt>
      <trkpt lat="48.04466" lon="-3.50198">
        <ele>172.9</ele>
        <time>2025-02-26T08:19:24Z</time>
      </trkpt>
      <trkpt lat="48.04467" lon="-3.50199">
        <ele>172.8</ele>
        <time>2025-02-26T08:19:25Z</time>
      </trkpt>
      <trkpt lat="48.04468" lon="-3.502">
        <ele>172.8</ele>
        <time>2025-02-26T08:19:26Z</time>
      </trkpt>
      <trkpt lat="48.04469" lon="-3.502">
        <ele>172.8</ele>
        <time>2025-02-26T08:19:27Z</time>
      </trkpt>
      <trkpt lat="48.0447" lon="-3.50202">
        <ele>172.7</ele>
        <time>2025-02-26T08:19:28Z</time>
      </trkpt>
      <trkpt lat="48.04471" lon="-3.50203">
        <ele>172.7</ele>
        <time>2025-02-26T08:19:29Z</time>
      </trkpt>
      <trkpt lat="48.04472" lon="-3.50204">
        <ele>172.7</ele>
        <time>2025-02-26T08:19:30Z</time>
      </trkpt>
      <trkpt lat="48.04473" lon="-3.50205">
        <ele>172.6</ele>
        <time>2025-02-26T08:19:31Z</time>
      </trkpt>
      <trkpt lat="48.04474" lon="-3.50205">
        <ele>172.6</ele>
        <time>2025-02-26T08:19:32Z</time>
      </trkpt>
      <trkpt lat="48.04475" lon="-3.50206">
        <ele>172.6</ele>
        <time>2025-02-26T08:19:33Z</time>
      </trkpt>
      <trkpt lat="48.04475" lon="-3.50207">
        <ele>172.5</ele>
        <time>2025-02-26T08:19:34Z</time>
      </trkpt>
      <trkpt lat="48.04476" lon="-3.50208">
        <ele>172.5</ele>
        <time>2025-02-26T08:19:35Z</time>
      </trkpt>
      <trkpt lat="48.04477" lon="-3.50209">
        <ele>172.5</ele>
        <time>2025-02-26T08:19:36Z</time>
      </trkpt>
      <trkpt lat="48.04478" lon="-3.5021">
        <ele>172.4</ele>
        <time>2025-02-26T08:19:37Z</time>
      </trkpt>
      <trkpt lat="48.04478" lon="-3.50211">
        <ele>172.4</ele>
        <time>2025-02-26T08:19:38Z</time>
      </trkpt>
      <trkpt lat="48.04479" lon="-3.50213">
        <ele>172.4</ele>
        <time>2025-02-26T08:19:39Z</time>
      </trkpt>
      <trkpt lat="48.0448" lon="-3.50214">
        <ele>172.3</ele>
        <time>2025-02-26T08:19:40Z</time>
      </trkpt>
      <trkpt lat="48.0448" lon="-3.50215">
        <ele>172.3</ele>
        <time>2025-02-26T08:19:41Z</time>
      </trkpt>
      <trkpt lat="48.04481" lon="-3.50216">
        <ele>172.2</ele>
        <time>2025-02-26T08:19:42Z</time>
      </trkpt>
      <trkpt lat="48.04482" lon="-3.50217">
        <ele>172.2</ele>
        <time>2025-02-26T08:19:43Z</time>
      </trkpt>
      <trkpt lat="48.04483" lon="-3.50218">
        <ele>172.2</ele>
        <time>2025-02-26T08:19:44Z</time>
      </trkpt>
      <trkpt lat="48.04484" lon="-3.50219">
        <ele>172.1</ele>
        <time>2025-02-26T08:19:45Z</time>
      </trkpt>
      <trkpt lat="48.04485" lon="-3.5022">
        <ele>172.1</ele>
        <time>2025-02-26T08:19:46Z</time>
      </trkpt>
      <trkpt lat="48.04485" lon="-3.50222">
        <ele>172</ele>
        <time>2025-02-26T08:19:47Z</time>
      </trkpt>
      <trkpt lat="48.04486" lon="-3.50222">
        <ele>172</ele>
        <time>2025-02-26T08:19:48Z</time>
      </trkpt>
      <trkpt lat="48.04487" lon="-3.50223">
        <ele>172</ele>
        <time>2025-02-26T08:19:49Z</time>
      </trkpt>
      <trkpt lat="48.04488" lon="-3.50224">
        <ele>172</ele>
        <time>2025-02-26T08:19:50Z</time>
      </trkpt>
      <trkpt lat="48.0449" lon="-3.50225">
        <ele>172</ele>
        <time>2025-02-26T08:19:51Z</time>
      </trkpt>
      <trkpt lat="48.04491" lon="-3.50226">
        <ele>172</ele>
        <time>2025-02-26T08:19:52Z</time>
      </trkpt>
      <trkpt lat="48.04492" lon="-3.50226">
        <ele>172</ele>
        <time>2025-02-26T08:19:53Z</time>
      </trkpt>
      <trkpt lat="48.04493" lon="-3.50227">
        <ele>172</ele>
        <time>2025-02-26T08:19:54Z</time>
      </trkpt>
      <trkpt lat="48.04494" lon="-3.50228">
        <ele>172</ele>
        <time>2025-02-26T08:19:55Z</time>
      </trkpt>
      <trkpt lat="48.04495" lon="-3.50229">
        <ele>172</ele>
        <time>2025-02-26T08:19:56Z</time>
      </trkpt>
      <trkpt lat="48.04496" lon="-3.5023">
        <ele>172</ele>
        <time>2025-02-26T08:19:57Z</time>
      </trkpt>
      <trkpt lat="48.04498" lon="-3.50231">
        <ele>172</ele>
        <time>2025-02-26T08:19:58Z</time>
      </trkpt>
      <trkpt lat="48.04498" lon="-3.50232">
        <ele>172</ele>
        <time>2025-02-26T08:19:59Z</time>
      </trkpt>
      <trkpt lat="48.045" lon="-3.50232">
        <ele>172</ele>
        <time>2025-02-26T08:20:00Z</time>
      </trkpt>
      <trkpt lat="48.045" lon="-3.50234">
        <ele>172</ele>
        <time>2025-02-26T08:20:01Z</time>
      </trkpt>
      <trkpt lat="48.04502" lon="-3.50235">
        <ele>171.9</ele>
        <time>2025-02-26T08:20:02Z</time>
      </trkpt>
      <trkpt lat="48.04503" lon="-3.50236">
        <ele>171.9</ele>
        <time>2025-02-26T08:20:03Z</time>
      </trkpt>
      <trkpt lat="48.04504" lon="-3.50236">
        <ele>171.8</ele>
        <time>2025-02-26T08:20:04Z</time>
      </trkpt>
      <trkpt lat="48.04504" lon="-3.50238">
        <ele>171.8</ele>
        <time>2025-02-26T08:20:05Z</time>
      </trkpt>
      <trkpt lat="48.04505" lon="-3.50238">
        <ele>171.7</ele>
        <time>2025-02-26T08:20:06Z</time>
      </trkpt>
      <trkpt lat="48.04506" lon="-3.50239">
        <ele>171.6</ele>
        <time>2025-02-26T08:20:07Z</time>
      </trkpt>
      <trkpt lat="48.04507" lon="-3.5024">
        <ele>171.6</ele>
        <time>2025-02-26T08:20:08Z</time>
      </trkpt>
      <trkpt lat="48.04508" lon="-3.50241">
        <ele>171.5</ele>
        <time>2025-02-26T08:20:09Z</time>
      </trkpt>
      <trkpt lat="48.04509" lon="-3.50241">
        <ele>171.4</ele>
        <time>2025-02-26T08:20:10Z</time>
      </trkpt>
      <trkpt lat="48.0451" lon="-3.50243">
        <ele>171.4</ele>
        <time>2025-02-26T08:20:11Z</time>
      </trkpt>
      <trkpt lat="48.04511" lon="-3.50243">
        <ele>171.3</ele>
        <time>2025-02-26T08:20:12Z</time>
      </trkpt>
      <trkpt lat="48.04512" lon="-3.50245">
        <ele>171.2</ele>
        <time>2025-02-26T08:20:13Z</time>
      </trkpt>
      <trkpt lat="48.04513" lon="-3.50246">
        <ele>171.1</ele>
        <time>2025-02-26T08:20:14Z</time>
      </trkpt>
      <trkpt lat="48.04514" lon="-3.50247">
        <ele>171</ele>
        <time>2025-02-26T08:20:15Z</time>
      </trkpt>
      <trkpt lat="48.04515" lon="-3.50249">
        <ele>170.9</ele>
        <time>2025-02-26T08:20:16Z</time>
      </trkpt>
      <trkpt lat="48.04516" lon="-3.5025">
        <ele>170.9</ele>
        <time>2025-02-26T08:20:17Z</time>
      </trkpt>
      <trkpt lat="48.04517" lon="-3.50252">
        <ele>170.8</ele>
        <time>2025-02-26T08:20:18Z</time>
      </trkpt>
      <trkpt lat="48.04518" lon="-3.50252">
        <ele>170.7</ele>
        <time>2025-02-26T08:20:19Z</time>
      </trkpt>
      <trkpt lat="48.04519" lon="-3.50253">
        <ele>170.6</ele>
        <time>2025-02-26T08:20:20Z</time>
      </trkpt>
      <trkpt lat="48.0452" lon="-3.50254">
        <ele>170.5</ele>
        <time>2025-02-26T08:20:21Z</time>
      </trkpt>
      <trkpt lat="48.04521" lon="-3.50255">
        <ele>170.4</ele>
        <time>2025-02-26T08:20:22Z</time>
      </trkpt>
      <trkpt lat="48.04522" lon="-3.50257">
        <ele>170.4</ele>
        <time>2025-02-26T08:20:23Z</time>
      </trkpt>
      <trkpt lat="48.04523" lon="-3.50257">
        <ele>170.3</ele>
        <time>2025-02-26T08:20:24Z</time>
      </trkpt>
      <trkpt lat="48.04524" lon="-3.50259">
        <ele>170.2</ele>
        <time>2025-02-26T08:20:25Z</time>
      </trkpt>
      <trkpt lat="48.04525" lon="-3.50259">
        <ele>170.2</ele>
        <time>2025-02-26T08:20:26Z</time>
      </trkpt>
      <trkpt lat="48.04525" lon="-3.50261">
        <ele>170.1</ele>
        <time>2025-02-26T08:20:27Z</time>
      </trkpt>
      <trkpt lat="48.04526" lon="-3.50262">
        <ele>170.1</ele>
        <time>2025-02-26T08:20:28Z</time>
      </trkpt>
      <trkpt lat="48.04527" lon="-3.50263">
        <ele>170</ele>
        <time>2025-02-26T08:20:29Z</time>
      </trkpt>
      <trkpt lat="48.04528" lon="-3.50263">
        <ele>170</ele>
        <time>2025-02-26T08:20:30Z</time>
      </trkpt>
      <trkpt lat="48.04529" lon="-3.50264">
        <ele>169.9</ele>
        <time>2025-02-26T08:20:31Z</time>
      </trkpt>
      <trkpt lat="48.0453" lon="-3.50266">
        <ele>169.9</ele>
        <time>2025-02-26T08:20:32Z</time>
      </trkpt>
      <trkpt lat="48.04532" lon="-3.50266">
        <ele>169.8</ele>
        <time>2025-02-26T08:20:33Z</time>
      </trkpt>
      <trkpt lat="48.04533" lon="-3.50267">
        <ele>169.7</ele>
        <time>2025-02-26T08:20:34Z</time>
      </trkpt>
      <trkpt lat="48.04534" lon="-3.50268">
        <ele>169.7</ele>
        <time>2025-02-26T08:20:35Z</time>
      </trkpt>
      <trkpt lat="48.04535" lon="-3.50268">
        <ele>169.6</ele>
        <time>2025-02-26T08:20:36Z</time>
      </trkpt>
      <trkpt lat="48.04536" lon="-3.50269">
        <ele>169.5</ele>
        <time>2025-02-26T08:20:37Z</time>
      </trkpt>
      <trkpt lat="48.04537" lon="-3.50269">
        <ele>169.5</ele>
        <time>2025-02-26T08:20:38Z</time>
      </trkpt>
      <trkpt lat="48.04538" lon="-3.50271">
        <ele>169.4</ele>
        <time>2025-02-26T08:20:39Z</time>
      </trkpt>
      <trkpt lat="48.04539" lon="-3.50272">
        <ele>169.3</ele>
        <time>2025-02-26T08:20:40Z</time>
      </trkpt>
      <trkpt lat="48.0454" lon="-3.50273">
        <ele>169.2</ele>
        <time>2025-02-26T08:20:41Z</time>
      </trkpt>
      <trkpt lat="48.04541" lon="-3.50274">
        <ele>169.1</ele>
        <time>2025-02-26T08:20:42Z</time>
      </trkpt>
      <trkpt lat="48.04542" lon="-3.50275">
        <ele>169</ele>
        <time>2025-02-26T08:20:43Z</time>
      </trkpt>
      <trkpt lat="48.04543" lon="-3.50276">
        <ele>169</ele>
        <time>2025-02-26T08:20:44Z</time>
      </trkpt>
      <trkpt lat="48.04544" lon="-3.50277">
        <ele>168.9</ele>
        <time>2025-02-26T08:20:45Z</time>
      </trkpt>
      <trkpt lat="48.04545" lon="-3.50277">
        <ele>168.8</ele>
        <time>2025-02-26T08:20:46Z</time>
      </trkpt>
      <trkpt lat="48.04546" lon="-3.50277">
        <ele>168.7</ele>
        <time>2025-02-26T08:20:47Z</time>
      </trkpt>
      <trkpt lat="48.04547" lon="-3.50278">
        <ele>168.6</ele>
        <time>2025-02-26T08:20:48Z</time>
      </trkpt>
      <trkpt lat="48.04548" lon="-3.50278">
        <ele>168.5</ele>
        <time>2025-02-26T08:20:49Z</time>
      </trkpt>
      <trkpt lat="48.04549" lon="-3.50279">
        <ele>168.4</ele>
        <time>2025-02-26T08:20:50Z</time>
      </trkpt>
      <trkpt lat="48.0455" lon="-3.50279">
        <ele>168.4</ele>
        <time>2025-02-26T08:20:51Z</time>
      </trkpt>
      <trkpt lat="48.04551" lon="-3.50281">
        <ele>168.3</ele>
        <time>2025-02-26T08:20:52Z</time>
      </trkpt>
      <trkpt lat="48.04552" lon="-3.50282">
        <ele>168.2</ele>
        <time>2025-02-26T08:20:53Z</time>
      </trkpt>
      <trkpt lat="48.04553" lon="-3.50283">
        <ele>168.2</ele>
        <time>2025-02-26T08:20:54Z</time>
      </trkpt>
      <trkpt lat="48.04555" lon="-3.50283">
        <ele>168.1</ele>
        <time>2025-02-26T08:20:55Z</time>
      </trkpt>
      <trkpt lat="48.04556" lon="-3.50285">
        <ele>168</ele>
        <time>2025-02-26T08:20:56Z</time>
      </trkpt>
      <trkpt lat="48.04557" lon="-3.50287">
        <ele>168</ele>
        <time>2025-02-26T08:20:57Z</time>
      </trkpt>
      <trkpt lat="48.04558" lon="-3.50287">
        <ele>168</ele>
        <time>2025-02-26T08:20:58Z</time>
      </trkpt>
      <trkpt lat="48.04559" lon="-3.50287">
        <ele>168</ele>
        <time>2025-02-26T08:20:59Z</time>
      </trkpt>
      <trkpt lat="48.0456" lon="-3.50289">
        <ele>167.9</ele>
        <time>2025-02-26T08:21:00Z</time>
      </trkpt>
      <trkpt lat="48.04561" lon="-3.50289">
        <ele>167.9</ele>
        <time>2025-02-26T08:21:01Z</time>
      </trkpt>
      <trkpt lat="48.04562" lon="-3.50289">
        <ele>167.9</ele>
        <time>2025-02-26T08:21:02Z</time>
      </trkpt>
      <trkpt lat="48.04563" lon="-3.50289">
        <ele>167.9</ele>
        <time>2025-02-26T08:21:03Z</time>
      </trkpt>
      <trkpt lat="48.04565" lon="-3.50289">
        <ele>167.9</ele>
        <time>2025-02-26T08:21:04Z</time>
      </trkpt>
      <trkpt lat="48.04566" lon="-3.5029">
        <ele>167.8</ele>
        <time>2025-02-26T08:21:05Z</time>
      </trkpt>
      <trkpt lat="48.04567" lon="-3.50291">
        <ele>167.8</ele>
        <time>2025-02-26T08:21:06Z</time>
      </trkpt>
      <trkpt lat="48.04568" lon="-3.50293">
        <ele>167.8</ele>
        <time>2025-02-26T08:21:07Z</time>
      </trkpt>
      <trkpt lat="48.04569" lon="-3.50294">
        <ele>167.7</ele>
        <time>2025-02-26T08:21:08Z</time>
      </trkpt>
      <trkpt lat="48.0457" lon="-3.50295">
        <ele>167.7</ele>
        <time>2025-02-26T08:21:09Z</time>
      </trkpt>
      <trkpt lat="48.04571" lon="-3.50295">
        <ele>167.6</ele>
        <time>2025-02-26T08:21:10Z</time>
      </trkpt>
      <trkpt lat="48.04572" lon="-3.50296">
        <ele>167.6</ele>
        <time>2025-02-26T08:21:11Z</time>
      </trkpt>
      <trkpt lat="48.04573" lon="-3.50297">
        <ele>167.6</ele>
        <time>2025-02-26T08:21:12Z</time>
      </trkpt>
      <trkpt lat="48.04574" lon="-3.50298">
        <ele>167.5</ele>
        <time>2025-02-26T08:21:13Z</time>
      </trkpt>
      <trkpt lat="48.04576" lon="-3.50298">
        <ele>167.5</ele>
        <time>2025-02-26T08:21:14Z</time>
      </trkpt>
      <trkpt lat="48.04576" lon="-3.50299">
        <ele>167.4</ele>
        <time>2025-02-26T08:21:15Z</time>
      </trkpt>
      <trkpt lat="48.04577" lon="-3.50301">
        <ele>167.4</ele>
        <time>2025-02-26T08:21:16Z</time>
      </trkpt>
      <trkpt lat="48.04579" lon="-3.50301">
        <ele>167.3</ele>
        <time>2025-02-26T08:21:17Z</time>
      </trkpt>
      <trkpt lat="48.0458" lon="-3.50303">
        <ele>167.2</ele>
        <time>2025-02-26T08:21:18Z</time>
      </trkpt>
      <trkpt lat="48.04581" lon="-3.50303">
        <ele>167.2</ele>
        <time>2025-02-26T08:21:19Z</time>
      </trkpt>
      <trkpt lat="48.04581" lon="-3.50305">
        <ele>167.1</ele>
        <time>2025-02-26T08:21:20Z</time>
      </trkpt>
      <trkpt lat="48.04582" lon="-3.50306">
        <ele>167</ele>
        <time>2025-02-26T08:21:21Z</time>
      </trkpt>
      <trkpt lat="48.04583" lon="-3.50307">
        <ele>167</ele>
        <time>2025-02-26T08:21:22Z</time>
      </trkpt>
      <trkpt lat="48.04584" lon="-3.50308">
        <ele>166.9</ele>
        <time>2025-02-26T08:21:23Z</time>
      </trkpt>
      <trkpt lat="48.04585" lon="-3.50309">
        <ele>166.9</ele>
        <time>2025-02-26T08:21:24Z</time>
      </trkpt>
      <trkpt lat="48.04586" lon="-3.50311">
        <ele>166.9</ele>
        <time>2025-02-26T08:21:25Z</time>
      </trkpt>
      <trkpt lat="48.04587" lon="-3.50312">
        <ele>166.9</ele>
        <time>2025-02-26T08:21:26Z</time>
      </trkpt>
      <trkpt lat="48.04587" lon="-3.50314">
        <ele>166.9</ele>
        <time>2025-02-26T08:21:27Z</time>
      </trkpt>
      <trkpt lat="48.04588" lon="-3.50314">
        <ele>166.9</ele>
        <time>2025-02-26T08:21:28Z</time>
      </trkpt>
      <trkpt lat="48.04589" lon="-3.50315">
        <ele>166.9</ele>
        <time>2025-02-26T08:21:29Z</time>
      </trkpt>
      <trkpt lat="48.0459" lon="-3.50316">
        <ele>166.9</ele>
        <time>2025-02-26T08:21:30Z</time>
      </trkpt>
      <trkpt lat="48.04591" lon="-3.50317">
        <ele>166.9</ele>
        <time>2025-02-26T08:21:31Z</time>
      </trkpt>
      <trkpt lat="48.04592" lon="-3.50319">
        <ele>166.8</ele>
        <time>2025-02-26T08:21:32Z</time>
      </trkpt>
      <trkpt lat="48.04593" lon="-3.50319">
        <ele>166.9</ele>
        <time>2025-02-26T08:21:33Z</time>
      </trkpt>
      <trkpt lat="48.04594" lon="-3.50321">
        <ele>166.9</ele>
        <time>2025-02-26T08:21:34Z</time>
      </trkpt>
      <trkpt lat="48.04596" lon="-3.50321">
        <ele>166.9</ele>
        <time>2025-02-26T08:21:35Z</time>
      </trkpt>
      <trkpt lat="48.04597" lon="-3.50321">
        <ele>166.9</ele>
        <time>2025-02-26T08:21:36Z</time>
      </trkpt>
      <trkpt lat="48.04598" lon="-3.50322">
        <ele>166.9</ele>
        <time>2025-02-26T08:21:37Z</time>
      </trkpt>
      <trkpt lat="48.04599" lon="-3.50323">
        <ele>166.9</ele>
        <time>2025-02-26T08:21:38Z</time>
      </trkpt>
      <trkpt lat="48.046" lon="-3.50324">
        <ele>166.9</ele>
        <time>2025-02-26T08:21:39Z</time>
      </trkpt>
      <trkpt lat="48.04601" lon="-3.50325">
        <ele>166.9</ele>
        <time>2025-02-26T08:21:40Z</time>
      </trkpt>
      <trkpt lat="48.04602" lon="-3.50326">
        <ele>166.9</ele>
        <time>2025-02-26T08:21:41Z</time>
      </trkpt>
      <trkpt lat="48.04603" lon="-3.50327">
        <ele>167</ele>
        <time>2025-02-26T08:21:42Z</time>
      </trkpt>
      <trkpt lat="48.04604" lon="-3.50327">
        <ele>167</ele>
        <time>2025-02-26T08:21:43Z</time>
      </trkpt>
      <trkpt lat="48.04605" lon="-3.50328">
        <ele>167</ele>
        <time>2025-02-26T08:21:44Z</time>
      </trkpt>
      <trkpt lat="48.04607" lon="-3.50329">
        <ele>167</ele>
        <time>2025-02-26T08:21:45Z</time>
      </trkpt>
      <trkpt lat="48.04608" lon="-3.50329">
        <ele>167</ele>
        <time>2025-02-26T08:21:46Z</time>
      </trkpt>
      <trkpt lat="48.04609" lon="-3.5033">
        <ele>167.1</ele>
        <time>2025-02-26T08:21:47Z</time>
      </trkpt>
      <trkpt lat="48.0461" lon="-3.5033">
        <ele>167.1</ele>
        <time>2025-02-26T08:21:48Z</time>
      </trkpt>
      <trkpt lat="48.0461" lon="-3.50331">
        <ele>167.1</ele>
        <time>2025-02-26T08:21:49Z</time>
      </trkpt>
      <trkpt lat="48.04611" lon="-3.50332">
        <ele>167</ele>
        <time>2025-02-26T08:21:50Z</time>
      </trkpt>
      <trkpt lat="48.04612" lon="-3.50333">
        <ele>167.1</ele>
        <time>2025-02-26T08:21:51Z</time>
      </trkpt>
      <trkpt lat="48.04613" lon="-3.50333">
        <ele>167.1</ele>
        <time>2025-02-26T08:21:52Z</time>
      </trkpt>
      <trkpt lat="48.04614" lon="-3.50334">
        <ele>167.2</ele>
        <time>2025-02-26T08:21:53Z</time>
      </trkpt>
      <trkpt lat="48.04615" lon="-3.50334">
        <ele>167.3</ele>
        <time>2025-02-26T08:21:54Z</time>
      </trkpt>
      <trkpt lat="48.04616" lon="-3.50335">
        <ele>167.3</ele>
        <time>2025-02-26T08:21:55Z</time>
      </trkpt>
      <trkpt lat="48.04617" lon="-3.50336">
        <ele>167.4</ele>
        <time>2025-02-26T08:21:56Z</time>
      </trkpt>
      <trkpt lat="48.04618" lon="-3.50337">
        <ele>167.4</ele>
        <time>2025-02-26T08:21:57Z</time>
      </trkpt>
      <trkpt lat="48.04619" lon="-3.50338">
        <ele>167.4</ele>
        <time>2025-02-26T08:21:58Z</time>
      </trkpt>
      <trkpt lat="48.0462" lon="-3.50339">
        <ele>167.4</ele>
        <time>2025-02-26T08:21:59Z</time>
      </trkpt>
      <trkpt lat="48.04621" lon="-3.5034">
        <ele>167.5</ele>
        <time>2025-02-26T08:22:00Z</time>
      </trkpt>
      <trkpt lat="48.04621" lon="-3.50341">
        <ele>167.5</ele>
        <time>2025-02-26T08:22:01Z</time>
      </trkpt>
      <trkpt lat="48.04622" lon="-3.50341">
        <ele>167.5</ele>
        <time>2025-02-26T08:22:02Z</time>
      </trkpt>
      <trkpt lat="48.04623" lon="-3.50342">
        <ele>167.6</ele>
        <time>2025-02-26T08:22:03Z</time>
      </trkpt>
      <trkpt lat="48.04624" lon="-3.50344">
        <ele>167.6</ele>
        <time>2025-02-26T08:22:04Z</time>
      </trkpt>
      <trkpt lat="48.04625" lon="-3.50345">
        <ele>167.6</ele>
        <time>2025-02-26T08:22:05Z</time>
      </trkpt>
      <trkpt lat="48.04626" lon="-3.50345">
        <ele>167.6</ele>
        <time>2025-02-26T08:22:06Z</time>
      </trkpt>
      <trkpt lat="48.04627" lon="-3.50346">
        <ele>167.6</ele>
        <time>2025-02-26T08:22:07Z</time>
      </trkpt>
      <trkpt lat="48.04627" lon="-3.50348">
        <ele>167.6</ele>
        <time>2025-02-26T08:22:08Z</time>
      </trkpt>
      <trkpt lat="48.04629" lon="-3.50349">
        <ele>167.7</ele>
        <time>2025-02-26T08:22:09Z</time>
      </trkpt>
      <trkpt lat="48.0463" lon="-3.50349">
        <ele>167.8</ele>
        <time>2025-02-26T08:22:10Z</time>
      </trkpt>
      <trkpt lat="48.04631" lon="-3.5035">
        <ele>167.8</ele>
        <time>2025-02-26T08:22:11Z</time>
      </trkpt>
      <trkpt lat="48.04632" lon="-3.5035">
        <ele>167.9</ele>
        <time>2025-02-26T08:22:12Z</time>
      </trkpt>
      <trkpt lat="48.04633" lon="-3.50351">
        <ele>167.9</ele>
        <time>2025-02-26T08:22:13Z</time>
      </trkpt>
      <trkpt lat="48.04634" lon="-3.50352">
        <ele>168</ele>
        <time>2025-02-26T08:22:14Z</time>
      </trkpt>
      <trkpt lat="48.04635" lon="-3.50353">
        <ele>168</ele>
        <time>2025-02-26T08:22:15Z</time>
      </trkpt>
      <trkpt lat="48.04636" lon="-3.50354">
        <ele>168.1</ele>
        <time>2025-02-26T08:22:16Z</time>
      </trkpt>
      <trkpt lat="48.04637" lon="-3.50354">
        <ele>168.1</ele>
        <time>2025-02-26T08:22:17Z</time>
      </trkpt>
      <trkpt lat="48.04638" lon="-3.50356">
        <ele>168.1</ele>
        <time>2025-02-26T08:22:18Z</time>
      </trkpt>
      <trkpt lat="48.04639" lon="-3.50356">
        <ele>168.2</ele>
        <time>2025-02-26T08:22:19Z</time>
      </trkpt>
      <trkpt lat="48.0464" lon="-3.50357">
        <ele>168.2</ele>
        <time>2025-02-26T08:22:20Z</time>
      </trkpt>
      <trkpt lat="48.04641" lon="-3.50358">
        <ele>168.3</ele>
        <time>2025-02-26T08:22:21Z</time>
      </trkpt>
      <trkpt lat="48.04642" lon="-3.50359">
        <ele>168.4</ele>
        <time>2025-02-26T08:22:22Z</time>
      </trkpt>
      <trkpt lat="48.04644" lon="-3.5036">
        <ele>168.4</ele>
        <time>2025-02-26T08:22:23Z</time>
      </trkpt>
      <trkpt lat="48.04645" lon="-3.5036">
        <ele>168.5</ele>
        <time>2025-02-26T08:22:24Z</time>
      </trkpt>
      <trkpt lat="48.04646" lon="-3.50361">
        <ele>168.5</ele>
        <time>2025-02-26T08:22:25Z</time>
      </trkpt>
      <trkpt lat="48.04647" lon="-3.50361">
        <ele>168.6</ele>
        <time>2025-02-26T08:22:26Z</time>
      </trkpt>
      <trkpt lat="48.04648" lon="-3.50361">
        <ele>168.7</ele>
        <time>2025-02-26T08:22:27Z</time>
      </trkpt>
      <trkpt lat="48.04649" lon="-3.5036">
        <ele>168.8</ele>
        <time>2025-02-26T08:22:28Z</time>
      </trkpt>
      <trkpt lat="48.0465" lon="-3.50361">
        <ele>168.8</ele>
        <time>2025-02-26T08:22:29Z</time>
      </trkpt>
      <trkpt lat="48.04651" lon="-3.50362">
        <ele>168.8</ele>
        <time>2025-02-26T08:22:30Z</time>
      </trkpt>
      <trkpt lat="48.04652" lon="-3.50363">
        <ele>168.8</ele>
        <time>2025-02-26T08:22:31Z</time>
      </trkpt>
      <trkpt lat="48.04653" lon="-3.50363">
        <ele>168.9</ele>
        <time>2025-02-26T08:22:32Z</time>
      </trkpt>
      <trkpt lat="48.04654" lon="-3.50363">
        <ele>169</ele>
        <time>2025-02-26T08:22:33Z</time>
      </trkpt>
      <trkpt lat="48.04656" lon="-3.50364">
        <ele>169.1</ele>
        <time>2025-02-26T08:22:34Z</time>
      </trkpt>
      <trkpt lat="48.04657" lon="-3.50365">
        <ele>169.1</ele>
        <time>2025-02-26T08:22:35Z</time>
      </trkpt>
      <trkpt lat="48.04657" lon="-3.50366">
        <ele>169.1</ele>
        <time>2025-02-26T08:22:36Z</time>
      </trkpt>
      <trkpt lat="48.04659" lon="-3.50367">
        <ele>169.2</ele>
        <time>2025-02-26T08:22:37Z</time>
      </trkpt>
      <trkpt lat="48.04659" lon="-3.50367">
        <ele>169.2</ele>
        <time>2025-02-26T08:22:38Z</time>
      </trkpt>
      <trkpt lat="48.0466" lon="-3.50368">
        <ele>169.2</ele>
        <time>2025-02-26T08:22:39Z</time>
      </trkpt>
      <trkpt lat="48.04662" lon="-3.50369">
        <ele>169.3</ele>
        <time>2025-02-26T08:22:40Z</time>
      </trkpt>
      <trkpt lat="48.04662" lon="-3.5037">
        <ele>169.3</ele>
        <time>2025-02-26T08:22:41Z</time>
      </trkpt>
      <trkpt lat="48.04663" lon="-3.50371">
        <ele>169.4</ele>
        <time>2025-02-26T08:22:42Z</time>
      </trkpt>
      <trkpt lat="48.04664" lon="-3.50371">
        <ele>169.4</ele>
        <time>2025-02-26T08:22:43Z</time>
      </trkpt>
      <trkpt lat="48.04666" lon="-3.50371">
        <ele>169.6</ele>
        <time>2025-02-26T08:22:44Z</time>
      </trkpt>
      <trkpt lat="48.04667" lon="-3.50371">
        <ele>169.7</ele>
        <time>2025-02-26T08:22:45Z</time>
      </trkpt>
      <trkpt lat="48.04668" lon="-3.50372">
        <ele>169.7</ele>
        <time>2025-02-26T08:22:46Z</time>
      </trkpt>
      <trkpt lat="48.04669" lon="-3.50374">
        <ele>169.7</ele>
        <time>2025-02-26T08:22:47Z</time>
      </trkpt>
      <trkpt lat="48.0467" lon="-3.50375">
        <ele>169.7</ele>
        <time>2025-02-26T08:22:48Z</time>
      </trkpt>
      <trkpt lat="48.04671" lon="-3.50376">
        <ele>169.8</ele>
        <time>2025-02-26T08:22:49Z</time>
      </trkpt>
      <trkpt lat="48.04672" lon="-3.50377">
        <ele>169.8</ele>
        <time>2025-02-26T08:22:50Z</time>
      </trkpt>
      <trkpt lat="48.04673" lon="-3.50377">
        <ele>169.9</ele>
        <time>2025-02-26T08:22:51Z</time>
      </trkpt>
      <trkpt lat="48.04674" lon="-3.50378">
        <ele>169.9</ele>
        <time>2025-02-26T08:22:52Z</time>
      </trkpt>
      <trkpt lat="48.04675" lon="-3.50378">
        <ele>170</ele>
        <time>2025-02-26T08:22:53Z</time>
      </trkpt>
      <trkpt lat="48.04676" lon="-3.50378">
        <ele>170.1</ele>
        <time>2025-02-26T08:22:54Z</time>
      </trkpt>
      <trkpt lat="48.04677" lon="-3.50379">
        <ele>170.1</ele>
        <time>2025-02-26T08:22:55Z</time>
      </trkpt>
      <trkpt lat="48.04678" lon="-3.50378">
        <ele>170.2</ele>
        <time>2025-02-26T08:22:56Z</time>
      </trkpt>
      <trkpt lat="48.0468" lon="-3.50379">
        <ele>170.3</ele>
        <time>2025-02-26T08:22:57Z</time>
      </trkpt>
      <trkpt lat="48.04681" lon="-3.50379">
        <ele>170.4</ele>
        <time>2025-02-26T08:22:58Z</time>
      </trkpt>
      <trkpt lat="48.04682" lon="-3.50379">
        <ele>170.5</ele>
        <time>2025-02-26T08:22:59Z</time>
      </trkpt>
      <trkpt lat="48.04683" lon="-3.5038">
        <ele>170.5</ele>
        <time>2025-02-26T08:23:00Z</time>
      </trkpt>
      <trkpt lat="48.04684" lon="-3.5038">
        <ele>170.6</ele>
        <time>2025-02-26T08:23:01Z</time>
      </trkpt>
      <trkpt lat="48.04685" lon="-3.50382">
        <ele>170.6</ele>
        <time>2025-02-26T08:23:02Z</time>
      </trkpt>
      <trkpt lat="48.04686" lon="-3.50383">
        <ele>170.6</ele>
        <time>2025-02-26T08:23:03Z</time>
      </trkpt>
      <trkpt lat="48.04687" lon="-3.50383">
        <ele>170.7</ele>
        <time>2025-02-26T08:23:04Z</time>
      </trkpt>
      <trkpt lat="48.04689" lon="-3.50384">
        <ele>170.8</ele>
        <time>2025-02-26T08:23:05Z</time>
      </trkpt>
      <trkpt lat="48.0469" lon="-3.50385">
        <ele>170.8</ele>
        <time>2025-02-26T08:23:06Z</time>
      </trkpt>
      <trkpt lat="48.04691" lon="-3.50385">
        <ele>170.9</ele>
        <time>2025-02-26T08:23:07Z</time>
      </trkpt>
      <trkpt lat="48.04692" lon="-3.50386">
        <ele>170.9</ele>
        <time>2025-02-26T08:23:08Z</time>
      </trkpt>
      <trkpt lat="48.04693" lon="-3.50387">
        <ele>171</ele>
        <time>2025-02-26T08:23:09Z</time>
      </trkpt>
      <trkpt lat="48.04694" lon="-3.50388">
        <ele>171</ele>
        <time>2025-02-26T08:23:10Z</time>
      </trkpt>
      <trkpt lat="48.04695" lon="-3.50389">
        <ele>171</ele>
        <time>2025-02-26T08:23:11Z</time>
      </trkpt>
      <trkpt lat="48.04696" lon="-3.5039">
        <ele>171</ele>
        <time>2025-02-26T08:23:12Z</time>
      </trkpt>
      <trkpt lat="48.04697" lon="-3.5039">
        <ele>171</ele>
        <time>2025-02-26T08:23:13Z</time>
      </trkpt>
      <trkpt lat="48.04698" lon="-3.50392">
        <ele>170.9</ele>
        <time>2025-02-26T08:23:14Z</time>
      </trkpt>
      <trkpt lat="48.04699" lon="-3.50392">
        <ele>170.9</ele>
        <time>2025-02-26T08:23:15Z</time>
      </trkpt>
      <trkpt lat="48.047" lon="-3.50393">
        <ele>170.9</ele>
        <time>2025-02-26T08:23:16Z</time>
      </trkpt>
      <trkpt lat="48.04701" lon="-3.50394">
        <ele>170.9</ele>
        <time>2025-02-26T08:23:17Z</time>
      </trkpt>
      <trkpt lat="48.04702" lon="-3.50395">
        <ele>170.9</ele>
        <time>2025-02-26T08:23:18Z</time>
      </trkpt>
      <trkpt lat="48.04703" lon="-3.50395">
        <ele>170.9</ele>
        <time>2025-02-26T08:23:19Z</time>
      </trkpt>
      <trkpt lat="48.04704" lon="-3.50396">
        <ele>171</ele>
        <time>2025-02-26T08:23:20Z</time>
      </trkpt>
      <trkpt lat="48.04706" lon="-3.50396">
        <ele>171</ele>
        <time>2025-02-26T08:23:21Z</time>
      </trkpt>
      <trkpt lat="48.04707" lon="-3.50397">
        <ele>171</ele>
        <time>2025-02-26T08:23:22Z</time>
      </trkpt>
      <trkpt lat="48.04708" lon="-3.50397">
        <ele>171</ele>
        <time>2025-02-26T08:23:23Z</time>
      </trkpt>
      <trkpt lat="48.04709" lon="-3.50398">
        <ele>171</ele>
        <time>2025-02-26T08:23:24Z</time>
      </trkpt>
      <trkpt lat="48.0471" lon="-3.50399">
        <ele>171</ele>
        <time>2025-02-26T08:23:25Z</time>
      </trkpt>
      <trkpt lat="48.04711" lon="-3.504">
        <ele>171.1</ele>
        <time>2025-02-26T08:23:26Z</time>
      </trkpt>
      <trkpt lat="48.04713" lon="-3.504">
        <ele>171.1</ele>
        <time>2025-02-26T08:23:27Z</time>
      </trkpt>
      <trkpt lat="48.04714" lon="-3.50401">
        <ele>171.1</ele>
        <time>2025-02-26T08:23:28Z</time>
      </trkpt>
      <trkpt lat="48.04715" lon="-3.50401">
        <ele>171.2</ele>
        <time>2025-02-26T08:23:29Z</time>
      </trkpt>
      <trkpt lat="48.04716" lon="-3.50402">
        <ele>171.2</ele>
        <time>2025-02-26T08:23:30Z</time>
      </trkpt>
      <trkpt lat="48.04717" lon="-3.50403">
        <ele>171.2</ele>
        <time>2025-02-26T08:23:31Z</time>
      </trkpt>
      <trkpt lat="48.04718" lon="-3.50403">
        <ele>171.2</ele>
        <time>2025-02-26T08:23:32Z</time>
      </trkpt>
      <trkpt lat="48.04718" lon="-3.50405">
        <ele>171.2</ele>
        <time>2025-02-26T08:23:33Z</time>
      </trkpt>
      <trkpt lat="48.04719" lon="-3.50406">
        <ele>171.2</ele>
        <time>2025-02-26T08:23:34Z</time>
      </trkpt>
      <trkpt lat="48.0472" lon="-3.50407">
        <ele>171.2</ele>
        <time>2025-02-26T08:23:35Z</time>
      </trkpt>
      <trkpt lat="48.04721" lon="-3.50407">
        <ele>171.3</ele>
        <time>2025-02-26T08:23:36Z</time>
      </trkpt>
      <trkpt lat="48.04722" lon="-3.50408">
        <ele>171.3</ele>
        <time>2025-02-26T08:23:37Z</time>
      </trkpt>
      <trkpt lat="48.04723" lon="-3.50408">
        <ele>171.3</ele>
        <time>2025-02-26T08:23:38Z</time>
      </trkpt>
      <trkpt lat="48.04724" lon="-3.50408">
        <ele>171.4</ele>
        <time>2025-02-26T08:23:39Z</time>
      </trkpt>
      <trkpt lat="48.04725" lon="-3.50409">
        <ele>171.4</ele>
        <time>2025-02-26T08:23:40Z</time>
      </trkpt>
      <trkpt lat="48.04726" lon="-3.5041">
        <ele>171.4</ele>
        <time>2025-02-26T08:23:41Z</time>
      </trkpt>
      <trkpt lat="48.04727" lon="-3.50411">
        <ele>171.4</ele>
        <time>2025-02-26T08:23:42Z</time>
      </trkpt>
      <trkpt lat="48.04728" lon="-3.50412">
        <ele>171.4</ele>
        <time>2025-02-26T08:23:43Z</time>
      </trkpt>
      <trkpt lat="48.04729" lon="-3.50412">
        <ele>171.5</ele>
        <time>2025-02-26T08:23:44Z</time>
      </trkpt>
      <trkpt lat="48.0473" lon="-3.50413">
        <ele>171.5</ele>
        <time>2025-02-26T08:23:45Z</time>
      </trkpt>
      <trkpt lat="48.04731" lon="-3.50414">
        <ele>171.5</ele>
        <time>2025-02-26T08:23:46Z</time>
      </trkpt>
      <trkpt lat="48.04732" lon="-3.50414">
        <ele>171.5</ele>
        <time>2025-02-26T08:23:47Z</time>
      </trkpt>
      <trkpt lat="48.04733" lon="-3.50414">
        <ele>171.5</ele>
        <time>2025-02-26T08:23:48Z</time>
      </trkpt>
      <trkpt lat="48.04734" lon="-3.50415">
        <ele>171.5</ele>
        <time>2025-02-26T08:23:49Z</time>
      </trkpt>
      <trkpt lat="48.04735" lon="-3.50416">
        <ele>171.5</ele>
        <time>2025-02-26T08:23:50Z</time>
      </trkpt>
      <trkpt lat="48.04737" lon="-3.50415">
        <ele>171.6</ele>
        <time>2025-02-26T08:23:51Z</time>
      </trkpt>
      <trkpt lat="48.04738" lon="-3.50416">
        <ele>171.6</ele>
        <time>2025-02-26T08:23:52Z</time>
      </trkpt>
      <trkpt lat="48.04739" lon="-3.50416">
        <ele>171.6</ele>
        <time>2025-02-26T08:23:53Z</time>
      </trkpt>
      <trkpt lat="48.0474" lon="-3.50416">
        <ele>171.7</ele>
        <time>2025-02-26T08:23:54Z</time>
      </trkpt>
      <trkpt lat="48.04741" lon="-3.50418">
        <ele>171.6</ele>
        <time>2025-02-26T08:23:55Z</time>
      </trkpt>
      <trkpt lat="48.04742" lon="-3.50419">
        <ele>171.6</ele>
        <time>2025-02-26T08:23:56Z</time>
      </trkpt>
      <trkpt lat="48.04743" lon="-3.50419">
        <ele>171.6</ele>
        <time>2025-02-26T08:23:57Z</time>
      </trkpt>
      <trkpt lat="48.04744" lon="-3.50419">
        <ele>171.6</ele>
        <time>2025-02-26T08:23:58Z</time>
      </trkpt>
      <trkpt lat="48.04745" lon="-3.5042">
        <ele>171.6</ele>
        <time>2025-02-26T08:23:59Z</time>
      </trkpt>
      <trkpt lat="48.04746" lon="-3.50421">
        <ele>171.5</ele>
        <time>2025-02-26T08:24:00Z</time>
      </trkpt>
      <trkpt lat="48.04747" lon="-3.50422">
        <ele>171.5</ele>
        <time>2025-02-26T08:24:01Z</time>
      </trkpt>
      <trkpt lat="48.04748" lon="-3.50422">
        <ele>171.5</ele>
        <time>2025-02-26T08:24:02Z</time>
      </trkpt>
      <trkpt lat="48.04749" lon="-3.50423">
        <ele>171.5</ele>
        <time>2025-02-26T08:24:03Z</time>
      </trkpt>
      <trkpt lat="48.0475" lon="-3.50424">
        <ele>171.5</ele>
        <time>2025-02-26T08:24:04Z</time>
      </trkpt>
      <trkpt lat="48.04751" lon="-3.50425">
        <ele>171.5</ele>
        <time>2025-02-26T08:24:05Z</time>
      </trkpt>
      <trkpt lat="48.04752" lon="-3.50425">
        <ele>171.4</ele>
        <time>2025-02-26T08:24:06Z</time>
      </trkpt>
      <trkpt lat="48.04753" lon="-3.50426">
        <ele>171.4</ele>
        <time>2025-02-26T08:24:07Z</time>
      </trkpt>
      <trkpt lat="48.04754" lon="-3.50427">
        <ele>171.4</ele>
        <time>2025-02-26T08:24:08Z</time>
      </trkpt>
      <trkpt lat="48.04755" lon="-3.50427">
        <ele>171.5</ele>
        <time>2025-02-26T08:24:09Z</time>
      </trkpt>
      <trkpt lat="48.04756" lon="-3.50428">
        <ele>171.4</ele>
        <time>2025-02-26T08:24:10Z</time>
      </trkpt>
      <trkpt lat="48.04757" lon="-3.50428">
        <ele>171.4</ele>
        <time>2025-02-26T08:24:11Z</time>
      </trkpt>
      <trkpt lat="48.04758" lon="-3.50428">
        <ele>171.5</ele>
        <time>2025-02-26T08:24:12Z</time>
      </trkpt>
      <trkpt lat="48.0476" lon="-3.50429">
        <ele>171.5</ele>
        <time>2025-02-26T08:24:13Z</time>
      </trkpt>
      <trkpt lat="48.04761" lon="-3.5043">
        <ele>171.5</ele>
        <time>2025-02-26T08:24:14Z</time>
      </trkpt>
      <trkpt lat="48.04762" lon="-3.50431">
        <ele>171.4</ele>
        <time>2025-02-26T08:24:15Z</time>
      </trkpt>
      <trkpt lat="48.04763" lon="-3.50431">
        <ele>171.4</ele>
        <time>2025-02-26T08:24:16Z</time>
      </trkpt>
      <trkpt lat="48.04764" lon="-3.50432">
        <ele>171.4</ele>
        <time>2025-02-26T08:24:17Z</time>
      </trkpt>
      <trkpt lat="48.04765" lon="-3.50432">
        <ele>171.4</ele>
        <time>2025-02-26T08:24:18Z</time>
      </trkpt>
      <trkpt lat="48.04765" lon="-3.50433">
        <ele>171.4</ele>
        <time>2025-02-26T08:24:19Z</time>
      </trkpt>
      <trkpt lat="48.04766" lon="-3.50434">
        <ele>171.3</ele>
        <time>2025-02-26T08:24:20Z</time>
      </trkpt>
      <trkpt lat="48.04767" lon="-3.50434">
        <ele>171.4</ele>
        <time>2025-02-26T08:24:21Z</time>
      </trkpt>
      <trkpt lat="48.04768" lon="-3.50435">
        <ele>171.4</ele>
        <time>2025-02-26T08:24:22Z</time>
      </trkpt>
      <trkpt lat="48.04769" lon="-3.50435">
        <ele>171.4</ele>
        <time>2025-02-26T08:24:23Z</time>
      </trkpt>
      <trkpt lat="48.04771" lon="-3.50436">
        <ele>171.4</ele>
        <time>2025-02-26T08:24:24Z</time>
      </trkpt>
      <trkpt lat="48.04772" lon="-3.50437">
        <ele>171.3</ele>
        <time>2025-02-26T08:24:25Z</time>
      </trkpt>
      <trkpt lat="48.04773" lon="-3.50438">
        <ele>171.3</ele>
        <time>2025-02-26T08:24:26Z</time>
      </trkpt>
      <trkpt lat="48.04774" lon="-3.50438">
        <ele>171.3</ele>
        <time>2025-02-26T08:24:27Z</time>
      </trkpt>
      <trkpt lat="48.04776" lon="-3.50438">
        <ele>171.4</ele>
        <time>2025-02-26T08:24:28Z</time>
      </trkpt>
      <trkpt lat="48.04777" lon="-3.50438">
        <ele>171.4</ele>
        <time>2025-02-26T08:24:29Z</time>
      </trkpt>
      <trkpt lat="48.04778" lon="-3.5044">
        <ele>171.3</ele>
        <time>2025-02-26T08:24:30Z</time>
      </trkpt>
      <trkpt lat="48.04779" lon="-3.50441">
        <ele>171.3</ele>
        <time>2025-02-26T08:24:31Z</time>
      </trkpt>
      <trkpt lat="48.0478" lon="-3.50442">
        <ele>171.3</ele>
        <time>2025-02-26T08:24:32Z</time>
      </trkpt>
      <trkpt lat="48.04781" lon="-3.50443">
        <ele>171.4</ele>
        <time>2025-02-26T08:24:33Z</time>
      </trkpt>
      <trkpt lat="48.04782" lon="-3.50443">
        <ele>171.4</ele>
        <time>2025-02-26T08:24:34Z</time>
      </trkpt>
      <trkpt lat="48.04783" lon="-3.50444">
        <ele>171.4</ele>
        <time>2025-02-26T08:24:35Z</time>
      </trkpt>
      <trkpt lat="48.04784" lon="-3.50445">
        <ele>171.4</ele>
        <time>2025-02-26T08:24:36Z</time>
      </trkpt>
      <trkpt lat="48.04785" lon="-3.50446">
        <ele>171.4</ele>
        <time>2025-02-26T08:24:37Z</time>
      </trkpt>
      <trkpt lat="48.04786" lon="-3.50447">
        <ele>171.5</ele>
        <time>2025-02-26T08:24:38Z</time>
      </trkpt>
      <trkpt lat="48.04787" lon="-3.50448">
        <ele>171.5</ele>
        <time>2025-02-26T08:24:39Z</time>
      </trkpt>
      <trkpt lat="48.04788" lon="-3.50448">
        <ele>171.6</ele>
        <time>2025-02-26T08:24:40Z</time>
      </trkpt>
      <trkpt lat="48.04789" lon="-3.50449">
        <ele>171.6</ele>
        <time>2025-02-26T08:24:41Z</time>
      </trkpt>
      <trkpt lat="48.0479" lon="-3.5045">
        <ele>171.7</ele>
        <time>2025-02-26T08:24:42Z</time>
      </trkpt>
      <trkpt lat="48.04791" lon="-3.50451">
        <ele>171.7</ele>
        <time>2025-02-26T08:24:43Z</time>
      </trkpt>
      <trkpt lat="48.04792" lon="-3.50452">
        <ele>171.8</ele>
        <time>2025-02-26T08:24:44Z</time>
      </trkpt>
      <trkpt lat="48.04793" lon="-3.50452">
        <ele>171.8</ele>
        <time>2025-02-26T08:24:45Z</time>
      </trkpt>
      <trkpt lat="48.04794" lon="-3.50452">
        <ele>171.9</ele>
        <time>2025-02-26T08:24:46Z</time>
      </trkpt>
      <trkpt lat="48.04795" lon="-3.50453">
        <ele>171.9</ele>
        <time>2025-02-26T08:24:47Z</time>
      </trkpt>
      <trkpt lat="48.04797" lon="-3.50453">
        <ele>172</ele>
        <time>2025-02-26T08:24:48Z</time>
      </trkpt>
      <trkpt lat="48.04798" lon="-3.50454">
        <ele>172.1</ele>
        <time>2025-02-26T08:24:49Z</time>
      </trkpt>
      <trkpt lat="48.04799" lon="-3.50455">
        <ele>172.2</ele>
        <time>2025-02-26T08:24:50Z</time>
      </trkpt>
      <trkpt lat="48.048" lon="-3.50455">
        <ele>172.2</ele>
        <time>2025-02-26T08:24:51Z</time>
      </trkpt>
      <trkpt lat="48.04801" lon="-3.50455">
        <ele>172.3</ele>
        <time>2025-02-26T08:24:52Z</time>
      </trkpt>
      <trkpt lat="48.04802" lon="-3.50456">
        <ele>172.3</ele>
        <time>2025-02-26T08:24:53Z</time>
      </trkpt>
      <trkpt lat="48.04803" lon="-3.50456">
        <ele>172.4</ele>
        <time>2025-02-26T08:24:54Z</time>
      </trkpt>
      <trkpt lat="48.04804" lon="-3.50457">
        <ele>172.4</ele>
        <time>2025-02-26T08:24:55Z</time>
      </trkpt>
      <trkpt lat="48.04805" lon="-3.50459">
        <ele>172.5</ele>
        <time>2025-02-26T08:24:56Z</time>
      </trkpt>
      <trkpt lat="48.04806" lon="-3.50459">
        <ele>172.5</ele>
        <time>2025-02-26T08:24:57Z</time>
      </trkpt>
      <trkpt lat="48.04808" lon="-3.50459">
        <ele>172.6</ele>
        <time>2025-02-26T08:24:58Z</time>
      </trkpt>
      <trkpt lat="48.04809" lon="-3.50459">
        <ele>172.7</ele>
        <time>2025-02-26T08:24:59Z</time>
      </trkpt>
      <trkpt lat="48.04809" lon="-3.50458">
        <ele>172.8</ele>
        <time>2025-02-26T08:25:00Z</time>
      </trkpt>
      <trkpt lat="48.0481" lon="-3.50456">
        <ele>172.9</ele>
        <time>2025-02-26T08:25:01Z</time>
      </trkpt>
      <trkpt lat="48.0481" lon="-3.50454">
        <ele>173</ele>
        <time>2025-02-26T08:25:02Z</time>
      </trkpt>
      <trkpt lat="48.04811" lon="-3.50453">
        <ele>173.1</ele>
        <time>2025-02-26T08:25:03Z</time>
      </trkpt>
      <trkpt lat="48.04811" lon="-3.50451">
        <ele>173.2</ele>
        <time>2025-02-26T08:25:04Z</time>
      </trkpt>
      <trkpt lat="48.04812" lon="-3.50449">
        <ele>173.3</ele>
        <time>2025-02-26T08:25:05Z</time>
      </trkpt>
      <trkpt lat="48.04811" lon="-3.50447">
        <ele>173.3</ele>
        <time>2025-02-26T08:25:06Z</time>
      </trkpt>
      <trkpt lat="48.04811" lon="-3.50445">
        <ele>173.3</ele>
        <time>2025-02-26T08:25:07Z</time>
      </trkpt>
      <trkpt lat="48.0481" lon="-3.50443">
        <ele>173.4</ele>
        <time>2025-02-26T08:25:08Z</time>
      </trkpt>
      <trkpt lat="48.0481" lon="-3.50441">
        <ele>173.5</ele>
        <time>2025-02-26T08:25:09Z</time>
      </trkpt>
      <trkpt lat="48.04809" lon="-3.50439">
        <ele>173.6</ele>
        <time>2025-02-26T08:25:10Z</time>
      </trkpt>
      <trkpt lat="48.04809" lon="-3.50437">
        <ele>173.7</ele>
        <time>2025-02-26T08:25:11Z</time>
      </trkpt>
      <trkpt lat="48.04808" lon="-3.50436">
        <ele>173.8</ele>
        <time>2025-02-26T08:25:12Z</time>
      </trkpt>
      <trkpt lat="48.04808" lon="-3.50434">
        <ele>173.9</ele>
        <time>2025-02-26T08:25:13Z</time>
      </trkpt>
      <trkpt lat="48.04807" lon="-3.50432">
        <ele>174</ele>
        <time>2025-02-26T08:25:14Z</time>
      </trkpt>
      <trkpt lat="48.04807" lon="-3.5043">
        <ele>174.1</ele>
        <time>2025-02-26T08:25:15Z</time>
      </trkpt>
      <trkpt lat="48.04807" lon="-3.50429">
        <ele>174.2</ele>
        <time>2025-02-26T08:25:16Z</time>
      </trkpt>
      <trkpt lat="48.04807" lon="-3.50427">
        <ele>174.3</ele>
        <time>2025-02-26T08:25:17Z</time>
      </trkpt>
      <trkpt lat="48.04808" lon="-3.50426">
        <ele>174.4</ele>
        <time>2025-02-26T08:25:18Z</time>
      </trkpt>
      <trkpt lat="48.04809" lon="-3.50426">
        <ele>174.5</ele>
        <time>2025-02-26T08:25:19Z</time>
      </trkpt>
      <trkpt lat="48.0481" lon="-3.50426">
        <ele>174.5</ele>
        <time>2025-02-26T08:25:20Z</time>
      </trkpt>
      <trkpt lat="48.04811" lon="-3.50427">
        <ele>174.5</ele>
        <time>2025-02-26T08:25:21Z</time>
      </trkpt>
      <trkpt lat="48.04812" lon="-3.50428">
        <ele>174.5</ele>
        <time>2025-02-26T08:25:22Z</time>
      </trkpt>
      <trkpt lat="48.04812" lon="-3.5043">
        <ele>174.4</ele>
        <time>2025-02-26T08:25:23Z</time>
      </trkpt>
      <trkpt lat="48.04813" lon="-3.50431">
        <ele>174.3</ele>
        <time>2025-02-26T08:25:24Z</time>
      </trkpt>
      <trkpt lat="48.04813" lon="-3.50432">
        <ele>174.3</ele>
        <time>2025-02-26T08:25:25Z</time>
      </trkpt>
      <trkpt lat="48.04813" lon="-3.50434">
        <ele>174.2</ele>
        <time>2025-02-26T08:25:26Z</time>
      </trkpt>
      <trkpt lat="48.04814" lon="-3.50435">
        <ele>174.2</ele>
        <time>2025-02-26T08:25:27Z</time>
      </trkpt>
      <trkpt lat="48.04815" lon="-3.50437">
        <ele>174.1</ele>
        <time>2025-02-26T08:25:28Z</time>
      </trkpt>
      <trkpt lat="48.04815" lon="-3.50438">
        <ele>174.1</ele>
        <time>2025-02-26T08:25:29Z</time>
      </trkpt>
      <trkpt lat="48.04816" lon="-3.5044">
        <ele>174</ele>
        <time>2025-02-26T08:25:30Z</time>
      </trkpt>
      <trkpt lat="48.04817" lon="-3.50442">
        <ele>174</ele>
        <time>2025-02-26T08:25:31Z</time>
      </trkpt>
      <trkpt lat="48.04818" lon="-3.50443">
        <ele>173.9</ele>
        <time>2025-02-26T08:25:32Z</time>
      </trkpt>
      <trkpt lat="48.04818" lon="-3.50444">
        <ele>173.9</ele>
        <time>2025-02-26T08:25:33Z</time>
      </trkpt>
      <trkpt lat="48.04818" lon="-3.50446">
        <ele>173.9</ele>
        <time>2025-02-26T08:25:34Z</time>
      </trkpt>
      <trkpt lat="48.04819" lon="-3.50447">
        <ele>173.9</ele>
        <time>2025-02-26T08:25:35Z</time>
      </trkpt>
      <trkpt lat="48.0482" lon="-3.50448">
        <ele>173.9</ele>
        <time>2025-02-26T08:25:36Z</time>
      </trkpt>
      <trkpt lat="48.0482" lon="-3.50449">
        <ele>173.9</ele>
        <time>2025-02-26T08:25:37Z</time>
      </trkpt>
      <trkpt lat="48.04821" lon="-3.5045">
        <ele>173.9</ele>
        <time>2025-02-26T08:25:38Z</time>
      </trkpt>
      <trkpt lat="48.04821" lon="-3.50451">
        <ele>173.9</ele>
        <time>2025-02-26T08:25:39Z</time>
      </trkpt>
      <trkpt lat="48.04822" lon="-3.50453">
        <ele>173.9</ele>
        <time>2025-02-26T08:25:40Z</time>
      </trkpt>
      <trkpt lat="48.04823" lon="-3.50454">
        <ele>173.9</ele>
        <time>2025-02-26T08:25:41Z</time>
      </trkpt>
      <trkpt lat="48.04824" lon="-3.50455">
        <ele>173.9</ele>
        <time>2025-02-26T08:25:42Z</time>
      </trkpt>
      <trkpt lat="48.04825" lon="-3.50456">
        <ele>174</ele>
        <time>2025-02-26T08:25:43Z</time>
      </trkpt>
      <trkpt lat="48.04826" lon="-3.50457">
        <ele>174</ele>
        <time>2025-02-26T08:25:44Z</time>
      </trkpt>
      <trkpt lat="48.04826" lon="-3.50458">
        <ele>174</ele>
        <time>2025-02-26T08:25:45Z</time>
      </trkpt>
      <trkpt lat="48.04828" lon="-3.50459">
        <ele>174.1</ele>
        <time>2025-02-26T08:25:46Z</time>
      </trkpt>
      <trkpt lat="48.04829" lon="-3.5046">
        <ele>174.1</ele>
        <time>2025-02-26T08:25:47Z</time>
      </trkpt>
      <trkpt lat="48.0483" lon="-3.50461">
        <ele>174.1</ele>
        <time>2025-02-26T08:25:48Z</time>
      </trkpt>
      <trkpt lat="48.04831" lon="-3.50462">
        <ele>174.2</ele>
        <time>2025-02-26T08:25:49Z</time>
      </trkpt>
      <trkpt lat="48.04832" lon="-3.50463">
        <ele>174.2</ele>
        <time>2025-02-26T08:25:50Z</time>
      </trkpt>
      <trkpt lat="48.04833" lon="-3.50464">
        <ele>174.3</ele>
        <time>2025-02-26T08:25:51Z</time>
      </trkpt>
      <trkpt lat="48.04834" lon="-3.50465">
        <ele>174.3</ele>
        <time>2025-02-26T08:25:52Z</time>
      </trkpt>
      <trkpt lat="48.04835" lon="-3.50466">
        <ele>174.3</ele>
        <time>2025-02-26T08:25:53Z</time>
      </trkpt>
      <trkpt lat="48.04836" lon="-3.50467">
        <ele>174.3</ele>
        <time>2025-02-26T08:25:54Z</time>
      </trkpt>
      <trkpt lat="48.04837" lon="-3.50468">
        <ele>174.3</ele>
        <time>2025-02-26T08:25:55Z</time>
      </trkpt>
      <trkpt lat="48.04838" lon="-3.50468">
        <ele>174.3</ele>
        <time>2025-02-26T08:25:56Z</time>
      </trkpt>
      <trkpt lat="48.04839" lon="-3.50469">
        <ele>174.3</ele>
        <time>2025-02-26T08:25:57Z</time>
      </trkpt>
      <trkpt lat="48.0484" lon="-3.50471">
        <ele>174.3</ele>
        <time>2025-02-26T08:25:58Z</time>
      </trkpt>
      <trkpt lat="48.0484" lon="-3.50472">
        <ele>174.2</ele>
        <time>2025-02-26T08:25:59Z</time>
      </trkpt>
      <trkpt lat="48.04841" lon="-3.50473">
        <ele>174.3</ele>
        <time>2025-02-26T08:26:00Z</time>
      </trkpt>
      <trkpt lat="48.04842" lon="-3.50474">
        <ele>174.3</ele>
        <time>2025-02-26T08:26:01Z</time>
      </trkpt>
      <trkpt lat="48.04843" lon="-3.50475">
        <ele>174.3</ele>
        <time>2025-02-26T08:26:02Z</time>
      </trkpt>
      <trkpt lat="48.04844" lon="-3.50475">
        <ele>174.4</ele>
        <time>2025-02-26T08:26:03Z</time>
      </trkpt>
      <trkpt lat="48.04845" lon="-3.50475">
        <ele>174.4</ele>
        <time>2025-02-26T08:26:04Z</time>
      </trkpt>
      <trkpt lat="48.04847" lon="-3.50476">
        <ele>174.4</ele>
        <time>2025-02-26T08:26:05Z</time>
      </trkpt>
      <trkpt lat="48.04848" lon="-3.50477">
        <ele>174.4</ele>
        <time>2025-02-26T08:26:06Z</time>
      </trkpt>
      <trkpt lat="48.04849" lon="-3.50477">
        <ele>174.5</ele>
        <time>2025-02-26T08:26:07Z</time>
      </trkpt>
      <trkpt lat="48.0485" lon="-3.50478">
        <ele>174.5</ele>
        <time>2025-02-26T08:26:08Z</time>
      </trkpt>
      <trkpt lat="48.04851" lon="-3.50479">
        <ele>174.5</ele>
        <time>2025-02-26T08:26:09Z</time>
      </trkpt>
      <trkpt lat="48.04853" lon="-3.50479">
        <ele>174.5</ele>
        <time>2025-02-26T08:26:10Z</time>
      </trkpt>
      <trkpt lat="48.04853" lon="-3.50478">
        <ele>174.6</ele>
        <time>2025-02-26T08:26:11Z</time>
      </trkpt>
      <trkpt lat="48.04854" lon="-3.50479">
        <ele>174.6</ele>
        <time>2025-02-26T08:26:12Z</time>
      </trkpt>
      <trkpt lat="48.04855" lon="-3.50479">
        <ele>174.6</ele>
        <time>2025-02-26T08:26:13Z</time>
      </trkpt>
      <trkpt lat="48.04857" lon="-3.5048">
        <ele>174.6</ele>
        <time>2025-02-26T08:26:14Z</time>
      </trkpt>
      <trkpt lat="48.04857" lon="-3.5048">
        <ele>174.6</ele>
        <time>2025-02-26T08:26:15Z</time>
      </trkpt>
      <trkpt lat="48.04858" lon="-3.50481">
        <ele>174.6</ele>
        <time>2025-02-26T08:26:16Z</time>
      </trkpt>
      <trkpt lat="48.04859" lon="-3.50482">
        <ele>174.6</ele>
        <time>2025-02-26T08:26:17Z</time>
      </trkpt>
      <trkpt lat="48.04861" lon="-3.50482">
        <ele>174.6</ele>
        <time>2025-02-26T08:26:18Z</time>
      </trkpt>
      <trkpt lat="48.04862" lon="-3.50482">
        <ele>174.7</ele>
        <time>2025-02-26T08:26:19Z</time>
      </trkpt>
      <trkpt lat="48.04862" lon="-3.50483">
        <ele>174.6</ele>
        <time>2025-02-26T08:26:20Z</time>
      </trkpt>
      <trkpt lat="48.04864" lon="-3.50483">
        <ele>174.6</ele>
        <time>2025-02-26T08:26:21Z</time>
      </trkpt>
      <trkpt lat="48.04865" lon="-3.50483">
        <ele>174.6</ele>
        <time>2025-02-26T08:26:22Z</time>
      </trkpt>
      <trkpt lat="48.04866" lon="-3.50484">
        <ele>174.7</ele>
        <time>2025-02-26T08:26:23Z</time>
      </trkpt>
      <trkpt lat="48.04867" lon="-3.50485">
        <ele>174.7</ele>
        <time>2025-02-26T08:26:24Z</time>
      </trkpt>
      <trkpt lat="48.04868" lon="-3.50485">
        <ele>174.7</ele>
        <time>2025-02-26T08:26:25Z</time>
      </trkpt>
      <trkpt lat="48.04869" lon="-3.50485">
        <ele>174.7</ele>
        <time>2025-02-26T08:26:26Z</time>
      </trkpt>
      <trkpt lat="48.0487" lon="-3.50485">
        <ele>174.7</ele>
        <time>2025-02-26T08:26:27Z</time>
      </trkpt>
      <trkpt lat="48.04871" lon="-3.50485">
        <ele>174.7</ele>
        <time>2025-02-26T08:26:28Z</time>
      </trkpt>
      <trkpt lat="48.04873" lon="-3.50485">
        <ele>174.7</ele>
        <time>2025-02-26T08:26:29Z</time>
      </trkpt>
      <trkpt lat="48.04874" lon="-3.50486">
        <ele>174.7</ele>
        <time>2025-02-26T08:26:30Z</time>
      </trkpt>
      <trkpt lat="48.04875" lon="-3.50486">
        <ele>174.8</ele>
        <time>2025-02-26T08:26:31Z</time>
      </trkpt>
      <trkpt lat="48.04876" lon="-3.50487">
        <ele>174.8</ele>
        <time>2025-02-26T08:26:32Z</time>
      </trkpt>
      <trkpt lat="48.04877" lon="-3.50487">
        <ele>174.8</ele>
        <time>2025-02-26T08:26:33Z</time>
      </trkpt>
      <trkpt lat="48.04879" lon="-3.50488">
        <ele>174.8</ele>
        <time>2025-02-26T08:26:34Z</time>
      </trkpt>
      <trkpt lat="48.0488" lon="-3.50488">
        <ele>174.8</ele>
        <time>2025-02-26T08:26:35Z</time>
      </trkpt>
      <trkpt lat="48.04881" lon="-3.50489">
        <ele>174.8</ele>
        <time>2025-02-26T08:26:36Z</time>
      </trkpt>
      <trkpt lat="48.04882" lon="-3.50488">
        <ele>174.9</ele>
        <time>2025-02-26T08:26:37Z</time>
      </trkpt>
      <trkpt lat="48.04883" lon="-3.50489">
        <ele>174.9</ele>
        <time>2025-02-26T08:26:38Z</time>
      </trkpt>
      <trkpt lat="48.04885" lon="-3.50489">
        <ele>174.9</ele>
        <time>2025-02-26T08:26:39Z</time>
      </trkpt>
      <trkpt lat="48.04886" lon="-3.50489">
        <ele>174.9</ele>
        <time>2025-02-26T08:26:40Z</time>
      </trkpt>
      <trkpt lat="48.04887" lon="-3.5049">
        <ele>175</ele>
        <time>2025-02-26T08:26:41Z</time>
      </trkpt>
      <trkpt lat="48.04888" lon="-3.50489">
        <ele>175</ele>
        <time>2025-02-26T08:26:42Z</time>
      </trkpt>
      <trkpt lat="48.04889" lon="-3.50489">
        <ele>175</ele>
        <time>2025-02-26T08:26:43Z</time>
      </trkpt>
      <trkpt lat="48.04891" lon="-3.50489">
        <ele>175</ele>
        <time>2025-02-26T08:26:44Z</time>
      </trkpt>
      <trkpt lat="48.04892" lon="-3.5049">
        <ele>175</ele>
        <time>2025-02-26T08:26:45Z</time>
      </trkpt>
      <trkpt lat="48.04893" lon="-3.5049">
        <ele>175</ele>
        <time>2025-02-26T08:26:46Z</time>
      </trkpt>
      <trkpt lat="48.04894" lon="-3.50491">
        <ele>175</ele>
        <time>2025-02-26T08:26:47Z</time>
      </trkpt>
      <trkpt lat="48.04895" lon="-3.50492">
        <ele>175</ele>
        <time>2025-02-26T08:26:48Z</time>
      </trkpt>
      <trkpt lat="48.04896" lon="-3.50492">
        <ele>175</ele>
        <time>2025-02-26T08:26:49Z</time>
      </trkpt>
      <trkpt lat="48.04898" lon="-3.50492">
        <ele>175</ele>
        <time>2025-02-26T08:26:50Z</time>
      </trkpt>
      <trkpt lat="48.04899" lon="-3.50492">
        <ele>175</ele>
        <time>2025-02-26T08:26:51Z</time>
      </trkpt>
      <trkpt lat="48.049" lon="-3.50492">
        <ele>175</ele>
        <time>2025-02-26T08:26:52Z</time>
      </trkpt>
      <trkpt lat="48.04901" lon="-3.50493">
        <ele>175</ele>
        <time>2025-02-26T08:26:53Z</time>
      </trkpt>
      <trkpt lat="48.04903" lon="-3.50494">
        <ele>175</ele>
        <time>2025-02-26T08:26:54Z</time>
      </trkpt>
      <trkpt lat="48.04904" lon="-3.50494">
        <ele>175</ele>
        <time>2025-02-26T08:26:55Z</time>
      </trkpt>
      <trkpt lat="48.04905" lon="-3.50495">
        <ele>175</ele>
        <time>2025-02-26T08:26:56Z</time>
      </trkpt>
      <trkpt lat="48.04906" lon="-3.50495">
        <ele>175</ele>
        <time>2025-02-26T08:26:57Z</time>
      </trkpt>
      <trkpt lat="48.04908" lon="-3.50495">
        <ele>175</ele>
        <time>2025-02-26T08:26:58Z</time>
      </trkpt>
      <trkpt lat="48.04909" lon="-3.50495">
        <ele>175</ele>
        <time>2025-02-26T08:26:59Z</time>
      </trkpt>
      <trkpt lat="48.0491" lon="-3.50495">
        <ele>175</ele>
        <time>2025-02-26T08:27:00Z</time>
      </trkpt>
      <trkpt lat="48.04911" lon="-3.50496">
        <ele>175</ele>
        <time>2025-02-26T08:27:01Z</time>
      </trkpt>
      <trkpt lat="48.04912" lon="-3.50496">
        <ele>175</ele>
        <time>2025-02-26T08:27:02Z</time>
      </trkpt>
      <trkpt lat="48.04914" lon="-3.50497">
        <ele>175</ele>
        <time>2025-02-26T08:27:03Z</time>
      </trkpt>
      <trkpt lat="48.04915" lon="-3.50498">
        <ele>175</ele>
        <time>2025-02-26T08:27:04Z</time>
      </trkpt>
      <trkpt lat="48.04916" lon="-3.50498">
        <ele>175</ele>
        <time>2025-02-26T08:27:05Z</time>
      </trkpt>
      <trkpt lat="48.04917" lon="-3.50498">
        <ele>175</ele>
        <time>2025-02-26T08:27:06Z</time>
      </trkpt>
      <trkpt lat="48.04918" lon="-3.50498">
        <ele>174.9</ele>
        <time>2025-02-26T08:27:07Z</time>
      </trkpt>
      <trkpt lat="48.0492" lon="-3.50499">
        <ele>174.8</ele>
        <time>2025-02-26T08:27:08Z</time>
      </trkpt>
      <trkpt lat="48.0492" lon="-3.505">
        <ele>174.7</ele>
        <time>2025-02-26T08:27:09Z</time>
      </trkpt>
      <trkpt lat="48.04922" lon="-3.50501">
        <ele>174.6</ele>
        <time>2025-02-26T08:27:10Z</time>
      </trkpt>
      <trkpt lat="48.04923" lon="-3.50501">
        <ele>174.6</ele>
        <time>2025-02-26T08:27:11Z</time>
      </trkpt>
      <trkpt lat="48.04923" lon="-3.50502">
        <ele>174.5</ele>
        <time>2025-02-26T08:27:12Z</time>
      </trkpt>
      <trkpt lat="48.04924" lon="-3.50502">
        <ele>174.4</ele>
        <time>2025-02-26T08:27:13Z</time>
      </trkpt>
      <trkpt lat="48.04925" lon="-3.50503">
        <ele>174.3</ele>
        <time>2025-02-26T08:27:14Z</time>
      </trkpt>
      <trkpt lat="48.04927" lon="-3.50503">
        <ele>174.2</ele>
        <time>2025-02-26T08:27:15Z</time>
      </trkpt>
      <trkpt lat="48.04928" lon="-3.50505">
        <ele>174.1</ele>
        <time>2025-02-26T08:27:16Z</time>
      </trkpt>
      <trkpt lat="48.04929" lon="-3.50506">
        <ele>174</ele>
        <time>2025-02-26T08:27:17Z</time>
      </trkpt>
      <trkpt lat="48.0493" lon="-3.50506">
        <ele>173.9</ele>
        <time>2025-02-26T08:27:18Z</time>
      </trkpt>
      <trkpt lat="48.04931" lon="-3.50507">
        <ele>173.8</ele>
        <time>2025-02-26T08:27:19Z</time>
      </trkpt>
      <trkpt lat="48.04932" lon="-3.50508">
        <ele>173.8</ele>
        <time>2025-02-26T08:27:20Z</time>
      </trkpt>
      <trkpt lat="48.04933" lon="-3.50509">
        <ele>173.7</ele>
        <time>2025-02-26T08:27:21Z</time>
      </trkpt>
      <trkpt lat="48.04934" lon="-3.5051">
        <ele>173.6</ele>
        <time>2025-02-26T08:27:22Z</time>
      </trkpt>
      <trkpt lat="48.04936" lon="-3.5051">
        <ele>173.5</ele>
        <time>2025-02-26T08:27:23Z</time>
      </trkpt>
      <trkpt lat="48.04937" lon="-3.5051">
        <ele>173.4</ele>
        <time>2025-02-26T08:27:24Z</time>
      </trkpt>
      <trkpt lat="48.04938" lon="-3.50511">
        <ele>173.4</ele>
        <time>2025-02-26T08:27:25Z</time>
      </trkpt>
      <trkpt lat="48.0494" lon="-3.50511">
        <ele>173.3</ele>
        <time>2025-02-26T08:27:26Z</time>
      </trkpt>
      <trkpt lat="48.04941" lon="-3.50511">
        <ele>173.2</ele>
        <time>2025-02-26T08:27:27Z</time>
      </trkpt>
      <trkpt lat="48.04942" lon="-3.50512">
        <ele>173.1</ele>
        <time>2025-02-26T08:27:28Z</time>
      </trkpt>
      <trkpt lat="48.04943" lon="-3.50513">
        <ele>173.1</ele>
        <time>2025-02-26T08:27:29Z</time>
      </trkpt>
      <trkpt lat="48.04945" lon="-3.50513">
        <ele>173</ele>
        <time>2025-02-26T08:27:30Z</time>
      </trkpt>
      <trkpt lat="48.04946" lon="-3.50513">
        <ele>172.8</ele>
        <time>2025-02-26T08:27:31Z</time>
      </trkpt>
      <trkpt lat="48.04947" lon="-3.50515">
        <ele>172.7</ele>
        <time>2025-02-26T08:27:32Z</time>
      </trkpt>
      <trkpt lat="48.04948" lon="-3.50516">
        <ele>172.6</ele>
        <time>2025-02-26T08:27:33Z</time>
      </trkpt>
      <trkpt lat="48.0495" lon="-3.50516">
        <ele>172.5</ele>
        <time>2025-02-26T08:27:34Z</time>
      </trkpt>
      <trkpt lat="48.04951" lon="-3.50516">
        <ele>172.3</ele>
        <time>2025-02-26T08:27:35Z</time>
      </trkpt>
      <trkpt lat="48.04952" lon="-3.50516">
        <ele>172.2</ele>
        <time>2025-02-26T08:27:36Z</time>
      </trkpt>
      <trkpt lat="48.04953" lon="-3.50516">
        <ele>172.1</ele>
        <time>2025-02-26T08:27:37Z</time>
      </trkpt>
      <trkpt lat="48.04954" lon="-3.50517">
        <ele>171.9</ele>
        <time>2025-02-26T08:27:38Z</time>
      </trkpt>
      <trkpt lat="48.04956" lon="-3.50518">
        <ele>171.8</ele>
        <time>2025-02-26T08:27:39Z</time>
      </trkpt>
      <trkpt lat="48.04957" lon="-3.50519">
        <ele>171.7</ele>
        <time>2025-02-26T08:27:40Z</time>
      </trkpt>
      <trkpt lat="48.04958" lon="-3.50519">
        <ele>171.6</ele>
        <time>2025-02-26T08:27:41Z</time>
      </trkpt>
      <trkpt lat="48.04959" lon="-3.5052">
        <ele>171.4</ele>
        <time>2025-02-26T08:27:42Z</time>
      </trkpt>
      <trkpt lat="48.0496" lon="-3.50521">
        <ele>171.4</ele>
        <time>2025-02-26T08:27:43Z</time>
      </trkpt>
      <trkpt lat="48.04961" lon="-3.50521">
        <ele>171.2</ele>
        <time>2025-02-26T08:27:44Z</time>
      </trkpt>
      <trkpt lat="48.04962" lon="-3.50522">
        <ele>171.1</ele>
        <time>2025-02-26T08:27:45Z</time>
      </trkpt>
      <trkpt lat="48.04963" lon="-3.50522">
        <ele>171</ele>
        <time>2025-02-26T08:27:46Z</time>
      </trkpt>
      <trkpt lat="48.04964" lon="-3.50523">
        <ele>170.9</ele>
        <time>2025-02-26T08:27:47Z</time>
      </trkpt>
      <trkpt lat="48.04965" lon="-3.50524">
        <ele>170.7</ele>
        <time>2025-02-26T08:27:48Z</time>
      </trkpt>
      <trkpt lat="48.04967" lon="-3.50525">
        <ele>170.6</ele>
        <time>2025-02-26T08:27:49Z</time>
      </trkpt>
      <trkpt lat="48.04968" lon="-3.50525">
        <ele>170.5</ele>
        <time>2025-02-26T08:27:50Z</time>
      </trkpt>
      <trkpt lat="48.04969" lon="-3.50526">
        <ele>170.4</ele>
        <time>2025-02-26T08:27:51Z</time>
      </trkpt>
      <trkpt lat="48.04969" lon="-3.50526">
        <ele>170.3</ele>
        <time>2025-02-26T08:27:52Z</time>
      </trkpt>
      <trkpt lat="48.04969" lon="-3.50527">
        <ele>170.3</ele>
        <time>2025-02-26T08:27:53Z</time>
      </trkpt>
      <trkpt lat="48.04969" lon="-3.50528">
        <ele>170.3</ele>
        <time>2025-02-26T08:27:54Z</time>
      </trkpt>
      <trkpt lat="48.04969" lon="-3.50529">
        <ele>170.3</ele>
        <time>2025-02-26T08:27:55Z</time>
      </trkpt>
      <trkpt lat="48.0497" lon="-3.5053">
        <ele>170.3</ele>
        <time>2025-02-26T08:27:56Z</time>
      </trkpt>
      <trkpt lat="48.0497" lon="-3.50529">
        <ele>170.3</ele>
        <time>2025-02-26T08:27:57Z</time>
      </trkpt>
      <trkpt lat="48.04969" lon="-3.5053">
        <ele>170.3</ele>
        <time>2025-02-26T08:27:58Z</time>
      </trkpt>
      <trkpt lat="48.0497" lon="-3.5053">
        <ele>170.2</ele>
        <time>2025-02-26T08:27:59Z</time>
      </trkpt>
      <trkpt lat="48.04971" lon="-3.5053">
        <ele>170.2</ele>
        <time>2025-02-26T08:28:00Z</time>
      </trkpt>
      <trkpt lat="48.04971" lon="-3.50531">
        <ele>170.1</ele>
        <time>2025-02-26T08:28:01Z</time>
      </trkpt>
      <trkpt lat="48.04972" lon="-3.50532">
        <ele>170.1</ele>
        <time>2025-02-26T08:28:02Z</time>
      </trkpt>
      <trkpt lat="48.04972" lon="-3.50532">
        <ele>170</ele>
        <time>2025-02-26T08:28:03Z</time>
      </trkpt>
      <trkpt lat="48.04973" lon="-3.50532">
        <ele>170</ele>
        <time>2025-02-26T08:28:04Z</time>
      </trkpt>
      <trkpt lat="48.04973" lon="-3.50532">
        <ele>169.9</ele>
        <time>2025-02-26T08:28:05Z</time>
      </trkpt>
      <trkpt lat="48.04974" lon="-3.50532">
        <ele>169.8</ele>
        <time>2025-02-26T08:28:06Z</time>
      </trkpt>
      <trkpt lat="48.04974" lon="-3.50532">
        <ele>169.8</ele>
        <time>2025-02-26T08:28:07Z</time>
      </trkpt>
      <trkpt lat="48.04975" lon="-3.50533">
        <ele>169.7</ele>
        <time>2025-02-26T08:28:08Z</time>
      </trkpt>
      <trkpt lat="48.04976" lon="-3.50533">
        <ele>169.6</ele>
        <time>2025-02-26T08:28:09Z</time>
      </trkpt>
      <trkpt lat="48.04977" lon="-3.50534">
        <ele>169.5</ele>
        <time>2025-02-26T08:28:10Z</time>
      </trkpt>
      <trkpt lat="48.04977" lon="-3.50534">
        <ele>169.5</ele>
        <time>2025-02-26T08:28:11Z</time>
      </trkpt>
      <trkpt lat="48.04978" lon="-3.50535">
        <ele>169.4</ele>
        <time>2025-02-26T08:28:12Z</time>
      </trkpt>
      <trkpt lat="48.04978" lon="-3.50536">
        <ele>169.4</ele>
        <time>2025-02-26T08:28:13Z</time>
      </trkpt>
      <trkpt lat="48.04979" lon="-3.50537">
        <ele>169.2</ele>
        <time>2025-02-26T08:28:14Z</time>
      </trkpt>
      <trkpt lat="48.0498" lon="-3.50538">
        <ele>169.1</ele>
        <time>2025-02-26T08:28:15Z</time>
      </trkpt>
      <trkpt lat="48.04981" lon="-3.50538">
        <ele>169</ele>
        <time>2025-02-26T08:28:16Z</time>
      </trkpt>
      <trkpt lat="48.04982" lon="-3.50539">
        <ele>168.9</ele>
        <time>2025-02-26T08:28:17Z</time>
      </trkpt>
      <trkpt lat="48.04983" lon="-3.5054">
        <ele>168.8</ele>
        <time>2025-02-26T08:28:18Z</time>
      </trkpt>
      <trkpt lat="48.04985" lon="-3.50541">
        <ele>168.6</ele>
        <time>2025-02-26T08:28:19Z</time>
      </trkpt>
      <trkpt lat="48.04987" lon="-3.50541">
        <ele>168.4</ele>
        <time>2025-02-26T08:28:20Z</time>
      </trkpt>
      <trkpt lat="48.04988" lon="-3.50541">
        <ele>168.3</ele>
        <time>2025-02-26T08:28:21Z</time>
      </trkpt>
      <trkpt lat="48.04989" lon="-3.50541">
        <ele>168.2</ele>
        <time>2025-02-26T08:28:22Z</time>
      </trkpt>
      <trkpt lat="48.0499" lon="-3.50542">
        <ele>168</ele>
        <time>2025-02-26T08:28:23Z</time>
      </trkpt>
      <trkpt lat="48.04992" lon="-3.50543">
        <ele>167.9</ele>
        <time>2025-02-26T08:28:24Z</time>
      </trkpt>
      <trkpt lat="48.04993" lon="-3.50544">
        <ele>167.8</ele>
        <time>2025-02-26T08:28:25Z</time>
      </trkpt>
      <trkpt lat="48.04994" lon="-3.50544">
        <ele>167.6</ele>
        <time>2025-02-26T08:28:26Z</time>
      </trkpt>
      <trkpt lat="48.04996" lon="-3.50545">
        <ele>167.5</ele>
        <time>2025-02-26T08:28:27Z</time>
      </trkpt>
      <trkpt lat="48.04996" lon="-3.50545">
        <ele>167.4</ele>
        <time>2025-02-26T08:28:28Z</time>
      </trkpt>
      <trkpt lat="48.04998" lon="-3.50546">
        <ele>167.3</ele>
        <time>2025-02-26T08:28:29Z</time>
      </trkpt>
      <trkpt lat="48.04998" lon="-3.50546">
        <ele>167.2</ele>
        <time>2025-02-26T08:28:30Z</time>
      </trkpt>
      <trkpt lat="48.04999" lon="-3.50546">
        <ele>167.1</ele>
        <time>2025-02-26T08:28:31Z</time>
      </trkpt>
      <trkpt lat="48.05" lon="-3.50547">
        <ele>167</ele>
        <time>2025-02-26T08:28:32Z</time>
      </trkpt>
      <trkpt lat="48.05001" lon="-3.50547">
        <ele>166.9</ele>
        <time>2025-02-26T08:28:33Z</time>
      </trkpt>
      <trkpt lat="48.05002" lon="-3.50548">
        <ele>166.9</ele>
        <time>2025-02-26T08:28:34Z</time>
      </trkpt>
      <trkpt lat="48.05003" lon="-3.50548">
        <ele>166.8</ele>
        <time>2025-02-26T08:28:35Z</time>
      </trkpt>
      <trkpt lat="48.05004" lon="-3.50548">
        <ele>166.7</ele>
        <time>2025-02-26T08:28:36Z</time>
      </trkpt>
      <trkpt lat="48.05006" lon="-3.50548">
        <ele>166.6</ele>
        <time>2025-02-26T08:28:37Z</time>
      </trkpt>
      <trkpt lat="48.05007" lon="-3.50549">
        <ele>166.5</ele>
        <time>2025-02-26T08:28:38Z</time>
      </trkpt>
      <trkpt lat="48.05008" lon="-3.5055">
        <ele>166.4</ele>
        <time>2025-02-26T08:28:39Z</time>
      </trkpt>
      <trkpt lat="48.0501" lon="-3.5055">
        <ele>166.3</ele>
        <time>2025-02-26T08:28:40Z</time>
      </trkpt>
      <trkpt lat="48.05011" lon="-3.5055">
        <ele>166.2</ele>
        <time>2025-02-26T08:28:41Z</time>
      </trkpt>
      <trkpt lat="48.05013" lon="-3.50551">
        <ele>166.1</ele>
        <time>2025-02-26T08:28:42Z</time>
      </trkpt>
      <trkpt lat="48.05014" lon="-3.50551">
        <ele>166</ele>
        <time>2025-02-26T08:28:43Z</time>
      </trkpt>
      <trkpt lat="48.05015" lon="-3.50552">
        <ele>165.9</ele>
        <time>2025-02-26T08:28:44Z</time>
      </trkpt>
      <trkpt lat="48.05016" lon="-3.50552">
        <ele>165.8</ele>
        <time>2025-02-26T08:28:45Z</time>
      </trkpt>
      <trkpt lat="48.05017" lon="-3.50553">
        <ele>165.8</ele>
        <time>2025-02-26T08:28:46Z</time>
      </trkpt>
      <trkpt lat="48.05018" lon="-3.50553">
        <ele>165.7</ele>
        <time>2025-02-26T08:28:47Z</time>
      </trkpt>
      <trkpt lat="48.05019" lon="-3.50553">
        <ele>165.6</ele>
        <time>2025-02-26T08:28:48Z</time>
      </trkpt>
      <trkpt lat="48.0502" lon="-3.50554">
        <ele>165.5</ele>
        <time>2025-02-26T08:28:49Z</time>
      </trkpt>
      <trkpt lat="48.05021" lon="-3.50554">
        <ele>165.5</ele>
        <time>2025-02-26T08:28:50Z</time>
      </trkpt>
      <trkpt lat="48.05022" lon="-3.50554">
        <ele>165.4</ele>
        <time>2025-02-26T08:28:51Z</time>
      </trkpt>
      <trkpt lat="48.05023" lon="-3.50555">
        <ele>165.3</ele>
        <time>2025-02-26T08:28:52Z</time>
      </trkpt>
      <trkpt lat="48.05025" lon="-3.50556">
        <ele>165.2</ele>
        <time>2025-02-26T08:28:53Z</time>
      </trkpt>
      <trkpt lat="48.05026" lon="-3.50557">
        <ele>165</ele>
        <time>2025-02-26T08:28:54Z</time>
      </trkpt>
      <trkpt lat="48.05027" lon="-3.50558">
        <ele>164.9</ele>
        <time>2025-02-26T08:28:55Z</time>
      </trkpt>
      <trkpt lat="48.05028" lon="-3.50558">
        <ele>164.8</ele>
        <time>2025-02-26T08:28:56Z</time>
      </trkpt>
      <trkpt lat="48.0503" lon="-3.50558">
        <ele>164.8</ele>
        <time>2025-02-26T08:28:57Z</time>
      </trkpt>
      <trkpt lat="48.05031" lon="-3.50558">
        <ele>164.7</ele>
        <time>2025-02-26T08:28:58Z</time>
      </trkpt>
      <trkpt lat="48.05032" lon="-3.50558">
        <ele>164.7</ele>
        <time>2025-02-26T08:28:59Z</time>
      </trkpt>
      <trkpt lat="48.05033" lon="-3.50558">
        <ele>164.6</ele>
        <time>2025-02-26T08:29:00Z</time>
      </trkpt>
      <trkpt lat="48.05034" lon="-3.5056">
        <ele>164.5</ele>
        <time>2025-02-26T08:29:01Z</time>
      </trkpt>
      <trkpt lat="48.05036" lon="-3.50561">
        <ele>164.5</ele>
        <time>2025-02-26T08:29:02Z</time>
      </trkpt>
      <trkpt lat="48.05037" lon="-3.50561">
        <ele>164.4</ele>
        <time>2025-02-26T08:29:03Z</time>
      </trkpt>
      <trkpt lat="48.05038" lon="-3.50562">
        <ele>164.3</ele>
        <time>2025-02-26T08:29:04Z</time>
      </trkpt>
      <trkpt lat="48.05039" lon="-3.50563">
        <ele>164.3</ele>
        <time>2025-02-26T08:29:05Z</time>
      </trkpt>
      <trkpt lat="48.0504" lon="-3.50563">
        <ele>164.3</ele>
        <time>2025-02-26T08:29:06Z</time>
      </trkpt>
      <trkpt lat="48.05041" lon="-3.50564">
        <ele>164.2</ele>
        <time>2025-02-26T08:29:07Z</time>
      </trkpt>
      <trkpt lat="48.05042" lon="-3.50565">
        <ele>164.2</ele>
        <time>2025-02-26T08:29:08Z</time>
      </trkpt>
      <trkpt lat="48.05043" lon="-3.50566">
        <ele>164.1</ele>
        <time>2025-02-26T08:29:09Z</time>
      </trkpt>
      <trkpt lat="48.05044" lon="-3.50566">
        <ele>164.1</ele>
        <time>2025-02-26T08:29:10Z</time>
      </trkpt>
      <trkpt lat="48.05045" lon="-3.50567">
        <ele>164.1</ele>
        <time>2025-02-26T08:29:11Z</time>
      </trkpt>
      <trkpt lat="48.05046" lon="-3.50567">
        <ele>164.1</ele>
        <time>2025-02-26T08:29:12Z</time>
      </trkpt>
      <trkpt lat="48.05047" lon="-3.50567">
        <ele>164.1</ele>
        <time>2025-02-26T08:29:13Z</time>
      </trkpt>
      <trkpt lat="48.05048" lon="-3.50567">
        <ele>164.1</ele>
        <time>2025-02-26T08:29:14Z</time>
      </trkpt>
      <trkpt lat="48.05049" lon="-3.50566">
        <ele>164.1</ele>
        <time>2025-02-26T08:29:15Z</time>
      </trkpt>
      <trkpt lat="48.0505" lon="-3.50565">
        <ele>164.1</ele>
        <time>2025-02-26T08:29:16Z</time>
      </trkpt>
      <trkpt lat="48.05051" lon="-3.50566">
        <ele>164</ele>
        <time>2025-02-26T08:29:17Z</time>
      </trkpt>
      <trkpt lat="48.05052" lon="-3.50567">
        <ele>164</ele>
        <time>2025-02-26T08:29:18Z</time>
      </trkpt>
      <trkpt lat="48.05053" lon="-3.50568">
        <ele>164</ele>
        <time>2025-02-26T08:29:19Z</time>
      </trkpt>
      <trkpt lat="48.05053" lon="-3.50569">
        <ele>164</ele>
        <time>2025-02-26T08:29:20Z</time>
      </trkpt>
      <trkpt lat="48.05054" lon="-3.50571">
        <ele>164</ele>
        <time>2025-02-26T08:29:21Z</time>
      </trkpt>
      <trkpt lat="48.05054" lon="-3.50572">
        <ele>164</ele>
        <time>2025-02-26T08:29:22Z</time>
      </trkpt>
      <trkpt lat="48.05055" lon="-3.50573">
        <ele>164</ele>
        <time>2025-02-26T08:29:23Z</time>
      </trkpt>
      <trkpt lat="48.05055" lon="-3.50574">
        <ele>164</ele>
        <time>2025-02-26T08:29:24Z</time>
      </trkpt>
      <trkpt lat="48.05056" lon="-3.50575">
        <ele>164</ele>
        <time>2025-02-26T08:29:25Z</time>
      </trkpt>
      <trkpt lat="48.05057" lon="-3.50576">
        <ele>164.1</ele>
        <time>2025-02-26T08:29:26Z</time>
      </trkpt>
      <trkpt lat="48.05058" lon="-3.50577">
        <ele>164.1</ele>
        <time>2025-02-26T08:29:27Z</time>
      </trkpt>
      <trkpt lat="48.05059" lon="-3.50578">
        <ele>164.1</ele>
        <time>2025-02-26T08:29:28Z</time>
      </trkpt>
      <trkpt lat="48.0506" lon="-3.5058">
        <ele>164.2</ele>
        <time>2025-02-26T08:29:29Z</time>
      </trkpt>
      <trkpt lat="48.05061" lon="-3.50581">
        <ele>164.2</ele>
        <time>2025-02-26T08:29:30Z</time>
      </trkpt>
      <trkpt lat="48.05062" lon="-3.50582">
        <ele>164.2</ele>
        <time>2025-02-26T08:29:31Z</time>
      </trkpt>
      <trkpt lat="48.05063" lon="-3.50583">
        <ele>164.3</ele>
        <time>2025-02-26T08:29:32Z</time>
      </trkpt>
      <trkpt lat="48.05064" lon="-3.50583">
        <ele>164.3</ele>
        <time>2025-02-26T08:29:33Z</time>
      </trkpt>
      <trkpt lat="48.05065" lon="-3.50583">
        <ele>164.3</ele>
        <time>2025-02-26T08:29:34Z</time>
      </trkpt>
      <trkpt lat="48.05066" lon="-3.50584">
        <ele>164.4</ele>
        <time>2025-02-26T08:29:35Z</time>
      </trkpt>
      <trkpt lat="48.05067" lon="-3.50585">
        <ele>164.5</ele>
        <time>2025-02-26T08:29:36Z</time>
      </trkpt>
      <trkpt lat="48.05068" lon="-3.50587">
        <ele>164.6</ele>
        <time>2025-02-26T08:29:37Z</time>
      </trkpt>
      <trkpt lat="48.05069" lon="-3.50588">
        <ele>164.6</ele>
        <time>2025-02-26T08:29:38Z</time>
      </trkpt>
      <trkpt lat="48.05069" lon="-3.50589">
        <ele>164.7</ele>
        <time>2025-02-26T08:29:39Z</time>
      </trkpt>
      <trkpt lat="48.05071" lon="-3.5059">
        <ele>164.8</ele>
        <time>2025-02-26T08:29:40Z</time>
      </trkpt>
      <trkpt lat="48.05071" lon="-3.50591">
        <ele>164.8</ele>
        <time>2025-02-26T08:29:41Z</time>
      </trkpt>
      <trkpt lat="48.05072" lon="-3.50591">
        <ele>164.9</ele>
        <time>2025-02-26T08:29:42Z</time>
      </trkpt>
      <trkpt lat="48.05073" lon="-3.50592">
        <ele>165</ele>
        <time>2025-02-26T08:29:43Z</time>
      </trkpt>
      <trkpt lat="48.05073" lon="-3.50593">
        <ele>165</ele>
        <time>2025-02-26T08:29:44Z</time>
      </trkpt>
      <trkpt lat="48.05074" lon="-3.50594">
        <ele>165</ele>
        <time>2025-02-26T08:29:45Z</time>
      </trkpt>
      <trkpt lat="48.05075" lon="-3.50595">
        <ele>165.1</ele>
        <time>2025-02-26T08:29:46Z</time>
      </trkpt>
      <trkpt lat="48.05076" lon="-3.50595">
        <ele>165.1</ele>
        <time>2025-02-26T08:29:47Z</time>
      </trkpt>
      <trkpt lat="48.05077" lon="-3.50596">
        <ele>165.2</ele>
        <time>2025-02-26T08:29:48Z</time>
      </trkpt>
      <trkpt lat="48.05077" lon="-3.50596">
        <ele>165.3</ele>
        <time>2025-02-26T08:29:49Z</time>
      </trkpt>
      <trkpt lat="48.05078" lon="-3.50598">
        <ele>165.3</ele>
        <time>2025-02-26T08:29:50Z</time>
      </trkpt>
      <trkpt lat="48.0508" lon="-3.50598">
        <ele>165.4</ele>
        <time>2025-02-26T08:29:51Z</time>
      </trkpt>
      <trkpt lat="48.05081" lon="-3.50598">
        <ele>165.4</ele>
        <time>2025-02-26T08:29:52Z</time>
      </trkpt>
      <trkpt lat="48.05082" lon="-3.50598">
        <ele>165.5</ele>
        <time>2025-02-26T08:29:53Z</time>
      </trkpt>
      <trkpt lat="48.05083" lon="-3.50599">
        <ele>165.6</ele>
        <time>2025-02-26T08:29:54Z</time>
      </trkpt>
      <trkpt lat="48.05084" lon="-3.50601">
        <ele>165.6</ele>
        <time>2025-02-26T08:29:55Z</time>
      </trkpt>
      <trkpt lat="48.05085" lon="-3.50601">
        <ele>165.7</ele>
        <time>2025-02-26T08:29:56Z</time>
      </trkpt>
      <trkpt lat="48.05086" lon="-3.50602">
        <ele>165.7</ele>
        <time>2025-02-26T08:29:57Z</time>
      </trkpt>
      <trkpt lat="48.05087" lon="-3.50603">
        <ele>165.7</ele>
        <time>2025-02-26T08:29:58Z</time>
      </trkpt>
      <trkpt lat="48.05088" lon="-3.50604">
        <ele>165.8</ele>
        <time>2025-02-26T08:29:59Z</time>
      </trkpt>
      <trkpt lat="48.05089" lon="-3.50604">
        <ele>165.8</ele>
        <time>2025-02-26T08:30:00Z</time>
      </trkpt>
      <trkpt lat="48.0509" lon="-3.50605">
        <ele>165.8</ele>
        <time>2025-02-26T08:30:01Z</time>
      </trkpt>
      <trkpt lat="48.05091" lon="-3.50606">
        <ele>165.9</ele>
        <time>2025-02-26T08:30:02Z</time>
      </trkpt>
      <trkpt lat="48.05092" lon="-3.50606">
        <ele>165.9</ele>
        <time>2025-02-26T08:30:03Z</time>
      </trkpt>
      <trkpt lat="48.05093" lon="-3.50607">
        <ele>165.9</ele>
        <time>2025-02-26T08:30:04Z</time>
      </trkpt>
      <trkpt lat="48.05095" lon="-3.50607">
        <ele>165.9</ele>
        <time>2025-02-26T08:30:05Z</time>
      </trkpt>
      <trkpt lat="48.05096" lon="-3.50608">
        <ele>165.9</ele>
        <time>2025-02-26T08:30:06Z</time>
      </trkpt>
      <trkpt lat="48.05097" lon="-3.50609">
        <ele>166</ele>
        <time>2025-02-26T08:30:07Z</time>
      </trkpt>
      <trkpt lat="48.05097" lon="-3.5061">
        <ele>166</ele>
        <time>2025-02-26T08:30:08Z</time>
      </trkpt>
      <trkpt lat="48.05098" lon="-3.5061">
        <ele>166</ele>
        <time>2025-02-26T08:30:09Z</time>
      </trkpt>
      <trkpt lat="48.051" lon="-3.50611">
        <ele>166</ele>
        <time>2025-02-26T08:30:10Z</time>
      </trkpt>
      <trkpt lat="48.051" lon="-3.50613">
        <ele>166.1</ele>
        <time>2025-02-26T08:30:11Z</time>
      </trkpt>
      <trkpt lat="48.05102" lon="-3.50614">
        <ele>166.1</ele>
        <time>2025-02-26T08:30:12Z</time>
      </trkpt>
      <trkpt lat="48.05103" lon="-3.50614">
        <ele>166.1</ele>
        <time>2025-02-26T08:30:13Z</time>
      </trkpt>
      <trkpt lat="48.05104" lon="-3.50614">
        <ele>166.1</ele>
        <time>2025-02-26T08:30:14Z</time>
      </trkpt>
      <trkpt lat="48.05105" lon="-3.50615">
        <ele>166.1</ele>
        <time>2025-02-26T08:30:15Z</time>
      </trkpt>
      <trkpt lat="48.05106" lon="-3.50616">
        <ele>166.2</ele>
        <time>2025-02-26T08:30:16Z</time>
      </trkpt>
      <trkpt lat="48.05107" lon="-3.50616">
        <ele>166.2</ele>
        <time>2025-02-26T08:30:17Z</time>
      </trkpt>
      <trkpt lat="48.05108" lon="-3.50617">
        <ele>166.2</ele>
        <time>2025-02-26T08:30:18Z</time>
      </trkpt>
      <trkpt lat="48.05109" lon="-3.50618">
        <ele>166.2</ele>
        <time>2025-02-26T08:30:19Z</time>
      </trkpt>
      <trkpt lat="48.0511" lon="-3.50618">
        <ele>166.3</ele>
        <time>2025-02-26T08:30:20Z</time>
      </trkpt>
      <trkpt lat="48.05111" lon="-3.50619">
        <ele>166.3</ele>
        <time>2025-02-26T08:30:21Z</time>
      </trkpt>
      <trkpt lat="48.05112" lon="-3.5062">
        <ele>166.3</ele>
        <time>2025-02-26T08:30:22Z</time>
      </trkpt>
      <trkpt lat="48.05113" lon="-3.50621">
        <ele>166.3</ele>
        <time>2025-02-26T08:30:23Z</time>
      </trkpt>
      <trkpt lat="48.05114" lon="-3.50621">
        <ele>166.4</ele>
        <time>2025-02-26T08:30:24Z</time>
      </trkpt>
      <trkpt lat="48.05115" lon="-3.50622">
        <ele>166.4</ele>
        <time>2025-02-26T08:30:25Z</time>
      </trkpt>
      <trkpt lat="48.05116" lon="-3.50623">
        <ele>166.4</ele>
        <time>2025-02-26T08:30:26Z</time>
      </trkpt>
      <trkpt lat="48.05117" lon="-3.50624">
        <ele>166.5</ele>
        <time>2025-02-26T08:30:27Z</time>
      </trkpt>
      <trkpt lat="48.05118" lon="-3.50625">
        <ele>166.5</ele>
        <time>2025-02-26T08:30:28Z</time>
      </trkpt>
      <trkpt lat="48.05119" lon="-3.50625">
        <ele>166.5</ele>
        <time>2025-02-26T08:30:29Z</time>
      </trkpt>
      <trkpt lat="48.0512" lon="-3.50626">
        <ele>166.5</ele>
        <time>2025-02-26T08:30:30Z</time>
      </trkpt>
      <trkpt lat="48.05121" lon="-3.50627">
        <ele>166.6</ele>
        <time>2025-02-26T08:30:31Z</time>
      </trkpt>
      <trkpt lat="48.05122" lon="-3.50628">
        <ele>166.6</ele>
        <time>2025-02-26T08:30:32Z</time>
      </trkpt>
      <trkpt lat="48.05124" lon="-3.50629">
        <ele>166.6</ele>
        <time>2025-02-26T08:30:33Z</time>
      </trkpt>
      <trkpt lat="48.05125" lon="-3.5063">
        <ele>166.7</ele>
        <time>2025-02-26T08:30:34Z</time>
      </trkpt>
      <trkpt lat="48.05126" lon="-3.50631">
        <ele>166.7</ele>
        <time>2025-02-26T08:30:35Z</time>
      </trkpt>
      <trkpt lat="48.05128" lon="-3.50632">
        <ele>166.8</ele>
        <time>2025-02-26T08:30:36Z</time>
      </trkpt>
      <trkpt lat="48.05129" lon="-3.50632">
        <ele>166.8</ele>
        <time>2025-02-26T08:30:37Z</time>
      </trkpt>
      <trkpt lat="48.0513" lon="-3.50633">
        <ele>166.8</ele>
        <time>2025-02-26T08:30:38Z</time>
      </trkpt>
      <trkpt lat="48.05131" lon="-3.50635">
        <ele>166.9</ele>
        <time>2025-02-26T08:30:39Z</time>
      </trkpt>
      <trkpt lat="48.05132" lon="-3.50636">
        <ele>166.9</ele>
        <time>2025-02-26T08:30:40Z</time>
      </trkpt>
      <trkpt lat="48.05133" lon="-3.50637">
        <ele>166.9</ele>
        <time>2025-02-26T08:30:41Z</time>
      </trkpt>
      <trkpt lat="48.05134" lon="-3.50637">
        <ele>166.9</ele>
        <time>2025-02-26T08:30:42Z</time>
      </trkpt>
      <trkpt lat="48.05135" lon="-3.50639">
        <ele>167</ele>
        <time>2025-02-26T08:30:43Z</time>
      </trkpt>
      <trkpt lat="48.05135" lon="-3.5064">
        <ele>167.1</ele>
        <time>2025-02-26T08:30:44Z</time>
      </trkpt>
      <trkpt lat="48.05136" lon="-3.50641">
        <ele>167.2</ele>
        <time>2025-02-26T08:30:45Z</time>
      </trkpt>
      <trkpt lat="48.05138" lon="-3.50642">
        <ele>167.2</ele>
        <time>2025-02-26T08:30:46Z</time>
      </trkpt>
      <trkpt lat="48.05139" lon="-3.50642">
        <ele>167.2</ele>
        <time>2025-02-26T08:30:47Z</time>
      </trkpt>
      <trkpt lat="48.0514" lon="-3.50643">
        <ele>167.3</ele>
        <time>2025-02-26T08:30:48Z</time>
      </trkpt>
      <trkpt lat="48.05142" lon="-3.50644">
        <ele>167.3</ele>
        <time>2025-02-26T08:30:49Z</time>
      </trkpt>
      <trkpt lat="48.05143" lon="-3.50644">
        <ele>167.3</ele>
        <time>2025-02-26T08:30:50Z</time>
      </trkpt>
      <trkpt lat="48.05144" lon="-3.50645">
        <ele>167.4</ele>
        <time>2025-02-26T08:30:51Z</time>
      </trkpt>
      <trkpt lat="48.05145" lon="-3.50645">
        <ele>167.4</ele>
        <time>2025-02-26T08:30:52Z</time>
      </trkpt>
      <trkpt lat="48.05146" lon="-3.50645">
        <ele>167.4</ele>
        <time>2025-02-26T08:30:53Z</time>
      </trkpt>
      <trkpt lat="48.05148" lon="-3.50646">
        <ele>167.4</ele>
        <time>2025-02-26T08:30:54Z</time>
      </trkpt>
      <trkpt lat="48.05149" lon="-3.50647">
        <ele>167.5</ele>
        <time>2025-02-26T08:30:55Z</time>
      </trkpt>
      <trkpt lat="48.0515" lon="-3.50649">
        <ele>167.6</ele>
        <time>2025-02-26T08:30:56Z</time>
      </trkpt>
      <trkpt lat="48.05151" lon="-3.50649">
        <ele>167.6</ele>
        <time>2025-02-26T08:30:57Z</time>
      </trkpt>
      <trkpt lat="48.05152" lon="-3.50649">
        <ele>167.6</ele>
        <time>2025-02-26T08:30:58Z</time>
      </trkpt>
      <trkpt lat="48.05153" lon="-3.5065">
        <ele>167.6</ele>
        <time>2025-02-26T08:30:59Z</time>
      </trkpt>
      <trkpt lat="48.05154" lon="-3.50651">
        <ele>167.7</ele>
        <time>2025-02-26T08:31:00Z</time>
      </trkpt>
      <trkpt lat="48.05155" lon="-3.50653">
        <ele>167.7</ele>
        <time>2025-02-26T08:31:01Z</time>
      </trkpt>
      <trkpt lat="48.05157" lon="-3.50653">
        <ele>167.7</ele>
        <time>2025-02-26T08:31:02Z</time>
      </trkpt>
      <trkpt lat="48.05158" lon="-3.50654">
        <ele>167.7</ele>
        <time>2025-02-26T08:31:03Z</time>
      </trkpt>
      <trkpt lat="48.05159" lon="-3.50654">
        <ele>167.7</ele>
        <time>2025-02-26T08:31:04Z</time>
      </trkpt>
      <trkpt lat="48.0516" lon="-3.50654">
        <ele>167.7</ele>
        <time>2025-02-26T08:31:05Z</time>
      </trkpt>
      <trkpt lat="48.05161" lon="-3.50656">
        <ele>167.7</ele>
        <time>2025-02-26T08:31:06Z</time>
      </trkpt>
      <trkpt lat="48.05162" lon="-3.50657">
        <ele>167.8</ele>
        <time>2025-02-26T08:31:07Z</time>
      </trkpt>
      <trkpt lat="48.05163" lon="-3.50659">
        <ele>167.8</ele>
        <time>2025-02-26T08:31:08Z</time>
      </trkpt>
      <trkpt lat="48.05164" lon="-3.5066">
        <ele>167.8</ele>
        <time>2025-02-26T08:31:09Z</time>
      </trkpt>
      <trkpt lat="48.05165" lon="-3.5066">
        <ele>167.8</ele>
        <time>2025-02-26T08:31:10Z</time>
      </trkpt>
      <trkpt lat="48.05166" lon="-3.50661">
        <ele>167.8</ele>
        <time>2025-02-26T08:31:11Z</time>
      </trkpt>
      <trkpt lat="48.05167" lon="-3.50662">
        <ele>167.8</ele>
        <time>2025-02-26T08:31:12Z</time>
      </trkpt>
      <trkpt lat="48.05168" lon="-3.50663">
        <ele>167.9</ele>
        <time>2025-02-26T08:31:13Z</time>
      </trkpt>
      <trkpt lat="48.05169" lon="-3.50664">
        <ele>167.9</ele>
        <time>2025-02-26T08:31:14Z</time>
      </trkpt>
      <trkpt lat="48.0517" lon="-3.50666">
        <ele>168</ele>
        <time>2025-02-26T08:31:15Z</time>
      </trkpt>
      <trkpt lat="48.05171" lon="-3.50667">
        <ele>168</ele>
        <time>2025-02-26T08:31:16Z</time>
      </trkpt>
      <trkpt lat="48.05172" lon="-3.50668">
        <ele>168</ele>
        <time>2025-02-26T08:31:17Z</time>
      </trkpt>
      <trkpt lat="48.05173" lon="-3.50668">
        <ele>168</ele>
        <time>2025-02-26T08:31:18Z</time>
      </trkpt>
      <trkpt lat="48.05174" lon="-3.50669">
        <ele>168.1</ele>
        <time>2025-02-26T08:31:19Z</time>
      </trkpt>
      <trkpt lat="48.05175" lon="-3.5067">
        <ele>168.1</ele>
        <time>2025-02-26T08:31:20Z</time>
      </trkpt>
      <trkpt lat="48.05176" lon="-3.50671">
        <ele>168.1</ele>
        <time>2025-02-26T08:31:21Z</time>
      </trkpt>
      <trkpt lat="48.05177" lon="-3.50672">
        <ele>168.1</ele>
        <time>2025-02-26T08:31:22Z</time>
      </trkpt>
      <trkpt lat="48.05178" lon="-3.50673">
        <ele>168.1</ele>
        <time>2025-02-26T08:31:23Z</time>
      </trkpt>
      <trkpt lat="48.05179" lon="-3.50673">
        <ele>168.1</ele>
        <time>2025-02-26T08:31:24Z</time>
      </trkpt>
      <trkpt lat="48.0518" lon="-3.50673">
        <ele>168.1</ele>
        <time>2025-02-26T08:31:25Z</time>
      </trkpt>
      <trkpt lat="48.05181" lon="-3.50673">
        <ele>168.1</ele>
        <time>2025-02-26T08:31:26Z</time>
      </trkpt>
      <trkpt lat="48.05182" lon="-3.50674">
        <ele>168.1</ele>
        <time>2025-02-26T08:31:27Z</time>
      </trkpt>
      <trkpt lat="48.05183" lon="-3.50675">
        <ele>168.1</ele>
        <time>2025-02-26T08:31:28Z</time>
      </trkpt>
      <trkpt lat="48.05184" lon="-3.50676">
        <ele>168.1</ele>
        <time>2025-02-26T08:31:29Z</time>
      </trkpt>
      <trkpt lat="48.05185" lon="-3.50676">
        <ele>168.1</ele>
        <time>2025-02-26T08:31:30Z</time>
      </trkpt>
      <trkpt lat="48.05186" lon="-3.50678">
        <ele>168.1</ele>
        <time>2025-02-26T08:31:31Z</time>
      </trkpt>
      <trkpt lat="48.05187" lon="-3.50678">
        <ele>168.1</ele>
        <time>2025-02-26T08:31:32Z</time>
      </trkpt>
      <trkpt lat="48.05189" lon="-3.50678">
        <ele>168.1</ele>
        <time>2025-02-26T08:31:33Z</time>
      </trkpt>
      <trkpt lat="48.0519" lon="-3.50679">
        <ele>168.1</ele>
        <time>2025-02-26T08:31:34Z</time>
      </trkpt>
      <trkpt lat="48.0519" lon="-3.5068">
        <ele>168.1</ele>
        <time>2025-02-26T08:31:35Z</time>
      </trkpt>
      <trkpt lat="48.05191" lon="-3.50681">
        <ele>168.1</ele>
        <time>2025-02-26T08:31:36Z</time>
      </trkpt>
      <trkpt lat="48.05192" lon="-3.50682">
        <ele>168</ele>
        <time>2025-02-26T08:31:37Z</time>
      </trkpt>
      <trkpt lat="48.05192" lon="-3.50684">
        <ele>168</ele>
        <time>2025-02-26T08:31:38Z</time>
      </trkpt>
      <trkpt lat="48.05194" lon="-3.50685">
        <ele>168</ele>
        <time>2025-02-26T08:31:39Z</time>
      </trkpt>
      <trkpt lat="48.05195" lon="-3.50686">
        <ele>168</ele>
        <time>2025-02-26T08:31:40Z</time>
      </trkpt>
      <trkpt lat="48.05196" lon="-3.50686">
        <ele>168</ele>
        <time>2025-02-26T08:31:41Z</time>
      </trkpt>
      <trkpt lat="48.05197" lon="-3.50686">
        <ele>168.1</ele>
        <time>2025-02-26T08:31:42Z</time>
      </trkpt>
      <trkpt lat="48.05198" lon="-3.50688">
        <ele>168.1</ele>
        <time>2025-02-26T08:31:43Z</time>
      </trkpt>
      <trkpt lat="48.05199" lon="-3.50689">
        <ele>168.1</ele>
        <time>2025-02-26T08:31:44Z</time>
      </trkpt>
      <trkpt lat="48.052" lon="-3.50691">
        <ele>168.2</ele>
        <time>2025-02-26T08:31:45Z</time>
      </trkpt>
      <trkpt lat="48.05201" lon="-3.50693">
        <ele>168.2</ele>
        <time>2025-02-26T08:31:46Z</time>
      </trkpt>
      <trkpt lat="48.05202" lon="-3.50694">
        <ele>168.3</ele>
        <time>2025-02-26T08:31:47Z</time>
      </trkpt>
      <trkpt lat="48.05203" lon="-3.50694">
        <ele>168.3</ele>
        <time>2025-02-26T08:31:48Z</time>
      </trkpt>
      <trkpt lat="48.05204" lon="-3.50694">
        <ele>168.4</ele>
        <time>2025-02-26T08:31:49Z</time>
      </trkpt>
      <trkpt lat="48.05206" lon="-3.50695">
        <ele>168.4</ele>
        <time>2025-02-26T08:31:50Z</time>
      </trkpt>
      <trkpt lat="48.05207" lon="-3.50696">
        <ele>168.5</ele>
        <time>2025-02-26T08:31:51Z</time>
      </trkpt>
      <trkpt lat="48.05208" lon="-3.50696">
        <ele>168.5</ele>
        <time>2025-02-26T08:31:52Z</time>
      </trkpt>
      <trkpt lat="48.05209" lon="-3.50697">
        <ele>168.6</ele>
        <time>2025-02-26T08:31:53Z</time>
      </trkpt>
      <trkpt lat="48.0521" lon="-3.50698">
        <ele>168.6</ele>
        <time>2025-02-26T08:31:54Z</time>
      </trkpt>
      <trkpt lat="48.05211" lon="-3.50698">
        <ele>168.6</ele>
        <time>2025-02-26T08:31:55Z</time>
      </trkpt>
      <trkpt lat="48.05212" lon="-3.50699">
        <ele>168.7</ele>
        <time>2025-02-26T08:31:56Z</time>
      </trkpt>
      <trkpt lat="48.05214" lon="-3.50699">
        <ele>168.7</ele>
        <time>2025-02-26T08:31:57Z</time>
      </trkpt>
      <trkpt lat="48.05214" lon="-3.50701">
        <ele>168.8</ele>
        <time>2025-02-26T08:31:58Z</time>
      </trkpt>
      <trkpt lat="48.05216" lon="-3.50701">
        <ele>168.8</ele>
        <time>2025-02-26T08:31:59Z</time>
      </trkpt>
      <trkpt lat="48.05217" lon="-3.50702">
        <ele>168.9</ele>
        <time>2025-02-26T08:32:00Z</time>
      </trkpt>
      <trkpt lat="48.05218" lon="-3.50702">
        <ele>168.9</ele>
        <time>2025-02-26T08:32:01Z</time>
      </trkpt>
      <trkpt lat="48.05219" lon="-3.50702">
        <ele>168.9</ele>
        <time>2025-02-26T08:32:02Z</time>
      </trkpt>
      <trkpt lat="48.0522" lon="-3.50702">
        <ele>168.9</ele>
        <time>2025-02-26T08:32:03Z</time>
      </trkpt>
      <trkpt lat="48.05221" lon="-3.50703">
        <ele>169</ele>
        <time>2025-02-26T08:32:04Z</time>
      </trkpt>
      <trkpt lat="48.05222" lon="-3.50703">
        <ele>169</ele>
        <time>2025-02-26T08:32:05Z</time>
      </trkpt>
      <trkpt lat="48.05223" lon="-3.50704">
        <ele>169.1</ele>
        <time>2025-02-26T08:32:06Z</time>
      </trkpt>
      <trkpt lat="48.05224" lon="-3.50705">
        <ele>169.1</ele>
        <time>2025-02-26T08:32:07Z</time>
      </trkpt>
      <trkpt lat="48.05225" lon="-3.50705">
        <ele>169.2</ele>
        <time>2025-02-26T08:32:08Z</time>
      </trkpt>
      <trkpt lat="48.05226" lon="-3.50706">
        <ele>169.3</ele>
        <time>2025-02-26T08:32:09Z</time>
      </trkpt>
      <trkpt lat="48.05227" lon="-3.50708">
        <ele>169.4</ele>
        <time>2025-02-26T08:32:10Z</time>
      </trkpt>
      <trkpt lat="48.05229" lon="-3.50708">
        <ele>169.5</ele>
        <time>2025-02-26T08:32:11Z</time>
      </trkpt>
      <trkpt lat="48.05229" lon="-3.50709">
        <ele>169.5</ele>
        <time>2025-02-26T08:32:12Z</time>
      </trkpt>
      <trkpt lat="48.05231" lon="-3.50709">
        <ele>169.6</ele>
        <time>2025-02-26T08:32:13Z</time>
      </trkpt>
      <trkpt lat="48.05232" lon="-3.5071">
        <ele>169.7</ele>
        <time>2025-02-26T08:32:14Z</time>
      </trkpt>
      <trkpt lat="48.05232" lon="-3.50711">
        <ele>169.7</ele>
        <time>2025-02-26T08:32:15Z</time>
      </trkpt>
      <trkpt lat="48.05234" lon="-3.50711">
        <ele>169.8</ele>
        <time>2025-02-26T08:32:16Z</time>
      </trkpt>
      <trkpt lat="48.05235" lon="-3.50713">
        <ele>169.9</ele>
        <time>2025-02-26T08:32:17Z</time>
      </trkpt>
      <trkpt lat="48.05236" lon="-3.50713">
        <ele>170</ele>
        <time>2025-02-26T08:32:18Z</time>
      </trkpt>
      <trkpt lat="48.05237" lon="-3.50714">
        <ele>170</ele>
        <time>2025-02-26T08:32:19Z</time>
      </trkpt>
      <trkpt lat="48.05238" lon="-3.50715">
        <ele>170.1</ele>
        <time>2025-02-26T08:32:20Z</time>
      </trkpt>
      <trkpt lat="48.05239" lon="-3.50716">
        <ele>170.2</ele>
        <time>2025-02-26T08:32:21Z</time>
      </trkpt>
      <trkpt lat="48.0524" lon="-3.50717">
        <ele>170.3</ele>
        <time>2025-02-26T08:32:22Z</time>
      </trkpt>
      <trkpt lat="48.05241" lon="-3.50718">
        <ele>170.3</ele>
        <time>2025-02-26T08:32:23Z</time>
      </trkpt>
      <trkpt lat="48.05241" lon="-3.50719">
        <ele>170.4</ele>
        <time>2025-02-26T08:32:24Z</time>
      </trkpt>
      <trkpt lat="48.05243" lon="-3.50719">
        <ele>170.5</ele>
        <time>2025-02-26T08:32:25Z</time>
      </trkpt>
      <trkpt lat="48.05243" lon="-3.5072">
        <ele>170.5</ele>
        <time>2025-02-26T08:32:26Z</time>
      </trkpt>
      <trkpt lat="48.05244" lon="-3.50721">
        <ele>170.6</ele>
        <time>2025-02-26T08:32:27Z</time>
      </trkpt>
      <trkpt lat="48.05245" lon="-3.50722">
        <ele>170.7</ele>
        <time>2025-02-26T08:32:28Z</time>
      </trkpt>
      <trkpt lat="48.05246" lon="-3.50722">
        <ele>170.7</ele>
        <time>2025-02-26T08:32:29Z</time>
      </trkpt>
      <trkpt lat="48.05247" lon="-3.50723">
        <ele>170.8</ele>
        <time>2025-02-26T08:32:30Z</time>
      </trkpt>
      <trkpt lat="48.05248" lon="-3.50724">
        <ele>170.9</ele>
        <time>2025-02-26T08:32:31Z</time>
      </trkpt>
      <trkpt lat="48.05249" lon="-3.50724">
        <ele>170.9</ele>
        <time>2025-02-26T08:32:32Z</time>
      </trkpt>
      <trkpt lat="48.0525" lon="-3.50725">
        <ele>171</ele>
        <time>2025-02-26T08:32:33Z</time>
      </trkpt>
      <trkpt lat="48.05251" lon="-3.50725">
        <ele>171.1</ele>
        <time>2025-02-26T08:32:34Z</time>
      </trkpt>
      <trkpt lat="48.05252" lon="-3.50726">
        <ele>171.2</ele>
        <time>2025-02-26T08:32:35Z</time>
      </trkpt>
      <trkpt lat="48.05253" lon="-3.50727">
        <ele>171.4</ele>
        <time>2025-02-26T08:32:36Z</time>
      </trkpt>
      <trkpt lat="48.05254" lon="-3.50728">
        <ele>171.5</ele>
        <time>2025-02-26T08:32:37Z</time>
      </trkpt>
      <trkpt lat="48.05255" lon="-3.50728">
        <ele>171.5</ele>
        <time>2025-02-26T08:32:38Z</time>
      </trkpt>
      <trkpt lat="48.05256" lon="-3.5073">
        <ele>171.6</ele>
        <time>2025-02-26T08:32:39Z</time>
      </trkpt>
      <trkpt lat="48.05256" lon="-3.50732">
        <ele>171.7</ele>
        <time>2025-02-26T08:32:40Z</time>
      </trkpt>
      <trkpt lat="48.05257" lon="-3.50733">
        <ele>171.8</ele>
        <time>2025-02-26T08:32:41Z</time>
      </trkpt>
      <trkpt lat="48.05258" lon="-3.50734">
        <ele>171.9</ele>
        <time>2025-02-26T08:32:42Z</time>
      </trkpt>
      <trkpt lat="48.05259" lon="-3.50734">
        <ele>172</ele>
        <time>2025-02-26T08:32:43Z</time>
      </trkpt>
      <trkpt lat="48.0526" lon="-3.50735">
        <ele>172.1</ele>
        <time>2025-02-26T08:32:44Z</time>
      </trkpt>
      <trkpt lat="48.05261" lon="-3.50735">
        <ele>172.2</ele>
        <time>2025-02-26T08:32:45Z</time>
      </trkpt>
      <trkpt lat="48.05262" lon="-3.50736">
        <ele>172.3</ele>
        <time>2025-02-26T08:32:46Z</time>
      </trkpt>
      <trkpt lat="48.05263" lon="-3.50738">
        <ele>172.4</ele>
        <time>2025-02-26T08:32:47Z</time>
      </trkpt>
      <trkpt lat="48.05263" lon="-3.50738">
        <ele>172.4</ele>
        <time>2025-02-26T08:32:48Z</time>
      </trkpt>
      <trkpt lat="48.05264" lon="-3.5074">
        <ele>172.5</ele>
        <time>2025-02-26T08:32:49Z</time>
      </trkpt>
      <trkpt lat="48.05265" lon="-3.50741">
        <ele>172.6</ele>
        <time>2025-02-26T08:32:50Z</time>
      </trkpt>
      <trkpt lat="48.05266" lon="-3.50741">
        <ele>172.7</ele>
        <time>2025-02-26T08:32:51Z</time>
      </trkpt>
      <trkpt lat="48.05267" lon="-3.50742">
        <ele>172.8</ele>
        <time>2025-02-26T08:32:52Z</time>
      </trkpt>
      <trkpt lat="48.05267" lon="-3.50743">
        <ele>172.9</ele>
        <time>2025-02-26T08:32:53Z</time>
      </trkpt>
      <trkpt lat="48.05268" lon="-3.50744">
        <ele>173</ele>
        <time>2025-02-26T08:32:54Z</time>
      </trkpt>
      <trkpt lat="48.05269" lon="-3.50745">
        <ele>173</ele>
        <time>2025-02-26T08:32:55Z</time>
      </trkpt>
      <trkpt lat="48.0527" lon="-3.50746">
        <ele>173.1</ele>
        <time>2025-02-26T08:32:56Z</time>
      </trkpt>
      <trkpt lat="48.05271" lon="-3.50747">
        <ele>173.2</ele>
        <time>2025-02-26T08:32:57Z</time>
      </trkpt>
      <trkpt lat="48.05272" lon="-3.50748">
        <ele>173.3</ele>
        <time>2025-02-26T08:32:58Z</time>
      </trkpt>
      <trkpt lat="48.05272" lon="-3.50749">
        <ele>173.4</ele>
        <time>2025-02-26T08:32:59Z</time>
      </trkpt>
      <trkpt lat="48.05273" lon="-3.5075">
        <ele>173.5</ele>
        <time>2025-02-26T08:33:00Z</time>
      </trkpt>
      <trkpt lat="48.05273" lon="-3.50751">
        <ele>173.5</ele>
        <time>2025-02-26T08:33:01Z</time>
      </trkpt>
      <trkpt lat="48.05274" lon="-3.50752">
        <ele>173.6</ele>
        <time>2025-02-26T08:33:02Z</time>
      </trkpt>
      <trkpt lat="48.05275" lon="-3.50752">
        <ele>173.7</ele>
        <time>2025-02-26T08:33:03Z</time>
      </trkpt>
      <trkpt lat="48.05276" lon="-3.50753">
        <ele>173.8</ele>
        <time>2025-02-26T08:33:04Z</time>
      </trkpt>
      <trkpt lat="48.05277" lon="-3.50753">
        <ele>173.9</ele>
        <time>2025-02-26T08:33:05Z</time>
      </trkpt>
      <trkpt lat="48.05278" lon="-3.50754">
        <ele>174</ele>
        <time>2025-02-26T08:33:06Z</time>
      </trkpt>
      <trkpt lat="48.05279" lon="-3.50754">
        <ele>174.1</ele>
        <time>2025-02-26T08:33:07Z</time>
      </trkpt>
      <trkpt lat="48.0528" lon="-3.50755">
        <ele>174.2</ele>
        <time>2025-02-26T08:33:08Z</time>
      </trkpt>
      <trkpt lat="48.05281" lon="-3.50756">
        <ele>174.2</ele>
        <time>2025-02-26T08:33:09Z</time>
      </trkpt>
      <trkpt lat="48.05282" lon="-3.50756">
        <ele>174.3</ele>
        <time>2025-02-26T08:33:10Z</time>
      </trkpt>
      <trkpt lat="48.05283" lon="-3.50756">
        <ele>174.4</ele>
        <time>2025-02-26T08:33:11Z</time>
      </trkpt>
      <trkpt lat="48.05284" lon="-3.50757">
        <ele>174.5</ele>
        <time>2025-02-26T08:33:12Z</time>
      </trkpt>
      <trkpt lat="48.05285" lon="-3.50758">
        <ele>174.5</ele>
        <time>2025-02-26T08:33:13Z</time>
      </trkpt>
      <trkpt lat="48.05286" lon="-3.50757">
        <ele>174.6</ele>
        <time>2025-02-26T08:33:14Z</time>
      </trkpt>
      <trkpt lat="48.05287" lon="-3.50758">
        <ele>174.7</ele>
        <time>2025-02-26T08:33:15Z</time>
      </trkpt>
      <trkpt lat="48.05288" lon="-3.50758">
        <ele>174.8</ele>
        <time>2025-02-26T08:33:16Z</time>
      </trkpt>
      <trkpt lat="48.05289" lon="-3.50759">
        <ele>174.9</ele>
        <time>2025-02-26T08:33:17Z</time>
      </trkpt>
      <trkpt lat="48.05289" lon="-3.50759">
        <ele>175</ele>
        <time>2025-02-26T08:33:18Z</time>
      </trkpt>
      <trkpt lat="48.05291" lon="-3.50759">
        <ele>175.1</ele>
        <time>2025-02-26T08:33:19Z</time>
      </trkpt>
      <trkpt lat="48.05292" lon="-3.5076">
        <ele>175.2</ele>
        <time>2025-02-26T08:33:20Z</time>
      </trkpt>
      <trkpt lat="48.05293" lon="-3.5076">
        <ele>175.3</ele>
        <time>2025-02-26T08:33:21Z</time>
      </trkpt>
      <trkpt lat="48.05294" lon="-3.50761">
        <ele>175.4</ele>
        <time>2025-02-26T08:33:22Z</time>
      </trkpt>
      <trkpt lat="48.05295" lon="-3.50761">
        <ele>175.4</ele>
        <time>2025-02-26T08:33:23Z</time>
      </trkpt>
      <trkpt lat="48.05295" lon="-3.50762">
        <ele>175.5</ele>
        <time>2025-02-26T08:33:24Z</time>
      </trkpt>
      <trkpt lat="48.05296" lon="-3.50763">
        <ele>175.6</ele>
        <time>2025-02-26T08:33:25Z</time>
      </trkpt>
      <trkpt lat="48.05297" lon="-3.50763">
        <ele>175.7</ele>
        <time>2025-02-26T08:33:26Z</time>
      </trkpt>
      <trkpt lat="48.05298" lon="-3.50763">
        <ele>175.8</ele>
        <time>2025-02-26T08:33:27Z</time>
      </trkpt>
      <trkpt lat="48.05299" lon="-3.50764">
        <ele>175.9</ele>
        <time>2025-02-26T08:33:28Z</time>
      </trkpt>
      <trkpt lat="48.053" lon="-3.50764">
        <ele>176</ele>
        <time>2025-02-26T08:33:29Z</time>
      </trkpt>
      <trkpt lat="48.05301" lon="-3.50766">
        <ele>176.1</ele>
        <time>2025-02-26T08:33:30Z</time>
      </trkpt>
      <trkpt lat="48.05302" lon="-3.50767">
        <ele>176.2</ele>
        <time>2025-02-26T08:33:31Z</time>
      </trkpt>
      <trkpt lat="48.05303" lon="-3.50768">
        <ele>176.3</ele>
        <time>2025-02-26T08:33:32Z</time>
      </trkpt>
      <trkpt lat="48.05303" lon="-3.50768">
        <ele>176.5</ele>
        <time>2025-02-26T08:33:33Z</time>
      </trkpt>
      <trkpt lat="48.05304" lon="-3.5077">
        <ele>176.6</ele>
        <time>2025-02-26T08:33:34Z</time>
      </trkpt>
      <trkpt lat="48.05305" lon="-3.50771">
        <ele>176.7</ele>
        <time>2025-02-26T08:33:35Z</time>
      </trkpt>
      <trkpt lat="48.05306" lon="-3.50773">
        <ele>176.8</ele>
        <time>2025-02-26T08:33:36Z</time>
      </trkpt>
      <trkpt lat="48.05307" lon="-3.50773">
        <ele>176.9</ele>
        <time>2025-02-26T08:33:37Z</time>
      </trkpt>
      <trkpt lat="48.05307" lon="-3.50774">
        <ele>176.9</ele>
        <time>2025-02-26T08:33:38Z</time>
      </trkpt>
      <trkpt lat="48.05309" lon="-3.50775">
        <ele>177</ele>
        <time>2025-02-26T08:33:39Z</time>
      </trkpt>
      <trkpt lat="48.0531" lon="-3.50776">
        <ele>177.1</ele>
        <time>2025-02-26T08:33:40Z</time>
      </trkpt>
      <trkpt lat="48.05311" lon="-3.50776">
        <ele>177.1</ele>
        <time>2025-02-26T08:33:41Z</time>
      </trkpt>
      <trkpt lat="48.05312" lon="-3.50777">
        <ele>177.2</ele>
        <time>2025-02-26T08:33:42Z</time>
      </trkpt>
      <trkpt lat="48.05312" lon="-3.50778">
        <ele>177.2</ele>
        <time>2025-02-26T08:33:43Z</time>
      </trkpt>
      <trkpt lat="48.05313" lon="-3.50778">
        <ele>177.3</ele>
        <time>2025-02-26T08:33:44Z</time>
      </trkpt>
      <trkpt lat="48.05314" lon="-3.50778">
        <ele>177.3</ele>
        <time>2025-02-26T08:33:45Z</time>
      </trkpt>
      <trkpt lat="48.05316" lon="-3.50779">
        <ele>177.4</ele>
        <time>2025-02-26T08:33:46Z</time>
      </trkpt>
      <trkpt lat="48.05317" lon="-3.50779">
        <ele>177.4</ele>
        <time>2025-02-26T08:33:47Z</time>
      </trkpt>
      <trkpt lat="48.05318" lon="-3.5078">
        <ele>177.5</ele>
        <time>2025-02-26T08:33:48Z</time>
      </trkpt>
      <trkpt lat="48.05319" lon="-3.50782">
        <ele>177.5</ele>
        <time>2025-02-26T08:33:49Z</time>
      </trkpt>
      <trkpt lat="48.0532" lon="-3.50783">
        <ele>177.6</ele>
        <time>2025-02-26T08:33:50Z</time>
      </trkpt>
      <trkpt lat="48.05321" lon="-3.50783">
        <ele>177.7</ele>
        <time>2025-02-26T08:33:51Z</time>
      </trkpt>
      <trkpt lat="48.05322" lon="-3.50784">
        <ele>177.7</ele>
        <time>2025-02-26T08:33:52Z</time>
      </trkpt>
      <trkpt lat="48.05324" lon="-3.50785">
        <ele>177.8</ele>
        <time>2025-02-26T08:33:53Z</time>
      </trkpt>
      <trkpt lat="48.05325" lon="-3.50785">
        <ele>177.9</ele>
        <time>2025-02-26T08:33:54Z</time>
      </trkpt>
      <trkpt lat="48.05326" lon="-3.50786">
        <ele>178</ele>
        <time>2025-02-26T08:33:55Z</time>
      </trkpt>
      <trkpt lat="48.05327" lon="-3.50788">
        <ele>178</ele>
        <time>2025-02-26T08:33:56Z</time>
      </trkpt>
      <trkpt lat="48.05327" lon="-3.5079">
        <ele>178.1</ele>
        <time>2025-02-26T08:33:57Z</time>
      </trkpt>
      <trkpt lat="48.05328" lon="-3.50791">
        <ele>178.2</ele>
        <time>2025-02-26T08:33:58Z</time>
      </trkpt>
      <trkpt lat="48.05329" lon="-3.50792">
        <ele>178.3</ele>
        <time>2025-02-26T08:33:59Z</time>
      </trkpt>
      <trkpt lat="48.0533" lon="-3.50793">
        <ele>178.3</ele>
        <time>2025-02-26T08:34:00Z</time>
      </trkpt>
      <trkpt lat="48.05331" lon="-3.50794">
        <ele>178.4</ele>
        <time>2025-02-26T08:34:01Z</time>
      </trkpt>
      <trkpt lat="48.05331" lon="-3.50795">
        <ele>178.5</ele>
        <time>2025-02-26T08:34:02Z</time>
      </trkpt>
      <trkpt lat="48.05332" lon="-3.50796">
        <ele>178.6</ele>
        <time>2025-02-26T08:34:03Z</time>
      </trkpt>
      <trkpt lat="48.05333" lon="-3.50797">
        <ele>178.7</ele>
        <time>2025-02-26T08:34:04Z</time>
      </trkpt>
      <trkpt lat="48.05334" lon="-3.50798">
        <ele>178.7</ele>
        <time>2025-02-26T08:34:05Z</time>
      </trkpt>
      <trkpt lat="48.05335" lon="-3.50799">
        <ele>178.8</ele>
        <time>2025-02-26T08:34:06Z</time>
      </trkpt>
      <trkpt lat="48.05336" lon="-3.50799">
        <ele>178.9</ele>
        <time>2025-02-26T08:34:07Z</time>
      </trkpt>
      <trkpt lat="48.05337" lon="-3.508">
        <ele>179</ele>
        <time>2025-02-26T08:34:08Z</time>
      </trkpt>
      <trkpt lat="48.05337" lon="-3.50802">
        <ele>179</ele>
        <time>2025-02-26T08:34:09Z</time>
      </trkpt>
      <trkpt lat="48.05338" lon="-3.50803">
        <ele>179.1</ele>
        <time>2025-02-26T08:34:10Z</time>
      </trkpt>
      <trkpt lat="48.05339" lon="-3.50804">
        <ele>179.2</ele>
        <time>2025-02-26T08:34:11Z</time>
      </trkpt>
      <trkpt lat="48.0534" lon="-3.50804">
        <ele>179.2</ele>
        <time>2025-02-26T08:34:12Z</time>
      </trkpt>
      <trkpt lat="48.0534" lon="-3.50805">
        <ele>179.2</ele>
        <time>2025-02-26T08:34:13Z</time>
      </trkpt>
      <trkpt lat="48.05342" lon="-3.50806">
        <ele>179.3</ele>
        <time>2025-02-26T08:34:14Z</time>
      </trkpt>
      <trkpt lat="48.05343" lon="-3.50806">
        <ele>179.3</ele>
        <time>2025-02-26T08:34:15Z</time>
      </trkpt>
      <trkpt lat="48.05344" lon="-3.50807">
        <ele>179.4</ele>
        <time>2025-02-26T08:34:16Z</time>
      </trkpt>
      <trkpt lat="48.05345" lon="-3.50808">
        <ele>179.4</ele>
        <time>2025-02-26T08:34:17Z</time>
      </trkpt>
      <trkpt lat="48.05346" lon="-3.50808">
        <ele>179.5</ele>
        <time>2025-02-26T08:34:18Z</time>
      </trkpt>
      <trkpt lat="48.05347" lon="-3.50809">
        <ele>179.6</ele>
        <time>2025-02-26T08:34:19Z</time>
      </trkpt>
      <trkpt lat="48.05348" lon="-3.5081">
        <ele>179.6</ele>
        <time>2025-02-26T08:34:20Z</time>
      </trkpt>
      <trkpt lat="48.05349" lon="-3.50811">
        <ele>179.7</ele>
        <time>2025-02-26T08:34:21Z</time>
      </trkpt>
      <trkpt lat="48.0535" lon="-3.50812">
        <ele>179.7</ele>
        <time>2025-02-26T08:34:22Z</time>
      </trkpt>
      <trkpt lat="48.05351" lon="-3.50812">
        <ele>179.8</ele>
        <time>2025-02-26T08:34:23Z</time>
      </trkpt>
      <trkpt lat="48.05352" lon="-3.50813">
        <ele>179.8</ele>
        <time>2025-02-26T08:34:24Z</time>
      </trkpt>
      <trkpt lat="48.05353" lon="-3.50814">
        <ele>179.9</ele>
        <time>2025-02-26T08:34:25Z</time>
      </trkpt>
      <trkpt lat="48.05354" lon="-3.50814">
        <ele>180</ele>
        <time>2025-02-26T08:34:26Z</time>
      </trkpt>
      <trkpt lat="48.05355" lon="-3.50813">
        <ele>180</ele>
        <time>2025-02-26T08:34:27Z</time>
      </trkpt>
      <trkpt lat="48.05356" lon="-3.50814">
        <ele>180.1</ele>
        <time>2025-02-26T08:34:28Z</time>
      </trkpt>
      <trkpt lat="48.05357" lon="-3.50815">
        <ele>180.2</ele>
        <time>2025-02-26T08:34:29Z</time>
      </trkpt>
      <trkpt lat="48.05359" lon="-3.50816">
        <ele>180.2</ele>
        <time>2025-02-26T08:34:30Z</time>
      </trkpt>
      <trkpt lat="48.0536" lon="-3.50817">
        <ele>180.3</ele>
        <time>2025-02-26T08:34:31Z</time>
      </trkpt>
      <trkpt lat="48.0536" lon="-3.50818">
        <ele>180.4</ele>
        <time>2025-02-26T08:34:32Z</time>
      </trkpt>
      <trkpt lat="48.05362" lon="-3.50818">
        <ele>180.5</ele>
        <time>2025-02-26T08:34:33Z</time>
      </trkpt>
      <trkpt lat="48.05364" lon="-3.50818">
        <ele>180.5</ele>
        <time>2025-02-26T08:34:34Z</time>
      </trkpt>
      <trkpt lat="48.05365" lon="-3.50817">
        <ele>180.6</ele>
        <time>2025-02-26T08:34:35Z</time>
      </trkpt>
      <trkpt lat="48.05366" lon="-3.50818">
        <ele>180.6</ele>
        <time>2025-02-26T08:34:36Z</time>
      </trkpt>
      <trkpt lat="48.05367" lon="-3.50818">
        <ele>180.7</ele>
        <time>2025-02-26T08:34:37Z</time>
      </trkpt>
      <trkpt lat="48.05368" lon="-3.5082">
        <ele>180.8</ele>
        <time>2025-02-26T08:34:38Z</time>
      </trkpt>
      <trkpt lat="48.05369" lon="-3.50821">
        <ele>180.8</ele>
        <time>2025-02-26T08:34:39Z</time>
      </trkpt>
      <trkpt lat="48.0537" lon="-3.50822">
        <ele>180.9</ele>
        <time>2025-02-26T08:34:40Z</time>
      </trkpt>
      <trkpt lat="48.05371" lon="-3.50823">
        <ele>181</ele>
        <time>2025-02-26T08:34:41Z</time>
      </trkpt>
      <trkpt lat="48.05372" lon="-3.50823">
        <ele>181</ele>
        <time>2025-02-26T08:34:42Z</time>
      </trkpt>
      <trkpt lat="48.05373" lon="-3.50824">
        <ele>181.1</ele>
        <time>2025-02-26T08:34:43Z</time>
      </trkpt>
      <trkpt lat="48.05374" lon="-3.50825">
        <ele>181.2</ele>
        <time>2025-02-26T08:34:44Z</time>
      </trkpt>
      <trkpt lat="48.05375" lon="-3.50826">
        <ele>181.2</ele>
        <time>2025-02-26T08:34:45Z</time>
      </trkpt>
      <trkpt lat="48.05376" lon="-3.50826">
        <ele>181.3</ele>
        <time>2025-02-26T08:34:46Z</time>
      </trkpt>
      <trkpt lat="48.05377" lon="-3.50827">
        <ele>181.3</ele>
        <time>2025-02-26T08:34:47Z</time>
      </trkpt>
      <trkpt lat="48.05378" lon="-3.50828">
        <ele>181.4</ele>
        <time>2025-02-26T08:34:48Z</time>
      </trkpt>
      <trkpt lat="48.05379" lon="-3.50829">
        <ele>181.5</ele>
        <time>2025-02-26T08:34:49Z</time>
      </trkpt>
      <trkpt lat="48.05379" lon="-3.50831">
        <ele>181.6</ele>
        <time>2025-02-26T08:34:50Z</time>
      </trkpt>
      <trkpt lat="48.0538" lon="-3.50832">
        <ele>181.6</ele>
        <time>2025-02-26T08:34:51Z</time>
      </trkpt>
      <trkpt lat="48.05381" lon="-3.50833">
        <ele>181.7</ele>
        <time>2025-02-26T08:34:52Z</time>
      </trkpt>
      <trkpt lat="48.05381" lon="-3.50835">
        <ele>181.8</ele>
        <time>2025-02-26T08:34:53Z</time>
      </trkpt>
      <trkpt lat="48.05382" lon="-3.50836">
        <ele>181.8</ele>
        <time>2025-02-26T08:34:54Z</time>
      </trkpt>
      <trkpt lat="48.05383" lon="-3.50837">
        <ele>181.9</ele>
        <time>2025-02-26T08:34:55Z</time>
      </trkpt>
      <trkpt lat="48.05384" lon="-3.50838">
        <ele>182</ele>
        <time>2025-02-26T08:34:56Z</time>
      </trkpt>
      <trkpt lat="48.05385" lon="-3.50839">
        <ele>182</ele>
        <time>2025-02-26T08:34:57Z</time>
      </trkpt>
      <trkpt lat="48.05385" lon="-3.50841">
        <ele>182.1</ele>
        <time>2025-02-26T08:34:58Z</time>
      </trkpt>
      <trkpt lat="48.05386" lon="-3.50842">
        <ele>182.2</ele>
        <time>2025-02-26T08:34:59Z</time>
      </trkpt>
      <trkpt lat="48.05387" lon="-3.50844">
        <ele>182.3</ele>
        <time>2025-02-26T08:35:00Z</time>
      </trkpt>
      <trkpt lat="48.05388" lon="-3.50845">
        <ele>182.4</ele>
        <time>2025-02-26T08:35:01Z</time>
      </trkpt>
      <trkpt lat="48.05388" lon="-3.50847">
        <ele>182.4</ele>
        <time>2025-02-26T08:35:02Z</time>
      </trkpt>
      <trkpt lat="48.05389" lon="-3.50848">
        <ele>182.5</ele>
        <time>2025-02-26T08:35:03Z</time>
      </trkpt>
      <trkpt lat="48.05391" lon="-3.50849">
        <ele>182.6</ele>
        <time>2025-02-26T08:35:04Z</time>
      </trkpt>
      <trkpt lat="48.05392" lon="-3.5085">
        <ele>182.6</ele>
        <time>2025-02-26T08:35:05Z</time>
      </trkpt>
      <trkpt lat="48.05392" lon="-3.50852">
        <ele>182.7</ele>
        <time>2025-02-26T08:35:06Z</time>
      </trkpt>
      <trkpt lat="48.05393" lon="-3.50853">
        <ele>182.8</ele>
        <time>2025-02-26T08:35:07Z</time>
      </trkpt>
      <trkpt lat="48.05394" lon="-3.50854">
        <ele>182.8</ele>
        <time>2025-02-26T08:35:08Z</time>
      </trkpt>
      <trkpt lat="48.05395" lon="-3.50855">
        <ele>182.8</ele>
        <time>2025-02-26T08:35:09Z</time>
      </trkpt>
      <trkpt lat="48.05396" lon="-3.50856">
        <ele>182.9</ele>
        <time>2025-02-26T08:35:10Z</time>
      </trkpt>
      <trkpt lat="48.05396" lon="-3.50857">
        <ele>182.9</ele>
        <time>2025-02-26T08:35:11Z</time>
      </trkpt>
      <trkpt lat="48.05397" lon="-3.50858">
        <ele>182.9</ele>
        <time>2025-02-26T08:35:12Z</time>
      </trkpt>
      <trkpt lat="48.05398" lon="-3.50859">
        <ele>182.9</ele>
        <time>2025-02-26T08:35:13Z</time>
      </trkpt>
      <trkpt lat="48.05399" lon="-3.5086">
        <ele>183</ele>
        <time>2025-02-26T08:35:14Z</time>
      </trkpt>
      <trkpt lat="48.054" lon="-3.5086">
        <ele>183</ele>
        <time>2025-02-26T08:35:15Z</time>
      </trkpt>
      <trkpt lat="48.05401" lon="-3.50861">
        <ele>183</ele>
        <time>2025-02-26T08:35:16Z</time>
      </trkpt>
      <trkpt lat="48.05402" lon="-3.50862">
        <ele>183</ele>
        <time>2025-02-26T08:35:17Z</time>
      </trkpt>
      <trkpt lat="48.05403" lon="-3.50863">
        <ele>183</ele>
        <time>2025-02-26T08:35:18Z</time>
      </trkpt>
      <trkpt lat="48.05404" lon="-3.50863">
        <ele>183</ele>
        <time>2025-02-26T08:35:19Z</time>
      </trkpt>
      <trkpt lat="48.05405" lon="-3.50864">
        <ele>183</ele>
        <time>2025-02-26T08:35:20Z</time>
      </trkpt>
      <trkpt lat="48.05405" lon="-3.50864">
        <ele>183</ele>
        <time>2025-02-26T08:35:21Z</time>
      </trkpt>
      <trkpt lat="48.05406" lon="-3.50865">
        <ele>183</ele>
        <time>2025-02-26T08:35:22Z</time>
      </trkpt>
      <trkpt lat="48.05407" lon="-3.50866">
        <ele>182.9</ele>
        <time>2025-02-26T08:35:23Z</time>
      </trkpt>
      <trkpt lat="48.05408" lon="-3.50867">
        <ele>182.9</ele>
        <time>2025-02-26T08:35:24Z</time>
      </trkpt>
      <trkpt lat="48.05409" lon="-3.50868">
        <ele>182.9</ele>
        <time>2025-02-26T08:35:25Z</time>
      </trkpt>
      <trkpt lat="48.0541" lon="-3.50868">
        <ele>182.9</ele>
        <time>2025-02-26T08:35:26Z</time>
      </trkpt>
      <trkpt lat="48.0541" lon="-3.50869">
        <ele>182.9</ele>
        <time>2025-02-26T08:35:27Z</time>
      </trkpt>
      <trkpt lat="48.05411" lon="-3.50871">
        <ele>182.9</ele>
        <time>2025-02-26T08:35:28Z</time>
      </trkpt>
      <trkpt lat="48.05411" lon="-3.50872">
        <ele>182.9</ele>
        <time>2025-02-26T08:35:29Z</time>
      </trkpt>
      <trkpt lat="48.05411" lon="-3.50874">
        <ele>182.9</ele>
        <time>2025-02-26T08:35:30Z</time>
      </trkpt>
      <trkpt lat="48.05411" lon="-3.50875">
        <ele>182.9</ele>
        <time>2025-02-26T08:35:31Z</time>
      </trkpt>
      <trkpt lat="48.05412" lon="-3.50876">
        <ele>182.9</ele>
        <time>2025-02-26T08:35:32Z</time>
      </trkpt>
      <trkpt lat="48.05412" lon="-3.50876">
        <ele>182.9</ele>
        <time>2025-02-26T08:35:33Z</time>
      </trkpt>
      <trkpt lat="48.05413" lon="-3.50878">
        <ele>182.9</ele>
        <time>2025-02-26T08:35:34Z</time>
      </trkpt>
      <trkpt lat="48.05413" lon="-3.50879">
        <ele>182.9</ele>
        <time>2025-02-26T08:35:35Z</time>
      </trkpt>
      <trkpt lat="48.05414" lon="-3.5088">
        <ele>182.9</ele>
        <time>2025-02-26T08:35:36Z</time>
      </trkpt>
      <trkpt lat="48.05415" lon="-3.50882">
        <ele>183</ele>
        <time>2025-02-26T08:35:37Z</time>
      </trkpt>
      <trkpt lat="48.05416" lon="-3.50883">
        <ele>183</ele>
        <time>2025-02-26T08:35:38Z</time>
      </trkpt>
      <trkpt lat="48.05417" lon="-3.50884">
        <ele>183</ele>
        <time>2025-02-26T08:35:39Z</time>
      </trkpt>
      <trkpt lat="48.05418" lon="-3.50885">
        <ele>183.1</ele>
        <time>2025-02-26T08:35:40Z</time>
      </trkpt>
      <trkpt lat="48.05419" lon="-3.50886">
        <ele>183.1</ele>
        <time>2025-02-26T08:35:41Z</time>
      </trkpt>
      <trkpt lat="48.0542" lon="-3.50888">
        <ele>183.1</ele>
        <time>2025-02-26T08:35:42Z</time>
      </trkpt>
      <trkpt lat="48.0542" lon="-3.50889">
        <ele>183.1</ele>
        <time>2025-02-26T08:35:43Z</time>
      </trkpt>
      <trkpt lat="48.05421" lon="-3.5089">
        <ele>183.1</ele>
        <time>2025-02-26T08:35:44Z</time>
      </trkpt>
      <trkpt lat="48.05422" lon="-3.50892">
        <ele>183.1</ele>
        <time>2025-02-26T08:35:45Z</time>
      </trkpt>
      <trkpt lat="48.05422" lon="-3.50893">
        <ele>183</ele>
        <time>2025-02-26T08:35:46Z</time>
      </trkpt>
      <trkpt lat="48.05423" lon="-3.50895">
        <ele>183</ele>
        <time>2025-02-26T08:35:47Z</time>
      </trkpt>
      <trkpt lat="48.05424" lon="-3.50897">
        <ele>182.9</ele>
        <time>2025-02-26T08:35:48Z</time>
      </trkpt>
      <trkpt lat="48.05425" lon="-3.50899">
        <ele>182.9</ele>
        <time>2025-02-26T08:35:49Z</time>
      </trkpt>
      <trkpt lat="48.05426" lon="-3.50901">
        <ele>182.9</ele>
        <time>2025-02-26T08:35:50Z</time>
      </trkpt>
      <trkpt lat="48.05427" lon="-3.50902">
        <ele>182.9</ele>
        <time>2025-02-26T08:35:51Z</time>
      </trkpt>
      <trkpt lat="48.05428" lon="-3.50904">
        <ele>182.9</ele>
        <time>2025-02-26T08:35:52Z</time>
      </trkpt>
      <trkpt lat="48.05429" lon="-3.50905">
        <ele>182.8</ele>
        <time>2025-02-26T08:35:53Z</time>
      </trkpt>
      <trkpt lat="48.0543" lon="-3.50907">
        <ele>182.8</ele>
        <time>2025-02-26T08:35:54Z</time>
      </trkpt>
      <trkpt lat="48.05431" lon="-3.50909">
        <ele>182.8</ele>
        <time>2025-02-26T08:35:55Z</time>
      </trkpt>
      <trkpt lat="48.05432" lon="-3.50909">
        <ele>182.8</ele>
        <time>2025-02-26T08:35:56Z</time>
      </trkpt>
      <trkpt lat="48.05433" lon="-3.50911">
        <ele>182.8</ele>
        <time>2025-02-26T08:35:57Z</time>
      </trkpt>
      <trkpt lat="48.05433" lon="-3.50913">
        <ele>182.7</ele>
        <time>2025-02-26T08:35:58Z</time>
      </trkpt>
      <trkpt lat="48.05435" lon="-3.50914">
        <ele>182.7</ele>
        <time>2025-02-26T08:35:59Z</time>
      </trkpt>
      <trkpt lat="48.05435" lon="-3.50915">
        <ele>182.7</ele>
        <time>2025-02-26T08:36:00Z</time>
      </trkpt>
      <trkpt lat="48.05436" lon="-3.50916">
        <ele>182.7</ele>
        <time>2025-02-26T08:36:01Z</time>
      </trkpt>
      <trkpt lat="48.05437" lon="-3.50918">
        <ele>182.7</ele>
        <time>2025-02-26T08:36:02Z</time>
      </trkpt>
      <trkpt lat="48.05437" lon="-3.50919">
        <ele>182.6</ele>
        <time>2025-02-26T08:36:03Z</time>
      </trkpt>
      <trkpt lat="48.05438" lon="-3.5092">
        <ele>182.6</ele>
        <time>2025-02-26T08:36:04Z</time>
      </trkpt>
      <trkpt lat="48.05439" lon="-3.50921">
        <ele>182.6</ele>
        <time>2025-02-26T08:36:05Z</time>
      </trkpt>
      <trkpt lat="48.0544" lon="-3.50921">
        <ele>182.7</ele>
        <time>2025-02-26T08:36:06Z</time>
      </trkpt>
      <trkpt lat="48.05441" lon="-3.50923">
        <ele>182.6</ele>
        <time>2025-02-26T08:36:07Z</time>
      </trkpt>
      <trkpt lat="48.05441" lon="-3.50925">
        <ele>182.6</ele>
        <time>2025-02-26T08:36:08Z</time>
      </trkpt>
      <trkpt lat="48.05442" lon="-3.50927">
        <ele>182.6</ele>
        <time>2025-02-26T08:36:09Z</time>
      </trkpt>
      <trkpt lat="48.05443" lon="-3.50928">
        <ele>182.5</ele>
        <time>2025-02-26T08:36:10Z</time>
      </trkpt>
      <trkpt lat="48.05443" lon="-3.5093">
        <ele>182.5</ele>
        <time>2025-02-26T08:36:11Z</time>
      </trkpt>
      <trkpt lat="48.05444" lon="-3.50931">
        <ele>182.5</ele>
        <time>2025-02-26T08:36:12Z</time>
      </trkpt>
      <trkpt lat="48.05445" lon="-3.50932">
        <ele>182.5</ele>
        <time>2025-02-26T08:36:13Z</time>
      </trkpt>
      <trkpt lat="48.05446" lon="-3.50933">
        <ele>182.5</ele>
        <time>2025-02-26T08:36:14Z</time>
      </trkpt>
      <trkpt lat="48.05447" lon="-3.50934">
        <ele>182.5</ele>
        <time>2025-02-26T08:36:15Z</time>
      </trkpt>
      <trkpt lat="48.05448" lon="-3.50935">
        <ele>182.5</ele>
        <time>2025-02-26T08:36:16Z</time>
      </trkpt>
      <trkpt lat="48.05449" lon="-3.50937">
        <ele>182.4</ele>
        <time>2025-02-26T08:36:17Z</time>
      </trkpt>
      <trkpt lat="48.05449" lon="-3.50938">
        <ele>182.4</ele>
        <time>2025-02-26T08:36:18Z</time>
      </trkpt>
      <trkpt lat="48.0545" lon="-3.50939">
        <ele>182.4</ele>
        <time>2025-02-26T08:36:19Z</time>
      </trkpt>
      <trkpt lat="48.05451" lon="-3.50941">
        <ele>182.4</ele>
        <time>2025-02-26T08:36:20Z</time>
      </trkpt>
      <trkpt lat="48.05452" lon="-3.50943">
        <ele>182.3</ele>
        <time>2025-02-26T08:36:21Z</time>
      </trkpt>
      <trkpt lat="48.05452" lon="-3.50944">
        <ele>182.3</ele>
        <time>2025-02-26T08:36:22Z</time>
      </trkpt>
      <trkpt lat="48.05452" lon="-3.50946">
        <ele>182.2</ele>
        <time>2025-02-26T08:36:23Z</time>
      </trkpt>
      <trkpt lat="48.05453" lon="-3.50948">
        <ele>182.1</ele>
        <time>2025-02-26T08:36:24Z</time>
      </trkpt>
      <trkpt lat="48.05454" lon="-3.5095">
        <ele>182</ele>
        <time>2025-02-26T08:36:25Z</time>
      </trkpt>
      <trkpt lat="48.05455" lon="-3.50951">
        <ele>182</ele>
        <time>2025-02-26T08:36:26Z</time>
      </trkpt>
      <trkpt lat="48.05455" lon="-3.50952">
        <ele>181.9</ele>
        <time>2025-02-26T08:36:27Z</time>
      </trkpt>
      <trkpt lat="48.05456" lon="-3.50954">
        <ele>181.9</ele>
        <time>2025-02-26T08:36:28Z</time>
      </trkpt>
      <trkpt lat="48.05457" lon="-3.50955">
        <ele>181.8</ele>
        <time>2025-02-26T08:36:29Z</time>
      </trkpt>
      <trkpt lat="48.05458" lon="-3.50957">
        <ele>181.8</ele>
        <time>2025-02-26T08:36:30Z</time>
      </trkpt>
      <trkpt lat="48.05459" lon="-3.50958">
        <ele>181.8</ele>
        <time>2025-02-26T08:36:31Z</time>
      </trkpt>
      <trkpt lat="48.05459" lon="-3.50959">
        <ele>181.7</ele>
        <time>2025-02-26T08:36:32Z</time>
      </trkpt>
      <trkpt lat="48.0546" lon="-3.50961">
        <ele>181.7</ele>
        <time>2025-02-26T08:36:33Z</time>
      </trkpt>
      <trkpt lat="48.05461" lon="-3.50961">
        <ele>181.7</ele>
        <time>2025-02-26T08:36:34Z</time>
      </trkpt>
      <trkpt lat="48.05462" lon="-3.50962">
        <ele>181.8</ele>
        <time>2025-02-26T08:36:35Z</time>
      </trkpt>
      <trkpt lat="48.05463" lon="-3.50964">
        <ele>181.7</ele>
        <time>2025-02-26T08:36:36Z</time>
      </trkpt>
      <trkpt lat="48.05463" lon="-3.50965">
        <ele>181.7</ele>
        <time>2025-02-26T08:36:37Z</time>
      </trkpt>
      <trkpt lat="48.05464" lon="-3.50966">
        <ele>181.7</ele>
        <time>2025-02-26T08:36:38Z</time>
      </trkpt>
      <trkpt lat="48.05465" lon="-3.50968">
        <ele>181.7</ele>
        <time>2025-02-26T08:36:39Z</time>
      </trkpt>
      <trkpt lat="48.05466" lon="-3.50969">
        <ele>181.7</ele>
        <time>2025-02-26T08:36:40Z</time>
      </trkpt>
      <trkpt lat="48.05466" lon="-3.50971">
        <ele>181.6</ele>
        <time>2025-02-26T08:36:41Z</time>
      </trkpt>
      <trkpt lat="48.05467" lon="-3.50972">
        <ele>181.6</ele>
        <time>2025-02-26T08:36:42Z</time>
      </trkpt>
      <trkpt lat="48.05468" lon="-3.50974">
        <ele>181.6</ele>
        <time>2025-02-26T08:36:43Z</time>
      </trkpt>
      <trkpt lat="48.05469" lon="-3.50976">
        <ele>181.5</ele>
        <time>2025-02-26T08:36:44Z</time>
      </trkpt>
      <trkpt lat="48.0547" lon="-3.50977">
        <ele>181.5</ele>
        <time>2025-02-26T08:36:45Z</time>
      </trkpt>
      <trkpt lat="48.05471" lon="-3.50979">
        <ele>181.4</ele>
        <time>2025-02-26T08:36:46Z</time>
      </trkpt>
      <trkpt lat="48.05471" lon="-3.5098">
        <ele>181.4</ele>
        <time>2025-02-26T08:36:47Z</time>
      </trkpt>
      <trkpt lat="48.05472" lon="-3.50982">
        <ele>181.3</ele>
        <time>2025-02-26T08:36:48Z</time>
      </trkpt>
      <trkpt lat="48.05473" lon="-3.50983">
        <ele>181.3</ele>
        <time>2025-02-26T08:36:49Z</time>
      </trkpt>
      <trkpt lat="48.05474" lon="-3.50985">
        <ele>181.2</ele>
        <time>2025-02-26T08:36:50Z</time>
      </trkpt>
      <trkpt lat="48.05474" lon="-3.50987">
        <ele>181.1</ele>
        <time>2025-02-26T08:36:51Z</time>
      </trkpt>
      <trkpt lat="48.05474" lon="-3.50988">
        <ele>181</ele>
        <time>2025-02-26T08:36:52Z</time>
      </trkpt>
      <trkpt lat="48.05475" lon="-3.5099">
        <ele>180.9</ele>
        <time>2025-02-26T08:36:53Z</time>
      </trkpt>
      <trkpt lat="48.05475" lon="-3.50992">
        <ele>180.8</ele>
        <time>2025-02-26T08:36:54Z</time>
      </trkpt>
      <trkpt lat="48.05476" lon="-3.50993">
        <ele>180.8</ele>
        <time>2025-02-26T08:36:55Z</time>
      </trkpt>
      <trkpt lat="48.05476" lon="-3.50995">
        <ele>180.7</ele>
        <time>2025-02-26T08:36:56Z</time>
      </trkpt>
      <trkpt lat="48.05477" lon="-3.50997">
        <ele>180.6</ele>
        <time>2025-02-26T08:36:57Z</time>
      </trkpt>
      <trkpt lat="48.05478" lon="-3.50998">
        <ele>180.5</ele>
        <time>2025-02-26T08:36:58Z</time>
      </trkpt>
      <trkpt lat="48.05478" lon="-3.51">
        <ele>180.4</ele>
        <time>2025-02-26T08:36:59Z</time>
      </trkpt>
      <trkpt lat="48.05479" lon="-3.51002">
        <ele>180.4</ele>
        <time>2025-02-26T08:37:00Z</time>
      </trkpt>
      <trkpt lat="48.05479" lon="-3.51004">
        <ele>180.3</ele>
        <time>2025-02-26T08:37:01Z</time>
      </trkpt>
      <trkpt lat="48.0548" lon="-3.51005">
        <ele>180.2</ele>
        <time>2025-02-26T08:37:02Z</time>
      </trkpt>
      <trkpt lat="48.05481" lon="-3.51006">
        <ele>180.2</ele>
        <time>2025-02-26T08:37:03Z</time>
      </trkpt>
      <trkpt lat="48.05481" lon="-3.51008">
        <ele>180.2</ele>
        <time>2025-02-26T08:37:04Z</time>
      </trkpt>
      <trkpt lat="48.05482" lon="-3.51009">
        <ele>180.2</ele>
        <time>2025-02-26T08:37:05Z</time>
      </trkpt>
      <trkpt lat="48.05482" lon="-3.51011">
        <ele>180.1</ele>
        <time>2025-02-26T08:37:06Z</time>
      </trkpt>
      <trkpt lat="48.05483" lon="-3.51013">
        <ele>180</ele>
        <time>2025-02-26T08:37:07Z</time>
      </trkpt>
      <trkpt lat="48.05484" lon="-3.51014">
        <ele>180</ele>
        <time>2025-02-26T08:37:08Z</time>
      </trkpt>
      <trkpt lat="48.05485" lon="-3.51016">
        <ele>180</ele>
        <time>2025-02-26T08:37:09Z</time>
      </trkpt>
      <trkpt lat="48.05485" lon="-3.51018">
        <ele>180</ele>
        <time>2025-02-26T08:37:10Z</time>
      </trkpt>
      <trkpt lat="48.05486" lon="-3.51019">
        <ele>179.9</ele>
        <time>2025-02-26T08:37:11Z</time>
      </trkpt>
      <trkpt lat="48.05486" lon="-3.51021">
        <ele>179.8</ele>
        <time>2025-02-26T08:37:12Z</time>
      </trkpt>
      <trkpt lat="48.05487" lon="-3.51022">
        <ele>179.8</ele>
        <time>2025-02-26T08:37:13Z</time>
      </trkpt>
      <trkpt lat="48.05487" lon="-3.51024">
        <ele>179.8</ele>
        <time>2025-02-26T08:37:14Z</time>
      </trkpt>
      <trkpt lat="48.05488" lon="-3.51026">
        <ele>179.8</ele>
        <time>2025-02-26T08:37:15Z</time>
      </trkpt>
      <trkpt lat="48.05488" lon="-3.51028">
        <ele>179.8</ele>
        <time>2025-02-26T08:37:16Z</time>
      </trkpt>
      <trkpt lat="48.05489" lon="-3.51029">
        <ele>179.8</ele>
        <time>2025-02-26T08:37:17Z</time>
      </trkpt>
      <trkpt lat="48.0549" lon="-3.51031">
        <ele>179.8</ele>
        <time>2025-02-26T08:37:18Z</time>
      </trkpt>
      <trkpt lat="48.0549" lon="-3.51032">
        <ele>179.8</ele>
        <time>2025-02-26T08:37:19Z</time>
      </trkpt>
      <trkpt lat="48.05491" lon="-3.51034">
        <ele>179.9</ele>
        <time>2025-02-26T08:37:20Z</time>
      </trkpt>
      <trkpt lat="48.05492" lon="-3.51035">
        <ele>179.9</ele>
        <time>2025-02-26T08:37:21Z</time>
      </trkpt>
      <trkpt lat="48.05493" lon="-3.51036">
        <ele>180</ele>
        <time>2025-02-26T08:37:22Z</time>
      </trkpt>
      <trkpt lat="48.05494" lon="-3.51037">
        <ele>180.1</ele>
        <time>2025-02-26T08:37:23Z</time>
      </trkpt>
      <trkpt lat="48.05494" lon="-3.51038">
        <ele>180.1</ele>
        <time>2025-02-26T08:37:24Z</time>
      </trkpt>
      <trkpt lat="48.05495" lon="-3.51039">
        <ele>180.1</ele>
        <time>2025-02-26T08:37:25Z</time>
      </trkpt>
      <trkpt lat="48.05497" lon="-3.5104">
        <ele>180.3</ele>
        <time>2025-02-26T08:37:26Z</time>
      </trkpt>
      <trkpt lat="48.05497" lon="-3.51042">
        <ele>180.3</ele>
        <time>2025-02-26T08:37:27Z</time>
      </trkpt>
      <trkpt lat="48.05498" lon="-3.51043">
        <ele>180.3</ele>
        <time>2025-02-26T08:37:28Z</time>
      </trkpt>
      <trkpt lat="48.05499" lon="-3.51044">
        <ele>180.3</ele>
        <time>2025-02-26T08:37:29Z</time>
      </trkpt>
      <trkpt lat="48.055" lon="-3.51045">
        <ele>180.3</ele>
        <time>2025-02-26T08:37:30Z</time>
      </trkpt>
      <trkpt lat="48.055" lon="-3.51048">
        <ele>180.3</ele>
        <time>2025-02-26T08:37:31Z</time>
      </trkpt>
      <trkpt lat="48.055" lon="-3.51049">
        <ele>180.2</ele>
        <time>2025-02-26T08:37:32Z</time>
      </trkpt>
      <trkpt lat="48.05501" lon="-3.51051">
        <ele>180.2</ele>
        <time>2025-02-26T08:37:33Z</time>
      </trkpt>
      <trkpt lat="48.05502" lon="-3.51052">
        <ele>180.2</ele>
        <time>2025-02-26T08:37:34Z</time>
      </trkpt>
      <trkpt lat="48.05502" lon="-3.51054">
        <ele>180.2</ele>
        <time>2025-02-26T08:37:35Z</time>
      </trkpt>
      <trkpt lat="48.05503" lon="-3.51056">
        <ele>180.2</ele>
        <time>2025-02-26T08:37:36Z</time>
      </trkpt>
      <trkpt lat="48.05503" lon="-3.51057">
        <ele>180.2</ele>
        <time>2025-02-26T08:37:37Z</time>
      </trkpt>
      <trkpt lat="48.05503" lon="-3.51059">
        <ele>180.2</ele>
        <time>2025-02-26T08:37:38Z</time>
      </trkpt>
      <trkpt lat="48.05505" lon="-3.5106">
        <ele>180.3</ele>
        <time>2025-02-26T08:37:39Z</time>
      </trkpt>
      <trkpt lat="48.05505" lon="-3.51061">
        <ele>180.4</ele>
        <time>2025-02-26T08:37:40Z</time>
      </trkpt>
      <trkpt lat="48.05506" lon="-3.51063">
        <ele>180.5</ele>
        <time>2025-02-26T08:37:41Z</time>
      </trkpt>
      <trkpt lat="48.05507" lon="-3.51064">
        <ele>180.5</ele>
        <time>2025-02-26T08:37:42Z</time>
      </trkpt>
      <trkpt lat="48.05508" lon="-3.51065">
        <ele>180.5</ele>
        <time>2025-02-26T08:37:43Z</time>
      </trkpt>
      <trkpt lat="48.05509" lon="-3.51066">
        <ele>180.6</ele>
        <time>2025-02-26T08:37:44Z</time>
      </trkpt>
      <trkpt lat="48.0551" lon="-3.51067">
        <ele>180.7</ele>
        <time>2025-02-26T08:37:45Z</time>
      </trkpt>
      <trkpt lat="48.0551" lon="-3.51069">
        <ele>180.7</ele>
        <time>2025-02-26T08:37:46Z</time>
      </trkpt>
      <trkpt lat="48.05511" lon="-3.5107">
        <ele>180.8</ele>
        <time>2025-02-26T08:37:47Z</time>
      </trkpt>
      <trkpt lat="48.05512" lon="-3.51071">
        <ele>180.9</ele>
        <time>2025-02-26T08:37:48Z</time>
      </trkpt>
      <trkpt lat="48.05512" lon="-3.51073">
        <ele>180.9</ele>
        <time>2025-02-26T08:37:49Z</time>
      </trkpt>
      <trkpt lat="48.05513" lon="-3.51075">
        <ele>180.9</ele>
        <time>2025-02-26T08:37:50Z</time>
      </trkpt>
      <trkpt lat="48.05513" lon="-3.51076">
        <ele>180.9</ele>
        <time>2025-02-26T08:37:51Z</time>
      </trkpt>
      <trkpt lat="48.05514" lon="-3.51078">
        <ele>181</ele>
        <time>2025-02-26T08:37:52Z</time>
      </trkpt>
      <trkpt lat="48.05514" lon="-3.51079">
        <ele>181</ele>
        <time>2025-02-26T08:37:53Z</time>
      </trkpt>
      <trkpt lat="48.05515" lon="-3.51081">
        <ele>181.1</ele>
        <time>2025-02-26T08:37:54Z</time>
      </trkpt>
      <trkpt lat="48.05516" lon="-3.51082">
        <ele>181.1</ele>
        <time>2025-02-26T08:37:55Z</time>
      </trkpt>
      <trkpt lat="48.05516" lon="-3.51084">
        <ele>181.2</ele>
        <time>2025-02-26T08:37:56Z</time>
      </trkpt>
      <trkpt lat="48.05517" lon="-3.51085">
        <ele>181.3</ele>
        <time>2025-02-26T08:37:57Z</time>
      </trkpt>
      <trkpt lat="48.05519" lon="-3.51086">
        <ele>181.4</ele>
        <time>2025-02-26T08:37:58Z</time>
      </trkpt>
      <trkpt lat="48.05519" lon="-3.51088">
        <ele>181.4</ele>
        <time>2025-02-26T08:37:59Z</time>
      </trkpt>
      <trkpt lat="48.0552" lon="-3.5109">
        <ele>181.5</ele>
        <time>2025-02-26T08:38:00Z</time>
      </trkpt>
      <trkpt lat="48.0552" lon="-3.51092">
        <ele>181.5</ele>
        <time>2025-02-26T08:38:01Z</time>
      </trkpt>
      <trkpt lat="48.05521" lon="-3.51093">
        <ele>181.6</ele>
        <time>2025-02-26T08:38:02Z</time>
      </trkpt>
      <trkpt lat="48.05521" lon="-3.51095">
        <ele>181.6</ele>
        <time>2025-02-26T08:38:03Z</time>
      </trkpt>
      <trkpt lat="48.05521" lon="-3.51096">
        <ele>181.6</ele>
        <time>2025-02-26T08:38:04Z</time>
      </trkpt>
      <trkpt lat="48.05522" lon="-3.51098">
        <ele>181.7</ele>
        <time>2025-02-26T08:38:05Z</time>
      </trkpt>
      <trkpt lat="48.05523" lon="-3.51099">
        <ele>181.7</ele>
        <time>2025-02-26T08:38:06Z</time>
      </trkpt>
      <trkpt lat="48.05523" lon="-3.511">
        <ele>181.8</ele>
        <time>2025-02-26T08:38:07Z</time>
      </trkpt>
      <trkpt lat="48.05523" lon="-3.51102">
        <ele>181.8</ele>
        <time>2025-02-26T08:38:08Z</time>
      </trkpt>
      <trkpt lat="48.05523" lon="-3.51104">
        <ele>181.8</ele>
        <time>2025-02-26T08:38:09Z</time>
      </trkpt>
      <trkpt lat="48.05524" lon="-3.51105">
        <ele>181.8</ele>
        <time>2025-02-26T08:38:10Z</time>
      </trkpt>
      <trkpt lat="48.05525" lon="-3.51107">
        <ele>181.9</ele>
        <time>2025-02-26T08:38:11Z</time>
      </trkpt>
      <trkpt lat="48.05526" lon="-3.51108">
        <ele>181.9</ele>
        <time>2025-02-26T08:38:12Z</time>
      </trkpt>
      <trkpt lat="48.05526" lon="-3.5111">
        <ele>181.9</ele>
        <time>2025-02-26T08:38:13Z</time>
      </trkpt>
      <trkpt lat="48.05527" lon="-3.51112">
        <ele>182</ele>
        <time>2025-02-26T08:38:14Z</time>
      </trkpt>
      <trkpt lat="48.05528" lon="-3.51113">
        <ele>182</ele>
        <time>2025-02-26T08:38:15Z</time>
      </trkpt>
      <trkpt lat="48.05528" lon="-3.51115">
        <ele>182</ele>
        <time>2025-02-26T08:38:16Z</time>
      </trkpt>
      <trkpt lat="48.05528" lon="-3.51117">
        <ele>182</ele>
        <time>2025-02-26T08:38:17Z</time>
      </trkpt>
      <trkpt lat="48.05527" lon="-3.51118">
        <ele>182</ele>
        <time>2025-02-26T08:38:18Z</time>
      </trkpt>
      <trkpt lat="48.05528" lon="-3.5112">
        <ele>182</ele>
        <time>2025-02-26T08:38:19Z</time>
      </trkpt>
      <trkpt lat="48.05528" lon="-3.51122">
        <ele>182</ele>
        <time>2025-02-26T08:38:20Z</time>
      </trkpt>
      <trkpt lat="48.05528" lon="-3.51124">
        <ele>182</ele>
        <time>2025-02-26T08:38:21Z</time>
      </trkpt>
      <trkpt lat="48.05528" lon="-3.51125">
        <ele>182</ele>
        <time>2025-02-26T08:38:22Z</time>
      </trkpt>
      <trkpt lat="48.05529" lon="-3.51126">
        <ele>182</ele>
        <time>2025-02-26T08:38:23Z</time>
      </trkpt>
      <trkpt lat="48.05529" lon="-3.51128">
        <ele>182</ele>
        <time>2025-02-26T08:38:24Z</time>
      </trkpt>
      <trkpt lat="48.05529" lon="-3.5113">
        <ele>182</ele>
        <time>2025-02-26T08:38:25Z</time>
      </trkpt>
      <trkpt lat="48.05529" lon="-3.51132">
        <ele>182</ele>
        <time>2025-02-26T08:38:26Z</time>
      </trkpt>
      <trkpt lat="48.05528" lon="-3.51134">
        <ele>182</ele>
        <time>2025-02-26T08:38:27Z</time>
      </trkpt>
      <trkpt lat="48.05528" lon="-3.51135">
        <ele>182</ele>
        <time>2025-02-26T08:38:28Z</time>
      </trkpt>
      <trkpt lat="48.05528" lon="-3.51137">
        <ele>182</ele>
        <time>2025-02-26T08:38:29Z</time>
      </trkpt>
      <trkpt lat="48.05528" lon="-3.51139">
        <ele>182</ele>
        <time>2025-02-26T08:38:30Z</time>
      </trkpt>
      <trkpt lat="48.05528" lon="-3.5114">
        <ele>182</ele>
        <time>2025-02-26T08:38:31Z</time>
      </trkpt>
      <trkpt lat="48.05528" lon="-3.51142">
        <ele>182.1</ele>
        <time>2025-02-26T08:38:32Z</time>
      </trkpt>
      <trkpt lat="48.05527" lon="-3.51143">
        <ele>182.2</ele>
        <time>2025-02-26T08:38:33Z</time>
      </trkpt>
      <trkpt lat="48.05527" lon="-3.51145">
        <ele>182.2</ele>
        <time>2025-02-26T08:38:34Z</time>
      </trkpt>
      <trkpt lat="48.05527" lon="-3.51147">
        <ele>182.3</ele>
        <time>2025-02-26T08:38:35Z</time>
      </trkpt>
      <trkpt lat="48.05527" lon="-3.51148">
        <ele>182.3</ele>
        <time>2025-02-26T08:38:36Z</time>
      </trkpt>
      <trkpt lat="48.05527" lon="-3.5115">
        <ele>182.4</ele>
        <time>2025-02-26T08:38:37Z</time>
      </trkpt>
      <trkpt lat="48.05527" lon="-3.51151">
        <ele>182.4</ele>
        <time>2025-02-26T08:38:38Z</time>
      </trkpt>
      <trkpt lat="48.05527" lon="-3.51152">
        <ele>182.5</ele>
        <time>2025-02-26T08:38:39Z</time>
      </trkpt>
      <trkpt lat="48.05527" lon="-3.51154">
        <ele>182.5</ele>
        <time>2025-02-26T08:38:40Z</time>
      </trkpt>
      <trkpt lat="48.05527" lon="-3.51156">
        <ele>182.6</ele>
        <time>2025-02-26T08:38:41Z</time>
      </trkpt>
      <trkpt lat="48.05527" lon="-3.51157">
        <ele>182.7</ele>
        <time>2025-02-26T08:38:42Z</time>
      </trkpt>
      <trkpt lat="48.05526" lon="-3.51159">
        <ele>182.7</ele>
        <time>2025-02-26T08:38:43Z</time>
      </trkpt>
      <trkpt lat="48.05526" lon="-3.5116">
        <ele>182.8</ele>
        <time>2025-02-26T08:38:44Z</time>
      </trkpt>
      <trkpt lat="48.05525" lon="-3.51162">
        <ele>182.8</ele>
        <time>2025-02-26T08:38:45Z</time>
      </trkpt>
      <trkpt lat="48.05525" lon="-3.51163">
        <ele>182.9</ele>
        <time>2025-02-26T08:38:46Z</time>
      </trkpt>
      <trkpt lat="48.05525" lon="-3.51165">
        <ele>182.9</ele>
        <time>2025-02-26T08:38:47Z</time>
      </trkpt>
      <trkpt lat="48.05524" lon="-3.51167">
        <ele>183</ele>
        <time>2025-02-26T08:38:48Z</time>
      </trkpt>
      <trkpt lat="48.05524" lon="-3.51168">
        <ele>183.1</ele>
        <time>2025-02-26T08:38:49Z</time>
      </trkpt>
      <trkpt lat="48.05523" lon="-3.5117">
        <ele>183.1</ele>
        <time>2025-02-26T08:38:50Z</time>
      </trkpt>
      <trkpt lat="48.05523" lon="-3.51171">
        <ele>183.2</ele>
        <time>2025-02-26T08:38:51Z</time>
      </trkpt>
      <trkpt lat="48.05522" lon="-3.51173">
        <ele>183.2</ele>
        <time>2025-02-26T08:38:52Z</time>
      </trkpt>
      <trkpt lat="48.05521" lon="-3.51174">
        <ele>183.3</ele>
        <time>2025-02-26T08:38:53Z</time>
      </trkpt>
      <trkpt lat="48.05521" lon="-3.51176">
        <ele>183.3</ele>
        <time>2025-02-26T08:38:54Z</time>
      </trkpt>
      <trkpt lat="48.05522" lon="-3.51178">
        <ele>183.4</ele>
        <time>2025-02-26T08:38:55Z</time>
      </trkpt>
      <trkpt lat="48.05521" lon="-3.5118">
        <ele>183.5</ele>
        <time>2025-02-26T08:38:56Z</time>
      </trkpt>
      <trkpt lat="48.05521" lon="-3.51181">
        <ele>183.5</ele>
        <time>2025-02-26T08:38:57Z</time>
      </trkpt>
      <trkpt lat="48.0552" lon="-3.51183">
        <ele>183.6</ele>
        <time>2025-02-26T08:38:58Z</time>
      </trkpt>
      <trkpt lat="48.0552" lon="-3.51184">
        <ele>183.6</ele>
        <time>2025-02-26T08:38:59Z</time>
      </trkpt>
      <trkpt lat="48.05519" lon="-3.51186">
        <ele>183.7</ele>
        <time>2025-02-26T08:39:00Z</time>
      </trkpt>
      <trkpt lat="48.05519" lon="-3.51188">
        <ele>183.8</ele>
        <time>2025-02-26T08:39:01Z</time>
      </trkpt>
      <trkpt lat="48.05518" lon="-3.51189">
        <ele>183.8</ele>
        <time>2025-02-26T08:39:02Z</time>
      </trkpt>
      <trkpt lat="48.05518" lon="-3.5119">
        <ele>183.9</ele>
        <time>2025-02-26T08:39:03Z</time>
      </trkpt>
      <trkpt lat="48.05517" lon="-3.51192">
        <ele>183.9</ele>
        <time>2025-02-26T08:39:04Z</time>
      </trkpt>
      <trkpt lat="48.05517" lon="-3.51193">
        <ele>184</ele>
        <time>2025-02-26T08:39:05Z</time>
      </trkpt>
      <trkpt lat="48.05516" lon="-3.51195">
        <ele>184</ele>
        <time>2025-02-26T08:39:06Z</time>
      </trkpt>
      <trkpt lat="48.05516" lon="-3.51196">
        <ele>184</ele>
        <time>2025-02-26T08:39:07Z</time>
      </trkpt>
      <trkpt lat="48.05516" lon="-3.51198">
        <ele>184</ele>
        <time>2025-02-26T08:39:08Z</time>
      </trkpt>
      <trkpt lat="48.05516" lon="-3.512">
        <ele>184</ele>
        <time>2025-02-26T08:39:09Z</time>
      </trkpt>
      <trkpt lat="48.05515" lon="-3.51202">
        <ele>184</ele>
        <time>2025-02-26T08:39:10Z</time>
      </trkpt>
      <trkpt lat="48.05515" lon="-3.51204">
        <ele>184</ele>
        <time>2025-02-26T08:39:11Z</time>
      </trkpt>
      <trkpt lat="48.05514" lon="-3.51205">
        <ele>184</ele>
        <time>2025-02-26T08:39:12Z</time>
      </trkpt>
      <trkpt lat="48.05513" lon="-3.51207">
        <ele>184</ele>
        <time>2025-02-26T08:39:13Z</time>
      </trkpt>
      <trkpt lat="48.05513" lon="-3.51209">
        <ele>184</ele>
        <time>2025-02-26T08:39:14Z</time>
      </trkpt>
      <trkpt lat="48.05513" lon="-3.51211">
        <ele>184</ele>
        <time>2025-02-26T08:39:15Z</time>
      </trkpt>
      <trkpt lat="48.05513" lon="-3.51213">
        <ele>184</ele>
        <time>2025-02-26T08:39:16Z</time>
      </trkpt>
      <trkpt lat="48.05513" lon="-3.51214">
        <ele>184</ele>
        <time>2025-02-26T08:39:17Z</time>
      </trkpt>
      <trkpt lat="48.05512" lon="-3.51216">
        <ele>184</ele>
        <time>2025-02-26T08:39:18Z</time>
      </trkpt>
      <trkpt lat="48.05512" lon="-3.51218">
        <ele>184</ele>
        <time>2025-02-26T08:39:19Z</time>
      </trkpt>
      <trkpt lat="48.05512" lon="-3.51219">
        <ele>184</ele>
        <time>2025-02-26T08:39:20Z</time>
      </trkpt>
      <trkpt lat="48.05512" lon="-3.51221">
        <ele>184</ele>
        <time>2025-02-26T08:39:21Z</time>
      </trkpt>
      <trkpt lat="48.05512" lon="-3.51223">
        <ele>184</ele>
        <time>2025-02-26T08:39:22Z</time>
      </trkpt>
      <trkpt lat="48.05512" lon="-3.51224">
        <ele>184</ele>
        <time>2025-02-26T08:39:23Z</time>
      </trkpt>
      <trkpt lat="48.05512" lon="-3.51226">
        <ele>184</ele>
        <time>2025-02-26T08:39:24Z</time>
      </trkpt>
      <trkpt lat="48.05512" lon="-3.51228">
        <ele>184</ele>
        <time>2025-02-26T08:39:25Z</time>
      </trkpt>
      <trkpt lat="48.05512" lon="-3.51229">
        <ele>184</ele>
        <time>2025-02-26T08:39:26Z</time>
      </trkpt>
      <trkpt lat="48.05512" lon="-3.51231">
        <ele>184</ele>
        <time>2025-02-26T08:39:27Z</time>
      </trkpt>
      <trkpt lat="48.05512" lon="-3.51233">
        <ele>184</ele>
        <time>2025-02-26T08:39:28Z</time>
      </trkpt>
      <trkpt lat="48.05512" lon="-3.51235">
        <ele>184</ele>
        <time>2025-02-26T08:39:29Z</time>
      </trkpt>
      <trkpt lat="48.05513" lon="-3.51237">
        <ele>184</ele>
        <time>2025-02-26T08:39:30Z</time>
      </trkpt>
      <trkpt lat="48.05514" lon="-3.51239">
        <ele>184</ele>
        <time>2025-02-26T08:39:31Z</time>
      </trkpt>
      <trkpt lat="48.05514" lon="-3.51241">
        <ele>184</ele>
        <time>2025-02-26T08:39:32Z</time>
      </trkpt>
      <trkpt lat="48.05515" lon="-3.51242">
        <ele>184</ele>
        <time>2025-02-26T08:39:33Z</time>
      </trkpt>
      <trkpt lat="48.05515" lon="-3.51244">
        <ele>184</ele>
        <time>2025-02-26T08:39:34Z</time>
      </trkpt>
      <trkpt lat="48.05516" lon="-3.51246">
        <ele>184</ele>
        <time>2025-02-26T08:39:35Z</time>
      </trkpt>
      <trkpt lat="48.05516" lon="-3.51247">
        <ele>184</ele>
        <time>2025-02-26T08:39:36Z</time>
      </trkpt>
      <trkpt lat="48.05516" lon="-3.51249">
        <ele>184</ele>
        <time>2025-02-26T08:39:37Z</time>
      </trkpt>
      <trkpt lat="48.05517" lon="-3.51251">
        <ele>184</ele>
        <time>2025-02-26T08:39:38Z</time>
      </trkpt>
      <trkpt lat="48.05518" lon="-3.51252">
        <ele>184</ele>
        <time>2025-02-26T08:39:39Z</time>
      </trkpt>
      <trkpt lat="48.05519" lon="-3.51253">
        <ele>184</ele>
        <time>2025-02-26T08:39:40Z</time>
      </trkpt>
      <trkpt lat="48.0552" lon="-3.51254">
        <ele>184</ele>
        <time>2025-02-26T08:39:41Z</time>
      </trkpt>
      <trkpt lat="48.05521" lon="-3.51255">
        <ele>184</ele>
        <time>2025-02-26T08:39:42Z</time>
      </trkpt>
      <trkpt lat="48.05522" lon="-3.51255">
        <ele>184</ele>
        <time>2025-02-26T08:39:43Z</time>
      </trkpt>
      <trkpt lat="48.05523" lon="-3.51257">
        <ele>184</ele>
        <time>2025-02-26T08:39:44Z</time>
      </trkpt>
      <trkpt lat="48.05524" lon="-3.51258">
        <ele>184</ele>
        <time>2025-02-26T08:39:45Z</time>
      </trkpt>
      <trkpt lat="48.05525" lon="-3.51259">
        <ele>184</ele>
        <time>2025-02-26T08:39:46Z</time>
      </trkpt>
      <trkpt lat="48.05526" lon="-3.5126">
        <ele>184</ele>
        <time>2025-02-26T08:39:47Z</time>
      </trkpt>
      <trkpt lat="48.05527" lon="-3.5126">
        <ele>184</ele>
        <time>2025-02-26T08:39:48Z</time>
      </trkpt>
      <trkpt lat="48.05528" lon="-3.51262">
        <ele>184</ele>
        <time>2025-02-26T08:39:49Z</time>
      </trkpt>
      <trkpt lat="48.05529" lon="-3.51262">
        <ele>184</ele>
        <time>2025-02-26T08:39:50Z</time>
      </trkpt>
      <trkpt lat="48.0553" lon="-3.51263">
        <ele>184</ele>
        <time>2025-02-26T08:39:51Z</time>
      </trkpt>
      <trkpt lat="48.05531" lon="-3.51263">
        <ele>184</ele>
        <time>2025-02-26T08:39:52Z</time>
      </trkpt>
      <trkpt lat="48.05532" lon="-3.51264">
        <ele>184</ele>
        <time>2025-02-26T08:39:53Z</time>
      </trkpt>
      <trkpt lat="48.05533" lon="-3.51264">
        <ele>184</ele>
        <time>2025-02-26T08:39:54Z</time>
      </trkpt>
      <trkpt lat="48.05534" lon="-3.51265">
        <ele>184</ele>
        <time>2025-02-26T08:39:55Z</time>
      </trkpt>
      <trkpt lat="48.05535" lon="-3.51265">
        <ele>184</ele>
        <time>2025-02-26T08:39:56Z</time>
      </trkpt>
      <trkpt lat="48.05536" lon="-3.51266">
        <ele>184</ele>
        <time>2025-02-26T08:39:57Z</time>
      </trkpt>
      <trkpt lat="48.05537" lon="-3.51266">
        <ele>184</ele>
        <time>2025-02-26T08:39:58Z</time>
      </trkpt>
      <trkpt lat="48.05538" lon="-3.51268">
        <ele>184</ele>
        <time>2025-02-26T08:39:59Z</time>
      </trkpt>
      <trkpt lat="48.05538" lon="-3.51269">
        <ele>184</ele>
        <time>2025-02-26T08:40:00Z</time>
      </trkpt>
      <trkpt lat="48.05539" lon="-3.51269">
        <ele>184</ele>
        <time>2025-02-26T08:40:01Z</time>
      </trkpt>
      <trkpt lat="48.0554" lon="-3.5127">
        <ele>184</ele>
        <time>2025-02-26T08:40:02Z</time>
      </trkpt>
      <trkpt lat="48.05541" lon="-3.5127">
        <ele>184</ele>
        <time>2025-02-26T08:40:03Z</time>
      </trkpt>
      <trkpt lat="48.05542" lon="-3.51271">
        <ele>184</ele>
        <time>2025-02-26T08:40:04Z</time>
      </trkpt>
      <trkpt lat="48.05543" lon="-3.51272">
        <ele>184</ele>
        <time>2025-02-26T08:40:05Z</time>
      </trkpt>
      <trkpt lat="48.05544" lon="-3.51272">
        <ele>184</ele>
        <time>2025-02-26T08:40:06Z</time>
      </trkpt>
      <trkpt lat="48.05545" lon="-3.51273">
        <ele>184</ele>
        <time>2025-02-26T08:40:07Z</time>
      </trkpt>
      <trkpt lat="48.05546" lon="-3.51274">
        <ele>184</ele>
        <time>2025-02-26T08:40:08Z</time>
      </trkpt>
      <trkpt lat="48.05547" lon="-3.51274">
        <ele>184</ele>
        <time>2025-02-26T08:40:09Z</time>
      </trkpt>
      <trkpt lat="48.05547" lon="-3.51276">
        <ele>184</ele>
        <time>2025-02-26T08:40:10Z</time>
      </trkpt>
      <trkpt lat="48.05549" lon="-3.51277">
        <ele>184</ele>
        <time>2025-02-26T08:40:11Z</time>
      </trkpt>
      <trkpt lat="48.0555" lon="-3.51277">
        <ele>184</ele>
        <time>2025-02-26T08:40:12Z</time>
      </trkpt>
      <trkpt lat="48.05551" lon="-3.51278">
        <ele>184</ele>
        <time>2025-02-26T08:40:13Z</time>
      </trkpt>
      <trkpt lat="48.05552" lon="-3.51279">
        <ele>184</ele>
        <time>2025-02-26T08:40:14Z</time>
      </trkpt>
      <trkpt lat="48.05553" lon="-3.5128">
        <ele>184</ele>
        <time>2025-02-26T08:40:15Z</time>
      </trkpt>
      <trkpt lat="48.05554" lon="-3.51281">
        <ele>184</ele>
        <time>2025-02-26T08:40:16Z</time>
      </trkpt>
      <trkpt lat="48.05555" lon="-3.51282">
        <ele>184</ele>
        <time>2025-02-26T08:40:17Z</time>
      </trkpt>
      <trkpt lat="48.05556" lon="-3.51282">
        <ele>184</ele>
        <time>2025-02-26T08:40:18Z</time>
      </trkpt>
      <trkpt lat="48.05557" lon="-3.51283">
        <ele>184</ele>
        <time>2025-02-26T08:40:19Z</time>
      </trkpt>
      <trkpt lat="48.05558" lon="-3.51284">
        <ele>184</ele>
        <time>2025-02-26T08:40:20Z</time>
      </trkpt>
      <trkpt lat="48.05559" lon="-3.51285">
        <ele>184</ele>
        <time>2025-02-26T08:40:21Z</time>
      </trkpt>
      <trkpt lat="48.05561" lon="-3.51285">
        <ele>184</ele>
        <time>2025-02-26T08:40:22Z</time>
      </trkpt>
      <trkpt lat="48.05562" lon="-3.51287">
        <ele>184</ele>
        <time>2025-02-26T08:40:23Z</time>
      </trkpt>
      <trkpt lat="48.05563" lon="-3.51287">
        <ele>184</ele>
        <time>2025-02-26T08:40:24Z</time>
      </trkpt>
      <trkpt lat="48.05564" lon="-3.51288">
        <ele>184</ele>
        <time>2025-02-26T08:40:25Z</time>
      </trkpt>
      <trkpt lat="48.05565" lon="-3.51289">
        <ele>184</ele>
        <time>2025-02-26T08:40:26Z</time>
      </trkpt>
      <trkpt lat="48.05566" lon="-3.51289">
        <ele>184</ele>
        <time>2025-02-26T08:40:27Z</time>
      </trkpt>
      <trkpt lat="48.05567" lon="-3.5129">
        <ele>184</ele>
        <time>2025-02-26T08:40:28Z</time>
      </trkpt>
      <trkpt lat="48.05568" lon="-3.5129">
        <ele>184</ele>
        <time>2025-02-26T08:40:29Z</time>
      </trkpt>
      <trkpt lat="48.05569" lon="-3.51291">
        <ele>184</ele>
        <time>2025-02-26T08:40:30Z</time>
      </trkpt>
      <trkpt lat="48.0557" lon="-3.51291">
        <ele>184</ele>
        <time>2025-02-26T08:40:31Z</time>
      </trkpt>
      <trkpt lat="48.05571" lon="-3.51292">
        <ele>184</ele>
        <time>2025-02-26T08:40:32Z</time>
      </trkpt>
      <trkpt lat="48.05572" lon="-3.51293">
        <ele>184</ele>
        <time>2025-02-26T08:40:33Z</time>
      </trkpt>
      <trkpt lat="48.05574" lon="-3.51293">
        <ele>184</ele>
        <time>2025-02-26T08:40:34Z</time>
      </trkpt>
      <trkpt lat="48.05575" lon="-3.51293">
        <ele>184</ele>
        <time>2025-02-26T08:40:35Z</time>
      </trkpt>
      <trkpt lat="48.05576" lon="-3.51292">
        <ele>184</ele>
        <time>2025-02-26T08:40:36Z</time>
      </trkpt>
      <trkpt lat="48.05577" lon="-3.51291">
        <ele>184</ele>
        <time>2025-02-26T08:40:37Z</time>
      </trkpt>
      <trkpt lat="48.05579" lon="-3.51291">
        <ele>184</ele>
        <time>2025-02-26T08:40:38Z</time>
      </trkpt>
      <trkpt lat="48.0558" lon="-3.51291">
        <ele>184</ele>
        <time>2025-02-26T08:40:39Z</time>
      </trkpt>
      <trkpt lat="48.05581" lon="-3.51289">
        <ele>184</ele>
        <time>2025-02-26T08:40:40Z</time>
      </trkpt>
      <trkpt lat="48.05582" lon="-3.51289">
        <ele>184</ele>
        <time>2025-02-26T08:40:41Z</time>
      </trkpt>
      <trkpt lat="48.05583" lon="-3.51288">
        <ele>184</ele>
        <time>2025-02-26T08:40:42Z</time>
      </trkpt>
      <trkpt lat="48.05584" lon="-3.51288">
        <ele>184</ele>
        <time>2025-02-26T08:40:43Z</time>
      </trkpt>
      <trkpt lat="48.05585" lon="-3.51288">
        <ele>184</ele>
        <time>2025-02-26T08:40:44Z</time>
      </trkpt>
      <trkpt lat="48.05586" lon="-3.51289">
        <ele>184</ele>
        <time>2025-02-26T08:40:45Z</time>
      </trkpt>
      <trkpt lat="48.05587" lon="-3.51289">
        <ele>184</ele>
        <time>2025-02-26T08:40:46Z</time>
      </trkpt>
      <trkpt lat="48.05588" lon="-3.51289">
        <ele>184</ele>
        <time>2025-02-26T08:40:47Z</time>
      </trkpt>
      <trkpt lat="48.05589" lon="-3.5129">
        <ele>184</ele>
        <time>2025-02-26T08:40:48Z</time>
      </trkpt>
      <trkpt lat="48.0559" lon="-3.5129">
        <ele>184</ele>
        <time>2025-02-26T08:40:49Z</time>
      </trkpt>
      <trkpt lat="48.05591" lon="-3.51291">
        <ele>184</ele>
        <time>2025-02-26T08:40:50Z</time>
      </trkpt>
      <trkpt lat="48.05592" lon="-3.51292">
        <ele>184</ele>
        <time>2025-02-26T08:40:51Z</time>
      </trkpt>
      <trkpt lat="48.05592" lon="-3.51293">
        <ele>184</ele>
        <time>2025-02-26T08:40:52Z</time>
      </trkpt>
      <trkpt lat="48.05593" lon="-3.51294">
        <ele>184</ele>
        <time>2025-02-26T08:40:53Z</time>
      </trkpt>
      <trkpt lat="48.05594" lon="-3.51295">
        <ele>184</ele>
        <time>2025-02-26T08:40:54Z</time>
      </trkpt>
      <trkpt lat="48.05595" lon="-3.51296">
        <ele>184</ele>
        <time>2025-02-26T08:40:55Z</time>
      </trkpt>
      <trkpt lat="48.05596" lon="-3.51297">
        <ele>184</ele>
        <time>2025-02-26T08:40:56Z</time>
      </trkpt>
      <trkpt lat="48.05597" lon="-3.51298">
        <ele>184</ele>
        <time>2025-02-26T08:40:57Z</time>
      </trkpt>
      <trkpt lat="48.05598" lon="-3.513">
        <ele>184</ele>
        <time>2025-02-26T08:40:58Z</time>
      </trkpt>
      <trkpt lat="48.05599" lon="-3.513">
        <ele>184</ele>
        <time>2025-02-26T08:40:59Z</time>
      </trkpt>
      <trkpt lat="48.056" lon="-3.51302">
        <ele>184</ele>
        <time>2025-02-26T08:41:00Z</time>
      </trkpt>
      <trkpt lat="48.056" lon="-3.51303">
        <ele>184</ele>
        <time>2025-02-26T08:41:01Z</time>
      </trkpt>
      <trkpt lat="48.05601" lon="-3.51303">
        <ele>184</ele>
        <time>2025-02-26T08:41:02Z</time>
      </trkpt>
      <trkpt lat="48.05602" lon="-3.51304">
        <ele>184</ele>
        <time>2025-02-26T08:41:03Z</time>
      </trkpt>
      <trkpt lat="48.05603" lon="-3.51305">
        <ele>184</ele>
        <time>2025-02-26T08:41:04Z</time>
      </trkpt>
      <trkpt lat="48.05604" lon="-3.51306">
        <ele>184</ele>
        <time>2025-02-26T08:41:05Z</time>
      </trkpt>
      <trkpt lat="48.05605" lon="-3.51307">
        <ele>184</ele>
        <time>2025-02-26T08:41:06Z</time>
      </trkpt>
      <trkpt lat="48.05606" lon="-3.51308">
        <ele>184</ele>
        <time>2025-02-26T08:41:07Z</time>
      </trkpt>
      <trkpt lat="48.05607" lon="-3.51309">
        <ele>184</ele>
        <time>2025-02-26T08:41:08Z</time>
      </trkpt>
      <trkpt lat="48.05608" lon="-3.5131">
        <ele>184</ele>
        <time>2025-02-26T08:41:09Z</time>
      </trkpt>
      <trkpt lat="48.05608" lon="-3.51312">
        <ele>184</ele>
        <time>2025-02-26T08:41:10Z</time>
      </trkpt>
      <trkpt lat="48.05608" lon="-3.51313">
        <ele>184</ele>
        <time>2025-02-26T08:41:11Z</time>
      </trkpt>
      <trkpt lat="48.05609" lon="-3.51315">
        <ele>184</ele>
        <time>2025-02-26T08:41:12Z</time>
      </trkpt>
      <trkpt lat="48.05609" lon="-3.51317">
        <ele>184</ele>
        <time>2025-02-26T08:41:13Z</time>
      </trkpt>
      <trkpt lat="48.05609" lon="-3.51319">
        <ele>184</ele>
        <time>2025-02-26T08:41:14Z</time>
      </trkpt>
      <trkpt lat="48.05609" lon="-3.5132">
        <ele>184</ele>
        <time>2025-02-26T08:41:15Z</time>
      </trkpt>
      <trkpt lat="48.05609" lon="-3.51322">
        <ele>184</ele>
        <time>2025-02-26T08:41:16Z</time>
      </trkpt>
      <trkpt lat="48.05608" lon="-3.51323">
        <ele>184</ele>
        <time>2025-02-26T08:41:17Z</time>
      </trkpt>
      <trkpt lat="48.05607" lon="-3.51325">
        <ele>184</ele>
        <time>2025-02-26T08:41:18Z</time>
      </trkpt>
      <trkpt lat="48.05607" lon="-3.51326">
        <ele>184</ele>
        <time>2025-02-26T08:41:19Z</time>
      </trkpt>
      <trkpt lat="48.05607" lon="-3.51328">
        <ele>184</ele>
        <time>2025-02-26T08:41:20Z</time>
      </trkpt>
      <trkpt lat="48.05606" lon="-3.5133">
        <ele>184</ele>
        <time>2025-02-26T08:41:21Z</time>
      </trkpt>
      <trkpt lat="48.05605" lon="-3.5133">
        <ele>184</ele>
        <time>2025-02-26T08:41:22Z</time>
      </trkpt>
      <trkpt lat="48.05605" lon="-3.51331">
        <ele>184</ele>
        <time>2025-02-26T08:41:23Z</time>
      </trkpt>
      <trkpt lat="48.05604" lon="-3.51332">
        <ele>184</ele>
        <time>2025-02-26T08:41:24Z</time>
      </trkpt>
      <trkpt lat="48.05603" lon="-3.51334">
        <ele>184</ele>
        <time>2025-02-26T08:41:25Z</time>
      </trkpt>
      <trkpt lat="48.05603" lon="-3.51337">
        <ele>184</ele>
        <time>2025-02-26T08:41:26Z</time>
      </trkpt>
      <trkpt lat="48.05603" lon="-3.51339">
        <ele>183.9</ele>
        <time>2025-02-26T08:41:27Z</time>
      </trkpt>
      <trkpt lat="48.05602" lon="-3.51342">
        <ele>183.9</ele>
        <time>2025-02-26T08:41:28Z</time>
      </trkpt>
      <trkpt lat="48.05602" lon="-3.51345">
        <ele>183.9</ele>
        <time>2025-02-26T08:41:29Z</time>
      </trkpt>
      <trkpt lat="48.05602" lon="-3.51346">
        <ele>183.8</ele>
        <time>2025-02-26T08:41:30Z</time>
      </trkpt>
      <trkpt lat="48.05601" lon="-3.51347">
        <ele>183.8</ele>
        <time>2025-02-26T08:41:31Z</time>
      </trkpt>
      <trkpt lat="48.056" lon="-3.51348">
        <ele>183.8</ele>
        <time>2025-02-26T08:41:32Z</time>
      </trkpt>
      <trkpt lat="48.056" lon="-3.5135">
        <ele>183.8</ele>
        <time>2025-02-26T08:41:33Z</time>
      </trkpt>
      <trkpt lat="48.05599" lon="-3.51351">
        <ele>183.7</ele>
        <time>2025-02-26T08:41:34Z</time>
      </trkpt>
      <trkpt lat="48.05598" lon="-3.51352">
        <ele>183.7</ele>
        <time>2025-02-26T08:41:35Z</time>
      </trkpt>
      <trkpt lat="48.05597" lon="-3.51354">
        <ele>183.6</ele>
        <time>2025-02-26T08:41:36Z</time>
      </trkpt>
      <trkpt lat="48.05597" lon="-3.51356">
        <ele>183.6</ele>
        <time>2025-02-26T08:41:37Z</time>
      </trkpt>
      <trkpt lat="48.05596" lon="-3.51358">
        <ele>183.5</ele>
        <time>2025-02-26T08:41:38Z</time>
      </trkpt>
      <trkpt lat="48.05596" lon="-3.5136">
        <ele>183.5</ele>
        <time>2025-02-26T08:41:39Z</time>
      </trkpt>
      <trkpt lat="48.05595" lon="-3.51361">
        <ele>183.4</ele>
        <time>2025-02-26T08:41:40Z</time>
      </trkpt>
      <trkpt lat="48.05595" lon="-3.51363">
        <ele>183.3</ele>
        <time>2025-02-26T08:41:41Z</time>
      </trkpt>
      <trkpt lat="48.05594" lon="-3.51364">
        <ele>183.3</ele>
        <time>2025-02-26T08:41:42Z</time>
      </trkpt>
      <trkpt lat="48.05593" lon="-3.51366">
        <ele>183.2</ele>
        <time>2025-02-26T08:41:43Z</time>
      </trkpt>
      <trkpt lat="48.05593" lon="-3.51368">
        <ele>183.1</ele>
        <time>2025-02-26T08:41:44Z</time>
      </trkpt>
      <trkpt lat="48.05592" lon="-3.51369">
        <ele>183</ele>
        <time>2025-02-26T08:41:45Z</time>
      </trkpt>
      <trkpt lat="48.05591" lon="-3.51371">
        <ele>182.9</ele>
        <time>2025-02-26T08:41:46Z</time>
      </trkpt>
      <trkpt lat="48.0559" lon="-3.51372">
        <ele>182.9</ele>
        <time>2025-02-26T08:41:47Z</time>
      </trkpt>
      <trkpt lat="48.0559" lon="-3.51374">
        <ele>182.8</ele>
        <time>2025-02-26T08:41:48Z</time>
      </trkpt>
      <trkpt lat="48.05589" lon="-3.51375">
        <ele>182.7</ele>
        <time>2025-02-26T08:41:49Z</time>
      </trkpt>
      <trkpt lat="48.05589" lon="-3.51378">
        <ele>182.6</ele>
        <time>2025-02-26T08:41:50Z</time>
      </trkpt>
      <trkpt lat="48.05588" lon="-3.51379">
        <ele>182.5</ele>
        <time>2025-02-26T08:41:51Z</time>
      </trkpt>
      <trkpt lat="48.05587" lon="-3.51381">
        <ele>182.4</ele>
        <time>2025-02-26T08:41:52Z</time>
      </trkpt>
      <trkpt lat="48.05587" lon="-3.51383">
        <ele>182.3</ele>
        <time>2025-02-26T08:41:53Z</time>
      </trkpt>
      <trkpt lat="48.05586" lon="-3.51384">
        <ele>182.3</ele>
        <time>2025-02-26T08:41:54Z</time>
      </trkpt>
      <trkpt lat="48.05585" lon="-3.51386">
        <ele>182.2</ele>
        <time>2025-02-26T08:41:55Z</time>
      </trkpt>
      <trkpt lat="48.05585" lon="-3.51388">
        <ele>182.1</ele>
        <time>2025-02-26T08:41:56Z</time>
      </trkpt>
      <trkpt lat="48.05584" lon="-3.5139">
        <ele>182</ele>
        <time>2025-02-26T08:41:57Z</time>
      </trkpt>
      <trkpt lat="48.05583" lon="-3.51392">
        <ele>182</ele>
        <time>2025-02-26T08:41:58Z</time>
      </trkpt>
      <trkpt lat="48.05582" lon="-3.51393">
        <ele>181.9</ele>
        <time>2025-02-26T08:41:59Z</time>
      </trkpt>
      <trkpt lat="48.05581" lon="-3.51395">
        <ele>181.9</ele>
        <time>2025-02-26T08:42:00Z</time>
      </trkpt>
      <trkpt lat="48.0558" lon="-3.51396">
        <ele>181.9</ele>
        <time>2025-02-26T08:42:01Z</time>
      </trkpt>
      <trkpt lat="48.05579" lon="-3.51398">
        <ele>181.8</ele>
        <time>2025-02-26T08:42:02Z</time>
      </trkpt>
      <trkpt lat="48.05579" lon="-3.51399">
        <ele>181.8</ele>
        <time>2025-02-26T08:42:03Z</time>
      </trkpt>
      <trkpt lat="48.05579" lon="-3.514">
        <ele>181.8</ele>
        <time>2025-02-26T08:42:04Z</time>
      </trkpt>
      <trkpt lat="48.05578" lon="-3.51402">
        <ele>181.7</ele>
        <time>2025-02-26T08:42:05Z</time>
      </trkpt>
      <trkpt lat="48.05578" lon="-3.51403">
        <ele>181.7</ele>
        <time>2025-02-26T08:42:06Z</time>
      </trkpt>
      <trkpt lat="48.05577" lon="-3.51405">
        <ele>181.6</ele>
        <time>2025-02-26T08:42:07Z</time>
      </trkpt>
      <trkpt lat="48.05576" lon="-3.51407">
        <ele>181.6</ele>
        <time>2025-02-26T08:42:08Z</time>
      </trkpt>
      <trkpt lat="48.05576" lon="-3.51409">
        <ele>181.5</ele>
        <time>2025-02-26T08:42:09Z</time>
      </trkpt>
      <trkpt lat="48.05575" lon="-3.51411">
        <ele>181.5</ele>
        <time>2025-02-26T08:42:10Z</time>
      </trkpt>
      <trkpt lat="48.05575" lon="-3.51413">
        <ele>181.4</ele>
        <time>2025-02-26T08:42:11Z</time>
      </trkpt>
      <trkpt lat="48.05574" lon="-3.51415">
        <ele>181.3</ele>
        <time>2025-02-26T08:42:12Z</time>
      </trkpt>
      <trkpt lat="48.05573" lon="-3.51416">
        <ele>181.3</ele>
        <time>2025-02-26T08:42:13Z</time>
      </trkpt>
      <trkpt lat="48.05573" lon="-3.51418">
        <ele>181.2</ele>
        <time>2025-02-26T08:42:14Z</time>
      </trkpt>
      <trkpt lat="48.05573" lon="-3.51419">
        <ele>181.1</ele>
        <time>2025-02-26T08:42:15Z</time>
      </trkpt>
      <trkpt lat="48.05572" lon="-3.51421">
        <ele>181</ele>
        <time>2025-02-26T08:42:16Z</time>
      </trkpt>
      <trkpt lat="48.05572" lon="-3.51423">
        <ele>181</ele>
        <time>2025-02-26T08:42:17Z</time>
      </trkpt>
      <trkpt lat="48.05571" lon="-3.51424">
        <ele>180.8</ele>
        <time>2025-02-26T08:42:18Z</time>
      </trkpt>
      <trkpt lat="48.05571" lon="-3.51426">
        <ele>180.8</ele>
        <time>2025-02-26T08:42:19Z</time>
      </trkpt>
      <trkpt lat="48.05571" lon="-3.51428">
        <ele>180.7</ele>
        <time>2025-02-26T08:42:20Z</time>
      </trkpt>
      <trkpt lat="48.0557" lon="-3.51429">
        <ele>180.6</ele>
        <time>2025-02-26T08:42:21Z</time>
      </trkpt>
      <trkpt lat="48.05569" lon="-3.5143">
        <ele>180.5</ele>
        <time>2025-02-26T08:42:22Z</time>
      </trkpt>
      <trkpt lat="48.05568" lon="-3.51431">
        <ele>180.4</ele>
        <time>2025-02-26T08:42:23Z</time>
      </trkpt>
      <trkpt lat="48.05568" lon="-3.51433">
        <ele>180.3</ele>
        <time>2025-02-26T08:42:24Z</time>
      </trkpt>
      <trkpt lat="48.05567" lon="-3.51434">
        <ele>180.2</ele>
        <time>2025-02-26T08:42:25Z</time>
      </trkpt>
      <trkpt lat="48.05566" lon="-3.51435">
        <ele>180.1</ele>
        <time>2025-02-26T08:42:26Z</time>
      </trkpt>
      <trkpt lat="48.05565" lon="-3.51437">
        <ele>180</ele>
        <time>2025-02-26T08:42:27Z</time>
      </trkpt>
      <trkpt lat="48.05564" lon="-3.51438">
        <ele>179.9</ele>
        <time>2025-02-26T08:42:28Z</time>
      </trkpt>
      <trkpt lat="48.05564" lon="-3.51439">
        <ele>179.8</ele>
        <time>2025-02-26T08:42:29Z</time>
      </trkpt>
      <trkpt lat="48.05563" lon="-3.5144">
        <ele>179.7</ele>
        <time>2025-02-26T08:42:30Z</time>
      </trkpt>
      <trkpt lat="48.05562" lon="-3.51442">
        <ele>179.6</ele>
        <time>2025-02-26T08:42:31Z</time>
      </trkpt>
      <trkpt lat="48.05561" lon="-3.51443">
        <ele>179.5</ele>
        <time>2025-02-26T08:42:32Z</time>
      </trkpt>
      <trkpt lat="48.05561" lon="-3.51444">
        <ele>179.4</ele>
        <time>2025-02-26T08:42:33Z</time>
      </trkpt>
      <trkpt lat="48.0556" lon="-3.51445">
        <ele>179.3</ele>
        <time>2025-02-26T08:42:34Z</time>
      </trkpt>
      <trkpt lat="48.05559" lon="-3.51446">
        <ele>179.1</ele>
        <time>2025-02-26T08:42:35Z</time>
      </trkpt>
      <trkpt lat="48.05558" lon="-3.51448">
        <ele>178.9</ele>
        <time>2025-02-26T08:42:36Z</time>
      </trkpt>
      <trkpt lat="48.05557" lon="-3.51449">
        <ele>178.8</ele>
        <time>2025-02-26T08:42:37Z</time>
      </trkpt>
      <trkpt lat="48.05556" lon="-3.51449">
        <ele>178.7</ele>
        <time>2025-02-26T08:42:38Z</time>
      </trkpt>
      <trkpt lat="48.05555" lon="-3.5145">
        <ele>178.4</ele>
        <time>2025-02-26T08:42:39Z</time>
      </trkpt>
      <trkpt lat="48.05553" lon="-3.5145">
        <ele>178.2</ele>
        <time>2025-02-26T08:42:40Z</time>
      </trkpt>
      <trkpt lat="48.05552" lon="-3.51451">
        <ele>178</ele>
        <time>2025-02-26T08:42:41Z</time>
      </trkpt>
      <trkpt lat="48.05551" lon="-3.51452">
        <ele>177.7</ele>
        <time>2025-02-26T08:42:42Z</time>
      </trkpt>
      <trkpt lat="48.0555" lon="-3.51453">
        <ele>177.5</ele>
        <time>2025-02-26T08:42:43Z</time>
      </trkpt>
      <trkpt lat="48.05549" lon="-3.51454">
        <ele>177.3</ele>
        <time>2025-02-26T08:42:44Z</time>
      </trkpt>
      <trkpt lat="48.05548" lon="-3.51454">
        <ele>177.1</ele>
        <time>2025-02-26T08:42:45Z</time>
      </trkpt>
      <trkpt lat="48.05547" lon="-3.51455">
        <ele>176.9</ele>
        <time>2025-02-26T08:42:46Z</time>
      </trkpt>
      <trkpt lat="48.05547" lon="-3.51457">
        <ele>176.7</ele>
        <time>2025-02-26T08:42:47Z</time>
      </trkpt>
      <trkpt lat="48.05546" lon="-3.51458">
        <ele>176.4</ele>
        <time>2025-02-26T08:42:48Z</time>
      </trkpt>
      <trkpt lat="48.05545" lon="-3.51459">
        <ele>176.3</ele>
        <time>2025-02-26T08:42:49Z</time>
      </trkpt>
      <trkpt lat="48.05544" lon="-3.5146">
        <ele>176.1</ele>
        <time>2025-02-26T08:42:50Z</time>
      </trkpt>
      <trkpt lat="48.05543" lon="-3.51461">
        <ele>175.8</ele>
        <time>2025-02-26T08:42:51Z</time>
      </trkpt>
      <trkpt lat="48.05542" lon="-3.51462">
        <ele>175.6</ele>
        <time>2025-02-26T08:42:52Z</time>
      </trkpt>
      <trkpt lat="48.05541" lon="-3.51463">
        <ele>175.4</ele>
        <time>2025-02-26T08:42:53Z</time>
      </trkpt>
      <trkpt lat="48.05541" lon="-3.51464">
        <ele>175.3</ele>
        <time>2025-02-26T08:42:54Z</time>
      </trkpt>
      <trkpt lat="48.0554" lon="-3.51466">
        <ele>175.1</ele>
        <time>2025-02-26T08:42:55Z</time>
      </trkpt>
      <trkpt lat="48.0554" lon="-3.51467">
        <ele>175</ele>
        <time>2025-02-26T08:42:56Z</time>
      </trkpt>
      <trkpt lat="48.05539" lon="-3.51469">
        <ele>174.8</ele>
        <time>2025-02-26T08:42:57Z</time>
      </trkpt>
      <trkpt lat="48.05538" lon="-3.5147">
        <ele>174.6</ele>
        <time>2025-02-26T08:42:58Z</time>
      </trkpt>
      <trkpt lat="48.05537" lon="-3.51471">
        <ele>174.4</ele>
        <time>2025-02-26T08:42:59Z</time>
      </trkpt>
      <trkpt lat="48.05537" lon="-3.51473">
        <ele>174.3</ele>
        <time>2025-02-26T08:43:00Z</time>
      </trkpt>
      <trkpt lat="48.05536" lon="-3.51474">
        <ele>174.1</ele>
        <time>2025-02-26T08:43:01Z</time>
      </trkpt>
      <trkpt lat="48.05535" lon="-3.51476">
        <ele>173.9</ele>
        <time>2025-02-26T08:43:02Z</time>
      </trkpt>
      <trkpt lat="48.05535" lon="-3.51477">
        <ele>173.7</ele>
        <time>2025-02-26T08:43:03Z</time>
      </trkpt>
      <trkpt lat="48.05534" lon="-3.51478">
        <ele>173.6</ele>
        <time>2025-02-26T08:43:04Z</time>
      </trkpt>
      <trkpt lat="48.05533" lon="-3.5148">
        <ele>173.4</ele>
        <time>2025-02-26T08:43:05Z</time>
      </trkpt>
      <trkpt lat="48.05532" lon="-3.51481">
        <ele>173.2</ele>
        <time>2025-02-26T08:43:06Z</time>
      </trkpt>
      <trkpt lat="48.05532" lon="-3.51482">
        <ele>173.1</ele>
        <time>2025-02-26T08:43:07Z</time>
      </trkpt>
      <trkpt lat="48.05531" lon="-3.51483">
        <ele>173</ele>
        <time>2025-02-26T08:43:08Z</time>
      </trkpt>
      <trkpt lat="48.0553" lon="-3.51484">
        <ele>172.8</ele>
        <time>2025-02-26T08:43:09Z</time>
      </trkpt>
      <trkpt lat="48.05529" lon="-3.51486">
        <ele>172.7</ele>
        <time>2025-02-26T08:43:10Z</time>
      </trkpt>
      <trkpt lat="48.05528" lon="-3.51487">
        <ele>172.5</ele>
        <time>2025-02-26T08:43:11Z</time>
      </trkpt>
      <trkpt lat="48.05527" lon="-3.51488">
        <ele>172.4</ele>
        <time>2025-02-26T08:43:12Z</time>
      </trkpt>
      <trkpt lat="48.05526" lon="-3.5149">
        <ele>172.4</ele>
        <time>2025-02-26T08:43:13Z</time>
      </trkpt>
      <trkpt lat="48.05525" lon="-3.5149">
        <ele>172.4</ele>
        <time>2025-02-26T08:43:14Z</time>
      </trkpt>
      <trkpt lat="48.05524" lon="-3.51491">
        <ele>172.4</ele>
        <time>2025-02-26T08:43:15Z</time>
      </trkpt>
      <trkpt lat="48.05523" lon="-3.51492">
        <ele>172.4</ele>
        <time>2025-02-26T08:43:16Z</time>
      </trkpt>
      <trkpt lat="48.05523" lon="-3.51494">
        <ele>172.4</ele>
        <time>2025-02-26T08:43:17Z</time>
      </trkpt>
      <trkpt lat="48.05522" lon="-3.51495">
        <ele>172.5</ele>
        <time>2025-02-26T08:43:18Z</time>
      </trkpt>
      <trkpt lat="48.05521" lon="-3.51497">
        <ele>172.5</ele>
        <time>2025-02-26T08:43:19Z</time>
      </trkpt>
      <trkpt lat="48.05521" lon="-3.51498">
        <ele>172.5</ele>
        <time>2025-02-26T08:43:20Z</time>
      </trkpt>
      <trkpt lat="48.0552" lon="-3.515">
        <ele>172.5</ele>
        <time>2025-02-26T08:43:21Z</time>
      </trkpt>
      <trkpt lat="48.0552" lon="-3.51501">
        <ele>172.6</ele>
        <time>2025-02-26T08:43:22Z</time>
      </trkpt>
      <trkpt lat="48.05519" lon="-3.51503">
        <ele>172.8</ele>
        <time>2025-02-26T08:43:23Z</time>
      </trkpt>
      <trkpt lat="48.05519" lon="-3.51503">
        <ele>172.8</ele>
        <time>2025-02-26T08:43:24Z</time>
      </trkpt>
      <trkpt lat="48.05519" lon="-3.51502">
        <ele>172.8</ele>
        <time>2025-02-26T08:43:25Z</time>
      </trkpt>
      <trkpt lat="48.05518" lon="-3.51503">
        <ele>172.9</ele>
        <time>2025-02-26T08:43:26Z</time>
      </trkpt>
      <trkpt lat="48.05517" lon="-3.51504">
        <ele>173</ele>
        <time>2025-02-26T08:43:27Z</time>
      </trkpt>
      <trkpt lat="48.05517" lon="-3.51505">
        <ele>173.2</ele>
        <time>2025-02-26T08:43:28Z</time>
      </trkpt>
      <trkpt lat="48.05516" lon="-3.51507">
        <ele>173.3</ele>
        <time>2025-02-26T08:43:29Z</time>
      </trkpt>
      <trkpt lat="48.05515" lon="-3.51508">
        <ele>173.4</ele>
        <time>2025-02-26T08:43:30Z</time>
      </trkpt>
      <trkpt lat="48.05515" lon="-3.51509">
        <ele>173.5</ele>
        <time>2025-02-26T08:43:31Z</time>
      </trkpt>
      <trkpt lat="48.05515" lon="-3.51511">
        <ele>173.6</ele>
        <time>2025-02-26T08:43:32Z</time>
      </trkpt>
      <trkpt lat="48.05515" lon="-3.51512">
        <ele>173.8</ele>
        <time>2025-02-26T08:43:33Z</time>
      </trkpt>
      <trkpt lat="48.05514" lon="-3.51512">
        <ele>173.9</ele>
        <time>2025-02-26T08:43:34Z</time>
      </trkpt>
      <trkpt lat="48.05512" lon="-3.51512">
        <ele>174</ele>
        <time>2025-02-26T08:43:35Z</time>
      </trkpt>
      <trkpt lat="48.05511" lon="-3.51512">
        <ele>174.1</ele>
        <time>2025-02-26T08:43:36Z</time>
      </trkpt>
      <trkpt lat="48.0551" lon="-3.51513">
        <ele>174.3</ele>
        <time>2025-02-26T08:43:37Z</time>
      </trkpt>
      <trkpt lat="48.05509" lon="-3.51514">
        <ele>174.5</ele>
        <time>2025-02-26T08:43:38Z</time>
      </trkpt>
      <trkpt lat="48.05509" lon="-3.51516">
        <ele>174.7</ele>
        <time>2025-02-26T08:43:39Z</time>
      </trkpt>
      <trkpt lat="48.05508" lon="-3.51517">
        <ele>174.9</ele>
        <time>2025-02-26T08:43:40Z</time>
      </trkpt>
      <trkpt lat="48.05507" lon="-3.51518">
        <ele>175.1</ele>
        <time>2025-02-26T08:43:41Z</time>
      </trkpt>
      <trkpt lat="48.05506" lon="-3.51519">
        <ele>175.3</ele>
        <time>2025-02-26T08:43:42Z</time>
      </trkpt>
      <trkpt lat="48.05505" lon="-3.51518">
        <ele>175.4</ele>
        <time>2025-02-26T08:43:43Z</time>
      </trkpt>
      <trkpt lat="48.05504" lon="-3.51518">
        <ele>175.5</ele>
        <time>2025-02-26T08:43:44Z</time>
      </trkpt>
      <trkpt lat="48.05502" lon="-3.51517">
        <ele>175.5</ele>
        <time>2025-02-26T08:43:45Z</time>
      </trkpt>
      <trkpt lat="48.05501" lon="-3.51516">
        <ele>175.6</ele>
        <time>2025-02-26T08:43:46Z</time>
      </trkpt>
      <trkpt lat="48.055" lon="-3.51516">
        <ele>175.8</ele>
        <time>2025-02-26T08:43:47Z</time>
      </trkpt>
      <trkpt lat="48.05499" lon="-3.51515">
        <ele>175.8</ele>
        <time>2025-02-26T08:43:48Z</time>
      </trkpt>
      <trkpt lat="48.05498" lon="-3.51515">
        <ele>175.8</ele>
        <time>2025-02-26T08:43:49Z</time>
      </trkpt>
      <trkpt lat="48.05497" lon="-3.51513">
        <ele>175.8</ele>
        <time>2025-02-26T08:43:50Z</time>
      </trkpt>
      <trkpt lat="48.05496" lon="-3.51513">
        <ele>175.8</ele>
        <time>2025-02-26T08:43:51Z</time>
      </trkpt>
      <trkpt lat="48.05495" lon="-3.51512">
        <ele>175.9</ele>
        <time>2025-02-26T08:43:52Z</time>
      </trkpt>
      <trkpt lat="48.05494" lon="-3.51511">
        <ele>175.9</ele>
        <time>2025-02-26T08:43:53Z</time>
      </trkpt>
      <trkpt lat="48.05493" lon="-3.5151">
        <ele>175.9</ele>
        <time>2025-02-26T08:43:54Z</time>
      </trkpt>
      <trkpt lat="48.05493" lon="-3.51509">
        <ele>175.8</ele>
        <time>2025-02-26T08:43:55Z</time>
      </trkpt>
      <trkpt lat="48.05492" lon="-3.51508">
        <ele>175.9</ele>
        <time>2025-02-26T08:43:56Z</time>
      </trkpt>
      <trkpt lat="48.05491" lon="-3.51507">
        <ele>175.9</ele>
        <time>2025-02-26T08:43:57Z</time>
      </trkpt>
      <trkpt lat="48.0549" lon="-3.51506">
        <ele>175.9</ele>
        <time>2025-02-26T08:43:58Z</time>
      </trkpt>
      <trkpt lat="48.05489" lon="-3.51505">
        <ele>176</ele>
        <time>2025-02-26T08:43:59Z</time>
      </trkpt>
      <trkpt lat="48.05488" lon="-3.51504">
        <ele>176</ele>
        <time>2025-02-26T08:44:00Z</time>
      </trkpt>
      <trkpt lat="48.05488" lon="-3.51503">
        <ele>176.1</ele>
        <time>2025-02-26T08:44:01Z</time>
      </trkpt>
      <trkpt lat="48.05487" lon="-3.51503">
        <ele>176.1</ele>
        <time>2025-02-26T08:44:02Z</time>
      </trkpt>
      <trkpt lat="48.05486" lon="-3.51501">
        <ele>176.1</ele>
        <time>2025-02-26T08:44:03Z</time>
      </trkpt>
      <trkpt lat="48.05485" lon="-3.515">
        <ele>176.1</ele>
        <time>2025-02-26T08:44:04Z</time>
      </trkpt>
      <trkpt lat="48.05484" lon="-3.51499">
        <ele>176.1</ele>
        <time>2025-02-26T08:44:05Z</time>
      </trkpt>
      <trkpt lat="48.05483" lon="-3.51498">
        <ele>176.1</ele>
        <time>2025-02-26T08:44:06Z</time>
      </trkpt>
      <trkpt lat="48.05482" lon="-3.51497">
        <ele>176.1</ele>
        <time>2025-02-26T08:44:07Z</time>
      </trkpt>
      <trkpt lat="48.05481" lon="-3.51496">
        <ele>176.2</ele>
        <time>2025-02-26T08:44:08Z</time>
      </trkpt>
      <trkpt lat="48.05481" lon="-3.51495">
        <ele>176.2</ele>
        <time>2025-02-26T08:44:09Z</time>
      </trkpt>
      <trkpt lat="48.0548" lon="-3.51494">
        <ele>176.2</ele>
        <time>2025-02-26T08:44:10Z</time>
      </trkpt>
      <trkpt lat="48.05479" lon="-3.51494">
        <ele>176.2</ele>
        <time>2025-02-26T08:44:11Z</time>
      </trkpt>
      <trkpt lat="48.05478" lon="-3.51493">
        <ele>176.2</ele>
        <time>2025-02-26T08:44:12Z</time>
      </trkpt>
      <trkpt lat="48.05477" lon="-3.51493">
        <ele>176.3</ele>
        <time>2025-02-26T08:44:13Z</time>
      </trkpt>
      <trkpt lat="48.05476" lon="-3.51493">
        <ele>176.4</ele>
        <time>2025-02-26T08:44:14Z</time>
      </trkpt>
      <trkpt lat="48.05475" lon="-3.51492">
        <ele>176.4</ele>
        <time>2025-02-26T08:44:15Z</time>
      </trkpt>
      <trkpt lat="48.05474" lon="-3.51492">
        <ele>176.7</ele>
        <time>2025-02-26T08:44:16Z</time>
      </trkpt>
      <trkpt lat="48.05473" lon="-3.51493">
        <ele>176.9</ele>
        <time>2025-02-26T08:44:17Z</time>
      </trkpt>
      <trkpt lat="48.05472" lon="-3.51493">
        <ele>177</ele>
        <time>2025-02-26T08:44:18Z</time>
      </trkpt>
      <trkpt lat="48.05471" lon="-3.51494">
        <ele>177.1</ele>
        <time>2025-02-26T08:44:19Z</time>
      </trkpt>
      <trkpt lat="48.0547" lon="-3.51494">
        <ele>177.2</ele>
        <time>2025-02-26T08:44:20Z</time>
      </trkpt>
      <trkpt lat="48.0547" lon="-3.51494">
        <ele>177.2</ele>
        <time>2025-02-26T08:44:21Z</time>
      </trkpt>
      <trkpt lat="48.05469" lon="-3.51495">
        <ele>177.2</ele>
        <time>2025-02-26T08:44:22Z</time>
      </trkpt>
      <trkpt lat="48.05468" lon="-3.51495">
        <ele>177.3</ele>
        <time>2025-02-26T08:44:23Z</time>
      </trkpt>
      <trkpt lat="48.05467" lon="-3.51495">
        <ele>177.3</ele>
        <time>2025-02-26T08:44:24Z</time>
      </trkpt>
      <trkpt lat="48.05467" lon="-3.51496">
        <ele>177.4</ele>
        <time>2025-02-26T08:44:25Z</time>
      </trkpt>
      <trkpt lat="48.05466" lon="-3.51497">
        <ele>177.5</ele>
        <time>2025-02-26T08:44:26Z</time>
      </trkpt>
      <trkpt lat="48.05466" lon="-3.51498">
        <ele>177.7</ele>
        <time>2025-02-26T08:44:27Z</time>
      </trkpt>
      <trkpt lat="48.05465" lon="-3.51499">
        <ele>177.8</ele>
        <time>2025-02-26T08:44:28Z</time>
      </trkpt>
      <trkpt lat="48.05464" lon="-3.515">
        <ele>177.9</ele>
        <time>2025-02-26T08:44:29Z</time>
      </trkpt>
      <trkpt lat="48.05464" lon="-3.515">
        <ele>178</ele>
        <time>2025-02-26T08:44:30Z</time>
      </trkpt>
      <trkpt lat="48.05463" lon="-3.51501">
        <ele>178</ele>
        <time>2025-02-26T08:44:31Z</time>
      </trkpt>
      <trkpt lat="48.05462" lon="-3.51502">
        <ele>178.1</ele>
        <time>2025-02-26T08:44:32Z</time>
      </trkpt>
      <trkpt lat="48.05462" lon="-3.51503">
        <ele>178.1</ele>
        <time>2025-02-26T08:44:33Z</time>
      </trkpt>
      <trkpt lat="48.05461" lon="-3.51505">
        <ele>178.2</ele>
        <time>2025-02-26T08:44:34Z</time>
      </trkpt>
      <trkpt lat="48.05461" lon="-3.51506">
        <ele>178.2</ele>
        <time>2025-02-26T08:44:35Z</time>
      </trkpt>
      <trkpt lat="48.05461" lon="-3.51507">
        <ele>178.3</ele>
        <time>2025-02-26T08:44:36Z</time>
      </trkpt>
      <trkpt lat="48.0546" lon="-3.51508">
        <ele>178.3</ele>
        <time>2025-02-26T08:44:37Z</time>
      </trkpt>
      <trkpt lat="48.05459" lon="-3.51509">
        <ele>178.3</ele>
        <time>2025-02-26T08:44:38Z</time>
      </trkpt>
      <trkpt lat="48.05458" lon="-3.51509">
        <ele>178.3</ele>
        <time>2025-02-26T08:44:39Z</time>
      </trkpt>
      <trkpt lat="48.05457" lon="-3.5151">
        <ele>178.4</ele>
        <time>2025-02-26T08:44:40Z</time>
      </trkpt>
      <trkpt lat="48.05456" lon="-3.51511">
        <ele>178.4</ele>
        <time>2025-02-26T08:44:41Z</time>
      </trkpt>
      <trkpt lat="48.05455" lon="-3.51512">
        <ele>178.4</ele>
        <time>2025-02-26T08:44:42Z</time>
      </trkpt>
      <trkpt lat="48.05454" lon="-3.51513">
        <ele>178.5</ele>
        <time>2025-02-26T08:44:43Z</time>
      </trkpt>
      <trkpt lat="48.05454" lon="-3.51514">
        <ele>178.5</ele>
        <time>2025-02-26T08:44:44Z</time>
      </trkpt>
      <trkpt lat="48.05453" lon="-3.51515">
        <ele>178.6</ele>
        <time>2025-02-26T08:44:45Z</time>
      </trkpt>
      <trkpt lat="48.05452" lon="-3.51516">
        <ele>178.6</ele>
        <time>2025-02-26T08:44:46Z</time>
      </trkpt>
      <trkpt lat="48.05451" lon="-3.51517">
        <ele>178.6</ele>
        <time>2025-02-26T08:44:47Z</time>
      </trkpt>
      <trkpt lat="48.05451" lon="-3.51518">
        <ele>178.6</ele>
        <time>2025-02-26T08:44:48Z</time>
      </trkpt>
      <trkpt lat="48.0545" lon="-3.51519">
        <ele>178.7</ele>
        <time>2025-02-26T08:44:49Z</time>
      </trkpt>
      <trkpt lat="48.05449" lon="-3.5152">
        <ele>178.7</ele>
        <time>2025-02-26T08:44:50Z</time>
      </trkpt>
      <trkpt lat="48.05448" lon="-3.51521">
        <ele>178.7</ele>
        <time>2025-02-26T08:44:51Z</time>
      </trkpt>
      <trkpt lat="48.05448" lon="-3.51522">
        <ele>178.8</ele>
        <time>2025-02-26T08:44:52Z</time>
      </trkpt>
      <trkpt lat="48.05447" lon="-3.51523">
        <ele>178.8</ele>
        <time>2025-02-26T08:44:53Z</time>
      </trkpt>
      <trkpt lat="48.05446" lon="-3.51523">
        <ele>178.8</ele>
        <time>2025-02-26T08:44:54Z</time>
      </trkpt>
      <trkpt lat="48.05445" lon="-3.51524">
        <ele>178.9</ele>
        <time>2025-02-26T08:44:55Z</time>
      </trkpt>
      <trkpt lat="48.05445" lon="-3.51525">
        <ele>178.9</ele>
        <time>2025-02-26T08:44:56Z</time>
      </trkpt>
      <trkpt lat="48.05444" lon="-3.51526">
        <ele>178.9</ele>
        <time>2025-02-26T08:44:57Z</time>
      </trkpt>
      <trkpt lat="48.05443" lon="-3.51527">
        <ele>178.9</ele>
        <time>2025-02-26T08:44:58Z</time>
      </trkpt>
      <trkpt lat="48.05442" lon="-3.51528">
        <ele>178.9</ele>
        <time>2025-02-26T08:44:59Z</time>
      </trkpt>
      <trkpt lat="48.0544" lon="-3.5153">
        <ele>178.9</ele>
        <time>2025-02-26T08:45:00Z</time>
      </trkpt>
      <trkpt lat="48.0544" lon="-3.51531">
        <ele>178.9</ele>
        <time>2025-02-26T08:45:01Z</time>
      </trkpt>
      <trkpt lat="48.05438" lon="-3.51532">
        <ele>178.9</ele>
        <time>2025-02-26T08:45:02Z</time>
      </trkpt>
      <trkpt lat="48.05437" lon="-3.51533">
        <ele>178.9</ele>
        <time>2025-02-26T08:45:03Z</time>
      </trkpt>
      <trkpt lat="48.05437" lon="-3.51534">
        <ele>179</ele>
        <time>2025-02-26T08:45:04Z</time>
      </trkpt>
      <trkpt lat="48.05436" lon="-3.51536">
        <ele>179</ele>
        <time>2025-02-26T08:45:05Z</time>
      </trkpt>
      <trkpt lat="48.05436" lon="-3.51537">
        <ele>179</ele>
        <time>2025-02-26T08:45:06Z</time>
      </trkpt>
      <trkpt lat="48.05435" lon="-3.51538">
        <ele>179</ele>
        <time>2025-02-26T08:45:07Z</time>
      </trkpt>
      <trkpt lat="48.05434" lon="-3.51539">
        <ele>179</ele>
        <time>2025-02-26T08:45:08Z</time>
      </trkpt>
      <trkpt lat="48.05433" lon="-3.51539">
        <ele>179</ele>
        <time>2025-02-26T08:45:09Z</time>
      </trkpt>
      <trkpt lat="48.05432" lon="-3.5154">
        <ele>179</ele>
        <time>2025-02-26T08:45:10Z</time>
      </trkpt>
      <trkpt lat="48.05431" lon="-3.51542">
        <ele>179</ele>
        <time>2025-02-26T08:45:11Z</time>
      </trkpt>
      <trkpt lat="48.0543" lon="-3.51542">
        <ele>179</ele>
        <time>2025-02-26T08:45:12Z</time>
      </trkpt>
      <trkpt lat="48.05429" lon="-3.51544">
        <ele>179</ele>
        <time>2025-02-26T08:45:13Z</time>
      </trkpt>
      <trkpt lat="48.05428" lon="-3.51545">
        <ele>179</ele>
        <time>2025-02-26T08:45:14Z</time>
      </trkpt>
      <trkpt lat="48.05427" lon="-3.51545">
        <ele>179</ele>
        <time>2025-02-26T08:45:15Z</time>
      </trkpt>
      <trkpt lat="48.05426" lon="-3.51545">
        <ele>179</ele>
        <time>2025-02-26T08:45:16Z</time>
      </trkpt>
      <trkpt lat="48.05425" lon="-3.51546">
        <ele>179</ele>
        <time>2025-02-26T08:45:17Z</time>
      </trkpt>
      <trkpt lat="48.05424" lon="-3.51547">
        <ele>179</ele>
        <time>2025-02-26T08:45:18Z</time>
      </trkpt>
      <trkpt lat="48.05423" lon="-3.51547">
        <ele>178.9</ele>
        <time>2025-02-26T08:45:19Z</time>
      </trkpt>
      <trkpt lat="48.05423" lon="-3.51548">
        <ele>178.9</ele>
        <time>2025-02-26T08:45:20Z</time>
      </trkpt>
      <trkpt lat="48.05421" lon="-3.51548">
        <ele>178.9</ele>
        <time>2025-02-26T08:45:21Z</time>
      </trkpt>
      <trkpt lat="48.0542" lon="-3.51548">
        <ele>178.8</ele>
        <time>2025-02-26T08:45:22Z</time>
      </trkpt>
      <trkpt lat="48.05419" lon="-3.51549">
        <ele>178.9</ele>
        <time>2025-02-26T08:45:23Z</time>
      </trkpt>
      <trkpt lat="48.05418" lon="-3.5155">
        <ele>178.9</ele>
        <time>2025-02-26T08:45:24Z</time>
      </trkpt>
      <trkpt lat="48.05417" lon="-3.51551">
        <ele>178.8</ele>
        <time>2025-02-26T08:45:25Z</time>
      </trkpt>
      <trkpt lat="48.05416" lon="-3.51552">
        <ele>178.8</ele>
        <time>2025-02-26T08:45:26Z</time>
      </trkpt>
      <trkpt lat="48.05415" lon="-3.51553">
        <ele>178.7</ele>
        <time>2025-02-26T08:45:27Z</time>
      </trkpt>
      <trkpt lat="48.05414" lon="-3.51554">
        <ele>178.5</ele>
        <time>2025-02-26T08:45:28Z</time>
      </trkpt>
      <trkpt lat="48.05413" lon="-3.51554">
        <ele>178.4</ele>
        <time>2025-02-26T08:45:29Z</time>
      </trkpt>
      <trkpt lat="48.05412" lon="-3.51555">
        <ele>178.3</ele>
        <time>2025-02-26T08:45:30Z</time>
      </trkpt>
      <trkpt lat="48.05411" lon="-3.51556">
        <ele>178.2</ele>
        <time>2025-02-26T08:45:31Z</time>
      </trkpt>
      <trkpt lat="48.0541" lon="-3.51556">
        <ele>178</ele>
        <time>2025-02-26T08:45:32Z</time>
      </trkpt>
      <trkpt lat="48.05409" lon="-3.51558">
        <ele>177.9</ele>
        <time>2025-02-26T08:45:33Z</time>
      </trkpt>
      <trkpt lat="48.05408" lon="-3.51559">
        <ele>177.8</ele>
        <time>2025-02-26T08:45:34Z</time>
      </trkpt>
      <trkpt lat="48.05407" lon="-3.51561">
        <ele>177.7</ele>
        <time>2025-02-26T08:45:35Z</time>
      </trkpt>
      <trkpt lat="48.05406" lon="-3.51562">
        <ele>177.6</ele>
        <time>2025-02-26T08:45:36Z</time>
      </trkpt>
      <trkpt lat="48.05406" lon="-3.51564">
        <ele>177.6</ele>
        <time>2025-02-26T08:45:37Z</time>
      </trkpt>
      <trkpt lat="48.05405" lon="-3.51566">
        <ele>177.5</ele>
        <time>2025-02-26T08:45:38Z</time>
      </trkpt>
      <trkpt lat="48.05404" lon="-3.51567">
        <ele>177.4</ele>
        <time>2025-02-26T08:45:39Z</time>
      </trkpt>
      <trkpt lat="48.05404" lon="-3.51569">
        <ele>177.4</ele>
        <time>2025-02-26T08:45:40Z</time>
      </trkpt>
      <trkpt lat="48.05404" lon="-3.51571">
        <ele>177.4</ele>
        <time>2025-02-26T08:45:41Z</time>
      </trkpt>
      <trkpt lat="48.05404" lon="-3.51573">
        <ele>177.5</ele>
        <time>2025-02-26T08:45:42Z</time>
      </trkpt>
      <trkpt lat="48.05404" lon="-3.51575">
        <ele>177.4</ele>
        <time>2025-02-26T08:45:43Z</time>
      </trkpt>
      <trkpt lat="48.05403" lon="-3.51577">
        <ele>177.4</ele>
        <time>2025-02-26T08:45:44Z</time>
      </trkpt>
      <trkpt lat="48.05402" lon="-3.51578">
        <ele>177.3</ele>
        <time>2025-02-26T08:45:45Z</time>
      </trkpt>
      <trkpt lat="48.05402" lon="-3.5158">
        <ele>177.3</ele>
        <time>2025-02-26T08:45:46Z</time>
      </trkpt>
      <trkpt lat="48.05401" lon="-3.51582">
        <ele>177.3</ele>
        <time>2025-02-26T08:45:47Z</time>
      </trkpt>
      <trkpt lat="48.05401" lon="-3.51583">
        <ele>177.3</ele>
        <time>2025-02-26T08:45:48Z</time>
      </trkpt>
      <trkpt lat="48.054" lon="-3.51585">
        <ele>177.2</ele>
        <time>2025-02-26T08:45:49Z</time>
      </trkpt>
      <trkpt lat="48.054" lon="-3.51587">
        <ele>177.2</ele>
        <time>2025-02-26T08:45:50Z</time>
      </trkpt>
      <trkpt lat="48.054" lon="-3.51589">
        <ele>177.2</ele>
        <time>2025-02-26T08:45:51Z</time>
      </trkpt>
      <trkpt lat="48.054" lon="-3.51591">
        <ele>177.2</ele>
        <time>2025-02-26T08:45:52Z</time>
      </trkpt>
      <trkpt lat="48.054" lon="-3.51592">
        <ele>177.2</ele>
        <time>2025-02-26T08:45:53Z</time>
      </trkpt>
      <trkpt lat="48.054" lon="-3.51594">
        <ele>177.2</ele>
        <time>2025-02-26T08:45:54Z</time>
      </trkpt>
      <trkpt lat="48.05399" lon="-3.51596">
        <ele>177.1</ele>
        <time>2025-02-26T08:45:55Z</time>
      </trkpt>
      <trkpt lat="48.05398" lon="-3.51598">
        <ele>177</ele>
        <time>2025-02-26T08:45:56Z</time>
      </trkpt>
      <trkpt lat="48.05398" lon="-3.51601">
        <ele>177</ele>
        <time>2025-02-26T08:45:57Z</time>
      </trkpt>
      <trkpt lat="48.05398" lon="-3.51603">
        <ele>177</ele>
        <time>2025-02-26T08:45:58Z</time>
      </trkpt>
      <trkpt lat="48.05398" lon="-3.51605">
        <ele>177</ele>
        <time>2025-02-26T08:45:59Z</time>
      </trkpt>
      <trkpt lat="48.05398" lon="-3.51607">
        <ele>177</ele>
        <time>2025-02-26T08:46:00Z</time>
      </trkpt>
      <trkpt lat="48.05397" lon="-3.51609">
        <ele>176.9</ele>
        <time>2025-02-26T08:46:01Z</time>
      </trkpt>
      <trkpt lat="48.05397" lon="-3.5161">
        <ele>176.9</ele>
        <time>2025-02-26T08:46:02Z</time>
      </trkpt>
      <trkpt lat="48.05397" lon="-3.51612">
        <ele>176.8</ele>
        <time>2025-02-26T08:46:03Z</time>
      </trkpt>
      <trkpt lat="48.05397" lon="-3.51614">
        <ele>176.9</ele>
        <time>2025-02-26T08:46:04Z</time>
      </trkpt>
      <trkpt lat="48.05397" lon="-3.51616">
        <ele>176.8</ele>
        <time>2025-02-26T08:46:05Z</time>
      </trkpt>
      <trkpt lat="48.05396" lon="-3.51618">
        <ele>176.8</ele>
        <time>2025-02-26T08:46:06Z</time>
      </trkpt>
      <trkpt lat="48.05396" lon="-3.5162">
        <ele>176.7</ele>
        <time>2025-02-26T08:46:07Z</time>
      </trkpt>
      <trkpt lat="48.05395" lon="-3.51622">
        <ele>176.7</ele>
        <time>2025-02-26T08:46:08Z</time>
      </trkpt>
      <trkpt lat="48.05395" lon="-3.51624">
        <ele>176.7</ele>
        <time>2025-02-26T08:46:09Z</time>
      </trkpt>
      <trkpt lat="48.05395" lon="-3.51626">
        <ele>176.6</ele>
        <time>2025-02-26T08:46:10Z</time>
      </trkpt>
      <trkpt lat="48.05394" lon="-3.51627">
        <ele>176.5</ele>
        <time>2025-02-26T08:46:11Z</time>
      </trkpt>
      <trkpt lat="48.05394" lon="-3.51629">
        <ele>176.5</ele>
        <time>2025-02-26T08:46:12Z</time>
      </trkpt>
      <trkpt lat="48.05393" lon="-3.51631">
        <ele>176.5</ele>
        <time>2025-02-26T08:46:13Z</time>
      </trkpt>
      <trkpt lat="48.05393" lon="-3.51632">
        <ele>176.4</ele>
        <time>2025-02-26T08:46:14Z</time>
      </trkpt>
      <trkpt lat="48.05393" lon="-3.51634">
        <ele>176.4</ele>
        <time>2025-02-26T08:46:15Z</time>
      </trkpt>
      <trkpt lat="48.05392" lon="-3.51635">
        <ele>176.3</ele>
        <time>2025-02-26T08:46:16Z</time>
      </trkpt>
      <trkpt lat="48.05392" lon="-3.51637">
        <ele>176.3</ele>
        <time>2025-02-26T08:46:17Z</time>
      </trkpt>
      <trkpt lat="48.05392" lon="-3.51639">
        <ele>176.3</ele>
        <time>2025-02-26T08:46:18Z</time>
      </trkpt>
      <trkpt lat="48.05392" lon="-3.51641">
        <ele>176.3</ele>
        <time>2025-02-26T08:46:19Z</time>
      </trkpt>
      <trkpt lat="48.05391" lon="-3.51644">
        <ele>176.2</ele>
        <time>2025-02-26T08:46:20Z</time>
      </trkpt>
      <trkpt lat="48.0539" lon="-3.51645">
        <ele>176.1</ele>
        <time>2025-02-26T08:46:21Z</time>
      </trkpt>
      <trkpt lat="48.05389" lon="-3.51648">
        <ele>176</ele>
        <time>2025-02-26T08:46:22Z</time>
      </trkpt>
      <trkpt lat="48.05389" lon="-3.51649">
        <ele>176</ele>
        <time>2025-02-26T08:46:23Z</time>
      </trkpt>
      <trkpt lat="48.05389" lon="-3.51651">
        <ele>176</ele>
        <time>2025-02-26T08:46:24Z</time>
      </trkpt>
      <trkpt lat="48.05389" lon="-3.51653">
        <ele>176</ele>
        <time>2025-02-26T08:46:25Z</time>
      </trkpt>
      <trkpt lat="48.05389" lon="-3.51654">
        <ele>176</ele>
        <time>2025-02-26T08:46:26Z</time>
      </trkpt>
      <trkpt lat="48.05388" lon="-3.51656">
        <ele>175.9</ele>
        <time>2025-02-26T08:46:27Z</time>
      </trkpt>
      <trkpt lat="48.05388" lon="-3.51658">
        <ele>175.9</ele>
        <time>2025-02-26T08:46:28Z</time>
      </trkpt>
      <trkpt lat="48.05388" lon="-3.5166">
        <ele>175.9</ele>
        <time>2025-02-26T08:46:29Z</time>
      </trkpt>
      <trkpt lat="48.05388" lon="-3.51662">
        <ele>175.9</ele>
        <time>2025-02-26T08:46:30Z</time>
      </trkpt>
      <trkpt lat="48.05388" lon="-3.51664">
        <ele>175.9</ele>
        <time>2025-02-26T08:46:31Z</time>
      </trkpt>
      <trkpt lat="48.05388" lon="-3.51666">
        <ele>175.9</ele>
        <time>2025-02-26T08:46:32Z</time>
      </trkpt>
      <trkpt lat="48.05388" lon="-3.51667">
        <ele>175.9</ele>
        <time>2025-02-26T08:46:33Z</time>
      </trkpt>
      <trkpt lat="48.05388" lon="-3.51669">
        <ele>175.9</ele>
        <time>2025-02-26T08:46:34Z</time>
      </trkpt>
      <trkpt lat="48.05389" lon="-3.51671">
        <ele>175.9</ele>
        <time>2025-02-26T08:46:35Z</time>
      </trkpt>
      <trkpt lat="48.05389" lon="-3.51672">
        <ele>176</ele>
        <time>2025-02-26T08:46:36Z</time>
      </trkpt>
      <trkpt lat="48.05389" lon="-3.51674">
        <ele>176</ele>
        <time>2025-02-26T08:46:37Z</time>
      </trkpt>
      <trkpt lat="48.05389" lon="-3.51676">
        <ele>176</ele>
        <time>2025-02-26T08:46:38Z</time>
      </trkpt>
      <trkpt lat="48.05389" lon="-3.51677">
        <ele>176</ele>
        <time>2025-02-26T08:46:39Z</time>
      </trkpt>
      <trkpt lat="48.05389" lon="-3.51679">
        <ele>176</ele>
        <time>2025-02-26T08:46:40Z</time>
      </trkpt>
      <trkpt lat="48.05388" lon="-3.5168">
        <ele>175.9</ele>
        <time>2025-02-26T08:46:41Z</time>
      </trkpt>
      <trkpt lat="48.05388" lon="-3.51682">
        <ele>175.9</ele>
        <time>2025-02-26T08:46:42Z</time>
      </trkpt>
      <trkpt lat="48.05388" lon="-3.51684">
        <ele>175.8</ele>
        <time>2025-02-26T08:46:43Z</time>
      </trkpt>
      <trkpt lat="48.05388" lon="-3.51685">
        <ele>175.9</ele>
        <time>2025-02-26T08:46:44Z</time>
      </trkpt>
      <trkpt lat="48.05388" lon="-3.51687">
        <ele>175.9</ele>
        <time>2025-02-26T08:46:45Z</time>
      </trkpt>
      <trkpt lat="48.05388" lon="-3.51688">
        <ele>175.9</ele>
        <time>2025-02-26T08:46:46Z</time>
      </trkpt>
      <trkpt lat="48.05388" lon="-3.5169">
        <ele>175.9</ele>
        <time>2025-02-26T08:46:47Z</time>
      </trkpt>
      <trkpt lat="48.05388" lon="-3.51691">
        <ele>175.9</ele>
        <time>2025-02-26T08:46:48Z</time>
      </trkpt>
      <trkpt lat="48.05387" lon="-3.51693">
        <ele>175.8</ele>
        <time>2025-02-26T08:46:49Z</time>
      </trkpt>
      <trkpt lat="48.05387" lon="-3.51694">
        <ele>175.8</ele>
        <time>2025-02-26T08:46:50Z</time>
      </trkpt>
      <trkpt lat="48.05387" lon="-3.51696">
        <ele>175.9</ele>
        <time>2025-02-26T08:46:51Z</time>
      </trkpt>
      <trkpt lat="48.05387" lon="-3.51698">
        <ele>175.9</ele>
        <time>2025-02-26T08:46:52Z</time>
      </trkpt>
      <trkpt lat="48.05387" lon="-3.51699">
        <ele>175.9</ele>
        <time>2025-02-26T08:46:53Z</time>
      </trkpt>
      <trkpt lat="48.05386" lon="-3.51701">
        <ele>175.9</ele>
        <time>2025-02-26T08:46:54Z</time>
      </trkpt>
      <trkpt lat="48.05386" lon="-3.51702">
        <ele>175.9</ele>
        <time>2025-02-26T08:46:55Z</time>
      </trkpt>
      <trkpt lat="48.05385" lon="-3.51704">
        <ele>175.9</ele>
        <time>2025-02-26T08:46:56Z</time>
      </trkpt>
      <trkpt lat="48.05385" lon="-3.51705">
        <ele>175.9</ele>
        <time>2025-02-26T08:46:57Z</time>
      </trkpt>
      <trkpt lat="48.05384" lon="-3.51706">
        <ele>175.9</ele>
        <time>2025-02-26T08:46:58Z</time>
      </trkpt>
      <trkpt lat="48.05384" lon="-3.51708">
        <ele>175.9</ele>
        <time>2025-02-26T08:46:59Z</time>
      </trkpt>
      <trkpt lat="48.05384" lon="-3.5171">
        <ele>176</ele>
        <time>2025-02-26T08:47:00Z</time>
      </trkpt>
      <trkpt lat="48.05384" lon="-3.51712">
        <ele>176</ele>
        <time>2025-02-26T08:47:01Z</time>
      </trkpt>
      <trkpt lat="48.05383" lon="-3.51713">
        <ele>176</ele>
        <time>2025-02-26T08:47:02Z</time>
      </trkpt>
      <trkpt lat="48.05382" lon="-3.51714">
        <ele>176</ele>
        <time>2025-02-26T08:47:03Z</time>
      </trkpt>
      <trkpt lat="48.05382" lon="-3.51715">
        <ele>176</ele>
        <time>2025-02-26T08:47:04Z</time>
      </trkpt>
      <trkpt lat="48.05381" lon="-3.51717">
        <ele>175.9</ele>
        <time>2025-02-26T08:47:05Z</time>
      </trkpt>
      <trkpt lat="48.0538" lon="-3.51718">
        <ele>175.9</ele>
        <time>2025-02-26T08:47:06Z</time>
      </trkpt>
      <trkpt lat="48.0538" lon="-3.51719">
        <ele>175.9</ele>
        <time>2025-02-26T08:47:07Z</time>
      </trkpt>
      <trkpt lat="48.05379" lon="-3.51721">
        <ele>175.9</ele>
        <time>2025-02-26T08:47:08Z</time>
      </trkpt>
      <trkpt lat="48.05379" lon="-3.51723">
        <ele>176</ele>
        <time>2025-02-26T08:47:09Z</time>
      </trkpt>
      <trkpt lat="48.05379" lon="-3.51723">
        <ele>176</ele>
        <time>2025-02-26T08:47:10Z</time>
      </trkpt>
      <trkpt lat="48.05379" lon="-3.51724">
        <ele>176</ele>
        <time>2025-02-26T08:47:11Z</time>
      </trkpt>
      <trkpt lat="48.05378" lon="-3.51725">
        <ele>176</ele>
        <time>2025-02-26T08:47:12Z</time>
      </trkpt>
      <trkpt lat="48.05378" lon="-3.51726">
        <ele>176</ele>
        <time>2025-02-26T08:47:13Z</time>
      </trkpt>
      <trkpt lat="48.05377" lon="-3.51728">
        <ele>176</ele>
        <time>2025-02-26T08:47:14Z</time>
      </trkpt>
      <trkpt lat="48.05377" lon="-3.51729">
        <ele>176</ele>
        <time>2025-02-26T08:47:15Z</time>
      </trkpt>
      <trkpt lat="48.05376" lon="-3.5173">
        <ele>175.9</ele>
        <time>2025-02-26T08:47:16Z</time>
      </trkpt>
      <trkpt lat="48.05376" lon="-3.51731">
        <ele>175.9</ele>
        <time>2025-02-26T08:47:17Z</time>
      </trkpt>
      <trkpt lat="48.05375" lon="-3.51732">
        <ele>175.8</ele>
        <time>2025-02-26T08:47:18Z</time>
      </trkpt>
      <trkpt lat="48.05374" lon="-3.51733">
        <ele>175.8</ele>
        <time>2025-02-26T08:47:19Z</time>
      </trkpt>
      <trkpt lat="48.05374" lon="-3.51734">
        <ele>175.8</ele>
        <time>2025-02-26T08:47:20Z</time>
      </trkpt>
      <trkpt lat="48.05373" lon="-3.51735">
        <ele>175.8</ele>
        <time>2025-02-26T08:47:21Z</time>
      </trkpt>
      <trkpt lat="48.05373" lon="-3.51736">
        <ele>175.8</ele>
        <time>2025-02-26T08:47:22Z</time>
      </trkpt>
      <trkpt lat="48.05373" lon="-3.51737">
        <ele>175.8</ele>
        <time>2025-02-26T08:47:23Z</time>
      </trkpt>
      <trkpt lat="48.05372" lon="-3.51739">
        <ele>175.8</ele>
        <time>2025-02-26T08:47:24Z</time>
      </trkpt>
      <trkpt lat="48.05371" lon="-3.5174">
        <ele>175.7</ele>
        <time>2025-02-26T08:47:25Z</time>
      </trkpt>
      <trkpt lat="48.05371" lon="-3.51741">
        <ele>175.7</ele>
        <time>2025-02-26T08:47:26Z</time>
      </trkpt>
      <trkpt lat="48.05371" lon="-3.51743">
        <ele>175.8</ele>
        <time>2025-02-26T08:47:27Z</time>
      </trkpt>
      <trkpt lat="48.05371" lon="-3.51744">
        <ele>175.8</ele>
        <time>2025-02-26T08:47:28Z</time>
      </trkpt>
      <trkpt lat="48.05371" lon="-3.51746">
        <ele>175.9</ele>
        <time>2025-02-26T08:47:29Z</time>
      </trkpt>
      <trkpt lat="48.05369" lon="-3.51747">
        <ele>175.8</ele>
        <time>2025-02-26T08:47:30Z</time>
      </trkpt>
      <trkpt lat="48.05368" lon="-3.51748">
        <ele>175.7</ele>
        <time>2025-02-26T08:47:31Z</time>
      </trkpt>
      <trkpt lat="48.05368" lon="-3.5175">
        <ele>175.7</ele>
        <time>2025-02-26T08:47:32Z</time>
      </trkpt>
      <trkpt lat="48.05368" lon="-3.51752">
        <ele>175.8</ele>
        <time>2025-02-26T08:47:33Z</time>
      </trkpt>
      <trkpt lat="48.05368" lon="-3.51754">
        <ele>175.9</ele>
        <time>2025-02-26T08:47:34Z</time>
      </trkpt>
      <trkpt lat="48.05368" lon="-3.51755">
        <ele>175.9</ele>
        <time>2025-02-26T08:47:35Z</time>
      </trkpt>
      <trkpt lat="48.05367" lon="-3.51757">
        <ele>175.9</ele>
        <time>2025-02-26T08:47:36Z</time>
      </trkpt>
      <trkpt lat="48.05367" lon="-3.51758">
        <ele>175.9</ele>
        <time>2025-02-26T08:47:37Z</time>
      </trkpt>
      <trkpt lat="48.05366" lon="-3.51759">
        <ele>175.9</ele>
        <time>2025-02-26T08:47:38Z</time>
      </trkpt>
      <trkpt lat="48.05366" lon="-3.51761">
        <ele>175.9</ele>
        <time>2025-02-26T08:47:39Z</time>
      </trkpt>
      <trkpt lat="48.05366" lon="-3.51763">
        <ele>176</ele>
        <time>2025-02-26T08:47:40Z</time>
      </trkpt>
      <trkpt lat="48.05367" lon="-3.51765">
        <ele>176.1</ele>
        <time>2025-02-26T08:47:41Z</time>
      </trkpt>
      <trkpt lat="48.05366" lon="-3.51766">
        <ele>176.2</ele>
        <time>2025-02-26T08:47:42Z</time>
      </trkpt>
      <trkpt lat="48.05366" lon="-3.51768">
        <ele>176.2</ele>
        <time>2025-02-26T08:47:43Z</time>
      </trkpt>
      <trkpt lat="48.05366" lon="-3.51769">
        <ele>176.2</ele>
        <time>2025-02-26T08:47:44Z</time>
      </trkpt>
      <trkpt lat="48.05365" lon="-3.51771">
        <ele>176.2</ele>
        <time>2025-02-26T08:47:45Z</time>
      </trkpt>
      <trkpt lat="48.05365" lon="-3.51773">
        <ele>176.2</ele>
        <time>2025-02-26T08:47:46Z</time>
      </trkpt>
      <trkpt lat="48.05365" lon="-3.51775">
        <ele>176.3</ele>
        <time>2025-02-26T08:47:47Z</time>
      </trkpt>
      <trkpt lat="48.05365" lon="-3.51776">
        <ele>176.4</ele>
        <time>2025-02-26T08:47:48Z</time>
      </trkpt>
      <trkpt lat="48.05366" lon="-3.51777">
        <ele>176.5</ele>
        <time>2025-02-26T08:47:49Z</time>
      </trkpt>
      <trkpt lat="48.05365" lon="-3.51779">
        <ele>176.5</ele>
        <time>2025-02-26T08:47:50Z</time>
      </trkpt>
      <trkpt lat="48.05365" lon="-3.5178">
        <ele>176.5</ele>
        <time>2025-02-26T08:47:51Z</time>
      </trkpt>
      <trkpt lat="48.05364" lon="-3.51782">
        <ele>176.5</ele>
        <time>2025-02-26T08:47:52Z</time>
      </trkpt>
      <trkpt lat="48.05364" lon="-3.51783">
        <ele>176.4</ele>
        <time>2025-02-26T08:47:53Z</time>
      </trkpt>
      <trkpt lat="48.05363" lon="-3.51784">
        <ele>176.4</ele>
        <time>2025-02-26T08:47:54Z</time>
      </trkpt>
      <trkpt lat="48.05363" lon="-3.51786">
        <ele>176.4</ele>
        <time>2025-02-26T08:47:55Z</time>
      </trkpt>
      <trkpt lat="48.05362" lon="-3.51787">
        <ele>176.4</ele>
        <time>2025-02-26T08:47:56Z</time>
      </trkpt>
      <trkpt lat="48.05362" lon="-3.51789">
        <ele>176.4</ele>
        <time>2025-02-26T08:47:57Z</time>
      </trkpt>
      <trkpt lat="48.05362" lon="-3.5179">
        <ele>176.5</ele>
        <time>2025-02-26T08:47:58Z</time>
      </trkpt>
      <trkpt lat="48.05361" lon="-3.51791">
        <ele>176.5</ele>
        <time>2025-02-26T08:47:59Z</time>
      </trkpt>
      <trkpt lat="48.05361" lon="-3.51792">
        <ele>176.5</ele>
        <time>2025-02-26T08:48:00Z</time>
      </trkpt>
      <trkpt lat="48.05361" lon="-3.51794">
        <ele>176.6</ele>
        <time>2025-02-26T08:48:01Z</time>
      </trkpt>
      <trkpt lat="48.05361" lon="-3.51795">
        <ele>176.6</ele>
        <time>2025-02-26T08:48:02Z</time>
      </trkpt>
      <trkpt lat="48.0536" lon="-3.51797">
        <ele>176.6</ele>
        <time>2025-02-26T08:48:03Z</time>
      </trkpt>
      <trkpt lat="48.0536" lon="-3.51798">
        <ele>176.7</ele>
        <time>2025-02-26T08:48:04Z</time>
      </trkpt>
      <trkpt lat="48.0536" lon="-3.51799">
        <ele>176.7</ele>
        <time>2025-02-26T08:48:05Z</time>
      </trkpt>
      <trkpt lat="48.0536" lon="-3.518">
        <ele>176.7</ele>
        <time>2025-02-26T08:48:06Z</time>
      </trkpt>
      <trkpt lat="48.05359" lon="-3.51802">
        <ele>176.7</ele>
        <time>2025-02-26T08:48:07Z</time>
      </trkpt>
      <trkpt lat="48.05358" lon="-3.51803">
        <ele>176.7</ele>
        <time>2025-02-26T08:48:08Z</time>
      </trkpt>
      <trkpt lat="48.05358" lon="-3.51804">
        <ele>176.7</ele>
        <time>2025-02-26T08:48:09Z</time>
      </trkpt>
      <trkpt lat="48.05357" lon="-3.51805">
        <ele>176.6</ele>
        <time>2025-02-26T08:48:10Z</time>
      </trkpt>
      <trkpt lat="48.05356" lon="-3.51807">
        <ele>176.7</ele>
        <time>2025-02-26T08:48:11Z</time>
      </trkpt>
      <trkpt lat="48.05356" lon="-3.51809">
        <ele>176.7</ele>
        <time>2025-02-26T08:48:12Z</time>
      </trkpt>
      <trkpt lat="48.05355" lon="-3.51812">
        <ele>176.8</ele>
        <time>2025-02-26T08:48:13Z</time>
      </trkpt>
      <trkpt lat="48.05354" lon="-3.51814">
        <ele>176.8</ele>
        <time>2025-02-26T08:48:14Z</time>
      </trkpt>
      <trkpt lat="48.05353" lon="-3.51816">
        <ele>176.8</ele>
        <time>2025-02-26T08:48:15Z</time>
      </trkpt>
      <trkpt lat="48.05353" lon="-3.51817">
        <ele>176.8</ele>
        <time>2025-02-26T08:48:16Z</time>
      </trkpt>
      <trkpt lat="48.05353" lon="-3.51819">
        <ele>176.9</ele>
        <time>2025-02-26T08:48:17Z</time>
      </trkpt>
      <trkpt lat="48.05353" lon="-3.51821">
        <ele>177</ele>
        <time>2025-02-26T08:48:18Z</time>
      </trkpt>
      <trkpt lat="48.05353" lon="-3.51823">
        <ele>177</ele>
        <time>2025-02-26T08:48:19Z</time>
      </trkpt>
      <trkpt lat="48.05352" lon="-3.51824">
        <ele>177</ele>
        <time>2025-02-26T08:48:20Z</time>
      </trkpt>
      <trkpt lat="48.05351" lon="-3.51825">
        <ele>177</ele>
        <time>2025-02-26T08:48:21Z</time>
      </trkpt>
      <trkpt lat="48.05351" lon="-3.51827">
        <ele>177</ele>
        <time>2025-02-26T08:48:22Z</time>
      </trkpt>
      <trkpt lat="48.0535" lon="-3.51828">
        <ele>177</ele>
        <time>2025-02-26T08:48:23Z</time>
      </trkpt>
      <trkpt lat="48.0535" lon="-3.5183">
        <ele>177.1</ele>
        <time>2025-02-26T08:48:24Z</time>
      </trkpt>
      <trkpt lat="48.0535" lon="-3.51831">
        <ele>177.1</ele>
        <time>2025-02-26T08:48:25Z</time>
      </trkpt>
      <trkpt lat="48.0535" lon="-3.51833">
        <ele>177.2</ele>
        <time>2025-02-26T08:48:26Z</time>
      </trkpt>
      <trkpt lat="48.05349" lon="-3.51835">
        <ele>177.2</ele>
        <time>2025-02-26T08:48:27Z</time>
      </trkpt>
      <trkpt lat="48.05349" lon="-3.51836">
        <ele>177.2</ele>
        <time>2025-02-26T08:48:28Z</time>
      </trkpt>
      <trkpt lat="48.05348" lon="-3.51838">
        <ele>177.2</ele>
        <time>2025-02-26T08:48:29Z</time>
      </trkpt>
      <trkpt lat="48.05348" lon="-3.51839">
        <ele>177.2</ele>
        <time>2025-02-26T08:48:30Z</time>
      </trkpt>
      <trkpt lat="48.05348" lon="-3.5184">
        <ele>177.1</ele>
        <time>2025-02-26T08:48:31Z</time>
      </trkpt>
      <trkpt lat="48.05347" lon="-3.51841">
        <ele>177.1</ele>
        <time>2025-02-26T08:48:32Z</time>
      </trkpt>
      <trkpt lat="48.05346" lon="-3.51842">
        <ele>177.1</ele>
        <time>2025-02-26T08:48:33Z</time>
      </trkpt>
      <trkpt lat="48.05346" lon="-3.51844">
        <ele>177.1</ele>
        <time>2025-02-26T08:48:34Z</time>
      </trkpt>
      <trkpt lat="48.05345" lon="-3.51846">
        <ele>177.1</ele>
        <time>2025-02-26T08:48:35Z</time>
      </trkpt>
      <trkpt lat="48.05345" lon="-3.51847">
        <ele>177.1</ele>
        <time>2025-02-26T08:48:36Z</time>
      </trkpt>
      <trkpt lat="48.05344" lon="-3.51848">
        <ele>177.1</ele>
        <time>2025-02-26T08:48:37Z</time>
      </trkpt>
      <trkpt lat="48.05344" lon="-3.5185">
        <ele>177.1</ele>
        <time>2025-02-26T08:48:38Z</time>
      </trkpt>
      <trkpt lat="48.05343" lon="-3.51851">
        <ele>177.1</ele>
        <time>2025-02-26T08:48:39Z</time>
      </trkpt>
      <trkpt lat="48.05343" lon="-3.51853">
        <ele>177.2</ele>
        <time>2025-02-26T08:48:40Z</time>
      </trkpt>
      <trkpt lat="48.05343" lon="-3.51854">
        <ele>177.2</ele>
        <time>2025-02-26T08:48:41Z</time>
      </trkpt>
      <trkpt lat="48.05342" lon="-3.51856">
        <ele>177.2</ele>
        <time>2025-02-26T08:48:42Z</time>
      </trkpt>
      <trkpt lat="48.05342" lon="-3.51857">
        <ele>177.2</ele>
        <time>2025-02-26T08:48:43Z</time>
      </trkpt>
      <trkpt lat="48.05341" lon="-3.51859">
        <ele>177.2</ele>
        <time>2025-02-26T08:48:44Z</time>
      </trkpt>
      <trkpt lat="48.05341" lon="-3.5186">
        <ele>177.3</ele>
        <time>2025-02-26T08:48:45Z</time>
      </trkpt>
      <trkpt lat="48.0534" lon="-3.51862">
        <ele>177.3</ele>
        <time>2025-02-26T08:48:46Z</time>
      </trkpt>
      <trkpt lat="48.0534" lon="-3.51864">
        <ele>177.2</ele>
        <time>2025-02-26T08:48:47Z</time>
      </trkpt>
      <trkpt lat="48.05339" lon="-3.51865">
        <ele>177.2</ele>
        <time>2025-02-26T08:48:48Z</time>
      </trkpt>
      <trkpt lat="48.05339" lon="-3.51866">
        <ele>177.2</ele>
        <time>2025-02-26T08:48:49Z</time>
      </trkpt>
      <trkpt lat="48.05338" lon="-3.51868">
        <ele>177.2</ele>
        <time>2025-02-26T08:48:50Z</time>
      </trkpt>
      <trkpt lat="48.05337" lon="-3.51869">
        <ele>177.1</ele>
        <time>2025-02-26T08:48:51Z</time>
      </trkpt>
      <trkpt lat="48.05337" lon="-3.5187">
        <ele>177.1</ele>
        <time>2025-02-26T08:48:52Z</time>
      </trkpt>
      <trkpt lat="48.05336" lon="-3.51872">
        <ele>177.1</ele>
        <time>2025-02-26T08:48:53Z</time>
      </trkpt>
      <trkpt lat="48.05335" lon="-3.51873">
        <ele>177.1</ele>
        <time>2025-02-26T08:48:54Z</time>
      </trkpt>
      <trkpt lat="48.05335" lon="-3.51874">
        <ele>177.1</ele>
        <time>2025-02-26T08:48:55Z</time>
      </trkpt>
      <trkpt lat="48.05334" lon="-3.51876">
        <ele>177</ele>
        <time>2025-02-26T08:48:56Z</time>
      </trkpt>
      <trkpt lat="48.05334" lon="-3.51877">
        <ele>177</ele>
        <time>2025-02-26T08:48:57Z</time>
      </trkpt>
      <trkpt lat="48.05333" lon="-3.51879">
        <ele>177</ele>
        <time>2025-02-26T08:48:58Z</time>
      </trkpt>
      <trkpt lat="48.05333" lon="-3.5188">
        <ele>177</ele>
        <time>2025-02-26T08:48:59Z</time>
      </trkpt>
      <trkpt lat="48.05332" lon="-3.51882">
        <ele>177</ele>
        <time>2025-02-26T08:49:00Z</time>
      </trkpt>
      <trkpt lat="48.05331" lon="-3.51883">
        <ele>177</ele>
        <time>2025-02-26T08:49:01Z</time>
      </trkpt>
      <trkpt lat="48.05331" lon="-3.51885">
        <ele>177</ele>
        <time>2025-02-26T08:49:02Z</time>
      </trkpt>
      <trkpt lat="48.0533" lon="-3.51886">
        <ele>177</ele>
        <time>2025-02-26T08:49:03Z</time>
      </trkpt>
      <trkpt lat="48.05329" lon="-3.51888">
        <ele>177</ele>
        <time>2025-02-26T08:49:04Z</time>
      </trkpt>
      <trkpt lat="48.05329" lon="-3.51889">
        <ele>177</ele>
        <time>2025-02-26T08:49:05Z</time>
      </trkpt>
      <trkpt lat="48.05328" lon="-3.5189">
        <ele>177</ele>
        <time>2025-02-26T08:49:06Z</time>
      </trkpt>
      <trkpt lat="48.05328" lon="-3.51892">
        <ele>177</ele>
        <time>2025-02-26T08:49:07Z</time>
      </trkpt>
      <trkpt lat="48.05328" lon="-3.51894">
        <ele>177</ele>
        <time>2025-02-26T08:49:08Z</time>
      </trkpt>
      <trkpt lat="48.05328" lon="-3.51896">
        <ele>177</ele>
        <time>2025-02-26T08:49:09Z</time>
      </trkpt>
      <trkpt lat="48.05328" lon="-3.51897">
        <ele>177</ele>
        <time>2025-02-26T08:49:10Z</time>
      </trkpt>
      <trkpt lat="48.05327" lon="-3.51899">
        <ele>177</ele>
        <time>2025-02-26T08:49:11Z</time>
      </trkpt>
      <trkpt lat="48.05327" lon="-3.51901">
        <ele>177</ele>
        <time>2025-02-26T08:49:12Z</time>
      </trkpt>
      <trkpt lat="48.05327" lon="-3.51902">
        <ele>177</ele>
        <time>2025-02-26T08:49:13Z</time>
      </trkpt>
      <trkpt lat="48.05326" lon="-3.51904">
        <ele>177</ele>
        <time>2025-02-26T08:49:14Z</time>
      </trkpt>
      <trkpt lat="48.05326" lon="-3.51905">
        <ele>177</ele>
        <time>2025-02-26T08:49:15Z</time>
      </trkpt>
      <trkpt lat="48.05326" lon="-3.51907">
        <ele>177</ele>
        <time>2025-02-26T08:49:16Z</time>
      </trkpt>
      <trkpt lat="48.05325" lon="-3.51909">
        <ele>177</ele>
        <time>2025-02-26T08:49:17Z</time>
      </trkpt>
      <trkpt lat="48.05325" lon="-3.5191">
        <ele>177</ele>
        <time>2025-02-26T08:49:18Z</time>
      </trkpt>
      <trkpt lat="48.05324" lon="-3.51912">
        <ele>177</ele>
        <time>2025-02-26T08:49:19Z</time>
      </trkpt>
      <trkpt lat="48.05324" lon="-3.51914">
        <ele>177</ele>
        <time>2025-02-26T08:49:20Z</time>
      </trkpt>
      <trkpt lat="48.05324" lon="-3.51916">
        <ele>177</ele>
        <time>2025-02-26T08:49:21Z</time>
      </trkpt>
      <trkpt lat="48.05324" lon="-3.51918">
        <ele>177</ele>
        <time>2025-02-26T08:49:22Z</time>
      </trkpt>
      <trkpt lat="48.05324" lon="-3.5192">
        <ele>177</ele>
        <time>2025-02-26T08:49:23Z</time>
      </trkpt>
      <trkpt lat="48.05323" lon="-3.51921">
        <ele>177</ele>
        <time>2025-02-26T08:49:24Z</time>
      </trkpt>
      <trkpt lat="48.05323" lon="-3.51923">
        <ele>177</ele>
        <time>2025-02-26T08:49:25Z</time>
      </trkpt>
      <trkpt lat="48.05323" lon="-3.51925">
        <ele>177</ele>
        <time>2025-02-26T08:49:26Z</time>
      </trkpt>
      <trkpt lat="48.05322" lon="-3.51926">
        <ele>177</ele>
        <time>2025-02-26T08:49:27Z</time>
      </trkpt>
      <trkpt lat="48.05322" lon="-3.51927">
        <ele>177</ele>
        <time>2025-02-26T08:49:28Z</time>
      </trkpt>
      <trkpt lat="48.05321" lon="-3.51929">
        <ele>177</ele>
        <time>2025-02-26T08:49:29Z</time>
      </trkpt>
      <trkpt lat="48.05322" lon="-3.51931">
        <ele>177</ele>
        <time>2025-02-26T08:49:30Z</time>
      </trkpt>
      <trkpt lat="48.05322" lon="-3.51933">
        <ele>177</ele>
        <time>2025-02-26T08:49:31Z</time>
      </trkpt>
      <trkpt lat="48.05322" lon="-3.51935">
        <ele>177</ele>
        <time>2025-02-26T08:49:32Z</time>
      </trkpt>
      <trkpt lat="48.05321" lon="-3.51936">
        <ele>177</ele>
        <time>2025-02-26T08:49:33Z</time>
      </trkpt>
      <trkpt lat="48.05321" lon="-3.51938">
        <ele>177</ele>
        <time>2025-02-26T08:49:34Z</time>
      </trkpt>
      <trkpt lat="48.05321" lon="-3.5194">
        <ele>177</ele>
        <time>2025-02-26T08:49:35Z</time>
      </trkpt>
      <trkpt lat="48.0532" lon="-3.51941">
        <ele>177</ele>
        <time>2025-02-26T08:49:36Z</time>
      </trkpt>
      <trkpt lat="48.0532" lon="-3.51943">
        <ele>177</ele>
        <time>2025-02-26T08:49:37Z</time>
      </trkpt>
      <trkpt lat="48.05319" lon="-3.51945">
        <ele>177</ele>
        <time>2025-02-26T08:49:38Z</time>
      </trkpt>
      <trkpt lat="48.05319" lon="-3.51946">
        <ele>176.9</ele>
        <time>2025-02-26T08:49:39Z</time>
      </trkpt>
      <trkpt lat="48.05319" lon="-3.51949">
        <ele>176.9</ele>
        <time>2025-02-26T08:49:40Z</time>
      </trkpt>
      <trkpt lat="48.05319" lon="-3.5195">
        <ele>176.8</ele>
        <time>2025-02-26T08:49:41Z</time>
      </trkpt>
      <trkpt lat="48.05319" lon="-3.51953">
        <ele>176.7</ele>
        <time>2025-02-26T08:49:42Z</time>
      </trkpt>
      <trkpt lat="48.05319" lon="-3.51955">
        <ele>176.7</ele>
        <time>2025-02-26T08:49:43Z</time>
      </trkpt>
      <trkpt lat="48.05318" lon="-3.51957">
        <ele>176.6</ele>
        <time>2025-02-26T08:49:44Z</time>
      </trkpt>
      <trkpt lat="48.05318" lon="-3.51959">
        <ele>176.6</ele>
        <time>2025-02-26T08:49:45Z</time>
      </trkpt>
      <trkpt lat="48.05318" lon="-3.5196">
        <ele>176.5</ele>
        <time>2025-02-26T08:49:46Z</time>
      </trkpt>
      <trkpt lat="48.05318" lon="-3.51962">
        <ele>176.5</ele>
        <time>2025-02-26T08:49:47Z</time>
      </trkpt>
      <trkpt lat="48.05317" lon="-3.51963">
        <ele>176.4</ele>
        <time>2025-02-26T08:49:48Z</time>
      </trkpt>
      <trkpt lat="48.05317" lon="-3.51964">
        <ele>176.4</ele>
        <time>2025-02-26T08:49:49Z</time>
      </trkpt>
      <trkpt lat="48.05317" lon="-3.51966">
        <ele>176.4</ele>
        <time>2025-02-26T08:49:50Z</time>
      </trkpt>
      <trkpt lat="48.05316" lon="-3.51968">
        <ele>176.3</ele>
        <time>2025-02-26T08:49:51Z</time>
      </trkpt>
      <trkpt lat="48.05316" lon="-3.51969">
        <ele>176.3</ele>
        <time>2025-02-26T08:49:52Z</time>
      </trkpt>
      <trkpt lat="48.05316" lon="-3.51971">
        <ele>176.3</ele>
        <time>2025-02-26T08:49:53Z</time>
      </trkpt>
      <trkpt lat="48.05316" lon="-3.51973">
        <ele>176.2</ele>
        <time>2025-02-26T08:49:54Z</time>
      </trkpt>
      <trkpt lat="48.05316" lon="-3.51974">
        <ele>176.2</ele>
        <time>2025-02-26T08:49:55Z</time>
      </trkpt>
      <trkpt lat="48.05315" lon="-3.51976">
        <ele>176.1</ele>
        <time>2025-02-26T08:49:56Z</time>
      </trkpt>
      <trkpt lat="48.05315" lon="-3.51978">
        <ele>176</ele>
        <time>2025-02-26T08:49:57Z</time>
      </trkpt>
      <trkpt lat="48.05315" lon="-3.5198">
        <ele>175.8</ele>
        <time>2025-02-26T08:49:58Z</time>
      </trkpt>
      <trkpt lat="48.05315" lon="-3.51982">
        <ele>175.8</ele>
        <time>2025-02-26T08:49:59Z</time>
      </trkpt>
      <trkpt lat="48.05315" lon="-3.51983">
        <ele>175.7</ele>
        <time>2025-02-26T08:50:00Z</time>
      </trkpt>
      <trkpt lat="48.05314" lon="-3.51985">
        <ele>175.6</ele>
        <time>2025-02-26T08:50:01Z</time>
      </trkpt>
      <trkpt lat="48.05315" lon="-3.51985">
        <ele>175.6</ele>
        <time>2025-02-26T08:50:02Z</time>
      </trkpt>
      <trkpt lat="48.05315" lon="-3.51983">
        <ele>175.6</ele>
        <time>2025-02-26T08:50:03Z</time>
      </trkpt>
      <trkpt lat="48.05315" lon="-3.51984">
        <ele>175.6</ele>
        <time>2025-02-26T08:50:04Z</time>
      </trkpt>
      <trkpt lat="48.05315" lon="-3.51985">
        <ele>175.6</ele>
        <time>2025-02-26T08:50:05Z</time>
      </trkpt>
      <trkpt lat="48.05316" lon="-3.51987">
        <ele>175.4</ele>
        <time>2025-02-26T08:50:06Z</time>
      </trkpt>
      <trkpt lat="48.05315" lon="-3.5199">
        <ele>175.3</ele>
        <time>2025-02-26T08:50:07Z</time>
      </trkpt>
      <trkpt lat="48.05315" lon="-3.51992">
        <ele>175.2</ele>
        <time>2025-02-26T08:50:08Z</time>
      </trkpt>
      <trkpt lat="48.05314" lon="-3.51993">
        <ele>175.1</ele>
        <time>2025-02-26T08:50:09Z</time>
      </trkpt>
      <trkpt lat="48.05314" lon="-3.51995">
        <ele>175</ele>
        <time>2025-02-26T08:50:10Z</time>
      </trkpt>
      <trkpt lat="48.05314" lon="-3.51997">
        <ele>174.9</ele>
        <time>2025-02-26T08:50:11Z</time>
      </trkpt>
      <trkpt lat="48.05314" lon="-3.52">
        <ele>174.7</ele>
        <time>2025-02-26T08:50:12Z</time>
      </trkpt>
      <trkpt lat="48.05313" lon="-3.52002">
        <ele>174.6</ele>
        <time>2025-02-26T08:50:13Z</time>
      </trkpt>
      <trkpt lat="48.05313" lon="-3.52003">
        <ele>174.6</ele>
        <time>2025-02-26T08:50:14Z</time>
      </trkpt>
      <trkpt lat="48.05312" lon="-3.52005">
        <ele>174.5</ele>
        <time>2025-02-26T08:50:15Z</time>
      </trkpt>
      <trkpt lat="48.05312" lon="-3.52007">
        <ele>174.4</ele>
        <time>2025-02-26T08:50:16Z</time>
      </trkpt>
      <trkpt lat="48.05311" lon="-3.52008">
        <ele>174.4</ele>
        <time>2025-02-26T08:50:17Z</time>
      </trkpt>
      <trkpt lat="48.0531" lon="-3.5201">
        <ele>174.4</ele>
        <time>2025-02-26T08:50:18Z</time>
      </trkpt>
      <trkpt lat="48.05309" lon="-3.52011">
        <ele>174.4</ele>
        <time>2025-02-26T08:50:19Z</time>
      </trkpt>
      <trkpt lat="48.05308" lon="-3.52011">
        <ele>174.4</ele>
        <time>2025-02-26T08:50:20Z</time>
      </trkpt>
      <trkpt lat="48.05307" lon="-3.52011">
        <ele>174.5</ele>
        <time>2025-02-26T08:50:21Z</time>
      </trkpt>
      <trkpt lat="48.05306" lon="-3.52012">
        <ele>174.6</ele>
        <time>2025-02-26T08:50:22Z</time>
      </trkpt>
      <trkpt lat="48.05304" lon="-3.52013">
        <ele>174.6</ele>
        <time>2025-02-26T08:50:23Z</time>
      </trkpt>
      <trkpt lat="48.05302" lon="-3.52013">
        <ele>174.6</ele>
        <time>2025-02-26T08:50:24Z</time>
      </trkpt>
      <trkpt lat="48.05302" lon="-3.52013">
        <ele>174.6</ele>
        <time>2025-02-26T08:50:25Z</time>
      </trkpt>
      <trkpt lat="48.053" lon="-3.52014">
        <ele>174.6</ele>
        <time>2025-02-26T08:50:26Z</time>
      </trkpt>
      <trkpt lat="48.05299" lon="-3.52014">
        <ele>174.6</ele>
        <time>2025-02-26T08:50:27Z</time>
      </trkpt>
      <trkpt lat="48.05299" lon="-3.52015">
        <ele>174.6</ele>
        <time>2025-02-26T08:50:28Z</time>
      </trkpt>
      <trkpt lat="48.05298" lon="-3.52015">
        <ele>174.6</ele>
        <time>2025-02-26T08:50:29Z</time>
      </trkpt>
      <trkpt lat="48.05297" lon="-3.52015">
        <ele>174.6</ele>
        <time>2025-02-26T08:50:30Z</time>
      </trkpt>
      <trkpt lat="48.05295" lon="-3.52015">
        <ele>174.6</ele>
        <time>2025-02-26T08:50:31Z</time>
      </trkpt>
      <trkpt lat="48.05294" lon="-3.52016">
        <ele>174.6</ele>
        <time>2025-02-26T08:50:32Z</time>
      </trkpt>
      <trkpt lat="48.05293" lon="-3.52015">
        <ele>174.7</ele>
        <time>2025-02-26T08:50:33Z</time>
      </trkpt>
      <trkpt lat="48.05291" lon="-3.52015">
        <ele>174.7</ele>
        <time>2025-02-26T08:50:34Z</time>
      </trkpt>
      <trkpt lat="48.0529" lon="-3.52016">
        <ele>174.7</ele>
        <time>2025-02-26T08:50:35Z</time>
      </trkpt>
      <trkpt lat="48.05289" lon="-3.52016">
        <ele>174.7</ele>
        <time>2025-02-26T08:50:36Z</time>
      </trkpt>
      <trkpt lat="48.05288" lon="-3.52016">
        <ele>174.7</ele>
        <time>2025-02-26T08:50:37Z</time>
      </trkpt>
      <trkpt lat="48.05287" lon="-3.52016">
        <ele>174.7</ele>
        <time>2025-02-26T08:50:38Z</time>
      </trkpt>
      <trkpt lat="48.05286" lon="-3.52017">
        <ele>174.7</ele>
        <time>2025-02-26T08:50:39Z</time>
      </trkpt>
      <trkpt lat="48.05285" lon="-3.52017">
        <ele>174.7</ele>
        <time>2025-02-26T08:50:40Z</time>
      </trkpt>
      <trkpt lat="48.05283" lon="-3.52017">
        <ele>174.7</ele>
        <time>2025-02-26T08:50:41Z</time>
      </trkpt>
      <trkpt lat="48.05282" lon="-3.52018">
        <ele>174.6</ele>
        <time>2025-02-26T08:50:42Z</time>
      </trkpt>
      <trkpt lat="48.05281" lon="-3.52019">
        <ele>174.6</ele>
        <time>2025-02-26T08:50:43Z</time>
      </trkpt>
      <trkpt lat="48.0528" lon="-3.52018">
        <ele>174.6</ele>
        <time>2025-02-26T08:50:44Z</time>
      </trkpt>
      <trkpt lat="48.05279" lon="-3.52019">
        <ele>174.6</ele>
        <time>2025-02-26T08:50:45Z</time>
      </trkpt>
      <trkpt lat="48.05278" lon="-3.52019">
        <ele>174.6</ele>
        <time>2025-02-26T08:50:46Z</time>
      </trkpt>
      <trkpt lat="48.05277" lon="-3.52019">
        <ele>174.7</ele>
        <time>2025-02-26T08:50:47Z</time>
      </trkpt>
      <trkpt lat="48.05276" lon="-3.52018">
        <ele>174.7</ele>
        <time>2025-02-26T08:50:48Z</time>
      </trkpt>
      <trkpt lat="48.05275" lon="-3.52018">
        <ele>174.7</ele>
        <time>2025-02-26T08:50:49Z</time>
      </trkpt>
      <trkpt lat="48.05274" lon="-3.52017">
        <ele>174.7</ele>
        <time>2025-02-26T08:50:50Z</time>
      </trkpt>
      <trkpt lat="48.05272" lon="-3.52018">
        <ele>174.7</ele>
        <time>2025-02-26T08:50:51Z</time>
      </trkpt>
      <trkpt lat="48.05271" lon="-3.52018">
        <ele>174.6</ele>
        <time>2025-02-26T08:50:52Z</time>
      </trkpt>
      <trkpt lat="48.0527" lon="-3.52019">
        <ele>174.6</ele>
        <time>2025-02-26T08:50:53Z</time>
      </trkpt>
      <trkpt lat="48.05269" lon="-3.52019">
        <ele>174.6</ele>
        <time>2025-02-26T08:50:54Z</time>
      </trkpt>
      <trkpt lat="48.05268" lon="-3.52018">
        <ele>174.6</ele>
        <time>2025-02-26T08:50:55Z</time>
      </trkpt>
      <trkpt lat="48.05266" lon="-3.52018">
        <ele>174.6</ele>
        <time>2025-02-26T08:50:56Z</time>
      </trkpt>
      <trkpt lat="48.05265" lon="-3.52018">
        <ele>174.6</ele>
        <time>2025-02-26T08:50:57Z</time>
      </trkpt>
      <trkpt lat="48.05264" lon="-3.52018">
        <ele>174.5</ele>
        <time>2025-02-26T08:50:58Z</time>
      </trkpt>
      <trkpt lat="48.05263" lon="-3.52017">
        <ele>174.5</ele>
        <time>2025-02-26T08:50:59Z</time>
      </trkpt>
      <trkpt lat="48.05261" lon="-3.52017">
        <ele>174.5</ele>
        <time>2025-02-26T08:51:00Z</time>
      </trkpt>
      <trkpt lat="48.0526" lon="-3.52017">
        <ele>174.5</ele>
        <time>2025-02-26T08:51:01Z</time>
      </trkpt>
      <trkpt lat="48.05259" lon="-3.52018">
        <ele>174.5</ele>
        <time>2025-02-26T08:51:02Z</time>
      </trkpt>
      <trkpt lat="48.05258" lon="-3.52017">
        <ele>174.5</ele>
        <time>2025-02-26T08:51:03Z</time>
      </trkpt>
      <trkpt lat="48.05257" lon="-3.52016">
        <ele>174.5</ele>
        <time>2025-02-26T08:51:04Z</time>
      </trkpt>
      <trkpt lat="48.05255" lon="-3.52016">
        <ele>174.5</ele>
        <time>2025-02-26T08:51:05Z</time>
      </trkpt>
      <trkpt lat="48.05254" lon="-3.52015">
        <ele>174.5</ele>
        <time>2025-02-26T08:51:06Z</time>
      </trkpt>
      <trkpt lat="48.05253" lon="-3.52015">
        <ele>174.5</ele>
        <time>2025-02-26T08:51:07Z</time>
      </trkpt>
      <trkpt lat="48.05252" lon="-3.52014">
        <ele>174.5</ele>
        <time>2025-02-26T08:51:08Z</time>
      </trkpt>
      <trkpt lat="48.05251" lon="-3.52014">
        <ele>174.5</ele>
        <time>2025-02-26T08:51:09Z</time>
      </trkpt>
      <trkpt lat="48.0525" lon="-3.52013">
        <ele>174.5</ele>
        <time>2025-02-26T08:51:10Z</time>
      </trkpt>
      <trkpt lat="48.05249" lon="-3.52013">
        <ele>174.5</ele>
        <time>2025-02-26T08:51:11Z</time>
      </trkpt>
      <trkpt lat="48.05248" lon="-3.52012">
        <ele>174.4</ele>
        <time>2025-02-26T08:51:12Z</time>
      </trkpt>
      <trkpt lat="48.05247" lon="-3.52012">
        <ele>174.3</ele>
        <time>2025-02-26T08:51:13Z</time>
      </trkpt>
      <trkpt lat="48.05245" lon="-3.52012">
        <ele>174.3</ele>
        <time>2025-02-26T08:51:14Z</time>
      </trkpt>
      <trkpt lat="48.05244" lon="-3.52011">
        <ele>174.2</ele>
        <time>2025-02-26T08:51:15Z</time>
      </trkpt>
      <trkpt lat="48.05243" lon="-3.52011">
        <ele>174.1</ele>
        <time>2025-02-26T08:51:16Z</time>
      </trkpt>
      <trkpt lat="48.05241" lon="-3.52011">
        <ele>174</ele>
        <time>2025-02-26T08:51:17Z</time>
      </trkpt>
      <trkpt lat="48.0524" lon="-3.52011">
        <ele>173.9</ele>
        <time>2025-02-26T08:51:18Z</time>
      </trkpt>
      <trkpt lat="48.05239" lon="-3.52011">
        <ele>173.8</ele>
        <time>2025-02-26T08:51:19Z</time>
      </trkpt>
      <trkpt lat="48.05238" lon="-3.52012">
        <ele>173.7</ele>
        <time>2025-02-26T08:51:20Z</time>
      </trkpt>
      <trkpt lat="48.05237" lon="-3.52013">
        <ele>173.6</ele>
        <time>2025-02-26T08:51:21Z</time>
      </trkpt>
      <trkpt lat="48.05237" lon="-3.52014">
        <ele>173.6</ele>
        <time>2025-02-26T08:51:22Z</time>
      </trkpt>
      <trkpt lat="48.05238" lon="-3.52014">
        <ele>173.7</ele>
        <time>2025-02-26T08:51:23Z</time>
      </trkpt>
      <trkpt lat="48.05239" lon="-3.52013">
        <ele>173.7</ele>
        <time>2025-02-26T08:51:24Z</time>
      </trkpt>
      <trkpt lat="48.05239" lon="-3.52013">
        <ele>173.7</ele>
        <time>2025-02-26T08:51:25Z</time>
      </trkpt>
      <trkpt lat="48.05239" lon="-3.52013">
        <ele>173.7</ele>
        <time>2025-02-26T08:51:26Z</time>
      </trkpt>
      <trkpt lat="48.05239" lon="-3.52013">
        <ele>173.7</ele>
        <time>2025-02-26T08:51:27Z</time>
      </trkpt>
      <trkpt lat="48.05239" lon="-3.52013">
        <ele>173.7</ele>
        <time>2025-02-26T08:51:28Z</time>
      </trkpt>
      <trkpt lat="48.05239" lon="-3.52013">
        <ele>173.7</ele>
        <time>2025-02-26T08:51:29Z</time>
      </trkpt>
      <trkpt lat="48.05239" lon="-3.52013">
        <ele>173.7</ele>
        <time>2025-02-26T08:51:30Z</time>
      </trkpt>
      <trkpt lat="48.05239" lon="-3.52013">
        <ele>173.7</ele>
        <time>2025-02-26T08:51:31Z</time>
      </trkpt>
      <trkpt lat="48.05239" lon="-3.52013">
        <ele>173.7</ele>
        <time>2025-02-26T08:51:32Z</time>
      </trkpt>
      <trkpt lat="48.05239" lon="-3.52013">
        <ele>173.7</ele>
        <time>2025-02-26T08:51:33Z</time>
      </trkpt>
      <trkpt lat="48.05239" lon="-3.52013">
        <ele>173.7</ele>
        <time>2025-02-26T08:51:34Z</time>
      </trkpt>
      <trkpt lat="48.05239" lon="-3.52013">
        <ele>173.7</ele>
        <time>2025-02-26T08:51:35Z</time>
      </trkpt>
      <trkpt lat="48.05239" lon="-3.52013">
        <ele>173.7</ele>
        <time>2025-02-26T08:51:36Z</time>
      </trkpt>
      <trkpt lat="48.05239" lon="-3.52014">
        <ele>173.7</ele>
        <time>2025-02-26T08:51:37Z</time>
      </trkpt>
      <trkpt lat="48.05238" lon="-3.52014">
        <ele>173.6</ele>
        <time>2025-02-26T08:51:38Z</time>
      </trkpt>
      <trkpt lat="48.05238" lon="-3.52015">
        <ele>173.6</ele>
        <time>2025-02-26T08:51:39Z</time>
      </trkpt>
      <trkpt lat="48.05237" lon="-3.52016">
        <ele>173.5</ele>
        <time>2025-02-26T08:51:40Z</time>
      </trkpt>
      <trkpt lat="48.05236" lon="-3.52018">
        <ele>173.4</ele>
        <time>2025-02-26T08:51:41Z</time>
      </trkpt>
      <trkpt lat="48.05235" lon="-3.52019">
        <ele>173.3</ele>
        <time>2025-02-26T08:51:42Z</time>
      </trkpt>
      <trkpt lat="48.05235" lon="-3.5202">
        <ele>173.2</ele>
        <time>2025-02-26T08:51:43Z</time>
      </trkpt>
      <trkpt lat="48.05234" lon="-3.52021">
        <ele>173.1</ele>
        <time>2025-02-26T08:51:44Z</time>
      </trkpt>
      <trkpt lat="48.05233" lon="-3.52023">
        <ele>173</ele>
        <time>2025-02-26T08:51:45Z</time>
      </trkpt>
      <trkpt lat="48.05233" lon="-3.52025">
        <ele>172.9</ele>
        <time>2025-02-26T08:51:46Z</time>
      </trkpt>
      <trkpt lat="48.05232" lon="-3.52026">
        <ele>172.8</ele>
        <time>2025-02-26T08:51:47Z</time>
      </trkpt>
      <trkpt lat="48.05231" lon="-3.52028">
        <ele>172.6</ele>
        <time>2025-02-26T08:51:48Z</time>
      </trkpt>
      <trkpt lat="48.05231" lon="-3.52029">
        <ele>172.5</ele>
        <time>2025-02-26T08:51:49Z</time>
      </trkpt>
      <trkpt lat="48.0523" lon="-3.5203">
        <ele>172.4</ele>
        <time>2025-02-26T08:51:50Z</time>
      </trkpt>
      <trkpt lat="48.0523" lon="-3.52032">
        <ele>172.2</ele>
        <time>2025-02-26T08:51:51Z</time>
      </trkpt>
      <trkpt lat="48.05229" lon="-3.52034">
        <ele>172</ele>
        <time>2025-02-26T08:51:52Z</time>
      </trkpt>
      <trkpt lat="48.05228" lon="-3.52035">
        <ele>171.9</ele>
        <time>2025-02-26T08:51:53Z</time>
      </trkpt>
      <trkpt lat="48.05227" lon="-3.52036">
        <ele>171.7</ele>
        <time>2025-02-26T08:51:54Z</time>
      </trkpt>
      <trkpt lat="48.05226" lon="-3.52037">
        <ele>171.6</ele>
        <time>2025-02-26T08:51:55Z</time>
      </trkpt>
      <trkpt lat="48.05225" lon="-3.52038">
        <ele>171.5</ele>
        <time>2025-02-26T08:51:56Z</time>
      </trkpt>
      <trkpt lat="48.05224" lon="-3.52039">
        <ele>171.3</ele>
        <time>2025-02-26T08:51:57Z</time>
      </trkpt>
      <trkpt lat="48.05223" lon="-3.5204">
        <ele>171.2</ele>
        <time>2025-02-26T08:51:58Z</time>
      </trkpt>
      <trkpt lat="48.05222" lon="-3.5204">
        <ele>171.1</ele>
        <time>2025-02-26T08:51:59Z</time>
      </trkpt>
      <trkpt lat="48.05221" lon="-3.52039">
        <ele>171.1</ele>
        <time>2025-02-26T08:52:00Z</time>
      </trkpt>
      <trkpt lat="48.0522" lon="-3.52039">
        <ele>171</ele>
        <time>2025-02-26T08:52:01Z</time>
      </trkpt>
      <trkpt lat="48.05219" lon="-3.52039">
        <ele>170.9</ele>
        <time>2025-02-26T08:52:02Z</time>
      </trkpt>
      <trkpt lat="48.05219" lon="-3.52039">
        <ele>171</ele>
        <time>2025-02-26T08:52:03Z</time>
      </trkpt>
      <trkpt lat="48.05219" lon="-3.52039">
        <ele>171</ele>
        <time>2025-02-26T08:52:04Z</time>
      </trkpt>
      <trkpt lat="48.05219" lon="-3.52039">
        <ele>171</ele>
        <time>2025-02-26T08:52:05Z</time>
      </trkpt>
      <trkpt lat="48.05218" lon="-3.52039">
        <ele>170.9</ele>
        <time>2025-02-26T08:52:06Z</time>
      </trkpt>
      <trkpt lat="48.05216" lon="-3.5204">
        <ele>170.7</ele>
        <time>2025-02-26T08:52:07Z</time>
      </trkpt>
      <trkpt lat="48.05215" lon="-3.52039">
        <ele>170.7</ele>
        <time>2025-02-26T08:52:08Z</time>
      </trkpt>
      <trkpt lat="48.05214" lon="-3.52038">
        <ele>170.7</ele>
        <time>2025-02-26T08:52:09Z</time>
      </trkpt>
      <trkpt lat="48.05215" lon="-3.52038">
        <ele>170.7</ele>
        <time>2025-02-26T08:52:10Z</time>
      </trkpt>
      <trkpt lat="48.05215" lon="-3.52038">
        <ele>170.7</ele>
        <time>2025-02-26T08:52:11Z</time>
      </trkpt>
      <trkpt lat="48.05215" lon="-3.52038">
        <ele>170.7</ele>
        <time>2025-02-26T08:52:12Z</time>
      </trkpt>
      <trkpt lat="48.05215" lon="-3.52038">
        <ele>170.7</ele>
        <time>2025-02-26T08:52:13Z</time>
      </trkpt>
      <trkpt lat="48.05215" lon="-3.52038">
        <ele>170.7</ele>
        <time>2025-02-26T08:52:14Z</time>
      </trkpt>
      <trkpt lat="48.05216" lon="-3.52038">
        <ele>170.8</ele>
        <time>2025-02-26T08:52:15Z</time>
      </trkpt>
      <trkpt lat="48.05216" lon="-3.52038">
        <ele>170.8</ele>
        <time>2025-02-26T08:52:16Z</time>
      </trkpt>
      <trkpt lat="48.05216" lon="-3.52038">
        <ele>170.8</ele>
        <time>2025-02-26T08:52:17Z</time>
      </trkpt>
      <trkpt lat="48.05216" lon="-3.52038">
        <ele>170.8</ele>
        <time>2025-02-26T08:52:18Z</time>
      </trkpt>
      <trkpt lat="48.05216" lon="-3.52039">
        <ele>170.8</ele>
        <time>2025-02-26T08:52:19Z</time>
      </trkpt>
      <trkpt lat="48.05216" lon="-3.52039">
        <ele>170.8</ele>
        <time>2025-02-26T08:52:20Z</time>
      </trkpt>
      <trkpt lat="48.05216" lon="-3.52039">
        <ele>170.8</ele>
        <time>2025-02-26T08:52:21Z</time>
      </trkpt>
      <trkpt lat="48.05216" lon="-3.52039">
        <ele>170.8</ele>
        <time>2025-02-26T08:52:22Z</time>
      </trkpt>
      <trkpt lat="48.05216" lon="-3.52039">
        <ele>170.8</ele>
        <time>2025-02-26T08:52:23Z</time>
      </trkpt>
      <trkpt lat="48.05216" lon="-3.52039">
        <ele>170.8</ele>
        <time>2025-02-26T08:52:24Z</time>
      </trkpt>
      <trkpt lat="48.05216" lon="-3.52039">
        <ele>170.8</ele>
        <time>2025-02-26T08:52:25Z</time>
      </trkpt>
      <trkpt lat="48.05216" lon="-3.52039">
        <ele>170.8</ele>
        <time>2025-02-26T08:52:26Z</time>
      </trkpt>
      <trkpt lat="48.05216" lon="-3.52039">
        <ele>170.8</ele>
        <time>2025-02-26T08:52:27Z</time>
      </trkpt>
      <trkpt lat="48.05216" lon="-3.52039">
        <ele>170.8</ele>
        <time>2025-02-26T08:52:28Z</time>
      </trkpt>
      <trkpt lat="48.05216" lon="-3.52039">
        <ele>170.8</ele>
        <time>2025-02-26T08:52:29Z</time>
      </trkpt>
      <trkpt lat="48.05216" lon="-3.52039">
        <ele>170.8</ele>
        <time>2025-02-26T08:52:30Z</time>
      </trkpt>
      <trkpt lat="48.05216" lon="-3.52039">
        <ele>170.8</ele>
        <time>2025-02-26T08:52:31Z</time>
      </trkpt>
      <trkpt lat="48.05216" lon="-3.52039">
        <ele>170.8</ele>
        <time>2025-02-26T08:52:32Z</time>
      </trkpt>
      <trkpt lat="48.05216" lon="-3.52039">
        <ele>170.8</ele>
        <time>2025-02-26T08:52:33Z</time>
      </trkpt>
      <trkpt lat="48.05216" lon="-3.52039">
        <ele>170.8</ele>
        <time>2025-02-26T08:52:34Z</time>
      </trkpt>
      <trkpt lat="48.05216" lon="-3.52039">
        <ele>170.8</ele>
        <time>2025-02-26T08:52:35Z</time>
      </trkpt>
      <trkpt lat="48.05216" lon="-3.52039">
        <ele>170.8</ele>
        <time>2025-02-26T08:52:36Z</time>
      </trkpt>
      <trkpt lat="48.05216" lon="-3.52039">
        <ele>170.8</ele>
        <time>2025-02-26T08:52:37Z</time>
      </trkpt>
      <trkpt lat="48.05216" lon="-3.52039">
        <ele>170.8</ele>
        <time>2025-02-26T08:52:38Z</time>
      </trkpt>
      <trkpt lat="48.05216" lon="-3.52039">
        <ele>170.8</ele>
        <time>2025-02-26T08:52:39Z</time>
      </trkpt>
      <trkpt lat="48.05216" lon="-3.52039">
        <ele>170.8</ele>
        <time>2025-02-26T08:52:40Z</time>
      </trkpt>
      <trkpt lat="48.05216" lon="-3.52039">
        <ele>170.8</ele>
        <time>2025-02-26T08:52:41Z</time>
      </trkpt>
      <trkpt lat="48.05216" lon="-3.52039">
        <ele>170.8</ele>
        <time>2025-02-26T08:52:42Z</time>
      </trkpt>
      <trkpt lat="48.05216" lon="-3.52039">
        <ele>170.8</ele>
        <time>2025-02-26T08:52:43Z</time>
      </trkpt>
      <trkpt lat="48.05216" lon="-3.52039">
        <ele>170.8</ele>
        <time>2025-02-26T08:52:44Z</time>
      </trkpt>
      <trkpt lat="48.05216" lon="-3.52039">
        <ele>170.8</ele>
        <time>2025-02-26T08:52:45Z</time>
      </trkpt>
      <trkpt lat="48.05216" lon="-3.52039">
        <ele>170.8</ele>
        <time>2025-02-26T08:52:46Z</time>
      </trkpt>
      <trkpt lat="48.05216" lon="-3.52039">
        <ele>170.8</ele>
        <time>2025-02-26T08:52:47Z</time>
      </trkpt>
      <trkpt lat="48.05216" lon="-3.52039">
        <ele>170.8</ele>
        <time>2025-02-26T08:52:48Z</time>
      </trkpt>
      <trkpt lat="48.05216" lon="-3.52039">
        <ele>170.8</ele>
        <time>2025-02-26T08:52:49Z</time>
      </trkpt>
      <trkpt lat="48.05216" lon="-3.52039">
        <ele>170.8</ele>
        <time>2025-02-26T08:52:50Z</time>
      </trkpt>
      <trkpt lat="48.05216" lon="-3.52039">
        <ele>170.8</ele>
        <time>2025-02-26T08:52:51Z</time>
      </trkpt>
      <trkpt lat="48.05216" lon="-3.52039">
        <ele>170.8</ele>
        <time>2025-02-26T08:52:52Z</time>
      </trkpt>
      <trkpt lat="48.05216" lon="-3.52039">
        <ele>170.8</ele>
        <time>2025-02-26T08:52:53Z</time>
      </trkpt>
      <trkpt lat="48.05216" lon="-3.52039">
        <ele>170.8</ele>
        <time>2025-02-26T08:52:54Z</time>
      </trkpt>
      <trkpt lat="48.05216" lon="-3.52039">
        <ele>170.7</ele>
        <time>2025-02-26T08:52:55Z</time>
      </trkpt>
      <trkpt lat="48.05217" lon="-3.52039">
        <ele>170.8</ele>
        <time>2025-02-26T08:52:56Z</time>
      </trkpt>
      <trkpt lat="48.05217" lon="-3.52039">
        <ele>170.8</ele>
        <time>2025-02-26T08:52:57Z</time>
      </trkpt>
      <trkpt lat="48.05217" lon="-3.52039">
        <ele>170.8</ele>
        <time>2025-02-26T08:52:58Z</time>
      </trkpt>
      <trkpt lat="48.05217" lon="-3.52039">
        <ele>170.8</ele>
        <time>2025-02-26T08:52:59Z</time>
      </trkpt>
      <trkpt lat="48.05217" lon="-3.52039">
        <ele>170.8</ele>
        <time>2025-02-26T08:53:00Z</time>
      </trkpt>
      <trkpt lat="48.05217" lon="-3.52039">
        <ele>170.8</ele>
        <time>2025-02-26T08:53:01Z</time>
      </trkpt>
      <trkpt lat="48.05218" lon="-3.52039">
        <ele>170.8</ele>
        <time>2025-02-26T08:53:02Z</time>
      </trkpt>
      <trkpt lat="48.05218" lon="-3.52039">
        <ele>170.8</ele>
        <time>2025-02-26T08:53:03Z</time>
      </trkpt>
      <trkpt lat="48.05218" lon="-3.5204">
        <ele>170.8</ele>
        <time>2025-02-26T08:53:04Z</time>
      </trkpt>
      <trkpt lat="48.05218" lon="-3.5204">
        <ele>170.8</ele>
        <time>2025-02-26T08:53:05Z</time>
      </trkpt>
      <trkpt lat="48.05217" lon="-3.52039">
        <ele>170.8</ele>
        <time>2025-02-26T08:53:06Z</time>
      </trkpt>
      <trkpt lat="48.05216" lon="-3.52038">
        <ele>170.8</ele>
        <time>2025-02-26T08:53:07Z</time>
      </trkpt>
      <trkpt lat="48.05215" lon="-3.52039">
        <ele>170.7</ele>
        <time>2025-02-26T08:53:08Z</time>
      </trkpt>
      <trkpt lat="48.05215" lon="-3.52039">
        <ele>170.7</ele>
        <time>2025-02-26T08:53:09Z</time>
      </trkpt>
      <trkpt lat="48.05215" lon="-3.52039">
        <ele>170.7</ele>
        <time>2025-02-26T08:53:10Z</time>
      </trkpt>
      <trkpt lat="48.05214" lon="-3.52039">
        <ele>170.6</ele>
        <time>2025-02-26T08:53:11Z</time>
      </trkpt>
      <trkpt lat="48.05214" lon="-3.5204">
        <ele>170.6</ele>
        <time>2025-02-26T08:53:12Z</time>
      </trkpt>
      <trkpt lat="48.05214" lon="-3.5204">
        <ele>170.6</ele>
        <time>2025-02-26T08:53:13Z</time>
      </trkpt>
      <trkpt lat="48.05214" lon="-3.5204">
        <ele>170.6</ele>
        <time>2025-02-26T08:53:14Z</time>
      </trkpt>
      <trkpt lat="48.05214" lon="-3.52039">
        <ele>170.6</ele>
        <time>2025-02-26T08:53:15Z</time>
      </trkpt>
      <trkpt lat="48.05214" lon="-3.52039">
        <ele>170.6</ele>
        <time>2025-02-26T08:53:16Z</time>
      </trkpt>
      <trkpt lat="48.05214" lon="-3.52039">
        <ele>170.6</ele>
        <time>2025-02-26T08:53:17Z</time>
      </trkpt>
      <trkpt lat="48.05214" lon="-3.52039">
        <ele>170.6</ele>
        <time>2025-02-26T08:53:18Z</time>
      </trkpt>
      <trkpt lat="48.05214" lon="-3.52039">
        <ele>170.6</ele>
        <time>2025-02-26T08:53:19Z</time>
      </trkpt>
      <trkpt lat="48.05214" lon="-3.52039">
        <ele>170.6</ele>
        <time>2025-02-26T08:53:20Z</time>
      </trkpt>
      <trkpt lat="48.05214" lon="-3.52039">
        <ele>170.6</ele>
        <time>2025-02-26T08:53:21Z</time>
      </trkpt>
      <trkpt lat="48.05214" lon="-3.52039">
        <ele>170.6</ele>
        <time>2025-02-26T08:53:22Z</time>
      </trkpt>
      <trkpt lat="48.05214" lon="-3.52039">
        <ele>170.6</ele>
        <time>2025-02-26T08:53:23Z</time>
      </trkpt>
      <trkpt lat="48.05214" lon="-3.52038">
        <ele>170.7</ele>
        <time>2025-02-26T08:53:24Z</time>
      </trkpt>
      <trkpt lat="48.05215" lon="-3.52038">
        <ele>170.7</ele>
        <time>2025-02-26T08:53:25Z</time>
      </trkpt>
      <trkpt lat="48.05215" lon="-3.52038">
        <ele>170.8</ele>
        <time>2025-02-26T08:53:26Z</time>
      </trkpt>
      <trkpt lat="48.05215" lon="-3.52038">
        <ele>170.7</ele>
        <time>2025-02-26T08:53:27Z</time>
      </trkpt>
      <trkpt lat="48.05215" lon="-3.52038">
        <ele>170.7</ele>
        <time>2025-02-26T08:53:28Z</time>
      </trkpt>
      <trkpt lat="48.05215" lon="-3.52038">
        <ele>170.8</ele>
        <time>2025-02-26T08:53:29Z</time>
      </trkpt>
      <trkpt lat="48.05216" lon="-3.52038">
        <ele>170.8</ele>
        <time>2025-02-26T08:53:30Z</time>
      </trkpt>
      <trkpt lat="48.05216" lon="-3.52038">
        <ele>170.8</ele>
        <time>2025-02-26T08:53:31Z</time>
      </trkpt>
      <trkpt lat="48.05216" lon="-3.52038">
        <ele>170.8</ele>
        <time>2025-02-26T08:53:32Z</time>
      </trkpt>
      <trkpt lat="48.05216" lon="-3.52038">
        <ele>170.8</ele>
        <time>2025-02-26T08:53:33Z</time>
      </trkpt>
      <trkpt lat="48.05216" lon="-3.52038">
        <ele>170.8</ele>
        <time>2025-02-26T08:53:34Z</time>
      </trkpt>
      <trkpt lat="48.05216" lon="-3.52038">
        <ele>170.8</ele>
        <time>2025-02-26T08:53:35Z</time>
      </trkpt>
      <trkpt lat="48.05216" lon="-3.52038">
        <ele>170.8</ele>
        <time>2025-02-26T08:53:36Z</time>
      </trkpt>
      <trkpt lat="48.05216" lon="-3.52038">
        <ele>170.8</ele>
        <time>2025-02-26T08:53:37Z</time>
      </trkpt>
      <trkpt lat="48.05216" lon="-3.52038">
        <ele>170.8</ele>
        <time>2025-02-26T08:53:38Z</time>
      </trkpt>
      <trkpt lat="48.05216" lon="-3.52038">
        <ele>170.8</ele>
        <time>2025-02-26T08:53:39Z</time>
      </trkpt>
      <trkpt lat="48.05216" lon="-3.52038">
        <ele>170.8</ele>
        <time>2025-02-26T08:53:40Z</time>
      </trkpt>
      <trkpt lat="48.05216" lon="-3.52038">
        <ele>170.8</ele>
        <time>2025-02-26T08:53:41Z</time>
      </trkpt>
      <trkpt lat="48.05216" lon="-3.52038">
        <ele>170.8</ele>
        <time>2025-02-26T08:53:42Z</time>
      </trkpt>
      <trkpt lat="48.05216" lon="-3.52038">
        <ele>170.8</ele>
        <time>2025-02-26T08:53:43Z</time>
      </trkpt>
      <trkpt lat="48.05216" lon="-3.52038">
        <ele>170.8</ele>
        <time>2025-02-26T08:53:44Z</time>
      </trkpt>
      <trkpt lat="48.05216" lon="-3.52038">
        <ele>170.8</ele>
        <time>2025-02-26T08:53:45Z</time>
      </trkpt>
      <trkpt lat="48.05216" lon="-3.52038">
        <ele>170.8</ele>
        <time>2025-02-26T08:53:46Z</time>
      </trkpt>
      <trkpt lat="48.05216" lon="-3.52038">
        <ele>170.8</ele>
        <time>2025-02-26T08:53:47Z</time>
      </trkpt>
      <trkpt lat="48.05216" lon="-3.52038">
        <ele>170.8</ele>
        <time>2025-02-26T08:53:48Z</time>
      </trkpt>
      <trkpt lat="48.05216" lon="-3.52038">
        <ele>170.8</ele>
        <time>2025-02-26T08:53:49Z</time>
      </trkpt>
      <trkpt lat="48.05216" lon="-3.52038">
        <ele>170.8</ele>
        <time>2025-02-26T08:53:50Z</time>
      </trkpt>
      <trkpt lat="48.05216" lon="-3.52038">
        <ele>170.8</ele>
        <time>2025-02-26T08:53:51Z</time>
      </trkpt>
      <trkpt lat="48.05216" lon="-3.52038">
        <ele>170.8</ele>
        <time>2025-02-26T08:53:52Z</time>
      </trkpt>
      <trkpt lat="48.05216" lon="-3.52038">
        <ele>170.8</ele>
        <time>2025-02-26T08:53:53Z</time>
      </trkpt>
      <trkpt lat="48.05216" lon="-3.52038">
        <ele>170.8</ele>
        <time>2025-02-26T08:53:54Z</time>
      </trkpt>
      <trkpt lat="48.05216" lon="-3.52038">
        <ele>170.8</ele>
        <time>2025-02-26T08:53:55Z</time>
      </trkpt>
      <trkpt lat="48.05216" lon="-3.52038">
        <ele>170.8</ele>
        <time>2025-02-26T08:53:56Z</time>
      </trkpt>
      <trkpt lat="48.05217" lon="-3.52038">
        <ele>170.9</ele>
        <time>2025-02-26T08:53:57Z</time>
      </trkpt>
      <trkpt lat="48.05217" lon="-3.52038">
        <ele>170.9</ele>
        <time>2025-02-26T08:53:58Z</time>
      </trkpt>
      <trkpt lat="48.05217" lon="-3.52038">
        <ele>170.9</ele>
        <time>2025-02-26T08:53:59Z</time>
      </trkpt>
      <trkpt lat="48.05217" lon="-3.52038">
        <ele>170.9</ele>
        <time>2025-02-26T08:54:00Z</time>
      </trkpt>
      <trkpt lat="48.05217" lon="-3.52038">
        <ele>170.9</ele>
        <time>2025-02-26T08:54:01Z</time>
      </trkpt>
      <trkpt lat="48.05217" lon="-3.52038">
        <ele>170.9</ele>
        <time>2025-02-26T08:54:02Z</time>
      </trkpt>
      <trkpt lat="48.05217" lon="-3.52038">
        <ele>170.9</ele>
        <time>2025-02-26T08:54:03Z</time>
      </trkpt>
      <trkpt lat="48.05217" lon="-3.52038">
        <ele>170.9</ele>
        <time>2025-02-26T08:54:04Z</time>
      </trkpt>
      <trkpt lat="48.05217" lon="-3.52038">
        <ele>170.9</ele>
        <time>2025-02-26T08:54:05Z</time>
      </trkpt>
      <trkpt lat="48.05217" lon="-3.52038">
        <ele>170.9</ele>
        <time>2025-02-26T08:54:06Z</time>
      </trkpt>
      <trkpt lat="48.05217" lon="-3.52038">
        <ele>170.9</ele>
        <time>2025-02-26T08:54:07Z</time>
      </trkpt>
      <trkpt lat="48.05217" lon="-3.52038">
        <ele>170.9</ele>
        <time>2025-02-26T08:54:08Z</time>
      </trkpt>
      <trkpt lat="48.05217" lon="-3.52038">
        <ele>170.9</ele>
        <time>2025-02-26T08:54:09Z</time>
      </trkpt>
      <trkpt lat="48.05217" lon="-3.52038">
        <ele>170.9</ele>
        <time>2025-02-26T08:54:10Z</time>
      </trkpt>
      <trkpt lat="48.05217" lon="-3.52038">
        <ele>170.9</ele>
        <time>2025-02-26T08:54:11Z</time>
      </trkpt>
      <trkpt lat="48.05217" lon="-3.52038">
        <ele>170.9</ele>
        <time>2025-02-26T08:54:12Z</time>
      </trkpt>
      <trkpt lat="48.05217" lon="-3.52038">
        <ele>170.9</ele>
        <time>2025-02-26T08:54:13Z</time>
      </trkpt>
      <trkpt lat="48.05217" lon="-3.52038">
        <ele>170.9</ele>
        <time>2025-02-26T08:54:14Z</time>
      </trkpt>
      <trkpt lat="48.05217" lon="-3.52038">
        <ele>170.9</ele>
        <time>2025-02-26T08:54:15Z</time>
      </trkpt>
      <trkpt lat="48.05217" lon="-3.52038">
        <ele>170.9</ele>
        <time>2025-02-26T08:54:16Z</time>
      </trkpt>
      <trkpt lat="48.05217" lon="-3.52038">
        <ele>170.9</ele>
        <time>2025-02-26T08:54:17Z</time>
      </trkpt>
      <trkpt lat="48.05217" lon="-3.52038">
        <ele>170.9</ele>
        <time>2025-02-26T08:54:18Z</time>
      </trkpt>
      <trkpt lat="48.05217" lon="-3.52038">
        <ele>170.9</ele>
        <time>2025-02-26T08:54:19Z</time>
      </trkpt>
      <trkpt lat="48.05217" lon="-3.52038">
        <ele>170.9</ele>
        <time>2025-02-26T08:54:20Z</time>
      </trkpt>
      <trkpt lat="48.05217" lon="-3.52038">
        <ele>170.9</ele>
        <time>2025-02-26T08:54:21Z</time>
      </trkpt>
      <trkpt lat="48.05217" lon="-3.52038">
        <ele>170.9</ele>
        <time>2025-02-26T08:54:22Z</time>
      </trkpt>
      <trkpt lat="48.05217" lon="-3.52038">
        <ele>170.9</ele>
        <time>2025-02-26T08:54:23Z</time>
      </trkpt>
      <trkpt lat="48.05217" lon="-3.52038">
        <ele>170.9</ele>
        <time>2025-02-26T08:54:24Z</time>
      </trkpt>
      <trkpt lat="48.05217" lon="-3.52038">
        <ele>170.9</ele>
        <time>2025-02-26T08:54:25Z</time>
      </trkpt>
      <trkpt lat="48.05217" lon="-3.52038">
        <ele>170.9</ele>
        <time>2025-02-26T08:54:26Z</time>
      </trkpt>
      <trkpt lat="48.05217" lon="-3.52038">
        <ele>170.9</ele>
        <time>2025-02-26T08:54:27Z</time>
      </trkpt>
      <trkpt lat="48.05217" lon="-3.52038">
        <ele>170.9</ele>
        <time>2025-02-26T08:54:28Z</time>
      </trkpt>
      <trkpt lat="48.05217" lon="-3.52038">
        <ele>170.9</ele>
        <time>2025-02-26T08:54:29Z</time>
      </trkpt>
      <trkpt lat="48.05216" lon="-3.52038">
        <ele>170.9</ele>
        <time>2025-02-26T08:54:30Z</time>
      </trkpt>
      <trkpt lat="48.05216" lon="-3.52038">
        <ele>170.9</ele>
        <time>2025-02-26T08:54:31Z</time>
      </trkpt>
      <trkpt lat="48.05216" lon="-3.52038">
        <ele>170.9</ele>
        <time>2025-02-26T08:54:32Z</time>
      </trkpt>
      <trkpt lat="48.05216" lon="-3.52038">
        <ele>170.9</ele>
        <time>2025-02-26T08:54:33Z</time>
      </trkpt>
      <trkpt lat="48.05216" lon="-3.52038">
        <ele>170.9</ele>
        <time>2025-02-26T08:54:34Z</time>
      </trkpt>
      <trkpt lat="48.05216" lon="-3.52038">
        <ele>170.9</ele>
        <time>2025-02-26T08:54:35Z</time>
      </trkpt>
      <trkpt lat="48.05216" lon="-3.52038">
        <ele>170.9</ele>
        <time>2025-02-26T08:54:36Z</time>
      </trkpt>
      <trkpt lat="48.05216" lon="-3.52038">
        <ele>170.9</ele>
        <time>2025-02-26T08:54:37Z</time>
      </trkpt>
      <trkpt lat="48.05216" lon="-3.52038">
        <ele>170.9</ele>
        <time>2025-02-26T08:54:38Z</time>
      </trkpt>
      <trkpt lat="48.05216" lon="-3.52038">
        <ele>170.9</ele>
        <time>2025-02-26T08:54:39Z</time>
      </trkpt>
      <trkpt lat="48.05216" lon="-3.52038">
        <ele>170.9</ele>
        <time>2025-02-26T08:54:40Z</time>
      </trkpt>
      <trkpt lat="48.05216" lon="-3.52038">
        <ele>170.9</ele>
        <time>2025-02-26T08:54:41Z</time>
      </trkpt>
      <trkpt lat="48.05216" lon="-3.52038">
        <ele>170.8</ele>
        <time>2025-02-26T08:54:42Z</time>
      </trkpt>
      <trkpt lat="48.05216" lon="-3.52038">
        <ele>170.9</ele>
        <time>2025-02-26T08:54:43Z</time>
      </trkpt>
      <trkpt lat="48.05216" lon="-3.52038">
        <ele>170.9</ele>
        <time>2025-02-26T08:54:44Z</time>
      </trkpt>
      <trkpt lat="48.05216" lon="-3.52038">
        <ele>170.9</ele>
        <time>2025-02-26T08:54:45Z</time>
      </trkpt>
      <trkpt lat="48.05216" lon="-3.52038">
        <ele>170.9</ele>
        <time>2025-02-26T08:54:46Z</time>
      </trkpt>
      <trkpt lat="48.05216" lon="-3.52038">
        <ele>170.9</ele>
        <time>2025-02-26T08:54:47Z</time>
      </trkpt>
      <trkpt lat="48.05216" lon="-3.52038">
        <ele>170.9</ele>
        <time>2025-02-26T08:54:48Z</time>
      </trkpt>
      <trkpt lat="48.05216" lon="-3.52038">
        <ele>170.9</ele>
        <time>2025-02-26T08:54:49Z</time>
      </trkpt>
      <trkpt lat="48.05216" lon="-3.52038">
        <ele>170.9</ele>
        <time>2025-02-26T08:54:50Z</time>
      </trkpt>
      <trkpt lat="48.05216" lon="-3.52038">
        <ele>170.9</ele>
        <time>2025-02-26T08:54:51Z</time>
      </trkpt>
      <trkpt lat="48.05216" lon="-3.52038">
        <ele>170.9</ele>
        <time>2025-02-26T08:54:52Z</time>
      </trkpt>
      <trkpt lat="48.05216" lon="-3.52038">
        <ele>170.9</ele>
        <time>2025-02-26T08:54:53Z</time>
      </trkpt>
      <trkpt lat="48.05216" lon="-3.52038">
        <ele>170.8</ele>
        <time>2025-02-26T08:54:54Z</time>
      </trkpt>
      <trkpt lat="48.05216" lon="-3.52038">
        <ele>170.8</ele>
        <time>2025-02-26T08:54:55Z</time>
      </trkpt>
      <trkpt lat="48.05216" lon="-3.52038">
        <ele>170.8</ele>
        <time>2025-02-26T08:54:56Z</time>
      </trkpt>
      <trkpt lat="48.05216" lon="-3.52038">
        <ele>170.8</ele>
        <time>2025-02-26T08:54:57Z</time>
      </trkpt>
      <trkpt lat="48.05216" lon="-3.52038">
        <ele>170.8</ele>
        <time>2025-02-26T08:54:58Z</time>
      </trkpt>
      <trkpt lat="48.05216" lon="-3.52038">
        <ele>170.8</ele>
        <time>2025-02-26T08:54:59Z</time>
      </trkpt>
      <trkpt lat="48.05216" lon="-3.52038">
        <ele>170.8</ele>
        <time>2025-02-26T08:55:00Z</time>
      </trkpt>
      <trkpt lat="48.05216" lon="-3.52038">
        <ele>170.8</ele>
        <time>2025-02-26T08:55:01Z</time>
      </trkpt>
      <trkpt lat="48.05216" lon="-3.52038">
        <ele>170.8</ele>
        <time>2025-02-26T08:55:02Z</time>
      </trkpt>
      <trkpt lat="48.05216" lon="-3.52038">
        <ele>170.8</ele>
        <time>2025-02-26T08:55:03Z</time>
      </trkpt>
      <trkpt lat="48.05216" lon="-3.52038">
        <ele>170.8</ele>
        <time>2025-02-26T08:55:04Z</time>
      </trkpt>
      <trkpt lat="48.05216" lon="-3.52038">
        <ele>170.8</ele>
        <time>2025-02-26T08:55:05Z</time>
      </trkpt>
      <trkpt lat="48.05216" lon="-3.52038">
        <ele>170.8</ele>
        <time>2025-02-26T08:55:06Z</time>
      </trkpt>
      <trkpt lat="48.05216" lon="-3.52038">
        <ele>170.8</ele>
        <time>2025-02-26T08:55:07Z</time>
      </trkpt>
      <trkpt lat="48.05216" lon="-3.52038">
        <ele>170.8</ele>
        <time>2025-02-26T08:55:08Z</time>
      </trkpt>
      <trkpt lat="48.05216" lon="-3.52038">
        <ele>170.8</ele>
        <time>2025-02-26T08:55:09Z</time>
      </trkpt>
      <trkpt lat="48.05216" lon="-3.52038">
        <ele>170.8</ele>
        <time>2025-02-26T08:55:10Z</time>
      </trkpt>
      <trkpt lat="48.05216" lon="-3.52038">
        <ele>170.8</ele>
        <time>2025-02-26T08:55:11Z</time>
      </trkpt>
      <trkpt lat="48.05216" lon="-3.52038">
        <ele>170.8</ele>
        <time>2025-02-26T08:55:12Z</time>
      </trkpt>
      <trkpt lat="48.05216" lon="-3.52038">
        <ele>170.8</ele>
        <time>2025-02-26T08:55:13Z</time>
      </trkpt>
      <trkpt lat="48.05216" lon="-3.52038">
        <ele>170.8</ele>
        <time>2025-02-26T08:55:14Z</time>
      </trkpt>
      <trkpt lat="48.05216" lon="-3.52038">
        <ele>170.8</ele>
        <time>2025-02-26T08:55:15Z</time>
      </trkpt>
      <trkpt lat="48.05216" lon="-3.52038">
        <ele>170.8</ele>
        <time>2025-02-26T08:55:16Z</time>
      </trkpt>
      <trkpt lat="48.05216" lon="-3.52038">
        <ele>170.8</ele>
        <time>2025-02-26T08:55:17Z</time>
      </trkpt>
      <trkpt lat="48.05216" lon="-3.52038">
        <ele>170.8</ele>
        <time>2025-02-26T08:55:18Z</time>
      </trkpt>
      <trkpt lat="48.05216" lon="-3.52038">
        <ele>170.8</ele>
        <time>2025-02-26T08:55:19Z</time>
      </trkpt>
      <trkpt lat="48.05216" lon="-3.52038">
        <ele>170.8</ele>
        <time>2025-02-26T08:55:20Z</time>
      </trkpt>
      <trkpt lat="48.05216" lon="-3.52038">
        <ele>170.8</ele>
        <time>2025-02-26T08:55:21Z</time>
      </trkpt>
      <trkpt lat="48.05216" lon="-3.52038">
        <ele>170.8</ele>
        <time>2025-02-26T08:55:22Z</time>
      </trkpt>
      <trkpt lat="48.05216" lon="-3.52038">
        <ele>170.8</ele>
        <time>2025-02-26T08:55:23Z</time>
      </trkpt>
      <trkpt lat="48.05216" lon="-3.52038">
        <ele>170.8</ele>
        <time>2025-02-26T08:55:24Z</time>
      </trkpt>
      <trkpt lat="48.05216" lon="-3.52038">
        <ele>170.8</ele>
        <time>2025-02-26T08:55:25Z</time>
      </trkpt>
      <trkpt lat="48.05216" lon="-3.52038">
        <ele>170.8</ele>
        <time>2025-02-26T08:55:26Z</time>
      </trkpt>
      <trkpt lat="48.05216" lon="-3.52038">
        <ele>170.8</ele>
        <time>2025-02-26T08:55:27Z</time>
      </trkpt>
      <trkpt lat="48.05216" lon="-3.52038">
        <ele>170.8</ele>
        <time>2025-02-26T08:55:28Z</time>
      </trkpt>
      <trkpt lat="48.05216" lon="-3.52038">
        <ele>170.8</ele>
        <time>2025-02-26T08:55:29Z</time>
      </trkpt>
      <trkpt lat="48.05216" lon="-3.52038">
        <ele>170.8</ele>
        <time>2025-02-26T08:55:30Z</time>
      </trkpt>
      <trkpt lat="48.05216" lon="-3.52038">
        <ele>170.8</ele>
        <time>2025-02-26T08:55:31Z</time>
      </trkpt>
      <trkpt lat="48.05216" lon="-3.52038">
        <ele>170.8</ele>
        <time>2025-02-26T08:55:32Z</time>
      </trkpt>
      <trkpt lat="48.05216" lon="-3.52038">
        <ele>170.8</ele>
        <time>2025-02-26T08:55:33Z</time>
      </trkpt>
      <trkpt lat="48.05216" lon="-3.52038">
        <ele>170.8</ele>
        <time>2025-02-26T08:55:34Z</time>
      </trkpt>
      <trkpt lat="48.05216" lon="-3.52038">
        <ele>170.8</ele>
        <time>2025-02-26T08:55:35Z</time>
      </trkpt>
      <trkpt lat="48.05216" lon="-3.52038">
        <ele>170.8</ele>
        <time>2025-02-26T08:55:36Z</time>
      </trkpt>
      <trkpt lat="48.05216" lon="-3.52038">
        <ele>170.8</ele>
        <time>2025-02-26T08:55:37Z</time>
      </trkpt>
      <trkpt lat="48.05216" lon="-3.52037">
        <ele>170.9</ele>
        <time>2025-02-26T08:55:38Z</time>
      </trkpt>
      <trkpt lat="48.05216" lon="-3.52037">
        <ele>170.9</ele>
        <time>2025-02-26T08:55:39Z</time>
      </trkpt>
      <trkpt lat="48.05216" lon="-3.52037">
        <ele>170.9</ele>
        <time>2025-02-26T08:55:40Z</time>
      </trkpt>
      <trkpt lat="48.05216" lon="-3.52037">
        <ele>170.9</ele>
        <time>2025-02-26T08:55:41Z</time>
      </trkpt>
      <trkpt lat="48.05216" lon="-3.52037">
        <ele>170.9</ele>
        <time>2025-02-26T08:55:42Z</time>
      </trkpt>
      <trkpt lat="48.05216" lon="-3.52037">
        <ele>170.9</ele>
        <time>2025-02-26T08:55:43Z</time>
      </trkpt>
      <trkpt lat="48.05216" lon="-3.52037">
        <ele>170.8</ele>
        <time>2025-02-26T08:55:44Z</time>
      </trkpt>
      <trkpt lat="48.05216" lon="-3.52038">
        <ele>170.8</ele>
        <time>2025-02-26T08:55:45Z</time>
      </trkpt>
      <trkpt lat="48.05216" lon="-3.52038">
        <ele>170.8</ele>
        <time>2025-02-26T08:55:46Z</time>
      </trkpt>
      <trkpt lat="48.05216" lon="-3.52038">
        <ele>170.8</ele>
        <time>2025-02-26T08:55:47Z</time>
      </trkpt>
      <trkpt lat="48.05216" lon="-3.52038">
        <ele>170.8</ele>
        <time>2025-02-26T08:55:48Z</time>
      </trkpt>
      <trkpt lat="48.05216" lon="-3.52038">
        <ele>170.8</ele>
        <time>2025-02-26T08:55:49Z</time>
      </trkpt>
      <trkpt lat="48.05216" lon="-3.52038">
        <ele>170.8</ele>
        <time>2025-02-26T08:55:50Z</time>
      </trkpt>
      <trkpt lat="48.05216" lon="-3.52038">
        <ele>170.8</ele>
        <time>2025-02-26T08:55:51Z</time>
      </trkpt>
      <trkpt lat="48.05216" lon="-3.52038">
        <ele>170.8</ele>
        <time>2025-02-26T08:55:52Z</time>
      </trkpt>
      <trkpt lat="48.05216" lon="-3.52038">
        <ele>170.8</ele>
        <time>2025-02-26T08:55:53Z</time>
      </trkpt>
      <trkpt lat="48.05216" lon="-3.52038">
        <ele>170.8</ele>
        <time>2025-02-26T08:55:54Z</time>
      </trkpt>
      <trkpt lat="48.05216" lon="-3.52038">
        <ele>170.8</ele>
        <time>2025-02-26T08:55:55Z</time>
      </trkpt>
      <trkpt lat="48.05216" lon="-3.52038">
        <ele>170.8</ele>
        <time>2025-02-26T08:55:56Z</time>
      </trkpt>
      <trkpt lat="48.05216" lon="-3.52038">
        <ele>170.8</ele>
        <time>2025-02-26T08:55:57Z</time>
      </trkpt>
      <trkpt lat="48.05216" lon="-3.52038">
        <ele>170.8</ele>
        <time>2025-02-26T08:55:58Z</time>
      </trkpt>
      <trkpt lat="48.05216" lon="-3.52038">
        <ele>170.8</ele>
        <time>2025-02-26T08:55:59Z</time>
      </trkpt>
      <trkpt lat="48.05216" lon="-3.52038">
        <ele>170.8</ele>
        <time>2025-02-26T08:56:00Z</time>
      </trkpt>
      <trkpt lat="48.05216" lon="-3.52038">
        <ele>170.8</ele>
        <time>2025-02-26T08:56:01Z</time>
      </trkpt>
      <trkpt lat="48.05216" lon="-3.52038">
        <ele>170.8</ele>
        <time>2025-02-26T08:56:02Z</time>
      </trkpt>
      <trkpt lat="48.05216" lon="-3.52038">
        <ele>170.8</ele>
        <time>2025-02-26T08:56:03Z</time>
      </trkpt>
      <trkpt lat="48.05216" lon="-3.52038">
        <ele>170.8</ele>
        <time>2025-02-26T08:56:04Z</time>
      </trkpt>
      <trkpt lat="48.05216" lon="-3.52038">
        <ele>170.8</ele>
        <time>2025-02-26T08:56:05Z</time>
      </trkpt>
      <trkpt lat="48.05216" lon="-3.52038">
        <ele>170.8</ele>
        <time>2025-02-26T08:56:06Z</time>
      </trkpt>
      <trkpt lat="48.05216" lon="-3.52038">
        <ele>170.8</ele>
        <time>2025-02-26T08:56:07Z</time>
      </trkpt>
      <trkpt lat="48.05216" lon="-3.52038">
        <ele>170.8</ele>
        <time>2025-02-26T08:56:08Z</time>
      </trkpt>
      <trkpt lat="48.05216" lon="-3.52038">
        <ele>170.8</ele>
        <time>2025-02-26T08:56:09Z</time>
      </trkpt>
      <trkpt lat="48.05216" lon="-3.52038">
        <ele>170.8</ele>
        <time>2025-02-26T08:56:10Z</time>
      </trkpt>
      <trkpt lat="48.05216" lon="-3.52038">
        <ele>170.8</ele>
        <time>2025-02-26T08:56:11Z</time>
      </trkpt>
      <trkpt lat="48.05216" lon="-3.52038">
        <ele>170.8</ele>
        <time>2025-02-26T08:56:12Z</time>
      </trkpt>
      <trkpt lat="48.05216" lon="-3.52038">
        <ele>170.8</ele>
        <time>2025-02-26T08:56:13Z</time>
      </trkpt>
      <trkpt lat="48.05216" lon="-3.52038">
        <ele>170.8</ele>
        <time>2025-02-26T08:56:14Z</time>
      </trkpt>
      <trkpt lat="48.05216" lon="-3.52038">
        <ele>170.8</ele>
        <time>2025-02-26T08:56:15Z</time>
      </trkpt>
      <trkpt lat="48.05216" lon="-3.52038">
        <ele>170.8</ele>
        <time>2025-02-26T08:56:16Z</time>
      </trkpt>
      <trkpt lat="48.05216" lon="-3.52038">
        <ele>170.8</ele>
        <time>2025-02-26T08:56:17Z</time>
      </trkpt>
      <trkpt lat="48.05216" lon="-3.52038">
        <ele>170.8</ele>
        <time>2025-02-26T08:56:18Z</time>
      </trkpt>
      <trkpt lat="48.05216" lon="-3.52038">
        <ele>170.8</ele>
        <time>2025-02-26T08:56:19Z</time>
      </trkpt>
      <trkpt lat="48.05216" lon="-3.52038">
        <ele>170.8</ele>
        <time>2025-02-26T08:56:20Z</time>
      </trkpt>
      <trkpt lat="48.05216" lon="-3.52038">
        <ele>170.8</ele>
        <time>2025-02-26T08:56:21Z</time>
      </trkpt>
      <trkpt lat="48.05216" lon="-3.52038">
        <ele>170.8</ele>
        <time>2025-02-26T08:56:22Z</time>
      </trkpt>
      <trkpt lat="48.05216" lon="-3.52038">
        <ele>170.8</ele>
        <time>2025-02-26T08:56:23Z</time>
      </trkpt>
      <trkpt lat="48.05216" lon="-3.52038">
        <ele>170.8</ele>
        <time>2025-02-26T08:56:24Z</time>
      </trkpt>
      <trkpt lat="48.05216" lon="-3.52038">
        <ele>170.8</ele>
        <time>2025-02-26T08:56:25Z</time>
      </trkpt>
      <trkpt lat="48.05216" lon="-3.52038">
        <ele>170.8</ele>
        <time>2025-02-26T08:56:26Z</time>
      </trkpt>
      <trkpt lat="48.05216" lon="-3.52038">
        <ele>170.8</ele>
        <time>2025-02-26T08:56:27Z</time>
      </trkpt>
      <trkpt lat="48.05216" lon="-3.52038">
        <ele>170.8</ele>
        <time>2025-02-26T08:56:28Z</time>
      </trkpt>
      <trkpt lat="48.05216" lon="-3.52038">
        <ele>170.8</ele>
        <time>2025-02-26T08:56:29Z</time>
      </trkpt>
      <trkpt lat="48.05216" lon="-3.52038">
        <ele>170.8</ele>
        <time>2025-02-26T08:56:30Z</time>
      </trkpt>
      <trkpt lat="48.05215" lon="-3.52038">
        <ele>170.8</ele>
        <time>2025-02-26T08:56:31Z</time>
      </trkpt>
      <trkpt lat="48.05215" lon="-3.52039">
        <ele>170.7</ele>
        <time>2025-02-26T08:56:32Z</time>
      </trkpt>
      <trkpt lat="48.05216" lon="-3.52039">
        <ele>170.7</ele>
        <time>2025-02-26T08:56:33Z</time>
      </trkpt>
      <trkpt lat="48.05216" lon="-3.5204">
        <ele>170.7</ele>
        <time>2025-02-26T08:56:34Z</time>
      </trkpt>
      <trkpt lat="48.05216" lon="-3.5204">
        <ele>170.7</ele>
        <time>2025-02-26T08:56:35Z</time>
      </trkpt>
      <trkpt lat="48.05216" lon="-3.5204">
        <ele>170.7</ele>
        <time>2025-02-26T08:56:36Z</time>
      </trkpt>
      <trkpt lat="48.05216" lon="-3.5204">
        <ele>170.7</ele>
        <time>2025-02-26T08:56:37Z</time>
      </trkpt>
      <trkpt lat="48.05215" lon="-3.52041">
        <ele>170.6</ele>
        <time>2025-02-26T08:56:38Z</time>
      </trkpt>
      <trkpt lat="48.05215" lon="-3.52041">
        <ele>170.6</ele>
        <time>2025-02-26T08:56:39Z</time>
      </trkpt>
      <trkpt lat="48.05215" lon="-3.52041">
        <ele>170.6</ele>
        <time>2025-02-26T08:56:40Z</time>
      </trkpt>
      <trkpt lat="48.05215" lon="-3.52041">
        <ele>170.6</ele>
        <time>2025-02-26T08:56:41Z</time>
      </trkpt>
      <trkpt lat="48.05215" lon="-3.52041">
        <ele>170.6</ele>
        <time>2025-02-26T08:56:42Z</time>
      </trkpt>
      <trkpt lat="48.05215" lon="-3.52041">
        <ele>170.6</ele>
        <time>2025-02-26T08:56:43Z</time>
      </trkpt>
      <trkpt lat="48.05215" lon="-3.52041">
        <ele>170.6</ele>
        <time>2025-02-26T08:56:44Z</time>
      </trkpt>
      <trkpt lat="48.05215" lon="-3.52041">
        <ele>170.6</ele>
        <time>2025-02-26T08:56:45Z</time>
      </trkpt>
      <trkpt lat="48.05215" lon="-3.5204">
        <ele>170.6</ele>
        <time>2025-02-26T08:56:46Z</time>
      </trkpt>
      <trkpt lat="48.05215" lon="-3.5204">
        <ele>170.6</ele>
        <time>2025-02-26T08:56:47Z</time>
      </trkpt>
      <trkpt lat="48.05215" lon="-3.5204">
        <ele>170.6</ele>
        <time>2025-02-26T08:56:48Z</time>
      </trkpt>
      <trkpt lat="48.05215" lon="-3.5204">
        <ele>170.7</ele>
        <time>2025-02-26T08:56:49Z</time>
      </trkpt>
      <trkpt lat="48.05215" lon="-3.5204">
        <ele>170.7</ele>
        <time>2025-02-26T08:56:50Z</time>
      </trkpt>
      <trkpt lat="48.05215" lon="-3.5204">
        <ele>170.7</ele>
        <time>2025-02-26T08:56:51Z</time>
      </trkpt>
      <trkpt lat="48.05215" lon="-3.5204">
        <ele>170.7</ele>
        <time>2025-02-26T08:56:52Z</time>
      </trkpt>
      <trkpt lat="48.05215" lon="-3.5204">
        <ele>170.7</ele>
        <time>2025-02-26T08:56:53Z</time>
      </trkpt>
      <trkpt lat="48.05215" lon="-3.5204">
        <ele>170.7</ele>
        <time>2025-02-26T08:56:54Z</time>
      </trkpt>
      <trkpt lat="48.05215" lon="-3.52039">
        <ele>170.7</ele>
        <time>2025-02-26T08:56:55Z</time>
      </trkpt>
      <trkpt lat="48.05215" lon="-3.52039">
        <ele>170.6</ele>
        <time>2025-02-26T08:56:56Z</time>
      </trkpt>
      <trkpt lat="48.05215" lon="-3.52039">
        <ele>170.6</ele>
        <time>2025-02-26T08:56:57Z</time>
      </trkpt>
      <trkpt lat="48.05215" lon="-3.52039">
        <ele>170.6</ele>
        <time>2025-02-26T08:56:58Z</time>
      </trkpt>
      <trkpt lat="48.05215" lon="-3.52039">
        <ele>170.6</ele>
        <time>2025-02-26T08:56:59Z</time>
      </trkpt>
      <trkpt lat="48.05215" lon="-3.52039">
        <ele>170.6</ele>
        <time>2025-02-26T08:57:00Z</time>
      </trkpt>
      <trkpt lat="48.05215" lon="-3.52039">
        <ele>170.6</ele>
        <time>2025-02-26T08:57:01Z</time>
      </trkpt>
      <trkpt lat="48.05215" lon="-3.52039">
        <ele>170.6</ele>
        <time>2025-02-26T08:57:02Z</time>
      </trkpt>
      <trkpt lat="48.05215" lon="-3.52039">
        <ele>170.6</ele>
        <time>2025-02-26T08:57:03Z</time>
      </trkpt>
      <trkpt lat="48.05215" lon="-3.52039">
        <ele>170.6</ele>
        <time>2025-02-26T08:57:04Z</time>
      </trkpt>
      <trkpt lat="48.05215" lon="-3.52039">
        <ele>170.6</ele>
        <time>2025-02-26T08:57:05Z</time>
      </trkpt>
      <trkpt lat="48.05215" lon="-3.52039">
        <ele>170.6</ele>
        <time>2025-02-26T08:57:06Z</time>
      </trkpt>
      <trkpt lat="48.05214" lon="-3.52039">
        <ele>170.6</ele>
        <time>2025-02-26T08:57:07Z</time>
      </trkpt>
      <trkpt lat="48.05215" lon="-3.52039">
        <ele>170.7</ele>
        <time>2025-02-26T08:57:08Z</time>
      </trkpt>
      <trkpt lat="48.05215" lon="-3.52039">
        <ele>170.7</ele>
        <time>2025-02-26T08:57:09Z</time>
      </trkpt>
      <trkpt lat="48.05215" lon="-3.52039">
        <ele>170.7</ele>
        <time>2025-02-26T08:57:10Z</time>
      </trkpt>
      <trkpt lat="48.05215" lon="-3.52039">
        <ele>170.7</ele>
        <time>2025-02-26T08:57:11Z</time>
      </trkpt>
      <trkpt lat="48.05215" lon="-3.52039">
        <ele>170.7</ele>
        <time>2025-02-26T08:57:12Z</time>
      </trkpt>
      <trkpt lat="48.05215" lon="-3.52039">
        <ele>170.7</ele>
        <time>2025-02-26T08:57:13Z</time>
      </trkpt>
      <trkpt lat="48.05215" lon="-3.52039">
        <ele>170.7</ele>
        <time>2025-02-26T08:57:14Z</time>
      </trkpt>
      <trkpt lat="48.05215" lon="-3.52039">
        <ele>170.7</ele>
        <time>2025-02-26T08:57:15Z</time>
      </trkpt>
      <trkpt lat="48.05215" lon="-3.52039">
        <ele>170.7</ele>
        <time>2025-02-26T08:57:16Z</time>
      </trkpt>
      <trkpt lat="48.05215" lon="-3.52039">
        <ele>170.7</ele>
        <time>2025-02-26T08:57:17Z</time>
      </trkpt>
      <trkpt lat="48.05215" lon="-3.52039">
        <ele>170.7</ele>
        <time>2025-02-26T08:57:18Z</time>
      </trkpt>
      <trkpt lat="48.05215" lon="-3.52039">
        <ele>170.7</ele>
        <time>2025-02-26T08:57:19Z</time>
      </trkpt>
      <trkpt lat="48.05215" lon="-3.52039">
        <ele>170.7</ele>
        <time>2025-02-26T08:57:20Z</time>
      </trkpt>
      <trkpt lat="48.05215" lon="-3.52039">
        <ele>170.7</ele>
        <time>2025-02-26T08:57:21Z</time>
      </trkpt>
      <trkpt lat="48.05215" lon="-3.52039">
        <ele>170.7</ele>
        <time>2025-02-26T08:57:22Z</time>
      </trkpt>
      <trkpt lat="48.05215" lon="-3.52039">
        <ele>170.7</ele>
        <time>2025-02-26T08:57:23Z</time>
      </trkpt>
      <trkpt lat="48.05215" lon="-3.52039">
        <ele>170.7</ele>
        <time>2025-02-26T08:57:24Z</time>
      </trkpt>
      <trkpt lat="48.05215" lon="-3.52039">
        <ele>170.7</ele>
        <time>2025-02-26T08:57:25Z</time>
      </trkpt>
      <trkpt lat="48.05216" lon="-3.52038">
        <ele>170.8</ele>
        <time>2025-02-26T08:57:26Z</time>
      </trkpt>
      <trkpt lat="48.05216" lon="-3.52038">
        <ele>170.8</ele>
        <time>2025-02-26T08:57:27Z</time>
      </trkpt>
      <trkpt lat="48.05217" lon="-3.52037">
        <ele>170.9</ele>
        <time>2025-02-26T08:57:28Z</time>
      </trkpt>
      <trkpt lat="48.05217" lon="-3.52037">
        <ele>171</ele>
        <time>2025-02-26T08:57:29Z</time>
      </trkpt>
      <trkpt lat="48.05218" lon="-3.52037">
        <ele>171</ele>
        <time>2025-02-26T08:57:30Z</time>
      </trkpt>
      <trkpt lat="48.05217" lon="-3.52038">
        <ele>171</ele>
        <time>2025-02-26T08:57:31Z</time>
      </trkpt>
      <trkpt lat="48.05217" lon="-3.52038">
        <ele>170.9</ele>
        <time>2025-02-26T08:57:32Z</time>
      </trkpt>
      <trkpt lat="48.05217" lon="-3.52038">
        <ele>170.9</ele>
        <time>2025-02-26T08:57:33Z</time>
      </trkpt>
      <trkpt lat="48.05217" lon="-3.52038">
        <ele>170.9</ele>
        <time>2025-02-26T08:57:34Z</time>
      </trkpt>
      <trkpt lat="48.05217" lon="-3.52038">
        <ele>170.9</ele>
        <time>2025-02-26T08:57:35Z</time>
      </trkpt>
      <trkpt lat="48.05217" lon="-3.52038">
        <ele>170.9</ele>
        <time>2025-02-26T08:57:36Z</time>
      </trkpt>
      <trkpt lat="48.05217" lon="-3.52038">
        <ele>170.9</ele>
        <time>2025-02-26T08:57:37Z</time>
      </trkpt>
      <trkpt lat="48.05217" lon="-3.52038">
        <ele>170.9</ele>
        <time>2025-02-26T08:57:38Z</time>
      </trkpt>
      <trkpt lat="48.05217" lon="-3.52038">
        <ele>170.9</ele>
        <time>2025-02-26T08:57:39Z</time>
      </trkpt>
      <trkpt lat="48.05217" lon="-3.52038">
        <ele>170.9</ele>
        <time>2025-02-26T08:57:40Z</time>
      </trkpt>
      <trkpt lat="48.05217" lon="-3.52038">
        <ele>170.9</ele>
        <time>2025-02-26T08:57:41Z</time>
      </trkpt>
      <trkpt lat="48.05217" lon="-3.52038">
        <ele>170.9</ele>
        <time>2025-02-26T08:57:42Z</time>
      </trkpt>
      <trkpt lat="48.05217" lon="-3.52038">
        <ele>170.9</ele>
        <time>2025-02-26T08:57:43Z</time>
      </trkpt>
      <trkpt lat="48.05217" lon="-3.52038">
        <ele>170.9</ele>
        <time>2025-02-26T08:57:44Z</time>
      </trkpt>
      <trkpt lat="48.05217" lon="-3.52038">
        <ele>170.9</ele>
        <time>2025-02-26T08:57:45Z</time>
      </trkpt>
      <trkpt lat="48.05217" lon="-3.52038">
        <ele>170.9</ele>
        <time>2025-02-26T08:57:46Z</time>
      </trkpt>
      <trkpt lat="48.05217" lon="-3.52038">
        <ele>170.9</ele>
        <time>2025-02-26T08:57:47Z</time>
      </trkpt>
      <trkpt lat="48.05217" lon="-3.52038">
        <ele>170.9</ele>
        <time>2025-02-26T08:57:48Z</time>
      </trkpt>
      <trkpt lat="48.05217" lon="-3.52038">
        <ele>170.9</ele>
        <time>2025-02-26T08:57:49Z</time>
      </trkpt>
      <trkpt lat="48.05217" lon="-3.52038">
        <ele>170.9</ele>
        <time>2025-02-26T08:57:50Z</time>
      </trkpt>
      <trkpt lat="48.05217" lon="-3.52038">
        <ele>170.9</ele>
        <time>2025-02-26T08:57:51Z</time>
      </trkpt>
      <trkpt lat="48.05217" lon="-3.52038">
        <ele>170.9</ele>
        <time>2025-02-26T08:57:52Z</time>
      </trkpt>
      <trkpt lat="48.05217" lon="-3.52038">
        <ele>170.9</ele>
        <time>2025-02-26T08:57:53Z</time>
      </trkpt>
      <trkpt lat="48.05217" lon="-3.52038">
        <ele>170.9</ele>
        <time>2025-02-26T08:57:54Z</time>
      </trkpt>
      <trkpt lat="48.05217" lon="-3.52038">
        <ele>170.9</ele>
        <time>2025-02-26T08:57:55Z</time>
      </trkpt>
      <trkpt lat="48.05217" lon="-3.52038">
        <ele>170.9</ele>
        <time>2025-02-26T08:57:56Z</time>
      </trkpt>
      <trkpt lat="48.05217" lon="-3.52038">
        <ele>170.9</ele>
        <time>2025-02-26T08:57:57Z</time>
      </trkpt>
      <trkpt lat="48.05217" lon="-3.52038">
        <ele>170.9</ele>
        <time>2025-02-26T08:57:58Z</time>
      </trkpt>
      <trkpt lat="48.05217" lon="-3.52038">
        <ele>170.9</ele>
        <time>2025-02-26T08:57:59Z</time>
      </trkpt>
      <trkpt lat="48.05217" lon="-3.52038">
        <ele>170.9</ele>
        <time>2025-02-26T08:58:00Z</time>
      </trkpt>
      <trkpt lat="48.05217" lon="-3.52039">
        <ele>170.8</ele>
        <time>2025-02-26T08:58:01Z</time>
      </trkpt>
      <trkpt lat="48.05216" lon="-3.52039">
        <ele>170.8</ele>
        <time>2025-02-26T08:58:02Z</time>
      </trkpt>
      <trkpt lat="48.05216" lon="-3.52039">
        <ele>170.8</ele>
        <time>2025-02-26T08:58:03Z</time>
      </trkpt>
      <trkpt lat="48.05216" lon="-3.52039">
        <ele>170.8</ele>
        <time>2025-02-26T08:58:04Z</time>
      </trkpt>
      <trkpt lat="48.05216" lon="-3.52039">
        <ele>170.8</ele>
        <time>2025-02-26T08:58:05Z</time>
      </trkpt>
      <trkpt lat="48.05216" lon="-3.52039">
        <ele>170.8</ele>
        <time>2025-02-26T08:58:06Z</time>
      </trkpt>
      <trkpt lat="48.05216" lon="-3.52039">
        <ele>170.8</ele>
        <time>2025-02-26T08:58:07Z</time>
      </trkpt>
      <trkpt lat="48.05216" lon="-3.52039">
        <ele>170.8</ele>
        <time>2025-02-26T08:58:08Z</time>
      </trkpt>
      <trkpt lat="48.05216" lon="-3.52039">
        <ele>170.8</ele>
        <time>2025-02-26T08:58:09Z</time>
      </trkpt>
      <trkpt lat="48.05216" lon="-3.52039">
        <ele>170.8</ele>
        <time>2025-02-26T08:58:10Z</time>
      </trkpt>
      <trkpt lat="48.05216" lon="-3.52039">
        <ele>170.8</ele>
        <time>2025-02-26T08:58:11Z</time>
      </trkpt>
      <trkpt lat="48.05216" lon="-3.52039">
        <ele>170.8</ele>
        <time>2025-02-26T08:58:12Z</time>
      </trkpt>
      <trkpt lat="48.05216" lon="-3.52039">
        <ele>170.8</ele>
        <time>2025-02-26T08:58:13Z</time>
      </trkpt>
      <trkpt lat="48.05216" lon="-3.52039">
        <ele>170.8</ele>
        <time>2025-02-26T08:58:14Z</time>
      </trkpt>
      <trkpt lat="48.05216" lon="-3.52039">
        <ele>170.8</ele>
        <time>2025-02-26T08:58:15Z</time>
      </trkpt>
      <trkpt lat="48.05216" lon="-3.52039">
        <ele>170.8</ele>
        <time>2025-02-26T08:58:16Z</time>
      </trkpt>
      <trkpt lat="48.05216" lon="-3.52039">
        <ele>170.8</ele>
        <time>2025-02-26T08:58:17Z</time>
      </trkpt>
      <trkpt lat="48.05216" lon="-3.52039">
        <ele>170.8</ele>
        <time>2025-02-26T08:58:18Z</time>
      </trkpt>
      <trkpt lat="48.05216" lon="-3.52039">
        <ele>170.8</ele>
        <time>2025-02-26T08:58:19Z</time>
      </trkpt>
      <trkpt lat="48.05216" lon="-3.52039">
        <ele>170.8</ele>
        <time>2025-02-26T08:58:20Z</time>
      </trkpt>
      <trkpt lat="48.05216" lon="-3.52039">
        <ele>170.8</ele>
        <time>2025-02-26T08:58:21Z</time>
      </trkpt>
      <trkpt lat="48.05216" lon="-3.52039">
        <ele>170.8</ele>
        <time>2025-02-26T08:58:22Z</time>
      </trkpt>
      <trkpt lat="48.05216" lon="-3.52039">
        <ele>170.8</ele>
        <time>2025-02-26T08:58:23Z</time>
      </trkpt>
      <trkpt lat="48.05216" lon="-3.52039">
        <ele>170.8</ele>
        <time>2025-02-26T08:58:24Z</time>
      </trkpt>
      <trkpt lat="48.05216" lon="-3.52039">
        <ele>170.8</ele>
        <time>2025-02-26T08:58:25Z</time>
      </trkpt>
      <trkpt lat="48.05216" lon="-3.52039">
        <ele>170.8</ele>
        <time>2025-02-26T08:58:26Z</time>
      </trkpt>
      <trkpt lat="48.05216" lon="-3.52039">
        <ele>170.8</ele>
        <time>2025-02-26T08:58:27Z</time>
      </trkpt>
      <trkpt lat="48.05216" lon="-3.52039">
        <ele>170.8</ele>
        <time>2025-02-26T08:58:28Z</time>
      </trkpt>
      <trkpt lat="48.05216" lon="-3.52039">
        <ele>170.8</ele>
        <time>2025-02-26T08:58:29Z</time>
      </trkpt>
      <trkpt lat="48.05216" lon="-3.52039">
        <ele>170.8</ele>
        <time>2025-02-26T08:58:30Z</time>
      </trkpt>
      <trkpt lat="48.05216" lon="-3.52039">
        <ele>170.8</ele>
        <time>2025-02-26T08:58:31Z</time>
      </trkpt>
      <trkpt lat="48.05216" lon="-3.52039">
        <ele>170.8</ele>
        <time>2025-02-26T08:58:32Z</time>
      </trkpt>
      <trkpt lat="48.05216" lon="-3.52039">
        <ele>170.8</ele>
        <time>2025-02-26T08:58:33Z</time>
      </trkpt>
      <trkpt lat="48.05216" lon="-3.52039">
        <ele>170.8</ele>
        <time>2025-02-26T08:58:34Z</time>
      </trkpt>
      <trkpt lat="48.05216" lon="-3.52039">
        <ele>170.8</ele>
        <time>2025-02-26T08:58:35Z</time>
      </trkpt>
      <trkpt lat="48.05216" lon="-3.52039">
        <ele>170.8</ele>
        <time>2025-02-26T08:58:36Z</time>
      </trkpt>
      <trkpt lat="48.05216" lon="-3.52039">
        <ele>170.8</ele>
        <time>2025-02-26T08:58:37Z</time>
      </trkpt>
      <trkpt lat="48.05216" lon="-3.52039">
        <ele>170.8</ele>
        <time>2025-02-26T08:58:38Z</time>
      </trkpt>
      <trkpt lat="48.05216" lon="-3.52039">
        <ele>170.8</ele>
        <time>2025-02-26T08:58:39Z</time>
      </trkpt>
      <trkpt lat="48.05216" lon="-3.52039">
        <ele>170.8</ele>
        <time>2025-02-26T08:58:40Z</time>
      </trkpt>
      <trkpt lat="48.05216" lon="-3.52039">
        <ele>170.8</ele>
        <time>2025-02-26T08:58:41Z</time>
      </trkpt>
      <trkpt lat="48.05216" lon="-3.52039">
        <ele>170.8</ele>
        <time>2025-02-26T08:58:42Z</time>
      </trkpt>
      <trkpt lat="48.05216" lon="-3.52039">
        <ele>170.8</ele>
        <time>2025-02-26T08:58:43Z</time>
      </trkpt>
      <trkpt lat="48.05216" lon="-3.52039">
        <ele>170.8</ele>
        <time>2025-02-26T08:58:44Z</time>
      </trkpt>
      <trkpt lat="48.05216" lon="-3.52039">
        <ele>170.8</ele>
        <time>2025-02-26T08:58:45Z</time>
      </trkpt>
      <trkpt lat="48.05216" lon="-3.52039">
        <ele>170.8</ele>
        <time>2025-02-26T08:58:46Z</time>
      </trkpt>
      <trkpt lat="48.05216" lon="-3.52039">
        <ele>170.8</ele>
        <time>2025-02-26T08:58:47Z</time>
      </trkpt>
      <trkpt lat="48.05216" lon="-3.52039">
        <ele>170.8</ele>
        <time>2025-02-26T08:58:48Z</time>
      </trkpt>
      <trkpt lat="48.05216" lon="-3.52039">
        <ele>170.8</ele>
        <time>2025-02-26T08:58:49Z</time>
      </trkpt>
      <trkpt lat="48.05216" lon="-3.52039">
        <ele>170.8</ele>
        <time>2025-02-26T08:58:50Z</time>
      </trkpt>
      <trkpt lat="48.05216" lon="-3.52039">
        <ele>170.8</ele>
        <time>2025-02-26T08:58:51Z</time>
      </trkpt>
      <trkpt lat="48.05216" lon="-3.52039">
        <ele>170.8</ele>
        <time>2025-02-26T08:58:52Z</time>
      </trkpt>
      <trkpt lat="48.05216" lon="-3.52039">
        <ele>170.8</ele>
        <time>2025-02-26T08:58:53Z</time>
      </trkpt>
      <trkpt lat="48.05216" lon="-3.52039">
        <ele>170.8</ele>
        <time>2025-02-26T08:58:54Z</time>
      </trkpt>
      <trkpt lat="48.05216" lon="-3.52039">
        <ele>170.8</ele>
        <time>2025-02-26T08:58:55Z</time>
      </trkpt>
      <trkpt lat="48.05216" lon="-3.52039">
        <ele>170.8</ele>
        <time>2025-02-26T08:58:56Z</time>
      </trkpt>
      <trkpt lat="48.05216" lon="-3.52039">
        <ele>170.8</ele>
        <time>2025-02-26T08:58:57Z</time>
      </trkpt>
      <trkpt lat="48.05216" lon="-3.52039">
        <ele>170.8</ele>
        <time>2025-02-26T08:58:58Z</time>
      </trkpt>
      <trkpt lat="48.05216" lon="-3.52039">
        <ele>170.8</ele>
        <time>2025-02-26T08:58:59Z</time>
      </trkpt>
      <trkpt lat="48.05216" lon="-3.52039">
        <ele>170.8</ele>
        <time>2025-02-26T08:59:00Z</time>
      </trkpt>
      <trkpt lat="48.05216" lon="-3.52038">
        <ele>170.8</ele>
        <time>2025-02-26T08:59:01Z</time>
      </trkpt>
      <trkpt lat="48.05216" lon="-3.52038">
        <ele>170.8</ele>
        <time>2025-02-26T08:59:02Z</time>
      </trkpt>
      <trkpt lat="48.05216" lon="-3.52039">
        <ele>170.8</ele>
        <time>2025-02-26T08:59:03Z</time>
      </trkpt>
      <trkpt lat="48.05216" lon="-3.52039">
        <ele>170.8</ele>
        <time>2025-02-26T08:59:04Z</time>
      </trkpt>
      <trkpt lat="48.05216" lon="-3.52039">
        <ele>170.8</ele>
        <time>2025-02-26T08:59:05Z</time>
      </trkpt>
      <trkpt lat="48.05216" lon="-3.52039">
        <ele>170.8</ele>
        <time>2025-02-26T08:59:06Z</time>
      </trkpt>
      <trkpt lat="48.05216" lon="-3.52039">
        <ele>170.8</ele>
        <time>2025-02-26T08:59:07Z</time>
      </trkpt>
      <trkpt lat="48.05216" lon="-3.52039">
        <ele>170.8</ele>
        <time>2025-02-26T08:59:08Z</time>
      </trkpt>
      <trkpt lat="48.05216" lon="-3.52039">
        <ele>170.8</ele>
        <time>2025-02-26T08:59:09Z</time>
      </trkpt>
      <trkpt lat="48.05216" lon="-3.52039">
        <ele>170.8</ele>
        <time>2025-02-26T08:59:10Z</time>
      </trkpt>
      <trkpt lat="48.05216" lon="-3.52039">
        <ele>170.8</ele>
        <time>2025-02-26T08:59:11Z</time>
      </trkpt>
      <trkpt lat="48.05216" lon="-3.52039">
        <ele>170.8</ele>
        <time>2025-02-26T08:59:12Z</time>
      </trkpt>
      <trkpt lat="48.05216" lon="-3.52039">
        <ele>170.8</ele>
        <time>2025-02-26T08:59:13Z</time>
      </trkpt>
      <trkpt lat="48.05216" lon="-3.52039">
        <ele>170.8</ele>
        <time>2025-02-26T08:59:14Z</time>
      </trkpt>
      <trkpt lat="48.05216" lon="-3.52039">
        <ele>170.8</ele>
        <time>2025-02-26T08:59:15Z</time>
      </trkpt>
      <trkpt lat="48.05216" lon="-3.52039">
        <ele>170.8</ele>
        <time>2025-02-26T08:59:16Z</time>
      </trkpt>
      <trkpt lat="48.05216" lon="-3.52039">
        <ele>170.8</ele>
        <time>2025-02-26T08:59:17Z</time>
      </trkpt>
      <trkpt lat="48.05216" lon="-3.52039">
        <ele>170.8</ele>
        <time>2025-02-26T08:59:18Z</time>
      </trkpt>
      <trkpt lat="48.05216" lon="-3.52039">
        <ele>170.8</ele>
        <time>2025-02-26T08:59:19Z</time>
      </trkpt>
      <trkpt lat="48.05216" lon="-3.52039">
        <ele>170.8</ele>
        <time>2025-02-26T08:59:20Z</time>
      </trkpt>
      <trkpt lat="48.05216" lon="-3.52039">
        <ele>170.8</ele>
        <time>2025-02-26T08:59:21Z</time>
      </trkpt>
      <trkpt lat="48.05216" lon="-3.52039">
        <ele>170.8</ele>
        <time>2025-02-26T08:59:22Z</time>
      </trkpt>
      <trkpt lat="48.05216" lon="-3.52039">
        <ele>170.8</ele>
        <time>2025-02-26T08:59:23Z</time>
      </trkpt>
      <trkpt lat="48.05216" lon="-3.52039">
        <ele>170.8</ele>
        <time>2025-02-26T08:59:24Z</time>
      </trkpt>
      <trkpt lat="48.05216" lon="-3.52039">
        <ele>170.8</ele>
        <time>2025-02-26T08:59:25Z</time>
      </trkpt>
      <trkpt lat="48.05216" lon="-3.52039">
        <ele>170.8</ele>
        <time>2025-02-26T08:59:26Z</time>
      </trkpt>
      <trkpt lat="48.05216" lon="-3.52039">
        <ele>170.8</ele>
        <time>2025-02-26T08:59:27Z</time>
      </trkpt>
      <trkpt lat="48.05216" lon="-3.52039">
        <ele>170.8</ele>
        <time>2025-02-26T08:59:28Z</time>
      </trkpt>
      <trkpt lat="48.05216" lon="-3.52039">
        <ele>170.8</ele>
        <time>2025-02-26T08:59:29Z</time>
      </trkpt>
      <trkpt lat="48.05216" lon="-3.52039">
        <ele>170.8</ele>
        <time>2025-02-26T08:59:30Z</time>
      </trkpt>
      <trkpt lat="48.05216" lon="-3.52039">
        <ele>170.8</ele>
        <time>2025-02-26T08:59:31Z</time>
      </trkpt>
      <trkpt lat="48.05216" lon="-3.52039">
        <ele>170.8</ele>
        <time>2025-02-26T08:59:32Z</time>
      </trkpt>
      <trkpt lat="48.05216" lon="-3.52039">
        <ele>170.8</ele>
        <time>2025-02-26T08:59:33Z</time>
      </trkpt>
      <trkpt lat="48.05216" lon="-3.52039">
        <ele>170.8</ele>
        <time>2025-02-26T08:59:34Z</time>
      </trkpt>
      <trkpt lat="48.05216" lon="-3.52039">
        <ele>170.8</ele>
        <time>2025-02-26T08:59:35Z</time>
      </trkpt>
      <trkpt lat="48.05216" lon="-3.52039">
        <ele>170.8</ele>
        <time>2025-02-26T08:59:36Z</time>
      </trkpt>
      <trkpt lat="48.05216" lon="-3.52039">
        <ele>170.8</ele>
        <time>2025-02-26T08:59:37Z</time>
      </trkpt>
      <trkpt lat="48.05216" lon="-3.52039">
        <ele>170.8</ele>
        <time>2025-02-26T08:59:38Z</time>
      </trkpt>
      <trkpt lat="48.05216" lon="-3.52039">
        <ele>170.8</ele>
        <time>2025-02-26T08:59:39Z</time>
      </trkpt>
      <trkpt lat="48.05216" lon="-3.52039">
        <ele>170.8</ele>
        <time>2025-02-26T08:59:40Z</time>
      </trkpt>
      <trkpt lat="48.05216" lon="-3.52039">
        <ele>170.8</ele>
        <time>2025-02-26T08:59:41Z</time>
      </trkpt>
      <trkpt lat="48.05216" lon="-3.52039">
        <ele>170.8</ele>
        <time>2025-02-26T08:59:42Z</time>
      </trkpt>
      <trkpt lat="48.05216" lon="-3.52039">
        <ele>170.8</ele>
        <time>2025-02-26T08:59:43Z</time>
      </trkpt>
      <trkpt lat="48.05216" lon="-3.52039">
        <ele>170.8</ele>
        <time>2025-02-26T08:59:44Z</time>
      </trkpt>
      <trkpt lat="48.05216" lon="-3.52039">
        <ele>170.8</ele>
        <time>2025-02-26T08:59:45Z</time>
      </trkpt>
      <trkpt lat="48.05216" lon="-3.52039">
        <ele>170.8</ele>
        <time>2025-02-26T08:59:46Z</time>
      </trkpt>
      <trkpt lat="48.05216" lon="-3.52039">
        <ele>170.8</ele>
        <time>2025-02-26T08:59:47Z</time>
      </trkpt>
      <trkpt lat="48.05216" lon="-3.52039">
        <ele>170.8</ele>
        <time>2025-02-26T08:59:48Z</time>
      </trkpt>
      <trkpt lat="48.05216" lon="-3.52039">
        <ele>170.8</ele>
        <time>2025-02-26T08:59:49Z</time>
      </trkpt>
      <trkpt lat="48.05216" lon="-3.52039">
        <ele>170.8</ele>
        <time>2025-02-26T08:59:50Z</time>
      </trkpt>
      <trkpt lat="48.05216" lon="-3.52039">
        <ele>170.8</ele>
        <time>2025-02-26T08:59:51Z</time>
      </trkpt>
      <trkpt lat="48.05216" lon="-3.52039">
        <ele>170.8</ele>
        <time>2025-02-26T08:59:52Z</time>
      </trkpt>
      <trkpt lat="48.05216" lon="-3.52039">
        <ele>170.8</ele>
        <time>2025-02-26T08:59:53Z</time>
      </trkpt>
      <trkpt lat="48.05216" lon="-3.52039">
        <ele>170.8</ele>
        <time>2025-02-26T08:59:54Z</time>
      </trkpt>
      <trkpt lat="48.05216" lon="-3.52039">
        <ele>170.8</ele>
        <time>2025-02-26T08:59:55Z</time>
      </trkpt>
      <trkpt lat="48.05216" lon="-3.52039">
        <ele>170.8</ele>
        <time>2025-02-26T08:59:56Z</time>
      </trkpt>
      <trkpt lat="48.05216" lon="-3.52039">
        <ele>170.8</ele>
        <time>2025-02-26T08:59:57Z</time>
      </trkpt>
      <trkpt lat="48.05216" lon="-3.52039">
        <ele>170.8</ele>
        <time>2025-02-26T08:59:58Z</time>
      </trkpt>
      <trkpt lat="48.05216" lon="-3.52039">
        <ele>170.8</ele>
        <time>2025-02-26T08:59:59Z</time>
      </trkpt>
      <trkpt lat="48.05216" lon="-3.52039">
        <ele>170.8</ele>
        <time>2025-02-26T09:00:00Z</time>
      </trkpt>
      <trkpt lat="48.05216" lon="-3.52039">
        <ele>170.8</ele>
        <time>2025-02-26T09:00:01Z</time>
      </trkpt>
      <trkpt lat="48.05216" lon="-3.52039">
        <ele>170.8</ele>
        <time>2025-02-26T09:00:02Z</time>
      </trkpt>
      <trkpt lat="48.05216" lon="-3.52039">
        <ele>170.8</ele>
        <time>2025-02-26T09:00:03Z</time>
      </trkpt>
      <trkpt lat="48.05216" lon="-3.52039">
        <ele>170.8</ele>
        <time>2025-02-26T09:00:04Z</time>
      </trkpt>
      <trkpt lat="48.05216" lon="-3.52039">
        <ele>170.8</ele>
        <time>2025-02-26T09:00:05Z</time>
      </trkpt>
      <trkpt lat="48.05216" lon="-3.52039">
        <ele>170.8</ele>
        <time>2025-02-26T09:00:06Z</time>
      </trkpt>
      <trkpt lat="48.05216" lon="-3.52039">
        <ele>170.8</ele>
        <time>2025-02-26T09:00:07Z</time>
      </trkpt>
      <trkpt lat="48.05216" lon="-3.52039">
        <ele>170.8</ele>
        <time>2025-02-26T09:00:08Z</time>
      </trkpt>
      <trkpt lat="48.05216" lon="-3.52039">
        <ele>170.8</ele>
        <time>2025-02-26T09:00:09Z</time>
      </trkpt>
      <trkpt lat="48.05216" lon="-3.52039">
        <ele>170.8</ele>
        <time>2025-02-26T09:00:10Z</time>
      </trkpt>
      <trkpt lat="48.05216" lon="-3.52039">
        <ele>170.8</ele>
        <time>2025-02-26T09:00:11Z</time>
      </trkpt>
      <trkpt lat="48.05216" lon="-3.52039">
        <ele>170.8</ele>
        <time>2025-02-26T09:00:12Z</time>
      </trkpt>
      <trkpt lat="48.05216" lon="-3.52039">
        <ele>170.8</ele>
        <time>2025-02-26T09:00:13Z</time>
      </trkpt>
      <trkpt lat="48.05216" lon="-3.52039">
        <ele>170.8</ele>
        <time>2025-02-26T09:00:14Z</time>
      </trkpt>
      <trkpt lat="48.05216" lon="-3.52038">
        <ele>170.8</ele>
        <time>2025-02-26T09:00:15Z</time>
      </trkpt>
      <trkpt lat="48.05216" lon="-3.52038">
        <ele>170.8</ele>
        <time>2025-02-26T09:00:16Z</time>
      </trkpt>
      <trkpt lat="48.05216" lon="-3.52038">
        <ele>170.8</ele>
        <time>2025-02-26T09:00:17Z</time>
      </trkpt>
      <trkpt lat="48.05216" lon="-3.52038">
        <ele>170.8</ele>
        <time>2025-02-26T09:00:18Z</time>
      </trkpt>
      <trkpt lat="48.05216" lon="-3.52038">
        <ele>170.8</ele>
        <time>2025-02-26T09:00:19Z</time>
      </trkpt>
      <trkpt lat="48.05216" lon="-3.52038">
        <ele>170.8</ele>
        <time>2025-02-26T09:00:20Z</time>
      </trkpt>
      <trkpt lat="48.05216" lon="-3.52038">
        <ele>170.8</ele>
        <time>2025-02-26T09:00:21Z</time>
      </trkpt>
      <trkpt lat="48.05216" lon="-3.52038">
        <ele>170.8</ele>
        <time>2025-02-26T09:00:22Z</time>
      </trkpt>
      <trkpt lat="48.05216" lon="-3.52038">
        <ele>170.8</ele>
        <time>2025-02-26T09:00:23Z</time>
      </trkpt>
      <trkpt lat="48.05216" lon="-3.52038">
        <ele>170.8</ele>
        <time>2025-02-26T09:00:24Z</time>
      </trkpt>
      <trkpt lat="48.05216" lon="-3.52038">
        <ele>170.8</ele>
        <time>2025-02-26T09:00:25Z</time>
      </trkpt>
      <trkpt lat="48.05216" lon="-3.52038">
        <ele>170.8</ele>
        <time>2025-02-26T09:00:26Z</time>
      </trkpt>
      <trkpt lat="48.05216" lon="-3.52038">
        <ele>170.8</ele>
        <time>2025-02-26T09:00:27Z</time>
      </trkpt>
      <trkpt lat="48.05216" lon="-3.52038">
        <ele>170.8</ele>
        <time>2025-02-26T09:00:28Z</time>
      </trkpt>
      <trkpt lat="48.05216" lon="-3.52038">
        <ele>170.8</ele>
        <time>2025-02-26T09:00:29Z</time>
      </trkpt>
      <trkpt lat="48.05216" lon="-3.52038">
        <ele>170.8</ele>
        <time>2025-02-26T09:00:30Z</time>
      </trkpt>
      <trkpt lat="48.05216" lon="-3.52038">
        <ele>170.8</ele>
        <time>2025-02-26T09:00:31Z</time>
      </trkpt>
      <trkpt lat="48.05216" lon="-3.52038">
        <ele>170.8</ele>
        <time>2025-02-26T09:00:32Z</time>
      </trkpt>
      <trkpt lat="48.05216" lon="-3.52038">
        <ele>170.8</ele>
        <time>2025-02-26T09:00:33Z</time>
      </trkpt>
      <trkpt lat="48.05216" lon="-3.52038">
        <ele>170.8</ele>
        <time>2025-02-26T09:00:34Z</time>
      </trkpt>
      <trkpt lat="48.05216" lon="-3.52038">
        <ele>170.8</ele>
        <time>2025-02-26T09:00:35Z</time>
      </trkpt>
      <trkpt lat="48.05216" lon="-3.52038">
        <ele>170.8</ele>
        <time>2025-02-26T09:00:36Z</time>
      </trkpt>
      <trkpt lat="48.05216" lon="-3.52038">
        <ele>170.8</ele>
        <time>2025-02-26T09:00:37Z</time>
      </trkpt>
      <trkpt lat="48.05216" lon="-3.52038">
        <ele>170.8</ele>
        <time>2025-02-26T09:00:38Z</time>
      </trkpt>
      <trkpt lat="48.05216" lon="-3.52038">
        <ele>170.8</ele>
        <time>2025-02-26T09:00:39Z</time>
      </trkpt>
      <trkpt lat="48.05216" lon="-3.52038">
        <ele>170.8</ele>
        <time>2025-02-26T09:00:40Z</time>
      </trkpt>
      <trkpt lat="48.05216" lon="-3.52038">
        <ele>170.8</ele>
        <time>2025-02-26T09:00:41Z</time>
      </trkpt>
      <trkpt lat="48.05216" lon="-3.52038">
        <ele>170.8</ele>
        <time>2025-02-26T09:00:42Z</time>
      </trkpt>
      <trkpt lat="48.05216" lon="-3.52038">
        <ele>170.8</ele>
        <time>2025-02-26T09:00:43Z</time>
      </trkpt>
      <trkpt lat="48.05216" lon="-3.52038">
        <ele>170.8</ele>
        <time>2025-02-26T09:00:44Z</time>
      </trkpt>
      <trkpt lat="48.05216" lon="-3.52038">
        <ele>170.8</ele>
        <time>2025-02-26T09:00:45Z</time>
      </trkpt>
      <trkpt lat="48.05216" lon="-3.52038">
        <ele>170.8</ele>
        <time>2025-02-26T09:00:46Z</time>
      </trkpt>
      <trkpt lat="48.05216" lon="-3.52038">
        <ele>170.8</ele>
        <time>2025-02-26T09:00:47Z</time>
      </trkpt>
      <trkpt lat="48.05216" lon="-3.52038">
        <ele>170.8</ele>
        <time>2025-02-26T09:00:48Z</time>
      </trkpt>
      <trkpt lat="48.05216" lon="-3.52038">
        <ele>170.8</ele>
        <time>2025-02-26T09:00:49Z</time>
      </trkpt>
      <trkpt lat="48.05216" lon="-3.52038">
        <ele>170.8</ele>
        <time>2025-02-26T09:00:50Z</time>
      </trkpt>
      <trkpt lat="48.05216" lon="-3.52038">
        <ele>170.8</ele>
        <time>2025-02-26T09:00:51Z</time>
      </trkpt>
      <trkpt lat="48.05216" lon="-3.52038">
        <ele>170.8</ele>
        <time>2025-02-26T09:00:52Z</time>
      </trkpt>
      <trkpt lat="48.05216" lon="-3.52038">
        <ele>170.8</ele>
        <time>2025-02-26T09:00:53Z</time>
      </trkpt>
      <trkpt lat="48.05216" lon="-3.52037">
        <ele>170.8</ele>
        <time>2025-02-26T09:00:54Z</time>
      </trkpt>
      <trkpt lat="48.05216" lon="-3.52038">
        <ele>170.8</ele>
        <time>2025-02-26T09:00:55Z</time>
      </trkpt>
      <trkpt lat="48.05216" lon="-3.52037">
        <ele>170.8</ele>
        <time>2025-02-26T09:00:56Z</time>
      </trkpt>
      <trkpt lat="48.05216" lon="-3.52037">
        <ele>170.8</ele>
        <time>2025-02-26T09:00:57Z</time>
      </trkpt>
      <trkpt lat="48.05216" lon="-3.52037">
        <ele>170.8</ele>
        <time>2025-02-26T09:00:58Z</time>
      </trkpt>
      <trkpt lat="48.05216" lon="-3.52037">
        <ele>170.8</ele>
        <time>2025-02-26T09:00:59Z</time>
      </trkpt>
      <trkpt lat="48.05216" lon="-3.52037">
        <ele>170.8</ele>
        <time>2025-02-26T09:01:00Z</time>
      </trkpt>
      <trkpt lat="48.05216" lon="-3.52037">
        <ele>170.8</ele>
        <time>2025-02-26T09:01:01Z</time>
      </trkpt>
      <trkpt lat="48.05216" lon="-3.52037">
        <ele>170.8</ele>
        <time>2025-02-26T09:01:02Z</time>
      </trkpt>
      <trkpt lat="48.05216" lon="-3.52037">
        <ele>170.8</ele>
        <time>2025-02-26T09:01:03Z</time>
      </trkpt>
      <trkpt lat="48.05216" lon="-3.52037">
        <ele>170.8</ele>
        <time>2025-02-26T09:01:04Z</time>
      </trkpt>
      <trkpt lat="48.05216" lon="-3.52037">
        <ele>170.8</ele>
        <time>2025-02-26T09:01:05Z</time>
      </trkpt>
      <trkpt lat="48.05216" lon="-3.52037">
        <ele>170.8</ele>
        <time>2025-02-26T09:01:06Z</time>
      </trkpt>
      <trkpt lat="48.05216" lon="-3.52037">
        <ele>170.8</ele>
        <time>2025-02-26T09:01:07Z</time>
      </trkpt>
      <trkpt lat="48.05216" lon="-3.52037">
        <ele>170.8</ele>
        <time>2025-02-26T09:01:08Z</time>
      </trkpt>
      <trkpt lat="48.05216" lon="-3.52037">
        <ele>170.8</ele>
        <time>2025-02-26T09:01:09Z</time>
      </trkpt>
      <trkpt lat="48.05216" lon="-3.52037">
        <ele>170.8</ele>
        <time>2025-02-26T09:01:10Z</time>
      </trkpt>
      <trkpt lat="48.05216" lon="-3.52037">
        <ele>170.8</ele>
        <time>2025-02-26T09:01:11Z</time>
      </trkpt>
      <trkpt lat="48.05216" lon="-3.52037">
        <ele>170.8</ele>
        <time>2025-02-26T09:01:12Z</time>
      </trkpt>
      <trkpt lat="48.05216" lon="-3.52037">
        <ele>170.8</ele>
        <time>2025-02-26T09:01:13Z</time>
      </trkpt>
      <trkpt lat="48.05216" lon="-3.52037">
        <ele>170.8</ele>
        <time>2025-02-26T09:01:14Z</time>
      </trkpt>
      <trkpt lat="48.05216" lon="-3.52037">
        <ele>170.8</ele>
        <time>2025-02-26T09:01:15Z</time>
      </trkpt>
      <trkpt lat="48.05216" lon="-3.52037">
        <ele>170.8</ele>
        <time>2025-02-26T09:01:16Z</time>
      </trkpt>
      <trkpt lat="48.05216" lon="-3.52037">
        <ele>170.8</ele>
        <time>2025-02-26T09:01:17Z</time>
      </trkpt>
      <trkpt lat="48.05216" lon="-3.52037">
        <ele>170.8</ele>
        <time>2025-02-26T09:01:18Z</time>
      </trkpt>
      <trkpt lat="48.05216" lon="-3.52037">
        <ele>170.8</ele>
        <time>2025-02-26T09:01:19Z</time>
      </trkpt>
      <trkpt lat="48.05216" lon="-3.52037">
        <ele>170.8</ele>
        <time>2025-02-26T09:01:20Z</time>
      </trkpt>
      <trkpt lat="48.05216" lon="-3.52037">
        <ele>170.8</ele>
        <time>2025-02-26T09:01:21Z</time>
      </trkpt>
      <trkpt lat="48.05216" lon="-3.52037">
        <ele>170.8</ele>
        <time>2025-02-26T09:01:22Z</time>
      </trkpt>
      <trkpt lat="48.05216" lon="-3.52037">
        <ele>170.8</ele>
        <time>2025-02-26T09:01:23Z</time>
      </trkpt>
      <trkpt lat="48.05216" lon="-3.52037">
        <ele>170.8</ele>
        <time>2025-02-26T09:01:24Z</time>
      </trkpt>
      <trkpt lat="48.05216" lon="-3.52037">
        <ele>170.8</ele>
        <time>2025-02-26T09:01:25Z</time>
      </trkpt>
      <trkpt lat="48.05216" lon="-3.52037">
        <ele>170.8</ele>
        <time>2025-02-26T09:01:26Z</time>
      </trkpt>
      <trkpt lat="48.05216" lon="-3.52037">
        <ele>170.8</ele>
        <time>2025-02-26T09:01:27Z</time>
      </trkpt>
      <trkpt lat="48.05216" lon="-3.52037">
        <ele>170.8</ele>
        <time>2025-02-26T09:01:28Z</time>
      </trkpt>
      <trkpt lat="48.05216" lon="-3.52037">
        <ele>170.8</ele>
        <time>2025-02-26T09:01:29Z</time>
      </trkpt>
      <trkpt lat="48.05216" lon="-3.52037">
        <ele>170.8</ele>
        <time>2025-02-26T09:01:30Z</time>
      </trkpt>
      <trkpt lat="48.05216" lon="-3.52037">
        <ele>170.8</ele>
        <time>2025-02-26T09:01:31Z</time>
      </trkpt>
      <trkpt lat="48.05216" lon="-3.52037">
        <ele>170.8</ele>
        <time>2025-02-26T09:01:32Z</time>
      </trkpt>
      <trkpt lat="48.05216" lon="-3.52037">
        <ele>170.8</ele>
        <time>2025-02-26T09:01:33Z</time>
      </trkpt>
      <trkpt lat="48.05216" lon="-3.52037">
        <ele>170.8</ele>
        <time>2025-02-26T09:01:34Z</time>
      </trkpt>
      <trkpt lat="48.05216" lon="-3.52037">
        <ele>170.9</ele>
        <time>2025-02-26T09:01:35Z</time>
      </trkpt>
      <trkpt lat="48.05216" lon="-3.52038">
        <ele>170.8</ele>
        <time>2025-02-26T09:01:36Z</time>
      </trkpt>
      <trkpt lat="48.05217" lon="-3.52038">
        <ele>170.9</ele>
        <time>2025-02-26T09:01:37Z</time>
      </trkpt>
      <trkpt lat="48.05217" lon="-3.52038">
        <ele>170.9</ele>
        <time>2025-02-26T09:01:38Z</time>
      </trkpt>
      <trkpt lat="48.05217" lon="-3.52038">
        <ele>170.9</ele>
        <time>2025-02-26T09:01:39Z</time>
      </trkpt>
      <trkpt lat="48.05217" lon="-3.52038">
        <ele>170.9</ele>
        <time>2025-02-26T09:01:40Z</time>
      </trkpt>
      <trkpt lat="48.05217" lon="-3.52038">
        <ele>170.9</ele>
        <time>2025-02-26T09:01:41Z</time>
      </trkpt>
      <trkpt lat="48.05217" lon="-3.52038">
        <ele>170.9</ele>
        <time>2025-02-26T09:01:42Z</time>
      </trkpt>
      <trkpt lat="48.05217" lon="-3.52038">
        <ele>170.9</ele>
        <time>2025-02-26T09:01:43Z</time>
      </trkpt>
      <trkpt lat="48.05217" lon="-3.52038">
        <ele>170.9</ele>
        <time>2025-02-26T09:01:44Z</time>
      </trkpt>
      <trkpt lat="48.05217" lon="-3.52038">
        <ele>170.9</ele>
        <time>2025-02-26T09:01:45Z</time>
      </trkpt>
      <trkpt lat="48.05217" lon="-3.52038">
        <ele>170.9</ele>
        <time>2025-02-26T09:01:46Z</time>
      </trkpt>
      <trkpt lat="48.05217" lon="-3.52038">
        <ele>170.9</ele>
        <time>2025-02-26T09:01:47Z</time>
      </trkpt>
      <trkpt lat="48.05217" lon="-3.52038">
        <ele>170.9</ele>
        <time>2025-02-26T09:01:48Z</time>
      </trkpt>
      <trkpt lat="48.05217" lon="-3.52038">
        <ele>170.9</ele>
        <time>2025-02-26T09:01:49Z</time>
      </trkpt>
      <trkpt lat="48.05217" lon="-3.52038">
        <ele>170.9</ele>
        <time>2025-02-26T09:01:50Z</time>
      </trkpt>
      <trkpt lat="48.05217" lon="-3.52038">
        <ele>170.9</ele>
        <time>2025-02-26T09:01:51Z</time>
      </trkpt>
      <trkpt lat="48.05217" lon="-3.52039">
        <ele>170.9</ele>
        <time>2025-02-26T09:01:52Z</time>
      </trkpt>
      <trkpt lat="48.05217" lon="-3.52039">
        <ele>170.9</ele>
        <time>2025-02-26T09:01:53Z</time>
      </trkpt>
      <trkpt lat="48.05217" lon="-3.52039">
        <ele>170.9</ele>
        <time>2025-02-26T09:01:54Z</time>
      </trkpt>
      <trkpt lat="48.05217" lon="-3.52039">
        <ele>170.8</ele>
        <time>2025-02-26T09:01:55Z</time>
      </trkpt>
      <trkpt lat="48.05217" lon="-3.52039">
        <ele>170.8</ele>
        <time>2025-02-26T09:01:56Z</time>
      </trkpt>
      <trkpt lat="48.05217" lon="-3.52039">
        <ele>170.8</ele>
        <time>2025-02-26T09:01:57Z</time>
      </trkpt>
      <trkpt lat="48.05217" lon="-3.52039">
        <ele>170.8</ele>
        <time>2025-02-26T09:01:58Z</time>
      </trkpt>
      <trkpt lat="48.05217" lon="-3.52039">
        <ele>170.8</ele>
        <time>2025-02-26T09:01:59Z</time>
      </trkpt>
      <trkpt lat="48.05217" lon="-3.52039">
        <ele>170.8</ele>
        <time>2025-02-26T09:02:00Z</time>
      </trkpt>
      <trkpt lat="48.05217" lon="-3.52039">
        <ele>170.8</ele>
        <time>2025-02-26T09:02:01Z</time>
      </trkpt>
      <trkpt lat="48.05217" lon="-3.52039">
        <ele>170.8</ele>
        <time>2025-02-26T09:02:02Z</time>
      </trkpt>
      <trkpt lat="48.05217" lon="-3.52039">
        <ele>170.8</ele>
        <time>2025-02-26T09:02:03Z</time>
      </trkpt>
      <trkpt lat="48.05217" lon="-3.52039">
        <ele>170.8</ele>
        <time>2025-02-26T09:02:04Z</time>
      </trkpt>
      <trkpt lat="48.05217" lon="-3.52039">
        <ele>170.8</ele>
        <time>2025-02-26T09:02:05Z</time>
      </trkpt>
      <trkpt lat="48.05217" lon="-3.52039">
        <ele>170.8</ele>
        <time>2025-02-26T09:02:06Z</time>
      </trkpt>
      <trkpt lat="48.05217" lon="-3.52039">
        <ele>170.8</ele>
        <time>2025-02-26T09:02:07Z</time>
      </trkpt>
      <trkpt lat="48.05217" lon="-3.52039">
        <ele>170.8</ele>
        <time>2025-02-26T09:02:08Z</time>
      </trkpt>
      <trkpt lat="48.05217" lon="-3.52039">
        <ele>170.8</ele>
        <time>2025-02-26T09:02:09Z</time>
      </trkpt>
      <trkpt lat="48.05217" lon="-3.52039">
        <ele>170.8</ele>
        <time>2025-02-26T09:02:10Z</time>
      </trkpt>
      <trkpt lat="48.05217" lon="-3.52039">
        <ele>170.8</ele>
        <time>2025-02-26T09:02:11Z</time>
      </trkpt>
      <trkpt lat="48.05217" lon="-3.52039">
        <ele>170.8</ele>
        <time>2025-02-26T09:02:12Z</time>
      </trkpt>
      <trkpt lat="48.05217" lon="-3.52039">
        <ele>170.8</ele>
        <time>2025-02-26T09:02:13Z</time>
      </trkpt>
      <trkpt lat="48.05217" lon="-3.52039">
        <ele>170.8</ele>
        <time>2025-02-26T09:02:14Z</time>
      </trkpt>
      <trkpt lat="48.05217" lon="-3.52039">
        <ele>170.8</ele>
        <time>2025-02-26T09:02:15Z</time>
      </trkpt>
      <trkpt lat="48.05217" lon="-3.52039">
        <ele>170.8</ele>
        <time>2025-02-26T09:02:16Z</time>
      </trkpt>
      <trkpt lat="48.05217" lon="-3.52039">
        <ele>170.8</ele>
        <time>2025-02-26T09:02:17Z</time>
      </trkpt>
      <trkpt lat="48.05217" lon="-3.52039">
        <ele>170.8</ele>
        <time>2025-02-26T09:02:18Z</time>
      </trkpt>
      <trkpt lat="48.05217" lon="-3.52038">
        <ele>170.8</ele>
        <time>2025-02-26T09:02:19Z</time>
      </trkpt>
      <trkpt lat="48.05216" lon="-3.52038">
        <ele>170.8</ele>
        <time>2025-02-26T09:02:20Z</time>
      </trkpt>
      <trkpt lat="48.05216" lon="-3.52038">
        <ele>170.8</ele>
        <time>2025-02-26T09:02:21Z</time>
      </trkpt>
      <trkpt lat="48.05216" lon="-3.52038">
        <ele>170.8</ele>
        <time>2025-02-26T09:02:22Z</time>
      </trkpt>
      <trkpt lat="48.05216" lon="-3.52038">
        <ele>170.8</ele>
        <time>2025-02-26T09:02:23Z</time>
      </trkpt>
      <trkpt lat="48.05216" lon="-3.52038">
        <ele>170.8</ele>
        <time>2025-02-26T09:02:24Z</time>
      </trkpt>
      <trkpt lat="48.05216" lon="-3.52038">
        <ele>170.8</ele>
        <time>2025-02-26T09:02:25Z</time>
      </trkpt>
      <trkpt lat="48.05216" lon="-3.52038">
        <ele>170.8</ele>
        <time>2025-02-26T09:02:26Z</time>
      </trkpt>
      <trkpt lat="48.05216" lon="-3.52038">
        <ele>170.8</ele>
        <time>2025-02-26T09:02:27Z</time>
      </trkpt>
      <trkpt lat="48.05216" lon="-3.52038">
        <ele>170.8</ele>
        <time>2025-02-26T09:02:28Z</time>
      </trkpt>
      <trkpt lat="48.05216" lon="-3.52038">
        <ele>170.8</ele>
        <time>2025-02-26T09:02:29Z</time>
      </trkpt>
      <trkpt lat="48.05216" lon="-3.52038">
        <ele>170.8</ele>
        <time>2025-02-26T09:02:30Z</time>
      </trkpt>
      <trkpt lat="48.05216" lon="-3.52038">
        <ele>170.8</ele>
        <time>2025-02-26T09:02:31Z</time>
      </trkpt>
      <trkpt lat="48.05216" lon="-3.52038">
        <ele>170.8</ele>
        <time>2025-02-26T09:02:32Z</time>
      </trkpt>
      <trkpt lat="48.05216" lon="-3.52039">
        <ele>170.8</ele>
        <time>2025-02-26T09:02:33Z</time>
      </trkpt>
      <trkpt lat="48.05216" lon="-3.52038">
        <ele>170.8</ele>
        <time>2025-02-26T09:02:34Z</time>
      </trkpt>
      <trkpt lat="48.05216" lon="-3.52038">
        <ele>170.8</ele>
        <time>2025-02-26T09:02:35Z</time>
      </trkpt>
      <trkpt lat="48.05215" lon="-3.52039">
        <ele>170.7</ele>
        <time>2025-02-26T09:02:36Z</time>
      </trkpt>
      <trkpt lat="48.05215" lon="-3.52041">
        <ele>170.6</ele>
        <time>2025-02-26T09:02:37Z</time>
      </trkpt>
      <trkpt lat="48.05215" lon="-3.52043">
        <ele>170.4</ele>
        <time>2025-02-26T09:02:38Z</time>
      </trkpt>
      <trkpt lat="48.05214" lon="-3.52045">
        <ele>170.2</ele>
        <time>2025-02-26T09:02:39Z</time>
      </trkpt>
      <trkpt lat="48.05214" lon="-3.52047">
        <ele>170.1</ele>
        <time>2025-02-26T09:02:40Z</time>
      </trkpt>
      <trkpt lat="48.05214" lon="-3.52048">
        <ele>169.9</ele>
        <time>2025-02-26T09:02:41Z</time>
      </trkpt>
      <trkpt lat="48.05214" lon="-3.5205">
        <ele>169.8</ele>
        <time>2025-02-26T09:02:42Z</time>
      </trkpt>
      <trkpt lat="48.05213" lon="-3.52052">
        <ele>169.6</ele>
        <time>2025-02-26T09:02:43Z</time>
      </trkpt>
      <trkpt lat="48.05212" lon="-3.52053">
        <ele>169.5</ele>
        <time>2025-02-26T09:02:44Z</time>
      </trkpt>
      <trkpt lat="48.05212" lon="-3.52054">
        <ele>169.4</ele>
        <time>2025-02-26T09:02:45Z</time>
      </trkpt>
      <trkpt lat="48.05211" lon="-3.52055">
        <ele>169.2</ele>
        <time>2025-02-26T09:02:46Z</time>
      </trkpt>
      <trkpt lat="48.0521" lon="-3.52056">
        <ele>169.1</ele>
        <time>2025-02-26T09:02:47Z</time>
      </trkpt>
      <trkpt lat="48.0521" lon="-3.52057">
        <ele>169.1</ele>
        <time>2025-02-26T09:02:48Z</time>
      </trkpt>
      <trkpt lat="48.05209" lon="-3.52058">
        <ele>169</ele>
        <time>2025-02-26T09:02:49Z</time>
      </trkpt>
      <trkpt lat="48.05209" lon="-3.52059">
        <ele>168.9</ele>
        <time>2025-02-26T09:02:50Z</time>
      </trkpt>
      <trkpt lat="48.05208" lon="-3.5206">
        <ele>168.9</ele>
        <time>2025-02-26T09:02:51Z</time>
      </trkpt>
      <trkpt lat="48.05208" lon="-3.52061">
        <ele>168.9</ele>
        <time>2025-02-26T09:02:52Z</time>
      </trkpt>
      <trkpt lat="48.05207" lon="-3.52062">
        <ele>168.8</ele>
        <time>2025-02-26T09:02:53Z</time>
      </trkpt>
      <trkpt lat="48.05206" lon="-3.52063">
        <ele>168.7</ele>
        <time>2025-02-26T09:02:54Z</time>
      </trkpt>
      <trkpt lat="48.05206" lon="-3.52065">
        <ele>168.6</ele>
        <time>2025-02-26T09:02:55Z</time>
      </trkpt>
      <trkpt lat="48.05206" lon="-3.52067">
        <ele>168.6</ele>
        <time>2025-02-26T09:02:56Z</time>
      </trkpt>
      <trkpt lat="48.05205" lon="-3.52069">
        <ele>168.5</ele>
        <time>2025-02-26T09:02:57Z</time>
      </trkpt>
      <trkpt lat="48.05204" lon="-3.5207">
        <ele>168.3</ele>
        <time>2025-02-26T09:02:58Z</time>
      </trkpt>
      <trkpt lat="48.05203" lon="-3.52071">
        <ele>168.3</ele>
        <time>2025-02-26T09:02:59Z</time>
      </trkpt>
      <trkpt lat="48.05203" lon="-3.52073">
        <ele>168.2</ele>
        <time>2025-02-26T09:03:00Z</time>
      </trkpt>
      <trkpt lat="48.05202" lon="-3.52074">
        <ele>168.1</ele>
        <time>2025-02-26T09:03:01Z</time>
      </trkpt>
      <trkpt lat="48.05202" lon="-3.52075">
        <ele>168</ele>
        <time>2025-02-26T09:03:02Z</time>
      </trkpt>
      <trkpt lat="48.05201" lon="-3.52077">
        <ele>167.9</ele>
        <time>2025-02-26T09:03:03Z</time>
      </trkpt>
      <trkpt lat="48.05201" lon="-3.52079">
        <ele>167.8</ele>
        <time>2025-02-26T09:03:04Z</time>
      </trkpt>
      <trkpt lat="48.052" lon="-3.5208">
        <ele>167.7</ele>
        <time>2025-02-26T09:03:05Z</time>
      </trkpt>
      <trkpt lat="48.052" lon="-3.52082">
        <ele>167.6</ele>
        <time>2025-02-26T09:03:06Z</time>
      </trkpt>
      <trkpt lat="48.052" lon="-3.52083">
        <ele>167.5</ele>
        <time>2025-02-26T09:03:07Z</time>
      </trkpt>
      <trkpt lat="48.05199" lon="-3.52085">
        <ele>167.5</ele>
        <time>2025-02-26T09:03:08Z</time>
      </trkpt>
      <trkpt lat="48.05199" lon="-3.52087">
        <ele>167.5</ele>
        <time>2025-02-26T09:03:09Z</time>
      </trkpt>
      <trkpt lat="48.05199" lon="-3.52089">
        <ele>167.5</ele>
        <time>2025-02-26T09:03:10Z</time>
      </trkpt>
      <trkpt lat="48.05198" lon="-3.5209">
        <ele>167.4</ele>
        <time>2025-02-26T09:03:11Z</time>
      </trkpt>
      <trkpt lat="48.05198" lon="-3.52092">
        <ele>167.3</ele>
        <time>2025-02-26T09:03:12Z</time>
      </trkpt>
      <trkpt lat="48.05197" lon="-3.52093">
        <ele>167.3</ele>
        <time>2025-02-26T09:03:13Z</time>
      </trkpt>
      <trkpt lat="48.05196" lon="-3.52095">
        <ele>167.2</ele>
        <time>2025-02-26T09:03:14Z</time>
      </trkpt>
      <trkpt lat="48.05196" lon="-3.52097">
        <ele>167.2</ele>
        <time>2025-02-26T09:03:15Z</time>
      </trkpt>
      <trkpt lat="48.05196" lon="-3.52099">
        <ele>167.2</ele>
        <time>2025-02-26T09:03:16Z</time>
      </trkpt>
      <trkpt lat="48.05196" lon="-3.52101">
        <ele>167.1</ele>
        <time>2025-02-26T09:03:17Z</time>
      </trkpt>
      <trkpt lat="48.05195" lon="-3.52103">
        <ele>167.1</ele>
        <time>2025-02-26T09:03:18Z</time>
      </trkpt>
      <trkpt lat="48.05195" lon="-3.52105">
        <ele>167.1</ele>
        <time>2025-02-26T09:03:19Z</time>
      </trkpt>
      <trkpt lat="48.05195" lon="-3.52106">
        <ele>167</ele>
        <time>2025-02-26T09:03:20Z</time>
      </trkpt>
      <trkpt lat="48.05194" lon="-3.52108">
        <ele>166.9</ele>
        <time>2025-02-26T09:03:21Z</time>
      </trkpt>
      <trkpt lat="48.05193" lon="-3.5211">
        <ele>166.8</ele>
        <time>2025-02-26T09:03:22Z</time>
      </trkpt>
      <trkpt lat="48.05193" lon="-3.52112">
        <ele>166.8</ele>
        <time>2025-02-26T09:03:23Z</time>
      </trkpt>
      <trkpt lat="48.05192" lon="-3.52113">
        <ele>166.7</ele>
        <time>2025-02-26T09:03:24Z</time>
      </trkpt>
      <trkpt lat="48.05191" lon="-3.52115">
        <ele>166.6</ele>
        <time>2025-02-26T09:03:25Z</time>
      </trkpt>
      <trkpt lat="48.05191" lon="-3.52117">
        <ele>166.5</ele>
        <time>2025-02-26T09:03:26Z</time>
      </trkpt>
      <trkpt lat="48.05191" lon="-3.52119">
        <ele>166.5</ele>
        <time>2025-02-26T09:03:27Z</time>
      </trkpt>
      <trkpt lat="48.0519" lon="-3.5212">
        <ele>166.4</ele>
        <time>2025-02-26T09:03:28Z</time>
      </trkpt>
      <trkpt lat="48.05189" lon="-3.52121">
        <ele>166.3</ele>
        <time>2025-02-26T09:03:29Z</time>
      </trkpt>
      <trkpt lat="48.05189" lon="-3.52123">
        <ele>166.3</ele>
        <time>2025-02-26T09:03:30Z</time>
      </trkpt>
      <trkpt lat="48.05188" lon="-3.52124">
        <ele>166.2</ele>
        <time>2025-02-26T09:03:31Z</time>
      </trkpt>
      <trkpt lat="48.05188" lon="-3.52126">
        <ele>166.2</ele>
        <time>2025-02-26T09:03:32Z</time>
      </trkpt>
      <trkpt lat="48.05188" lon="-3.52128">
        <ele>166.2</ele>
        <time>2025-02-26T09:03:33Z</time>
      </trkpt>
      <trkpt lat="48.05188" lon="-3.52129">
        <ele>166.2</ele>
        <time>2025-02-26T09:03:34Z</time>
      </trkpt>
      <trkpt lat="48.05187" lon="-3.52131">
        <ele>166.1</ele>
        <time>2025-02-26T09:03:35Z</time>
      </trkpt>
      <trkpt lat="48.05187" lon="-3.52133">
        <ele>166.1</ele>
        <time>2025-02-26T09:03:36Z</time>
      </trkpt>
      <trkpt lat="48.05186" lon="-3.52134">
        <ele>166.1</ele>
        <time>2025-02-26T09:03:37Z</time>
      </trkpt>
      <trkpt lat="48.05185" lon="-3.52136">
        <ele>166</ele>
        <time>2025-02-26T09:03:38Z</time>
      </trkpt>
      <trkpt lat="48.05185" lon="-3.52138">
        <ele>165.9</ele>
        <time>2025-02-26T09:03:39Z</time>
      </trkpt>
      <trkpt lat="48.05184" lon="-3.52139">
        <ele>165.9</ele>
        <time>2025-02-26T09:03:40Z</time>
      </trkpt>
      <trkpt lat="48.05184" lon="-3.52141">
        <ele>165.9</ele>
        <time>2025-02-26T09:03:41Z</time>
      </trkpt>
      <trkpt lat="48.05184" lon="-3.52143">
        <ele>165.9</ele>
        <time>2025-02-26T09:03:42Z</time>
      </trkpt>
      <trkpt lat="48.05183" lon="-3.52144">
        <ele>165.9</ele>
        <time>2025-02-26T09:03:43Z</time>
      </trkpt>
      <trkpt lat="48.05183" lon="-3.52146">
        <ele>165.9</ele>
        <time>2025-02-26T09:03:44Z</time>
      </trkpt>
      <trkpt lat="48.05183" lon="-3.52148">
        <ele>165.9</ele>
        <time>2025-02-26T09:03:45Z</time>
      </trkpt>
      <trkpt lat="48.05182" lon="-3.52149">
        <ele>165.8</ele>
        <time>2025-02-26T09:03:46Z</time>
      </trkpt>
      <trkpt lat="48.05182" lon="-3.52151">
        <ele>165.8</ele>
        <time>2025-02-26T09:03:47Z</time>
      </trkpt>
      <trkpt lat="48.05182" lon="-3.52152">
        <ele>165.8</ele>
        <time>2025-02-26T09:03:48Z</time>
      </trkpt>
      <trkpt lat="48.05181" lon="-3.52154">
        <ele>165.8</ele>
        <time>2025-02-26T09:03:49Z</time>
      </trkpt>
      <trkpt lat="48.05182" lon="-3.52156">
        <ele>165.9</ele>
        <time>2025-02-26T09:03:50Z</time>
      </trkpt>
      <trkpt lat="48.05181" lon="-3.52158">
        <ele>165.8</ele>
        <time>2025-02-26T09:03:51Z</time>
      </trkpt>
      <trkpt lat="48.0518" lon="-3.5216">
        <ele>165.8</ele>
        <time>2025-02-26T09:03:52Z</time>
      </trkpt>
      <trkpt lat="48.05179" lon="-3.52161">
        <ele>165.8</ele>
        <time>2025-02-26T09:03:53Z</time>
      </trkpt>
      <trkpt lat="48.05179" lon="-3.52163">
        <ele>165.8</ele>
        <time>2025-02-26T09:03:54Z</time>
      </trkpt>
      <trkpt lat="48.05179" lon="-3.52164">
        <ele>165.8</ele>
        <time>2025-02-26T09:03:55Z</time>
      </trkpt>
      <trkpt lat="48.05179" lon="-3.52166">
        <ele>165.8</ele>
        <time>2025-02-26T09:03:56Z</time>
      </trkpt>
      <trkpt lat="48.05178" lon="-3.52167">
        <ele>165.8</ele>
        <time>2025-02-26T09:03:57Z</time>
      </trkpt>
      <trkpt lat="48.05178" lon="-3.52169">
        <ele>165.8</ele>
        <time>2025-02-26T09:03:58Z</time>
      </trkpt>
      <trkpt lat="48.05178" lon="-3.52171">
        <ele>165.8</ele>
        <time>2025-02-26T09:03:59Z</time>
      </trkpt>
      <trkpt lat="48.05177" lon="-3.52172">
        <ele>165.8</ele>
        <time>2025-02-26T09:04:00Z</time>
      </trkpt>
      <trkpt lat="48.05177" lon="-3.52174">
        <ele>165.7</ele>
        <time>2025-02-26T09:04:01Z</time>
      </trkpt>
      <trkpt lat="48.05176" lon="-3.52175">
        <ele>165.7</ele>
        <time>2025-02-26T09:04:02Z</time>
      </trkpt>
      <trkpt lat="48.05176" lon="-3.52176">
        <ele>165.6</ele>
        <time>2025-02-26T09:04:03Z</time>
      </trkpt>
      <trkpt lat="48.05175" lon="-3.52178">
        <ele>165.6</ele>
        <time>2025-02-26T09:04:04Z</time>
      </trkpt>
      <trkpt lat="48.05175" lon="-3.5218">
        <ele>165.6</ele>
        <time>2025-02-26T09:04:05Z</time>
      </trkpt>
      <trkpt lat="48.05174" lon="-3.52181">
        <ele>165.5</ele>
        <time>2025-02-26T09:04:06Z</time>
      </trkpt>
      <trkpt lat="48.05174" lon="-3.52183">
        <ele>165.5</ele>
        <time>2025-02-26T09:04:07Z</time>
      </trkpt>
      <trkpt lat="48.05174" lon="-3.52184">
        <ele>165.5</ele>
        <time>2025-02-26T09:04:08Z</time>
      </trkpt>
      <trkpt lat="48.05173" lon="-3.52186">
        <ele>165.5</ele>
        <time>2025-02-26T09:04:09Z</time>
      </trkpt>
      <trkpt lat="48.05173" lon="-3.52188">
        <ele>165.4</ele>
        <time>2025-02-26T09:04:10Z</time>
      </trkpt>
      <trkpt lat="48.05173" lon="-3.52189">
        <ele>165.4</ele>
        <time>2025-02-26T09:04:11Z</time>
      </trkpt>
      <trkpt lat="48.05172" lon="-3.52191">
        <ele>165.4</ele>
        <time>2025-02-26T09:04:12Z</time>
      </trkpt>
      <trkpt lat="48.05172" lon="-3.52193">
        <ele>165.3</ele>
        <time>2025-02-26T09:04:13Z</time>
      </trkpt>
      <trkpt lat="48.05171" lon="-3.52194">
        <ele>165.3</ele>
        <time>2025-02-26T09:04:14Z</time>
      </trkpt>
      <trkpt lat="48.05171" lon="-3.52196">
        <ele>165.3</ele>
        <time>2025-02-26T09:04:15Z</time>
      </trkpt>
      <trkpt lat="48.0517" lon="-3.52198">
        <ele>165.2</ele>
        <time>2025-02-26T09:04:16Z</time>
      </trkpt>
      <trkpt lat="48.05169" lon="-3.52199">
        <ele>165.2</ele>
        <time>2025-02-26T09:04:17Z</time>
      </trkpt>
      <trkpt lat="48.05169" lon="-3.52201">
        <ele>165.1</ele>
        <time>2025-02-26T09:04:18Z</time>
      </trkpt>
      <trkpt lat="48.05168" lon="-3.52203">
        <ele>165.1</ele>
        <time>2025-02-26T09:04:19Z</time>
      </trkpt>
      <trkpt lat="48.05168" lon="-3.52205">
        <ele>165.1</ele>
        <time>2025-02-26T09:04:20Z</time>
      </trkpt>
      <trkpt lat="48.05168" lon="-3.52206">
        <ele>165</ele>
        <time>2025-02-26T09:04:21Z</time>
      </trkpt>
      <trkpt lat="48.05167" lon="-3.52208">
        <ele>165</ele>
        <time>2025-02-26T09:04:22Z</time>
      </trkpt>
      <trkpt lat="48.05167" lon="-3.5221">
        <ele>165</ele>
        <time>2025-02-26T09:04:23Z</time>
      </trkpt>
      <trkpt lat="48.05166" lon="-3.52211">
        <ele>165</ele>
        <time>2025-02-26T09:04:24Z</time>
      </trkpt>
      <trkpt lat="48.05166" lon="-3.52212">
        <ele>164.9</ele>
        <time>2025-02-26T09:04:25Z</time>
      </trkpt>
      <trkpt lat="48.05165" lon="-3.52213">
        <ele>164.9</ele>
        <time>2025-02-26T09:04:26Z</time>
      </trkpt>
      <trkpt lat="48.05164" lon="-3.52214">
        <ele>164.9</ele>
        <time>2025-02-26T09:04:27Z</time>
      </trkpt>
      <trkpt lat="48.05163" lon="-3.52215">
        <ele>164.8</ele>
        <time>2025-02-26T09:04:28Z</time>
      </trkpt>
      <trkpt lat="48.05162" lon="-3.52216">
        <ele>164.8</ele>
        <time>2025-02-26T09:04:29Z</time>
      </trkpt>
      <trkpt lat="48.05162" lon="-3.52218">
        <ele>164.8</ele>
        <time>2025-02-26T09:04:30Z</time>
      </trkpt>
      <trkpt lat="48.05161" lon="-3.52219">
        <ele>164.8</ele>
        <time>2025-02-26T09:04:31Z</time>
      </trkpt>
      <trkpt lat="48.05161" lon="-3.52221">
        <ele>164.8</ele>
        <time>2025-02-26T09:04:32Z</time>
      </trkpt>
      <trkpt lat="48.05161" lon="-3.52223">
        <ele>164.8</ele>
        <time>2025-02-26T09:04:33Z</time>
      </trkpt>
      <trkpt lat="48.05161" lon="-3.52225">
        <ele>164.8</ele>
        <time>2025-02-26T09:04:34Z</time>
      </trkpt>
      <trkpt lat="48.05161" lon="-3.52226">
        <ele>164.8</ele>
        <time>2025-02-26T09:04:35Z</time>
      </trkpt>
      <trkpt lat="48.0516" lon="-3.52228">
        <ele>164.8</ele>
        <time>2025-02-26T09:04:36Z</time>
      </trkpt>
      <trkpt lat="48.05159" lon="-3.52229">
        <ele>164.7</ele>
        <time>2025-02-26T09:04:37Z</time>
      </trkpt>
      <trkpt lat="48.05159" lon="-3.52231">
        <ele>164.7</ele>
        <time>2025-02-26T09:04:38Z</time>
      </trkpt>
      <trkpt lat="48.05159" lon="-3.52233">
        <ele>164.7</ele>
        <time>2025-02-26T09:04:39Z</time>
      </trkpt>
      <trkpt lat="48.05158" lon="-3.52234">
        <ele>164.7</ele>
        <time>2025-02-26T09:04:40Z</time>
      </trkpt>
      <trkpt lat="48.05158" lon="-3.52236">
        <ele>164.7</ele>
        <time>2025-02-26T09:04:41Z</time>
      </trkpt>
      <trkpt lat="48.05157" lon="-3.52237">
        <ele>164.7</ele>
        <time>2025-02-26T09:04:42Z</time>
      </trkpt>
      <trkpt lat="48.05157" lon="-3.52239">
        <ele>164.6</ele>
        <time>2025-02-26T09:04:43Z</time>
      </trkpt>
      <trkpt lat="48.05156" lon="-3.5224">
        <ele>164.6</ele>
        <time>2025-02-26T09:04:44Z</time>
      </trkpt>
      <trkpt lat="48.05156" lon="-3.52242">
        <ele>164.6</ele>
        <time>2025-02-26T09:04:45Z</time>
      </trkpt>
      <trkpt lat="48.05155" lon="-3.52243">
        <ele>164.6</ele>
        <time>2025-02-26T09:04:46Z</time>
      </trkpt>
      <trkpt lat="48.05155" lon="-3.52245">
        <ele>164.6</ele>
        <time>2025-02-26T09:04:47Z</time>
      </trkpt>
      <trkpt lat="48.05155" lon="-3.52247">
        <ele>164.6</ele>
        <time>2025-02-26T09:04:48Z</time>
      </trkpt>
      <trkpt lat="48.05155" lon="-3.52249">
        <ele>164.6</ele>
        <time>2025-02-26T09:04:49Z</time>
      </trkpt>
      <trkpt lat="48.05154" lon="-3.5225">
        <ele>164.6</ele>
        <time>2025-02-26T09:04:50Z</time>
      </trkpt>
      <trkpt lat="48.05154" lon="-3.52252">
        <ele>164.6</ele>
        <time>2025-02-26T09:04:51Z</time>
      </trkpt>
      <trkpt lat="48.05153" lon="-3.52254">
        <ele>164.6</ele>
        <time>2025-02-26T09:04:52Z</time>
      </trkpt>
      <trkpt lat="48.05153" lon="-3.52256">
        <ele>164.6</ele>
        <time>2025-02-26T09:04:53Z</time>
      </trkpt>
      <trkpt lat="48.05151" lon="-3.52258">
        <ele>164.6</ele>
        <time>2025-02-26T09:04:54Z</time>
      </trkpt>
      <trkpt lat="48.0515" lon="-3.5226">
        <ele>164.6</ele>
        <time>2025-02-26T09:04:55Z</time>
      </trkpt>
      <trkpt lat="48.05149" lon="-3.52261">
        <ele>164.6</ele>
        <time>2025-02-26T09:04:56Z</time>
      </trkpt>
      <trkpt lat="48.05148" lon="-3.52262">
        <ele>164.6</ele>
        <time>2025-02-26T09:04:57Z</time>
      </trkpt>
      <trkpt lat="48.05148" lon="-3.52264">
        <ele>164.7</ele>
        <time>2025-02-26T09:04:58Z</time>
      </trkpt>
      <trkpt lat="48.05147" lon="-3.52265">
        <ele>164.7</ele>
        <time>2025-02-26T09:04:59Z</time>
      </trkpt>
      <trkpt lat="48.05147" lon="-3.52267">
        <ele>164.7</ele>
        <time>2025-02-26T09:05:00Z</time>
      </trkpt>
      <trkpt lat="48.05147" lon="-3.52269">
        <ele>164.8</ele>
        <time>2025-02-26T09:05:01Z</time>
      </trkpt>
      <trkpt lat="48.05148" lon="-3.52271">
        <ele>164.8</ele>
        <time>2025-02-26T09:05:02Z</time>
      </trkpt>
      <trkpt lat="48.05149" lon="-3.52273">
        <ele>164.9</ele>
        <time>2025-02-26T09:05:03Z</time>
      </trkpt>
      <trkpt lat="48.05151" lon="-3.52275">
        <ele>164.9</ele>
        <time>2025-02-26T09:05:04Z</time>
      </trkpt>
      <trkpt lat="48.05151" lon="-3.52277">
        <ele>165</ele>
        <time>2025-02-26T09:05:05Z</time>
      </trkpt>
      <trkpt lat="48.05152" lon="-3.52278">
        <ele>165</ele>
        <time>2025-02-26T09:05:06Z</time>
      </trkpt>
      <trkpt lat="48.05153" lon="-3.5228">
        <ele>165</ele>
        <time>2025-02-26T09:05:07Z</time>
      </trkpt>
      <trkpt lat="48.05154" lon="-3.52281">
        <ele>164.9</ele>
        <time>2025-02-26T09:05:08Z</time>
      </trkpt>
      <trkpt lat="48.05155" lon="-3.52282">
        <ele>164.9</ele>
        <time>2025-02-26T09:05:09Z</time>
      </trkpt>
      <trkpt lat="48.05156" lon="-3.52282">
        <ele>164.9</ele>
        <time>2025-02-26T09:05:10Z</time>
      </trkpt>
      <trkpt lat="48.05157" lon="-3.52282">
        <ele>164.9</ele>
        <time>2025-02-26T09:05:11Z</time>
      </trkpt>
      <trkpt lat="48.05158" lon="-3.52283">
        <ele>164.9</ele>
        <time>2025-02-26T09:05:12Z</time>
      </trkpt>
      <trkpt lat="48.05159" lon="-3.52284">
        <ele>164.8</ele>
        <time>2025-02-26T09:05:13Z</time>
      </trkpt>
      <trkpt lat="48.05161" lon="-3.52285">
        <ele>164.8</ele>
        <time>2025-02-26T09:05:14Z</time>
      </trkpt>
      <trkpt lat="48.05162" lon="-3.52286">
        <ele>164.8</ele>
        <time>2025-02-26T09:05:15Z</time>
      </trkpt>
      <trkpt lat="48.05163" lon="-3.52287">
        <ele>164.7</ele>
        <time>2025-02-26T09:05:16Z</time>
      </trkpt>
      <trkpt lat="48.05163" lon="-3.52289">
        <ele>164.7</ele>
        <time>2025-02-26T09:05:17Z</time>
      </trkpt>
      <trkpt lat="48.05164" lon="-3.5229">
        <ele>164.6</ele>
        <time>2025-02-26T09:05:18Z</time>
      </trkpt>
      <trkpt lat="48.05165" lon="-3.52291">
        <ele>164.6</ele>
        <time>2025-02-26T09:05:19Z</time>
      </trkpt>
      <trkpt lat="48.05166" lon="-3.52291">
        <ele>164.5</ele>
        <time>2025-02-26T09:05:20Z</time>
      </trkpt>
      <trkpt lat="48.05168" lon="-3.52292">
        <ele>164.4</ele>
        <time>2025-02-26T09:05:21Z</time>
      </trkpt>
      <trkpt lat="48.05169" lon="-3.52294">
        <ele>164.4</ele>
        <time>2025-02-26T09:05:22Z</time>
      </trkpt>
      <trkpt lat="48.0517" lon="-3.52295">
        <ele>164.3</ele>
        <time>2025-02-26T09:05:23Z</time>
      </trkpt>
      <trkpt lat="48.05171" lon="-3.52296">
        <ele>164.2</ele>
        <time>2025-02-26T09:05:24Z</time>
      </trkpt>
      <trkpt lat="48.05172" lon="-3.52297">
        <ele>164.1</ele>
        <time>2025-02-26T09:05:25Z</time>
      </trkpt>
      <trkpt lat="48.05172" lon="-3.52298">
        <ele>164.1</ele>
        <time>2025-02-26T09:05:26Z</time>
      </trkpt>
      <trkpt lat="48.05173" lon="-3.52299">
        <ele>164</ele>
        <time>2025-02-26T09:05:27Z</time>
      </trkpt>
      <trkpt lat="48.05174" lon="-3.523">
        <ele>163.9</ele>
        <time>2025-02-26T09:05:28Z</time>
      </trkpt>
      <trkpt lat="48.05175" lon="-3.52301">
        <ele>163.9</ele>
        <time>2025-02-26T09:05:29Z</time>
      </trkpt>
      <trkpt lat="48.05176" lon="-3.52302">
        <ele>163.8</ele>
        <time>2025-02-26T09:05:30Z</time>
      </trkpt>
      <trkpt lat="48.05177" lon="-3.52303">
        <ele>163.7</ele>
        <time>2025-02-26T09:05:31Z</time>
      </trkpt>
      <trkpt lat="48.05178" lon="-3.52304">
        <ele>163.6</ele>
        <time>2025-02-26T09:05:32Z</time>
      </trkpt>
      <trkpt lat="48.05179" lon="-3.52305">
        <ele>163.6</ele>
        <time>2025-02-26T09:05:33Z</time>
      </trkpt>
      <trkpt lat="48.05181" lon="-3.52305">
        <ele>163.5</ele>
        <time>2025-02-26T09:05:34Z</time>
      </trkpt>
      <trkpt lat="48.05182" lon="-3.52305">
        <ele>163.5</ele>
        <time>2025-02-26T09:05:35Z</time>
      </trkpt>
      <trkpt lat="48.05183" lon="-3.52306">
        <ele>163.4</ele>
        <time>2025-02-26T09:05:36Z</time>
      </trkpt>
      <trkpt lat="48.05184" lon="-3.52306">
        <ele>163.3</ele>
        <time>2025-02-26T09:05:37Z</time>
      </trkpt>
      <trkpt lat="48.05185" lon="-3.52307">
        <ele>163.2</ele>
        <time>2025-02-26T09:05:38Z</time>
      </trkpt>
      <trkpt lat="48.05187" lon="-3.52308">
        <ele>163.1</ele>
        <time>2025-02-26T09:05:39Z</time>
      </trkpt>
      <trkpt lat="48.05187" lon="-3.5231">
        <ele>163</ele>
        <time>2025-02-26T09:05:40Z</time>
      </trkpt>
      <trkpt lat="48.05189" lon="-3.52311">
        <ele>162.9</ele>
        <time>2025-02-26T09:05:41Z</time>
      </trkpt>
      <trkpt lat="48.0519" lon="-3.52312">
        <ele>162.8</ele>
        <time>2025-02-26T09:05:42Z</time>
      </trkpt>
      <trkpt lat="48.05191" lon="-3.52312">
        <ele>162.7</ele>
        <time>2025-02-26T09:05:43Z</time>
      </trkpt>
      <trkpt lat="48.05192" lon="-3.52314">
        <ele>162.5</ele>
        <time>2025-02-26T09:05:44Z</time>
      </trkpt>
      <trkpt lat="48.05193" lon="-3.52315">
        <ele>162.4</ele>
        <time>2025-02-26T09:05:45Z</time>
      </trkpt>
      <trkpt lat="48.05194" lon="-3.52316">
        <ele>162.3</ele>
        <time>2025-02-26T09:05:46Z</time>
      </trkpt>
      <trkpt lat="48.05195" lon="-3.52316">
        <ele>162.3</ele>
        <time>2025-02-26T09:05:47Z</time>
      </trkpt>
      <trkpt lat="48.05196" lon="-3.52317">
        <ele>162.3</ele>
        <time>2025-02-26T09:05:48Z</time>
      </trkpt>
      <trkpt lat="48.05197" lon="-3.52318">
        <ele>162.2</ele>
        <time>2025-02-26T09:05:49Z</time>
      </trkpt>
      <trkpt lat="48.05198" lon="-3.52319">
        <ele>162.3</ele>
        <time>2025-02-26T09:05:50Z</time>
      </trkpt>
      <trkpt lat="48.05199" lon="-3.52319">
        <ele>162.3</ele>
        <time>2025-02-26T09:05:51Z</time>
      </trkpt>
      <trkpt lat="48.052" lon="-3.52321">
        <ele>162.2</ele>
        <time>2025-02-26T09:05:52Z</time>
      </trkpt>
      <trkpt lat="48.05201" lon="-3.52322">
        <ele>162.2</ele>
        <time>2025-02-26T09:05:53Z</time>
      </trkpt>
      <trkpt lat="48.05202" lon="-3.52323">
        <ele>162.2</ele>
        <time>2025-02-26T09:05:54Z</time>
      </trkpt>
      <trkpt lat="48.05202" lon="-3.52324">
        <ele>162.2</ele>
        <time>2025-02-26T09:05:55Z</time>
      </trkpt>
      <trkpt lat="48.05203" lon="-3.52326">
        <ele>162.2</ele>
        <time>2025-02-26T09:05:56Z</time>
      </trkpt>
      <trkpt lat="48.05204" lon="-3.52327">
        <ele>162.2</ele>
        <time>2025-02-26T09:05:57Z</time>
      </trkpt>
      <trkpt lat="48.05204" lon="-3.52327">
        <ele>162.3</ele>
        <time>2025-02-26T09:05:58Z</time>
      </trkpt>
      <trkpt lat="48.05205" lon="-3.52328">
        <ele>162.3</ele>
        <time>2025-02-26T09:05:59Z</time>
      </trkpt>
      <trkpt lat="48.05206" lon="-3.52329">
        <ele>162.3</ele>
        <time>2025-02-26T09:06:00Z</time>
      </trkpt>
      <trkpt lat="48.05206" lon="-3.52329">
        <ele>162.4</ele>
        <time>2025-02-26T09:06:01Z</time>
      </trkpt>
      <trkpt lat="48.05207" lon="-3.52331">
        <ele>162.4</ele>
        <time>2025-02-26T09:06:02Z</time>
      </trkpt>
      <trkpt lat="48.05207" lon="-3.52332">
        <ele>162.4</ele>
        <time>2025-02-26T09:06:03Z</time>
      </trkpt>
      <trkpt lat="48.05208" lon="-3.52333">
        <ele>162.5</ele>
        <time>2025-02-26T09:06:04Z</time>
      </trkpt>
      <trkpt lat="48.05209" lon="-3.52335">
        <ele>162.6</ele>
        <time>2025-02-26T09:06:05Z</time>
      </trkpt>
      <trkpt lat="48.0521" lon="-3.52336">
        <ele>162.7</ele>
        <time>2025-02-26T09:06:06Z</time>
      </trkpt>
      <trkpt lat="48.05211" lon="-3.52336">
        <ele>162.8</ele>
        <time>2025-02-26T09:06:07Z</time>
      </trkpt>
      <trkpt lat="48.05212" lon="-3.52337">
        <ele>162.9</ele>
        <time>2025-02-26T09:06:08Z</time>
      </trkpt>
      <trkpt lat="48.05213" lon="-3.52338">
        <ele>163</ele>
        <time>2025-02-26T09:06:09Z</time>
      </trkpt>
      <trkpt lat="48.05214" lon="-3.52339">
        <ele>163.1</ele>
        <time>2025-02-26T09:06:10Z</time>
      </trkpt>
      <trkpt lat="48.05215" lon="-3.5234">
        <ele>163.2</ele>
        <time>2025-02-26T09:06:11Z</time>
      </trkpt>
      <trkpt lat="48.05216" lon="-3.52342">
        <ele>163.3</ele>
        <time>2025-02-26T09:06:12Z</time>
      </trkpt>
      <trkpt lat="48.05217" lon="-3.52343">
        <ele>163.5</ele>
        <time>2025-02-26T09:06:13Z</time>
      </trkpt>
      <trkpt lat="48.05218" lon="-3.52344">
        <ele>163.6</ele>
        <time>2025-02-26T09:06:14Z</time>
      </trkpt>
      <trkpt lat="48.05219" lon="-3.52345">
        <ele>163.6</ele>
        <time>2025-02-26T09:06:15Z</time>
      </trkpt>
      <trkpt lat="48.0522" lon="-3.52347">
        <ele>163.7</ele>
        <time>2025-02-26T09:06:16Z</time>
      </trkpt>
      <trkpt lat="48.0522" lon="-3.52348">
        <ele>163.8</ele>
        <time>2025-02-26T09:06:17Z</time>
      </trkpt>
      <trkpt lat="48.05221" lon="-3.52349">
        <ele>163.8</ele>
        <time>2025-02-26T09:06:18Z</time>
      </trkpt>
      <trkpt lat="48.05222" lon="-3.5235">
        <ele>163.9</ele>
        <time>2025-02-26T09:06:19Z</time>
      </trkpt>
      <trkpt lat="48.05222" lon="-3.52351">
        <ele>164</ele>
        <time>2025-02-26T09:06:20Z</time>
      </trkpt>
      <trkpt lat="48.05223" lon="-3.52352">
        <ele>164</ele>
        <time>2025-02-26T09:06:21Z</time>
      </trkpt>
      <trkpt lat="48.05223" lon="-3.52353">
        <ele>164.1</ele>
        <time>2025-02-26T09:06:22Z</time>
      </trkpt>
      <trkpt lat="48.05223" lon="-3.52354">
        <ele>164.1</ele>
        <time>2025-02-26T09:06:23Z</time>
      </trkpt>
      <trkpt lat="48.05224" lon="-3.52355">
        <ele>164.2</ele>
        <time>2025-02-26T09:06:24Z</time>
      </trkpt>
      <trkpt lat="48.05225" lon="-3.52356">
        <ele>164.2</ele>
        <time>2025-02-26T09:06:25Z</time>
      </trkpt>
      <trkpt lat="48.05225" lon="-3.52357">
        <ele>164.3</ele>
        <time>2025-02-26T09:06:26Z</time>
      </trkpt>
      <trkpt lat="48.05226" lon="-3.52358">
        <ele>164.3</ele>
        <time>2025-02-26T09:06:27Z</time>
      </trkpt>
      <trkpt lat="48.05226" lon="-3.52359">
        <ele>164.4</ele>
        <time>2025-02-26T09:06:28Z</time>
      </trkpt>
      <trkpt lat="48.05227" lon="-3.5236">
        <ele>164.5</ele>
        <time>2025-02-26T09:06:29Z</time>
      </trkpt>
      <trkpt lat="48.05228" lon="-3.52361">
        <ele>164.6</ele>
        <time>2025-02-26T09:06:30Z</time>
      </trkpt>
      <trkpt lat="48.05228" lon="-3.52362">
        <ele>164.6</ele>
        <time>2025-02-26T09:06:31Z</time>
      </trkpt>
      <trkpt lat="48.05229" lon="-3.52363">
        <ele>164.7</ele>
        <time>2025-02-26T09:06:32Z</time>
      </trkpt>
      <trkpt lat="48.0523" lon="-3.52365">
        <ele>164.7</ele>
        <time>2025-02-26T09:06:33Z</time>
      </trkpt>
      <trkpt lat="48.05231" lon="-3.52366">
        <ele>164.7</ele>
        <time>2025-02-26T09:06:34Z</time>
      </trkpt>
      <trkpt lat="48.05232" lon="-3.52366">
        <ele>164.8</ele>
        <time>2025-02-26T09:06:35Z</time>
      </trkpt>
      <trkpt lat="48.05233" lon="-3.52367">
        <ele>164.9</ele>
        <time>2025-02-26T09:06:36Z</time>
      </trkpt>
      <trkpt lat="48.05234" lon="-3.52367">
        <ele>165</ele>
        <time>2025-02-26T09:06:37Z</time>
      </trkpt>
      <trkpt lat="48.05235" lon="-3.52368">
        <ele>165.1</ele>
        <time>2025-02-26T09:06:38Z</time>
      </trkpt>
      <trkpt lat="48.05236" lon="-3.52368">
        <ele>165.2</ele>
        <time>2025-02-26T09:06:39Z</time>
      </trkpt>
      <trkpt lat="48.05237" lon="-3.52369">
        <ele>165.3</ele>
        <time>2025-02-26T09:06:40Z</time>
      </trkpt>
      <trkpt lat="48.05238" lon="-3.5237">
        <ele>165.4</ele>
        <time>2025-02-26T09:06:41Z</time>
      </trkpt>
      <trkpt lat="48.05239" lon="-3.52371">
        <ele>165.4</ele>
        <time>2025-02-26T09:06:42Z</time>
      </trkpt>
      <trkpt lat="48.0524" lon="-3.52373">
        <ele>165.5</ele>
        <time>2025-02-26T09:06:43Z</time>
      </trkpt>
      <trkpt lat="48.0524" lon="-3.52374">
        <ele>165.5</ele>
        <time>2025-02-26T09:06:44Z</time>
      </trkpt>
      <trkpt lat="48.05241" lon="-3.52375">
        <ele>165.6</ele>
        <time>2025-02-26T09:06:45Z</time>
      </trkpt>
      <trkpt lat="48.05242" lon="-3.52376">
        <ele>165.6</ele>
        <time>2025-02-26T09:06:46Z</time>
      </trkpt>
      <trkpt lat="48.05243" lon="-3.52376">
        <ele>165.7</ele>
        <time>2025-02-26T09:06:47Z</time>
      </trkpt>
      <trkpt lat="48.05244" lon="-3.52377">
        <ele>165.8</ele>
        <time>2025-02-26T09:06:48Z</time>
      </trkpt>
      <trkpt lat="48.05245" lon="-3.52378">
        <ele>165.9</ele>
        <time>2025-02-26T09:06:49Z</time>
      </trkpt>
      <trkpt lat="48.05246" lon="-3.52379">
        <ele>165.9</ele>
        <time>2025-02-26T09:06:50Z</time>
      </trkpt>
      <trkpt lat="48.05247" lon="-3.5238">
        <ele>165.9</ele>
        <time>2025-02-26T09:06:51Z</time>
      </trkpt>
      <trkpt lat="48.05247" lon="-3.52381">
        <ele>166</ele>
        <time>2025-02-26T09:06:52Z</time>
      </trkpt>
      <trkpt lat="48.05248" lon="-3.52382">
        <ele>166.1</ele>
        <time>2025-02-26T09:06:53Z</time>
      </trkpt>
      <trkpt lat="48.05249" lon="-3.52383">
        <ele>166.1</ele>
        <time>2025-02-26T09:06:54Z</time>
      </trkpt>
      <trkpt lat="48.0525" lon="-3.52384">
        <ele>166.2</ele>
        <time>2025-02-26T09:06:55Z</time>
      </trkpt>
      <trkpt lat="48.05251" lon="-3.52385">
        <ele>166.2</ele>
        <time>2025-02-26T09:06:56Z</time>
      </trkpt>
      <trkpt lat="48.05251" lon="-3.52386">
        <ele>166.2</ele>
        <time>2025-02-26T09:06:57Z</time>
      </trkpt>
      <trkpt lat="48.05252" lon="-3.52388">
        <ele>166.2</ele>
        <time>2025-02-26T09:06:58Z</time>
      </trkpt>
      <trkpt lat="48.05252" lon="-3.52389">
        <ele>166.2</ele>
        <time>2025-02-26T09:06:59Z</time>
      </trkpt>
      <trkpt lat="48.05254" lon="-3.5239">
        <ele>166.3</ele>
        <time>2025-02-26T09:07:00Z</time>
      </trkpt>
      <trkpt lat="48.05255" lon="-3.52391">
        <ele>166.3</ele>
        <time>2025-02-26T09:07:01Z</time>
      </trkpt>
      <trkpt lat="48.05256" lon="-3.52392">
        <ele>166.4</ele>
        <time>2025-02-26T09:07:02Z</time>
      </trkpt>
      <trkpt lat="48.05257" lon="-3.52393">
        <ele>166.5</ele>
        <time>2025-02-26T09:07:03Z</time>
      </trkpt>
      <trkpt lat="48.05258" lon="-3.52394">
        <ele>166.5</ele>
        <time>2025-02-26T09:07:04Z</time>
      </trkpt>
      <trkpt lat="48.05258" lon="-3.52395">
        <ele>166.6</ele>
        <time>2025-02-26T09:07:05Z</time>
      </trkpt>
      <trkpt lat="48.05259" lon="-3.52396">
        <ele>166.6</ele>
        <time>2025-02-26T09:07:06Z</time>
      </trkpt>
      <trkpt lat="48.0526" lon="-3.52397">
        <ele>166.7</ele>
        <time>2025-02-26T09:07:07Z</time>
      </trkpt>
      <trkpt lat="48.05261" lon="-3.52398">
        <ele>166.8</ele>
        <time>2025-02-26T09:07:08Z</time>
      </trkpt>
      <trkpt lat="48.05262" lon="-3.52398">
        <ele>166.8</ele>
        <time>2025-02-26T09:07:09Z</time>
      </trkpt>
      <trkpt lat="48.05263" lon="-3.524">
        <ele>166.9</ele>
        <time>2025-02-26T09:07:10Z</time>
      </trkpt>
      <trkpt lat="48.05263" lon="-3.52401">
        <ele>167</ele>
        <time>2025-02-26T09:07:11Z</time>
      </trkpt>
      <trkpt lat="48.05264" lon="-3.52402">
        <ele>167</ele>
        <time>2025-02-26T09:07:12Z</time>
      </trkpt>
      <trkpt lat="48.05265" lon="-3.52403">
        <ele>167.1</ele>
        <time>2025-02-26T09:07:13Z</time>
      </trkpt>
      <trkpt lat="48.05266" lon="-3.52404">
        <ele>167.1</ele>
        <time>2025-02-26T09:07:14Z</time>
      </trkpt>
      <trkpt lat="48.05267" lon="-3.52405">
        <ele>167.2</ele>
        <time>2025-02-26T09:07:15Z</time>
      </trkpt>
      <trkpt lat="48.05268" lon="-3.52406">
        <ele>167.3</ele>
        <time>2025-02-26T09:07:16Z</time>
      </trkpt>
      <trkpt lat="48.05269" lon="-3.52407">
        <ele>167.4</ele>
        <time>2025-02-26T09:07:17Z</time>
      </trkpt>
      <trkpt lat="48.0527" lon="-3.52408">
        <ele>167.4</ele>
        <time>2025-02-26T09:07:18Z</time>
      </trkpt>
      <trkpt lat="48.0527" lon="-3.5241">
        <ele>167.5</ele>
        <time>2025-02-26T09:07:19Z</time>
      </trkpt>
      <trkpt lat="48.05271" lon="-3.52411">
        <ele>167.5</ele>
        <time>2025-02-26T09:07:20Z</time>
      </trkpt>
      <trkpt lat="48.05272" lon="-3.52412">
        <ele>167.6</ele>
        <time>2025-02-26T09:07:21Z</time>
      </trkpt>
      <trkpt lat="48.05273" lon="-3.52413">
        <ele>167.7</ele>
        <time>2025-02-26T09:07:22Z</time>
      </trkpt>
      <trkpt lat="48.05274" lon="-3.52414">
        <ele>167.7</ele>
        <time>2025-02-26T09:07:23Z</time>
      </trkpt>
      <trkpt lat="48.05276" lon="-3.52414">
        <ele>167.8</ele>
        <time>2025-02-26T09:07:24Z</time>
      </trkpt>
      <trkpt lat="48.05277" lon="-3.52415">
        <ele>167.9</ele>
        <time>2025-02-26T09:07:25Z</time>
      </trkpt>
      <trkpt lat="48.05278" lon="-3.52415">
        <ele>168</ele>
        <time>2025-02-26T09:07:26Z</time>
      </trkpt>
      <trkpt lat="48.05279" lon="-3.52416">
        <ele>168</ele>
        <time>2025-02-26T09:07:27Z</time>
      </trkpt>
      <trkpt lat="48.0528" lon="-3.52416">
        <ele>168.1</ele>
        <time>2025-02-26T09:07:28Z</time>
      </trkpt>
      <trkpt lat="48.05281" lon="-3.52417">
        <ele>168.1</ele>
        <time>2025-02-26T09:07:29Z</time>
      </trkpt>
      <trkpt lat="48.05283" lon="-3.52418">
        <ele>168.1</ele>
        <time>2025-02-26T09:07:30Z</time>
      </trkpt>
      <trkpt lat="48.05284" lon="-3.52418">
        <ele>168.2</ele>
        <time>2025-02-26T09:07:31Z</time>
      </trkpt>
      <trkpt lat="48.05285" lon="-3.52419">
        <ele>168.2</ele>
        <time>2025-02-26T09:07:32Z</time>
      </trkpt>
      <trkpt lat="48.05286" lon="-3.52419">
        <ele>168.2</ele>
        <time>2025-02-26T09:07:33Z</time>
      </trkpt>
      <trkpt lat="48.05287" lon="-3.5242">
        <ele>168.2</ele>
        <time>2025-02-26T09:07:34Z</time>
      </trkpt>
      <trkpt lat="48.05288" lon="-3.5242">
        <ele>168.3</ele>
        <time>2025-02-26T09:07:35Z</time>
      </trkpt>
      <trkpt lat="48.05289" lon="-3.52419">
        <ele>168.3</ele>
        <time>2025-02-26T09:07:36Z</time>
      </trkpt>
      <trkpt lat="48.0529" lon="-3.52419">
        <ele>168.4</ele>
        <time>2025-02-26T09:07:37Z</time>
      </trkpt>
      <trkpt lat="48.05291" lon="-3.5242">
        <ele>168.4</ele>
        <time>2025-02-26T09:07:38Z</time>
      </trkpt>
      <trkpt lat="48.05292" lon="-3.5242">
        <ele>168.4</ele>
        <time>2025-02-26T09:07:39Z</time>
      </trkpt>
      <trkpt lat="48.05293" lon="-3.5242">
        <ele>168.4</ele>
        <time>2025-02-26T09:07:40Z</time>
      </trkpt>
      <trkpt lat="48.05294" lon="-3.5242">
        <ele>168.5</ele>
        <time>2025-02-26T09:07:41Z</time>
      </trkpt>
      <trkpt lat="48.05296" lon="-3.5242">
        <ele>168.5</ele>
        <time>2025-02-26T09:07:42Z</time>
      </trkpt>
      <trkpt lat="48.05297" lon="-3.52419">
        <ele>168.6</ele>
        <time>2025-02-26T09:07:43Z</time>
      </trkpt>
      <trkpt lat="48.05298" lon="-3.52419">
        <ele>168.6</ele>
        <time>2025-02-26T09:07:44Z</time>
      </trkpt>
      <trkpt lat="48.05299" lon="-3.52419">
        <ele>168.7</ele>
        <time>2025-02-26T09:07:45Z</time>
      </trkpt>
      <trkpt lat="48.053" lon="-3.52419">
        <ele>168.7</ele>
        <time>2025-02-26T09:07:46Z</time>
      </trkpt>
      <trkpt lat="48.05301" lon="-3.52418">
        <ele>168.8</ele>
        <time>2025-02-26T09:07:47Z</time>
      </trkpt>
      <trkpt lat="48.05302" lon="-3.52417">
        <ele>168.8</ele>
        <time>2025-02-26T09:07:48Z</time>
      </trkpt>
      <trkpt lat="48.05303" lon="-3.52417">
        <ele>168.9</ele>
        <time>2025-02-26T09:07:49Z</time>
      </trkpt>
      <trkpt lat="48.05304" lon="-3.52416">
        <ele>168.9</ele>
        <time>2025-02-26T09:07:50Z</time>
      </trkpt>
      <trkpt lat="48.05305" lon="-3.52416">
        <ele>169</ele>
        <time>2025-02-26T09:07:51Z</time>
      </trkpt>
      <trkpt lat="48.05306" lon="-3.52416">
        <ele>169</ele>
        <time>2025-02-26T09:07:52Z</time>
      </trkpt>
      <trkpt lat="48.05306" lon="-3.52415">
        <ele>169.1</ele>
        <time>2025-02-26T09:07:53Z</time>
      </trkpt>
      <trkpt lat="48.05308" lon="-3.52414">
        <ele>169.2</ele>
        <time>2025-02-26T09:07:54Z</time>
      </trkpt>
      <trkpt lat="48.05309" lon="-3.52414">
        <ele>169.3</ele>
        <time>2025-02-26T09:07:55Z</time>
      </trkpt>
      <trkpt lat="48.0531" lon="-3.52413">
        <ele>169.4</ele>
        <time>2025-02-26T09:07:56Z</time>
      </trkpt>
      <trkpt lat="48.05311" lon="-3.52413">
        <ele>169.5</ele>
        <time>2025-02-26T09:07:57Z</time>
      </trkpt>
      <trkpt lat="48.05312" lon="-3.52413">
        <ele>169.6</ele>
        <time>2025-02-26T09:07:58Z</time>
      </trkpt>
      <trkpt lat="48.05313" lon="-3.52414">
        <ele>169.6</ele>
        <time>2025-02-26T09:07:59Z</time>
      </trkpt>
      <trkpt lat="48.05315" lon="-3.52414">
        <ele>169.7</ele>
        <time>2025-02-26T09:08:00Z</time>
      </trkpt>
      <trkpt lat="48.05316" lon="-3.52414">
        <ele>169.8</ele>
        <time>2025-02-26T09:08:01Z</time>
      </trkpt>
      <trkpt lat="48.05317" lon="-3.52413">
        <ele>169.9</ele>
        <time>2025-02-26T09:08:02Z</time>
      </trkpt>
      <trkpt lat="48.05317" lon="-3.52413">
        <ele>169.9</ele>
        <time>2025-02-26T09:08:03Z</time>
      </trkpt>
      <trkpt lat="48.05318" lon="-3.52412">
        <ele>170</ele>
        <time>2025-02-26T09:08:04Z</time>
      </trkpt>
      <trkpt lat="48.0532" lon="-3.52411">
        <ele>170.1</ele>
        <time>2025-02-26T09:08:05Z</time>
      </trkpt>
      <trkpt lat="48.05321" lon="-3.52412">
        <ele>170.2</ele>
        <time>2025-02-26T09:08:06Z</time>
      </trkpt>
      <trkpt lat="48.05322" lon="-3.52412">
        <ele>170.2</ele>
        <time>2025-02-26T09:08:07Z</time>
      </trkpt>
      <trkpt lat="48.05323" lon="-3.52412">
        <ele>170.3</ele>
        <time>2025-02-26T09:08:08Z</time>
      </trkpt>
      <trkpt lat="48.05323" lon="-3.52411">
        <ele>170.4</ele>
        <time>2025-02-26T09:08:09Z</time>
      </trkpt>
      <trkpt lat="48.05324" lon="-3.52411">
        <ele>170.4</ele>
        <time>2025-02-26T09:08:10Z</time>
      </trkpt>
      <trkpt lat="48.05325" lon="-3.52411">
        <ele>170.5</ele>
        <time>2025-02-26T09:08:11Z</time>
      </trkpt>
      <trkpt lat="48.05326" lon="-3.5241">
        <ele>170.5</ele>
        <time>2025-02-26T09:08:12Z</time>
      </trkpt>
      <trkpt lat="48.05328" lon="-3.5241">
        <ele>170.6</ele>
        <time>2025-02-26T09:08:13Z</time>
      </trkpt>
      <trkpt lat="48.05329" lon="-3.5241">
        <ele>170.7</ele>
        <time>2025-02-26T09:08:14Z</time>
      </trkpt>
      <trkpt lat="48.0533" lon="-3.5241">
        <ele>170.8</ele>
        <time>2025-02-26T09:08:15Z</time>
      </trkpt>
      <trkpt lat="48.05331" lon="-3.5241">
        <ele>170.8</ele>
        <time>2025-02-26T09:08:16Z</time>
      </trkpt>
      <trkpt lat="48.05332" lon="-3.5241">
        <ele>170.9</ele>
        <time>2025-02-26T09:08:17Z</time>
      </trkpt>
      <trkpt lat="48.05333" lon="-3.5241">
        <ele>171</ele>
        <time>2025-02-26T09:08:18Z</time>
      </trkpt>
      <trkpt lat="48.05334" lon="-3.5241">
        <ele>171</ele>
        <time>2025-02-26T09:08:19Z</time>
      </trkpt>
      <trkpt lat="48.05335" lon="-3.5241">
        <ele>171.1</ele>
        <time>2025-02-26T09:08:20Z</time>
      </trkpt>
      <trkpt lat="48.05336" lon="-3.5241">
        <ele>171.1</ele>
        <time>2025-02-26T09:08:21Z</time>
      </trkpt>
      <trkpt lat="48.05337" lon="-3.5241">
        <ele>171.1</ele>
        <time>2025-02-26T09:08:22Z</time>
      </trkpt>
      <trkpt lat="48.05338" lon="-3.5241">
        <ele>171.2</ele>
        <time>2025-02-26T09:08:23Z</time>
      </trkpt>
      <trkpt lat="48.05339" lon="-3.5241">
        <ele>171.2</ele>
        <time>2025-02-26T09:08:24Z</time>
      </trkpt>
      <trkpt lat="48.0534" lon="-3.5241">
        <ele>171.3</ele>
        <time>2025-02-26T09:08:25Z</time>
      </trkpt>
      <trkpt lat="48.05341" lon="-3.52411">
        <ele>171.3</ele>
        <time>2025-02-26T09:08:26Z</time>
      </trkpt>
      <trkpt lat="48.05342" lon="-3.5241">
        <ele>171.4</ele>
        <time>2025-02-26T09:08:27Z</time>
      </trkpt>
      <trkpt lat="48.05343" lon="-3.5241">
        <ele>171.4</ele>
        <time>2025-02-26T09:08:28Z</time>
      </trkpt>
      <trkpt lat="48.05344" lon="-3.5241">
        <ele>171.5</ele>
        <time>2025-02-26T09:08:29Z</time>
      </trkpt>
      <trkpt lat="48.05345" lon="-3.5241">
        <ele>171.5</ele>
        <time>2025-02-26T09:08:30Z</time>
      </trkpt>
      <trkpt lat="48.05346" lon="-3.5241">
        <ele>171.6</ele>
        <time>2025-02-26T09:08:31Z</time>
      </trkpt>
      <trkpt lat="48.05348" lon="-3.5241">
        <ele>171.6</ele>
        <time>2025-02-26T09:08:32Z</time>
      </trkpt>
      <trkpt lat="48.05349" lon="-3.5241">
        <ele>171.7</ele>
        <time>2025-02-26T09:08:33Z</time>
      </trkpt>
      <trkpt lat="48.0535" lon="-3.52409">
        <ele>171.7</ele>
        <time>2025-02-26T09:08:34Z</time>
      </trkpt>
      <trkpt lat="48.05351" lon="-3.5241">
        <ele>171.8</ele>
        <time>2025-02-26T09:08:35Z</time>
      </trkpt>
      <trkpt lat="48.05352" lon="-3.52409">
        <ele>171.9</ele>
        <time>2025-02-26T09:08:36Z</time>
      </trkpt>
      <trkpt lat="48.05353" lon="-3.52409">
        <ele>171.9</ele>
        <time>2025-02-26T09:08:37Z</time>
      </trkpt>
      <trkpt lat="48.05354" lon="-3.52409">
        <ele>172</ele>
        <time>2025-02-26T09:08:38Z</time>
      </trkpt>
      <trkpt lat="48.05355" lon="-3.52408">
        <ele>172</ele>
        <time>2025-02-26T09:08:39Z</time>
      </trkpt>
      <trkpt lat="48.05357" lon="-3.52408">
        <ele>172.1</ele>
        <time>2025-02-26T09:08:40Z</time>
      </trkpt>
      <trkpt lat="48.05358" lon="-3.52408">
        <ele>172.2</ele>
        <time>2025-02-26T09:08:41Z</time>
      </trkpt>
      <trkpt lat="48.05359" lon="-3.52407">
        <ele>172.2</ele>
        <time>2025-02-26T09:08:42Z</time>
      </trkpt>
      <trkpt lat="48.0536" lon="-3.52407">
        <ele>172.3</ele>
        <time>2025-02-26T09:08:43Z</time>
      </trkpt>
      <trkpt lat="48.05361" lon="-3.52408">
        <ele>172.3</ele>
        <time>2025-02-26T09:08:44Z</time>
      </trkpt>
      <trkpt lat="48.05362" lon="-3.52408">
        <ele>172.4</ele>
        <time>2025-02-26T09:08:45Z</time>
      </trkpt>
      <trkpt lat="48.05363" lon="-3.52407">
        <ele>172.5</ele>
        <time>2025-02-26T09:08:46Z</time>
      </trkpt>
      <trkpt lat="48.05364" lon="-3.52407">
        <ele>172.6</ele>
        <time>2025-02-26T09:08:47Z</time>
      </trkpt>
      <trkpt lat="48.05365" lon="-3.52408">
        <ele>172.6</ele>
        <time>2025-02-26T09:08:48Z</time>
      </trkpt>
      <trkpt lat="48.05367" lon="-3.52407">
        <ele>172.7</ele>
        <time>2025-02-26T09:08:49Z</time>
      </trkpt>
      <trkpt lat="48.05368" lon="-3.52407">
        <ele>172.8</ele>
        <time>2025-02-26T09:08:50Z</time>
      </trkpt>
      <trkpt lat="48.05369" lon="-3.52407">
        <ele>172.9</ele>
        <time>2025-02-26T09:08:51Z</time>
      </trkpt>
      <trkpt lat="48.0537" lon="-3.52407">
        <ele>173</ele>
        <time>2025-02-26T09:08:52Z</time>
      </trkpt>
      <trkpt lat="48.05371" lon="-3.52406">
        <ele>173.1</ele>
        <time>2025-02-26T09:08:53Z</time>
      </trkpt>
      <trkpt lat="48.05373" lon="-3.52406">
        <ele>173.2</ele>
        <time>2025-02-26T09:08:54Z</time>
      </trkpt>
      <trkpt lat="48.05374" lon="-3.52406">
        <ele>173.3</ele>
        <time>2025-02-26T09:08:55Z</time>
      </trkpt>
      <trkpt lat="48.05375" lon="-3.52406">
        <ele>173.3</ele>
        <time>2025-02-26T09:08:56Z</time>
      </trkpt>
      <trkpt lat="48.05376" lon="-3.52406">
        <ele>173.4</ele>
        <time>2025-02-26T09:08:57Z</time>
      </trkpt>
      <trkpt lat="48.05377" lon="-3.52406">
        <ele>173.5</ele>
        <time>2025-02-26T09:08:58Z</time>
      </trkpt>
      <trkpt lat="48.05378" lon="-3.52406">
        <ele>173.6</ele>
        <time>2025-02-26T09:08:59Z</time>
      </trkpt>
      <trkpt lat="48.05379" lon="-3.52406">
        <ele>173.6</ele>
        <time>2025-02-26T09:09:00Z</time>
      </trkpt>
      <trkpt lat="48.05379" lon="-3.52406">
        <ele>173.7</ele>
        <time>2025-02-26T09:09:01Z</time>
      </trkpt>
      <trkpt lat="48.0538" lon="-3.52407">
        <ele>173.7</ele>
        <time>2025-02-26T09:09:02Z</time>
      </trkpt>
      <trkpt lat="48.05381" lon="-3.52407">
        <ele>173.8</ele>
        <time>2025-02-26T09:09:03Z</time>
      </trkpt>
      <trkpt lat="48.05382" lon="-3.52407">
        <ele>173.9</ele>
        <time>2025-02-26T09:09:04Z</time>
      </trkpt>
      <trkpt lat="48.05384" lon="-3.52408">
        <ele>173.9</ele>
        <time>2025-02-26T09:09:05Z</time>
      </trkpt>
      <trkpt lat="48.05385" lon="-3.52408">
        <ele>174</ele>
        <time>2025-02-26T09:09:06Z</time>
      </trkpt>
      <trkpt lat="48.05386" lon="-3.52407">
        <ele>174.1</ele>
        <time>2025-02-26T09:09:07Z</time>
      </trkpt>
      <trkpt lat="48.05387" lon="-3.52407">
        <ele>174.2</ele>
        <time>2025-02-26T09:09:08Z</time>
      </trkpt>
      <trkpt lat="48.05388" lon="-3.52407">
        <ele>174.3</ele>
        <time>2025-02-26T09:09:09Z</time>
      </trkpt>
      <trkpt lat="48.05389" lon="-3.52408">
        <ele>174.3</ele>
        <time>2025-02-26T09:09:10Z</time>
      </trkpt>
      <trkpt lat="48.05391" lon="-3.52408">
        <ele>174.4</ele>
        <time>2025-02-26T09:09:11Z</time>
      </trkpt>
      <trkpt lat="48.05392" lon="-3.52408">
        <ele>174.5</ele>
        <time>2025-02-26T09:09:12Z</time>
      </trkpt>
      <trkpt lat="48.05393" lon="-3.52408">
        <ele>174.6</ele>
        <time>2025-02-26T09:09:13Z</time>
      </trkpt>
      <trkpt lat="48.05395" lon="-3.52408">
        <ele>174.7</ele>
        <time>2025-02-26T09:09:14Z</time>
      </trkpt>
      <trkpt lat="48.05396" lon="-3.52407">
        <ele>174.9</ele>
        <time>2025-02-26T09:09:15Z</time>
      </trkpt>
      <trkpt lat="48.05397" lon="-3.52407">
        <ele>175</ele>
        <time>2025-02-26T09:09:16Z</time>
      </trkpt>
      <trkpt lat="48.05398" lon="-3.52407">
        <ele>175</ele>
        <time>2025-02-26T09:09:17Z</time>
      </trkpt>
      <trkpt lat="48.054" lon="-3.52407">
        <ele>175.1</ele>
        <time>2025-02-26T09:09:18Z</time>
      </trkpt>
      <trkpt lat="48.05401" lon="-3.52406">
        <ele>175.2</ele>
        <time>2025-02-26T09:09:19Z</time>
      </trkpt>
      <trkpt lat="48.05402" lon="-3.52406">
        <ele>175.3</ele>
        <time>2025-02-26T09:09:20Z</time>
      </trkpt>
      <trkpt lat="48.05403" lon="-3.52406">
        <ele>175.4</ele>
        <time>2025-02-26T09:09:21Z</time>
      </trkpt>
      <trkpt lat="48.05404" lon="-3.52406">
        <ele>175.5</ele>
        <time>2025-02-26T09:09:22Z</time>
      </trkpt>
      <trkpt lat="48.05405" lon="-3.52406">
        <ele>175.6</ele>
        <time>2025-02-26T09:09:23Z</time>
      </trkpt>
      <trkpt lat="48.05406" lon="-3.52406">
        <ele>175.7</ele>
        <time>2025-02-26T09:09:24Z</time>
      </trkpt>
      <trkpt lat="48.05408" lon="-3.52405">
        <ele>175.8</ele>
        <time>2025-02-26T09:09:25Z</time>
      </trkpt>
      <trkpt lat="48.05409" lon="-3.52405">
        <ele>175.8</ele>
        <time>2025-02-26T09:09:26Z</time>
      </trkpt>
      <trkpt lat="48.0541" lon="-3.52405">
        <ele>175.9</ele>
        <time>2025-02-26T09:09:27Z</time>
      </trkpt>
      <trkpt lat="48.05411" lon="-3.52405">
        <ele>176</ele>
        <time>2025-02-26T09:09:28Z</time>
      </trkpt>
      <trkpt lat="48.05412" lon="-3.52405">
        <ele>176.1</ele>
        <time>2025-02-26T09:09:29Z</time>
      </trkpt>
      <trkpt lat="48.05413" lon="-3.52405">
        <ele>176.1</ele>
        <time>2025-02-26T09:09:30Z</time>
      </trkpt>
      <trkpt lat="48.05414" lon="-3.52405">
        <ele>176.2</ele>
        <time>2025-02-26T09:09:31Z</time>
      </trkpt>
      <trkpt lat="48.05415" lon="-3.52405">
        <ele>176.3</ele>
        <time>2025-02-26T09:09:32Z</time>
      </trkpt>
      <trkpt lat="48.05416" lon="-3.52404">
        <ele>176.4</ele>
        <time>2025-02-26T09:09:33Z</time>
      </trkpt>
      <trkpt lat="48.05417" lon="-3.52404">
        <ele>176.5</ele>
        <time>2025-02-26T09:09:34Z</time>
      </trkpt>
      <trkpt lat="48.05418" lon="-3.52404">
        <ele>176.6</ele>
        <time>2025-02-26T09:09:35Z</time>
      </trkpt>
      <trkpt lat="48.05419" lon="-3.52404">
        <ele>176.6</ele>
        <time>2025-02-26T09:09:36Z</time>
      </trkpt>
      <trkpt lat="48.0542" lon="-3.52404">
        <ele>176.7</ele>
        <time>2025-02-26T09:09:37Z</time>
      </trkpt>
      <trkpt lat="48.05421" lon="-3.52403">
        <ele>176.8</ele>
        <time>2025-02-26T09:09:38Z</time>
      </trkpt>
      <trkpt lat="48.05422" lon="-3.52403">
        <ele>176.9</ele>
        <time>2025-02-26T09:09:39Z</time>
      </trkpt>
      <trkpt lat="48.05423" lon="-3.52403">
        <ele>177</ele>
        <time>2025-02-26T09:09:40Z</time>
      </trkpt>
      <trkpt lat="48.05424" lon="-3.52403">
        <ele>177.1</ele>
        <time>2025-02-26T09:09:41Z</time>
      </trkpt>
      <trkpt lat="48.05425" lon="-3.52403">
        <ele>177.1</ele>
        <time>2025-02-26T09:09:42Z</time>
      </trkpt>
      <trkpt lat="48.05426" lon="-3.52403">
        <ele>177.2</ele>
        <time>2025-02-26T09:09:43Z</time>
      </trkpt>
      <trkpt lat="48.05427" lon="-3.52403">
        <ele>177.3</ele>
        <time>2025-02-26T09:09:44Z</time>
      </trkpt>
      <trkpt lat="48.05428" lon="-3.52402">
        <ele>177.4</ele>
        <time>2025-02-26T09:09:45Z</time>
      </trkpt>
      <trkpt lat="48.05429" lon="-3.52402">
        <ele>177.4</ele>
        <time>2025-02-26T09:09:46Z</time>
      </trkpt>
      <trkpt lat="48.0543" lon="-3.52402">
        <ele>177.5</ele>
        <time>2025-02-26T09:09:47Z</time>
      </trkpt>
      <trkpt lat="48.05431" lon="-3.52402">
        <ele>177.5</ele>
        <time>2025-02-26T09:09:48Z</time>
      </trkpt>
      <trkpt lat="48.05432" lon="-3.52402">
        <ele>177.6</ele>
        <time>2025-02-26T09:09:49Z</time>
      </trkpt>
      <trkpt lat="48.05432" lon="-3.52402">
        <ele>177.7</ele>
        <time>2025-02-26T09:09:50Z</time>
      </trkpt>
      <trkpt lat="48.05433" lon="-3.52402">
        <ele>177.7</ele>
        <time>2025-02-26T09:09:51Z</time>
      </trkpt>
      <trkpt lat="48.05434" lon="-3.52401">
        <ele>177.8</ele>
        <time>2025-02-26T09:09:52Z</time>
      </trkpt>
      <trkpt lat="48.05436" lon="-3.52401">
        <ele>177.9</ele>
        <time>2025-02-26T09:09:53Z</time>
      </trkpt>
      <trkpt lat="48.05437" lon="-3.52401">
        <ele>178</ele>
        <time>2025-02-26T09:09:54Z</time>
      </trkpt>
      <trkpt lat="48.05438" lon="-3.52401">
        <ele>178.1</ele>
        <time>2025-02-26T09:09:55Z</time>
      </trkpt>
      <trkpt lat="48.05439" lon="-3.52401">
        <ele>178.2</ele>
        <time>2025-02-26T09:09:56Z</time>
      </trkpt>
      <trkpt lat="48.0544" lon="-3.52401">
        <ele>178.2</ele>
        <time>2025-02-26T09:09:57Z</time>
      </trkpt>
      <trkpt lat="48.05441" lon="-3.52401">
        <ele>178.3</ele>
        <time>2025-02-26T09:09:58Z</time>
      </trkpt>
      <trkpt lat="48.05442" lon="-3.52401">
        <ele>178.4</ele>
        <time>2025-02-26T09:09:59Z</time>
      </trkpt>
      <trkpt lat="48.05443" lon="-3.524">
        <ele>178.5</ele>
        <time>2025-02-26T09:10:00Z</time>
      </trkpt>
      <trkpt lat="48.05444" lon="-3.52399">
        <ele>178.6</ele>
        <time>2025-02-26T09:10:01Z</time>
      </trkpt>
      <trkpt lat="48.05445" lon="-3.52399">
        <ele>178.7</ele>
        <time>2025-02-26T09:10:02Z</time>
      </trkpt>
      <trkpt lat="48.05446" lon="-3.52398">
        <ele>178.8</ele>
        <time>2025-02-26T09:10:03Z</time>
      </trkpt>
      <trkpt lat="48.05447" lon="-3.52397">
        <ele>178.9</ele>
        <time>2025-02-26T09:10:04Z</time>
      </trkpt>
      <trkpt lat="48.05448" lon="-3.52397">
        <ele>179</ele>
        <time>2025-02-26T09:10:05Z</time>
      </trkpt>
      <trkpt lat="48.05449" lon="-3.52397">
        <ele>179.1</ele>
        <time>2025-02-26T09:10:06Z</time>
      </trkpt>
      <trkpt lat="48.0545" lon="-3.52396">
        <ele>179.2</ele>
        <time>2025-02-26T09:10:07Z</time>
      </trkpt>
      <trkpt lat="48.05451" lon="-3.52395">
        <ele>179.2</ele>
        <time>2025-02-26T09:10:08Z</time>
      </trkpt>
      <trkpt lat="48.05452" lon="-3.52395">
        <ele>179.3</ele>
        <time>2025-02-26T09:10:09Z</time>
      </trkpt>
      <trkpt lat="48.05454" lon="-3.52395">
        <ele>179.4</ele>
        <time>2025-02-26T09:10:10Z</time>
      </trkpt>
      <trkpt lat="48.05455" lon="-3.52395">
        <ele>179.5</ele>
        <time>2025-02-26T09:10:11Z</time>
      </trkpt>
      <trkpt lat="48.05457" lon="-3.52395">
        <ele>179.7</ele>
        <time>2025-02-26T09:10:12Z</time>
      </trkpt>
      <trkpt lat="48.05458" lon="-3.52394">
        <ele>179.8</ele>
        <time>2025-02-26T09:10:13Z</time>
      </trkpt>
      <trkpt lat="48.05459" lon="-3.52393">
        <ele>179.9</ele>
        <time>2025-02-26T09:10:14Z</time>
      </trkpt>
      <trkpt lat="48.0546" lon="-3.52393">
        <ele>180</ele>
        <time>2025-02-26T09:10:15Z</time>
      </trkpt>
      <trkpt lat="48.05461" lon="-3.52393">
        <ele>180</ele>
        <time>2025-02-26T09:10:16Z</time>
      </trkpt>
      <trkpt lat="48.05462" lon="-3.52393">
        <ele>180.1</ele>
        <time>2025-02-26T09:10:17Z</time>
      </trkpt>
      <trkpt lat="48.05463" lon="-3.52394">
        <ele>180.2</ele>
        <time>2025-02-26T09:10:18Z</time>
      </trkpt>
      <trkpt lat="48.05464" lon="-3.52394">
        <ele>180.3</ele>
        <time>2025-02-26T09:10:19Z</time>
      </trkpt>
      <trkpt lat="48.05465" lon="-3.52394">
        <ele>180.3</ele>
        <time>2025-02-26T09:10:20Z</time>
      </trkpt>
      <trkpt lat="48.05466" lon="-3.52394">
        <ele>180.4</ele>
        <time>2025-02-26T09:10:21Z</time>
      </trkpt>
      <trkpt lat="48.05467" lon="-3.52393">
        <ele>180.5</ele>
        <time>2025-02-26T09:10:22Z</time>
      </trkpt>
      <trkpt lat="48.05468" lon="-3.52393">
        <ele>180.6</ele>
        <time>2025-02-26T09:10:23Z</time>
      </trkpt>
      <trkpt lat="48.05469" lon="-3.52393">
        <ele>180.7</ele>
        <time>2025-02-26T09:10:24Z</time>
      </trkpt>
      <trkpt lat="48.0547" lon="-3.52392">
        <ele>180.7</ele>
        <time>2025-02-26T09:10:25Z</time>
      </trkpt>
      <trkpt lat="48.05471" lon="-3.52392">
        <ele>180.8</ele>
        <time>2025-02-26T09:10:26Z</time>
      </trkpt>
      <trkpt lat="48.05473" lon="-3.52392">
        <ele>180.9</ele>
        <time>2025-02-26T09:10:27Z</time>
      </trkpt>
      <trkpt lat="48.05474" lon="-3.52392">
        <ele>181</ele>
        <time>2025-02-26T09:10:28Z</time>
      </trkpt>
      <trkpt lat="48.05475" lon="-3.52393">
        <ele>181</ele>
        <time>2025-02-26T09:10:29Z</time>
      </trkpt>
      <trkpt lat="48.05476" lon="-3.52393">
        <ele>181.1</ele>
        <time>2025-02-26T09:10:30Z</time>
      </trkpt>
      <trkpt lat="48.05477" lon="-3.52393">
        <ele>181.2</ele>
        <time>2025-02-26T09:10:31Z</time>
      </trkpt>
      <trkpt lat="48.05478" lon="-3.52393">
        <ele>181.3</ele>
        <time>2025-02-26T09:10:32Z</time>
      </trkpt>
      <trkpt lat="48.05479" lon="-3.52393">
        <ele>181.3</ele>
        <time>2025-02-26T09:10:33Z</time>
      </trkpt>
      <trkpt lat="48.05479" lon="-3.52393">
        <ele>181.4</ele>
        <time>2025-02-26T09:10:34Z</time>
      </trkpt>
      <trkpt lat="48.0548" lon="-3.52393">
        <ele>181.4</ele>
        <time>2025-02-26T09:10:35Z</time>
      </trkpt>
      <trkpt lat="48.05481" lon="-3.52392">
        <ele>181.5</ele>
        <time>2025-02-26T09:10:36Z</time>
      </trkpt>
      <trkpt lat="48.05482" lon="-3.52392">
        <ele>181.6</ele>
        <time>2025-02-26T09:10:37Z</time>
      </trkpt>
      <trkpt lat="48.05483" lon="-3.52392">
        <ele>181.7</ele>
        <time>2025-02-26T09:10:38Z</time>
      </trkpt>
      <trkpt lat="48.05484" lon="-3.52392">
        <ele>181.8</ele>
        <time>2025-02-26T09:10:39Z</time>
      </trkpt>
      <trkpt lat="48.05485" lon="-3.52392">
        <ele>181.8</ele>
        <time>2025-02-26T09:10:40Z</time>
      </trkpt>
      <trkpt lat="48.05486" lon="-3.52392">
        <ele>181.9</ele>
        <time>2025-02-26T09:10:41Z</time>
      </trkpt>
      <trkpt lat="48.05488" lon="-3.52392">
        <ele>182</ele>
        <time>2025-02-26T09:10:42Z</time>
      </trkpt>
      <trkpt lat="48.05489" lon="-3.52392">
        <ele>182.1</ele>
        <time>2025-02-26T09:10:43Z</time>
      </trkpt>
      <trkpt lat="48.0549" lon="-3.52391">
        <ele>182.2</ele>
        <time>2025-02-26T09:10:44Z</time>
      </trkpt>
      <trkpt lat="48.05491" lon="-3.52391">
        <ele>182.3</ele>
        <time>2025-02-26T09:10:45Z</time>
      </trkpt>
      <trkpt lat="48.05492" lon="-3.52391">
        <ele>182.4</ele>
        <time>2025-02-26T09:10:46Z</time>
      </trkpt>
      <trkpt lat="48.05493" lon="-3.52391">
        <ele>182.5</ele>
        <time>2025-02-26T09:10:47Z</time>
      </trkpt>
      <trkpt lat="48.05494" lon="-3.52391">
        <ele>182.5</ele>
        <time>2025-02-26T09:10:48Z</time>
      </trkpt>
      <trkpt lat="48.05496" lon="-3.52391">
        <ele>182.6</ele>
        <time>2025-02-26T09:10:49Z</time>
      </trkpt>
      <trkpt lat="48.05497" lon="-3.5239">
        <ele>182.7</ele>
        <time>2025-02-26T09:10:50Z</time>
      </trkpt>
      <trkpt lat="48.05498" lon="-3.5239">
        <ele>182.8</ele>
        <time>2025-02-26T09:10:51Z</time>
      </trkpt>
      <trkpt lat="48.05499" lon="-3.5239">
        <ele>182.9</ele>
        <time>2025-02-26T09:10:52Z</time>
      </trkpt>
      <trkpt lat="48.055" lon="-3.5239">
        <ele>183</ele>
        <time>2025-02-26T09:10:53Z</time>
      </trkpt>
      <trkpt lat="48.05501" lon="-3.5239">
        <ele>183</ele>
        <time>2025-02-26T09:10:54Z</time>
      </trkpt>
      <trkpt lat="48.05502" lon="-3.5239">
        <ele>183</ele>
        <time>2025-02-26T09:10:55Z</time>
      </trkpt>
      <trkpt lat="48.05503" lon="-3.5239">
        <ele>183.1</ele>
        <time>2025-02-26T09:10:56Z</time>
      </trkpt>
      <trkpt lat="48.05504" lon="-3.52389">
        <ele>183.1</ele>
        <time>2025-02-26T09:10:57Z</time>
      </trkpt>
      <trkpt lat="48.05505" lon="-3.52389">
        <ele>183.2</ele>
        <time>2025-02-26T09:10:58Z</time>
      </trkpt>
      <trkpt lat="48.05506" lon="-3.52388">
        <ele>183.2</ele>
        <time>2025-02-26T09:10:59Z</time>
      </trkpt>
      <trkpt lat="48.05507" lon="-3.52387">
        <ele>183.2</ele>
        <time>2025-02-26T09:11:00Z</time>
      </trkpt>
      <trkpt lat="48.05508" lon="-3.52387">
        <ele>183.3</ele>
        <time>2025-02-26T09:11:01Z</time>
      </trkpt>
      <trkpt lat="48.05509" lon="-3.52386">
        <ele>183.3</ele>
        <time>2025-02-26T09:11:02Z</time>
      </trkpt>
      <trkpt lat="48.0551" lon="-3.52386">
        <ele>183.3</ele>
        <time>2025-02-26T09:11:03Z</time>
      </trkpt>
      <trkpt lat="48.05511" lon="-3.52385">
        <ele>183.4</ele>
        <time>2025-02-26T09:11:04Z</time>
      </trkpt>
      <trkpt lat="48.05512" lon="-3.52385">
        <ele>183.4</ele>
        <time>2025-02-26T09:11:05Z</time>
      </trkpt>
      <trkpt lat="48.05513" lon="-3.52385">
        <ele>183.5</ele>
        <time>2025-02-26T09:11:06Z</time>
      </trkpt>
      <trkpt lat="48.05514" lon="-3.52385">
        <ele>183.5</ele>
        <time>2025-02-26T09:11:07Z</time>
      </trkpt>
      <trkpt lat="48.05515" lon="-3.52384">
        <ele>183.5</ele>
        <time>2025-02-26T09:11:08Z</time>
      </trkpt>
      <trkpt lat="48.05516" lon="-3.52384">
        <ele>183.6</ele>
        <time>2025-02-26T09:11:09Z</time>
      </trkpt>
      <trkpt lat="48.05517" lon="-3.52384">
        <ele>183.6</ele>
        <time>2025-02-26T09:11:10Z</time>
      </trkpt>
      <trkpt lat="48.05518" lon="-3.52383">
        <ele>183.6</ele>
        <time>2025-02-26T09:11:11Z</time>
      </trkpt>
      <trkpt lat="48.05519" lon="-3.52383">
        <ele>183.7</ele>
        <time>2025-02-26T09:11:12Z</time>
      </trkpt>
      <trkpt lat="48.05519" lon="-3.52382">
        <ele>183.7</ele>
        <time>2025-02-26T09:11:13Z</time>
      </trkpt>
      <trkpt lat="48.0552" lon="-3.52382">
        <ele>183.7</ele>
        <time>2025-02-26T09:11:14Z</time>
      </trkpt>
      <trkpt lat="48.05521" lon="-3.52381">
        <ele>183.8</ele>
        <time>2025-02-26T09:11:15Z</time>
      </trkpt>
      <trkpt lat="48.05522" lon="-3.5238">
        <ele>183.8</ele>
        <time>2025-02-26T09:11:16Z</time>
      </trkpt>
      <trkpt lat="48.05523" lon="-3.5238">
        <ele>183.8</ele>
        <time>2025-02-26T09:11:17Z</time>
      </trkpt>
      <trkpt lat="48.05524" lon="-3.5238">
        <ele>183.9</ele>
        <time>2025-02-26T09:11:18Z</time>
      </trkpt>
      <trkpt lat="48.05525" lon="-3.52379">
        <ele>183.9</ele>
        <time>2025-02-26T09:11:19Z</time>
      </trkpt>
      <trkpt lat="48.05526" lon="-3.52378">
        <ele>183.9</ele>
        <time>2025-02-26T09:11:20Z</time>
      </trkpt>
      <trkpt lat="48.05527" lon="-3.52378">
        <ele>184</ele>
        <time>2025-02-26T09:11:21Z</time>
      </trkpt>
      <trkpt lat="48.05528" lon="-3.52377">
        <ele>184</ele>
        <time>2025-02-26T09:11:22Z</time>
      </trkpt>
      <trkpt lat="48.05529" lon="-3.52377">
        <ele>184.1</ele>
        <time>2025-02-26T09:11:23Z</time>
      </trkpt>
      <trkpt lat="48.05531" lon="-3.52377">
        <ele>184.1</ele>
        <time>2025-02-26T09:11:24Z</time>
      </trkpt>
      <trkpt lat="48.05532" lon="-3.52377">
        <ele>184.1</ele>
        <time>2025-02-26T09:11:25Z</time>
      </trkpt>
      <trkpt lat="48.05533" lon="-3.52377">
        <ele>184.2</ele>
        <time>2025-02-26T09:11:26Z</time>
      </trkpt>
      <trkpt lat="48.05534" lon="-3.52377">
        <ele>184.2</ele>
        <time>2025-02-26T09:11:27Z</time>
      </trkpt>
      <trkpt lat="48.05536" lon="-3.52377">
        <ele>184.3</ele>
        <time>2025-02-26T09:11:28Z</time>
      </trkpt>
      <trkpt lat="48.05537" lon="-3.52378">
        <ele>184.3</ele>
        <time>2025-02-26T09:11:29Z</time>
      </trkpt>
      <trkpt lat="48.05538" lon="-3.52379">
        <ele>184.4</ele>
        <time>2025-02-26T09:11:30Z</time>
      </trkpt>
      <trkpt lat="48.05539" lon="-3.5238">
        <ele>184.4</ele>
        <time>2025-02-26T09:11:31Z</time>
      </trkpt>
      <trkpt lat="48.05541" lon="-3.52381">
        <ele>184.5</ele>
        <time>2025-02-26T09:11:32Z</time>
      </trkpt>
      <trkpt lat="48.05542" lon="-3.52382">
        <ele>184.5</ele>
        <time>2025-02-26T09:11:33Z</time>
      </trkpt>
      <trkpt lat="48.05543" lon="-3.52383">
        <ele>184.5</ele>
        <time>2025-02-26T09:11:34Z</time>
      </trkpt>
      <trkpt lat="48.05544" lon="-3.52384">
        <ele>184.6</ele>
        <time>2025-02-26T09:11:35Z</time>
      </trkpt>
      <trkpt lat="48.05545" lon="-3.52385">
        <ele>184.6</ele>
        <time>2025-02-26T09:11:36Z</time>
      </trkpt>
      <trkpt lat="48.05546" lon="-3.52385">
        <ele>184.7</ele>
        <time>2025-02-26T09:11:37Z</time>
      </trkpt>
      <trkpt lat="48.05547" lon="-3.52386">
        <ele>184.7</ele>
        <time>2025-02-26T09:11:38Z</time>
      </trkpt>
      <trkpt lat="48.05549" lon="-3.52387">
        <ele>184.7</ele>
        <time>2025-02-26T09:11:39Z</time>
      </trkpt>
      <trkpt lat="48.0555" lon="-3.52388">
        <ele>184.8</ele>
        <time>2025-02-26T09:11:40Z</time>
      </trkpt>
      <trkpt lat="48.05551" lon="-3.5239">
        <ele>184.8</ele>
        <time>2025-02-26T09:11:41Z</time>
      </trkpt>
      <trkpt lat="48.05552" lon="-3.5239">
        <ele>184.8</ele>
        <time>2025-02-26T09:11:42Z</time>
      </trkpt>
      <trkpt lat="48.05553" lon="-3.52391">
        <ele>184.9</ele>
        <time>2025-02-26T09:11:43Z</time>
      </trkpt>
      <trkpt lat="48.05554" lon="-3.52391">
        <ele>184.9</ele>
        <time>2025-02-26T09:11:44Z</time>
      </trkpt>
      <trkpt lat="48.05555" lon="-3.52392">
        <ele>184.9</ele>
        <time>2025-02-26T09:11:45Z</time>
      </trkpt>
      <trkpt lat="48.05557" lon="-3.52392">
        <ele>184.9</ele>
        <time>2025-02-26T09:11:46Z</time>
      </trkpt>
      <trkpt lat="48.05558" lon="-3.52393">
        <ele>184.9</ele>
        <time>2025-02-26T09:11:47Z</time>
      </trkpt>
      <trkpt lat="48.05559" lon="-3.52394">
        <ele>184.9</ele>
        <time>2025-02-26T09:11:48Z</time>
      </trkpt>
      <trkpt lat="48.0556" lon="-3.52394">
        <ele>185</ele>
        <time>2025-02-26T09:11:49Z</time>
      </trkpt>
      <trkpt lat="48.05561" lon="-3.52395">
        <ele>185</ele>
        <time>2025-02-26T09:11:50Z</time>
      </trkpt>
      <trkpt lat="48.05562" lon="-3.52396">
        <ele>185</ele>
        <time>2025-02-26T09:11:51Z</time>
      </trkpt>
      <trkpt lat="48.05563" lon="-3.52396">
        <ele>185</ele>
        <time>2025-02-26T09:11:52Z</time>
      </trkpt>
      <trkpt lat="48.05564" lon="-3.52398">
        <ele>185</ele>
        <time>2025-02-26T09:11:53Z</time>
      </trkpt>
      <trkpt lat="48.05564" lon="-3.52399">
        <ele>184.9</ele>
        <time>2025-02-26T09:11:54Z</time>
      </trkpt>
      <trkpt lat="48.05564" lon="-3.524">
        <ele>184.9</ele>
        <time>2025-02-26T09:11:55Z</time>
      </trkpt>
      <trkpt lat="48.05566" lon="-3.524">
        <ele>185</ele>
        <time>2025-02-26T09:11:56Z</time>
      </trkpt>
      <trkpt lat="48.05567" lon="-3.524">
        <ele>185</ele>
        <time>2025-02-26T09:11:57Z</time>
      </trkpt>
      <trkpt lat="48.05567" lon="-3.52401">
        <ele>185</ele>
        <time>2025-02-26T09:11:58Z</time>
      </trkpt>
      <trkpt lat="48.05568" lon="-3.52401">
        <ele>185</ele>
        <time>2025-02-26T09:11:59Z</time>
      </trkpt>
      <trkpt lat="48.05569" lon="-3.52401">
        <ele>185</ele>
        <time>2025-02-26T09:12:00Z</time>
      </trkpt>
      <trkpt lat="48.0557" lon="-3.52402">
        <ele>185.1</ele>
        <time>2025-02-26T09:12:01Z</time>
      </trkpt>
      <trkpt lat="48.05571" lon="-3.52403">
        <ele>185</ele>
        <time>2025-02-26T09:12:02Z</time>
      </trkpt>
      <trkpt lat="48.05572" lon="-3.52404">
        <ele>185</ele>
        <time>2025-02-26T09:12:03Z</time>
      </trkpt>
      <trkpt lat="48.05573" lon="-3.52406">
        <ele>185</ele>
        <time>2025-02-26T09:12:04Z</time>
      </trkpt>
      <trkpt lat="48.05573" lon="-3.52406">
        <ele>185</ele>
        <time>2025-02-26T09:12:05Z</time>
      </trkpt>
      <trkpt lat="48.05574" lon="-3.52406">
        <ele>185</ele>
        <time>2025-02-26T09:12:06Z</time>
      </trkpt>
      <trkpt lat="48.05575" lon="-3.52406">
        <ele>185.1</ele>
        <time>2025-02-26T09:12:07Z</time>
      </trkpt>
      <trkpt lat="48.05575" lon="-3.52407">
        <ele>185.1</ele>
        <time>2025-02-26T09:12:08Z</time>
      </trkpt>
      <trkpt lat="48.05576" lon="-3.52407">
        <ele>185.1</ele>
        <time>2025-02-26T09:12:09Z</time>
      </trkpt>
      <trkpt lat="48.05577" lon="-3.52408">
        <ele>185.1</ele>
        <time>2025-02-26T09:12:10Z</time>
      </trkpt>
      <trkpt lat="48.05578" lon="-3.52409">
        <ele>185.1</ele>
        <time>2025-02-26T09:12:11Z</time>
      </trkpt>
      <trkpt lat="48.05578" lon="-3.52412">
        <ele>185</ele>
        <time>2025-02-26T09:12:12Z</time>
      </trkpt>
      <trkpt lat="48.05578" lon="-3.52413">
        <ele>185</ele>
        <time>2025-02-26T09:12:13Z</time>
      </trkpt>
      <trkpt lat="48.05579" lon="-3.52413">
        <ele>185</ele>
        <time>2025-02-26T09:12:14Z</time>
      </trkpt>
      <trkpt lat="48.05579" lon="-3.52414">
        <ele>184.9</ele>
        <time>2025-02-26T09:12:15Z</time>
      </trkpt>
      <trkpt lat="48.0558" lon="-3.52416">
        <ele>184.9</ele>
        <time>2025-02-26T09:12:16Z</time>
      </trkpt>
      <trkpt lat="48.05581" lon="-3.52416">
        <ele>184.9</ele>
        <time>2025-02-26T09:12:17Z</time>
      </trkpt>
      <trkpt lat="48.05581" lon="-3.52418">
        <ele>184.9</ele>
        <time>2025-02-26T09:12:18Z</time>
      </trkpt>
      <trkpt lat="48.05581" lon="-3.5242">
        <ele>184.9</ele>
        <time>2025-02-26T09:12:19Z</time>
      </trkpt>
      <trkpt lat="48.05582" lon="-3.52421">
        <ele>185</ele>
        <time>2025-02-26T09:12:20Z</time>
      </trkpt>
      <trkpt lat="48.05583" lon="-3.52422">
        <ele>185</ele>
        <time>2025-02-26T09:12:21Z</time>
      </trkpt>
      <trkpt lat="48.05584" lon="-3.52424">
        <ele>185</ele>
        <time>2025-02-26T09:12:22Z</time>
      </trkpt>
      <trkpt lat="48.05584" lon="-3.52425">
        <ele>185</ele>
        <time>2025-02-26T09:12:23Z</time>
      </trkpt>
      <trkpt lat="48.05586" lon="-3.52427">
        <ele>185.1</ele>
        <time>2025-02-26T09:12:24Z</time>
      </trkpt>
      <trkpt lat="48.05587" lon="-3.52427">
        <ele>185.1</ele>
        <time>2025-02-26T09:12:25Z</time>
      </trkpt>
      <trkpt lat="48.05589" lon="-3.52429">
        <ele>185.2</ele>
        <time>2025-02-26T09:12:26Z</time>
      </trkpt>
      <trkpt lat="48.0559" lon="-3.5243">
        <ele>185.2</ele>
        <time>2025-02-26T09:12:27Z</time>
      </trkpt>
      <trkpt lat="48.0559" lon="-3.52432">
        <ele>185.2</ele>
        <time>2025-02-26T09:12:28Z</time>
      </trkpt>
      <trkpt lat="48.05591" lon="-3.52433">
        <ele>185.3</ele>
        <time>2025-02-26T09:12:29Z</time>
      </trkpt>
      <trkpt lat="48.05591" lon="-3.52434">
        <ele>185.3</ele>
        <time>2025-02-26T09:12:30Z</time>
      </trkpt>
      <trkpt lat="48.05593" lon="-3.52434">
        <ele>185.3</ele>
        <time>2025-02-26T09:12:31Z</time>
      </trkpt>
      <trkpt lat="48.05594" lon="-3.52435">
        <ele>185.4</ele>
        <time>2025-02-26T09:12:32Z</time>
      </trkpt>
      <trkpt lat="48.05595" lon="-3.52437">
        <ele>185.4</ele>
        <time>2025-02-26T09:12:33Z</time>
      </trkpt>
      <trkpt lat="48.05595" lon="-3.52438">
        <ele>185.4</ele>
        <time>2025-02-26T09:12:34Z</time>
      </trkpt>
      <trkpt lat="48.05595" lon="-3.52439">
        <ele>185.4</ele>
        <time>2025-02-26T09:12:35Z</time>
      </trkpt>
      <trkpt lat="48.05596" lon="-3.5244">
        <ele>185.4</ele>
        <time>2025-02-26T09:12:36Z</time>
      </trkpt>
      <trkpt lat="48.05596" lon="-3.52441">
        <ele>185.5</ele>
        <time>2025-02-26T09:12:37Z</time>
      </trkpt>
      <trkpt lat="48.05596" lon="-3.52442">
        <ele>185.5</ele>
        <time>2025-02-26T09:12:38Z</time>
      </trkpt>
      <trkpt lat="48.05597" lon="-3.52443">
        <ele>185.5</ele>
        <time>2025-02-26T09:12:39Z</time>
      </trkpt>
      <trkpt lat="48.05597" lon="-3.52444">
        <ele>185.5</ele>
        <time>2025-02-26T09:12:40Z</time>
      </trkpt>
      <trkpt lat="48.05598" lon="-3.52445">
        <ele>185.5</ele>
        <time>2025-02-26T09:12:41Z</time>
      </trkpt>
      <trkpt lat="48.05598" lon="-3.52446">
        <ele>185.4</ele>
        <time>2025-02-26T09:12:42Z</time>
      </trkpt>
      <trkpt lat="48.05598" lon="-3.52447">
        <ele>185.4</ele>
        <time>2025-02-26T09:12:43Z</time>
      </trkpt>
      <trkpt lat="48.056" lon="-3.52447">
        <ele>185.5</ele>
        <time>2025-02-26T09:12:44Z</time>
      </trkpt>
      <trkpt lat="48.05601" lon="-3.52448">
        <ele>185.5</ele>
        <time>2025-02-26T09:12:45Z</time>
      </trkpt>
      <trkpt lat="48.05601" lon="-3.52449">
        <ele>185.5</ele>
        <time>2025-02-26T09:12:46Z</time>
      </trkpt>
      <trkpt lat="48.05602" lon="-3.5245">
        <ele>185.5</ele>
        <time>2025-02-26T09:12:47Z</time>
      </trkpt>
      <trkpt lat="48.05602" lon="-3.52451">
        <ele>185.5</ele>
        <time>2025-02-26T09:12:48Z</time>
      </trkpt>
      <trkpt lat="48.05603" lon="-3.52451">
        <ele>185.5</ele>
        <time>2025-02-26T09:12:49Z</time>
      </trkpt>
      <trkpt lat="48.05604" lon="-3.52451">
        <ele>185.5</ele>
        <time>2025-02-26T09:12:50Z</time>
      </trkpt>
      <trkpt lat="48.05604" lon="-3.52452">
        <ele>185.5</ele>
        <time>2025-02-26T09:12:51Z</time>
      </trkpt>
      <trkpt lat="48.05605" lon="-3.52452">
        <ele>185.5</ele>
        <time>2025-02-26T09:12:52Z</time>
      </trkpt>
      <trkpt lat="48.05606" lon="-3.52453">
        <ele>185.5</ele>
        <time>2025-02-26T09:12:53Z</time>
      </trkpt>
      <trkpt lat="48.05607" lon="-3.52454">
        <ele>185.5</ele>
        <time>2025-02-26T09:12:54Z</time>
      </trkpt>
      <trkpt lat="48.05608" lon="-3.52456">
        <ele>185.5</ele>
        <time>2025-02-26T09:12:55Z</time>
      </trkpt>
      <trkpt lat="48.05608" lon="-3.52457">
        <ele>185.5</ele>
        <time>2025-02-26T09:12:56Z</time>
      </trkpt>
      <trkpt lat="48.05609" lon="-3.52459">
        <ele>185.4</ele>
        <time>2025-02-26T09:12:57Z</time>
      </trkpt>
      <trkpt lat="48.05609" lon="-3.5246">
        <ele>185.4</ele>
        <time>2025-02-26T09:12:58Z</time>
      </trkpt>
      <trkpt lat="48.0561" lon="-3.52461">
        <ele>185.4</ele>
        <time>2025-02-26T09:12:59Z</time>
      </trkpt>
      <trkpt lat="48.05611" lon="-3.52462">
        <ele>185.3</ele>
        <time>2025-02-26T09:13:00Z</time>
      </trkpt>
      <trkpt lat="48.05612" lon="-3.52463">
        <ele>185.3</ele>
        <time>2025-02-26T09:13:01Z</time>
      </trkpt>
      <trkpt lat="48.05613" lon="-3.52464">
        <ele>185.3</ele>
        <time>2025-02-26T09:13:02Z</time>
      </trkpt>
      <trkpt lat="48.05614" lon="-3.52465">
        <ele>185.3</ele>
        <time>2025-02-26T09:13:03Z</time>
      </trkpt>
      <trkpt lat="48.05615" lon="-3.52466">
        <ele>185.4</ele>
        <time>2025-02-26T09:13:04Z</time>
      </trkpt>
      <trkpt lat="48.05616" lon="-3.52467">
        <ele>185.3</ele>
        <time>2025-02-26T09:13:05Z</time>
      </trkpt>
      <trkpt lat="48.05616" lon="-3.52469">
        <ele>185.3</ele>
        <time>2025-02-26T09:13:06Z</time>
      </trkpt>
      <trkpt lat="48.05617" lon="-3.5247">
        <ele>185.3</ele>
        <time>2025-02-26T09:13:07Z</time>
      </trkpt>
      <trkpt lat="48.05618" lon="-3.5247">
        <ele>185.3</ele>
        <time>2025-02-26T09:13:08Z</time>
      </trkpt>
      <trkpt lat="48.05619" lon="-3.52471">
        <ele>185.3</ele>
        <time>2025-02-26T09:13:09Z</time>
      </trkpt>
      <trkpt lat="48.0562" lon="-3.52472">
        <ele>185.3</ele>
        <time>2025-02-26T09:13:10Z</time>
      </trkpt>
      <trkpt lat="48.05621" lon="-3.52474">
        <ele>185.3</ele>
        <time>2025-02-26T09:13:11Z</time>
      </trkpt>
      <trkpt lat="48.05621" lon="-3.52476">
        <ele>185.2</ele>
        <time>2025-02-26T09:13:12Z</time>
      </trkpt>
      <trkpt lat="48.05622" lon="-3.52477">
        <ele>185.2</ele>
        <time>2025-02-26T09:13:13Z</time>
      </trkpt>
      <trkpt lat="48.05623" lon="-3.52478">
        <ele>185.2</ele>
        <time>2025-02-26T09:13:14Z</time>
      </trkpt>
      <trkpt lat="48.05624" lon="-3.52479">
        <ele>185.2</ele>
        <time>2025-02-26T09:13:15Z</time>
      </trkpt>
      <trkpt lat="48.05624" lon="-3.52479">
        <ele>185.2</ele>
        <time>2025-02-26T09:13:16Z</time>
      </trkpt>
      <trkpt lat="48.05624" lon="-3.52479">
        <ele>185.2</ele>
        <time>2025-02-26T09:13:17Z</time>
      </trkpt>
      <trkpt lat="48.05624" lon="-3.52479">
        <ele>185.2</ele>
        <time>2025-02-26T09:13:18Z</time>
      </trkpt>
      <trkpt lat="48.05624" lon="-3.52479">
        <ele>185.2</ele>
        <time>2025-02-26T09:13:19Z</time>
      </trkpt>
      <trkpt lat="48.05624" lon="-3.52479">
        <ele>185.2</ele>
        <time>2025-02-26T09:13:20Z</time>
      </trkpt>
      <trkpt lat="48.05624" lon="-3.52479">
        <ele>185.2</ele>
        <time>2025-02-26T09:13:21Z</time>
      </trkpt>
      <trkpt lat="48.05624" lon="-3.5248">
        <ele>185.2</ele>
        <time>2025-02-26T09:13:22Z</time>
      </trkpt>
      <trkpt lat="48.05625" lon="-3.52481">
        <ele>185.2</ele>
        <time>2025-02-26T09:13:23Z</time>
      </trkpt>
      <trkpt lat="48.05626" lon="-3.52481">
        <ele>185.2</ele>
        <time>2025-02-26T09:13:24Z</time>
      </trkpt>
      <trkpt lat="48.05628" lon="-3.52482">
        <ele>185.3</ele>
        <time>2025-02-26T09:13:25Z</time>
      </trkpt>
      <trkpt lat="48.05629" lon="-3.52482">
        <ele>185.3</ele>
        <time>2025-02-26T09:13:26Z</time>
      </trkpt>
      <trkpt lat="48.05629" lon="-3.52483">
        <ele>185.3</ele>
        <time>2025-02-26T09:13:27Z</time>
      </trkpt>
      <trkpt lat="48.05631" lon="-3.52484">
        <ele>185.3</ele>
        <time>2025-02-26T09:13:28Z</time>
      </trkpt>
      <trkpt lat="48.05632" lon="-3.52485">
        <ele>185.3</ele>
        <time>2025-02-26T09:13:29Z</time>
      </trkpt>
      <trkpt lat="48.05633" lon="-3.52486">
        <ele>185.3</ele>
        <time>2025-02-26T09:13:30Z</time>
      </trkpt>
      <trkpt lat="48.05634" lon="-3.52488">
        <ele>185.2</ele>
        <time>2025-02-26T09:13:31Z</time>
      </trkpt>
      <trkpt lat="48.05634" lon="-3.52489">
        <ele>185.2</ele>
        <time>2025-02-26T09:13:32Z</time>
      </trkpt>
      <trkpt lat="48.05635" lon="-3.52491">
        <ele>185.2</ele>
        <time>2025-02-26T09:13:33Z</time>
      </trkpt>
      <trkpt lat="48.05635" lon="-3.52492">
        <ele>185.2</ele>
        <time>2025-02-26T09:13:34Z</time>
      </trkpt>
      <trkpt lat="48.05636" lon="-3.52493">
        <ele>185.1</ele>
        <time>2025-02-26T09:13:35Z</time>
      </trkpt>
      <trkpt lat="48.05636" lon="-3.52494">
        <ele>185.1</ele>
        <time>2025-02-26T09:13:36Z</time>
      </trkpt>
      <trkpt lat="48.05636" lon="-3.52493">
        <ele>185.1</ele>
        <time>2025-02-26T09:13:37Z</time>
      </trkpt>
      <trkpt lat="48.05636" lon="-3.52493">
        <ele>185.2</ele>
        <time>2025-02-26T09:13:38Z</time>
      </trkpt>
      <trkpt lat="48.05636" lon="-3.52493">
        <ele>185.2</ele>
        <time>2025-02-26T09:13:39Z</time>
      </trkpt>
      <trkpt lat="48.05636" lon="-3.52493">
        <ele>185.2</ele>
        <time>2025-02-26T09:13:40Z</time>
      </trkpt>
      <trkpt lat="48.05636" lon="-3.52493">
        <ele>185.2</ele>
        <time>2025-02-26T09:13:41Z</time>
      </trkpt>
      <trkpt lat="48.05636" lon="-3.52493">
        <ele>185.1</ele>
        <time>2025-02-26T09:13:42Z</time>
      </trkpt>
      <trkpt lat="48.05636" lon="-3.52494">
        <ele>185.1</ele>
        <time>2025-02-26T09:13:43Z</time>
      </trkpt>
      <trkpt lat="48.05636" lon="-3.52494">
        <ele>185.1</ele>
        <time>2025-02-26T09:13:44Z</time>
      </trkpt>
      <trkpt lat="48.05636" lon="-3.52494">
        <ele>185.1</ele>
        <time>2025-02-26T09:13:45Z</time>
      </trkpt>
      <trkpt lat="48.05636" lon="-3.52494">
        <ele>185.1</ele>
        <time>2025-02-26T09:13:46Z</time>
      </trkpt>
      <trkpt lat="48.05636" lon="-3.52494">
        <ele>185.1</ele>
        <time>2025-02-26T09:13:47Z</time>
      </trkpt>
      <trkpt lat="48.05636" lon="-3.52494">
        <ele>185.1</ele>
        <time>2025-02-26T09:13:48Z</time>
      </trkpt>
      <trkpt lat="48.05636" lon="-3.52494">
        <ele>185.1</ele>
        <time>2025-02-26T09:13:49Z</time>
      </trkpt>
      <trkpt lat="48.05636" lon="-3.52494">
        <ele>185.1</ele>
        <time>2025-02-26T09:13:50Z</time>
      </trkpt>
      <trkpt lat="48.05636" lon="-3.52494">
        <ele>185.1</ele>
        <time>2025-02-26T09:13:51Z</time>
      </trkpt>
      <trkpt lat="48.05636" lon="-3.52494">
        <ele>185.1</ele>
        <time>2025-02-26T09:13:52Z</time>
      </trkpt>
      <trkpt lat="48.05636" lon="-3.52494">
        <ele>185.1</ele>
        <time>2025-02-26T09:13:53Z</time>
      </trkpt>
      <trkpt lat="48.05636" lon="-3.52494">
        <ele>185.1</ele>
        <time>2025-02-26T09:13:54Z</time>
      </trkpt>
      <trkpt lat="48.05637" lon="-3.52495">
        <ele>185.1</ele>
        <time>2025-02-26T09:13:55Z</time>
      </trkpt>
      <trkpt lat="48.05638" lon="-3.52496">
        <ele>185.1</ele>
        <time>2025-02-26T09:13:56Z</time>
      </trkpt>
      <trkpt lat="48.05639" lon="-3.52497">
        <ele>185.1</ele>
        <time>2025-02-26T09:13:57Z</time>
      </trkpt>
      <trkpt lat="48.05639" lon="-3.52498">
        <ele>185.1</ele>
        <time>2025-02-26T09:13:58Z</time>
      </trkpt>
      <trkpt lat="48.05639" lon="-3.52499">
        <ele>185</ele>
        <time>2025-02-26T09:13:59Z</time>
      </trkpt>
      <trkpt lat="48.0564" lon="-3.525">
        <ele>185</ele>
        <time>2025-02-26T09:14:00Z</time>
      </trkpt>
      <trkpt lat="48.05641" lon="-3.525">
        <ele>185</ele>
        <time>2025-02-26T09:14:01Z</time>
      </trkpt>
      <trkpt lat="48.05642" lon="-3.52501">
        <ele>185</ele>
        <time>2025-02-26T09:14:02Z</time>
      </trkpt>
      <trkpt lat="48.05643" lon="-3.52502">
        <ele>184.9</ele>
        <time>2025-02-26T09:14:03Z</time>
      </trkpt>
      <trkpt lat="48.05644" lon="-3.52502">
        <ele>184.9</ele>
        <time>2025-02-26T09:14:04Z</time>
      </trkpt>
      <trkpt lat="48.05645" lon="-3.52503">
        <ele>184.9</ele>
        <time>2025-02-26T09:14:05Z</time>
      </trkpt>
      <trkpt lat="48.05646" lon="-3.52504">
        <ele>184.8</ele>
        <time>2025-02-26T09:14:06Z</time>
      </trkpt>
      <trkpt lat="48.05647" lon="-3.52506">
        <ele>184.8</ele>
        <time>2025-02-26T09:14:07Z</time>
      </trkpt>
      <trkpt lat="48.05648" lon="-3.52507">
        <ele>184.7</ele>
        <time>2025-02-26T09:14:08Z</time>
      </trkpt>
      <trkpt lat="48.05649" lon="-3.52509">
        <ele>184.7</ele>
        <time>2025-02-26T09:14:09Z</time>
      </trkpt>
      <trkpt lat="48.05649" lon="-3.5251">
        <ele>184.7</ele>
        <time>2025-02-26T09:14:10Z</time>
      </trkpt>
      <trkpt lat="48.0565" lon="-3.52511">
        <ele>184.6</ele>
        <time>2025-02-26T09:14:11Z</time>
      </trkpt>
      <trkpt lat="48.05651" lon="-3.52512">
        <ele>184.6</ele>
        <time>2025-02-26T09:14:12Z</time>
      </trkpt>
      <trkpt lat="48.05651" lon="-3.52513">
        <ele>184.5</ele>
        <time>2025-02-26T09:14:13Z</time>
      </trkpt>
      <trkpt lat="48.05651" lon="-3.52514">
        <ele>184.5</ele>
        <time>2025-02-26T09:14:14Z</time>
      </trkpt>
      <trkpt lat="48.05652" lon="-3.52515">
        <ele>184.5</ele>
        <time>2025-02-26T09:14:15Z</time>
      </trkpt>
      <trkpt lat="48.05653" lon="-3.52515">
        <ele>184.4</ele>
        <time>2025-02-26T09:14:16Z</time>
      </trkpt>
      <trkpt lat="48.05655" lon="-3.52515">
        <ele>184.5</ele>
        <time>2025-02-26T09:14:17Z</time>
      </trkpt>
      <trkpt lat="48.05656" lon="-3.52515">
        <ele>184.5</ele>
        <time>2025-02-26T09:14:18Z</time>
      </trkpt>
      <trkpt lat="48.05658" lon="-3.52516">
        <ele>184.4</ele>
        <time>2025-02-26T09:14:19Z</time>
      </trkpt>
      <trkpt lat="48.05658" lon="-3.52518">
        <ele>184.4</ele>
        <time>2025-02-26T09:14:20Z</time>
      </trkpt>
      <trkpt lat="48.05659" lon="-3.52519">
        <ele>184.3</ele>
        <time>2025-02-26T09:14:21Z</time>
      </trkpt>
      <trkpt lat="48.05659" lon="-3.5252">
        <ele>184.3</ele>
        <time>2025-02-26T09:14:22Z</time>
      </trkpt>
      <trkpt lat="48.0566" lon="-3.52521">
        <ele>184.2</ele>
        <time>2025-02-26T09:14:23Z</time>
      </trkpt>
      <trkpt lat="48.0566" lon="-3.52523">
        <ele>184.2</ele>
        <time>2025-02-26T09:14:24Z</time>
      </trkpt>
      <trkpt lat="48.05661" lon="-3.52524">
        <ele>184.1</ele>
        <time>2025-02-26T09:14:25Z</time>
      </trkpt>
      <trkpt lat="48.05661" lon="-3.52525">
        <ele>184.1</ele>
        <time>2025-02-26T09:14:26Z</time>
      </trkpt>
      <trkpt lat="48.05662" lon="-3.52526">
        <ele>184.1</ele>
        <time>2025-02-26T09:14:27Z</time>
      </trkpt>
      <trkpt lat="48.05664" lon="-3.52525">
        <ele>184.1</ele>
        <time>2025-02-26T09:14:28Z</time>
      </trkpt>
      <trkpt lat="48.05665" lon="-3.52525">
        <ele>184.1</ele>
        <time>2025-02-26T09:14:29Z</time>
      </trkpt>
      <trkpt lat="48.05666" lon="-3.52524">
        <ele>184.1</ele>
        <time>2025-02-26T09:14:30Z</time>
      </trkpt>
      <trkpt lat="48.05667" lon="-3.52523">
        <ele>184.2</ele>
        <time>2025-02-26T09:14:31Z</time>
      </trkpt>
      <trkpt lat="48.05669" lon="-3.52523">
        <ele>184.2</ele>
        <time>2025-02-26T09:14:32Z</time>
      </trkpt>
      <trkpt lat="48.0567" lon="-3.52523">
        <ele>184.2</ele>
        <time>2025-02-26T09:14:33Z</time>
      </trkpt>
      <trkpt lat="48.05671" lon="-3.52524">
        <ele>184.1</ele>
        <time>2025-02-26T09:14:34Z</time>
      </trkpt>
      <trkpt lat="48.05673" lon="-3.52524">
        <ele>184.1</ele>
        <time>2025-02-26T09:14:35Z</time>
      </trkpt>
      <trkpt lat="48.05675" lon="-3.52525">
        <ele>184.1</ele>
        <time>2025-02-26T09:14:36Z</time>
      </trkpt>
      <trkpt lat="48.05677" lon="-3.52525">
        <ele>184.1</ele>
        <time>2025-02-26T09:14:37Z</time>
      </trkpt>
      <trkpt lat="48.05678" lon="-3.52526">
        <ele>184.1</ele>
        <time>2025-02-26T09:14:38Z</time>
      </trkpt>
      <trkpt lat="48.05679" lon="-3.52526">
        <ele>184.1</ele>
        <time>2025-02-26T09:14:39Z</time>
      </trkpt>
      <trkpt lat="48.0568" lon="-3.52525">
        <ele>184.1</ele>
        <time>2025-02-26T09:14:40Z</time>
      </trkpt>
      <trkpt lat="48.05681" lon="-3.52525">
        <ele>184.1</ele>
        <time>2025-02-26T09:14:41Z</time>
      </trkpt>
      <trkpt lat="48.05682" lon="-3.52525">
        <ele>184.1</ele>
        <time>2025-02-26T09:14:42Z</time>
      </trkpt>
      <trkpt lat="48.05684" lon="-3.52524">
        <ele>184.1</ele>
        <time>2025-02-26T09:14:43Z</time>
      </trkpt>
      <trkpt lat="48.05685" lon="-3.52523">
        <ele>184.2</ele>
        <time>2025-02-26T09:14:44Z</time>
      </trkpt>
      <trkpt lat="48.05686" lon="-3.52523">
        <ele>184.2</ele>
        <time>2025-02-26T09:14:45Z</time>
      </trkpt>
      <trkpt lat="48.05687" lon="-3.52522">
        <ele>184.2</ele>
        <time>2025-02-26T09:14:46Z</time>
      </trkpt>
      <trkpt lat="48.05688" lon="-3.52523">
        <ele>184.2</ele>
        <time>2025-02-26T09:14:47Z</time>
      </trkpt>
      <trkpt lat="48.0569" lon="-3.52523">
        <ele>184.2</ele>
        <time>2025-02-26T09:14:48Z</time>
      </trkpt>
      <trkpt lat="48.05691" lon="-3.52522">
        <ele>184.2</ele>
        <time>2025-02-26T09:14:49Z</time>
      </trkpt>
      <trkpt lat="48.05692" lon="-3.52522">
        <ele>184.2</ele>
        <time>2025-02-26T09:14:50Z</time>
      </trkpt>
      <trkpt lat="48.05693" lon="-3.52521">
        <ele>184.2</ele>
        <time>2025-02-26T09:14:51Z</time>
      </trkpt>
      <trkpt lat="48.05694" lon="-3.52521">
        <ele>184.2</ele>
        <time>2025-02-26T09:14:52Z</time>
      </trkpt>
      <trkpt lat="48.05695" lon="-3.5252">
        <ele>184.3</ele>
        <time>2025-02-26T09:14:53Z</time>
      </trkpt>
      <trkpt lat="48.05696" lon="-3.52519">
        <ele>184.3</ele>
        <time>2025-02-26T09:14:54Z</time>
      </trkpt>
      <trkpt lat="48.05697" lon="-3.52519">
        <ele>184.4</ele>
        <time>2025-02-26T09:14:55Z</time>
      </trkpt>
      <trkpt lat="48.05698" lon="-3.52519">
        <ele>184.4</ele>
        <time>2025-02-26T09:14:56Z</time>
      </trkpt>
      <trkpt lat="48.05699" lon="-3.52518">
        <ele>184.5</ele>
        <time>2025-02-26T09:14:57Z</time>
      </trkpt>
      <trkpt lat="48.057" lon="-3.52518">
        <ele>184.5</ele>
        <time>2025-02-26T09:14:58Z</time>
      </trkpt>
      <trkpt lat="48.05701" lon="-3.52518">
        <ele>184.5</ele>
        <time>2025-02-26T09:14:59Z</time>
      </trkpt>
      <trkpt lat="48.05702" lon="-3.52517">
        <ele>184.5</ele>
        <time>2025-02-26T09:15:00Z</time>
      </trkpt>
      <trkpt lat="48.05703" lon="-3.52517">
        <ele>184.6</ele>
        <time>2025-02-26T09:15:01Z</time>
      </trkpt>
      <trkpt lat="48.05704" lon="-3.52516">
        <ele>184.6</ele>
        <time>2025-02-26T09:15:02Z</time>
      </trkpt>
      <trkpt lat="48.05705" lon="-3.52516">
        <ele>184.6</ele>
        <time>2025-02-26T09:15:03Z</time>
      </trkpt>
      <trkpt lat="48.05706" lon="-3.52516">
        <ele>184.7</ele>
        <time>2025-02-26T09:15:04Z</time>
      </trkpt>
      <trkpt lat="48.05708" lon="-3.52516">
        <ele>184.7</ele>
        <time>2025-02-26T09:15:05Z</time>
      </trkpt>
      <trkpt lat="48.05709" lon="-3.52515">
        <ele>184.7</ele>
        <time>2025-02-26T09:15:06Z</time>
      </trkpt>
      <trkpt lat="48.0571" lon="-3.52515">
        <ele>184.8</ele>
        <time>2025-02-26T09:15:07Z</time>
      </trkpt>
      <trkpt lat="48.05711" lon="-3.52513">
        <ele>184.8</ele>
        <time>2025-02-26T09:15:08Z</time>
      </trkpt>
      <trkpt lat="48.05712" lon="-3.52513">
        <ele>184.8</ele>
        <time>2025-02-26T09:15:09Z</time>
      </trkpt>
      <trkpt lat="48.05714" lon="-3.52513">
        <ele>184.9</ele>
        <time>2025-02-26T09:15:10Z</time>
      </trkpt>
      <trkpt lat="48.05715" lon="-3.52513">
        <ele>184.9</ele>
        <time>2025-02-26T09:15:11Z</time>
      </trkpt>
      <trkpt lat="48.05716" lon="-3.52513">
        <ele>184.9</ele>
        <time>2025-02-26T09:15:12Z</time>
      </trkpt>
      <trkpt lat="48.05718" lon="-3.52513">
        <ele>184.9</ele>
        <time>2025-02-26T09:15:13Z</time>
      </trkpt>
      <trkpt lat="48.05719" lon="-3.52512">
        <ele>185</ele>
        <time>2025-02-26T09:15:14Z</time>
      </trkpt>
      <trkpt lat="48.05721" lon="-3.52512">
        <ele>185</ele>
        <time>2025-02-26T09:15:15Z</time>
      </trkpt>
      <trkpt lat="48.05722" lon="-3.52512">
        <ele>185</ele>
        <time>2025-02-26T09:15:16Z</time>
      </trkpt>
      <trkpt lat="48.05723" lon="-3.52512">
        <ele>185</ele>
        <time>2025-02-26T09:15:17Z</time>
      </trkpt>
      <trkpt lat="48.05724" lon="-3.52512">
        <ele>185</ele>
        <time>2025-02-26T09:15:18Z</time>
      </trkpt>
      <trkpt lat="48.05726" lon="-3.52512">
        <ele>185.1</ele>
        <time>2025-02-26T09:15:19Z</time>
      </trkpt>
      <trkpt lat="48.05727" lon="-3.52512">
        <ele>185.1</ele>
        <time>2025-02-26T09:15:20Z</time>
      </trkpt>
      <trkpt lat="48.05728" lon="-3.52512">
        <ele>185.1</ele>
        <time>2025-02-26T09:15:21Z</time>
      </trkpt>
      <trkpt lat="48.05729" lon="-3.52512">
        <ele>185.1</ele>
        <time>2025-02-26T09:15:22Z</time>
      </trkpt>
      <trkpt lat="48.0573" lon="-3.52512">
        <ele>185.2</ele>
        <time>2025-02-26T09:15:23Z</time>
      </trkpt>
      <trkpt lat="48.05731" lon="-3.52511">
        <ele>185.2</ele>
        <time>2025-02-26T09:15:24Z</time>
      </trkpt>
      <trkpt lat="48.05733" lon="-3.52513">
        <ele>185.2</ele>
        <time>2025-02-26T09:15:25Z</time>
      </trkpt>
      <trkpt lat="48.05734" lon="-3.52513">
        <ele>185.2</ele>
        <time>2025-02-26T09:15:26Z</time>
      </trkpt>
      <trkpt lat="48.05735" lon="-3.52512">
        <ele>185.3</ele>
        <time>2025-02-26T09:15:27Z</time>
      </trkpt>
      <trkpt lat="48.05736" lon="-3.52511">
        <ele>185.3</ele>
        <time>2025-02-26T09:15:28Z</time>
      </trkpt>
      <trkpt lat="48.05736" lon="-3.5251">
        <ele>185.3</ele>
        <time>2025-02-26T09:15:29Z</time>
      </trkpt>
      <trkpt lat="48.05737" lon="-3.5251">
        <ele>185.3</ele>
        <time>2025-02-26T09:15:30Z</time>
      </trkpt>
      <trkpt lat="48.05738" lon="-3.5251">
        <ele>185.4</ele>
        <time>2025-02-26T09:15:31Z</time>
      </trkpt>
      <trkpt lat="48.0574" lon="-3.52509">
        <ele>185.4</ele>
        <time>2025-02-26T09:15:32Z</time>
      </trkpt>
      <trkpt lat="48.05741" lon="-3.52508">
        <ele>185.5</ele>
        <time>2025-02-26T09:15:33Z</time>
      </trkpt>
      <trkpt lat="48.05741" lon="-3.52506">
        <ele>185.6</ele>
        <time>2025-02-26T09:15:34Z</time>
      </trkpt>
      <trkpt lat="48.05743" lon="-3.52505">
        <ele>185.6</ele>
        <time>2025-02-26T09:15:35Z</time>
      </trkpt>
      <trkpt lat="48.05744" lon="-3.52504">
        <ele>185.7</ele>
        <time>2025-02-26T09:15:36Z</time>
      </trkpt>
      <trkpt lat="48.05745" lon="-3.52504">
        <ele>185.7</ele>
        <time>2025-02-26T09:15:37Z</time>
      </trkpt>
      <trkpt lat="48.05746" lon="-3.52503">
        <ele>185.8</ele>
        <time>2025-02-26T09:15:38Z</time>
      </trkpt>
      <trkpt lat="48.05747" lon="-3.52503">
        <ele>185.8</ele>
        <time>2025-02-26T09:15:39Z</time>
      </trkpt>
      <trkpt lat="48.05748" lon="-3.52503">
        <ele>185.8</ele>
        <time>2025-02-26T09:15:40Z</time>
      </trkpt>
      <trkpt lat="48.05749" lon="-3.52502">
        <ele>185.9</ele>
        <time>2025-02-26T09:15:41Z</time>
      </trkpt>
      <trkpt lat="48.0575" lon="-3.52502">
        <ele>185.9</ele>
        <time>2025-02-26T09:15:42Z</time>
      </trkpt>
      <trkpt lat="48.05751" lon="-3.52502">
        <ele>185.9</ele>
        <time>2025-02-26T09:15:43Z</time>
      </trkpt>
      <trkpt lat="48.05752" lon="-3.52502">
        <ele>185.9</ele>
        <time>2025-02-26T09:15:44Z</time>
      </trkpt>
      <trkpt lat="48.05753" lon="-3.52501">
        <ele>185.9</ele>
        <time>2025-02-26T09:15:45Z</time>
      </trkpt>
      <trkpt lat="48.05755" lon="-3.52501">
        <ele>186</ele>
        <time>2025-02-26T09:15:46Z</time>
      </trkpt>
      <trkpt lat="48.05756" lon="-3.525">
        <ele>186</ele>
        <time>2025-02-26T09:15:47Z</time>
      </trkpt>
      <trkpt lat="48.05756" lon="-3.52499">
        <ele>186</ele>
        <time>2025-02-26T09:15:48Z</time>
      </trkpt>
      <trkpt lat="48.05758" lon="-3.52498">
        <ele>186</ele>
        <time>2025-02-26T09:15:49Z</time>
      </trkpt>
      <trkpt lat="48.05759" lon="-3.52498">
        <ele>186</ele>
        <time>2025-02-26T09:15:50Z</time>
      </trkpt>
      <trkpt lat="48.0576" lon="-3.52498">
        <ele>186</ele>
        <time>2025-02-26T09:15:51Z</time>
      </trkpt>
      <trkpt lat="48.05761" lon="-3.52498">
        <ele>186</ele>
        <time>2025-02-26T09:15:52Z</time>
      </trkpt>
      <trkpt lat="48.05762" lon="-3.52497">
        <ele>186</ele>
        <time>2025-02-26T09:15:53Z</time>
      </trkpt>
      <trkpt lat="48.05763" lon="-3.52496">
        <ele>186</ele>
        <time>2025-02-26T09:15:54Z</time>
      </trkpt>
      <trkpt lat="48.05764" lon="-3.52495">
        <ele>186</ele>
        <time>2025-02-26T09:15:55Z</time>
      </trkpt>
      <trkpt lat="48.05765" lon="-3.52494">
        <ele>186</ele>
        <time>2025-02-26T09:15:56Z</time>
      </trkpt>
      <trkpt lat="48.05767" lon="-3.52493">
        <ele>186</ele>
        <time>2025-02-26T09:15:57Z</time>
      </trkpt>
      <trkpt lat="48.05768" lon="-3.52491">
        <ele>186</ele>
        <time>2025-02-26T09:15:58Z</time>
      </trkpt>
      <trkpt lat="48.05769" lon="-3.5249">
        <ele>186</ele>
        <time>2025-02-26T09:15:59Z</time>
      </trkpt>
      <trkpt lat="48.0577" lon="-3.52489">
        <ele>186</ele>
        <time>2025-02-26T09:16:00Z</time>
      </trkpt>
      <trkpt lat="48.05771" lon="-3.52488">
        <ele>186</ele>
        <time>2025-02-26T09:16:01Z</time>
      </trkpt>
      <trkpt lat="48.05772" lon="-3.52486">
        <ele>186</ele>
        <time>2025-02-26T09:16:02Z</time>
      </trkpt>
      <trkpt lat="48.05773" lon="-3.52485">
        <ele>186</ele>
        <time>2025-02-26T09:16:03Z</time>
      </trkpt>
      <trkpt lat="48.05773" lon="-3.52483">
        <ele>186</ele>
        <time>2025-02-26T09:16:04Z</time>
      </trkpt>
      <trkpt lat="48.05775" lon="-3.52482">
        <ele>186</ele>
        <time>2025-02-26T09:16:05Z</time>
      </trkpt>
      <trkpt lat="48.05776" lon="-3.52481">
        <ele>186</ele>
        <time>2025-02-26T09:16:06Z</time>
      </trkpt>
      <trkpt lat="48.05777" lon="-3.52479">
        <ele>186</ele>
        <time>2025-02-26T09:16:07Z</time>
      </trkpt>
      <trkpt lat="48.05778" lon="-3.52478">
        <ele>186</ele>
        <time>2025-02-26T09:16:08Z</time>
      </trkpt>
      <trkpt lat="48.05779" lon="-3.52476">
        <ele>186</ele>
        <time>2025-02-26T09:16:09Z</time>
      </trkpt>
      <trkpt lat="48.0578" lon="-3.52474">
        <ele>186</ele>
        <time>2025-02-26T09:16:10Z</time>
      </trkpt>
      <trkpt lat="48.0578" lon="-3.52473">
        <ele>186</ele>
        <time>2025-02-26T09:16:11Z</time>
      </trkpt>
      <trkpt lat="48.05781" lon="-3.52471">
        <ele>186</ele>
        <time>2025-02-26T09:16:12Z</time>
      </trkpt>
      <trkpt lat="48.05781" lon="-3.52469">
        <ele>186.1</ele>
        <time>2025-02-26T09:16:13Z</time>
      </trkpt>
      <trkpt lat="48.05782" lon="-3.52468">
        <ele>186.2</ele>
        <time>2025-02-26T09:16:14Z</time>
      </trkpt>
      <trkpt lat="48.05783" lon="-3.52466">
        <ele>186.2</ele>
        <time>2025-02-26T09:16:15Z</time>
      </trkpt>
      <trkpt lat="48.05784" lon="-3.52466">
        <ele>186.2</ele>
        <time>2025-02-26T09:16:16Z</time>
      </trkpt>
      <trkpt lat="48.05785" lon="-3.52465">
        <ele>186.2</ele>
        <time>2025-02-26T09:16:17Z</time>
      </trkpt>
      <trkpt lat="48.05786" lon="-3.52465">
        <ele>186.3</ele>
        <time>2025-02-26T09:16:18Z</time>
      </trkpt>
      <trkpt lat="48.05787" lon="-3.52463">
        <ele>186.4</ele>
        <time>2025-02-26T09:16:19Z</time>
      </trkpt>
      <trkpt lat="48.05787" lon="-3.52461">
        <ele>186.4</ele>
        <time>2025-02-26T09:16:20Z</time>
      </trkpt>
      <trkpt lat="48.05787" lon="-3.52459">
        <ele>186.5</ele>
        <time>2025-02-26T09:16:21Z</time>
      </trkpt>
      <trkpt lat="48.05787" lon="-3.52457">
        <ele>186.5</ele>
        <time>2025-02-26T09:16:22Z</time>
      </trkpt>
      <trkpt lat="48.05787" lon="-3.52455">
        <ele>186.6</ele>
        <time>2025-02-26T09:16:23Z</time>
      </trkpt>
      <trkpt lat="48.05787" lon="-3.52454">
        <ele>186.7</ele>
        <time>2025-02-26T09:16:24Z</time>
      </trkpt>
      <trkpt lat="48.05787" lon="-3.52452">
        <ele>186.7</ele>
        <time>2025-02-26T09:16:25Z</time>
      </trkpt>
      <trkpt lat="48.05787" lon="-3.5245">
        <ele>186.8</ele>
        <time>2025-02-26T09:16:26Z</time>
      </trkpt>
      <trkpt lat="48.05789" lon="-3.52449">
        <ele>186.9</ele>
        <time>2025-02-26T09:16:27Z</time>
      </trkpt>
      <trkpt lat="48.0579" lon="-3.52447">
        <ele>186.9</ele>
        <time>2025-02-26T09:16:28Z</time>
      </trkpt>
      <trkpt lat="48.0579" lon="-3.52446">
        <ele>186.9</ele>
        <time>2025-02-26T09:16:29Z</time>
      </trkpt>
      <trkpt lat="48.05791" lon="-3.52446">
        <ele>187</ele>
        <time>2025-02-26T09:16:30Z</time>
      </trkpt>
      <trkpt lat="48.05792" lon="-3.52445">
        <ele>187</ele>
        <time>2025-02-26T09:16:31Z</time>
      </trkpt>
      <trkpt lat="48.05794" lon="-3.52445">
        <ele>187</ele>
        <time>2025-02-26T09:16:32Z</time>
      </trkpt>
      <trkpt lat="48.05795" lon="-3.52445">
        <ele>187</ele>
        <time>2025-02-26T09:16:33Z</time>
      </trkpt>
      <trkpt lat="48.05796" lon="-3.52445">
        <ele>187</ele>
        <time>2025-02-26T09:16:34Z</time>
      </trkpt>
      <trkpt lat="48.05797" lon="-3.52445">
        <ele>187</ele>
        <time>2025-02-26T09:16:35Z</time>
      </trkpt>
      <trkpt lat="48.05798" lon="-3.52445">
        <ele>187</ele>
        <time>2025-02-26T09:16:36Z</time>
      </trkpt>
      <trkpt lat="48.05799" lon="-3.52444">
        <ele>187</ele>
        <time>2025-02-26T09:16:37Z</time>
      </trkpt>
      <trkpt lat="48.058" lon="-3.52444">
        <ele>187</ele>
        <time>2025-02-26T09:16:38Z</time>
      </trkpt>
      <trkpt lat="48.05802" lon="-3.52444">
        <ele>187</ele>
        <time>2025-02-26T09:16:39Z</time>
      </trkpt>
      <trkpt lat="48.05803" lon="-3.52444">
        <ele>187</ele>
        <time>2025-02-26T09:16:40Z</time>
      </trkpt>
      <trkpt lat="48.05804" lon="-3.52444">
        <ele>187</ele>
        <time>2025-02-26T09:16:41Z</time>
      </trkpt>
      <trkpt lat="48.05805" lon="-3.52444">
        <ele>187</ele>
        <time>2025-02-26T09:16:42Z</time>
      </trkpt>
      <trkpt lat="48.05806" lon="-3.52443">
        <ele>187.1</ele>
        <time>2025-02-26T09:16:43Z</time>
      </trkpt>
      <trkpt lat="48.05807" lon="-3.52442">
        <ele>187.1</ele>
        <time>2025-02-26T09:16:44Z</time>
      </trkpt>
      <trkpt lat="48.05808" lon="-3.52442">
        <ele>187.1</ele>
        <time>2025-02-26T09:16:45Z</time>
      </trkpt>
      <trkpt lat="48.05809" lon="-3.52441">
        <ele>187.1</ele>
        <time>2025-02-26T09:16:46Z</time>
      </trkpt>
      <trkpt lat="48.0581" lon="-3.52441">
        <ele>187.1</ele>
        <time>2025-02-26T09:16:47Z</time>
      </trkpt>
      <trkpt lat="48.05811" lon="-3.52439">
        <ele>187.2</ele>
        <time>2025-02-26T09:16:48Z</time>
      </trkpt>
      <trkpt lat="48.05812" lon="-3.52438">
        <ele>187.2</ele>
        <time>2025-02-26T09:16:49Z</time>
      </trkpt>
      <trkpt lat="48.05813" lon="-3.52437">
        <ele>187.3</ele>
        <time>2025-02-26T09:16:50Z</time>
      </trkpt>
      <trkpt lat="48.05814" lon="-3.52435">
        <ele>187.4</ele>
        <time>2025-02-26T09:16:51Z</time>
      </trkpt>
      <trkpt lat="48.05813" lon="-3.52435">
        <ele>187.4</ele>
        <time>2025-02-26T09:16:52Z</time>
      </trkpt>
      <trkpt lat="48.05813" lon="-3.52435">
        <ele>187.3</ele>
        <time>2025-02-26T09:16:53Z</time>
      </trkpt>
      <trkpt lat="48.05813" lon="-3.52435">
        <ele>187.3</ele>
        <time>2025-02-26T09:16:54Z</time>
      </trkpt>
      <trkpt lat="48.05813" lon="-3.52435">
        <ele>187.3</ele>
        <time>2025-02-26T09:16:55Z</time>
      </trkpt>
      <trkpt lat="48.05813" lon="-3.52435">
        <ele>187.3</ele>
        <time>2025-02-26T09:16:56Z</time>
      </trkpt>
      <trkpt lat="48.05813" lon="-3.52435">
        <ele>187.3</ele>
        <time>2025-02-26T09:16:57Z</time>
      </trkpt>
      <trkpt lat="48.05813" lon="-3.52435">
        <ele>187.3</ele>
        <time>2025-02-26T09:16:58Z</time>
      </trkpt>
      <trkpt lat="48.05813" lon="-3.52435">
        <ele>187.3</ele>
        <time>2025-02-26T09:16:59Z</time>
      </trkpt>
      <trkpt lat="48.05813" lon="-3.52435">
        <ele>187.3</ele>
        <time>2025-02-26T09:17:00Z</time>
      </trkpt>
      <trkpt lat="48.05814" lon="-3.52435">
        <ele>187.3</ele>
        <time>2025-02-26T09:17:01Z</time>
      </trkpt>
      <trkpt lat="48.05814" lon="-3.52435">
        <ele>187.4</ele>
        <time>2025-02-26T09:17:02Z</time>
      </trkpt>
      <trkpt lat="48.05813" lon="-3.52435">
        <ele>187.4</ele>
        <time>2025-02-26T09:17:03Z</time>
      </trkpt>
      <trkpt lat="48.05814" lon="-3.52435">
        <ele>187.3</ele>
        <time>2025-02-26T09:17:04Z</time>
      </trkpt>
      <trkpt lat="48.05814" lon="-3.52435">
        <ele>187.3</ele>
        <time>2025-02-26T09:17:05Z</time>
      </trkpt>
      <trkpt lat="48.05814" lon="-3.52435">
        <ele>187.3</ele>
        <time>2025-02-26T09:17:06Z</time>
      </trkpt>
      <trkpt lat="48.05814" lon="-3.52435">
        <ele>187.3</ele>
        <time>2025-02-26T09:17:07Z</time>
      </trkpt>
      <trkpt lat="48.05814" lon="-3.52435">
        <ele>187.3</ele>
        <time>2025-02-26T09:17:08Z</time>
      </trkpt>
      <trkpt lat="48.05814" lon="-3.52437">
        <ele>187.3</ele>
        <time>2025-02-26T09:17:09Z</time>
      </trkpt>
      <trkpt lat="48.05815" lon="-3.52438">
        <ele>187.2</ele>
        <time>2025-02-26T09:17:10Z</time>
      </trkpt>
      <trkpt lat="48.05814" lon="-3.52439">
        <ele>187.2</ele>
        <time>2025-02-26T09:17:11Z</time>
      </trkpt>
      <trkpt lat="48.05814" lon="-3.5244">
        <ele>187.1</ele>
        <time>2025-02-26T09:17:12Z</time>
      </trkpt>
      <trkpt lat="48.05814" lon="-3.52442">
        <ele>187.1</ele>
        <time>2025-02-26T09:17:13Z</time>
      </trkpt>
      <trkpt lat="48.05813" lon="-3.52444">
        <ele>187</ele>
        <time>2025-02-26T09:17:14Z</time>
      </trkpt>
      <trkpt lat="48.05813" lon="-3.52445">
        <ele>187</ele>
        <time>2025-02-26T09:17:15Z</time>
      </trkpt>
      <trkpt lat="48.05812" lon="-3.52447">
        <ele>186.9</ele>
        <time>2025-02-26T09:17:16Z</time>
      </trkpt>
      <trkpt lat="48.05812" lon="-3.52448">
        <ele>186.9</ele>
        <time>2025-02-26T09:17:17Z</time>
      </trkpt>
      <trkpt lat="48.05811" lon="-3.5245">
        <ele>186.8</ele>
        <time>2025-02-26T09:17:18Z</time>
      </trkpt>
      <trkpt lat="48.0581" lon="-3.52451">
        <ele>186.8</ele>
        <time>2025-02-26T09:17:19Z</time>
      </trkpt>
      <trkpt lat="48.0581" lon="-3.52453">
        <ele>186.7</ele>
        <time>2025-02-26T09:17:20Z</time>
      </trkpt>
      <trkpt lat="48.05811" lon="-3.52455">
        <ele>186.7</ele>
        <time>2025-02-26T09:17:21Z</time>
      </trkpt>
      <trkpt lat="48.05812" lon="-3.52457">
        <ele>186.7</ele>
        <time>2025-02-26T09:17:22Z</time>
      </trkpt>
      <trkpt lat="48.05812" lon="-3.52458">
        <ele>186.6</ele>
        <time>2025-02-26T09:17:23Z</time>
      </trkpt>
      <trkpt lat="48.05812" lon="-3.5246">
        <ele>186.6</ele>
        <time>2025-02-26T09:17:24Z</time>
      </trkpt>
      <trkpt lat="48.05812" lon="-3.52462">
        <ele>186.5</ele>
        <time>2025-02-26T09:17:25Z</time>
      </trkpt>
      <trkpt lat="48.05812" lon="-3.52464">
        <ele>186.5</ele>
        <time>2025-02-26T09:17:26Z</time>
      </trkpt>
      <trkpt lat="48.05812" lon="-3.52465">
        <ele>186.4</ele>
        <time>2025-02-26T09:17:27Z</time>
      </trkpt>
      <trkpt lat="48.05812" lon="-3.52467">
        <ele>186.4</ele>
        <time>2025-02-26T09:17:28Z</time>
      </trkpt>
      <trkpt lat="48.05812" lon="-3.52469">
        <ele>186.3</ele>
        <time>2025-02-26T09:17:29Z</time>
      </trkpt>
      <trkpt lat="48.05812" lon="-3.52471">
        <ele>186.3</ele>
        <time>2025-02-26T09:17:30Z</time>
      </trkpt>
      <trkpt lat="48.05813" lon="-3.52472">
        <ele>186.3</ele>
        <time>2025-02-26T09:17:31Z</time>
      </trkpt>
      <trkpt lat="48.05813" lon="-3.52474">
        <ele>186.2</ele>
        <time>2025-02-26T09:17:32Z</time>
      </trkpt>
      <trkpt lat="48.05813" lon="-3.52476">
        <ele>186.2</ele>
        <time>2025-02-26T09:17:33Z</time>
      </trkpt>
      <trkpt lat="48.05813" lon="-3.52478">
        <ele>186.2</ele>
        <time>2025-02-26T09:17:34Z</time>
      </trkpt>
      <trkpt lat="48.05813" lon="-3.52479">
        <ele>186.2</ele>
        <time>2025-02-26T09:17:35Z</time>
      </trkpt>
      <trkpt lat="48.05814" lon="-3.52481">
        <ele>186.2</ele>
        <time>2025-02-26T09:17:36Z</time>
      </trkpt>
      <trkpt lat="48.05815" lon="-3.52482">
        <ele>186.2</ele>
        <time>2025-02-26T09:17:37Z</time>
      </trkpt>
      <trkpt lat="48.05815" lon="-3.52484">
        <ele>186.2</ele>
        <time>2025-02-26T09:17:38Z</time>
      </trkpt>
      <trkpt lat="48.05815" lon="-3.52486">
        <ele>186.2</ele>
        <time>2025-02-26T09:17:39Z</time>
      </trkpt>
      <trkpt lat="48.05815" lon="-3.52487">
        <ele>186.1</ele>
        <time>2025-02-26T09:17:40Z</time>
      </trkpt>
      <trkpt lat="48.05814" lon="-3.5249">
        <ele>186.1</ele>
        <time>2025-02-26T09:17:41Z</time>
      </trkpt>
      <trkpt lat="48.05814" lon="-3.52491">
        <ele>186.1</ele>
        <time>2025-02-26T09:17:42Z</time>
      </trkpt>
      <trkpt lat="48.05814" lon="-3.52493">
        <ele>186.1</ele>
        <time>2025-02-26T09:17:43Z</time>
      </trkpt>
      <trkpt lat="48.05815" lon="-3.52494">
        <ele>186.1</ele>
        <time>2025-02-26T09:17:44Z</time>
      </trkpt>
      <trkpt lat="48.05816" lon="-3.52495">
        <ele>186.1</ele>
        <time>2025-02-26T09:17:45Z</time>
      </trkpt>
      <trkpt lat="48.05817" lon="-3.52495">
        <ele>186.1</ele>
        <time>2025-02-26T09:17:46Z</time>
      </trkpt>
      <trkpt lat="48.05818" lon="-3.52497">
        <ele>186</ele>
        <time>2025-02-26T09:17:47Z</time>
      </trkpt>
      <trkpt lat="48.05819" lon="-3.525">
        <ele>186</ele>
        <time>2025-02-26T09:17:48Z</time>
      </trkpt>
      <trkpt lat="48.0582" lon="-3.52502">
        <ele>185.9</ele>
        <time>2025-02-26T09:17:49Z</time>
      </trkpt>
      <trkpt lat="48.0582" lon="-3.52504">
        <ele>185.9</ele>
        <time>2025-02-26T09:17:50Z</time>
      </trkpt>
      <trkpt lat="48.05821" lon="-3.52506">
        <ele>185.8</ele>
        <time>2025-02-26T09:17:51Z</time>
      </trkpt>
      <trkpt lat="48.05822" lon="-3.52508">
        <ele>185.7</ele>
        <time>2025-02-26T09:17:52Z</time>
      </trkpt>
      <trkpt lat="48.05822" lon="-3.5251">
        <ele>185.6</ele>
        <time>2025-02-26T09:17:53Z</time>
      </trkpt>
      <trkpt lat="48.05823" lon="-3.52512">
        <ele>185.6</ele>
        <time>2025-02-26T09:17:54Z</time>
      </trkpt>
      <trkpt lat="48.05824" lon="-3.52514">
        <ele>185.5</ele>
        <time>2025-02-26T09:17:55Z</time>
      </trkpt>
      <trkpt lat="48.05826" lon="-3.52514">
        <ele>185.5</ele>
        <time>2025-02-26T09:17:56Z</time>
      </trkpt>
      <trkpt lat="48.05827" lon="-3.52514">
        <ele>185.5</ele>
        <time>2025-02-26T09:17:57Z</time>
      </trkpt>
      <trkpt lat="48.05829" lon="-3.52515">
        <ele>185.5</ele>
        <time>2025-02-26T09:17:58Z</time>
      </trkpt>
      <trkpt lat="48.0583" lon="-3.52514">
        <ele>185.5</ele>
        <time>2025-02-26T09:17:59Z</time>
      </trkpt>
      <trkpt lat="48.05831" lon="-3.52515">
        <ele>185.5</ele>
        <time>2025-02-26T09:18:00Z</time>
      </trkpt>
      <trkpt lat="48.05832" lon="-3.52515">
        <ele>185.4</ele>
        <time>2025-02-26T09:18:01Z</time>
      </trkpt>
      <trkpt lat="48.05833" lon="-3.52516">
        <ele>185.4</ele>
        <time>2025-02-26T09:18:02Z</time>
      </trkpt>
      <trkpt lat="48.05835" lon="-3.52516">
        <ele>185.4</ele>
        <time>2025-02-26T09:18:03Z</time>
      </trkpt>
      <trkpt lat="48.05836" lon="-3.52517">
        <ele>185.4</ele>
        <time>2025-02-26T09:18:04Z</time>
      </trkpt>
      <trkpt lat="48.05837" lon="-3.52517">
        <ele>185.3</ele>
        <time>2025-02-26T09:18:05Z</time>
      </trkpt>
      <trkpt lat="48.05838" lon="-3.52517">
        <ele>185.3</ele>
        <time>2025-02-26T09:18:06Z</time>
      </trkpt>
      <trkpt lat="48.0584" lon="-3.52518">
        <ele>185.2</ele>
        <time>2025-02-26T09:18:07Z</time>
      </trkpt>
      <trkpt lat="48.05841" lon="-3.52518">
        <ele>185.2</ele>
        <time>2025-02-26T09:18:08Z</time>
      </trkpt>
      <trkpt lat="48.05842" lon="-3.52518">
        <ele>185.2</ele>
        <time>2025-02-26T09:18:09Z</time>
      </trkpt>
      <trkpt lat="48.05844" lon="-3.52517">
        <ele>185.1</ele>
        <time>2025-02-26T09:18:10Z</time>
      </trkpt>
      <trkpt lat="48.05845" lon="-3.52518">
        <ele>185.1</ele>
        <time>2025-02-26T09:18:11Z</time>
      </trkpt>
      <trkpt lat="48.05846" lon="-3.52518">
        <ele>185.1</ele>
        <time>2025-02-26T09:18:12Z</time>
      </trkpt>
      <trkpt lat="48.05848" lon="-3.52517">
        <ele>185.1</ele>
        <time>2025-02-26T09:18:13Z</time>
      </trkpt>
      <trkpt lat="48.05849" lon="-3.52517">
        <ele>185</ele>
        <time>2025-02-26T09:18:14Z</time>
      </trkpt>
      <trkpt lat="48.0585" lon="-3.52517">
        <ele>185</ele>
        <time>2025-02-26T09:18:15Z</time>
      </trkpt>
      <trkpt lat="48.05852" lon="-3.52518">
        <ele>185</ele>
        <time>2025-02-26T09:18:16Z</time>
      </trkpt>
      <trkpt lat="48.05853" lon="-3.52518">
        <ele>184.9</ele>
        <time>2025-02-26T09:18:17Z</time>
      </trkpt>
      <trkpt lat="48.05854" lon="-3.52518">
        <ele>184.9</ele>
        <time>2025-02-26T09:18:18Z</time>
      </trkpt>
      <trkpt lat="48.05855" lon="-3.52518">
        <ele>184.8</ele>
        <time>2025-02-26T09:18:19Z</time>
      </trkpt>
      <trkpt lat="48.05857" lon="-3.52519">
        <ele>184.8</ele>
        <time>2025-02-26T09:18:20Z</time>
      </trkpt>
      <trkpt lat="48.05858" lon="-3.5252">
        <ele>184.7</ele>
        <time>2025-02-26T09:18:21Z</time>
      </trkpt>
      <trkpt lat="48.05859" lon="-3.5252">
        <ele>184.7</ele>
        <time>2025-02-26T09:18:22Z</time>
      </trkpt>
      <trkpt lat="48.0586" lon="-3.5252">
        <ele>184.6</ele>
        <time>2025-02-26T09:18:23Z</time>
      </trkpt>
      <trkpt lat="48.05861" lon="-3.5252">
        <ele>184.6</ele>
        <time>2025-02-26T09:18:24Z</time>
      </trkpt>
      <trkpt lat="48.05862" lon="-3.5252">
        <ele>184.6</ele>
        <time>2025-02-26T09:18:25Z</time>
      </trkpt>
      <trkpt lat="48.05863" lon="-3.5252">
        <ele>184.6</ele>
        <time>2025-02-26T09:18:26Z</time>
      </trkpt>
      <trkpt lat="48.05864" lon="-3.5252">
        <ele>184.7</ele>
        <time>2025-02-26T09:18:27Z</time>
      </trkpt>
      <trkpt lat="48.05866" lon="-3.52519">
        <ele>184.7</ele>
        <time>2025-02-26T09:18:28Z</time>
      </trkpt>
      <trkpt lat="48.05867" lon="-3.52519">
        <ele>184.8</ele>
        <time>2025-02-26T09:18:29Z</time>
      </trkpt>
      <trkpt lat="48.05868" lon="-3.52519">
        <ele>184.8</ele>
        <time>2025-02-26T09:18:30Z</time>
      </trkpt>
      <trkpt lat="48.05869" lon="-3.52519">
        <ele>184.8</ele>
        <time>2025-02-26T09:18:31Z</time>
      </trkpt>
      <trkpt lat="48.0587" lon="-3.52519">
        <ele>184.9</ele>
        <time>2025-02-26T09:18:32Z</time>
      </trkpt>
      <trkpt lat="48.05871" lon="-3.52519">
        <ele>184.9</ele>
        <time>2025-02-26T09:18:33Z</time>
      </trkpt>
      <trkpt lat="48.05872" lon="-3.52519">
        <ele>184.9</ele>
        <time>2025-02-26T09:18:34Z</time>
      </trkpt>
      <trkpt lat="48.05873" lon="-3.5252">
        <ele>184.9</ele>
        <time>2025-02-26T09:18:35Z</time>
      </trkpt>
      <trkpt lat="48.05875" lon="-3.52519">
        <ele>185</ele>
        <time>2025-02-26T09:18:36Z</time>
      </trkpt>
      <trkpt lat="48.05876" lon="-3.52519">
        <ele>185</ele>
        <time>2025-02-26T09:18:37Z</time>
      </trkpt>
      <trkpt lat="48.05877" lon="-3.5252">
        <ele>184.9</ele>
        <time>2025-02-26T09:18:38Z</time>
      </trkpt>
      <trkpt lat="48.05878" lon="-3.52521">
        <ele>185</ele>
        <time>2025-02-26T09:18:39Z</time>
      </trkpt>
      <trkpt lat="48.05879" lon="-3.52521">
        <ele>185</ele>
        <time>2025-02-26T09:18:40Z</time>
      </trkpt>
      <trkpt lat="48.0588" lon="-3.52522">
        <ele>185</ele>
        <time>2025-02-26T09:18:41Z</time>
      </trkpt>
      <trkpt lat="48.05881" lon="-3.52522">
        <ele>185</ele>
        <time>2025-02-26T09:18:42Z</time>
      </trkpt>
      <trkpt lat="48.05882" lon="-3.52523">
        <ele>185</ele>
        <time>2025-02-26T09:18:43Z</time>
      </trkpt>
      <trkpt lat="48.05883" lon="-3.52524">
        <ele>185</ele>
        <time>2025-02-26T09:18:44Z</time>
      </trkpt>
      <trkpt lat="48.05884" lon="-3.52524">
        <ele>185</ele>
        <time>2025-02-26T09:18:45Z</time>
      </trkpt>
      <trkpt lat="48.05884" lon="-3.52525">
        <ele>184.9</ele>
        <time>2025-02-26T09:18:46Z</time>
      </trkpt>
      <trkpt lat="48.05885" lon="-3.52527">
        <ele>184.9</ele>
        <time>2025-02-26T09:18:47Z</time>
      </trkpt>
      <trkpt lat="48.05886" lon="-3.52528">
        <ele>184.9</ele>
        <time>2025-02-26T09:18:48Z</time>
      </trkpt>
      <trkpt lat="48.05887" lon="-3.5253">
        <ele>184.9</ele>
        <time>2025-02-26T09:18:49Z</time>
      </trkpt>
      <trkpt lat="48.05887" lon="-3.52532">
        <ele>184.8</ele>
        <time>2025-02-26T09:18:50Z</time>
      </trkpt>
      <trkpt lat="48.05888" lon="-3.52533">
        <ele>184.8</ele>
        <time>2025-02-26T09:18:51Z</time>
      </trkpt>
      <trkpt lat="48.05889" lon="-3.52535">
        <ele>184.7</ele>
        <time>2025-02-26T09:18:52Z</time>
      </trkpt>
      <trkpt lat="48.05889" lon="-3.52536">
        <ele>184.7</ele>
        <time>2025-02-26T09:18:53Z</time>
      </trkpt>
      <trkpt lat="48.0589" lon="-3.52538">
        <ele>184.7</ele>
        <time>2025-02-26T09:18:54Z</time>
      </trkpt>
      <trkpt lat="48.0589" lon="-3.52539">
        <ele>184.6</ele>
        <time>2025-02-26T09:18:55Z</time>
      </trkpt>
      <trkpt lat="48.05891" lon="-3.52541">
        <ele>184.6</ele>
        <time>2025-02-26T09:18:56Z</time>
      </trkpt>
      <trkpt lat="48.05891" lon="-3.52542">
        <ele>184.6</ele>
        <time>2025-02-26T09:18:57Z</time>
      </trkpt>
      <trkpt lat="48.05892" lon="-3.52544">
        <ele>184.5</ele>
        <time>2025-02-26T09:18:58Z</time>
      </trkpt>
      <trkpt lat="48.05892" lon="-3.52546">
        <ele>184.5</ele>
        <time>2025-02-26T09:18:59Z</time>
      </trkpt>
      <trkpt lat="48.05892" lon="-3.52548">
        <ele>184.4</ele>
        <time>2025-02-26T09:19:00Z</time>
      </trkpt>
      <trkpt lat="48.05892" lon="-3.5255">
        <ele>184.3</ele>
        <time>2025-02-26T09:19:01Z</time>
      </trkpt>
      <trkpt lat="48.05893" lon="-3.52552">
        <ele>184.3</ele>
        <time>2025-02-26T09:19:02Z</time>
      </trkpt>
      <trkpt lat="48.05893" lon="-3.52554">
        <ele>184.2</ele>
        <time>2025-02-26T09:19:03Z</time>
      </trkpt>
      <trkpt lat="48.05893" lon="-3.52556">
        <ele>184.2</ele>
        <time>2025-02-26T09:19:04Z</time>
      </trkpt>
      <trkpt lat="48.05894" lon="-3.52557">
        <ele>184.1</ele>
        <time>2025-02-26T09:19:05Z</time>
      </trkpt>
      <trkpt lat="48.05895" lon="-3.52559">
        <ele>184.1</ele>
        <time>2025-02-26T09:19:06Z</time>
      </trkpt>
      <trkpt lat="48.05895" lon="-3.52561">
        <ele>184</ele>
        <time>2025-02-26T09:19:07Z</time>
      </trkpt>
      <trkpt lat="48.05895" lon="-3.52563">
        <ele>184</ele>
        <time>2025-02-26T09:19:08Z</time>
      </trkpt>
      <trkpt lat="48.05896" lon="-3.52564">
        <ele>183.9</ele>
        <time>2025-02-26T09:19:09Z</time>
      </trkpt>
      <trkpt lat="48.05896" lon="-3.52566">
        <ele>183.9</ele>
        <time>2025-02-26T09:19:10Z</time>
      </trkpt>
      <trkpt lat="48.05896" lon="-3.52568">
        <ele>183.8</ele>
        <time>2025-02-26T09:19:11Z</time>
      </trkpt>
      <trkpt lat="48.05896" lon="-3.5257">
        <ele>183.7</ele>
        <time>2025-02-26T09:19:12Z</time>
      </trkpt>
      <trkpt lat="48.05896" lon="-3.52572">
        <ele>183.7</ele>
        <time>2025-02-26T09:19:13Z</time>
      </trkpt>
      <trkpt lat="48.05897" lon="-3.52573">
        <ele>183.6</ele>
        <time>2025-02-26T09:19:14Z</time>
      </trkpt>
      <trkpt lat="48.05897" lon="-3.52575">
        <ele>183.6</ele>
        <time>2025-02-26T09:19:15Z</time>
      </trkpt>
      <trkpt lat="48.05898" lon="-3.52576">
        <ele>183.6</ele>
        <time>2025-02-26T09:19:16Z</time>
      </trkpt>
      <trkpt lat="48.05899" lon="-3.52577">
        <ele>183.6</ele>
        <time>2025-02-26T09:19:17Z</time>
      </trkpt>
      <trkpt lat="48.05899" lon="-3.52579">
        <ele>183.5</ele>
        <time>2025-02-26T09:19:18Z</time>
      </trkpt>
      <trkpt lat="48.059" lon="-3.52581">
        <ele>183.5</ele>
        <time>2025-02-26T09:19:19Z</time>
      </trkpt>
      <trkpt lat="48.059" lon="-3.52582">
        <ele>183.4</ele>
        <time>2025-02-26T09:19:20Z</time>
      </trkpt>
      <trkpt lat="48.05901" lon="-3.52584">
        <ele>183.4</ele>
        <time>2025-02-26T09:19:21Z</time>
      </trkpt>
      <trkpt lat="48.05901" lon="-3.52585">
        <ele>183.4</ele>
        <time>2025-02-26T09:19:22Z</time>
      </trkpt>
      <trkpt lat="48.05901" lon="-3.52587">
        <ele>183.3</ele>
        <time>2025-02-26T09:19:23Z</time>
      </trkpt>
      <trkpt lat="48.05902" lon="-3.52589">
        <ele>183.3</ele>
        <time>2025-02-26T09:19:24Z</time>
      </trkpt>
      <trkpt lat="48.05902" lon="-3.52591">
        <ele>183.2</ele>
        <time>2025-02-26T09:19:25Z</time>
      </trkpt>
      <trkpt lat="48.05903" lon="-3.52592">
        <ele>183.2</ele>
        <time>2025-02-26T09:19:26Z</time>
      </trkpt>
      <trkpt lat="48.05904" lon="-3.52593">
        <ele>183.2</ele>
        <time>2025-02-26T09:19:27Z</time>
      </trkpt>
      <trkpt lat="48.05905" lon="-3.52596">
        <ele>183.1</ele>
        <time>2025-02-26T09:19:28Z</time>
      </trkpt>
      <trkpt lat="48.05905" lon="-3.52597">
        <ele>183.1</ele>
        <time>2025-02-26T09:19:29Z</time>
      </trkpt>
      <trkpt lat="48.05906" lon="-3.52599">
        <ele>183.1</ele>
        <time>2025-02-26T09:19:30Z</time>
      </trkpt>
      <trkpt lat="48.05907" lon="-3.52601">
        <ele>183</ele>
        <time>2025-02-26T09:19:31Z</time>
      </trkpt>
      <trkpt lat="48.05907" lon="-3.52602">
        <ele>183</ele>
        <time>2025-02-26T09:19:32Z</time>
      </trkpt>
      <trkpt lat="48.05908" lon="-3.52604">
        <ele>183</ele>
        <time>2025-02-26T09:19:33Z</time>
      </trkpt>
      <trkpt lat="48.05909" lon="-3.52605">
        <ele>182.9</ele>
        <time>2025-02-26T09:19:34Z</time>
      </trkpt>
      <trkpt lat="48.0591" lon="-3.52607">
        <ele>182.9</ele>
        <time>2025-02-26T09:19:35Z</time>
      </trkpt>
      <trkpt lat="48.05911" lon="-3.52608">
        <ele>182.9</ele>
        <time>2025-02-26T09:19:36Z</time>
      </trkpt>
      <trkpt lat="48.05911" lon="-3.52609">
        <ele>182.9</ele>
        <time>2025-02-26T09:19:37Z</time>
      </trkpt>
      <trkpt lat="48.05912" lon="-3.52611">
        <ele>182.9</ele>
        <time>2025-02-26T09:19:38Z</time>
      </trkpt>
      <trkpt lat="48.05913" lon="-3.52612">
        <ele>182.8</ele>
        <time>2025-02-26T09:19:39Z</time>
      </trkpt>
      <trkpt lat="48.05913" lon="-3.52614">
        <ele>182.7</ele>
        <time>2025-02-26T09:19:40Z</time>
      </trkpt>
      <trkpt lat="48.05914" lon="-3.52616">
        <ele>182.6</ele>
        <time>2025-02-26T09:19:41Z</time>
      </trkpt>
      <trkpt lat="48.05915" lon="-3.52617">
        <ele>182.5</ele>
        <time>2025-02-26T09:19:42Z</time>
      </trkpt>
      <trkpt lat="48.05916" lon="-3.52619">
        <ele>182.4</ele>
        <time>2025-02-26T09:19:43Z</time>
      </trkpt>
      <trkpt lat="48.05916" lon="-3.5262">
        <ele>182.3</ele>
        <time>2025-02-26T09:19:44Z</time>
      </trkpt>
      <trkpt lat="48.05917" lon="-3.52622">
        <ele>182.2</ele>
        <time>2025-02-26T09:19:45Z</time>
      </trkpt>
      <trkpt lat="48.05918" lon="-3.52623">
        <ele>182.2</ele>
        <time>2025-02-26T09:19:46Z</time>
      </trkpt>
      <trkpt lat="48.05918" lon="-3.52624">
        <ele>182.2</ele>
        <time>2025-02-26T09:19:47Z</time>
      </trkpt>
      <trkpt lat="48.05919" lon="-3.52625">
        <ele>182.2</ele>
        <time>2025-02-26T09:19:48Z</time>
      </trkpt>
      <trkpt lat="48.0592" lon="-3.52626">
        <ele>182.1</ele>
        <time>2025-02-26T09:19:49Z</time>
      </trkpt>
      <trkpt lat="48.05921" lon="-3.52628">
        <ele>182.1</ele>
        <time>2025-02-26T09:19:50Z</time>
      </trkpt>
      <trkpt lat="48.05921" lon="-3.52629">
        <ele>182</ele>
        <time>2025-02-26T09:19:51Z</time>
      </trkpt>
      <trkpt lat="48.05922" lon="-3.52631">
        <ele>182</ele>
        <time>2025-02-26T09:19:52Z</time>
      </trkpt>
      <trkpt lat="48.05922" lon="-3.52632">
        <ele>181.9</ele>
        <time>2025-02-26T09:19:53Z</time>
      </trkpt>
      <trkpt lat="48.05923" lon="-3.52634">
        <ele>181.9</ele>
        <time>2025-02-26T09:19:54Z</time>
      </trkpt>
      <trkpt lat="48.05924" lon="-3.52635">
        <ele>181.8</ele>
        <time>2025-02-26T09:19:55Z</time>
      </trkpt>
      <trkpt lat="48.05925" lon="-3.52636">
        <ele>181.8</ele>
        <time>2025-02-26T09:19:56Z</time>
      </trkpt>
      <trkpt lat="48.05926" lon="-3.52637">
        <ele>181.8</ele>
        <time>2025-02-26T09:19:57Z</time>
      </trkpt>
      <trkpt lat="48.05927" lon="-3.52638">
        <ele>181.8</ele>
        <time>2025-02-26T09:19:58Z</time>
      </trkpt>
      <trkpt lat="48.05928" lon="-3.52639">
        <ele>181.8</ele>
        <time>2025-02-26T09:19:59Z</time>
      </trkpt>
      <trkpt lat="48.05929" lon="-3.5264">
        <ele>181.8</ele>
        <time>2025-02-26T09:20:00Z</time>
      </trkpt>
      <trkpt lat="48.0593" lon="-3.52641">
        <ele>181.8</ele>
        <time>2025-02-26T09:20:01Z</time>
      </trkpt>
      <trkpt lat="48.05931" lon="-3.52642">
        <ele>181.8</ele>
        <time>2025-02-26T09:20:02Z</time>
      </trkpt>
      <trkpt lat="48.05931" lon="-3.52643">
        <ele>181.8</ele>
        <time>2025-02-26T09:20:03Z</time>
      </trkpt>
      <trkpt lat="48.05932" lon="-3.52645">
        <ele>181.8</ele>
        <time>2025-02-26T09:20:04Z</time>
      </trkpt>
      <trkpt lat="48.05933" lon="-3.52646">
        <ele>181.8</ele>
        <time>2025-02-26T09:20:05Z</time>
      </trkpt>
      <trkpt lat="48.05934" lon="-3.52648">
        <ele>181.7</ele>
        <time>2025-02-26T09:20:06Z</time>
      </trkpt>
      <trkpt lat="48.05935" lon="-3.52649">
        <ele>181.7</ele>
        <time>2025-02-26T09:20:07Z</time>
      </trkpt>
      <trkpt lat="48.05936" lon="-3.5265">
        <ele>181.7</ele>
        <time>2025-02-26T09:20:08Z</time>
      </trkpt>
      <trkpt lat="48.05937" lon="-3.52651">
        <ele>181.7</ele>
        <time>2025-02-26T09:20:09Z</time>
      </trkpt>
      <trkpt lat="48.05937" lon="-3.52652">
        <ele>181.7</ele>
        <time>2025-02-26T09:20:10Z</time>
      </trkpt>
      <trkpt lat="48.05938" lon="-3.52653">
        <ele>181.6</ele>
        <time>2025-02-26T09:20:11Z</time>
      </trkpt>
      <trkpt lat="48.05939" lon="-3.52655">
        <ele>181.6</ele>
        <time>2025-02-26T09:20:12Z</time>
      </trkpt>
      <trkpt lat="48.0594" lon="-3.52656">
        <ele>181.6</ele>
        <time>2025-02-26T09:20:13Z</time>
      </trkpt>
      <trkpt lat="48.05941" lon="-3.52657">
        <ele>181.5</ele>
        <time>2025-02-26T09:20:14Z</time>
      </trkpt>
      <trkpt lat="48.05942" lon="-3.52658">
        <ele>181.5</ele>
        <time>2025-02-26T09:20:15Z</time>
      </trkpt>
      <trkpt lat="48.05943" lon="-3.52659">
        <ele>181.5</ele>
        <time>2025-02-26T09:20:16Z</time>
      </trkpt>
      <trkpt lat="48.05943" lon="-3.5266">
        <ele>181.5</ele>
        <time>2025-02-26T09:20:17Z</time>
      </trkpt>
      <trkpt lat="48.05945" lon="-3.52661">
        <ele>181.4</ele>
        <time>2025-02-26T09:20:18Z</time>
      </trkpt>
      <trkpt lat="48.05945" lon="-3.52662">
        <ele>181.4</ele>
        <time>2025-02-26T09:20:19Z</time>
      </trkpt>
      <trkpt lat="48.05946" lon="-3.52663">
        <ele>181.4</ele>
        <time>2025-02-26T09:20:20Z</time>
      </trkpt>
      <trkpt lat="48.05947" lon="-3.52664">
        <ele>181.3</ele>
        <time>2025-02-26T09:20:21Z</time>
      </trkpt>
      <trkpt lat="48.05947" lon="-3.52665">
        <ele>181.3</ele>
        <time>2025-02-26T09:20:22Z</time>
      </trkpt>
      <trkpt lat="48.05948" lon="-3.52667">
        <ele>181.3</ele>
        <time>2025-02-26T09:20:23Z</time>
      </trkpt>
      <trkpt lat="48.05949" lon="-3.52668">
        <ele>181.2</ele>
        <time>2025-02-26T09:20:24Z</time>
      </trkpt>
      <trkpt lat="48.0595" lon="-3.52669">
        <ele>181.2</ele>
        <time>2025-02-26T09:20:25Z</time>
      </trkpt>
      <trkpt lat="48.0595" lon="-3.52671">
        <ele>181.1</ele>
        <time>2025-02-26T09:20:26Z</time>
      </trkpt>
      <trkpt lat="48.05951" lon="-3.52672">
        <ele>181.1</ele>
        <time>2025-02-26T09:20:27Z</time>
      </trkpt>
      <trkpt lat="48.05952" lon="-3.52673">
        <ele>181.1</ele>
        <time>2025-02-26T09:20:28Z</time>
      </trkpt>
      <trkpt lat="48.05952" lon="-3.52675">
        <ele>181</ele>
        <time>2025-02-26T09:20:29Z</time>
      </trkpt>
      <trkpt lat="48.05953" lon="-3.52676">
        <ele>181</ele>
        <time>2025-02-26T09:20:30Z</time>
      </trkpt>
      <trkpt lat="48.05954" lon="-3.52677">
        <ele>180.9</ele>
        <time>2025-02-26T09:20:31Z</time>
      </trkpt>
      <trkpt lat="48.05954" lon="-3.52678">
        <ele>180.9</ele>
        <time>2025-02-26T09:20:32Z</time>
      </trkpt>
      <trkpt lat="48.05955" lon="-3.52679">
        <ele>180.9</ele>
        <time>2025-02-26T09:20:33Z</time>
      </trkpt>
      <trkpt lat="48.05956" lon="-3.52681">
        <ele>180.8</ele>
        <time>2025-02-26T09:20:34Z</time>
      </trkpt>
      <trkpt lat="48.05956" lon="-3.52682">
        <ele>180.7</ele>
        <time>2025-02-26T09:20:35Z</time>
      </trkpt>
      <trkpt lat="48.05957" lon="-3.52684">
        <ele>180.7</ele>
        <time>2025-02-26T09:20:36Z</time>
      </trkpt>
      <trkpt lat="48.05958" lon="-3.52686">
        <ele>180.6</ele>
        <time>2025-02-26T09:20:37Z</time>
      </trkpt>
      <trkpt lat="48.05958" lon="-3.52687">
        <ele>180.5</ele>
        <time>2025-02-26T09:20:38Z</time>
      </trkpt>
      <trkpt lat="48.05959" lon="-3.52689">
        <ele>180.4</ele>
        <time>2025-02-26T09:20:39Z</time>
      </trkpt>
      <trkpt lat="48.05959" lon="-3.52691">
        <ele>180.3</ele>
        <time>2025-02-26T09:20:40Z</time>
      </trkpt>
      <trkpt lat="48.05959" lon="-3.52692">
        <ele>180.2</ele>
        <time>2025-02-26T09:20:41Z</time>
      </trkpt>
      <trkpt lat="48.0596" lon="-3.52694">
        <ele>180.2</ele>
        <time>2025-02-26T09:20:42Z</time>
      </trkpt>
      <trkpt lat="48.05961" lon="-3.52695">
        <ele>180.1</ele>
        <time>2025-02-26T09:20:43Z</time>
      </trkpt>
      <trkpt lat="48.05961" lon="-3.52697">
        <ele>180.1</ele>
        <time>2025-02-26T09:20:44Z</time>
      </trkpt>
      <trkpt lat="48.05961" lon="-3.52698">
        <ele>180</ele>
        <time>2025-02-26T09:20:45Z</time>
      </trkpt>
      <trkpt lat="48.05962" lon="-3.527">
        <ele>180</ele>
        <time>2025-02-26T09:20:46Z</time>
      </trkpt>
      <trkpt lat="48.05962" lon="-3.52702">
        <ele>180</ele>
        <time>2025-02-26T09:20:47Z</time>
      </trkpt>
      <trkpt lat="48.05963" lon="-3.52703">
        <ele>179.9</ele>
        <time>2025-02-26T09:20:48Z</time>
      </trkpt>
      <trkpt lat="48.05963" lon="-3.52705">
        <ele>179.9</ele>
        <time>2025-02-26T09:20:49Z</time>
      </trkpt>
      <trkpt lat="48.05964" lon="-3.52706">
        <ele>179.8</ele>
        <time>2025-02-26T09:20:50Z</time>
      </trkpt>
      <trkpt lat="48.05964" lon="-3.52708">
        <ele>179.7</ele>
        <time>2025-02-26T09:20:51Z</time>
      </trkpt>
      <trkpt lat="48.05964" lon="-3.5271">
        <ele>179.6</ele>
        <time>2025-02-26T09:20:52Z</time>
      </trkpt>
      <trkpt lat="48.05965" lon="-3.52712">
        <ele>179.5</ele>
        <time>2025-02-26T09:20:53Z</time>
      </trkpt>
      <trkpt lat="48.05966" lon="-3.52714">
        <ele>179.5</ele>
        <time>2025-02-26T09:20:54Z</time>
      </trkpt>
      <trkpt lat="48.05967" lon="-3.52715">
        <ele>179.4</ele>
        <time>2025-02-26T09:20:55Z</time>
      </trkpt>
      <trkpt lat="48.05967" lon="-3.52717">
        <ele>179.3</ele>
        <time>2025-02-26T09:20:56Z</time>
      </trkpt>
      <trkpt lat="48.05968" lon="-3.52719">
        <ele>179.2</ele>
        <time>2025-02-26T09:20:57Z</time>
      </trkpt>
      <trkpt lat="48.05968" lon="-3.5272">
        <ele>179.1</ele>
        <time>2025-02-26T09:20:58Z</time>
      </trkpt>
      <trkpt lat="48.05969" lon="-3.52722">
        <ele>179</ele>
        <time>2025-02-26T09:20:59Z</time>
      </trkpt>
      <trkpt lat="48.05969" lon="-3.52723">
        <ele>179</ele>
        <time>2025-02-26T09:21:00Z</time>
      </trkpt>
      <trkpt lat="48.0597" lon="-3.52725">
        <ele>178.9</ele>
        <time>2025-02-26T09:21:01Z</time>
      </trkpt>
      <trkpt lat="48.05969" lon="-3.52727">
        <ele>178.9</ele>
        <time>2025-02-26T09:21:02Z</time>
      </trkpt>
      <trkpt lat="48.0597" lon="-3.52729">
        <ele>178.8</ele>
        <time>2025-02-26T09:21:03Z</time>
      </trkpt>
      <trkpt lat="48.0597" lon="-3.5273">
        <ele>178.8</ele>
        <time>2025-02-26T09:21:04Z</time>
      </trkpt>
      <trkpt lat="48.05971" lon="-3.52731">
        <ele>178.7</ele>
        <time>2025-02-26T09:21:05Z</time>
      </trkpt>
      <trkpt lat="48.05972" lon="-3.52733">
        <ele>178.6</ele>
        <time>2025-02-26T09:21:06Z</time>
      </trkpt>
      <trkpt lat="48.05972" lon="-3.52735">
        <ele>178.6</ele>
        <time>2025-02-26T09:21:07Z</time>
      </trkpt>
      <trkpt lat="48.05972" lon="-3.52736">
        <ele>178.5</ele>
        <time>2025-02-26T09:21:08Z</time>
      </trkpt>
      <trkpt lat="48.05973" lon="-3.52738">
        <ele>178.4</ele>
        <time>2025-02-26T09:21:09Z</time>
      </trkpt>
      <trkpt lat="48.05973" lon="-3.5274">
        <ele>178.4</ele>
        <time>2025-02-26T09:21:10Z</time>
      </trkpt>
      <trkpt lat="48.05973" lon="-3.52742">
        <ele>178.3</ele>
        <time>2025-02-26T09:21:11Z</time>
      </trkpt>
      <trkpt lat="48.05974" lon="-3.52743">
        <ele>178.3</ele>
        <time>2025-02-26T09:21:12Z</time>
      </trkpt>
      <trkpt lat="48.05975" lon="-3.52745">
        <ele>178.2</ele>
        <time>2025-02-26T09:21:13Z</time>
      </trkpt>
      <trkpt lat="48.05975" lon="-3.52746">
        <ele>178.1</ele>
        <time>2025-02-26T09:21:14Z</time>
      </trkpt>
      <trkpt lat="48.05976" lon="-3.52748">
        <ele>178.1</ele>
        <time>2025-02-26T09:21:15Z</time>
      </trkpt>
      <trkpt lat="48.05976" lon="-3.5275">
        <ele>178</ele>
        <time>2025-02-26T09:21:16Z</time>
      </trkpt>
      <trkpt lat="48.05977" lon="-3.52752">
        <ele>178</ele>
        <time>2025-02-26T09:21:17Z</time>
      </trkpt>
      <trkpt lat="48.05977" lon="-3.52753">
        <ele>178.1</ele>
        <time>2025-02-26T09:21:18Z</time>
      </trkpt>
      <trkpt lat="48.05978" lon="-3.52755">
        <ele>178.1</ele>
        <time>2025-02-26T09:21:19Z</time>
      </trkpt>
      <trkpt lat="48.05978" lon="-3.52757">
        <ele>178.1</ele>
        <time>2025-02-26T09:21:20Z</time>
      </trkpt>
      <trkpt lat="48.05978" lon="-3.52759">
        <ele>178.2</ele>
        <time>2025-02-26T09:21:21Z</time>
      </trkpt>
      <trkpt lat="48.05979" lon="-3.5276">
        <ele>178.2</ele>
        <time>2025-02-26T09:21:22Z</time>
      </trkpt>
      <trkpt lat="48.05979" lon="-3.52762">
        <ele>178.2</ele>
        <time>2025-02-26T09:21:23Z</time>
      </trkpt>
      <trkpt lat="48.05979" lon="-3.52764">
        <ele>178.2</ele>
        <time>2025-02-26T09:21:24Z</time>
      </trkpt>
      <trkpt lat="48.0598" lon="-3.52765">
        <ele>178.3</ele>
        <time>2025-02-26T09:21:25Z</time>
      </trkpt>
      <trkpt lat="48.0598" lon="-3.52767">
        <ele>178.3</ele>
        <time>2025-02-26T09:21:26Z</time>
      </trkpt>
      <trkpt lat="48.0598" lon="-3.52769">
        <ele>178.3</ele>
        <time>2025-02-26T09:21:27Z</time>
      </trkpt>
      <trkpt lat="48.0598" lon="-3.52771">
        <ele>178.3</ele>
        <time>2025-02-26T09:21:28Z</time>
      </trkpt>
      <trkpt lat="48.05981" lon="-3.52772">
        <ele>178.3</ele>
        <time>2025-02-26T09:21:29Z</time>
      </trkpt>
      <trkpt lat="48.05981" lon="-3.52774">
        <ele>178.3</ele>
        <time>2025-02-26T09:21:30Z</time>
      </trkpt>
      <trkpt lat="48.05982" lon="-3.52775">
        <ele>178.3</ele>
        <time>2025-02-26T09:21:31Z</time>
      </trkpt>
      <trkpt lat="48.05983" lon="-3.52777">
        <ele>178.2</ele>
        <time>2025-02-26T09:21:32Z</time>
      </trkpt>
      <trkpt lat="48.05983" lon="-3.52779">
        <ele>178.2</ele>
        <time>2025-02-26T09:21:33Z</time>
      </trkpt>
      <trkpt lat="48.05984" lon="-3.5278">
        <ele>178.2</ele>
        <time>2025-02-26T09:21:34Z</time>
      </trkpt>
      <trkpt lat="48.05984" lon="-3.52782">
        <ele>178.2</ele>
        <time>2025-02-26T09:21:35Z</time>
      </trkpt>
      <trkpt lat="48.05984" lon="-3.52784">
        <ele>178.2</ele>
        <time>2025-02-26T09:21:36Z</time>
      </trkpt>
      <trkpt lat="48.05985" lon="-3.52786">
        <ele>178.3</ele>
        <time>2025-02-26T09:21:37Z</time>
      </trkpt>
      <trkpt lat="48.05985" lon="-3.52788">
        <ele>178.3</ele>
        <time>2025-02-26T09:21:38Z</time>
      </trkpt>
      <trkpt lat="48.05985" lon="-3.52789">
        <ele>178.3</ele>
        <time>2025-02-26T09:21:39Z</time>
      </trkpt>
      <trkpt lat="48.05986" lon="-3.52791">
        <ele>178.3</ele>
        <time>2025-02-26T09:21:40Z</time>
      </trkpt>
      <trkpt lat="48.05986" lon="-3.52792">
        <ele>178.2</ele>
        <time>2025-02-26T09:21:41Z</time>
      </trkpt>
      <trkpt lat="48.05987" lon="-3.52794">
        <ele>178.2</ele>
        <time>2025-02-26T09:21:42Z</time>
      </trkpt>
      <trkpt lat="48.05987" lon="-3.52796">
        <ele>178.2</ele>
        <time>2025-02-26T09:21:43Z</time>
      </trkpt>
      <trkpt lat="48.05988" lon="-3.52798">
        <ele>178.2</ele>
        <time>2025-02-26T09:21:44Z</time>
      </trkpt>
      <trkpt lat="48.05988" lon="-3.528">
        <ele>178.2</ele>
        <time>2025-02-26T09:21:45Z</time>
      </trkpt>
      <trkpt lat="48.05988" lon="-3.52802">
        <ele>178.2</ele>
        <time>2025-02-26T09:21:46Z</time>
      </trkpt>
      <trkpt lat="48.05988" lon="-3.52804">
        <ele>178.3</ele>
        <time>2025-02-26T09:21:47Z</time>
      </trkpt>
      <trkpt lat="48.05988" lon="-3.52806">
        <ele>178.3</ele>
        <time>2025-02-26T09:21:48Z</time>
      </trkpt>
      <trkpt lat="48.05989" lon="-3.52807">
        <ele>178.2</ele>
        <time>2025-02-26T09:21:49Z</time>
      </trkpt>
      <trkpt lat="48.0599" lon="-3.52808">
        <ele>178.1</ele>
        <time>2025-02-26T09:21:50Z</time>
      </trkpt>
      <trkpt lat="48.0599" lon="-3.5281">
        <ele>178.1</ele>
        <time>2025-02-26T09:21:51Z</time>
      </trkpt>
      <trkpt lat="48.05991" lon="-3.52812">
        <ele>178</ele>
        <time>2025-02-26T09:21:52Z</time>
      </trkpt>
      <trkpt lat="48.05991" lon="-3.52814">
        <ele>178</ele>
        <time>2025-02-26T09:21:53Z</time>
      </trkpt>
      <trkpt lat="48.05991" lon="-3.52815">
        <ele>177.9</ele>
        <time>2025-02-26T09:21:54Z</time>
      </trkpt>
      <trkpt lat="48.05992" lon="-3.52817">
        <ele>177.9</ele>
        <time>2025-02-26T09:21:55Z</time>
      </trkpt>
      <trkpt lat="48.05992" lon="-3.52819">
        <ele>177.8</ele>
        <time>2025-02-26T09:21:56Z</time>
      </trkpt>
      <trkpt lat="48.05993" lon="-3.52821">
        <ele>177.8</ele>
        <time>2025-02-26T09:21:57Z</time>
      </trkpt>
      <trkpt lat="48.05993" lon="-3.52822">
        <ele>177.7</ele>
        <time>2025-02-26T09:21:58Z</time>
      </trkpt>
      <trkpt lat="48.05994" lon="-3.52824">
        <ele>177.7</ele>
        <time>2025-02-26T09:21:59Z</time>
      </trkpt>
      <trkpt lat="48.05994" lon="-3.52825">
        <ele>177.6</ele>
        <time>2025-02-26T09:22:00Z</time>
      </trkpt>
      <trkpt lat="48.05995" lon="-3.52827">
        <ele>177.6</ele>
        <time>2025-02-26T09:22:01Z</time>
      </trkpt>
      <trkpt lat="48.05995" lon="-3.52829">
        <ele>177.5</ele>
        <time>2025-02-26T09:22:02Z</time>
      </trkpt>
      <trkpt lat="48.05996" lon="-3.5283">
        <ele>177.4</ele>
        <time>2025-02-26T09:22:03Z</time>
      </trkpt>
      <trkpt lat="48.05997" lon="-3.52832">
        <ele>177.3</ele>
        <time>2025-02-26T09:22:04Z</time>
      </trkpt>
      <trkpt lat="48.05997" lon="-3.52834">
        <ele>177.3</ele>
        <time>2025-02-26T09:22:05Z</time>
      </trkpt>
      <trkpt lat="48.05998" lon="-3.52835">
        <ele>177.3</ele>
        <time>2025-02-26T09:22:06Z</time>
      </trkpt>
      <trkpt lat="48.05999" lon="-3.52836">
        <ele>177.2</ele>
        <time>2025-02-26T09:22:07Z</time>
      </trkpt>
      <trkpt lat="48.05999" lon="-3.52838">
        <ele>177.3</ele>
        <time>2025-02-26T09:22:08Z</time>
      </trkpt>
      <trkpt lat="48.06" lon="-3.5284">
        <ele>177.2</ele>
        <time>2025-02-26T09:22:09Z</time>
      </trkpt>
      <trkpt lat="48.06001" lon="-3.52842">
        <ele>177.3</ele>
        <time>2025-02-26T09:22:10Z</time>
      </trkpt>
      <trkpt lat="48.06001" lon="-3.52843">
        <ele>177.3</ele>
        <time>2025-02-26T09:22:11Z</time>
      </trkpt>
      <trkpt lat="48.06002" lon="-3.52845">
        <ele>177.3</ele>
        <time>2025-02-26T09:22:12Z</time>
      </trkpt>
      <trkpt lat="48.06002" lon="-3.52847">
        <ele>177.4</ele>
        <time>2025-02-26T09:22:13Z</time>
      </trkpt>
      <trkpt lat="48.06003" lon="-3.52848">
        <ele>177.4</ele>
        <time>2025-02-26T09:22:14Z</time>
      </trkpt>
      <trkpt lat="48.06004" lon="-3.5285">
        <ele>177.4</ele>
        <time>2025-02-26T09:22:15Z</time>
      </trkpt>
      <trkpt lat="48.06004" lon="-3.52851">
        <ele>177.4</ele>
        <time>2025-02-26T09:22:16Z</time>
      </trkpt>
      <trkpt lat="48.06005" lon="-3.52853">
        <ele>177.4</ele>
        <time>2025-02-26T09:22:17Z</time>
      </trkpt>
      <trkpt lat="48.06005" lon="-3.52854">
        <ele>177.4</ele>
        <time>2025-02-26T09:22:18Z</time>
      </trkpt>
      <trkpt lat="48.06006" lon="-3.52856">
        <ele>177.4</ele>
        <time>2025-02-26T09:22:19Z</time>
      </trkpt>
      <trkpt lat="48.06007" lon="-3.52858">
        <ele>177.4</ele>
        <time>2025-02-26T09:22:20Z</time>
      </trkpt>
      <trkpt lat="48.06007" lon="-3.52859">
        <ele>177.4</ele>
        <time>2025-02-26T09:22:21Z</time>
      </trkpt>
      <trkpt lat="48.06008" lon="-3.52861">
        <ele>177.4</ele>
        <time>2025-02-26T09:22:22Z</time>
      </trkpt>
      <trkpt lat="48.06008" lon="-3.52862">
        <ele>177.5</ele>
        <time>2025-02-26T09:22:23Z</time>
      </trkpt>
      <trkpt lat="48.06009" lon="-3.52864">
        <ele>177.5</ele>
        <time>2025-02-26T09:22:24Z</time>
      </trkpt>
      <trkpt lat="48.0601" lon="-3.52865">
        <ele>177.5</ele>
        <time>2025-02-26T09:22:25Z</time>
      </trkpt>
      <trkpt lat="48.0601" lon="-3.52867">
        <ele>177.5</ele>
        <time>2025-02-26T09:22:26Z</time>
      </trkpt>
      <trkpt lat="48.06011" lon="-3.52869">
        <ele>177.5</ele>
        <time>2025-02-26T09:22:27Z</time>
      </trkpt>
      <trkpt lat="48.06011" lon="-3.52871">
        <ele>177.6</ele>
        <time>2025-02-26T09:22:28Z</time>
      </trkpt>
      <trkpt lat="48.06012" lon="-3.52872">
        <ele>177.6</ele>
        <time>2025-02-26T09:22:29Z</time>
      </trkpt>
      <trkpt lat="48.06013" lon="-3.52873">
        <ele>177.6</ele>
        <time>2025-02-26T09:22:30Z</time>
      </trkpt>
      <trkpt lat="48.06013" lon="-3.52875">
        <ele>177.6</ele>
        <time>2025-02-26T09:22:31Z</time>
      </trkpt>
      <trkpt lat="48.06014" lon="-3.52876">
        <ele>177.6</ele>
        <time>2025-02-26T09:22:32Z</time>
      </trkpt>
      <trkpt lat="48.06014" lon="-3.52878">
        <ele>177.6</ele>
        <time>2025-02-26T09:22:33Z</time>
      </trkpt>
      <trkpt lat="48.06015" lon="-3.52879">
        <ele>177.6</ele>
        <time>2025-02-26T09:22:34Z</time>
      </trkpt>
      <trkpt lat="48.06015" lon="-3.52881">
        <ele>177.6</ele>
        <time>2025-02-26T09:22:35Z</time>
      </trkpt>
      <trkpt lat="48.06016" lon="-3.52883">
        <ele>177.6</ele>
        <time>2025-02-26T09:22:36Z</time>
      </trkpt>
      <trkpt lat="48.06016" lon="-3.52885">
        <ele>177.6</ele>
        <time>2025-02-26T09:22:37Z</time>
      </trkpt>
      <trkpt lat="48.06016" lon="-3.52886">
        <ele>177.6</ele>
        <time>2025-02-26T09:22:38Z</time>
      </trkpt>
      <trkpt lat="48.06017" lon="-3.52888">
        <ele>177.6</ele>
        <time>2025-02-26T09:22:39Z</time>
      </trkpt>
      <trkpt lat="48.06017" lon="-3.5289">
        <ele>177.5</ele>
        <time>2025-02-26T09:22:40Z</time>
      </trkpt>
      <trkpt lat="48.06018" lon="-3.52891">
        <ele>177.5</ele>
        <time>2025-02-26T09:22:41Z</time>
      </trkpt>
      <trkpt lat="48.06018" lon="-3.52893">
        <ele>177.5</ele>
        <time>2025-02-26T09:22:42Z</time>
      </trkpt>
      <trkpt lat="48.06019" lon="-3.52895">
        <ele>177.5</ele>
        <time>2025-02-26T09:22:43Z</time>
      </trkpt>
      <trkpt lat="48.06019" lon="-3.52897">
        <ele>177.5</ele>
        <time>2025-02-26T09:22:44Z</time>
      </trkpt>
      <trkpt lat="48.0602" lon="-3.52899">
        <ele>177.5</ele>
        <time>2025-02-26T09:22:45Z</time>
      </trkpt>
      <trkpt lat="48.0602" lon="-3.529">
        <ele>177.5</ele>
        <time>2025-02-26T09:22:46Z</time>
      </trkpt>
      <trkpt lat="48.06021" lon="-3.52901">
        <ele>177.5</ele>
        <time>2025-02-26T09:22:47Z</time>
      </trkpt>
      <trkpt lat="48.06021" lon="-3.52903">
        <ele>177.5</ele>
        <time>2025-02-26T09:22:48Z</time>
      </trkpt>
      <trkpt lat="48.06021" lon="-3.52905">
        <ele>177.6</ele>
        <time>2025-02-26T09:22:49Z</time>
      </trkpt>
      <trkpt lat="48.06021" lon="-3.52907">
        <ele>177.6</ele>
        <time>2025-02-26T09:22:50Z</time>
      </trkpt>
      <trkpt lat="48.06022" lon="-3.52909">
        <ele>177.6</ele>
        <time>2025-02-26T09:22:51Z</time>
      </trkpt>
      <trkpt lat="48.06022" lon="-3.52911">
        <ele>177.7</ele>
        <time>2025-02-26T09:22:52Z</time>
      </trkpt>
      <trkpt lat="48.06022" lon="-3.52913">
        <ele>177.7</ele>
        <time>2025-02-26T09:22:53Z</time>
      </trkpt>
      <trkpt lat="48.06022" lon="-3.52915">
        <ele>177.8</ele>
        <time>2025-02-26T09:22:54Z</time>
      </trkpt>
      <trkpt lat="48.06022" lon="-3.52917">
        <ele>177.8</ele>
        <time>2025-02-26T09:22:55Z</time>
      </trkpt>
      <trkpt lat="48.06022" lon="-3.52919">
        <ele>177.9</ele>
        <time>2025-02-26T09:22:56Z</time>
      </trkpt>
      <trkpt lat="48.06022" lon="-3.52921">
        <ele>177.9</ele>
        <time>2025-02-26T09:22:57Z</time>
      </trkpt>
      <trkpt lat="48.06023" lon="-3.52923">
        <ele>177.9</ele>
        <time>2025-02-26T09:22:58Z</time>
      </trkpt>
      <trkpt lat="48.06023" lon="-3.52924">
        <ele>178</ele>
        <time>2025-02-26T09:22:59Z</time>
      </trkpt>
      <trkpt lat="48.06023" lon="-3.52926">
        <ele>178</ele>
        <time>2025-02-26T09:23:00Z</time>
      </trkpt>
      <trkpt lat="48.06023" lon="-3.52928">
        <ele>178.1</ele>
        <time>2025-02-26T09:23:01Z</time>
      </trkpt>
      <trkpt lat="48.06023" lon="-3.5293">
        <ele>178.2</ele>
        <time>2025-02-26T09:23:02Z</time>
      </trkpt>
      <trkpt lat="48.06022" lon="-3.52932">
        <ele>178.4</ele>
        <time>2025-02-26T09:23:03Z</time>
      </trkpt>
      <trkpt lat="48.06022" lon="-3.52934">
        <ele>178.5</ele>
        <time>2025-02-26T09:23:04Z</time>
      </trkpt>
      <trkpt lat="48.06022" lon="-3.52936">
        <ele>178.5</ele>
        <time>2025-02-26T09:23:05Z</time>
      </trkpt>
      <trkpt lat="48.06022" lon="-3.52938">
        <ele>178.6</ele>
        <time>2025-02-26T09:23:06Z</time>
      </trkpt>
      <trkpt lat="48.06022" lon="-3.5294">
        <ele>178.7</ele>
        <time>2025-02-26T09:23:07Z</time>
      </trkpt>
      <trkpt lat="48.06022" lon="-3.52942">
        <ele>178.7</ele>
        <time>2025-02-26T09:23:08Z</time>
      </trkpt>
      <trkpt lat="48.06022" lon="-3.52945">
        <ele>178.8</ele>
        <time>2025-02-26T09:23:09Z</time>
      </trkpt>
      <trkpt lat="48.06022" lon="-3.52946">
        <ele>178.8</ele>
        <time>2025-02-26T09:23:10Z</time>
      </trkpt>
      <trkpt lat="48.06022" lon="-3.52948">
        <ele>178.7</ele>
        <time>2025-02-26T09:23:11Z</time>
      </trkpt>
      <trkpt lat="48.06022" lon="-3.5295">
        <ele>178.6</ele>
        <time>2025-02-26T09:23:12Z</time>
      </trkpt>
      <trkpt lat="48.06022" lon="-3.52952">
        <ele>178.6</ele>
        <time>2025-02-26T09:23:13Z</time>
      </trkpt>
      <trkpt lat="48.06022" lon="-3.52954">
        <ele>178.6</ele>
        <time>2025-02-26T09:23:14Z</time>
      </trkpt>
      <trkpt lat="48.06022" lon="-3.52956">
        <ele>178.5</ele>
        <time>2025-02-26T09:23:15Z</time>
      </trkpt>
      <trkpt lat="48.06023" lon="-3.52958">
        <ele>178.3</ele>
        <time>2025-02-26T09:23:16Z</time>
      </trkpt>
      <trkpt lat="48.06023" lon="-3.5296">
        <ele>178.3</ele>
        <time>2025-02-26T09:23:17Z</time>
      </trkpt>
      <trkpt lat="48.06022" lon="-3.52962">
        <ele>178.3</ele>
        <time>2025-02-26T09:23:18Z</time>
      </trkpt>
      <trkpt lat="48.06021" lon="-3.52964">
        <ele>178.4</ele>
        <time>2025-02-26T09:23:19Z</time>
      </trkpt>
      <trkpt lat="48.06021" lon="-3.52966">
        <ele>178.5</ele>
        <time>2025-02-26T09:23:20Z</time>
      </trkpt>
      <trkpt lat="48.06021" lon="-3.52968">
        <ele>178.4</ele>
        <time>2025-02-26T09:23:21Z</time>
      </trkpt>
      <trkpt lat="48.0602" lon="-3.5297">
        <ele>178.4</ele>
        <time>2025-02-26T09:23:22Z</time>
      </trkpt>
      <trkpt lat="48.0602" lon="-3.52972">
        <ele>178.4</ele>
        <time>2025-02-26T09:23:23Z</time>
      </trkpt>
      <trkpt lat="48.0602" lon="-3.52974">
        <ele>178.4</ele>
        <time>2025-02-26T09:23:24Z</time>
      </trkpt>
      <trkpt lat="48.06019" lon="-3.52976">
        <ele>178.4</ele>
        <time>2025-02-26T09:23:25Z</time>
      </trkpt>
      <trkpt lat="48.06019" lon="-3.52978">
        <ele>178.3</ele>
        <time>2025-02-26T09:23:26Z</time>
      </trkpt>
      <trkpt lat="48.0602" lon="-3.52979">
        <ele>178.2</ele>
        <time>2025-02-26T09:23:27Z</time>
      </trkpt>
      <trkpt lat="48.0602" lon="-3.52981">
        <ele>178.2</ele>
        <time>2025-02-26T09:23:28Z</time>
      </trkpt>
      <trkpt lat="48.0602" lon="-3.52983">
        <ele>178</ele>
        <time>2025-02-26T09:23:29Z</time>
      </trkpt>
      <trkpt lat="48.0602" lon="-3.52985">
        <ele>178</ele>
        <time>2025-02-26T09:23:30Z</time>
      </trkpt>
      <trkpt lat="48.0602" lon="-3.52987">
        <ele>177.9</ele>
        <time>2025-02-26T09:23:31Z</time>
      </trkpt>
      <trkpt lat="48.0602" lon="-3.52989">
        <ele>177.7</ele>
        <time>2025-02-26T09:23:32Z</time>
      </trkpt>
      <trkpt lat="48.06021" lon="-3.52991">
        <ele>177.6</ele>
        <time>2025-02-26T09:23:33Z</time>
      </trkpt>
      <trkpt lat="48.06021" lon="-3.52993">
        <ele>177.4</ele>
        <time>2025-02-26T09:23:34Z</time>
      </trkpt>
      <trkpt lat="48.06021" lon="-3.52995">
        <ele>177.4</ele>
        <time>2025-02-26T09:23:35Z</time>
      </trkpt>
      <trkpt lat="48.06021" lon="-3.52996">
        <ele>177.4</ele>
        <time>2025-02-26T09:23:36Z</time>
      </trkpt>
      <trkpt lat="48.06021" lon="-3.52998">
        <ele>177.3</ele>
        <time>2025-02-26T09:23:37Z</time>
      </trkpt>
      <trkpt lat="48.06021" lon="-3.53">
        <ele>177.3</ele>
        <time>2025-02-26T09:23:38Z</time>
      </trkpt>
      <trkpt lat="48.06021" lon="-3.53001">
        <ele>177.2</ele>
        <time>2025-02-26T09:23:39Z</time>
      </trkpt>
      <trkpt lat="48.06021" lon="-3.53003">
        <ele>177.1</ele>
        <time>2025-02-26T09:23:40Z</time>
      </trkpt>
      <trkpt lat="48.06021" lon="-3.53005">
        <ele>176.9</ele>
        <time>2025-02-26T09:23:41Z</time>
      </trkpt>
      <trkpt lat="48.06021" lon="-3.53007">
        <ele>176.7</ele>
        <time>2025-02-26T09:23:42Z</time>
      </trkpt>
      <trkpt lat="48.06022" lon="-3.53009">
        <ele>176.5</ele>
        <time>2025-02-26T09:23:43Z</time>
      </trkpt>
      <trkpt lat="48.06022" lon="-3.53011">
        <ele>176.4</ele>
        <time>2025-02-26T09:23:44Z</time>
      </trkpt>
      <trkpt lat="48.06022" lon="-3.53012">
        <ele>176.2</ele>
        <time>2025-02-26T09:23:45Z</time>
      </trkpt>
      <trkpt lat="48.06023" lon="-3.53014">
        <ele>175.9</ele>
        <time>2025-02-26T09:23:46Z</time>
      </trkpt>
      <trkpt lat="48.06024" lon="-3.53015">
        <ele>175.6</ele>
        <time>2025-02-26T09:23:47Z</time>
      </trkpt>
      <trkpt lat="48.06025" lon="-3.53016">
        <ele>175.3</ele>
        <time>2025-02-26T09:23:48Z</time>
      </trkpt>
      <trkpt lat="48.06026" lon="-3.53017">
        <ele>175</ele>
        <time>2025-02-26T09:23:49Z</time>
      </trkpt>
      <trkpt lat="48.06027" lon="-3.53018">
        <ele>174.8</ele>
        <time>2025-02-26T09:23:50Z</time>
      </trkpt>
      <trkpt lat="48.06028" lon="-3.53019">
        <ele>174.6</ele>
        <time>2025-02-26T09:23:51Z</time>
      </trkpt>
      <trkpt lat="48.06029" lon="-3.5302">
        <ele>174.6</ele>
        <time>2025-02-26T09:23:52Z</time>
      </trkpt>
      <trkpt lat="48.06031" lon="-3.5302">
        <ele>174.6</ele>
        <time>2025-02-26T09:23:53Z</time>
      </trkpt>
      <trkpt lat="48.06032" lon="-3.53021">
        <ele>174.6</ele>
        <time>2025-02-26T09:23:54Z</time>
      </trkpt>
      <trkpt lat="48.06032" lon="-3.53022">
        <ele>174.5</ele>
        <time>2025-02-26T09:23:55Z</time>
      </trkpt>
      <trkpt lat="48.06033" lon="-3.53022">
        <ele>174.5</ele>
        <time>2025-02-26T09:23:56Z</time>
      </trkpt>
      <trkpt lat="48.06034" lon="-3.53023">
        <ele>174.5</ele>
        <time>2025-02-26T09:23:57Z</time>
      </trkpt>
      <trkpt lat="48.06035" lon="-3.53023">
        <ele>174.5</ele>
        <time>2025-02-26T09:23:58Z</time>
      </trkpt>
      <trkpt lat="48.06036" lon="-3.53023">
        <ele>174.5</ele>
        <time>2025-02-26T09:23:59Z</time>
      </trkpt>
      <trkpt lat="48.06038" lon="-3.53023">
        <ele>174.6</ele>
        <time>2025-02-26T09:24:00Z</time>
      </trkpt>
      <trkpt lat="48.06039" lon="-3.53023">
        <ele>174.6</ele>
        <time>2025-02-26T09:24:01Z</time>
      </trkpt>
      <trkpt lat="48.0604" lon="-3.53022">
        <ele>174.7</ele>
        <time>2025-02-26T09:24:02Z</time>
      </trkpt>
      <trkpt lat="48.06041" lon="-3.53021">
        <ele>174.7</ele>
        <time>2025-02-26T09:24:03Z</time>
      </trkpt>
      <trkpt lat="48.06042" lon="-3.53022">
        <ele>174.7</ele>
        <time>2025-02-26T09:24:04Z</time>
      </trkpt>
      <trkpt lat="48.06044" lon="-3.53021">
        <ele>174.8</ele>
        <time>2025-02-26T09:24:05Z</time>
      </trkpt>
      <trkpt lat="48.06045" lon="-3.53021">
        <ele>174.8</ele>
        <time>2025-02-26T09:24:06Z</time>
      </trkpt>
      <trkpt lat="48.06046" lon="-3.5302">
        <ele>174.9</ele>
        <time>2025-02-26T09:24:07Z</time>
      </trkpt>
      <trkpt lat="48.06047" lon="-3.5302">
        <ele>174.9</ele>
        <time>2025-02-26T09:24:08Z</time>
      </trkpt>
      <trkpt lat="48.06048" lon="-3.53019">
        <ele>174.9</ele>
        <time>2025-02-26T09:24:09Z</time>
      </trkpt>
      <trkpt lat="48.0605" lon="-3.53018">
        <ele>174.9</ele>
        <time>2025-02-26T09:24:10Z</time>
      </trkpt>
      <trkpt lat="48.06051" lon="-3.53018">
        <ele>175</ele>
        <time>2025-02-26T09:24:11Z</time>
      </trkpt>
      <trkpt lat="48.06052" lon="-3.53018">
        <ele>175</ele>
        <time>2025-02-26T09:24:12Z</time>
      </trkpt>
      <trkpt lat="48.06054" lon="-3.53017">
        <ele>175</ele>
        <time>2025-02-26T09:24:13Z</time>
      </trkpt>
      <trkpt lat="48.06055" lon="-3.53015">
        <ele>175</ele>
        <time>2025-02-26T09:24:14Z</time>
      </trkpt>
      <trkpt lat="48.06056" lon="-3.53014">
        <ele>175</ele>
        <time>2025-02-26T09:24:15Z</time>
      </trkpt>
      <trkpt lat="48.06057" lon="-3.53013">
        <ele>175.1</ele>
        <time>2025-02-26T09:24:16Z</time>
      </trkpt>
      <trkpt lat="48.06058" lon="-3.53013">
        <ele>175.1</ele>
        <time>2025-02-26T09:24:17Z</time>
      </trkpt>
      <trkpt lat="48.06059" lon="-3.53012">
        <ele>175.2</ele>
        <time>2025-02-26T09:24:18Z</time>
      </trkpt>
      <trkpt lat="48.06061" lon="-3.53012">
        <ele>175.3</ele>
        <time>2025-02-26T09:24:19Z</time>
      </trkpt>
      <trkpt lat="48.06062" lon="-3.53009">
        <ele>175.3</ele>
        <time>2025-02-26T09:24:20Z</time>
      </trkpt>
      <trkpt lat="48.06062" lon="-3.53008">
        <ele>175.3</ele>
        <time>2025-02-26T09:24:21Z</time>
      </trkpt>
      <trkpt lat="48.06062" lon="-3.53007">
        <ele>175.3</ele>
        <time>2025-02-26T09:24:22Z</time>
      </trkpt>
      <trkpt lat="48.06062" lon="-3.53007">
        <ele>175.3</ele>
        <time>2025-02-26T09:24:23Z</time>
      </trkpt>
      <trkpt lat="48.06062" lon="-3.53007">
        <ele>175.3</ele>
        <time>2025-02-26T09:24:24Z</time>
      </trkpt>
      <trkpt lat="48.06062" lon="-3.53007">
        <ele>175.3</ele>
        <time>2025-02-26T09:24:25Z</time>
      </trkpt>
      <trkpt lat="48.06062" lon="-3.53007">
        <ele>175.3</ele>
        <time>2025-02-26T09:24:26Z</time>
      </trkpt>
      <trkpt lat="48.06063" lon="-3.53007">
        <ele>175.3</ele>
        <time>2025-02-26T09:24:27Z</time>
      </trkpt>
      <trkpt lat="48.06063" lon="-3.53006">
        <ele>175.3</ele>
        <time>2025-02-26T09:24:28Z</time>
      </trkpt>
      <trkpt lat="48.06063" lon="-3.53006">
        <ele>175.3</ele>
        <time>2025-02-26T09:24:29Z</time>
      </trkpt>
      <trkpt lat="48.06063" lon="-3.53006">
        <ele>175.3</ele>
        <time>2025-02-26T09:24:30Z</time>
      </trkpt>
      <trkpt lat="48.06064" lon="-3.53006">
        <ele>175.4</ele>
        <time>2025-02-26T09:24:31Z</time>
      </trkpt>
      <trkpt lat="48.06066" lon="-3.53005">
        <ele>175.4</ele>
        <time>2025-02-26T09:24:32Z</time>
      </trkpt>
      <trkpt lat="48.06067" lon="-3.53004">
        <ele>175.5</ele>
        <time>2025-02-26T09:24:33Z</time>
      </trkpt>
      <trkpt lat="48.06068" lon="-3.53003">
        <ele>175.5</ele>
        <time>2025-02-26T09:24:34Z</time>
      </trkpt>
      <trkpt lat="48.06069" lon="-3.53004">
        <ele>175.6</ele>
        <time>2025-02-26T09:24:35Z</time>
      </trkpt>
      <trkpt lat="48.0607" lon="-3.53004">
        <ele>175.6</ele>
        <time>2025-02-26T09:24:36Z</time>
      </trkpt>
      <trkpt lat="48.06071" lon="-3.53004">
        <ele>175.7</ele>
        <time>2025-02-26T09:24:37Z</time>
      </trkpt>
      <trkpt lat="48.06072" lon="-3.53004">
        <ele>175.7</ele>
        <time>2025-02-26T09:24:38Z</time>
      </trkpt>
      <trkpt lat="48.06073" lon="-3.53004">
        <ele>175.7</ele>
        <time>2025-02-26T09:24:39Z</time>
      </trkpt>
      <trkpt lat="48.06074" lon="-3.53003">
        <ele>175.7</ele>
        <time>2025-02-26T09:24:40Z</time>
      </trkpt>
      <trkpt lat="48.06075" lon="-3.53003">
        <ele>175.8</ele>
        <time>2025-02-26T09:24:41Z</time>
      </trkpt>
      <trkpt lat="48.06076" lon="-3.53003">
        <ele>175.8</ele>
        <time>2025-02-26T09:24:42Z</time>
      </trkpt>
      <trkpt lat="48.06076" lon="-3.53003">
        <ele>175.8</ele>
        <time>2025-02-26T09:24:43Z</time>
      </trkpt>
      <trkpt lat="48.06077" lon="-3.53003">
        <ele>175.9</ele>
        <time>2025-02-26T09:24:44Z</time>
      </trkpt>
      <trkpt lat="48.06078" lon="-3.53003">
        <ele>175.9</ele>
        <time>2025-02-26T09:24:45Z</time>
      </trkpt>
      <trkpt lat="48.06079" lon="-3.53004">
        <ele>176</ele>
        <time>2025-02-26T09:24:46Z</time>
      </trkpt>
      <trkpt lat="48.0608" lon="-3.53005">
        <ele>176</ele>
        <time>2025-02-26T09:24:47Z</time>
      </trkpt>
      <trkpt lat="48.0608" lon="-3.53007">
        <ele>176.1</ele>
        <time>2025-02-26T09:24:48Z</time>
      </trkpt>
      <trkpt lat="48.06081" lon="-3.53007">
        <ele>176.1</ele>
        <time>2025-02-26T09:24:49Z</time>
      </trkpt>
      <trkpt lat="48.06082" lon="-3.53008">
        <ele>176.2</ele>
        <time>2025-02-26T09:24:50Z</time>
      </trkpt>
      <trkpt lat="48.06082" lon="-3.53009">
        <ele>176.3</ele>
        <time>2025-02-26T09:24:51Z</time>
      </trkpt>
      <trkpt lat="48.06083" lon="-3.5301">
        <ele>176.3</ele>
        <time>2025-02-26T09:24:52Z</time>
      </trkpt>
      <trkpt lat="48.06083" lon="-3.53011">
        <ele>176.4</ele>
        <time>2025-02-26T09:24:53Z</time>
      </trkpt>
      <trkpt lat="48.06084" lon="-3.53011">
        <ele>176.5</ele>
        <time>2025-02-26T09:24:54Z</time>
      </trkpt>
      <trkpt lat="48.06084" lon="-3.53013">
        <ele>176.5</ele>
        <time>2025-02-26T09:24:55Z</time>
      </trkpt>
      <trkpt lat="48.06085" lon="-3.53013">
        <ele>176.6</ele>
        <time>2025-02-26T09:24:56Z</time>
      </trkpt>
      <trkpt lat="48.06085" lon="-3.53014">
        <ele>176.6</ele>
        <time>2025-02-26T09:24:57Z</time>
      </trkpt>
      <trkpt lat="48.06086" lon="-3.53016">
        <ele>176.7</ele>
        <time>2025-02-26T09:24:58Z</time>
      </trkpt>
      <trkpt lat="48.06086" lon="-3.53017">
        <ele>176.8</ele>
        <time>2025-02-26T09:24:59Z</time>
      </trkpt>
      <trkpt lat="48.06086" lon="-3.53018">
        <ele>176.9</ele>
        <time>2025-02-26T09:25:00Z</time>
      </trkpt>
      <trkpt lat="48.06087" lon="-3.5302">
        <ele>177</ele>
        <time>2025-02-26T09:25:01Z</time>
      </trkpt>
      <trkpt lat="48.06087" lon="-3.53022">
        <ele>177</ele>
        <time>2025-02-26T09:25:02Z</time>
      </trkpt>
      <trkpt lat="48.06087" lon="-3.53023">
        <ele>177.1</ele>
        <time>2025-02-26T09:25:03Z</time>
      </trkpt>
      <trkpt lat="48.06087" lon="-3.53025">
        <ele>177.2</ele>
        <time>2025-02-26T09:25:04Z</time>
      </trkpt>
      <trkpt lat="48.06087" lon="-3.53027">
        <ele>177.2</ele>
        <time>2025-02-26T09:25:05Z</time>
      </trkpt>
      <trkpt lat="48.06087" lon="-3.53029">
        <ele>177.3</ele>
        <time>2025-02-26T09:25:06Z</time>
      </trkpt>
      <trkpt lat="48.06087" lon="-3.53031">
        <ele>177.3</ele>
        <time>2025-02-26T09:25:07Z</time>
      </trkpt>
      <trkpt lat="48.06086" lon="-3.53032">
        <ele>177.4</ele>
        <time>2025-02-26T09:25:08Z</time>
      </trkpt>
      <trkpt lat="48.06086" lon="-3.53034">
        <ele>177.4</ele>
        <time>2025-02-26T09:25:09Z</time>
      </trkpt>
      <trkpt lat="48.06085" lon="-3.53035">
        <ele>177.4</ele>
        <time>2025-02-26T09:25:10Z</time>
      </trkpt>
      <trkpt lat="48.06085" lon="-3.53037">
        <ele>177.4</ele>
        <time>2025-02-26T09:25:11Z</time>
      </trkpt>
      <trkpt lat="48.06085" lon="-3.53039">
        <ele>177.5</ele>
        <time>2025-02-26T09:25:12Z</time>
      </trkpt>
      <trkpt lat="48.06085" lon="-3.5304">
        <ele>177.5</ele>
        <time>2025-02-26T09:25:13Z</time>
      </trkpt>
      <trkpt lat="48.06085" lon="-3.53042">
        <ele>177.6</ele>
        <time>2025-02-26T09:25:14Z</time>
      </trkpt>
      <trkpt lat="48.06085" lon="-3.53043">
        <ele>177.7</ele>
        <time>2025-02-26T09:25:15Z</time>
      </trkpt>
      <trkpt lat="48.06085" lon="-3.53045">
        <ele>177.7</ele>
        <time>2025-02-26T09:25:16Z</time>
      </trkpt>
      <trkpt lat="48.06085" lon="-3.53046">
        <ele>177.8</ele>
        <time>2025-02-26T09:25:17Z</time>
      </trkpt>
      <trkpt lat="48.06086" lon="-3.53048">
        <ele>177.9</ele>
        <time>2025-02-26T09:25:18Z</time>
      </trkpt>
      <trkpt lat="48.06086" lon="-3.5305">
        <ele>178</ele>
        <time>2025-02-26T09:25:19Z</time>
      </trkpt>
      <trkpt lat="48.06086" lon="-3.53051">
        <ele>178</ele>
        <time>2025-02-26T09:25:20Z</time>
      </trkpt>
      <trkpt lat="48.06086" lon="-3.53053">
        <ele>178.1</ele>
        <time>2025-02-26T09:25:21Z</time>
      </trkpt>
      <trkpt lat="48.06087" lon="-3.53055">
        <ele>178.2</ele>
        <time>2025-02-26T09:25:22Z</time>
      </trkpt>
      <trkpt lat="48.06087" lon="-3.53056">
        <ele>178.3</ele>
        <time>2025-02-26T09:25:23Z</time>
      </trkpt>
      <trkpt lat="48.06087" lon="-3.53058">
        <ele>178.4</ele>
        <time>2025-02-26T09:25:24Z</time>
      </trkpt>
      <trkpt lat="48.06088" lon="-3.53059">
        <ele>178.4</ele>
        <time>2025-02-26T09:25:25Z</time>
      </trkpt>
      <trkpt lat="48.06088" lon="-3.53061">
        <ele>178.5</ele>
        <time>2025-02-26T09:25:26Z</time>
      </trkpt>
      <trkpt lat="48.06088" lon="-3.53063">
        <ele>178.5</ele>
        <time>2025-02-26T09:25:27Z</time>
      </trkpt>
      <trkpt lat="48.06088" lon="-3.53064">
        <ele>178.6</ele>
        <time>2025-02-26T09:25:28Z</time>
      </trkpt>
      <trkpt lat="48.06088" lon="-3.53066">
        <ele>178.6</ele>
        <time>2025-02-26T09:25:29Z</time>
      </trkpt>
      <trkpt lat="48.06089" lon="-3.53067">
        <ele>178.7</ele>
        <time>2025-02-26T09:25:30Z</time>
      </trkpt>
      <trkpt lat="48.06089" lon="-3.53069">
        <ele>178.8</ele>
        <time>2025-02-26T09:25:31Z</time>
      </trkpt>
      <trkpt lat="48.06089" lon="-3.5307">
        <ele>178.8</ele>
        <time>2025-02-26T09:25:32Z</time>
      </trkpt>
      <trkpt lat="48.0609" lon="-3.53072">
        <ele>178.9</ele>
        <time>2025-02-26T09:25:33Z</time>
      </trkpt>
      <trkpt lat="48.0609" lon="-3.53074">
        <ele>179</ele>
        <time>2025-02-26T09:25:34Z</time>
      </trkpt>
      <trkpt lat="48.06091" lon="-3.53075">
        <ele>179.1</ele>
        <time>2025-02-26T09:25:35Z</time>
      </trkpt>
      <trkpt lat="48.06091" lon="-3.53077">
        <ele>179.1</ele>
        <time>2025-02-26T09:25:36Z</time>
      </trkpt>
      <trkpt lat="48.06091" lon="-3.53078">
        <ele>179.2</ele>
        <time>2025-02-26T09:25:37Z</time>
      </trkpt>
      <trkpt lat="48.06091" lon="-3.5308">
        <ele>179.2</ele>
        <time>2025-02-26T09:25:38Z</time>
      </trkpt>
      <trkpt lat="48.06092" lon="-3.53081">
        <ele>179.2</ele>
        <time>2025-02-26T09:25:39Z</time>
      </trkpt>
      <trkpt lat="48.06092" lon="-3.53083">
        <ele>179.3</ele>
        <time>2025-02-26T09:25:40Z</time>
      </trkpt>
      <trkpt lat="48.06093" lon="-3.53085">
        <ele>179.3</ele>
        <time>2025-02-26T09:25:41Z</time>
      </trkpt>
      <trkpt lat="48.06093" lon="-3.53087">
        <ele>179.3</ele>
        <time>2025-02-26T09:25:42Z</time>
      </trkpt>
      <trkpt lat="48.06093" lon="-3.53089">
        <ele>179.3</ele>
        <time>2025-02-26T09:25:43Z</time>
      </trkpt>
      <trkpt lat="48.06093" lon="-3.5309">
        <ele>179.3</ele>
        <time>2025-02-26T09:25:44Z</time>
      </trkpt>
      <trkpt lat="48.06093" lon="-3.53092">
        <ele>179.4</ele>
        <time>2025-02-26T09:25:45Z</time>
      </trkpt>
      <trkpt lat="48.06094" lon="-3.53093">
        <ele>179.4</ele>
        <time>2025-02-26T09:25:46Z</time>
      </trkpt>
      <trkpt lat="48.06094" lon="-3.53095">
        <ele>179.4</ele>
        <time>2025-02-26T09:25:47Z</time>
      </trkpt>
      <trkpt lat="48.06094" lon="-3.53097">
        <ele>179.4</ele>
        <time>2025-02-26T09:25:48Z</time>
      </trkpt>
      <trkpt lat="48.06095" lon="-3.53098">
        <ele>179.4</ele>
        <time>2025-02-26T09:25:49Z</time>
      </trkpt>
      <trkpt lat="48.06095" lon="-3.531">
        <ele>179.4</ele>
        <time>2025-02-26T09:25:50Z</time>
      </trkpt>
      <trkpt lat="48.06096" lon="-3.53102">
        <ele>179.4</ele>
        <time>2025-02-26T09:25:51Z</time>
      </trkpt>
      <trkpt lat="48.06096" lon="-3.53104">
        <ele>179.4</ele>
        <time>2025-02-26T09:25:52Z</time>
      </trkpt>
      <trkpt lat="48.06096" lon="-3.53105">
        <ele>179.4</ele>
        <time>2025-02-26T09:25:53Z</time>
      </trkpt>
      <trkpt lat="48.06096" lon="-3.53107">
        <ele>179.5</ele>
        <time>2025-02-26T09:25:54Z</time>
      </trkpt>
      <trkpt lat="48.06096" lon="-3.53108">
        <ele>179.5</ele>
        <time>2025-02-26T09:25:55Z</time>
      </trkpt>
      <trkpt lat="48.06096" lon="-3.5311">
        <ele>179.5</ele>
        <time>2025-02-26T09:25:56Z</time>
      </trkpt>
      <trkpt lat="48.06097" lon="-3.53111">
        <ele>179.5</ele>
        <time>2025-02-26T09:25:57Z</time>
      </trkpt>
      <trkpt lat="48.06097" lon="-3.53113">
        <ele>179.5</ele>
        <time>2025-02-26T09:25:58Z</time>
      </trkpt>
      <trkpt lat="48.06097" lon="-3.53115">
        <ele>179.5</ele>
        <time>2025-02-26T09:25:59Z</time>
      </trkpt>
      <trkpt lat="48.06097" lon="-3.53117">
        <ele>179.5</ele>
        <time>2025-02-26T09:26:00Z</time>
      </trkpt>
      <trkpt lat="48.06097" lon="-3.53118">
        <ele>179.5</ele>
        <time>2025-02-26T09:26:01Z</time>
      </trkpt>
      <trkpt lat="48.06097" lon="-3.5312">
        <ele>179.5</ele>
        <time>2025-02-26T09:26:02Z</time>
      </trkpt>
      <trkpt lat="48.06097" lon="-3.53121">
        <ele>179.5</ele>
        <time>2025-02-26T09:26:03Z</time>
      </trkpt>
      <trkpt lat="48.06098" lon="-3.53123">
        <ele>179.5</ele>
        <time>2025-02-26T09:26:04Z</time>
      </trkpt>
      <trkpt lat="48.06098" lon="-3.53124">
        <ele>179.5</ele>
        <time>2025-02-26T09:26:05Z</time>
      </trkpt>
      <trkpt lat="48.06098" lon="-3.53126">
        <ele>179.5</ele>
        <time>2025-02-26T09:26:06Z</time>
      </trkpt>
      <trkpt lat="48.06098" lon="-3.53128">
        <ele>179.5</ele>
        <time>2025-02-26T09:26:07Z</time>
      </trkpt>
      <trkpt lat="48.06099" lon="-3.53129">
        <ele>179.5</ele>
        <time>2025-02-26T09:26:08Z</time>
      </trkpt>
      <trkpt lat="48.06099" lon="-3.53131">
        <ele>179.5</ele>
        <time>2025-02-26T09:26:09Z</time>
      </trkpt>
      <trkpt lat="48.06099" lon="-3.53133">
        <ele>179.5</ele>
        <time>2025-02-26T09:26:10Z</time>
      </trkpt>
      <trkpt lat="48.06099" lon="-3.53134">
        <ele>179.6</ele>
        <time>2025-02-26T09:26:11Z</time>
      </trkpt>
      <trkpt lat="48.061" lon="-3.53136">
        <ele>179.6</ele>
        <time>2025-02-26T09:26:12Z</time>
      </trkpt>
      <trkpt lat="48.061" lon="-3.53138">
        <ele>179.6</ele>
        <time>2025-02-26T09:26:13Z</time>
      </trkpt>
      <trkpt lat="48.06101" lon="-3.53139">
        <ele>179.6</ele>
        <time>2025-02-26T09:26:14Z</time>
      </trkpt>
      <trkpt lat="48.06101" lon="-3.5314">
        <ele>179.6</ele>
        <time>2025-02-26T09:26:15Z</time>
      </trkpt>
      <trkpt lat="48.06101" lon="-3.53142">
        <ele>179.5</ele>
        <time>2025-02-26T09:26:16Z</time>
      </trkpt>
      <trkpt lat="48.06101" lon="-3.53144">
        <ele>179.5</ele>
        <time>2025-02-26T09:26:17Z</time>
      </trkpt>
      <trkpt lat="48.06101" lon="-3.53146">
        <ele>179.5</ele>
        <time>2025-02-26T09:26:18Z</time>
      </trkpt>
      <trkpt lat="48.06102" lon="-3.53147">
        <ele>179.5</ele>
        <time>2025-02-26T09:26:19Z</time>
      </trkpt>
      <trkpt lat="48.06102" lon="-3.53149">
        <ele>179.4</ele>
        <time>2025-02-26T09:26:20Z</time>
      </trkpt>
      <trkpt lat="48.06102" lon="-3.53151">
        <ele>179.4</ele>
        <time>2025-02-26T09:26:21Z</time>
      </trkpt>
      <trkpt lat="48.06103" lon="-3.53152">
        <ele>179.4</ele>
        <time>2025-02-26T09:26:22Z</time>
      </trkpt>
      <trkpt lat="48.06103" lon="-3.53154">
        <ele>179.3</ele>
        <time>2025-02-26T09:26:23Z</time>
      </trkpt>
      <trkpt lat="48.06103" lon="-3.53155">
        <ele>179.3</ele>
        <time>2025-02-26T09:26:24Z</time>
      </trkpt>
      <trkpt lat="48.06103" lon="-3.53157">
        <ele>179.3</ele>
        <time>2025-02-26T09:26:25Z</time>
      </trkpt>
      <trkpt lat="48.06104" lon="-3.53159">
        <ele>179.2</ele>
        <time>2025-02-26T09:26:26Z</time>
      </trkpt>
      <trkpt lat="48.06104" lon="-3.5316">
        <ele>179.2</ele>
        <time>2025-02-26T09:26:27Z</time>
      </trkpt>
      <trkpt lat="48.06104" lon="-3.53162">
        <ele>179.1</ele>
        <time>2025-02-26T09:26:28Z</time>
      </trkpt>
      <trkpt lat="48.06104" lon="-3.53164">
        <ele>179.1</ele>
        <time>2025-02-26T09:26:29Z</time>
      </trkpt>
      <trkpt lat="48.06105" lon="-3.53165">
        <ele>179</ele>
        <time>2025-02-26T09:26:30Z</time>
      </trkpt>
      <trkpt lat="48.06105" lon="-3.53167">
        <ele>179</ele>
        <time>2025-02-26T09:26:31Z</time>
      </trkpt>
      <trkpt lat="48.06105" lon="-3.53168">
        <ele>178.9</ele>
        <time>2025-02-26T09:26:32Z</time>
      </trkpt>
      <trkpt lat="48.06106" lon="-3.5317">
        <ele>178.9</ele>
        <time>2025-02-26T09:26:33Z</time>
      </trkpt>
      <trkpt lat="48.06106" lon="-3.53171">
        <ele>178.8</ele>
        <time>2025-02-26T09:26:34Z</time>
      </trkpt>
      <trkpt lat="48.06107" lon="-3.53173">
        <ele>178.8</ele>
        <time>2025-02-26T09:26:35Z</time>
      </trkpt>
      <trkpt lat="48.06107" lon="-3.53175">
        <ele>178.7</ele>
        <time>2025-02-26T09:26:36Z</time>
      </trkpt>
      <trkpt lat="48.06107" lon="-3.53176">
        <ele>178.7</ele>
        <time>2025-02-26T09:26:37Z</time>
      </trkpt>
      <trkpt lat="48.06107" lon="-3.53178">
        <ele>178.6</ele>
        <time>2025-02-26T09:26:38Z</time>
      </trkpt>
      <trkpt lat="48.06107" lon="-3.5318">
        <ele>178.5</ele>
        <time>2025-02-26T09:26:39Z</time>
      </trkpt>
      <trkpt lat="48.06108" lon="-3.53181">
        <ele>178.5</ele>
        <time>2025-02-26T09:26:40Z</time>
      </trkpt>
      <trkpt lat="48.06108" lon="-3.53183">
        <ele>178.4</ele>
        <time>2025-02-26T09:26:41Z</time>
      </trkpt>
      <trkpt lat="48.06109" lon="-3.53185">
        <ele>178.3</ele>
        <time>2025-02-26T09:26:42Z</time>
      </trkpt>
      <trkpt lat="48.06109" lon="-3.53187">
        <ele>178.3</ele>
        <time>2025-02-26T09:26:43Z</time>
      </trkpt>
      <trkpt lat="48.06109" lon="-3.53188">
        <ele>178.2</ele>
        <time>2025-02-26T09:26:44Z</time>
      </trkpt>
      <trkpt lat="48.06109" lon="-3.5319">
        <ele>178.2</ele>
        <time>2025-02-26T09:26:45Z</time>
      </trkpt>
      <trkpt lat="48.0611" lon="-3.53192">
        <ele>178.1</ele>
        <time>2025-02-26T09:26:46Z</time>
      </trkpt>
      <trkpt lat="48.0611" lon="-3.53193">
        <ele>178.1</ele>
        <time>2025-02-26T09:26:47Z</time>
      </trkpt>
      <trkpt lat="48.06112" lon="-3.53192">
        <ele>178.1</ele>
        <time>2025-02-26T09:26:48Z</time>
      </trkpt>
      <trkpt lat="48.06113" lon="-3.53194">
        <ele>178.1</ele>
        <time>2025-02-26T09:26:49Z</time>
      </trkpt>
      <trkpt lat="48.06113" lon="-3.53195">
        <ele>178</ele>
        <time>2025-02-26T09:26:50Z</time>
      </trkpt>
      <trkpt lat="48.06113" lon="-3.53197">
        <ele>178</ele>
        <time>2025-02-26T09:26:51Z</time>
      </trkpt>
      <trkpt lat="48.06113" lon="-3.53198">
        <ele>178</ele>
        <time>2025-02-26T09:26:52Z</time>
      </trkpt>
      <trkpt lat="48.06113" lon="-3.532">
        <ele>178</ele>
        <time>2025-02-26T09:26:53Z</time>
      </trkpt>
      <trkpt lat="48.06113" lon="-3.53202">
        <ele>178.1</ele>
        <time>2025-02-26T09:26:54Z</time>
      </trkpt>
      <trkpt lat="48.06114" lon="-3.53203">
        <ele>178.1</ele>
        <time>2025-02-26T09:26:55Z</time>
      </trkpt>
      <trkpt lat="48.06114" lon="-3.53204">
        <ele>178.1</ele>
        <time>2025-02-26T09:26:56Z</time>
      </trkpt>
      <trkpt lat="48.06114" lon="-3.53206">
        <ele>178.1</ele>
        <time>2025-02-26T09:26:57Z</time>
      </trkpt>
      <trkpt lat="48.06114" lon="-3.53207">
        <ele>178.1</ele>
        <time>2025-02-26T09:26:58Z</time>
      </trkpt>
      <trkpt lat="48.06115" lon="-3.53208">
        <ele>178.1</ele>
        <time>2025-02-26T09:26:59Z</time>
      </trkpt>
      <trkpt lat="48.06116" lon="-3.53208">
        <ele>178.1</ele>
        <time>2025-02-26T09:27:00Z</time>
      </trkpt>
      <trkpt lat="48.06117" lon="-3.53209">
        <ele>178.1</ele>
        <time>2025-02-26T09:27:01Z</time>
      </trkpt>
      <trkpt lat="48.06118" lon="-3.5321">
        <ele>178.1</ele>
        <time>2025-02-26T09:27:02Z</time>
      </trkpt>
      <trkpt lat="48.06119" lon="-3.5321">
        <ele>178.1</ele>
        <time>2025-02-26T09:27:03Z</time>
      </trkpt>
      <trkpt lat="48.0612" lon="-3.53211">
        <ele>178.1</ele>
        <time>2025-02-26T09:27:04Z</time>
      </trkpt>
      <trkpt lat="48.06121" lon="-3.53212">
        <ele>178.1</ele>
        <time>2025-02-26T09:27:05Z</time>
      </trkpt>
      <trkpt lat="48.06122" lon="-3.53212">
        <ele>178.1</ele>
        <time>2025-02-26T09:27:06Z</time>
      </trkpt>
      <trkpt lat="48.06123" lon="-3.53213">
        <ele>178.1</ele>
        <time>2025-02-26T09:27:07Z</time>
      </trkpt>
      <trkpt lat="48.06124" lon="-3.53214">
        <ele>178.1</ele>
        <time>2025-02-26T09:27:08Z</time>
      </trkpt>
      <trkpt lat="48.06124" lon="-3.53214">
        <ele>178.1</ele>
        <time>2025-02-26T09:27:09Z</time>
      </trkpt>
      <trkpt lat="48.06126" lon="-3.53214">
        <ele>178.1</ele>
        <time>2025-02-26T09:27:10Z</time>
      </trkpt>
      <trkpt lat="48.06126" lon="-3.53214">
        <ele>178.2</ele>
        <time>2025-02-26T09:27:11Z</time>
      </trkpt>
      <trkpt lat="48.06127" lon="-3.53216">
        <ele>178.1</ele>
        <time>2025-02-26T09:27:12Z</time>
      </trkpt>
      <trkpt lat="48.06128" lon="-3.53216">
        <ele>178.1</ele>
        <time>2025-02-26T09:27:13Z</time>
      </trkpt>
      <trkpt lat="48.06129" lon="-3.53217">
        <ele>178.1</ele>
        <time>2025-02-26T09:27:14Z</time>
      </trkpt>
      <trkpt lat="48.0613" lon="-3.53218">
        <ele>178.1</ele>
        <time>2025-02-26T09:27:15Z</time>
      </trkpt>
      <trkpt lat="48.06131" lon="-3.53219">
        <ele>178.1</ele>
        <time>2025-02-26T09:27:16Z</time>
      </trkpt>
      <trkpt lat="48.06132" lon="-3.5322">
        <ele>178.1</ele>
        <time>2025-02-26T09:27:17Z</time>
      </trkpt>
      <trkpt lat="48.06133" lon="-3.5322">
        <ele>178.1</ele>
        <time>2025-02-26T09:27:18Z</time>
      </trkpt>
      <trkpt lat="48.06134" lon="-3.5322">
        <ele>178.1</ele>
        <time>2025-02-26T09:27:19Z</time>
      </trkpt>
      <trkpt lat="48.06135" lon="-3.53221">
        <ele>178</ele>
        <time>2025-02-26T09:27:20Z</time>
      </trkpt>
      <trkpt lat="48.06136" lon="-3.53222">
        <ele>178</ele>
        <time>2025-02-26T09:27:21Z</time>
      </trkpt>
      <trkpt lat="48.06137" lon="-3.53222">
        <ele>178</ele>
        <time>2025-02-26T09:27:22Z</time>
      </trkpt>
      <trkpt lat="48.06138" lon="-3.53223">
        <ele>178</ele>
        <time>2025-02-26T09:27:23Z</time>
      </trkpt>
      <trkpt lat="48.06139" lon="-3.53223">
        <ele>178</ele>
        <time>2025-02-26T09:27:24Z</time>
      </trkpt>
      <trkpt lat="48.0614" lon="-3.53224">
        <ele>177.9</ele>
        <time>2025-02-26T09:27:25Z</time>
      </trkpt>
      <trkpt lat="48.06142" lon="-3.53225">
        <ele>177.9</ele>
        <time>2025-02-26T09:27:26Z</time>
      </trkpt>
      <trkpt lat="48.06143" lon="-3.53225">
        <ele>177.9</ele>
        <time>2025-02-26T09:27:27Z</time>
      </trkpt>
      <trkpt lat="48.06144" lon="-3.53226">
        <ele>177.9</ele>
        <time>2025-02-26T09:27:28Z</time>
      </trkpt>
      <trkpt lat="48.06145" lon="-3.53226">
        <ele>177.9</ele>
        <time>2025-02-26T09:27:29Z</time>
      </trkpt>
      <trkpt lat="48.06146" lon="-3.53227">
        <ele>177.8</ele>
        <time>2025-02-26T09:27:30Z</time>
      </trkpt>
      <trkpt lat="48.06147" lon="-3.53227">
        <ele>177.8</ele>
        <time>2025-02-26T09:27:31Z</time>
      </trkpt>
      <trkpt lat="48.06148" lon="-3.53228">
        <ele>177.8</ele>
        <time>2025-02-26T09:27:32Z</time>
      </trkpt>
      <trkpt lat="48.06149" lon="-3.53228">
        <ele>177.8</ele>
        <time>2025-02-26T09:27:33Z</time>
      </trkpt>
      <trkpt lat="48.0615" lon="-3.53229">
        <ele>177.8</ele>
        <time>2025-02-26T09:27:34Z</time>
      </trkpt>
      <trkpt lat="48.06151" lon="-3.5323">
        <ele>177.7</ele>
        <time>2025-02-26T09:27:35Z</time>
      </trkpt>
      <trkpt lat="48.06152" lon="-3.5323">
        <ele>177.7</ele>
        <time>2025-02-26T09:27:36Z</time>
      </trkpt>
      <trkpt lat="48.06153" lon="-3.53231">
        <ele>177.7</ele>
        <time>2025-02-26T09:27:37Z</time>
      </trkpt>
      <trkpt lat="48.06154" lon="-3.53232">
        <ele>177.7</ele>
        <time>2025-02-26T09:27:38Z</time>
      </trkpt>
      <trkpt lat="48.06155" lon="-3.53232">
        <ele>177.6</ele>
        <time>2025-02-26T09:27:39Z</time>
      </trkpt>
      <trkpt lat="48.06156" lon="-3.53233">
        <ele>177.6</ele>
        <time>2025-02-26T09:27:40Z</time>
      </trkpt>
      <trkpt lat="48.06157" lon="-3.53233">
        <ele>177.6</ele>
        <time>2025-02-26T09:27:41Z</time>
      </trkpt>
      <trkpt lat="48.06158" lon="-3.53233">
        <ele>177.6</ele>
        <time>2025-02-26T09:27:42Z</time>
      </trkpt>
      <trkpt lat="48.06159" lon="-3.53233">
        <ele>177.6</ele>
        <time>2025-02-26T09:27:43Z</time>
      </trkpt>
      <trkpt lat="48.06161" lon="-3.53234">
        <ele>177.6</ele>
        <time>2025-02-26T09:27:44Z</time>
      </trkpt>
      <trkpt lat="48.06162" lon="-3.53234">
        <ele>177.6</ele>
        <time>2025-02-26T09:27:45Z</time>
      </trkpt>
      <trkpt lat="48.06163" lon="-3.53235">
        <ele>177.6</ele>
        <time>2025-02-26T09:27:46Z</time>
      </trkpt>
      <trkpt lat="48.06164" lon="-3.53235">
        <ele>177.5</ele>
        <time>2025-02-26T09:27:47Z</time>
      </trkpt>
      <trkpt lat="48.06165" lon="-3.53236">
        <ele>177.5</ele>
        <time>2025-02-26T09:27:48Z</time>
      </trkpt>
      <trkpt lat="48.06166" lon="-3.53237">
        <ele>177.5</ele>
        <time>2025-02-26T09:27:49Z</time>
      </trkpt>
      <trkpt lat="48.06168" lon="-3.53237">
        <ele>177.5</ele>
        <time>2025-02-26T09:27:50Z</time>
      </trkpt>
      <trkpt lat="48.06169" lon="-3.53237">
        <ele>177.5</ele>
        <time>2025-02-26T09:27:51Z</time>
      </trkpt>
      <trkpt lat="48.0617" lon="-3.53238">
        <ele>177.4</ele>
        <time>2025-02-26T09:27:52Z</time>
      </trkpt>
      <trkpt lat="48.06171" lon="-3.53238">
        <ele>177.4</ele>
        <time>2025-02-26T09:27:53Z</time>
      </trkpt>
      <trkpt lat="48.06172" lon="-3.53238">
        <ele>177.4</ele>
        <time>2025-02-26T09:27:54Z</time>
      </trkpt>
      <trkpt lat="48.06173" lon="-3.53239">
        <ele>177.4</ele>
        <time>2025-02-26T09:27:55Z</time>
      </trkpt>
      <trkpt lat="48.06175" lon="-3.53239">
        <ele>177.4</ele>
        <time>2025-02-26T09:27:56Z</time>
      </trkpt>
      <trkpt lat="48.06176" lon="-3.5324">
        <ele>177.4</ele>
        <time>2025-02-26T09:27:57Z</time>
      </trkpt>
      <trkpt lat="48.06177" lon="-3.53239">
        <ele>177.4</ele>
        <time>2025-02-26T09:27:58Z</time>
      </trkpt>
      <trkpt lat="48.06178" lon="-3.53239">
        <ele>177.4</ele>
        <time>2025-02-26T09:27:59Z</time>
      </trkpt>
      <trkpt lat="48.06179" lon="-3.5324">
        <ele>177.4</ele>
        <time>2025-02-26T09:28:00Z</time>
      </trkpt>
      <trkpt lat="48.0618" lon="-3.5324">
        <ele>177.4</ele>
        <time>2025-02-26T09:28:01Z</time>
      </trkpt>
      <trkpt lat="48.06182" lon="-3.5324">
        <ele>177.4</ele>
        <time>2025-02-26T09:28:02Z</time>
      </trkpt>
      <trkpt lat="48.06183" lon="-3.5324">
        <ele>177.4</ele>
        <time>2025-02-26T09:28:03Z</time>
      </trkpt>
      <trkpt lat="48.06184" lon="-3.53241">
        <ele>177.3</ele>
        <time>2025-02-26T09:28:04Z</time>
      </trkpt>
      <trkpt lat="48.06185" lon="-3.53242">
        <ele>177.3</ele>
        <time>2025-02-26T09:28:05Z</time>
      </trkpt>
      <trkpt lat="48.06186" lon="-3.53242">
        <ele>177.3</ele>
        <time>2025-02-26T09:28:06Z</time>
      </trkpt>
      <trkpt lat="48.06187" lon="-3.53242">
        <ele>177.3</ele>
        <time>2025-02-26T09:28:07Z</time>
      </trkpt>
      <trkpt lat="48.06189" lon="-3.53242">
        <ele>177.3</ele>
        <time>2025-02-26T09:28:08Z</time>
      </trkpt>
      <trkpt lat="48.0619" lon="-3.53242">
        <ele>177.3</ele>
        <time>2025-02-26T09:28:09Z</time>
      </trkpt>
      <trkpt lat="48.06191" lon="-3.53243">
        <ele>177.3</ele>
        <time>2025-02-26T09:28:10Z</time>
      </trkpt>
      <trkpt lat="48.06192" lon="-3.53243">
        <ele>177.2</ele>
        <time>2025-02-26T09:28:11Z</time>
      </trkpt>
      <trkpt lat="48.06193" lon="-3.53244">
        <ele>177.2</ele>
        <time>2025-02-26T09:28:12Z</time>
      </trkpt>
      <trkpt lat="48.06194" lon="-3.53244">
        <ele>177.2</ele>
        <time>2025-02-26T09:28:13Z</time>
      </trkpt>
      <trkpt lat="48.06195" lon="-3.53244">
        <ele>177.2</ele>
        <time>2025-02-26T09:28:14Z</time>
      </trkpt>
      <trkpt lat="48.06196" lon="-3.53244">
        <ele>177.2</ele>
        <time>2025-02-26T09:28:15Z</time>
      </trkpt>
      <trkpt lat="48.06197" lon="-3.53245">
        <ele>177.2</ele>
        <time>2025-02-26T09:28:16Z</time>
      </trkpt>
      <trkpt lat="48.06198" lon="-3.53245">
        <ele>177.2</ele>
        <time>2025-02-26T09:28:17Z</time>
      </trkpt>
      <trkpt lat="48.062" lon="-3.53245">
        <ele>177.2</ele>
        <time>2025-02-26T09:28:18Z</time>
      </trkpt>
      <trkpt lat="48.06201" lon="-3.53245">
        <ele>177.2</ele>
        <time>2025-02-26T09:28:19Z</time>
      </trkpt>
      <trkpt lat="48.06202" lon="-3.53245">
        <ele>177.2</ele>
        <time>2025-02-26T09:28:20Z</time>
      </trkpt>
      <trkpt lat="48.06203" lon="-3.53245">
        <ele>177.2</ele>
        <time>2025-02-26T09:28:21Z</time>
      </trkpt>
      <trkpt lat="48.06204" lon="-3.53246">
        <ele>177.2</ele>
        <time>2025-02-26T09:28:22Z</time>
      </trkpt>
      <trkpt lat="48.06206" lon="-3.53246">
        <ele>177.2</ele>
        <time>2025-02-26T09:28:23Z</time>
      </trkpt>
      <trkpt lat="48.06207" lon="-3.53247">
        <ele>177.2</ele>
        <time>2025-02-26T09:28:24Z</time>
      </trkpt>
      <trkpt lat="48.06208" lon="-3.53247">
        <ele>177.1</ele>
        <time>2025-02-26T09:28:25Z</time>
      </trkpt>
      <trkpt lat="48.06209" lon="-3.53248">
        <ele>177.1</ele>
        <time>2025-02-26T09:28:26Z</time>
      </trkpt>
      <trkpt lat="48.0621" lon="-3.53249">
        <ele>177.1</ele>
        <time>2025-02-26T09:28:27Z</time>
      </trkpt>
      <trkpt lat="48.06212" lon="-3.53249">
        <ele>177</ele>
        <time>2025-02-26T09:28:28Z</time>
      </trkpt>
      <trkpt lat="48.06213" lon="-3.53249">
        <ele>177.1</ele>
        <time>2025-02-26T09:28:29Z</time>
      </trkpt>
      <trkpt lat="48.06214" lon="-3.5325">
        <ele>177</ele>
        <time>2025-02-26T09:28:30Z</time>
      </trkpt>
      <trkpt lat="48.06215" lon="-3.5325">
        <ele>177</ele>
        <time>2025-02-26T09:28:31Z</time>
      </trkpt>
      <trkpt lat="48.06216" lon="-3.53251">
        <ele>177</ele>
        <time>2025-02-26T09:28:32Z</time>
      </trkpt>
      <trkpt lat="48.06217" lon="-3.53251">
        <ele>177</ele>
        <time>2025-02-26T09:28:33Z</time>
      </trkpt>
      <trkpt lat="48.06218" lon="-3.53252">
        <ele>176.9</ele>
        <time>2025-02-26T09:28:34Z</time>
      </trkpt>
      <trkpt lat="48.0622" lon="-3.53252">
        <ele>176.9</ele>
        <time>2025-02-26T09:28:35Z</time>
      </trkpt>
      <trkpt lat="48.06221" lon="-3.53253">
        <ele>176.9</ele>
        <time>2025-02-26T09:28:36Z</time>
      </trkpt>
      <trkpt lat="48.06222" lon="-3.53253">
        <ele>176.9</ele>
        <time>2025-02-26T09:28:37Z</time>
      </trkpt>
      <trkpt lat="48.06223" lon="-3.53254">
        <ele>176.9</ele>
        <time>2025-02-26T09:28:38Z</time>
      </trkpt>
      <trkpt lat="48.06224" lon="-3.53254">
        <ele>176.9</ele>
        <time>2025-02-26T09:28:39Z</time>
      </trkpt>
      <trkpt lat="48.06226" lon="-3.53253">
        <ele>177</ele>
        <time>2025-02-26T09:28:40Z</time>
      </trkpt>
      <trkpt lat="48.06227" lon="-3.53253">
        <ele>177</ele>
        <time>2025-02-26T09:28:41Z</time>
      </trkpt>
      <trkpt lat="48.06228" lon="-3.53253">
        <ele>177.1</ele>
        <time>2025-02-26T09:28:42Z</time>
      </trkpt>
      <trkpt lat="48.06229" lon="-3.53253">
        <ele>177.1</ele>
        <time>2025-02-26T09:28:43Z</time>
      </trkpt>
      <trkpt lat="48.0623" lon="-3.53253">
        <ele>177.2</ele>
        <time>2025-02-26T09:28:44Z</time>
      </trkpt>
      <trkpt lat="48.06231" lon="-3.53254">
        <ele>177.2</ele>
        <time>2025-02-26T09:28:45Z</time>
      </trkpt>
      <trkpt lat="48.06232" lon="-3.53254">
        <ele>177.2</ele>
        <time>2025-02-26T09:28:46Z</time>
      </trkpt>
      <trkpt lat="48.06233" lon="-3.53255">
        <ele>177.2</ele>
        <time>2025-02-26T09:28:47Z</time>
      </trkpt>
      <trkpt lat="48.06234" lon="-3.53255">
        <ele>177.3</ele>
        <time>2025-02-26T09:28:48Z</time>
      </trkpt>
      <trkpt lat="48.06235" lon="-3.53255">
        <ele>177.3</ele>
        <time>2025-02-26T09:28:49Z</time>
      </trkpt>
      <trkpt lat="48.06236" lon="-3.53256">
        <ele>177.3</ele>
        <time>2025-02-26T09:28:50Z</time>
      </trkpt>
      <trkpt lat="48.06237" lon="-3.53256">
        <ele>177.3</ele>
        <time>2025-02-26T09:28:51Z</time>
      </trkpt>
      <trkpt lat="48.06238" lon="-3.53257">
        <ele>177.3</ele>
        <time>2025-02-26T09:28:52Z</time>
      </trkpt>
      <trkpt lat="48.06239" lon="-3.53258">
        <ele>177.3</ele>
        <time>2025-02-26T09:28:53Z</time>
      </trkpt>
      <trkpt lat="48.0624" lon="-3.53259">
        <ele>177.3</ele>
        <time>2025-02-26T09:28:54Z</time>
      </trkpt>
      <trkpt lat="48.06241" lon="-3.53259">
        <ele>177.4</ele>
        <time>2025-02-26T09:28:55Z</time>
      </trkpt>
      <trkpt lat="48.06243" lon="-3.5326">
        <ele>177.4</ele>
        <time>2025-02-26T09:28:56Z</time>
      </trkpt>
      <trkpt lat="48.06244" lon="-3.5326">
        <ele>177.4</ele>
        <time>2025-02-26T09:28:57Z</time>
      </trkpt>
      <trkpt lat="48.06245" lon="-3.5326">
        <ele>177.4</ele>
        <time>2025-02-26T09:28:58Z</time>
      </trkpt>
      <trkpt lat="48.06246" lon="-3.53261">
        <ele>177.5</ele>
        <time>2025-02-26T09:28:59Z</time>
      </trkpt>
      <trkpt lat="48.06247" lon="-3.53261">
        <ele>177.5</ele>
        <time>2025-02-26T09:29:00Z</time>
      </trkpt>
      <trkpt lat="48.06248" lon="-3.53261">
        <ele>177.5</ele>
        <time>2025-02-26T09:29:01Z</time>
      </trkpt>
      <trkpt lat="48.0625" lon="-3.53261">
        <ele>177.6</ele>
        <time>2025-02-26T09:29:02Z</time>
      </trkpt>
      <trkpt lat="48.06251" lon="-3.53262">
        <ele>177.6</ele>
        <time>2025-02-26T09:29:03Z</time>
      </trkpt>
      <trkpt lat="48.06252" lon="-3.53262">
        <ele>177.6</ele>
        <time>2025-02-26T09:29:04Z</time>
      </trkpt>
      <trkpt lat="48.06253" lon="-3.53262">
        <ele>177.7</ele>
        <time>2025-02-26T09:29:05Z</time>
      </trkpt>
      <trkpt lat="48.06254" lon="-3.53263">
        <ele>177.7</ele>
        <time>2025-02-26T09:29:06Z</time>
      </trkpt>
      <trkpt lat="48.06255" lon="-3.53264">
        <ele>177.7</ele>
        <time>2025-02-26T09:29:07Z</time>
      </trkpt>
      <trkpt lat="48.06256" lon="-3.53265">
        <ele>177.7</ele>
        <time>2025-02-26T09:29:08Z</time>
      </trkpt>
      <trkpt lat="48.06257" lon="-3.53265">
        <ele>177.7</ele>
        <time>2025-02-26T09:29:09Z</time>
      </trkpt>
      <trkpt lat="48.06258" lon="-3.53266">
        <ele>177.7</ele>
        <time>2025-02-26T09:29:10Z</time>
      </trkpt>
      <trkpt lat="48.0626" lon="-3.53266">
        <ele>177.8</ele>
        <time>2025-02-26T09:29:11Z</time>
      </trkpt>
      <trkpt lat="48.06261" lon="-3.53267">
        <ele>177.8</ele>
        <time>2025-02-26T09:29:12Z</time>
      </trkpt>
      <trkpt lat="48.06262" lon="-3.53267">
        <ele>177.8</ele>
        <time>2025-02-26T09:29:13Z</time>
      </trkpt>
      <trkpt lat="48.06263" lon="-3.53267">
        <ele>177.9</ele>
        <time>2025-02-26T09:29:14Z</time>
      </trkpt>
      <trkpt lat="48.06264" lon="-3.53267">
        <ele>177.9</ele>
        <time>2025-02-26T09:29:15Z</time>
      </trkpt>
      <trkpt lat="48.06265" lon="-3.53268">
        <ele>177.9</ele>
        <time>2025-02-26T09:29:16Z</time>
      </trkpt>
      <trkpt lat="48.06267" lon="-3.53268">
        <ele>177.9</ele>
        <time>2025-02-26T09:29:17Z</time>
      </trkpt>
      <trkpt lat="48.06268" lon="-3.53268">
        <ele>178</ele>
        <time>2025-02-26T09:29:18Z</time>
      </trkpt>
      <trkpt lat="48.06269" lon="-3.53269">
        <ele>178</ele>
        <time>2025-02-26T09:29:19Z</time>
      </trkpt>
      <trkpt lat="48.0627" lon="-3.53268">
        <ele>178.1</ele>
        <time>2025-02-26T09:29:20Z</time>
      </trkpt>
      <trkpt lat="48.06272" lon="-3.53269">
        <ele>178.1</ele>
        <time>2025-02-26T09:29:21Z</time>
      </trkpt>
      <trkpt lat="48.06273" lon="-3.53269">
        <ele>178.1</ele>
        <time>2025-02-26T09:29:22Z</time>
      </trkpt>
      <trkpt lat="48.06274" lon="-3.5327">
        <ele>178.1</ele>
        <time>2025-02-26T09:29:23Z</time>
      </trkpt>
      <trkpt lat="48.06275" lon="-3.53271">
        <ele>178.2</ele>
        <time>2025-02-26T09:29:24Z</time>
      </trkpt>
      <trkpt lat="48.06276" lon="-3.53271">
        <ele>178.2</ele>
        <time>2025-02-26T09:29:25Z</time>
      </trkpt>
      <trkpt lat="48.06277" lon="-3.53272">
        <ele>178.2</ele>
        <time>2025-02-26T09:29:26Z</time>
      </trkpt>
      <trkpt lat="48.06278" lon="-3.53273">
        <ele>178.2</ele>
        <time>2025-02-26T09:29:27Z</time>
      </trkpt>
      <trkpt lat="48.06279" lon="-3.53273">
        <ele>178.2</ele>
        <time>2025-02-26T09:29:28Z</time>
      </trkpt>
      <trkpt lat="48.06281" lon="-3.53273">
        <ele>178.3</ele>
        <time>2025-02-26T09:29:29Z</time>
      </trkpt>
      <trkpt lat="48.06282" lon="-3.53274">
        <ele>178.3</ele>
        <time>2025-02-26T09:29:30Z</time>
      </trkpt>
      <trkpt lat="48.06283" lon="-3.53274">
        <ele>178.4</ele>
        <time>2025-02-26T09:29:31Z</time>
      </trkpt>
      <trkpt lat="48.06284" lon="-3.53275">
        <ele>178.4</ele>
        <time>2025-02-26T09:29:32Z</time>
      </trkpt>
      <trkpt lat="48.06285" lon="-3.53276">
        <ele>178.4</ele>
        <time>2025-02-26T09:29:33Z</time>
      </trkpt>
      <trkpt lat="48.06286" lon="-3.53276">
        <ele>178.4</ele>
        <time>2025-02-26T09:29:34Z</time>
      </trkpt>
      <trkpt lat="48.06288" lon="-3.53276">
        <ele>178.5</ele>
        <time>2025-02-26T09:29:35Z</time>
      </trkpt>
      <trkpt lat="48.06288" lon="-3.53276">
        <ele>178.5</ele>
        <time>2025-02-26T09:29:36Z</time>
      </trkpt>
      <trkpt lat="48.0629" lon="-3.53277">
        <ele>178.5</ele>
        <time>2025-02-26T09:29:37Z</time>
      </trkpt>
      <trkpt lat="48.06291" lon="-3.53277">
        <ele>178.5</ele>
        <time>2025-02-26T09:29:38Z</time>
      </trkpt>
      <trkpt lat="48.06292" lon="-3.53278">
        <ele>178.5</ele>
        <time>2025-02-26T09:29:39Z</time>
      </trkpt>
      <trkpt lat="48.06293" lon="-3.53278">
        <ele>178.6</ele>
        <time>2025-02-26T09:29:40Z</time>
      </trkpt>
      <trkpt lat="48.06294" lon="-3.53278">
        <ele>178.6</ele>
        <time>2025-02-26T09:29:41Z</time>
      </trkpt>
      <trkpt lat="48.06295" lon="-3.53279">
        <ele>178.6</ele>
        <time>2025-02-26T09:29:42Z</time>
      </trkpt>
      <trkpt lat="48.06296" lon="-3.53279">
        <ele>178.6</ele>
        <time>2025-02-26T09:29:43Z</time>
      </trkpt>
      <trkpt lat="48.06298" lon="-3.53279">
        <ele>178.6</ele>
        <time>2025-02-26T09:29:44Z</time>
      </trkpt>
      <trkpt lat="48.06299" lon="-3.5328">
        <ele>178.6</ele>
        <time>2025-02-26T09:29:45Z</time>
      </trkpt>
      <trkpt lat="48.063" lon="-3.5328">
        <ele>178.6</ele>
        <time>2025-02-26T09:29:46Z</time>
      </trkpt>
      <trkpt lat="48.06301" lon="-3.5328">
        <ele>178.7</ele>
        <time>2025-02-26T09:29:47Z</time>
      </trkpt>
      <trkpt lat="48.06302" lon="-3.5328">
        <ele>178.7</ele>
        <time>2025-02-26T09:29:48Z</time>
      </trkpt>
      <trkpt lat="48.06303" lon="-3.5328">
        <ele>178.8</ele>
        <time>2025-02-26T09:29:49Z</time>
      </trkpt>
      <trkpt lat="48.06304" lon="-3.5328">
        <ele>178.8</ele>
        <time>2025-02-26T09:29:50Z</time>
      </trkpt>
      <trkpt lat="48.06306" lon="-3.53281">
        <ele>178.8</ele>
        <time>2025-02-26T09:29:51Z</time>
      </trkpt>
      <trkpt lat="48.06307" lon="-3.5328">
        <ele>178.9</ele>
        <time>2025-02-26T09:29:52Z</time>
      </trkpt>
      <trkpt lat="48.06308" lon="-3.53281">
        <ele>179</ele>
        <time>2025-02-26T09:29:53Z</time>
      </trkpt>
      <trkpt lat="48.06309" lon="-3.53281">
        <ele>179.1</ele>
        <time>2025-02-26T09:29:54Z</time>
      </trkpt>
      <trkpt lat="48.06311" lon="-3.53281">
        <ele>179.1</ele>
        <time>2025-02-26T09:29:55Z</time>
      </trkpt>
      <trkpt lat="48.06312" lon="-3.53282">
        <ele>179.2</ele>
        <time>2025-02-26T09:29:56Z</time>
      </trkpt>
      <trkpt lat="48.06313" lon="-3.53282">
        <ele>179.2</ele>
        <time>2025-02-26T09:29:57Z</time>
      </trkpt>
      <trkpt lat="48.06314" lon="-3.53282">
        <ele>179.3</ele>
        <time>2025-02-26T09:29:58Z</time>
      </trkpt>
      <trkpt lat="48.06315" lon="-3.53282">
        <ele>179.3</ele>
        <time>2025-02-26T09:29:59Z</time>
      </trkpt>
      <trkpt lat="48.06316" lon="-3.53283">
        <ele>179.4</ele>
        <time>2025-02-26T09:30:00Z</time>
      </trkpt>
      <trkpt lat="48.06317" lon="-3.53282">
        <ele>179.5</ele>
        <time>2025-02-26T09:30:01Z</time>
      </trkpt>
      <trkpt lat="48.06319" lon="-3.53283">
        <ele>179.6</ele>
        <time>2025-02-26T09:30:02Z</time>
      </trkpt>
      <trkpt lat="48.0632" lon="-3.53283">
        <ele>179.6</ele>
        <time>2025-02-26T09:30:03Z</time>
      </trkpt>
      <trkpt lat="48.06321" lon="-3.53283">
        <ele>179.8</ele>
        <time>2025-02-26T09:30:04Z</time>
      </trkpt>
      <trkpt lat="48.06322" lon="-3.53283">
        <ele>179.8</ele>
        <time>2025-02-26T09:30:05Z</time>
      </trkpt>
      <trkpt lat="48.06323" lon="-3.53283">
        <ele>179.9</ele>
        <time>2025-02-26T09:30:06Z</time>
      </trkpt>
      <trkpt lat="48.06324" lon="-3.53283">
        <ele>180</ele>
        <time>2025-02-26T09:30:07Z</time>
      </trkpt>
      <trkpt lat="48.06325" lon="-3.53284">
        <ele>180</ele>
        <time>2025-02-26T09:30:08Z</time>
      </trkpt>
      <trkpt lat="48.06326" lon="-3.53284">
        <ele>180.1</ele>
        <time>2025-02-26T09:30:09Z</time>
      </trkpt>
      <trkpt lat="48.06327" lon="-3.53285">
        <ele>180</ele>
        <time>2025-02-26T09:30:10Z</time>
      </trkpt>
      <trkpt lat="48.06328" lon="-3.53286">
        <ele>180.1</ele>
        <time>2025-02-26T09:30:11Z</time>
      </trkpt>
      <trkpt lat="48.0633" lon="-3.53285">
        <ele>180.2</ele>
        <time>2025-02-26T09:30:12Z</time>
      </trkpt>
      <trkpt lat="48.06331" lon="-3.53285">
        <ele>180.3</ele>
        <time>2025-02-26T09:30:13Z</time>
      </trkpt>
      <trkpt lat="48.06332" lon="-3.53285">
        <ele>180.3</ele>
        <time>2025-02-26T09:30:14Z</time>
      </trkpt>
      <trkpt lat="48.06333" lon="-3.53285">
        <ele>180.5</ele>
        <time>2025-02-26T09:30:15Z</time>
      </trkpt>
      <trkpt lat="48.06334" lon="-3.53285">
        <ele>180.6</ele>
        <time>2025-02-26T09:30:16Z</time>
      </trkpt>
      <trkpt lat="48.06335" lon="-3.53283">
        <ele>180.8</ele>
        <time>2025-02-26T09:30:17Z</time>
      </trkpt>
      <trkpt lat="48.06336" lon="-3.53283">
        <ele>180.9</ele>
        <time>2025-02-26T09:30:18Z</time>
      </trkpt>
      <trkpt lat="48.06337" lon="-3.53284">
        <ele>181</ele>
        <time>2025-02-26T09:30:19Z</time>
      </trkpt>
      <trkpt lat="48.06338" lon="-3.53284">
        <ele>181.1</ele>
        <time>2025-02-26T09:30:20Z</time>
      </trkpt>
      <trkpt lat="48.06339" lon="-3.53284">
        <ele>181.2</ele>
        <time>2025-02-26T09:30:21Z</time>
      </trkpt>
      <trkpt lat="48.0634" lon="-3.53283">
        <ele>181.4</ele>
        <time>2025-02-26T09:30:22Z</time>
      </trkpt>
      <trkpt lat="48.06341" lon="-3.53283">
        <ele>181.5</ele>
        <time>2025-02-26T09:30:23Z</time>
      </trkpt>
      <trkpt lat="48.06343" lon="-3.53283">
        <ele>181.6</ele>
        <time>2025-02-26T09:30:24Z</time>
      </trkpt>
      <trkpt lat="48.06344" lon="-3.53284">
        <ele>181.7</ele>
        <time>2025-02-26T09:30:25Z</time>
      </trkpt>
      <trkpt lat="48.06345" lon="-3.53283">
        <ele>181.8</ele>
        <time>2025-02-26T09:30:26Z</time>
      </trkpt>
      <trkpt lat="48.06346" lon="-3.53283">
        <ele>182</ele>
        <time>2025-02-26T09:30:27Z</time>
      </trkpt>
      <trkpt lat="48.06347" lon="-3.53283">
        <ele>182.1</ele>
        <time>2025-02-26T09:30:28Z</time>
      </trkpt>
      <trkpt lat="48.06348" lon="-3.53283">
        <ele>182.2</ele>
        <time>2025-02-26T09:30:29Z</time>
      </trkpt>
      <trkpt lat="48.06349" lon="-3.53284">
        <ele>182.3</ele>
        <time>2025-02-26T09:30:30Z</time>
      </trkpt>
      <trkpt lat="48.0635" lon="-3.53285">
        <ele>182.3</ele>
        <time>2025-02-26T09:30:31Z</time>
      </trkpt>
      <trkpt lat="48.06352" lon="-3.53284">
        <ele>182.5</ele>
        <time>2025-02-26T09:30:32Z</time>
      </trkpt>
      <trkpt lat="48.06353" lon="-3.53284">
        <ele>182.7</ele>
        <time>2025-02-26T09:30:33Z</time>
      </trkpt>
      <trkpt lat="48.06354" lon="-3.53284">
        <ele>182.7</ele>
        <time>2025-02-26T09:30:34Z</time>
      </trkpt>
      <trkpt lat="48.06355" lon="-3.53285">
        <ele>182.8</ele>
        <time>2025-02-26T09:30:35Z</time>
      </trkpt>
      <trkpt lat="48.06356" lon="-3.53285">
        <ele>182.9</ele>
        <time>2025-02-26T09:30:36Z</time>
      </trkpt>
      <trkpt lat="48.06357" lon="-3.53285">
        <ele>183</ele>
        <time>2025-02-26T09:30:37Z</time>
      </trkpt>
      <trkpt lat="48.06358" lon="-3.53286">
        <ele>183.1</ele>
        <time>2025-02-26T09:30:38Z</time>
      </trkpt>
      <trkpt lat="48.06359" lon="-3.53286">
        <ele>183.2</ele>
        <time>2025-02-26T09:30:39Z</time>
      </trkpt>
      <trkpt lat="48.0636" lon="-3.53286">
        <ele>183.3</ele>
        <time>2025-02-26T09:30:40Z</time>
      </trkpt>
      <trkpt lat="48.06361" lon="-3.53286">
        <ele>183.4</ele>
        <time>2025-02-26T09:30:41Z</time>
      </trkpt>
      <trkpt lat="48.06363" lon="-3.53287">
        <ele>183.4</ele>
        <time>2025-02-26T09:30:42Z</time>
      </trkpt>
      <trkpt lat="48.06364" lon="-3.53286">
        <ele>183.5</ele>
        <time>2025-02-26T09:30:43Z</time>
      </trkpt>
      <trkpt lat="48.06365" lon="-3.53286">
        <ele>183.6</ele>
        <time>2025-02-26T09:30:44Z</time>
      </trkpt>
      <trkpt lat="48.06366" lon="-3.53286">
        <ele>183.6</ele>
        <time>2025-02-26T09:30:45Z</time>
      </trkpt>
      <trkpt lat="48.06367" lon="-3.53285">
        <ele>183.7</ele>
        <time>2025-02-26T09:30:46Z</time>
      </trkpt>
      <trkpt lat="48.06368" lon="-3.53286">
        <ele>183.8</ele>
        <time>2025-02-26T09:30:47Z</time>
      </trkpt>
      <trkpt lat="48.06369" lon="-3.53286">
        <ele>183.8</ele>
        <time>2025-02-26T09:30:48Z</time>
      </trkpt>
      <trkpt lat="48.0637" lon="-3.53286">
        <ele>183.8</ele>
        <time>2025-02-26T09:30:49Z</time>
      </trkpt>
      <trkpt lat="48.06371" lon="-3.53286">
        <ele>183.9</ele>
        <time>2025-02-26T09:30:50Z</time>
      </trkpt>
      <trkpt lat="48.06372" lon="-3.53286">
        <ele>183.9</ele>
        <time>2025-02-26T09:30:51Z</time>
      </trkpt>
      <trkpt lat="48.06373" lon="-3.53286">
        <ele>183.9</ele>
        <time>2025-02-26T09:30:52Z</time>
      </trkpt>
      <trkpt lat="48.06374" lon="-3.53286">
        <ele>184</ele>
        <time>2025-02-26T09:30:53Z</time>
      </trkpt>
      <trkpt lat="48.06375" lon="-3.53286">
        <ele>184</ele>
        <time>2025-02-26T09:30:54Z</time>
      </trkpt>
      <trkpt lat="48.06376" lon="-3.53286">
        <ele>184.1</ele>
        <time>2025-02-26T09:30:55Z</time>
      </trkpt>
      <trkpt lat="48.06377" lon="-3.53287">
        <ele>184.1</ele>
        <time>2025-02-26T09:30:56Z</time>
      </trkpt>
      <trkpt lat="48.06378" lon="-3.53287">
        <ele>184.2</ele>
        <time>2025-02-26T09:30:57Z</time>
      </trkpt>
      <trkpt lat="48.06379" lon="-3.53286">
        <ele>184.2</ele>
        <time>2025-02-26T09:30:58Z</time>
      </trkpt>
      <trkpt lat="48.0638" lon="-3.53286">
        <ele>184.3</ele>
        <time>2025-02-26T09:30:59Z</time>
      </trkpt>
      <trkpt lat="48.06381" lon="-3.53286">
        <ele>184.3</ele>
        <time>2025-02-26T09:31:00Z</time>
      </trkpt>
      <trkpt lat="48.06382" lon="-3.53286">
        <ele>184.4</ele>
        <time>2025-02-26T09:31:01Z</time>
      </trkpt>
      <trkpt lat="48.06383" lon="-3.53286">
        <ele>184.4</ele>
        <time>2025-02-26T09:31:02Z</time>
      </trkpt>
      <trkpt lat="48.06384" lon="-3.53287">
        <ele>184.5</ele>
        <time>2025-02-26T09:31:03Z</time>
      </trkpt>
      <trkpt lat="48.06385" lon="-3.53288">
        <ele>184.4</ele>
        <time>2025-02-26T09:31:04Z</time>
      </trkpt>
      <trkpt lat="48.06386" lon="-3.53289">
        <ele>184.5</ele>
        <time>2025-02-26T09:31:05Z</time>
      </trkpt>
      <trkpt lat="48.06388" lon="-3.53289">
        <ele>184.5</ele>
        <time>2025-02-26T09:31:06Z</time>
      </trkpt>
      <trkpt lat="48.06389" lon="-3.5329">
        <ele>184.6</ele>
        <time>2025-02-26T09:31:07Z</time>
      </trkpt>
      <trkpt lat="48.0639" lon="-3.5329">
        <ele>184.6</ele>
        <time>2025-02-26T09:31:08Z</time>
      </trkpt>
      <trkpt lat="48.06391" lon="-3.5329">
        <ele>184.6</ele>
        <time>2025-02-26T09:31:09Z</time>
      </trkpt>
      <trkpt lat="48.06392" lon="-3.5329">
        <ele>184.6</ele>
        <time>2025-02-26T09:31:10Z</time>
      </trkpt>
      <trkpt lat="48.06393" lon="-3.5329">
        <ele>184.6</ele>
        <time>2025-02-26T09:31:11Z</time>
      </trkpt>
      <trkpt lat="48.06394" lon="-3.5329">
        <ele>184.7</ele>
        <time>2025-02-26T09:31:12Z</time>
      </trkpt>
      <trkpt lat="48.06395" lon="-3.5329">
        <ele>184.7</ele>
        <time>2025-02-26T09:31:13Z</time>
      </trkpt>
      <trkpt lat="48.06396" lon="-3.5329">
        <ele>184.7</ele>
        <time>2025-02-26T09:31:14Z</time>
      </trkpt>
      <trkpt lat="48.06397" lon="-3.5329">
        <ele>184.7</ele>
        <time>2025-02-26T09:31:15Z</time>
      </trkpt>
      <trkpt lat="48.06398" lon="-3.53289">
        <ele>184.8</ele>
        <time>2025-02-26T09:31:16Z</time>
      </trkpt>
      <trkpt lat="48.06399" lon="-3.53289">
        <ele>184.8</ele>
        <time>2025-02-26T09:31:17Z</time>
      </trkpt>
      <trkpt lat="48.064" lon="-3.53289">
        <ele>184.8</ele>
        <time>2025-02-26T09:31:18Z</time>
      </trkpt>
      <trkpt lat="48.06401" lon="-3.53289">
        <ele>184.8</ele>
        <time>2025-02-26T09:31:19Z</time>
      </trkpt>
      <trkpt lat="48.06402" lon="-3.53289">
        <ele>184.9</ele>
        <time>2025-02-26T09:31:20Z</time>
      </trkpt>
      <trkpt lat="48.06402" lon="-3.53289">
        <ele>184.9</ele>
        <time>2025-02-26T09:31:21Z</time>
      </trkpt>
      <trkpt lat="48.06403" lon="-3.53289">
        <ele>184.9</ele>
        <time>2025-02-26T09:31:22Z</time>
      </trkpt>
      <trkpt lat="48.06404" lon="-3.53289">
        <ele>184.9</ele>
        <time>2025-02-26T09:31:23Z</time>
      </trkpt>
      <trkpt lat="48.06405" lon="-3.53289">
        <ele>185</ele>
        <time>2025-02-26T09:31:24Z</time>
      </trkpt>
      <trkpt lat="48.06406" lon="-3.53288">
        <ele>185</ele>
        <time>2025-02-26T09:31:25Z</time>
      </trkpt>
      <trkpt lat="48.06407" lon="-3.53288">
        <ele>185.1</ele>
        <time>2025-02-26T09:31:26Z</time>
      </trkpt>
      <trkpt lat="48.06409" lon="-3.53288">
        <ele>185.1</ele>
        <time>2025-02-26T09:31:27Z</time>
      </trkpt>
      <trkpt lat="48.0641" lon="-3.53288">
        <ele>185.1</ele>
        <time>2025-02-26T09:31:28Z</time>
      </trkpt>
      <trkpt lat="48.06411" lon="-3.53287">
        <ele>185.2</ele>
        <time>2025-02-26T09:31:29Z</time>
      </trkpt>
      <trkpt lat="48.06412" lon="-3.53288">
        <ele>185.2</ele>
        <time>2025-02-26T09:31:30Z</time>
      </trkpt>
      <trkpt lat="48.06413" lon="-3.53288">
        <ele>185.2</ele>
        <time>2025-02-26T09:31:31Z</time>
      </trkpt>
      <trkpt lat="48.06414" lon="-3.53287">
        <ele>185.3</ele>
        <time>2025-02-26T09:31:32Z</time>
      </trkpt>
      <trkpt lat="48.06415" lon="-3.53287">
        <ele>185.3</ele>
        <time>2025-02-26T09:31:33Z</time>
      </trkpt>
      <trkpt lat="48.06416" lon="-3.53288">
        <ele>185.2</ele>
        <time>2025-02-26T09:31:34Z</time>
      </trkpt>
      <trkpt lat="48.06417" lon="-3.53288">
        <ele>185.2</ele>
        <time>2025-02-26T09:31:35Z</time>
      </trkpt>
      <trkpt lat="48.06418" lon="-3.53288">
        <ele>185.3</ele>
        <time>2025-02-26T09:31:36Z</time>
      </trkpt>
      <trkpt lat="48.06419" lon="-3.53288">
        <ele>185.3</ele>
        <time>2025-02-26T09:31:37Z</time>
      </trkpt>
      <trkpt lat="48.0642" lon="-3.53288">
        <ele>185.3</ele>
        <time>2025-02-26T09:31:38Z</time>
      </trkpt>
      <trkpt lat="48.06421" lon="-3.53288">
        <ele>185.3</ele>
        <time>2025-02-26T09:31:39Z</time>
      </trkpt>
      <trkpt lat="48.06421" lon="-3.53289">
        <ele>185.3</ele>
        <time>2025-02-26T09:31:40Z</time>
      </trkpt>
      <trkpt lat="48.06422" lon="-3.53289">
        <ele>185.3</ele>
        <time>2025-02-26T09:31:41Z</time>
      </trkpt>
      <trkpt lat="48.06423" lon="-3.5329">
        <ele>185.2</ele>
        <time>2025-02-26T09:31:42Z</time>
      </trkpt>
      <trkpt lat="48.06424" lon="-3.53291">
        <ele>185.2</ele>
        <time>2025-02-26T09:31:43Z</time>
      </trkpt>
      <trkpt lat="48.06426" lon="-3.53292">
        <ele>185.1</ele>
        <time>2025-02-26T09:31:44Z</time>
      </trkpt>
      <trkpt lat="48.06426" lon="-3.53294">
        <ele>185</ele>
        <time>2025-02-26T09:31:45Z</time>
      </trkpt>
      <trkpt lat="48.06428" lon="-3.53294">
        <ele>185.1</ele>
        <time>2025-02-26T09:31:46Z</time>
      </trkpt>
      <trkpt lat="48.06428" lon="-3.53293">
        <ele>185.1</ele>
        <time>2025-02-26T09:31:47Z</time>
      </trkpt>
      <trkpt lat="48.06429" lon="-3.53292">
        <ele>185.2</ele>
        <time>2025-02-26T09:31:48Z</time>
      </trkpt>
      <trkpt lat="48.06429" lon="-3.53292">
        <ele>185.2</ele>
        <time>2025-02-26T09:31:49Z</time>
      </trkpt>
      <trkpt lat="48.0643" lon="-3.53292">
        <ele>185.3</ele>
        <time>2025-02-26T09:31:50Z</time>
      </trkpt>
      <trkpt lat="48.06431" lon="-3.53291">
        <ele>185.3</ele>
        <time>2025-02-26T09:31:51Z</time>
      </trkpt>
      <trkpt lat="48.06432" lon="-3.53292">
        <ele>185.3</ele>
        <time>2025-02-26T09:31:52Z</time>
      </trkpt>
      <trkpt lat="48.06432" lon="-3.53291">
        <ele>185.3</ele>
        <time>2025-02-26T09:31:53Z</time>
      </trkpt>
      <trkpt lat="48.06433" lon="-3.5329">
        <ele>185.4</ele>
        <time>2025-02-26T09:31:54Z</time>
      </trkpt>
      <trkpt lat="48.06434" lon="-3.5329">
        <ele>185.4</ele>
        <time>2025-02-26T09:31:55Z</time>
      </trkpt>
      <trkpt lat="48.06435" lon="-3.5329">
        <ele>185.4</ele>
        <time>2025-02-26T09:31:56Z</time>
      </trkpt>
      <trkpt lat="48.06436" lon="-3.53291">
        <ele>185.4</ele>
        <time>2025-02-26T09:31:57Z</time>
      </trkpt>
      <trkpt lat="48.06437" lon="-3.53291">
        <ele>185.4</ele>
        <time>2025-02-26T09:31:58Z</time>
      </trkpt>
      <trkpt lat="48.06438" lon="-3.5329">
        <ele>185.5</ele>
        <time>2025-02-26T09:31:59Z</time>
      </trkpt>
      <trkpt lat="48.06439" lon="-3.53289">
        <ele>185.5</ele>
        <time>2025-02-26T09:32:00Z</time>
      </trkpt>
      <trkpt lat="48.0644" lon="-3.53289">
        <ele>185.5</ele>
        <time>2025-02-26T09:32:01Z</time>
      </trkpt>
      <trkpt lat="48.06441" lon="-3.53289">
        <ele>185.5</ele>
        <time>2025-02-26T09:32:02Z</time>
      </trkpt>
      <trkpt lat="48.06442" lon="-3.53289">
        <ele>185.6</ele>
        <time>2025-02-26T09:32:03Z</time>
      </trkpt>
      <trkpt lat="48.06443" lon="-3.53289">
        <ele>185.6</ele>
        <time>2025-02-26T09:32:04Z</time>
      </trkpt>
      <trkpt lat="48.06444" lon="-3.53289">
        <ele>185.6</ele>
        <time>2025-02-26T09:32:05Z</time>
      </trkpt>
      <trkpt lat="48.06445" lon="-3.53289">
        <ele>185.6</ele>
        <time>2025-02-26T09:32:06Z</time>
      </trkpt>
      <trkpt lat="48.06446" lon="-3.53289">
        <ele>185.7</ele>
        <time>2025-02-26T09:32:07Z</time>
      </trkpt>
      <trkpt lat="48.06447" lon="-3.53289">
        <ele>185.7</ele>
        <time>2025-02-26T09:32:08Z</time>
      </trkpt>
      <trkpt lat="48.06448" lon="-3.53289">
        <ele>185.7</ele>
        <time>2025-02-26T09:32:09Z</time>
      </trkpt>
      <trkpt lat="48.06449" lon="-3.5329">
        <ele>185.7</ele>
        <time>2025-02-26T09:32:10Z</time>
      </trkpt>
      <trkpt lat="48.0645" lon="-3.53289">
        <ele>185.8</ele>
        <time>2025-02-26T09:32:11Z</time>
      </trkpt>
      <trkpt lat="48.06451" lon="-3.53289">
        <ele>185.8</ele>
        <time>2025-02-26T09:32:12Z</time>
      </trkpt>
      <trkpt lat="48.06452" lon="-3.5329">
        <ele>185.9</ele>
        <time>2025-02-26T09:32:13Z</time>
      </trkpt>
      <trkpt lat="48.06453" lon="-3.5329">
        <ele>185.9</ele>
        <time>2025-02-26T09:32:14Z</time>
      </trkpt>
      <trkpt lat="48.06454" lon="-3.53288">
        <ele>186</ele>
        <time>2025-02-26T09:32:15Z</time>
      </trkpt>
      <trkpt lat="48.06455" lon="-3.53287">
        <ele>186</ele>
        <time>2025-02-26T09:32:16Z</time>
      </trkpt>
      <trkpt lat="48.06457" lon="-3.53288">
        <ele>186.1</ele>
        <time>2025-02-26T09:32:17Z</time>
      </trkpt>
      <trkpt lat="48.06458" lon="-3.53289">
        <ele>186.1</ele>
        <time>2025-02-26T09:32:18Z</time>
      </trkpt>
      <trkpt lat="48.06459" lon="-3.53288">
        <ele>186.1</ele>
        <time>2025-02-26T09:32:19Z</time>
      </trkpt>
      <trkpt lat="48.0646" lon="-3.53288">
        <ele>186.2</ele>
        <time>2025-02-26T09:32:20Z</time>
      </trkpt>
      <trkpt lat="48.06461" lon="-3.53288">
        <ele>186.2</ele>
        <time>2025-02-26T09:32:21Z</time>
      </trkpt>
      <trkpt lat="48.06462" lon="-3.53289">
        <ele>186.2</ele>
        <time>2025-02-26T09:32:22Z</time>
      </trkpt>
      <trkpt lat="48.06463" lon="-3.5329">
        <ele>186.2</ele>
        <time>2025-02-26T09:32:23Z</time>
      </trkpt>
      <trkpt lat="48.06464" lon="-3.53289">
        <ele>186.3</ele>
        <time>2025-02-26T09:32:24Z</time>
      </trkpt>
      <trkpt lat="48.06465" lon="-3.5329">
        <ele>186.3</ele>
        <time>2025-02-26T09:32:25Z</time>
      </trkpt>
      <trkpt lat="48.06466" lon="-3.53289">
        <ele>186.4</ele>
        <time>2025-02-26T09:32:26Z</time>
      </trkpt>
      <trkpt lat="48.06467" lon="-3.53289">
        <ele>186.4</ele>
        <time>2025-02-26T09:32:27Z</time>
      </trkpt>
      <trkpt lat="48.06468" lon="-3.53289">
        <ele>186.4</ele>
        <time>2025-02-26T09:32:28Z</time>
      </trkpt>
      <trkpt lat="48.06469" lon="-3.53289">
        <ele>186.5</ele>
        <time>2025-02-26T09:32:29Z</time>
      </trkpt>
      <trkpt lat="48.0647" lon="-3.53289">
        <ele>186.5</ele>
        <time>2025-02-26T09:32:30Z</time>
      </trkpt>
      <trkpt lat="48.0647" lon="-3.53289">
        <ele>186.5</ele>
        <time>2025-02-26T09:32:31Z</time>
      </trkpt>
      <trkpt lat="48.06472" lon="-3.53289">
        <ele>186.6</ele>
        <time>2025-02-26T09:32:32Z</time>
      </trkpt>
      <trkpt lat="48.06473" lon="-3.5329">
        <ele>186.6</ele>
        <time>2025-02-26T09:32:33Z</time>
      </trkpt>
      <trkpt lat="48.06474" lon="-3.5329">
        <ele>186.7</ele>
        <time>2025-02-26T09:32:34Z</time>
      </trkpt>
      <trkpt lat="48.06475" lon="-3.5329">
        <ele>186.7</ele>
        <time>2025-02-26T09:32:35Z</time>
      </trkpt>
      <trkpt lat="48.06476" lon="-3.53289">
        <ele>186.9</ele>
        <time>2025-02-26T09:32:36Z</time>
      </trkpt>
      <trkpt lat="48.06476" lon="-3.53288">
        <ele>186.9</ele>
        <time>2025-02-26T09:32:37Z</time>
      </trkpt>
      <trkpt lat="48.06478" lon="-3.53288">
        <ele>187</ele>
        <time>2025-02-26T09:32:38Z</time>
      </trkpt>
      <trkpt lat="48.06479" lon="-3.53289">
        <ele>187.1</ele>
        <time>2025-02-26T09:32:39Z</time>
      </trkpt>
      <trkpt lat="48.0648" lon="-3.5329">
        <ele>187.1</ele>
        <time>2025-02-26T09:32:40Z</time>
      </trkpt>
      <trkpt lat="48.06481" lon="-3.5329">
        <ele>187.1</ele>
        <time>2025-02-26T09:32:41Z</time>
      </trkpt>
      <trkpt lat="48.06481" lon="-3.53292">
        <ele>187.2</ele>
        <time>2025-02-26T09:32:42Z</time>
      </trkpt>
      <trkpt lat="48.06482" lon="-3.53292">
        <ele>187.2</ele>
        <time>2025-02-26T09:32:43Z</time>
      </trkpt>
      <trkpt lat="48.06483" lon="-3.53293">
        <ele>187.2</ele>
        <time>2025-02-26T09:32:44Z</time>
      </trkpt>
      <trkpt lat="48.06484" lon="-3.53294">
        <ele>187.3</ele>
        <time>2025-02-26T09:32:45Z</time>
      </trkpt>
      <trkpt lat="48.06485" lon="-3.53294">
        <ele>187.3</ele>
        <time>2025-02-26T09:32:46Z</time>
      </trkpt>
      <trkpt lat="48.06486" lon="-3.53294">
        <ele>187.4</ele>
        <time>2025-02-26T09:32:47Z</time>
      </trkpt>
      <trkpt lat="48.06487" lon="-3.53295">
        <ele>187.5</ele>
        <time>2025-02-26T09:32:48Z</time>
      </trkpt>
      <trkpt lat="48.06489" lon="-3.53296">
        <ele>187.5</ele>
        <time>2025-02-26T09:32:49Z</time>
      </trkpt>
      <trkpt lat="48.0649" lon="-3.53297">
        <ele>187.6</ele>
        <time>2025-02-26T09:32:50Z</time>
      </trkpt>
      <trkpt lat="48.06491" lon="-3.53297">
        <ele>187.7</ele>
        <time>2025-02-26T09:32:51Z</time>
      </trkpt>
      <trkpt lat="48.06492" lon="-3.53299">
        <ele>187.7</ele>
        <time>2025-02-26T09:32:52Z</time>
      </trkpt>
      <trkpt lat="48.06493" lon="-3.533">
        <ele>187.7</ele>
        <time>2025-02-26T09:32:53Z</time>
      </trkpt>
      <trkpt lat="48.06494" lon="-3.53301">
        <ele>187.7</ele>
        <time>2025-02-26T09:32:54Z</time>
      </trkpt>
      <trkpt lat="48.06495" lon="-3.53302">
        <ele>187.8</ele>
        <time>2025-02-26T09:32:55Z</time>
      </trkpt>
      <trkpt lat="48.06496" lon="-3.53303">
        <ele>187.8</ele>
        <time>2025-02-26T09:32:56Z</time>
      </trkpt>
      <trkpt lat="48.06498" lon="-3.53303">
        <ele>187.9</ele>
        <time>2025-02-26T09:32:57Z</time>
      </trkpt>
      <trkpt lat="48.06499" lon="-3.53305">
        <ele>187.9</ele>
        <time>2025-02-26T09:32:58Z</time>
      </trkpt>
      <trkpt lat="48.065" lon="-3.53305">
        <ele>188</ele>
        <time>2025-02-26T09:32:59Z</time>
      </trkpt>
      <trkpt lat="48.06501" lon="-3.53306">
        <ele>188</ele>
        <time>2025-02-26T09:33:00Z</time>
      </trkpt>
      <trkpt lat="48.06502" lon="-3.53306">
        <ele>188</ele>
        <time>2025-02-26T09:33:01Z</time>
      </trkpt>
      <trkpt lat="48.06503" lon="-3.53306">
        <ele>188.1</ele>
        <time>2025-02-26T09:33:02Z</time>
      </trkpt>
      <trkpt lat="48.06504" lon="-3.53307">
        <ele>188.1</ele>
        <time>2025-02-26T09:33:03Z</time>
      </trkpt>
      <trkpt lat="48.06505" lon="-3.53308">
        <ele>188.1</ele>
        <time>2025-02-26T09:33:04Z</time>
      </trkpt>
      <trkpt lat="48.06506" lon="-3.53309">
        <ele>188.1</ele>
        <time>2025-02-26T09:33:05Z</time>
      </trkpt>
      <trkpt lat="48.06507" lon="-3.5331">
        <ele>188.1</ele>
        <time>2025-02-26T09:33:06Z</time>
      </trkpt>
      <trkpt lat="48.06508" lon="-3.5331">
        <ele>188.1</ele>
        <time>2025-02-26T09:33:07Z</time>
      </trkpt>
      <trkpt lat="48.06509" lon="-3.5331">
        <ele>188.2</ele>
        <time>2025-02-26T09:33:08Z</time>
      </trkpt>
      <trkpt lat="48.0651" lon="-3.53309">
        <ele>188.2</ele>
        <time>2025-02-26T09:33:09Z</time>
      </trkpt>
      <trkpt lat="48.06511" lon="-3.53309">
        <ele>188.2</ele>
        <time>2025-02-26T09:33:10Z</time>
      </trkpt>
      <trkpt lat="48.06512" lon="-3.53309">
        <ele>188.3</ele>
        <time>2025-02-26T09:33:11Z</time>
      </trkpt>
      <trkpt lat="48.06512" lon="-3.5331">
        <ele>188.3</ele>
        <time>2025-02-26T09:33:12Z</time>
      </trkpt>
      <trkpt lat="48.06514" lon="-3.53309">
        <ele>188.4</ele>
        <time>2025-02-26T09:33:13Z</time>
      </trkpt>
      <trkpt lat="48.06515" lon="-3.53309">
        <ele>188.4</ele>
        <time>2025-02-26T09:33:14Z</time>
      </trkpt>
      <trkpt lat="48.06516" lon="-3.5331">
        <ele>188.4</ele>
        <time>2025-02-26T09:33:15Z</time>
      </trkpt>
      <trkpt lat="48.06516" lon="-3.5331">
        <ele>188.4</ele>
        <time>2025-02-26T09:33:16Z</time>
      </trkpt>
      <trkpt lat="48.06518" lon="-3.5331">
        <ele>188.5</ele>
        <time>2025-02-26T09:33:17Z</time>
      </trkpt>
      <trkpt lat="48.06519" lon="-3.53311">
        <ele>188.5</ele>
        <time>2025-02-26T09:33:18Z</time>
      </trkpt>
      <trkpt lat="48.06519" lon="-3.53312">
        <ele>188.5</ele>
        <time>2025-02-26T09:33:19Z</time>
      </trkpt>
      <trkpt lat="48.0652" lon="-3.53312">
        <ele>188.5</ele>
        <time>2025-02-26T09:33:20Z</time>
      </trkpt>
      <trkpt lat="48.06521" lon="-3.53312">
        <ele>188.5</ele>
        <time>2025-02-26T09:33:21Z</time>
      </trkpt>
      <trkpt lat="48.06522" lon="-3.53312">
        <ele>188.6</ele>
        <time>2025-02-26T09:33:22Z</time>
      </trkpt>
      <trkpt lat="48.06523" lon="-3.53313">
        <ele>188.6</ele>
        <time>2025-02-26T09:33:23Z</time>
      </trkpt>
      <trkpt lat="48.06525" lon="-3.53313">
        <ele>188.6</ele>
        <time>2025-02-26T09:33:24Z</time>
      </trkpt>
      <trkpt lat="48.06526" lon="-3.53313">
        <ele>188.6</ele>
        <time>2025-02-26T09:33:25Z</time>
      </trkpt>
      <trkpt lat="48.06527" lon="-3.53314">
        <ele>188.7</ele>
        <time>2025-02-26T09:33:26Z</time>
      </trkpt>
      <trkpt lat="48.06528" lon="-3.53315">
        <ele>188.7</ele>
        <time>2025-02-26T09:33:27Z</time>
      </trkpt>
      <trkpt lat="48.06529" lon="-3.53316">
        <ele>188.6</ele>
        <time>2025-02-26T09:33:28Z</time>
      </trkpt>
      <trkpt lat="48.0653" lon="-3.53317">
        <ele>188.6</ele>
        <time>2025-02-26T09:33:29Z</time>
      </trkpt>
      <trkpt lat="48.06531" lon="-3.53317">
        <ele>188.7</ele>
        <time>2025-02-26T09:33:30Z</time>
      </trkpt>
      <trkpt lat="48.06532" lon="-3.53318">
        <ele>188.7</ele>
        <time>2025-02-26T09:33:31Z</time>
      </trkpt>
      <trkpt lat="48.06533" lon="-3.53318">
        <ele>188.7</ele>
        <time>2025-02-26T09:33:32Z</time>
      </trkpt>
      <trkpt lat="48.06534" lon="-3.53317">
        <ele>188.8</ele>
        <time>2025-02-26T09:33:33Z</time>
      </trkpt>
      <trkpt lat="48.06535" lon="-3.53317">
        <ele>188.9</ele>
        <time>2025-02-26T09:33:34Z</time>
      </trkpt>
      <trkpt lat="48.06536" lon="-3.53317">
        <ele>188.9</ele>
        <time>2025-02-26T09:33:35Z</time>
      </trkpt>
      <trkpt lat="48.06537" lon="-3.53318">
        <ele>188.9</ele>
        <time>2025-02-26T09:33:36Z</time>
      </trkpt>
      <trkpt lat="48.06539" lon="-3.53319">
        <ele>188.9</ele>
        <time>2025-02-26T09:33:37Z</time>
      </trkpt>
      <trkpt lat="48.0654" lon="-3.5332">
        <ele>188.9</ele>
        <time>2025-02-26T09:33:38Z</time>
      </trkpt>
      <trkpt lat="48.06541" lon="-3.53321">
        <ele>188.9</ele>
        <time>2025-02-26T09:33:39Z</time>
      </trkpt>
      <trkpt lat="48.06542" lon="-3.53321">
        <ele>189</ele>
        <time>2025-02-26T09:33:40Z</time>
      </trkpt>
      <trkpt lat="48.06543" lon="-3.53321">
        <ele>189</ele>
        <time>2025-02-26T09:33:41Z</time>
      </trkpt>
      <trkpt lat="48.06544" lon="-3.53321">
        <ele>189</ele>
        <time>2025-02-26T09:33:42Z</time>
      </trkpt>
      <trkpt lat="48.06544" lon="-3.53322">
        <ele>189</ele>
        <time>2025-02-26T09:33:43Z</time>
      </trkpt>
      <trkpt lat="48.06545" lon="-3.53322">
        <ele>189</ele>
        <time>2025-02-26T09:33:44Z</time>
      </trkpt>
      <trkpt lat="48.06546" lon="-3.53323">
        <ele>189</ele>
        <time>2025-02-26T09:33:45Z</time>
      </trkpt>
      <trkpt lat="48.06546" lon="-3.53325">
        <ele>189</ele>
        <time>2025-02-26T09:33:46Z</time>
      </trkpt>
      <trkpt lat="48.06548" lon="-3.53325">
        <ele>189</ele>
        <time>2025-02-26T09:33:47Z</time>
      </trkpt>
      <trkpt lat="48.06549" lon="-3.53325">
        <ele>189</ele>
        <time>2025-02-26T09:33:48Z</time>
      </trkpt>
      <trkpt lat="48.0655" lon="-3.53327">
        <ele>189</ele>
        <time>2025-02-26T09:33:49Z</time>
      </trkpt>
      <trkpt lat="48.06551" lon="-3.53328">
        <ele>189</ele>
        <time>2025-02-26T09:33:50Z</time>
      </trkpt>
      <trkpt lat="48.06551" lon="-3.53329">
        <ele>189</ele>
        <time>2025-02-26T09:33:51Z</time>
      </trkpt>
      <trkpt lat="48.06553" lon="-3.5333">
        <ele>189</ele>
        <time>2025-02-26T09:33:52Z</time>
      </trkpt>
      <trkpt lat="48.06554" lon="-3.5333">
        <ele>189.1</ele>
        <time>2025-02-26T09:33:53Z</time>
      </trkpt>
      <trkpt lat="48.06555" lon="-3.5333">
        <ele>189.1</ele>
        <time>2025-02-26T09:33:54Z</time>
      </trkpt>
      <trkpt lat="48.06556" lon="-3.5333">
        <ele>189.1</ele>
        <time>2025-02-26T09:33:55Z</time>
      </trkpt>
      <trkpt lat="48.06557" lon="-3.53331">
        <ele>189.1</ele>
        <time>2025-02-26T09:33:56Z</time>
      </trkpt>
      <trkpt lat="48.06558" lon="-3.53331">
        <ele>189.1</ele>
        <time>2025-02-26T09:33:57Z</time>
      </trkpt>
      <trkpt lat="48.06559" lon="-3.53332">
        <ele>189.1</ele>
        <time>2025-02-26T09:33:58Z</time>
      </trkpt>
      <trkpt lat="48.06559" lon="-3.53334">
        <ele>189.1</ele>
        <time>2025-02-26T09:33:59Z</time>
      </trkpt>
      <trkpt lat="48.06558" lon="-3.53336">
        <ele>189</ele>
        <time>2025-02-26T09:34:00Z</time>
      </trkpt>
      <trkpt lat="48.06559" lon="-3.53337">
        <ele>189</ele>
        <time>2025-02-26T09:34:01Z</time>
      </trkpt>
      <trkpt lat="48.0656" lon="-3.53337">
        <ele>189</ele>
        <time>2025-02-26T09:34:02Z</time>
      </trkpt>
      <trkpt lat="48.06561" lon="-3.53338">
        <ele>189.1</ele>
        <time>2025-02-26T09:34:03Z</time>
      </trkpt>
      <trkpt lat="48.06562" lon="-3.53339">
        <ele>189</ele>
        <time>2025-02-26T09:34:04Z</time>
      </trkpt>
      <trkpt lat="48.06562" lon="-3.5334">
        <ele>189</ele>
        <time>2025-02-26T09:34:05Z</time>
      </trkpt>
      <trkpt lat="48.06563" lon="-3.5334">
        <ele>189</ele>
        <time>2025-02-26T09:34:06Z</time>
      </trkpt>
      <trkpt lat="48.06563" lon="-3.5334">
        <ele>189</ele>
        <time>2025-02-26T09:34:07Z</time>
      </trkpt>
      <trkpt lat="48.06564" lon="-3.5334">
        <ele>189</ele>
        <time>2025-02-26T09:34:08Z</time>
      </trkpt>
      <trkpt lat="48.06565" lon="-3.53341">
        <ele>189.1</ele>
        <time>2025-02-26T09:34:09Z</time>
      </trkpt>
      <trkpt lat="48.06566" lon="-3.53342">
        <ele>189.1</ele>
        <time>2025-02-26T09:34:10Z</time>
      </trkpt>
      <trkpt lat="48.06567" lon="-3.53344">
        <ele>189</ele>
        <time>2025-02-26T09:34:11Z</time>
      </trkpt>
      <trkpt lat="48.06568" lon="-3.53345">
        <ele>189</ele>
        <time>2025-02-26T09:34:12Z</time>
      </trkpt>
      <trkpt lat="48.06568" lon="-3.53347">
        <ele>189</ele>
        <time>2025-02-26T09:34:13Z</time>
      </trkpt>
      <trkpt lat="48.06569" lon="-3.53348">
        <ele>188.9</ele>
        <time>2025-02-26T09:34:14Z</time>
      </trkpt>
      <trkpt lat="48.06569" lon="-3.5335">
        <ele>188.9</ele>
        <time>2025-02-26T09:34:15Z</time>
      </trkpt>
      <trkpt lat="48.0657" lon="-3.53351">
        <ele>188.9</ele>
        <time>2025-02-26T09:34:16Z</time>
      </trkpt>
      <trkpt lat="48.06571" lon="-3.53353">
        <ele>188.8</ele>
        <time>2025-02-26T09:34:17Z</time>
      </trkpt>
      <trkpt lat="48.06571" lon="-3.53355">
        <ele>188.8</ele>
        <time>2025-02-26T09:34:18Z</time>
      </trkpt>
      <trkpt lat="48.06572" lon="-3.53356">
        <ele>188.8</ele>
        <time>2025-02-26T09:34:19Z</time>
      </trkpt>
      <trkpt lat="48.06573" lon="-3.53357">
        <ele>188.8</ele>
        <time>2025-02-26T09:34:20Z</time>
      </trkpt>
      <trkpt lat="48.06574" lon="-3.53358">
        <ele>188.8</ele>
        <time>2025-02-26T09:34:21Z</time>
      </trkpt>
      <trkpt lat="48.06575" lon="-3.53358">
        <ele>188.8</ele>
        <time>2025-02-26T09:34:22Z</time>
      </trkpt>
      <trkpt lat="48.06575" lon="-3.53358">
        <ele>188.8</ele>
        <time>2025-02-26T09:34:23Z</time>
      </trkpt>
      <trkpt lat="48.06576" lon="-3.53359">
        <ele>188.8</ele>
        <time>2025-02-26T09:34:24Z</time>
      </trkpt>
      <trkpt lat="48.06576" lon="-3.5336">
        <ele>188.8</ele>
        <time>2025-02-26T09:34:25Z</time>
      </trkpt>
      <trkpt lat="48.06577" lon="-3.5336">
        <ele>188.8</ele>
        <time>2025-02-26T09:34:26Z</time>
      </trkpt>
      <trkpt lat="48.06577" lon="-3.53361">
        <ele>188.8</ele>
        <time>2025-02-26T09:34:27Z</time>
      </trkpt>
      <trkpt lat="48.06578" lon="-3.53361">
        <ele>188.8</ele>
        <time>2025-02-26T09:34:28Z</time>
      </trkpt>
      <trkpt lat="48.06578" lon="-3.53362">
        <ele>188.8</ele>
        <time>2025-02-26T09:34:29Z</time>
      </trkpt>
      <trkpt lat="48.06579" lon="-3.53361">
        <ele>188.8</ele>
        <time>2025-02-26T09:34:30Z</time>
      </trkpt>
      <trkpt lat="48.0658" lon="-3.53361">
        <ele>188.9</ele>
        <time>2025-02-26T09:34:31Z</time>
      </trkpt>
      <trkpt lat="48.06581" lon="-3.5336">
        <ele>188.9</ele>
        <time>2025-02-26T09:34:32Z</time>
      </trkpt>
      <trkpt lat="48.06582" lon="-3.5336">
        <ele>189</ele>
        <time>2025-02-26T09:34:33Z</time>
      </trkpt>
      <trkpt lat="48.06582" lon="-3.53361">
        <ele>189</ele>
        <time>2025-02-26T09:34:34Z</time>
      </trkpt>
      <trkpt lat="48.06583" lon="-3.5336">
        <ele>189</ele>
        <time>2025-02-26T09:34:35Z</time>
      </trkpt>
      <trkpt lat="48.06585" lon="-3.53361">
        <ele>189</ele>
        <time>2025-02-26T09:34:36Z</time>
      </trkpt>
      <trkpt lat="48.06586" lon="-3.53362">
        <ele>189</ele>
        <time>2025-02-26T09:34:37Z</time>
      </trkpt>
      <trkpt lat="48.06586" lon="-3.53363">
        <ele>189</ele>
        <time>2025-02-26T09:34:38Z</time>
      </trkpt>
      <trkpt lat="48.06587" lon="-3.53364">
        <ele>189</ele>
        <time>2025-02-26T09:34:39Z</time>
      </trkpt>
      <trkpt lat="48.06588" lon="-3.53365">
        <ele>189</ele>
        <time>2025-02-26T09:34:40Z</time>
      </trkpt>
      <trkpt lat="48.06588" lon="-3.53367">
        <ele>189</ele>
        <time>2025-02-26T09:34:41Z</time>
      </trkpt>
      <trkpt lat="48.06589" lon="-3.53367">
        <ele>189</ele>
        <time>2025-02-26T09:34:42Z</time>
      </trkpt>
      <trkpt lat="48.06589" lon="-3.53368">
        <ele>189</ele>
        <time>2025-02-26T09:34:43Z</time>
      </trkpt>
      <trkpt lat="48.0659" lon="-3.53368">
        <ele>189</ele>
        <time>2025-02-26T09:34:44Z</time>
      </trkpt>
      <trkpt lat="48.06591" lon="-3.53368">
        <ele>189</ele>
        <time>2025-02-26T09:34:45Z</time>
      </trkpt>
      <trkpt lat="48.06592" lon="-3.5337">
        <ele>189</ele>
        <time>2025-02-26T09:34:46Z</time>
      </trkpt>
      <trkpt lat="48.06593" lon="-3.5337">
        <ele>189</ele>
        <time>2025-02-26T09:34:47Z</time>
      </trkpt>
      <trkpt lat="48.06594" lon="-3.5337">
        <ele>189.1</ele>
        <time>2025-02-26T09:34:48Z</time>
      </trkpt>
      <trkpt lat="48.06595" lon="-3.5337">
        <ele>189.1</ele>
        <time>2025-02-26T09:34:49Z</time>
      </trkpt>
      <trkpt lat="48.06595" lon="-3.53371">
        <ele>189.1</ele>
        <time>2025-02-26T09:34:50Z</time>
      </trkpt>
      <trkpt lat="48.06597" lon="-3.53371">
        <ele>189.1</ele>
        <time>2025-02-26T09:34:51Z</time>
      </trkpt>
      <trkpt lat="48.06598" lon="-3.53372">
        <ele>189.1</ele>
        <time>2025-02-26T09:34:52Z</time>
      </trkpt>
      <trkpt lat="48.06599" lon="-3.53372">
        <ele>189.2</ele>
        <time>2025-02-26T09:34:53Z</time>
      </trkpt>
      <trkpt lat="48.066" lon="-3.53372">
        <ele>189.2</ele>
        <time>2025-02-26T09:34:54Z</time>
      </trkpt>
      <trkpt lat="48.06601" lon="-3.53372">
        <ele>189.2</ele>
        <time>2025-02-26T09:34:55Z</time>
      </trkpt>
      <trkpt lat="48.06602" lon="-3.53373">
        <ele>189.2</ele>
        <time>2025-02-26T09:34:56Z</time>
      </trkpt>
      <trkpt lat="48.06602" lon="-3.53373">
        <ele>189.2</ele>
        <time>2025-02-26T09:34:57Z</time>
      </trkpt>
      <trkpt lat="48.06603" lon="-3.53374">
        <ele>189.2</ele>
        <time>2025-02-26T09:34:58Z</time>
      </trkpt>
      <trkpt lat="48.06604" lon="-3.53375">
        <ele>189.3</ele>
        <time>2025-02-26T09:34:59Z</time>
      </trkpt>
      <trkpt lat="48.06605" lon="-3.53376">
        <ele>189.2</ele>
        <time>2025-02-26T09:35:00Z</time>
      </trkpt>
      <trkpt lat="48.06606" lon="-3.53376">
        <ele>189.3</ele>
        <time>2025-02-26T09:35:01Z</time>
      </trkpt>
      <trkpt lat="48.06607" lon="-3.53377">
        <ele>189.3</ele>
        <time>2025-02-26T09:35:02Z</time>
      </trkpt>
      <trkpt lat="48.06608" lon="-3.53378">
        <ele>189.3</ele>
        <time>2025-02-26T09:35:03Z</time>
      </trkpt>
      <trkpt lat="48.06609" lon="-3.53379">
        <ele>189.3</ele>
        <time>2025-02-26T09:35:04Z</time>
      </trkpt>
      <trkpt lat="48.0661" lon="-3.53378">
        <ele>189.3</ele>
        <time>2025-02-26T09:35:05Z</time>
      </trkpt>
      <trkpt lat="48.06611" lon="-3.53378">
        <ele>189.4</ele>
        <time>2025-02-26T09:35:06Z</time>
      </trkpt>
      <trkpt lat="48.06612" lon="-3.53379">
        <ele>189.4</ele>
        <time>2025-02-26T09:35:07Z</time>
      </trkpt>
      <trkpt lat="48.06613" lon="-3.5338">
        <ele>189.4</ele>
        <time>2025-02-26T09:35:08Z</time>
      </trkpt>
      <trkpt lat="48.06613" lon="-3.53381">
        <ele>189.4</ele>
        <time>2025-02-26T09:35:09Z</time>
      </trkpt>
      <trkpt lat="48.06613" lon="-3.53382">
        <ele>189.3</ele>
        <time>2025-02-26T09:35:10Z</time>
      </trkpt>
      <trkpt lat="48.06614" lon="-3.53383">
        <ele>189.3</ele>
        <time>2025-02-26T09:35:11Z</time>
      </trkpt>
      <trkpt lat="48.06615" lon="-3.53383">
        <ele>189.3</ele>
        <time>2025-02-26T09:35:12Z</time>
      </trkpt>
      <trkpt lat="48.06616" lon="-3.53384">
        <ele>189.3</ele>
        <time>2025-02-26T09:35:13Z</time>
      </trkpt>
      <trkpt lat="48.06617" lon="-3.53385">
        <ele>189.3</ele>
        <time>2025-02-26T09:35:14Z</time>
      </trkpt>
      <trkpt lat="48.06617" lon="-3.53385">
        <ele>189.3</ele>
        <time>2025-02-26T09:35:15Z</time>
      </trkpt>
      <trkpt lat="48.06618" lon="-3.53385">
        <ele>189.3</ele>
        <time>2025-02-26T09:35:16Z</time>
      </trkpt>
      <trkpt lat="48.06619" lon="-3.53384">
        <ele>189.4</ele>
        <time>2025-02-26T09:35:17Z</time>
      </trkpt>
      <trkpt lat="48.0662" lon="-3.53385">
        <ele>189.4</ele>
        <time>2025-02-26T09:35:18Z</time>
      </trkpt>
      <trkpt lat="48.06621" lon="-3.53385">
        <ele>189.4</ele>
        <time>2025-02-26T09:35:19Z</time>
      </trkpt>
      <trkpt lat="48.06622" lon="-3.53387">
        <ele>189.4</ele>
        <time>2025-02-26T09:35:20Z</time>
      </trkpt>
      <trkpt lat="48.06623" lon="-3.53388">
        <ele>189.5</ele>
        <time>2025-02-26T09:35:21Z</time>
      </trkpt>
      <trkpt lat="48.06625" lon="-3.53388">
        <ele>189.5</ele>
        <time>2025-02-26T09:35:22Z</time>
      </trkpt>
      <trkpt lat="48.06625" lon="-3.53389">
        <ele>189.5</ele>
        <time>2025-02-26T09:35:23Z</time>
      </trkpt>
      <trkpt lat="48.06626" lon="-3.53391">
        <ele>189.5</ele>
        <time>2025-02-26T09:35:24Z</time>
      </trkpt>
      <trkpt lat="48.06627" lon="-3.53391">
        <ele>189.5</ele>
        <time>2025-02-26T09:35:25Z</time>
      </trkpt>
      <trkpt lat="48.06627" lon="-3.53392">
        <ele>189.5</ele>
        <time>2025-02-26T09:35:26Z</time>
      </trkpt>
      <trkpt lat="48.06628" lon="-3.53392">
        <ele>189.5</ele>
        <time>2025-02-26T09:35:27Z</time>
      </trkpt>
      <trkpt lat="48.06628" lon="-3.53392">
        <ele>189.5</ele>
        <time>2025-02-26T09:35:28Z</time>
      </trkpt>
      <trkpt lat="48.06628" lon="-3.53392">
        <ele>189.5</ele>
        <time>2025-02-26T09:35:29Z</time>
      </trkpt>
      <trkpt lat="48.06629" lon="-3.53393">
        <ele>189.5</ele>
        <time>2025-02-26T09:35:30Z</time>
      </trkpt>
      <trkpt lat="48.06629" lon="-3.53394">
        <ele>189.5</ele>
        <time>2025-02-26T09:35:31Z</time>
      </trkpt>
      <trkpt lat="48.0663" lon="-3.53395">
        <ele>189.5</ele>
        <time>2025-02-26T09:35:32Z</time>
      </trkpt>
      <trkpt lat="48.06631" lon="-3.53396">
        <ele>189.5</ele>
        <time>2025-02-26T09:35:33Z</time>
      </trkpt>
      <trkpt lat="48.06632" lon="-3.53398">
        <ele>189.5</ele>
        <time>2025-02-26T09:35:34Z</time>
      </trkpt>
      <trkpt lat="48.06633" lon="-3.53398">
        <ele>189.5</ele>
        <time>2025-02-26T09:35:35Z</time>
      </trkpt>
      <trkpt lat="48.06634" lon="-3.534">
        <ele>189.4</ele>
        <time>2025-02-26T09:35:36Z</time>
      </trkpt>
      <trkpt lat="48.06636" lon="-3.534">
        <ele>189.5</ele>
        <time>2025-02-26T09:35:37Z</time>
      </trkpt>
      <trkpt lat="48.06637" lon="-3.53402">
        <ele>189.5</ele>
        <time>2025-02-26T09:35:38Z</time>
      </trkpt>
      <trkpt lat="48.06637" lon="-3.53402">
        <ele>189.5</ele>
        <time>2025-02-26T09:35:39Z</time>
      </trkpt>
      <trkpt lat="48.06637" lon="-3.53402">
        <ele>189.5</ele>
        <time>2025-02-26T09:35:40Z</time>
      </trkpt>
      <trkpt lat="48.06638" lon="-3.53402">
        <ele>189.5</ele>
        <time>2025-02-26T09:35:41Z</time>
      </trkpt>
      <trkpt lat="48.06639" lon="-3.53403">
        <ele>189.5</ele>
        <time>2025-02-26T09:35:42Z</time>
      </trkpt>
      <trkpt lat="48.0664" lon="-3.53404">
        <ele>189.5</ele>
        <time>2025-02-26T09:35:43Z</time>
      </trkpt>
      <trkpt lat="48.0664" lon="-3.53405">
        <ele>189.5</ele>
        <time>2025-02-26T09:35:44Z</time>
      </trkpt>
      <trkpt lat="48.06641" lon="-3.53406">
        <ele>189.4</ele>
        <time>2025-02-26T09:35:45Z</time>
      </trkpt>
      <trkpt lat="48.06642" lon="-3.53407">
        <ele>189.4</ele>
        <time>2025-02-26T09:35:46Z</time>
      </trkpt>
      <trkpt lat="48.06643" lon="-3.53409">
        <ele>189.4</ele>
        <time>2025-02-26T09:35:47Z</time>
      </trkpt>
      <trkpt lat="48.06644" lon="-3.53409">
        <ele>189.4</ele>
        <time>2025-02-26T09:35:48Z</time>
      </trkpt>
      <trkpt lat="48.06645" lon="-3.53409">
        <ele>189.4</ele>
        <time>2025-02-26T09:35:49Z</time>
      </trkpt>
      <trkpt lat="48.06646" lon="-3.5341">
        <ele>189.4</ele>
        <time>2025-02-26T09:35:50Z</time>
      </trkpt>
      <trkpt lat="48.06646" lon="-3.53411">
        <ele>189.4</ele>
        <time>2025-02-26T09:35:51Z</time>
      </trkpt>
      <trkpt lat="48.06647" lon="-3.53413">
        <ele>189.4</ele>
        <time>2025-02-26T09:35:52Z</time>
      </trkpt>
      <trkpt lat="48.06646" lon="-3.53412">
        <ele>189.4</ele>
        <time>2025-02-26T09:35:53Z</time>
      </trkpt>
      <trkpt lat="48.06646" lon="-3.53412">
        <ele>189.4</ele>
        <time>2025-02-26T09:35:54Z</time>
      </trkpt>
      <trkpt lat="48.06646" lon="-3.53412">
        <ele>189.4</ele>
        <time>2025-02-26T09:35:55Z</time>
      </trkpt>
      <trkpt lat="48.06646" lon="-3.53412">
        <ele>189.4</ele>
        <time>2025-02-26T09:35:56Z</time>
      </trkpt>
      <trkpt lat="48.06646" lon="-3.53412">
        <ele>189.4</ele>
        <time>2025-02-26T09:35:57Z</time>
      </trkpt>
      <trkpt lat="48.06645" lon="-3.53415">
        <ele>189.3</ele>
        <time>2025-02-26T09:35:58Z</time>
      </trkpt>
      <trkpt lat="48.06644" lon="-3.53416">
        <ele>189.2</ele>
        <time>2025-02-26T09:35:59Z</time>
      </trkpt>
      <trkpt lat="48.06643" lon="-3.53415">
        <ele>189.2</ele>
        <time>2025-02-26T09:36:00Z</time>
      </trkpt>
      <trkpt lat="48.06643" lon="-3.53413">
        <ele>189.2</ele>
        <time>2025-02-26T09:36:01Z</time>
      </trkpt>
      <trkpt lat="48.06642" lon="-3.53413">
        <ele>189.2</ele>
        <time>2025-02-26T09:36:02Z</time>
      </trkpt>
      <trkpt lat="48.06642" lon="-3.53413">
        <ele>189.2</ele>
        <time>2025-02-26T09:36:03Z</time>
      </trkpt>
      <trkpt lat="48.06642" lon="-3.53413">
        <ele>189.3</ele>
        <time>2025-02-26T09:36:04Z</time>
      </trkpt>
      <trkpt lat="48.06643" lon="-3.53413">
        <ele>189.3</ele>
        <time>2025-02-26T09:36:05Z</time>
      </trkpt>
      <trkpt lat="48.06643" lon="-3.53413">
        <ele>189.3</ele>
        <time>2025-02-26T09:36:06Z</time>
      </trkpt>
      <trkpt lat="48.06643" lon="-3.53413">
        <ele>189.3</ele>
        <time>2025-02-26T09:36:07Z</time>
      </trkpt>
      <trkpt lat="48.06643" lon="-3.53412">
        <ele>189.3</ele>
        <time>2025-02-26T09:36:08Z</time>
      </trkpt>
      <trkpt lat="48.06643" lon="-3.53412">
        <ele>189.3</ele>
        <time>2025-02-26T09:36:09Z</time>
      </trkpt>
      <trkpt lat="48.06642" lon="-3.53412">
        <ele>189.3</ele>
        <time>2025-02-26T09:36:10Z</time>
      </trkpt>
      <trkpt lat="48.06642" lon="-3.53412">
        <ele>189.3</ele>
        <time>2025-02-26T09:36:11Z</time>
      </trkpt>
      <trkpt lat="48.06642" lon="-3.53412">
        <ele>189.3</ele>
        <time>2025-02-26T09:36:12Z</time>
      </trkpt>
      <trkpt lat="48.06642" lon="-3.53412">
        <ele>189.3</ele>
        <time>2025-02-26T09:36:13Z</time>
      </trkpt>
      <trkpt lat="48.06642" lon="-3.53412">
        <ele>189.3</ele>
        <time>2025-02-26T09:36:14Z</time>
      </trkpt>
      <trkpt lat="48.06642" lon="-3.53412">
        <ele>189.3</ele>
        <time>2025-02-26T09:36:15Z</time>
      </trkpt>
      <trkpt lat="48.06643" lon="-3.53411">
        <ele>189.3</ele>
        <time>2025-02-26T09:36:16Z</time>
      </trkpt>
      <trkpt lat="48.06643" lon="-3.5341">
        <ele>189.3</ele>
        <time>2025-02-26T09:36:17Z</time>
      </trkpt>
      <trkpt lat="48.06644" lon="-3.53409">
        <ele>189.4</ele>
        <time>2025-02-26T09:36:18Z</time>
      </trkpt>
      <trkpt lat="48.06645" lon="-3.53408">
        <ele>189.5</ele>
        <time>2025-02-26T09:36:19Z</time>
      </trkpt>
      <trkpt lat="48.06647" lon="-3.53408">
        <ele>189.5</ele>
        <time>2025-02-26T09:36:20Z</time>
      </trkpt>
      <trkpt lat="48.06647" lon="-3.53408">
        <ele>189.5</ele>
        <time>2025-02-26T09:36:21Z</time>
      </trkpt>
      <trkpt lat="48.06649" lon="-3.53407">
        <ele>189.6</ele>
        <time>2025-02-26T09:36:22Z</time>
      </trkpt>
      <trkpt lat="48.0665" lon="-3.53406">
        <ele>189.6</ele>
        <time>2025-02-26T09:36:23Z</time>
      </trkpt>
      <trkpt lat="48.0665" lon="-3.53405">
        <ele>189.7</ele>
        <time>2025-02-26T09:36:24Z</time>
      </trkpt>
      <trkpt lat="48.06651" lon="-3.53403">
        <ele>189.7</ele>
        <time>2025-02-26T09:36:25Z</time>
      </trkpt>
      <trkpt lat="48.06651" lon="-3.53403">
        <ele>189.7</ele>
        <time>2025-02-26T09:36:26Z</time>
      </trkpt>
      <trkpt lat="48.06651" lon="-3.53401">
        <ele>189.8</ele>
        <time>2025-02-26T09:36:27Z</time>
      </trkpt>
      <trkpt lat="48.06651" lon="-3.534">
        <ele>189.8</ele>
        <time>2025-02-26T09:36:28Z</time>
      </trkpt>
      <trkpt lat="48.06652" lon="-3.53399">
        <ele>189.8</ele>
        <time>2025-02-26T09:36:29Z</time>
      </trkpt>
      <trkpt lat="48.06652" lon="-3.53399">
        <ele>189.8</ele>
        <time>2025-02-26T09:36:30Z</time>
      </trkpt>
      <trkpt lat="48.06652" lon="-3.53398">
        <ele>189.8</ele>
        <time>2025-02-26T09:36:31Z</time>
      </trkpt>
      <trkpt lat="48.06653" lon="-3.53397">
        <ele>189.9</ele>
        <time>2025-02-26T09:36:32Z</time>
      </trkpt>
      <trkpt lat="48.06653" lon="-3.53396">
        <ele>189.9</ele>
        <time>2025-02-26T09:36:33Z</time>
      </trkpt>
      <trkpt lat="48.06654" lon="-3.53395">
        <ele>189.9</ele>
        <time>2025-02-26T09:36:34Z</time>
      </trkpt>
      <trkpt lat="48.06655" lon="-3.53394">
        <ele>189.9</ele>
        <time>2025-02-26T09:36:35Z</time>
      </trkpt>
      <trkpt lat="48.06655" lon="-3.53393">
        <ele>189.9</ele>
        <time>2025-02-26T09:36:36Z</time>
      </trkpt>
      <trkpt lat="48.06656" lon="-3.53393">
        <ele>189.9</ele>
        <time>2025-02-26T09:36:37Z</time>
      </trkpt>
      <trkpt lat="48.06657" lon="-3.53392">
        <ele>190</ele>
        <time>2025-02-26T09:36:38Z</time>
      </trkpt>
      <trkpt lat="48.06657" lon="-3.53391">
        <ele>190</ele>
        <time>2025-02-26T09:36:39Z</time>
      </trkpt>
      <trkpt lat="48.06658" lon="-3.5339">
        <ele>190</ele>
        <time>2025-02-26T09:36:40Z</time>
      </trkpt>
      <trkpt lat="48.06659" lon="-3.5339">
        <ele>190</ele>
        <time>2025-02-26T09:36:41Z</time>
      </trkpt>
      <trkpt lat="48.0666" lon="-3.5339">
        <ele>190</ele>
        <time>2025-02-26T09:36:42Z</time>
      </trkpt>
      <trkpt lat="48.06661" lon="-3.5339">
        <ele>190</ele>
        <time>2025-02-26T09:36:43Z</time>
      </trkpt>
      <trkpt lat="48.06662" lon="-3.5339">
        <ele>190</ele>
        <time>2025-02-26T09:36:44Z</time>
      </trkpt>
      <trkpt lat="48.06663" lon="-3.5339">
        <ele>190</ele>
        <time>2025-02-26T09:36:45Z</time>
      </trkpt>
      <trkpt lat="48.06665" lon="-3.5339">
        <ele>190</ele>
        <time>2025-02-26T09:36:46Z</time>
      </trkpt>
      <trkpt lat="48.06666" lon="-3.53389">
        <ele>190</ele>
        <time>2025-02-26T09:36:47Z</time>
      </trkpt>
      <trkpt lat="48.06667" lon="-3.53388">
        <ele>190</ele>
        <time>2025-02-26T09:36:48Z</time>
      </trkpt>
      <trkpt lat="48.06668" lon="-3.53387">
        <ele>189.9</ele>
        <time>2025-02-26T09:36:49Z</time>
      </trkpt>
      <trkpt lat="48.06669" lon="-3.53386">
        <ele>189.9</ele>
        <time>2025-02-26T09:36:50Z</time>
      </trkpt>
      <trkpt lat="48.0667" lon="-3.53384">
        <ele>189.8</ele>
        <time>2025-02-26T09:36:51Z</time>
      </trkpt>
      <trkpt lat="48.0667" lon="-3.53382">
        <ele>189.8</ele>
        <time>2025-02-26T09:36:52Z</time>
      </trkpt>
      <trkpt lat="48.0667" lon="-3.53381">
        <ele>189.7</ele>
        <time>2025-02-26T09:36:53Z</time>
      </trkpt>
      <trkpt lat="48.0667" lon="-3.5338">
        <ele>189.7</ele>
        <time>2025-02-26T09:36:54Z</time>
      </trkpt>
      <trkpt lat="48.06671" lon="-3.53379">
        <ele>189.6</ele>
        <time>2025-02-26T09:36:55Z</time>
      </trkpt>
      <trkpt lat="48.06671" lon="-3.53378">
        <ele>189.6</ele>
        <time>2025-02-26T09:36:56Z</time>
      </trkpt>
      <trkpt lat="48.06672" lon="-3.53376">
        <ele>189.5</ele>
        <time>2025-02-26T09:36:57Z</time>
      </trkpt>
      <trkpt lat="48.06672" lon="-3.53374">
        <ele>189.5</ele>
        <time>2025-02-26T09:36:58Z</time>
      </trkpt>
      <trkpt lat="48.06672" lon="-3.53373">
        <ele>189.4</ele>
        <time>2025-02-26T09:36:59Z</time>
      </trkpt>
      <trkpt lat="48.06672" lon="-3.53372">
        <ele>189.4</ele>
        <time>2025-02-26T09:37:00Z</time>
      </trkpt>
      <trkpt lat="48.06673" lon="-3.53371">
        <ele>189.3</ele>
        <time>2025-02-26T09:37:01Z</time>
      </trkpt>
      <trkpt lat="48.06673" lon="-3.5337">
        <ele>189.3</ele>
        <time>2025-02-26T09:37:02Z</time>
      </trkpt>
      <trkpt lat="48.06674" lon="-3.53369">
        <ele>189.3</ele>
        <time>2025-02-26T09:37:03Z</time>
      </trkpt>
      <trkpt lat="48.06675" lon="-3.53369">
        <ele>189.3</ele>
        <time>2025-02-26T09:37:04Z</time>
      </trkpt>
      <trkpt lat="48.06675" lon="-3.53367">
        <ele>189.2</ele>
        <time>2025-02-26T09:37:05Z</time>
      </trkpt>
      <trkpt lat="48.06675" lon="-3.53367">
        <ele>189.2</ele>
        <time>2025-02-26T09:37:06Z</time>
      </trkpt>
      <trkpt lat="48.06675" lon="-3.53366">
        <ele>189.2</ele>
        <time>2025-02-26T09:37:07Z</time>
      </trkpt>
      <trkpt lat="48.06674" lon="-3.53366">
        <ele>189.2</ele>
        <time>2025-02-26T09:37:08Z</time>
      </trkpt>
      <trkpt lat="48.06674" lon="-3.53366">
        <ele>189.2</ele>
        <time>2025-02-26T09:37:09Z</time>
      </trkpt>
      <trkpt lat="48.06674" lon="-3.53366">
        <ele>189.2</ele>
        <time>2025-02-26T09:37:10Z</time>
      </trkpt>
      <trkpt lat="48.06674" lon="-3.53366">
        <ele>189.2</ele>
        <time>2025-02-26T09:37:11Z</time>
      </trkpt>
      <trkpt lat="48.06674" lon="-3.53366">
        <ele>189.2</ele>
        <time>2025-02-26T09:37:12Z</time>
      </trkpt>
      <trkpt lat="48.06674" lon="-3.53366">
        <ele>189.2</ele>
        <time>2025-02-26T09:37:13Z</time>
      </trkpt>
      <trkpt lat="48.06674" lon="-3.53366">
        <ele>189.2</ele>
        <time>2025-02-26T09:37:14Z</time>
      </trkpt>
      <trkpt lat="48.06674" lon="-3.53366">
        <ele>189.2</ele>
        <time>2025-02-26T09:37:15Z</time>
      </trkpt>
      <trkpt lat="48.06674" lon="-3.53366">
        <ele>189.2</ele>
        <time>2025-02-26T09:37:16Z</time>
      </trkpt>
      <trkpt lat="48.06674" lon="-3.53366">
        <ele>189.2</ele>
        <time>2025-02-26T09:37:17Z</time>
      </trkpt>
      <trkpt lat="48.06674" lon="-3.53366">
        <ele>189.2</ele>
        <time>2025-02-26T09:37:18Z</time>
      </trkpt>
      <trkpt lat="48.06674" lon="-3.53366">
        <ele>189.2</ele>
        <time>2025-02-26T09:37:19Z</time>
      </trkpt>
      <trkpt lat="48.06673" lon="-3.53366">
        <ele>189.2</ele>
        <time>2025-02-26T09:37:20Z</time>
      </trkpt>
      <trkpt lat="48.06671" lon="-3.53368">
        <ele>189.2</ele>
        <time>2025-02-26T09:37:21Z</time>
      </trkpt>
      <trkpt lat="48.06671" lon="-3.53368">
        <ele>189.3</ele>
        <time>2025-02-26T09:37:22Z</time>
      </trkpt>
      <trkpt lat="48.06672" lon="-3.53368">
        <ele>189.2</ele>
        <time>2025-02-26T09:37:23Z</time>
      </trkpt>
      <trkpt lat="48.06672" lon="-3.53366">
        <ele>189.2</ele>
        <time>2025-02-26T09:37:24Z</time>
      </trkpt>
      <trkpt lat="48.06673" lon="-3.53366">
        <ele>189.2</ele>
        <time>2025-02-26T09:37:25Z</time>
      </trkpt>
      <trkpt lat="48.06674" lon="-3.53365">
        <ele>189.1</ele>
        <time>2025-02-26T09:37:26Z</time>
      </trkpt>
      <trkpt lat="48.06675" lon="-3.53364">
        <ele>189.1</ele>
        <time>2025-02-26T09:37:27Z</time>
      </trkpt>
      <trkpt lat="48.06674" lon="-3.53362">
        <ele>189</ele>
        <time>2025-02-26T09:37:28Z</time>
      </trkpt>
      <trkpt lat="48.06674" lon="-3.53361">
        <ele>189</ele>
        <time>2025-02-26T09:37:29Z</time>
      </trkpt>
      <trkpt lat="48.06674" lon="-3.5336">
        <ele>189</ele>
        <time>2025-02-26T09:37:30Z</time>
      </trkpt>
      <trkpt lat="48.06674" lon="-3.53358">
        <ele>189</ele>
        <time>2025-02-26T09:37:31Z</time>
      </trkpt>
      <trkpt lat="48.06673" lon="-3.53357">
        <ele>189</ele>
        <time>2025-02-26T09:37:32Z</time>
      </trkpt>
      <trkpt lat="48.06672" lon="-3.53355">
        <ele>189</ele>
        <time>2025-02-26T09:37:33Z</time>
      </trkpt>
      <trkpt lat="48.06672" lon="-3.53354">
        <ele>189</ele>
        <time>2025-02-26T09:37:34Z</time>
      </trkpt>
      <trkpt lat="48.06672" lon="-3.53352">
        <ele>188.9</ele>
        <time>2025-02-26T09:37:35Z</time>
      </trkpt>
      <trkpt lat="48.06672" lon="-3.53351">
        <ele>188.9</ele>
        <time>2025-02-26T09:37:36Z</time>
      </trkpt>
      <trkpt lat="48.06673" lon="-3.53351">
        <ele>188.9</ele>
        <time>2025-02-26T09:37:37Z</time>
      </trkpt>
      <trkpt lat="48.06673" lon="-3.5335">
        <ele>188.9</ele>
        <time>2025-02-26T09:37:38Z</time>
      </trkpt>
      <trkpt lat="48.06673" lon="-3.53349">
        <ele>188.9</ele>
        <time>2025-02-26T09:37:39Z</time>
      </trkpt>
      <trkpt lat="48.06672" lon="-3.53347">
        <ele>188.9</ele>
        <time>2025-02-26T09:37:40Z</time>
      </trkpt>
      <trkpt lat="48.06671" lon="-3.53345">
        <ele>188.9</ele>
        <time>2025-02-26T09:37:41Z</time>
      </trkpt>
      <trkpt lat="48.0667" lon="-3.53344">
        <ele>188.9</ele>
        <time>2025-02-26T09:37:42Z</time>
      </trkpt>
      <trkpt lat="48.06669" lon="-3.53343">
        <ele>188.9</ele>
        <time>2025-02-26T09:37:43Z</time>
      </trkpt>
      <trkpt lat="48.06668" lon="-3.53342">
        <ele>189</ele>
        <time>2025-02-26T09:37:44Z</time>
      </trkpt>
      <trkpt lat="48.06667" lon="-3.53341">
        <ele>189</ele>
        <time>2025-02-26T09:37:45Z</time>
      </trkpt>
      <trkpt lat="48.06667" lon="-3.5334">
        <ele>189</ele>
        <time>2025-02-26T09:37:46Z</time>
      </trkpt>
      <trkpt lat="48.06667" lon="-3.53339">
        <ele>189</ele>
        <time>2025-02-26T09:37:47Z</time>
      </trkpt>
      <trkpt lat="48.06667" lon="-3.53338">
        <ele>189</ele>
        <time>2025-02-26T09:37:48Z</time>
      </trkpt>
      <trkpt lat="48.06667" lon="-3.53338">
        <ele>189</ele>
        <time>2025-02-26T09:37:49Z</time>
      </trkpt>
      <trkpt lat="48.06667" lon="-3.53336">
        <ele>189</ele>
        <time>2025-02-26T09:37:50Z</time>
      </trkpt>
      <trkpt lat="48.06667" lon="-3.53335">
        <ele>189</ele>
        <time>2025-02-26T09:37:51Z</time>
      </trkpt>
      <trkpt lat="48.06666" lon="-3.53334">
        <ele>189</ele>
        <time>2025-02-26T09:37:52Z</time>
      </trkpt>
      <trkpt lat="48.06666" lon="-3.53332">
        <ele>189</ele>
        <time>2025-02-26T09:37:53Z</time>
      </trkpt>
      <trkpt lat="48.06665" lon="-3.53331">
        <ele>189</ele>
        <time>2025-02-26T09:37:54Z</time>
      </trkpt>
      <trkpt lat="48.06665" lon="-3.53331">
        <ele>189</ele>
        <time>2025-02-26T09:37:55Z</time>
      </trkpt>
      <trkpt lat="48.06665" lon="-3.53329">
        <ele>188.9</ele>
        <time>2025-02-26T09:37:56Z</time>
      </trkpt>
      <trkpt lat="48.06665" lon="-3.53328">
        <ele>188.9</ele>
        <time>2025-02-26T09:37:57Z</time>
      </trkpt>
      <trkpt lat="48.06666" lon="-3.53327">
        <ele>188.8</ele>
        <time>2025-02-26T09:37:58Z</time>
      </trkpt>
      <trkpt lat="48.06667" lon="-3.53327">
        <ele>188.8</ele>
        <time>2025-02-26T09:37:59Z</time>
      </trkpt>
      <trkpt lat="48.06667" lon="-3.53327">
        <ele>188.7</ele>
        <time>2025-02-26T09:38:00Z</time>
      </trkpt>
      <trkpt lat="48.06668" lon="-3.53327">
        <ele>188.7</ele>
        <time>2025-02-26T09:38:01Z</time>
      </trkpt>
      <trkpt lat="48.06668" lon="-3.53329">
        <ele>188.8</ele>
        <time>2025-02-26T09:38:02Z</time>
      </trkpt>
      <trkpt lat="48.06668" lon="-3.53331">
        <ele>188.9</ele>
        <time>2025-02-26T09:38:03Z</time>
      </trkpt>
      <trkpt lat="48.06668" lon="-3.53331">
        <ele>188.9</ele>
        <time>2025-02-26T09:38:04Z</time>
      </trkpt>
      <trkpt lat="48.06668" lon="-3.53331">
        <ele>188.9</ele>
        <time>2025-02-26T09:38:05Z</time>
      </trkpt>
      <trkpt lat="48.06668" lon="-3.53331">
        <ele>188.9</ele>
        <time>2025-02-26T09:38:06Z</time>
      </trkpt>
      <trkpt lat="48.06668" lon="-3.53331">
        <ele>188.9</ele>
        <time>2025-02-26T09:38:07Z</time>
      </trkpt>
      <trkpt lat="48.06669" lon="-3.53331">
        <ele>188.8</ele>
        <time>2025-02-26T09:38:08Z</time>
      </trkpt>
      <trkpt lat="48.06669" lon="-3.53331">
        <ele>188.8</ele>
        <time>2025-02-26T09:38:09Z</time>
      </trkpt>
      <trkpt lat="48.0667" lon="-3.53331">
        <ele>188.8</ele>
        <time>2025-02-26T09:38:10Z</time>
      </trkpt>
      <trkpt lat="48.0667" lon="-3.5333">
        <ele>188.8</ele>
        <time>2025-02-26T09:38:11Z</time>
      </trkpt>
      <trkpt lat="48.0667" lon="-3.5333">
        <ele>188.8</ele>
        <time>2025-02-26T09:38:12Z</time>
      </trkpt>
      <trkpt lat="48.0667" lon="-3.53329">
        <ele>188.7</ele>
        <time>2025-02-26T09:38:13Z</time>
      </trkpt>
      <trkpt lat="48.06671" lon="-3.53328">
        <ele>188.7</ele>
        <time>2025-02-26T09:38:14Z</time>
      </trkpt>
      <trkpt lat="48.06672" lon="-3.53327">
        <ele>188.6</ele>
        <time>2025-02-26T09:38:15Z</time>
      </trkpt>
      <trkpt lat="48.06672" lon="-3.53327">
        <ele>188.6</ele>
        <time>2025-02-26T09:38:16Z</time>
      </trkpt>
      <trkpt lat="48.06672" lon="-3.53326">
        <ele>188.6</ele>
        <time>2025-02-26T09:38:17Z</time>
      </trkpt>
      <trkpt lat="48.06672" lon="-3.53325">
        <ele>188.5</ele>
        <time>2025-02-26T09:38:18Z</time>
      </trkpt>
      <trkpt lat="48.06673" lon="-3.53326">
        <ele>188.5</ele>
        <time>2025-02-26T09:38:19Z</time>
      </trkpt>
      <trkpt lat="48.06674" lon="-3.53328">
        <ele>188.5</ele>
        <time>2025-02-26T09:38:20Z</time>
      </trkpt>
      <trkpt lat="48.06675" lon="-3.5333">
        <ele>188.6</ele>
        <time>2025-02-26T09:38:21Z</time>
      </trkpt>
      <trkpt lat="48.06675" lon="-3.53332">
        <ele>188.7</ele>
        <time>2025-02-26T09:38:22Z</time>
      </trkpt>
      <trkpt lat="48.06675" lon="-3.53334">
        <ele>188.7</ele>
        <time>2025-02-26T09:38:23Z</time>
      </trkpt>
      <trkpt lat="48.06676" lon="-3.53336">
        <ele>188.7</ele>
        <time>2025-02-26T09:38:24Z</time>
      </trkpt>
      <trkpt lat="48.06677" lon="-3.53338">
        <ele>188.7</ele>
        <time>2025-02-26T09:38:25Z</time>
      </trkpt>
      <trkpt lat="48.06677" lon="-3.53338">
        <ele>188.7</ele>
        <time>2025-02-26T09:38:26Z</time>
      </trkpt>
      <trkpt lat="48.06678" lon="-3.53339">
        <ele>188.7</ele>
        <time>2025-02-26T09:38:27Z</time>
      </trkpt>
      <trkpt lat="48.06678" lon="-3.53341">
        <ele>188.7</ele>
        <time>2025-02-26T09:38:28Z</time>
      </trkpt>
      <trkpt lat="48.06678" lon="-3.53343">
        <ele>188.7</ele>
        <time>2025-02-26T09:38:29Z</time>
      </trkpt>
      <trkpt lat="48.06679" lon="-3.53344">
        <ele>188.7</ele>
        <time>2025-02-26T09:38:30Z</time>
      </trkpt>
      <trkpt lat="48.0668" lon="-3.53345">
        <ele>188.7</ele>
        <time>2025-02-26T09:38:31Z</time>
      </trkpt>
      <trkpt lat="48.0668" lon="-3.53347">
        <ele>188.8</ele>
        <time>2025-02-26T09:38:32Z</time>
      </trkpt>
      <trkpt lat="48.0668" lon="-3.53349">
        <ele>188.8</ele>
        <time>2025-02-26T09:38:33Z</time>
      </trkpt>
      <trkpt lat="48.06681" lon="-3.53351">
        <ele>188.8</ele>
        <time>2025-02-26T09:38:34Z</time>
      </trkpt>
      <trkpt lat="48.06681" lon="-3.53352">
        <ele>188.8</ele>
        <time>2025-02-26T09:38:35Z</time>
      </trkpt>
      <trkpt lat="48.06683" lon="-3.53353">
        <ele>188.8</ele>
        <time>2025-02-26T09:38:36Z</time>
      </trkpt>
      <trkpt lat="48.06684" lon="-3.53355">
        <ele>188.9</ele>
        <time>2025-02-26T09:38:37Z</time>
      </trkpt>
      <trkpt lat="48.06685" lon="-3.53357">
        <ele>188.9</ele>
        <time>2025-02-26T09:38:38Z</time>
      </trkpt>
      <trkpt lat="48.06686" lon="-3.53358">
        <ele>188.9</ele>
        <time>2025-02-26T09:38:39Z</time>
      </trkpt>
      <trkpt lat="48.06687" lon="-3.53359">
        <ele>189</ele>
        <time>2025-02-26T09:38:40Z</time>
      </trkpt>
      <trkpt lat="48.06687" lon="-3.53361">
        <ele>189</ele>
        <time>2025-02-26T09:38:41Z</time>
      </trkpt>
      <trkpt lat="48.06688" lon="-3.53363">
        <ele>189.1</ele>
        <time>2025-02-26T09:38:42Z</time>
      </trkpt>
      <trkpt lat="48.06688" lon="-3.53366">
        <ele>189.2</ele>
        <time>2025-02-26T09:38:43Z</time>
      </trkpt>
      <trkpt lat="48.0669" lon="-3.53368">
        <ele>189.3</ele>
        <time>2025-02-26T09:38:44Z</time>
      </trkpt>
      <trkpt lat="48.0669" lon="-3.53372">
        <ele>189.4</ele>
        <time>2025-02-26T09:38:45Z</time>
      </trkpt>
      <trkpt lat="48.0669" lon="-3.53374">
        <ele>189.5</ele>
        <time>2025-02-26T09:38:46Z</time>
      </trkpt>
      <trkpt lat="48.06691" lon="-3.53376">
        <ele>189.5</ele>
        <time>2025-02-26T09:38:47Z</time>
      </trkpt>
      <trkpt lat="48.06692" lon="-3.53378">
        <ele>189.6</ele>
        <time>2025-02-26T09:38:48Z</time>
      </trkpt>
      <trkpt lat="48.06693" lon="-3.53379">
        <ele>189.7</ele>
        <time>2025-02-26T09:38:49Z</time>
      </trkpt>
      <trkpt lat="48.06694" lon="-3.53381">
        <ele>189.7</ele>
        <time>2025-02-26T09:38:50Z</time>
      </trkpt>
      <trkpt lat="48.06694" lon="-3.53383">
        <ele>189.8</ele>
        <time>2025-02-26T09:38:51Z</time>
      </trkpt>
      <trkpt lat="48.06695" lon="-3.53385">
        <ele>189.9</ele>
        <time>2025-02-26T09:38:52Z</time>
      </trkpt>
      <trkpt lat="48.06695" lon="-3.53386">
        <ele>189.9</ele>
        <time>2025-02-26T09:38:53Z</time>
      </trkpt>
      <trkpt lat="48.06694" lon="-3.53387">
        <ele>189.9</ele>
        <time>2025-02-26T09:38:54Z</time>
      </trkpt>
      <trkpt lat="48.06694" lon="-3.53389">
        <ele>190</ele>
        <time>2025-02-26T09:38:55Z</time>
      </trkpt>
      <trkpt lat="48.06693" lon="-3.53391">
        <ele>190</ele>
        <time>2025-02-26T09:38:56Z</time>
      </trkpt>
      <trkpt lat="48.06692" lon="-3.53392">
        <ele>190</ele>
        <time>2025-02-26T09:38:57Z</time>
      </trkpt>
      <trkpt lat="48.06692" lon="-3.53394">
        <ele>190</ele>
        <time>2025-02-26T09:38:58Z</time>
      </trkpt>
      <trkpt lat="48.06693" lon="-3.53396">
        <ele>190</ele>
        <time>2025-02-26T09:38:59Z</time>
      </trkpt>
      <trkpt lat="48.06694" lon="-3.53398">
        <ele>190</ele>
        <time>2025-02-26T09:39:00Z</time>
      </trkpt>
      <trkpt lat="48.06695" lon="-3.53398">
        <ele>190</ele>
        <time>2025-02-26T09:39:01Z</time>
      </trkpt>
      <trkpt lat="48.06696" lon="-3.53398">
        <ele>190</ele>
        <time>2025-02-26T09:39:02Z</time>
      </trkpt>
      <trkpt lat="48.06697" lon="-3.53398">
        <ele>190</ele>
        <time>2025-02-26T09:39:03Z</time>
      </trkpt>
      <trkpt lat="48.06698" lon="-3.53398">
        <ele>190</ele>
        <time>2025-02-26T09:39:04Z</time>
      </trkpt>
      <trkpt lat="48.06699" lon="-3.53399">
        <ele>190</ele>
        <time>2025-02-26T09:39:05Z</time>
      </trkpt>
      <trkpt lat="48.067" lon="-3.534">
        <ele>190</ele>
        <time>2025-02-26T09:39:06Z</time>
      </trkpt>
      <trkpt lat="48.06701" lon="-3.53401">
        <ele>190</ele>
        <time>2025-02-26T09:39:07Z</time>
      </trkpt>
      <trkpt lat="48.06702" lon="-3.53402">
        <ele>190</ele>
        <time>2025-02-26T09:39:08Z</time>
      </trkpt>
      <trkpt lat="48.06702" lon="-3.53404">
        <ele>190</ele>
        <time>2025-02-26T09:39:09Z</time>
      </trkpt>
      <trkpt lat="48.06702" lon="-3.53406">
        <ele>190</ele>
        <time>2025-02-26T09:39:10Z</time>
      </trkpt>
      <trkpt lat="48.06703" lon="-3.53408">
        <ele>190</ele>
        <time>2025-02-26T09:39:11Z</time>
      </trkpt>
      <trkpt lat="48.06704" lon="-3.5341">
        <ele>190</ele>
        <time>2025-02-26T09:39:12Z</time>
      </trkpt>
      <trkpt lat="48.06703" lon="-3.53412">
        <ele>190</ele>
        <time>2025-02-26T09:39:13Z</time>
      </trkpt>
      <trkpt lat="48.06703" lon="-3.53414">
        <ele>190</ele>
        <time>2025-02-26T09:39:14Z</time>
      </trkpt>
      <trkpt lat="48.06704" lon="-3.53416">
        <ele>190</ele>
        <time>2025-02-26T09:39:15Z</time>
      </trkpt>
      <trkpt lat="48.06705" lon="-3.53417">
        <ele>190</ele>
        <time>2025-02-26T09:39:16Z</time>
      </trkpt>
      <trkpt lat="48.06706" lon="-3.53418">
        <ele>190</ele>
        <time>2025-02-26T09:39:17Z</time>
      </trkpt>
      <trkpt lat="48.06707" lon="-3.53419">
        <ele>190</ele>
        <time>2025-02-26T09:39:18Z</time>
      </trkpt>
      <trkpt lat="48.06709" lon="-3.53419">
        <ele>190</ele>
        <time>2025-02-26T09:39:19Z</time>
      </trkpt>
      <trkpt lat="48.0671" lon="-3.53419">
        <ele>190</ele>
        <time>2025-02-26T09:39:20Z</time>
      </trkpt>
      <trkpt lat="48.06711" lon="-3.53419">
        <ele>190</ele>
        <time>2025-02-26T09:39:21Z</time>
      </trkpt>
      <trkpt lat="48.06712" lon="-3.5342">
        <ele>190</ele>
        <time>2025-02-26T09:39:22Z</time>
      </trkpt>
      <trkpt lat="48.06712" lon="-3.53421">
        <ele>190</ele>
        <time>2025-02-26T09:39:23Z</time>
      </trkpt>
      <trkpt lat="48.06712" lon="-3.53423">
        <ele>190</ele>
        <time>2025-02-26T09:39:24Z</time>
      </trkpt>
      <trkpt lat="48.06712" lon="-3.53425">
        <ele>190</ele>
        <time>2025-02-26T09:39:25Z</time>
      </trkpt>
      <trkpt lat="48.06712" lon="-3.53427">
        <ele>190</ele>
        <time>2025-02-26T09:39:26Z</time>
      </trkpt>
      <trkpt lat="48.06711" lon="-3.53429">
        <ele>190</ele>
        <time>2025-02-26T09:39:27Z</time>
      </trkpt>
      <trkpt lat="48.06711" lon="-3.5343">
        <ele>190</ele>
        <time>2025-02-26T09:39:28Z</time>
      </trkpt>
      <trkpt lat="48.0671" lon="-3.53432">
        <ele>190</ele>
        <time>2025-02-26T09:39:29Z</time>
      </trkpt>
      <trkpt lat="48.0671" lon="-3.53434">
        <ele>190</ele>
        <time>2025-02-26T09:39:30Z</time>
      </trkpt>
      <trkpt lat="48.0671" lon="-3.53436">
        <ele>190</ele>
        <time>2025-02-26T09:39:31Z</time>
      </trkpt>
      <trkpt lat="48.06709" lon="-3.53437">
        <ele>190</ele>
        <time>2025-02-26T09:39:32Z</time>
      </trkpt>
      <trkpt lat="48.06709" lon="-3.53439">
        <ele>190</ele>
        <time>2025-02-26T09:39:33Z</time>
      </trkpt>
      <trkpt lat="48.0671" lon="-3.5344">
        <ele>190</ele>
        <time>2025-02-26T09:39:34Z</time>
      </trkpt>
      <trkpt lat="48.06712" lon="-3.5344">
        <ele>190</ele>
        <time>2025-02-26T09:39:35Z</time>
      </trkpt>
      <trkpt lat="48.06713" lon="-3.5344">
        <ele>190</ele>
        <time>2025-02-26T09:39:36Z</time>
      </trkpt>
      <trkpt lat="48.06714" lon="-3.5344">
        <ele>190</ele>
        <time>2025-02-26T09:39:37Z</time>
      </trkpt>
      <trkpt lat="48.06715" lon="-3.53439">
        <ele>190</ele>
        <time>2025-02-26T09:39:38Z</time>
      </trkpt>
      <trkpt lat="48.06716" lon="-3.53438">
        <ele>190</ele>
        <time>2025-02-26T09:39:39Z</time>
      </trkpt>
      <trkpt lat="48.06717" lon="-3.53436">
        <ele>190</ele>
        <time>2025-02-26T09:39:40Z</time>
      </trkpt>
      <trkpt lat="48.06718" lon="-3.53435">
        <ele>190</ele>
        <time>2025-02-26T09:39:41Z</time>
      </trkpt>
      <trkpt lat="48.06719" lon="-3.53436">
        <ele>190</ele>
        <time>2025-02-26T09:39:42Z</time>
      </trkpt>
      <trkpt lat="48.0672" lon="-3.53436">
        <ele>190</ele>
        <time>2025-02-26T09:39:43Z</time>
      </trkpt>
      <trkpt lat="48.06721" lon="-3.53437">
        <ele>190</ele>
        <time>2025-02-26T09:39:44Z</time>
      </trkpt>
      <trkpt lat="48.06722" lon="-3.5344">
        <ele>190</ele>
        <time>2025-02-26T09:39:45Z</time>
      </trkpt>
      <trkpt lat="48.06722" lon="-3.53442">
        <ele>190</ele>
        <time>2025-02-26T09:39:46Z</time>
      </trkpt>
      <trkpt lat="48.06721" lon="-3.53444">
        <ele>190</ele>
        <time>2025-02-26T09:39:47Z</time>
      </trkpt>
      <trkpt lat="48.06721" lon="-3.53445">
        <ele>190</ele>
        <time>2025-02-26T09:39:48Z</time>
      </trkpt>
      <trkpt lat="48.0672" lon="-3.53447">
        <ele>189.9</ele>
        <time>2025-02-26T09:39:49Z</time>
      </trkpt>
      <trkpt lat="48.0672" lon="-3.53449">
        <ele>189.8</ele>
        <time>2025-02-26T09:39:50Z</time>
      </trkpt>
      <trkpt lat="48.06719" lon="-3.53451">
        <ele>189.8</ele>
        <time>2025-02-26T09:39:51Z</time>
      </trkpt>
      <trkpt lat="48.0672" lon="-3.53454">
        <ele>189.7</ele>
        <time>2025-02-26T09:39:52Z</time>
      </trkpt>
      <trkpt lat="48.0672" lon="-3.53455">
        <ele>189.6</ele>
        <time>2025-02-26T09:39:53Z</time>
      </trkpt>
      <trkpt lat="48.06721" lon="-3.53457">
        <ele>189.6</ele>
        <time>2025-02-26T09:39:54Z</time>
      </trkpt>
      <trkpt lat="48.06721" lon="-3.53459">
        <ele>189.5</ele>
        <time>2025-02-26T09:39:55Z</time>
      </trkpt>
      <trkpt lat="48.06721" lon="-3.53461">
        <ele>189.4</ele>
        <time>2025-02-26T09:39:56Z</time>
      </trkpt>
      <trkpt lat="48.06721" lon="-3.53463">
        <ele>189.3</ele>
        <time>2025-02-26T09:39:57Z</time>
      </trkpt>
      <trkpt lat="48.0672" lon="-3.53465">
        <ele>189.3</ele>
        <time>2025-02-26T09:39:58Z</time>
      </trkpt>
      <trkpt lat="48.06721" lon="-3.53467">
        <ele>189.2</ele>
        <time>2025-02-26T09:39:59Z</time>
      </trkpt>
      <trkpt lat="48.06721" lon="-3.53469">
        <ele>189.1</ele>
        <time>2025-02-26T09:40:00Z</time>
      </trkpt>
      <trkpt lat="48.06721" lon="-3.53471">
        <ele>189.1</ele>
        <time>2025-02-26T09:40:01Z</time>
      </trkpt>
      <trkpt lat="48.06721" lon="-3.53473">
        <ele>189</ele>
        <time>2025-02-26T09:40:02Z</time>
      </trkpt>
      <trkpt lat="48.06721" lon="-3.53475">
        <ele>188.9</ele>
        <time>2025-02-26T09:40:03Z</time>
      </trkpt>
      <trkpt lat="48.06721" lon="-3.53477">
        <ele>188.8</ele>
        <time>2025-02-26T09:40:04Z</time>
      </trkpt>
      <trkpt lat="48.06721" lon="-3.53479">
        <ele>188.8</ele>
        <time>2025-02-26T09:40:05Z</time>
      </trkpt>
      <trkpt lat="48.06722" lon="-3.5348">
        <ele>188.7</ele>
        <time>2025-02-26T09:40:06Z</time>
      </trkpt>
      <trkpt lat="48.06722" lon="-3.53482">
        <ele>188.6</ele>
        <time>2025-02-26T09:40:07Z</time>
      </trkpt>
      <trkpt lat="48.06722" lon="-3.53484">
        <ele>188.6</ele>
        <time>2025-02-26T09:40:08Z</time>
      </trkpt>
      <trkpt lat="48.06723" lon="-3.53486">
        <ele>188.5</ele>
        <time>2025-02-26T09:40:09Z</time>
      </trkpt>
      <trkpt lat="48.06724" lon="-3.53488">
        <ele>188.4</ele>
        <time>2025-02-26T09:40:10Z</time>
      </trkpt>
      <trkpt lat="48.06725" lon="-3.53489">
        <ele>188.4</ele>
        <time>2025-02-26T09:40:11Z</time>
      </trkpt>
      <trkpt lat="48.06726" lon="-3.5349">
        <ele>188.4</ele>
        <time>2025-02-26T09:40:12Z</time>
      </trkpt>
      <trkpt lat="48.06727" lon="-3.53491">
        <ele>188.3</ele>
        <time>2025-02-26T09:40:13Z</time>
      </trkpt>
      <trkpt lat="48.06728" lon="-3.53493">
        <ele>188.3</ele>
        <time>2025-02-26T09:40:14Z</time>
      </trkpt>
      <trkpt lat="48.06729" lon="-3.53493">
        <ele>188.2</ele>
        <time>2025-02-26T09:40:15Z</time>
      </trkpt>
      <trkpt lat="48.0673" lon="-3.53495">
        <ele>188.2</ele>
        <time>2025-02-26T09:40:16Z</time>
      </trkpt>
      <trkpt lat="48.06731" lon="-3.53496">
        <ele>188.1</ele>
        <time>2025-02-26T09:40:17Z</time>
      </trkpt>
      <trkpt lat="48.06732" lon="-3.53499">
        <ele>188.1</ele>
        <time>2025-02-26T09:40:18Z</time>
      </trkpt>
      <trkpt lat="48.06734" lon="-3.535">
        <ele>188</ele>
        <time>2025-02-26T09:40:19Z</time>
      </trkpt>
      <trkpt lat="48.06734" lon="-3.53501">
        <ele>188</ele>
        <time>2025-02-26T09:40:20Z</time>
      </trkpt>
      <trkpt lat="48.06735" lon="-3.53502">
        <ele>187.9</ele>
        <time>2025-02-26T09:40:21Z</time>
      </trkpt>
      <trkpt lat="48.06736" lon="-3.53502">
        <ele>187.9</ele>
        <time>2025-02-26T09:40:22Z</time>
      </trkpt>
      <trkpt lat="48.06737" lon="-3.53503">
        <ele>187.9</ele>
        <time>2025-02-26T09:40:23Z</time>
      </trkpt>
      <trkpt lat="48.06739" lon="-3.53504">
        <ele>187.9</ele>
        <time>2025-02-26T09:40:24Z</time>
      </trkpt>
      <trkpt lat="48.0674" lon="-3.53505">
        <ele>187.8</ele>
        <time>2025-02-26T09:40:25Z</time>
      </trkpt>
      <trkpt lat="48.0674" lon="-3.53506">
        <ele>187.8</ele>
        <time>2025-02-26T09:40:26Z</time>
      </trkpt>
      <trkpt lat="48.0674" lon="-3.53508">
        <ele>187.7</ele>
        <time>2025-02-26T09:40:27Z</time>
      </trkpt>
      <trkpt lat="48.0674" lon="-3.5351">
        <ele>187.7</ele>
        <time>2025-02-26T09:40:28Z</time>
      </trkpt>
      <trkpt lat="48.0674" lon="-3.53511">
        <ele>187.6</ele>
        <time>2025-02-26T09:40:29Z</time>
      </trkpt>
      <trkpt lat="48.0674" lon="-3.53512">
        <ele>187.6</ele>
        <time>2025-02-26T09:40:30Z</time>
      </trkpt>
      <trkpt lat="48.0674" lon="-3.53512">
        <ele>187.6</ele>
        <time>2025-02-26T09:40:31Z</time>
      </trkpt>
      <trkpt lat="48.0674" lon="-3.53513">
        <ele>187.5</ele>
        <time>2025-02-26T09:40:32Z</time>
      </trkpt>
      <trkpt lat="48.06741" lon="-3.53515">
        <ele>187.5</ele>
        <time>2025-02-26T09:40:33Z</time>
      </trkpt>
      <trkpt lat="48.06742" lon="-3.53515">
        <ele>187.5</ele>
        <time>2025-02-26T09:40:34Z</time>
      </trkpt>
      <trkpt lat="48.06743" lon="-3.53515">
        <ele>187.4</ele>
        <time>2025-02-26T09:40:35Z</time>
      </trkpt>
      <trkpt lat="48.06744" lon="-3.53517">
        <ele>187.4</ele>
        <time>2025-02-26T09:40:36Z</time>
      </trkpt>
      <trkpt lat="48.06744" lon="-3.53517">
        <ele>187.4</ele>
        <time>2025-02-26T09:40:37Z</time>
      </trkpt>
      <trkpt lat="48.06745" lon="-3.53518">
        <ele>187.4</ele>
        <time>2025-02-26T09:40:38Z</time>
      </trkpt>
      <trkpt lat="48.06746" lon="-3.53518">
        <ele>187.4</ele>
        <time>2025-02-26T09:40:39Z</time>
      </trkpt>
      <trkpt lat="48.06747" lon="-3.53518">
        <ele>187.4</ele>
        <time>2025-02-26T09:40:40Z</time>
      </trkpt>
      <trkpt lat="48.06748" lon="-3.53518">
        <ele>187.3</ele>
        <time>2025-02-26T09:40:41Z</time>
      </trkpt>
      <trkpt lat="48.06749" lon="-3.53519">
        <ele>187.3</ele>
        <time>2025-02-26T09:40:42Z</time>
      </trkpt>
      <trkpt lat="48.06749" lon="-3.5352">
        <ele>187.3</ele>
        <time>2025-02-26T09:40:43Z</time>
      </trkpt>
      <trkpt lat="48.0675" lon="-3.5352">
        <ele>187.3</ele>
        <time>2025-02-26T09:40:44Z</time>
      </trkpt>
      <trkpt lat="48.06751" lon="-3.53521">
        <ele>187.2</ele>
        <time>2025-02-26T09:40:45Z</time>
      </trkpt>
      <trkpt lat="48.06752" lon="-3.53521">
        <ele>187.2</ele>
        <time>2025-02-26T09:40:46Z</time>
      </trkpt>
      <trkpt lat="48.06753" lon="-3.53522">
        <ele>187.1</ele>
        <time>2025-02-26T09:40:47Z</time>
      </trkpt>
      <trkpt lat="48.06754" lon="-3.53522">
        <ele>187.1</ele>
        <time>2025-02-26T09:40:48Z</time>
      </trkpt>
      <trkpt lat="48.06756" lon="-3.53522">
        <ele>187</ele>
        <time>2025-02-26T09:40:49Z</time>
      </trkpt>
      <trkpt lat="48.06756" lon="-3.53522">
        <ele>187</ele>
        <time>2025-02-26T09:40:50Z</time>
      </trkpt>
      <trkpt lat="48.06757" lon="-3.53523">
        <ele>186.9</ele>
        <time>2025-02-26T09:40:51Z</time>
      </trkpt>
      <trkpt lat="48.06758" lon="-3.53524">
        <ele>186.9</ele>
        <time>2025-02-26T09:40:52Z</time>
      </trkpt>
      <trkpt lat="48.06759" lon="-3.53524">
        <ele>186.8</ele>
        <time>2025-02-26T09:40:53Z</time>
      </trkpt>
      <trkpt lat="48.0676" lon="-3.53524">
        <ele>186.8</ele>
        <time>2025-02-26T09:40:54Z</time>
      </trkpt>
      <trkpt lat="48.06761" lon="-3.53524">
        <ele>186.7</ele>
        <time>2025-02-26T09:40:55Z</time>
      </trkpt>
      <trkpt lat="48.06762" lon="-3.53525">
        <ele>186.7</ele>
        <time>2025-02-26T09:40:56Z</time>
      </trkpt>
      <trkpt lat="48.06763" lon="-3.53526">
        <ele>186.6</ele>
        <time>2025-02-26T09:40:57Z</time>
      </trkpt>
      <trkpt lat="48.06764" lon="-3.53527">
        <ele>186.5</ele>
        <time>2025-02-26T09:40:58Z</time>
      </trkpt>
      <trkpt lat="48.06764" lon="-3.53528">
        <ele>186.5</ele>
        <time>2025-02-26T09:40:59Z</time>
      </trkpt>
      <trkpt lat="48.06766" lon="-3.53528">
        <ele>186.4</ele>
        <time>2025-02-26T09:41:00Z</time>
      </trkpt>
      <trkpt lat="48.06766" lon="-3.53528">
        <ele>186.4</ele>
        <time>2025-02-26T09:41:01Z</time>
      </trkpt>
      <trkpt lat="48.06767" lon="-3.53529">
        <ele>186.3</ele>
        <time>2025-02-26T09:41:02Z</time>
      </trkpt>
      <trkpt lat="48.06767" lon="-3.5353">
        <ele>186.3</ele>
        <time>2025-02-26T09:41:03Z</time>
      </trkpt>
      <trkpt lat="48.06768" lon="-3.5353">
        <ele>186.2</ele>
        <time>2025-02-26T09:41:04Z</time>
      </trkpt>
      <trkpt lat="48.06769" lon="-3.53531">
        <ele>186.2</ele>
        <time>2025-02-26T09:41:05Z</time>
      </trkpt>
      <trkpt lat="48.0677" lon="-3.53531">
        <ele>186.1</ele>
        <time>2025-02-26T09:41:06Z</time>
      </trkpt>
      <trkpt lat="48.06771" lon="-3.53531">
        <ele>186.1</ele>
        <time>2025-02-26T09:41:07Z</time>
      </trkpt>
      <trkpt lat="48.06772" lon="-3.53531">
        <ele>186.1</ele>
        <time>2025-02-26T09:41:08Z</time>
      </trkpt>
      <trkpt lat="48.06773" lon="-3.53532">
        <ele>186</ele>
        <time>2025-02-26T09:41:09Z</time>
      </trkpt>
      <trkpt lat="48.06774" lon="-3.53532">
        <ele>186</ele>
        <time>2025-02-26T09:41:10Z</time>
      </trkpt>
      <trkpt lat="48.06775" lon="-3.53533">
        <ele>185.9</ele>
        <time>2025-02-26T09:41:11Z</time>
      </trkpt>
      <trkpt lat="48.06776" lon="-3.53533">
        <ele>185.9</ele>
        <time>2025-02-26T09:41:12Z</time>
      </trkpt>
      <trkpt lat="48.06777" lon="-3.53533">
        <ele>185.8</ele>
        <time>2025-02-26T09:41:13Z</time>
      </trkpt>
      <trkpt lat="48.06778" lon="-3.53533">
        <ele>185.8</ele>
        <time>2025-02-26T09:41:14Z</time>
      </trkpt>
      <trkpt lat="48.06779" lon="-3.53534">
        <ele>185.8</ele>
        <time>2025-02-26T09:41:15Z</time>
      </trkpt>
      <trkpt lat="48.0678" lon="-3.53533">
        <ele>185.7</ele>
        <time>2025-02-26T09:41:16Z</time>
      </trkpt>
      <trkpt lat="48.06781" lon="-3.53533">
        <ele>185.7</ele>
        <time>2025-02-26T09:41:17Z</time>
      </trkpt>
      <trkpt lat="48.06782" lon="-3.53533">
        <ele>185.7</ele>
        <time>2025-02-26T09:41:18Z</time>
      </trkpt>
      <trkpt lat="48.06783" lon="-3.53534">
        <ele>185.6</ele>
        <time>2025-02-26T09:41:19Z</time>
      </trkpt>
      <trkpt lat="48.06784" lon="-3.53534">
        <ele>185.6</ele>
        <time>2025-02-26T09:41:20Z</time>
      </trkpt>
      <trkpt lat="48.06785" lon="-3.53534">
        <ele>185.5</ele>
        <time>2025-02-26T09:41:21Z</time>
      </trkpt>
      <trkpt lat="48.06785" lon="-3.53534">
        <ele>185.5</ele>
        <time>2025-02-26T09:41:22Z</time>
      </trkpt>
      <trkpt lat="48.06786" lon="-3.53533">
        <ele>185.5</ele>
        <time>2025-02-26T09:41:23Z</time>
      </trkpt>
      <trkpt lat="48.06786" lon="-3.53533">
        <ele>185.5</ele>
        <time>2025-02-26T09:41:24Z</time>
      </trkpt>
      <trkpt lat="48.06786" lon="-3.53533">
        <ele>185.5</ele>
        <time>2025-02-26T09:41:25Z</time>
      </trkpt>
      <trkpt lat="48.06786" lon="-3.53533">
        <ele>185.5</ele>
        <time>2025-02-26T09:41:26Z</time>
      </trkpt>
      <trkpt lat="48.06786" lon="-3.53533">
        <ele>185.5</ele>
        <time>2025-02-26T09:41:27Z</time>
      </trkpt>
      <trkpt lat="48.06786" lon="-3.53533">
        <ele>185.5</ele>
        <time>2025-02-26T09:41:28Z</time>
      </trkpt>
      <trkpt lat="48.06786" lon="-3.53533">
        <ele>185.5</ele>
        <time>2025-02-26T09:41:29Z</time>
      </trkpt>
      <trkpt lat="48.06786" lon="-3.53533">
        <ele>185.5</ele>
        <time>2025-02-26T09:41:30Z</time>
      </trkpt>
      <trkpt lat="48.06786" lon="-3.53533">
        <ele>185.5</ele>
        <time>2025-02-26T09:41:31Z</time>
      </trkpt>
      <trkpt lat="48.06786" lon="-3.53533">
        <ele>185.5</ele>
        <time>2025-02-26T09:41:32Z</time>
      </trkpt>
      <trkpt lat="48.06786" lon="-3.53533">
        <ele>185.5</ele>
        <time>2025-02-26T09:41:33Z</time>
      </trkpt>
      <trkpt lat="48.06786" lon="-3.53533">
        <ele>185.5</ele>
        <time>2025-02-26T09:41:34Z</time>
      </trkpt>
      <trkpt lat="48.06787" lon="-3.53534">
        <ele>185.5</ele>
        <time>2025-02-26T09:41:35Z</time>
      </trkpt>
      <trkpt lat="48.06787" lon="-3.53535">
        <ele>185.4</ele>
        <time>2025-02-26T09:41:36Z</time>
      </trkpt>
      <trkpt lat="48.06787" lon="-3.53535">
        <ele>185.4</ele>
        <time>2025-02-26T09:41:37Z</time>
      </trkpt>
      <trkpt lat="48.06788" lon="-3.53534">
        <ele>185.4</ele>
        <time>2025-02-26T09:41:38Z</time>
      </trkpt>
      <trkpt lat="48.06788" lon="-3.53534">
        <ele>185.4</ele>
        <time>2025-02-26T09:41:39Z</time>
      </trkpt>
      <trkpt lat="48.06788" lon="-3.53533">
        <ele>185.4</ele>
        <time>2025-02-26T09:41:40Z</time>
      </trkpt>
      <trkpt lat="48.06789" lon="-3.53533">
        <ele>185.4</ele>
        <time>2025-02-26T09:41:41Z</time>
      </trkpt>
      <trkpt lat="48.06789" lon="-3.5353">
        <ele>185.5</ele>
        <time>2025-02-26T09:41:42Z</time>
      </trkpt>
      <trkpt lat="48.06789" lon="-3.53529">
        <ele>185.5</ele>
        <time>2025-02-26T09:41:43Z</time>
      </trkpt>
      <trkpt lat="48.06789" lon="-3.53529">
        <ele>185.5</ele>
        <time>2025-02-26T09:41:44Z</time>
      </trkpt>
      <trkpt lat="48.06789" lon="-3.53527">
        <ele>185.6</ele>
        <time>2025-02-26T09:41:45Z</time>
      </trkpt>
      <trkpt lat="48.06788" lon="-3.53526">
        <ele>185.7</ele>
        <time>2025-02-26T09:41:46Z</time>
      </trkpt>
      <trkpt lat="48.06787" lon="-3.53526">
        <ele>185.7</ele>
        <time>2025-02-26T09:41:47Z</time>
      </trkpt>
      <trkpt lat="48.06787" lon="-3.53526">
        <ele>185.7</ele>
        <time>2025-02-26T09:41:48Z</time>
      </trkpt>
      <trkpt lat="48.06787" lon="-3.53526">
        <ele>185.7</ele>
        <time>2025-02-26T09:41:49Z</time>
      </trkpt>
      <trkpt lat="48.06787" lon="-3.53525">
        <ele>185.8</ele>
        <time>2025-02-26T09:41:50Z</time>
      </trkpt>
      <trkpt lat="48.06787" lon="-3.53525">
        <ele>185.8</ele>
        <time>2025-02-26T09:41:51Z</time>
      </trkpt>
      <trkpt lat="48.06787" lon="-3.53524">
        <ele>185.8</ele>
        <time>2025-02-26T09:41:52Z</time>
      </trkpt>
      <trkpt lat="48.06787" lon="-3.53524">
        <ele>185.8</ele>
        <time>2025-02-26T09:41:53Z</time>
      </trkpt>
      <trkpt lat="48.06787" lon="-3.53524">
        <ele>185.8</ele>
        <time>2025-02-26T09:41:54Z</time>
      </trkpt>
      <trkpt lat="48.06787" lon="-3.53523">
        <ele>185.8</ele>
        <time>2025-02-26T09:41:55Z</time>
      </trkpt>
      <trkpt lat="48.06788" lon="-3.53522">
        <ele>185.8</ele>
        <time>2025-02-26T09:41:56Z</time>
      </trkpt>
      <trkpt lat="48.06788" lon="-3.53522">
        <ele>185.8</ele>
        <time>2025-02-26T09:41:57Z</time>
      </trkpt>
      <trkpt lat="48.06789" lon="-3.53522">
        <ele>185.8</ele>
        <time>2025-02-26T09:41:58Z</time>
      </trkpt>
      <trkpt lat="48.0679" lon="-3.53522">
        <ele>185.8</ele>
        <time>2025-02-26T09:41:59Z</time>
      </trkpt>
      <trkpt lat="48.06791" lon="-3.53523">
        <ele>185.7</ele>
        <time>2025-02-26T09:42:00Z</time>
      </trkpt>
      <trkpt lat="48.06791" lon="-3.53523">
        <ele>185.7</ele>
        <time>2025-02-26T09:42:01Z</time>
      </trkpt>
      <trkpt lat="48.06792" lon="-3.53522">
        <ele>185.7</ele>
        <time>2025-02-26T09:42:02Z</time>
      </trkpt>
      <trkpt lat="48.06793" lon="-3.53522">
        <ele>185.7</ele>
        <time>2025-02-26T09:42:03Z</time>
      </trkpt>
      <trkpt lat="48.06794" lon="-3.53522">
        <ele>185.6</ele>
        <time>2025-02-26T09:42:04Z</time>
      </trkpt>
      <trkpt lat="48.06795" lon="-3.53522">
        <ele>185.6</ele>
        <time>2025-02-26T09:42:05Z</time>
      </trkpt>
      <trkpt lat="48.06796" lon="-3.53521">
        <ele>185.6</ele>
        <time>2025-02-26T09:42:06Z</time>
      </trkpt>
      <trkpt lat="48.06797" lon="-3.53521">
        <ele>185.6</ele>
        <time>2025-02-26T09:42:07Z</time>
      </trkpt>
      <trkpt lat="48.06798" lon="-3.53521">
        <ele>185.5</ele>
        <time>2025-02-26T09:42:08Z</time>
      </trkpt>
      <trkpt lat="48.06799" lon="-3.5352">
        <ele>185.5</ele>
        <time>2025-02-26T09:42:09Z</time>
      </trkpt>
      <trkpt lat="48.068" lon="-3.53519">
        <ele>185.5</ele>
        <time>2025-02-26T09:42:10Z</time>
      </trkpt>
      <trkpt lat="48.06801" lon="-3.53518">
        <ele>185.5</ele>
        <time>2025-02-26T09:42:11Z</time>
      </trkpt>
      <trkpt lat="48.06802" lon="-3.53518">
        <ele>185.5</ele>
        <time>2025-02-26T09:42:12Z</time>
      </trkpt>
      <trkpt lat="48.06803" lon="-3.53517">
        <ele>185.5</ele>
        <time>2025-02-26T09:42:13Z</time>
      </trkpt>
      <trkpt lat="48.06804" lon="-3.53517">
        <ele>185.5</ele>
        <time>2025-02-26T09:42:14Z</time>
      </trkpt>
      <trkpt lat="48.06805" lon="-3.53516">
        <ele>185.4</ele>
        <time>2025-02-26T09:42:15Z</time>
      </trkpt>
      <trkpt lat="48.06806" lon="-3.53516">
        <ele>185.4</ele>
        <time>2025-02-26T09:42:16Z</time>
      </trkpt>
      <trkpt lat="48.06807" lon="-3.53515">
        <ele>185.4</ele>
        <time>2025-02-26T09:42:17Z</time>
      </trkpt>
      <trkpt lat="48.06808" lon="-3.53515">
        <ele>185.4</ele>
        <time>2025-02-26T09:42:18Z</time>
      </trkpt>
      <trkpt lat="48.06809" lon="-3.53515">
        <ele>185.4</ele>
        <time>2025-02-26T09:42:19Z</time>
      </trkpt>
      <trkpt lat="48.0681" lon="-3.53514">
        <ele>185.4</ele>
        <time>2025-02-26T09:42:20Z</time>
      </trkpt>
      <trkpt lat="48.06811" lon="-3.53513">
        <ele>185.5</ele>
        <time>2025-02-26T09:42:21Z</time>
      </trkpt>
      <trkpt lat="48.06812" lon="-3.53511">
        <ele>185.5</ele>
        <time>2025-02-26T09:42:22Z</time>
      </trkpt>
      <trkpt lat="48.06813" lon="-3.5351">
        <ele>185.5</ele>
        <time>2025-02-26T09:42:23Z</time>
      </trkpt>
      <trkpt lat="48.06813" lon="-3.5351">
        <ele>185.6</ele>
        <time>2025-02-26T09:42:24Z</time>
      </trkpt>
      <trkpt lat="48.06814" lon="-3.53509">
        <ele>185.6</ele>
        <time>2025-02-26T09:42:25Z</time>
      </trkpt>
      <trkpt lat="48.06815" lon="-3.53508">
        <ele>185.6</ele>
        <time>2025-02-26T09:42:26Z</time>
      </trkpt>
      <trkpt lat="48.06816" lon="-3.53507">
        <ele>185.7</ele>
        <time>2025-02-26T09:42:27Z</time>
      </trkpt>
      <trkpt lat="48.06816" lon="-3.53506">
        <ele>185.7</ele>
        <time>2025-02-26T09:42:28Z</time>
      </trkpt>
      <trkpt lat="48.06817" lon="-3.53506">
        <ele>185.7</ele>
        <time>2025-02-26T09:42:29Z</time>
      </trkpt>
      <trkpt lat="48.06818" lon="-3.53505">
        <ele>185.7</ele>
        <time>2025-02-26T09:42:30Z</time>
      </trkpt>
      <trkpt lat="48.06818" lon="-3.53505">
        <ele>185.7</ele>
        <time>2025-02-26T09:42:31Z</time>
      </trkpt>
      <trkpt lat="48.06819" lon="-3.53504">
        <ele>185.8</ele>
        <time>2025-02-26T09:42:32Z</time>
      </trkpt>
      <trkpt lat="48.0682" lon="-3.53504">
        <ele>185.8</ele>
        <time>2025-02-26T09:42:33Z</time>
      </trkpt>
      <trkpt lat="48.0682" lon="-3.53502">
        <ele>185.9</ele>
        <time>2025-02-26T09:42:34Z</time>
      </trkpt>
      <trkpt lat="48.0682" lon="-3.53502">
        <ele>185.9</ele>
        <time>2025-02-26T09:42:35Z</time>
      </trkpt>
      <trkpt lat="48.0682" lon="-3.53502">
        <ele>185.9</ele>
        <time>2025-02-26T09:42:36Z</time>
      </trkpt>
      <trkpt lat="48.0682" lon="-3.53502">
        <ele>185.9</ele>
        <time>2025-02-26T09:42:37Z</time>
      </trkpt>
      <trkpt lat="48.0682" lon="-3.53502">
        <ele>185.9</ele>
        <time>2025-02-26T09:42:38Z</time>
      </trkpt>
      <trkpt lat="48.06821" lon="-3.53501">
        <ele>186</ele>
        <time>2025-02-26T09:42:39Z</time>
      </trkpt>
      <trkpt lat="48.06821" lon="-3.53501">
        <ele>186</ele>
        <time>2025-02-26T09:42:40Z</time>
      </trkpt>
      <trkpt lat="48.06821" lon="-3.53501">
        <ele>185.9</ele>
        <time>2025-02-26T09:42:41Z</time>
      </trkpt>
      <trkpt lat="48.06821" lon="-3.53501">
        <ele>185.9</ele>
        <time>2025-02-26T09:42:42Z</time>
      </trkpt>
      <trkpt lat="48.06821" lon="-3.53501">
        <ele>185.9</ele>
        <time>2025-02-26T09:42:43Z</time>
      </trkpt>
      <trkpt lat="48.06821" lon="-3.53501">
        <ele>185.9</ele>
        <time>2025-02-26T09:42:44Z</time>
      </trkpt>
      <trkpt lat="48.06821" lon="-3.53501">
        <ele>185.9</ele>
        <time>2025-02-26T09:42:45Z</time>
      </trkpt>
      <trkpt lat="48.06821" lon="-3.53501">
        <ele>185.9</ele>
        <time>2025-02-26T09:42:46Z</time>
      </trkpt>
      <trkpt lat="48.06821" lon="-3.53501">
        <ele>185.9</ele>
        <time>2025-02-26T09:42:47Z</time>
      </trkpt>
      <trkpt lat="48.06821" lon="-3.53501">
        <ele>185.9</ele>
        <time>2025-02-26T09:42:48Z</time>
      </trkpt>
      <trkpt lat="48.06821" lon="-3.53501">
        <ele>185.9</ele>
        <time>2025-02-26T09:42:49Z</time>
      </trkpt>
      <trkpt lat="48.06821" lon="-3.53501">
        <ele>185.9</ele>
        <time>2025-02-26T09:42:50Z</time>
      </trkpt>
      <trkpt lat="48.06821" lon="-3.53501">
        <ele>185.9</ele>
        <time>2025-02-26T09:42:51Z</time>
      </trkpt>
      <trkpt lat="48.0682" lon="-3.53501">
        <ele>185.9</ele>
        <time>2025-02-26T09:42:52Z</time>
      </trkpt>
      <trkpt lat="48.0682" lon="-3.53501">
        <ele>185.9</ele>
        <time>2025-02-26T09:42:53Z</time>
      </trkpt>
      <trkpt lat="48.0682" lon="-3.53501">
        <ele>185.9</ele>
        <time>2025-02-26T09:42:54Z</time>
      </trkpt>
      <trkpt lat="48.0682" lon="-3.53501">
        <ele>185.9</ele>
        <time>2025-02-26T09:42:55Z</time>
      </trkpt>
      <trkpt lat="48.0682" lon="-3.53501">
        <ele>186</ele>
        <time>2025-02-26T09:42:56Z</time>
      </trkpt>
      <trkpt lat="48.06819" lon="-3.535">
        <ele>186</ele>
        <time>2025-02-26T09:42:57Z</time>
      </trkpt>
      <trkpt lat="48.06819" lon="-3.535">
        <ele>186</ele>
        <time>2025-02-26T09:42:58Z</time>
      </trkpt>
      <trkpt lat="48.06819" lon="-3.53498">
        <ele>186.1</ele>
        <time>2025-02-26T09:42:59Z</time>
      </trkpt>
      <trkpt lat="48.06819" lon="-3.53496">
        <ele>186.1</ele>
        <time>2025-02-26T09:43:00Z</time>
      </trkpt>
      <trkpt lat="48.06818" lon="-3.53495">
        <ele>186.2</ele>
        <time>2025-02-26T09:43:01Z</time>
      </trkpt>
      <trkpt lat="48.06818" lon="-3.53493">
        <ele>186.2</ele>
        <time>2025-02-26T09:43:02Z</time>
      </trkpt>
      <trkpt lat="48.06818" lon="-3.53493">
        <ele>186.3</ele>
        <time>2025-02-26T09:43:03Z</time>
      </trkpt>
      <trkpt lat="48.06818" lon="-3.53492">
        <ele>186.3</ele>
        <time>2025-02-26T09:43:04Z</time>
      </trkpt>
      <trkpt lat="48.06817" lon="-3.53491">
        <ele>186.3</ele>
        <time>2025-02-26T09:43:05Z</time>
      </trkpt>
      <trkpt lat="48.06818" lon="-3.53489">
        <ele>186.4</ele>
        <time>2025-02-26T09:43:06Z</time>
      </trkpt>
      <trkpt lat="48.06817" lon="-3.53488">
        <ele>186.4</ele>
        <time>2025-02-26T09:43:07Z</time>
      </trkpt>
      <trkpt lat="48.06816" lon="-3.53487">
        <ele>186.5</ele>
        <time>2025-02-26T09:43:08Z</time>
      </trkpt>
      <trkpt lat="48.06816" lon="-3.53485">
        <ele>186.5</ele>
        <time>2025-02-26T09:43:09Z</time>
      </trkpt>
      <trkpt lat="48.06816" lon="-3.53484">
        <ele>186.6</ele>
        <time>2025-02-26T09:43:10Z</time>
      </trkpt>
      <trkpt lat="48.06816" lon="-3.53482">
        <ele>186.6</ele>
        <time>2025-02-26T09:43:11Z</time>
      </trkpt>
      <trkpt lat="48.06815" lon="-3.53481">
        <ele>186.7</ele>
        <time>2025-02-26T09:43:12Z</time>
      </trkpt>
      <trkpt lat="48.06815" lon="-3.5348">
        <ele>186.7</ele>
        <time>2025-02-26T09:43:13Z</time>
      </trkpt>
      <trkpt lat="48.06815" lon="-3.53479">
        <ele>186.8</ele>
        <time>2025-02-26T09:43:14Z</time>
      </trkpt>
      <trkpt lat="48.06814" lon="-3.53477">
        <ele>186.8</ele>
        <time>2025-02-26T09:43:15Z</time>
      </trkpt>
      <trkpt lat="48.06814" lon="-3.53476">
        <ele>186.9</ele>
        <time>2025-02-26T09:43:16Z</time>
      </trkpt>
      <trkpt lat="48.06813" lon="-3.53475">
        <ele>186.9</ele>
        <time>2025-02-26T09:43:17Z</time>
      </trkpt>
      <trkpt lat="48.06813" lon="-3.53474">
        <ele>187</ele>
        <time>2025-02-26T09:43:18Z</time>
      </trkpt>
      <trkpt lat="48.06813" lon="-3.53472">
        <ele>187</ele>
        <time>2025-02-26T09:43:19Z</time>
      </trkpt>
      <trkpt lat="48.06812" lon="-3.5347">
        <ele>187.1</ele>
        <time>2025-02-26T09:43:20Z</time>
      </trkpt>
      <trkpt lat="48.06812" lon="-3.53468">
        <ele>187.1</ele>
        <time>2025-02-26T09:43:21Z</time>
      </trkpt>
      <trkpt lat="48.06812" lon="-3.53467">
        <ele>187.2</ele>
        <time>2025-02-26T09:43:22Z</time>
      </trkpt>
      <trkpt lat="48.06811" lon="-3.53465">
        <ele>187.2</ele>
        <time>2025-02-26T09:43:23Z</time>
      </trkpt>
      <trkpt lat="48.06811" lon="-3.53464">
        <ele>187.3</ele>
        <time>2025-02-26T09:43:24Z</time>
      </trkpt>
      <trkpt lat="48.06811" lon="-3.53462">
        <ele>187.4</ele>
        <time>2025-02-26T09:43:25Z</time>
      </trkpt>
      <trkpt lat="48.06811" lon="-3.53461">
        <ele>187.4</ele>
        <time>2025-02-26T09:43:26Z</time>
      </trkpt>
      <trkpt lat="48.0681" lon="-3.53459">
        <ele>187.5</ele>
        <time>2025-02-26T09:43:27Z</time>
      </trkpt>
      <trkpt lat="48.0681" lon="-3.53458">
        <ele>187.5</ele>
        <time>2025-02-26T09:43:28Z</time>
      </trkpt>
      <trkpt lat="48.0681" lon="-3.53456">
        <ele>187.6</ele>
        <time>2025-02-26T09:43:29Z</time>
      </trkpt>
      <trkpt lat="48.06809" lon="-3.53455">
        <ele>187.6</ele>
        <time>2025-02-26T09:43:30Z</time>
      </trkpt>
      <trkpt lat="48.06809" lon="-3.53453">
        <ele>187.7</ele>
        <time>2025-02-26T09:43:31Z</time>
      </trkpt>
      <trkpt lat="48.06808" lon="-3.53452">
        <ele>187.7</ele>
        <time>2025-02-26T09:43:32Z</time>
      </trkpt>
      <trkpt lat="48.06808" lon="-3.5345">
        <ele>187.8</ele>
        <time>2025-02-26T09:43:33Z</time>
      </trkpt>
      <trkpt lat="48.06807" lon="-3.53449">
        <ele>187.8</ele>
        <time>2025-02-26T09:43:34Z</time>
      </trkpt>
      <trkpt lat="48.06807" lon="-3.53447">
        <ele>187.9</ele>
        <time>2025-02-26T09:43:35Z</time>
      </trkpt>
      <trkpt lat="48.06807" lon="-3.53445">
        <ele>188</ele>
        <time>2025-02-26T09:43:36Z</time>
      </trkpt>
      <trkpt lat="48.06806" lon="-3.53443">
        <ele>188</ele>
        <time>2025-02-26T09:43:37Z</time>
      </trkpt>
      <trkpt lat="48.06806" lon="-3.53442">
        <ele>188</ele>
        <time>2025-02-26T09:43:38Z</time>
      </trkpt>
      <trkpt lat="48.06806" lon="-3.53441">
        <ele>188</ele>
        <time>2025-02-26T09:43:39Z</time>
      </trkpt>
      <trkpt lat="48.06806" lon="-3.5344">
        <ele>188</ele>
        <time>2025-02-26T09:43:40Z</time>
      </trkpt>
      <trkpt lat="48.06806" lon="-3.53438">
        <ele>188</ele>
        <time>2025-02-26T09:43:41Z</time>
      </trkpt>
      <trkpt lat="48.06806" lon="-3.53437">
        <ele>188</ele>
        <time>2025-02-26T09:43:42Z</time>
      </trkpt>
      <trkpt lat="48.06806" lon="-3.53435">
        <ele>188</ele>
        <time>2025-02-26T09:43:43Z</time>
      </trkpt>
      <trkpt lat="48.06806" lon="-3.53434">
        <ele>188</ele>
        <time>2025-02-26T09:43:44Z</time>
      </trkpt>
      <trkpt lat="48.06806" lon="-3.53432">
        <ele>188</ele>
        <time>2025-02-26T09:43:45Z</time>
      </trkpt>
      <trkpt lat="48.06806" lon="-3.5343">
        <ele>188</ele>
        <time>2025-02-26T09:43:46Z</time>
      </trkpt>
      <trkpt lat="48.06806" lon="-3.53429">
        <ele>188</ele>
        <time>2025-02-26T09:43:47Z</time>
      </trkpt>
      <trkpt lat="48.06806" lon="-3.53427">
        <ele>188</ele>
        <time>2025-02-26T09:43:48Z</time>
      </trkpt>
      <trkpt lat="48.06806" lon="-3.53426">
        <ele>188</ele>
        <time>2025-02-26T09:43:49Z</time>
      </trkpt>
      <trkpt lat="48.06806" lon="-3.53425">
        <ele>188</ele>
        <time>2025-02-26T09:43:50Z</time>
      </trkpt>
      <trkpt lat="48.06806" lon="-3.53424">
        <ele>188</ele>
        <time>2025-02-26T09:43:51Z</time>
      </trkpt>
      <trkpt lat="48.06806" lon="-3.53422">
        <ele>188</ele>
        <time>2025-02-26T09:43:52Z</time>
      </trkpt>
      <trkpt lat="48.06805" lon="-3.53421">
        <ele>188</ele>
        <time>2025-02-26T09:43:53Z</time>
      </trkpt>
      <trkpt lat="48.06805" lon="-3.5342">
        <ele>188</ele>
        <time>2025-02-26T09:43:54Z</time>
      </trkpt>
      <trkpt lat="48.06805" lon="-3.53417">
        <ele>188</ele>
        <time>2025-02-26T09:43:55Z</time>
      </trkpt>
      <trkpt lat="48.06805" lon="-3.53416">
        <ele>188</ele>
        <time>2025-02-26T09:43:56Z</time>
      </trkpt>
      <trkpt lat="48.06805" lon="-3.53414">
        <ele>188.1</ele>
        <time>2025-02-26T09:43:57Z</time>
      </trkpt>
      <trkpt lat="48.06805" lon="-3.53412">
        <ele>188.2</ele>
        <time>2025-02-26T09:43:58Z</time>
      </trkpt>
      <trkpt lat="48.06805" lon="-3.53413">
        <ele>188.1</ele>
        <time>2025-02-26T09:43:59Z</time>
      </trkpt>
      <trkpt lat="48.06805" lon="-3.53411">
        <ele>188.2</ele>
        <time>2025-02-26T09:44:00Z</time>
      </trkpt>
      <trkpt lat="48.06805" lon="-3.5341">
        <ele>188.3</ele>
        <time>2025-02-26T09:44:01Z</time>
      </trkpt>
      <trkpt lat="48.06805" lon="-3.53409">
        <ele>188.3</ele>
        <time>2025-02-26T09:44:02Z</time>
      </trkpt>
      <trkpt lat="48.06805" lon="-3.53408">
        <ele>188.3</ele>
        <time>2025-02-26T09:44:03Z</time>
      </trkpt>
      <trkpt lat="48.06805" lon="-3.53407">
        <ele>188.4</ele>
        <time>2025-02-26T09:44:04Z</time>
      </trkpt>
      <trkpt lat="48.06806" lon="-3.53406">
        <ele>188.4</ele>
        <time>2025-02-26T09:44:05Z</time>
      </trkpt>
      <trkpt lat="48.06807" lon="-3.53405">
        <ele>188.5</ele>
        <time>2025-02-26T09:44:06Z</time>
      </trkpt>
      <trkpt lat="48.06807" lon="-3.53403">
        <ele>188.5</ele>
        <time>2025-02-26T09:44:07Z</time>
      </trkpt>
      <trkpt lat="48.06806" lon="-3.53401">
        <ele>188.6</ele>
        <time>2025-02-26T09:44:08Z</time>
      </trkpt>
      <trkpt lat="48.06806" lon="-3.53399">
        <ele>188.7</ele>
        <time>2025-02-26T09:44:09Z</time>
      </trkpt>
      <trkpt lat="48.06807" lon="-3.53397">
        <ele>188.7</ele>
        <time>2025-02-26T09:44:10Z</time>
      </trkpt>
      <trkpt lat="48.06806" lon="-3.53396">
        <ele>188.8</ele>
        <time>2025-02-26T09:44:11Z</time>
      </trkpt>
      <trkpt lat="48.06805" lon="-3.53395">
        <ele>188.8</ele>
        <time>2025-02-26T09:44:12Z</time>
      </trkpt>
      <trkpt lat="48.06805" lon="-3.53395">
        <ele>188.8</ele>
        <time>2025-02-26T09:44:13Z</time>
      </trkpt>
      <trkpt lat="48.06805" lon="-3.53393">
        <ele>188.9</ele>
        <time>2025-02-26T09:44:14Z</time>
      </trkpt>
      <trkpt lat="48.06804" lon="-3.53391">
        <ele>188.9</ele>
        <time>2025-02-26T09:44:15Z</time>
      </trkpt>
      <trkpt lat="48.06804" lon="-3.5339">
        <ele>189</ele>
        <time>2025-02-26T09:44:16Z</time>
      </trkpt>
      <trkpt lat="48.06803" lon="-3.53389">
        <ele>189</ele>
        <time>2025-02-26T09:44:17Z</time>
      </trkpt>
      <trkpt lat="48.06802" lon="-3.53389">
        <ele>189</ele>
        <time>2025-02-26T09:44:18Z</time>
      </trkpt>
      <trkpt lat="48.06802" lon="-3.53387">
        <ele>189.1</ele>
        <time>2025-02-26T09:44:19Z</time>
      </trkpt>
      <trkpt lat="48.06802" lon="-3.53386">
        <ele>189.1</ele>
        <time>2025-02-26T09:44:20Z</time>
      </trkpt>
      <trkpt lat="48.06802" lon="-3.53385">
        <ele>189.1</ele>
        <time>2025-02-26T09:44:21Z</time>
      </trkpt>
      <trkpt lat="48.06802" lon="-3.53385">
        <ele>189.2</ele>
        <time>2025-02-26T09:44:22Z</time>
      </trkpt>
      <trkpt lat="48.06802" lon="-3.53383">
        <ele>189.2</ele>
        <time>2025-02-26T09:44:23Z</time>
      </trkpt>
      <trkpt lat="48.06803" lon="-3.53381">
        <ele>189.3</ele>
        <time>2025-02-26T09:44:24Z</time>
      </trkpt>
      <trkpt lat="48.06802" lon="-3.5338">
        <ele>189.3</ele>
        <time>2025-02-26T09:44:25Z</time>
      </trkpt>
      <trkpt lat="48.06802" lon="-3.53378">
        <ele>189.4</ele>
        <time>2025-02-26T09:44:26Z</time>
      </trkpt>
      <trkpt lat="48.06803" lon="-3.53377">
        <ele>189.4</ele>
        <time>2025-02-26T09:44:27Z</time>
      </trkpt>
      <trkpt lat="48.06803" lon="-3.53375">
        <ele>189.5</ele>
        <time>2025-02-26T09:44:28Z</time>
      </trkpt>
      <trkpt lat="48.06803" lon="-3.53374">
        <ele>189.5</ele>
        <time>2025-02-26T09:44:29Z</time>
      </trkpt>
      <trkpt lat="48.06802" lon="-3.53373">
        <ele>189.6</ele>
        <time>2025-02-26T09:44:30Z</time>
      </trkpt>
      <trkpt lat="48.06802" lon="-3.53372">
        <ele>189.6</ele>
        <time>2025-02-26T09:44:31Z</time>
      </trkpt>
      <trkpt lat="48.06801" lon="-3.53371">
        <ele>189.6</ele>
        <time>2025-02-26T09:44:32Z</time>
      </trkpt>
      <trkpt lat="48.06801" lon="-3.53371">
        <ele>189.6</ele>
        <time>2025-02-26T09:44:33Z</time>
      </trkpt>
      <trkpt lat="48.06801" lon="-3.5337">
        <ele>189.7</ele>
        <time>2025-02-26T09:44:34Z</time>
      </trkpt>
      <trkpt lat="48.06801" lon="-3.53369">
        <ele>189.7</ele>
        <time>2025-02-26T09:44:35Z</time>
      </trkpt>
      <trkpt lat="48.06801" lon="-3.53367">
        <ele>189.8</ele>
        <time>2025-02-26T09:44:36Z</time>
      </trkpt>
      <trkpt lat="48.06801" lon="-3.53366">
        <ele>189.8</ele>
        <time>2025-02-26T09:44:37Z</time>
      </trkpt>
      <trkpt lat="48.06801" lon="-3.53364">
        <ele>189.9</ele>
        <time>2025-02-26T09:44:38Z</time>
      </trkpt>
      <trkpt lat="48.068" lon="-3.53362">
        <ele>190</ele>
        <time>2025-02-26T09:44:39Z</time>
      </trkpt>
      <trkpt lat="48.068" lon="-3.53361">
        <ele>190</ele>
        <time>2025-02-26T09:44:40Z</time>
      </trkpt>
      <trkpt lat="48.068" lon="-3.5336">
        <ele>190</ele>
        <time>2025-02-26T09:44:41Z</time>
      </trkpt>
      <trkpt lat="48.068" lon="-3.53358">
        <ele>190</ele>
        <time>2025-02-26T09:44:42Z</time>
      </trkpt>
      <trkpt lat="48.068" lon="-3.53357">
        <ele>190</ele>
        <time>2025-02-26T09:44:43Z</time>
      </trkpt>
      <trkpt lat="48.06799" lon="-3.53356">
        <ele>190</ele>
        <time>2025-02-26T09:44:44Z</time>
      </trkpt>
      <trkpt lat="48.06799" lon="-3.53355">
        <ele>190</ele>
        <time>2025-02-26T09:44:45Z</time>
      </trkpt>
      <trkpt lat="48.06799" lon="-3.53354">
        <ele>189.9</ele>
        <time>2025-02-26T09:44:46Z</time>
      </trkpt>
      <trkpt lat="48.06799" lon="-3.53352">
        <ele>189.9</ele>
        <time>2025-02-26T09:44:47Z</time>
      </trkpt>
      <trkpt lat="48.06799" lon="-3.53351">
        <ele>189.9</ele>
        <time>2025-02-26T09:44:48Z</time>
      </trkpt>
      <trkpt lat="48.068" lon="-3.5335">
        <ele>189.9</ele>
        <time>2025-02-26T09:44:49Z</time>
      </trkpt>
      <trkpt lat="48.06799" lon="-3.53348">
        <ele>189.9</ele>
        <time>2025-02-26T09:44:50Z</time>
      </trkpt>
      <trkpt lat="48.06799" lon="-3.53346">
        <ele>189.9</ele>
        <time>2025-02-26T09:44:51Z</time>
      </trkpt>
      <trkpt lat="48.06799" lon="-3.53344">
        <ele>189.9</ele>
        <time>2025-02-26T09:44:52Z</time>
      </trkpt>
      <trkpt lat="48.06799" lon="-3.53342">
        <ele>189.8</ele>
        <time>2025-02-26T09:44:53Z</time>
      </trkpt>
      <trkpt lat="48.06799" lon="-3.5334">
        <ele>189.8</ele>
        <time>2025-02-26T09:44:54Z</time>
      </trkpt>
      <trkpt lat="48.06799" lon="-3.53338">
        <ele>189.8</ele>
        <time>2025-02-26T09:44:55Z</time>
      </trkpt>
      <trkpt lat="48.06798" lon="-3.53337">
        <ele>189.8</ele>
        <time>2025-02-26T09:44:56Z</time>
      </trkpt>
      <trkpt lat="48.06798" lon="-3.53335">
        <ele>189.8</ele>
        <time>2025-02-26T09:44:57Z</time>
      </trkpt>
      <trkpt lat="48.06797" lon="-3.53334">
        <ele>189.7</ele>
        <time>2025-02-26T09:44:58Z</time>
      </trkpt>
      <trkpt lat="48.06797" lon="-3.53333">
        <ele>189.7</ele>
        <time>2025-02-26T09:44:59Z</time>
      </trkpt>
      <trkpt lat="48.06797" lon="-3.53331">
        <ele>189.7</ele>
        <time>2025-02-26T09:45:00Z</time>
      </trkpt>
      <trkpt lat="48.06798" lon="-3.5333">
        <ele>189.7</ele>
        <time>2025-02-26T09:45:01Z</time>
      </trkpt>
      <trkpt lat="48.06798" lon="-3.53328">
        <ele>189.7</ele>
        <time>2025-02-26T09:45:02Z</time>
      </trkpt>
      <trkpt lat="48.06797" lon="-3.53326">
        <ele>189.7</ele>
        <time>2025-02-26T09:45:03Z</time>
      </trkpt>
      <trkpt lat="48.06797" lon="-3.53324">
        <ele>189.7</ele>
        <time>2025-02-26T09:45:04Z</time>
      </trkpt>
      <trkpt lat="48.06798" lon="-3.53323">
        <ele>189.7</ele>
        <time>2025-02-26T09:45:05Z</time>
      </trkpt>
      <trkpt lat="48.06797" lon="-3.53321">
        <ele>189.7</ele>
        <time>2025-02-26T09:45:06Z</time>
      </trkpt>
      <trkpt lat="48.06797" lon="-3.53319">
        <ele>189.7</ele>
        <time>2025-02-26T09:45:07Z</time>
      </trkpt>
      <trkpt lat="48.06797" lon="-3.53318">
        <ele>189.7</ele>
        <time>2025-02-26T09:45:08Z</time>
      </trkpt>
      <trkpt lat="48.06797" lon="-3.53316">
        <ele>189.7</ele>
        <time>2025-02-26T09:45:09Z</time>
      </trkpt>
      <trkpt lat="48.06798" lon="-3.53315">
        <ele>189.7</ele>
        <time>2025-02-26T09:45:10Z</time>
      </trkpt>
      <trkpt lat="48.06798" lon="-3.53313">
        <ele>189.7</ele>
        <time>2025-02-26T09:45:11Z</time>
      </trkpt>
      <trkpt lat="48.06798" lon="-3.53311">
        <ele>189.7</ele>
        <time>2025-02-26T09:45:12Z</time>
      </trkpt>
      <trkpt lat="48.06798" lon="-3.5331">
        <ele>189.7</ele>
        <time>2025-02-26T09:45:13Z</time>
      </trkpt>
      <trkpt lat="48.06798" lon="-3.53308">
        <ele>189.7</ele>
        <time>2025-02-26T09:45:14Z</time>
      </trkpt>
      <trkpt lat="48.06798" lon="-3.53306">
        <ele>189.7</ele>
        <time>2025-02-26T09:45:15Z</time>
      </trkpt>
      <trkpt lat="48.06798" lon="-3.53304">
        <ele>189.7</ele>
        <time>2025-02-26T09:45:16Z</time>
      </trkpt>
      <trkpt lat="48.06798" lon="-3.53302">
        <ele>189.7</ele>
        <time>2025-02-26T09:45:17Z</time>
      </trkpt>
      <trkpt lat="48.06798" lon="-3.53301">
        <ele>189.7</ele>
        <time>2025-02-26T09:45:18Z</time>
      </trkpt>
      <trkpt lat="48.06798" lon="-3.53299">
        <ele>189.7</ele>
        <time>2025-02-26T09:45:19Z</time>
      </trkpt>
      <trkpt lat="48.06798" lon="-3.53297">
        <ele>189.7</ele>
        <time>2025-02-26T09:45:20Z</time>
      </trkpt>
      <trkpt lat="48.06798" lon="-3.53295">
        <ele>189.7</ele>
        <time>2025-02-26T09:45:21Z</time>
      </trkpt>
      <trkpt lat="48.06798" lon="-3.53294">
        <ele>189.7</ele>
        <time>2025-02-26T09:45:22Z</time>
      </trkpt>
      <trkpt lat="48.06798" lon="-3.53292">
        <ele>189.7</ele>
        <time>2025-02-26T09:45:23Z</time>
      </trkpt>
      <trkpt lat="48.06798" lon="-3.5329">
        <ele>189.7</ele>
        <time>2025-02-26T09:45:24Z</time>
      </trkpt>
      <trkpt lat="48.06798" lon="-3.53289">
        <ele>189.7</ele>
        <time>2025-02-26T09:45:25Z</time>
      </trkpt>
      <trkpt lat="48.06799" lon="-3.53287">
        <ele>189.7</ele>
        <time>2025-02-26T09:45:26Z</time>
      </trkpt>
      <trkpt lat="48.06799" lon="-3.53285">
        <ele>189.7</ele>
        <time>2025-02-26T09:45:27Z</time>
      </trkpt>
      <trkpt lat="48.06799" lon="-3.53284">
        <ele>189.7</ele>
        <time>2025-02-26T09:45:28Z</time>
      </trkpt>
      <trkpt lat="48.06799" lon="-3.53282">
        <ele>189.7</ele>
        <time>2025-02-26T09:45:29Z</time>
      </trkpt>
      <trkpt lat="48.06799" lon="-3.53281">
        <ele>189.8</ele>
        <time>2025-02-26T09:45:30Z</time>
      </trkpt>
      <trkpt lat="48.06799" lon="-3.53279">
        <ele>189.8</ele>
        <time>2025-02-26T09:45:31Z</time>
      </trkpt>
      <trkpt lat="48.06799" lon="-3.53277">
        <ele>189.8</ele>
        <time>2025-02-26T09:45:32Z</time>
      </trkpt>
      <trkpt lat="48.06799" lon="-3.53276">
        <ele>189.7</ele>
        <time>2025-02-26T09:45:33Z</time>
      </trkpt>
      <trkpt lat="48.06799" lon="-3.53274">
        <ele>189.6</ele>
        <time>2025-02-26T09:45:34Z</time>
      </trkpt>
      <trkpt lat="48.06799" lon="-3.53272">
        <ele>189.6</ele>
        <time>2025-02-26T09:45:35Z</time>
      </trkpt>
      <trkpt lat="48.06799" lon="-3.5327">
        <ele>189.5</ele>
        <time>2025-02-26T09:45:36Z</time>
      </trkpt>
      <trkpt lat="48.06799" lon="-3.53269">
        <ele>189.4</ele>
        <time>2025-02-26T09:45:37Z</time>
      </trkpt>
      <trkpt lat="48.06799" lon="-3.53267">
        <ele>189.4</ele>
        <time>2025-02-26T09:45:38Z</time>
      </trkpt>
      <trkpt lat="48.06799" lon="-3.53265">
        <ele>189.3</ele>
        <time>2025-02-26T09:45:39Z</time>
      </trkpt>
      <trkpt lat="48.06799" lon="-3.53263">
        <ele>189.2</ele>
        <time>2025-02-26T09:45:40Z</time>
      </trkpt>
      <trkpt lat="48.06799" lon="-3.53262">
        <ele>189.2</ele>
        <time>2025-02-26T09:45:41Z</time>
      </trkpt>
      <trkpt lat="48.06799" lon="-3.5326">
        <ele>189.1</ele>
        <time>2025-02-26T09:45:42Z</time>
      </trkpt>
      <trkpt lat="48.06799" lon="-3.53259">
        <ele>189.1</ele>
        <time>2025-02-26T09:45:43Z</time>
      </trkpt>
      <trkpt lat="48.068" lon="-3.53257">
        <ele>189.1</ele>
        <time>2025-02-26T09:45:44Z</time>
      </trkpt>
      <trkpt lat="48.068" lon="-3.53256">
        <ele>189</ele>
        <time>2025-02-26T09:45:45Z</time>
      </trkpt>
      <trkpt lat="48.068" lon="-3.53254">
        <ele>189</ele>
        <time>2025-02-26T09:45:46Z</time>
      </trkpt>
      <trkpt lat="48.068" lon="-3.53252">
        <ele>188.9</ele>
        <time>2025-02-26T09:45:47Z</time>
      </trkpt>
      <trkpt lat="48.06801" lon="-3.53251">
        <ele>188.8</ele>
        <time>2025-02-26T09:45:48Z</time>
      </trkpt>
      <trkpt lat="48.06801" lon="-3.53249">
        <ele>188.8</ele>
        <time>2025-02-26T09:45:49Z</time>
      </trkpt>
      <trkpt lat="48.068" lon="-3.53247">
        <ele>188.8</ele>
        <time>2025-02-26T09:45:50Z</time>
      </trkpt>
      <trkpt lat="48.068" lon="-3.53245">
        <ele>188.8</ele>
        <time>2025-02-26T09:45:51Z</time>
      </trkpt>
      <trkpt lat="48.068" lon="-3.53243">
        <ele>188.8</ele>
        <time>2025-02-26T09:45:52Z</time>
      </trkpt>
      <trkpt lat="48.06801" lon="-3.53241">
        <ele>188.8</ele>
        <time>2025-02-26T09:45:53Z</time>
      </trkpt>
      <trkpt lat="48.06801" lon="-3.5324">
        <ele>188.8</ele>
        <time>2025-02-26T09:45:54Z</time>
      </trkpt>
      <trkpt lat="48.06801" lon="-3.53238">
        <ele>188.8</ele>
        <time>2025-02-26T09:45:55Z</time>
      </trkpt>
      <trkpt lat="48.06801" lon="-3.53236">
        <ele>188.8</ele>
        <time>2025-02-26T09:45:56Z</time>
      </trkpt>
      <trkpt lat="48.06801" lon="-3.53234">
        <ele>188.8</ele>
        <time>2025-02-26T09:45:57Z</time>
      </trkpt>
      <trkpt lat="48.06801" lon="-3.53232">
        <ele>188.8</ele>
        <time>2025-02-26T09:45:58Z</time>
      </trkpt>
      <trkpt lat="48.06801" lon="-3.53231">
        <ele>188.8</ele>
        <time>2025-02-26T09:45:59Z</time>
      </trkpt>
      <trkpt lat="48.06801" lon="-3.53229">
        <ele>188.8</ele>
        <time>2025-02-26T09:46:00Z</time>
      </trkpt>
      <trkpt lat="48.06801" lon="-3.53227">
        <ele>188.8</ele>
        <time>2025-02-26T09:46:01Z</time>
      </trkpt>
      <trkpt lat="48.06802" lon="-3.53225">
        <ele>188.9</ele>
        <time>2025-02-26T09:46:02Z</time>
      </trkpt>
      <trkpt lat="48.06802" lon="-3.53223">
        <ele>188.9</ele>
        <time>2025-02-26T09:46:03Z</time>
      </trkpt>
      <trkpt lat="48.06801" lon="-3.53221">
        <ele>188.8</ele>
        <time>2025-02-26T09:46:04Z</time>
      </trkpt>
      <trkpt lat="48.06801" lon="-3.53219">
        <ele>188.7</ele>
        <time>2025-02-26T09:46:05Z</time>
      </trkpt>
      <trkpt lat="48.06801" lon="-3.53218">
        <ele>188.7</ele>
        <time>2025-02-26T09:46:06Z</time>
      </trkpt>
      <trkpt lat="48.06801" lon="-3.53216">
        <ele>188.6</ele>
        <time>2025-02-26T09:46:07Z</time>
      </trkpt>
      <trkpt lat="48.06802" lon="-3.53214">
        <ele>188.6</ele>
        <time>2025-02-26T09:46:08Z</time>
      </trkpt>
      <trkpt lat="48.06801" lon="-3.53212">
        <ele>188.5</ele>
        <time>2025-02-26T09:46:09Z</time>
      </trkpt>
      <trkpt lat="48.06801" lon="-3.53211">
        <ele>188.4</ele>
        <time>2025-02-26T09:46:10Z</time>
      </trkpt>
      <trkpt lat="48.06802" lon="-3.53209">
        <ele>188.4</ele>
        <time>2025-02-26T09:46:11Z</time>
      </trkpt>
      <trkpt lat="48.06802" lon="-3.53207">
        <ele>188.3</ele>
        <time>2025-02-26T09:46:12Z</time>
      </trkpt>
      <trkpt lat="48.06802" lon="-3.53206">
        <ele>188.3</ele>
        <time>2025-02-26T09:46:13Z</time>
      </trkpt>
      <trkpt lat="48.06802" lon="-3.53204">
        <ele>188.2</ele>
        <time>2025-02-26T09:46:14Z</time>
      </trkpt>
      <trkpt lat="48.06802" lon="-3.53202">
        <ele>188.1</ele>
        <time>2025-02-26T09:46:15Z</time>
      </trkpt>
      <trkpt lat="48.06802" lon="-3.53201">
        <ele>188.1</ele>
        <time>2025-02-26T09:46:16Z</time>
      </trkpt>
      <trkpt lat="48.06802" lon="-3.53199">
        <ele>188.1</ele>
        <time>2025-02-26T09:46:17Z</time>
      </trkpt>
      <trkpt lat="48.06803" lon="-3.53198">
        <ele>188</ele>
        <time>2025-02-26T09:46:18Z</time>
      </trkpt>
      <trkpt lat="48.06803" lon="-3.53196">
        <ele>187.9</ele>
        <time>2025-02-26T09:46:19Z</time>
      </trkpt>
      <trkpt lat="48.06802" lon="-3.53194">
        <ele>187.9</ele>
        <time>2025-02-26T09:46:20Z</time>
      </trkpt>
      <trkpt lat="48.06802" lon="-3.53192">
        <ele>187.9</ele>
        <time>2025-02-26T09:46:21Z</time>
      </trkpt>
      <trkpt lat="48.06802" lon="-3.53191">
        <ele>187.9</ele>
        <time>2025-02-26T09:46:22Z</time>
      </trkpt>
      <trkpt lat="48.06803" lon="-3.5319">
        <ele>187.9</ele>
        <time>2025-02-26T09:46:23Z</time>
      </trkpt>
      <trkpt lat="48.06803" lon="-3.53188">
        <ele>187.9</ele>
        <time>2025-02-26T09:46:24Z</time>
      </trkpt>
      <trkpt lat="48.06802" lon="-3.53186">
        <ele>187.9</ele>
        <time>2025-02-26T09:46:25Z</time>
      </trkpt>
      <trkpt lat="48.06802" lon="-3.53185">
        <ele>187.9</ele>
        <time>2025-02-26T09:46:26Z</time>
      </trkpt>
      <trkpt lat="48.06801" lon="-3.53183">
        <ele>187.8</ele>
        <time>2025-02-26T09:46:27Z</time>
      </trkpt>
      <trkpt lat="48.06802" lon="-3.53181">
        <ele>187.9</ele>
        <time>2025-02-26T09:46:28Z</time>
      </trkpt>
      <trkpt lat="48.06802" lon="-3.5318">
        <ele>187.9</ele>
        <time>2025-02-26T09:46:29Z</time>
      </trkpt>
      <trkpt lat="48.06802" lon="-3.53178">
        <ele>187.9</ele>
        <time>2025-02-26T09:46:30Z</time>
      </trkpt>
      <trkpt lat="48.06802" lon="-3.53177">
        <ele>187.9</ele>
        <time>2025-02-26T09:46:31Z</time>
      </trkpt>
      <trkpt lat="48.06802" lon="-3.53175">
        <ele>187.9</ele>
        <time>2025-02-26T09:46:32Z</time>
      </trkpt>
      <trkpt lat="48.06801" lon="-3.53173">
        <ele>187.9</ele>
        <time>2025-02-26T09:46:33Z</time>
      </trkpt>
      <trkpt lat="48.06802" lon="-3.53172">
        <ele>187.9</ele>
        <time>2025-02-26T09:46:34Z</time>
      </trkpt>
      <trkpt lat="48.06802" lon="-3.5317">
        <ele>187.9</ele>
        <time>2025-02-26T09:46:35Z</time>
      </trkpt>
      <trkpt lat="48.06802" lon="-3.53168">
        <ele>187.9</ele>
        <time>2025-02-26T09:46:36Z</time>
      </trkpt>
      <trkpt lat="48.06802" lon="-3.53167">
        <ele>187.9</ele>
        <time>2025-02-26T09:46:37Z</time>
      </trkpt>
      <trkpt lat="48.06802" lon="-3.53165">
        <ele>187.8</ele>
        <time>2025-02-26T09:46:38Z</time>
      </trkpt>
      <trkpt lat="48.06803" lon="-3.53164">
        <ele>187.8</ele>
        <time>2025-02-26T09:46:39Z</time>
      </trkpt>
      <trkpt lat="48.06803" lon="-3.53162">
        <ele>187.7</ele>
        <time>2025-02-26T09:46:40Z</time>
      </trkpt>
      <trkpt lat="48.06803" lon="-3.5316">
        <ele>187.7</ele>
        <time>2025-02-26T09:46:41Z</time>
      </trkpt>
      <trkpt lat="48.06802" lon="-3.53159">
        <ele>187.6</ele>
        <time>2025-02-26T09:46:42Z</time>
      </trkpt>
      <trkpt lat="48.06802" lon="-3.53157">
        <ele>187.5</ele>
        <time>2025-02-26T09:46:43Z</time>
      </trkpt>
      <trkpt lat="48.06803" lon="-3.53155">
        <ele>187.5</ele>
        <time>2025-02-26T09:46:44Z</time>
      </trkpt>
      <trkpt lat="48.06802" lon="-3.53153">
        <ele>187.4</ele>
        <time>2025-02-26T09:46:45Z</time>
      </trkpt>
      <trkpt lat="48.06802" lon="-3.53152">
        <ele>187.3</ele>
        <time>2025-02-26T09:46:46Z</time>
      </trkpt>
      <trkpt lat="48.06802" lon="-3.5315">
        <ele>187.3</ele>
        <time>2025-02-26T09:46:47Z</time>
      </trkpt>
      <trkpt lat="48.06802" lon="-3.53148">
        <ele>187.2</ele>
        <time>2025-02-26T09:46:48Z</time>
      </trkpt>
      <trkpt lat="48.06802" lon="-3.53146">
        <ele>187.1</ele>
        <time>2025-02-26T09:46:49Z</time>
      </trkpt>
      <trkpt lat="48.06802" lon="-3.53145">
        <ele>187.1</ele>
        <time>2025-02-26T09:46:50Z</time>
      </trkpt>
      <trkpt lat="48.06802" lon="-3.53143">
        <ele>187</ele>
        <time>2025-02-26T09:46:51Z</time>
      </trkpt>
      <trkpt lat="48.06802" lon="-3.53141">
        <ele>186.9</ele>
        <time>2025-02-26T09:46:52Z</time>
      </trkpt>
      <trkpt lat="48.06801" lon="-3.53139">
        <ele>186.9</ele>
        <time>2025-02-26T09:46:53Z</time>
      </trkpt>
      <trkpt lat="48.06802" lon="-3.53137">
        <ele>186.9</ele>
        <time>2025-02-26T09:46:54Z</time>
      </trkpt>
      <trkpt lat="48.06801" lon="-3.53135">
        <ele>186.8</ele>
        <time>2025-02-26T09:46:55Z</time>
      </trkpt>
      <trkpt lat="48.06801" lon="-3.53133">
        <ele>186.8</ele>
        <time>2025-02-26T09:46:56Z</time>
      </trkpt>
      <trkpt lat="48.06801" lon="-3.53131">
        <ele>186.8</ele>
        <time>2025-02-26T09:46:57Z</time>
      </trkpt>
      <trkpt lat="48.068" lon="-3.5313">
        <ele>186.8</ele>
        <time>2025-02-26T09:46:58Z</time>
      </trkpt>
      <trkpt lat="48.068" lon="-3.53128">
        <ele>186.8</ele>
        <time>2025-02-26T09:46:59Z</time>
      </trkpt>
      <trkpt lat="48.068" lon="-3.53127">
        <ele>186.8</ele>
        <time>2025-02-26T09:47:00Z</time>
      </trkpt>
      <trkpt lat="48.068" lon="-3.53125">
        <ele>186.8</ele>
        <time>2025-02-26T09:47:01Z</time>
      </trkpt>
      <trkpt lat="48.068" lon="-3.53123">
        <ele>186.8</ele>
        <time>2025-02-26T09:47:02Z</time>
      </trkpt>
      <trkpt lat="48.06799" lon="-3.53122">
        <ele>186.8</ele>
        <time>2025-02-26T09:47:03Z</time>
      </trkpt>
      <trkpt lat="48.06799" lon="-3.53121">
        <ele>186.7</ele>
        <time>2025-02-26T09:47:04Z</time>
      </trkpt>
      <trkpt lat="48.06798" lon="-3.5312">
        <ele>186.7</ele>
        <time>2025-02-26T09:47:05Z</time>
      </trkpt>
      <trkpt lat="48.06798" lon="-3.53118">
        <ele>186.7</ele>
        <time>2025-02-26T09:47:06Z</time>
      </trkpt>
      <trkpt lat="48.06797" lon="-3.53117">
        <ele>186.7</ele>
        <time>2025-02-26T09:47:07Z</time>
      </trkpt>
      <trkpt lat="48.06797" lon="-3.53115">
        <ele>186.7</ele>
        <time>2025-02-26T09:47:08Z</time>
      </trkpt>
      <trkpt lat="48.06797" lon="-3.53113">
        <ele>186.7</ele>
        <time>2025-02-26T09:47:09Z</time>
      </trkpt>
      <trkpt lat="48.06797" lon="-3.53112">
        <ele>186.7</ele>
        <time>2025-02-26T09:47:10Z</time>
      </trkpt>
      <trkpt lat="48.06797" lon="-3.5311">
        <ele>186.7</ele>
        <time>2025-02-26T09:47:11Z</time>
      </trkpt>
      <trkpt lat="48.06797" lon="-3.53109">
        <ele>186.6</ele>
        <time>2025-02-26T09:47:12Z</time>
      </trkpt>
      <trkpt lat="48.06797" lon="-3.53107">
        <ele>186.5</ele>
        <time>2025-02-26T09:47:13Z</time>
      </trkpt>
      <trkpt lat="48.06797" lon="-3.53105">
        <ele>186.5</ele>
        <time>2025-02-26T09:47:14Z</time>
      </trkpt>
      <trkpt lat="48.06797" lon="-3.53103">
        <ele>186.4</ele>
        <time>2025-02-26T09:47:15Z</time>
      </trkpt>
      <trkpt lat="48.06797" lon="-3.53101">
        <ele>186.3</ele>
        <time>2025-02-26T09:47:16Z</time>
      </trkpt>
      <trkpt lat="48.06797" lon="-3.53099">
        <ele>186.3</ele>
        <time>2025-02-26T09:47:17Z</time>
      </trkpt>
      <trkpt lat="48.06796" lon="-3.53098">
        <ele>186.2</ele>
        <time>2025-02-26T09:47:18Z</time>
      </trkpt>
      <trkpt lat="48.06796" lon="-3.53096">
        <ele>186.1</ele>
        <time>2025-02-26T09:47:19Z</time>
      </trkpt>
      <trkpt lat="48.06796" lon="-3.53094">
        <ele>186</ele>
        <time>2025-02-26T09:47:20Z</time>
      </trkpt>
      <trkpt lat="48.06796" lon="-3.53093">
        <ele>186</ele>
        <time>2025-02-26T09:47:21Z</time>
      </trkpt>
      <trkpt lat="48.06796" lon="-3.53091">
        <ele>185.9</ele>
        <time>2025-02-26T09:47:22Z</time>
      </trkpt>
      <trkpt lat="48.06795" lon="-3.53089">
        <ele>185.8</ele>
        <time>2025-02-26T09:47:23Z</time>
      </trkpt>
      <trkpt lat="48.06795" lon="-3.53087">
        <ele>185.8</ele>
        <time>2025-02-26T09:47:24Z</time>
      </trkpt>
      <trkpt lat="48.06795" lon="-3.53085">
        <ele>185.7</ele>
        <time>2025-02-26T09:47:25Z</time>
      </trkpt>
      <trkpt lat="48.06795" lon="-3.53083">
        <ele>185.6</ele>
        <time>2025-02-26T09:47:26Z</time>
      </trkpt>
      <trkpt lat="48.06795" lon="-3.53081">
        <ele>185.6</ele>
        <time>2025-02-26T09:47:27Z</time>
      </trkpt>
      <trkpt lat="48.06795" lon="-3.53079">
        <ele>185.6</ele>
        <time>2025-02-26T09:47:28Z</time>
      </trkpt>
      <trkpt lat="48.06795" lon="-3.53078">
        <ele>185.6</ele>
        <time>2025-02-26T09:47:29Z</time>
      </trkpt>
      <trkpt lat="48.06795" lon="-3.53076">
        <ele>185.6</ele>
        <time>2025-02-26T09:47:30Z</time>
      </trkpt>
      <trkpt lat="48.06796" lon="-3.53075">
        <ele>185.6</ele>
        <time>2025-02-26T09:47:31Z</time>
      </trkpt>
      <trkpt lat="48.06796" lon="-3.53073">
        <ele>185.5</ele>
        <time>2025-02-26T09:47:32Z</time>
      </trkpt>
      <trkpt lat="48.06796" lon="-3.53072">
        <ele>185.5</ele>
        <time>2025-02-26T09:47:33Z</time>
      </trkpt>
      <trkpt lat="48.06796" lon="-3.5307">
        <ele>185.5</ele>
        <time>2025-02-26T09:47:34Z</time>
      </trkpt>
      <trkpt lat="48.06796" lon="-3.53068">
        <ele>185.5</ele>
        <time>2025-02-26T09:47:35Z</time>
      </trkpt>
      <trkpt lat="48.06796" lon="-3.53066">
        <ele>185.5</ele>
        <time>2025-02-26T09:47:36Z</time>
      </trkpt>
      <trkpt lat="48.06796" lon="-3.53064">
        <ele>185.4</ele>
        <time>2025-02-26T09:47:37Z</time>
      </trkpt>
      <trkpt lat="48.06796" lon="-3.53062">
        <ele>185.4</ele>
        <time>2025-02-26T09:47:38Z</time>
      </trkpt>
      <trkpt lat="48.06795" lon="-3.5306">
        <ele>185.4</ele>
        <time>2025-02-26T09:47:39Z</time>
      </trkpt>
      <trkpt lat="48.06795" lon="-3.53059">
        <ele>185.4</ele>
        <time>2025-02-26T09:47:40Z</time>
      </trkpt>
      <trkpt lat="48.06795" lon="-3.53057">
        <ele>185.4</ele>
        <time>2025-02-26T09:47:41Z</time>
      </trkpt>
      <trkpt lat="48.06795" lon="-3.53056">
        <ele>185.4</ele>
        <time>2025-02-26T09:47:42Z</time>
      </trkpt>
      <trkpt lat="48.06795" lon="-3.53054">
        <ele>185.4</ele>
        <time>2025-02-26T09:47:43Z</time>
      </trkpt>
      <trkpt lat="48.06795" lon="-3.53052">
        <ele>185.4</ele>
        <time>2025-02-26T09:47:44Z</time>
      </trkpt>
      <trkpt lat="48.06796" lon="-3.5305">
        <ele>185.5</ele>
        <time>2025-02-26T09:47:45Z</time>
      </trkpt>
      <trkpt lat="48.06796" lon="-3.53049">
        <ele>185.5</ele>
        <time>2025-02-26T09:47:46Z</time>
      </trkpt>
      <trkpt lat="48.06795" lon="-3.53047">
        <ele>185.6</ele>
        <time>2025-02-26T09:47:47Z</time>
      </trkpt>
      <trkpt lat="48.06795" lon="-3.53046">
        <ele>185.6</ele>
        <time>2025-02-26T09:47:48Z</time>
      </trkpt>
      <trkpt lat="48.06795" lon="-3.53044">
        <ele>185.7</ele>
        <time>2025-02-26T09:47:49Z</time>
      </trkpt>
      <trkpt lat="48.06795" lon="-3.53042">
        <ele>185.7</ele>
        <time>2025-02-26T09:47:50Z</time>
      </trkpt>
      <trkpt lat="48.06795" lon="-3.53041">
        <ele>185.7</ele>
        <time>2025-02-26T09:47:51Z</time>
      </trkpt>
      <trkpt lat="48.06795" lon="-3.53039">
        <ele>185.8</ele>
        <time>2025-02-26T09:47:52Z</time>
      </trkpt>
      <trkpt lat="48.06795" lon="-3.53038">
        <ele>185.8</ele>
        <time>2025-02-26T09:47:53Z</time>
      </trkpt>
      <trkpt lat="48.06794" lon="-3.53036">
        <ele>185.8</ele>
        <time>2025-02-26T09:47:54Z</time>
      </trkpt>
      <trkpt lat="48.06795" lon="-3.53034">
        <ele>185.9</ele>
        <time>2025-02-26T09:47:55Z</time>
      </trkpt>
      <trkpt lat="48.06795" lon="-3.53032">
        <ele>185.9</ele>
        <time>2025-02-26T09:47:56Z</time>
      </trkpt>
      <trkpt lat="48.06796" lon="-3.5303">
        <ele>185.9</ele>
        <time>2025-02-26T09:47:57Z</time>
      </trkpt>
      <trkpt lat="48.06796" lon="-3.53029">
        <ele>186</ele>
        <time>2025-02-26T09:47:58Z</time>
      </trkpt>
      <trkpt lat="48.06796" lon="-3.53027">
        <ele>186</ele>
        <time>2025-02-26T09:47:59Z</time>
      </trkpt>
      <trkpt lat="48.06795" lon="-3.53025">
        <ele>186.1</ele>
        <time>2025-02-26T09:48:00Z</time>
      </trkpt>
      <trkpt lat="48.06795" lon="-3.53024">
        <ele>186.1</ele>
        <time>2025-02-26T09:48:01Z</time>
      </trkpt>
      <trkpt lat="48.06794" lon="-3.53022">
        <ele>186.2</ele>
        <time>2025-02-26T09:48:02Z</time>
      </trkpt>
      <trkpt lat="48.06794" lon="-3.53021">
        <ele>186.3</ele>
        <time>2025-02-26T09:48:03Z</time>
      </trkpt>
      <trkpt lat="48.06794" lon="-3.53019">
        <ele>186.3</ele>
        <time>2025-02-26T09:48:04Z</time>
      </trkpt>
      <trkpt lat="48.06794" lon="-3.53017">
        <ele>186.4</ele>
        <time>2025-02-26T09:48:05Z</time>
      </trkpt>
      <trkpt lat="48.06794" lon="-3.53016">
        <ele>186.4</ele>
        <time>2025-02-26T09:48:06Z</time>
      </trkpt>
      <trkpt lat="48.06793" lon="-3.53015">
        <ele>186.5</ele>
        <time>2025-02-26T09:48:07Z</time>
      </trkpt>
      <trkpt lat="48.06792" lon="-3.53014">
        <ele>186.5</ele>
        <time>2025-02-26T09:48:08Z</time>
      </trkpt>
      <trkpt lat="48.06792" lon="-3.53012">
        <ele>186.6</ele>
        <time>2025-02-26T09:48:09Z</time>
      </trkpt>
      <trkpt lat="48.06791" lon="-3.53011">
        <ele>186.6</ele>
        <time>2025-02-26T09:48:10Z</time>
      </trkpt>
      <trkpt lat="48.06791" lon="-3.5301">
        <ele>186.6</ele>
        <time>2025-02-26T09:48:11Z</time>
      </trkpt>
      <trkpt lat="48.0679" lon="-3.53008">
        <ele>186.7</ele>
        <time>2025-02-26T09:48:12Z</time>
      </trkpt>
      <trkpt lat="48.0679" lon="-3.53007">
        <ele>186.8</ele>
        <time>2025-02-26T09:48:13Z</time>
      </trkpt>
      <trkpt lat="48.06789" lon="-3.53006">
        <ele>186.8</ele>
        <time>2025-02-26T09:48:14Z</time>
      </trkpt>
      <trkpt lat="48.06789" lon="-3.53005">
        <ele>186.8</ele>
        <time>2025-02-26T09:48:15Z</time>
      </trkpt>
      <trkpt lat="48.06788" lon="-3.53004">
        <ele>186.9</ele>
        <time>2025-02-26T09:48:16Z</time>
      </trkpt>
      <trkpt lat="48.06788" lon="-3.53002">
        <ele>186.9</ele>
        <time>2025-02-26T09:48:17Z</time>
      </trkpt>
      <trkpt lat="48.06788" lon="-3.53002">
        <ele>186.9</ele>
        <time>2025-02-26T09:48:18Z</time>
      </trkpt>
      <trkpt lat="48.06787" lon="-3.53002">
        <ele>186.9</ele>
        <time>2025-02-26T09:48:19Z</time>
      </trkpt>
      <trkpt lat="48.06787" lon="-3.53003">
        <ele>186.9</ele>
        <time>2025-02-26T09:48:20Z</time>
      </trkpt>
      <trkpt lat="48.06787" lon="-3.53003">
        <ele>186.9</ele>
        <time>2025-02-26T09:48:21Z</time>
      </trkpt>
      <trkpt lat="48.06787" lon="-3.53003">
        <ele>186.9</ele>
        <time>2025-02-26T09:48:22Z</time>
      </trkpt>
      <trkpt lat="48.06787" lon="-3.53003">
        <ele>186.9</ele>
        <time>2025-02-26T09:48:23Z</time>
      </trkpt>
      <trkpt lat="48.06787" lon="-3.53003">
        <ele>186.9</ele>
        <time>2025-02-26T09:48:24Z</time>
      </trkpt>
      <trkpt lat="48.06787" lon="-3.53003">
        <ele>186.9</ele>
        <time>2025-02-26T09:48:25Z</time>
      </trkpt>
      <trkpt lat="48.06788" lon="-3.53003">
        <ele>186.9</ele>
        <time>2025-02-26T09:48:26Z</time>
      </trkpt>
      <trkpt lat="48.06788" lon="-3.53004">
        <ele>186.9</ele>
        <time>2025-02-26T09:48:27Z</time>
      </trkpt>
      <trkpt lat="48.06788" lon="-3.53005">
        <ele>186.8</ele>
        <time>2025-02-26T09:48:28Z</time>
      </trkpt>
      <trkpt lat="48.06788" lon="-3.53004">
        <ele>186.8</ele>
        <time>2025-02-26T09:48:29Z</time>
      </trkpt>
      <trkpt lat="48.06788" lon="-3.53003">
        <ele>186.9</ele>
        <time>2025-02-26T09:48:30Z</time>
      </trkpt>
      <trkpt lat="48.06787" lon="-3.53002">
        <ele>186.9</ele>
        <time>2025-02-26T09:48:31Z</time>
      </trkpt>
      <trkpt lat="48.06788" lon="-3.53001">
        <ele>187</ele>
        <time>2025-02-26T09:48:32Z</time>
      </trkpt>
      <trkpt lat="48.06788" lon="-3.53">
        <ele>187</ele>
        <time>2025-02-26T09:48:33Z</time>
      </trkpt>
      <trkpt lat="48.06788" lon="-3.52999">
        <ele>187</ele>
        <time>2025-02-26T09:48:34Z</time>
      </trkpt>
      <trkpt lat="48.06789" lon="-3.52998">
        <ele>187</ele>
        <time>2025-02-26T09:48:35Z</time>
      </trkpt>
      <trkpt lat="48.06789" lon="-3.52997">
        <ele>187.1</ele>
        <time>2025-02-26T09:48:36Z</time>
      </trkpt>
      <trkpt lat="48.06789" lon="-3.52996">
        <ele>187.1</ele>
        <time>2025-02-26T09:48:37Z</time>
      </trkpt>
      <trkpt lat="48.06789" lon="-3.52995">
        <ele>187.1</ele>
        <time>2025-02-26T09:48:38Z</time>
      </trkpt>
      <trkpt lat="48.06788" lon="-3.52994">
        <ele>187.1</ele>
        <time>2025-02-26T09:48:39Z</time>
      </trkpt>
      <trkpt lat="48.06788" lon="-3.52993">
        <ele>187.2</ele>
        <time>2025-02-26T09:48:40Z</time>
      </trkpt>
      <trkpt lat="48.06788" lon="-3.52991">
        <ele>187.2</ele>
        <time>2025-02-26T09:48:41Z</time>
      </trkpt>
      <trkpt lat="48.06787" lon="-3.5299">
        <ele>187.2</ele>
        <time>2025-02-26T09:48:42Z</time>
      </trkpt>
      <trkpt lat="48.06786" lon="-3.52989">
        <ele>187.3</ele>
        <time>2025-02-26T09:48:43Z</time>
      </trkpt>
      <trkpt lat="48.06785" lon="-3.52989">
        <ele>187.3</ele>
        <time>2025-02-26T09:48:44Z</time>
      </trkpt>
      <trkpt lat="48.06785" lon="-3.52988">
        <ele>187.3</ele>
        <time>2025-02-26T09:48:45Z</time>
      </trkpt>
      <trkpt lat="48.06785" lon="-3.52987">
        <ele>187.3</ele>
        <time>2025-02-26T09:48:46Z</time>
      </trkpt>
      <trkpt lat="48.06785" lon="-3.52987">
        <ele>187.4</ele>
        <time>2025-02-26T09:48:47Z</time>
      </trkpt>
      <trkpt lat="48.06784" lon="-3.52986">
        <ele>187.4</ele>
        <time>2025-02-26T09:48:48Z</time>
      </trkpt>
      <trkpt lat="48.06784" lon="-3.52985">
        <ele>187.4</ele>
        <time>2025-02-26T09:48:49Z</time>
      </trkpt>
      <trkpt lat="48.06784" lon="-3.52983">
        <ele>187.5</ele>
        <time>2025-02-26T09:48:50Z</time>
      </trkpt>
      <trkpt lat="48.06783" lon="-3.52982">
        <ele>187.5</ele>
        <time>2025-02-26T09:48:51Z</time>
      </trkpt>
      <trkpt lat="48.06783" lon="-3.52981">
        <ele>187.6</ele>
        <time>2025-02-26T09:48:52Z</time>
      </trkpt>
      <trkpt lat="48.06783" lon="-3.5298">
        <ele>187.6</ele>
        <time>2025-02-26T09:48:53Z</time>
      </trkpt>
      <trkpt lat="48.06783" lon="-3.52979">
        <ele>187.6</ele>
        <time>2025-02-26T09:48:54Z</time>
      </trkpt>
      <trkpt lat="48.06782" lon="-3.52977">
        <ele>187.7</ele>
        <time>2025-02-26T09:48:55Z</time>
      </trkpt>
      <trkpt lat="48.06782" lon="-3.52976">
        <ele>187.7</ele>
        <time>2025-02-26T09:48:56Z</time>
      </trkpt>
      <trkpt lat="48.06782" lon="-3.52974">
        <ele>187.8</ele>
        <time>2025-02-26T09:48:57Z</time>
      </trkpt>
      <trkpt lat="48.06781" lon="-3.52972">
        <ele>187.9</ele>
        <time>2025-02-26T09:48:58Z</time>
      </trkpt>
      <trkpt lat="48.0678" lon="-3.52971">
        <ele>187.9</ele>
        <time>2025-02-26T09:48:59Z</time>
      </trkpt>
      <trkpt lat="48.06779" lon="-3.5297">
        <ele>187.9</ele>
        <time>2025-02-26T09:49:00Z</time>
      </trkpt>
      <trkpt lat="48.06778" lon="-3.52969">
        <ele>188</ele>
        <time>2025-02-26T09:49:01Z</time>
      </trkpt>
      <trkpt lat="48.06778" lon="-3.52967">
        <ele>188</ele>
        <time>2025-02-26T09:49:02Z</time>
      </trkpt>
      <trkpt lat="48.06777" lon="-3.52965">
        <ele>188</ele>
        <time>2025-02-26T09:49:03Z</time>
      </trkpt>
      <trkpt lat="48.06777" lon="-3.52963">
        <ele>188</ele>
        <time>2025-02-26T09:49:04Z</time>
      </trkpt>
      <trkpt lat="48.06777" lon="-3.52962">
        <ele>188</ele>
        <time>2025-02-26T09:49:05Z</time>
      </trkpt>
      <trkpt lat="48.06776" lon="-3.5296">
        <ele>188.1</ele>
        <time>2025-02-26T09:49:06Z</time>
      </trkpt>
      <trkpt lat="48.06775" lon="-3.52959">
        <ele>188.1</ele>
        <time>2025-02-26T09:49:07Z</time>
      </trkpt>
      <trkpt lat="48.06774" lon="-3.52958">
        <ele>188.1</ele>
        <time>2025-02-26T09:49:08Z</time>
      </trkpt>
      <trkpt lat="48.06774" lon="-3.52957">
        <ele>188.2</ele>
        <time>2025-02-26T09:49:09Z</time>
      </trkpt>
      <trkpt lat="48.06773" lon="-3.52956">
        <ele>188.2</ele>
        <time>2025-02-26T09:49:10Z</time>
      </trkpt>
      <trkpt lat="48.06772" lon="-3.52955">
        <ele>188.2</ele>
        <time>2025-02-26T09:49:11Z</time>
      </trkpt>
      <trkpt lat="48.06771" lon="-3.52954">
        <ele>188.2</ele>
        <time>2025-02-26T09:49:12Z</time>
      </trkpt>
      <trkpt lat="48.06771" lon="-3.52952">
        <ele>188.3</ele>
        <time>2025-02-26T09:49:13Z</time>
      </trkpt>
      <trkpt lat="48.0677" lon="-3.52951">
        <ele>188.3</ele>
        <time>2025-02-26T09:49:14Z</time>
      </trkpt>
      <trkpt lat="48.0677" lon="-3.5295">
        <ele>188.3</ele>
        <time>2025-02-26T09:49:15Z</time>
      </trkpt>
      <trkpt lat="48.0677" lon="-3.52948">
        <ele>188.3</ele>
        <time>2025-02-26T09:49:16Z</time>
      </trkpt>
      <trkpt lat="48.0677" lon="-3.52947">
        <ele>188.3</ele>
        <time>2025-02-26T09:49:17Z</time>
      </trkpt>
      <trkpt lat="48.0677" lon="-3.52946">
        <ele>188.3</ele>
        <time>2025-02-26T09:49:18Z</time>
      </trkpt>
      <trkpt lat="48.0677" lon="-3.52945">
        <ele>188.3</ele>
        <time>2025-02-26T09:49:19Z</time>
      </trkpt>
      <trkpt lat="48.06769" lon="-3.52944">
        <ele>188.3</ele>
        <time>2025-02-26T09:49:20Z</time>
      </trkpt>
      <trkpt lat="48.06768" lon="-3.52943">
        <ele>188.4</ele>
        <time>2025-02-26T09:49:21Z</time>
      </trkpt>
      <trkpt lat="48.06768" lon="-3.52942">
        <ele>188.4</ele>
        <time>2025-02-26T09:49:22Z</time>
      </trkpt>
      <trkpt lat="48.06768" lon="-3.52941">
        <ele>188.5</ele>
        <time>2025-02-26T09:49:23Z</time>
      </trkpt>
      <trkpt lat="48.06767" lon="-3.52939">
        <ele>188.6</ele>
        <time>2025-02-26T09:49:24Z</time>
      </trkpt>
      <trkpt lat="48.06766" lon="-3.52938">
        <ele>188.6</ele>
        <time>2025-02-26T09:49:25Z</time>
      </trkpt>
      <trkpt lat="48.06766" lon="-3.52937">
        <ele>188.7</ele>
        <time>2025-02-26T09:49:26Z</time>
      </trkpt>
      <trkpt lat="48.06765" lon="-3.52937">
        <ele>188.7</ele>
        <time>2025-02-26T09:49:27Z</time>
      </trkpt>
      <trkpt lat="48.06764" lon="-3.52936">
        <ele>188.8</ele>
        <time>2025-02-26T09:49:28Z</time>
      </trkpt>
      <trkpt lat="48.06764" lon="-3.52935">
        <ele>188.9</ele>
        <time>2025-02-26T09:49:29Z</time>
      </trkpt>
      <trkpt lat="48.06763" lon="-3.52934">
        <ele>188.9</ele>
        <time>2025-02-26T09:49:30Z</time>
      </trkpt>
      <trkpt lat="48.06763" lon="-3.52933">
        <ele>188.9</ele>
        <time>2025-02-26T09:49:31Z</time>
      </trkpt>
      <trkpt lat="48.06763" lon="-3.52932">
        <ele>189</ele>
        <time>2025-02-26T09:49:32Z</time>
      </trkpt>
      <trkpt lat="48.06763" lon="-3.52931">
        <ele>189</ele>
        <time>2025-02-26T09:49:33Z</time>
      </trkpt>
      <trkpt lat="48.06762" lon="-3.5293">
        <ele>189.1</ele>
        <time>2025-02-26T09:49:34Z</time>
      </trkpt>
      <trkpt lat="48.06761" lon="-3.52929">
        <ele>189.1</ele>
        <time>2025-02-26T09:49:35Z</time>
      </trkpt>
      <trkpt lat="48.06761" lon="-3.52927">
        <ele>189.2</ele>
        <time>2025-02-26T09:49:36Z</time>
      </trkpt>
      <trkpt lat="48.0676" lon="-3.52925">
        <ele>189.3</ele>
        <time>2025-02-26T09:49:37Z</time>
      </trkpt>
      <trkpt lat="48.0676" lon="-3.52923">
        <ele>189.4</ele>
        <time>2025-02-26T09:49:38Z</time>
      </trkpt>
      <trkpt lat="48.06759" lon="-3.52922">
        <ele>189.5</ele>
        <time>2025-02-26T09:49:39Z</time>
      </trkpt>
      <trkpt lat="48.06758" lon="-3.5292">
        <ele>189.6</ele>
        <time>2025-02-26T09:49:40Z</time>
      </trkpt>
      <trkpt lat="48.06757" lon="-3.52919">
        <ele>189.6</ele>
        <time>2025-02-26T09:49:41Z</time>
      </trkpt>
      <trkpt lat="48.06757" lon="-3.52918">
        <ele>189.7</ele>
        <time>2025-02-26T09:49:42Z</time>
      </trkpt>
      <trkpt lat="48.06756" lon="-3.52916">
        <ele>189.8</ele>
        <time>2025-02-26T09:49:43Z</time>
      </trkpt>
      <trkpt lat="48.06756" lon="-3.52915">
        <ele>189.8</ele>
        <time>2025-02-26T09:49:44Z</time>
      </trkpt>
      <trkpt lat="48.06755" lon="-3.52914">
        <ele>189.8</ele>
        <time>2025-02-26T09:49:45Z</time>
      </trkpt>
      <trkpt lat="48.06755" lon="-3.52912">
        <ele>189.9</ele>
        <time>2025-02-26T09:49:46Z</time>
      </trkpt>
      <trkpt lat="48.06754" lon="-3.5291">
        <ele>189.9</ele>
        <time>2025-02-26T09:49:47Z</time>
      </trkpt>
      <trkpt lat="48.06754" lon="-3.52909">
        <ele>189.9</ele>
        <time>2025-02-26T09:49:48Z</time>
      </trkpt>
      <trkpt lat="48.06753" lon="-3.52907">
        <ele>189.9</ele>
        <time>2025-02-26T09:49:49Z</time>
      </trkpt>
      <trkpt lat="48.06753" lon="-3.52906">
        <ele>189.9</ele>
        <time>2025-02-26T09:49:50Z</time>
      </trkpt>
      <trkpt lat="48.06752" lon="-3.52904">
        <ele>190</ele>
        <time>2025-02-26T09:49:51Z</time>
      </trkpt>
      <trkpt lat="48.06752" lon="-3.52902">
        <ele>190</ele>
        <time>2025-02-26T09:49:52Z</time>
      </trkpt>
      <trkpt lat="48.06751" lon="-3.52901">
        <ele>190</ele>
        <time>2025-02-26T09:49:53Z</time>
      </trkpt>
      <trkpt lat="48.0675" lon="-3.529">
        <ele>190</ele>
        <time>2025-02-26T09:49:54Z</time>
      </trkpt>
      <trkpt lat="48.0675" lon="-3.52899">
        <ele>190</ele>
        <time>2025-02-26T09:49:55Z</time>
      </trkpt>
      <trkpt lat="48.06749" lon="-3.52897">
        <ele>190</ele>
        <time>2025-02-26T09:49:56Z</time>
      </trkpt>
      <trkpt lat="48.06751" lon="-3.52897">
        <ele>190</ele>
        <time>2025-02-26T09:49:57Z</time>
      </trkpt>
      <trkpt lat="48.0675" lon="-3.52895">
        <ele>190</ele>
        <time>2025-02-26T09:49:58Z</time>
      </trkpt>
      <trkpt lat="48.0675" lon="-3.52893">
        <ele>190</ele>
        <time>2025-02-26T09:49:59Z</time>
      </trkpt>
      <trkpt lat="48.06749" lon="-3.52893">
        <ele>190</ele>
        <time>2025-02-26T09:50:00Z</time>
      </trkpt>
      <trkpt lat="48.06749" lon="-3.52892">
        <ele>190</ele>
        <time>2025-02-26T09:50:01Z</time>
      </trkpt>
      <trkpt lat="48.06748" lon="-3.52891">
        <ele>190.1</ele>
        <time>2025-02-26T09:50:02Z</time>
      </trkpt>
      <trkpt lat="48.06747" lon="-3.5289">
        <ele>190.1</ele>
        <time>2025-02-26T09:50:03Z</time>
      </trkpt>
      <trkpt lat="48.06747" lon="-3.52889">
        <ele>190.1</ele>
        <time>2025-02-26T09:50:04Z</time>
      </trkpt>
      <trkpt lat="48.06746" lon="-3.52888">
        <ele>190.2</ele>
        <time>2025-02-26T09:50:05Z</time>
      </trkpt>
      <trkpt lat="48.06746" lon="-3.52886">
        <ele>190.2</ele>
        <time>2025-02-26T09:50:06Z</time>
      </trkpt>
      <trkpt lat="48.06746" lon="-3.52885">
        <ele>190.3</ele>
        <time>2025-02-26T09:50:07Z</time>
      </trkpt>
      <trkpt lat="48.06746" lon="-3.52883">
        <ele>190.3</ele>
        <time>2025-02-26T09:50:08Z</time>
      </trkpt>
      <trkpt lat="48.06746" lon="-3.52882">
        <ele>190.4</ele>
        <time>2025-02-26T09:50:09Z</time>
      </trkpt>
      <trkpt lat="48.06746" lon="-3.5288">
        <ele>190.4</ele>
        <time>2025-02-26T09:50:10Z</time>
      </trkpt>
      <trkpt lat="48.06746" lon="-3.52879">
        <ele>190.5</ele>
        <time>2025-02-26T09:50:11Z</time>
      </trkpt>
      <trkpt lat="48.06745" lon="-3.52878">
        <ele>190.5</ele>
        <time>2025-02-26T09:50:12Z</time>
      </trkpt>
      <trkpt lat="48.06744" lon="-3.52876">
        <ele>190.6</ele>
        <time>2025-02-26T09:50:13Z</time>
      </trkpt>
      <trkpt lat="48.06744" lon="-3.52875">
        <ele>190.6</ele>
        <time>2025-02-26T09:50:14Z</time>
      </trkpt>
      <trkpt lat="48.06743" lon="-3.52873">
        <ele>190.7</ele>
        <time>2025-02-26T09:50:15Z</time>
      </trkpt>
      <trkpt lat="48.06743" lon="-3.52872">
        <ele>190.7</ele>
        <time>2025-02-26T09:50:16Z</time>
      </trkpt>
      <trkpt lat="48.06743" lon="-3.5287">
        <ele>190.8</ele>
        <time>2025-02-26T09:50:17Z</time>
      </trkpt>
      <trkpt lat="48.06743" lon="-3.52869">
        <ele>190.8</ele>
        <time>2025-02-26T09:50:18Z</time>
      </trkpt>
      <trkpt lat="48.06742" lon="-3.52868">
        <ele>190.8</ele>
        <time>2025-02-26T09:50:19Z</time>
      </trkpt>
      <trkpt lat="48.06742" lon="-3.52866">
        <ele>190.9</ele>
        <time>2025-02-26T09:50:20Z</time>
      </trkpt>
      <trkpt lat="48.06742" lon="-3.52865">
        <ele>190.9</ele>
        <time>2025-02-26T09:50:21Z</time>
      </trkpt>
      <trkpt lat="48.06741" lon="-3.52863">
        <ele>190.9</ele>
        <time>2025-02-26T09:50:22Z</time>
      </trkpt>
      <trkpt lat="48.06741" lon="-3.52862">
        <ele>191</ele>
        <time>2025-02-26T09:50:23Z</time>
      </trkpt>
      <trkpt lat="48.0674" lon="-3.52861">
        <ele>191</ele>
        <time>2025-02-26T09:50:24Z</time>
      </trkpt>
      <trkpt lat="48.0674" lon="-3.52859">
        <ele>191</ele>
        <time>2025-02-26T09:50:25Z</time>
      </trkpt>
      <trkpt lat="48.0674" lon="-3.52858">
        <ele>191</ele>
        <time>2025-02-26T09:50:26Z</time>
      </trkpt>
      <trkpt lat="48.06739" lon="-3.52856">
        <ele>191.1</ele>
        <time>2025-02-26T09:50:27Z</time>
      </trkpt>
      <trkpt lat="48.06739" lon="-3.52854">
        <ele>191.1</ele>
        <time>2025-02-26T09:50:28Z</time>
      </trkpt>
      <trkpt lat="48.06739" lon="-3.52853">
        <ele>191.1</ele>
        <time>2025-02-26T09:50:29Z</time>
      </trkpt>
      <trkpt lat="48.06737" lon="-3.52851">
        <ele>191.2</ele>
        <time>2025-02-26T09:50:30Z</time>
      </trkpt>
      <trkpt lat="48.06736" lon="-3.52849">
        <ele>191.2</ele>
        <time>2025-02-26T09:50:31Z</time>
      </trkpt>
      <trkpt lat="48.06736" lon="-3.52847">
        <ele>191.3</ele>
        <time>2025-02-26T09:50:32Z</time>
      </trkpt>
      <trkpt lat="48.06736" lon="-3.52845">
        <ele>191.3</ele>
        <time>2025-02-26T09:50:33Z</time>
      </trkpt>
      <trkpt lat="48.06736" lon="-3.52844">
        <ele>191.3</ele>
        <time>2025-02-26T09:50:34Z</time>
      </trkpt>
      <trkpt lat="48.06735" lon="-3.52843">
        <ele>191.4</ele>
        <time>2025-02-26T09:50:35Z</time>
      </trkpt>
      <trkpt lat="48.06735" lon="-3.52841">
        <ele>191.4</ele>
        <time>2025-02-26T09:50:36Z</time>
      </trkpt>
      <trkpt lat="48.06734" lon="-3.5284">
        <ele>191.4</ele>
        <time>2025-02-26T09:50:37Z</time>
      </trkpt>
      <trkpt lat="48.06733" lon="-3.52839">
        <ele>191.5</ele>
        <time>2025-02-26T09:50:38Z</time>
      </trkpt>
      <trkpt lat="48.06733" lon="-3.52837">
        <ele>191.5</ele>
        <time>2025-02-26T09:50:39Z</time>
      </trkpt>
      <trkpt lat="48.06733" lon="-3.52836">
        <ele>191.6</ele>
        <time>2025-02-26T09:50:40Z</time>
      </trkpt>
      <trkpt lat="48.06732" lon="-3.52833">
        <ele>191.6</ele>
        <time>2025-02-26T09:50:41Z</time>
      </trkpt>
      <trkpt lat="48.06732" lon="-3.5283">
        <ele>191.7</ele>
        <time>2025-02-26T09:50:42Z</time>
      </trkpt>
      <trkpt lat="48.06731" lon="-3.52828">
        <ele>191.7</ele>
        <time>2025-02-26T09:50:43Z</time>
      </trkpt>
      <trkpt lat="48.06731" lon="-3.52827">
        <ele>191.8</ele>
        <time>2025-02-26T09:50:44Z</time>
      </trkpt>
      <trkpt lat="48.0673" lon="-3.52825">
        <ele>191.8</ele>
        <time>2025-02-26T09:50:45Z</time>
      </trkpt>
      <trkpt lat="48.0673" lon="-3.52824">
        <ele>191.8</ele>
        <time>2025-02-26T09:50:46Z</time>
      </trkpt>
      <trkpt lat="48.0673" lon="-3.52822">
        <ele>191.8</ele>
        <time>2025-02-26T09:50:47Z</time>
      </trkpt>
      <trkpt lat="48.0673" lon="-3.52821">
        <ele>191.9</ele>
        <time>2025-02-26T09:50:48Z</time>
      </trkpt>
      <trkpt lat="48.0673" lon="-3.5282">
        <ele>191.9</ele>
        <time>2025-02-26T09:50:49Z</time>
      </trkpt>
      <trkpt lat="48.06729" lon="-3.52818">
        <ele>191.9</ele>
        <time>2025-02-26T09:50:50Z</time>
      </trkpt>
      <trkpt lat="48.06729" lon="-3.52817">
        <ele>191.9</ele>
        <time>2025-02-26T09:50:51Z</time>
      </trkpt>
      <trkpt lat="48.06728" lon="-3.52815">
        <ele>191.9</ele>
        <time>2025-02-26T09:50:52Z</time>
      </trkpt>
      <trkpt lat="48.06728" lon="-3.52814">
        <ele>191.9</ele>
        <time>2025-02-26T09:50:53Z</time>
      </trkpt>
      <trkpt lat="48.06727" lon="-3.52812">
        <ele>192</ele>
        <time>2025-02-26T09:50:54Z</time>
      </trkpt>
      <trkpt lat="48.06727" lon="-3.52811">
        <ele>192</ele>
        <time>2025-02-26T09:50:55Z</time>
      </trkpt>
      <trkpt lat="48.06727" lon="-3.52809">
        <ele>192</ele>
        <time>2025-02-26T09:50:56Z</time>
      </trkpt>
      <trkpt lat="48.06728" lon="-3.52807">
        <ele>192</ele>
        <time>2025-02-26T09:50:57Z</time>
      </trkpt>
      <trkpt lat="48.06727" lon="-3.52806">
        <ele>192</ele>
        <time>2025-02-26T09:50:58Z</time>
      </trkpt>
      <trkpt lat="48.06727" lon="-3.52805">
        <ele>192</ele>
        <time>2025-02-26T09:50:59Z</time>
      </trkpt>
      <trkpt lat="48.06726" lon="-3.52803">
        <ele>192</ele>
        <time>2025-02-26T09:51:00Z</time>
      </trkpt>
      <trkpt lat="48.06726" lon="-3.52801">
        <ele>192</ele>
        <time>2025-02-26T09:51:01Z</time>
      </trkpt>
      <trkpt lat="48.06725" lon="-3.528">
        <ele>192</ele>
        <time>2025-02-26T09:51:02Z</time>
      </trkpt>
      <trkpt lat="48.06725" lon="-3.52799">
        <ele>192</ele>
        <time>2025-02-26T09:51:03Z</time>
      </trkpt>
      <trkpt lat="48.06724" lon="-3.52797">
        <ele>192</ele>
        <time>2025-02-26T09:51:04Z</time>
      </trkpt>
      <trkpt lat="48.06724" lon="-3.52795">
        <ele>192</ele>
        <time>2025-02-26T09:51:05Z</time>
      </trkpt>
      <trkpt lat="48.06723" lon="-3.52794">
        <ele>192</ele>
        <time>2025-02-26T09:51:06Z</time>
      </trkpt>
      <trkpt lat="48.06723" lon="-3.52792">
        <ele>192</ele>
        <time>2025-02-26T09:51:07Z</time>
      </trkpt>
      <trkpt lat="48.06722" lon="-3.52791">
        <ele>192</ele>
        <time>2025-02-26T09:51:08Z</time>
      </trkpt>
      <trkpt lat="48.06722" lon="-3.5279">
        <ele>192</ele>
        <time>2025-02-26T09:51:09Z</time>
      </trkpt>
      <trkpt lat="48.06721" lon="-3.52788">
        <ele>192</ele>
        <time>2025-02-26T09:51:10Z</time>
      </trkpt>
      <trkpt lat="48.06721" lon="-3.52786">
        <ele>192</ele>
        <time>2025-02-26T09:51:11Z</time>
      </trkpt>
      <trkpt lat="48.06721" lon="-3.52785">
        <ele>192</ele>
        <time>2025-02-26T09:51:12Z</time>
      </trkpt>
      <trkpt lat="48.06721" lon="-3.52783">
        <ele>192</ele>
        <time>2025-02-26T09:51:13Z</time>
      </trkpt>
      <trkpt lat="48.0672" lon="-3.52782">
        <ele>192</ele>
        <time>2025-02-26T09:51:14Z</time>
      </trkpt>
      <trkpt lat="48.0672" lon="-3.5278">
        <ele>192</ele>
        <time>2025-02-26T09:51:15Z</time>
      </trkpt>
      <trkpt lat="48.06719" lon="-3.52779">
        <ele>192</ele>
        <time>2025-02-26T09:51:16Z</time>
      </trkpt>
      <trkpt lat="48.06718" lon="-3.52778">
        <ele>192</ele>
        <time>2025-02-26T09:51:17Z</time>
      </trkpt>
      <trkpt lat="48.06718" lon="-3.52777">
        <ele>192</ele>
        <time>2025-02-26T09:51:18Z</time>
      </trkpt>
      <trkpt lat="48.06718" lon="-3.52775">
        <ele>192.1</ele>
        <time>2025-02-26T09:51:19Z</time>
      </trkpt>
      <trkpt lat="48.06718" lon="-3.52773">
        <ele>192.2</ele>
        <time>2025-02-26T09:51:20Z</time>
      </trkpt>
      <trkpt lat="48.06718" lon="-3.52771">
        <ele>192.2</ele>
        <time>2025-02-26T09:51:21Z</time>
      </trkpt>
      <trkpt lat="48.06716" lon="-3.5277">
        <ele>192.3</ele>
        <time>2025-02-26T09:51:22Z</time>
      </trkpt>
      <trkpt lat="48.06716" lon="-3.52768">
        <ele>192.4</ele>
        <time>2025-02-26T09:51:23Z</time>
      </trkpt>
      <trkpt lat="48.06715" lon="-3.52766">
        <ele>192.4</ele>
        <time>2025-02-26T09:51:24Z</time>
      </trkpt>
      <trkpt lat="48.06715" lon="-3.52765">
        <ele>192.5</ele>
        <time>2025-02-26T09:51:25Z</time>
      </trkpt>
      <trkpt lat="48.06715" lon="-3.52763">
        <ele>192.5</ele>
        <time>2025-02-26T09:51:26Z</time>
      </trkpt>
      <trkpt lat="48.06715" lon="-3.52761">
        <ele>192.6</ele>
        <time>2025-02-26T09:51:27Z</time>
      </trkpt>
      <trkpt lat="48.06715" lon="-3.52759">
        <ele>192.7</ele>
        <time>2025-02-26T09:51:28Z</time>
      </trkpt>
      <trkpt lat="48.06715" lon="-3.52758">
        <ele>192.7</ele>
        <time>2025-02-26T09:51:29Z</time>
      </trkpt>
      <trkpt lat="48.06715" lon="-3.52756">
        <ele>192.8</ele>
        <time>2025-02-26T09:51:30Z</time>
      </trkpt>
      <trkpt lat="48.06715" lon="-3.52754">
        <ele>192.8</ele>
        <time>2025-02-26T09:51:31Z</time>
      </trkpt>
      <trkpt lat="48.06715" lon="-3.52753">
        <ele>192.9</ele>
        <time>2025-02-26T09:51:32Z</time>
      </trkpt>
      <trkpt lat="48.06715" lon="-3.52751">
        <ele>193</ele>
        <time>2025-02-26T09:51:33Z</time>
      </trkpt>
      <trkpt lat="48.06715" lon="-3.52749">
        <ele>193</ele>
        <time>2025-02-26T09:51:34Z</time>
      </trkpt>
      <trkpt lat="48.06715" lon="-3.52748">
        <ele>193</ele>
        <time>2025-02-26T09:51:35Z</time>
      </trkpt>
      <trkpt lat="48.06715" lon="-3.52746">
        <ele>193</ele>
        <time>2025-02-26T09:51:36Z</time>
      </trkpt>
      <trkpt lat="48.06715" lon="-3.52745">
        <ele>193</ele>
        <time>2025-02-26T09:51:37Z</time>
      </trkpt>
      <trkpt lat="48.06715" lon="-3.52743">
        <ele>193</ele>
        <time>2025-02-26T09:51:38Z</time>
      </trkpt>
      <trkpt lat="48.06715" lon="-3.52741">
        <ele>193</ele>
        <time>2025-02-26T09:51:39Z</time>
      </trkpt>
      <trkpt lat="48.06715" lon="-3.52739">
        <ele>193</ele>
        <time>2025-02-26T09:51:40Z</time>
      </trkpt>
      <trkpt lat="48.06715" lon="-3.52738">
        <ele>193</ele>
        <time>2025-02-26T09:51:41Z</time>
      </trkpt>
      <trkpt lat="48.06715" lon="-3.52736">
        <ele>193</ele>
        <time>2025-02-26T09:51:42Z</time>
      </trkpt>
      <trkpt lat="48.06715" lon="-3.52734">
        <ele>193</ele>
        <time>2025-02-26T09:51:43Z</time>
      </trkpt>
      <trkpt lat="48.06715" lon="-3.52733">
        <ele>193</ele>
        <time>2025-02-26T09:51:44Z</time>
      </trkpt>
      <trkpt lat="48.06715" lon="-3.52731">
        <ele>193</ele>
        <time>2025-02-26T09:51:45Z</time>
      </trkpt>
      <trkpt lat="48.06716" lon="-3.5273">
        <ele>193</ele>
        <time>2025-02-26T09:51:46Z</time>
      </trkpt>
      <trkpt lat="48.06716" lon="-3.52729">
        <ele>193</ele>
        <time>2025-02-26T09:51:47Z</time>
      </trkpt>
      <trkpt lat="48.06716" lon="-3.52727">
        <ele>193</ele>
        <time>2025-02-26T09:51:48Z</time>
      </trkpt>
      <trkpt lat="48.06717" lon="-3.52726">
        <ele>193</ele>
        <time>2025-02-26T09:51:49Z</time>
      </trkpt>
      <trkpt lat="48.06717" lon="-3.52725">
        <ele>193</ele>
        <time>2025-02-26T09:51:50Z</time>
      </trkpt>
      <trkpt lat="48.06717" lon="-3.52723">
        <ele>193</ele>
        <time>2025-02-26T09:51:51Z</time>
      </trkpt>
      <trkpt lat="48.06717" lon="-3.52722">
        <ele>193</ele>
        <time>2025-02-26T09:51:52Z</time>
      </trkpt>
      <trkpt lat="48.06717" lon="-3.5272">
        <ele>193</ele>
        <time>2025-02-26T09:51:53Z</time>
      </trkpt>
      <trkpt lat="48.06718" lon="-3.52719">
        <ele>193</ele>
        <time>2025-02-26T09:51:54Z</time>
      </trkpt>
      <trkpt lat="48.06718" lon="-3.52717">
        <ele>193</ele>
        <time>2025-02-26T09:51:55Z</time>
      </trkpt>
      <trkpt lat="48.06718" lon="-3.52715">
        <ele>193</ele>
        <time>2025-02-26T09:51:56Z</time>
      </trkpt>
      <trkpt lat="48.06718" lon="-3.52714">
        <ele>193</ele>
        <time>2025-02-26T09:51:57Z</time>
      </trkpt>
      <trkpt lat="48.06717" lon="-3.52713">
        <ele>193</ele>
        <time>2025-02-26T09:51:58Z</time>
      </trkpt>
      <trkpt lat="48.06716" lon="-3.52712">
        <ele>193</ele>
        <time>2025-02-26T09:51:59Z</time>
      </trkpt>
      <trkpt lat="48.06716" lon="-3.52711">
        <ele>193</ele>
        <time>2025-02-26T09:52:00Z</time>
      </trkpt>
      <trkpt lat="48.06715" lon="-3.52711">
        <ele>193</ele>
        <time>2025-02-26T09:52:01Z</time>
      </trkpt>
      <trkpt lat="48.06714" lon="-3.5271">
        <ele>193</ele>
        <time>2025-02-26T09:52:02Z</time>
      </trkpt>
      <trkpt lat="48.06713" lon="-3.52708">
        <ele>193</ele>
        <time>2025-02-26T09:52:03Z</time>
      </trkpt>
      <trkpt lat="48.06712" lon="-3.52707">
        <ele>193</ele>
        <time>2025-02-26T09:52:04Z</time>
      </trkpt>
      <trkpt lat="48.06711" lon="-3.52706">
        <ele>193</ele>
        <time>2025-02-26T09:52:05Z</time>
      </trkpt>
      <trkpt lat="48.06711" lon="-3.52705">
        <ele>193</ele>
        <time>2025-02-26T09:52:06Z</time>
      </trkpt>
      <trkpt lat="48.0671" lon="-3.52704">
        <ele>193</ele>
        <time>2025-02-26T09:52:07Z</time>
      </trkpt>
      <trkpt lat="48.06709" lon="-3.52703">
        <ele>193</ele>
        <time>2025-02-26T09:52:08Z</time>
      </trkpt>
      <trkpt lat="48.06708" lon="-3.52702">
        <ele>193</ele>
        <time>2025-02-26T09:52:09Z</time>
      </trkpt>
      <trkpt lat="48.06708" lon="-3.527">
        <ele>193</ele>
        <time>2025-02-26T09:52:10Z</time>
      </trkpt>
      <trkpt lat="48.06707" lon="-3.52699">
        <ele>193</ele>
        <time>2025-02-26T09:52:11Z</time>
      </trkpt>
      <trkpt lat="48.06706" lon="-3.52698">
        <ele>193</ele>
        <time>2025-02-26T09:52:12Z</time>
      </trkpt>
      <trkpt lat="48.06706" lon="-3.52696">
        <ele>193</ele>
        <time>2025-02-26T09:52:13Z</time>
      </trkpt>
      <trkpt lat="48.06705" lon="-3.52695">
        <ele>193</ele>
        <time>2025-02-26T09:52:14Z</time>
      </trkpt>
      <trkpt lat="48.06706" lon="-3.52693">
        <ele>193</ele>
        <time>2025-02-26T09:52:15Z</time>
      </trkpt>
      <trkpt lat="48.06707" lon="-3.52691">
        <ele>192.9</ele>
        <time>2025-02-26T09:52:16Z</time>
      </trkpt>
      <trkpt lat="48.06707" lon="-3.5269">
        <ele>192.9</ele>
        <time>2025-02-26T09:52:17Z</time>
      </trkpt>
      <trkpt lat="48.06707" lon="-3.52688">
        <ele>192.9</ele>
        <time>2025-02-26T09:52:18Z</time>
      </trkpt>
      <trkpt lat="48.06707" lon="-3.52687">
        <ele>192.8</ele>
        <time>2025-02-26T09:52:19Z</time>
      </trkpt>
      <trkpt lat="48.06707" lon="-3.52685">
        <ele>192.8</ele>
        <time>2025-02-26T09:52:20Z</time>
      </trkpt>
      <trkpt lat="48.06707" lon="-3.52683">
        <ele>192.8</ele>
        <time>2025-02-26T09:52:21Z</time>
      </trkpt>
      <trkpt lat="48.06707" lon="-3.52681">
        <ele>192.7</ele>
        <time>2025-02-26T09:52:22Z</time>
      </trkpt>
      <trkpt lat="48.06706" lon="-3.52679">
        <ele>192.7</ele>
        <time>2025-02-26T09:52:23Z</time>
      </trkpt>
      <trkpt lat="48.06706" lon="-3.52676">
        <ele>192.6</ele>
        <time>2025-02-26T09:52:24Z</time>
      </trkpt>
      <trkpt lat="48.06706" lon="-3.52674">
        <ele>192.6</ele>
        <time>2025-02-26T09:52:25Z</time>
      </trkpt>
      <trkpt lat="48.06705" lon="-3.52673">
        <ele>192.5</ele>
        <time>2025-02-26T09:52:26Z</time>
      </trkpt>
      <trkpt lat="48.06704" lon="-3.52671">
        <ele>192.4</ele>
        <time>2025-02-26T09:52:27Z</time>
      </trkpt>
      <trkpt lat="48.06703" lon="-3.52669">
        <ele>192.4</ele>
        <time>2025-02-26T09:52:28Z</time>
      </trkpt>
      <trkpt lat="48.06702" lon="-3.52667">
        <ele>192.3</ele>
        <time>2025-02-26T09:52:29Z</time>
      </trkpt>
      <trkpt lat="48.06702" lon="-3.52666">
        <ele>192.3</ele>
        <time>2025-02-26T09:52:30Z</time>
      </trkpt>
      <trkpt lat="48.06701" lon="-3.52665">
        <ele>192.2</ele>
        <time>2025-02-26T09:52:31Z</time>
      </trkpt>
      <trkpt lat="48.06699" lon="-3.52664">
        <ele>192.2</ele>
        <time>2025-02-26T09:52:32Z</time>
      </trkpt>
      <trkpt lat="48.06698" lon="-3.52662">
        <ele>192.1</ele>
        <time>2025-02-26T09:52:33Z</time>
      </trkpt>
      <trkpt lat="48.06698" lon="-3.52661">
        <ele>192.1</ele>
        <time>2025-02-26T09:52:34Z</time>
      </trkpt>
      <trkpt lat="48.06697" lon="-3.52659">
        <ele>192.1</ele>
        <time>2025-02-26T09:52:35Z</time>
      </trkpt>
      <trkpt lat="48.06696" lon="-3.52658">
        <ele>192</ele>
        <time>2025-02-26T09:52:36Z</time>
      </trkpt>
      <trkpt lat="48.06695" lon="-3.52656">
        <ele>192</ele>
        <time>2025-02-26T09:52:37Z</time>
      </trkpt>
      <trkpt lat="48.06694" lon="-3.52655">
        <ele>192</ele>
        <time>2025-02-26T09:52:38Z</time>
      </trkpt>
      <trkpt lat="48.06694" lon="-3.52654">
        <ele>192</ele>
        <time>2025-02-26T09:52:39Z</time>
      </trkpt>
      <trkpt lat="48.06693" lon="-3.52652">
        <ele>192</ele>
        <time>2025-02-26T09:52:40Z</time>
      </trkpt>
      <trkpt lat="48.06692" lon="-3.52651">
        <ele>192</ele>
        <time>2025-02-26T09:52:41Z</time>
      </trkpt>
      <trkpt lat="48.06691" lon="-3.5265">
        <ele>192</ele>
        <time>2025-02-26T09:52:42Z</time>
      </trkpt>
      <trkpt lat="48.0669" lon="-3.52649">
        <ele>192</ele>
        <time>2025-02-26T09:52:43Z</time>
      </trkpt>
      <trkpt lat="48.06689" lon="-3.52648">
        <ele>192</ele>
        <time>2025-02-26T09:52:44Z</time>
      </trkpt>
      <trkpt lat="48.06689" lon="-3.52646">
        <ele>192</ele>
        <time>2025-02-26T09:52:45Z</time>
      </trkpt>
      <trkpt lat="48.06688" lon="-3.52645">
        <ele>192</ele>
        <time>2025-02-26T09:52:46Z</time>
      </trkpt>
      <trkpt lat="48.06687" lon="-3.52644">
        <ele>192</ele>
        <time>2025-02-26T09:52:47Z</time>
      </trkpt>
      <trkpt lat="48.06686" lon="-3.52643">
        <ele>192</ele>
        <time>2025-02-26T09:52:48Z</time>
      </trkpt>
      <trkpt lat="48.06685" lon="-3.52642">
        <ele>192</ele>
        <time>2025-02-26T09:52:49Z</time>
      </trkpt>
      <trkpt lat="48.06684" lon="-3.52641">
        <ele>192</ele>
        <time>2025-02-26T09:52:50Z</time>
      </trkpt>
      <trkpt lat="48.06683" lon="-3.5264">
        <ele>192</ele>
        <time>2025-02-26T09:52:51Z</time>
      </trkpt>
      <trkpt lat="48.06682" lon="-3.52638">
        <ele>192</ele>
        <time>2025-02-26T09:52:52Z</time>
      </trkpt>
      <trkpt lat="48.06681" lon="-3.52637">
        <ele>192</ele>
        <time>2025-02-26T09:52:53Z</time>
      </trkpt>
      <trkpt lat="48.06681" lon="-3.52636">
        <ele>192</ele>
        <time>2025-02-26T09:52:54Z</time>
      </trkpt>
      <trkpt lat="48.0668" lon="-3.52635">
        <ele>192</ele>
        <time>2025-02-26T09:52:55Z</time>
      </trkpt>
      <trkpt lat="48.06679" lon="-3.52633">
        <ele>192</ele>
        <time>2025-02-26T09:52:56Z</time>
      </trkpt>
      <trkpt lat="48.06679" lon="-3.52632">
        <ele>192</ele>
        <time>2025-02-26T09:52:57Z</time>
      </trkpt>
      <trkpt lat="48.06678" lon="-3.5263">
        <ele>192</ele>
        <time>2025-02-26T09:52:58Z</time>
      </trkpt>
      <trkpt lat="48.06677" lon="-3.52628">
        <ele>192</ele>
        <time>2025-02-26T09:52:59Z</time>
      </trkpt>
      <trkpt lat="48.06677" lon="-3.52627">
        <ele>192</ele>
        <time>2025-02-26T09:53:00Z</time>
      </trkpt>
      <trkpt lat="48.06677" lon="-3.52625">
        <ele>192</ele>
        <time>2025-02-26T09:53:01Z</time>
      </trkpt>
      <trkpt lat="48.06677" lon="-3.52623">
        <ele>192</ele>
        <time>2025-02-26T09:53:02Z</time>
      </trkpt>
      <trkpt lat="48.06678" lon="-3.52621">
        <ele>192</ele>
        <time>2025-02-26T09:53:03Z</time>
      </trkpt>
      <trkpt lat="48.06678" lon="-3.52619">
        <ele>192</ele>
        <time>2025-02-26T09:53:04Z</time>
      </trkpt>
      <trkpt lat="48.06678" lon="-3.52618">
        <ele>192</ele>
        <time>2025-02-26T09:53:05Z</time>
      </trkpt>
      <trkpt lat="48.06678" lon="-3.52616">
        <ele>192</ele>
        <time>2025-02-26T09:53:06Z</time>
      </trkpt>
      <trkpt lat="48.06679" lon="-3.52614">
        <ele>192</ele>
        <time>2025-02-26T09:53:07Z</time>
      </trkpt>
      <trkpt lat="48.06679" lon="-3.52612">
        <ele>192</ele>
        <time>2025-02-26T09:53:08Z</time>
      </trkpt>
      <trkpt lat="48.0668" lon="-3.52611">
        <ele>192</ele>
        <time>2025-02-26T09:53:09Z</time>
      </trkpt>
      <trkpt lat="48.0668" lon="-3.52609">
        <ele>192</ele>
        <time>2025-02-26T09:53:10Z</time>
      </trkpt>
      <trkpt lat="48.0668" lon="-3.52607">
        <ele>192</ele>
        <time>2025-02-26T09:53:11Z</time>
      </trkpt>
      <trkpt lat="48.0668" lon="-3.52605">
        <ele>192</ele>
        <time>2025-02-26T09:53:12Z</time>
      </trkpt>
      <trkpt lat="48.06681" lon="-3.52604">
        <ele>192</ele>
        <time>2025-02-26T09:53:13Z</time>
      </trkpt>
      <trkpt lat="48.06681" lon="-3.52602">
        <ele>192</ele>
        <time>2025-02-26T09:53:14Z</time>
      </trkpt>
      <trkpt lat="48.06681" lon="-3.526">
        <ele>192</ele>
        <time>2025-02-26T09:53:15Z</time>
      </trkpt>
      <trkpt lat="48.06681" lon="-3.52599">
        <ele>192</ele>
        <time>2025-02-26T09:53:16Z</time>
      </trkpt>
      <trkpt lat="48.06681" lon="-3.52597">
        <ele>192</ele>
        <time>2025-02-26T09:53:17Z</time>
      </trkpt>
      <trkpt lat="48.0668" lon="-3.52595">
        <ele>192</ele>
        <time>2025-02-26T09:53:18Z</time>
      </trkpt>
      <trkpt lat="48.06681" lon="-3.52593">
        <ele>192</ele>
        <time>2025-02-26T09:53:19Z</time>
      </trkpt>
      <trkpt lat="48.06681" lon="-3.52591">
        <ele>192</ele>
        <time>2025-02-26T09:53:20Z</time>
      </trkpt>
      <trkpt lat="48.06681" lon="-3.52589">
        <ele>192</ele>
        <time>2025-02-26T09:53:21Z</time>
      </trkpt>
      <trkpt lat="48.06682" lon="-3.52587">
        <ele>192</ele>
        <time>2025-02-26T09:53:22Z</time>
      </trkpt>
      <trkpt lat="48.06682" lon="-3.52585">
        <ele>192</ele>
        <time>2025-02-26T09:53:23Z</time>
      </trkpt>
      <trkpt lat="48.06682" lon="-3.52583">
        <ele>192</ele>
        <time>2025-02-26T09:53:24Z</time>
      </trkpt>
      <trkpt lat="48.06682" lon="-3.52581">
        <ele>192</ele>
        <time>2025-02-26T09:53:25Z</time>
      </trkpt>
      <trkpt lat="48.06682" lon="-3.52579">
        <ele>191.9</ele>
        <time>2025-02-26T09:53:26Z</time>
      </trkpt>
      <trkpt lat="48.06682" lon="-3.52576">
        <ele>191.9</ele>
        <time>2025-02-26T09:53:27Z</time>
      </trkpt>
      <trkpt lat="48.06681" lon="-3.52575">
        <ele>191.9</ele>
        <time>2025-02-26T09:53:28Z</time>
      </trkpt>
      <trkpt lat="48.06681" lon="-3.52572">
        <ele>191.8</ele>
        <time>2025-02-26T09:53:29Z</time>
      </trkpt>
      <trkpt lat="48.06681" lon="-3.5257">
        <ele>191.8</ele>
        <time>2025-02-26T09:53:30Z</time>
      </trkpt>
      <trkpt lat="48.06681" lon="-3.52568">
        <ele>191.7</ele>
        <time>2025-02-26T09:53:31Z</time>
      </trkpt>
      <trkpt lat="48.0668" lon="-3.52566">
        <ele>191.7</ele>
        <time>2025-02-26T09:53:32Z</time>
      </trkpt>
      <trkpt lat="48.0668" lon="-3.52564">
        <ele>191.6</ele>
        <time>2025-02-26T09:53:33Z</time>
      </trkpt>
      <trkpt lat="48.0668" lon="-3.52562">
        <ele>191.6</ele>
        <time>2025-02-26T09:53:34Z</time>
      </trkpt>
      <trkpt lat="48.0668" lon="-3.5256">
        <ele>191.5</ele>
        <time>2025-02-26T09:53:35Z</time>
      </trkpt>
      <trkpt lat="48.06679" lon="-3.52558">
        <ele>191.5</ele>
        <time>2025-02-26T09:53:36Z</time>
      </trkpt>
      <trkpt lat="48.06679" lon="-3.52556">
        <ele>191.5</ele>
        <time>2025-02-26T09:53:37Z</time>
      </trkpt>
      <trkpt lat="48.06679" lon="-3.52555">
        <ele>191.4</ele>
        <time>2025-02-26T09:53:38Z</time>
      </trkpt>
      <trkpt lat="48.06679" lon="-3.52553">
        <ele>191.4</ele>
        <time>2025-02-26T09:53:39Z</time>
      </trkpt>
      <trkpt lat="48.06679" lon="-3.52552">
        <ele>191.4</ele>
        <time>2025-02-26T09:53:40Z</time>
      </trkpt>
      <trkpt lat="48.06678" lon="-3.5255">
        <ele>191.3</ele>
        <time>2025-02-26T09:53:41Z</time>
      </trkpt>
      <trkpt lat="48.06678" lon="-3.52548">
        <ele>191.3</ele>
        <time>2025-02-26T09:53:42Z</time>
      </trkpt>
      <trkpt lat="48.06677" lon="-3.52547">
        <ele>191.3</ele>
        <time>2025-02-26T09:53:43Z</time>
      </trkpt>
      <trkpt lat="48.06677" lon="-3.52545">
        <ele>191.2</ele>
        <time>2025-02-26T09:53:44Z</time>
      </trkpt>
      <trkpt lat="48.06677" lon="-3.52543">
        <ele>191.2</ele>
        <time>2025-02-26T09:53:45Z</time>
      </trkpt>
      <trkpt lat="48.06677" lon="-3.52542">
        <ele>191.2</ele>
        <time>2025-02-26T09:53:46Z</time>
      </trkpt>
      <trkpt lat="48.06676" lon="-3.5254">
        <ele>191.1</ele>
        <time>2025-02-26T09:53:47Z</time>
      </trkpt>
      <trkpt lat="48.06676" lon="-3.52538">
        <ele>191.1</ele>
        <time>2025-02-26T09:53:48Z</time>
      </trkpt>
      <trkpt lat="48.06676" lon="-3.52536">
        <ele>191.1</ele>
        <time>2025-02-26T09:53:49Z</time>
      </trkpt>
      <trkpt lat="48.06675" lon="-3.52534">
        <ele>191.1</ele>
        <time>2025-02-26T09:53:50Z</time>
      </trkpt>
      <trkpt lat="48.06675" lon="-3.52533">
        <ele>191</ele>
        <time>2025-02-26T09:53:51Z</time>
      </trkpt>
      <trkpt lat="48.06674" lon="-3.52531">
        <ele>191</ele>
        <time>2025-02-26T09:53:52Z</time>
      </trkpt>
      <trkpt lat="48.06674" lon="-3.52529">
        <ele>191</ele>
        <time>2025-02-26T09:53:53Z</time>
      </trkpt>
      <trkpt lat="48.06674" lon="-3.52527">
        <ele>191</ele>
        <time>2025-02-26T09:53:54Z</time>
      </trkpt>
      <trkpt lat="48.06673" lon="-3.52526">
        <ele>190.9</ele>
        <time>2025-02-26T09:53:55Z</time>
      </trkpt>
      <trkpt lat="48.06673" lon="-3.52525">
        <ele>190.9</ele>
        <time>2025-02-26T09:53:56Z</time>
      </trkpt>
      <trkpt lat="48.06673" lon="-3.52523">
        <ele>190.9</ele>
        <time>2025-02-26T09:53:57Z</time>
      </trkpt>
      <trkpt lat="48.06673" lon="-3.52521">
        <ele>190.8</ele>
        <time>2025-02-26T09:53:58Z</time>
      </trkpt>
      <trkpt lat="48.06673" lon="-3.52519">
        <ele>190.8</ele>
        <time>2025-02-26T09:53:59Z</time>
      </trkpt>
      <trkpt lat="48.06672" lon="-3.52517">
        <ele>190.7</ele>
        <time>2025-02-26T09:54:00Z</time>
      </trkpt>
      <trkpt lat="48.06672" lon="-3.52515">
        <ele>190.6</ele>
        <time>2025-02-26T09:54:01Z</time>
      </trkpt>
      <trkpt lat="48.06672" lon="-3.52514">
        <ele>190.6</ele>
        <time>2025-02-26T09:54:02Z</time>
      </trkpt>
      <trkpt lat="48.06672" lon="-3.52512">
        <ele>190.5</ele>
        <time>2025-02-26T09:54:03Z</time>
      </trkpt>
      <trkpt lat="48.06671" lon="-3.5251">
        <ele>190.5</ele>
        <time>2025-02-26T09:54:04Z</time>
      </trkpt>
      <trkpt lat="48.06671" lon="-3.52509">
        <ele>190.4</ele>
        <time>2025-02-26T09:54:05Z</time>
      </trkpt>
      <trkpt lat="48.06671" lon="-3.52507">
        <ele>190.4</ele>
        <time>2025-02-26T09:54:06Z</time>
      </trkpt>
      <trkpt lat="48.0667" lon="-3.52505">
        <ele>190.3</ele>
        <time>2025-02-26T09:54:07Z</time>
      </trkpt>
      <trkpt lat="48.0667" lon="-3.52503">
        <ele>190.2</ele>
        <time>2025-02-26T09:54:08Z</time>
      </trkpt>
      <trkpt lat="48.0667" lon="-3.52501">
        <ele>190.1</ele>
        <time>2025-02-26T09:54:09Z</time>
      </trkpt>
      <trkpt lat="48.06669" lon="-3.52499">
        <ele>190.1</ele>
        <time>2025-02-26T09:54:10Z</time>
      </trkpt>
      <trkpt lat="48.06669" lon="-3.52498">
        <ele>190.1</ele>
        <time>2025-02-26T09:54:11Z</time>
      </trkpt>
      <trkpt lat="48.06669" lon="-3.52496">
        <ele>190.1</ele>
        <time>2025-02-26T09:54:12Z</time>
      </trkpt>
      <trkpt lat="48.06668" lon="-3.52494">
        <ele>190.1</ele>
        <time>2025-02-26T09:54:13Z</time>
      </trkpt>
      <trkpt lat="48.06668" lon="-3.52492">
        <ele>190</ele>
        <time>2025-02-26T09:54:14Z</time>
      </trkpt>
      <trkpt lat="48.06668" lon="-3.52491">
        <ele>190</ele>
        <time>2025-02-26T09:54:15Z</time>
      </trkpt>
      <trkpt lat="48.06667" lon="-3.52489">
        <ele>190</ele>
        <time>2025-02-26T09:54:16Z</time>
      </trkpt>
      <trkpt lat="48.06667" lon="-3.52487">
        <ele>190</ele>
        <time>2025-02-26T09:54:17Z</time>
      </trkpt>
      <trkpt lat="48.06666" lon="-3.52485">
        <ele>190</ele>
        <time>2025-02-26T09:54:18Z</time>
      </trkpt>
      <trkpt lat="48.06666" lon="-3.52483">
        <ele>190</ele>
        <time>2025-02-26T09:54:19Z</time>
      </trkpt>
      <trkpt lat="48.06666" lon="-3.52481">
        <ele>190</ele>
        <time>2025-02-26T09:54:20Z</time>
      </trkpt>
      <trkpt lat="48.06665" lon="-3.52479">
        <ele>190</ele>
        <time>2025-02-26T09:54:21Z</time>
      </trkpt>
      <trkpt lat="48.06665" lon="-3.52478">
        <ele>189.9</ele>
        <time>2025-02-26T09:54:22Z</time>
      </trkpt>
      <trkpt lat="48.06664" lon="-3.52477">
        <ele>189.9</ele>
        <time>2025-02-26T09:54:23Z</time>
      </trkpt>
      <trkpt lat="48.06664" lon="-3.52474">
        <ele>189.9</ele>
        <time>2025-02-26T09:54:24Z</time>
      </trkpt>
      <trkpt lat="48.06664" lon="-3.52472">
        <ele>189.9</ele>
        <time>2025-02-26T09:54:25Z</time>
      </trkpt>
      <trkpt lat="48.06663" lon="-3.52471">
        <ele>189.9</ele>
        <time>2025-02-26T09:54:26Z</time>
      </trkpt>
      <trkpt lat="48.06662" lon="-3.52469">
        <ele>190</ele>
        <time>2025-02-26T09:54:27Z</time>
      </trkpt>
      <trkpt lat="48.06662" lon="-3.52468">
        <ele>190</ele>
        <time>2025-02-26T09:54:28Z</time>
      </trkpt>
      <trkpt lat="48.06661" lon="-3.52466">
        <ele>190</ele>
        <time>2025-02-26T09:54:29Z</time>
      </trkpt>
      <trkpt lat="48.06661" lon="-3.52465">
        <ele>190.1</ele>
        <time>2025-02-26T09:54:30Z</time>
      </trkpt>
      <trkpt lat="48.0666" lon="-3.52463">
        <ele>190.1</ele>
        <time>2025-02-26T09:54:31Z</time>
      </trkpt>
      <trkpt lat="48.0666" lon="-3.52461">
        <ele>190.2</ele>
        <time>2025-02-26T09:54:32Z</time>
      </trkpt>
      <trkpt lat="48.0666" lon="-3.52459">
        <ele>190.2</ele>
        <time>2025-02-26T09:54:33Z</time>
      </trkpt>
      <trkpt lat="48.0666" lon="-3.52457">
        <ele>190.3</ele>
        <time>2025-02-26T09:54:34Z</time>
      </trkpt>
      <trkpt lat="48.0666" lon="-3.52455">
        <ele>190.4</ele>
        <time>2025-02-26T09:54:35Z</time>
      </trkpt>
      <trkpt lat="48.06659" lon="-3.52454">
        <ele>190.4</ele>
        <time>2025-02-26T09:54:36Z</time>
      </trkpt>
      <trkpt lat="48.06658" lon="-3.52452">
        <ele>190.4</ele>
        <time>2025-02-26T09:54:37Z</time>
      </trkpt>
      <trkpt lat="48.06657" lon="-3.52451">
        <ele>190.4</ele>
        <time>2025-02-26T09:54:38Z</time>
      </trkpt>
      <trkpt lat="48.06656" lon="-3.52451">
        <ele>190.4</ele>
        <time>2025-02-26T09:54:39Z</time>
      </trkpt>
      <trkpt lat="48.06655" lon="-3.5245">
        <ele>190.4</ele>
        <time>2025-02-26T09:54:40Z</time>
      </trkpt>
      <trkpt lat="48.06654" lon="-3.5245">
        <ele>190.4</ele>
        <time>2025-02-26T09:54:41Z</time>
      </trkpt>
      <trkpt lat="48.06653" lon="-3.52449">
        <ele>190.4</ele>
        <time>2025-02-26T09:54:42Z</time>
      </trkpt>
      <trkpt lat="48.06653" lon="-3.52447">
        <ele>190.4</ele>
        <time>2025-02-26T09:54:43Z</time>
      </trkpt>
      <trkpt lat="48.06652" lon="-3.52447">
        <ele>190.4</ele>
        <time>2025-02-26T09:54:44Z</time>
      </trkpt>
      <trkpt lat="48.06652" lon="-3.52446">
        <ele>190.4</ele>
        <time>2025-02-26T09:54:45Z</time>
      </trkpt>
      <trkpt lat="48.06651" lon="-3.52445">
        <ele>190.4</ele>
        <time>2025-02-26T09:54:46Z</time>
      </trkpt>
      <trkpt lat="48.06651" lon="-3.52444">
        <ele>190.4</ele>
        <time>2025-02-26T09:54:47Z</time>
      </trkpt>
      <trkpt lat="48.0665" lon="-3.52443">
        <ele>190.4</ele>
        <time>2025-02-26T09:54:48Z</time>
      </trkpt>
      <trkpt lat="48.06648" lon="-3.52442">
        <ele>190.3</ele>
        <time>2025-02-26T09:54:49Z</time>
      </trkpt>
      <trkpt lat="48.06648" lon="-3.52441">
        <ele>190.3</ele>
        <time>2025-02-26T09:54:50Z</time>
      </trkpt>
      <trkpt lat="48.06647" lon="-3.52439">
        <ele>190.3</ele>
        <time>2025-02-26T09:54:51Z</time>
      </trkpt>
      <trkpt lat="48.06647" lon="-3.52437">
        <ele>190.3</ele>
        <time>2025-02-26T09:54:52Z</time>
      </trkpt>
      <trkpt lat="48.06646" lon="-3.52436">
        <ele>190.3</ele>
        <time>2025-02-26T09:54:53Z</time>
      </trkpt>
      <trkpt lat="48.06646" lon="-3.52434">
        <ele>190.2</ele>
        <time>2025-02-26T09:54:54Z</time>
      </trkpt>
      <trkpt lat="48.06645" lon="-3.52433">
        <ele>190.2</ele>
        <time>2025-02-26T09:54:55Z</time>
      </trkpt>
      <trkpt lat="48.06644" lon="-3.52432">
        <ele>190.2</ele>
        <time>2025-02-26T09:54:56Z</time>
      </trkpt>
      <trkpt lat="48.06644" lon="-3.5243">
        <ele>190.2</ele>
        <time>2025-02-26T09:54:57Z</time>
      </trkpt>
      <trkpt lat="48.06644" lon="-3.52428">
        <ele>190.2</ele>
        <time>2025-02-26T09:54:58Z</time>
      </trkpt>
      <trkpt lat="48.06643" lon="-3.52427">
        <ele>190.1</ele>
        <time>2025-02-26T09:54:59Z</time>
      </trkpt>
      <trkpt lat="48.06642" lon="-3.52425">
        <ele>190.1</ele>
        <time>2025-02-26T09:55:00Z</time>
      </trkpt>
      <trkpt lat="48.06641" lon="-3.52424">
        <ele>190.1</ele>
        <time>2025-02-26T09:55:01Z</time>
      </trkpt>
      <trkpt lat="48.0664" lon="-3.52423">
        <ele>190</ele>
        <time>2025-02-26T09:55:02Z</time>
      </trkpt>
      <trkpt lat="48.06639" lon="-3.52421">
        <ele>190</ele>
        <time>2025-02-26T09:55:03Z</time>
      </trkpt>
      <trkpt lat="48.06638" lon="-3.5242">
        <ele>190</ele>
        <time>2025-02-26T09:55:04Z</time>
      </trkpt>
      <trkpt lat="48.06637" lon="-3.52419">
        <ele>189.9</ele>
        <time>2025-02-26T09:55:05Z</time>
      </trkpt>
      <trkpt lat="48.06637" lon="-3.52418">
        <ele>189.9</ele>
        <time>2025-02-26T09:55:06Z</time>
      </trkpt>
      <trkpt lat="48.06636" lon="-3.52416">
        <ele>189.9</ele>
        <time>2025-02-26T09:55:07Z</time>
      </trkpt>
      <trkpt lat="48.06636" lon="-3.52414">
        <ele>189.9</ele>
        <time>2025-02-26T09:55:08Z</time>
      </trkpt>
      <trkpt lat="48.06635" lon="-3.52412">
        <ele>189.8</ele>
        <time>2025-02-26T09:55:09Z</time>
      </trkpt>
      <trkpt lat="48.06635" lon="-3.5241">
        <ele>189.8</ele>
        <time>2025-02-26T09:55:10Z</time>
      </trkpt>
      <trkpt lat="48.06634" lon="-3.52409">
        <ele>189.8</ele>
        <time>2025-02-26T09:55:11Z</time>
      </trkpt>
      <trkpt lat="48.06634" lon="-3.52407">
        <ele>189.7</ele>
        <time>2025-02-26T09:55:12Z</time>
      </trkpt>
      <trkpt lat="48.06633" lon="-3.52406">
        <ele>189.7</ele>
        <time>2025-02-26T09:55:13Z</time>
      </trkpt>
      <trkpt lat="48.06633" lon="-3.52405">
        <ele>189.7</ele>
        <time>2025-02-26T09:55:14Z</time>
      </trkpt>
      <trkpt lat="48.06632" lon="-3.52404">
        <ele>189.7</ele>
        <time>2025-02-26T09:55:15Z</time>
      </trkpt>
      <trkpt lat="48.06632" lon="-3.52403">
        <ele>189.6</ele>
        <time>2025-02-26T09:55:16Z</time>
      </trkpt>
      <trkpt lat="48.06632" lon="-3.52402">
        <ele>189.6</ele>
        <time>2025-02-26T09:55:17Z</time>
      </trkpt>
      <trkpt lat="48.06631" lon="-3.52401">
        <ele>189.6</ele>
        <time>2025-02-26T09:55:18Z</time>
      </trkpt>
      <trkpt lat="48.0663" lon="-3.52399">
        <ele>189.5</ele>
        <time>2025-02-26T09:55:19Z</time>
      </trkpt>
      <trkpt lat="48.0663" lon="-3.52398">
        <ele>189.5</ele>
        <time>2025-02-26T09:55:20Z</time>
      </trkpt>
      <trkpt lat="48.06629" lon="-3.52396">
        <ele>189.4</ele>
        <time>2025-02-26T09:55:21Z</time>
      </trkpt>
      <trkpt lat="48.06629" lon="-3.52395">
        <ele>189.4</ele>
        <time>2025-02-26T09:55:22Z</time>
      </trkpt>
      <trkpt lat="48.06628" lon="-3.52393">
        <ele>189.3</ele>
        <time>2025-02-26T09:55:23Z</time>
      </trkpt>
      <trkpt lat="48.06628" lon="-3.52392">
        <ele>189.2</ele>
        <time>2025-02-26T09:55:24Z</time>
      </trkpt>
      <trkpt lat="48.06627" lon="-3.52391">
        <ele>189.2</ele>
        <time>2025-02-26T09:55:25Z</time>
      </trkpt>
      <trkpt lat="48.06626" lon="-3.5239">
        <ele>189.1</ele>
        <time>2025-02-26T09:55:26Z</time>
      </trkpt>
      <trkpt lat="48.06626" lon="-3.52388">
        <ele>189.1</ele>
        <time>2025-02-26T09:55:27Z</time>
      </trkpt>
      <trkpt lat="48.06625" lon="-3.52387">
        <ele>189</ele>
        <time>2025-02-26T09:55:28Z</time>
      </trkpt>
      <trkpt lat="48.06624" lon="-3.52386">
        <ele>188.9</ele>
        <time>2025-02-26T09:55:29Z</time>
      </trkpt>
      <trkpt lat="48.06624" lon="-3.52384">
        <ele>188.9</ele>
        <time>2025-02-26T09:55:30Z</time>
      </trkpt>
      <trkpt lat="48.06623" lon="-3.52383">
        <ele>188.8</ele>
        <time>2025-02-26T09:55:31Z</time>
      </trkpt>
      <trkpt lat="48.06622" lon="-3.52381">
        <ele>188.8</ele>
        <time>2025-02-26T09:55:32Z</time>
      </trkpt>
      <trkpt lat="48.06622" lon="-3.5238">
        <ele>188.8</ele>
        <time>2025-02-26T09:55:33Z</time>
      </trkpt>
      <trkpt lat="48.06621" lon="-3.52378">
        <ele>188.7</ele>
        <time>2025-02-26T09:55:34Z</time>
      </trkpt>
      <trkpt lat="48.0662" lon="-3.52377">
        <ele>188.6</ele>
        <time>2025-02-26T09:55:35Z</time>
      </trkpt>
      <trkpt lat="48.06619" lon="-3.52376">
        <ele>188.6</ele>
        <time>2025-02-26T09:55:36Z</time>
      </trkpt>
      <trkpt lat="48.06619" lon="-3.52375">
        <ele>188.5</ele>
        <time>2025-02-26T09:55:37Z</time>
      </trkpt>
      <trkpt lat="48.06618" lon="-3.52373">
        <ele>188.5</ele>
        <time>2025-02-26T09:55:38Z</time>
      </trkpt>
      <trkpt lat="48.06618" lon="-3.52372">
        <ele>188.5</ele>
        <time>2025-02-26T09:55:39Z</time>
      </trkpt>
      <trkpt lat="48.06618" lon="-3.5237">
        <ele>188.5</ele>
        <time>2025-02-26T09:55:40Z</time>
      </trkpt>
      <trkpt lat="48.06617" lon="-3.52368">
        <ele>188.4</ele>
        <time>2025-02-26T09:55:41Z</time>
      </trkpt>
      <trkpt lat="48.06616" lon="-3.52367">
        <ele>188.4</ele>
        <time>2025-02-26T09:55:42Z</time>
      </trkpt>
      <trkpt lat="48.06616" lon="-3.52366">
        <ele>188.4</ele>
        <time>2025-02-26T09:55:43Z</time>
      </trkpt>
      <trkpt lat="48.06616" lon="-3.52364">
        <ele>188.4</ele>
        <time>2025-02-26T09:55:44Z</time>
      </trkpt>
      <trkpt lat="48.06616" lon="-3.52362">
        <ele>188.3</ele>
        <time>2025-02-26T09:55:45Z</time>
      </trkpt>
      <trkpt lat="48.06616" lon="-3.5236">
        <ele>188.3</ele>
        <time>2025-02-26T09:55:46Z</time>
      </trkpt>
      <trkpt lat="48.06615" lon="-3.52359">
        <ele>188.2</ele>
        <time>2025-02-26T09:55:47Z</time>
      </trkpt>
      <trkpt lat="48.06615" lon="-3.52357">
        <ele>188.1</ele>
        <time>2025-02-26T09:55:48Z</time>
      </trkpt>
      <trkpt lat="48.06615" lon="-3.52356">
        <ele>188</ele>
        <time>2025-02-26T09:55:49Z</time>
      </trkpt>
      <trkpt lat="48.06614" lon="-3.52354">
        <ele>188</ele>
        <time>2025-02-26T09:55:50Z</time>
      </trkpt>
      <trkpt lat="48.06614" lon="-3.52352">
        <ele>187.9</ele>
        <time>2025-02-26T09:55:51Z</time>
      </trkpt>
      <trkpt lat="48.06614" lon="-3.52351">
        <ele>187.8</ele>
        <time>2025-02-26T09:55:52Z</time>
      </trkpt>
      <trkpt lat="48.06614" lon="-3.52349">
        <ele>187.8</ele>
        <time>2025-02-26T09:55:53Z</time>
      </trkpt>
      <trkpt lat="48.06614" lon="-3.52348">
        <ele>187.7</ele>
        <time>2025-02-26T09:55:54Z</time>
      </trkpt>
      <trkpt lat="48.06613" lon="-3.52346">
        <ele>187.6</ele>
        <time>2025-02-26T09:55:55Z</time>
      </trkpt>
      <trkpt lat="48.06612" lon="-3.52345">
        <ele>187.5</ele>
        <time>2025-02-26T09:55:56Z</time>
      </trkpt>
      <trkpt lat="48.06612" lon="-3.52343">
        <ele>187.4</ele>
        <time>2025-02-26T09:55:57Z</time>
      </trkpt>
      <trkpt lat="48.06611" lon="-3.52341">
        <ele>187.3</ele>
        <time>2025-02-26T09:55:58Z</time>
      </trkpt>
      <trkpt lat="48.06611" lon="-3.5234">
        <ele>187.2</ele>
        <time>2025-02-26T09:55:59Z</time>
      </trkpt>
      <trkpt lat="48.0661" lon="-3.52338">
        <ele>187.1</ele>
        <time>2025-02-26T09:56:00Z</time>
      </trkpt>
      <trkpt lat="48.06609" lon="-3.52336">
        <ele>187</ele>
        <time>2025-02-26T09:56:01Z</time>
      </trkpt>
      <trkpt lat="48.06609" lon="-3.52335">
        <ele>187</ele>
        <time>2025-02-26T09:56:02Z</time>
      </trkpt>
      <trkpt lat="48.06608" lon="-3.52333">
        <ele>186.9</ele>
        <time>2025-02-26T09:56:03Z</time>
      </trkpt>
      <trkpt lat="48.06607" lon="-3.52332">
        <ele>186.8</ele>
        <time>2025-02-26T09:56:04Z</time>
      </trkpt>
      <trkpt lat="48.06607" lon="-3.52331">
        <ele>186.7</ele>
        <time>2025-02-26T09:56:05Z</time>
      </trkpt>
      <trkpt lat="48.06606" lon="-3.5233">
        <ele>186.7</ele>
        <time>2025-02-26T09:56:06Z</time>
      </trkpt>
      <trkpt lat="48.06606" lon="-3.52328">
        <ele>186.6</ele>
        <time>2025-02-26T09:56:07Z</time>
      </trkpt>
      <trkpt lat="48.06606" lon="-3.52326">
        <ele>186.6</ele>
        <time>2025-02-26T09:56:08Z</time>
      </trkpt>
      <trkpt lat="48.06606" lon="-3.52325">
        <ele>186.5</ele>
        <time>2025-02-26T09:56:09Z</time>
      </trkpt>
      <trkpt lat="48.06606" lon="-3.52323">
        <ele>186.5</ele>
        <time>2025-02-26T09:56:10Z</time>
      </trkpt>
      <trkpt lat="48.06606" lon="-3.52322">
        <ele>186.4</ele>
        <time>2025-02-26T09:56:11Z</time>
      </trkpt>
      <trkpt lat="48.06606" lon="-3.5232">
        <ele>186.3</ele>
        <time>2025-02-26T09:56:12Z</time>
      </trkpt>
      <trkpt lat="48.06605" lon="-3.52318">
        <ele>186.2</ele>
        <time>2025-02-26T09:56:13Z</time>
      </trkpt>
      <trkpt lat="48.06605" lon="-3.52316">
        <ele>186.1</ele>
        <time>2025-02-26T09:56:14Z</time>
      </trkpt>
      <trkpt lat="48.06605" lon="-3.52314">
        <ele>186.1</ele>
        <time>2025-02-26T09:56:15Z</time>
      </trkpt>
      <trkpt lat="48.06605" lon="-3.52313">
        <ele>186</ele>
        <time>2025-02-26T09:56:16Z</time>
      </trkpt>
      <trkpt lat="48.06604" lon="-3.52311">
        <ele>185.9</ele>
        <time>2025-02-26T09:56:17Z</time>
      </trkpt>
      <trkpt lat="48.06604" lon="-3.52309">
        <ele>185.9</ele>
        <time>2025-02-26T09:56:18Z</time>
      </trkpt>
      <trkpt lat="48.06604" lon="-3.52307">
        <ele>185.8</ele>
        <time>2025-02-26T09:56:19Z</time>
      </trkpt>
      <trkpt lat="48.06604" lon="-3.52305">
        <ele>185.7</ele>
        <time>2025-02-26T09:56:20Z</time>
      </trkpt>
      <trkpt lat="48.06603" lon="-3.52303">
        <ele>185.7</ele>
        <time>2025-02-26T09:56:21Z</time>
      </trkpt>
      <trkpt lat="48.06602" lon="-3.52302">
        <ele>185.7</ele>
        <time>2025-02-26T09:56:22Z</time>
      </trkpt>
      <trkpt lat="48.06602" lon="-3.523">
        <ele>185.7</ele>
        <time>2025-02-26T09:56:23Z</time>
      </trkpt>
      <trkpt lat="48.06602" lon="-3.52298">
        <ele>185.8</ele>
        <time>2025-02-26T09:56:24Z</time>
      </trkpt>
      <trkpt lat="48.06602" lon="-3.52296">
        <ele>185.8</ele>
        <time>2025-02-26T09:56:25Z</time>
      </trkpt>
      <trkpt lat="48.06602" lon="-3.52295">
        <ele>185.8</ele>
        <time>2025-02-26T09:56:26Z</time>
      </trkpt>
      <trkpt lat="48.06602" lon="-3.52293">
        <ele>185.8</ele>
        <time>2025-02-26T09:56:27Z</time>
      </trkpt>
      <trkpt lat="48.06602" lon="-3.52291">
        <ele>185.8</ele>
        <time>2025-02-26T09:56:28Z</time>
      </trkpt>
      <trkpt lat="48.06601" lon="-3.5229">
        <ele>185.9</ele>
        <time>2025-02-26T09:56:29Z</time>
      </trkpt>
      <trkpt lat="48.06601" lon="-3.52288">
        <ele>185.9</ele>
        <time>2025-02-26T09:56:30Z</time>
      </trkpt>
      <trkpt lat="48.06601" lon="-3.52286">
        <ele>185.9</ele>
        <time>2025-02-26T09:56:31Z</time>
      </trkpt>
      <trkpt lat="48.06601" lon="-3.52284">
        <ele>185.9</ele>
        <time>2025-02-26T09:56:32Z</time>
      </trkpt>
      <trkpt lat="48.06602" lon="-3.52283">
        <ele>185.9</ele>
        <time>2025-02-26T09:56:33Z</time>
      </trkpt>
      <trkpt lat="48.06602" lon="-3.52281">
        <ele>186</ele>
        <time>2025-02-26T09:56:34Z</time>
      </trkpt>
      <trkpt lat="48.06602" lon="-3.52279">
        <ele>186</ele>
        <time>2025-02-26T09:56:35Z</time>
      </trkpt>
      <trkpt lat="48.06601" lon="-3.52278">
        <ele>186</ele>
        <time>2025-02-26T09:56:36Z</time>
      </trkpt>
      <trkpt lat="48.06601" lon="-3.52276">
        <ele>186</ele>
        <time>2025-02-26T09:56:37Z</time>
      </trkpt>
      <trkpt lat="48.06601" lon="-3.52275">
        <ele>186</ele>
        <time>2025-02-26T09:56:38Z</time>
      </trkpt>
      <trkpt lat="48.066" lon="-3.52273">
        <ele>186.1</ele>
        <time>2025-02-26T09:56:39Z</time>
      </trkpt>
      <trkpt lat="48.066" lon="-3.52271">
        <ele>186.1</ele>
        <time>2025-02-26T09:56:40Z</time>
      </trkpt>
      <trkpt lat="48.06599" lon="-3.5227">
        <ele>186.1</ele>
        <time>2025-02-26T09:56:41Z</time>
      </trkpt>
      <trkpt lat="48.06599" lon="-3.52269">
        <ele>186.1</ele>
        <time>2025-02-26T09:56:42Z</time>
      </trkpt>
      <trkpt lat="48.06599" lon="-3.52267">
        <ele>186.2</ele>
        <time>2025-02-26T09:56:43Z</time>
      </trkpt>
      <trkpt lat="48.06598" lon="-3.52266">
        <ele>186.2</ele>
        <time>2025-02-26T09:56:44Z</time>
      </trkpt>
      <trkpt lat="48.06597" lon="-3.52264">
        <ele>186.2</ele>
        <time>2025-02-26T09:56:45Z</time>
      </trkpt>
      <trkpt lat="48.06597" lon="-3.52262">
        <ele>186.3</ele>
        <time>2025-02-26T09:56:46Z</time>
      </trkpt>
      <trkpt lat="48.06596" lon="-3.52261">
        <ele>186.3</ele>
        <time>2025-02-26T09:56:47Z</time>
      </trkpt>
      <trkpt lat="48.06596" lon="-3.52259">
        <ele>186.4</ele>
        <time>2025-02-26T09:56:48Z</time>
      </trkpt>
      <trkpt lat="48.06596" lon="-3.52258">
        <ele>186.4</ele>
        <time>2025-02-26T09:56:49Z</time>
      </trkpt>
      <trkpt lat="48.06595" lon="-3.52256">
        <ele>186.4</ele>
        <time>2025-02-26T09:56:50Z</time>
      </trkpt>
      <trkpt lat="48.06595" lon="-3.52254">
        <ele>186.5</ele>
        <time>2025-02-26T09:56:51Z</time>
      </trkpt>
      <trkpt lat="48.06595" lon="-3.52252">
        <ele>186.5</ele>
        <time>2025-02-26T09:56:52Z</time>
      </trkpt>
      <trkpt lat="48.06595" lon="-3.52251">
        <ele>186.6</ele>
        <time>2025-02-26T09:56:53Z</time>
      </trkpt>
      <trkpt lat="48.06594" lon="-3.52249">
        <ele>186.6</ele>
        <time>2025-02-26T09:56:54Z</time>
      </trkpt>
      <trkpt lat="48.06594" lon="-3.52247">
        <ele>186.7</ele>
        <time>2025-02-26T09:56:55Z</time>
      </trkpt>
      <trkpt lat="48.06593" lon="-3.52245">
        <ele>186.8</ele>
        <time>2025-02-26T09:56:56Z</time>
      </trkpt>
      <trkpt lat="48.06592" lon="-3.52244">
        <ele>186.9</ele>
        <time>2025-02-26T09:56:57Z</time>
      </trkpt>
      <trkpt lat="48.06592" lon="-3.52242">
        <ele>187</ele>
        <time>2025-02-26T09:56:58Z</time>
      </trkpt>
      <trkpt lat="48.06592" lon="-3.5224">
        <ele>187.1</ele>
        <time>2025-02-26T09:56:59Z</time>
      </trkpt>
      <trkpt lat="48.06591" lon="-3.52238">
        <ele>187.1</ele>
        <time>2025-02-26T09:57:00Z</time>
      </trkpt>
      <trkpt lat="48.06591" lon="-3.52237">
        <ele>187.2</ele>
        <time>2025-02-26T09:57:01Z</time>
      </trkpt>
      <trkpt lat="48.06591" lon="-3.52235">
        <ele>187.3</ele>
        <time>2025-02-26T09:57:02Z</time>
      </trkpt>
      <trkpt lat="48.0659" lon="-3.52234">
        <ele>187.3</ele>
        <time>2025-02-26T09:57:03Z</time>
      </trkpt>
      <trkpt lat="48.0659" lon="-3.52233">
        <ele>187.4</ele>
        <time>2025-02-26T09:57:04Z</time>
      </trkpt>
      <trkpt lat="48.0659" lon="-3.52231">
        <ele>187.4</ele>
        <time>2025-02-26T09:57:05Z</time>
      </trkpt>
      <trkpt lat="48.0659" lon="-3.5223">
        <ele>187.5</ele>
        <time>2025-02-26T09:57:06Z</time>
      </trkpt>
      <trkpt lat="48.06589" lon="-3.52229">
        <ele>187.5</ele>
        <time>2025-02-26T09:57:07Z</time>
      </trkpt>
      <trkpt lat="48.06589" lon="-3.52227">
        <ele>187.6</ele>
        <time>2025-02-26T09:57:08Z</time>
      </trkpt>
      <trkpt lat="48.0659" lon="-3.52226">
        <ele>187.6</ele>
        <time>2025-02-26T09:57:09Z</time>
      </trkpt>
      <trkpt lat="48.0659" lon="-3.52224">
        <ele>187.7</ele>
        <time>2025-02-26T09:57:10Z</time>
      </trkpt>
      <trkpt lat="48.0659" lon="-3.52223">
        <ele>187.7</ele>
        <time>2025-02-26T09:57:11Z</time>
      </trkpt>
      <trkpt lat="48.06591" lon="-3.52221">
        <ele>187.8</ele>
        <time>2025-02-26T09:57:12Z</time>
      </trkpt>
      <trkpt lat="48.06591" lon="-3.52219">
        <ele>187.9</ele>
        <time>2025-02-26T09:57:13Z</time>
      </trkpt>
      <trkpt lat="48.06591" lon="-3.52218">
        <ele>188.1</ele>
        <time>2025-02-26T09:57:14Z</time>
      </trkpt>
      <trkpt lat="48.06591" lon="-3.52216">
        <ele>188.2</ele>
        <time>2025-02-26T09:57:15Z</time>
      </trkpt>
      <trkpt lat="48.06592" lon="-3.52214">
        <ele>188.3</ele>
        <time>2025-02-26T09:57:16Z</time>
      </trkpt>
      <trkpt lat="48.06592" lon="-3.52213">
        <ele>188.4</ele>
        <time>2025-02-26T09:57:17Z</time>
      </trkpt>
      <trkpt lat="48.06593" lon="-3.52211">
        <ele>188.5</ele>
        <time>2025-02-26T09:57:18Z</time>
      </trkpt>
      <trkpt lat="48.06593" lon="-3.5221">
        <ele>188.5</ele>
        <time>2025-02-26T09:57:19Z</time>
      </trkpt>
      <trkpt lat="48.06594" lon="-3.52209">
        <ele>188.6</ele>
        <time>2025-02-26T09:57:20Z</time>
      </trkpt>
      <trkpt lat="48.06594" lon="-3.52207">
        <ele>188.7</ele>
        <time>2025-02-26T09:57:21Z</time>
      </trkpt>
      <trkpt lat="48.06594" lon="-3.52205">
        <ele>188.8</ele>
        <time>2025-02-26T09:57:22Z</time>
      </trkpt>
      <trkpt lat="48.06594" lon="-3.52204">
        <ele>188.9</ele>
        <time>2025-02-26T09:57:23Z</time>
      </trkpt>
      <trkpt lat="48.06594" lon="-3.52202">
        <ele>189.1</ele>
        <time>2025-02-26T09:57:24Z</time>
      </trkpt>
      <trkpt lat="48.06594" lon="-3.52201">
        <ele>189.2</ele>
        <time>2025-02-26T09:57:25Z</time>
      </trkpt>
      <trkpt lat="48.06595" lon="-3.52199">
        <ele>189.2</ele>
        <time>2025-02-26T09:57:26Z</time>
      </trkpt>
      <trkpt lat="48.06595" lon="-3.52198">
        <ele>189.4</ele>
        <time>2025-02-26T09:57:27Z</time>
      </trkpt>
      <trkpt lat="48.06595" lon="-3.52196">
        <ele>189.4</ele>
        <time>2025-02-26T09:57:28Z</time>
      </trkpt>
      <trkpt lat="48.06596" lon="-3.52195">
        <ele>189.5</ele>
        <time>2025-02-26T09:57:29Z</time>
      </trkpt>
      <trkpt lat="48.06596" lon="-3.52194">
        <ele>189.6</ele>
        <time>2025-02-26T09:57:30Z</time>
      </trkpt>
      <trkpt lat="48.06595" lon="-3.52192">
        <ele>189.6</ele>
        <time>2025-02-26T09:57:31Z</time>
      </trkpt>
      <trkpt lat="48.06595" lon="-3.52191">
        <ele>189.7</ele>
        <time>2025-02-26T09:57:32Z</time>
      </trkpt>
      <trkpt lat="48.06595" lon="-3.52189">
        <ele>189.8</ele>
        <time>2025-02-26T09:57:33Z</time>
      </trkpt>
      <trkpt lat="48.06595" lon="-3.52188">
        <ele>189.8</ele>
        <time>2025-02-26T09:57:34Z</time>
      </trkpt>
      <trkpt lat="48.06596" lon="-3.52186">
        <ele>189.8</ele>
        <time>2025-02-26T09:57:35Z</time>
      </trkpt>
      <trkpt lat="48.06596" lon="-3.52185">
        <ele>189.9</ele>
        <time>2025-02-26T09:57:36Z</time>
      </trkpt>
      <trkpt lat="48.06597" lon="-3.52183">
        <ele>189.9</ele>
        <time>2025-02-26T09:57:37Z</time>
      </trkpt>
      <trkpt lat="48.06597" lon="-3.52182">
        <ele>190</ele>
        <time>2025-02-26T09:57:38Z</time>
      </trkpt>
      <trkpt lat="48.06596" lon="-3.52181">
        <ele>190</ele>
        <time>2025-02-26T09:57:39Z</time>
      </trkpt>
      <trkpt lat="48.06597" lon="-3.5218">
        <ele>190.1</ele>
        <time>2025-02-26T09:57:40Z</time>
      </trkpt>
      <trkpt lat="48.06597" lon="-3.52178">
        <ele>190.1</ele>
        <time>2025-02-26T09:57:41Z</time>
      </trkpt>
      <trkpt lat="48.06597" lon="-3.52177">
        <ele>190.2</ele>
        <time>2025-02-26T09:57:42Z</time>
      </trkpt>
      <trkpt lat="48.06597" lon="-3.52176">
        <ele>190.2</ele>
        <time>2025-02-26T09:57:43Z</time>
      </trkpt>
      <trkpt lat="48.06596" lon="-3.52174">
        <ele>190.3</ele>
        <time>2025-02-26T09:57:44Z</time>
      </trkpt>
      <trkpt lat="48.06596" lon="-3.52173">
        <ele>190.3</ele>
        <time>2025-02-26T09:57:45Z</time>
      </trkpt>
      <trkpt lat="48.06596" lon="-3.52172">
        <ele>190.3</ele>
        <time>2025-02-26T09:57:46Z</time>
      </trkpt>
      <trkpt lat="48.06596" lon="-3.52171">
        <ele>190.4</ele>
        <time>2025-02-26T09:57:47Z</time>
      </trkpt>
      <trkpt lat="48.06596" lon="-3.52169">
        <ele>190.4</ele>
        <time>2025-02-26T09:57:48Z</time>
      </trkpt>
      <trkpt lat="48.06596" lon="-3.52168">
        <ele>190.5</ele>
        <time>2025-02-26T09:57:49Z</time>
      </trkpt>
      <trkpt lat="48.06596" lon="-3.52166">
        <ele>190.6</ele>
        <time>2025-02-26T09:57:50Z</time>
      </trkpt>
      <trkpt lat="48.06596" lon="-3.52164">
        <ele>190.6</ele>
        <time>2025-02-26T09:57:51Z</time>
      </trkpt>
      <trkpt lat="48.06596" lon="-3.52163">
        <ele>190.7</ele>
        <time>2025-02-26T09:57:52Z</time>
      </trkpt>
      <trkpt lat="48.06597" lon="-3.52161">
        <ele>190.7</ele>
        <time>2025-02-26T09:57:53Z</time>
      </trkpt>
      <trkpt lat="48.06596" lon="-3.5216">
        <ele>190.8</ele>
        <time>2025-02-26T09:57:54Z</time>
      </trkpt>
      <trkpt lat="48.06596" lon="-3.52158">
        <ele>190.8</ele>
        <time>2025-02-26T09:57:55Z</time>
      </trkpt>
      <trkpt lat="48.06596" lon="-3.52157">
        <ele>190.9</ele>
        <time>2025-02-26T09:57:56Z</time>
      </trkpt>
      <trkpt lat="48.06596" lon="-3.52155">
        <ele>191</ele>
        <time>2025-02-26T09:57:57Z</time>
      </trkpt>
      <trkpt lat="48.06596" lon="-3.52153">
        <ele>191</ele>
        <time>2025-02-26T09:57:58Z</time>
      </trkpt>
      <trkpt lat="48.06596" lon="-3.52152">
        <ele>191.1</ele>
        <time>2025-02-26T09:57:59Z</time>
      </trkpt>
      <trkpt lat="48.06595" lon="-3.5215">
        <ele>191.2</ele>
        <time>2025-02-26T09:58:00Z</time>
      </trkpt>
      <trkpt lat="48.06596" lon="-3.52149">
        <ele>191.2</ele>
        <time>2025-02-26T09:58:01Z</time>
      </trkpt>
      <trkpt lat="48.06595" lon="-3.52148">
        <ele>191.3</ele>
        <time>2025-02-26T09:58:02Z</time>
      </trkpt>
      <trkpt lat="48.06594" lon="-3.52146">
        <ele>191.3</ele>
        <time>2025-02-26T09:58:03Z</time>
      </trkpt>
      <trkpt lat="48.06594" lon="-3.52145">
        <ele>191.4</ele>
        <time>2025-02-26T09:58:04Z</time>
      </trkpt>
      <trkpt lat="48.06594" lon="-3.52143">
        <ele>191.5</ele>
        <time>2025-02-26T09:58:05Z</time>
      </trkpt>
      <trkpt lat="48.06594" lon="-3.52142">
        <ele>191.5</ele>
        <time>2025-02-26T09:58:06Z</time>
      </trkpt>
      <trkpt lat="48.06594" lon="-3.5214">
        <ele>191.6</ele>
        <time>2025-02-26T09:58:07Z</time>
      </trkpt>
      <trkpt lat="48.06594" lon="-3.52139">
        <ele>191.6</ele>
        <time>2025-02-26T09:58:08Z</time>
      </trkpt>
      <trkpt lat="48.06593" lon="-3.52137">
        <ele>191.7</ele>
        <time>2025-02-26T09:58:09Z</time>
      </trkpt>
      <trkpt lat="48.06593" lon="-3.52136">
        <ele>191.7</ele>
        <time>2025-02-26T09:58:10Z</time>
      </trkpt>
      <trkpt lat="48.06593" lon="-3.52134">
        <ele>191.7</ele>
        <time>2025-02-26T09:58:11Z</time>
      </trkpt>
      <trkpt lat="48.06592" lon="-3.52133">
        <ele>191.8</ele>
        <time>2025-02-26T09:58:12Z</time>
      </trkpt>
      <trkpt lat="48.06592" lon="-3.52131">
        <ele>191.8</ele>
        <time>2025-02-26T09:58:13Z</time>
      </trkpt>
      <trkpt lat="48.06591" lon="-3.52131">
        <ele>191.8</ele>
        <time>2025-02-26T09:58:14Z</time>
      </trkpt>
      <trkpt lat="48.06591" lon="-3.52129">
        <ele>191.8</ele>
        <time>2025-02-26T09:58:15Z</time>
      </trkpt>
      <trkpt lat="48.06591" lon="-3.52127">
        <ele>191.8</ele>
        <time>2025-02-26T09:58:16Z</time>
      </trkpt>
      <trkpt lat="48.06591" lon="-3.52126">
        <ele>191.9</ele>
        <time>2025-02-26T09:58:17Z</time>
      </trkpt>
      <trkpt lat="48.0659" lon="-3.52124">
        <ele>191.9</ele>
        <time>2025-02-26T09:58:18Z</time>
      </trkpt>
      <trkpt lat="48.0659" lon="-3.52122">
        <ele>191.9</ele>
        <time>2025-02-26T09:58:19Z</time>
      </trkpt>
      <trkpt lat="48.0659" lon="-3.52121">
        <ele>191.9</ele>
        <time>2025-02-26T09:58:20Z</time>
      </trkpt>
      <trkpt lat="48.0659" lon="-3.5212">
        <ele>191.9</ele>
        <time>2025-02-26T09:58:21Z</time>
      </trkpt>
      <trkpt lat="48.0659" lon="-3.52118">
        <ele>191.9</ele>
        <time>2025-02-26T09:58:22Z</time>
      </trkpt>
      <trkpt lat="48.0659" lon="-3.52117">
        <ele>192</ele>
        <time>2025-02-26T09:58:23Z</time>
      </trkpt>
      <trkpt lat="48.06589" lon="-3.52115">
        <ele>192</ele>
        <time>2025-02-26T09:58:24Z</time>
      </trkpt>
      <trkpt lat="48.06589" lon="-3.52113">
        <ele>192</ele>
        <time>2025-02-26T09:58:25Z</time>
      </trkpt>
      <trkpt lat="48.06588" lon="-3.52112">
        <ele>192</ele>
        <time>2025-02-26T09:58:26Z</time>
      </trkpt>
      <trkpt lat="48.06588" lon="-3.5211">
        <ele>192</ele>
        <time>2025-02-26T09:58:27Z</time>
      </trkpt>
      <trkpt lat="48.06588" lon="-3.52108">
        <ele>192</ele>
        <time>2025-02-26T09:58:28Z</time>
      </trkpt>
      <trkpt lat="48.06587" lon="-3.52107">
        <ele>192</ele>
        <time>2025-02-26T09:58:29Z</time>
      </trkpt>
      <trkpt lat="48.06587" lon="-3.52105">
        <ele>192</ele>
        <time>2025-02-26T09:58:30Z</time>
      </trkpt>
      <trkpt lat="48.06586" lon="-3.52104">
        <ele>192</ele>
        <time>2025-02-26T09:58:31Z</time>
      </trkpt>
      <trkpt lat="48.06586" lon="-3.52102">
        <ele>192</ele>
        <time>2025-02-26T09:58:32Z</time>
      </trkpt>
      <trkpt lat="48.06586" lon="-3.52101">
        <ele>192</ele>
        <time>2025-02-26T09:58:33Z</time>
      </trkpt>
      <trkpt lat="48.06585" lon="-3.521">
        <ele>192</ele>
        <time>2025-02-26T09:58:34Z</time>
      </trkpt>
      <trkpt lat="48.06585" lon="-3.52099">
        <ele>192</ele>
        <time>2025-02-26T09:58:35Z</time>
      </trkpt>
      <trkpt lat="48.06585" lon="-3.52097">
        <ele>192</ele>
        <time>2025-02-26T09:58:36Z</time>
      </trkpt>
      <trkpt lat="48.06584" lon="-3.52096">
        <ele>192</ele>
        <time>2025-02-26T09:58:37Z</time>
      </trkpt>
      <trkpt lat="48.06584" lon="-3.52094">
        <ele>192</ele>
        <time>2025-02-26T09:58:38Z</time>
      </trkpt>
      <trkpt lat="48.06584" lon="-3.52092">
        <ele>192</ele>
        <time>2025-02-26T09:58:39Z</time>
      </trkpt>
      <trkpt lat="48.06583" lon="-3.52091">
        <ele>192</ele>
        <time>2025-02-26T09:58:40Z</time>
      </trkpt>
      <trkpt lat="48.06583" lon="-3.5209">
        <ele>192</ele>
        <time>2025-02-26T09:58:41Z</time>
      </trkpt>
      <trkpt lat="48.06583" lon="-3.52088">
        <ele>192</ele>
        <time>2025-02-26T09:58:42Z</time>
      </trkpt>
      <trkpt lat="48.06583" lon="-3.52086">
        <ele>192</ele>
        <time>2025-02-26T09:58:43Z</time>
      </trkpt>
      <trkpt lat="48.06583" lon="-3.52085">
        <ele>192</ele>
        <time>2025-02-26T09:58:44Z</time>
      </trkpt>
      <trkpt lat="48.06583" lon="-3.52083">
        <ele>192</ele>
        <time>2025-02-26T09:58:45Z</time>
      </trkpt>
      <trkpt lat="48.06582" lon="-3.52082">
        <ele>192</ele>
        <time>2025-02-26T09:58:46Z</time>
      </trkpt>
      <trkpt lat="48.06582" lon="-3.5208">
        <ele>192</ele>
        <time>2025-02-26T09:58:47Z</time>
      </trkpt>
      <trkpt lat="48.06582" lon="-3.52079">
        <ele>192</ele>
        <time>2025-02-26T09:58:48Z</time>
      </trkpt>
      <trkpt lat="48.06581" lon="-3.52078">
        <ele>192.1</ele>
        <time>2025-02-26T09:58:49Z</time>
      </trkpt>
      <trkpt lat="48.06581" lon="-3.52076">
        <ele>192.1</ele>
        <time>2025-02-26T09:58:50Z</time>
      </trkpt>
      <trkpt lat="48.06581" lon="-3.52075">
        <ele>192.1</ele>
        <time>2025-02-26T09:58:51Z</time>
      </trkpt>
      <trkpt lat="48.06581" lon="-3.52073">
        <ele>192</ele>
        <time>2025-02-26T09:58:52Z</time>
      </trkpt>
      <trkpt lat="48.06581" lon="-3.52071">
        <ele>192</ele>
        <time>2025-02-26T09:58:53Z</time>
      </trkpt>
      <trkpt lat="48.06581" lon="-3.5207">
        <ele>192</ele>
        <time>2025-02-26T09:58:54Z</time>
      </trkpt>
      <trkpt lat="48.06581" lon="-3.52068">
        <ele>192</ele>
        <time>2025-02-26T09:58:55Z</time>
      </trkpt>
      <trkpt lat="48.0658" lon="-3.52067">
        <ele>192.1</ele>
        <time>2025-02-26T09:58:56Z</time>
      </trkpt>
      <trkpt lat="48.06579" lon="-3.52065">
        <ele>192.1</ele>
        <time>2025-02-26T09:58:57Z</time>
      </trkpt>
      <trkpt lat="48.06578" lon="-3.52064">
        <ele>192.1</ele>
        <time>2025-02-26T09:58:58Z</time>
      </trkpt>
      <trkpt lat="48.06578" lon="-3.52062">
        <ele>192</ele>
        <time>2025-02-26T09:58:59Z</time>
      </trkpt>
      <trkpt lat="48.06577" lon="-3.5206">
        <ele>192</ele>
        <time>2025-02-26T09:59:00Z</time>
      </trkpt>
      <trkpt lat="48.06577" lon="-3.52059">
        <ele>192</ele>
        <time>2025-02-26T09:59:01Z</time>
      </trkpt>
      <trkpt lat="48.06576" lon="-3.52057">
        <ele>192</ele>
        <time>2025-02-26T09:59:02Z</time>
      </trkpt>
      <trkpt lat="48.06576" lon="-3.52055">
        <ele>192</ele>
        <time>2025-02-26T09:59:03Z</time>
      </trkpt>
      <trkpt lat="48.06576" lon="-3.52054">
        <ele>191.9</ele>
        <time>2025-02-26T09:59:04Z</time>
      </trkpt>
      <trkpt lat="48.06576" lon="-3.52052">
        <ele>191.9</ele>
        <time>2025-02-26T09:59:05Z</time>
      </trkpt>
      <trkpt lat="48.06576" lon="-3.5205">
        <ele>191.8</ele>
        <time>2025-02-26T09:59:06Z</time>
      </trkpt>
      <trkpt lat="48.06576" lon="-3.52049">
        <ele>191.7</ele>
        <time>2025-02-26T09:59:07Z</time>
      </trkpt>
      <trkpt lat="48.06575" lon="-3.52047">
        <ele>191.7</ele>
        <time>2025-02-26T09:59:08Z</time>
      </trkpt>
      <trkpt lat="48.06575" lon="-3.52045">
        <ele>191.6</ele>
        <time>2025-02-26T09:59:09Z</time>
      </trkpt>
      <trkpt lat="48.06574" lon="-3.52044">
        <ele>191.6</ele>
        <time>2025-02-26T09:59:10Z</time>
      </trkpt>
      <trkpt lat="48.06574" lon="-3.52043">
        <ele>191.5</ele>
        <time>2025-02-26T09:59:11Z</time>
      </trkpt>
      <trkpt lat="48.06574" lon="-3.52041">
        <ele>191.5</ele>
        <time>2025-02-26T09:59:12Z</time>
      </trkpt>
      <trkpt lat="48.06574" lon="-3.52039">
        <ele>191.4</ele>
        <time>2025-02-26T09:59:13Z</time>
      </trkpt>
      <trkpt lat="48.06574" lon="-3.52038">
        <ele>191.4</ele>
        <time>2025-02-26T09:59:14Z</time>
      </trkpt>
      <trkpt lat="48.06574" lon="-3.52036">
        <ele>191.3</ele>
        <time>2025-02-26T09:59:15Z</time>
      </trkpt>
      <trkpt lat="48.06574" lon="-3.52034">
        <ele>191.2</ele>
        <time>2025-02-26T09:59:16Z</time>
      </trkpt>
      <trkpt lat="48.06574" lon="-3.52033">
        <ele>191.2</ele>
        <time>2025-02-26T09:59:17Z</time>
      </trkpt>
      <trkpt lat="48.06574" lon="-3.52031">
        <ele>191.1</ele>
        <time>2025-02-26T09:59:18Z</time>
      </trkpt>
      <trkpt lat="48.06573" lon="-3.5203">
        <ele>191.1</ele>
        <time>2025-02-26T09:59:19Z</time>
      </trkpt>
      <trkpt lat="48.06573" lon="-3.52028">
        <ele>191</ele>
        <time>2025-02-26T09:59:20Z</time>
      </trkpt>
      <trkpt lat="48.06573" lon="-3.52026">
        <ele>191</ele>
        <time>2025-02-26T09:59:21Z</time>
      </trkpt>
      <trkpt lat="48.06574" lon="-3.52025">
        <ele>191</ele>
        <time>2025-02-26T09:59:22Z</time>
      </trkpt>
      <trkpt lat="48.06574" lon="-3.52023">
        <ele>191</ele>
        <time>2025-02-26T09:59:23Z</time>
      </trkpt>
      <trkpt lat="48.06573" lon="-3.52022">
        <ele>191</ele>
        <time>2025-02-26T09:59:24Z</time>
      </trkpt>
      <trkpt lat="48.06573" lon="-3.5202">
        <ele>191</ele>
        <time>2025-02-26T09:59:25Z</time>
      </trkpt>
      <trkpt lat="48.06573" lon="-3.52019">
        <ele>191</ele>
        <time>2025-02-26T09:59:26Z</time>
      </trkpt>
      <trkpt lat="48.06572" lon="-3.52017">
        <ele>191</ele>
        <time>2025-02-26T09:59:27Z</time>
      </trkpt>
      <trkpt lat="48.06572" lon="-3.52016">
        <ele>191</ele>
        <time>2025-02-26T09:59:28Z</time>
      </trkpt>
      <trkpt lat="48.06571" lon="-3.52014">
        <ele>191</ele>
        <time>2025-02-26T09:59:29Z</time>
      </trkpt>
      <trkpt lat="48.06571" lon="-3.52012">
        <ele>191</ele>
        <time>2025-02-26T09:59:30Z</time>
      </trkpt>
      <trkpt lat="48.06571" lon="-3.5201">
        <ele>191</ele>
        <time>2025-02-26T09:59:31Z</time>
      </trkpt>
      <trkpt lat="48.0657" lon="-3.52009">
        <ele>191</ele>
        <time>2025-02-26T09:59:32Z</time>
      </trkpt>
      <trkpt lat="48.0657" lon="-3.52007">
        <ele>191</ele>
        <time>2025-02-26T09:59:33Z</time>
      </trkpt>
      <trkpt lat="48.0657" lon="-3.52005">
        <ele>191</ele>
        <time>2025-02-26T09:59:34Z</time>
      </trkpt>
      <trkpt lat="48.0657" lon="-3.52004">
        <ele>191</ele>
        <time>2025-02-26T09:59:35Z</time>
      </trkpt>
      <trkpt lat="48.0657" lon="-3.52002">
        <ele>191</ele>
        <time>2025-02-26T09:59:36Z</time>
      </trkpt>
      <trkpt lat="48.06569" lon="-3.52001">
        <ele>191</ele>
        <time>2025-02-26T09:59:37Z</time>
      </trkpt>
      <trkpt lat="48.0657" lon="-3.51999">
        <ele>191</ele>
        <time>2025-02-26T09:59:38Z</time>
      </trkpt>
      <trkpt lat="48.0657" lon="-3.51997">
        <ele>191</ele>
        <time>2025-02-26T09:59:39Z</time>
      </trkpt>
      <trkpt lat="48.06569" lon="-3.51996">
        <ele>190.9</ele>
        <time>2025-02-26T09:59:40Z</time>
      </trkpt>
      <trkpt lat="48.06569" lon="-3.51994">
        <ele>190.9</ele>
        <time>2025-02-26T09:59:41Z</time>
      </trkpt>
      <trkpt lat="48.06569" lon="-3.51992">
        <ele>190.9</ele>
        <time>2025-02-26T09:59:42Z</time>
      </trkpt>
      <trkpt lat="48.06569" lon="-3.5199">
        <ele>190.8</ele>
        <time>2025-02-26T09:59:43Z</time>
      </trkpt>
      <trkpt lat="48.06569" lon="-3.51989">
        <ele>190.8</ele>
        <time>2025-02-26T09:59:44Z</time>
      </trkpt>
      <trkpt lat="48.06569" lon="-3.51987">
        <ele>190.7</ele>
        <time>2025-02-26T09:59:45Z</time>
      </trkpt>
      <trkpt lat="48.06569" lon="-3.51985">
        <ele>190.7</ele>
        <time>2025-02-26T09:59:46Z</time>
      </trkpt>
      <trkpt lat="48.06569" lon="-3.51983">
        <ele>190.7</ele>
        <time>2025-02-26T09:59:47Z</time>
      </trkpt>
      <trkpt lat="48.06569" lon="-3.51981">
        <ele>190.6</ele>
        <time>2025-02-26T09:59:48Z</time>
      </trkpt>
      <trkpt lat="48.06568" lon="-3.51979">
        <ele>190.6</ele>
        <time>2025-02-26T09:59:49Z</time>
      </trkpt>
      <trkpt lat="48.06569" lon="-3.51977">
        <ele>190.6</ele>
        <time>2025-02-26T09:59:50Z</time>
      </trkpt>
      <trkpt lat="48.06569" lon="-3.51975">
        <ele>190.5</ele>
        <time>2025-02-26T09:59:51Z</time>
      </trkpt>
      <trkpt lat="48.06568" lon="-3.51973">
        <ele>190.5</ele>
        <time>2025-02-26T09:59:52Z</time>
      </trkpt>
      <trkpt lat="48.06569" lon="-3.51971">
        <ele>190.5</ele>
        <time>2025-02-26T09:59:53Z</time>
      </trkpt>
      <trkpt lat="48.06569" lon="-3.51969">
        <ele>190.5</ele>
        <time>2025-02-26T09:59:54Z</time>
      </trkpt>
      <trkpt lat="48.06569" lon="-3.51968">
        <ele>190.5</ele>
        <time>2025-02-26T09:59:55Z</time>
      </trkpt>
      <trkpt lat="48.06569" lon="-3.51966">
        <ele>190.5</ele>
        <time>2025-02-26T09:59:56Z</time>
      </trkpt>
      <trkpt lat="48.06568" lon="-3.51964">
        <ele>190.5</ele>
        <time>2025-02-26T09:59:57Z</time>
      </trkpt>
      <trkpt lat="48.06568" lon="-3.51963">
        <ele>190.5</ele>
        <time>2025-02-26T09:59:58Z</time>
      </trkpt>
      <trkpt lat="48.06568" lon="-3.51961">
        <ele>190.5</ele>
        <time>2025-02-26T09:59:59Z</time>
      </trkpt>
      <trkpt lat="48.06568" lon="-3.51959">
        <ele>190.4</ele>
        <time>2025-02-26T10:00:00Z</time>
      </trkpt>
      <trkpt lat="48.06568" lon="-3.51958">
        <ele>190.4</ele>
        <time>2025-02-26T10:00:01Z</time>
      </trkpt>
      <trkpt lat="48.06568" lon="-3.51956">
        <ele>190.4</ele>
        <time>2025-02-26T10:00:02Z</time>
      </trkpt>
      <trkpt lat="48.06567" lon="-3.51955">
        <ele>190.4</ele>
        <time>2025-02-26T10:00:03Z</time>
      </trkpt>
      <trkpt lat="48.06567" lon="-3.51953">
        <ele>190.4</ele>
        <time>2025-02-26T10:00:04Z</time>
      </trkpt>
      <trkpt lat="48.06567" lon="-3.51951">
        <ele>190.4</ele>
        <time>2025-02-26T10:00:05Z</time>
      </trkpt>
      <trkpt lat="48.06567" lon="-3.5195">
        <ele>190.4</ele>
        <time>2025-02-26T10:00:06Z</time>
      </trkpt>
      <trkpt lat="48.06567" lon="-3.51948">
        <ele>190.4</ele>
        <time>2025-02-26T10:00:07Z</time>
      </trkpt>
      <trkpt lat="48.06566" lon="-3.51947">
        <ele>190.4</ele>
        <time>2025-02-26T10:00:08Z</time>
      </trkpt>
      <trkpt lat="48.06566" lon="-3.51945">
        <ele>190.4</ele>
        <time>2025-02-26T10:00:09Z</time>
      </trkpt>
      <trkpt lat="48.06566" lon="-3.51944">
        <ele>190.3</ele>
        <time>2025-02-26T10:00:10Z</time>
      </trkpt>
      <trkpt lat="48.06565" lon="-3.51942">
        <ele>190.3</ele>
        <time>2025-02-26T10:00:11Z</time>
      </trkpt>
      <trkpt lat="48.06565" lon="-3.5194">
        <ele>190.2</ele>
        <time>2025-02-26T10:00:12Z</time>
      </trkpt>
      <trkpt lat="48.06565" lon="-3.51939">
        <ele>190.1</ele>
        <time>2025-02-26T10:00:13Z</time>
      </trkpt>
      <trkpt lat="48.06565" lon="-3.51938">
        <ele>190.1</ele>
        <time>2025-02-26T10:00:14Z</time>
      </trkpt>
      <trkpt lat="48.06565" lon="-3.51936">
        <ele>190</ele>
        <time>2025-02-26T10:00:15Z</time>
      </trkpt>
      <trkpt lat="48.06565" lon="-3.51935">
        <ele>190</ele>
        <time>2025-02-26T10:00:16Z</time>
      </trkpt>
      <trkpt lat="48.06566" lon="-3.51933">
        <ele>190</ele>
        <time>2025-02-26T10:00:17Z</time>
      </trkpt>
      <trkpt lat="48.06566" lon="-3.51932">
        <ele>189.9</ele>
        <time>2025-02-26T10:00:18Z</time>
      </trkpt>
      <trkpt lat="48.06565" lon="-3.5193">
        <ele>189.8</ele>
        <time>2025-02-26T10:00:19Z</time>
      </trkpt>
      <trkpt lat="48.06565" lon="-3.51929">
        <ele>189.8</ele>
        <time>2025-02-26T10:00:20Z</time>
      </trkpt>
      <trkpt lat="48.06564" lon="-3.51928">
        <ele>189.7</ele>
        <time>2025-02-26T10:00:21Z</time>
      </trkpt>
      <trkpt lat="48.06563" lon="-3.51927">
        <ele>189.6</ele>
        <time>2025-02-26T10:00:22Z</time>
      </trkpt>
      <trkpt lat="48.06562" lon="-3.51927">
        <ele>189.6</ele>
        <time>2025-02-26T10:00:23Z</time>
      </trkpt>
      <trkpt lat="48.06561" lon="-3.51927">
        <ele>189.5</ele>
        <time>2025-02-26T10:00:24Z</time>
      </trkpt>
      <trkpt lat="48.0656" lon="-3.51927">
        <ele>189.5</ele>
        <time>2025-02-26T10:00:25Z</time>
      </trkpt>
      <trkpt lat="48.06558" lon="-3.51927">
        <ele>189.5</ele>
        <time>2025-02-26T10:00:26Z</time>
      </trkpt>
      <trkpt lat="48.06557" lon="-3.51927">
        <ele>189.4</ele>
        <time>2025-02-26T10:00:27Z</time>
      </trkpt>
      <trkpt lat="48.06556" lon="-3.51927">
        <ele>189.4</ele>
        <time>2025-02-26T10:00:28Z</time>
      </trkpt>
      <trkpt lat="48.06555" lon="-3.51927">
        <ele>189.4</ele>
        <time>2025-02-26T10:00:29Z</time>
      </trkpt>
      <trkpt lat="48.06554" lon="-3.51928">
        <ele>189.4</ele>
        <time>2025-02-26T10:00:30Z</time>
      </trkpt>
      <trkpt lat="48.06553" lon="-3.51928">
        <ele>189.4</ele>
        <time>2025-02-26T10:00:31Z</time>
      </trkpt>
      <trkpt lat="48.06552" lon="-3.51928">
        <ele>189.4</ele>
        <time>2025-02-26T10:00:32Z</time>
      </trkpt>
      <trkpt lat="48.06551" lon="-3.51929">
        <ele>189.4</ele>
        <time>2025-02-26T10:00:33Z</time>
      </trkpt>
      <trkpt lat="48.0655" lon="-3.51929">
        <ele>189.4</ele>
        <time>2025-02-26T10:00:34Z</time>
      </trkpt>
      <trkpt lat="48.06549" lon="-3.5193">
        <ele>189.4</ele>
        <time>2025-02-26T10:00:35Z</time>
      </trkpt>
      <trkpt lat="48.06548" lon="-3.5193">
        <ele>189.4</ele>
        <time>2025-02-26T10:00:36Z</time>
      </trkpt>
      <trkpt lat="48.06547" lon="-3.51931">
        <ele>189.4</ele>
        <time>2025-02-26T10:00:37Z</time>
      </trkpt>
      <trkpt lat="48.06546" lon="-3.51931">
        <ele>189.3</ele>
        <time>2025-02-26T10:00:38Z</time>
      </trkpt>
      <trkpt lat="48.06545" lon="-3.51931">
        <ele>189.3</ele>
        <time>2025-02-26T10:00:39Z</time>
      </trkpt>
      <trkpt lat="48.06544" lon="-3.51931">
        <ele>189.3</ele>
        <time>2025-02-26T10:00:40Z</time>
      </trkpt>
      <trkpt lat="48.06543" lon="-3.51931">
        <ele>189.3</ele>
        <time>2025-02-26T10:00:41Z</time>
      </trkpt>
      <trkpt lat="48.06542" lon="-3.51931">
        <ele>189.3</ele>
        <time>2025-02-26T10:00:42Z</time>
      </trkpt>
      <trkpt lat="48.06541" lon="-3.51932">
        <ele>189.2</ele>
        <time>2025-02-26T10:00:43Z</time>
      </trkpt>
      <trkpt lat="48.0654" lon="-3.51932">
        <ele>189.2</ele>
        <time>2025-02-26T10:00:44Z</time>
      </trkpt>
      <trkpt lat="48.06539" lon="-3.51933">
        <ele>189.2</ele>
        <time>2025-02-26T10:00:45Z</time>
      </trkpt>
      <trkpt lat="48.06538" lon="-3.51933">
        <ele>189.2</ele>
        <time>2025-02-26T10:00:46Z</time>
      </trkpt>
      <trkpt lat="48.06536" lon="-3.51934">
        <ele>189.2</ele>
        <time>2025-02-26T10:00:47Z</time>
      </trkpt>
      <trkpt lat="48.06535" lon="-3.51934">
        <ele>189.2</ele>
        <time>2025-02-26T10:00:48Z</time>
      </trkpt>
      <trkpt lat="48.06535" lon="-3.51935">
        <ele>189.2</ele>
        <time>2025-02-26T10:00:49Z</time>
      </trkpt>
      <trkpt lat="48.06534" lon="-3.51935">
        <ele>189.1</ele>
        <time>2025-02-26T10:00:50Z</time>
      </trkpt>
      <trkpt lat="48.06533" lon="-3.51935">
        <ele>189.1</ele>
        <time>2025-02-26T10:00:51Z</time>
      </trkpt>
      <trkpt lat="48.06531" lon="-3.51935">
        <ele>189.1</ele>
        <time>2025-02-26T10:00:52Z</time>
      </trkpt>
      <trkpt lat="48.0653" lon="-3.51935">
        <ele>189.1</ele>
        <time>2025-02-26T10:00:53Z</time>
      </trkpt>
      <trkpt lat="48.06529" lon="-3.51935">
        <ele>189</ele>
        <time>2025-02-26T10:00:54Z</time>
      </trkpt>
      <trkpt lat="48.06528" lon="-3.51935">
        <ele>189</ele>
        <time>2025-02-26T10:00:55Z</time>
      </trkpt>
      <trkpt lat="48.06527" lon="-3.51934">
        <ele>189</ele>
        <time>2025-02-26T10:00:56Z</time>
      </trkpt>
      <trkpt lat="48.06526" lon="-3.51933">
        <ele>189</ele>
        <time>2025-02-26T10:00:57Z</time>
      </trkpt>
      <trkpt lat="48.06524" lon="-3.51933">
        <ele>188.9</ele>
        <time>2025-02-26T10:00:58Z</time>
      </trkpt>
      <trkpt lat="48.06523" lon="-3.51932">
        <ele>188.9</ele>
        <time>2025-02-26T10:00:59Z</time>
      </trkpt>
      <trkpt lat="48.06522" lon="-3.51932">
        <ele>188.9</ele>
        <time>2025-02-26T10:01:00Z</time>
      </trkpt>
      <trkpt lat="48.06521" lon="-3.51932">
        <ele>188.9</ele>
        <time>2025-02-26T10:01:01Z</time>
      </trkpt>
      <trkpt lat="48.0652" lon="-3.51931">
        <ele>188.9</ele>
        <time>2025-02-26T10:01:02Z</time>
      </trkpt>
      <trkpt lat="48.06519" lon="-3.51929">
        <ele>188.8</ele>
        <time>2025-02-26T10:01:03Z</time>
      </trkpt>
      <trkpt lat="48.06518" lon="-3.51928">
        <ele>188.8</ele>
        <time>2025-02-26T10:01:04Z</time>
      </trkpt>
      <trkpt lat="48.06518" lon="-3.51926">
        <ele>188.8</ele>
        <time>2025-02-26T10:01:05Z</time>
      </trkpt>
      <trkpt lat="48.06518" lon="-3.51924">
        <ele>188.7</ele>
        <time>2025-02-26T10:01:06Z</time>
      </trkpt>
      <trkpt lat="48.06518" lon="-3.51922">
        <ele>188.7</ele>
        <time>2025-02-26T10:01:07Z</time>
      </trkpt>
      <trkpt lat="48.06518" lon="-3.5192">
        <ele>188.7</ele>
        <time>2025-02-26T10:01:08Z</time>
      </trkpt>
      <trkpt lat="48.06519" lon="-3.51919">
        <ele>188.7</ele>
        <time>2025-02-26T10:01:09Z</time>
      </trkpt>
      <trkpt lat="48.06519" lon="-3.51917">
        <ele>188.7</ele>
        <time>2025-02-26T10:01:10Z</time>
      </trkpt>
      <trkpt lat="48.06519" lon="-3.51915">
        <ele>188.6</ele>
        <time>2025-02-26T10:01:11Z</time>
      </trkpt>
      <trkpt lat="48.0652" lon="-3.51914">
        <ele>188.6</ele>
        <time>2025-02-26T10:01:12Z</time>
      </trkpt>
      <trkpt lat="48.06521" lon="-3.51912">
        <ele>188.6</ele>
        <time>2025-02-26T10:01:13Z</time>
      </trkpt>
      <trkpt lat="48.06521" lon="-3.51911">
        <ele>188.5</ele>
        <time>2025-02-26T10:01:14Z</time>
      </trkpt>
      <trkpt lat="48.06522" lon="-3.51909">
        <ele>188.5</ele>
        <time>2025-02-26T10:01:15Z</time>
      </trkpt>
      <trkpt lat="48.06522" lon="-3.51907">
        <ele>188.5</ele>
        <time>2025-02-26T10:01:16Z</time>
      </trkpt>
      <trkpt lat="48.06523" lon="-3.51905">
        <ele>188.4</ele>
        <time>2025-02-26T10:01:17Z</time>
      </trkpt>
      <trkpt lat="48.06524" lon="-3.51904">
        <ele>188.4</ele>
        <time>2025-02-26T10:01:18Z</time>
      </trkpt>
      <trkpt lat="48.06524" lon="-3.51902">
        <ele>188.4</ele>
        <time>2025-02-26T10:01:19Z</time>
      </trkpt>
      <trkpt lat="48.06525" lon="-3.51901">
        <ele>188.3</ele>
        <time>2025-02-26T10:01:20Z</time>
      </trkpt>
      <trkpt lat="48.06526" lon="-3.51899">
        <ele>188.3</ele>
        <time>2025-02-26T10:01:21Z</time>
      </trkpt>
      <trkpt lat="48.06526" lon="-3.51898">
        <ele>188.3</ele>
        <time>2025-02-26T10:01:22Z</time>
      </trkpt>
      <trkpt lat="48.06527" lon="-3.51896">
        <ele>188.2</ele>
        <time>2025-02-26T10:01:23Z</time>
      </trkpt>
      <trkpt lat="48.06528" lon="-3.51895">
        <ele>188.2</ele>
        <time>2025-02-26T10:01:24Z</time>
      </trkpt>
      <trkpt lat="48.06529" lon="-3.51894">
        <ele>188.2</ele>
        <time>2025-02-26T10:01:25Z</time>
      </trkpt>
      <trkpt lat="48.06529" lon="-3.51892">
        <ele>188.2</ele>
        <time>2025-02-26T10:01:26Z</time>
      </trkpt>
      <trkpt lat="48.0653" lon="-3.5189">
        <ele>188.1</ele>
        <time>2025-02-26T10:01:27Z</time>
      </trkpt>
      <trkpt lat="48.06531" lon="-3.51889">
        <ele>188.1</ele>
        <time>2025-02-26T10:01:28Z</time>
      </trkpt>
      <trkpt lat="48.06531" lon="-3.51887">
        <ele>188.1</ele>
        <time>2025-02-26T10:01:29Z</time>
      </trkpt>
      <trkpt lat="48.06532" lon="-3.51886">
        <ele>188.1</ele>
        <time>2025-02-26T10:01:30Z</time>
      </trkpt>
      <trkpt lat="48.06533" lon="-3.51884">
        <ele>188</ele>
        <time>2025-02-26T10:01:31Z</time>
      </trkpt>
      <trkpt lat="48.06533" lon="-3.51883">
        <ele>188</ele>
        <time>2025-02-26T10:01:32Z</time>
      </trkpt>
      <trkpt lat="48.06534" lon="-3.51881">
        <ele>188</ele>
        <time>2025-02-26T10:01:33Z</time>
      </trkpt>
      <trkpt lat="48.06535" lon="-3.5188">
        <ele>187.9</ele>
        <time>2025-02-26T10:01:34Z</time>
      </trkpt>
      <trkpt lat="48.06535" lon="-3.51878">
        <ele>187.9</ele>
        <time>2025-02-26T10:01:35Z</time>
      </trkpt>
      <trkpt lat="48.06536" lon="-3.51876">
        <ele>187.8</ele>
        <time>2025-02-26T10:01:36Z</time>
      </trkpt>
      <trkpt lat="48.06537" lon="-3.51875">
        <ele>187.8</ele>
        <time>2025-02-26T10:01:37Z</time>
      </trkpt>
      <trkpt lat="48.06538" lon="-3.51873">
        <ele>187.8</ele>
        <time>2025-02-26T10:01:38Z</time>
      </trkpt>
      <trkpt lat="48.06538" lon="-3.51872">
        <ele>187.7</ele>
        <time>2025-02-26T10:01:39Z</time>
      </trkpt>
      <trkpt lat="48.06538" lon="-3.5187">
        <ele>187.7</ele>
        <time>2025-02-26T10:01:40Z</time>
      </trkpt>
      <trkpt lat="48.06539" lon="-3.51868">
        <ele>187.7</ele>
        <time>2025-02-26T10:01:41Z</time>
      </trkpt>
      <trkpt lat="48.06539" lon="-3.51867">
        <ele>187.6</ele>
        <time>2025-02-26T10:01:42Z</time>
      </trkpt>
      <trkpt lat="48.06539" lon="-3.51865">
        <ele>187.6</ele>
        <time>2025-02-26T10:01:43Z</time>
      </trkpt>
      <trkpt lat="48.0654" lon="-3.51863">
        <ele>187.5</ele>
        <time>2025-02-26T10:01:44Z</time>
      </trkpt>
      <trkpt lat="48.06541" lon="-3.51862">
        <ele>187.5</ele>
        <time>2025-02-26T10:01:45Z</time>
      </trkpt>
      <trkpt lat="48.06541" lon="-3.5186">
        <ele>187.5</ele>
        <time>2025-02-26T10:01:46Z</time>
      </trkpt>
      <trkpt lat="48.06541" lon="-3.51858">
        <ele>187.5</ele>
        <time>2025-02-26T10:01:47Z</time>
      </trkpt>
      <trkpt lat="48.06542" lon="-3.51856">
        <ele>187.6</ele>
        <time>2025-02-26T10:01:48Z</time>
      </trkpt>
      <trkpt lat="48.06543" lon="-3.51854">
        <ele>187.7</ele>
        <time>2025-02-26T10:01:49Z</time>
      </trkpt>
      <trkpt lat="48.06543" lon="-3.51852">
        <ele>187.7</ele>
        <time>2025-02-26T10:01:50Z</time>
      </trkpt>
      <trkpt lat="48.06543" lon="-3.5185">
        <ele>187.8</ele>
        <time>2025-02-26T10:01:51Z</time>
      </trkpt>
      <trkpt lat="48.06544" lon="-3.51848">
        <ele>187.8</ele>
        <time>2025-02-26T10:01:52Z</time>
      </trkpt>
      <trkpt lat="48.06544" lon="-3.51846">
        <ele>187.9</ele>
        <time>2025-02-26T10:01:53Z</time>
      </trkpt>
      <trkpt lat="48.06545" lon="-3.51845">
        <ele>188</ele>
        <time>2025-02-26T10:01:54Z</time>
      </trkpt>
      <trkpt lat="48.06545" lon="-3.51843">
        <ele>188</ele>
        <time>2025-02-26T10:01:55Z</time>
      </trkpt>
      <trkpt lat="48.06546" lon="-3.51841">
        <ele>188.1</ele>
        <time>2025-02-26T10:01:56Z</time>
      </trkpt>
      <trkpt lat="48.06546" lon="-3.51839">
        <ele>188.2</ele>
        <time>2025-02-26T10:01:57Z</time>
      </trkpt>
      <trkpt lat="48.06546" lon="-3.51838">
        <ele>188.2</ele>
        <time>2025-02-26T10:01:58Z</time>
      </trkpt>
      <trkpt lat="48.06546" lon="-3.51836">
        <ele>188.3</ele>
        <time>2025-02-26T10:01:59Z</time>
      </trkpt>
      <trkpt lat="48.06546" lon="-3.51834">
        <ele>188.3</ele>
        <time>2025-02-26T10:02:00Z</time>
      </trkpt>
      <trkpt lat="48.06546" lon="-3.51832">
        <ele>188.4</ele>
        <time>2025-02-26T10:02:01Z</time>
      </trkpt>
      <trkpt lat="48.06546" lon="-3.5183">
        <ele>188.5</ele>
        <time>2025-02-26T10:02:02Z</time>
      </trkpt>
      <trkpt lat="48.06546" lon="-3.51828">
        <ele>188.7</ele>
        <time>2025-02-26T10:02:03Z</time>
      </trkpt>
      <trkpt lat="48.06547" lon="-3.51826">
        <ele>188.8</ele>
        <time>2025-02-26T10:02:04Z</time>
      </trkpt>
      <trkpt lat="48.06547" lon="-3.51824">
        <ele>188.9</ele>
        <time>2025-02-26T10:02:05Z</time>
      </trkpt>
      <trkpt lat="48.06547" lon="-3.51823">
        <ele>189</ele>
        <time>2025-02-26T10:02:06Z</time>
      </trkpt>
      <trkpt lat="48.06547" lon="-3.51821">
        <ele>189.1</ele>
        <time>2025-02-26T10:02:07Z</time>
      </trkpt>
      <trkpt lat="48.06546" lon="-3.51819">
        <ele>189.2</ele>
        <time>2025-02-26T10:02:08Z</time>
      </trkpt>
      <trkpt lat="48.06547" lon="-3.51817">
        <ele>189.3</ele>
        <time>2025-02-26T10:02:09Z</time>
      </trkpt>
      <trkpt lat="48.06547" lon="-3.51816">
        <ele>189.4</ele>
        <time>2025-02-26T10:02:10Z</time>
      </trkpt>
      <trkpt lat="48.06546" lon="-3.51814">
        <ele>189.5</ele>
        <time>2025-02-26T10:02:11Z</time>
      </trkpt>
      <trkpt lat="48.06547" lon="-3.51812">
        <ele>189.6</ele>
        <time>2025-02-26T10:02:12Z</time>
      </trkpt>
      <trkpt lat="48.06546" lon="-3.5181">
        <ele>189.7</ele>
        <time>2025-02-26T10:02:13Z</time>
      </trkpt>
      <trkpt lat="48.06546" lon="-3.51808">
        <ele>189.8</ele>
        <time>2025-02-26T10:02:14Z</time>
      </trkpt>
      <trkpt lat="48.06546" lon="-3.51807">
        <ele>189.9</ele>
        <time>2025-02-26T10:02:15Z</time>
      </trkpt>
      <trkpt lat="48.06546" lon="-3.51806">
        <ele>190</ele>
        <time>2025-02-26T10:02:16Z</time>
      </trkpt>
      <trkpt lat="48.06546" lon="-3.51805">
        <ele>190</ele>
        <time>2025-02-26T10:02:17Z</time>
      </trkpt>
      <trkpt lat="48.06545" lon="-3.51803">
        <ele>190.1</ele>
        <time>2025-02-26T10:02:18Z</time>
      </trkpt>
      <trkpt lat="48.06545" lon="-3.51801">
        <ele>190.2</ele>
        <time>2025-02-26T10:02:19Z</time>
      </trkpt>
      <trkpt lat="48.06545" lon="-3.518">
        <ele>190.2</ele>
        <time>2025-02-26T10:02:20Z</time>
      </trkpt>
      <trkpt lat="48.06544" lon="-3.51798">
        <ele>190.3</ele>
        <time>2025-02-26T10:02:21Z</time>
      </trkpt>
      <trkpt lat="48.06544" lon="-3.51796">
        <ele>190.3</ele>
        <time>2025-02-26T10:02:22Z</time>
      </trkpt>
      <trkpt lat="48.06544" lon="-3.51795">
        <ele>190.4</ele>
        <time>2025-02-26T10:02:23Z</time>
      </trkpt>
      <trkpt lat="48.06544" lon="-3.51793">
        <ele>190.4</ele>
        <time>2025-02-26T10:02:24Z</time>
      </trkpt>
      <trkpt lat="48.06543" lon="-3.51792">
        <ele>190.5</ele>
        <time>2025-02-26T10:02:25Z</time>
      </trkpt>
      <trkpt lat="48.06543" lon="-3.5179">
        <ele>190.6</ele>
        <time>2025-02-26T10:02:26Z</time>
      </trkpt>
      <trkpt lat="48.06543" lon="-3.51789">
        <ele>190.6</ele>
        <time>2025-02-26T10:02:27Z</time>
      </trkpt>
      <trkpt lat="48.06543" lon="-3.51787">
        <ele>190.7</ele>
        <time>2025-02-26T10:02:28Z</time>
      </trkpt>
      <trkpt lat="48.06543" lon="-3.51785">
        <ele>190.7</ele>
        <time>2025-02-26T10:02:29Z</time>
      </trkpt>
      <trkpt lat="48.06542" lon="-3.51784">
        <ele>190.8</ele>
        <time>2025-02-26T10:02:30Z</time>
      </trkpt>
      <trkpt lat="48.06542" lon="-3.51782">
        <ele>190.8</ele>
        <time>2025-02-26T10:02:31Z</time>
      </trkpt>
      <trkpt lat="48.06542" lon="-3.51781">
        <ele>190.9</ele>
        <time>2025-02-26T10:02:32Z</time>
      </trkpt>
      <trkpt lat="48.06542" lon="-3.51779">
        <ele>190.9</ele>
        <time>2025-02-26T10:02:33Z</time>
      </trkpt>
      <trkpt lat="48.06542" lon="-3.51778">
        <ele>191</ele>
        <time>2025-02-26T10:02:34Z</time>
      </trkpt>
      <trkpt lat="48.06542" lon="-3.51777">
        <ele>191</ele>
        <time>2025-02-26T10:02:35Z</time>
      </trkpt>
      <trkpt lat="48.06542" lon="-3.51776">
        <ele>191.1</ele>
        <time>2025-02-26T10:02:36Z</time>
      </trkpt>
      <trkpt lat="48.06542" lon="-3.51774">
        <ele>191.1</ele>
        <time>2025-02-26T10:02:37Z</time>
      </trkpt>
      <trkpt lat="48.06541" lon="-3.51773">
        <ele>191.2</ele>
        <time>2025-02-26T10:02:38Z</time>
      </trkpt>
      <trkpt lat="48.06541" lon="-3.51772">
        <ele>191.2</ele>
        <time>2025-02-26T10:02:39Z</time>
      </trkpt>
      <trkpt lat="48.06541" lon="-3.51771">
        <ele>191.2</ele>
        <time>2025-02-26T10:02:40Z</time>
      </trkpt>
      <trkpt lat="48.06541" lon="-3.51769">
        <ele>191.3</ele>
        <time>2025-02-26T10:02:41Z</time>
      </trkpt>
      <trkpt lat="48.0654" lon="-3.51768">
        <ele>191.3</ele>
        <time>2025-02-26T10:02:42Z</time>
      </trkpt>
      <trkpt lat="48.0654" lon="-3.51767">
        <ele>191.4</ele>
        <time>2025-02-26T10:02:43Z</time>
      </trkpt>
      <trkpt lat="48.06539" lon="-3.51766">
        <ele>191.4</ele>
        <time>2025-02-26T10:02:44Z</time>
      </trkpt>
      <trkpt lat="48.06538" lon="-3.51765">
        <ele>191.5</ele>
        <time>2025-02-26T10:02:45Z</time>
      </trkpt>
      <trkpt lat="48.06538" lon="-3.51763">
        <ele>191.5</ele>
        <time>2025-02-26T10:02:46Z</time>
      </trkpt>
      <trkpt lat="48.06538" lon="-3.51761">
        <ele>191.6</ele>
        <time>2025-02-26T10:02:47Z</time>
      </trkpt>
      <trkpt lat="48.06538" lon="-3.51759">
        <ele>191.7</ele>
        <time>2025-02-26T10:02:48Z</time>
      </trkpt>
      <trkpt lat="48.06538" lon="-3.51757">
        <ele>191.7</ele>
        <time>2025-02-26T10:02:49Z</time>
      </trkpt>
      <trkpt lat="48.06538" lon="-3.51756">
        <ele>191.8</ele>
        <time>2025-02-26T10:02:50Z</time>
      </trkpt>
      <trkpt lat="48.06538" lon="-3.51754">
        <ele>191.9</ele>
        <time>2025-02-26T10:02:51Z</time>
      </trkpt>
      <trkpt lat="48.06537" lon="-3.51752">
        <ele>191.9</ele>
        <time>2025-02-26T10:02:52Z</time>
      </trkpt>
      <trkpt lat="48.06537" lon="-3.51751">
        <ele>192</ele>
        <time>2025-02-26T10:02:53Z</time>
      </trkpt>
      <trkpt lat="48.06537" lon="-3.51749">
        <ele>192</ele>
        <time>2025-02-26T10:02:54Z</time>
      </trkpt>
      <trkpt lat="48.06537" lon="-3.51747">
        <ele>192</ele>
        <time>2025-02-26T10:02:55Z</time>
      </trkpt>
      <trkpt lat="48.06536" lon="-3.51746">
        <ele>192</ele>
        <time>2025-02-26T10:02:56Z</time>
      </trkpt>
      <trkpt lat="48.06536" lon="-3.51744">
        <ele>192</ele>
        <time>2025-02-26T10:02:57Z</time>
      </trkpt>
      <trkpt lat="48.06536" lon="-3.51743">
        <ele>192</ele>
        <time>2025-02-26T10:02:58Z</time>
      </trkpt>
      <trkpt lat="48.06536" lon="-3.51741">
        <ele>192</ele>
        <time>2025-02-26T10:02:59Z</time>
      </trkpt>
      <trkpt lat="48.06536" lon="-3.51739">
        <ele>192</ele>
        <time>2025-02-26T10:03:00Z</time>
      </trkpt>
      <trkpt lat="48.06536" lon="-3.51738">
        <ele>192</ele>
        <time>2025-02-26T10:03:01Z</time>
      </trkpt>
      <trkpt lat="48.06535" lon="-3.51736">
        <ele>192</ele>
        <time>2025-02-26T10:03:02Z</time>
      </trkpt>
      <trkpt lat="48.06534" lon="-3.51735">
        <ele>192</ele>
        <time>2025-02-26T10:03:03Z</time>
      </trkpt>
      <trkpt lat="48.06534" lon="-3.51733">
        <ele>192</ele>
        <time>2025-02-26T10:03:04Z</time>
      </trkpt>
      <trkpt lat="48.06534" lon="-3.51731">
        <ele>192</ele>
        <time>2025-02-26T10:03:05Z</time>
      </trkpt>
      <trkpt lat="48.06533" lon="-3.5173">
        <ele>192</ele>
        <time>2025-02-26T10:03:06Z</time>
      </trkpt>
      <trkpt lat="48.06533" lon="-3.51728">
        <ele>192</ele>
        <time>2025-02-26T10:03:07Z</time>
      </trkpt>
      <trkpt lat="48.06532" lon="-3.51726">
        <ele>192</ele>
        <time>2025-02-26T10:03:08Z</time>
      </trkpt>
      <trkpt lat="48.06532" lon="-3.51725">
        <ele>192</ele>
        <time>2025-02-26T10:03:09Z</time>
      </trkpt>
      <trkpt lat="48.06532" lon="-3.51724">
        <ele>192</ele>
        <time>2025-02-26T10:03:10Z</time>
      </trkpt>
      <trkpt lat="48.06532" lon="-3.51722">
        <ele>192</ele>
        <time>2025-02-26T10:03:11Z</time>
      </trkpt>
      <trkpt lat="48.06532" lon="-3.51719">
        <ele>192.1</ele>
        <time>2025-02-26T10:03:12Z</time>
      </trkpt>
      <trkpt lat="48.06531" lon="-3.51717">
        <ele>192.2</ele>
        <time>2025-02-26T10:03:13Z</time>
      </trkpt>
      <trkpt lat="48.06531" lon="-3.51715">
        <ele>192.2</ele>
        <time>2025-02-26T10:03:14Z</time>
      </trkpt>
      <trkpt lat="48.0653" lon="-3.51714">
        <ele>192.3</ele>
        <time>2025-02-26T10:03:15Z</time>
      </trkpt>
      <trkpt lat="48.0653" lon="-3.51712">
        <ele>192.4</ele>
        <time>2025-02-26T10:03:16Z</time>
      </trkpt>
      <trkpt lat="48.06529" lon="-3.51709">
        <ele>192.5</ele>
        <time>2025-02-26T10:03:17Z</time>
      </trkpt>
      <trkpt lat="48.06529" lon="-3.51707">
        <ele>192.6</ele>
        <time>2025-02-26T10:03:18Z</time>
      </trkpt>
      <trkpt lat="48.06529" lon="-3.51705">
        <ele>192.6</ele>
        <time>2025-02-26T10:03:19Z</time>
      </trkpt>
      <trkpt lat="48.06528" lon="-3.51703">
        <ele>192.7</ele>
        <time>2025-02-26T10:03:20Z</time>
      </trkpt>
      <trkpt lat="48.06528" lon="-3.51701">
        <ele>192.8</ele>
        <time>2025-02-26T10:03:21Z</time>
      </trkpt>
      <trkpt lat="48.06528" lon="-3.51699">
        <ele>192.8</ele>
        <time>2025-02-26T10:03:22Z</time>
      </trkpt>
      <trkpt lat="48.06528" lon="-3.51697">
        <ele>192.9</ele>
        <time>2025-02-26T10:03:23Z</time>
      </trkpt>
      <trkpt lat="48.06528" lon="-3.51695">
        <ele>193</ele>
        <time>2025-02-26T10:03:24Z</time>
      </trkpt>
      <trkpt lat="48.06527" lon="-3.51694">
        <ele>193</ele>
        <time>2025-02-26T10:03:25Z</time>
      </trkpt>
      <trkpt lat="48.06527" lon="-3.51692">
        <ele>193</ele>
        <time>2025-02-26T10:03:26Z</time>
      </trkpt>
      <trkpt lat="48.06526" lon="-3.5169">
        <ele>192.9</ele>
        <time>2025-02-26T10:03:27Z</time>
      </trkpt>
      <trkpt lat="48.06526" lon="-3.51689">
        <ele>192.9</ele>
        <time>2025-02-26T10:03:28Z</time>
      </trkpt>
      <trkpt lat="48.06526" lon="-3.51687">
        <ele>192.9</ele>
        <time>2025-02-26T10:03:29Z</time>
      </trkpt>
      <trkpt lat="48.06526" lon="-3.51685">
        <ele>192.9</ele>
        <time>2025-02-26T10:03:30Z</time>
      </trkpt>
      <trkpt lat="48.06526" lon="-3.51684">
        <ele>192.9</ele>
        <time>2025-02-26T10:03:31Z</time>
      </trkpt>
      <trkpt lat="48.06526" lon="-3.51682">
        <ele>192.9</ele>
        <time>2025-02-26T10:03:32Z</time>
      </trkpt>
      <trkpt lat="48.06526" lon="-3.5168">
        <ele>192.9</ele>
        <time>2025-02-26T10:03:33Z</time>
      </trkpt>
      <trkpt lat="48.06525" lon="-3.51678">
        <ele>192.9</ele>
        <time>2025-02-26T10:03:34Z</time>
      </trkpt>
      <trkpt lat="48.06524" lon="-3.51677">
        <ele>192.9</ele>
        <time>2025-02-26T10:03:35Z</time>
      </trkpt>
      <trkpt lat="48.06524" lon="-3.51675">
        <ele>192.9</ele>
        <time>2025-02-26T10:03:36Z</time>
      </trkpt>
      <trkpt lat="48.06524" lon="-3.51673">
        <ele>192.9</ele>
        <time>2025-02-26T10:03:37Z</time>
      </trkpt>
      <trkpt lat="48.06524" lon="-3.51671">
        <ele>192.9</ele>
        <time>2025-02-26T10:03:38Z</time>
      </trkpt>
      <trkpt lat="48.06524" lon="-3.5167">
        <ele>192.9</ele>
        <time>2025-02-26T10:03:39Z</time>
      </trkpt>
      <trkpt lat="48.06524" lon="-3.51668">
        <ele>192.9</ele>
        <time>2025-02-26T10:03:40Z</time>
      </trkpt>
      <trkpt lat="48.06523" lon="-3.51666">
        <ele>192.8</ele>
        <time>2025-02-26T10:03:41Z</time>
      </trkpt>
      <trkpt lat="48.06523" lon="-3.51664">
        <ele>192.8</ele>
        <time>2025-02-26T10:03:42Z</time>
      </trkpt>
      <trkpt lat="48.06523" lon="-3.51662">
        <ele>192.8</ele>
        <time>2025-02-26T10:03:43Z</time>
      </trkpt>
      <trkpt lat="48.06522" lon="-3.5166">
        <ele>192.8</ele>
        <time>2025-02-26T10:03:44Z</time>
      </trkpt>
      <trkpt lat="48.06522" lon="-3.51658">
        <ele>192.8</ele>
        <time>2025-02-26T10:03:45Z</time>
      </trkpt>
      <trkpt lat="48.06522" lon="-3.51656">
        <ele>192.8</ele>
        <time>2025-02-26T10:03:46Z</time>
      </trkpt>
      <trkpt lat="48.06521" lon="-3.51654">
        <ele>192.8</ele>
        <time>2025-02-26T10:03:47Z</time>
      </trkpt>
      <trkpt lat="48.06521" lon="-3.51652">
        <ele>192.7</ele>
        <time>2025-02-26T10:03:48Z</time>
      </trkpt>
      <trkpt lat="48.06521" lon="-3.5165">
        <ele>192.7</ele>
        <time>2025-02-26T10:03:49Z</time>
      </trkpt>
      <trkpt lat="48.06521" lon="-3.51649">
        <ele>192.8</ele>
        <time>2025-02-26T10:03:50Z</time>
      </trkpt>
      <trkpt lat="48.06522" lon="-3.51647">
        <ele>192.8</ele>
        <time>2025-02-26T10:03:51Z</time>
      </trkpt>
      <trkpt lat="48.06522" lon="-3.51646">
        <ele>192.8</ele>
        <time>2025-02-26T10:03:52Z</time>
      </trkpt>
      <trkpt lat="48.06524" lon="-3.51645">
        <ele>192.8</ele>
        <time>2025-02-26T10:03:53Z</time>
      </trkpt>
      <trkpt lat="48.06524" lon="-3.51644">
        <ele>192.9</ele>
        <time>2025-02-26T10:03:54Z</time>
      </trkpt>
      <trkpt lat="48.06525" lon="-3.51643">
        <ele>192.9</ele>
        <time>2025-02-26T10:03:55Z</time>
      </trkpt>
      <trkpt lat="48.06525" lon="-3.51641">
        <ele>192.9</ele>
        <time>2025-02-26T10:03:56Z</time>
      </trkpt>
      <trkpt lat="48.06525" lon="-3.5164">
        <ele>192.9</ele>
        <time>2025-02-26T10:03:57Z</time>
      </trkpt>
      <trkpt lat="48.06526" lon="-3.51638">
        <ele>192.9</ele>
        <time>2025-02-26T10:03:58Z</time>
      </trkpt>
      <trkpt lat="48.06526" lon="-3.51637">
        <ele>192.9</ele>
        <time>2025-02-26T10:03:59Z</time>
      </trkpt>
      <trkpt lat="48.06526" lon="-3.51635">
        <ele>192.9</ele>
        <time>2025-02-26T10:04:00Z</time>
      </trkpt>
      <trkpt lat="48.06526" lon="-3.51633">
        <ele>192.9</ele>
        <time>2025-02-26T10:04:01Z</time>
      </trkpt>
      <trkpt lat="48.06527" lon="-3.51632">
        <ele>193</ele>
        <time>2025-02-26T10:04:02Z</time>
      </trkpt>
      <trkpt lat="48.06527" lon="-3.5163">
        <ele>193</ele>
        <time>2025-02-26T10:04:03Z</time>
      </trkpt>
      <trkpt lat="48.06527" lon="-3.51628">
        <ele>193</ele>
        <time>2025-02-26T10:04:04Z</time>
      </trkpt>
      <trkpt lat="48.06527" lon="-3.51627">
        <ele>193</ele>
        <time>2025-02-26T10:04:05Z</time>
      </trkpt>
      <trkpt lat="48.06528" lon="-3.51625">
        <ele>193</ele>
        <time>2025-02-26T10:04:06Z</time>
      </trkpt>
      <trkpt lat="48.06528" lon="-3.51623">
        <ele>193</ele>
        <time>2025-02-26T10:04:07Z</time>
      </trkpt>
      <trkpt lat="48.06529" lon="-3.51621">
        <ele>193</ele>
        <time>2025-02-26T10:04:08Z</time>
      </trkpt>
      <trkpt lat="48.06529" lon="-3.5162">
        <ele>193</ele>
        <time>2025-02-26T10:04:09Z</time>
      </trkpt>
      <trkpt lat="48.06529" lon="-3.51618">
        <ele>193</ele>
        <time>2025-02-26T10:04:10Z</time>
      </trkpt>
      <trkpt lat="48.06529" lon="-3.51616">
        <ele>193</ele>
        <time>2025-02-26T10:04:11Z</time>
      </trkpt>
      <trkpt lat="48.06529" lon="-3.51614">
        <ele>193</ele>
        <time>2025-02-26T10:04:12Z</time>
      </trkpt>
      <trkpt lat="48.06529" lon="-3.51612">
        <ele>193</ele>
        <time>2025-02-26T10:04:13Z</time>
      </trkpt>
      <trkpt lat="48.06529" lon="-3.51611">
        <ele>193</ele>
        <time>2025-02-26T10:04:14Z</time>
      </trkpt>
      <trkpt lat="48.0653" lon="-3.51609">
        <ele>193</ele>
        <time>2025-02-26T10:04:15Z</time>
      </trkpt>
      <trkpt lat="48.06529" lon="-3.51607">
        <ele>193</ele>
        <time>2025-02-26T10:04:16Z</time>
      </trkpt>
      <trkpt lat="48.0653" lon="-3.51606">
        <ele>193</ele>
        <time>2025-02-26T10:04:17Z</time>
      </trkpt>
      <trkpt lat="48.0653" lon="-3.51604">
        <ele>193</ele>
        <time>2025-02-26T10:04:18Z</time>
      </trkpt>
      <trkpt lat="48.06531" lon="-3.51603">
        <ele>193</ele>
        <time>2025-02-26T10:04:19Z</time>
      </trkpt>
      <trkpt lat="48.06531" lon="-3.51601">
        <ele>193</ele>
        <time>2025-02-26T10:04:20Z</time>
      </trkpt>
      <trkpt lat="48.06531" lon="-3.51601">
        <ele>193</ele>
        <time>2025-02-26T10:04:21Z</time>
      </trkpt>
      <trkpt lat="48.06529" lon="-3.516">
        <ele>193</ele>
        <time>2025-02-26T10:04:22Z</time>
      </trkpt>
      <trkpt lat="48.06528" lon="-3.51599">
        <ele>193</ele>
        <time>2025-02-26T10:04:23Z</time>
      </trkpt>
      <trkpt lat="48.06528" lon="-3.51598">
        <ele>193</ele>
        <time>2025-02-26T10:04:24Z</time>
      </trkpt>
      <trkpt lat="48.06528" lon="-3.51596">
        <ele>193</ele>
        <time>2025-02-26T10:04:25Z</time>
      </trkpt>
      <trkpt lat="48.06528" lon="-3.51594">
        <ele>193</ele>
        <time>2025-02-26T10:04:26Z</time>
      </trkpt>
      <trkpt lat="48.06528" lon="-3.51592">
        <ele>193</ele>
        <time>2025-02-26T10:04:27Z</time>
      </trkpt>
      <trkpt lat="48.06529" lon="-3.5159">
        <ele>193</ele>
        <time>2025-02-26T10:04:28Z</time>
      </trkpt>
      <trkpt lat="48.06529" lon="-3.51589">
        <ele>193</ele>
        <time>2025-02-26T10:04:29Z</time>
      </trkpt>
      <trkpt lat="48.0653" lon="-3.51587">
        <ele>193</ele>
        <time>2025-02-26T10:04:30Z</time>
      </trkpt>
      <trkpt lat="48.06531" lon="-3.51586">
        <ele>193</ele>
        <time>2025-02-26T10:04:31Z</time>
      </trkpt>
      <trkpt lat="48.06531" lon="-3.51584">
        <ele>193</ele>
        <time>2025-02-26T10:04:32Z</time>
      </trkpt>
      <trkpt lat="48.06531" lon="-3.51583">
        <ele>193</ele>
        <time>2025-02-26T10:04:33Z</time>
      </trkpt>
      <trkpt lat="48.06531" lon="-3.51582">
        <ele>193</ele>
        <time>2025-02-26T10:04:34Z</time>
      </trkpt>
      <trkpt lat="48.06531" lon="-3.5158">
        <ele>193</ele>
        <time>2025-02-26T10:04:35Z</time>
      </trkpt>
      <trkpt lat="48.06532" lon="-3.51579">
        <ele>193</ele>
        <time>2025-02-26T10:04:36Z</time>
      </trkpt>
      <trkpt lat="48.06532" lon="-3.51577">
        <ele>193</ele>
        <time>2025-02-26T10:04:37Z</time>
      </trkpt>
      <trkpt lat="48.06532" lon="-3.51576">
        <ele>193</ele>
        <time>2025-02-26T10:04:38Z</time>
      </trkpt>
      <trkpt lat="48.06532" lon="-3.51574">
        <ele>193</ele>
        <time>2025-02-26T10:04:39Z</time>
      </trkpt>
      <trkpt lat="48.06532" lon="-3.51573">
        <ele>193.1</ele>
        <time>2025-02-26T10:04:40Z</time>
      </trkpt>
      <trkpt lat="48.06533" lon="-3.51571">
        <ele>193.1</ele>
        <time>2025-02-26T10:04:41Z</time>
      </trkpt>
      <trkpt lat="48.06533" lon="-3.5157">
        <ele>193.1</ele>
        <time>2025-02-26T10:04:42Z</time>
      </trkpt>
      <trkpt lat="48.06533" lon="-3.51568">
        <ele>193.1</ele>
        <time>2025-02-26T10:04:43Z</time>
      </trkpt>
      <trkpt lat="48.06533" lon="-3.51567">
        <ele>193.1</ele>
        <time>2025-02-26T10:04:44Z</time>
      </trkpt>
      <trkpt lat="48.06534" lon="-3.51566">
        <ele>193.1</ele>
        <time>2025-02-26T10:04:45Z</time>
      </trkpt>
      <trkpt lat="48.06534" lon="-3.51564">
        <ele>193.2</ele>
        <time>2025-02-26T10:04:46Z</time>
      </trkpt>
      <trkpt lat="48.06534" lon="-3.51563">
        <ele>193.2</ele>
        <time>2025-02-26T10:04:47Z</time>
      </trkpt>
      <trkpt lat="48.06535" lon="-3.51562">
        <ele>193.2</ele>
        <time>2025-02-26T10:04:48Z</time>
      </trkpt>
      <trkpt lat="48.06534" lon="-3.5156">
        <ele>193.2</ele>
        <time>2025-02-26T10:04:49Z</time>
      </trkpt>
      <trkpt lat="48.06534" lon="-3.51558">
        <ele>193.2</ele>
        <time>2025-02-26T10:04:50Z</time>
      </trkpt>
      <trkpt lat="48.06535" lon="-3.51556">
        <ele>193.3</ele>
        <time>2025-02-26T10:04:51Z</time>
      </trkpt>
      <trkpt lat="48.06536" lon="-3.51555">
        <ele>193.3</ele>
        <time>2025-02-26T10:04:52Z</time>
      </trkpt>
      <trkpt lat="48.06536" lon="-3.51553">
        <ele>193.3</ele>
        <time>2025-02-26T10:04:53Z</time>
      </trkpt>
      <trkpt lat="48.06536" lon="-3.51552">
        <ele>193.3</ele>
        <time>2025-02-26T10:04:54Z</time>
      </trkpt>
      <trkpt lat="48.06536" lon="-3.51551">
        <ele>193.3</ele>
        <time>2025-02-26T10:04:55Z</time>
      </trkpt>
      <trkpt lat="48.06536" lon="-3.51549">
        <ele>193.3</ele>
        <time>2025-02-26T10:04:56Z</time>
      </trkpt>
      <trkpt lat="48.06537" lon="-3.51548">
        <ele>193.3</ele>
        <time>2025-02-26T10:04:57Z</time>
      </trkpt>
      <trkpt lat="48.06537" lon="-3.51546">
        <ele>193.3</ele>
        <time>2025-02-26T10:04:58Z</time>
      </trkpt>
      <trkpt lat="48.06538" lon="-3.51545">
        <ele>193.4</ele>
        <time>2025-02-26T10:04:59Z</time>
      </trkpt>
      <trkpt lat="48.06538" lon="-3.51542">
        <ele>193.4</ele>
        <time>2025-02-26T10:05:00Z</time>
      </trkpt>
      <trkpt lat="48.06539" lon="-3.51541">
        <ele>193.4</ele>
        <time>2025-02-26T10:05:01Z</time>
      </trkpt>
      <trkpt lat="48.06539" lon="-3.51539">
        <ele>193.4</ele>
        <time>2025-02-26T10:05:02Z</time>
      </trkpt>
      <trkpt lat="48.06539" lon="-3.51538">
        <ele>193.4</ele>
        <time>2025-02-26T10:05:03Z</time>
      </trkpt>
      <trkpt lat="48.0654" lon="-3.51537">
        <ele>193.4</ele>
        <time>2025-02-26T10:05:04Z</time>
      </trkpt>
      <trkpt lat="48.0654" lon="-3.51535">
        <ele>193.4</ele>
        <time>2025-02-26T10:05:05Z</time>
      </trkpt>
      <trkpt lat="48.0654" lon="-3.51533">
        <ele>193.5</ele>
        <time>2025-02-26T10:05:06Z</time>
      </trkpt>
      <trkpt lat="48.06541" lon="-3.51532">
        <ele>193.5</ele>
        <time>2025-02-26T10:05:07Z</time>
      </trkpt>
      <trkpt lat="48.06542" lon="-3.51531">
        <ele>193.5</ele>
        <time>2025-02-26T10:05:08Z</time>
      </trkpt>
      <trkpt lat="48.06542" lon="-3.51529">
        <ele>193.5</ele>
        <time>2025-02-26T10:05:09Z</time>
      </trkpt>
      <trkpt lat="48.06543" lon="-3.51528">
        <ele>193.5</ele>
        <time>2025-02-26T10:05:10Z</time>
      </trkpt>
      <trkpt lat="48.06543" lon="-3.51527">
        <ele>193.6</ele>
        <time>2025-02-26T10:05:11Z</time>
      </trkpt>
      <trkpt lat="48.06544" lon="-3.51525">
        <ele>193.6</ele>
        <time>2025-02-26T10:05:12Z</time>
      </trkpt>
      <trkpt lat="48.06544" lon="-3.51524">
        <ele>193.7</ele>
        <time>2025-02-26T10:05:13Z</time>
      </trkpt>
      <trkpt lat="48.06545" lon="-3.51522">
        <ele>193.7</ele>
        <time>2025-02-26T10:05:14Z</time>
      </trkpt>
      <trkpt lat="48.06545" lon="-3.5152">
        <ele>193.7</ele>
        <time>2025-02-26T10:05:15Z</time>
      </trkpt>
      <trkpt lat="48.06545" lon="-3.51519">
        <ele>193.8</ele>
        <time>2025-02-26T10:05:16Z</time>
      </trkpt>
      <trkpt lat="48.06545" lon="-3.51517">
        <ele>193.8</ele>
        <time>2025-02-26T10:05:17Z</time>
      </trkpt>
      <trkpt lat="48.06546" lon="-3.51515">
        <ele>193.8</ele>
        <time>2025-02-26T10:05:18Z</time>
      </trkpt>
      <trkpt lat="48.06546" lon="-3.51514">
        <ele>193.8</ele>
        <time>2025-02-26T10:05:19Z</time>
      </trkpt>
      <trkpt lat="48.06546" lon="-3.51512">
        <ele>193.8</ele>
        <time>2025-02-26T10:05:20Z</time>
      </trkpt>
      <trkpt lat="48.06547" lon="-3.51511">
        <ele>193.9</ele>
        <time>2025-02-26T10:05:21Z</time>
      </trkpt>
      <trkpt lat="48.06547" lon="-3.51509">
        <ele>193.9</ele>
        <time>2025-02-26T10:05:22Z</time>
      </trkpt>
      <trkpt lat="48.06547" lon="-3.51508">
        <ele>193.9</ele>
        <time>2025-02-26T10:05:23Z</time>
      </trkpt>
      <trkpt lat="48.06548" lon="-3.51507">
        <ele>193.9</ele>
        <time>2025-02-26T10:05:24Z</time>
      </trkpt>
      <trkpt lat="48.06549" lon="-3.51507">
        <ele>193.9</ele>
        <time>2025-02-26T10:05:25Z</time>
      </trkpt>
      <trkpt lat="48.06549" lon="-3.51506">
        <ele>194</ele>
        <time>2025-02-26T10:05:26Z</time>
      </trkpt>
      <trkpt lat="48.0655" lon="-3.51505">
        <ele>194</ele>
        <time>2025-02-26T10:05:27Z</time>
      </trkpt>
      <trkpt lat="48.06551" lon="-3.51504">
        <ele>194</ele>
        <time>2025-02-26T10:05:28Z</time>
      </trkpt>
      <trkpt lat="48.06551" lon="-3.51503">
        <ele>194</ele>
        <time>2025-02-26T10:05:29Z</time>
      </trkpt>
      <trkpt lat="48.06552" lon="-3.51502">
        <ele>194</ele>
        <time>2025-02-26T10:05:30Z</time>
      </trkpt>
      <trkpt lat="48.06551" lon="-3.515">
        <ele>194</ele>
        <time>2025-02-26T10:05:31Z</time>
      </trkpt>
      <trkpt lat="48.06551" lon="-3.51499">
        <ele>194</ele>
        <time>2025-02-26T10:05:32Z</time>
      </trkpt>
      <trkpt lat="48.06551" lon="-3.51497">
        <ele>194.1</ele>
        <time>2025-02-26T10:05:33Z</time>
      </trkpt>
      <trkpt lat="48.06551" lon="-3.51496">
        <ele>194.1</ele>
        <time>2025-02-26T10:05:34Z</time>
      </trkpt>
      <trkpt lat="48.06551" lon="-3.51495">
        <ele>194.2</ele>
        <time>2025-02-26T10:05:35Z</time>
      </trkpt>
      <trkpt lat="48.0655" lon="-3.51493">
        <ele>194.2</ele>
        <time>2025-02-26T10:05:36Z</time>
      </trkpt>
      <trkpt lat="48.0655" lon="-3.51491">
        <ele>194.3</ele>
        <time>2025-02-26T10:05:37Z</time>
      </trkpt>
      <trkpt lat="48.0655" lon="-3.51489">
        <ele>194.3</ele>
        <time>2025-02-26T10:05:38Z</time>
      </trkpt>
      <trkpt lat="48.0655" lon="-3.51487">
        <ele>194.4</ele>
        <time>2025-02-26T10:05:39Z</time>
      </trkpt>
      <trkpt lat="48.0655" lon="-3.51486">
        <ele>194.4</ele>
        <time>2025-02-26T10:05:40Z</time>
      </trkpt>
      <trkpt lat="48.06549" lon="-3.51484">
        <ele>194.4</ele>
        <time>2025-02-26T10:05:41Z</time>
      </trkpt>
      <trkpt lat="48.06549" lon="-3.51482">
        <ele>194.5</ele>
        <time>2025-02-26T10:05:42Z</time>
      </trkpt>
      <trkpt lat="48.06549" lon="-3.51481">
        <ele>194.5</ele>
        <time>2025-02-26T10:05:43Z</time>
      </trkpt>
      <trkpt lat="48.0655" lon="-3.51479">
        <ele>194.6</ele>
        <time>2025-02-26T10:05:44Z</time>
      </trkpt>
      <trkpt lat="48.0655" lon="-3.51478">
        <ele>194.6</ele>
        <time>2025-02-26T10:05:45Z</time>
      </trkpt>
      <trkpt lat="48.06549" lon="-3.51476">
        <ele>194.7</ele>
        <time>2025-02-26T10:05:46Z</time>
      </trkpt>
      <trkpt lat="48.06549" lon="-3.51475">
        <ele>194.7</ele>
        <time>2025-02-26T10:05:47Z</time>
      </trkpt>
      <trkpt lat="48.06549" lon="-3.51473">
        <ele>194.7</ele>
        <time>2025-02-26T10:05:48Z</time>
      </trkpt>
      <trkpt lat="48.06549" lon="-3.51472">
        <ele>194.8</ele>
        <time>2025-02-26T10:05:49Z</time>
      </trkpt>
      <trkpt lat="48.06549" lon="-3.5147">
        <ele>194.8</ele>
        <time>2025-02-26T10:05:50Z</time>
      </trkpt>
      <trkpt lat="48.06549" lon="-3.51469">
        <ele>194.8</ele>
        <time>2025-02-26T10:05:51Z</time>
      </trkpt>
      <trkpt lat="48.0655" lon="-3.51468">
        <ele>194.8</ele>
        <time>2025-02-26T10:05:52Z</time>
      </trkpt>
      <trkpt lat="48.0655" lon="-3.51467">
        <ele>194.8</ele>
        <time>2025-02-26T10:05:53Z</time>
      </trkpt>
      <trkpt lat="48.06549" lon="-3.51465">
        <ele>194.8</ele>
        <time>2025-02-26T10:05:54Z</time>
      </trkpt>
      <trkpt lat="48.06549" lon="-3.51463">
        <ele>194.8</ele>
        <time>2025-02-26T10:05:55Z</time>
      </trkpt>
      <trkpt lat="48.06549" lon="-3.51462">
        <ele>194.8</ele>
        <time>2025-02-26T10:05:56Z</time>
      </trkpt>
      <trkpt lat="48.06549" lon="-3.5146">
        <ele>194.8</ele>
        <time>2025-02-26T10:05:57Z</time>
      </trkpt>
      <trkpt lat="48.06549" lon="-3.51459">
        <ele>194.8</ele>
        <time>2025-02-26T10:05:58Z</time>
      </trkpt>
      <trkpt lat="48.06549" lon="-3.51457">
        <ele>194.7</ele>
        <time>2025-02-26T10:05:59Z</time>
      </trkpt>
      <trkpt lat="48.06548" lon="-3.51456">
        <ele>194.7</ele>
        <time>2025-02-26T10:06:00Z</time>
      </trkpt>
      <trkpt lat="48.06548" lon="-3.51454">
        <ele>194.7</ele>
        <time>2025-02-26T10:06:01Z</time>
      </trkpt>
      <trkpt lat="48.06548" lon="-3.51452">
        <ele>194.7</ele>
        <time>2025-02-26T10:06:02Z</time>
      </trkpt>
      <trkpt lat="48.06548" lon="-3.51451">
        <ele>194.7</ele>
        <time>2025-02-26T10:06:03Z</time>
      </trkpt>
      <trkpt lat="48.06548" lon="-3.51449">
        <ele>194.7</ele>
        <time>2025-02-26T10:06:04Z</time>
      </trkpt>
      <trkpt lat="48.06548" lon="-3.51449">
        <ele>194.7</ele>
        <time>2025-02-26T10:06:05Z</time>
      </trkpt>
      <trkpt lat="48.06548" lon="-3.51449">
        <ele>194.7</ele>
        <time>2025-02-26T10:06:06Z</time>
      </trkpt>
      <trkpt lat="48.06547" lon="-3.51448">
        <ele>194.7</ele>
        <time>2025-02-26T10:06:07Z</time>
      </trkpt>
      <trkpt lat="48.06547" lon="-3.51447">
        <ele>194.7</ele>
        <time>2025-02-26T10:06:08Z</time>
      </trkpt>
      <trkpt lat="48.06548" lon="-3.51445">
        <ele>194.7</ele>
        <time>2025-02-26T10:06:09Z</time>
      </trkpt>
      <trkpt lat="48.06548" lon="-3.51443">
        <ele>194.7</ele>
        <time>2025-02-26T10:06:10Z</time>
      </trkpt>
      <trkpt lat="48.06549" lon="-3.51442">
        <ele>194.8</ele>
        <time>2025-02-26T10:06:11Z</time>
      </trkpt>
      <trkpt lat="48.06549" lon="-3.5144">
        <ele>194.8</ele>
        <time>2025-02-26T10:06:12Z</time>
      </trkpt>
      <trkpt lat="48.06548" lon="-3.51439">
        <ele>194.8</ele>
        <time>2025-02-26T10:06:13Z</time>
      </trkpt>
      <trkpt lat="48.06548" lon="-3.51437">
        <ele>194.8</ele>
        <time>2025-02-26T10:06:14Z</time>
      </trkpt>
      <trkpt lat="48.06548" lon="-3.51436">
        <ele>194.8</ele>
        <time>2025-02-26T10:06:15Z</time>
      </trkpt>
      <trkpt lat="48.06547" lon="-3.51435">
        <ele>194.8</ele>
        <time>2025-02-26T10:06:16Z</time>
      </trkpt>
      <trkpt lat="48.06547" lon="-3.51434">
        <ele>194.8</ele>
        <time>2025-02-26T10:06:17Z</time>
      </trkpt>
      <trkpt lat="48.06547" lon="-3.51432">
        <ele>194.8</ele>
        <time>2025-02-26T10:06:18Z</time>
      </trkpt>
      <trkpt lat="48.06547" lon="-3.5143">
        <ele>194.8</ele>
        <time>2025-02-26T10:06:19Z</time>
      </trkpt>
      <trkpt lat="48.06547" lon="-3.51429">
        <ele>194.9</ele>
        <time>2025-02-26T10:06:20Z</time>
      </trkpt>
      <trkpt lat="48.06547" lon="-3.51427">
        <ele>194.9</ele>
        <time>2025-02-26T10:06:21Z</time>
      </trkpt>
      <trkpt lat="48.06547" lon="-3.51426">
        <ele>194.9</ele>
        <time>2025-02-26T10:06:22Z</time>
      </trkpt>
      <trkpt lat="48.06548" lon="-3.51424">
        <ele>194.9</ele>
        <time>2025-02-26T10:06:23Z</time>
      </trkpt>
      <trkpt lat="48.06548" lon="-3.51423">
        <ele>194.9</ele>
        <time>2025-02-26T10:06:24Z</time>
      </trkpt>
      <trkpt lat="48.06549" lon="-3.51422">
        <ele>195</ele>
        <time>2025-02-26T10:06:25Z</time>
      </trkpt>
      <trkpt lat="48.06549" lon="-3.5142">
        <ele>195</ele>
        <time>2025-02-26T10:06:26Z</time>
      </trkpt>
      <trkpt lat="48.06549" lon="-3.51419">
        <ele>195</ele>
        <time>2025-02-26T10:06:27Z</time>
      </trkpt>
      <trkpt lat="48.06549" lon="-3.51418">
        <ele>195</ele>
        <time>2025-02-26T10:06:28Z</time>
      </trkpt>
      <trkpt lat="48.0655" lon="-3.51417">
        <ele>195</ele>
        <time>2025-02-26T10:06:29Z</time>
      </trkpt>
      <trkpt lat="48.0655" lon="-3.51415">
        <ele>195</ele>
        <time>2025-02-26T10:06:30Z</time>
      </trkpt>
      <trkpt lat="48.0655" lon="-3.51414">
        <ele>195</ele>
        <time>2025-02-26T10:06:31Z</time>
      </trkpt>
      <trkpt lat="48.06551" lon="-3.51413">
        <ele>195</ele>
        <time>2025-02-26T10:06:32Z</time>
      </trkpt>
      <trkpt lat="48.06551" lon="-3.51411">
        <ele>195</ele>
        <time>2025-02-26T10:06:33Z</time>
      </trkpt>
      <trkpt lat="48.06551" lon="-3.5141">
        <ele>195</ele>
        <time>2025-02-26T10:06:34Z</time>
      </trkpt>
      <trkpt lat="48.06552" lon="-3.51409">
        <ele>195</ele>
        <time>2025-02-26T10:06:35Z</time>
      </trkpt>
      <trkpt lat="48.06551" lon="-3.51407">
        <ele>195</ele>
        <time>2025-02-26T10:06:36Z</time>
      </trkpt>
      <trkpt lat="48.06551" lon="-3.51406">
        <ele>195</ele>
        <time>2025-02-26T10:06:37Z</time>
      </trkpt>
      <trkpt lat="48.06552" lon="-3.51405">
        <ele>195</ele>
        <time>2025-02-26T10:06:38Z</time>
      </trkpt>
      <trkpt lat="48.06552" lon="-3.51404">
        <ele>195</ele>
        <time>2025-02-26T10:06:39Z</time>
      </trkpt>
      <trkpt lat="48.06552" lon="-3.51403">
        <ele>195</ele>
        <time>2025-02-26T10:06:40Z</time>
      </trkpt>
      <trkpt lat="48.06552" lon="-3.51402">
        <ele>195</ele>
        <time>2025-02-26T10:06:41Z</time>
      </trkpt>
      <trkpt lat="48.06553" lon="-3.51401">
        <ele>195</ele>
        <time>2025-02-26T10:06:42Z</time>
      </trkpt>
      <trkpt lat="48.06553" lon="-3.51401">
        <ele>195</ele>
        <time>2025-02-26T10:06:43Z</time>
      </trkpt>
      <trkpt lat="48.06553" lon="-3.514">
        <ele>195</ele>
        <time>2025-02-26T10:06:44Z</time>
      </trkpt>
      <trkpt lat="48.06553" lon="-3.51399">
        <ele>195</ele>
        <time>2025-02-26T10:06:45Z</time>
      </trkpt>
      <trkpt lat="48.06551" lon="-3.51399">
        <ele>195</ele>
        <time>2025-02-26T10:06:46Z</time>
      </trkpt>
      <trkpt lat="48.06551" lon="-3.51398">
        <ele>195</ele>
        <time>2025-02-26T10:06:47Z</time>
      </trkpt>
      <trkpt lat="48.06551" lon="-3.51397">
        <ele>195</ele>
        <time>2025-02-26T10:06:48Z</time>
      </trkpt>
      <trkpt lat="48.06551" lon="-3.51396">
        <ele>195</ele>
        <time>2025-02-26T10:06:49Z</time>
      </trkpt>
      <trkpt lat="48.06551" lon="-3.51394">
        <ele>195</ele>
        <time>2025-02-26T10:06:50Z</time>
      </trkpt>
      <trkpt lat="48.06552" lon="-3.51393">
        <ele>195</ele>
        <time>2025-02-26T10:06:51Z</time>
      </trkpt>
      <trkpt lat="48.06551" lon="-3.51392">
        <ele>195</ele>
        <time>2025-02-26T10:06:52Z</time>
      </trkpt>
      <trkpt lat="48.06551" lon="-3.51391">
        <ele>195</ele>
        <time>2025-02-26T10:06:53Z</time>
      </trkpt>
      <trkpt lat="48.06551" lon="-3.5139">
        <ele>195</ele>
        <time>2025-02-26T10:06:54Z</time>
      </trkpt>
      <trkpt lat="48.06552" lon="-3.51389">
        <ele>195</ele>
        <time>2025-02-26T10:06:55Z</time>
      </trkpt>
      <trkpt lat="48.06552" lon="-3.51387">
        <ele>195</ele>
        <time>2025-02-26T10:06:56Z</time>
      </trkpt>
      <trkpt lat="48.06551" lon="-3.51387">
        <ele>195</ele>
        <time>2025-02-26T10:06:57Z</time>
      </trkpt>
      <trkpt lat="48.06551" lon="-3.51386">
        <ele>195</ele>
        <time>2025-02-26T10:06:58Z</time>
      </trkpt>
      <trkpt lat="48.06551" lon="-3.51385">
        <ele>195</ele>
        <time>2025-02-26T10:06:59Z</time>
      </trkpt>
      <trkpt lat="48.06551" lon="-3.51383">
        <ele>195</ele>
        <time>2025-02-26T10:07:00Z</time>
      </trkpt>
      <trkpt lat="48.06552" lon="-3.51381">
        <ele>195</ele>
        <time>2025-02-26T10:07:01Z</time>
      </trkpt>
      <trkpt lat="48.06551" lon="-3.51379">
        <ele>195</ele>
        <time>2025-02-26T10:07:02Z</time>
      </trkpt>
      <trkpt lat="48.06552" lon="-3.51378">
        <ele>195</ele>
        <time>2025-02-26T10:07:03Z</time>
      </trkpt>
      <trkpt lat="48.06552" lon="-3.51376">
        <ele>195</ele>
        <time>2025-02-26T10:07:04Z</time>
      </trkpt>
      <trkpt lat="48.06552" lon="-3.51374">
        <ele>195</ele>
        <time>2025-02-26T10:07:05Z</time>
      </trkpt>
      <trkpt lat="48.06551" lon="-3.51373">
        <ele>195</ele>
        <time>2025-02-26T10:07:06Z</time>
      </trkpt>
      <trkpt lat="48.06551" lon="-3.51371">
        <ele>195</ele>
        <time>2025-02-26T10:07:07Z</time>
      </trkpt>
      <trkpt lat="48.06552" lon="-3.51369">
        <ele>195</ele>
        <time>2025-02-26T10:07:08Z</time>
      </trkpt>
      <trkpt lat="48.06552" lon="-3.51367">
        <ele>195</ele>
        <time>2025-02-26T10:07:09Z</time>
      </trkpt>
      <trkpt lat="48.06552" lon="-3.51366">
        <ele>195</ele>
        <time>2025-02-26T10:07:10Z</time>
      </trkpt>
      <trkpt lat="48.06552" lon="-3.51365">
        <ele>195</ele>
        <time>2025-02-26T10:07:11Z</time>
      </trkpt>
      <trkpt lat="48.06552" lon="-3.51363">
        <ele>195</ele>
        <time>2025-02-26T10:07:12Z</time>
      </trkpt>
      <trkpt lat="48.06552" lon="-3.51362">
        <ele>195</ele>
        <time>2025-02-26T10:07:13Z</time>
      </trkpt>
      <trkpt lat="48.06552" lon="-3.51361">
        <ele>195</ele>
        <time>2025-02-26T10:07:14Z</time>
      </trkpt>
      <trkpt lat="48.06553" lon="-3.5136">
        <ele>195</ele>
        <time>2025-02-26T10:07:15Z</time>
      </trkpt>
      <trkpt lat="48.06553" lon="-3.51359">
        <ele>195</ele>
        <time>2025-02-26T10:07:16Z</time>
      </trkpt>
      <trkpt lat="48.06552" lon="-3.51358">
        <ele>195</ele>
        <time>2025-02-26T10:07:17Z</time>
      </trkpt>
      <trkpt lat="48.06552" lon="-3.51357">
        <ele>195</ele>
        <time>2025-02-26T10:07:18Z</time>
      </trkpt>
      <trkpt lat="48.06552" lon="-3.51355">
        <ele>195</ele>
        <time>2025-02-26T10:07:19Z</time>
      </trkpt>
      <trkpt lat="48.06552" lon="-3.51354">
        <ele>195</ele>
        <time>2025-02-26T10:07:20Z</time>
      </trkpt>
      <trkpt lat="48.06552" lon="-3.51353">
        <ele>195</ele>
        <time>2025-02-26T10:07:21Z</time>
      </trkpt>
      <trkpt lat="48.06552" lon="-3.51352">
        <ele>195</ele>
        <time>2025-02-26T10:07:22Z</time>
      </trkpt>
      <trkpt lat="48.06552" lon="-3.5135">
        <ele>195</ele>
        <time>2025-02-26T10:07:23Z</time>
      </trkpt>
      <trkpt lat="48.06552" lon="-3.51349">
        <ele>195</ele>
        <time>2025-02-26T10:07:24Z</time>
      </trkpt>
      <trkpt lat="48.06552" lon="-3.51347">
        <ele>195</ele>
        <time>2025-02-26T10:07:25Z</time>
      </trkpt>
      <trkpt lat="48.06552" lon="-3.51346">
        <ele>195</ele>
        <time>2025-02-26T10:07:26Z</time>
      </trkpt>
      <trkpt lat="48.06552" lon="-3.51344">
        <ele>195</ele>
        <time>2025-02-26T10:07:27Z</time>
      </trkpt>
      <trkpt lat="48.06552" lon="-3.51343">
        <ele>195</ele>
        <time>2025-02-26T10:07:28Z</time>
      </trkpt>
      <trkpt lat="48.06552" lon="-3.51342">
        <ele>195</ele>
        <time>2025-02-26T10:07:29Z</time>
      </trkpt>
      <trkpt lat="48.06552" lon="-3.5134">
        <ele>195</ele>
        <time>2025-02-26T10:07:30Z</time>
      </trkpt>
      <trkpt lat="48.06552" lon="-3.51339">
        <ele>195</ele>
        <time>2025-02-26T10:07:31Z</time>
      </trkpt>
      <trkpt lat="48.06552" lon="-3.51337">
        <ele>195</ele>
        <time>2025-02-26T10:07:32Z</time>
      </trkpt>
      <trkpt lat="48.06552" lon="-3.51336">
        <ele>195</ele>
        <time>2025-02-26T10:07:33Z</time>
      </trkpt>
      <trkpt lat="48.06552" lon="-3.51334">
        <ele>195</ele>
        <time>2025-02-26T10:07:34Z</time>
      </trkpt>
      <trkpt lat="48.06552" lon="-3.51333">
        <ele>195</ele>
        <time>2025-02-26T10:07:35Z</time>
      </trkpt>
      <trkpt lat="48.06553" lon="-3.51332">
        <ele>194.9</ele>
        <time>2025-02-26T10:07:36Z</time>
      </trkpt>
      <trkpt lat="48.06552" lon="-3.5133">
        <ele>194.9</ele>
        <time>2025-02-26T10:07:37Z</time>
      </trkpt>
      <trkpt lat="48.06552" lon="-3.51329">
        <ele>194.8</ele>
        <time>2025-02-26T10:07:38Z</time>
      </trkpt>
      <trkpt lat="48.06552" lon="-3.51328">
        <ele>194.8</ele>
        <time>2025-02-26T10:07:39Z</time>
      </trkpt>
      <trkpt lat="48.06552" lon="-3.51327">
        <ele>194.8</ele>
        <time>2025-02-26T10:07:40Z</time>
      </trkpt>
      <trkpt lat="48.06552" lon="-3.51326">
        <ele>194.7</ele>
        <time>2025-02-26T10:07:41Z</time>
      </trkpt>
      <trkpt lat="48.06552" lon="-3.51325">
        <ele>194.7</ele>
        <time>2025-02-26T10:07:42Z</time>
      </trkpt>
      <trkpt lat="48.06552" lon="-3.51324">
        <ele>194.7</ele>
        <time>2025-02-26T10:07:43Z</time>
      </trkpt>
      <trkpt lat="48.06553" lon="-3.51323">
        <ele>194.6</ele>
        <time>2025-02-26T10:07:44Z</time>
      </trkpt>
      <trkpt lat="48.06552" lon="-3.51321">
        <ele>194.6</ele>
        <time>2025-02-26T10:07:45Z</time>
      </trkpt>
      <trkpt lat="48.06552" lon="-3.5132">
        <ele>194.5</ele>
        <time>2025-02-26T10:07:46Z</time>
      </trkpt>
      <trkpt lat="48.06552" lon="-3.51318">
        <ele>194.4</ele>
        <time>2025-02-26T10:07:47Z</time>
      </trkpt>
      <trkpt lat="48.06552" lon="-3.51317">
        <ele>194.4</ele>
        <time>2025-02-26T10:07:48Z</time>
      </trkpt>
      <trkpt lat="48.06552" lon="-3.51315">
        <ele>194.3</ele>
        <time>2025-02-26T10:07:49Z</time>
      </trkpt>
      <trkpt lat="48.06553" lon="-3.51313">
        <ele>194.3</ele>
        <time>2025-02-26T10:07:50Z</time>
      </trkpt>
      <trkpt lat="48.06553" lon="-3.51312">
        <ele>194.2</ele>
        <time>2025-02-26T10:07:51Z</time>
      </trkpt>
      <trkpt lat="48.06553" lon="-3.5131">
        <ele>194.2</ele>
        <time>2025-02-26T10:07:52Z</time>
      </trkpt>
      <trkpt lat="48.06553" lon="-3.51308">
        <ele>194.1</ele>
        <time>2025-02-26T10:07:53Z</time>
      </trkpt>
      <trkpt lat="48.06553" lon="-3.51306">
        <ele>194</ele>
        <time>2025-02-26T10:07:54Z</time>
      </trkpt>
      <trkpt lat="48.06553" lon="-3.51304">
        <ele>194</ele>
        <time>2025-02-26T10:07:55Z</time>
      </trkpt>
      <trkpt lat="48.06554" lon="-3.51303">
        <ele>194</ele>
        <time>2025-02-26T10:07:56Z</time>
      </trkpt>
      <trkpt lat="48.06553" lon="-3.51301">
        <ele>194</ele>
        <time>2025-02-26T10:07:57Z</time>
      </trkpt>
      <trkpt lat="48.06554" lon="-3.51299">
        <ele>194</ele>
        <time>2025-02-26T10:07:58Z</time>
      </trkpt>
      <trkpt lat="48.06554" lon="-3.51298">
        <ele>194</ele>
        <time>2025-02-26T10:07:59Z</time>
      </trkpt>
      <trkpt lat="48.06554" lon="-3.51296">
        <ele>194</ele>
        <time>2025-02-26T10:08:00Z</time>
      </trkpt>
      <trkpt lat="48.06554" lon="-3.51294">
        <ele>194</ele>
        <time>2025-02-26T10:08:01Z</time>
      </trkpt>
      <trkpt lat="48.06554" lon="-3.51293">
        <ele>194</ele>
        <time>2025-02-26T10:08:02Z</time>
      </trkpt>
      <trkpt lat="48.06555" lon="-3.51291">
        <ele>194</ele>
        <time>2025-02-26T10:08:03Z</time>
      </trkpt>
      <trkpt lat="48.06555" lon="-3.5129">
        <ele>194</ele>
        <time>2025-02-26T10:08:04Z</time>
      </trkpt>
      <trkpt lat="48.06555" lon="-3.51288">
        <ele>194</ele>
        <time>2025-02-26T10:08:05Z</time>
      </trkpt>
      <trkpt lat="48.06556" lon="-3.51287">
        <ele>194</ele>
        <time>2025-02-26T10:08:06Z</time>
      </trkpt>
      <trkpt lat="48.06557" lon="-3.51285">
        <ele>194</ele>
        <time>2025-02-26T10:08:07Z</time>
      </trkpt>
      <trkpt lat="48.06558" lon="-3.51284">
        <ele>194</ele>
        <time>2025-02-26T10:08:08Z</time>
      </trkpt>
      <trkpt lat="48.06558" lon="-3.51284">
        <ele>194</ele>
        <time>2025-02-26T10:08:09Z</time>
      </trkpt>
      <trkpt lat="48.06559" lon="-3.51282">
        <ele>194</ele>
        <time>2025-02-26T10:08:10Z</time>
      </trkpt>
      <trkpt lat="48.06559" lon="-3.51281">
        <ele>194</ele>
        <time>2025-02-26T10:08:11Z</time>
      </trkpt>
      <trkpt lat="48.06559" lon="-3.51279">
        <ele>194</ele>
        <time>2025-02-26T10:08:12Z</time>
      </trkpt>
      <trkpt lat="48.06559" lon="-3.51278">
        <ele>194</ele>
        <time>2025-02-26T10:08:13Z</time>
      </trkpt>
      <trkpt lat="48.0656" lon="-3.51276">
        <ele>194</ele>
        <time>2025-02-26T10:08:14Z</time>
      </trkpt>
      <trkpt lat="48.06561" lon="-3.51275">
        <ele>193.9</ele>
        <time>2025-02-26T10:08:15Z</time>
      </trkpt>
      <trkpt lat="48.06561" lon="-3.51274">
        <ele>193.8</ele>
        <time>2025-02-26T10:08:16Z</time>
      </trkpt>
      <trkpt lat="48.06561" lon="-3.51272">
        <ele>193.8</ele>
        <time>2025-02-26T10:08:17Z</time>
      </trkpt>
      <trkpt lat="48.06562" lon="-3.51271">
        <ele>193.7</ele>
        <time>2025-02-26T10:08:18Z</time>
      </trkpt>
      <trkpt lat="48.06562" lon="-3.51269">
        <ele>193.7</ele>
        <time>2025-02-26T10:08:19Z</time>
      </trkpt>
      <trkpt lat="48.06563" lon="-3.51268">
        <ele>193.6</ele>
        <time>2025-02-26T10:08:20Z</time>
      </trkpt>
      <trkpt lat="48.06563" lon="-3.51266">
        <ele>193.6</ele>
        <time>2025-02-26T10:08:21Z</time>
      </trkpt>
      <trkpt lat="48.06563" lon="-3.51265">
        <ele>193.5</ele>
        <time>2025-02-26T10:08:22Z</time>
      </trkpt>
      <trkpt lat="48.06564" lon="-3.51264">
        <ele>193.5</ele>
        <time>2025-02-26T10:08:23Z</time>
      </trkpt>
      <trkpt lat="48.06564" lon="-3.51262">
        <ele>193.4</ele>
        <time>2025-02-26T10:08:24Z</time>
      </trkpt>
      <trkpt lat="48.06565" lon="-3.51262">
        <ele>193.4</ele>
        <time>2025-02-26T10:08:25Z</time>
      </trkpt>
      <trkpt lat="48.06566" lon="-3.51261">
        <ele>193.4</ele>
        <time>2025-02-26T10:08:26Z</time>
      </trkpt>
      <trkpt lat="48.06566" lon="-3.51258">
        <ele>193.3</ele>
        <time>2025-02-26T10:08:27Z</time>
      </trkpt>
      <trkpt lat="48.06566" lon="-3.51257">
        <ele>193.2</ele>
        <time>2025-02-26T10:08:28Z</time>
      </trkpt>
      <trkpt lat="48.06566" lon="-3.51255">
        <ele>193.2</ele>
        <time>2025-02-26T10:08:29Z</time>
      </trkpt>
      <trkpt lat="48.06566" lon="-3.51253">
        <ele>193.1</ele>
        <time>2025-02-26T10:08:30Z</time>
      </trkpt>
      <trkpt lat="48.06567" lon="-3.51252">
        <ele>193.1</ele>
        <time>2025-02-26T10:08:31Z</time>
      </trkpt>
      <trkpt lat="48.06567" lon="-3.5125">
        <ele>193</ele>
        <time>2025-02-26T10:08:32Z</time>
      </trkpt>
      <trkpt lat="48.06567" lon="-3.51248">
        <ele>193</ele>
        <time>2025-02-26T10:08:33Z</time>
      </trkpt>
      <trkpt lat="48.06567" lon="-3.51246">
        <ele>192.9</ele>
        <time>2025-02-26T10:08:34Z</time>
      </trkpt>
      <trkpt lat="48.06568" lon="-3.51245">
        <ele>192.9</ele>
        <time>2025-02-26T10:08:35Z</time>
      </trkpt>
      <trkpt lat="48.06568" lon="-3.51243">
        <ele>192.9</ele>
        <time>2025-02-26T10:08:36Z</time>
      </trkpt>
      <trkpt lat="48.06568" lon="-3.51241">
        <ele>192.8</ele>
        <time>2025-02-26T10:08:37Z</time>
      </trkpt>
      <trkpt lat="48.06568" lon="-3.5124">
        <ele>192.8</ele>
        <time>2025-02-26T10:08:38Z</time>
      </trkpt>
      <trkpt lat="48.06569" lon="-3.51239">
        <ele>192.8</ele>
        <time>2025-02-26T10:08:39Z</time>
      </trkpt>
      <trkpt lat="48.06569" lon="-3.51237">
        <ele>192.8</ele>
        <time>2025-02-26T10:08:40Z</time>
      </trkpt>
      <trkpt lat="48.06569" lon="-3.51236">
        <ele>192.7</ele>
        <time>2025-02-26T10:08:41Z</time>
      </trkpt>
      <trkpt lat="48.06569" lon="-3.51234">
        <ele>192.7</ele>
        <time>2025-02-26T10:08:42Z</time>
      </trkpt>
      <trkpt lat="48.06569" lon="-3.51232">
        <ele>192.7</ele>
        <time>2025-02-26T10:08:43Z</time>
      </trkpt>
      <trkpt lat="48.0657" lon="-3.51231">
        <ele>192.7</ele>
        <time>2025-02-26T10:08:44Z</time>
      </trkpt>
      <trkpt lat="48.0657" lon="-3.51229">
        <ele>192.6</ele>
        <time>2025-02-26T10:08:45Z</time>
      </trkpt>
      <trkpt lat="48.0657" lon="-3.51228">
        <ele>192.6</ele>
        <time>2025-02-26T10:08:46Z</time>
      </trkpt>
      <trkpt lat="48.06571" lon="-3.51226">
        <ele>192.6</ele>
        <time>2025-02-26T10:08:47Z</time>
      </trkpt>
      <trkpt lat="48.06571" lon="-3.51225">
        <ele>192.6</ele>
        <time>2025-02-26T10:08:48Z</time>
      </trkpt>
      <trkpt lat="48.06571" lon="-3.51224">
        <ele>192.6</ele>
        <time>2025-02-26T10:08:49Z</time>
      </trkpt>
      <trkpt lat="48.06571" lon="-3.51222">
        <ele>192.6</ele>
        <time>2025-02-26T10:08:50Z</time>
      </trkpt>
      <trkpt lat="48.06572" lon="-3.51221">
        <ele>192.6</ele>
        <time>2025-02-26T10:08:51Z</time>
      </trkpt>
      <trkpt lat="48.06572" lon="-3.5122">
        <ele>192.5</ele>
        <time>2025-02-26T10:08:52Z</time>
      </trkpt>
      <trkpt lat="48.06572" lon="-3.51218">
        <ele>192.5</ele>
        <time>2025-02-26T10:08:53Z</time>
      </trkpt>
      <trkpt lat="48.06573" lon="-3.51217">
        <ele>192.5</ele>
        <time>2025-02-26T10:08:54Z</time>
      </trkpt>
      <trkpt lat="48.06574" lon="-3.51217">
        <ele>192.5</ele>
        <time>2025-02-26T10:08:55Z</time>
      </trkpt>
      <trkpt lat="48.06575" lon="-3.51216">
        <ele>192.5</ele>
        <time>2025-02-26T10:08:56Z</time>
      </trkpt>
      <trkpt lat="48.06576" lon="-3.51215">
        <ele>192.6</ele>
        <time>2025-02-26T10:08:57Z</time>
      </trkpt>
      <trkpt lat="48.06577" lon="-3.51215">
        <ele>192.6</ele>
        <time>2025-02-26T10:08:58Z</time>
      </trkpt>
      <trkpt lat="48.06577" lon="-3.51212">
        <ele>192.5</ele>
        <time>2025-02-26T10:08:59Z</time>
      </trkpt>
      <trkpt lat="48.06577" lon="-3.5121">
        <ele>192.4</ele>
        <time>2025-02-26T10:09:00Z</time>
      </trkpt>
      <trkpt lat="48.06577" lon="-3.51209">
        <ele>192.4</ele>
        <time>2025-02-26T10:09:01Z</time>
      </trkpt>
      <trkpt lat="48.06577" lon="-3.51207">
        <ele>192.3</ele>
        <time>2025-02-26T10:09:02Z</time>
      </trkpt>
      <trkpt lat="48.06577" lon="-3.51205">
        <ele>192.3</ele>
        <time>2025-02-26T10:09:03Z</time>
      </trkpt>
      <trkpt lat="48.06578" lon="-3.51204">
        <ele>192.3</ele>
        <time>2025-02-26T10:09:04Z</time>
      </trkpt>
      <trkpt lat="48.06578" lon="-3.51203">
        <ele>192.2</ele>
        <time>2025-02-26T10:09:05Z</time>
      </trkpt>
      <trkpt lat="48.06577" lon="-3.51201">
        <ele>192.2</ele>
        <time>2025-02-26T10:09:06Z</time>
      </trkpt>
      <trkpt lat="48.06577" lon="-3.512">
        <ele>192.1</ele>
        <time>2025-02-26T10:09:07Z</time>
      </trkpt>
      <trkpt lat="48.06577" lon="-3.51199">
        <ele>192.1</ele>
        <time>2025-02-26T10:09:08Z</time>
      </trkpt>
      <trkpt lat="48.06577" lon="-3.51198">
        <ele>192.1</ele>
        <time>2025-02-26T10:09:09Z</time>
      </trkpt>
      <trkpt lat="48.06577" lon="-3.51197">
        <ele>192.1</ele>
        <time>2025-02-26T10:09:10Z</time>
      </trkpt>
      <trkpt lat="48.06578" lon="-3.51196">
        <ele>192</ele>
        <time>2025-02-26T10:09:11Z</time>
      </trkpt>
      <trkpt lat="48.06577" lon="-3.51195">
        <ele>192</ele>
        <time>2025-02-26T10:09:12Z</time>
      </trkpt>
      <trkpt lat="48.06577" lon="-3.51194">
        <ele>192</ele>
        <time>2025-02-26T10:09:13Z</time>
      </trkpt>
      <trkpt lat="48.06577" lon="-3.51194">
        <ele>192</ele>
        <time>2025-02-26T10:09:14Z</time>
      </trkpt>
      <trkpt lat="48.06577" lon="-3.51194">
        <ele>192</ele>
        <time>2025-02-26T10:09:15Z</time>
      </trkpt>
      <trkpt lat="48.06577" lon="-3.51194">
        <ele>192</ele>
        <time>2025-02-26T10:09:16Z</time>
      </trkpt>
      <trkpt lat="48.06577" lon="-3.51194">
        <ele>192</ele>
        <time>2025-02-26T10:09:17Z</time>
      </trkpt>
      <trkpt lat="48.06577" lon="-3.51194">
        <ele>192</ele>
        <time>2025-02-26T10:09:18Z</time>
      </trkpt>
      <trkpt lat="48.06577" lon="-3.51194">
        <ele>192</ele>
        <time>2025-02-26T10:09:19Z</time>
      </trkpt>
      <trkpt lat="48.06577" lon="-3.51194">
        <ele>192</ele>
        <time>2025-02-26T10:09:20Z</time>
      </trkpt>
      <trkpt lat="48.06577" lon="-3.51194">
        <ele>192</ele>
        <time>2025-02-26T10:09:21Z</time>
      </trkpt>
      <trkpt lat="48.06577" lon="-3.51194">
        <ele>192</ele>
        <time>2025-02-26T10:09:22Z</time>
      </trkpt>
      <trkpt lat="48.06577" lon="-3.51194">
        <ele>192</ele>
        <time>2025-02-26T10:09:23Z</time>
      </trkpt>
      <trkpt lat="48.06577" lon="-3.51194">
        <ele>192</ele>
        <time>2025-02-26T10:09:24Z</time>
      </trkpt>
      <trkpt lat="48.06577" lon="-3.51194">
        <ele>192</ele>
        <time>2025-02-26T10:09:25Z</time>
      </trkpt>
      <trkpt lat="48.06577" lon="-3.51194">
        <ele>192</ele>
        <time>2025-02-26T10:09:26Z</time>
      </trkpt>
      <trkpt lat="48.06577" lon="-3.51194">
        <ele>192</ele>
        <time>2025-02-26T10:09:27Z</time>
      </trkpt>
      <trkpt lat="48.06577" lon="-3.51194">
        <ele>192</ele>
        <time>2025-02-26T10:09:28Z</time>
      </trkpt>
      <trkpt lat="48.06577" lon="-3.51194">
        <ele>192</ele>
        <time>2025-02-26T10:09:29Z</time>
      </trkpt>
      <trkpt lat="48.06577" lon="-3.51194">
        <ele>192</ele>
        <time>2025-02-26T10:09:30Z</time>
      </trkpt>
      <trkpt lat="48.06577" lon="-3.51194">
        <ele>192</ele>
        <time>2025-02-26T10:09:31Z</time>
      </trkpt>
      <trkpt lat="48.06577" lon="-3.51194">
        <ele>192</ele>
        <time>2025-02-26T10:09:32Z</time>
      </trkpt>
      <trkpt lat="48.06577" lon="-3.51194">
        <ele>192</ele>
        <time>2025-02-26T10:09:33Z</time>
      </trkpt>
      <trkpt lat="48.06577" lon="-3.51194">
        <ele>192</ele>
        <time>2025-02-26T10:09:34Z</time>
      </trkpt>
      <trkpt lat="48.06577" lon="-3.51194">
        <ele>192</ele>
        <time>2025-02-26T10:09:35Z</time>
      </trkpt>
      <trkpt lat="48.06577" lon="-3.51194">
        <ele>192</ele>
        <time>2025-02-26T10:09:36Z</time>
      </trkpt>
      <trkpt lat="48.06577" lon="-3.51194">
        <ele>192</ele>
        <time>2025-02-26T10:09:37Z</time>
      </trkpt>
      <trkpt lat="48.06577" lon="-3.51195">
        <ele>192</ele>
        <time>2025-02-26T10:09:38Z</time>
      </trkpt>
      <trkpt lat="48.06577" lon="-3.51195">
        <ele>192</ele>
        <time>2025-02-26T10:09:39Z</time>
      </trkpt>
      <trkpt lat="48.06577" lon="-3.51196">
        <ele>192</ele>
        <time>2025-02-26T10:09:40Z</time>
      </trkpt>
      <trkpt lat="48.06578" lon="-3.51196">
        <ele>192</ele>
        <time>2025-02-26T10:09:41Z</time>
      </trkpt>
      <trkpt lat="48.06578" lon="-3.51197">
        <ele>192.1</ele>
        <time>2025-02-26T10:09:42Z</time>
      </trkpt>
      <trkpt lat="48.06578" lon="-3.51198">
        <ele>192.1</ele>
        <time>2025-02-26T10:09:43Z</time>
      </trkpt>
      <trkpt lat="48.06578" lon="-3.51198">
        <ele>192.1</ele>
        <time>2025-02-26T10:09:44Z</time>
      </trkpt>
      <trkpt lat="48.06578" lon="-3.51199">
        <ele>192.1</ele>
        <time>2025-02-26T10:09:45Z</time>
      </trkpt>
      <trkpt lat="48.06578" lon="-3.51199">
        <ele>192.1</ele>
        <time>2025-02-26T10:09:46Z</time>
      </trkpt>
      <trkpt lat="48.06578" lon="-3.512">
        <ele>192.2</ele>
        <time>2025-02-26T10:09:47Z</time>
      </trkpt>
      <trkpt lat="48.06578" lon="-3.512">
        <ele>192.2</ele>
        <time>2025-02-26T10:09:48Z</time>
      </trkpt>
      <trkpt lat="48.06578" lon="-3.512">
        <ele>192.2</ele>
        <time>2025-02-26T10:09:49Z</time>
      </trkpt>
      <trkpt lat="48.06578" lon="-3.512">
        <ele>192.2</ele>
        <time>2025-02-26T10:09:50Z</time>
      </trkpt>
      <trkpt lat="48.06577" lon="-3.512">
        <ele>192.2</ele>
        <time>2025-02-26T10:09:51Z</time>
      </trkpt>
      <trkpt lat="48.06577" lon="-3.512">
        <ele>192.2</ele>
        <time>2025-02-26T10:09:52Z</time>
      </trkpt>
      <trkpt lat="48.06577" lon="-3.512">
        <ele>192.2</ele>
        <time>2025-02-26T10:09:53Z</time>
      </trkpt>
      <trkpt lat="48.06577" lon="-3.512">
        <ele>192.2</ele>
        <time>2025-02-26T10:09:54Z</time>
      </trkpt>
      <trkpt lat="48.06578" lon="-3.512">
        <ele>192.2</ele>
        <time>2025-02-26T10:09:55Z</time>
      </trkpt>
      <trkpt lat="48.06578" lon="-3.512">
        <ele>192.2</ele>
        <time>2025-02-26T10:09:56Z</time>
      </trkpt>
      <trkpt lat="48.06578" lon="-3.512">
        <ele>192.2</ele>
        <time>2025-02-26T10:09:57Z</time>
      </trkpt>
      <trkpt lat="48.06578" lon="-3.512">
        <ele>192.2</ele>
        <time>2025-02-26T10:09:58Z</time>
      </trkpt>
      <trkpt lat="48.06578" lon="-3.512">
        <ele>192.2</ele>
        <time>2025-02-26T10:09:59Z</time>
      </trkpt>
      <trkpt lat="48.06578" lon="-3.512">
        <ele>192.2</ele>
        <time>2025-02-26T10:10:00Z</time>
      </trkpt>
      <trkpt lat="48.06578" lon="-3.512">
        <ele>192.2</ele>
        <time>2025-02-26T10:10:01Z</time>
      </trkpt>
      <trkpt lat="48.06578" lon="-3.512">
        <ele>192.2</ele>
        <time>2025-02-26T10:10:02Z</time>
      </trkpt>
      <trkpt lat="48.06578" lon="-3.512">
        <ele>192.2</ele>
        <time>2025-02-26T10:10:03Z</time>
      </trkpt>
      <trkpt lat="48.06578" lon="-3.512">
        <ele>192.2</ele>
        <time>2025-02-26T10:10:04Z</time>
      </trkpt>
      <trkpt lat="48.06578" lon="-3.512">
        <ele>192.2</ele>
        <time>2025-02-26T10:10:05Z</time>
      </trkpt>
      <trkpt lat="48.06578" lon="-3.512">
        <ele>192.2</ele>
        <time>2025-02-26T10:10:06Z</time>
      </trkpt>
      <trkpt lat="48.06578" lon="-3.512">
        <ele>192.2</ele>
        <time>2025-02-26T10:10:07Z</time>
      </trkpt>
      <trkpt lat="48.06578" lon="-3.512">
        <ele>192.2</ele>
        <time>2025-02-26T10:10:08Z</time>
      </trkpt>
      <trkpt lat="48.06578" lon="-3.512">
        <ele>192.2</ele>
        <time>2025-02-26T10:10:09Z</time>
      </trkpt>
      <trkpt lat="48.06578" lon="-3.512">
        <ele>192.2</ele>
        <time>2025-02-26T10:10:10Z</time>
      </trkpt>
      <trkpt lat="48.06578" lon="-3.512">
        <ele>192.2</ele>
        <time>2025-02-26T10:10:11Z</time>
      </trkpt>
      <trkpt lat="48.06578" lon="-3.512">
        <ele>192.2</ele>
        <time>2025-02-26T10:10:12Z</time>
      </trkpt>
      <trkpt lat="48.06578" lon="-3.512">
        <ele>192.2</ele>
        <time>2025-02-26T10:10:13Z</time>
      </trkpt>
      <trkpt lat="48.06578" lon="-3.512">
        <ele>192.2</ele>
        <time>2025-02-26T10:10:14Z</time>
      </trkpt>
      <trkpt lat="48.06578" lon="-3.512">
        <ele>192.2</ele>
        <time>2025-02-26T10:10:15Z</time>
      </trkpt>
      <trkpt lat="48.06578" lon="-3.512">
        <ele>192.2</ele>
        <time>2025-02-26T10:10:16Z</time>
      </trkpt>
      <trkpt lat="48.06578" lon="-3.512">
        <ele>192.2</ele>
        <time>2025-02-26T10:10:17Z</time>
      </trkpt>
      <trkpt lat="48.06578" lon="-3.512">
        <ele>192.2</ele>
        <time>2025-02-26T10:10:18Z</time>
      </trkpt>
      <trkpt lat="48.06578" lon="-3.51201">
        <ele>192.2</ele>
        <time>2025-02-26T10:10:19Z</time>
      </trkpt>
      <trkpt lat="48.06578" lon="-3.51201">
        <ele>192.2</ele>
        <time>2025-02-26T10:10:20Z</time>
      </trkpt>
      <trkpt lat="48.06578" lon="-3.51201">
        <ele>192.2</ele>
        <time>2025-02-26T10:10:21Z</time>
      </trkpt>
      <trkpt lat="48.06578" lon="-3.51201">
        <ele>192.2</ele>
        <time>2025-02-26T10:10:22Z</time>
      </trkpt>
      <trkpt lat="48.06578" lon="-3.51201">
        <ele>192.2</ele>
        <time>2025-02-26T10:10:23Z</time>
      </trkpt>
      <trkpt lat="48.06578" lon="-3.51201">
        <ele>192.2</ele>
        <time>2025-02-26T10:10:24Z</time>
      </trkpt>
      <trkpt lat="48.06578" lon="-3.51201">
        <ele>192.2</ele>
        <time>2025-02-26T10:10:25Z</time>
      </trkpt>
      <trkpt lat="48.06578" lon="-3.51201">
        <ele>192.2</ele>
        <time>2025-02-26T10:10:26Z</time>
      </trkpt>
      <trkpt lat="48.06578" lon="-3.51201">
        <ele>192.2</ele>
        <time>2025-02-26T10:10:27Z</time>
      </trkpt>
      <trkpt lat="48.06578" lon="-3.51201">
        <ele>192.2</ele>
        <time>2025-02-26T10:10:28Z</time>
      </trkpt>
      <trkpt lat="48.06578" lon="-3.51201">
        <ele>192.2</ele>
        <time>2025-02-26T10:10:29Z</time>
      </trkpt>
      <trkpt lat="48.06578" lon="-3.51201">
        <ele>192.2</ele>
        <time>2025-02-26T10:10:30Z</time>
      </trkpt>
      <trkpt lat="48.06578" lon="-3.51201">
        <ele>192.2</ele>
        <time>2025-02-26T10:10:31Z</time>
      </trkpt>
      <trkpt lat="48.06578" lon="-3.51201">
        <ele>192.2</ele>
        <time>2025-02-26T10:10:32Z</time>
      </trkpt>
      <trkpt lat="48.06578" lon="-3.51201">
        <ele>192.2</ele>
        <time>2025-02-26T10:10:33Z</time>
      </trkpt>
      <trkpt lat="48.06578" lon="-3.51201">
        <ele>192.2</ele>
        <time>2025-02-26T10:10:34Z</time>
      </trkpt>
      <trkpt lat="48.06578" lon="-3.51201">
        <ele>192.2</ele>
        <time>2025-02-26T10:10:35Z</time>
      </trkpt>
      <trkpt lat="48.06578" lon="-3.51201">
        <ele>192.2</ele>
        <time>2025-02-26T10:10:36Z</time>
      </trkpt>
      <trkpt lat="48.06578" lon="-3.51201">
        <ele>192.2</ele>
        <time>2025-02-26T10:10:37Z</time>
      </trkpt>
      <trkpt lat="48.06578" lon="-3.51201">
        <ele>192.2</ele>
        <time>2025-02-26T10:10:38Z</time>
      </trkpt>
      <trkpt lat="48.06578" lon="-3.51201">
        <ele>192.2</ele>
        <time>2025-02-26T10:10:39Z</time>
      </trkpt>
      <trkpt lat="48.06578" lon="-3.51201">
        <ele>192.2</ele>
        <time>2025-02-26T10:10:40Z</time>
      </trkpt>
      <trkpt lat="48.06578" lon="-3.51201">
        <ele>192.2</ele>
        <time>2025-02-26T10:10:41Z</time>
      </trkpt>
      <trkpt lat="48.06578" lon="-3.51201">
        <ele>192.2</ele>
        <time>2025-02-26T10:10:42Z</time>
      </trkpt>
      <trkpt lat="48.06578" lon="-3.51201">
        <ele>192.2</ele>
        <time>2025-02-26T10:10:43Z</time>
      </trkpt>
      <trkpt lat="48.06578" lon="-3.51201">
        <ele>192.2</ele>
        <time>2025-02-26T10:10:44Z</time>
      </trkpt>
      <trkpt lat="48.06578" lon="-3.51201">
        <ele>192.2</ele>
        <time>2025-02-26T10:10:45Z</time>
      </trkpt>
      <trkpt lat="48.06578" lon="-3.51201">
        <ele>192.2</ele>
        <time>2025-02-26T10:10:46Z</time>
      </trkpt>
      <trkpt lat="48.06578" lon="-3.51201">
        <ele>192.2</ele>
        <time>2025-02-26T10:10:47Z</time>
      </trkpt>
      <trkpt lat="48.06578" lon="-3.51201">
        <ele>192.2</ele>
        <time>2025-02-26T10:10:48Z</time>
      </trkpt>
      <trkpt lat="48.06578" lon="-3.51201">
        <ele>192.2</ele>
        <time>2025-02-26T10:10:49Z</time>
      </trkpt>
      <trkpt lat="48.06578" lon="-3.51201">
        <ele>192.2</ele>
        <time>2025-02-26T10:10:50Z</time>
      </trkpt>
      <trkpt lat="48.06578" lon="-3.51201">
        <ele>192.2</ele>
        <time>2025-02-26T10:10:51Z</time>
      </trkpt>
      <trkpt lat="48.06578" lon="-3.51201">
        <ele>192.2</ele>
        <time>2025-02-26T10:10:52Z</time>
      </trkpt>
      <trkpt lat="48.06578" lon="-3.51201">
        <ele>192.2</ele>
        <time>2025-02-26T10:10:53Z</time>
      </trkpt>
      <trkpt lat="48.06578" lon="-3.51201">
        <ele>192.2</ele>
        <time>2025-02-26T10:10:54Z</time>
      </trkpt>
      <trkpt lat="48.06578" lon="-3.51201">
        <ele>192.2</ele>
        <time>2025-02-26T10:10:55Z</time>
      </trkpt>
      <trkpt lat="48.06578" lon="-3.51201">
        <ele>192.2</ele>
        <time>2025-02-26T10:10:56Z</time>
      </trkpt>
      <trkpt lat="48.06578" lon="-3.51201">
        <ele>192.2</ele>
        <time>2025-02-26T10:10:57Z</time>
      </trkpt>
      <trkpt lat="48.06578" lon="-3.51201">
        <ele>192.2</ele>
        <time>2025-02-26T10:10:58Z</time>
      </trkpt>
      <trkpt lat="48.06578" lon="-3.51201">
        <ele>192.2</ele>
        <time>2025-02-26T10:10:59Z</time>
      </trkpt>
      <trkpt lat="48.06578" lon="-3.51201">
        <ele>192.2</ele>
        <time>2025-02-26T10:11:00Z</time>
      </trkpt>
      <trkpt lat="48.06578" lon="-3.51201">
        <ele>192.2</ele>
        <time>2025-02-26T10:11:01Z</time>
      </trkpt>
      <trkpt lat="48.06578" lon="-3.51201">
        <ele>192.2</ele>
        <time>2025-02-26T10:11:02Z</time>
      </trkpt>
      <trkpt lat="48.06578" lon="-3.51201">
        <ele>192.2</ele>
        <time>2025-02-26T10:11:03Z</time>
      </trkpt>
      <trkpt lat="48.06578" lon="-3.51201">
        <ele>192.2</ele>
        <time>2025-02-26T10:11:04Z</time>
      </trkpt>
      <trkpt lat="48.06578" lon="-3.51201">
        <ele>192.2</ele>
        <time>2025-02-26T10:11:05Z</time>
      </trkpt>
      <trkpt lat="48.06578" lon="-3.51201">
        <ele>192.2</ele>
        <time>2025-02-26T10:11:06Z</time>
      </trkpt>
      <trkpt lat="48.06578" lon="-3.51201">
        <ele>192.2</ele>
        <time>2025-02-26T10:11:07Z</time>
      </trkpt>
      <trkpt lat="48.06578" lon="-3.51201">
        <ele>192.2</ele>
        <time>2025-02-26T10:11:08Z</time>
      </trkpt>
      <trkpt lat="48.06578" lon="-3.51201">
        <ele>192.2</ele>
        <time>2025-02-26T10:11:09Z</time>
      </trkpt>
      <trkpt lat="48.06578" lon="-3.51201">
        <ele>192.2</ele>
        <time>2025-02-26T10:11:10Z</time>
      </trkpt>
      <trkpt lat="48.06578" lon="-3.51201">
        <ele>192.2</ele>
        <time>2025-02-26T10:11:11Z</time>
      </trkpt>
      <trkpt lat="48.06578" lon="-3.51201">
        <ele>192.2</ele>
        <time>2025-02-26T10:11:12Z</time>
      </trkpt>
      <trkpt lat="48.06578" lon="-3.51201">
        <ele>192.2</ele>
        <time>2025-02-26T10:11:13Z</time>
      </trkpt>
      <trkpt lat="48.06578" lon="-3.51201">
        <ele>192.2</ele>
        <time>2025-02-26T10:11:14Z</time>
      </trkpt>
      <trkpt lat="48.06578" lon="-3.51201">
        <ele>192.2</ele>
        <time>2025-02-26T10:11:15Z</time>
      </trkpt>
      <trkpt lat="48.06577" lon="-3.51201">
        <ele>192.2</ele>
        <time>2025-02-26T10:11:16Z</time>
      </trkpt>
      <trkpt lat="48.06577" lon="-3.51202">
        <ele>192.2</ele>
        <time>2025-02-26T10:11:17Z</time>
      </trkpt>
      <trkpt lat="48.06577" lon="-3.51202">
        <ele>192.2</ele>
        <time>2025-02-26T10:11:18Z</time>
      </trkpt>
      <trkpt lat="48.06577" lon="-3.51202">
        <ele>192.2</ele>
        <time>2025-02-26T10:11:19Z</time>
      </trkpt>
      <trkpt lat="48.06577" lon="-3.51201">
        <ele>192.2</ele>
        <time>2025-02-26T10:11:20Z</time>
      </trkpt>
      <trkpt lat="48.06577" lon="-3.51201">
        <ele>192.2</ele>
        <time>2025-02-26T10:11:21Z</time>
      </trkpt>
      <trkpt lat="48.06577" lon="-3.51202">
        <ele>192.2</ele>
        <time>2025-02-26T10:11:22Z</time>
      </trkpt>
      <trkpt lat="48.06576" lon="-3.51203">
        <ele>192.2</ele>
        <time>2025-02-26T10:11:23Z</time>
      </trkpt>
      <trkpt lat="48.06576" lon="-3.51204">
        <ele>192.2</ele>
        <time>2025-02-26T10:11:24Z</time>
      </trkpt>
      <trkpt lat="48.06576" lon="-3.51204">
        <ele>192.2</ele>
        <time>2025-02-26T10:11:25Z</time>
      </trkpt>
      <trkpt lat="48.06576" lon="-3.51204">
        <ele>192.2</ele>
        <time>2025-02-26T10:11:26Z</time>
      </trkpt>
      <trkpt lat="48.06576" lon="-3.51204">
        <ele>192.2</ele>
        <time>2025-02-26T10:11:27Z</time>
      </trkpt>
      <trkpt lat="48.06576" lon="-3.51204">
        <ele>192.2</ele>
        <time>2025-02-26T10:11:28Z</time>
      </trkpt>
      <trkpt lat="48.06576" lon="-3.51204">
        <ele>192.2</ele>
        <time>2025-02-26T10:11:29Z</time>
      </trkpt>
      <trkpt lat="48.06576" lon="-3.51204">
        <ele>192.2</ele>
        <time>2025-02-26T10:11:30Z</time>
      </trkpt>
      <trkpt lat="48.06576" lon="-3.51204">
        <ele>192.2</ele>
        <time>2025-02-26T10:11:31Z</time>
      </trkpt>
      <trkpt lat="48.06576" lon="-3.51204">
        <ele>192.2</ele>
        <time>2025-02-26T10:11:32Z</time>
      </trkpt>
      <trkpt lat="48.06576" lon="-3.51204">
        <ele>192.2</ele>
        <time>2025-02-26T10:11:33Z</time>
      </trkpt>
      <trkpt lat="48.06576" lon="-3.51204">
        <ele>192.2</ele>
        <time>2025-02-26T10:11:34Z</time>
      </trkpt>
      <trkpt lat="48.06576" lon="-3.51202">
        <ele>192.2</ele>
        <time>2025-02-26T10:11:35Z</time>
      </trkpt>
      <trkpt lat="48.06577" lon="-3.51201">
        <ele>192.2</ele>
        <time>2025-02-26T10:11:36Z</time>
      </trkpt>
      <trkpt lat="48.06577" lon="-3.51199">
        <ele>192.1</ele>
        <time>2025-02-26T10:11:37Z</time>
      </trkpt>
      <trkpt lat="48.06577" lon="-3.51198">
        <ele>192.1</ele>
        <time>2025-02-26T10:11:38Z</time>
      </trkpt>
      <trkpt lat="48.06578" lon="-3.51196">
        <ele>192</ele>
        <time>2025-02-26T10:11:39Z</time>
      </trkpt>
      <trkpt lat="48.06578" lon="-3.51194">
        <ele>192</ele>
        <time>2025-02-26T10:11:40Z</time>
      </trkpt>
      <trkpt lat="48.06578" lon="-3.51193">
        <ele>191.9</ele>
        <time>2025-02-26T10:11:41Z</time>
      </trkpt>
      <trkpt lat="48.06578" lon="-3.51191">
        <ele>191.9</ele>
        <time>2025-02-26T10:11:42Z</time>
      </trkpt>
      <trkpt lat="48.06578" lon="-3.51189">
        <ele>191.8</ele>
        <time>2025-02-26T10:11:43Z</time>
      </trkpt>
      <trkpt lat="48.06579" lon="-3.51187">
        <ele>191.7</ele>
        <time>2025-02-26T10:11:44Z</time>
      </trkpt>
      <trkpt lat="48.06579" lon="-3.51186">
        <ele>191.7</ele>
        <time>2025-02-26T10:11:45Z</time>
      </trkpt>
      <trkpt lat="48.06579" lon="-3.51184">
        <ele>191.6</ele>
        <time>2025-02-26T10:11:46Z</time>
      </trkpt>
      <trkpt lat="48.06579" lon="-3.51183">
        <ele>191.6</ele>
        <time>2025-02-26T10:11:47Z</time>
      </trkpt>
      <trkpt lat="48.06579" lon="-3.51181">
        <ele>191.5</ele>
        <time>2025-02-26T10:11:48Z</time>
      </trkpt>
      <trkpt lat="48.06579" lon="-3.51179">
        <ele>191.5</ele>
        <time>2025-02-26T10:11:49Z</time>
      </trkpt>
      <trkpt lat="48.06579" lon="-3.51177">
        <ele>191.4</ele>
        <time>2025-02-26T10:11:50Z</time>
      </trkpt>
      <trkpt lat="48.0658" lon="-3.51176">
        <ele>191.3</ele>
        <time>2025-02-26T10:11:51Z</time>
      </trkpt>
      <trkpt lat="48.0658" lon="-3.51175">
        <ele>191.3</ele>
        <time>2025-02-26T10:11:52Z</time>
      </trkpt>
      <trkpt lat="48.06581" lon="-3.51174">
        <ele>191.3</ele>
        <time>2025-02-26T10:11:53Z</time>
      </trkpt>
      <trkpt lat="48.06582" lon="-3.51174">
        <ele>191.2</ele>
        <time>2025-02-26T10:11:54Z</time>
      </trkpt>
      <trkpt lat="48.06582" lon="-3.51173">
        <ele>191.2</ele>
        <time>2025-02-26T10:11:55Z</time>
      </trkpt>
      <trkpt lat="48.06582" lon="-3.51174">
        <ele>191.3</ele>
        <time>2025-02-26T10:11:56Z</time>
      </trkpt>
      <trkpt lat="48.06582" lon="-3.51175">
        <ele>191.3</ele>
        <time>2025-02-26T10:11:57Z</time>
      </trkpt>
      <trkpt lat="48.06582" lon="-3.51175">
        <ele>191.3</ele>
        <time>2025-02-26T10:11:58Z</time>
      </trkpt>
      <trkpt lat="48.06582" lon="-3.51175">
        <ele>191.3</ele>
        <time>2025-02-26T10:11:59Z</time>
      </trkpt>
      <trkpt lat="48.06582" lon="-3.51175">
        <ele>191.3</ele>
        <time>2025-02-26T10:12:00Z</time>
      </trkpt>
      <trkpt lat="48.06582" lon="-3.51175">
        <ele>191.3</ele>
        <time>2025-02-26T10:12:01Z</time>
      </trkpt>
      <trkpt lat="48.06582" lon="-3.51175">
        <ele>191.3</ele>
        <time>2025-02-26T10:12:02Z</time>
      </trkpt>
      <trkpt lat="48.06582" lon="-3.51175">
        <ele>191.3</ele>
        <time>2025-02-26T10:12:03Z</time>
      </trkpt>
      <trkpt lat="48.06582" lon="-3.51175">
        <ele>191.3</ele>
        <time>2025-02-26T10:12:04Z</time>
      </trkpt>
      <trkpt lat="48.06582" lon="-3.51175">
        <ele>191.3</ele>
        <time>2025-02-26T10:12:05Z</time>
      </trkpt>
      <trkpt lat="48.06582" lon="-3.51174">
        <ele>191.3</ele>
        <time>2025-02-26T10:12:06Z</time>
      </trkpt>
      <trkpt lat="48.06582" lon="-3.51173">
        <ele>191.2</ele>
        <time>2025-02-26T10:12:07Z</time>
      </trkpt>
      <trkpt lat="48.06582" lon="-3.51173">
        <ele>191.2</ele>
        <time>2025-02-26T10:12:08Z</time>
      </trkpt>
      <trkpt lat="48.06581" lon="-3.51172">
        <ele>191.2</ele>
        <time>2025-02-26T10:12:09Z</time>
      </trkpt>
      <trkpt lat="48.06581" lon="-3.51171">
        <ele>191.1</ele>
        <time>2025-02-26T10:12:10Z</time>
      </trkpt>
      <trkpt lat="48.06581" lon="-3.51169">
        <ele>191.1</ele>
        <time>2025-02-26T10:12:11Z</time>
      </trkpt>
      <trkpt lat="48.06582" lon="-3.51167">
        <ele>191</ele>
        <time>2025-02-26T10:12:12Z</time>
      </trkpt>
      <trkpt lat="48.06582" lon="-3.51165">
        <ele>191</ele>
        <time>2025-02-26T10:12:13Z</time>
      </trkpt>
      <trkpt lat="48.06581" lon="-3.51165">
        <ele>191</ele>
        <time>2025-02-26T10:12:14Z</time>
      </trkpt>
      <trkpt lat="48.06581" lon="-3.51163">
        <ele>191</ele>
        <time>2025-02-26T10:12:15Z</time>
      </trkpt>
      <trkpt lat="48.06581" lon="-3.51162">
        <ele>191</ele>
        <time>2025-02-26T10:12:16Z</time>
      </trkpt>
      <trkpt lat="48.06581" lon="-3.5116">
        <ele>191</ele>
        <time>2025-02-26T10:12:17Z</time>
      </trkpt>
      <trkpt lat="48.06581" lon="-3.51159">
        <ele>191</ele>
        <time>2025-02-26T10:12:18Z</time>
      </trkpt>
      <trkpt lat="48.06581" lon="-3.51157">
        <ele>191</ele>
        <time>2025-02-26T10:12:19Z</time>
      </trkpt>
      <trkpt lat="48.06581" lon="-3.51156">
        <ele>191</ele>
        <time>2025-02-26T10:12:20Z</time>
      </trkpt>
      <trkpt lat="48.0658" lon="-3.51155">
        <ele>191</ele>
        <time>2025-02-26T10:12:21Z</time>
      </trkpt>
      <trkpt lat="48.06579" lon="-3.51153">
        <ele>190.9</ele>
        <time>2025-02-26T10:12:22Z</time>
      </trkpt>
      <trkpt lat="48.06579" lon="-3.51152">
        <ele>190.9</ele>
        <time>2025-02-26T10:12:23Z</time>
      </trkpt>
      <trkpt lat="48.06579" lon="-3.5115">
        <ele>190.9</ele>
        <time>2025-02-26T10:12:24Z</time>
      </trkpt>
      <trkpt lat="48.06578" lon="-3.51149">
        <ele>190.9</ele>
        <time>2025-02-26T10:12:25Z</time>
      </trkpt>
      <trkpt lat="48.06577" lon="-3.51148">
        <ele>190.9</ele>
        <time>2025-02-26T10:12:26Z</time>
      </trkpt>
      <trkpt lat="48.06577" lon="-3.51147">
        <ele>190.8</ele>
        <time>2025-02-26T10:12:27Z</time>
      </trkpt>
      <trkpt lat="48.06576" lon="-3.51145">
        <ele>190.8</ele>
        <time>2025-02-26T10:12:28Z</time>
      </trkpt>
      <trkpt lat="48.06576" lon="-3.51144">
        <ele>190.8</ele>
        <time>2025-02-26T10:12:29Z</time>
      </trkpt>
      <trkpt lat="48.06576" lon="-3.51143">
        <ele>190.8</ele>
        <time>2025-02-26T10:12:30Z</time>
      </trkpt>
      <trkpt lat="48.06576" lon="-3.51142">
        <ele>190.8</ele>
        <time>2025-02-26T10:12:31Z</time>
      </trkpt>
      <trkpt lat="48.06576" lon="-3.51141">
        <ele>190.7</ele>
        <time>2025-02-26T10:12:32Z</time>
      </trkpt>
      <trkpt lat="48.06575" lon="-3.5114">
        <ele>190.7</ele>
        <time>2025-02-26T10:12:33Z</time>
      </trkpt>
      <trkpt lat="48.06574" lon="-3.51139">
        <ele>190.7</ele>
        <time>2025-02-26T10:12:34Z</time>
      </trkpt>
      <trkpt lat="48.06574" lon="-3.51138">
        <ele>190.6</ele>
        <time>2025-02-26T10:12:35Z</time>
      </trkpt>
      <trkpt lat="48.06574" lon="-3.51138">
        <ele>190.7</ele>
        <time>2025-02-26T10:12:36Z</time>
      </trkpt>
      <trkpt lat="48.06575" lon="-3.5114">
        <ele>190.7</ele>
        <time>2025-02-26T10:12:37Z</time>
      </trkpt>
      <trkpt lat="48.06575" lon="-3.5114">
        <ele>190.7</ele>
        <time>2025-02-26T10:12:38Z</time>
      </trkpt>
      <trkpt lat="48.06574" lon="-3.51139">
        <ele>190.7</ele>
        <time>2025-02-26T10:12:39Z</time>
      </trkpt>
      <trkpt lat="48.06574" lon="-3.51137">
        <ele>190.6</ele>
        <time>2025-02-26T10:12:40Z</time>
      </trkpt>
      <trkpt lat="48.06574" lon="-3.51136">
        <ele>190.6</ele>
        <time>2025-02-26T10:12:41Z</time>
      </trkpt>
      <trkpt lat="48.06574" lon="-3.51135">
        <ele>190.5</ele>
        <time>2025-02-26T10:12:42Z</time>
      </trkpt>
      <trkpt lat="48.06573" lon="-3.51133">
        <ele>190.4</ele>
        <time>2025-02-26T10:12:43Z</time>
      </trkpt>
      <trkpt lat="48.06572" lon="-3.51132">
        <ele>190.3</ele>
        <time>2025-02-26T10:12:44Z</time>
      </trkpt>
      <trkpt lat="48.06572" lon="-3.51131">
        <ele>190.3</ele>
        <time>2025-02-26T10:12:45Z</time>
      </trkpt>
      <trkpt lat="48.06571" lon="-3.51129">
        <ele>190.2</ele>
        <time>2025-02-26T10:12:46Z</time>
      </trkpt>
      <trkpt lat="48.06571" lon="-3.51129">
        <ele>190.2</ele>
        <time>2025-02-26T10:12:47Z</time>
      </trkpt>
      <trkpt lat="48.06572" lon="-3.51129">
        <ele>190.2</ele>
        <time>2025-02-26T10:12:48Z</time>
      </trkpt>
      <trkpt lat="48.06571" lon="-3.51129">
        <ele>190.2</ele>
        <time>2025-02-26T10:12:49Z</time>
      </trkpt>
      <trkpt lat="48.0657" lon="-3.51128">
        <ele>190.1</ele>
        <time>2025-02-26T10:12:50Z</time>
      </trkpt>
      <trkpt lat="48.06569" lon="-3.51126">
        <ele>190</ele>
        <time>2025-02-26T10:12:51Z</time>
      </trkpt>
      <trkpt lat="48.0657" lon="-3.51124">
        <ele>190</ele>
        <time>2025-02-26T10:12:52Z</time>
      </trkpt>
      <trkpt lat="48.0657" lon="-3.51123">
        <ele>189.9</ele>
        <time>2025-02-26T10:12:53Z</time>
      </trkpt>
      <trkpt lat="48.06571" lon="-3.51121">
        <ele>189.9</ele>
        <time>2025-02-26T10:12:54Z</time>
      </trkpt>
      <trkpt lat="48.06571" lon="-3.5112">
        <ele>189.9</ele>
        <time>2025-02-26T10:12:55Z</time>
      </trkpt>
      <trkpt lat="48.06572" lon="-3.51118">
        <ele>189.8</ele>
        <time>2025-02-26T10:12:56Z</time>
      </trkpt>
      <trkpt lat="48.06573" lon="-3.51118">
        <ele>189.9</ele>
        <time>2025-02-26T10:12:57Z</time>
      </trkpt>
      <trkpt lat="48.06574" lon="-3.51115">
        <ele>189.8</ele>
        <time>2025-02-26T10:12:58Z</time>
      </trkpt>
      <trkpt lat="48.06574" lon="-3.51114">
        <ele>189.8</ele>
        <time>2025-02-26T10:12:59Z</time>
      </trkpt>
      <trkpt lat="48.06575" lon="-3.51113">
        <ele>189.8</ele>
        <time>2025-02-26T10:13:00Z</time>
      </trkpt>
      <trkpt lat="48.06576" lon="-3.51113">
        <ele>189.8</ele>
        <time>2025-02-26T10:13:01Z</time>
      </trkpt>
      <trkpt lat="48.06577" lon="-3.51112">
        <ele>189.8</ele>
        <time>2025-02-26T10:13:02Z</time>
      </trkpt>
      <trkpt lat="48.06578" lon="-3.5111">
        <ele>189.8</ele>
        <time>2025-02-26T10:13:03Z</time>
      </trkpt>
      <trkpt lat="48.06579" lon="-3.51109">
        <ele>189.8</ele>
        <time>2025-02-26T10:13:04Z</time>
      </trkpt>
      <trkpt lat="48.06579" lon="-3.51108">
        <ele>189.8</ele>
        <time>2025-02-26T10:13:05Z</time>
      </trkpt>
      <trkpt lat="48.0658" lon="-3.51108">
        <ele>189.8</ele>
        <time>2025-02-26T10:13:06Z</time>
      </trkpt>
      <trkpt lat="48.06581" lon="-3.51106">
        <ele>189.7</ele>
        <time>2025-02-26T10:13:07Z</time>
      </trkpt>
      <trkpt lat="48.06582" lon="-3.51106">
        <ele>189.8</ele>
        <time>2025-02-26T10:13:08Z</time>
      </trkpt>
      <trkpt lat="48.06582" lon="-3.51105">
        <ele>189.8</ele>
        <time>2025-02-26T10:13:09Z</time>
      </trkpt>
      <trkpt lat="48.06583" lon="-3.51104">
        <ele>189.7</ele>
        <time>2025-02-26T10:13:10Z</time>
      </trkpt>
      <trkpt lat="48.06584" lon="-3.51103">
        <ele>189.7</ele>
        <time>2025-02-26T10:13:11Z</time>
      </trkpt>
      <trkpt lat="48.06585" lon="-3.51103">
        <ele>189.7</ele>
        <time>2025-02-26T10:13:12Z</time>
      </trkpt>
      <trkpt lat="48.06585" lon="-3.51102">
        <ele>189.7</ele>
        <time>2025-02-26T10:13:13Z</time>
      </trkpt>
      <trkpt lat="48.06586" lon="-3.511">
        <ele>189.6</ele>
        <time>2025-02-26T10:13:14Z</time>
      </trkpt>
      <trkpt lat="48.06588" lon="-3.511">
        <ele>189.6</ele>
        <time>2025-02-26T10:13:15Z</time>
      </trkpt>
      <trkpt lat="48.06588" lon="-3.51098">
        <ele>189.5</ele>
        <time>2025-02-26T10:13:16Z</time>
      </trkpt>
      <trkpt lat="48.06589" lon="-3.51096">
        <ele>189.5</ele>
        <time>2025-02-26T10:13:17Z</time>
      </trkpt>
      <trkpt lat="48.06589" lon="-3.51095">
        <ele>189.4</ele>
        <time>2025-02-26T10:13:18Z</time>
      </trkpt>
      <trkpt lat="48.0659" lon="-3.51093">
        <ele>189.3</ele>
        <time>2025-02-26T10:13:19Z</time>
      </trkpt>
      <trkpt lat="48.0659" lon="-3.51092">
        <ele>189.3</ele>
        <time>2025-02-26T10:13:20Z</time>
      </trkpt>
      <trkpt lat="48.06591" lon="-3.5109">
        <ele>189.2</ele>
        <time>2025-02-26T10:13:21Z</time>
      </trkpt>
      <trkpt lat="48.06592" lon="-3.51089">
        <ele>189.2</ele>
        <time>2025-02-26T10:13:22Z</time>
      </trkpt>
      <trkpt lat="48.06593" lon="-3.51089">
        <ele>189.2</ele>
        <time>2025-02-26T10:13:23Z</time>
      </trkpt>
      <trkpt lat="48.06593" lon="-3.51087">
        <ele>189.1</ele>
        <time>2025-02-26T10:13:24Z</time>
      </trkpt>
      <trkpt lat="48.06594" lon="-3.51086">
        <ele>189.1</ele>
        <time>2025-02-26T10:13:25Z</time>
      </trkpt>
      <trkpt lat="48.06595" lon="-3.51085">
        <ele>189.1</ele>
        <time>2025-02-26T10:13:26Z</time>
      </trkpt>
      <trkpt lat="48.06596" lon="-3.51084">
        <ele>189</ele>
        <time>2025-02-26T10:13:27Z</time>
      </trkpt>
      <trkpt lat="48.06596" lon="-3.51082">
        <ele>189</ele>
        <time>2025-02-26T10:13:28Z</time>
      </trkpt>
      <trkpt lat="48.06597" lon="-3.51081">
        <ele>189</ele>
        <time>2025-02-26T10:13:29Z</time>
      </trkpt>
      <trkpt lat="48.06598" lon="-3.51081">
        <ele>189</ele>
        <time>2025-02-26T10:13:30Z</time>
      </trkpt>
      <trkpt lat="48.06599" lon="-3.5108">
        <ele>189</ele>
        <time>2025-02-26T10:13:31Z</time>
      </trkpt>
      <trkpt lat="48.066" lon="-3.51079">
        <ele>189</ele>
        <time>2025-02-26T10:13:32Z</time>
      </trkpt>
      <trkpt lat="48.06601" lon="-3.51078">
        <ele>189</ele>
        <time>2025-02-26T10:13:33Z</time>
      </trkpt>
      <trkpt lat="48.06602" lon="-3.51077">
        <ele>189</ele>
        <time>2025-02-26T10:13:34Z</time>
      </trkpt>
      <trkpt lat="48.06603" lon="-3.51076">
        <ele>189</ele>
        <time>2025-02-26T10:13:35Z</time>
      </trkpt>
      <trkpt lat="48.06604" lon="-3.51076">
        <ele>189</ele>
        <time>2025-02-26T10:13:36Z</time>
      </trkpt>
      <trkpt lat="48.06605" lon="-3.51075">
        <ele>189</ele>
        <time>2025-02-26T10:13:37Z</time>
      </trkpt>
      <trkpt lat="48.06606" lon="-3.51074">
        <ele>189</ele>
        <time>2025-02-26T10:13:38Z</time>
      </trkpt>
      <trkpt lat="48.06607" lon="-3.51072">
        <ele>189</ele>
        <time>2025-02-26T10:13:39Z</time>
      </trkpt>
      <trkpt lat="48.06608" lon="-3.51071">
        <ele>189</ele>
        <time>2025-02-26T10:13:40Z</time>
      </trkpt>
      <trkpt lat="48.06609" lon="-3.5107">
        <ele>189</ele>
        <time>2025-02-26T10:13:41Z</time>
      </trkpt>
      <trkpt lat="48.06609" lon="-3.51069">
        <ele>189</ele>
        <time>2025-02-26T10:13:42Z</time>
      </trkpt>
      <trkpt lat="48.0661" lon="-3.51067">
        <ele>189</ele>
        <time>2025-02-26T10:13:43Z</time>
      </trkpt>
      <trkpt lat="48.06611" lon="-3.51066">
        <ele>189</ele>
        <time>2025-02-26T10:13:44Z</time>
      </trkpt>
      <trkpt lat="48.06611" lon="-3.51064">
        <ele>189</ele>
        <time>2025-02-26T10:13:45Z</time>
      </trkpt>
      <trkpt lat="48.06612" lon="-3.51063">
        <ele>189</ele>
        <time>2025-02-26T10:13:46Z</time>
      </trkpt>
      <trkpt lat="48.06613" lon="-3.51062">
        <ele>189</ele>
        <time>2025-02-26T10:13:47Z</time>
      </trkpt>
      <trkpt lat="48.06613" lon="-3.5106">
        <ele>189</ele>
        <time>2025-02-26T10:13:48Z</time>
      </trkpt>
      <trkpt lat="48.06614" lon="-3.51059">
        <ele>189</ele>
        <time>2025-02-26T10:13:49Z</time>
      </trkpt>
      <trkpt lat="48.06615" lon="-3.51058">
        <ele>189</ele>
        <time>2025-02-26T10:13:50Z</time>
      </trkpt>
      <trkpt lat="48.06616" lon="-3.51057">
        <ele>189</ele>
        <time>2025-02-26T10:13:51Z</time>
      </trkpt>
      <trkpt lat="48.06617" lon="-3.51055">
        <ele>189</ele>
        <time>2025-02-26T10:13:52Z</time>
      </trkpt>
      <trkpt lat="48.06617" lon="-3.51054">
        <ele>189</ele>
        <time>2025-02-26T10:13:53Z</time>
      </trkpt>
      <trkpt lat="48.06618" lon="-3.51053">
        <ele>188.9</ele>
        <time>2025-02-26T10:13:54Z</time>
      </trkpt>
      <trkpt lat="48.06619" lon="-3.51052">
        <ele>188.9</ele>
        <time>2025-02-26T10:13:55Z</time>
      </trkpt>
      <trkpt lat="48.0662" lon="-3.51051">
        <ele>188.8</ele>
        <time>2025-02-26T10:13:56Z</time>
      </trkpt>
      <trkpt lat="48.06621" lon="-3.5105">
        <ele>188.8</ele>
        <time>2025-02-26T10:13:57Z</time>
      </trkpt>
      <trkpt lat="48.06621" lon="-3.51048">
        <ele>188.7</ele>
        <time>2025-02-26T10:13:58Z</time>
      </trkpt>
      <trkpt lat="48.06622" lon="-3.51046">
        <ele>188.7</ele>
        <time>2025-02-26T10:13:59Z</time>
      </trkpt>
      <trkpt lat="48.06623" lon="-3.51045">
        <ele>188.6</ele>
        <time>2025-02-26T10:14:00Z</time>
      </trkpt>
      <trkpt lat="48.06623" lon="-3.51044">
        <ele>188.6</ele>
        <time>2025-02-26T10:14:01Z</time>
      </trkpt>
      <trkpt lat="48.06624" lon="-3.51043">
        <ele>188.5</ele>
        <time>2025-02-26T10:14:02Z</time>
      </trkpt>
      <trkpt lat="48.06625" lon="-3.51042">
        <ele>188.5</ele>
        <time>2025-02-26T10:14:03Z</time>
      </trkpt>
      <trkpt lat="48.06625" lon="-3.51039">
        <ele>188.4</ele>
        <time>2025-02-26T10:14:04Z</time>
      </trkpt>
      <trkpt lat="48.06626" lon="-3.51037">
        <ele>188.3</ele>
        <time>2025-02-26T10:14:05Z</time>
      </trkpt>
      <trkpt lat="48.06626" lon="-3.51036">
        <ele>188.3</ele>
        <time>2025-02-26T10:14:06Z</time>
      </trkpt>
      <trkpt lat="48.06627" lon="-3.51034">
        <ele>188.2</ele>
        <time>2025-02-26T10:14:07Z</time>
      </trkpt>
      <trkpt lat="48.06628" lon="-3.51034">
        <ele>188.2</ele>
        <time>2025-02-26T10:14:08Z</time>
      </trkpt>
      <trkpt lat="48.06628" lon="-3.51032">
        <ele>188.2</ele>
        <time>2025-02-26T10:14:09Z</time>
      </trkpt>
      <trkpt lat="48.06629" lon="-3.51031">
        <ele>188.1</ele>
        <time>2025-02-26T10:14:10Z</time>
      </trkpt>
      <trkpt lat="48.0663" lon="-3.5103">
        <ele>188.1</ele>
        <time>2025-02-26T10:14:11Z</time>
      </trkpt>
      <trkpt lat="48.0663" lon="-3.51029">
        <ele>188.1</ele>
        <time>2025-02-26T10:14:12Z</time>
      </trkpt>
      <trkpt lat="48.06631" lon="-3.51028">
        <ele>188</ele>
        <time>2025-02-26T10:14:13Z</time>
      </trkpt>
      <trkpt lat="48.06632" lon="-3.51027">
        <ele>188</ele>
        <time>2025-02-26T10:14:14Z</time>
      </trkpt>
      <trkpt lat="48.06633" lon="-3.51027">
        <ele>188</ele>
        <time>2025-02-26T10:14:15Z</time>
      </trkpt>
      <trkpt lat="48.06633" lon="-3.51027">
        <ele>188</ele>
        <time>2025-02-26T10:14:16Z</time>
      </trkpt>
      <trkpt lat="48.06634" lon="-3.51026">
        <ele>188</ele>
        <time>2025-02-26T10:14:17Z</time>
      </trkpt>
      <trkpt lat="48.06634" lon="-3.51025">
        <ele>188</ele>
        <time>2025-02-26T10:14:18Z</time>
      </trkpt>
      <trkpt lat="48.06634" lon="-3.51023">
        <ele>188</ele>
        <time>2025-02-26T10:14:19Z</time>
      </trkpt>
      <trkpt lat="48.06635" lon="-3.51022">
        <ele>188</ele>
        <time>2025-02-26T10:14:20Z</time>
      </trkpt>
      <trkpt lat="48.06635" lon="-3.51021">
        <ele>188</ele>
        <time>2025-02-26T10:14:21Z</time>
      </trkpt>
      <trkpt lat="48.06635" lon="-3.5102">
        <ele>188</ele>
        <time>2025-02-26T10:14:22Z</time>
      </trkpt>
      <trkpt lat="48.06635" lon="-3.51018">
        <ele>188</ele>
        <time>2025-02-26T10:14:23Z</time>
      </trkpt>
      <trkpt lat="48.06635" lon="-3.51016">
        <ele>188</ele>
        <time>2025-02-26T10:14:24Z</time>
      </trkpt>
      <trkpt lat="48.06636" lon="-3.51015">
        <ele>188</ele>
        <time>2025-02-26T10:14:25Z</time>
      </trkpt>
      <trkpt lat="48.06637" lon="-3.51014">
        <ele>188</ele>
        <time>2025-02-26T10:14:26Z</time>
      </trkpt>
      <trkpt lat="48.06637" lon="-3.51013">
        <ele>188</ele>
        <time>2025-02-26T10:14:27Z</time>
      </trkpt>
      <trkpt lat="48.06638" lon="-3.51012">
        <ele>188</ele>
        <time>2025-02-26T10:14:28Z</time>
      </trkpt>
      <trkpt lat="48.06639" lon="-3.5101">
        <ele>188</ele>
        <time>2025-02-26T10:14:29Z</time>
      </trkpt>
      <trkpt lat="48.06639" lon="-3.51008">
        <ele>188</ele>
        <time>2025-02-26T10:14:30Z</time>
      </trkpt>
      <trkpt lat="48.0664" lon="-3.51007">
        <ele>188</ele>
        <time>2025-02-26T10:14:31Z</time>
      </trkpt>
      <trkpt lat="48.0664" lon="-3.51005">
        <ele>188</ele>
        <time>2025-02-26T10:14:32Z</time>
      </trkpt>
      <trkpt lat="48.0664" lon="-3.51006">
        <ele>188</ele>
        <time>2025-02-26T10:14:33Z</time>
      </trkpt>
      <trkpt lat="48.0664" lon="-3.51007">
        <ele>188</ele>
        <time>2025-02-26T10:14:34Z</time>
      </trkpt>
      <trkpt lat="48.0664" lon="-3.51007">
        <ele>188</ele>
        <time>2025-02-26T10:14:35Z</time>
      </trkpt>
      <trkpt lat="48.0664" lon="-3.51007">
        <ele>188</ele>
        <time>2025-02-26T10:14:36Z</time>
      </trkpt>
      <trkpt lat="48.0664" lon="-3.51007">
        <ele>188</ele>
        <time>2025-02-26T10:14:37Z</time>
      </trkpt>
      <trkpt lat="48.0664" lon="-3.51006">
        <ele>188</ele>
        <time>2025-02-26T10:14:38Z</time>
      </trkpt>
      <trkpt lat="48.06641" lon="-3.51005">
        <ele>188</ele>
        <time>2025-02-26T10:14:39Z</time>
      </trkpt>
      <trkpt lat="48.06642" lon="-3.51004">
        <ele>188</ele>
        <time>2025-02-26T10:14:40Z</time>
      </trkpt>
      <trkpt lat="48.06642" lon="-3.51003">
        <ele>188</ele>
        <time>2025-02-26T10:14:41Z</time>
      </trkpt>
      <trkpt lat="48.06643" lon="-3.51003">
        <ele>188</ele>
        <time>2025-02-26T10:14:42Z</time>
      </trkpt>
      <trkpt lat="48.06643" lon="-3.51002">
        <ele>188</ele>
        <time>2025-02-26T10:14:43Z</time>
      </trkpt>
      <trkpt lat="48.06644" lon="-3.51002">
        <ele>188</ele>
        <time>2025-02-26T10:14:44Z</time>
      </trkpt>
      <trkpt lat="48.06644" lon="-3.51001">
        <ele>188</ele>
        <time>2025-02-26T10:14:45Z</time>
      </trkpt>
      <trkpt lat="48.06645" lon="-3.51">
        <ele>188</ele>
        <time>2025-02-26T10:14:46Z</time>
      </trkpt>
      <trkpt lat="48.06645" lon="-3.50999">
        <ele>188</ele>
        <time>2025-02-26T10:14:47Z</time>
      </trkpt>
      <trkpt lat="48.06645" lon="-3.50998">
        <ele>188</ele>
        <time>2025-02-26T10:14:48Z</time>
      </trkpt>
      <trkpt lat="48.06646" lon="-3.50997">
        <ele>187.9</ele>
        <time>2025-02-26T10:14:49Z</time>
      </trkpt>
      <trkpt lat="48.06646" lon="-3.50996">
        <ele>187.9</ele>
        <time>2025-02-26T10:14:50Z</time>
      </trkpt>
      <trkpt lat="48.06647" lon="-3.50995">
        <ele>187.9</ele>
        <time>2025-02-26T10:14:51Z</time>
      </trkpt>
      <trkpt lat="48.06648" lon="-3.50994">
        <ele>187.8</ele>
        <time>2025-02-26T10:14:52Z</time>
      </trkpt>
      <trkpt lat="48.06648" lon="-3.50993">
        <ele>187.8</ele>
        <time>2025-02-26T10:14:53Z</time>
      </trkpt>
      <trkpt lat="48.06649" lon="-3.50993">
        <ele>187.8</ele>
        <time>2025-02-26T10:14:54Z</time>
      </trkpt>
      <trkpt lat="48.0665" lon="-3.50992">
        <ele>187.8</ele>
        <time>2025-02-26T10:14:55Z</time>
      </trkpt>
      <trkpt lat="48.06651" lon="-3.50991">
        <ele>187.8</ele>
        <time>2025-02-26T10:14:56Z</time>
      </trkpt>
      <trkpt lat="48.06651" lon="-3.5099">
        <ele>187.8</ele>
        <time>2025-02-26T10:14:57Z</time>
      </trkpt>
      <trkpt lat="48.06652" lon="-3.5099">
        <ele>187.8</ele>
        <time>2025-02-26T10:14:58Z</time>
      </trkpt>
      <trkpt lat="48.06653" lon="-3.50989">
        <ele>187.8</ele>
        <time>2025-02-26T10:14:59Z</time>
      </trkpt>
      <trkpt lat="48.06653" lon="-3.50988">
        <ele>187.8</ele>
        <time>2025-02-26T10:15:00Z</time>
      </trkpt>
      <trkpt lat="48.06653" lon="-3.50987">
        <ele>187.8</ele>
        <time>2025-02-26T10:15:01Z</time>
      </trkpt>
      <trkpt lat="48.06653" lon="-3.50986">
        <ele>187.8</ele>
        <time>2025-02-26T10:15:02Z</time>
      </trkpt>
      <trkpt lat="48.06653" lon="-3.50986">
        <ele>187.7</ele>
        <time>2025-02-26T10:15:03Z</time>
      </trkpt>
      <trkpt lat="48.06653" lon="-3.50986">
        <ele>187.7</ele>
        <time>2025-02-26T10:15:04Z</time>
      </trkpt>
      <trkpt lat="48.06654" lon="-3.50984">
        <ele>187.7</ele>
        <time>2025-02-26T10:15:05Z</time>
      </trkpt>
      <trkpt lat="48.06654" lon="-3.50982">
        <ele>187.7</ele>
        <time>2025-02-26T10:15:06Z</time>
      </trkpt>
      <trkpt lat="48.06653" lon="-3.50981">
        <ele>187.7</ele>
        <time>2025-02-26T10:15:07Z</time>
      </trkpt>
      <trkpt lat="48.06653" lon="-3.5098">
        <ele>187.6</ele>
        <time>2025-02-26T10:15:08Z</time>
      </trkpt>
      <trkpt lat="48.06652" lon="-3.5098">
        <ele>187.6</ele>
        <time>2025-02-26T10:15:09Z</time>
      </trkpt>
      <trkpt lat="48.06652" lon="-3.5098">
        <ele>187.6</ele>
        <time>2025-02-26T10:15:10Z</time>
      </trkpt>
      <trkpt lat="48.06652" lon="-3.5098">
        <ele>187.6</ele>
        <time>2025-02-26T10:15:11Z</time>
      </trkpt>
      <trkpt lat="48.06652" lon="-3.50979">
        <ele>187.6</ele>
        <time>2025-02-26T10:15:12Z</time>
      </trkpt>
      <trkpt lat="48.06653" lon="-3.50979">
        <ele>187.6</ele>
        <time>2025-02-26T10:15:13Z</time>
      </trkpt>
      <trkpt lat="48.06654" lon="-3.50978">
        <ele>187.6</ele>
        <time>2025-02-26T10:15:14Z</time>
      </trkpt>
      <trkpt lat="48.06654" lon="-3.50976">
        <ele>187.6</ele>
        <time>2025-02-26T10:15:15Z</time>
      </trkpt>
      <trkpt lat="48.06655" lon="-3.50975">
        <ele>187.6</ele>
        <time>2025-02-26T10:15:16Z</time>
      </trkpt>
      <trkpt lat="48.06655" lon="-3.50973">
        <ele>187.6</ele>
        <time>2025-02-26T10:15:17Z</time>
      </trkpt>
      <trkpt lat="48.06656" lon="-3.50973">
        <ele>187.6</ele>
        <time>2025-02-26T10:15:18Z</time>
      </trkpt>
      <trkpt lat="48.06656" lon="-3.50972">
        <ele>187.6</ele>
        <time>2025-02-26T10:15:19Z</time>
      </trkpt>
      <trkpt lat="48.06656" lon="-3.50973">
        <ele>187.6</ele>
        <time>2025-02-26T10:15:20Z</time>
      </trkpt>
      <trkpt lat="48.06656" lon="-3.50973">
        <ele>187.6</ele>
        <time>2025-02-26T10:15:21Z</time>
      </trkpt>
      <trkpt lat="48.06656" lon="-3.50972">
        <ele>187.6</ele>
        <time>2025-02-26T10:15:22Z</time>
      </trkpt>
      <trkpt lat="48.06656" lon="-3.50972">
        <ele>187.6</ele>
        <time>2025-02-26T10:15:23Z</time>
      </trkpt>
      <trkpt lat="48.06656" lon="-3.50972">
        <ele>187.6</ele>
        <time>2025-02-26T10:15:24Z</time>
      </trkpt>
      <trkpt lat="48.06656" lon="-3.50972">
        <ele>187.6</ele>
        <time>2025-02-26T10:15:25Z</time>
      </trkpt>
      <trkpt lat="48.06656" lon="-3.50972">
        <ele>187.6</ele>
        <time>2025-02-26T10:15:26Z</time>
      </trkpt>
      <trkpt lat="48.06656" lon="-3.50972">
        <ele>187.6</ele>
        <time>2025-02-26T10:15:27Z</time>
      </trkpt>
      <trkpt lat="48.06656" lon="-3.50972">
        <ele>187.6</ele>
        <time>2025-02-26T10:15:28Z</time>
      </trkpt>
      <trkpt lat="48.06656" lon="-3.50972">
        <ele>187.6</ele>
        <time>2025-02-26T10:15:29Z</time>
      </trkpt>
      <trkpt lat="48.06656" lon="-3.50972">
        <ele>187.6</ele>
        <time>2025-02-26T10:15:30Z</time>
      </trkpt>
      <trkpt lat="48.06656" lon="-3.50972">
        <ele>187.6</ele>
        <time>2025-02-26T10:15:31Z</time>
      </trkpt>
      <trkpt lat="48.06656" lon="-3.50972">
        <ele>187.6</ele>
        <time>2025-02-26T10:15:32Z</time>
      </trkpt>
      <trkpt lat="48.06656" lon="-3.50972">
        <ele>187.6</ele>
        <time>2025-02-26T10:15:33Z</time>
      </trkpt>
      <trkpt lat="48.06656" lon="-3.50972">
        <ele>187.6</ele>
        <time>2025-02-26T10:15:34Z</time>
      </trkpt>
      <trkpt lat="48.06656" lon="-3.50972">
        <ele>187.6</ele>
        <time>2025-02-26T10:15:35Z</time>
      </trkpt>
      <trkpt lat="48.06656" lon="-3.50972">
        <ele>187.6</ele>
        <time>2025-02-26T10:15:36Z</time>
      </trkpt>
      <trkpt lat="48.06656" lon="-3.50972">
        <ele>187.6</ele>
        <time>2025-02-26T10:15:37Z</time>
      </trkpt>
      <trkpt lat="48.06656" lon="-3.50972">
        <ele>187.6</ele>
        <time>2025-02-26T10:15:38Z</time>
      </trkpt>
      <trkpt lat="48.06656" lon="-3.50972">
        <ele>187.6</ele>
        <time>2025-02-26T10:15:39Z</time>
      </trkpt>
      <trkpt lat="48.06656" lon="-3.50972">
        <ele>187.6</ele>
        <time>2025-02-26T10:15:40Z</time>
      </trkpt>
      <trkpt lat="48.06656" lon="-3.50972">
        <ele>187.6</ele>
        <time>2025-02-26T10:15:41Z</time>
      </trkpt>
      <trkpt lat="48.06657" lon="-3.50971">
        <ele>187.6</ele>
        <time>2025-02-26T10:15:42Z</time>
      </trkpt>
      <trkpt lat="48.06658" lon="-3.5097">
        <ele>187.6</ele>
        <time>2025-02-26T10:15:43Z</time>
      </trkpt>
      <trkpt lat="48.06659" lon="-3.50969">
        <ele>187.6</ele>
        <time>2025-02-26T10:15:44Z</time>
      </trkpt>
      <trkpt lat="48.0666" lon="-3.50968">
        <ele>187.6</ele>
        <time>2025-02-26T10:15:45Z</time>
      </trkpt>
      <trkpt lat="48.06659" lon="-3.50967">
        <ele>187.6</ele>
        <time>2025-02-26T10:15:46Z</time>
      </trkpt>
      <trkpt lat="48.0666" lon="-3.50966">
        <ele>187.6</ele>
        <time>2025-02-26T10:15:47Z</time>
      </trkpt>
      <trkpt lat="48.0666" lon="-3.50965">
        <ele>187.6</ele>
        <time>2025-02-26T10:15:48Z</time>
      </trkpt>
      <trkpt lat="48.06661" lon="-3.50964">
        <ele>187.6</ele>
        <time>2025-02-26T10:15:49Z</time>
      </trkpt>
      <trkpt lat="48.06662" lon="-3.50963">
        <ele>187.5</ele>
        <time>2025-02-26T10:15:50Z</time>
      </trkpt>
      <trkpt lat="48.06662" lon="-3.50962">
        <ele>187.5</ele>
        <time>2025-02-26T10:15:51Z</time>
      </trkpt>
      <trkpt lat="48.06663" lon="-3.50961">
        <ele>187.5</ele>
        <time>2025-02-26T10:15:52Z</time>
      </trkpt>
      <trkpt lat="48.06663" lon="-3.50961">
        <ele>187.5</ele>
        <time>2025-02-26T10:15:53Z</time>
      </trkpt>
      <trkpt lat="48.06664" lon="-3.5096">
        <ele>187.5</ele>
        <time>2025-02-26T10:15:54Z</time>
      </trkpt>
      <trkpt lat="48.06665" lon="-3.5096">
        <ele>187.5</ele>
        <time>2025-02-26T10:15:55Z</time>
      </trkpt>
      <trkpt lat="48.06666" lon="-3.50959">
        <ele>187.5</ele>
        <time>2025-02-26T10:15:56Z</time>
      </trkpt>
      <trkpt lat="48.06666" lon="-3.50957">
        <ele>187.5</ele>
        <time>2025-02-26T10:15:57Z</time>
      </trkpt>
      <trkpt lat="48.06667" lon="-3.50956">
        <ele>187.4</ele>
        <time>2025-02-26T10:15:58Z</time>
      </trkpt>
      <trkpt lat="48.06667" lon="-3.50955">
        <ele>187.4</ele>
        <time>2025-02-26T10:15:59Z</time>
      </trkpt>
      <trkpt lat="48.06668" lon="-3.50955">
        <ele>187.4</ele>
        <time>2025-02-26T10:16:00Z</time>
      </trkpt>
      <trkpt lat="48.06669" lon="-3.50953">
        <ele>187.4</ele>
        <time>2025-02-26T10:16:01Z</time>
      </trkpt>
      <trkpt lat="48.06669" lon="-3.50952">
        <ele>187.3</ele>
        <time>2025-02-26T10:16:02Z</time>
      </trkpt>
      <trkpt lat="48.0667" lon="-3.50951">
        <ele>187.3</ele>
        <time>2025-02-26T10:16:03Z</time>
      </trkpt>
      <trkpt lat="48.0667" lon="-3.50949">
        <ele>187.3</ele>
        <time>2025-02-26T10:16:04Z</time>
      </trkpt>
      <trkpt lat="48.06671" lon="-3.50948">
        <ele>187.3</ele>
        <time>2025-02-26T10:16:05Z</time>
      </trkpt>
      <trkpt lat="48.06672" lon="-3.50948">
        <ele>187.3</ele>
        <time>2025-02-26T10:16:06Z</time>
      </trkpt>
      <trkpt lat="48.06673" lon="-3.50948">
        <ele>187.3</ele>
        <time>2025-02-26T10:16:07Z</time>
      </trkpt>
      <trkpt lat="48.06674" lon="-3.50947">
        <ele>187.3</ele>
        <time>2025-02-26T10:16:08Z</time>
      </trkpt>
      <trkpt lat="48.06675" lon="-3.50946">
        <ele>187.3</ele>
        <time>2025-02-26T10:16:09Z</time>
      </trkpt>
      <trkpt lat="48.06676" lon="-3.50945">
        <ele>187.3</ele>
        <time>2025-02-26T10:16:10Z</time>
      </trkpt>
      <trkpt lat="48.06676" lon="-3.50943">
        <ele>187.3</ele>
        <time>2025-02-26T10:16:11Z</time>
      </trkpt>
      <trkpt lat="48.06677" lon="-3.50942">
        <ele>187.3</ele>
        <time>2025-02-26T10:16:12Z</time>
      </trkpt>
      <trkpt lat="48.06677" lon="-3.50941">
        <ele>187.3</ele>
        <time>2025-02-26T10:16:13Z</time>
      </trkpt>
      <trkpt lat="48.06678" lon="-3.50941">
        <ele>187.3</ele>
        <time>2025-02-26T10:16:14Z</time>
      </trkpt>
      <trkpt lat="48.06678" lon="-3.50939">
        <ele>187.2</ele>
        <time>2025-02-26T10:16:15Z</time>
      </trkpt>
      <trkpt lat="48.06679" lon="-3.50938">
        <ele>187.2</ele>
        <time>2025-02-26T10:16:16Z</time>
      </trkpt>
      <trkpt lat="48.0668" lon="-3.50937">
        <ele>187.2</ele>
        <time>2025-02-26T10:16:17Z</time>
      </trkpt>
      <trkpt lat="48.0668" lon="-3.50936">
        <ele>187.2</ele>
        <time>2025-02-26T10:16:18Z</time>
      </trkpt>
      <trkpt lat="48.06681" lon="-3.50935">
        <ele>187.2</ele>
        <time>2025-02-26T10:16:19Z</time>
      </trkpt>
      <trkpt lat="48.06682" lon="-3.50934">
        <ele>187.1</ele>
        <time>2025-02-26T10:16:20Z</time>
      </trkpt>
      <trkpt lat="48.06682" lon="-3.50933">
        <ele>187.1</ele>
        <time>2025-02-26T10:16:21Z</time>
      </trkpt>
      <trkpt lat="48.06683" lon="-3.50931">
        <ele>187.1</ele>
        <time>2025-02-26T10:16:22Z</time>
      </trkpt>
      <trkpt lat="48.06684" lon="-3.50931">
        <ele>187.1</ele>
        <time>2025-02-26T10:16:23Z</time>
      </trkpt>
      <trkpt lat="48.06684" lon="-3.5093">
        <ele>187.1</ele>
        <time>2025-02-26T10:16:24Z</time>
      </trkpt>
      <trkpt lat="48.06685" lon="-3.50928">
        <ele>187.1</ele>
        <time>2025-02-26T10:16:25Z</time>
      </trkpt>
      <trkpt lat="48.06686" lon="-3.50928">
        <ele>187.1</ele>
        <time>2025-02-26T10:16:26Z</time>
      </trkpt>
      <trkpt lat="48.06687" lon="-3.50926">
        <ele>187.1</ele>
        <time>2025-02-26T10:16:27Z</time>
      </trkpt>
      <trkpt lat="48.06687" lon="-3.50925">
        <ele>187.1</ele>
        <time>2025-02-26T10:16:28Z</time>
      </trkpt>
      <trkpt lat="48.06688" lon="-3.50924">
        <ele>187</ele>
        <time>2025-02-26T10:16:29Z</time>
      </trkpt>
      <trkpt lat="48.06689" lon="-3.50922">
        <ele>187</ele>
        <time>2025-02-26T10:16:30Z</time>
      </trkpt>
      <trkpt lat="48.06689" lon="-3.50921">
        <ele>187</ele>
        <time>2025-02-26T10:16:31Z</time>
      </trkpt>
      <trkpt lat="48.0669" lon="-3.5092">
        <ele>186.9</ele>
        <time>2025-02-26T10:16:32Z</time>
      </trkpt>
      <trkpt lat="48.06691" lon="-3.50918">
        <ele>186.9</ele>
        <time>2025-02-26T10:16:33Z</time>
      </trkpt>
      <trkpt lat="48.06692" lon="-3.50917">
        <ele>186.9</ele>
        <time>2025-02-26T10:16:34Z</time>
      </trkpt>
      <trkpt lat="48.06692" lon="-3.50916">
        <ele>186.9</ele>
        <time>2025-02-26T10:16:35Z</time>
      </trkpt>
      <trkpt lat="48.06693" lon="-3.50915">
        <ele>186.9</ele>
        <time>2025-02-26T10:16:36Z</time>
      </trkpt>
      <trkpt lat="48.06693" lon="-3.50913">
        <ele>187</ele>
        <time>2025-02-26T10:16:37Z</time>
      </trkpt>
      <trkpt lat="48.06694" lon="-3.50913">
        <ele>187</ele>
        <time>2025-02-26T10:16:38Z</time>
      </trkpt>
      <trkpt lat="48.06695" lon="-3.50912">
        <ele>187</ele>
        <time>2025-02-26T10:16:39Z</time>
      </trkpt>
      <trkpt lat="48.06696" lon="-3.50911">
        <ele>187.1</ele>
        <time>2025-02-26T10:16:40Z</time>
      </trkpt>
      <trkpt lat="48.06697" lon="-3.50909">
        <ele>187.1</ele>
        <time>2025-02-26T10:16:41Z</time>
      </trkpt>
      <trkpt lat="48.06698" lon="-3.50909">
        <ele>187.1</ele>
        <time>2025-02-26T10:16:42Z</time>
      </trkpt>
      <trkpt lat="48.06699" lon="-3.50907">
        <ele>187.1</ele>
        <time>2025-02-26T10:16:43Z</time>
      </trkpt>
      <trkpt lat="48.067" lon="-3.50907">
        <ele>187.1</ele>
        <time>2025-02-26T10:16:44Z</time>
      </trkpt>
      <trkpt lat="48.067" lon="-3.50906">
        <ele>187.1</ele>
        <time>2025-02-26T10:16:45Z</time>
      </trkpt>
      <trkpt lat="48.06701" lon="-3.50905">
        <ele>187.1</ele>
        <time>2025-02-26T10:16:46Z</time>
      </trkpt>
      <trkpt lat="48.06702" lon="-3.50904">
        <ele>187.2</ele>
        <time>2025-02-26T10:16:47Z</time>
      </trkpt>
      <trkpt lat="48.06703" lon="-3.50903">
        <ele>187.2</ele>
        <time>2025-02-26T10:16:48Z</time>
      </trkpt>
      <trkpt lat="48.06704" lon="-3.50902">
        <ele>187.2</ele>
        <time>2025-02-26T10:16:49Z</time>
      </trkpt>
      <trkpt lat="48.06705" lon="-3.50902">
        <ele>187.2</ele>
        <time>2025-02-26T10:16:50Z</time>
      </trkpt>
      <trkpt lat="48.06705" lon="-3.509">
        <ele>187.2</ele>
        <time>2025-02-26T10:16:51Z</time>
      </trkpt>
      <trkpt lat="48.06706" lon="-3.50899">
        <ele>187.2</ele>
        <time>2025-02-26T10:16:52Z</time>
      </trkpt>
      <trkpt lat="48.06707" lon="-3.50899">
        <ele>187.2</ele>
        <time>2025-02-26T10:16:53Z</time>
      </trkpt>
      <trkpt lat="48.06708" lon="-3.50898">
        <ele>187.2</ele>
        <time>2025-02-26T10:16:54Z</time>
      </trkpt>
      <trkpt lat="48.06709" lon="-3.50897">
        <ele>187.2</ele>
        <time>2025-02-26T10:16:55Z</time>
      </trkpt>
      <trkpt lat="48.0671" lon="-3.50896">
        <ele>187.1</ele>
        <time>2025-02-26T10:16:56Z</time>
      </trkpt>
      <trkpt lat="48.06711" lon="-3.50895">
        <ele>187.1</ele>
        <time>2025-02-26T10:16:57Z</time>
      </trkpt>
      <trkpt lat="48.06712" lon="-3.50894">
        <ele>187.1</ele>
        <time>2025-02-26T10:16:58Z</time>
      </trkpt>
      <trkpt lat="48.06712" lon="-3.50894">
        <ele>187.1</ele>
        <time>2025-02-26T10:16:59Z</time>
      </trkpt>
      <trkpt lat="48.06713" lon="-3.50892">
        <ele>187.1</ele>
        <time>2025-02-26T10:17:00Z</time>
      </trkpt>
      <trkpt lat="48.06714" lon="-3.50891">
        <ele>187.1</ele>
        <time>2025-02-26T10:17:01Z</time>
      </trkpt>
      <trkpt lat="48.06715" lon="-3.5089">
        <ele>187</ele>
        <time>2025-02-26T10:17:02Z</time>
      </trkpt>
      <trkpt lat="48.06716" lon="-3.50889">
        <ele>187</ele>
        <time>2025-02-26T10:17:03Z</time>
      </trkpt>
      <trkpt lat="48.06717" lon="-3.50888">
        <ele>187</ele>
        <time>2025-02-26T10:17:04Z</time>
      </trkpt>
      <trkpt lat="48.06718" lon="-3.50888">
        <ele>187</ele>
        <time>2025-02-26T10:17:05Z</time>
      </trkpt>
      <trkpt lat="48.06719" lon="-3.50887">
        <ele>186.9</ele>
        <time>2025-02-26T10:17:06Z</time>
      </trkpt>
      <trkpt lat="48.0672" lon="-3.50886">
        <ele>186.9</ele>
        <time>2025-02-26T10:17:07Z</time>
      </trkpt>
      <trkpt lat="48.06721" lon="-3.50885">
        <ele>186.9</ele>
        <time>2025-02-26T10:17:08Z</time>
      </trkpt>
      <trkpt lat="48.06722" lon="-3.50884">
        <ele>186.8</ele>
        <time>2025-02-26T10:17:09Z</time>
      </trkpt>
      <trkpt lat="48.06724" lon="-3.50883">
        <ele>186.8</ele>
        <time>2025-02-26T10:17:10Z</time>
      </trkpt>
      <trkpt lat="48.06725" lon="-3.50883">
        <ele>186.8</ele>
        <time>2025-02-26T10:17:11Z</time>
      </trkpt>
      <trkpt lat="48.06726" lon="-3.50882">
        <ele>186.8</ele>
        <time>2025-02-26T10:17:12Z</time>
      </trkpt>
      <trkpt lat="48.06727" lon="-3.50881">
        <ele>186.7</ele>
        <time>2025-02-26T10:17:13Z</time>
      </trkpt>
      <trkpt lat="48.06728" lon="-3.50881">
        <ele>186.7</ele>
        <time>2025-02-26T10:17:14Z</time>
      </trkpt>
      <trkpt lat="48.06729" lon="-3.5088">
        <ele>186.7</ele>
        <time>2025-02-26T10:17:15Z</time>
      </trkpt>
      <trkpt lat="48.06731" lon="-3.5088">
        <ele>186.7</ele>
        <time>2025-02-26T10:17:16Z</time>
      </trkpt>
      <trkpt lat="48.06732" lon="-3.50879">
        <ele>186.6</ele>
        <time>2025-02-26T10:17:17Z</time>
      </trkpt>
      <trkpt lat="48.06733" lon="-3.50877">
        <ele>186.6</ele>
        <time>2025-02-26T10:17:18Z</time>
      </trkpt>
      <trkpt lat="48.06734" lon="-3.50876">
        <ele>186.5</ele>
        <time>2025-02-26T10:17:19Z</time>
      </trkpt>
      <trkpt lat="48.06735" lon="-3.50875">
        <ele>186.5</ele>
        <time>2025-02-26T10:17:20Z</time>
      </trkpt>
      <trkpt lat="48.06735" lon="-3.50873">
        <ele>186.4</ele>
        <time>2025-02-26T10:17:21Z</time>
      </trkpt>
      <trkpt lat="48.06736" lon="-3.50872">
        <ele>186.4</ele>
        <time>2025-02-26T10:17:22Z</time>
      </trkpt>
      <trkpt lat="48.06737" lon="-3.50872">
        <ele>186.4</ele>
        <time>2025-02-26T10:17:23Z</time>
      </trkpt>
      <trkpt lat="48.06738" lon="-3.50871">
        <ele>186.4</ele>
        <time>2025-02-26T10:17:24Z</time>
      </trkpt>
      <trkpt lat="48.06739" lon="-3.5087">
        <ele>186.3</ele>
        <time>2025-02-26T10:17:25Z</time>
      </trkpt>
      <trkpt lat="48.06741" lon="-3.5087">
        <ele>186.3</ele>
        <time>2025-02-26T10:17:26Z</time>
      </trkpt>
      <trkpt lat="48.06742" lon="-3.50868">
        <ele>186.3</ele>
        <time>2025-02-26T10:17:27Z</time>
      </trkpt>
      <trkpt lat="48.06743" lon="-3.50867">
        <ele>186.2</ele>
        <time>2025-02-26T10:17:28Z</time>
      </trkpt>
      <trkpt lat="48.06744" lon="-3.50866">
        <ele>186.2</ele>
        <time>2025-02-26T10:17:29Z</time>
      </trkpt>
      <trkpt lat="48.06745" lon="-3.50864">
        <ele>186.1</ele>
        <time>2025-02-26T10:17:30Z</time>
      </trkpt>
      <trkpt lat="48.06745" lon="-3.50863">
        <ele>186.1</ele>
        <time>2025-02-26T10:17:31Z</time>
      </trkpt>
      <trkpt lat="48.06746" lon="-3.50861">
        <ele>186</ele>
        <time>2025-02-26T10:17:32Z</time>
      </trkpt>
      <trkpt lat="48.06747" lon="-3.5086">
        <ele>186</ele>
        <time>2025-02-26T10:17:33Z</time>
      </trkpt>
      <trkpt lat="48.06748" lon="-3.50859">
        <ele>186</ele>
        <time>2025-02-26T10:17:34Z</time>
      </trkpt>
      <trkpt lat="48.06749" lon="-3.50859">
        <ele>186</ele>
        <time>2025-02-26T10:17:35Z</time>
      </trkpt>
      <trkpt lat="48.0675" lon="-3.50858">
        <ele>186</ele>
        <time>2025-02-26T10:17:36Z</time>
      </trkpt>
      <trkpt lat="48.06751" lon="-3.50857">
        <ele>186</ele>
        <time>2025-02-26T10:17:37Z</time>
      </trkpt>
      <trkpt lat="48.06752" lon="-3.50856">
        <ele>186</ele>
        <time>2025-02-26T10:17:38Z</time>
      </trkpt>
      <trkpt lat="48.06754" lon="-3.50855">
        <ele>186</ele>
        <time>2025-02-26T10:17:39Z</time>
      </trkpt>
      <trkpt lat="48.06755" lon="-3.50855">
        <ele>186</ele>
        <time>2025-02-26T10:17:40Z</time>
      </trkpt>
      <trkpt lat="48.06755" lon="-3.50853">
        <ele>185.9</ele>
        <time>2025-02-26T10:17:41Z</time>
      </trkpt>
      <trkpt lat="48.06756" lon="-3.50852">
        <ele>185.9</ele>
        <time>2025-02-26T10:17:42Z</time>
      </trkpt>
      <trkpt lat="48.06757" lon="-3.50851">
        <ele>185.9</ele>
        <time>2025-02-26T10:17:43Z</time>
      </trkpt>
      <trkpt lat="48.06758" lon="-3.5085">
        <ele>185.9</ele>
        <time>2025-02-26T10:17:44Z</time>
      </trkpt>
      <trkpt lat="48.06759" lon="-3.50849">
        <ele>185.9</ele>
        <time>2025-02-26T10:17:45Z</time>
      </trkpt>
      <trkpt lat="48.06759" lon="-3.50848">
        <ele>185.8</ele>
        <time>2025-02-26T10:17:46Z</time>
      </trkpt>
      <trkpt lat="48.0676" lon="-3.50847">
        <ele>185.8</ele>
        <time>2025-02-26T10:17:47Z</time>
      </trkpt>
      <trkpt lat="48.06761" lon="-3.50846">
        <ele>185.8</ele>
        <time>2025-02-26T10:17:48Z</time>
      </trkpt>
      <trkpt lat="48.06761" lon="-3.50844">
        <ele>185.7</ele>
        <time>2025-02-26T10:17:49Z</time>
      </trkpt>
      <trkpt lat="48.06763" lon="-3.50843">
        <ele>185.7</ele>
        <time>2025-02-26T10:17:50Z</time>
      </trkpt>
      <trkpt lat="48.06764" lon="-3.50842">
        <ele>185.7</ele>
        <time>2025-02-26T10:17:51Z</time>
      </trkpt>
      <trkpt lat="48.06765" lon="-3.50841">
        <ele>185.6</ele>
        <time>2025-02-26T10:17:52Z</time>
      </trkpt>
      <trkpt lat="48.06766" lon="-3.50841">
        <ele>185.6</ele>
        <time>2025-02-26T10:17:53Z</time>
      </trkpt>
      <trkpt lat="48.06766" lon="-3.5084">
        <ele>185.6</ele>
        <time>2025-02-26T10:17:54Z</time>
      </trkpt>
      <trkpt lat="48.06767" lon="-3.50839">
        <ele>185.5</ele>
        <time>2025-02-26T10:17:55Z</time>
      </trkpt>
      <trkpt lat="48.06768" lon="-3.50838">
        <ele>185.5</ele>
        <time>2025-02-26T10:17:56Z</time>
      </trkpt>
      <trkpt lat="48.06769" lon="-3.50837">
        <ele>185.4</ele>
        <time>2025-02-26T10:17:57Z</time>
      </trkpt>
      <trkpt lat="48.06771" lon="-3.50837">
        <ele>185.4</ele>
        <time>2025-02-26T10:17:58Z</time>
      </trkpt>
      <trkpt lat="48.06772" lon="-3.50836">
        <ele>185.3</ele>
        <time>2025-02-26T10:17:59Z</time>
      </trkpt>
      <trkpt lat="48.06773" lon="-3.50836">
        <ele>185.2</ele>
        <time>2025-02-26T10:18:00Z</time>
      </trkpt>
      <trkpt lat="48.06774" lon="-3.50835">
        <ele>185.2</ele>
        <time>2025-02-26T10:18:01Z</time>
      </trkpt>
      <trkpt lat="48.06775" lon="-3.50834">
        <ele>185.1</ele>
        <time>2025-02-26T10:18:02Z</time>
      </trkpt>
      <trkpt lat="48.06775" lon="-3.50832">
        <ele>185.1</ele>
        <time>2025-02-26T10:18:03Z</time>
      </trkpt>
      <trkpt lat="48.06776" lon="-3.50831">
        <ele>185.1</ele>
        <time>2025-02-26T10:18:04Z</time>
      </trkpt>
      <trkpt lat="48.06777" lon="-3.5083">
        <ele>185</ele>
        <time>2025-02-26T10:18:05Z</time>
      </trkpt>
      <trkpt lat="48.06779" lon="-3.50831">
        <ele>185</ele>
        <time>2025-02-26T10:18:06Z</time>
      </trkpt>
      <trkpt lat="48.0678" lon="-3.5083">
        <ele>185</ele>
        <time>2025-02-26T10:18:07Z</time>
      </trkpt>
      <trkpt lat="48.06781" lon="-3.50829">
        <ele>185</ele>
        <time>2025-02-26T10:18:08Z</time>
      </trkpt>
      <trkpt lat="48.06781" lon="-3.50828">
        <ele>185</ele>
        <time>2025-02-26T10:18:09Z</time>
      </trkpt>
      <trkpt lat="48.06782" lon="-3.50827">
        <ele>185</ele>
        <time>2025-02-26T10:18:10Z</time>
      </trkpt>
      <trkpt lat="48.06783" lon="-3.50826">
        <ele>185</ele>
        <time>2025-02-26T10:18:11Z</time>
      </trkpt>
      <trkpt lat="48.06784" lon="-3.50826">
        <ele>185</ele>
        <time>2025-02-26T10:18:12Z</time>
      </trkpt>
      <trkpt lat="48.06785" lon="-3.50825">
        <ele>185</ele>
        <time>2025-02-26T10:18:13Z</time>
      </trkpt>
      <trkpt lat="48.06785" lon="-3.50824">
        <ele>185</ele>
        <time>2025-02-26T10:18:14Z</time>
      </trkpt>
      <trkpt lat="48.06786" lon="-3.50824">
        <ele>185</ele>
        <time>2025-02-26T10:18:15Z</time>
      </trkpt>
      <trkpt lat="48.06787" lon="-3.50824">
        <ele>185</ele>
        <time>2025-02-26T10:18:16Z</time>
      </trkpt>
      <trkpt lat="48.06788" lon="-3.50823">
        <ele>185</ele>
        <time>2025-02-26T10:18:17Z</time>
      </trkpt>
      <trkpt lat="48.06789" lon="-3.50823">
        <ele>185</ele>
        <time>2025-02-26T10:18:18Z</time>
      </trkpt>
      <trkpt lat="48.0679" lon="-3.50823">
        <ele>185</ele>
        <time>2025-02-26T10:18:19Z</time>
      </trkpt>
      <trkpt lat="48.06791" lon="-3.50822">
        <ele>185</ele>
        <time>2025-02-26T10:18:20Z</time>
      </trkpt>
      <trkpt lat="48.06792" lon="-3.50821">
        <ele>185</ele>
        <time>2025-02-26T10:18:21Z</time>
      </trkpt>
      <trkpt lat="48.06793" lon="-3.50821">
        <ele>185</ele>
        <time>2025-02-26T10:18:22Z</time>
      </trkpt>
      <trkpt lat="48.06794" lon="-3.50821">
        <ele>185</ele>
        <time>2025-02-26T10:18:23Z</time>
      </trkpt>
      <trkpt lat="48.06794" lon="-3.5082">
        <ele>185</ele>
        <time>2025-02-26T10:18:24Z</time>
      </trkpt>
      <trkpt lat="48.06795" lon="-3.5082">
        <ele>185</ele>
        <time>2025-02-26T10:18:25Z</time>
      </trkpt>
      <trkpt lat="48.06795" lon="-3.50819">
        <ele>185</ele>
        <time>2025-02-26T10:18:26Z</time>
      </trkpt>
      <trkpt lat="48.06795" lon="-3.50819">
        <ele>185</ele>
        <time>2025-02-26T10:18:27Z</time>
      </trkpt>
      <trkpt lat="48.06795" lon="-3.50819">
        <ele>185</ele>
        <time>2025-02-26T10:18:28Z</time>
      </trkpt>
      <trkpt lat="48.06795" lon="-3.50819">
        <ele>185</ele>
        <time>2025-02-26T10:18:29Z</time>
      </trkpt>
      <trkpt lat="48.06795" lon="-3.50819">
        <ele>185</ele>
        <time>2025-02-26T10:18:30Z</time>
      </trkpt>
      <trkpt lat="48.06796" lon="-3.5082">
        <ele>185</ele>
        <time>2025-02-26T10:18:31Z</time>
      </trkpt>
      <trkpt lat="48.06797" lon="-3.5082">
        <ele>185</ele>
        <time>2025-02-26T10:18:32Z</time>
      </trkpt>
      <trkpt lat="48.06797" lon="-3.5082">
        <ele>185</ele>
        <time>2025-02-26T10:18:33Z</time>
      </trkpt>
      <trkpt lat="48.06797" lon="-3.5082">
        <ele>185</ele>
        <time>2025-02-26T10:18:34Z</time>
      </trkpt>
      <trkpt lat="48.06798" lon="-3.5082">
        <ele>185</ele>
        <time>2025-02-26T10:18:35Z</time>
      </trkpt>
      <trkpt lat="48.06799" lon="-3.5082">
        <ele>185</ele>
        <time>2025-02-26T10:18:36Z</time>
      </trkpt>
      <trkpt lat="48.06799" lon="-3.50819">
        <ele>185</ele>
        <time>2025-02-26T10:18:37Z</time>
      </trkpt>
      <trkpt lat="48.06799" lon="-3.50818">
        <ele>185</ele>
        <time>2025-02-26T10:18:38Z</time>
      </trkpt>
      <trkpt lat="48.06801" lon="-3.50818">
        <ele>185</ele>
        <time>2025-02-26T10:18:39Z</time>
      </trkpt>
      <trkpt lat="48.06801" lon="-3.50818">
        <ele>185</ele>
        <time>2025-02-26T10:18:40Z</time>
      </trkpt>
      <trkpt lat="48.06802" lon="-3.50818">
        <ele>185</ele>
        <time>2025-02-26T10:18:41Z</time>
      </trkpt>
      <trkpt lat="48.06801" lon="-3.50817">
        <ele>185</ele>
        <time>2025-02-26T10:18:42Z</time>
      </trkpt>
      <trkpt lat="48.06802" lon="-3.50817">
        <ele>185</ele>
        <time>2025-02-26T10:18:43Z</time>
      </trkpt>
      <trkpt lat="48.06802" lon="-3.50817">
        <ele>185</ele>
        <time>2025-02-26T10:18:44Z</time>
      </trkpt>
      <trkpt lat="48.06803" lon="-3.50817">
        <ele>185</ele>
        <time>2025-02-26T10:18:45Z</time>
      </trkpt>
      <trkpt lat="48.06802" lon="-3.50817">
        <ele>185</ele>
        <time>2025-02-26T10:18:46Z</time>
      </trkpt>
      <trkpt lat="48.06802" lon="-3.50817">
        <ele>185</ele>
        <time>2025-02-26T10:18:47Z</time>
      </trkpt>
      <trkpt lat="48.06802" lon="-3.50817">
        <ele>185</ele>
        <time>2025-02-26T10:18:48Z</time>
      </trkpt>
      <trkpt lat="48.06802" lon="-3.50817">
        <ele>185</ele>
        <time>2025-02-26T10:18:49Z</time>
      </trkpt>
      <trkpt lat="48.06802" lon="-3.50817">
        <ele>185</ele>
        <time>2025-02-26T10:18:50Z</time>
      </trkpt>
      <trkpt lat="48.06802" lon="-3.50817">
        <ele>185</ele>
        <time>2025-02-26T10:18:51Z</time>
      </trkpt>
      <trkpt lat="48.06801" lon="-3.50817">
        <ele>185</ele>
        <time>2025-02-26T10:18:52Z</time>
      </trkpt>
      <trkpt lat="48.06801" lon="-3.50817">
        <ele>185</ele>
        <time>2025-02-26T10:18:53Z</time>
      </trkpt>
      <trkpt lat="48.06801" lon="-3.50817">
        <ele>185</ele>
        <time>2025-02-26T10:18:54Z</time>
      </trkpt>
      <trkpt lat="48.06801" lon="-3.50817">
        <ele>185</ele>
        <time>2025-02-26T10:18:55Z</time>
      </trkpt>
      <trkpt lat="48.06802" lon="-3.50817">
        <ele>185</ele>
        <time>2025-02-26T10:18:56Z</time>
      </trkpt>
      <trkpt lat="48.06802" lon="-3.50817">
        <ele>185</ele>
        <time>2025-02-26T10:18:57Z</time>
      </trkpt>
      <trkpt lat="48.06802" lon="-3.50817">
        <ele>185</ele>
        <time>2025-02-26T10:18:58Z</time>
      </trkpt>
      <trkpt lat="48.06802" lon="-3.50817">
        <ele>185</ele>
        <time>2025-02-26T10:18:59Z</time>
      </trkpt>
      <trkpt lat="48.06802" lon="-3.50817">
        <ele>185</ele>
        <time>2025-02-26T10:19:00Z</time>
      </trkpt>
      <trkpt lat="48.06802" lon="-3.50817">
        <ele>185</ele>
        <time>2025-02-26T10:19:01Z</time>
      </trkpt>
      <trkpt lat="48.06802" lon="-3.50817">
        <ele>185</ele>
        <time>2025-02-26T10:19:02Z</time>
      </trkpt>
      <trkpt lat="48.06802" lon="-3.50817">
        <ele>185</ele>
        <time>2025-02-26T10:19:03Z</time>
      </trkpt>
      <trkpt lat="48.06802" lon="-3.50817">
        <ele>185</ele>
        <time>2025-02-26T10:19:04Z</time>
      </trkpt>
      <trkpt lat="48.06802" lon="-3.50817">
        <ele>185</ele>
        <time>2025-02-26T10:19:05Z</time>
      </trkpt>
      <trkpt lat="48.06802" lon="-3.50817">
        <ele>185</ele>
        <time>2025-02-26T10:19:06Z</time>
      </trkpt>
      <trkpt lat="48.06802" lon="-3.50817">
        <ele>185</ele>
        <time>2025-02-26T10:19:07Z</time>
      </trkpt>
      <trkpt lat="48.06802" lon="-3.50817">
        <ele>185</ele>
        <time>2025-02-26T10:19:08Z</time>
      </trkpt>
      <trkpt lat="48.06802" lon="-3.50817">
        <ele>185</ele>
        <time>2025-02-26T10:19:09Z</time>
      </trkpt>
      <trkpt lat="48.06802" lon="-3.50818">
        <ele>185</ele>
        <time>2025-02-26T10:19:10Z</time>
      </trkpt>
      <trkpt lat="48.06803" lon="-3.50818">
        <ele>185</ele>
        <time>2025-02-26T10:19:11Z</time>
      </trkpt>
      <trkpt lat="48.06803" lon="-3.50818">
        <ele>185</ele>
        <time>2025-02-26T10:19:12Z</time>
      </trkpt>
      <trkpt lat="48.06803" lon="-3.50818">
        <ele>185</ele>
        <time>2025-02-26T10:19:13Z</time>
      </trkpt>
      <trkpt lat="48.06803" lon="-3.50818">
        <ele>185</ele>
        <time>2025-02-26T10:19:14Z</time>
      </trkpt>
      <trkpt lat="48.06803" lon="-3.50818">
        <ele>185</ele>
        <time>2025-02-26T10:19:15Z</time>
      </trkpt>
      <trkpt lat="48.06803" lon="-3.50818">
        <ele>185</ele>
        <time>2025-02-26T10:19:16Z</time>
      </trkpt>
      <trkpt lat="48.06803" lon="-3.50818">
        <ele>185</ele>
        <time>2025-02-26T10:19:17Z</time>
      </trkpt>
      <trkpt lat="48.06803" lon="-3.50818">
        <ele>185</ele>
        <time>2025-02-26T10:19:18Z</time>
      </trkpt>
      <trkpt lat="48.06803" lon="-3.50818">
        <ele>185</ele>
        <time>2025-02-26T10:19:19Z</time>
      </trkpt>
      <trkpt lat="48.06803" lon="-3.50818">
        <ele>185</ele>
        <time>2025-02-26T10:19:20Z</time>
      </trkpt>
      <trkpt lat="48.06803" lon="-3.50818">
        <ele>185</ele>
        <time>2025-02-26T10:19:21Z</time>
      </trkpt>
      <trkpt lat="48.06803" lon="-3.50818">
        <ele>185</ele>
        <time>2025-02-26T10:19:22Z</time>
      </trkpt>
      <trkpt lat="48.06803" lon="-3.50818">
        <ele>185</ele>
        <time>2025-02-26T10:19:23Z</time>
      </trkpt>
      <trkpt lat="48.06803" lon="-3.50818">
        <ele>185</ele>
        <time>2025-02-26T10:19:24Z</time>
      </trkpt>
      <trkpt lat="48.06803" lon="-3.50817">
        <ele>185</ele>
        <time>2025-02-26T10:19:25Z</time>
      </trkpt>
      <trkpt lat="48.06803" lon="-3.50816">
        <ele>185</ele>
        <time>2025-02-26T10:19:26Z</time>
      </trkpt>
      <trkpt lat="48.06803" lon="-3.50816">
        <ele>185</ele>
        <time>2025-02-26T10:19:27Z</time>
      </trkpt>
      <trkpt lat="48.06804" lon="-3.50815">
        <ele>185</ele>
        <time>2025-02-26T10:19:28Z</time>
      </trkpt>
      <trkpt lat="48.06805" lon="-3.50815">
        <ele>185</ele>
        <time>2025-02-26T10:19:29Z</time>
      </trkpt>
      <trkpt lat="48.06805" lon="-3.50815">
        <ele>185</ele>
        <time>2025-02-26T10:19:30Z</time>
      </trkpt>
      <trkpt lat="48.06806" lon="-3.50815">
        <ele>185</ele>
        <time>2025-02-26T10:19:31Z</time>
      </trkpt>
      <trkpt lat="48.06807" lon="-3.50815">
        <ele>184.9</ele>
        <time>2025-02-26T10:19:32Z</time>
      </trkpt>
      <trkpt lat="48.06808" lon="-3.50815">
        <ele>184.9</ele>
        <time>2025-02-26T10:19:33Z</time>
      </trkpt>
      <trkpt lat="48.06809" lon="-3.50814">
        <ele>184.9</ele>
        <time>2025-02-26T10:19:34Z</time>
      </trkpt>
      <trkpt lat="48.06809" lon="-3.50814">
        <ele>184.9</ele>
        <time>2025-02-26T10:19:35Z</time>
      </trkpt>
      <trkpt lat="48.0681" lon="-3.50814">
        <ele>184.8</ele>
        <time>2025-02-26T10:19:36Z</time>
      </trkpt>
      <trkpt lat="48.06811" lon="-3.50814">
        <ele>184.8</ele>
        <time>2025-02-26T10:19:37Z</time>
      </trkpt>
      <trkpt lat="48.06812" lon="-3.50813">
        <ele>184.8</ele>
        <time>2025-02-26T10:19:38Z</time>
      </trkpt>
      <trkpt lat="48.06812" lon="-3.50812">
        <ele>184.8</ele>
        <time>2025-02-26T10:19:39Z</time>
      </trkpt>
      <trkpt lat="48.06813" lon="-3.50811">
        <ele>184.7</ele>
        <time>2025-02-26T10:19:40Z</time>
      </trkpt>
      <trkpt lat="48.06814" lon="-3.50811">
        <ele>184.7</ele>
        <time>2025-02-26T10:19:41Z</time>
      </trkpt>
      <trkpt lat="48.06815" lon="-3.5081">
        <ele>184.6</ele>
        <time>2025-02-26T10:19:42Z</time>
      </trkpt>
      <trkpt lat="48.06816" lon="-3.5081">
        <ele>184.6</ele>
        <time>2025-02-26T10:19:43Z</time>
      </trkpt>
      <trkpt lat="48.06817" lon="-3.5081">
        <ele>184.6</ele>
        <time>2025-02-26T10:19:44Z</time>
      </trkpt>
      <trkpt lat="48.06818" lon="-3.5081">
        <ele>184.5</ele>
        <time>2025-02-26T10:19:45Z</time>
      </trkpt>
      <trkpt lat="48.0682" lon="-3.5081">
        <ele>184.5</ele>
        <time>2025-02-26T10:19:46Z</time>
      </trkpt>
      <trkpt lat="48.06821" lon="-3.50809">
        <ele>184.5</ele>
        <time>2025-02-26T10:19:47Z</time>
      </trkpt>
      <trkpt lat="48.06822" lon="-3.50808">
        <ele>184.4</ele>
        <time>2025-02-26T10:19:48Z</time>
      </trkpt>
      <trkpt lat="48.06822" lon="-3.50807">
        <ele>184.4</ele>
        <time>2025-02-26T10:19:49Z</time>
      </trkpt>
      <trkpt lat="48.06823" lon="-3.50807">
        <ele>184.4</ele>
        <time>2025-02-26T10:19:50Z</time>
      </trkpt>
      <trkpt lat="48.06824" lon="-3.50807">
        <ele>184.3</ele>
        <time>2025-02-26T10:19:51Z</time>
      </trkpt>
      <trkpt lat="48.06825" lon="-3.50806">
        <ele>184.3</ele>
        <time>2025-02-26T10:19:52Z</time>
      </trkpt>
      <trkpt lat="48.06826" lon="-3.50805">
        <ele>184.2</ele>
        <time>2025-02-26T10:19:53Z</time>
      </trkpt>
      <trkpt lat="48.06827" lon="-3.50804">
        <ele>184.2</ele>
        <time>2025-02-26T10:19:54Z</time>
      </trkpt>
      <trkpt lat="48.06828" lon="-3.50803">
        <ele>184.2</ele>
        <time>2025-02-26T10:19:55Z</time>
      </trkpt>
      <trkpt lat="48.06829" lon="-3.50802">
        <ele>184.1</ele>
        <time>2025-02-26T10:19:56Z</time>
      </trkpt>
      <trkpt lat="48.0683" lon="-3.50801">
        <ele>184.1</ele>
        <time>2025-02-26T10:19:57Z</time>
      </trkpt>
      <trkpt lat="48.06831" lon="-3.508">
        <ele>184.1</ele>
        <time>2025-02-26T10:19:58Z</time>
      </trkpt>
      <trkpt lat="48.06832" lon="-3.508">
        <ele>184</ele>
        <time>2025-02-26T10:19:59Z</time>
      </trkpt>
      <trkpt lat="48.06833" lon="-3.508">
        <ele>184</ele>
        <time>2025-02-26T10:20:00Z</time>
      </trkpt>
      <trkpt lat="48.06835" lon="-3.50799">
        <ele>184</ele>
        <time>2025-02-26T10:20:01Z</time>
      </trkpt>
      <trkpt lat="48.06836" lon="-3.50799">
        <ele>183.9</ele>
        <time>2025-02-26T10:20:02Z</time>
      </trkpt>
      <trkpt lat="48.06837" lon="-3.50798">
        <ele>183.9</ele>
        <time>2025-02-26T10:20:03Z</time>
      </trkpt>
      <trkpt lat="48.06838" lon="-3.50797">
        <ele>183.8</ele>
        <time>2025-02-26T10:20:04Z</time>
      </trkpt>
      <trkpt lat="48.06838" lon="-3.50796">
        <ele>183.8</ele>
        <time>2025-02-26T10:20:05Z</time>
      </trkpt>
      <trkpt lat="48.06839" lon="-3.50796">
        <ele>183.8</ele>
        <time>2025-02-26T10:20:06Z</time>
      </trkpt>
      <trkpt lat="48.0684" lon="-3.50795">
        <ele>183.8</ele>
        <time>2025-02-26T10:20:07Z</time>
      </trkpt>
      <trkpt lat="48.06841" lon="-3.50794">
        <ele>183.7</ele>
        <time>2025-02-26T10:20:08Z</time>
      </trkpt>
      <trkpt lat="48.06842" lon="-3.50793">
        <ele>183.7</ele>
        <time>2025-02-26T10:20:09Z</time>
      </trkpt>
      <trkpt lat="48.06843" lon="-3.50792">
        <ele>183.7</ele>
        <time>2025-02-26T10:20:10Z</time>
      </trkpt>
      <trkpt lat="48.06843" lon="-3.50792">
        <ele>183.6</ele>
        <time>2025-02-26T10:20:11Z</time>
      </trkpt>
      <trkpt lat="48.06845" lon="-3.50792">
        <ele>183.6</ele>
        <time>2025-02-26T10:20:12Z</time>
      </trkpt>
      <trkpt lat="48.06846" lon="-3.50791">
        <ele>183.6</ele>
        <time>2025-02-26T10:20:13Z</time>
      </trkpt>
      <trkpt lat="48.06847" lon="-3.50791">
        <ele>183.5</ele>
        <time>2025-02-26T10:20:14Z</time>
      </trkpt>
      <trkpt lat="48.06848" lon="-3.50791">
        <ele>183.5</ele>
        <time>2025-02-26T10:20:15Z</time>
      </trkpt>
      <trkpt lat="48.06849" lon="-3.5079">
        <ele>183.4</ele>
        <time>2025-02-26T10:20:16Z</time>
      </trkpt>
      <trkpt lat="48.06849" lon="-3.50789">
        <ele>183.4</ele>
        <time>2025-02-26T10:20:17Z</time>
      </trkpt>
      <trkpt lat="48.0685" lon="-3.50788">
        <ele>183.4</ele>
        <time>2025-02-26T10:20:18Z</time>
      </trkpt>
      <trkpt lat="48.06851" lon="-3.50787">
        <ele>183.4</ele>
        <time>2025-02-26T10:20:19Z</time>
      </trkpt>
      <trkpt lat="48.06852" lon="-3.50786">
        <ele>183.3</ele>
        <time>2025-02-26T10:20:20Z</time>
      </trkpt>
      <trkpt lat="48.06853" lon="-3.50784">
        <ele>183.3</ele>
        <time>2025-02-26T10:20:21Z</time>
      </trkpt>
      <trkpt lat="48.06853" lon="-3.50783">
        <ele>183.3</ele>
        <time>2025-02-26T10:20:22Z</time>
      </trkpt>
      <trkpt lat="48.06854" lon="-3.50782">
        <ele>183.3</ele>
        <time>2025-02-26T10:20:23Z</time>
      </trkpt>
      <trkpt lat="48.06855" lon="-3.5078">
        <ele>183.2</ele>
        <time>2025-02-26T10:20:24Z</time>
      </trkpt>
      <trkpt lat="48.06855" lon="-3.50779">
        <ele>183.2</ele>
        <time>2025-02-26T10:20:25Z</time>
      </trkpt>
      <trkpt lat="48.06855" lon="-3.50778">
        <ele>183.2</ele>
        <time>2025-02-26T10:20:26Z</time>
      </trkpt>
      <trkpt lat="48.06856" lon="-3.50776">
        <ele>183.2</ele>
        <time>2025-02-26T10:20:27Z</time>
      </trkpt>
      <trkpt lat="48.06856" lon="-3.50774">
        <ele>183.2</ele>
        <time>2025-02-26T10:20:28Z</time>
      </trkpt>
      <trkpt lat="48.06857" lon="-3.50773">
        <ele>183.1</ele>
        <time>2025-02-26T10:20:29Z</time>
      </trkpt>
      <trkpt lat="48.06858" lon="-3.50772">
        <ele>183.1</ele>
        <time>2025-02-26T10:20:30Z</time>
      </trkpt>
      <trkpt lat="48.06859" lon="-3.50771">
        <ele>183.1</ele>
        <time>2025-02-26T10:20:31Z</time>
      </trkpt>
      <trkpt lat="48.0686" lon="-3.50771">
        <ele>183</ele>
        <time>2025-02-26T10:20:32Z</time>
      </trkpt>
      <trkpt lat="48.06861" lon="-3.5077">
        <ele>183</ele>
        <time>2025-02-26T10:20:33Z</time>
      </trkpt>
      <trkpt lat="48.06861" lon="-3.50768">
        <ele>183</ele>
        <time>2025-02-26T10:20:34Z</time>
      </trkpt>
      <trkpt lat="48.06862" lon="-3.50767">
        <ele>183</ele>
        <time>2025-02-26T10:20:35Z</time>
      </trkpt>
      <trkpt lat="48.06864" lon="-3.50767">
        <ele>182.9</ele>
        <time>2025-02-26T10:20:36Z</time>
      </trkpt>
      <trkpt lat="48.06865" lon="-3.50766">
        <ele>182.9</ele>
        <time>2025-02-26T10:20:37Z</time>
      </trkpt>
      <trkpt lat="48.06865" lon="-3.50765">
        <ele>182.8</ele>
        <time>2025-02-26T10:20:38Z</time>
      </trkpt>
      <trkpt lat="48.06866" lon="-3.50764">
        <ele>182.8</ele>
        <time>2025-02-26T10:20:39Z</time>
      </trkpt>
      <trkpt lat="48.06867" lon="-3.50763">
        <ele>182.8</ele>
        <time>2025-02-26T10:20:40Z</time>
      </trkpt>
      <trkpt lat="48.06867" lon="-3.50762">
        <ele>182.8</ele>
        <time>2025-02-26T10:20:41Z</time>
      </trkpt>
      <trkpt lat="48.06868" lon="-3.50761">
        <ele>182.7</ele>
        <time>2025-02-26T10:20:42Z</time>
      </trkpt>
      <trkpt lat="48.06869" lon="-3.50759">
        <ele>182.7</ele>
        <time>2025-02-26T10:20:43Z</time>
      </trkpt>
      <trkpt lat="48.06869" lon="-3.50758">
        <ele>182.7</ele>
        <time>2025-02-26T10:20:44Z</time>
      </trkpt>
      <trkpt lat="48.0687" lon="-3.50757">
        <ele>182.7</ele>
        <time>2025-02-26T10:20:45Z</time>
      </trkpt>
      <trkpt lat="48.0687" lon="-3.50755">
        <ele>182.7</ele>
        <time>2025-02-26T10:20:46Z</time>
      </trkpt>
      <trkpt lat="48.06871" lon="-3.50754">
        <ele>182.6</ele>
        <time>2025-02-26T10:20:47Z</time>
      </trkpt>
      <trkpt lat="48.06872" lon="-3.50753">
        <ele>182.6</ele>
        <time>2025-02-26T10:20:48Z</time>
      </trkpt>
      <trkpt lat="48.06872" lon="-3.50752">
        <ele>182.6</ele>
        <time>2025-02-26T10:20:49Z</time>
      </trkpt>
      <trkpt lat="48.06873" lon="-3.5075">
        <ele>182.6</ele>
        <time>2025-02-26T10:20:50Z</time>
      </trkpt>
      <trkpt lat="48.06873" lon="-3.50749">
        <ele>182.5</ele>
        <time>2025-02-26T10:20:51Z</time>
      </trkpt>
      <trkpt lat="48.06873" lon="-3.50747">
        <ele>182.5</ele>
        <time>2025-02-26T10:20:52Z</time>
      </trkpt>
      <trkpt lat="48.06874" lon="-3.50745">
        <ele>182.4</ele>
        <time>2025-02-26T10:20:53Z</time>
      </trkpt>
      <trkpt lat="48.06875" lon="-3.50744">
        <ele>182.3</ele>
        <time>2025-02-26T10:20:54Z</time>
      </trkpt>
      <trkpt lat="48.06876" lon="-3.50743">
        <ele>182.2</ele>
        <time>2025-02-26T10:20:55Z</time>
      </trkpt>
      <trkpt lat="48.06876" lon="-3.50742">
        <ele>182.2</ele>
        <time>2025-02-26T10:20:56Z</time>
      </trkpt>
      <trkpt lat="48.06877" lon="-3.5074">
        <ele>182.1</ele>
        <time>2025-02-26T10:20:57Z</time>
      </trkpt>
      <trkpt lat="48.06878" lon="-3.50739">
        <ele>182</ele>
        <time>2025-02-26T10:20:58Z</time>
      </trkpt>
      <trkpt lat="48.06878" lon="-3.50737">
        <ele>181.9</ele>
        <time>2025-02-26T10:20:59Z</time>
      </trkpt>
      <trkpt lat="48.06879" lon="-3.50736">
        <ele>181.8</ele>
        <time>2025-02-26T10:21:00Z</time>
      </trkpt>
      <trkpt lat="48.0688" lon="-3.50735">
        <ele>181.8</ele>
        <time>2025-02-26T10:21:01Z</time>
      </trkpt>
      <trkpt lat="48.06881" lon="-3.50734">
        <ele>181.7</ele>
        <time>2025-02-26T10:21:02Z</time>
      </trkpt>
      <trkpt lat="48.06881" lon="-3.50732">
        <ele>181.6</ele>
        <time>2025-02-26T10:21:03Z</time>
      </trkpt>
      <trkpt lat="48.06882" lon="-3.50731">
        <ele>181.6</ele>
        <time>2025-02-26T10:21:04Z</time>
      </trkpt>
      <trkpt lat="48.06882" lon="-3.50729">
        <ele>181.5</ele>
        <time>2025-02-26T10:21:05Z</time>
      </trkpt>
      <trkpt lat="48.06882" lon="-3.50728">
        <ele>181.4</ele>
        <time>2025-02-26T10:21:06Z</time>
      </trkpt>
      <trkpt lat="48.06883" lon="-3.50727">
        <ele>181.4</ele>
        <time>2025-02-26T10:21:07Z</time>
      </trkpt>
      <trkpt lat="48.06884" lon="-3.50726">
        <ele>181.3</ele>
        <time>2025-02-26T10:21:08Z</time>
      </trkpt>
      <trkpt lat="48.06884" lon="-3.50724">
        <ele>181.2</ele>
        <time>2025-02-26T10:21:09Z</time>
      </trkpt>
      <trkpt lat="48.06885" lon="-3.50724">
        <ele>181.2</ele>
        <time>2025-02-26T10:21:10Z</time>
      </trkpt>
      <trkpt lat="48.06886" lon="-3.50722">
        <ele>181.1</ele>
        <time>2025-02-26T10:21:11Z</time>
      </trkpt>
      <trkpt lat="48.06887" lon="-3.50722">
        <ele>181.1</ele>
        <time>2025-02-26T10:21:12Z</time>
      </trkpt>
      <trkpt lat="48.06888" lon="-3.50721">
        <ele>181.1</ele>
        <time>2025-02-26T10:21:13Z</time>
      </trkpt>
      <trkpt lat="48.06889" lon="-3.5072">
        <ele>181</ele>
        <time>2025-02-26T10:21:14Z</time>
      </trkpt>
      <trkpt lat="48.0689" lon="-3.5072">
        <ele>181</ele>
        <time>2025-02-26T10:21:15Z</time>
      </trkpt>
      <trkpt lat="48.06891" lon="-3.50719">
        <ele>180.9</ele>
        <time>2025-02-26T10:21:16Z</time>
      </trkpt>
      <trkpt lat="48.06892" lon="-3.50718">
        <ele>180.9</ele>
        <time>2025-02-26T10:21:17Z</time>
      </trkpt>
      <trkpt lat="48.06893" lon="-3.50718">
        <ele>180.8</ele>
        <time>2025-02-26T10:21:18Z</time>
      </trkpt>
      <trkpt lat="48.06894" lon="-3.50717">
        <ele>180.8</ele>
        <time>2025-02-26T10:21:19Z</time>
      </trkpt>
      <trkpt lat="48.06895" lon="-3.50716">
        <ele>180.7</ele>
        <time>2025-02-26T10:21:20Z</time>
      </trkpt>
      <trkpt lat="48.06895" lon="-3.50715">
        <ele>180.7</ele>
        <time>2025-02-26T10:21:21Z</time>
      </trkpt>
      <trkpt lat="48.06896" lon="-3.50714">
        <ele>180.7</ele>
        <time>2025-02-26T10:21:22Z</time>
      </trkpt>
      <trkpt lat="48.06897" lon="-3.50712">
        <ele>180.6</ele>
        <time>2025-02-26T10:21:23Z</time>
      </trkpt>
      <trkpt lat="48.06898" lon="-3.50711">
        <ele>180.5</ele>
        <time>2025-02-26T10:21:24Z</time>
      </trkpt>
      <trkpt lat="48.06899" lon="-3.50711">
        <ele>180.5</ele>
        <time>2025-02-26T10:21:25Z</time>
      </trkpt>
      <trkpt lat="48.069" lon="-3.5071">
        <ele>180.4</ele>
        <time>2025-02-26T10:21:26Z</time>
      </trkpt>
      <trkpt lat="48.06901" lon="-3.50709">
        <ele>180.3</ele>
        <time>2025-02-26T10:21:27Z</time>
      </trkpt>
      <trkpt lat="48.06902" lon="-3.50708">
        <ele>180.3</ele>
        <time>2025-02-26T10:21:28Z</time>
      </trkpt>
      <trkpt lat="48.06903" lon="-3.50706">
        <ele>180.2</ele>
        <time>2025-02-26T10:21:29Z</time>
      </trkpt>
      <trkpt lat="48.06903" lon="-3.50705">
        <ele>180.2</ele>
        <time>2025-02-26T10:21:30Z</time>
      </trkpt>
      <trkpt lat="48.06904" lon="-3.50704">
        <ele>180.1</ele>
        <time>2025-02-26T10:21:31Z</time>
      </trkpt>
      <trkpt lat="48.06904" lon="-3.50702">
        <ele>180</ele>
        <time>2025-02-26T10:21:32Z</time>
      </trkpt>
      <trkpt lat="48.06905" lon="-3.50701">
        <ele>180</ele>
        <time>2025-02-26T10:21:33Z</time>
      </trkpt>
      <trkpt lat="48.06906" lon="-3.507">
        <ele>179.9</ele>
        <time>2025-02-26T10:21:34Z</time>
      </trkpt>
      <trkpt lat="48.06907" lon="-3.50699">
        <ele>179.8</ele>
        <time>2025-02-26T10:21:35Z</time>
      </trkpt>
      <trkpt lat="48.06908" lon="-3.50699">
        <ele>179.8</ele>
        <time>2025-02-26T10:21:36Z</time>
      </trkpt>
      <trkpt lat="48.06908" lon="-3.50698">
        <ele>179.7</ele>
        <time>2025-02-26T10:21:37Z</time>
      </trkpt>
      <trkpt lat="48.06909" lon="-3.50696">
        <ele>179.6</ele>
        <time>2025-02-26T10:21:38Z</time>
      </trkpt>
      <trkpt lat="48.0691" lon="-3.50695">
        <ele>179.5</ele>
        <time>2025-02-26T10:21:39Z</time>
      </trkpt>
      <trkpt lat="48.06911" lon="-3.50694">
        <ele>179.4</ele>
        <time>2025-02-26T10:21:40Z</time>
      </trkpt>
      <trkpt lat="48.06912" lon="-3.50693">
        <ele>179.3</ele>
        <time>2025-02-26T10:21:41Z</time>
      </trkpt>
      <trkpt lat="48.06913" lon="-3.50691">
        <ele>179.3</ele>
        <time>2025-02-26T10:21:42Z</time>
      </trkpt>
      <trkpt lat="48.06913" lon="-3.5069">
        <ele>179.2</ele>
        <time>2025-02-26T10:21:43Z</time>
      </trkpt>
      <trkpt lat="48.06914" lon="-3.50689">
        <ele>179.2</ele>
        <time>2025-02-26T10:21:44Z</time>
      </trkpt>
      <trkpt lat="48.06914" lon="-3.50688">
        <ele>179.2</ele>
        <time>2025-02-26T10:21:45Z</time>
      </trkpt>
      <trkpt lat="48.06915" lon="-3.50686">
        <ele>179.1</ele>
        <time>2025-02-26T10:21:46Z</time>
      </trkpt>
      <trkpt lat="48.06916" lon="-3.50685">
        <ele>179.1</ele>
        <time>2025-02-26T10:21:47Z</time>
      </trkpt>
      <trkpt lat="48.06916" lon="-3.50684">
        <ele>179</ele>
        <time>2025-02-26T10:21:48Z</time>
      </trkpt>
      <trkpt lat="48.06917" lon="-3.50682">
        <ele>179</ele>
        <time>2025-02-26T10:21:49Z</time>
      </trkpt>
      <trkpt lat="48.06917" lon="-3.5068">
        <ele>178.9</ele>
        <time>2025-02-26T10:21:50Z</time>
      </trkpt>
      <trkpt lat="48.06919" lon="-3.50679">
        <ele>178.9</ele>
        <time>2025-02-26T10:21:51Z</time>
      </trkpt>
      <trkpt lat="48.06919" lon="-3.50678">
        <ele>178.8</ele>
        <time>2025-02-26T10:21:52Z</time>
      </trkpt>
      <trkpt lat="48.0692" lon="-3.50677">
        <ele>178.7</ele>
        <time>2025-02-26T10:21:53Z</time>
      </trkpt>
      <trkpt lat="48.06921" lon="-3.50676">
        <ele>178.7</ele>
        <time>2025-02-26T10:21:54Z</time>
      </trkpt>
      <trkpt lat="48.06921" lon="-3.50674">
        <ele>178.7</ele>
        <time>2025-02-26T10:21:55Z</time>
      </trkpt>
      <trkpt lat="48.06922" lon="-3.50673">
        <ele>178.6</ele>
        <time>2025-02-26T10:21:56Z</time>
      </trkpt>
      <trkpt lat="48.06923" lon="-3.50672">
        <ele>178.6</ele>
        <time>2025-02-26T10:21:57Z</time>
      </trkpt>
      <trkpt lat="48.06923" lon="-3.50671">
        <ele>178.5</ele>
        <time>2025-02-26T10:21:58Z</time>
      </trkpt>
      <trkpt lat="48.06924" lon="-3.5067">
        <ele>178.5</ele>
        <time>2025-02-26T10:21:59Z</time>
      </trkpt>
      <trkpt lat="48.06925" lon="-3.50668">
        <ele>178.4</ele>
        <time>2025-02-26T10:22:00Z</time>
      </trkpt>
      <trkpt lat="48.06925" lon="-3.50667">
        <ele>178.4</ele>
        <time>2025-02-26T10:22:01Z</time>
      </trkpt>
      <trkpt lat="48.06925" lon="-3.50664">
        <ele>178.4</ele>
        <time>2025-02-26T10:22:02Z</time>
      </trkpt>
      <trkpt lat="48.06926" lon="-3.50663">
        <ele>178.4</ele>
        <time>2025-02-26T10:22:03Z</time>
      </trkpt>
      <trkpt lat="48.06927" lon="-3.50662">
        <ele>178.3</ele>
        <time>2025-02-26T10:22:04Z</time>
      </trkpt>
      <trkpt lat="48.06928" lon="-3.50661">
        <ele>178.2</ele>
        <time>2025-02-26T10:22:05Z</time>
      </trkpt>
      <trkpt lat="48.06929" lon="-3.5066">
        <ele>178.1</ele>
        <time>2025-02-26T10:22:06Z</time>
      </trkpt>
      <trkpt lat="48.06929" lon="-3.50659">
        <ele>178.1</ele>
        <time>2025-02-26T10:22:07Z</time>
      </trkpt>
      <trkpt lat="48.0693" lon="-3.50657">
        <ele>178</ele>
        <time>2025-02-26T10:22:08Z</time>
      </trkpt>
      <trkpt lat="48.0693" lon="-3.50655">
        <ele>178</ele>
        <time>2025-02-26T10:22:09Z</time>
      </trkpt>
      <trkpt lat="48.06931" lon="-3.50654">
        <ele>177.9</ele>
        <time>2025-02-26T10:22:10Z</time>
      </trkpt>
      <trkpt lat="48.06932" lon="-3.50653">
        <ele>177.9</ele>
        <time>2025-02-26T10:22:11Z</time>
      </trkpt>
      <trkpt lat="48.06933" lon="-3.50652">
        <ele>177.8</ele>
        <time>2025-02-26T10:22:12Z</time>
      </trkpt>
      <trkpt lat="48.06934" lon="-3.50651">
        <ele>177.8</ele>
        <time>2025-02-26T10:22:13Z</time>
      </trkpt>
      <trkpt lat="48.06934" lon="-3.50649">
        <ele>177.7</ele>
        <time>2025-02-26T10:22:14Z</time>
      </trkpt>
      <trkpt lat="48.06935" lon="-3.50647">
        <ele>177.7</ele>
        <time>2025-02-26T10:22:15Z</time>
      </trkpt>
      <trkpt lat="48.06935" lon="-3.50646">
        <ele>177.7</ele>
        <time>2025-02-26T10:22:16Z</time>
      </trkpt>
      <trkpt lat="48.06936" lon="-3.50645">
        <ele>177.6</ele>
        <time>2025-02-26T10:22:17Z</time>
      </trkpt>
      <trkpt lat="48.06936" lon="-3.50643">
        <ele>177.6</ele>
        <time>2025-02-26T10:22:18Z</time>
      </trkpt>
      <trkpt lat="48.06937" lon="-3.50642">
        <ele>177.5</ele>
        <time>2025-02-26T10:22:19Z</time>
      </trkpt>
      <trkpt lat="48.06938" lon="-3.50641">
        <ele>177.5</ele>
        <time>2025-02-26T10:22:20Z</time>
      </trkpt>
      <trkpt lat="48.06938" lon="-3.50639">
        <ele>177.5</ele>
        <time>2025-02-26T10:22:21Z</time>
      </trkpt>
      <trkpt lat="48.06939" lon="-3.50638">
        <ele>177.4</ele>
        <time>2025-02-26T10:22:22Z</time>
      </trkpt>
      <trkpt lat="48.06939" lon="-3.50636">
        <ele>177.4</ele>
        <time>2025-02-26T10:22:23Z</time>
      </trkpt>
      <trkpt lat="48.0694" lon="-3.50635">
        <ele>177.3</ele>
        <time>2025-02-26T10:22:24Z</time>
      </trkpt>
      <trkpt lat="48.06941" lon="-3.50634">
        <ele>177.3</ele>
        <time>2025-02-26T10:22:25Z</time>
      </trkpt>
      <trkpt lat="48.06941" lon="-3.50633">
        <ele>177.2</ele>
        <time>2025-02-26T10:22:26Z</time>
      </trkpt>
      <trkpt lat="48.06942" lon="-3.50631">
        <ele>177.2</ele>
        <time>2025-02-26T10:22:27Z</time>
      </trkpt>
      <trkpt lat="48.06942" lon="-3.5063">
        <ele>177.2</ele>
        <time>2025-02-26T10:22:28Z</time>
      </trkpt>
      <trkpt lat="48.06942" lon="-3.50629">
        <ele>177.2</ele>
        <time>2025-02-26T10:22:29Z</time>
      </trkpt>
      <trkpt lat="48.06943" lon="-3.50627">
        <ele>177.1</ele>
        <time>2025-02-26T10:22:30Z</time>
      </trkpt>
      <trkpt lat="48.06943" lon="-3.50626">
        <ele>177.1</ele>
        <time>2025-02-26T10:22:31Z</time>
      </trkpt>
      <trkpt lat="48.06943" lon="-3.50624">
        <ele>177.1</ele>
        <time>2025-02-26T10:22:32Z</time>
      </trkpt>
      <trkpt lat="48.06943" lon="-3.50623">
        <ele>177.1</ele>
        <time>2025-02-26T10:22:33Z</time>
      </trkpt>
      <trkpt lat="48.06944" lon="-3.50621">
        <ele>177</ele>
        <time>2025-02-26T10:22:34Z</time>
      </trkpt>
      <trkpt lat="48.06945" lon="-3.5062">
        <ele>177</ele>
        <time>2025-02-26T10:22:35Z</time>
      </trkpt>
      <trkpt lat="48.06945" lon="-3.50618">
        <ele>177</ele>
        <time>2025-02-26T10:22:36Z</time>
      </trkpt>
      <trkpt lat="48.06945" lon="-3.50617">
        <ele>176.9</ele>
        <time>2025-02-26T10:22:37Z</time>
      </trkpt>
      <trkpt lat="48.06946" lon="-3.50616">
        <ele>176.9</ele>
        <time>2025-02-26T10:22:38Z</time>
      </trkpt>
      <trkpt lat="48.06947" lon="-3.50615">
        <ele>176.9</ele>
        <time>2025-02-26T10:22:39Z</time>
      </trkpt>
      <trkpt lat="48.06947" lon="-3.50614">
        <ele>176.8</ele>
        <time>2025-02-26T10:22:40Z</time>
      </trkpt>
      <trkpt lat="48.06948" lon="-3.50613">
        <ele>176.8</ele>
        <time>2025-02-26T10:22:41Z</time>
      </trkpt>
      <trkpt lat="48.06948" lon="-3.50612">
        <ele>176.7</ele>
        <time>2025-02-26T10:22:42Z</time>
      </trkpt>
      <trkpt lat="48.06949" lon="-3.50611">
        <ele>176.7</ele>
        <time>2025-02-26T10:22:43Z</time>
      </trkpt>
      <trkpt lat="48.06949" lon="-3.5061">
        <ele>176.7</ele>
        <time>2025-02-26T10:22:44Z</time>
      </trkpt>
      <trkpt lat="48.0695" lon="-3.50609">
        <ele>176.7</ele>
        <time>2025-02-26T10:22:45Z</time>
      </trkpt>
      <trkpt lat="48.06951" lon="-3.50608">
        <ele>176.7</ele>
        <time>2025-02-26T10:22:46Z</time>
      </trkpt>
      <trkpt lat="48.06951" lon="-3.50606">
        <ele>176.7</ele>
        <time>2025-02-26T10:22:47Z</time>
      </trkpt>
      <trkpt lat="48.06951" lon="-3.50604">
        <ele>176.8</ele>
        <time>2025-02-26T10:22:48Z</time>
      </trkpt>
      <trkpt lat="48.06951" lon="-3.50603">
        <ele>176.8</ele>
        <time>2025-02-26T10:22:49Z</time>
      </trkpt>
      <trkpt lat="48.06952" lon="-3.50601">
        <ele>176.8</ele>
        <time>2025-02-26T10:22:50Z</time>
      </trkpt>
      <trkpt lat="48.06952" lon="-3.50599">
        <ele>176.9</ele>
        <time>2025-02-26T10:22:51Z</time>
      </trkpt>
      <trkpt lat="48.06952" lon="-3.50597">
        <ele>176.9</ele>
        <time>2025-02-26T10:22:52Z</time>
      </trkpt>
      <trkpt lat="48.06952" lon="-3.50596">
        <ele>177</ele>
        <time>2025-02-26T10:22:53Z</time>
      </trkpt>
      <trkpt lat="48.06953" lon="-3.50594">
        <ele>177</ele>
        <time>2025-02-26T10:22:54Z</time>
      </trkpt>
      <trkpt lat="48.06953" lon="-3.50593">
        <ele>177</ele>
        <time>2025-02-26T10:22:55Z</time>
      </trkpt>
      <trkpt lat="48.06954" lon="-3.50592">
        <ele>177</ele>
        <time>2025-02-26T10:22:56Z</time>
      </trkpt>
      <trkpt lat="48.06954" lon="-3.5059">
        <ele>177.1</ele>
        <time>2025-02-26T10:22:57Z</time>
      </trkpt>
      <trkpt lat="48.06954" lon="-3.50588">
        <ele>177.2</ele>
        <time>2025-02-26T10:22:58Z</time>
      </trkpt>
      <trkpt lat="48.06954" lon="-3.50587">
        <ele>177.2</ele>
        <time>2025-02-26T10:22:59Z</time>
      </trkpt>
      <trkpt lat="48.06954" lon="-3.50586">
        <ele>177.2</ele>
        <time>2025-02-26T10:23:00Z</time>
      </trkpt>
      <trkpt lat="48.06955" lon="-3.50585">
        <ele>177.2</ele>
        <time>2025-02-26T10:23:01Z</time>
      </trkpt>
      <trkpt lat="48.06955" lon="-3.50583">
        <ele>177.2</ele>
        <time>2025-02-26T10:23:02Z</time>
      </trkpt>
      <trkpt lat="48.06956" lon="-3.50582">
        <ele>177.2</ele>
        <time>2025-02-26T10:23:03Z</time>
      </trkpt>
      <trkpt lat="48.06956" lon="-3.50581">
        <ele>177.1</ele>
        <time>2025-02-26T10:23:04Z</time>
      </trkpt>
      <trkpt lat="48.06957" lon="-3.50579">
        <ele>177.1</ele>
        <time>2025-02-26T10:23:05Z</time>
      </trkpt>
      <trkpt lat="48.06957" lon="-3.50578">
        <ele>177.1</ele>
        <time>2025-02-26T10:23:06Z</time>
      </trkpt>
      <trkpt lat="48.06958" lon="-3.50577">
        <ele>177.1</ele>
        <time>2025-02-26T10:23:07Z</time>
      </trkpt>
      <trkpt lat="48.06958" lon="-3.50575">
        <ele>177</ele>
        <time>2025-02-26T10:23:08Z</time>
      </trkpt>
      <trkpt lat="48.06959" lon="-3.50574">
        <ele>177</ele>
        <time>2025-02-26T10:23:09Z</time>
      </trkpt>
      <trkpt lat="48.06959" lon="-3.50573">
        <ele>176.9</ele>
        <time>2025-02-26T10:23:10Z</time>
      </trkpt>
      <trkpt lat="48.0696" lon="-3.50572">
        <ele>176.9</ele>
        <time>2025-02-26T10:23:11Z</time>
      </trkpt>
      <trkpt lat="48.06961" lon="-3.50572">
        <ele>176.8</ele>
        <time>2025-02-26T10:23:12Z</time>
      </trkpt>
      <trkpt lat="48.06961" lon="-3.50572">
        <ele>176.8</ele>
        <time>2025-02-26T10:23:13Z</time>
      </trkpt>
      <trkpt lat="48.06961" lon="-3.50572">
        <ele>176.8</ele>
        <time>2025-02-26T10:23:14Z</time>
      </trkpt>
      <trkpt lat="48.06961" lon="-3.50572">
        <ele>176.8</ele>
        <time>2025-02-26T10:23:15Z</time>
      </trkpt>
      <trkpt lat="48.06961" lon="-3.50572">
        <ele>176.8</ele>
        <time>2025-02-26T10:23:16Z</time>
      </trkpt>
      <trkpt lat="48.06961" lon="-3.50572">
        <ele>176.8</ele>
        <time>2025-02-26T10:23:17Z</time>
      </trkpt>
      <trkpt lat="48.06961" lon="-3.50572">
        <ele>176.8</ele>
        <time>2025-02-26T10:23:18Z</time>
      </trkpt>
      <trkpt lat="48.06961" lon="-3.50572">
        <ele>176.8</ele>
        <time>2025-02-26T10:23:19Z</time>
      </trkpt>
      <trkpt lat="48.06961" lon="-3.50572">
        <ele>176.8</ele>
        <time>2025-02-26T10:23:20Z</time>
      </trkpt>
      <trkpt lat="48.06961" lon="-3.50572">
        <ele>176.8</ele>
        <time>2025-02-26T10:23:21Z</time>
      </trkpt>
      <trkpt lat="48.06961" lon="-3.50572">
        <ele>176.8</ele>
        <time>2025-02-26T10:23:22Z</time>
      </trkpt>
      <trkpt lat="48.06961" lon="-3.50572">
        <ele>176.8</ele>
        <time>2025-02-26T10:23:23Z</time>
      </trkpt>
      <trkpt lat="48.06961" lon="-3.50573">
        <ele>176.8</ele>
        <time>2025-02-26T10:23:24Z</time>
      </trkpt>
      <trkpt lat="48.06961" lon="-3.50573">
        <ele>176.8</ele>
        <time>2025-02-26T10:23:25Z</time>
      </trkpt>
      <trkpt lat="48.06961" lon="-3.50572">
        <ele>176.8</ele>
        <time>2025-02-26T10:23:26Z</time>
      </trkpt>
      <trkpt lat="48.06961" lon="-3.50572">
        <ele>176.8</ele>
        <time>2025-02-26T10:23:27Z</time>
      </trkpt>
      <trkpt lat="48.06961" lon="-3.50572">
        <ele>176.8</ele>
        <time>2025-02-26T10:23:28Z</time>
      </trkpt>
      <trkpt lat="48.06961" lon="-3.50572">
        <ele>176.8</ele>
        <time>2025-02-26T10:23:29Z</time>
      </trkpt>
      <trkpt lat="48.06961" lon="-3.50572">
        <ele>176.8</ele>
        <time>2025-02-26T10:23:30Z</time>
      </trkpt>
      <trkpt lat="48.06961" lon="-3.50572">
        <ele>176.8</ele>
        <time>2025-02-26T10:23:31Z</time>
      </trkpt>
      <trkpt lat="48.06962" lon="-3.50572">
        <ele>176.8</ele>
        <time>2025-02-26T10:23:32Z</time>
      </trkpt>
      <trkpt lat="48.06962" lon="-3.50572">
        <ele>176.7</ele>
        <time>2025-02-26T10:23:33Z</time>
      </trkpt>
      <trkpt lat="48.06962" lon="-3.50572">
        <ele>176.7</ele>
        <time>2025-02-26T10:23:34Z</time>
      </trkpt>
      <trkpt lat="48.06962" lon="-3.50572">
        <ele>176.7</ele>
        <time>2025-02-26T10:23:35Z</time>
      </trkpt>
      <trkpt lat="48.06962" lon="-3.50572">
        <ele>176.7</ele>
        <time>2025-02-26T10:23:36Z</time>
      </trkpt>
      <trkpt lat="48.06962" lon="-3.50572">
        <ele>176.7</ele>
        <time>2025-02-26T10:23:37Z</time>
      </trkpt>
      <trkpt lat="48.06962" lon="-3.50572">
        <ele>176.7</ele>
        <time>2025-02-26T10:23:38Z</time>
      </trkpt>
      <trkpt lat="48.06963" lon="-3.50571">
        <ele>176.7</ele>
        <time>2025-02-26T10:23:39Z</time>
      </trkpt>
      <trkpt lat="48.06963" lon="-3.50571">
        <ele>176.7</ele>
        <time>2025-02-26T10:23:40Z</time>
      </trkpt>
      <trkpt lat="48.06963" lon="-3.50571">
        <ele>176.6</ele>
        <time>2025-02-26T10:23:41Z</time>
      </trkpt>
      <trkpt lat="48.06963" lon="-3.50571">
        <ele>176.6</ele>
        <time>2025-02-26T10:23:42Z</time>
      </trkpt>
      <trkpt lat="48.06963" lon="-3.50571">
        <ele>176.6</ele>
        <time>2025-02-26T10:23:43Z</time>
      </trkpt>
      <trkpt lat="48.06963" lon="-3.5057">
        <ele>176.6</ele>
        <time>2025-02-26T10:23:44Z</time>
      </trkpt>
      <trkpt lat="48.06963" lon="-3.50569">
        <ele>176.7</ele>
        <time>2025-02-26T10:23:45Z</time>
      </trkpt>
      <trkpt lat="48.06962" lon="-3.50569">
        <ele>176.7</ele>
        <time>2025-02-26T10:23:46Z</time>
      </trkpt>
      <trkpt lat="48.06961" lon="-3.50568">
        <ele>176.8</ele>
        <time>2025-02-26T10:23:47Z</time>
      </trkpt>
      <trkpt lat="48.06961" lon="-3.50566">
        <ele>176.8</ele>
        <time>2025-02-26T10:23:48Z</time>
      </trkpt>
      <trkpt lat="48.0696" lon="-3.50565">
        <ele>176.9</ele>
        <time>2025-02-26T10:23:49Z</time>
      </trkpt>
      <trkpt lat="48.06959" lon="-3.50564">
        <ele>177</ele>
        <time>2025-02-26T10:23:50Z</time>
      </trkpt>
      <trkpt lat="48.06959" lon="-3.50562">
        <ele>177</ele>
        <time>2025-02-26T10:23:51Z</time>
      </trkpt>
      <trkpt lat="48.06958" lon="-3.50561">
        <ele>177</ele>
        <time>2025-02-26T10:23:52Z</time>
      </trkpt>
      <trkpt lat="48.06958" lon="-3.5056">
        <ele>177.1</ele>
        <time>2025-02-26T10:23:53Z</time>
      </trkpt>
      <trkpt lat="48.06957" lon="-3.50559">
        <ele>177.1</ele>
        <time>2025-02-26T10:23:54Z</time>
      </trkpt>
      <trkpt lat="48.06957" lon="-3.50559">
        <ele>177.1</ele>
        <time>2025-02-26T10:23:55Z</time>
      </trkpt>
      <trkpt lat="48.06956" lon="-3.50558">
        <ele>177.2</ele>
        <time>2025-02-26T10:23:56Z</time>
      </trkpt>
      <trkpt lat="48.06955" lon="-3.50558">
        <ele>177.2</ele>
        <time>2025-02-26T10:23:57Z</time>
      </trkpt>
      <trkpt lat="48.06955" lon="-3.50557">
        <ele>177.3</ele>
        <time>2025-02-26T10:23:58Z</time>
      </trkpt>
      <trkpt lat="48.06954" lon="-3.50557">
        <ele>177.3</ele>
        <time>2025-02-26T10:23:59Z</time>
      </trkpt>
      <trkpt lat="48.06954" lon="-3.50556">
        <ele>177.3</ele>
        <time>2025-02-26T10:24:00Z</time>
      </trkpt>
      <trkpt lat="48.06953" lon="-3.50555">
        <ele>177.4</ele>
        <time>2025-02-26T10:24:01Z</time>
      </trkpt>
      <trkpt lat="48.06953" lon="-3.50554">
        <ele>177.4</ele>
        <time>2025-02-26T10:24:02Z</time>
      </trkpt>
      <trkpt lat="48.06953" lon="-3.50553">
        <ele>177.5</ele>
        <time>2025-02-26T10:24:03Z</time>
      </trkpt>
      <trkpt lat="48.06952" lon="-3.50552">
        <ele>177.6</ele>
        <time>2025-02-26T10:24:04Z</time>
      </trkpt>
      <trkpt lat="48.06951" lon="-3.50551">
        <ele>177.7</ele>
        <time>2025-02-26T10:24:05Z</time>
      </trkpt>
      <trkpt lat="48.06951" lon="-3.5055">
        <ele>177.7</ele>
        <time>2025-02-26T10:24:06Z</time>
      </trkpt>
      <trkpt lat="48.0695" lon="-3.50549">
        <ele>177.8</ele>
        <time>2025-02-26T10:24:07Z</time>
      </trkpt>
      <trkpt lat="48.06949" lon="-3.50548">
        <ele>177.9</ele>
        <time>2025-02-26T10:24:08Z</time>
      </trkpt>
      <trkpt lat="48.06948" lon="-3.50548">
        <ele>177.9</ele>
        <time>2025-02-26T10:24:09Z</time>
      </trkpt>
      <trkpt lat="48.06948" lon="-3.50548">
        <ele>178</ele>
        <time>2025-02-26T10:24:10Z</time>
      </trkpt>
      <trkpt lat="48.06947" lon="-3.50547">
        <ele>178.1</ele>
        <time>2025-02-26T10:24:11Z</time>
      </trkpt>
      <trkpt lat="48.06947" lon="-3.50546">
        <ele>178.1</ele>
        <time>2025-02-26T10:24:12Z</time>
      </trkpt>
      <trkpt lat="48.06946" lon="-3.50545">
        <ele>178.2</ele>
        <time>2025-02-26T10:24:13Z</time>
      </trkpt>
      <trkpt lat="48.06946" lon="-3.50543">
        <ele>178.3</ele>
        <time>2025-02-26T10:24:14Z</time>
      </trkpt>
      <trkpt lat="48.06946" lon="-3.50542">
        <ele>178.4</ele>
        <time>2025-02-26T10:24:15Z</time>
      </trkpt>
      <trkpt lat="48.06945" lon="-3.50541">
        <ele>178.5</ele>
        <time>2025-02-26T10:24:16Z</time>
      </trkpt>
      <trkpt lat="48.06945" lon="-3.5054">
        <ele>178.6</ele>
        <time>2025-02-26T10:24:17Z</time>
      </trkpt>
      <trkpt lat="48.06944" lon="-3.50539">
        <ele>178.6</ele>
        <time>2025-02-26T10:24:18Z</time>
      </trkpt>
      <trkpt lat="48.06943" lon="-3.50537">
        <ele>178.7</ele>
        <time>2025-02-26T10:24:19Z</time>
      </trkpt>
      <trkpt lat="48.06942" lon="-3.50536">
        <ele>178.8</ele>
        <time>2025-02-26T10:24:20Z</time>
      </trkpt>
      <trkpt lat="48.06942" lon="-3.50534">
        <ele>178.9</ele>
        <time>2025-02-26T10:24:21Z</time>
      </trkpt>
      <trkpt lat="48.06941" lon="-3.50532">
        <ele>179</ele>
        <time>2025-02-26T10:24:22Z</time>
      </trkpt>
      <trkpt lat="48.06941" lon="-3.50531">
        <ele>179.1</ele>
        <time>2025-02-26T10:24:23Z</time>
      </trkpt>
      <trkpt lat="48.0694" lon="-3.50529">
        <ele>179.1</ele>
        <time>2025-02-26T10:24:24Z</time>
      </trkpt>
      <trkpt lat="48.0694" lon="-3.50527">
        <ele>179.2</ele>
        <time>2025-02-26T10:24:25Z</time>
      </trkpt>
      <trkpt lat="48.06939" lon="-3.50526">
        <ele>179.2</ele>
        <time>2025-02-26T10:24:26Z</time>
      </trkpt>
      <trkpt lat="48.06938" lon="-3.50524">
        <ele>179.2</ele>
        <time>2025-02-26T10:24:27Z</time>
      </trkpt>
      <trkpt lat="48.06937" lon="-3.50523">
        <ele>179.3</ele>
        <time>2025-02-26T10:24:28Z</time>
      </trkpt>
      <trkpt lat="48.06937" lon="-3.50522">
        <ele>179.3</ele>
        <time>2025-02-26T10:24:29Z</time>
      </trkpt>
      <trkpt lat="48.06936" lon="-3.5052">
        <ele>179.3</ele>
        <time>2025-02-26T10:24:30Z</time>
      </trkpt>
      <trkpt lat="48.06936" lon="-3.5052">
        <ele>179.3</ele>
        <time>2025-02-26T10:24:31Z</time>
      </trkpt>
      <trkpt lat="48.06935" lon="-3.50519">
        <ele>179.3</ele>
        <time>2025-02-26T10:24:32Z</time>
      </trkpt>
      <trkpt lat="48.06935" lon="-3.50518">
        <ele>179.3</ele>
        <time>2025-02-26T10:24:33Z</time>
      </trkpt>
      <trkpt lat="48.06934" lon="-3.50517">
        <ele>179.4</ele>
        <time>2025-02-26T10:24:34Z</time>
      </trkpt>
      <trkpt lat="48.06934" lon="-3.50516">
        <ele>179.4</ele>
        <time>2025-02-26T10:24:35Z</time>
      </trkpt>
      <trkpt lat="48.06933" lon="-3.50515">
        <ele>179.4</ele>
        <time>2025-02-26T10:24:36Z</time>
      </trkpt>
      <trkpt lat="48.06933" lon="-3.50514">
        <ele>179.4</ele>
        <time>2025-02-26T10:24:37Z</time>
      </trkpt>
      <trkpt lat="48.06932" lon="-3.50513">
        <ele>179.4</ele>
        <time>2025-02-26T10:24:38Z</time>
      </trkpt>
      <trkpt lat="48.06932" lon="-3.50511">
        <ele>179.5</ele>
        <time>2025-02-26T10:24:39Z</time>
      </trkpt>
      <trkpt lat="48.06932" lon="-3.5051">
        <ele>179.5</ele>
        <time>2025-02-26T10:24:40Z</time>
      </trkpt>
      <trkpt lat="48.06931" lon="-3.50509">
        <ele>179.5</ele>
        <time>2025-02-26T10:24:41Z</time>
      </trkpt>
      <trkpt lat="48.06931" lon="-3.50508">
        <ele>179.5</ele>
        <time>2025-02-26T10:24:42Z</time>
      </trkpt>
      <trkpt lat="48.0693" lon="-3.50507">
        <ele>179.5</ele>
        <time>2025-02-26T10:24:43Z</time>
      </trkpt>
      <trkpt lat="48.0693" lon="-3.50506">
        <ele>179.5</ele>
        <time>2025-02-26T10:24:44Z</time>
      </trkpt>
      <trkpt lat="48.06929" lon="-3.50504">
        <ele>179.5</ele>
        <time>2025-02-26T10:24:45Z</time>
      </trkpt>
      <trkpt lat="48.06929" lon="-3.50503">
        <ele>179.6</ele>
        <time>2025-02-26T10:24:46Z</time>
      </trkpt>
      <trkpt lat="48.06928" lon="-3.50502">
        <ele>179.6</ele>
        <time>2025-02-26T10:24:47Z</time>
      </trkpt>
      <trkpt lat="48.06928" lon="-3.50501">
        <ele>179.6</ele>
        <time>2025-02-26T10:24:48Z</time>
      </trkpt>
      <trkpt lat="48.06927" lon="-3.505">
        <ele>179.6</ele>
        <time>2025-02-26T10:24:49Z</time>
      </trkpt>
      <trkpt lat="48.06926" lon="-3.50498">
        <ele>179.6</ele>
        <time>2025-02-26T10:24:50Z</time>
      </trkpt>
      <trkpt lat="48.06926" lon="-3.50497">
        <ele>179.7</ele>
        <time>2025-02-26T10:24:51Z</time>
      </trkpt>
      <trkpt lat="48.06928" lon="-3.50496">
        <ele>179.6</ele>
        <time>2025-02-26T10:24:52Z</time>
      </trkpt>
      <trkpt lat="48.06929" lon="-3.50497">
        <ele>179.6</ele>
        <time>2025-02-26T10:24:53Z</time>
      </trkpt>
      <trkpt lat="48.0693" lon="-3.50494">
        <ele>179.5</ele>
        <time>2025-02-26T10:24:54Z</time>
      </trkpt>
      <trkpt lat="48.06929" lon="-3.50492">
        <ele>179.5</ele>
        <time>2025-02-26T10:24:55Z</time>
      </trkpt>
      <trkpt lat="48.06928" lon="-3.50492">
        <ele>179.6</ele>
        <time>2025-02-26T10:24:56Z</time>
      </trkpt>
      <trkpt lat="48.06927" lon="-3.50491">
        <ele>179.6</ele>
        <time>2025-02-26T10:24:57Z</time>
      </trkpt>
      <trkpt lat="48.06927" lon="-3.5049">
        <ele>179.6</ele>
        <time>2025-02-26T10:24:58Z</time>
      </trkpt>
      <trkpt lat="48.06926" lon="-3.50489">
        <ele>179.7</ele>
        <time>2025-02-26T10:24:59Z</time>
      </trkpt>
      <trkpt lat="48.06925" lon="-3.50488">
        <ele>179.7</ele>
        <time>2025-02-26T10:25:00Z</time>
      </trkpt>
      <trkpt lat="48.06924" lon="-3.50487">
        <ele>179.7</ele>
        <time>2025-02-26T10:25:01Z</time>
      </trkpt>
      <trkpt lat="48.06924" lon="-3.50486">
        <ele>179.8</ele>
        <time>2025-02-26T10:25:02Z</time>
      </trkpt>
      <trkpt lat="48.06923" lon="-3.50485">
        <ele>179.8</ele>
        <time>2025-02-26T10:25:03Z</time>
      </trkpt>
      <trkpt lat="48.06922" lon="-3.50484">
        <ele>179.8</ele>
        <time>2025-02-26T10:25:04Z</time>
      </trkpt>
      <trkpt lat="48.06921" lon="-3.50483">
        <ele>179.8</ele>
        <time>2025-02-26T10:25:05Z</time>
      </trkpt>
      <trkpt lat="48.0692" lon="-3.50482">
        <ele>179.9</ele>
        <time>2025-02-26T10:25:06Z</time>
      </trkpt>
      <trkpt lat="48.0692" lon="-3.50481">
        <ele>179.9</ele>
        <time>2025-02-26T10:25:07Z</time>
      </trkpt>
      <trkpt lat="48.06919" lon="-3.5048">
        <ele>179.9</ele>
        <time>2025-02-26T10:25:08Z</time>
      </trkpt>
      <trkpt lat="48.06919" lon="-3.50479">
        <ele>179.9</ele>
        <time>2025-02-26T10:25:09Z</time>
      </trkpt>
      <trkpt lat="48.06918" lon="-3.50477">
        <ele>179.9</ele>
        <time>2025-02-26T10:25:10Z</time>
      </trkpt>
      <trkpt lat="48.06917" lon="-3.50477">
        <ele>180</ele>
        <time>2025-02-26T10:25:11Z</time>
      </trkpt>
      <trkpt lat="48.06917" lon="-3.50476">
        <ele>180</ele>
        <time>2025-02-26T10:25:12Z</time>
      </trkpt>
      <trkpt lat="48.06916" lon="-3.50475">
        <ele>180</ele>
        <time>2025-02-26T10:25:13Z</time>
      </trkpt>
      <trkpt lat="48.06915" lon="-3.50474">
        <ele>180.1</ele>
        <time>2025-02-26T10:25:14Z</time>
      </trkpt>
      <trkpt lat="48.06914" lon="-3.50474">
        <ele>180.1</ele>
        <time>2025-02-26T10:25:15Z</time>
      </trkpt>
      <trkpt lat="48.06914" lon="-3.50473">
        <ele>180.1</ele>
        <time>2025-02-26T10:25:16Z</time>
      </trkpt>
      <trkpt lat="48.06913" lon="-3.50472">
        <ele>180.1</ele>
        <time>2025-02-26T10:25:17Z</time>
      </trkpt>
      <trkpt lat="48.06912" lon="-3.50471">
        <ele>180.2</ele>
        <time>2025-02-26T10:25:18Z</time>
      </trkpt>
      <trkpt lat="48.06911" lon="-3.50471">
        <ele>180.2</ele>
        <time>2025-02-26T10:25:19Z</time>
      </trkpt>
      <trkpt lat="48.0691" lon="-3.5047">
        <ele>180.3</ele>
        <time>2025-02-26T10:25:20Z</time>
      </trkpt>
      <trkpt lat="48.06909" lon="-3.50469">
        <ele>180.3</ele>
        <time>2025-02-26T10:25:21Z</time>
      </trkpt>
      <trkpt lat="48.06908" lon="-3.50468">
        <ele>180.3</ele>
        <time>2025-02-26T10:25:22Z</time>
      </trkpt>
      <trkpt lat="48.06907" lon="-3.50467">
        <ele>180.4</ele>
        <time>2025-02-26T10:25:23Z</time>
      </trkpt>
      <trkpt lat="48.06906" lon="-3.50466">
        <ele>180.4</ele>
        <time>2025-02-26T10:25:24Z</time>
      </trkpt>
      <trkpt lat="48.06905" lon="-3.50465">
        <ele>180.4</ele>
        <time>2025-02-26T10:25:25Z</time>
      </trkpt>
      <trkpt lat="48.06904" lon="-3.50465">
        <ele>180.5</ele>
        <time>2025-02-26T10:25:26Z</time>
      </trkpt>
      <trkpt lat="48.06903" lon="-3.50464">
        <ele>180.5</ele>
        <time>2025-02-26T10:25:27Z</time>
      </trkpt>
      <trkpt lat="48.06902" lon="-3.50464">
        <ele>180.5</ele>
        <time>2025-02-26T10:25:28Z</time>
      </trkpt>
      <trkpt lat="48.06901" lon="-3.50463">
        <ele>180.6</ele>
        <time>2025-02-26T10:25:29Z</time>
      </trkpt>
      <trkpt lat="48.069" lon="-3.50463">
        <ele>180.6</ele>
        <time>2025-02-26T10:25:30Z</time>
      </trkpt>
      <trkpt lat="48.06899" lon="-3.50462">
        <ele>180.6</ele>
        <time>2025-02-26T10:25:31Z</time>
      </trkpt>
      <trkpt lat="48.06898" lon="-3.50462">
        <ele>180.7</ele>
        <time>2025-02-26T10:25:32Z</time>
      </trkpt>
      <trkpt lat="48.06897" lon="-3.50461">
        <ele>180.7</ele>
        <time>2025-02-26T10:25:33Z</time>
      </trkpt>
      <trkpt lat="48.06896" lon="-3.50461">
        <ele>180.8</ele>
        <time>2025-02-26T10:25:34Z</time>
      </trkpt>
      <trkpt lat="48.06895" lon="-3.50461">
        <ele>180.8</ele>
        <time>2025-02-26T10:25:35Z</time>
      </trkpt>
      <trkpt lat="48.06894" lon="-3.5046">
        <ele>180.8</ele>
        <time>2025-02-26T10:25:36Z</time>
      </trkpt>
      <trkpt lat="48.06892" lon="-3.5046">
        <ele>180.9</ele>
        <time>2025-02-26T10:25:37Z</time>
      </trkpt>
      <trkpt lat="48.06891" lon="-3.50459">
        <ele>180.9</ele>
        <time>2025-02-26T10:25:38Z</time>
      </trkpt>
      <trkpt lat="48.06891" lon="-3.50459">
        <ele>180.9</ele>
        <time>2025-02-26T10:25:39Z</time>
      </trkpt>
      <trkpt lat="48.0689" lon="-3.50458">
        <ele>181</ele>
        <time>2025-02-26T10:25:40Z</time>
      </trkpt>
      <trkpt lat="48.06889" lon="-3.50458">
        <ele>181</ele>
        <time>2025-02-26T10:25:41Z</time>
      </trkpt>
      <trkpt lat="48.06888" lon="-3.50458">
        <ele>181</ele>
        <time>2025-02-26T10:25:42Z</time>
      </trkpt>
      <trkpt lat="48.06887" lon="-3.50457">
        <ele>181</ele>
        <time>2025-02-26T10:25:43Z</time>
      </trkpt>
      <trkpt lat="48.06885" lon="-3.50457">
        <ele>181.1</ele>
        <time>2025-02-26T10:25:44Z</time>
      </trkpt>
      <trkpt lat="48.06884" lon="-3.50458">
        <ele>181.1</ele>
        <time>2025-02-26T10:25:45Z</time>
      </trkpt>
      <trkpt lat="48.06883" lon="-3.50458">
        <ele>181.1</ele>
        <time>2025-02-26T10:25:46Z</time>
      </trkpt>
      <trkpt lat="48.06882" lon="-3.50458">
        <ele>181.1</ele>
        <time>2025-02-26T10:25:47Z</time>
      </trkpt>
      <trkpt lat="48.06881" lon="-3.50458">
        <ele>181.1</ele>
        <time>2025-02-26T10:25:48Z</time>
      </trkpt>
      <trkpt lat="48.06881" lon="-3.50459">
        <ele>181.2</ele>
        <time>2025-02-26T10:25:49Z</time>
      </trkpt>
      <trkpt lat="48.0688" lon="-3.5046">
        <ele>181.2</ele>
        <time>2025-02-26T10:25:50Z</time>
      </trkpt>
      <trkpt lat="48.06879" lon="-3.50461">
        <ele>181.2</ele>
        <time>2025-02-26T10:25:51Z</time>
      </trkpt>
      <trkpt lat="48.06878" lon="-3.50462">
        <ele>181.3</ele>
        <time>2025-02-26T10:25:52Z</time>
      </trkpt>
      <trkpt lat="48.06876" lon="-3.50463">
        <ele>181.3</ele>
        <time>2025-02-26T10:25:53Z</time>
      </trkpt>
      <trkpt lat="48.06875" lon="-3.50463">
        <ele>181.3</ele>
        <time>2025-02-26T10:25:54Z</time>
      </trkpt>
      <trkpt lat="48.06874" lon="-3.50464">
        <ele>181.4</ele>
        <time>2025-02-26T10:25:55Z</time>
      </trkpt>
      <trkpt lat="48.06873" lon="-3.50465">
        <ele>181.4</ele>
        <time>2025-02-26T10:25:56Z</time>
      </trkpt>
      <trkpt lat="48.06872" lon="-3.50466">
        <ele>181.5</ele>
        <time>2025-02-26T10:25:57Z</time>
      </trkpt>
      <trkpt lat="48.06871" lon="-3.50467">
        <ele>181.5</ele>
        <time>2025-02-26T10:25:58Z</time>
      </trkpt>
      <trkpt lat="48.0687" lon="-3.50468">
        <ele>181.6</ele>
        <time>2025-02-26T10:25:59Z</time>
      </trkpt>
      <trkpt lat="48.06868" lon="-3.50468">
        <ele>181.6</ele>
        <time>2025-02-26T10:26:00Z</time>
      </trkpt>
      <trkpt lat="48.06867" lon="-3.50468">
        <ele>181.7</ele>
        <time>2025-02-26T10:26:01Z</time>
      </trkpt>
      <trkpt lat="48.06866" lon="-3.50469">
        <ele>181.7</ele>
        <time>2025-02-26T10:26:02Z</time>
      </trkpt>
      <trkpt lat="48.06865" lon="-3.5047">
        <ele>181.8</ele>
        <time>2025-02-26T10:26:03Z</time>
      </trkpt>
      <trkpt lat="48.06864" lon="-3.5047">
        <ele>181.8</ele>
        <time>2025-02-26T10:26:04Z</time>
      </trkpt>
      <trkpt lat="48.06863" lon="-3.50471">
        <ele>181.9</ele>
        <time>2025-02-26T10:26:05Z</time>
      </trkpt>
      <trkpt lat="48.06862" lon="-3.50472">
        <ele>181.9</ele>
        <time>2025-02-26T10:26:06Z</time>
      </trkpt>
      <trkpt lat="48.06861" lon="-3.50473">
        <ele>182</ele>
        <time>2025-02-26T10:26:07Z</time>
      </trkpt>
      <trkpt lat="48.0686" lon="-3.50473">
        <ele>182</ele>
        <time>2025-02-26T10:26:08Z</time>
      </trkpt>
      <trkpt lat="48.06859" lon="-3.50473">
        <ele>182</ele>
        <time>2025-02-26T10:26:09Z</time>
      </trkpt>
      <trkpt lat="48.06858" lon="-3.50473">
        <ele>182</ele>
        <time>2025-02-26T10:26:10Z</time>
      </trkpt>
      <trkpt lat="48.06858" lon="-3.50474">
        <ele>182</ele>
        <time>2025-02-26T10:26:11Z</time>
      </trkpt>
      <trkpt lat="48.06857" lon="-3.50475">
        <ele>182</ele>
        <time>2025-02-26T10:26:12Z</time>
      </trkpt>
      <trkpt lat="48.06856" lon="-3.50476">
        <ele>182</ele>
        <time>2025-02-26T10:26:13Z</time>
      </trkpt>
      <trkpt lat="48.06855" lon="-3.50477">
        <ele>182</ele>
        <time>2025-02-26T10:26:14Z</time>
      </trkpt>
      <trkpt lat="48.06854" lon="-3.50478">
        <ele>182</ele>
        <time>2025-02-26T10:26:15Z</time>
      </trkpt>
      <trkpt lat="48.06853" lon="-3.50478">
        <ele>182.1</ele>
        <time>2025-02-26T10:26:16Z</time>
      </trkpt>
      <trkpt lat="48.06852" lon="-3.50479">
        <ele>182.1</ele>
        <time>2025-02-26T10:26:17Z</time>
      </trkpt>
      <trkpt lat="48.06851" lon="-3.50479">
        <ele>182.1</ele>
        <time>2025-02-26T10:26:18Z</time>
      </trkpt>
      <trkpt lat="48.0685" lon="-3.5048">
        <ele>182.1</ele>
        <time>2025-02-26T10:26:19Z</time>
      </trkpt>
      <trkpt lat="48.06849" lon="-3.5048">
        <ele>182.1</ele>
        <time>2025-02-26T10:26:20Z</time>
      </trkpt>
      <trkpt lat="48.06848" lon="-3.50481">
        <ele>182.1</ele>
        <time>2025-02-26T10:26:21Z</time>
      </trkpt>
      <trkpt lat="48.06847" lon="-3.50482">
        <ele>182.2</ele>
        <time>2025-02-26T10:26:22Z</time>
      </trkpt>
      <trkpt lat="48.06846" lon="-3.50482">
        <ele>182.2</ele>
        <time>2025-02-26T10:26:23Z</time>
      </trkpt>
      <trkpt lat="48.06845" lon="-3.50483">
        <ele>182.2</ele>
        <time>2025-02-26T10:26:24Z</time>
      </trkpt>
      <trkpt lat="48.06844" lon="-3.50483">
        <ele>182.3</ele>
        <time>2025-02-26T10:26:25Z</time>
      </trkpt>
      <trkpt lat="48.06843" lon="-3.50484">
        <ele>182.3</ele>
        <time>2025-02-26T10:26:26Z</time>
      </trkpt>
      <trkpt lat="48.06841" lon="-3.50485">
        <ele>182.3</ele>
        <time>2025-02-26T10:26:27Z</time>
      </trkpt>
      <trkpt lat="48.0684" lon="-3.50485">
        <ele>182.4</ele>
        <time>2025-02-26T10:26:28Z</time>
      </trkpt>
      <trkpt lat="48.06839" lon="-3.50485">
        <ele>182.4</ele>
        <time>2025-02-26T10:26:29Z</time>
      </trkpt>
      <trkpt lat="48.06837" lon="-3.50485">
        <ele>182.4</ele>
        <time>2025-02-26T10:26:30Z</time>
      </trkpt>
      <trkpt lat="48.06836" lon="-3.50486">
        <ele>182.5</ele>
        <time>2025-02-26T10:26:31Z</time>
      </trkpt>
      <trkpt lat="48.06835" lon="-3.50486">
        <ele>182.5</ele>
        <time>2025-02-26T10:26:32Z</time>
      </trkpt>
      <trkpt lat="48.06834" lon="-3.50486">
        <ele>182.5</ele>
        <time>2025-02-26T10:26:33Z</time>
      </trkpt>
      <trkpt lat="48.06833" lon="-3.50486">
        <ele>182.5</ele>
        <time>2025-02-26T10:26:34Z</time>
      </trkpt>
      <trkpt lat="48.06832" lon="-3.50485">
        <ele>182.5</ele>
        <time>2025-02-26T10:26:35Z</time>
      </trkpt>
      <trkpt lat="48.0683" lon="-3.50484">
        <ele>182.5</ele>
        <time>2025-02-26T10:26:36Z</time>
      </trkpt>
      <trkpt lat="48.06829" lon="-3.50484">
        <ele>182.5</ele>
        <time>2025-02-26T10:26:37Z</time>
      </trkpt>
      <trkpt lat="48.06828" lon="-3.50483">
        <ele>182.5</ele>
        <time>2025-02-26T10:26:38Z</time>
      </trkpt>
      <trkpt lat="48.06827" lon="-3.50482">
        <ele>182.4</ele>
        <time>2025-02-26T10:26:39Z</time>
      </trkpt>
      <trkpt lat="48.06826" lon="-3.50481">
        <ele>182.4</ele>
        <time>2025-02-26T10:26:40Z</time>
      </trkpt>
      <trkpt lat="48.06824" lon="-3.50481">
        <ele>182.4</ele>
        <time>2025-02-26T10:26:41Z</time>
      </trkpt>
      <trkpt lat="48.06823" lon="-3.5048">
        <ele>182.4</ele>
        <time>2025-02-26T10:26:42Z</time>
      </trkpt>
      <trkpt lat="48.06822" lon="-3.50481">
        <ele>182.4</ele>
        <time>2025-02-26T10:26:43Z</time>
      </trkpt>
      <trkpt lat="48.06821" lon="-3.50482">
        <ele>182.5</ele>
        <time>2025-02-26T10:26:44Z</time>
      </trkpt>
      <trkpt lat="48.0682" lon="-3.50483">
        <ele>182.6</ele>
        <time>2025-02-26T10:26:45Z</time>
      </trkpt>
      <trkpt lat="48.06819" lon="-3.50481">
        <ele>182.5</ele>
        <time>2025-02-26T10:26:46Z</time>
      </trkpt>
      <trkpt lat="48.06818" lon="-3.5048">
        <ele>182.4</ele>
        <time>2025-02-26T10:26:47Z</time>
      </trkpt>
      <trkpt lat="48.06817" lon="-3.50479">
        <ele>182.4</ele>
        <time>2025-02-26T10:26:48Z</time>
      </trkpt>
      <trkpt lat="48.06817" lon="-3.50477">
        <ele>182.3</ele>
        <time>2025-02-26T10:26:49Z</time>
      </trkpt>
      <trkpt lat="48.06816" lon="-3.50476">
        <ele>182.2</ele>
        <time>2025-02-26T10:26:50Z</time>
      </trkpt>
      <trkpt lat="48.06815" lon="-3.50474">
        <ele>182.1</ele>
        <time>2025-02-26T10:26:51Z</time>
      </trkpt>
      <trkpt lat="48.06815" lon="-3.50472">
        <ele>182</ele>
        <time>2025-02-26T10:26:52Z</time>
      </trkpt>
      <trkpt lat="48.06815" lon="-3.5047">
        <ele>181.9</ele>
        <time>2025-02-26T10:26:53Z</time>
      </trkpt>
      <trkpt lat="48.06814" lon="-3.50468">
        <ele>181.8</ele>
        <time>2025-02-26T10:26:54Z</time>
      </trkpt>
      <trkpt lat="48.06813" lon="-3.50467">
        <ele>181.7</ele>
        <time>2025-02-26T10:26:55Z</time>
      </trkpt>
      <trkpt lat="48.06812" lon="-3.50466">
        <ele>181.6</ele>
        <time>2025-02-26T10:26:56Z</time>
      </trkpt>
      <trkpt lat="48.06811" lon="-3.50465">
        <ele>181.5</ele>
        <time>2025-02-26T10:26:57Z</time>
      </trkpt>
      <trkpt lat="48.06811" lon="-3.50463">
        <ele>181.4</ele>
        <time>2025-02-26T10:26:58Z</time>
      </trkpt>
      <trkpt lat="48.0681" lon="-3.50462">
        <ele>181.3</ele>
        <time>2025-02-26T10:26:59Z</time>
      </trkpt>
      <trkpt lat="48.06809" lon="-3.50461">
        <ele>181.2</ele>
        <time>2025-02-26T10:27:00Z</time>
      </trkpt>
      <trkpt lat="48.06808" lon="-3.50459">
        <ele>181.1</ele>
        <time>2025-02-26T10:27:01Z</time>
      </trkpt>
      <trkpt lat="48.06807" lon="-3.50458">
        <ele>181</ele>
        <time>2025-02-26T10:27:02Z</time>
      </trkpt>
      <trkpt lat="48.06806" lon="-3.50457">
        <ele>180.9</ele>
        <time>2025-02-26T10:27:03Z</time>
      </trkpt>
      <trkpt lat="48.06805" lon="-3.50456">
        <ele>180.9</ele>
        <time>2025-02-26T10:27:04Z</time>
      </trkpt>
      <trkpt lat="48.06805" lon="-3.50455">
        <ele>180.8</ele>
        <time>2025-02-26T10:27:05Z</time>
      </trkpt>
      <trkpt lat="48.06803" lon="-3.50454">
        <ele>180.8</ele>
        <time>2025-02-26T10:27:06Z</time>
      </trkpt>
      <trkpt lat="48.06802" lon="-3.50452">
        <ele>180.8</ele>
        <time>2025-02-26T10:27:07Z</time>
      </trkpt>
      <trkpt lat="48.06801" lon="-3.50451">
        <ele>180.7</ele>
        <time>2025-02-26T10:27:08Z</time>
      </trkpt>
      <trkpt lat="48.068" lon="-3.50449">
        <ele>180.7</ele>
        <time>2025-02-26T10:27:09Z</time>
      </trkpt>
      <trkpt lat="48.06799" lon="-3.50448">
        <ele>180.7</ele>
        <time>2025-02-26T10:27:10Z</time>
      </trkpt>
      <trkpt lat="48.06799" lon="-3.50447">
        <ele>180.6</ele>
        <time>2025-02-26T10:27:11Z</time>
      </trkpt>
      <trkpt lat="48.06798" lon="-3.50446">
        <ele>180.6</ele>
        <time>2025-02-26T10:27:12Z</time>
      </trkpt>
      <trkpt lat="48.06797" lon="-3.50444">
        <ele>180.6</ele>
        <time>2025-02-26T10:27:13Z</time>
      </trkpt>
      <trkpt lat="48.06796" lon="-3.50444">
        <ele>180.6</ele>
        <time>2025-02-26T10:27:14Z</time>
      </trkpt>
      <trkpt lat="48.06795" lon="-3.50443">
        <ele>180.7</ele>
        <time>2025-02-26T10:27:15Z</time>
      </trkpt>
      <trkpt lat="48.06794" lon="-3.50442">
        <ele>180.7</ele>
        <time>2025-02-26T10:27:16Z</time>
      </trkpt>
      <trkpt lat="48.06793" lon="-3.50439">
        <ele>180.5</ele>
        <time>2025-02-26T10:27:17Z</time>
      </trkpt>
      <trkpt lat="48.06792" lon="-3.50438">
        <ele>180.5</ele>
        <time>2025-02-26T10:27:18Z</time>
      </trkpt>
      <trkpt lat="48.06792" lon="-3.50436">
        <ele>180.4</ele>
        <time>2025-02-26T10:27:19Z</time>
      </trkpt>
      <trkpt lat="48.06791" lon="-3.50435">
        <ele>180.3</ele>
        <time>2025-02-26T10:27:20Z</time>
      </trkpt>
      <trkpt lat="48.0679" lon="-3.50434">
        <ele>180.3</ele>
        <time>2025-02-26T10:27:21Z</time>
      </trkpt>
      <trkpt lat="48.06789" lon="-3.50433">
        <ele>180.3</ele>
        <time>2025-02-26T10:27:22Z</time>
      </trkpt>
      <trkpt lat="48.06788" lon="-3.50431">
        <ele>180.2</ele>
        <time>2025-02-26T10:27:23Z</time>
      </trkpt>
      <trkpt lat="48.06787" lon="-3.5043">
        <ele>180.1</ele>
        <time>2025-02-26T10:27:24Z</time>
      </trkpt>
      <trkpt lat="48.06786" lon="-3.50429">
        <ele>180.1</ele>
        <time>2025-02-26T10:27:25Z</time>
      </trkpt>
      <trkpt lat="48.06785" lon="-3.50429">
        <ele>180.1</ele>
        <time>2025-02-26T10:27:26Z</time>
      </trkpt>
      <trkpt lat="48.06784" lon="-3.50427">
        <ele>180</ele>
        <time>2025-02-26T10:27:27Z</time>
      </trkpt>
      <trkpt lat="48.06784" lon="-3.50426">
        <ele>179.9</ele>
        <time>2025-02-26T10:27:28Z</time>
      </trkpt>
      <trkpt lat="48.06783" lon="-3.50425">
        <ele>179.8</ele>
        <time>2025-02-26T10:27:29Z</time>
      </trkpt>
      <trkpt lat="48.06781" lon="-3.50424">
        <ele>179.8</ele>
        <time>2025-02-26T10:27:30Z</time>
      </trkpt>
      <trkpt lat="48.0678" lon="-3.50423">
        <ele>179.7</ele>
        <time>2025-02-26T10:27:31Z</time>
      </trkpt>
      <trkpt lat="48.06779" lon="-3.50422">
        <ele>179.6</ele>
        <time>2025-02-26T10:27:32Z</time>
      </trkpt>
      <trkpt lat="48.06778" lon="-3.50421">
        <ele>179.5</ele>
        <time>2025-02-26T10:27:33Z</time>
      </trkpt>
      <trkpt lat="48.06777" lon="-3.5042">
        <ele>179.4</ele>
        <time>2025-02-26T10:27:34Z</time>
      </trkpt>
      <trkpt lat="48.06776" lon="-3.50419">
        <ele>179.5</ele>
        <time>2025-02-26T10:27:35Z</time>
      </trkpt>
      <trkpt lat="48.06775" lon="-3.50418">
        <ele>179.4</ele>
        <time>2025-02-26T10:27:36Z</time>
      </trkpt>
      <trkpt lat="48.06775" lon="-3.50417">
        <ele>179.4</ele>
        <time>2025-02-26T10:27:37Z</time>
      </trkpt>
      <trkpt lat="48.06773" lon="-3.50416">
        <ele>179.4</ele>
        <time>2025-02-26T10:27:38Z</time>
      </trkpt>
      <trkpt lat="48.06773" lon="-3.50415">
        <ele>179.4</ele>
        <time>2025-02-26T10:27:39Z</time>
      </trkpt>
      <trkpt lat="48.06772" lon="-3.50413">
        <ele>179.3</ele>
        <time>2025-02-26T10:27:40Z</time>
      </trkpt>
      <trkpt lat="48.06771" lon="-3.50412">
        <ele>179.2</ele>
        <time>2025-02-26T10:27:41Z</time>
      </trkpt>
      <trkpt lat="48.0677" lon="-3.50411">
        <ele>179.2</ele>
        <time>2025-02-26T10:27:42Z</time>
      </trkpt>
      <trkpt lat="48.06769" lon="-3.5041">
        <ele>179.2</ele>
        <time>2025-02-26T10:27:43Z</time>
      </trkpt>
      <trkpt lat="48.06769" lon="-3.50408">
        <ele>179</ele>
        <time>2025-02-26T10:27:44Z</time>
      </trkpt>
      <trkpt lat="48.06768" lon="-3.50407">
        <ele>179</ele>
        <time>2025-02-26T10:27:45Z</time>
      </trkpt>
      <trkpt lat="48.06767" lon="-3.50406">
        <ele>178.9</ele>
        <time>2025-02-26T10:27:46Z</time>
      </trkpt>
      <trkpt lat="48.06766" lon="-3.50405">
        <ele>178.9</ele>
        <time>2025-02-26T10:27:47Z</time>
      </trkpt>
      <trkpt lat="48.06765" lon="-3.50404">
        <ele>179</ele>
        <time>2025-02-26T10:27:48Z</time>
      </trkpt>
      <trkpt lat="48.06765" lon="-3.50403">
        <ele>178.9</ele>
        <time>2025-02-26T10:27:49Z</time>
      </trkpt>
      <trkpt lat="48.06764" lon="-3.50402">
        <ele>178.9</ele>
        <time>2025-02-26T10:27:50Z</time>
      </trkpt>
      <trkpt lat="48.06763" lon="-3.50401">
        <ele>178.9</ele>
        <time>2025-02-26T10:27:51Z</time>
      </trkpt>
      <trkpt lat="48.06762" lon="-3.50399">
        <ele>178.8</ele>
        <time>2025-02-26T10:27:52Z</time>
      </trkpt>
      <trkpt lat="48.06761" lon="-3.50397">
        <ele>178.7</ele>
        <time>2025-02-26T10:27:53Z</time>
      </trkpt>
      <trkpt lat="48.06761" lon="-3.50396">
        <ele>178.6</ele>
        <time>2025-02-26T10:27:54Z</time>
      </trkpt>
      <trkpt lat="48.0676" lon="-3.50395">
        <ele>178.6</ele>
        <time>2025-02-26T10:27:55Z</time>
      </trkpt>
      <trkpt lat="48.06759" lon="-3.50394">
        <ele>178.6</ele>
        <time>2025-02-26T10:27:56Z</time>
      </trkpt>
      <trkpt lat="48.06758" lon="-3.50393">
        <ele>178.6</ele>
        <time>2025-02-26T10:27:57Z</time>
      </trkpt>
      <trkpt lat="48.06757" lon="-3.50393">
        <ele>178.7</ele>
        <time>2025-02-26T10:27:58Z</time>
      </trkpt>
      <trkpt lat="48.06756" lon="-3.50392">
        <ele>178.7</ele>
        <time>2025-02-26T10:27:59Z</time>
      </trkpt>
      <trkpt lat="48.06755" lon="-3.50391">
        <ele>178.6</ele>
        <time>2025-02-26T10:28:00Z</time>
      </trkpt>
      <trkpt lat="48.06754" lon="-3.5039">
        <ele>178.7</ele>
        <time>2025-02-26T10:28:01Z</time>
      </trkpt>
      <trkpt lat="48.06753" lon="-3.50389">
        <ele>178.6</ele>
        <time>2025-02-26T10:28:02Z</time>
      </trkpt>
      <trkpt lat="48.06752" lon="-3.50387">
        <ele>178.5</ele>
        <time>2025-02-26T10:28:03Z</time>
      </trkpt>
      <trkpt lat="48.06752" lon="-3.50386">
        <ele>178.5</ele>
        <time>2025-02-26T10:28:04Z</time>
      </trkpt>
      <trkpt lat="48.06751" lon="-3.50386">
        <ele>178.5</ele>
        <time>2025-02-26T10:28:05Z</time>
      </trkpt>
      <trkpt lat="48.0675" lon="-3.50385">
        <ele>178.4</ele>
        <time>2025-02-26T10:28:06Z</time>
      </trkpt>
      <trkpt lat="48.06749" lon="-3.50384">
        <ele>178.4</ele>
        <time>2025-02-26T10:28:07Z</time>
      </trkpt>
      <trkpt lat="48.06748" lon="-3.50383">
        <ele>178.4</ele>
        <time>2025-02-26T10:28:08Z</time>
      </trkpt>
      <trkpt lat="48.06747" lon="-3.50382">
        <ele>178.3</ele>
        <time>2025-02-26T10:28:09Z</time>
      </trkpt>
      <trkpt lat="48.06746" lon="-3.50382">
        <ele>178.3</ele>
        <time>2025-02-26T10:28:10Z</time>
      </trkpt>
      <trkpt lat="48.06745" lon="-3.5038">
        <ele>178.2</ele>
        <time>2025-02-26T10:28:11Z</time>
      </trkpt>
      <trkpt lat="48.06745" lon="-3.50379">
        <ele>178.1</ele>
        <time>2025-02-26T10:28:12Z</time>
      </trkpt>
      <trkpt lat="48.06744" lon="-3.50378">
        <ele>178.1</ele>
        <time>2025-02-26T10:28:13Z</time>
      </trkpt>
      <trkpt lat="48.06743" lon="-3.50377">
        <ele>178.1</ele>
        <time>2025-02-26T10:28:14Z</time>
      </trkpt>
      <trkpt lat="48.06742" lon="-3.50376">
        <ele>178</ele>
        <time>2025-02-26T10:28:15Z</time>
      </trkpt>
      <trkpt lat="48.06741" lon="-3.50375">
        <ele>178</ele>
        <time>2025-02-26T10:28:16Z</time>
      </trkpt>
      <trkpt lat="48.0674" lon="-3.50374">
        <ele>178</ele>
        <time>2025-02-26T10:28:17Z</time>
      </trkpt>
      <trkpt lat="48.06739" lon="-3.50373">
        <ele>178</ele>
        <time>2025-02-26T10:28:18Z</time>
      </trkpt>
      <trkpt lat="48.06738" lon="-3.50372">
        <ele>178</ele>
        <time>2025-02-26T10:28:19Z</time>
      </trkpt>
      <trkpt lat="48.06737" lon="-3.50371">
        <ele>178</ele>
        <time>2025-02-26T10:28:20Z</time>
      </trkpt>
      <trkpt lat="48.06736" lon="-3.5037">
        <ele>178</ele>
        <time>2025-02-26T10:28:21Z</time>
      </trkpt>
      <trkpt lat="48.06735" lon="-3.50369">
        <ele>178</ele>
        <time>2025-02-26T10:28:22Z</time>
      </trkpt>
      <trkpt lat="48.06734" lon="-3.50368">
        <ele>178</ele>
        <time>2025-02-26T10:28:23Z</time>
      </trkpt>
      <trkpt lat="48.06733" lon="-3.50367">
        <ele>178</ele>
        <time>2025-02-26T10:28:24Z</time>
      </trkpt>
      <trkpt lat="48.06733" lon="-3.50367">
        <ele>178.1</ele>
        <time>2025-02-26T10:28:25Z</time>
      </trkpt>
      <trkpt lat="48.06732" lon="-3.50366">
        <ele>178.1</ele>
        <time>2025-02-26T10:28:26Z</time>
      </trkpt>
      <trkpt lat="48.06731" lon="-3.50364">
        <ele>178</ele>
        <time>2025-02-26T10:28:27Z</time>
      </trkpt>
      <trkpt lat="48.0673" lon="-3.50363">
        <ele>178</ele>
        <time>2025-02-26T10:28:28Z</time>
      </trkpt>
      <trkpt lat="48.06729" lon="-3.50361">
        <ele>178</ele>
        <time>2025-02-26T10:28:29Z</time>
      </trkpt>
      <trkpt lat="48.06728" lon="-3.5036">
        <ele>178</ele>
        <time>2025-02-26T10:28:30Z</time>
      </trkpt>
      <trkpt lat="48.06727" lon="-3.5036">
        <ele>178.1</ele>
        <time>2025-02-26T10:28:31Z</time>
      </trkpt>
      <trkpt lat="48.06726" lon="-3.50359">
        <ele>178.1</ele>
        <time>2025-02-26T10:28:32Z</time>
      </trkpt>
      <trkpt lat="48.06725" lon="-3.50358">
        <ele>178.2</ele>
        <time>2025-02-26T10:28:33Z</time>
      </trkpt>
      <trkpt lat="48.06724" lon="-3.50357">
        <ele>178.2</ele>
        <time>2025-02-26T10:28:34Z</time>
      </trkpt>
      <trkpt lat="48.06723" lon="-3.50355">
        <ele>178.2</ele>
        <time>2025-02-26T10:28:35Z</time>
      </trkpt>
      <trkpt lat="48.06722" lon="-3.50354">
        <ele>178.2</ele>
        <time>2025-02-26T10:28:36Z</time>
      </trkpt>
      <trkpt lat="48.06721" lon="-3.50354">
        <ele>178.3</ele>
        <time>2025-02-26T10:28:37Z</time>
      </trkpt>
      <trkpt lat="48.0672" lon="-3.50352">
        <ele>178.1</ele>
        <time>2025-02-26T10:28:38Z</time>
      </trkpt>
      <trkpt lat="48.06719" lon="-3.50351">
        <ele>178</ele>
        <time>2025-02-26T10:28:39Z</time>
      </trkpt>
      <trkpt lat="48.06718" lon="-3.5035">
        <ele>178</ele>
        <time>2025-02-26T10:28:40Z</time>
      </trkpt>
      <trkpt lat="48.06717" lon="-3.50348">
        <ele>177.9</ele>
        <time>2025-02-26T10:28:41Z</time>
      </trkpt>
      <trkpt lat="48.06717" lon="-3.50347">
        <ele>177.8</ele>
        <time>2025-02-26T10:28:42Z</time>
      </trkpt>
      <trkpt lat="48.06716" lon="-3.50346">
        <ele>177.7</ele>
        <time>2025-02-26T10:28:43Z</time>
      </trkpt>
      <trkpt lat="48.06715" lon="-3.50345">
        <ele>177.6</ele>
        <time>2025-02-26T10:28:44Z</time>
      </trkpt>
      <trkpt lat="48.06714" lon="-3.50344">
        <ele>177.6</ele>
        <time>2025-02-26T10:28:45Z</time>
      </trkpt>
      <trkpt lat="48.06713" lon="-3.50343">
        <ele>177.6</ele>
        <time>2025-02-26T10:28:46Z</time>
      </trkpt>
      <trkpt lat="48.06712" lon="-3.50342">
        <ele>177.5</ele>
        <time>2025-02-26T10:28:47Z</time>
      </trkpt>
      <trkpt lat="48.06711" lon="-3.50341">
        <ele>177.5</ele>
        <time>2025-02-26T10:28:48Z</time>
      </trkpt>
      <trkpt lat="48.0671" lon="-3.50339">
        <ele>177.4</ele>
        <time>2025-02-26T10:28:49Z</time>
      </trkpt>
      <trkpt lat="48.0671" lon="-3.50338">
        <ele>177.4</ele>
        <time>2025-02-26T10:28:50Z</time>
      </trkpt>
      <trkpt lat="48.06709" lon="-3.50336">
        <ele>177.2</ele>
        <time>2025-02-26T10:28:51Z</time>
      </trkpt>
      <trkpt lat="48.06708" lon="-3.50335">
        <ele>177.2</ele>
        <time>2025-02-26T10:28:52Z</time>
      </trkpt>
      <trkpt lat="48.06707" lon="-3.50334">
        <ele>177.2</ele>
        <time>2025-02-26T10:28:53Z</time>
      </trkpt>
      <trkpt lat="48.06706" lon="-3.50334">
        <ele>177.2</ele>
        <time>2025-02-26T10:28:54Z</time>
      </trkpt>
      <trkpt lat="48.06705" lon="-3.50332">
        <ele>177.1</ele>
        <time>2025-02-26T10:28:55Z</time>
      </trkpt>
      <trkpt lat="48.06704" lon="-3.50331">
        <ele>177.1</ele>
        <time>2025-02-26T10:28:56Z</time>
      </trkpt>
      <trkpt lat="48.06703" lon="-3.5033">
        <ele>177.1</ele>
        <time>2025-02-26T10:28:57Z</time>
      </trkpt>
      <trkpt lat="48.06703" lon="-3.50329">
        <ele>177.1</ele>
        <time>2025-02-26T10:28:58Z</time>
      </trkpt>
      <trkpt lat="48.06702" lon="-3.50328">
        <ele>177.1</ele>
        <time>2025-02-26T10:28:59Z</time>
      </trkpt>
      <trkpt lat="48.06701" lon="-3.50327">
        <ele>177</ele>
        <time>2025-02-26T10:29:00Z</time>
      </trkpt>
      <trkpt lat="48.06699" lon="-3.50326">
        <ele>177.1</ele>
        <time>2025-02-26T10:29:01Z</time>
      </trkpt>
      <trkpt lat="48.06698" lon="-3.50326">
        <ele>177.1</ele>
        <time>2025-02-26T10:29:02Z</time>
      </trkpt>
      <trkpt lat="48.06697" lon="-3.50326">
        <ele>177.2</ele>
        <time>2025-02-26T10:29:03Z</time>
      </trkpt>
      <trkpt lat="48.06696" lon="-3.50325">
        <ele>177.2</ele>
        <time>2025-02-26T10:29:04Z</time>
      </trkpt>
      <trkpt lat="48.06695" lon="-3.50324">
        <ele>177.3</ele>
        <time>2025-02-26T10:29:05Z</time>
      </trkpt>
      <trkpt lat="48.06694" lon="-3.50323">
        <ele>177.3</ele>
        <time>2025-02-26T10:29:06Z</time>
      </trkpt>
      <trkpt lat="48.06693" lon="-3.50322">
        <ele>177.3</ele>
        <time>2025-02-26T10:29:07Z</time>
      </trkpt>
      <trkpt lat="48.06692" lon="-3.50321">
        <ele>177.2</ele>
        <time>2025-02-26T10:29:08Z</time>
      </trkpt>
      <trkpt lat="48.06691" lon="-3.5032">
        <ele>177.2</ele>
        <time>2025-02-26T10:29:09Z</time>
      </trkpt>
      <trkpt lat="48.0669" lon="-3.5032">
        <ele>177.2</ele>
        <time>2025-02-26T10:29:10Z</time>
      </trkpt>
      <trkpt lat="48.06689" lon="-3.50319">
        <ele>177.2</ele>
        <time>2025-02-26T10:29:11Z</time>
      </trkpt>
      <trkpt lat="48.06688" lon="-3.50318">
        <ele>177.1</ele>
        <time>2025-02-26T10:29:12Z</time>
      </trkpt>
      <trkpt lat="48.06687" lon="-3.50317">
        <ele>177.1</ele>
        <time>2025-02-26T10:29:13Z</time>
      </trkpt>
      <trkpt lat="48.06686" lon="-3.50316">
        <ele>177.1</ele>
        <time>2025-02-26T10:29:14Z</time>
      </trkpt>
      <trkpt lat="48.06685" lon="-3.50316">
        <ele>177.1</ele>
        <time>2025-02-26T10:29:15Z</time>
      </trkpt>
      <trkpt lat="48.06684" lon="-3.50315">
        <ele>177.1</ele>
        <time>2025-02-26T10:29:16Z</time>
      </trkpt>
      <trkpt lat="48.06683" lon="-3.50314">
        <ele>177.1</ele>
        <time>2025-02-26T10:29:17Z</time>
      </trkpt>
      <trkpt lat="48.06681" lon="-3.50314">
        <ele>177.1</ele>
        <time>2025-02-26T10:29:18Z</time>
      </trkpt>
      <trkpt lat="48.0668" lon="-3.50313">
        <ele>177.1</ele>
        <time>2025-02-26T10:29:19Z</time>
      </trkpt>
      <trkpt lat="48.06679" lon="-3.50313">
        <ele>177.1</ele>
        <time>2025-02-26T10:29:20Z</time>
      </trkpt>
      <trkpt lat="48.06678" lon="-3.50312">
        <ele>177</ele>
        <time>2025-02-26T10:29:21Z</time>
      </trkpt>
      <trkpt lat="48.06677" lon="-3.50311">
        <ele>177</ele>
        <time>2025-02-26T10:29:22Z</time>
      </trkpt>
      <trkpt lat="48.06676" lon="-3.5031">
        <ele>177</ele>
        <time>2025-02-26T10:29:23Z</time>
      </trkpt>
      <trkpt lat="48.06675" lon="-3.50309">
        <ele>177</ele>
        <time>2025-02-26T10:29:24Z</time>
      </trkpt>
      <trkpt lat="48.06674" lon="-3.50309">
        <ele>176.9</ele>
        <time>2025-02-26T10:29:25Z</time>
      </trkpt>
      <trkpt lat="48.06673" lon="-3.50308">
        <ele>176.9</ele>
        <time>2025-02-26T10:29:26Z</time>
      </trkpt>
      <trkpt lat="48.06672" lon="-3.50308">
        <ele>177</ele>
        <time>2025-02-26T10:29:27Z</time>
      </trkpt>
      <trkpt lat="48.06671" lon="-3.50307">
        <ele>177</ele>
        <time>2025-02-26T10:29:28Z</time>
      </trkpt>
      <trkpt lat="48.0667" lon="-3.50307">
        <ele>177</ele>
        <time>2025-02-26T10:29:29Z</time>
      </trkpt>
      <trkpt lat="48.06669" lon="-3.50308">
        <ele>177.1</ele>
        <time>2025-02-26T10:29:30Z</time>
      </trkpt>
      <trkpt lat="48.06668" lon="-3.50308">
        <ele>177.2</ele>
        <time>2025-02-26T10:29:31Z</time>
      </trkpt>
      <trkpt lat="48.06667" lon="-3.50309">
        <ele>177.2</ele>
        <time>2025-02-26T10:29:32Z</time>
      </trkpt>
      <trkpt lat="48.06665" lon="-3.50308">
        <ele>177.1</ele>
        <time>2025-02-26T10:29:33Z</time>
      </trkpt>
      <trkpt lat="48.06664" lon="-3.50308">
        <ele>177.1</ele>
        <time>2025-02-26T10:29:34Z</time>
      </trkpt>
      <trkpt lat="48.06663" lon="-3.50308">
        <ele>177</ele>
        <time>2025-02-26T10:29:35Z</time>
      </trkpt>
      <trkpt lat="48.06662" lon="-3.50307">
        <ele>176.9</ele>
        <time>2025-02-26T10:29:36Z</time>
      </trkpt>
      <trkpt lat="48.06661" lon="-3.50307">
        <ele>176.9</ele>
        <time>2025-02-26T10:29:37Z</time>
      </trkpt>
      <trkpt lat="48.0666" lon="-3.50307">
        <ele>176.8</ele>
        <time>2025-02-26T10:29:38Z</time>
      </trkpt>
      <trkpt lat="48.06658" lon="-3.50307">
        <ele>176.8</ele>
        <time>2025-02-26T10:29:39Z</time>
      </trkpt>
      <trkpt lat="48.06657" lon="-3.50306">
        <ele>176.7</ele>
        <time>2025-02-26T10:29:40Z</time>
      </trkpt>
      <trkpt lat="48.06656" lon="-3.50306">
        <ele>176.6</ele>
        <time>2025-02-26T10:29:41Z</time>
      </trkpt>
      <trkpt lat="48.06656" lon="-3.50305">
        <ele>176.6</ele>
        <time>2025-02-26T10:29:42Z</time>
      </trkpt>
      <trkpt lat="48.06655" lon="-3.50304">
        <ele>176.5</ele>
        <time>2025-02-26T10:29:43Z</time>
      </trkpt>
      <trkpt lat="48.06654" lon="-3.50304">
        <ele>176.5</ele>
        <time>2025-02-26T10:29:44Z</time>
      </trkpt>
      <trkpt lat="48.06653" lon="-3.50302">
        <ele>176.4</ele>
        <time>2025-02-26T10:29:45Z</time>
      </trkpt>
      <trkpt lat="48.06652" lon="-3.50302">
        <ele>176.4</ele>
        <time>2025-02-26T10:29:46Z</time>
      </trkpt>
      <trkpt lat="48.0665" lon="-3.50301">
        <ele>176.3</ele>
        <time>2025-02-26T10:29:47Z</time>
      </trkpt>
      <trkpt lat="48.0665" lon="-3.503">
        <ele>176.3</ele>
        <time>2025-02-26T10:29:48Z</time>
      </trkpt>
      <trkpt lat="48.06649" lon="-3.50299">
        <ele>176.3</ele>
        <time>2025-02-26T10:29:49Z</time>
      </trkpt>
      <trkpt lat="48.06648" lon="-3.50298">
        <ele>176.2</ele>
        <time>2025-02-26T10:29:50Z</time>
      </trkpt>
      <trkpt lat="48.06647" lon="-3.50297">
        <ele>176.2</ele>
        <time>2025-02-26T10:29:51Z</time>
      </trkpt>
      <trkpt lat="48.06646" lon="-3.50296">
        <ele>176.2</ele>
        <time>2025-02-26T10:29:52Z</time>
      </trkpt>
      <trkpt lat="48.06645" lon="-3.50294">
        <ele>176.1</ele>
        <time>2025-02-26T10:29:53Z</time>
      </trkpt>
      <trkpt lat="48.06644" lon="-3.50293">
        <ele>176.1</ele>
        <time>2025-02-26T10:29:54Z</time>
      </trkpt>
      <trkpt lat="48.06643" lon="-3.50292">
        <ele>176.1</ele>
        <time>2025-02-26T10:29:55Z</time>
      </trkpt>
      <trkpt lat="48.06642" lon="-3.50292">
        <ele>176.1</ele>
        <time>2025-02-26T10:29:56Z</time>
      </trkpt>
      <trkpt lat="48.06641" lon="-3.50291">
        <ele>176</ele>
        <time>2025-02-26T10:29:57Z</time>
      </trkpt>
      <trkpt lat="48.0664" lon="-3.50291">
        <ele>176</ele>
        <time>2025-02-26T10:29:58Z</time>
      </trkpt>
      <trkpt lat="48.06639" lon="-3.50292">
        <ele>176</ele>
        <time>2025-02-26T10:29:59Z</time>
      </trkpt>
      <trkpt lat="48.06638" lon="-3.50293">
        <ele>175.8</ele>
        <time>2025-02-26T10:30:00Z</time>
      </trkpt>
      <trkpt lat="48.06637" lon="-3.50293">
        <ele>175.6</ele>
        <time>2025-02-26T10:30:01Z</time>
      </trkpt>
      <trkpt lat="48.06636" lon="-3.50295">
        <ele>175.5</ele>
        <time>2025-02-26T10:30:02Z</time>
      </trkpt>
      <trkpt lat="48.06636" lon="-3.50297">
        <ele>175.5</ele>
        <time>2025-02-26T10:30:03Z</time>
      </trkpt>
      <trkpt lat="48.06635" lon="-3.50298">
        <ele>175.3</ele>
        <time>2025-02-26T10:30:04Z</time>
      </trkpt>
      <trkpt lat="48.06634" lon="-3.50299">
        <ele>175.2</ele>
        <time>2025-02-26T10:30:05Z</time>
      </trkpt>
      <trkpt lat="48.06633" lon="-3.50301">
        <ele>175.1</ele>
        <time>2025-02-26T10:30:06Z</time>
      </trkpt>
      <trkpt lat="48.06633" lon="-3.50303">
        <ele>175.1</ele>
        <time>2025-02-26T10:30:07Z</time>
      </trkpt>
      <trkpt lat="48.06632" lon="-3.50305">
        <ele>175</ele>
        <time>2025-02-26T10:30:08Z</time>
      </trkpt>
      <trkpt lat="48.06632" lon="-3.50306">
        <ele>175</ele>
        <time>2025-02-26T10:30:09Z</time>
      </trkpt>
      <trkpt lat="48.06631" lon="-3.50307">
        <ele>174.9</ele>
        <time>2025-02-26T10:30:10Z</time>
      </trkpt>
      <trkpt lat="48.0663" lon="-3.50309">
        <ele>174.9</ele>
        <time>2025-02-26T10:30:11Z</time>
      </trkpt>
      <trkpt lat="48.06629" lon="-3.5031">
        <ele>174.8</ele>
        <time>2025-02-26T10:30:12Z</time>
      </trkpt>
      <trkpt lat="48.06628" lon="-3.50311">
        <ele>174.8</ele>
        <time>2025-02-26T10:30:13Z</time>
      </trkpt>
      <trkpt lat="48.06627" lon="-3.50313">
        <ele>174.8</ele>
        <time>2025-02-26T10:30:14Z</time>
      </trkpt>
      <trkpt lat="48.06626" lon="-3.50313">
        <ele>174.7</ele>
        <time>2025-02-26T10:30:15Z</time>
      </trkpt>
      <trkpt lat="48.06625" lon="-3.50314">
        <ele>174.6</ele>
        <time>2025-02-26T10:30:16Z</time>
      </trkpt>
      <trkpt lat="48.06624" lon="-3.50316">
        <ele>174.7</ele>
        <time>2025-02-26T10:30:17Z</time>
      </trkpt>
      <trkpt lat="48.06624" lon="-3.50317">
        <ele>174.7</ele>
        <time>2025-02-26T10:30:18Z</time>
      </trkpt>
      <trkpt lat="48.06623" lon="-3.50318">
        <ele>174.7</ele>
        <time>2025-02-26T10:30:19Z</time>
      </trkpt>
      <trkpt lat="48.06622" lon="-3.50319">
        <ele>174.7</ele>
        <time>2025-02-26T10:30:20Z</time>
      </trkpt>
      <trkpt lat="48.06621" lon="-3.5032">
        <ele>174.7</ele>
        <time>2025-02-26T10:30:21Z</time>
      </trkpt>
      <trkpt lat="48.06621" lon="-3.50322">
        <ele>174.7</ele>
        <time>2025-02-26T10:30:22Z</time>
      </trkpt>
      <trkpt lat="48.0662" lon="-3.50323">
        <ele>174.8</ele>
        <time>2025-02-26T10:30:23Z</time>
      </trkpt>
      <trkpt lat="48.06619" lon="-3.50324">
        <ele>174.7</ele>
        <time>2025-02-26T10:30:24Z</time>
      </trkpt>
      <trkpt lat="48.06618" lon="-3.50325">
        <ele>174.7</ele>
        <time>2025-02-26T10:30:25Z</time>
      </trkpt>
      <trkpt lat="48.06617" lon="-3.50326">
        <ele>174.7</ele>
        <time>2025-02-26T10:30:26Z</time>
      </trkpt>
      <trkpt lat="48.06616" lon="-3.50327">
        <ele>174.7</ele>
        <time>2025-02-26T10:30:27Z</time>
      </trkpt>
      <trkpt lat="48.06615" lon="-3.50327">
        <ele>174.6</ele>
        <time>2025-02-26T10:30:28Z</time>
      </trkpt>
      <trkpt lat="48.06613" lon="-3.50327">
        <ele>174.5</ele>
        <time>2025-02-26T10:30:29Z</time>
      </trkpt>
      <trkpt lat="48.06612" lon="-3.50327">
        <ele>174.4</ele>
        <time>2025-02-26T10:30:30Z</time>
      </trkpt>
      <trkpt lat="48.06611" lon="-3.50327">
        <ele>174.4</ele>
        <time>2025-02-26T10:30:31Z</time>
      </trkpt>
      <trkpt lat="48.0661" lon="-3.50328">
        <ele>174.3</ele>
        <time>2025-02-26T10:30:32Z</time>
      </trkpt>
      <trkpt lat="48.0661" lon="-3.50329">
        <ele>174.3</ele>
        <time>2025-02-26T10:30:33Z</time>
      </trkpt>
      <trkpt lat="48.06609" lon="-3.50331">
        <ele>174.5</ele>
        <time>2025-02-26T10:30:34Z</time>
      </trkpt>
      <trkpt lat="48.06608" lon="-3.50332">
        <ele>174.5</ele>
        <time>2025-02-26T10:30:35Z</time>
      </trkpt>
      <trkpt lat="48.06608" lon="-3.50333">
        <ele>174.6</ele>
        <time>2025-02-26T10:30:36Z</time>
      </trkpt>
      <trkpt lat="48.06607" lon="-3.50335">
        <ele>174.6</ele>
        <time>2025-02-26T10:30:37Z</time>
      </trkpt>
      <trkpt lat="48.06606" lon="-3.50336">
        <ele>174.7</ele>
        <time>2025-02-26T10:30:38Z</time>
      </trkpt>
      <trkpt lat="48.06605" lon="-3.50337">
        <ele>174.8</ele>
        <time>2025-02-26T10:30:39Z</time>
      </trkpt>
      <trkpt lat="48.06604" lon="-3.50337">
        <ele>174.7</ele>
        <time>2025-02-26T10:30:40Z</time>
      </trkpt>
      <trkpt lat="48.06603" lon="-3.50339">
        <ele>174.7</ele>
        <time>2025-02-26T10:30:41Z</time>
      </trkpt>
      <trkpt lat="48.06602" lon="-3.50339">
        <ele>174.7</ele>
        <time>2025-02-26T10:30:42Z</time>
      </trkpt>
      <trkpt lat="48.06601" lon="-3.5034">
        <ele>174.7</ele>
        <time>2025-02-26T10:30:43Z</time>
      </trkpt>
      <trkpt lat="48.066" lon="-3.50341">
        <ele>174.7</ele>
        <time>2025-02-26T10:30:44Z</time>
      </trkpt>
      <trkpt lat="48.066" lon="-3.50342">
        <ele>174.8</ele>
        <time>2025-02-26T10:30:45Z</time>
      </trkpt>
      <trkpt lat="48.06599" lon="-3.50343">
        <ele>174.9</ele>
        <time>2025-02-26T10:30:46Z</time>
      </trkpt>
      <trkpt lat="48.06599" lon="-3.50344">
        <ele>175</ele>
        <time>2025-02-26T10:30:47Z</time>
      </trkpt>
      <trkpt lat="48.06598" lon="-3.50345">
        <ele>175</ele>
        <time>2025-02-26T10:30:48Z</time>
      </trkpt>
      <trkpt lat="48.06597" lon="-3.50346">
        <ele>175.1</ele>
        <time>2025-02-26T10:30:49Z</time>
      </trkpt>
      <trkpt lat="48.06596" lon="-3.50347">
        <ele>175</ele>
        <time>2025-02-26T10:30:50Z</time>
      </trkpt>
      <trkpt lat="48.06595" lon="-3.50348">
        <ele>175.1</ele>
        <time>2025-02-26T10:30:51Z</time>
      </trkpt>
      <trkpt lat="48.06594" lon="-3.50349">
        <ele>175.2</ele>
        <time>2025-02-26T10:30:52Z</time>
      </trkpt>
      <trkpt lat="48.06593" lon="-3.5035">
        <ele>175.3</ele>
        <time>2025-02-26T10:30:53Z</time>
      </trkpt>
      <trkpt lat="48.06592" lon="-3.5035">
        <ele>175.2</ele>
        <time>2025-02-26T10:30:54Z</time>
      </trkpt>
      <trkpt lat="48.06591" lon="-3.50351">
        <ele>175.2</ele>
        <time>2025-02-26T10:30:55Z</time>
      </trkpt>
      <trkpt lat="48.0659" lon="-3.50352">
        <ele>175.2</ele>
        <time>2025-02-26T10:30:56Z</time>
      </trkpt>
      <trkpt lat="48.06589" lon="-3.50352">
        <ele>175.2</ele>
        <time>2025-02-26T10:30:57Z</time>
      </trkpt>
      <trkpt lat="48.06589" lon="-3.50354">
        <ele>175.4</ele>
        <time>2025-02-26T10:30:58Z</time>
      </trkpt>
      <trkpt lat="48.06587" lon="-3.50354">
        <ele>175.3</ele>
        <time>2025-02-26T10:30:59Z</time>
      </trkpt>
      <trkpt lat="48.06587" lon="-3.50356">
        <ele>175.5</ele>
        <time>2025-02-26T10:31:00Z</time>
      </trkpt>
      <trkpt lat="48.06586" lon="-3.50358">
        <ele>175.7</ele>
        <time>2025-02-26T10:31:01Z</time>
      </trkpt>
      <trkpt lat="48.06586" lon="-3.50359">
        <ele>175.9</ele>
        <time>2025-02-26T10:31:02Z</time>
      </trkpt>
      <trkpt lat="48.06585" lon="-3.50361">
        <ele>176.1</ele>
        <time>2025-02-26T10:31:03Z</time>
      </trkpt>
      <trkpt lat="48.06585" lon="-3.50362">
        <ele>176.2</ele>
        <time>2025-02-26T10:31:04Z</time>
      </trkpt>
      <trkpt lat="48.06584" lon="-3.50363">
        <ele>176.3</ele>
        <time>2025-02-26T10:31:05Z</time>
      </trkpt>
      <trkpt lat="48.06584" lon="-3.50364">
        <ele>176.3</ele>
        <time>2025-02-26T10:31:06Z</time>
      </trkpt>
      <trkpt lat="48.06582" lon="-3.50365">
        <ele>176.3</ele>
        <time>2025-02-26T10:31:07Z</time>
      </trkpt>
      <trkpt lat="48.06581" lon="-3.50366">
        <ele>176.3</ele>
        <time>2025-02-26T10:31:08Z</time>
      </trkpt>
      <trkpt lat="48.06581" lon="-3.50367">
        <ele>176.5</ele>
        <time>2025-02-26T10:31:09Z</time>
      </trkpt>
      <trkpt lat="48.06581" lon="-3.50368">
        <ele>176.6</ele>
        <time>2025-02-26T10:31:10Z</time>
      </trkpt>
      <trkpt lat="48.0658" lon="-3.5037">
        <ele>176.6</ele>
        <time>2025-02-26T10:31:11Z</time>
      </trkpt>
      <trkpt lat="48.06579" lon="-3.50371">
        <ele>176.8</ele>
        <time>2025-02-26T10:31:12Z</time>
      </trkpt>
      <trkpt lat="48.06579" lon="-3.50373">
        <ele>176.9</ele>
        <time>2025-02-26T10:31:13Z</time>
      </trkpt>
      <trkpt lat="48.06578" lon="-3.50374">
        <ele>176.9</ele>
        <time>2025-02-26T10:31:14Z</time>
      </trkpt>
      <trkpt lat="48.06577" lon="-3.50375">
        <ele>177.1</ele>
        <time>2025-02-26T10:31:15Z</time>
      </trkpt>
      <trkpt lat="48.06577" lon="-3.50377">
        <ele>177.2</ele>
        <time>2025-02-26T10:31:16Z</time>
      </trkpt>
      <trkpt lat="48.06576" lon="-3.50378">
        <ele>177.2</ele>
        <time>2025-02-26T10:31:17Z</time>
      </trkpt>
      <trkpt lat="48.06575" lon="-3.50378">
        <ele>177.2</ele>
        <time>2025-02-26T10:31:18Z</time>
      </trkpt>
      <trkpt lat="48.06574" lon="-3.50379">
        <ele>177.3</ele>
        <time>2025-02-26T10:31:19Z</time>
      </trkpt>
      <trkpt lat="48.06573" lon="-3.50381">
        <ele>177.4</ele>
        <time>2025-02-26T10:31:20Z</time>
      </trkpt>
      <trkpt lat="48.06573" lon="-3.50382">
        <ele>177.5</ele>
        <time>2025-02-26T10:31:21Z</time>
      </trkpt>
      <trkpt lat="48.06572" lon="-3.50383">
        <ele>177.5</ele>
        <time>2025-02-26T10:31:22Z</time>
      </trkpt>
      <trkpt lat="48.06571" lon="-3.50383">
        <ele>177.5</ele>
        <time>2025-02-26T10:31:23Z</time>
      </trkpt>
      <trkpt lat="48.0657" lon="-3.50383">
        <ele>177.4</ele>
        <time>2025-02-26T10:31:24Z</time>
      </trkpt>
      <trkpt lat="48.0657" lon="-3.50384">
        <ele>177.5</ele>
        <time>2025-02-26T10:31:25Z</time>
      </trkpt>
      <trkpt lat="48.06569" lon="-3.50385">
        <ele>177.6</ele>
        <time>2025-02-26T10:31:26Z</time>
      </trkpt>
      <trkpt lat="48.06569" lon="-3.50386">
        <ele>177.6</ele>
        <time>2025-02-26T10:31:27Z</time>
      </trkpt>
      <trkpt lat="48.06568" lon="-3.50388">
        <ele>177.8</ele>
        <time>2025-02-26T10:31:28Z</time>
      </trkpt>
      <trkpt lat="48.06568" lon="-3.50389">
        <ele>177.9</ele>
        <time>2025-02-26T10:31:29Z</time>
      </trkpt>
      <trkpt lat="48.06567" lon="-3.5039">
        <ele>177.9</ele>
        <time>2025-02-26T10:31:30Z</time>
      </trkpt>
      <trkpt lat="48.06566" lon="-3.50391">
        <ele>177.9</ele>
        <time>2025-02-26T10:31:31Z</time>
      </trkpt>
      <trkpt lat="48.06565" lon="-3.50392">
        <ele>177.9</ele>
        <time>2025-02-26T10:31:32Z</time>
      </trkpt>
      <trkpt lat="48.06565" lon="-3.50392">
        <ele>177.9</ele>
        <time>2025-02-26T10:31:33Z</time>
      </trkpt>
      <trkpt lat="48.06564" lon="-3.50394">
        <ele>177.9</ele>
        <time>2025-02-26T10:31:34Z</time>
      </trkpt>
      <trkpt lat="48.06563" lon="-3.50395">
        <ele>177.9</ele>
        <time>2025-02-26T10:31:35Z</time>
      </trkpt>
      <trkpt lat="48.06562" lon="-3.50397">
        <ele>178</ele>
        <time>2025-02-26T10:31:36Z</time>
      </trkpt>
      <trkpt lat="48.06561" lon="-3.50398">
        <ele>178</ele>
        <time>2025-02-26T10:31:37Z</time>
      </trkpt>
      <trkpt lat="48.0656" lon="-3.50398">
        <ele>178</ele>
        <time>2025-02-26T10:31:38Z</time>
      </trkpt>
      <trkpt lat="48.0656" lon="-3.504">
        <ele>178</ele>
        <time>2025-02-26T10:31:39Z</time>
      </trkpt>
      <trkpt lat="48.06559" lon="-3.50401">
        <ele>178.1</ele>
        <time>2025-02-26T10:31:40Z</time>
      </trkpt>
      <trkpt lat="48.06559" lon="-3.50402">
        <ele>178.1</ele>
        <time>2025-02-26T10:31:41Z</time>
      </trkpt>
      <trkpt lat="48.06558" lon="-3.50403">
        <ele>178.1</ele>
        <time>2025-02-26T10:31:42Z</time>
      </trkpt>
      <trkpt lat="48.06557" lon="-3.50404">
        <ele>178.2</ele>
        <time>2025-02-26T10:31:43Z</time>
      </trkpt>
      <trkpt lat="48.06556" lon="-3.50405">
        <ele>178.2</ele>
        <time>2025-02-26T10:31:44Z</time>
      </trkpt>
      <trkpt lat="48.06555" lon="-3.50407">
        <ele>178.3</ele>
        <time>2025-02-26T10:31:45Z</time>
      </trkpt>
      <trkpt lat="48.06555" lon="-3.50408">
        <ele>178.2</ele>
        <time>2025-02-26T10:31:46Z</time>
      </trkpt>
      <trkpt lat="48.06554" lon="-3.5041">
        <ele>178.3</ele>
        <time>2025-02-26T10:31:47Z</time>
      </trkpt>
      <trkpt lat="48.06554" lon="-3.50411">
        <ele>178.3</ele>
        <time>2025-02-26T10:31:48Z</time>
      </trkpt>
      <trkpt lat="48.06553" lon="-3.50412">
        <ele>178.2</ele>
        <time>2025-02-26T10:31:49Z</time>
      </trkpt>
      <trkpt lat="48.06552" lon="-3.50413">
        <ele>178.3</ele>
        <time>2025-02-26T10:31:50Z</time>
      </trkpt>
      <trkpt lat="48.06552" lon="-3.50414">
        <ele>178.3</ele>
        <time>2025-02-26T10:31:51Z</time>
      </trkpt>
      <trkpt lat="48.06551" lon="-3.50415">
        <ele>178.2</ele>
        <time>2025-02-26T10:31:52Z</time>
      </trkpt>
      <trkpt lat="48.0655" lon="-3.50416">
        <ele>178.2</ele>
        <time>2025-02-26T10:31:53Z</time>
      </trkpt>
      <trkpt lat="48.0655" lon="-3.50416">
        <ele>178.2</ele>
        <time>2025-02-26T10:31:54Z</time>
      </trkpt>
      <trkpt lat="48.06549" lon="-3.50417">
        <ele>178.1</ele>
        <time>2025-02-26T10:31:55Z</time>
      </trkpt>
      <trkpt lat="48.06549" lon="-3.50419">
        <ele>178.1</ele>
        <time>2025-02-26T10:31:56Z</time>
      </trkpt>
      <trkpt lat="48.06549" lon="-3.50419">
        <ele>178.1</ele>
        <time>2025-02-26T10:31:57Z</time>
      </trkpt>
      <trkpt lat="48.06548" lon="-3.5042">
        <ele>178</ele>
        <time>2025-02-26T10:31:58Z</time>
      </trkpt>
      <trkpt lat="48.06548" lon="-3.5042">
        <ele>177.9</ele>
        <time>2025-02-26T10:31:59Z</time>
      </trkpt>
      <trkpt lat="48.06546" lon="-3.50422">
        <ele>177.7</ele>
        <time>2025-02-26T10:32:00Z</time>
      </trkpt>
      <trkpt lat="48.06545" lon="-3.50423">
        <ele>177.6</ele>
        <time>2025-02-26T10:32:01Z</time>
      </trkpt>
      <trkpt lat="48.06545" lon="-3.50424">
        <ele>177.5</ele>
        <time>2025-02-26T10:32:02Z</time>
      </trkpt>
      <trkpt lat="48.06544" lon="-3.50425">
        <ele>177.4</ele>
        <time>2025-02-26T10:32:03Z</time>
      </trkpt>
      <trkpt lat="48.06543" lon="-3.50426">
        <ele>177.3</ele>
        <time>2025-02-26T10:32:04Z</time>
      </trkpt>
      <trkpt lat="48.06542" lon="-3.50427">
        <ele>177.2</ele>
        <time>2025-02-26T10:32:05Z</time>
      </trkpt>
      <trkpt lat="48.06541" lon="-3.50428">
        <ele>177.1</ele>
        <time>2025-02-26T10:32:06Z</time>
      </trkpt>
      <trkpt lat="48.06541" lon="-3.50429">
        <ele>177.1</ele>
        <time>2025-02-26T10:32:07Z</time>
      </trkpt>
      <trkpt lat="48.0654" lon="-3.5043">
        <ele>177</ele>
        <time>2025-02-26T10:32:08Z</time>
      </trkpt>
      <trkpt lat="48.06539" lon="-3.50431">
        <ele>177</ele>
        <time>2025-02-26T10:32:09Z</time>
      </trkpt>
      <trkpt lat="48.06539" lon="-3.50431">
        <ele>176.9</ele>
        <time>2025-02-26T10:32:10Z</time>
      </trkpt>
      <trkpt lat="48.06538" lon="-3.50432">
        <ele>176.8</ele>
        <time>2025-02-26T10:32:11Z</time>
      </trkpt>
      <trkpt lat="48.06537" lon="-3.50433">
        <ele>176.7</ele>
        <time>2025-02-26T10:32:12Z</time>
      </trkpt>
      <trkpt lat="48.06536" lon="-3.50434">
        <ele>176.7</ele>
        <time>2025-02-26T10:32:13Z</time>
      </trkpt>
      <trkpt lat="48.06536" lon="-3.50435">
        <ele>176.6</ele>
        <time>2025-02-26T10:32:14Z</time>
      </trkpt>
      <trkpt lat="48.06535" lon="-3.50435">
        <ele>176.5</ele>
        <time>2025-02-26T10:32:15Z</time>
      </trkpt>
      <trkpt lat="48.06534" lon="-3.50436">
        <ele>176.4</ele>
        <time>2025-02-26T10:32:16Z</time>
      </trkpt>
      <trkpt lat="48.06532" lon="-3.50436">
        <ele>176.2</ele>
        <time>2025-02-26T10:32:17Z</time>
      </trkpt>
      <trkpt lat="48.06532" lon="-3.50437">
        <ele>176.2</ele>
        <time>2025-02-26T10:32:18Z</time>
      </trkpt>
      <trkpt lat="48.06531" lon="-3.50438">
        <ele>176.1</ele>
        <time>2025-02-26T10:32:19Z</time>
      </trkpt>
      <trkpt lat="48.06531" lon="-3.50439">
        <ele>176.1</ele>
        <time>2025-02-26T10:32:20Z</time>
      </trkpt>
      <trkpt lat="48.0653" lon="-3.5044">
        <ele>176.1</ele>
        <time>2025-02-26T10:32:21Z</time>
      </trkpt>
      <trkpt lat="48.06529" lon="-3.50441">
        <ele>176</ele>
        <time>2025-02-26T10:32:22Z</time>
      </trkpt>
      <trkpt lat="48.06528" lon="-3.50442">
        <ele>176</ele>
        <time>2025-02-26T10:32:23Z</time>
      </trkpt>
      <trkpt lat="48.06527" lon="-3.50443">
        <ele>175.9</ele>
        <time>2025-02-26T10:32:24Z</time>
      </trkpt>
      <trkpt lat="48.06527" lon="-3.50444">
        <ele>176</ele>
        <time>2025-02-26T10:32:25Z</time>
      </trkpt>
      <trkpt lat="48.06526" lon="-3.50445">
        <ele>176</ele>
        <time>2025-02-26T10:32:26Z</time>
      </trkpt>
      <trkpt lat="48.06525" lon="-3.50446">
        <ele>176</ele>
        <time>2025-02-26T10:32:27Z</time>
      </trkpt>
      <trkpt lat="48.06525" lon="-3.50447">
        <ele>176.1</ele>
        <time>2025-02-26T10:32:28Z</time>
      </trkpt>
      <trkpt lat="48.06524" lon="-3.50448">
        <ele>176.1</ele>
        <time>2025-02-26T10:32:29Z</time>
      </trkpt>
      <trkpt lat="48.06523" lon="-3.50449">
        <ele>176.2</ele>
        <time>2025-02-26T10:32:30Z</time>
      </trkpt>
      <trkpt lat="48.06523" lon="-3.5045">
        <ele>176.2</ele>
        <time>2025-02-26T10:32:31Z</time>
      </trkpt>
      <trkpt lat="48.06522" lon="-3.50451">
        <ele>176.3</ele>
        <time>2025-02-26T10:32:32Z</time>
      </trkpt>
      <trkpt lat="48.06521" lon="-3.50453">
        <ele>176.4</ele>
        <time>2025-02-26T10:32:33Z</time>
      </trkpt>
      <trkpt lat="48.0652" lon="-3.50454">
        <ele>176.4</ele>
        <time>2025-02-26T10:32:34Z</time>
      </trkpt>
      <trkpt lat="48.06519" lon="-3.50455">
        <ele>176.5</ele>
        <time>2025-02-26T10:32:35Z</time>
      </trkpt>
      <trkpt lat="48.06518" lon="-3.50456">
        <ele>176.5</ele>
        <time>2025-02-26T10:32:36Z</time>
      </trkpt>
      <trkpt lat="48.06517" lon="-3.50457">
        <ele>176.6</ele>
        <time>2025-02-26T10:32:37Z</time>
      </trkpt>
      <trkpt lat="48.06516" lon="-3.50458">
        <ele>176.7</ele>
        <time>2025-02-26T10:32:38Z</time>
      </trkpt>
      <trkpt lat="48.06515" lon="-3.50459">
        <ele>176.8</ele>
        <time>2025-02-26T10:32:39Z</time>
      </trkpt>
      <trkpt lat="48.06514" lon="-3.50459">
        <ele>176.8</ele>
        <time>2025-02-26T10:32:40Z</time>
      </trkpt>
      <trkpt lat="48.06513" lon="-3.5046">
        <ele>176.8</ele>
        <time>2025-02-26T10:32:41Z</time>
      </trkpt>
      <trkpt lat="48.06512" lon="-3.5046">
        <ele>176.9</ele>
        <time>2025-02-26T10:32:42Z</time>
      </trkpt>
      <trkpt lat="48.06511" lon="-3.5046">
        <ele>176.9</ele>
        <time>2025-02-26T10:32:43Z</time>
      </trkpt>
      <trkpt lat="48.0651" lon="-3.50461">
        <ele>177</ele>
        <time>2025-02-26T10:32:44Z</time>
      </trkpt>
      <trkpt lat="48.06508" lon="-3.50461">
        <ele>177</ele>
        <time>2025-02-26T10:32:45Z</time>
      </trkpt>
      <trkpt lat="48.06507" lon="-3.50461">
        <ele>177.1</ele>
        <time>2025-02-26T10:32:46Z</time>
      </trkpt>
      <trkpt lat="48.06506" lon="-3.5046">
        <ele>177</ele>
        <time>2025-02-26T10:32:47Z</time>
      </trkpt>
      <trkpt lat="48.06505" lon="-3.50461">
        <ele>177.1</ele>
        <time>2025-02-26T10:32:48Z</time>
      </trkpt>
      <trkpt lat="48.06504" lon="-3.50461">
        <ele>177.1</ele>
        <time>2025-02-26T10:32:49Z</time>
      </trkpt>
      <trkpt lat="48.06503" lon="-3.50461">
        <ele>177.1</ele>
        <time>2025-02-26T10:32:50Z</time>
      </trkpt>
      <trkpt lat="48.06501" lon="-3.50461">
        <ele>177.1</ele>
        <time>2025-02-26T10:32:51Z</time>
      </trkpt>
      <trkpt lat="48.065" lon="-3.50461">
        <ele>177.2</ele>
        <time>2025-02-26T10:32:52Z</time>
      </trkpt>
      <trkpt lat="48.06499" lon="-3.50462">
        <ele>177.3</ele>
        <time>2025-02-26T10:32:53Z</time>
      </trkpt>
      <trkpt lat="48.06498" lon="-3.50462">
        <ele>177.4</ele>
        <time>2025-02-26T10:32:54Z</time>
      </trkpt>
      <trkpt lat="48.06497" lon="-3.50464">
        <ele>177.6</ele>
        <time>2025-02-26T10:32:55Z</time>
      </trkpt>
      <trkpt lat="48.06497" lon="-3.50465">
        <ele>177.8</ele>
        <time>2025-02-26T10:32:56Z</time>
      </trkpt>
      <trkpt lat="48.06495" lon="-3.50465">
        <ele>177.9</ele>
        <time>2025-02-26T10:32:57Z</time>
      </trkpt>
      <trkpt lat="48.06494" lon="-3.50465">
        <ele>178</ele>
        <time>2025-02-26T10:32:58Z</time>
      </trkpt>
      <trkpt lat="48.06493" lon="-3.50465">
        <ele>178</ele>
        <time>2025-02-26T10:32:59Z</time>
      </trkpt>
      <trkpt lat="48.06492" lon="-3.50465">
        <ele>178.1</ele>
        <time>2025-02-26T10:33:00Z</time>
      </trkpt>
      <trkpt lat="48.06491" lon="-3.50466">
        <ele>178.2</ele>
        <time>2025-02-26T10:33:01Z</time>
      </trkpt>
      <trkpt lat="48.0649" lon="-3.50466">
        <ele>178.3</ele>
        <time>2025-02-26T10:33:02Z</time>
      </trkpt>
      <trkpt lat="48.0649" lon="-3.50467">
        <ele>178.4</ele>
        <time>2025-02-26T10:33:03Z</time>
      </trkpt>
      <trkpt lat="48.06489" lon="-3.50467">
        <ele>178.5</ele>
        <time>2025-02-26T10:33:04Z</time>
      </trkpt>
      <trkpt lat="48.06488" lon="-3.50468">
        <ele>178.6</ele>
        <time>2025-02-26T10:33:05Z</time>
      </trkpt>
      <trkpt lat="48.06487" lon="-3.50469">
        <ele>178.7</ele>
        <time>2025-02-26T10:33:06Z</time>
      </trkpt>
      <trkpt lat="48.06486" lon="-3.50469">
        <ele>178.8</ele>
        <time>2025-02-26T10:33:07Z</time>
      </trkpt>
      <trkpt lat="48.06486" lon="-3.50469">
        <ele>178.9</ele>
        <time>2025-02-26T10:33:08Z</time>
      </trkpt>
      <trkpt lat="48.06485" lon="-3.50469">
        <ele>178.9</ele>
        <time>2025-02-26T10:33:09Z</time>
      </trkpt>
      <trkpt lat="48.06484" lon="-3.5047">
        <ele>179</ele>
        <time>2025-02-26T10:33:10Z</time>
      </trkpt>
      <trkpt lat="48.06483" lon="-3.50471">
        <ele>179.1</ele>
        <time>2025-02-26T10:33:11Z</time>
      </trkpt>
      <trkpt lat="48.06483" lon="-3.50471">
        <ele>179.2</ele>
        <time>2025-02-26T10:33:12Z</time>
      </trkpt>
      <trkpt lat="48.06482" lon="-3.50471">
        <ele>179.2</ele>
        <time>2025-02-26T10:33:13Z</time>
      </trkpt>
      <trkpt lat="48.06481" lon="-3.50471">
        <ele>179.3</ele>
        <time>2025-02-26T10:33:14Z</time>
      </trkpt>
      <trkpt lat="48.0648" lon="-3.50471">
        <ele>179.4</ele>
        <time>2025-02-26T10:33:15Z</time>
      </trkpt>
      <trkpt lat="48.0648" lon="-3.50472">
        <ele>179.5</ele>
        <time>2025-02-26T10:33:16Z</time>
      </trkpt>
      <trkpt lat="48.06479" lon="-3.50473">
        <ele>179.6</ele>
        <time>2025-02-26T10:33:17Z</time>
      </trkpt>
      <trkpt lat="48.06477" lon="-3.50473">
        <ele>179.6</ele>
        <time>2025-02-26T10:33:18Z</time>
      </trkpt>
      <trkpt lat="48.06477" lon="-3.50473">
        <ele>179.7</ele>
        <time>2025-02-26T10:33:19Z</time>
      </trkpt>
      <trkpt lat="48.06476" lon="-3.50473">
        <ele>179.8</ele>
        <time>2025-02-26T10:33:20Z</time>
      </trkpt>
      <trkpt lat="48.06475" lon="-3.50473">
        <ele>179.9</ele>
        <time>2025-02-26T10:33:21Z</time>
      </trkpt>
      <trkpt lat="48.06474" lon="-3.50473">
        <ele>179.9</ele>
        <time>2025-02-26T10:33:22Z</time>
      </trkpt>
      <trkpt lat="48.06473" lon="-3.50473">
        <ele>180</ele>
        <time>2025-02-26T10:33:23Z</time>
      </trkpt>
      <trkpt lat="48.06473" lon="-3.50474">
        <ele>180.1</ele>
        <time>2025-02-26T10:33:24Z</time>
      </trkpt>
      <trkpt lat="48.06472" lon="-3.50474">
        <ele>180.1</ele>
        <time>2025-02-26T10:33:25Z</time>
      </trkpt>
      <trkpt lat="48.06471" lon="-3.50474">
        <ele>180.2</ele>
        <time>2025-02-26T10:33:26Z</time>
      </trkpt>
      <trkpt lat="48.0647" lon="-3.50474">
        <ele>180.3</ele>
        <time>2025-02-26T10:33:27Z</time>
      </trkpt>
      <trkpt lat="48.06469" lon="-3.50475">
        <ele>180.4</ele>
        <time>2025-02-26T10:33:28Z</time>
      </trkpt>
      <trkpt lat="48.06468" lon="-3.50475">
        <ele>180.4</ele>
        <time>2025-02-26T10:33:29Z</time>
      </trkpt>
      <trkpt lat="48.06468" lon="-3.50474">
        <ele>180.5</ele>
        <time>2025-02-26T10:33:30Z</time>
      </trkpt>
      <trkpt lat="48.06467" lon="-3.50474">
        <ele>180.5</ele>
        <time>2025-02-26T10:33:31Z</time>
      </trkpt>
      <trkpt lat="48.06466" lon="-3.50474">
        <ele>180.6</ele>
        <time>2025-02-26T10:33:32Z</time>
      </trkpt>
      <trkpt lat="48.06465" lon="-3.50475">
        <ele>180.7</ele>
        <time>2025-02-26T10:33:33Z</time>
      </trkpt>
      <trkpt lat="48.06464" lon="-3.50475">
        <ele>180.7</ele>
        <time>2025-02-26T10:33:34Z</time>
      </trkpt>
      <trkpt lat="48.06463" lon="-3.50475">
        <ele>180.8</ele>
        <time>2025-02-26T10:33:35Z</time>
      </trkpt>
      <trkpt lat="48.06462" lon="-3.50476">
        <ele>180.9</ele>
        <time>2025-02-26T10:33:36Z</time>
      </trkpt>
      <trkpt lat="48.06461" lon="-3.50476">
        <ele>181</ele>
        <time>2025-02-26T10:33:37Z</time>
      </trkpt>
      <trkpt lat="48.06461" lon="-3.50477">
        <ele>181.1</ele>
        <time>2025-02-26T10:33:38Z</time>
      </trkpt>
      <trkpt lat="48.0646" lon="-3.50477">
        <ele>181.1</ele>
        <time>2025-02-26T10:33:39Z</time>
      </trkpt>
      <trkpt lat="48.06459" lon="-3.50477">
        <ele>181.2</ele>
        <time>2025-02-26T10:33:40Z</time>
      </trkpt>
      <trkpt lat="48.06458" lon="-3.50477">
        <ele>181.3</ele>
        <time>2025-02-26T10:33:41Z</time>
      </trkpt>
      <trkpt lat="48.06457" lon="-3.50478">
        <ele>181.4</ele>
        <time>2025-02-26T10:33:42Z</time>
      </trkpt>
      <trkpt lat="48.06456" lon="-3.50478">
        <ele>181.4</ele>
        <time>2025-02-26T10:33:43Z</time>
      </trkpt>
      <trkpt lat="48.06456" lon="-3.50478">
        <ele>181.5</ele>
        <time>2025-02-26T10:33:44Z</time>
      </trkpt>
      <trkpt lat="48.06455" lon="-3.50479">
        <ele>181.6</ele>
        <time>2025-02-26T10:33:45Z</time>
      </trkpt>
      <trkpt lat="48.06454" lon="-3.50479">
        <ele>181.6</ele>
        <time>2025-02-26T10:33:46Z</time>
      </trkpt>
      <trkpt lat="48.06453" lon="-3.50478">
        <ele>181.7</ele>
        <time>2025-02-26T10:33:47Z</time>
      </trkpt>
      <trkpt lat="48.06452" lon="-3.50479">
        <ele>181.7</ele>
        <time>2025-02-26T10:33:48Z</time>
      </trkpt>
      <trkpt lat="48.06451" lon="-3.50479">
        <ele>181.8</ele>
        <time>2025-02-26T10:33:49Z</time>
      </trkpt>
      <trkpt lat="48.0645" lon="-3.50479">
        <ele>181.8</ele>
        <time>2025-02-26T10:33:50Z</time>
      </trkpt>
      <trkpt lat="48.0645" lon="-3.50479">
        <ele>181.9</ele>
        <time>2025-02-26T10:33:51Z</time>
      </trkpt>
      <trkpt lat="48.06449" lon="-3.50479">
        <ele>182</ele>
        <time>2025-02-26T10:33:52Z</time>
      </trkpt>
      <trkpt lat="48.06448" lon="-3.5048">
        <ele>182.1</ele>
        <time>2025-02-26T10:33:53Z</time>
      </trkpt>
      <trkpt lat="48.06447" lon="-3.5048">
        <ele>182.1</ele>
        <time>2025-02-26T10:33:54Z</time>
      </trkpt>
      <trkpt lat="48.06446" lon="-3.5048">
        <ele>182.2</ele>
        <time>2025-02-26T10:33:55Z</time>
      </trkpt>
      <trkpt lat="48.06445" lon="-3.5048">
        <ele>182.3</ele>
        <time>2025-02-26T10:33:56Z</time>
      </trkpt>
      <trkpt lat="48.06444" lon="-3.50481">
        <ele>182.3</ele>
        <time>2025-02-26T10:33:57Z</time>
      </trkpt>
      <trkpt lat="48.06443" lon="-3.50481">
        <ele>182.3</ele>
        <time>2025-02-26T10:33:58Z</time>
      </trkpt>
      <trkpt lat="48.06442" lon="-3.50481">
        <ele>182.3</ele>
        <time>2025-02-26T10:33:59Z</time>
      </trkpt>
      <trkpt lat="48.06441" lon="-3.50481">
        <ele>182.3</ele>
        <time>2025-02-26T10:34:00Z</time>
      </trkpt>
      <trkpt lat="48.0644" lon="-3.5048">
        <ele>182.3</ele>
        <time>2025-02-26T10:34:01Z</time>
      </trkpt>
      <trkpt lat="48.06439" lon="-3.50481">
        <ele>182.4</ele>
        <time>2025-02-26T10:34:02Z</time>
      </trkpt>
      <trkpt lat="48.06438" lon="-3.50482">
        <ele>182.4</ele>
        <time>2025-02-26T10:34:03Z</time>
      </trkpt>
      <trkpt lat="48.06437" lon="-3.50482">
        <ele>182.4</ele>
        <time>2025-02-26T10:34:04Z</time>
      </trkpt>
      <trkpt lat="48.06436" lon="-3.50482">
        <ele>182.4</ele>
        <time>2025-02-26T10:34:05Z</time>
      </trkpt>
      <trkpt lat="48.06435" lon="-3.50482">
        <ele>182.5</ele>
        <time>2025-02-26T10:34:06Z</time>
      </trkpt>
      <trkpt lat="48.06434" lon="-3.50483">
        <ele>182.5</ele>
        <time>2025-02-26T10:34:07Z</time>
      </trkpt>
      <trkpt lat="48.06433" lon="-3.50484">
        <ele>182.6</ele>
        <time>2025-02-26T10:34:08Z</time>
      </trkpt>
      <trkpt lat="48.06432" lon="-3.50484">
        <ele>182.6</ele>
        <time>2025-02-26T10:34:09Z</time>
      </trkpt>
      <trkpt lat="48.06431" lon="-3.50484">
        <ele>182.6</ele>
        <time>2025-02-26T10:34:10Z</time>
      </trkpt>
      <trkpt lat="48.0643" lon="-3.50484">
        <ele>182.6</ele>
        <time>2025-02-26T10:34:11Z</time>
      </trkpt>
      <trkpt lat="48.0643" lon="-3.50484">
        <ele>182.7</ele>
        <time>2025-02-26T10:34:12Z</time>
      </trkpt>
      <trkpt lat="48.06429" lon="-3.50485">
        <ele>182.7</ele>
        <time>2025-02-26T10:34:13Z</time>
      </trkpt>
      <trkpt lat="48.06428" lon="-3.50485">
        <ele>182.7</ele>
        <time>2025-02-26T10:34:14Z</time>
      </trkpt>
      <trkpt lat="48.06427" lon="-3.50485">
        <ele>182.7</ele>
        <time>2025-02-26T10:34:15Z</time>
      </trkpt>
      <trkpt lat="48.06426" lon="-3.50484">
        <ele>182.7</ele>
        <time>2025-02-26T10:34:16Z</time>
      </trkpt>
      <trkpt lat="48.06426" lon="-3.50484">
        <ele>182.7</ele>
        <time>2025-02-26T10:34:17Z</time>
      </trkpt>
      <trkpt lat="48.06425" lon="-3.50484">
        <ele>182.7</ele>
        <time>2025-02-26T10:34:18Z</time>
      </trkpt>
      <trkpt lat="48.06424" lon="-3.50484">
        <ele>182.7</ele>
        <time>2025-02-26T10:34:19Z</time>
      </trkpt>
      <trkpt lat="48.06423" lon="-3.50484">
        <ele>182.8</ele>
        <time>2025-02-26T10:34:20Z</time>
      </trkpt>
      <trkpt lat="48.06422" lon="-3.50485">
        <ele>182.8</ele>
        <time>2025-02-26T10:34:21Z</time>
      </trkpt>
      <trkpt lat="48.06421" lon="-3.50485">
        <ele>182.9</ele>
        <time>2025-02-26T10:34:22Z</time>
      </trkpt>
      <trkpt lat="48.0642" lon="-3.50485">
        <ele>182.8</ele>
        <time>2025-02-26T10:34:23Z</time>
      </trkpt>
      <trkpt lat="48.06419" lon="-3.50485">
        <ele>182.9</ele>
        <time>2025-02-26T10:34:24Z</time>
      </trkpt>
      <trkpt lat="48.06419" lon="-3.50485">
        <ele>182.9</ele>
        <time>2025-02-26T10:34:25Z</time>
      </trkpt>
      <trkpt lat="48.06419" lon="-3.50486">
        <ele>182.9</ele>
        <time>2025-02-26T10:34:26Z</time>
      </trkpt>
      <trkpt lat="48.06418" lon="-3.50486">
        <ele>183</ele>
        <time>2025-02-26T10:34:27Z</time>
      </trkpt>
      <trkpt lat="48.06416" lon="-3.50486">
        <ele>183</ele>
        <time>2025-02-26T10:34:28Z</time>
      </trkpt>
      <trkpt lat="48.06415" lon="-3.50488">
        <ele>183.1</ele>
        <time>2025-02-26T10:34:29Z</time>
      </trkpt>
      <trkpt lat="48.06414" lon="-3.50488">
        <ele>183.1</ele>
        <time>2025-02-26T10:34:30Z</time>
      </trkpt>
      <trkpt lat="48.06414" lon="-3.50488">
        <ele>183</ele>
        <time>2025-02-26T10:34:31Z</time>
      </trkpt>
      <trkpt lat="48.06413" lon="-3.50489">
        <ele>183</ele>
        <time>2025-02-26T10:34:32Z</time>
      </trkpt>
      <trkpt lat="48.06412" lon="-3.50489">
        <ele>183.1</ele>
        <time>2025-02-26T10:34:33Z</time>
      </trkpt>
      <trkpt lat="48.06411" lon="-3.5049">
        <ele>183.1</ele>
        <time>2025-02-26T10:34:34Z</time>
      </trkpt>
      <trkpt lat="48.0641" lon="-3.5049">
        <ele>183.1</ele>
        <time>2025-02-26T10:34:35Z</time>
      </trkpt>
      <trkpt lat="48.06409" lon="-3.50491">
        <ele>183.1</ele>
        <time>2025-02-26T10:34:36Z</time>
      </trkpt>
      <trkpt lat="48.06408" lon="-3.50491">
        <ele>183.1</ele>
        <time>2025-02-26T10:34:37Z</time>
      </trkpt>
      <trkpt lat="48.06408" lon="-3.50492">
        <ele>183.1</ele>
        <time>2025-02-26T10:34:38Z</time>
      </trkpt>
      <trkpt lat="48.06407" lon="-3.50492">
        <ele>183</ele>
        <time>2025-02-26T10:34:39Z</time>
      </trkpt>
      <trkpt lat="48.06406" lon="-3.50493">
        <ele>183.1</ele>
        <time>2025-02-26T10:34:40Z</time>
      </trkpt>
      <trkpt lat="48.06405" lon="-3.50493">
        <ele>183.1</ele>
        <time>2025-02-26T10:34:41Z</time>
      </trkpt>
      <trkpt lat="48.06404" lon="-3.50494">
        <ele>183.1</ele>
        <time>2025-02-26T10:34:42Z</time>
      </trkpt>
      <trkpt lat="48.06404" lon="-3.50495">
        <ele>183.2</ele>
        <time>2025-02-26T10:34:43Z</time>
      </trkpt>
      <trkpt lat="48.06403" lon="-3.50496">
        <ele>183.2</ele>
        <time>2025-02-26T10:34:44Z</time>
      </trkpt>
      <trkpt lat="48.06402" lon="-3.50496">
        <ele>183.2</ele>
        <time>2025-02-26T10:34:45Z</time>
      </trkpt>
      <trkpt lat="48.06401" lon="-3.50496">
        <ele>183.1</ele>
        <time>2025-02-26T10:34:46Z</time>
      </trkpt>
      <trkpt lat="48.064" lon="-3.50496">
        <ele>183.1</ele>
        <time>2025-02-26T10:34:47Z</time>
      </trkpt>
      <trkpt lat="48.06399" lon="-3.50497">
        <ele>183.2</ele>
        <time>2025-02-26T10:34:48Z</time>
      </trkpt>
      <trkpt lat="48.06398" lon="-3.50497">
        <ele>183.1</ele>
        <time>2025-02-26T10:34:49Z</time>
      </trkpt>
      <trkpt lat="48.06397" lon="-3.50497">
        <ele>183.1</ele>
        <time>2025-02-26T10:34:50Z</time>
      </trkpt>
      <trkpt lat="48.06397" lon="-3.50498">
        <ele>183.1</ele>
        <time>2025-02-26T10:34:51Z</time>
      </trkpt>
      <trkpt lat="48.06396" lon="-3.50498">
        <ele>183.1</ele>
        <time>2025-02-26T10:34:52Z</time>
      </trkpt>
      <trkpt lat="48.06395" lon="-3.50498">
        <ele>183.1</ele>
        <time>2025-02-26T10:34:53Z</time>
      </trkpt>
      <trkpt lat="48.06394" lon="-3.50499">
        <ele>183.1</ele>
        <time>2025-02-26T10:34:54Z</time>
      </trkpt>
      <trkpt lat="48.06393" lon="-3.50499">
        <ele>183.1</ele>
        <time>2025-02-26T10:34:55Z</time>
      </trkpt>
      <trkpt lat="48.06392" lon="-3.50499">
        <ele>183.1</ele>
        <time>2025-02-26T10:34:56Z</time>
      </trkpt>
      <trkpt lat="48.06391" lon="-3.505">
        <ele>183.1</ele>
        <time>2025-02-26T10:34:57Z</time>
      </trkpt>
      <trkpt lat="48.0639" lon="-3.505">
        <ele>183</ele>
        <time>2025-02-26T10:34:58Z</time>
      </trkpt>
      <trkpt lat="48.06389" lon="-3.50501">
        <ele>183</ele>
        <time>2025-02-26T10:34:59Z</time>
      </trkpt>
      <trkpt lat="48.06388" lon="-3.50501">
        <ele>182.9</ele>
        <time>2025-02-26T10:35:00Z</time>
      </trkpt>
      <trkpt lat="48.06387" lon="-3.50502">
        <ele>182.9</ele>
        <time>2025-02-26T10:35:01Z</time>
      </trkpt>
      <trkpt lat="48.06386" lon="-3.50502">
        <ele>182.8</ele>
        <time>2025-02-26T10:35:02Z</time>
      </trkpt>
      <trkpt lat="48.06385" lon="-3.50502">
        <ele>182.8</ele>
        <time>2025-02-26T10:35:03Z</time>
      </trkpt>
      <trkpt lat="48.06383" lon="-3.50502">
        <ele>182.7</ele>
        <time>2025-02-26T10:35:04Z</time>
      </trkpt>
      <trkpt lat="48.06383" lon="-3.50502">
        <ele>182.6</ele>
        <time>2025-02-26T10:35:05Z</time>
      </trkpt>
      <trkpt lat="48.06382" lon="-3.50503">
        <ele>182.6</ele>
        <time>2025-02-26T10:35:06Z</time>
      </trkpt>
      <trkpt lat="48.06381" lon="-3.50503">
        <ele>182.5</ele>
        <time>2025-02-26T10:35:07Z</time>
      </trkpt>
      <trkpt lat="48.0638" lon="-3.50504">
        <ele>182.5</ele>
        <time>2025-02-26T10:35:08Z</time>
      </trkpt>
      <trkpt lat="48.06379" lon="-3.50504">
        <ele>182.5</ele>
        <time>2025-02-26T10:35:09Z</time>
      </trkpt>
      <trkpt lat="48.06378" lon="-3.50505">
        <ele>182.4</ele>
        <time>2025-02-26T10:35:10Z</time>
      </trkpt>
      <trkpt lat="48.06378" lon="-3.50506">
        <ele>182.4</ele>
        <time>2025-02-26T10:35:11Z</time>
      </trkpt>
      <trkpt lat="48.06377" lon="-3.50506">
        <ele>182.4</ele>
        <time>2025-02-26T10:35:12Z</time>
      </trkpt>
      <trkpt lat="48.06376" lon="-3.50507">
        <ele>182.3</ele>
        <time>2025-02-26T10:35:13Z</time>
      </trkpt>
      <trkpt lat="48.06375" lon="-3.50507">
        <ele>182.3</ele>
        <time>2025-02-26T10:35:14Z</time>
      </trkpt>
      <trkpt lat="48.06374" lon="-3.50509">
        <ele>182.3</ele>
        <time>2025-02-26T10:35:15Z</time>
      </trkpt>
      <trkpt lat="48.06374" lon="-3.5051">
        <ele>182.2</ele>
        <time>2025-02-26T10:35:16Z</time>
      </trkpt>
      <trkpt lat="48.06374" lon="-3.5051">
        <ele>182.3</ele>
        <time>2025-02-26T10:35:17Z</time>
      </trkpt>
      <trkpt lat="48.06373" lon="-3.50511">
        <ele>182.2</ele>
        <time>2025-02-26T10:35:18Z</time>
      </trkpt>
      <trkpt lat="48.06372" lon="-3.50512">
        <ele>182.2</ele>
        <time>2025-02-26T10:35:19Z</time>
      </trkpt>
      <trkpt lat="48.06372" lon="-3.50512">
        <ele>182.2</ele>
        <time>2025-02-26T10:35:20Z</time>
      </trkpt>
      <trkpt lat="48.06371" lon="-3.50513">
        <ele>182.2</ele>
        <time>2025-02-26T10:35:21Z</time>
      </trkpt>
      <trkpt lat="48.0637" lon="-3.50513">
        <ele>182.1</ele>
        <time>2025-02-26T10:35:22Z</time>
      </trkpt>
      <trkpt lat="48.06369" lon="-3.50513">
        <ele>182.1</ele>
        <time>2025-02-26T10:35:23Z</time>
      </trkpt>
      <trkpt lat="48.06368" lon="-3.50513">
        <ele>182</ele>
        <time>2025-02-26T10:35:24Z</time>
      </trkpt>
      <trkpt lat="48.06367" lon="-3.50512">
        <ele>181.8</ele>
        <time>2025-02-26T10:35:25Z</time>
      </trkpt>
      <trkpt lat="48.06366" lon="-3.50511">
        <ele>181.8</ele>
        <time>2025-02-26T10:35:26Z</time>
      </trkpt>
      <trkpt lat="48.06366" lon="-3.50511">
        <ele>181.7</ele>
        <time>2025-02-26T10:35:27Z</time>
      </trkpt>
      <trkpt lat="48.06365" lon="-3.50511">
        <ele>181.6</ele>
        <time>2025-02-26T10:35:28Z</time>
      </trkpt>
      <trkpt lat="48.06363" lon="-3.50511">
        <ele>181.5</ele>
        <time>2025-02-26T10:35:29Z</time>
      </trkpt>
      <trkpt lat="48.06362" lon="-3.50511">
        <ele>181.5</ele>
        <time>2025-02-26T10:35:30Z</time>
      </trkpt>
      <trkpt lat="48.06361" lon="-3.50511">
        <ele>181.4</ele>
        <time>2025-02-26T10:35:31Z</time>
      </trkpt>
      <trkpt lat="48.0636" lon="-3.50511">
        <ele>181.4</ele>
        <time>2025-02-26T10:35:32Z</time>
      </trkpt>
      <trkpt lat="48.06359" lon="-3.50512">
        <ele>181.3</ele>
        <time>2025-02-26T10:35:33Z</time>
      </trkpt>
      <trkpt lat="48.06358" lon="-3.50512">
        <ele>181.3</ele>
        <time>2025-02-26T10:35:34Z</time>
      </trkpt>
      <trkpt lat="48.06357" lon="-3.50511">
        <ele>181.2</ele>
        <time>2025-02-26T10:35:35Z</time>
      </trkpt>
      <trkpt lat="48.06356" lon="-3.5051">
        <ele>181.1</ele>
        <time>2025-02-26T10:35:36Z</time>
      </trkpt>
      <trkpt lat="48.06354" lon="-3.5051">
        <ele>181</ele>
        <time>2025-02-26T10:35:37Z</time>
      </trkpt>
      <trkpt lat="48.06353" lon="-3.50511">
        <ele>181</ele>
        <time>2025-02-26T10:35:38Z</time>
      </trkpt>
      <trkpt lat="48.06352" lon="-3.50511">
        <ele>180.9</ele>
        <time>2025-02-26T10:35:39Z</time>
      </trkpt>
      <trkpt lat="48.06351" lon="-3.50512">
        <ele>180.9</ele>
        <time>2025-02-26T10:35:40Z</time>
      </trkpt>
      <trkpt lat="48.0635" lon="-3.50513">
        <ele>180.8</ele>
        <time>2025-02-26T10:35:41Z</time>
      </trkpt>
      <trkpt lat="48.06349" lon="-3.50513">
        <ele>180.8</ele>
        <time>2025-02-26T10:35:42Z</time>
      </trkpt>
      <trkpt lat="48.06348" lon="-3.50514">
        <ele>180.8</ele>
        <time>2025-02-26T10:35:43Z</time>
      </trkpt>
      <trkpt lat="48.06347" lon="-3.50514">
        <ele>180.7</ele>
        <time>2025-02-26T10:35:44Z</time>
      </trkpt>
      <trkpt lat="48.06345" lon="-3.50512">
        <ele>180.6</ele>
        <time>2025-02-26T10:35:45Z</time>
      </trkpt>
      <trkpt lat="48.06345" lon="-3.50512">
        <ele>180.6</ele>
        <time>2025-02-26T10:35:46Z</time>
      </trkpt>
      <trkpt lat="48.06344" lon="-3.50512">
        <ele>180.5</ele>
        <time>2025-02-26T10:35:47Z</time>
      </trkpt>
      <trkpt lat="48.06343" lon="-3.50512">
        <ele>180.5</ele>
        <time>2025-02-26T10:35:48Z</time>
      </trkpt>
      <trkpt lat="48.06341" lon="-3.50512">
        <ele>180.4</ele>
        <time>2025-02-26T10:35:49Z</time>
      </trkpt>
      <trkpt lat="48.0634" lon="-3.50513">
        <ele>180.4</ele>
        <time>2025-02-26T10:35:50Z</time>
      </trkpt>
      <trkpt lat="48.06339" lon="-3.50512">
        <ele>180.3</ele>
        <time>2025-02-26T10:35:51Z</time>
      </trkpt>
      <trkpt lat="48.06338" lon="-3.50512">
        <ele>180.2</ele>
        <time>2025-02-26T10:35:52Z</time>
      </trkpt>
      <trkpt lat="48.06337" lon="-3.50513">
        <ele>180.2</ele>
        <time>2025-02-26T10:35:53Z</time>
      </trkpt>
      <trkpt lat="48.06336" lon="-3.50513">
        <ele>180.1</ele>
        <time>2025-02-26T10:35:54Z</time>
      </trkpt>
      <trkpt lat="48.06335" lon="-3.50513">
        <ele>180.1</ele>
        <time>2025-02-26T10:35:55Z</time>
      </trkpt>
      <trkpt lat="48.06334" lon="-3.50514">
        <ele>180</ele>
        <time>2025-02-26T10:35:56Z</time>
      </trkpt>
      <trkpt lat="48.06333" lon="-3.50514">
        <ele>180</ele>
        <time>2025-02-26T10:35:57Z</time>
      </trkpt>
      <trkpt lat="48.06332" lon="-3.50515">
        <ele>179.9</ele>
        <time>2025-02-26T10:35:58Z</time>
      </trkpt>
      <trkpt lat="48.06331" lon="-3.50515">
        <ele>179.7</ele>
        <time>2025-02-26T10:35:59Z</time>
      </trkpt>
      <trkpt lat="48.0633" lon="-3.50515">
        <ele>179.7</ele>
        <time>2025-02-26T10:36:00Z</time>
      </trkpt>
      <trkpt lat="48.06329" lon="-3.50515">
        <ele>179.6</ele>
        <time>2025-02-26T10:36:01Z</time>
      </trkpt>
      <trkpt lat="48.06329" lon="-3.50515">
        <ele>179.5</ele>
        <time>2025-02-26T10:36:02Z</time>
      </trkpt>
      <trkpt lat="48.06328" lon="-3.50515">
        <ele>179.4</ele>
        <time>2025-02-26T10:36:03Z</time>
      </trkpt>
      <trkpt lat="48.06327" lon="-3.50514">
        <ele>179.3</ele>
        <time>2025-02-26T10:36:04Z</time>
      </trkpt>
      <trkpt lat="48.06326" lon="-3.50514">
        <ele>179.2</ele>
        <time>2025-02-26T10:36:05Z</time>
      </trkpt>
      <trkpt lat="48.06325" lon="-3.50514">
        <ele>179.1</ele>
        <time>2025-02-26T10:36:06Z</time>
      </trkpt>
      <trkpt lat="48.06324" lon="-3.50514">
        <ele>179</ele>
        <time>2025-02-26T10:36:07Z</time>
      </trkpt>
      <trkpt lat="48.06323" lon="-3.50515">
        <ele>178.9</ele>
        <time>2025-02-26T10:36:08Z</time>
      </trkpt>
      <trkpt lat="48.06321" lon="-3.50515">
        <ele>178.8</ele>
        <time>2025-02-26T10:36:09Z</time>
      </trkpt>
      <trkpt lat="48.0632" lon="-3.50515">
        <ele>178.6</ele>
        <time>2025-02-26T10:36:10Z</time>
      </trkpt>
      <trkpt lat="48.06319" lon="-3.50514">
        <ele>178.5</ele>
        <time>2025-02-26T10:36:11Z</time>
      </trkpt>
      <trkpt lat="48.06318" lon="-3.50514">
        <ele>178.4</ele>
        <time>2025-02-26T10:36:12Z</time>
      </trkpt>
      <trkpt lat="48.06317" lon="-3.50514">
        <ele>178.2</ele>
        <time>2025-02-26T10:36:13Z</time>
      </trkpt>
      <trkpt lat="48.06316" lon="-3.50514">
        <ele>178.1</ele>
        <time>2025-02-26T10:36:14Z</time>
      </trkpt>
      <trkpt lat="48.06314" lon="-3.50513">
        <ele>177.9</ele>
        <time>2025-02-26T10:36:15Z</time>
      </trkpt>
      <trkpt lat="48.06313" lon="-3.50514">
        <ele>177.8</ele>
        <time>2025-02-26T10:36:16Z</time>
      </trkpt>
      <trkpt lat="48.06311" lon="-3.50513">
        <ele>177.6</ele>
        <time>2025-02-26T10:36:17Z</time>
      </trkpt>
      <trkpt lat="48.0631" lon="-3.50513">
        <ele>177.5</ele>
        <time>2025-02-26T10:36:18Z</time>
      </trkpt>
      <trkpt lat="48.06309" lon="-3.50513">
        <ele>177.3</ele>
        <time>2025-02-26T10:36:19Z</time>
      </trkpt>
      <trkpt lat="48.06308" lon="-3.50512">
        <ele>177.1</ele>
        <time>2025-02-26T10:36:20Z</time>
      </trkpt>
      <trkpt lat="48.06307" lon="-3.50513">
        <ele>177</ele>
        <time>2025-02-26T10:36:21Z</time>
      </trkpt>
      <trkpt lat="48.06306" lon="-3.50513">
        <ele>177</ele>
        <time>2025-02-26T10:36:22Z</time>
      </trkpt>
      <trkpt lat="48.06305" lon="-3.50514">
        <ele>176.8</ele>
        <time>2025-02-26T10:36:23Z</time>
      </trkpt>
      <trkpt lat="48.06304" lon="-3.50514">
        <ele>176.7</ele>
        <time>2025-02-26T10:36:24Z</time>
      </trkpt>
      <trkpt lat="48.06302" lon="-3.50514">
        <ele>176.5</ele>
        <time>2025-02-26T10:36:25Z</time>
      </trkpt>
      <trkpt lat="48.06301" lon="-3.50515">
        <ele>176.4</ele>
        <time>2025-02-26T10:36:26Z</time>
      </trkpt>
      <trkpt lat="48.06301" lon="-3.50516">
        <ele>176.4</ele>
        <time>2025-02-26T10:36:27Z</time>
      </trkpt>
      <trkpt lat="48.063" lon="-3.50516">
        <ele>176.3</ele>
        <time>2025-02-26T10:36:28Z</time>
      </trkpt>
      <trkpt lat="48.06299" lon="-3.50517">
        <ele>176.3</ele>
        <time>2025-02-26T10:36:29Z</time>
      </trkpt>
      <trkpt lat="48.06297" lon="-3.50517">
        <ele>176.1</ele>
        <time>2025-02-26T10:36:30Z</time>
      </trkpt>
      <trkpt lat="48.06296" lon="-3.50517">
        <ele>175.8</ele>
        <time>2025-02-26T10:36:31Z</time>
      </trkpt>
      <trkpt lat="48.06295" lon="-3.50516">
        <ele>175.7</ele>
        <time>2025-02-26T10:36:32Z</time>
      </trkpt>
      <trkpt lat="48.06294" lon="-3.50516">
        <ele>175.5</ele>
        <time>2025-02-26T10:36:33Z</time>
      </trkpt>
      <trkpt lat="48.06293" lon="-3.50516">
        <ele>175.4</ele>
        <time>2025-02-26T10:36:34Z</time>
      </trkpt>
      <trkpt lat="48.06292" lon="-3.50515">
        <ele>175.2</ele>
        <time>2025-02-26T10:36:35Z</time>
      </trkpt>
      <trkpt lat="48.06291" lon="-3.50516">
        <ele>175</ele>
        <time>2025-02-26T10:36:36Z</time>
      </trkpt>
      <trkpt lat="48.0629" lon="-3.50515">
        <ele>174.8</ele>
        <time>2025-02-26T10:36:37Z</time>
      </trkpt>
      <trkpt lat="48.06289" lon="-3.50516">
        <ele>174.7</ele>
        <time>2025-02-26T10:36:38Z</time>
      </trkpt>
      <trkpt lat="48.06287" lon="-3.50516">
        <ele>174.5</ele>
        <time>2025-02-26T10:36:39Z</time>
      </trkpt>
      <trkpt lat="48.06286" lon="-3.50517">
        <ele>174.4</ele>
        <time>2025-02-26T10:36:40Z</time>
      </trkpt>
      <trkpt lat="48.06285" lon="-3.50517">
        <ele>174.3</ele>
        <time>2025-02-26T10:36:41Z</time>
      </trkpt>
      <trkpt lat="48.06284" lon="-3.50517">
        <ele>174.1</ele>
        <time>2025-02-26T10:36:42Z</time>
      </trkpt>
      <trkpt lat="48.06282" lon="-3.50517">
        <ele>173.9</ele>
        <time>2025-02-26T10:36:43Z</time>
      </trkpt>
      <trkpt lat="48.06281" lon="-3.50517">
        <ele>173.8</ele>
        <time>2025-02-26T10:36:44Z</time>
      </trkpt>
      <trkpt lat="48.0628" lon="-3.50518">
        <ele>173.6</ele>
        <time>2025-02-26T10:36:45Z</time>
      </trkpt>
      <trkpt lat="48.06279" lon="-3.50518">
        <ele>173.5</ele>
        <time>2025-02-26T10:36:46Z</time>
      </trkpt>
      <trkpt lat="48.06278" lon="-3.50518">
        <ele>173.3</ele>
        <time>2025-02-26T10:36:47Z</time>
      </trkpt>
      <trkpt lat="48.06277" lon="-3.50519">
        <ele>173.2</ele>
        <time>2025-02-26T10:36:48Z</time>
      </trkpt>
      <trkpt lat="48.06276" lon="-3.50519">
        <ele>173.1</ele>
        <time>2025-02-26T10:36:49Z</time>
      </trkpt>
      <trkpt lat="48.06274" lon="-3.5052">
        <ele>172.9</ele>
        <time>2025-02-26T10:36:50Z</time>
      </trkpt>
      <trkpt lat="48.06273" lon="-3.5052">
        <ele>172.7</ele>
        <time>2025-02-26T10:36:51Z</time>
      </trkpt>
      <trkpt lat="48.06272" lon="-3.5052">
        <ele>172.6</ele>
        <time>2025-02-26T10:36:52Z</time>
      </trkpt>
      <trkpt lat="48.06271" lon="-3.5052">
        <ele>172.4</ele>
        <time>2025-02-26T10:36:53Z</time>
      </trkpt>
      <trkpt lat="48.06269" lon="-3.50521">
        <ele>172.3</ele>
        <time>2025-02-26T10:36:54Z</time>
      </trkpt>
      <trkpt lat="48.06268" lon="-3.50522">
        <ele>172.2</ele>
        <time>2025-02-26T10:36:55Z</time>
      </trkpt>
      <trkpt lat="48.06267" lon="-3.50522">
        <ele>172</ele>
        <time>2025-02-26T10:36:56Z</time>
      </trkpt>
      <trkpt lat="48.06266" lon="-3.50523">
        <ele>171.9</ele>
        <time>2025-02-26T10:36:57Z</time>
      </trkpt>
      <trkpt lat="48.06265" lon="-3.50524">
        <ele>171.9</ele>
        <time>2025-02-26T10:36:58Z</time>
      </trkpt>
      <trkpt lat="48.06264" lon="-3.50525">
        <ele>171.8</ele>
        <time>2025-02-26T10:36:59Z</time>
      </trkpt>
      <trkpt lat="48.06262" lon="-3.50526">
        <ele>171.6</ele>
        <time>2025-02-26T10:37:00Z</time>
      </trkpt>
      <trkpt lat="48.06261" lon="-3.50527">
        <ele>171.5</ele>
        <time>2025-02-26T10:37:01Z</time>
      </trkpt>
      <trkpt lat="48.0626" lon="-3.50528">
        <ele>171.4</ele>
        <time>2025-02-26T10:37:02Z</time>
      </trkpt>
      <trkpt lat="48.06259" lon="-3.50529">
        <ele>171.3</ele>
        <time>2025-02-26T10:37:03Z</time>
      </trkpt>
      <trkpt lat="48.06258" lon="-3.50529">
        <ele>171.2</ele>
        <time>2025-02-26T10:37:04Z</time>
      </trkpt>
      <trkpt lat="48.06257" lon="-3.5053">
        <ele>171.1</ele>
        <time>2025-02-26T10:37:05Z</time>
      </trkpt>
      <trkpt lat="48.06256" lon="-3.5053">
        <ele>170.9</ele>
        <time>2025-02-26T10:37:06Z</time>
      </trkpt>
      <trkpt lat="48.06255" lon="-3.50531">
        <ele>170.8</ele>
        <time>2025-02-26T10:37:07Z</time>
      </trkpt>
      <trkpt lat="48.06254" lon="-3.50531">
        <ele>170.7</ele>
        <time>2025-02-26T10:37:08Z</time>
      </trkpt>
      <trkpt lat="48.06253" lon="-3.50532">
        <ele>170.5</ele>
        <time>2025-02-26T10:37:09Z</time>
      </trkpt>
      <trkpt lat="48.06251" lon="-3.50532">
        <ele>170.3</ele>
        <time>2025-02-26T10:37:10Z</time>
      </trkpt>
      <trkpt lat="48.0625" lon="-3.50532">
        <ele>170.2</ele>
        <time>2025-02-26T10:37:11Z</time>
      </trkpt>
      <trkpt lat="48.06249" lon="-3.50532">
        <ele>170.1</ele>
        <time>2025-02-26T10:37:12Z</time>
      </trkpt>
      <trkpt lat="48.06248" lon="-3.50533">
        <ele>170</ele>
        <time>2025-02-26T10:37:13Z</time>
      </trkpt>
      <trkpt lat="48.06247" lon="-3.50534">
        <ele>170</ele>
        <time>2025-02-26T10:37:14Z</time>
      </trkpt>
      <trkpt lat="48.06246" lon="-3.50534">
        <ele>169.9</ele>
        <time>2025-02-26T10:37:15Z</time>
      </trkpt>
      <trkpt lat="48.06245" lon="-3.50535">
        <ele>169.8</ele>
        <time>2025-02-26T10:37:16Z</time>
      </trkpt>
      <trkpt lat="48.06243" lon="-3.50535">
        <ele>169.7</ele>
        <time>2025-02-26T10:37:17Z</time>
      </trkpt>
      <trkpt lat="48.06242" lon="-3.50536">
        <ele>169.6</ele>
        <time>2025-02-26T10:37:18Z</time>
      </trkpt>
      <trkpt lat="48.06241" lon="-3.50536">
        <ele>169.6</ele>
        <time>2025-02-26T10:37:19Z</time>
      </trkpt>
      <trkpt lat="48.0624" lon="-3.50536">
        <ele>169.4</ele>
        <time>2025-02-26T10:37:20Z</time>
      </trkpt>
      <trkpt lat="48.06239" lon="-3.50534">
        <ele>169.3</ele>
        <time>2025-02-26T10:37:21Z</time>
      </trkpt>
      <trkpt lat="48.06238" lon="-3.50532">
        <ele>169.2</ele>
        <time>2025-02-26T10:37:22Z</time>
      </trkpt>
      <trkpt lat="48.06238" lon="-3.50531">
        <ele>169.2</ele>
        <time>2025-02-26T10:37:23Z</time>
      </trkpt>
      <trkpt lat="48.06239" lon="-3.50528">
        <ele>169.2</ele>
        <time>2025-02-26T10:37:24Z</time>
      </trkpt>
      <trkpt lat="48.06239" lon="-3.50527">
        <ele>169.2</ele>
        <time>2025-02-26T10:37:25Z</time>
      </trkpt>
      <trkpt lat="48.06237" lon="-3.50525">
        <ele>168.9</ele>
        <time>2025-02-26T10:37:26Z</time>
      </trkpt>
      <trkpt lat="48.06236" lon="-3.50525">
        <ele>168.8</ele>
        <time>2025-02-26T10:37:27Z</time>
      </trkpt>
      <trkpt lat="48.06235" lon="-3.50524">
        <ele>168.7</ele>
        <time>2025-02-26T10:37:28Z</time>
      </trkpt>
      <trkpt lat="48.06234" lon="-3.50524">
        <ele>168.6</ele>
        <time>2025-02-26T10:37:29Z</time>
      </trkpt>
      <trkpt lat="48.06233" lon="-3.50524">
        <ele>168.5</ele>
        <time>2025-02-26T10:37:30Z</time>
      </trkpt>
      <trkpt lat="48.06232" lon="-3.50524">
        <ele>168.5</ele>
        <time>2025-02-26T10:37:31Z</time>
      </trkpt>
      <trkpt lat="48.06231" lon="-3.50525">
        <ele>168.5</ele>
        <time>2025-02-26T10:37:32Z</time>
      </trkpt>
      <trkpt lat="48.0623" lon="-3.50525">
        <ele>168.4</ele>
        <time>2025-02-26T10:37:33Z</time>
      </trkpt>
      <trkpt lat="48.06229" lon="-3.50525">
        <ele>168.3</ele>
        <time>2025-02-26T10:37:34Z</time>
      </trkpt>
      <trkpt lat="48.06228" lon="-3.50525">
        <ele>168.3</ele>
        <time>2025-02-26T10:37:35Z</time>
      </trkpt>
      <trkpt lat="48.06227" lon="-3.50525">
        <ele>168.2</ele>
        <time>2025-02-26T10:37:36Z</time>
      </trkpt>
      <trkpt lat="48.06226" lon="-3.50525">
        <ele>168.1</ele>
        <time>2025-02-26T10:37:37Z</time>
      </trkpt>
      <trkpt lat="48.06224" lon="-3.50525">
        <ele>168</ele>
        <time>2025-02-26T10:37:38Z</time>
      </trkpt>
      <trkpt lat="48.06223" lon="-3.50525">
        <ele>167.9</ele>
        <time>2025-02-26T10:37:39Z</time>
      </trkpt>
      <trkpt lat="48.06222" lon="-3.50525">
        <ele>168</ele>
        <time>2025-02-26T10:37:40Z</time>
      </trkpt>
      <trkpt lat="48.06221" lon="-3.50525">
        <ele>168.2</ele>
        <time>2025-02-26T10:37:41Z</time>
      </trkpt>
      <trkpt lat="48.0622" lon="-3.50524">
        <ele>168.4</ele>
        <time>2025-02-26T10:37:42Z</time>
      </trkpt>
      <trkpt lat="48.06219" lon="-3.50524">
        <ele>168.7</ele>
        <time>2025-02-26T10:37:43Z</time>
      </trkpt>
      <trkpt lat="48.06218" lon="-3.50524">
        <ele>168.9</ele>
        <time>2025-02-26T10:37:44Z</time>
      </trkpt>
      <trkpt lat="48.06217" lon="-3.50524">
        <ele>169.1</ele>
        <time>2025-02-26T10:37:45Z</time>
      </trkpt>
      <trkpt lat="48.06216" lon="-3.50523">
        <ele>169.3</ele>
        <time>2025-02-26T10:37:46Z</time>
      </trkpt>
      <trkpt lat="48.06215" lon="-3.50522">
        <ele>169.5</ele>
        <time>2025-02-26T10:37:47Z</time>
      </trkpt>
      <trkpt lat="48.06214" lon="-3.50521">
        <ele>169.7</ele>
        <time>2025-02-26T10:37:48Z</time>
      </trkpt>
      <trkpt lat="48.06213" lon="-3.50521">
        <ele>169.8</ele>
        <time>2025-02-26T10:37:49Z</time>
      </trkpt>
      <trkpt lat="48.06212" lon="-3.5052">
        <ele>170</ele>
        <time>2025-02-26T10:37:50Z</time>
      </trkpt>
      <trkpt lat="48.06211" lon="-3.50519">
        <ele>170.1</ele>
        <time>2025-02-26T10:37:51Z</time>
      </trkpt>
      <trkpt lat="48.06211" lon="-3.50518">
        <ele>170.3</ele>
        <time>2025-02-26T10:37:52Z</time>
      </trkpt>
      <trkpt lat="48.0621" lon="-3.50518">
        <ele>170.5</ele>
        <time>2025-02-26T10:37:53Z</time>
      </trkpt>
      <trkpt lat="48.06209" lon="-3.50517">
        <ele>170.7</ele>
        <time>2025-02-26T10:37:54Z</time>
      </trkpt>
      <trkpt lat="48.06208" lon="-3.50517">
        <ele>171</ele>
        <time>2025-02-26T10:37:55Z</time>
      </trkpt>
      <trkpt lat="48.06207" lon="-3.50517">
        <ele>171.2</ele>
        <time>2025-02-26T10:37:56Z</time>
      </trkpt>
      <trkpt lat="48.06206" lon="-3.50517">
        <ele>171.4</ele>
        <time>2025-02-26T10:37:57Z</time>
      </trkpt>
      <trkpt lat="48.06205" lon="-3.50517">
        <ele>171.6</ele>
        <time>2025-02-26T10:37:58Z</time>
      </trkpt>
      <trkpt lat="48.06204" lon="-3.50517">
        <ele>171.8</ele>
        <time>2025-02-26T10:37:59Z</time>
      </trkpt>
      <trkpt lat="48.06203" lon="-3.50516">
        <ele>172</ele>
        <time>2025-02-26T10:38:00Z</time>
      </trkpt>
      <trkpt lat="48.06202" lon="-3.50516">
        <ele>172.2</ele>
        <time>2025-02-26T10:38:01Z</time>
      </trkpt>
      <trkpt lat="48.06202" lon="-3.50516">
        <ele>172.3</ele>
        <time>2025-02-26T10:38:02Z</time>
      </trkpt>
      <trkpt lat="48.06201" lon="-3.50516">
        <ele>172.5</ele>
        <time>2025-02-26T10:38:03Z</time>
      </trkpt>
      <trkpt lat="48.06201" lon="-3.50517">
        <ele>172.6</ele>
        <time>2025-02-26T10:38:04Z</time>
      </trkpt>
      <trkpt lat="48.062" lon="-3.50518">
        <ele>172.7</ele>
        <time>2025-02-26T10:38:05Z</time>
      </trkpt>
      <trkpt lat="48.062" lon="-3.50519">
        <ele>172.8</ele>
        <time>2025-02-26T10:38:06Z</time>
      </trkpt>
      <trkpt lat="48.06199" lon="-3.5052">
        <ele>172.9</ele>
        <time>2025-02-26T10:38:07Z</time>
      </trkpt>
      <trkpt lat="48.06199" lon="-3.50522">
        <ele>173</ele>
        <time>2025-02-26T10:38:08Z</time>
      </trkpt>
      <trkpt lat="48.06199" lon="-3.50523">
        <ele>173</ele>
        <time>2025-02-26T10:38:09Z</time>
      </trkpt>
      <trkpt lat="48.06199" lon="-3.50524">
        <ele>173.1</ele>
        <time>2025-02-26T10:38:10Z</time>
      </trkpt>
      <trkpt lat="48.06199" lon="-3.50525">
        <ele>173.1</ele>
        <time>2025-02-26T10:38:11Z</time>
      </trkpt>
      <trkpt lat="48.06199" lon="-3.50526">
        <ele>173.1</ele>
        <time>2025-02-26T10:38:12Z</time>
      </trkpt>
      <trkpt lat="48.06198" lon="-3.50527">
        <ele>173.2</ele>
        <time>2025-02-26T10:38:13Z</time>
      </trkpt>
      <trkpt lat="48.06198" lon="-3.50529">
        <ele>173.2</ele>
        <time>2025-02-26T10:38:14Z</time>
      </trkpt>
      <trkpt lat="48.06197" lon="-3.5053">
        <ele>173.3</ele>
        <time>2025-02-26T10:38:15Z</time>
      </trkpt>
      <trkpt lat="48.06197" lon="-3.50531">
        <ele>173.3</ele>
        <time>2025-02-26T10:38:16Z</time>
      </trkpt>
      <trkpt lat="48.06197" lon="-3.50532">
        <ele>173.3</ele>
        <time>2025-02-26T10:38:17Z</time>
      </trkpt>
      <trkpt lat="48.06197" lon="-3.50534">
        <ele>173.3</ele>
        <time>2025-02-26T10:38:18Z</time>
      </trkpt>
      <trkpt lat="48.06197" lon="-3.50535">
        <ele>173.3</ele>
        <time>2025-02-26T10:38:19Z</time>
      </trkpt>
      <trkpt lat="48.06196" lon="-3.50536">
        <ele>173.3</ele>
        <time>2025-02-26T10:38:20Z</time>
      </trkpt>
      <trkpt lat="48.06196" lon="-3.50537">
        <ele>173.4</ele>
        <time>2025-02-26T10:38:21Z</time>
      </trkpt>
      <trkpt lat="48.06196" lon="-3.50539">
        <ele>173.4</ele>
        <time>2025-02-26T10:38:22Z</time>
      </trkpt>
      <trkpt lat="48.06195" lon="-3.5054">
        <ele>173.4</ele>
        <time>2025-02-26T10:38:23Z</time>
      </trkpt>
      <trkpt lat="48.06195" lon="-3.50542">
        <ele>173.4</ele>
        <time>2025-02-26T10:38:24Z</time>
      </trkpt>
      <trkpt lat="48.06195" lon="-3.50543">
        <ele>173.4</ele>
        <time>2025-02-26T10:38:25Z</time>
      </trkpt>
      <trkpt lat="48.06194" lon="-3.50545">
        <ele>173.4</ele>
        <time>2025-02-26T10:38:26Z</time>
      </trkpt>
      <trkpt lat="48.06193" lon="-3.50546">
        <ele>173.6</ele>
        <time>2025-02-26T10:38:27Z</time>
      </trkpt>
      <trkpt lat="48.06193" lon="-3.50549">
        <ele>173.6</ele>
        <time>2025-02-26T10:38:28Z</time>
      </trkpt>
      <trkpt lat="48.06193" lon="-3.50551">
        <ele>173.5</ele>
        <time>2025-02-26T10:38:29Z</time>
      </trkpt>
      <trkpt lat="48.06192" lon="-3.50552">
        <ele>173.6</ele>
        <time>2025-02-26T10:38:30Z</time>
      </trkpt>
      <trkpt lat="48.06192" lon="-3.50554">
        <ele>173.7</ele>
        <time>2025-02-26T10:38:31Z</time>
      </trkpt>
      <trkpt lat="48.06191" lon="-3.50555">
        <ele>173.7</ele>
        <time>2025-02-26T10:38:32Z</time>
      </trkpt>
      <trkpt lat="48.06191" lon="-3.50556">
        <ele>173.8</ele>
        <time>2025-02-26T10:38:33Z</time>
      </trkpt>
      <trkpt lat="48.06191" lon="-3.50557">
        <ele>173.8</ele>
        <time>2025-02-26T10:38:34Z</time>
      </trkpt>
      <trkpt lat="48.0619" lon="-3.5056">
        <ele>173.7</ele>
        <time>2025-02-26T10:38:35Z</time>
      </trkpt>
      <trkpt lat="48.06189" lon="-3.50561">
        <ele>173.9</ele>
        <time>2025-02-26T10:38:36Z</time>
      </trkpt>
      <trkpt lat="48.06189" lon="-3.50563">
        <ele>173.8</ele>
        <time>2025-02-26T10:38:37Z</time>
      </trkpt>
      <trkpt lat="48.06189" lon="-3.50565">
        <ele>173.8</ele>
        <time>2025-02-26T10:38:38Z</time>
      </trkpt>
      <trkpt lat="48.06189" lon="-3.50566">
        <ele>173.8</ele>
        <time>2025-02-26T10:38:39Z</time>
      </trkpt>
      <trkpt lat="48.06188" lon="-3.50568">
        <ele>173.9</ele>
        <time>2025-02-26T10:38:40Z</time>
      </trkpt>
      <trkpt lat="48.06188" lon="-3.5057">
        <ele>173.9</ele>
        <time>2025-02-26T10:38:41Z</time>
      </trkpt>
      <trkpt lat="48.06187" lon="-3.50571">
        <ele>173.9</ele>
        <time>2025-02-26T10:38:42Z</time>
      </trkpt>
      <trkpt lat="48.06187" lon="-3.50573">
        <ele>173.8</ele>
        <time>2025-02-26T10:38:43Z</time>
      </trkpt>
      <trkpt lat="48.06187" lon="-3.50575">
        <ele>173.7</ele>
        <time>2025-02-26T10:38:44Z</time>
      </trkpt>
      <trkpt lat="48.06186" lon="-3.50576">
        <ele>173.9</ele>
        <time>2025-02-26T10:38:45Z</time>
      </trkpt>
      <trkpt lat="48.06186" lon="-3.50577">
        <ele>173.9</ele>
        <time>2025-02-26T10:38:46Z</time>
      </trkpt>
      <trkpt lat="48.06185" lon="-3.50579">
        <ele>173.9</ele>
        <time>2025-02-26T10:38:47Z</time>
      </trkpt>
      <trkpt lat="48.06184" lon="-3.50581">
        <ele>174</ele>
        <time>2025-02-26T10:38:48Z</time>
      </trkpt>
      <trkpt lat="48.06184" lon="-3.50583">
        <ele>173.9</ele>
        <time>2025-02-26T10:38:49Z</time>
      </trkpt>
      <trkpt lat="48.06183" lon="-3.50584">
        <ele>174.1</ele>
        <time>2025-02-26T10:38:50Z</time>
      </trkpt>
      <trkpt lat="48.06182" lon="-3.50585">
        <ele>174.1</ele>
        <time>2025-02-26T10:38:51Z</time>
      </trkpt>
      <trkpt lat="48.06182" lon="-3.50586">
        <ele>174.1</ele>
        <time>2025-02-26T10:38:52Z</time>
      </trkpt>
      <trkpt lat="48.06181" lon="-3.50587">
        <ele>174.2</ele>
        <time>2025-02-26T10:38:53Z</time>
      </trkpt>
      <trkpt lat="48.06181" lon="-3.50588">
        <ele>174.1</ele>
        <time>2025-02-26T10:38:54Z</time>
      </trkpt>
      <trkpt lat="48.0618" lon="-3.5059">
        <ele>174.1</ele>
        <time>2025-02-26T10:38:55Z</time>
      </trkpt>
      <trkpt lat="48.0618" lon="-3.50591">
        <ele>174</ele>
        <time>2025-02-26T10:38:56Z</time>
      </trkpt>
      <trkpt lat="48.0618" lon="-3.50592">
        <ele>174</ele>
        <time>2025-02-26T10:38:57Z</time>
      </trkpt>
      <trkpt lat="48.06179" lon="-3.50594">
        <ele>174</ele>
        <time>2025-02-26T10:38:58Z</time>
      </trkpt>
      <trkpt lat="48.06178" lon="-3.50595">
        <ele>174</ele>
        <time>2025-02-26T10:38:59Z</time>
      </trkpt>
      <trkpt lat="48.06178" lon="-3.50597">
        <ele>174</ele>
        <time>2025-02-26T10:39:00Z</time>
      </trkpt>
      <trkpt lat="48.06177" lon="-3.50598">
        <ele>173.9</ele>
        <time>2025-02-26T10:39:01Z</time>
      </trkpt>
      <trkpt lat="48.06177" lon="-3.506">
        <ele>173.8</ele>
        <time>2025-02-26T10:39:02Z</time>
      </trkpt>
      <trkpt lat="48.06177" lon="-3.50601">
        <ele>173.8</ele>
        <time>2025-02-26T10:39:03Z</time>
      </trkpt>
      <trkpt lat="48.06176" lon="-3.50602">
        <ele>173.8</ele>
        <time>2025-02-26T10:39:04Z</time>
      </trkpt>
      <trkpt lat="48.06175" lon="-3.50603">
        <ele>173.8</ele>
        <time>2025-02-26T10:39:05Z</time>
      </trkpt>
      <trkpt lat="48.06175" lon="-3.50605">
        <ele>173.7</ele>
        <time>2025-02-26T10:39:06Z</time>
      </trkpt>
      <trkpt lat="48.06174" lon="-3.50606">
        <ele>173.7</ele>
        <time>2025-02-26T10:39:07Z</time>
      </trkpt>
      <trkpt lat="48.06173" lon="-3.50607">
        <ele>173.6</ele>
        <time>2025-02-26T10:39:08Z</time>
      </trkpt>
      <trkpt lat="48.06173" lon="-3.50609">
        <ele>173.5</ele>
        <time>2025-02-26T10:39:09Z</time>
      </trkpt>
      <trkpt lat="48.06172" lon="-3.5061">
        <ele>173.5</ele>
        <time>2025-02-26T10:39:10Z</time>
      </trkpt>
      <trkpt lat="48.06172" lon="-3.50611">
        <ele>173.5</ele>
        <time>2025-02-26T10:39:11Z</time>
      </trkpt>
      <trkpt lat="48.06171" lon="-3.50611">
        <ele>173.6</ele>
        <time>2025-02-26T10:39:12Z</time>
      </trkpt>
      <trkpt lat="48.0617" lon="-3.50612">
        <ele>173.6</ele>
        <time>2025-02-26T10:39:13Z</time>
      </trkpt>
      <trkpt lat="48.06169" lon="-3.50613">
        <ele>173.7</ele>
        <time>2025-02-26T10:39:14Z</time>
      </trkpt>
      <trkpt lat="48.06168" lon="-3.50613">
        <ele>173.7</ele>
        <time>2025-02-26T10:39:15Z</time>
      </trkpt>
      <trkpt lat="48.06167" lon="-3.50614">
        <ele>173.8</ele>
        <time>2025-02-26T10:39:16Z</time>
      </trkpt>
      <trkpt lat="48.06166" lon="-3.50613">
        <ele>173.9</ele>
        <time>2025-02-26T10:39:17Z</time>
      </trkpt>
      <trkpt lat="48.06165" lon="-3.50613">
        <ele>174</ele>
        <time>2025-02-26T10:39:18Z</time>
      </trkpt>
      <trkpt lat="48.06164" lon="-3.50613">
        <ele>174.1</ele>
        <time>2025-02-26T10:39:19Z</time>
      </trkpt>
      <trkpt lat="48.06162" lon="-3.50613">
        <ele>174.1</ele>
        <time>2025-02-26T10:39:20Z</time>
      </trkpt>
      <trkpt lat="48.06161" lon="-3.50614">
        <ele>174.2</ele>
        <time>2025-02-26T10:39:21Z</time>
      </trkpt>
      <trkpt lat="48.0616" lon="-3.50613">
        <ele>174.3</ele>
        <time>2025-02-26T10:39:22Z</time>
      </trkpt>
      <trkpt lat="48.06159" lon="-3.50613">
        <ele>174.4</ele>
        <time>2025-02-26T10:39:23Z</time>
      </trkpt>
      <trkpt lat="48.06158" lon="-3.50612">
        <ele>174.6</ele>
        <time>2025-02-26T10:39:24Z</time>
      </trkpt>
      <trkpt lat="48.06157" lon="-3.50612">
        <ele>174.6</ele>
        <time>2025-02-26T10:39:25Z</time>
      </trkpt>
      <trkpt lat="48.06156" lon="-3.50613">
        <ele>174.7</ele>
        <time>2025-02-26T10:39:26Z</time>
      </trkpt>
      <trkpt lat="48.06155" lon="-3.50613">
        <ele>174.7</ele>
        <time>2025-02-26T10:39:27Z</time>
      </trkpt>
      <trkpt lat="48.06153" lon="-3.50612">
        <ele>174.9</ele>
        <time>2025-02-26T10:39:28Z</time>
      </trkpt>
      <trkpt lat="48.06152" lon="-3.50612">
        <ele>175</ele>
        <time>2025-02-26T10:39:29Z</time>
      </trkpt>
      <trkpt lat="48.06151" lon="-3.50612">
        <ele>175.1</ele>
        <time>2025-02-26T10:39:30Z</time>
      </trkpt>
      <trkpt lat="48.0615" lon="-3.50611">
        <ele>175.2</ele>
        <time>2025-02-26T10:39:31Z</time>
      </trkpt>
      <trkpt lat="48.0615" lon="-3.50611">
        <ele>175.2</ele>
        <time>2025-02-26T10:39:32Z</time>
      </trkpt>
      <trkpt lat="48.0615" lon="-3.50611">
        <ele>175.2</ele>
        <time>2025-02-26T10:39:33Z</time>
      </trkpt>
      <trkpt lat="48.06149" lon="-3.50611">
        <ele>175.2</ele>
        <time>2025-02-26T10:39:34Z</time>
      </trkpt>
      <trkpt lat="48.06149" lon="-3.50611">
        <ele>175.2</ele>
        <time>2025-02-26T10:39:35Z</time>
      </trkpt>
      <trkpt lat="48.0615" lon="-3.50611">
        <ele>175.2</ele>
        <time>2025-02-26T10:39:36Z</time>
      </trkpt>
      <trkpt lat="48.0615" lon="-3.50611">
        <ele>175.2</ele>
        <time>2025-02-26T10:39:37Z</time>
      </trkpt>
      <trkpt lat="48.0615" lon="-3.50611">
        <ele>175.2</ele>
        <time>2025-02-26T10:39:38Z</time>
      </trkpt>
      <trkpt lat="48.0615" lon="-3.50611">
        <ele>175.2</ele>
        <time>2025-02-26T10:39:39Z</time>
      </trkpt>
      <trkpt lat="48.0615" lon="-3.50611">
        <ele>175.2</ele>
        <time>2025-02-26T10:39:40Z</time>
      </trkpt>
      <trkpt lat="48.06148" lon="-3.50611">
        <ele>175.4</ele>
        <time>2025-02-26T10:39:41Z</time>
      </trkpt>
      <trkpt lat="48.06147" lon="-3.50611">
        <ele>175.4</ele>
        <time>2025-02-26T10:39:42Z</time>
      </trkpt>
      <trkpt lat="48.06147" lon="-3.50611">
        <ele>175.4</ele>
        <time>2025-02-26T10:39:43Z</time>
      </trkpt>
      <trkpt lat="48.06148" lon="-3.50611">
        <ele>175.4</ele>
        <time>2025-02-26T10:39:44Z</time>
      </trkpt>
      <trkpt lat="48.06148" lon="-3.50612">
        <ele>175.3</ele>
        <time>2025-02-26T10:39:45Z</time>
      </trkpt>
      <trkpt lat="48.06148" lon="-3.50612">
        <ele>175.3</ele>
        <time>2025-02-26T10:39:46Z</time>
      </trkpt>
      <trkpt lat="48.06148" lon="-3.50612">
        <ele>175.3</ele>
        <time>2025-02-26T10:39:47Z</time>
      </trkpt>
      <trkpt lat="48.06148" lon="-3.50612">
        <ele>175.3</ele>
        <time>2025-02-26T10:39:48Z</time>
      </trkpt>
      <trkpt lat="48.06148" lon="-3.50612">
        <ele>175.3</ele>
        <time>2025-02-26T10:39:49Z</time>
      </trkpt>
      <trkpt lat="48.06148" lon="-3.50612">
        <ele>175.3</ele>
        <time>2025-02-26T10:39:50Z</time>
      </trkpt>
      <trkpt lat="48.06148" lon="-3.50612">
        <ele>175.3</ele>
        <time>2025-02-26T10:39:51Z</time>
      </trkpt>
      <trkpt lat="48.06148" lon="-3.50612">
        <ele>175.3</ele>
        <time>2025-02-26T10:39:52Z</time>
      </trkpt>
      <trkpt lat="48.06148" lon="-3.50612">
        <ele>175.3</ele>
        <time>2025-02-26T10:39:53Z</time>
      </trkpt>
      <trkpt lat="48.06148" lon="-3.50612">
        <ele>175.3</ele>
        <time>2025-02-26T10:39:54Z</time>
      </trkpt>
      <trkpt lat="48.06148" lon="-3.50612">
        <ele>175.3</ele>
        <time>2025-02-26T10:39:55Z</time>
      </trkpt>
      <trkpt lat="48.06148" lon="-3.50612">
        <ele>175.3</ele>
        <time>2025-02-26T10:39:56Z</time>
      </trkpt>
      <trkpt lat="48.06148" lon="-3.50612">
        <ele>175.3</ele>
        <time>2025-02-26T10:39:57Z</time>
      </trkpt>
      <trkpt lat="48.06148" lon="-3.50612">
        <ele>175.3</ele>
        <time>2025-02-26T10:39:58Z</time>
      </trkpt>
      <trkpt lat="48.06148" lon="-3.50612">
        <ele>175.3</ele>
        <time>2025-02-26T10:39:59Z</time>
      </trkpt>
      <trkpt lat="48.06148" lon="-3.50612">
        <ele>175.3</ele>
        <time>2025-02-26T10:40:00Z</time>
      </trkpt>
      <trkpt lat="48.06148" lon="-3.50612">
        <ele>175.3</ele>
        <time>2025-02-26T10:40:01Z</time>
      </trkpt>
      <trkpt lat="48.06148" lon="-3.50612">
        <ele>175.3</ele>
        <time>2025-02-26T10:40:02Z</time>
      </trkpt>
      <trkpt lat="48.06148" lon="-3.50612">
        <ele>175.3</ele>
        <time>2025-02-26T10:40:03Z</time>
      </trkpt>
      <trkpt lat="48.06148" lon="-3.50613">
        <ele>175.3</ele>
        <time>2025-02-26T10:40:04Z</time>
      </trkpt>
      <trkpt lat="48.06148" lon="-3.50613">
        <ele>175.3</ele>
        <time>2025-02-26T10:40:05Z</time>
      </trkpt>
      <trkpt lat="48.06148" lon="-3.50613">
        <ele>175.3</ele>
        <time>2025-02-26T10:40:06Z</time>
      </trkpt>
      <trkpt lat="48.06148" lon="-3.50613">
        <ele>175.3</ele>
        <time>2025-02-26T10:40:07Z</time>
      </trkpt>
      <trkpt lat="48.06148" lon="-3.50613">
        <ele>175.3</ele>
        <time>2025-02-26T10:40:08Z</time>
      </trkpt>
      <trkpt lat="48.06148" lon="-3.50613">
        <ele>175.3</ele>
        <time>2025-02-26T10:40:09Z</time>
      </trkpt>
      <trkpt lat="48.06148" lon="-3.50613">
        <ele>175.3</ele>
        <time>2025-02-26T10:40:10Z</time>
      </trkpt>
      <trkpt lat="48.06148" lon="-3.50613">
        <ele>175.3</ele>
        <time>2025-02-26T10:40:11Z</time>
      </trkpt>
      <trkpt lat="48.06148" lon="-3.50613">
        <ele>175.3</ele>
        <time>2025-02-26T10:40:12Z</time>
      </trkpt>
      <trkpt lat="48.06148" lon="-3.50613">
        <ele>175.3</ele>
        <time>2025-02-26T10:40:13Z</time>
      </trkpt>
      <trkpt lat="48.06148" lon="-3.50613">
        <ele>175.3</ele>
        <time>2025-02-26T10:40:14Z</time>
      </trkpt>
      <trkpt lat="48.06148" lon="-3.50613">
        <ele>175.3</ele>
        <time>2025-02-26T10:40:15Z</time>
      </trkpt>
      <trkpt lat="48.06148" lon="-3.50613">
        <ele>175.3</ele>
        <time>2025-02-26T10:40:16Z</time>
      </trkpt>
      <trkpt lat="48.06148" lon="-3.50613">
        <ele>175.3</ele>
        <time>2025-02-26T10:40:17Z</time>
      </trkpt>
      <trkpt lat="48.06148" lon="-3.50613">
        <ele>175.3</ele>
        <time>2025-02-26T10:40:18Z</time>
      </trkpt>
      <trkpt lat="48.06148" lon="-3.50613">
        <ele>175.3</ele>
        <time>2025-02-26T10:40:19Z</time>
      </trkpt>
      <trkpt lat="48.06148" lon="-3.50613">
        <ele>175.3</ele>
        <time>2025-02-26T10:40:20Z</time>
      </trkpt>
      <trkpt lat="48.06148" lon="-3.50613">
        <ele>175.3</ele>
        <time>2025-02-26T10:40:21Z</time>
      </trkpt>
      <trkpt lat="48.06148" lon="-3.50613">
        <ele>175.3</ele>
        <time>2025-02-26T10:40:22Z</time>
      </trkpt>
      <trkpt lat="48.06148" lon="-3.50613">
        <ele>175.3</ele>
        <time>2025-02-26T10:40:23Z</time>
      </trkpt>
      <trkpt lat="48.06148" lon="-3.50613">
        <ele>175.3</ele>
        <time>2025-02-26T10:40:24Z</time>
      </trkpt>
      <trkpt lat="48.06148" lon="-3.50613">
        <ele>175.3</ele>
        <time>2025-02-26T10:40:25Z</time>
      </trkpt>
      <trkpt lat="48.06148" lon="-3.50613">
        <ele>175.3</ele>
        <time>2025-02-26T10:40:26Z</time>
      </trkpt>
      <trkpt lat="48.06148" lon="-3.50613">
        <ele>175.3</ele>
        <time>2025-02-26T10:40:27Z</time>
      </trkpt>
      <trkpt lat="48.06148" lon="-3.50613">
        <ele>175.3</ele>
        <time>2025-02-26T10:40:28Z</time>
      </trkpt>
      <trkpt lat="48.06148" lon="-3.50613">
        <ele>175.3</ele>
        <time>2025-02-26T10:40:29Z</time>
      </trkpt>
      <trkpt lat="48.06148" lon="-3.50613">
        <ele>175.3</ele>
        <time>2025-02-26T10:40:30Z</time>
      </trkpt>
      <trkpt lat="48.06148" lon="-3.50613">
        <ele>175.3</ele>
        <time>2025-02-26T10:40:31Z</time>
      </trkpt>
      <trkpt lat="48.06148" lon="-3.50613">
        <ele>175.2</ele>
        <time>2025-02-26T10:40:32Z</time>
      </trkpt>
      <trkpt lat="48.06148" lon="-3.50613">
        <ele>175.2</ele>
        <time>2025-02-26T10:40:33Z</time>
      </trkpt>
      <trkpt lat="48.06148" lon="-3.50613">
        <ele>175.2</ele>
        <time>2025-02-26T10:40:34Z</time>
      </trkpt>
      <trkpt lat="48.06148" lon="-3.50613">
        <ele>175.2</ele>
        <time>2025-02-26T10:40:35Z</time>
      </trkpt>
      <trkpt lat="48.06149" lon="-3.50612">
        <ele>175.2</ele>
        <time>2025-02-26T10:40:36Z</time>
      </trkpt>
      <trkpt lat="48.06149" lon="-3.50612">
        <ele>175.2</ele>
        <time>2025-02-26T10:40:37Z</time>
      </trkpt>
      <trkpt lat="48.06149" lon="-3.50612">
        <ele>175.2</ele>
        <time>2025-02-26T10:40:38Z</time>
      </trkpt>
      <trkpt lat="48.0615" lon="-3.50611">
        <ele>175.2</ele>
        <time>2025-02-26T10:40:39Z</time>
      </trkpt>
      <trkpt lat="48.0615" lon="-3.50611">
        <ele>175.2</ele>
        <time>2025-02-26T10:40:40Z</time>
      </trkpt>
      <trkpt lat="48.0615" lon="-3.50612">
        <ele>175.2</ele>
        <time>2025-02-26T10:40:41Z</time>
      </trkpt>
      <trkpt lat="48.0615" lon="-3.50612">
        <ele>175.2</ele>
        <time>2025-02-26T10:40:42Z</time>
      </trkpt>
      <trkpt lat="48.06152" lon="-3.50611">
        <ele>175.1</ele>
        <time>2025-02-26T10:40:43Z</time>
      </trkpt>
      <trkpt lat="48.06154" lon="-3.50611">
        <ele>174.9</ele>
        <time>2025-02-26T10:40:44Z</time>
      </trkpt>
      <trkpt lat="48.06155" lon="-3.50611">
        <ele>174.8</ele>
        <time>2025-02-26T10:40:45Z</time>
      </trkpt>
      <trkpt lat="48.06156" lon="-3.50607">
        <ele>175.1</ele>
        <time>2025-02-26T10:40:46Z</time>
      </trkpt>
      <trkpt lat="48.06155" lon="-3.50606">
        <ele>175.4</ele>
        <time>2025-02-26T10:40:47Z</time>
      </trkpt>
      <trkpt lat="48.06154" lon="-3.50606">
        <ele>175.4</ele>
        <time>2025-02-26T10:40:48Z</time>
      </trkpt>
      <trkpt lat="48.06154" lon="-3.50606">
        <ele>175.4</ele>
        <time>2025-02-26T10:40:49Z</time>
      </trkpt>
      <trkpt lat="48.06153" lon="-3.50608">
        <ele>175.3</ele>
        <time>2025-02-26T10:40:50Z</time>
      </trkpt>
      <trkpt lat="48.06153" lon="-3.50609">
        <ele>175.2</ele>
        <time>2025-02-26T10:40:51Z</time>
      </trkpt>
      <trkpt lat="48.06153" lon="-3.50612">
        <ele>175</ele>
        <time>2025-02-26T10:40:52Z</time>
      </trkpt>
      <trkpt lat="48.06153" lon="-3.50614">
        <ele>174.7</ele>
        <time>2025-02-26T10:40:53Z</time>
      </trkpt>
      <trkpt lat="48.06154" lon="-3.50616">
        <ele>174.5</ele>
        <time>2025-02-26T10:40:54Z</time>
      </trkpt>
      <trkpt lat="48.06158" lon="-3.50618">
        <ele>174.1</ele>
        <time>2025-02-26T10:40:55Z</time>
      </trkpt>
      <trkpt lat="48.0616" lon="-3.50618">
        <ele>174</ele>
        <time>2025-02-26T10:40:56Z</time>
      </trkpt>
      <trkpt lat="48.06162" lon="-3.50617">
        <ele>173.9</ele>
        <time>2025-02-26T10:40:57Z</time>
      </trkpt>
      <trkpt lat="48.06163" lon="-3.50617">
        <ele>173.8</ele>
        <time>2025-02-26T10:40:58Z</time>
      </trkpt>
      <trkpt lat="48.06165" lon="-3.50616">
        <ele>173.8</ele>
        <time>2025-02-26T10:40:59Z</time>
      </trkpt>
      <trkpt lat="48.06166" lon="-3.50614">
        <ele>173.9</ele>
        <time>2025-02-26T10:41:00Z</time>
      </trkpt>
      <trkpt lat="48.06167" lon="-3.50613">
        <ele>173.9</ele>
        <time>2025-02-26T10:41:01Z</time>
      </trkpt>
      <trkpt lat="48.06167" lon="-3.50611">
        <ele>173.9</ele>
        <time>2025-02-26T10:41:02Z</time>
      </trkpt>
      <trkpt lat="48.06168" lon="-3.5061">
        <ele>174</ele>
        <time>2025-02-26T10:41:03Z</time>
      </trkpt>
      <trkpt lat="48.06169" lon="-3.50609">
        <ele>174</ele>
        <time>2025-02-26T10:41:04Z</time>
      </trkpt>
      <trkpt lat="48.06169" lon="-3.50607">
        <ele>174.2</ele>
        <time>2025-02-26T10:41:05Z</time>
      </trkpt>
      <trkpt lat="48.06169" lon="-3.50606">
        <ele>174.3</ele>
        <time>2025-02-26T10:41:06Z</time>
      </trkpt>
      <trkpt lat="48.06169" lon="-3.50604">
        <ele>174.4</ele>
        <time>2025-02-26T10:41:07Z</time>
      </trkpt>
      <trkpt lat="48.0617" lon="-3.50603">
        <ele>174.5</ele>
        <time>2025-02-26T10:41:08Z</time>
      </trkpt>
      <trkpt lat="48.0617" lon="-3.50601">
        <ele>174.6</ele>
        <time>2025-02-26T10:41:09Z</time>
      </trkpt>
      <trkpt lat="48.06171" lon="-3.506">
        <ele>174.7</ele>
        <time>2025-02-26T10:41:10Z</time>
      </trkpt>
      <trkpt lat="48.06171" lon="-3.50599">
        <ele>174.7</ele>
        <time>2025-02-26T10:41:11Z</time>
      </trkpt>
      <trkpt lat="48.06173" lon="-3.50601">
        <ele>174.2</ele>
        <time>2025-02-26T10:41:12Z</time>
      </trkpt>
      <trkpt lat="48.06174" lon="-3.50602">
        <ele>174.1</ele>
        <time>2025-02-26T10:41:13Z</time>
      </trkpt>
      <trkpt lat="48.06173" lon="-3.50603">
        <ele>174</ele>
        <time>2025-02-26T10:41:14Z</time>
      </trkpt>
      <trkpt lat="48.06173" lon="-3.50603">
        <ele>174</ele>
        <time>2025-02-26T10:41:15Z</time>
      </trkpt>
      <trkpt lat="48.06173" lon="-3.50604">
        <ele>174</ele>
        <time>2025-02-26T10:41:16Z</time>
      </trkpt>
      <trkpt lat="48.06173" lon="-3.50604">
        <ele>174</ele>
        <time>2025-02-26T10:41:17Z</time>
      </trkpt>
      <trkpt lat="48.06173" lon="-3.50604">
        <ele>174</ele>
        <time>2025-02-26T10:41:18Z</time>
      </trkpt>
      <trkpt lat="48.06173" lon="-3.50603">
        <ele>174</ele>
        <time>2025-02-26T10:41:19Z</time>
      </trkpt>
      <trkpt lat="48.06174" lon="-3.50602">
        <ele>174.1</ele>
        <time>2025-02-26T10:41:20Z</time>
      </trkpt>
      <trkpt lat="48.06175" lon="-3.506">
        <ele>174.1</ele>
        <time>2025-02-26T10:41:21Z</time>
      </trkpt>
      <trkpt lat="48.06176" lon="-3.50598">
        <ele>174</ele>
        <time>2025-02-26T10:41:22Z</time>
      </trkpt>
      <trkpt lat="48.06176" lon="-3.50593">
        <ele>174.4</ele>
        <time>2025-02-26T10:41:23Z</time>
      </trkpt>
      <trkpt lat="48.06177" lon="-3.50592">
        <ele>174.5</ele>
        <time>2025-02-26T10:41:24Z</time>
      </trkpt>
      <trkpt lat="48.06176" lon="-3.50592">
        <ele>174.5</ele>
        <time>2025-02-26T10:41:25Z</time>
      </trkpt>
      <trkpt lat="48.06177" lon="-3.5059">
        <ele>174.6</ele>
        <time>2025-02-26T10:41:26Z</time>
      </trkpt>
      <trkpt lat="48.06176" lon="-3.5059">
        <ele>174.8</ele>
        <time>2025-02-26T10:41:27Z</time>
      </trkpt>
      <trkpt lat="48.06177" lon="-3.50588">
        <ele>174.7</ele>
        <time>2025-02-26T10:41:28Z</time>
      </trkpt>
      <trkpt lat="48.06178" lon="-3.50587">
        <ele>174.8</ele>
        <time>2025-02-26T10:41:29Z</time>
      </trkpt>
      <trkpt lat="48.06178" lon="-3.50586">
        <ele>174.8</ele>
        <time>2025-02-26T10:41:30Z</time>
      </trkpt>
      <trkpt lat="48.06178" lon="-3.50584">
        <ele>174.9</ele>
        <time>2025-02-26T10:41:31Z</time>
      </trkpt>
      <trkpt lat="48.06179" lon="-3.50582">
        <ele>175</ele>
        <time>2025-02-26T10:41:32Z</time>
      </trkpt>
      <trkpt lat="48.06179" lon="-3.50579">
        <ele>174.9</ele>
        <time>2025-02-26T10:41:33Z</time>
      </trkpt>
      <trkpt lat="48.0618" lon="-3.50577">
        <ele>174.9</ele>
        <time>2025-02-26T10:41:34Z</time>
      </trkpt>
      <trkpt lat="48.0618" lon="-3.50576">
        <ele>175</ele>
        <time>2025-02-26T10:41:35Z</time>
      </trkpt>
      <trkpt lat="48.06181" lon="-3.50574">
        <ele>174.9</ele>
        <time>2025-02-26T10:41:36Z</time>
      </trkpt>
      <trkpt lat="48.06181" lon="-3.50573">
        <ele>175</ele>
        <time>2025-02-26T10:41:37Z</time>
      </trkpt>
      <trkpt lat="48.06181" lon="-3.50571">
        <ele>175.1</ele>
        <time>2025-02-26T10:41:38Z</time>
      </trkpt>
      <trkpt lat="48.06181" lon="-3.5057">
        <ele>175.1</ele>
        <time>2025-02-26T10:41:39Z</time>
      </trkpt>
      <trkpt lat="48.06181" lon="-3.50567">
        <ele>175.2</ele>
        <time>2025-02-26T10:41:40Z</time>
      </trkpt>
      <trkpt lat="48.06182" lon="-3.50566">
        <ele>175.2</ele>
        <time>2025-02-26T10:41:41Z</time>
      </trkpt>
      <trkpt lat="48.06183" lon="-3.50565">
        <ele>175</ele>
        <time>2025-02-26T10:41:42Z</time>
      </trkpt>
      <trkpt lat="48.06184" lon="-3.50563">
        <ele>174.8</ele>
        <time>2025-02-26T10:41:43Z</time>
      </trkpt>
      <trkpt lat="48.06186" lon="-3.50562">
        <ele>174.5</ele>
        <time>2025-02-26T10:41:44Z</time>
      </trkpt>
      <trkpt lat="48.06187" lon="-3.50562">
        <ele>174.4</ele>
        <time>2025-02-26T10:41:45Z</time>
      </trkpt>
      <trkpt lat="48.06188" lon="-3.50561">
        <ele>174.3</ele>
        <time>2025-02-26T10:41:46Z</time>
      </trkpt>
      <trkpt lat="48.06188" lon="-3.50559">
        <ele>174.3</ele>
        <time>2025-02-26T10:41:47Z</time>
      </trkpt>
      <trkpt lat="48.06188" lon="-3.50557">
        <ele>174.4</ele>
        <time>2025-02-26T10:41:48Z</time>
      </trkpt>
      <trkpt lat="48.06188" lon="-3.50555">
        <ele>174.4</ele>
        <time>2025-02-26T10:41:49Z</time>
      </trkpt>
      <trkpt lat="48.06189" lon="-3.50554">
        <ele>174.3</ele>
        <time>2025-02-26T10:41:50Z</time>
      </trkpt>
      <trkpt lat="48.0619" lon="-3.50552">
        <ele>174.1</ele>
        <time>2025-02-26T10:41:51Z</time>
      </trkpt>
      <trkpt lat="48.0619" lon="-3.50551">
        <ele>174</ele>
        <time>2025-02-26T10:41:52Z</time>
      </trkpt>
      <trkpt lat="48.06191" lon="-3.50549">
        <ele>173.9</ele>
        <time>2025-02-26T10:41:53Z</time>
      </trkpt>
      <trkpt lat="48.06191" lon="-3.50547">
        <ele>173.9</ele>
        <time>2025-02-26T10:41:54Z</time>
      </trkpt>
      <trkpt lat="48.06192" lon="-3.50546">
        <ele>173.9</ele>
        <time>2025-02-26T10:41:55Z</time>
      </trkpt>
      <trkpt lat="48.06193" lon="-3.50545">
        <ele>173.7</ele>
        <time>2025-02-26T10:41:56Z</time>
      </trkpt>
      <trkpt lat="48.06194" lon="-3.50543">
        <ele>173.6</ele>
        <time>2025-02-26T10:41:57Z</time>
      </trkpt>
      <trkpt lat="48.06194" lon="-3.50542">
        <ele>173.5</ele>
        <time>2025-02-26T10:41:58Z</time>
      </trkpt>
      <trkpt lat="48.06195" lon="-3.50541">
        <ele>173.5</ele>
        <time>2025-02-26T10:41:59Z</time>
      </trkpt>
      <trkpt lat="48.06195" lon="-3.5054">
        <ele>173.4</ele>
        <time>2025-02-26T10:42:00Z</time>
      </trkpt>
      <trkpt lat="48.06196" lon="-3.50539">
        <ele>173.3</ele>
        <time>2025-02-26T10:42:01Z</time>
      </trkpt>
      <trkpt lat="48.06197" lon="-3.50538">
        <ele>173.2</ele>
        <time>2025-02-26T10:42:02Z</time>
      </trkpt>
      <trkpt lat="48.06198" lon="-3.50536">
        <ele>173.1</ele>
        <time>2025-02-26T10:42:03Z</time>
      </trkpt>
      <trkpt lat="48.06198" lon="-3.50535">
        <ele>173</ele>
        <time>2025-02-26T10:42:04Z</time>
      </trkpt>
      <trkpt lat="48.06199" lon="-3.50533">
        <ele>172.9</ele>
        <time>2025-02-26T10:42:05Z</time>
      </trkpt>
      <trkpt lat="48.06199" lon="-3.50532">
        <ele>172.9</ele>
        <time>2025-02-26T10:42:06Z</time>
      </trkpt>
      <trkpt lat="48.062" lon="-3.5053">
        <ele>172.8</ele>
        <time>2025-02-26T10:42:07Z</time>
      </trkpt>
      <trkpt lat="48.062" lon="-3.50529">
        <ele>172.8</ele>
        <time>2025-02-26T10:42:08Z</time>
      </trkpt>
      <trkpt lat="48.062" lon="-3.50527">
        <ele>172.7</ele>
        <time>2025-02-26T10:42:09Z</time>
      </trkpt>
      <trkpt lat="48.06201" lon="-3.50526">
        <ele>172.6</ele>
        <time>2025-02-26T10:42:10Z</time>
      </trkpt>
      <trkpt lat="48.06201" lon="-3.50524">
        <ele>172.5</ele>
        <time>2025-02-26T10:42:11Z</time>
      </trkpt>
      <trkpt lat="48.06202" lon="-3.50522">
        <ele>172.4</ele>
        <time>2025-02-26T10:42:12Z</time>
      </trkpt>
      <trkpt lat="48.06202" lon="-3.50521">
        <ele>172.3</ele>
        <time>2025-02-26T10:42:13Z</time>
      </trkpt>
      <trkpt lat="48.06203" lon="-3.50519">
        <ele>172.2</ele>
        <time>2025-02-26T10:42:14Z</time>
      </trkpt>
      <trkpt lat="48.06203" lon="-3.50518">
        <ele>172.1</ele>
        <time>2025-02-26T10:42:15Z</time>
      </trkpt>
      <trkpt lat="48.06203" lon="-3.50517">
        <ele>172</ele>
        <time>2025-02-26T10:42:16Z</time>
      </trkpt>
      <trkpt lat="48.06204" lon="-3.50516">
        <ele>171.7</ele>
        <time>2025-02-26T10:42:17Z</time>
      </trkpt>
      <trkpt lat="48.06205" lon="-3.50516">
        <ele>171.5</ele>
        <time>2025-02-26T10:42:18Z</time>
      </trkpt>
      <trkpt lat="48.06207" lon="-3.50515">
        <ele>171.2</ele>
        <time>2025-02-26T10:42:19Z</time>
      </trkpt>
      <trkpt lat="48.06208" lon="-3.50516">
        <ele>170.9</ele>
        <time>2025-02-26T10:42:20Z</time>
      </trkpt>
      <trkpt lat="48.06209" lon="-3.50516">
        <ele>170.6</ele>
        <time>2025-02-26T10:42:21Z</time>
      </trkpt>
      <trkpt lat="48.0621" lon="-3.50517">
        <ele>170.4</ele>
        <time>2025-02-26T10:42:22Z</time>
      </trkpt>
      <trkpt lat="48.06211" lon="-3.50517">
        <ele>170.2</ele>
        <time>2025-02-26T10:42:23Z</time>
      </trkpt>
      <trkpt lat="48.06212" lon="-3.50518">
        <ele>170.1</ele>
        <time>2025-02-26T10:42:24Z</time>
      </trkpt>
      <trkpt lat="48.06212" lon="-3.5052">
        <ele>170</ele>
        <time>2025-02-26T10:42:25Z</time>
      </trkpt>
      <trkpt lat="48.06213" lon="-3.50521">
        <ele>169.9</ele>
        <time>2025-02-26T10:42:26Z</time>
      </trkpt>
      <trkpt lat="48.06214" lon="-3.50522">
        <ele>169.7</ele>
        <time>2025-02-26T10:42:27Z</time>
      </trkpt>
      <trkpt lat="48.06214" lon="-3.50522">
        <ele>169.6</ele>
        <time>2025-02-26T10:42:28Z</time>
      </trkpt>
      <trkpt lat="48.06215" lon="-3.50523">
        <ele>169.5</ele>
        <time>2025-02-26T10:42:29Z</time>
      </trkpt>
      <trkpt lat="48.06216" lon="-3.50524">
        <ele>169.3</ele>
        <time>2025-02-26T10:42:30Z</time>
      </trkpt>
      <trkpt lat="48.06217" lon="-3.50524">
        <ele>169.1</ele>
        <time>2025-02-26T10:42:31Z</time>
      </trkpt>
      <trkpt lat="48.06218" lon="-3.50524">
        <ele>168.9</ele>
        <time>2025-02-26T10:42:32Z</time>
      </trkpt>
      <trkpt lat="48.06219" lon="-3.50523">
        <ele>168.7</ele>
        <time>2025-02-26T10:42:33Z</time>
      </trkpt>
      <trkpt lat="48.06219" lon="-3.50524">
        <ele>168.6</ele>
        <time>2025-02-26T10:42:34Z</time>
      </trkpt>
      <trkpt lat="48.06219" lon="-3.50525">
        <ele>168.5</ele>
        <time>2025-02-26T10:42:35Z</time>
      </trkpt>
      <trkpt lat="48.06221" lon="-3.50526">
        <ele>168.3</ele>
        <time>2025-02-26T10:42:36Z</time>
      </trkpt>
      <trkpt lat="48.06222" lon="-3.50526">
        <ele>168</ele>
        <time>2025-02-26T10:42:37Z</time>
      </trkpt>
      <trkpt lat="48.06223" lon="-3.50527">
        <ele>168</ele>
        <time>2025-02-26T10:42:38Z</time>
      </trkpt>
      <trkpt lat="48.06225" lon="-3.50528">
        <ele>168.2</ele>
        <time>2025-02-26T10:42:39Z</time>
      </trkpt>
      <trkpt lat="48.06226" lon="-3.50529">
        <ele>168.3</ele>
        <time>2025-02-26T10:42:40Z</time>
      </trkpt>
      <trkpt lat="48.06227" lon="-3.5053">
        <ele>168.4</ele>
        <time>2025-02-26T10:42:41Z</time>
      </trkpt>
      <trkpt lat="48.06229" lon="-3.50531">
        <ele>168.5</ele>
        <time>2025-02-26T10:42:42Z</time>
      </trkpt>
      <trkpt lat="48.0623" lon="-3.50532">
        <ele>168.6</ele>
        <time>2025-02-26T10:42:43Z</time>
      </trkpt>
      <trkpt lat="48.0623" lon="-3.50532">
        <ele>168.6</ele>
        <time>2025-02-26T10:42:44Z</time>
      </trkpt>
      <trkpt lat="48.06231" lon="-3.50531">
        <ele>168.7</ele>
        <time>2025-02-26T10:42:45Z</time>
      </trkpt>
      <trkpt lat="48.06233" lon="-3.5053">
        <ele>168.8</ele>
        <time>2025-02-26T10:42:46Z</time>
      </trkpt>
      <trkpt lat="48.06234" lon="-3.5053">
        <ele>168.9</ele>
        <time>2025-02-26T10:42:47Z</time>
      </trkpt>
      <trkpt lat="48.06235" lon="-3.5053">
        <ele>169</ele>
        <time>2025-02-26T10:42:48Z</time>
      </trkpt>
      <trkpt lat="48.06236" lon="-3.5053">
        <ele>169</ele>
        <time>2025-02-26T10:42:49Z</time>
      </trkpt>
      <trkpt lat="48.06237" lon="-3.5053">
        <ele>169.1</ele>
        <time>2025-02-26T10:42:50Z</time>
      </trkpt>
      <trkpt lat="48.06238" lon="-3.5053">
        <ele>169.2</ele>
        <time>2025-02-26T10:42:51Z</time>
      </trkpt>
      <trkpt lat="48.06239" lon="-3.5053">
        <ele>169.3</ele>
        <time>2025-02-26T10:42:52Z</time>
      </trkpt>
      <trkpt lat="48.0624" lon="-3.5053">
        <ele>169.4</ele>
        <time>2025-02-26T10:42:53Z</time>
      </trkpt>
      <trkpt lat="48.06241" lon="-3.50531">
        <ele>169.4</ele>
        <time>2025-02-26T10:42:54Z</time>
      </trkpt>
      <trkpt lat="48.06242" lon="-3.50531">
        <ele>169.5</ele>
        <time>2025-02-26T10:42:55Z</time>
      </trkpt>
      <trkpt lat="48.06243" lon="-3.5053">
        <ele>169.6</ele>
        <time>2025-02-26T10:42:56Z</time>
      </trkpt>
      <trkpt lat="48.06245" lon="-3.5053">
        <ele>169.7</ele>
        <time>2025-02-26T10:42:57Z</time>
      </trkpt>
      <trkpt lat="48.06245" lon="-3.5053">
        <ele>169.7</ele>
        <time>2025-02-26T10:42:58Z</time>
      </trkpt>
      <trkpt lat="48.06246" lon="-3.5053">
        <ele>169.8</ele>
        <time>2025-02-26T10:42:59Z</time>
      </trkpt>
      <trkpt lat="48.06247" lon="-3.5053">
        <ele>169.9</ele>
        <time>2025-02-26T10:43:00Z</time>
      </trkpt>
      <trkpt lat="48.06248" lon="-3.5053">
        <ele>169.9</ele>
        <time>2025-02-26T10:43:01Z</time>
      </trkpt>
      <trkpt lat="48.06249" lon="-3.5053">
        <ele>170</ele>
        <time>2025-02-26T10:43:02Z</time>
      </trkpt>
      <trkpt lat="48.06249" lon="-3.5053">
        <ele>170</ele>
        <time>2025-02-26T10:43:03Z</time>
      </trkpt>
      <trkpt lat="48.0625" lon="-3.5053">
        <ele>170.1</ele>
        <time>2025-02-26T10:43:04Z</time>
      </trkpt>
      <trkpt lat="48.06252" lon="-3.5053">
        <ele>170.3</ele>
        <time>2025-02-26T10:43:05Z</time>
      </trkpt>
      <trkpt lat="48.06253" lon="-3.50529">
        <ele>170.5</ele>
        <time>2025-02-26T10:43:06Z</time>
      </trkpt>
      <trkpt lat="48.06254" lon="-3.50528">
        <ele>170.6</ele>
        <time>2025-02-26T10:43:07Z</time>
      </trkpt>
      <trkpt lat="48.06254" lon="-3.50527">
        <ele>170.6</ele>
        <time>2025-02-26T10:43:08Z</time>
      </trkpt>
      <trkpt lat="48.06255" lon="-3.50527">
        <ele>170.7</ele>
        <time>2025-02-26T10:43:09Z</time>
      </trkpt>
      <trkpt lat="48.06256" lon="-3.50527">
        <ele>170.8</ele>
        <time>2025-02-26T10:43:10Z</time>
      </trkpt>
      <trkpt lat="48.06257" lon="-3.50527">
        <ele>171</ele>
        <time>2025-02-26T10:43:11Z</time>
      </trkpt>
      <trkpt lat="48.06258" lon="-3.50528">
        <ele>171.2</ele>
        <time>2025-02-26T10:43:12Z</time>
      </trkpt>
      <trkpt lat="48.0626" lon="-3.50528">
        <ele>171.4</ele>
        <time>2025-02-26T10:43:13Z</time>
      </trkpt>
      <trkpt lat="48.06261" lon="-3.50527">
        <ele>171.4</ele>
        <time>2025-02-26T10:43:14Z</time>
      </trkpt>
      <trkpt lat="48.06261" lon="-3.50525">
        <ele>171.4</ele>
        <time>2025-02-26T10:43:15Z</time>
      </trkpt>
      <trkpt lat="48.06261" lon="-3.50525">
        <ele>171.4</ele>
        <time>2025-02-26T10:43:16Z</time>
      </trkpt>
      <trkpt lat="48.06262" lon="-3.50524">
        <ele>171.5</ele>
        <time>2025-02-26T10:43:17Z</time>
      </trkpt>
      <trkpt lat="48.06262" lon="-3.50524">
        <ele>171.4</ele>
        <time>2025-02-26T10:43:18Z</time>
      </trkpt>
      <trkpt lat="48.06263" lon="-3.50524">
        <ele>171.6</ele>
        <time>2025-02-26T10:43:19Z</time>
      </trkpt>
      <trkpt lat="48.06264" lon="-3.50523">
        <ele>171.7</ele>
        <time>2025-02-26T10:43:20Z</time>
      </trkpt>
      <trkpt lat="48.06265" lon="-3.50523">
        <ele>171.8</ele>
        <time>2025-02-26T10:43:21Z</time>
      </trkpt>
      <trkpt lat="48.06266" lon="-3.50523">
        <ele>171.9</ele>
        <time>2025-02-26T10:43:22Z</time>
      </trkpt>
      <trkpt lat="48.06267" lon="-3.50523">
        <ele>172</ele>
        <time>2025-02-26T10:43:23Z</time>
      </trkpt>
      <trkpt lat="48.06268" lon="-3.50523">
        <ele>172.1</ele>
        <time>2025-02-26T10:43:24Z</time>
      </trkpt>
      <trkpt lat="48.06269" lon="-3.5052">
        <ele>172.2</ele>
        <time>2025-02-26T10:43:25Z</time>
      </trkpt>
      <trkpt lat="48.0627" lon="-3.50519">
        <ele>172.3</ele>
        <time>2025-02-26T10:43:26Z</time>
      </trkpt>
      <trkpt lat="48.06271" lon="-3.50519">
        <ele>172.4</ele>
        <time>2025-02-26T10:43:27Z</time>
      </trkpt>
      <trkpt lat="48.06272" lon="-3.50518">
        <ele>172.4</ele>
        <time>2025-02-26T10:43:28Z</time>
      </trkpt>
      <trkpt lat="48.06272" lon="-3.50518">
        <ele>172.5</ele>
        <time>2025-02-26T10:43:29Z</time>
      </trkpt>
      <trkpt lat="48.06273" lon="-3.50517">
        <ele>172.6</ele>
        <time>2025-02-26T10:43:30Z</time>
      </trkpt>
      <trkpt lat="48.06274" lon="-3.50517">
        <ele>172.7</ele>
        <time>2025-02-26T10:43:31Z</time>
      </trkpt>
      <trkpt lat="48.06275" lon="-3.50516">
        <ele>172.8</ele>
        <time>2025-02-26T10:43:32Z</time>
      </trkpt>
      <trkpt lat="48.06276" lon="-3.50515">
        <ele>172.8</ele>
        <time>2025-02-26T10:43:33Z</time>
      </trkpt>
      <trkpt lat="48.06277" lon="-3.50514">
        <ele>172.8</ele>
        <time>2025-02-26T10:43:34Z</time>
      </trkpt>
      <trkpt lat="48.06278" lon="-3.50514">
        <ele>173</ele>
        <time>2025-02-26T10:43:35Z</time>
      </trkpt>
      <trkpt lat="48.06279" lon="-3.50513">
        <ele>173.1</ele>
        <time>2025-02-26T10:43:36Z</time>
      </trkpt>
      <trkpt lat="48.0628" lon="-3.50513">
        <ele>173.2</ele>
        <time>2025-02-26T10:43:37Z</time>
      </trkpt>
      <trkpt lat="48.0628" lon="-3.50513">
        <ele>173.3</ele>
        <time>2025-02-26T10:43:38Z</time>
      </trkpt>
      <trkpt lat="48.06281" lon="-3.50513">
        <ele>173.5</ele>
        <time>2025-02-26T10:43:39Z</time>
      </trkpt>
      <trkpt lat="48.06282" lon="-3.50513">
        <ele>173.5</ele>
        <time>2025-02-26T10:43:40Z</time>
      </trkpt>
      <trkpt lat="48.06283" lon="-3.50513">
        <ele>173.6</ele>
        <time>2025-02-26T10:43:41Z</time>
      </trkpt>
      <trkpt lat="48.06284" lon="-3.50513">
        <ele>173.8</ele>
        <time>2025-02-26T10:43:42Z</time>
      </trkpt>
      <trkpt lat="48.06285" lon="-3.50512">
        <ele>173.9</ele>
        <time>2025-02-26T10:43:43Z</time>
      </trkpt>
      <trkpt lat="48.06285" lon="-3.50511">
        <ele>173.8</ele>
        <time>2025-02-26T10:43:44Z</time>
      </trkpt>
      <trkpt lat="48.06286" lon="-3.50511">
        <ele>174</ele>
        <time>2025-02-26T10:43:45Z</time>
      </trkpt>
      <trkpt lat="48.06287" lon="-3.50511">
        <ele>174.1</ele>
        <time>2025-02-26T10:43:46Z</time>
      </trkpt>
      <trkpt lat="48.06288" lon="-3.50511">
        <ele>174.3</ele>
        <time>2025-02-26T10:43:47Z</time>
      </trkpt>
      <trkpt lat="48.06289" lon="-3.50512">
        <ele>174.4</ele>
        <time>2025-02-26T10:43:48Z</time>
      </trkpt>
      <trkpt lat="48.0629" lon="-3.50512">
        <ele>174.5</ele>
        <time>2025-02-26T10:43:49Z</time>
      </trkpt>
      <trkpt lat="48.06291" lon="-3.50512">
        <ele>174.7</ele>
        <time>2025-02-26T10:43:50Z</time>
      </trkpt>
      <trkpt lat="48.06292" lon="-3.50513">
        <ele>174.9</ele>
        <time>2025-02-26T10:43:51Z</time>
      </trkpt>
      <trkpt lat="48.06292" lon="-3.50513">
        <ele>175.1</ele>
        <time>2025-02-26T10:43:52Z</time>
      </trkpt>
      <trkpt lat="48.06293" lon="-3.50514">
        <ele>175.2</ele>
        <time>2025-02-26T10:43:53Z</time>
      </trkpt>
      <trkpt lat="48.06294" lon="-3.50514">
        <ele>175.4</ele>
        <time>2025-02-26T10:43:54Z</time>
      </trkpt>
      <trkpt lat="48.06296" lon="-3.50514">
        <ele>175.6</ele>
        <time>2025-02-26T10:43:55Z</time>
      </trkpt>
      <trkpt lat="48.06297" lon="-3.50514">
        <ele>175.8</ele>
        <time>2025-02-26T10:43:56Z</time>
      </trkpt>
      <trkpt lat="48.06298" lon="-3.50513">
        <ele>175.9</ele>
        <time>2025-02-26T10:43:57Z</time>
      </trkpt>
      <trkpt lat="48.063" lon="-3.50513">
        <ele>176</ele>
        <time>2025-02-26T10:43:58Z</time>
      </trkpt>
      <trkpt lat="48.06301" lon="-3.50512">
        <ele>176.2</ele>
        <time>2025-02-26T10:43:59Z</time>
      </trkpt>
      <trkpt lat="48.06302" lon="-3.50512">
        <ele>176.4</ele>
        <time>2025-02-26T10:44:00Z</time>
      </trkpt>
      <trkpt lat="48.06303" lon="-3.50512">
        <ele>176.6</ele>
        <time>2025-02-26T10:44:01Z</time>
      </trkpt>
      <trkpt lat="48.06304" lon="-3.50512">
        <ele>176.7</ele>
        <time>2025-02-26T10:44:02Z</time>
      </trkpt>
      <trkpt lat="48.06305" lon="-3.50512">
        <ele>176.8</ele>
        <time>2025-02-26T10:44:03Z</time>
      </trkpt>
      <trkpt lat="48.06306" lon="-3.50512">
        <ele>176.9</ele>
        <time>2025-02-26T10:44:04Z</time>
      </trkpt>
      <trkpt lat="48.06307" lon="-3.50512">
        <ele>177</ele>
        <time>2025-02-26T10:44:05Z</time>
      </trkpt>
      <trkpt lat="48.06308" lon="-3.50512">
        <ele>177.2</ele>
        <time>2025-02-26T10:44:06Z</time>
      </trkpt>
      <trkpt lat="48.06309" lon="-3.50513">
        <ele>177.3</ele>
        <time>2025-02-26T10:44:07Z</time>
      </trkpt>
      <trkpt lat="48.0631" lon="-3.50513">
        <ele>177.4</ele>
        <time>2025-02-26T10:44:08Z</time>
      </trkpt>
      <trkpt lat="48.06311" lon="-3.50512">
        <ele>177.5</ele>
        <time>2025-02-26T10:44:09Z</time>
      </trkpt>
      <trkpt lat="48.06312" lon="-3.50512">
        <ele>177.5</ele>
        <time>2025-02-26T10:44:10Z</time>
      </trkpt>
      <trkpt lat="48.06313" lon="-3.50511">
        <ele>177.6</ele>
        <time>2025-02-26T10:44:11Z</time>
      </trkpt>
      <trkpt lat="48.06313" lon="-3.50511">
        <ele>177.7</ele>
        <time>2025-02-26T10:44:12Z</time>
      </trkpt>
      <trkpt lat="48.06314" lon="-3.50512">
        <ele>177.8</ele>
        <time>2025-02-26T10:44:13Z</time>
      </trkpt>
      <trkpt lat="48.06315" lon="-3.50513">
        <ele>178</ele>
        <time>2025-02-26T10:44:14Z</time>
      </trkpt>
      <trkpt lat="48.06316" lon="-3.50512">
        <ele>178</ele>
        <time>2025-02-26T10:44:15Z</time>
      </trkpt>
      <trkpt lat="48.06317" lon="-3.50512">
        <ele>178.1</ele>
        <time>2025-02-26T10:44:16Z</time>
      </trkpt>
      <trkpt lat="48.06318" lon="-3.50512">
        <ele>178.2</ele>
        <time>2025-02-26T10:44:17Z</time>
      </trkpt>
      <trkpt lat="48.06319" lon="-3.50513">
        <ele>178.4</ele>
        <time>2025-02-26T10:44:18Z</time>
      </trkpt>
      <trkpt lat="48.0632" lon="-3.50512">
        <ele>178.5</ele>
        <time>2025-02-26T10:44:19Z</time>
      </trkpt>
      <trkpt lat="48.06321" lon="-3.50513">
        <ele>178.7</ele>
        <time>2025-02-26T10:44:20Z</time>
      </trkpt>
      <trkpt lat="48.06322" lon="-3.50513">
        <ele>178.8</ele>
        <time>2025-02-26T10:44:21Z</time>
      </trkpt>
      <trkpt lat="48.06323" lon="-3.50513">
        <ele>178.9</ele>
        <time>2025-02-26T10:44:22Z</time>
      </trkpt>
      <trkpt lat="48.06324" lon="-3.50513">
        <ele>179</ele>
        <time>2025-02-26T10:44:23Z</time>
      </trkpt>
      <trkpt lat="48.06325" lon="-3.50514">
        <ele>179.1</ele>
        <time>2025-02-26T10:44:24Z</time>
      </trkpt>
      <trkpt lat="48.06327" lon="-3.50514">
        <ele>179.3</ele>
        <time>2025-02-26T10:44:25Z</time>
      </trkpt>
      <trkpt lat="48.06328" lon="-3.50514">
        <ele>179.4</ele>
        <time>2025-02-26T10:44:26Z</time>
      </trkpt>
      <trkpt lat="48.06329" lon="-3.50515">
        <ele>179.6</ele>
        <time>2025-02-26T10:44:27Z</time>
      </trkpt>
      <trkpt lat="48.06331" lon="-3.50515">
        <ele>179.7</ele>
        <time>2025-02-26T10:44:28Z</time>
      </trkpt>
      <trkpt lat="48.06332" lon="-3.50515">
        <ele>179.8</ele>
        <time>2025-02-26T10:44:29Z</time>
      </trkpt>
      <trkpt lat="48.06333" lon="-3.50515">
        <ele>179.9</ele>
        <time>2025-02-26T10:44:30Z</time>
      </trkpt>
      <trkpt lat="48.06334" lon="-3.50515">
        <ele>180</ele>
        <time>2025-02-26T10:44:31Z</time>
      </trkpt>
      <trkpt lat="48.06335" lon="-3.50514">
        <ele>180.1</ele>
        <time>2025-02-26T10:44:32Z</time>
      </trkpt>
      <trkpt lat="48.06336" lon="-3.50514">
        <ele>180.1</ele>
        <time>2025-02-26T10:44:33Z</time>
      </trkpt>
      <trkpt lat="48.06337" lon="-3.50514">
        <ele>180.2</ele>
        <time>2025-02-26T10:44:34Z</time>
      </trkpt>
      <trkpt lat="48.06338" lon="-3.50514">
        <ele>180.2</ele>
        <time>2025-02-26T10:44:35Z</time>
      </trkpt>
      <trkpt lat="48.06338" lon="-3.50513">
        <ele>180.3</ele>
        <time>2025-02-26T10:44:36Z</time>
      </trkpt>
      <trkpt lat="48.0634" lon="-3.50513">
        <ele>180.3</ele>
        <time>2025-02-26T10:44:37Z</time>
      </trkpt>
      <trkpt lat="48.06341" lon="-3.50513">
        <ele>180.4</ele>
        <time>2025-02-26T10:44:38Z</time>
      </trkpt>
      <trkpt lat="48.06342" lon="-3.50513">
        <ele>180.4</ele>
        <time>2025-02-26T10:44:39Z</time>
      </trkpt>
      <trkpt lat="48.06343" lon="-3.50513">
        <ele>180.5</ele>
        <time>2025-02-26T10:44:40Z</time>
      </trkpt>
      <trkpt lat="48.06344" lon="-3.50512">
        <ele>180.6</ele>
        <time>2025-02-26T10:44:41Z</time>
      </trkpt>
      <trkpt lat="48.06345" lon="-3.50512">
        <ele>180.6</ele>
        <time>2025-02-26T10:44:42Z</time>
      </trkpt>
      <trkpt lat="48.06346" lon="-3.50512">
        <ele>180.7</ele>
        <time>2025-02-26T10:44:43Z</time>
      </trkpt>
      <trkpt lat="48.06348" lon="-3.50512">
        <ele>180.7</ele>
        <time>2025-02-26T10:44:44Z</time>
      </trkpt>
      <trkpt lat="48.06348" lon="-3.50512">
        <ele>180.8</ele>
        <time>2025-02-26T10:44:45Z</time>
      </trkpt>
      <trkpt lat="48.06349" lon="-3.50512">
        <ele>180.8</ele>
        <time>2025-02-26T10:44:46Z</time>
      </trkpt>
      <trkpt lat="48.0635" lon="-3.50512">
        <ele>180.9</ele>
        <time>2025-02-26T10:44:47Z</time>
      </trkpt>
      <trkpt lat="48.06351" lon="-3.50512">
        <ele>180.9</ele>
        <time>2025-02-26T10:44:48Z</time>
      </trkpt>
      <trkpt lat="48.06352" lon="-3.50512">
        <ele>181</ele>
        <time>2025-02-26T10:44:49Z</time>
      </trkpt>
      <trkpt lat="48.06353" lon="-3.50512">
        <ele>181</ele>
        <time>2025-02-26T10:44:50Z</time>
      </trkpt>
      <trkpt lat="48.06354" lon="-3.50511">
        <ele>181.1</ele>
        <time>2025-02-26T10:44:51Z</time>
      </trkpt>
      <trkpt lat="48.06355" lon="-3.50511">
        <ele>181.1</ele>
        <time>2025-02-26T10:44:52Z</time>
      </trkpt>
      <trkpt lat="48.06357" lon="-3.50511">
        <ele>181.2</ele>
        <time>2025-02-26T10:44:53Z</time>
      </trkpt>
      <trkpt lat="48.06358" lon="-3.50511">
        <ele>181.2</ele>
        <time>2025-02-26T10:44:54Z</time>
      </trkpt>
      <trkpt lat="48.06359" lon="-3.50511">
        <ele>181.3</ele>
        <time>2025-02-26T10:44:55Z</time>
      </trkpt>
      <trkpt lat="48.0636" lon="-3.50511">
        <ele>181.3</ele>
        <time>2025-02-26T10:44:56Z</time>
      </trkpt>
      <trkpt lat="48.06361" lon="-3.50511">
        <ele>181.4</ele>
        <time>2025-02-26T10:44:57Z</time>
      </trkpt>
      <trkpt lat="48.06362" lon="-3.50512">
        <ele>181.5</ele>
        <time>2025-02-26T10:44:58Z</time>
      </trkpt>
      <trkpt lat="48.06364" lon="-3.50512">
        <ele>181.6</ele>
        <time>2025-02-26T10:44:59Z</time>
      </trkpt>
      <trkpt lat="48.06365" lon="-3.50511">
        <ele>181.7</ele>
        <time>2025-02-26T10:45:00Z</time>
      </trkpt>
      <trkpt lat="48.06366" lon="-3.50511">
        <ele>181.7</ele>
        <time>2025-02-26T10:45:01Z</time>
      </trkpt>
      <trkpt lat="48.06367" lon="-3.50511">
        <ele>181.8</ele>
        <time>2025-02-26T10:45:02Z</time>
      </trkpt>
      <trkpt lat="48.06367" lon="-3.5051">
        <ele>181.8</ele>
        <time>2025-02-26T10:45:03Z</time>
      </trkpt>
      <trkpt lat="48.06368" lon="-3.5051">
        <ele>181.9</ele>
        <time>2025-02-26T10:45:04Z</time>
      </trkpt>
      <trkpt lat="48.0637" lon="-3.5051">
        <ele>182</ele>
        <time>2025-02-26T10:45:05Z</time>
      </trkpt>
      <trkpt lat="48.0637" lon="-3.5051">
        <ele>182</ele>
        <time>2025-02-26T10:45:06Z</time>
      </trkpt>
      <trkpt lat="48.06371" lon="-3.50508">
        <ele>182</ele>
        <time>2025-02-26T10:45:07Z</time>
      </trkpt>
      <trkpt lat="48.06373" lon="-3.50508">
        <ele>182.1</ele>
        <time>2025-02-26T10:45:08Z</time>
      </trkpt>
      <trkpt lat="48.06374" lon="-3.50507">
        <ele>182.2</ele>
        <time>2025-02-26T10:45:09Z</time>
      </trkpt>
      <trkpt lat="48.06375" lon="-3.50507">
        <ele>182.2</ele>
        <time>2025-02-26T10:45:10Z</time>
      </trkpt>
      <trkpt lat="48.06375" lon="-3.50507">
        <ele>182.3</ele>
        <time>2025-02-26T10:45:11Z</time>
      </trkpt>
      <trkpt lat="48.06376" lon="-3.50507">
        <ele>182.3</ele>
        <time>2025-02-26T10:45:12Z</time>
      </trkpt>
      <trkpt lat="48.06377" lon="-3.50507">
        <ele>182.4</ele>
        <time>2025-02-26T10:45:13Z</time>
      </trkpt>
      <trkpt lat="48.06378" lon="-3.50507">
        <ele>182.4</ele>
        <time>2025-02-26T10:45:14Z</time>
      </trkpt>
      <trkpt lat="48.06378" lon="-3.50506">
        <ele>182.4</ele>
        <time>2025-02-26T10:45:15Z</time>
      </trkpt>
      <trkpt lat="48.06379" lon="-3.50505">
        <ele>182.4</ele>
        <time>2025-02-26T10:45:16Z</time>
      </trkpt>
      <trkpt lat="48.0638" lon="-3.50505">
        <ele>182.5</ele>
        <time>2025-02-26T10:45:17Z</time>
      </trkpt>
      <trkpt lat="48.06381" lon="-3.50505">
        <ele>182.6</ele>
        <time>2025-02-26T10:45:18Z</time>
      </trkpt>
      <trkpt lat="48.06382" lon="-3.50505">
        <ele>182.7</ele>
        <time>2025-02-26T10:45:19Z</time>
      </trkpt>
      <trkpt lat="48.06383" lon="-3.50504">
        <ele>182.7</ele>
        <time>2025-02-26T10:45:20Z</time>
      </trkpt>
      <trkpt lat="48.06384" lon="-3.50504">
        <ele>182.8</ele>
        <time>2025-02-26T10:45:21Z</time>
      </trkpt>
      <trkpt lat="48.06385" lon="-3.50503">
        <ele>182.8</ele>
        <time>2025-02-26T10:45:22Z</time>
      </trkpt>
      <trkpt lat="48.06386" lon="-3.50503">
        <ele>182.9</ele>
        <time>2025-02-26T10:45:23Z</time>
      </trkpt>
      <trkpt lat="48.06387" lon="-3.50503">
        <ele>183</ele>
        <time>2025-02-26T10:45:24Z</time>
      </trkpt>
      <trkpt lat="48.06388" lon="-3.50502">
        <ele>183</ele>
        <time>2025-02-26T10:45:25Z</time>
      </trkpt>
      <trkpt lat="48.06389" lon="-3.50502">
        <ele>183.1</ele>
        <time>2025-02-26T10:45:26Z</time>
      </trkpt>
      <trkpt lat="48.06391" lon="-3.50501">
        <ele>183.1</ele>
        <time>2025-02-26T10:45:27Z</time>
      </trkpt>
      <trkpt lat="48.06392" lon="-3.50501">
        <ele>183.1</ele>
        <time>2025-02-26T10:45:28Z</time>
      </trkpt>
      <trkpt lat="48.06393" lon="-3.505">
        <ele>183.1</ele>
        <time>2025-02-26T10:45:29Z</time>
      </trkpt>
      <trkpt lat="48.06394" lon="-3.505">
        <ele>183.1</ele>
        <time>2025-02-26T10:45:30Z</time>
      </trkpt>
      <trkpt lat="48.06395" lon="-3.50499">
        <ele>183.2</ele>
        <time>2025-02-26T10:45:31Z</time>
      </trkpt>
      <trkpt lat="48.06396" lon="-3.50499">
        <ele>183.2</ele>
        <time>2025-02-26T10:45:32Z</time>
      </trkpt>
      <trkpt lat="48.06397" lon="-3.50499">
        <ele>183.2</ele>
        <time>2025-02-26T10:45:33Z</time>
      </trkpt>
      <trkpt lat="48.06398" lon="-3.50498">
        <ele>183.2</ele>
        <time>2025-02-26T10:45:34Z</time>
      </trkpt>
      <trkpt lat="48.06399" lon="-3.50498">
        <ele>183.2</ele>
        <time>2025-02-26T10:45:35Z</time>
      </trkpt>
      <trkpt lat="48.064" lon="-3.50497">
        <ele>183.2</ele>
        <time>2025-02-26T10:45:36Z</time>
      </trkpt>
      <trkpt lat="48.06401" lon="-3.50497">
        <ele>183.2</ele>
        <time>2025-02-26T10:45:37Z</time>
      </trkpt>
      <trkpt lat="48.06402" lon="-3.50496">
        <ele>183.2</ele>
        <time>2025-02-26T10:45:38Z</time>
      </trkpt>
      <trkpt lat="48.06403" lon="-3.50495">
        <ele>183.1</ele>
        <time>2025-02-26T10:45:39Z</time>
      </trkpt>
      <trkpt lat="48.06404" lon="-3.50494">
        <ele>183.1</ele>
        <time>2025-02-26T10:45:40Z</time>
      </trkpt>
      <trkpt lat="48.06405" lon="-3.50494">
        <ele>183.1</ele>
        <time>2025-02-26T10:45:41Z</time>
      </trkpt>
      <trkpt lat="48.06406" lon="-3.50494">
        <ele>183.1</ele>
        <time>2025-02-26T10:45:42Z</time>
      </trkpt>
      <trkpt lat="48.06407" lon="-3.50494">
        <ele>183.2</ele>
        <time>2025-02-26T10:45:43Z</time>
      </trkpt>
      <trkpt lat="48.06408" lon="-3.50493">
        <ele>183.2</ele>
        <time>2025-02-26T10:45:44Z</time>
      </trkpt>
      <trkpt lat="48.06409" lon="-3.50493">
        <ele>183.2</ele>
        <time>2025-02-26T10:45:45Z</time>
      </trkpt>
      <trkpt lat="48.0641" lon="-3.50492">
        <ele>183.2</ele>
        <time>2025-02-26T10:45:46Z</time>
      </trkpt>
      <trkpt lat="48.06411" lon="-3.50492">
        <ele>183.2</ele>
        <time>2025-02-26T10:45:47Z</time>
      </trkpt>
      <trkpt lat="48.06412" lon="-3.50491">
        <ele>183.2</ele>
        <time>2025-02-26T10:45:48Z</time>
      </trkpt>
      <trkpt lat="48.06413" lon="-3.50491">
        <ele>183.2</ele>
        <time>2025-02-26T10:45:49Z</time>
      </trkpt>
      <trkpt lat="48.06414" lon="-3.5049">
        <ele>183.2</ele>
        <time>2025-02-26T10:45:50Z</time>
      </trkpt>
      <trkpt lat="48.06415" lon="-3.50489">
        <ele>183.1</ele>
        <time>2025-02-26T10:45:51Z</time>
      </trkpt>
      <trkpt lat="48.06416" lon="-3.50488">
        <ele>183.1</ele>
        <time>2025-02-26T10:45:52Z</time>
      </trkpt>
      <trkpt lat="48.06417" lon="-3.50488">
        <ele>183.1</ele>
        <time>2025-02-26T10:45:53Z</time>
      </trkpt>
      <trkpt lat="48.06418" lon="-3.50487">
        <ele>183.1</ele>
        <time>2025-02-26T10:45:54Z</time>
      </trkpt>
      <trkpt lat="48.06419" lon="-3.50487">
        <ele>183</ele>
        <time>2025-02-26T10:45:55Z</time>
      </trkpt>
      <trkpt lat="48.0642" lon="-3.50487">
        <ele>183</ele>
        <time>2025-02-26T10:45:56Z</time>
      </trkpt>
      <trkpt lat="48.0642" lon="-3.50486">
        <ele>182.9</ele>
        <time>2025-02-26T10:45:57Z</time>
      </trkpt>
      <trkpt lat="48.06421" lon="-3.50486">
        <ele>182.9</ele>
        <time>2025-02-26T10:45:58Z</time>
      </trkpt>
      <trkpt lat="48.06422" lon="-3.50485">
        <ele>182.8</ele>
        <time>2025-02-26T10:45:59Z</time>
      </trkpt>
      <trkpt lat="48.06423" lon="-3.50485">
        <ele>182.8</ele>
        <time>2025-02-26T10:46:00Z</time>
      </trkpt>
      <trkpt lat="48.06424" lon="-3.50484">
        <ele>182.7</ele>
        <time>2025-02-26T10:46:01Z</time>
      </trkpt>
      <trkpt lat="48.06425" lon="-3.50483">
        <ele>182.7</ele>
        <time>2025-02-26T10:46:02Z</time>
      </trkpt>
      <trkpt lat="48.06426" lon="-3.50483">
        <ele>182.6</ele>
        <time>2025-02-26T10:46:03Z</time>
      </trkpt>
      <trkpt lat="48.06427" lon="-3.50482">
        <ele>182.6</ele>
        <time>2025-02-26T10:46:04Z</time>
      </trkpt>
      <trkpt lat="48.06428" lon="-3.50482">
        <ele>182.5</ele>
        <time>2025-02-26T10:46:05Z</time>
      </trkpt>
      <trkpt lat="48.06429" lon="-3.50482">
        <ele>182.5</ele>
        <time>2025-02-26T10:46:06Z</time>
      </trkpt>
      <trkpt lat="48.0643" lon="-3.50481">
        <ele>182.5</ele>
        <time>2025-02-26T10:46:07Z</time>
      </trkpt>
      <trkpt lat="48.06432" lon="-3.50481">
        <ele>182.4</ele>
        <time>2025-02-26T10:46:08Z</time>
      </trkpt>
      <trkpt lat="48.06432" lon="-3.5048">
        <ele>182.4</ele>
        <time>2025-02-26T10:46:09Z</time>
      </trkpt>
      <trkpt lat="48.06434" lon="-3.50479">
        <ele>182.4</ele>
        <time>2025-02-26T10:46:10Z</time>
      </trkpt>
      <trkpt lat="48.06435" lon="-3.5048">
        <ele>182.4</ele>
        <time>2025-02-26T10:46:11Z</time>
      </trkpt>
      <trkpt lat="48.06436" lon="-3.5048">
        <ele>182.4</ele>
        <time>2025-02-26T10:46:12Z</time>
      </trkpt>
      <trkpt lat="48.06436" lon="-3.5048">
        <ele>182.3</ele>
        <time>2025-02-26T10:46:13Z</time>
      </trkpt>
      <trkpt lat="48.06437" lon="-3.50479">
        <ele>182.3</ele>
        <time>2025-02-26T10:46:14Z</time>
      </trkpt>
      <trkpt lat="48.06438" lon="-3.50479">
        <ele>182.3</ele>
        <time>2025-02-26T10:46:15Z</time>
      </trkpt>
      <trkpt lat="48.06439" lon="-3.50478">
        <ele>182.3</ele>
        <time>2025-02-26T10:46:16Z</time>
      </trkpt>
      <trkpt lat="48.0644" lon="-3.50478">
        <ele>182.3</ele>
        <time>2025-02-26T10:46:17Z</time>
      </trkpt>
      <trkpt lat="48.06441" lon="-3.50479">
        <ele>182.3</ele>
        <time>2025-02-26T10:46:18Z</time>
      </trkpt>
      <trkpt lat="48.06442" lon="-3.50478">
        <ele>182.2</ele>
        <time>2025-02-26T10:46:19Z</time>
      </trkpt>
      <trkpt lat="48.06443" lon="-3.50478">
        <ele>182.2</ele>
        <time>2025-02-26T10:46:20Z</time>
      </trkpt>
      <trkpt lat="48.06444" lon="-3.50477">
        <ele>182.2</ele>
        <time>2025-02-26T10:46:21Z</time>
      </trkpt>
      <trkpt lat="48.06445" lon="-3.50476">
        <ele>182.1</ele>
        <time>2025-02-26T10:46:22Z</time>
      </trkpt>
      <trkpt lat="48.06446" lon="-3.50475">
        <ele>182</ele>
        <time>2025-02-26T10:46:23Z</time>
      </trkpt>
      <trkpt lat="48.06447" lon="-3.50475">
        <ele>181.9</ele>
        <time>2025-02-26T10:46:24Z</time>
      </trkpt>
      <trkpt lat="48.06448" lon="-3.50475">
        <ele>181.8</ele>
        <time>2025-02-26T10:46:25Z</time>
      </trkpt>
      <trkpt lat="48.0645" lon="-3.50475">
        <ele>181.7</ele>
        <time>2025-02-26T10:46:26Z</time>
      </trkpt>
      <trkpt lat="48.06451" lon="-3.50475">
        <ele>181.7</ele>
        <time>2025-02-26T10:46:27Z</time>
      </trkpt>
      <trkpt lat="48.06452" lon="-3.50475">
        <ele>181.6</ele>
        <time>2025-02-26T10:46:28Z</time>
      </trkpt>
      <trkpt lat="48.06453" lon="-3.50476">
        <ele>181.5</ele>
        <time>2025-02-26T10:46:29Z</time>
      </trkpt>
      <trkpt lat="48.06455" lon="-3.50475">
        <ele>181.4</ele>
        <time>2025-02-26T10:46:30Z</time>
      </trkpt>
      <trkpt lat="48.06456" lon="-3.50475">
        <ele>181.3</ele>
        <time>2025-02-26T10:46:31Z</time>
      </trkpt>
      <trkpt lat="48.06457" lon="-3.50475">
        <ele>181.2</ele>
        <time>2025-02-26T10:46:32Z</time>
      </trkpt>
      <trkpt lat="48.06459" lon="-3.50474">
        <ele>181.1</ele>
        <time>2025-02-26T10:46:33Z</time>
      </trkpt>
      <trkpt lat="48.0646" lon="-3.50474">
        <ele>181</ele>
        <time>2025-02-26T10:46:34Z</time>
      </trkpt>
      <trkpt lat="48.06461" lon="-3.50473">
        <ele>180.8</ele>
        <time>2025-02-26T10:46:35Z</time>
      </trkpt>
      <trkpt lat="48.06463" lon="-3.50472">
        <ele>180.7</ele>
        <time>2025-02-26T10:46:36Z</time>
      </trkpt>
      <trkpt lat="48.06464" lon="-3.50472">
        <ele>180.6</ele>
        <time>2025-02-26T10:46:37Z</time>
      </trkpt>
      <trkpt lat="48.06465" lon="-3.50472">
        <ele>180.5</ele>
        <time>2025-02-26T10:46:38Z</time>
      </trkpt>
      <trkpt lat="48.06466" lon="-3.50472">
        <ele>180.4</ele>
        <time>2025-02-26T10:46:39Z</time>
      </trkpt>
      <trkpt lat="48.06467" lon="-3.50471">
        <ele>180.3</ele>
        <time>2025-02-26T10:46:40Z</time>
      </trkpt>
      <trkpt lat="48.06468" lon="-3.50471">
        <ele>180.2</ele>
        <time>2025-02-26T10:46:41Z</time>
      </trkpt>
      <trkpt lat="48.06469" lon="-3.5047">
        <ele>180.1</ele>
        <time>2025-02-26T10:46:42Z</time>
      </trkpt>
      <trkpt lat="48.0647" lon="-3.50469">
        <ele>180</ele>
        <time>2025-02-26T10:46:43Z</time>
      </trkpt>
      <trkpt lat="48.06472" lon="-3.50469">
        <ele>179.9</ele>
        <time>2025-02-26T10:46:44Z</time>
      </trkpt>
      <trkpt lat="48.06473" lon="-3.50469">
        <ele>179.8</ele>
        <time>2025-02-26T10:46:45Z</time>
      </trkpt>
      <trkpt lat="48.06474" lon="-3.50468">
        <ele>179.7</ele>
        <time>2025-02-26T10:46:46Z</time>
      </trkpt>
      <trkpt lat="48.06476" lon="-3.50468">
        <ele>179.6</ele>
        <time>2025-02-26T10:46:47Z</time>
      </trkpt>
      <trkpt lat="48.06477" lon="-3.50467">
        <ele>179.5</ele>
        <time>2025-02-26T10:46:48Z</time>
      </trkpt>
      <trkpt lat="48.06478" lon="-3.50467">
        <ele>179.3</ele>
        <time>2025-02-26T10:46:49Z</time>
      </trkpt>
      <trkpt lat="48.06479" lon="-3.50466">
        <ele>179.2</ele>
        <time>2025-02-26T10:46:50Z</time>
      </trkpt>
      <trkpt lat="48.0648" lon="-3.50466">
        <ele>179.2</ele>
        <time>2025-02-26T10:46:51Z</time>
      </trkpt>
      <trkpt lat="48.06481" lon="-3.50466">
        <ele>179.1</ele>
        <time>2025-02-26T10:46:52Z</time>
      </trkpt>
      <trkpt lat="48.06482" lon="-3.50466">
        <ele>179</ele>
        <time>2025-02-26T10:46:53Z</time>
      </trkpt>
      <trkpt lat="48.06483" lon="-3.50466">
        <ele>178.9</ele>
        <time>2025-02-26T10:46:54Z</time>
      </trkpt>
      <trkpt lat="48.06484" lon="-3.50465">
        <ele>178.8</ele>
        <time>2025-02-26T10:46:55Z</time>
      </trkpt>
      <trkpt lat="48.06486" lon="-3.50465">
        <ele>178.6</ele>
        <time>2025-02-26T10:46:56Z</time>
      </trkpt>
      <trkpt lat="48.06487" lon="-3.50465">
        <ele>178.5</ele>
        <time>2025-02-26T10:46:57Z</time>
      </trkpt>
      <trkpt lat="48.06488" lon="-3.50464">
        <ele>178.4</ele>
        <time>2025-02-26T10:46:58Z</time>
      </trkpt>
      <trkpt lat="48.06489" lon="-3.50464">
        <ele>178.3</ele>
        <time>2025-02-26T10:46:59Z</time>
      </trkpt>
      <trkpt lat="48.0649" lon="-3.50464">
        <ele>178.2</ele>
        <time>2025-02-26T10:47:00Z</time>
      </trkpt>
      <trkpt lat="48.06491" lon="-3.50464">
        <ele>178.2</ele>
        <time>2025-02-26T10:47:01Z</time>
      </trkpt>
      <trkpt lat="48.06492" lon="-3.50464">
        <ele>178.1</ele>
        <time>2025-02-26T10:47:02Z</time>
      </trkpt>
      <trkpt lat="48.06492" lon="-3.50464">
        <ele>178</ele>
        <time>2025-02-26T10:47:03Z</time>
      </trkpt>
      <trkpt lat="48.06494" lon="-3.50463">
        <ele>177.9</ele>
        <time>2025-02-26T10:47:04Z</time>
      </trkpt>
      <trkpt lat="48.06495" lon="-3.50463">
        <ele>177.8</ele>
        <time>2025-02-26T10:47:05Z</time>
      </trkpt>
      <trkpt lat="48.06495" lon="-3.50463">
        <ele>177.7</ele>
        <time>2025-02-26T10:47:06Z</time>
      </trkpt>
      <trkpt lat="48.06496" lon="-3.50463">
        <ele>177.7</ele>
        <time>2025-02-26T10:47:07Z</time>
      </trkpt>
      <trkpt lat="48.06497" lon="-3.50463">
        <ele>177.6</ele>
        <time>2025-02-26T10:47:08Z</time>
      </trkpt>
      <trkpt lat="48.06498" lon="-3.50464">
        <ele>177.6</ele>
        <time>2025-02-26T10:47:09Z</time>
      </trkpt>
      <trkpt lat="48.06498" lon="-3.50464">
        <ele>177.6</ele>
        <time>2025-02-26T10:47:10Z</time>
      </trkpt>
      <trkpt lat="48.06499" lon="-3.50464">
        <ele>177.5</ele>
        <time>2025-02-26T10:47:11Z</time>
      </trkpt>
      <trkpt lat="48.065" lon="-3.50463">
        <ele>177.4</ele>
        <time>2025-02-26T10:47:12Z</time>
      </trkpt>
      <trkpt lat="48.065" lon="-3.50463">
        <ele>177.3</ele>
        <time>2025-02-26T10:47:13Z</time>
      </trkpt>
      <trkpt lat="48.06501" lon="-3.50462">
        <ele>177.3</ele>
        <time>2025-02-26T10:47:14Z</time>
      </trkpt>
      <trkpt lat="48.06502" lon="-3.50462">
        <ele>177.2</ele>
        <time>2025-02-26T10:47:15Z</time>
      </trkpt>
      <trkpt lat="48.06503" lon="-3.50461">
        <ele>177.2</ele>
        <time>2025-02-26T10:47:16Z</time>
      </trkpt>
      <trkpt lat="48.06504" lon="-3.50461">
        <ele>177.1</ele>
        <time>2025-02-26T10:47:17Z</time>
      </trkpt>
      <trkpt lat="48.06505" lon="-3.5046">
        <ele>177</ele>
        <time>2025-02-26T10:47:18Z</time>
      </trkpt>
      <trkpt lat="48.06506" lon="-3.5046">
        <ele>177</ele>
        <time>2025-02-26T10:47:19Z</time>
      </trkpt>
      <trkpt lat="48.06507" lon="-3.5046">
        <ele>177</ele>
        <time>2025-02-26T10:47:20Z</time>
      </trkpt>
      <trkpt lat="48.06508" lon="-3.5046">
        <ele>177</ele>
        <time>2025-02-26T10:47:21Z</time>
      </trkpt>
      <trkpt lat="48.06509" lon="-3.50459">
        <ele>176.9</ele>
        <time>2025-02-26T10:47:22Z</time>
      </trkpt>
      <trkpt lat="48.0651" lon="-3.50458">
        <ele>176.8</ele>
        <time>2025-02-26T10:47:23Z</time>
      </trkpt>
      <trkpt lat="48.06511" lon="-3.50458">
        <ele>176.8</ele>
        <time>2025-02-26T10:47:24Z</time>
      </trkpt>
      <trkpt lat="48.06512" lon="-3.50457">
        <ele>176.7</ele>
        <time>2025-02-26T10:47:25Z</time>
      </trkpt>
      <trkpt lat="48.06513" lon="-3.50455">
        <ele>176.6</ele>
        <time>2025-02-26T10:47:26Z</time>
      </trkpt>
      <trkpt lat="48.06514" lon="-3.50454">
        <ele>176.5</ele>
        <time>2025-02-26T10:47:27Z</time>
      </trkpt>
      <trkpt lat="48.06515" lon="-3.50453">
        <ele>176.4</ele>
        <time>2025-02-26T10:47:28Z</time>
      </trkpt>
      <trkpt lat="48.06515" lon="-3.50451">
        <ele>176.4</ele>
        <time>2025-02-26T10:47:29Z</time>
      </trkpt>
      <trkpt lat="48.06516" lon="-3.50451">
        <ele>176.3</ele>
        <time>2025-02-26T10:47:30Z</time>
      </trkpt>
      <trkpt lat="48.06517" lon="-3.5045">
        <ele>176.3</ele>
        <time>2025-02-26T10:47:31Z</time>
      </trkpt>
      <trkpt lat="48.06519" lon="-3.50449">
        <ele>176.2</ele>
        <time>2025-02-26T10:47:32Z</time>
      </trkpt>
      <trkpt lat="48.0652" lon="-3.50449">
        <ele>176.2</ele>
        <time>2025-02-26T10:47:33Z</time>
      </trkpt>
      <trkpt lat="48.0652" lon="-3.50448">
        <ele>176.1</ele>
        <time>2025-02-26T10:47:34Z</time>
      </trkpt>
      <trkpt lat="48.06521" lon="-3.50446">
        <ele>176.1</ele>
        <time>2025-02-26T10:47:35Z</time>
      </trkpt>
      <trkpt lat="48.06523" lon="-3.50444">
        <ele>176</ele>
        <time>2025-02-26T10:47:36Z</time>
      </trkpt>
      <trkpt lat="48.06524" lon="-3.50443">
        <ele>176</ele>
        <time>2025-02-26T10:47:37Z</time>
      </trkpt>
      <trkpt lat="48.06526" lon="-3.50443">
        <ele>175.9</ele>
        <time>2025-02-26T10:47:38Z</time>
      </trkpt>
      <trkpt lat="48.06527" lon="-3.50443">
        <ele>175.9</ele>
        <time>2025-02-26T10:47:39Z</time>
      </trkpt>
      <trkpt lat="48.06528" lon="-3.50441">
        <ele>175.9</ele>
        <time>2025-02-26T10:47:40Z</time>
      </trkpt>
      <trkpt lat="48.06529" lon="-3.50439">
        <ele>175.9</ele>
        <time>2025-02-26T10:47:41Z</time>
      </trkpt>
      <trkpt lat="48.06529" lon="-3.50438">
        <ele>175.9</ele>
        <time>2025-02-26T10:47:42Z</time>
      </trkpt>
      <trkpt lat="48.06529" lon="-3.50437">
        <ele>175.9</ele>
        <time>2025-02-26T10:47:43Z</time>
      </trkpt>
      <trkpt lat="48.06529" lon="-3.50436">
        <ele>175.9</ele>
        <time>2025-02-26T10:47:44Z</time>
      </trkpt>
      <trkpt lat="48.0653" lon="-3.50435">
        <ele>175.9</ele>
        <time>2025-02-26T10:47:45Z</time>
      </trkpt>
      <trkpt lat="48.0653" lon="-3.50433">
        <ele>175.9</ele>
        <time>2025-02-26T10:47:46Z</time>
      </trkpt>
      <trkpt lat="48.06531" lon="-3.50431">
        <ele>175.9</ele>
        <time>2025-02-26T10:47:47Z</time>
      </trkpt>
      <trkpt lat="48.06531" lon="-3.50429">
        <ele>175.9</ele>
        <time>2025-02-26T10:47:48Z</time>
      </trkpt>
      <trkpt lat="48.06531" lon="-3.50427">
        <ele>175.8</ele>
        <time>2025-02-26T10:47:49Z</time>
      </trkpt>
      <trkpt lat="48.06532" lon="-3.50425">
        <ele>175.9</ele>
        <time>2025-02-26T10:47:50Z</time>
      </trkpt>
      <trkpt lat="48.06533" lon="-3.50425">
        <ele>176</ele>
        <time>2025-02-26T10:47:51Z</time>
      </trkpt>
      <trkpt lat="48.06534" lon="-3.50424">
        <ele>176</ele>
        <time>2025-02-26T10:47:52Z</time>
      </trkpt>
      <trkpt lat="48.06535" lon="-3.50423">
        <ele>176.2</ele>
        <time>2025-02-26T10:47:53Z</time>
      </trkpt>
      <trkpt lat="48.06537" lon="-3.50423">
        <ele>176.5</ele>
        <time>2025-02-26T10:47:54Z</time>
      </trkpt>
      <trkpt lat="48.06539" lon="-3.50423">
        <ele>176.8</ele>
        <time>2025-02-26T10:47:55Z</time>
      </trkpt>
      <trkpt lat="48.0654" lon="-3.50423">
        <ele>176.9</ele>
        <time>2025-02-26T10:47:56Z</time>
      </trkpt>
      <trkpt lat="48.06541" lon="-3.50421">
        <ele>177</ele>
        <time>2025-02-26T10:47:57Z</time>
      </trkpt>
      <trkpt lat="48.06542" lon="-3.5042">
        <ele>177</ele>
        <time>2025-02-26T10:47:58Z</time>
      </trkpt>
      <trkpt lat="48.06542" lon="-3.50419">
        <ele>177.1</ele>
        <time>2025-02-26T10:47:59Z</time>
      </trkpt>
      <trkpt lat="48.06543" lon="-3.50418">
        <ele>177.2</ele>
        <time>2025-02-26T10:48:00Z</time>
      </trkpt>
      <trkpt lat="48.06544" lon="-3.50417">
        <ele>177.3</ele>
        <time>2025-02-26T10:48:01Z</time>
      </trkpt>
      <trkpt lat="48.06545" lon="-3.50416">
        <ele>177.4</ele>
        <time>2025-02-26T10:48:02Z</time>
      </trkpt>
      <trkpt lat="48.06545" lon="-3.50415">
        <ele>177.4</ele>
        <time>2025-02-26T10:48:03Z</time>
      </trkpt>
      <trkpt lat="48.06546" lon="-3.50413">
        <ele>177.4</ele>
        <time>2025-02-26T10:48:04Z</time>
      </trkpt>
      <trkpt lat="48.06546" lon="-3.50411">
        <ele>177.3</ele>
        <time>2025-02-26T10:48:05Z</time>
      </trkpt>
      <trkpt lat="48.06547" lon="-3.50409">
        <ele>177.3</ele>
        <time>2025-02-26T10:48:06Z</time>
      </trkpt>
      <trkpt lat="48.06547" lon="-3.50408">
        <ele>177.3</ele>
        <time>2025-02-26T10:48:07Z</time>
      </trkpt>
      <trkpt lat="48.06548" lon="-3.50406">
        <ele>177.3</ele>
        <time>2025-02-26T10:48:08Z</time>
      </trkpt>
      <trkpt lat="48.06549" lon="-3.50405">
        <ele>177.3</ele>
        <time>2025-02-26T10:48:09Z</time>
      </trkpt>
      <trkpt lat="48.0655" lon="-3.50404">
        <ele>177.4</ele>
        <time>2025-02-26T10:48:10Z</time>
      </trkpt>
      <trkpt lat="48.06552" lon="-3.50404">
        <ele>177.6</ele>
        <time>2025-02-26T10:48:11Z</time>
      </trkpt>
      <trkpt lat="48.06553" lon="-3.50404">
        <ele>177.7</ele>
        <time>2025-02-26T10:48:12Z</time>
      </trkpt>
      <trkpt lat="48.06554" lon="-3.50403">
        <ele>177.8</ele>
        <time>2025-02-26T10:48:13Z</time>
      </trkpt>
      <trkpt lat="48.06555" lon="-3.50402">
        <ele>177.8</ele>
        <time>2025-02-26T10:48:14Z</time>
      </trkpt>
      <trkpt lat="48.06555" lon="-3.50401">
        <ele>177.9</ele>
        <time>2025-02-26T10:48:15Z</time>
      </trkpt>
      <trkpt lat="48.06556" lon="-3.504">
        <ele>177.8</ele>
        <time>2025-02-26T10:48:16Z</time>
      </trkpt>
      <trkpt lat="48.06557" lon="-3.50399">
        <ele>177.8</ele>
        <time>2025-02-26T10:48:17Z</time>
      </trkpt>
      <trkpt lat="48.06557" lon="-3.50397">
        <ele>177.7</ele>
        <time>2025-02-26T10:48:18Z</time>
      </trkpt>
      <trkpt lat="48.06558" lon="-3.50396">
        <ele>177.6</ele>
        <time>2025-02-26T10:48:19Z</time>
      </trkpt>
      <trkpt lat="48.06559" lon="-3.50395">
        <ele>177.6</ele>
        <time>2025-02-26T10:48:20Z</time>
      </trkpt>
      <trkpt lat="48.0656" lon="-3.50394">
        <ele>177.7</ele>
        <time>2025-02-26T10:48:21Z</time>
      </trkpt>
      <trkpt lat="48.06561" lon="-3.50393">
        <ele>177.7</ele>
        <time>2025-02-26T10:48:22Z</time>
      </trkpt>
      <trkpt lat="48.06562" lon="-3.50392">
        <ele>177.7</ele>
        <time>2025-02-26T10:48:23Z</time>
      </trkpt>
      <trkpt lat="48.06562" lon="-3.50391">
        <ele>177.6</ele>
        <time>2025-02-26T10:48:24Z</time>
      </trkpt>
      <trkpt lat="48.06563" lon="-3.5039">
        <ele>177.6</ele>
        <time>2025-02-26T10:48:25Z</time>
      </trkpt>
      <trkpt lat="48.06564" lon="-3.50388">
        <ele>177.5</ele>
        <time>2025-02-26T10:48:26Z</time>
      </trkpt>
      <trkpt lat="48.06565" lon="-3.50387">
        <ele>177.4</ele>
        <time>2025-02-26T10:48:27Z</time>
      </trkpt>
      <trkpt lat="48.06566" lon="-3.50386">
        <ele>177.3</ele>
        <time>2025-02-26T10:48:28Z</time>
      </trkpt>
      <trkpt lat="48.06566" lon="-3.50383">
        <ele>177.1</ele>
        <time>2025-02-26T10:48:29Z</time>
      </trkpt>
      <trkpt lat="48.06567" lon="-3.50382">
        <ele>177.1</ele>
        <time>2025-02-26T10:48:30Z</time>
      </trkpt>
      <trkpt lat="48.06568" lon="-3.5038">
        <ele>177</ele>
        <time>2025-02-26T10:48:31Z</time>
      </trkpt>
      <trkpt lat="48.06569" lon="-3.50379">
        <ele>176.9</ele>
        <time>2025-02-26T10:48:32Z</time>
      </trkpt>
      <trkpt lat="48.0657" lon="-3.50378">
        <ele>176.8</ele>
        <time>2025-02-26T10:48:33Z</time>
      </trkpt>
      <trkpt lat="48.0657" lon="-3.50376">
        <ele>176.7</ele>
        <time>2025-02-26T10:48:34Z</time>
      </trkpt>
      <trkpt lat="48.06572" lon="-3.50376">
        <ele>176.8</ele>
        <time>2025-02-26T10:48:35Z</time>
      </trkpt>
      <trkpt lat="48.06573" lon="-3.50374">
        <ele>176.7</ele>
        <time>2025-02-26T10:48:36Z</time>
      </trkpt>
      <trkpt lat="48.06574" lon="-3.50373">
        <ele>176.6</ele>
        <time>2025-02-26T10:48:37Z</time>
      </trkpt>
      <trkpt lat="48.06575" lon="-3.50372">
        <ele>176.5</ele>
        <time>2025-02-26T10:48:38Z</time>
      </trkpt>
      <trkpt lat="48.06575" lon="-3.5037">
        <ele>176.4</ele>
        <time>2025-02-26T10:48:39Z</time>
      </trkpt>
      <trkpt lat="48.06576" lon="-3.50368">
        <ele>176.2</ele>
        <time>2025-02-26T10:48:40Z</time>
      </trkpt>
      <trkpt lat="48.06576" lon="-3.50366">
        <ele>176.1</ele>
        <time>2025-02-26T10:48:41Z</time>
      </trkpt>
      <trkpt lat="48.06578" lon="-3.50365">
        <ele>176</ele>
        <time>2025-02-26T10:48:42Z</time>
      </trkpt>
      <trkpt lat="48.06579" lon="-3.50365">
        <ele>176.1</ele>
        <time>2025-02-26T10:48:43Z</time>
      </trkpt>
      <trkpt lat="48.0658" lon="-3.50363">
        <ele>175.9</ele>
        <time>2025-02-26T10:48:44Z</time>
      </trkpt>
      <trkpt lat="48.0658" lon="-3.50362">
        <ele>175.8</ele>
        <time>2025-02-26T10:48:45Z</time>
      </trkpt>
      <trkpt lat="48.06581" lon="-3.50361">
        <ele>175.8</ele>
        <time>2025-02-26T10:48:46Z</time>
      </trkpt>
      <trkpt lat="48.06582" lon="-3.50361">
        <ele>175.8</ele>
        <time>2025-02-26T10:48:47Z</time>
      </trkpt>
      <trkpt lat="48.06583" lon="-3.5036">
        <ele>175.8</ele>
        <time>2025-02-26T10:48:48Z</time>
      </trkpt>
      <trkpt lat="48.06584" lon="-3.50359">
        <ele>175.7</ele>
        <time>2025-02-26T10:48:49Z</time>
      </trkpt>
      <trkpt lat="48.06585" lon="-3.50358">
        <ele>175.6</ele>
        <time>2025-02-26T10:48:50Z</time>
      </trkpt>
      <trkpt lat="48.06586" lon="-3.50357">
        <ele>175.5</ele>
        <time>2025-02-26T10:48:51Z</time>
      </trkpt>
      <trkpt lat="48.06587" lon="-3.50356">
        <ele>175.6</ele>
        <time>2025-02-26T10:48:52Z</time>
      </trkpt>
      <trkpt lat="48.06588" lon="-3.50356">
        <ele>175.6</ele>
        <time>2025-02-26T10:48:53Z</time>
      </trkpt>
      <trkpt lat="48.06589" lon="-3.50354">
        <ele>175.5</ele>
        <time>2025-02-26T10:48:54Z</time>
      </trkpt>
      <trkpt lat="48.0659" lon="-3.50352">
        <ele>175.3</ele>
        <time>2025-02-26T10:48:55Z</time>
      </trkpt>
      <trkpt lat="48.0659" lon="-3.50351">
        <ele>175.2</ele>
        <time>2025-02-26T10:48:56Z</time>
      </trkpt>
      <trkpt lat="48.06591" lon="-3.5035">
        <ele>175</ele>
        <time>2025-02-26T10:48:57Z</time>
      </trkpt>
      <trkpt lat="48.06592" lon="-3.50348">
        <ele>174.8</ele>
        <time>2025-02-26T10:48:58Z</time>
      </trkpt>
      <trkpt lat="48.06592" lon="-3.50347">
        <ele>174.8</ele>
        <time>2025-02-26T10:48:59Z</time>
      </trkpt>
      <trkpt lat="48.06593" lon="-3.50345">
        <ele>174.6</ele>
        <time>2025-02-26T10:49:00Z</time>
      </trkpt>
      <trkpt lat="48.06593" lon="-3.50343">
        <ele>174.3</ele>
        <time>2025-02-26T10:49:01Z</time>
      </trkpt>
      <trkpt lat="48.06594" lon="-3.50342">
        <ele>174.2</ele>
        <time>2025-02-26T10:49:02Z</time>
      </trkpt>
      <trkpt lat="48.06595" lon="-3.50341">
        <ele>174.3</ele>
        <time>2025-02-26T10:49:03Z</time>
      </trkpt>
      <trkpt lat="48.06596" lon="-3.50341">
        <ele>174.4</ele>
        <time>2025-02-26T10:49:04Z</time>
      </trkpt>
      <trkpt lat="48.06597" lon="-3.50341">
        <ele>174.4</ele>
        <time>2025-02-26T10:49:05Z</time>
      </trkpt>
      <trkpt lat="48.06599" lon="-3.5034">
        <ele>174.5</ele>
        <time>2025-02-26T10:49:06Z</time>
      </trkpt>
      <trkpt lat="48.066" lon="-3.5034">
        <ele>174.6</ele>
        <time>2025-02-26T10:49:07Z</time>
      </trkpt>
      <trkpt lat="48.06601" lon="-3.50339">
        <ele>174.6</ele>
        <time>2025-02-26T10:49:08Z</time>
      </trkpt>
      <trkpt lat="48.06602" lon="-3.50338">
        <ele>174.6</ele>
        <time>2025-02-26T10:49:09Z</time>
      </trkpt>
      <trkpt lat="48.06603" lon="-3.50336">
        <ele>174.5</ele>
        <time>2025-02-26T10:49:10Z</time>
      </trkpt>
      <trkpt lat="48.06605" lon="-3.50336">
        <ele>174.6</ele>
        <time>2025-02-26T10:49:11Z</time>
      </trkpt>
      <trkpt lat="48.06605" lon="-3.50335">
        <ele>174.5</ele>
        <time>2025-02-26T10:49:12Z</time>
      </trkpt>
      <trkpt lat="48.06606" lon="-3.50334">
        <ele>174.5</ele>
        <time>2025-02-26T10:49:13Z</time>
      </trkpt>
      <trkpt lat="48.06607" lon="-3.50334">
        <ele>174.6</ele>
        <time>2025-02-26T10:49:14Z</time>
      </trkpt>
      <trkpt lat="48.06608" lon="-3.50333">
        <ele>174.6</ele>
        <time>2025-02-26T10:49:15Z</time>
      </trkpt>
      <trkpt lat="48.06609" lon="-3.50331">
        <ele>174.4</ele>
        <time>2025-02-26T10:49:16Z</time>
      </trkpt>
      <trkpt lat="48.06609" lon="-3.5033">
        <ele>174.4</ele>
        <time>2025-02-26T10:49:17Z</time>
      </trkpt>
      <trkpt lat="48.0661" lon="-3.50329">
        <ele>174.3</ele>
        <time>2025-02-26T10:49:18Z</time>
      </trkpt>
      <trkpt lat="48.06611" lon="-3.50328">
        <ele>174.4</ele>
        <time>2025-02-26T10:49:19Z</time>
      </trkpt>
      <trkpt lat="48.06612" lon="-3.50327">
        <ele>174.4</ele>
        <time>2025-02-26T10:49:20Z</time>
      </trkpt>
      <trkpt lat="48.06612" lon="-3.50326">
        <ele>174.4</ele>
        <time>2025-02-26T10:49:21Z</time>
      </trkpt>
      <trkpt lat="48.06613" lon="-3.50325">
        <ele>174.3</ele>
        <time>2025-02-26T10:49:22Z</time>
      </trkpt>
      <trkpt lat="48.06614" lon="-3.50324">
        <ele>174.3</ele>
        <time>2025-02-26T10:49:23Z</time>
      </trkpt>
      <trkpt lat="48.06615" lon="-3.50324">
        <ele>174.3</ele>
        <time>2025-02-26T10:49:24Z</time>
      </trkpt>
      <trkpt lat="48.06616" lon="-3.50323">
        <ele>174.4</ele>
        <time>2025-02-26T10:49:25Z</time>
      </trkpt>
      <trkpt lat="48.06617" lon="-3.50322">
        <ele>174.4</ele>
        <time>2025-02-26T10:49:26Z</time>
      </trkpt>
      <trkpt lat="48.06618" lon="-3.50322">
        <ele>174.4</ele>
        <time>2025-02-26T10:49:27Z</time>
      </trkpt>
      <trkpt lat="48.06619" lon="-3.50321">
        <ele>174.5</ele>
        <time>2025-02-26T10:49:28Z</time>
      </trkpt>
      <trkpt lat="48.0662" lon="-3.5032">
        <ele>174.5</ele>
        <time>2025-02-26T10:49:29Z</time>
      </trkpt>
      <trkpt lat="48.06621" lon="-3.50318">
        <ele>174.5</ele>
        <time>2025-02-26T10:49:30Z</time>
      </trkpt>
      <trkpt lat="48.06623" lon="-3.50318">
        <ele>174.6</ele>
        <time>2025-02-26T10:49:31Z</time>
      </trkpt>
      <trkpt lat="48.06624" lon="-3.50316">
        <ele>174.6</ele>
        <time>2025-02-26T10:49:32Z</time>
      </trkpt>
      <trkpt lat="48.06625" lon="-3.50315">
        <ele>174.7</ele>
        <time>2025-02-26T10:49:33Z</time>
      </trkpt>
      <trkpt lat="48.06626" lon="-3.50314">
        <ele>174.8</ele>
        <time>2025-02-26T10:49:34Z</time>
      </trkpt>
      <trkpt lat="48.06628" lon="-3.50313">
        <ele>174.9</ele>
        <time>2025-02-26T10:49:35Z</time>
      </trkpt>
      <trkpt lat="48.06628" lon="-3.50312">
        <ele>174.8</ele>
        <time>2025-02-26T10:49:36Z</time>
      </trkpt>
      <trkpt lat="48.06629" lon="-3.5031">
        <ele>174.8</ele>
        <time>2025-02-26T10:49:37Z</time>
      </trkpt>
      <trkpt lat="48.06629" lon="-3.50309">
        <ele>174.8</ele>
        <time>2025-02-26T10:49:38Z</time>
      </trkpt>
      <trkpt lat="48.0663" lon="-3.50308">
        <ele>174.8</ele>
        <time>2025-02-26T10:49:39Z</time>
      </trkpt>
      <trkpt lat="48.0663" lon="-3.50306">
        <ele>174.8</ele>
        <time>2025-02-26T10:49:40Z</time>
      </trkpt>
      <trkpt lat="48.06631" lon="-3.50305">
        <ele>174.8</ele>
        <time>2025-02-26T10:49:41Z</time>
      </trkpt>
      <trkpt lat="48.06631" lon="-3.50304">
        <ele>174.9</ele>
        <time>2025-02-26T10:49:42Z</time>
      </trkpt>
      <trkpt lat="48.06632" lon="-3.50303">
        <ele>175</ele>
        <time>2025-02-26T10:49:43Z</time>
      </trkpt>
      <trkpt lat="48.06633" lon="-3.50302">
        <ele>175.2</ele>
        <time>2025-02-26T10:49:44Z</time>
      </trkpt>
      <trkpt lat="48.06634" lon="-3.50301">
        <ele>175.3</ele>
        <time>2025-02-26T10:49:45Z</time>
      </trkpt>
      <trkpt lat="48.06635" lon="-3.50299">
        <ele>175.3</ele>
        <time>2025-02-26T10:49:46Z</time>
      </trkpt>
      <trkpt lat="48.06636" lon="-3.50299">
        <ele>175.5</ele>
        <time>2025-02-26T10:49:47Z</time>
      </trkpt>
      <trkpt lat="48.06636" lon="-3.50297">
        <ele>175.6</ele>
        <time>2025-02-26T10:49:48Z</time>
      </trkpt>
      <trkpt lat="48.06637" lon="-3.50296">
        <ele>175.6</ele>
        <time>2025-02-26T10:49:49Z</time>
      </trkpt>
      <trkpt lat="48.06637" lon="-3.50295">
        <ele>175.7</ele>
        <time>2025-02-26T10:49:50Z</time>
      </trkpt>
      <trkpt lat="48.06638" lon="-3.50294">
        <ele>175.8</ele>
        <time>2025-02-26T10:49:51Z</time>
      </trkpt>
      <trkpt lat="48.06638" lon="-3.50293">
        <ele>175.9</ele>
        <time>2025-02-26T10:49:52Z</time>
      </trkpt>
      <trkpt lat="48.06639" lon="-3.50291">
        <ele>176</ele>
        <time>2025-02-26T10:49:53Z</time>
      </trkpt>
      <trkpt lat="48.06639" lon="-3.50291">
        <ele>176</ele>
        <time>2025-02-26T10:49:54Z</time>
      </trkpt>
      <trkpt lat="48.0664" lon="-3.5029">
        <ele>176</ele>
        <time>2025-02-26T10:49:55Z</time>
      </trkpt>
      <trkpt lat="48.06641" lon="-3.50289">
        <ele>176</ele>
        <time>2025-02-26T10:49:56Z</time>
      </trkpt>
      <trkpt lat="48.06642" lon="-3.50288">
        <ele>176</ele>
        <time>2025-02-26T10:49:57Z</time>
      </trkpt>
      <trkpt lat="48.06642" lon="-3.50287">
        <ele>176</ele>
        <time>2025-02-26T10:49:58Z</time>
      </trkpt>
      <trkpt lat="48.06642" lon="-3.50285">
        <ele>176</ele>
        <time>2025-02-26T10:49:59Z</time>
      </trkpt>
      <trkpt lat="48.06642" lon="-3.50284">
        <ele>176</ele>
        <time>2025-02-26T10:50:00Z</time>
      </trkpt>
      <trkpt lat="48.06642" lon="-3.50283">
        <ele>176</ele>
        <time>2025-02-26T10:50:01Z</time>
      </trkpt>
      <trkpt lat="48.06641" lon="-3.50282">
        <ele>176</ele>
        <time>2025-02-26T10:50:02Z</time>
      </trkpt>
      <trkpt lat="48.06641" lon="-3.50281">
        <ele>176</ele>
        <time>2025-02-26T10:50:03Z</time>
      </trkpt>
      <trkpt lat="48.0664" lon="-3.50279">
        <ele>176</ele>
        <time>2025-02-26T10:50:04Z</time>
      </trkpt>
      <trkpt lat="48.0664" lon="-3.50278">
        <ele>176</ele>
        <time>2025-02-26T10:50:05Z</time>
      </trkpt>
      <trkpt lat="48.06639" lon="-3.50277">
        <ele>176</ele>
        <time>2025-02-26T10:50:06Z</time>
      </trkpt>
      <trkpt lat="48.06638" lon="-3.50276">
        <ele>175.9</ele>
        <time>2025-02-26T10:50:07Z</time>
      </trkpt>
      <trkpt lat="48.06638" lon="-3.50274">
        <ele>175.8</ele>
        <time>2025-02-26T10:50:08Z</time>
      </trkpt>
      <trkpt lat="48.06637" lon="-3.50273">
        <ele>175.8</ele>
        <time>2025-02-26T10:50:09Z</time>
      </trkpt>
      <trkpt lat="48.06637" lon="-3.50271">
        <ele>175.7</ele>
        <time>2025-02-26T10:50:10Z</time>
      </trkpt>
      <trkpt lat="48.06637" lon="-3.50269">
        <ele>175.7</ele>
        <time>2025-02-26T10:50:11Z</time>
      </trkpt>
      <trkpt lat="48.06637" lon="-3.50268">
        <ele>175.7</ele>
        <time>2025-02-26T10:50:12Z</time>
      </trkpt>
      <trkpt lat="48.06636" lon="-3.50266">
        <ele>175.6</ele>
        <time>2025-02-26T10:50:13Z</time>
      </trkpt>
      <trkpt lat="48.06635" lon="-3.50265">
        <ele>175.4</ele>
        <time>2025-02-26T10:50:14Z</time>
      </trkpt>
      <trkpt lat="48.06634" lon="-3.50264">
        <ele>175.3</ele>
        <time>2025-02-26T10:50:15Z</time>
      </trkpt>
      <trkpt lat="48.06633" lon="-3.50263">
        <ele>175.2</ele>
        <time>2025-02-26T10:50:16Z</time>
      </trkpt>
      <trkpt lat="48.06633" lon="-3.50261">
        <ele>175.2</ele>
        <time>2025-02-26T10:50:17Z</time>
      </trkpt>
      <trkpt lat="48.06633" lon="-3.5026">
        <ele>175.2</ele>
        <time>2025-02-26T10:50:18Z</time>
      </trkpt>
      <trkpt lat="48.06633" lon="-3.50259">
        <ele>175.2</ele>
        <time>2025-02-26T10:50:19Z</time>
      </trkpt>
      <trkpt lat="48.06633" lon="-3.50258">
        <ele>175.2</ele>
        <time>2025-02-26T10:50:20Z</time>
      </trkpt>
      <trkpt lat="48.06633" lon="-3.50256">
        <ele>175.2</ele>
        <time>2025-02-26T10:50:21Z</time>
      </trkpt>
      <trkpt lat="48.06632" lon="-3.50255">
        <ele>175.2</ele>
        <time>2025-02-26T10:50:22Z</time>
      </trkpt>
      <trkpt lat="48.06632" lon="-3.50253">
        <ele>175.2</ele>
        <time>2025-02-26T10:50:23Z</time>
      </trkpt>
      <trkpt lat="48.06632" lon="-3.50251">
        <ele>175.2</ele>
        <time>2025-02-26T10:50:24Z</time>
      </trkpt>
      <trkpt lat="48.06632" lon="-3.50249">
        <ele>175.2</ele>
        <time>2025-02-26T10:50:25Z</time>
      </trkpt>
      <trkpt lat="48.06631" lon="-3.50248">
        <ele>175.2</ele>
        <time>2025-02-26T10:50:26Z</time>
      </trkpt>
      <trkpt lat="48.0663" lon="-3.50247">
        <ele>175.2</ele>
        <time>2025-02-26T10:50:27Z</time>
      </trkpt>
      <trkpt lat="48.06629" lon="-3.50245">
        <ele>175.2</ele>
        <time>2025-02-26T10:50:28Z</time>
      </trkpt>
      <trkpt lat="48.06628" lon="-3.50244">
        <ele>175.2</ele>
        <time>2025-02-26T10:50:29Z</time>
      </trkpt>
      <trkpt lat="48.06628" lon="-3.50242">
        <ele>175.2</ele>
        <time>2025-02-26T10:50:30Z</time>
      </trkpt>
      <trkpt lat="48.06627" lon="-3.5024">
        <ele>175.2</ele>
        <time>2025-02-26T10:50:31Z</time>
      </trkpt>
      <trkpt lat="48.06627" lon="-3.50239">
        <ele>175.3</ele>
        <time>2025-02-26T10:50:32Z</time>
      </trkpt>
      <trkpt lat="48.06627" lon="-3.50237">
        <ele>175.4</ele>
        <time>2025-02-26T10:50:33Z</time>
      </trkpt>
      <trkpt lat="48.06627" lon="-3.50236">
        <ele>175.4</ele>
        <time>2025-02-26T10:50:34Z</time>
      </trkpt>
      <trkpt lat="48.06626" lon="-3.50234">
        <ele>175.4</ele>
        <time>2025-02-26T10:50:35Z</time>
      </trkpt>
      <trkpt lat="48.06626" lon="-3.50233">
        <ele>175.5</ele>
        <time>2025-02-26T10:50:36Z</time>
      </trkpt>
      <trkpt lat="48.06626" lon="-3.50232">
        <ele>175.6</ele>
        <time>2025-02-26T10:50:37Z</time>
      </trkpt>
      <trkpt lat="48.06625" lon="-3.5023">
        <ele>175.6</ele>
        <time>2025-02-26T10:50:38Z</time>
      </trkpt>
      <trkpt lat="48.06624" lon="-3.50229">
        <ele>175.6</ele>
        <time>2025-02-26T10:50:39Z</time>
      </trkpt>
      <trkpt lat="48.06624" lon="-3.50228">
        <ele>175.6</ele>
        <time>2025-02-26T10:50:40Z</time>
      </trkpt>
      <trkpt lat="48.06623" lon="-3.50227">
        <ele>175.6</ele>
        <time>2025-02-26T10:50:41Z</time>
      </trkpt>
      <trkpt lat="48.06623" lon="-3.50226">
        <ele>175.6</ele>
        <time>2025-02-26T10:50:42Z</time>
      </trkpt>
      <trkpt lat="48.06622" lon="-3.50224">
        <ele>175.7</ele>
        <time>2025-02-26T10:50:43Z</time>
      </trkpt>
      <trkpt lat="48.06622" lon="-3.50223">
        <ele>175.7</ele>
        <time>2025-02-26T10:50:44Z</time>
      </trkpt>
      <trkpt lat="48.06621" lon="-3.50222">
        <ele>175.8</ele>
        <time>2025-02-26T10:50:45Z</time>
      </trkpt>
      <trkpt lat="48.06621" lon="-3.5022">
        <ele>175.8</ele>
        <time>2025-02-26T10:50:46Z</time>
      </trkpt>
      <trkpt lat="48.0662" lon="-3.50219">
        <ele>175.7</ele>
        <time>2025-02-26T10:50:47Z</time>
      </trkpt>
      <trkpt lat="48.0662" lon="-3.50218">
        <ele>175.7</ele>
        <time>2025-02-26T10:50:48Z</time>
      </trkpt>
      <trkpt lat="48.06619" lon="-3.50217">
        <ele>175.7</ele>
        <time>2025-02-26T10:50:49Z</time>
      </trkpt>
      <trkpt lat="48.06619" lon="-3.50215">
        <ele>175.7</ele>
        <time>2025-02-26T10:50:50Z</time>
      </trkpt>
      <trkpt lat="48.06618" lon="-3.50213">
        <ele>175.7</ele>
        <time>2025-02-26T10:50:51Z</time>
      </trkpt>
      <trkpt lat="48.06617" lon="-3.50212">
        <ele>175.7</ele>
        <time>2025-02-26T10:50:52Z</time>
      </trkpt>
      <trkpt lat="48.06617" lon="-3.5021">
        <ele>175.7</ele>
        <time>2025-02-26T10:50:53Z</time>
      </trkpt>
      <trkpt lat="48.06616" lon="-3.50209">
        <ele>175.8</ele>
        <time>2025-02-26T10:50:54Z</time>
      </trkpt>
      <trkpt lat="48.06616" lon="-3.50208">
        <ele>175.8</ele>
        <time>2025-02-26T10:50:55Z</time>
      </trkpt>
      <trkpt lat="48.06615" lon="-3.50206">
        <ele>175.8</ele>
        <time>2025-02-26T10:50:56Z</time>
      </trkpt>
      <trkpt lat="48.06615" lon="-3.50205">
        <ele>175.8</ele>
        <time>2025-02-26T10:50:57Z</time>
      </trkpt>
      <trkpt lat="48.06615" lon="-3.50203">
        <ele>175.9</ele>
        <time>2025-02-26T10:50:58Z</time>
      </trkpt>
      <trkpt lat="48.06614" lon="-3.50202">
        <ele>175.9</ele>
        <time>2025-02-26T10:50:59Z</time>
      </trkpt>
      <trkpt lat="48.06614" lon="-3.502">
        <ele>175.9</ele>
        <time>2025-02-26T10:51:00Z</time>
      </trkpt>
      <trkpt lat="48.06613" lon="-3.50199">
        <ele>175.9</ele>
        <time>2025-02-26T10:51:01Z</time>
      </trkpt>
      <trkpt lat="48.06612" lon="-3.50198">
        <ele>175.9</ele>
        <time>2025-02-26T10:51:02Z</time>
      </trkpt>
      <trkpt lat="48.06612" lon="-3.50196">
        <ele>176</ele>
        <time>2025-02-26T10:51:03Z</time>
      </trkpt>
      <trkpt lat="48.06611" lon="-3.50195">
        <ele>175.9</ele>
        <time>2025-02-26T10:51:04Z</time>
      </trkpt>
      <trkpt lat="48.0661" lon="-3.50194">
        <ele>176</ele>
        <time>2025-02-26T10:51:05Z</time>
      </trkpt>
      <trkpt lat="48.0661" lon="-3.50192">
        <ele>176</ele>
        <time>2025-02-26T10:51:06Z</time>
      </trkpt>
      <trkpt lat="48.0661" lon="-3.50191">
        <ele>176</ele>
        <time>2025-02-26T10:51:07Z</time>
      </trkpt>
      <trkpt lat="48.0661" lon="-3.5019">
        <ele>176</ele>
        <time>2025-02-26T10:51:08Z</time>
      </trkpt>
      <trkpt lat="48.0661" lon="-3.50191">
        <ele>176</ele>
        <time>2025-02-26T10:51:09Z</time>
      </trkpt>
      <trkpt lat="48.0661" lon="-3.50192">
        <ele>176</ele>
        <time>2025-02-26T10:51:10Z</time>
      </trkpt>
      <trkpt lat="48.0661" lon="-3.50192">
        <ele>176</ele>
        <time>2025-02-26T10:51:11Z</time>
      </trkpt>
      <trkpt lat="48.0661" lon="-3.50192">
        <ele>176</ele>
        <time>2025-02-26T10:51:12Z</time>
      </trkpt>
      <trkpt lat="48.0661" lon="-3.50192">
        <ele>176</ele>
        <time>2025-02-26T10:51:13Z</time>
      </trkpt>
      <trkpt lat="48.0661" lon="-3.50192">
        <ele>176</ele>
        <time>2025-02-26T10:51:14Z</time>
      </trkpt>
      <trkpt lat="48.0661" lon="-3.50192">
        <ele>176</ele>
        <time>2025-02-26T10:51:15Z</time>
      </trkpt>
      <trkpt lat="48.0661" lon="-3.50192">
        <ele>176</ele>
        <time>2025-02-26T10:51:16Z</time>
      </trkpt>
      <trkpt lat="48.0661" lon="-3.50192">
        <ele>176</ele>
        <time>2025-02-26T10:51:17Z</time>
      </trkpt>
      <trkpt lat="48.0661" lon="-3.50192">
        <ele>176</ele>
        <time>2025-02-26T10:51:18Z</time>
      </trkpt>
      <trkpt lat="48.0661" lon="-3.50192">
        <ele>176</ele>
        <time>2025-02-26T10:51:19Z</time>
      </trkpt>
      <trkpt lat="48.0661" lon="-3.50192">
        <ele>176</ele>
        <time>2025-02-26T10:51:20Z</time>
      </trkpt>
      <trkpt lat="48.0661" lon="-3.50192">
        <ele>176</ele>
        <time>2025-02-26T10:51:21Z</time>
      </trkpt>
      <trkpt lat="48.0661" lon="-3.50192">
        <ele>176</ele>
        <time>2025-02-26T10:51:22Z</time>
      </trkpt>
      <trkpt lat="48.0661" lon="-3.50192">
        <ele>176</ele>
        <time>2025-02-26T10:51:23Z</time>
      </trkpt>
      <trkpt lat="48.0661" lon="-3.50192">
        <ele>176</ele>
        <time>2025-02-26T10:51:24Z</time>
      </trkpt>
      <trkpt lat="48.0661" lon="-3.50192">
        <ele>176</ele>
        <time>2025-02-26T10:51:25Z</time>
      </trkpt>
      <trkpt lat="48.0661" lon="-3.50191">
        <ele>176</ele>
        <time>2025-02-26T10:51:26Z</time>
      </trkpt>
      <trkpt lat="48.0661" lon="-3.50191">
        <ele>176</ele>
        <time>2025-02-26T10:51:27Z</time>
      </trkpt>
      <trkpt lat="48.0661" lon="-3.50191">
        <ele>176</ele>
        <time>2025-02-26T10:51:28Z</time>
      </trkpt>
      <trkpt lat="48.0661" lon="-3.50191">
        <ele>176</ele>
        <time>2025-02-26T10:51:29Z</time>
      </trkpt>
      <trkpt lat="48.0661" lon="-3.50191">
        <ele>176</ele>
        <time>2025-02-26T10:51:30Z</time>
      </trkpt>
      <trkpt lat="48.0661" lon="-3.50191">
        <ele>176</ele>
        <time>2025-02-26T10:51:31Z</time>
      </trkpt>
      <trkpt lat="48.0661" lon="-3.50191">
        <ele>176</ele>
        <time>2025-02-26T10:51:32Z</time>
      </trkpt>
      <trkpt lat="48.0661" lon="-3.50191">
        <ele>176</ele>
        <time>2025-02-26T10:51:33Z</time>
      </trkpt>
      <trkpt lat="48.0661" lon="-3.50191">
        <ele>176</ele>
        <time>2025-02-26T10:51:34Z</time>
      </trkpt>
      <trkpt lat="48.0661" lon="-3.50191">
        <ele>176</ele>
        <time>2025-02-26T10:51:35Z</time>
      </trkpt>
      <trkpt lat="48.0661" lon="-3.50191">
        <ele>176</ele>
        <time>2025-02-26T10:51:36Z</time>
      </trkpt>
      <trkpt lat="48.0661" lon="-3.50191">
        <ele>176</ele>
        <time>2025-02-26T10:51:37Z</time>
      </trkpt>
      <trkpt lat="48.0661" lon="-3.50191">
        <ele>176</ele>
        <time>2025-02-26T10:51:38Z</time>
      </trkpt>
      <trkpt lat="48.0661" lon="-3.50191">
        <ele>176</ele>
        <time>2025-02-26T10:51:39Z</time>
      </trkpt>
      <trkpt lat="48.0661" lon="-3.50191">
        <ele>176</ele>
        <time>2025-02-26T10:51:40Z</time>
      </trkpt>
      <trkpt lat="48.0661" lon="-3.50191">
        <ele>176</ele>
        <time>2025-02-26T10:51:41Z</time>
      </trkpt>
      <trkpt lat="48.0661" lon="-3.50191">
        <ele>176</ele>
        <time>2025-02-26T10:51:42Z</time>
      </trkpt>
      <trkpt lat="48.0661" lon="-3.50191">
        <ele>176</ele>
        <time>2025-02-26T10:51:43Z</time>
      </trkpt>
      <trkpt lat="48.0661" lon="-3.50191">
        <ele>176</ele>
        <time>2025-02-26T10:51:44Z</time>
      </trkpt>
      <trkpt lat="48.0661" lon="-3.50191">
        <ele>176</ele>
        <time>2025-02-26T10:51:45Z</time>
      </trkpt>
      <trkpt lat="48.0661" lon="-3.50191">
        <ele>176</ele>
        <time>2025-02-26T10:51:46Z</time>
      </trkpt>
      <trkpt lat="48.0661" lon="-3.50192">
        <ele>176</ele>
        <time>2025-02-26T10:51:47Z</time>
      </trkpt>
      <trkpt lat="48.0661" lon="-3.50192">
        <ele>176</ele>
        <time>2025-02-26T10:51:48Z</time>
      </trkpt>
      <trkpt lat="48.0661" lon="-3.50192">
        <ele>176</ele>
        <time>2025-02-26T10:51:49Z</time>
      </trkpt>
      <trkpt lat="48.0661" lon="-3.50192">
        <ele>176</ele>
        <time>2025-02-26T10:51:50Z</time>
      </trkpt>
      <trkpt lat="48.0661" lon="-3.50192">
        <ele>176</ele>
        <time>2025-02-26T10:51:51Z</time>
      </trkpt>
      <trkpt lat="48.0661" lon="-3.50191">
        <ele>176</ele>
        <time>2025-02-26T10:51:52Z</time>
      </trkpt>
      <trkpt lat="48.06609" lon="-3.5019">
        <ele>175.9</ele>
        <time>2025-02-26T10:51:53Z</time>
      </trkpt>
      <trkpt lat="48.06609" lon="-3.50189">
        <ele>176</ele>
        <time>2025-02-26T10:51:54Z</time>
      </trkpt>
      <trkpt lat="48.06609" lon="-3.50188">
        <ele>176</ele>
        <time>2025-02-26T10:51:55Z</time>
      </trkpt>
      <trkpt lat="48.06609" lon="-3.50186">
        <ele>176.1</ele>
        <time>2025-02-26T10:51:56Z</time>
      </trkpt>
      <trkpt lat="48.06608" lon="-3.50184">
        <ele>176</ele>
        <time>2025-02-26T10:51:57Z</time>
      </trkpt>
      <trkpt lat="48.06608" lon="-3.50183">
        <ele>176.1</ele>
        <time>2025-02-26T10:51:58Z</time>
      </trkpt>
      <trkpt lat="48.06607" lon="-3.50182">
        <ele>176.1</ele>
        <time>2025-02-26T10:51:59Z</time>
      </trkpt>
      <trkpt lat="48.06607" lon="-3.50182">
        <ele>176.1</ele>
        <time>2025-02-26T10:52:00Z</time>
      </trkpt>
      <trkpt lat="48.06607" lon="-3.50181">
        <ele>176.1</ele>
        <time>2025-02-26T10:52:01Z</time>
      </trkpt>
      <trkpt lat="48.06607" lon="-3.5018">
        <ele>176.1</ele>
        <time>2025-02-26T10:52:02Z</time>
      </trkpt>
      <trkpt lat="48.06606" lon="-3.50179">
        <ele>176.1</ele>
        <time>2025-02-26T10:52:03Z</time>
      </trkpt>
      <trkpt lat="48.06606" lon="-3.50178">
        <ele>176.2</ele>
        <time>2025-02-26T10:52:04Z</time>
      </trkpt>
      <trkpt lat="48.06606" lon="-3.50177">
        <ele>176.2</ele>
        <time>2025-02-26T10:52:05Z</time>
      </trkpt>
      <trkpt lat="48.06605" lon="-3.50175">
        <ele>176.2</ele>
        <time>2025-02-26T10:52:06Z</time>
      </trkpt>
      <trkpt lat="48.06605" lon="-3.50174">
        <ele>176.2</ele>
        <time>2025-02-26T10:52:07Z</time>
      </trkpt>
      <trkpt lat="48.06605" lon="-3.50173">
        <ele>176.3</ele>
        <time>2025-02-26T10:52:08Z</time>
      </trkpt>
      <trkpt lat="48.06604" lon="-3.50172">
        <ele>176.3</ele>
        <time>2025-02-26T10:52:09Z</time>
      </trkpt>
      <trkpt lat="48.06604" lon="-3.5017">
        <ele>176.3</ele>
        <time>2025-02-26T10:52:10Z</time>
      </trkpt>
      <trkpt lat="48.06603" lon="-3.50169">
        <ele>176.3</ele>
        <time>2025-02-26T10:52:11Z</time>
      </trkpt>
      <trkpt lat="48.06603" lon="-3.50167">
        <ele>176.4</ele>
        <time>2025-02-26T10:52:12Z</time>
      </trkpt>
      <trkpt lat="48.06602" lon="-3.50166">
        <ele>176.4</ele>
        <time>2025-02-26T10:52:13Z</time>
      </trkpt>
      <trkpt lat="48.06602" lon="-3.50165">
        <ele>176.4</ele>
        <time>2025-02-26T10:52:14Z</time>
      </trkpt>
      <trkpt lat="48.06601" lon="-3.50163">
        <ele>176.5</ele>
        <time>2025-02-26T10:52:15Z</time>
      </trkpt>
      <trkpt lat="48.06601" lon="-3.50162">
        <ele>176.5</ele>
        <time>2025-02-26T10:52:16Z</time>
      </trkpt>
      <trkpt lat="48.066" lon="-3.50161">
        <ele>176.5</ele>
        <time>2025-02-26T10:52:17Z</time>
      </trkpt>
      <trkpt lat="48.066" lon="-3.50159">
        <ele>176.5</ele>
        <time>2025-02-26T10:52:18Z</time>
      </trkpt>
      <trkpt lat="48.06599" lon="-3.50158">
        <ele>176.6</ele>
        <time>2025-02-26T10:52:19Z</time>
      </trkpt>
      <trkpt lat="48.06599" lon="-3.50156">
        <ele>176.7</ele>
        <time>2025-02-26T10:52:20Z</time>
      </trkpt>
      <trkpt lat="48.06598" lon="-3.50154">
        <ele>176.7</ele>
        <time>2025-02-26T10:52:21Z</time>
      </trkpt>
      <trkpt lat="48.06598" lon="-3.50153">
        <ele>176.8</ele>
        <time>2025-02-26T10:52:22Z</time>
      </trkpt>
      <trkpt lat="48.06597" lon="-3.50151">
        <ele>176.9</ele>
        <time>2025-02-26T10:52:23Z</time>
      </trkpt>
      <trkpt lat="48.06597" lon="-3.50149">
        <ele>176.9</ele>
        <time>2025-02-26T10:52:24Z</time>
      </trkpt>
      <trkpt lat="48.06597" lon="-3.50148">
        <ele>177</ele>
        <time>2025-02-26T10:52:25Z</time>
      </trkpt>
      <trkpt lat="48.06596" lon="-3.50146">
        <ele>177.1</ele>
        <time>2025-02-26T10:52:26Z</time>
      </trkpt>
      <trkpt lat="48.06596" lon="-3.50144">
        <ele>177.1</ele>
        <time>2025-02-26T10:52:27Z</time>
      </trkpt>
      <trkpt lat="48.06595" lon="-3.50143">
        <ele>177.2</ele>
        <time>2025-02-26T10:52:28Z</time>
      </trkpt>
      <trkpt lat="48.06595" lon="-3.50141">
        <ele>177.3</ele>
        <time>2025-02-26T10:52:29Z</time>
      </trkpt>
      <trkpt lat="48.06594" lon="-3.5014">
        <ele>177.4</ele>
        <time>2025-02-26T10:52:30Z</time>
      </trkpt>
      <trkpt lat="48.06593" lon="-3.50138">
        <ele>177.4</ele>
        <time>2025-02-26T10:52:31Z</time>
      </trkpt>
      <trkpt lat="48.06593" lon="-3.50137">
        <ele>177.4</ele>
        <time>2025-02-26T10:52:32Z</time>
      </trkpt>
      <trkpt lat="48.06592" lon="-3.50135">
        <ele>177.4</ele>
        <time>2025-02-26T10:52:33Z</time>
      </trkpt>
      <trkpt lat="48.06591" lon="-3.50133">
        <ele>177.4</ele>
        <time>2025-02-26T10:52:34Z</time>
      </trkpt>
      <trkpt lat="48.06591" lon="-3.50132">
        <ele>177.5</ele>
        <time>2025-02-26T10:52:35Z</time>
      </trkpt>
      <trkpt lat="48.0659" lon="-3.5013">
        <ele>177.5</ele>
        <time>2025-02-26T10:52:36Z</time>
      </trkpt>
      <trkpt lat="48.0659" lon="-3.50128">
        <ele>177.5</ele>
        <time>2025-02-26T10:52:37Z</time>
      </trkpt>
      <trkpt lat="48.0659" lon="-3.50127">
        <ele>177.6</ele>
        <time>2025-02-26T10:52:38Z</time>
      </trkpt>
      <trkpt lat="48.06589" lon="-3.50125">
        <ele>177.6</ele>
        <time>2025-02-26T10:52:39Z</time>
      </trkpt>
      <trkpt lat="48.06589" lon="-3.50124">
        <ele>177.6</ele>
        <time>2025-02-26T10:52:40Z</time>
      </trkpt>
      <trkpt lat="48.06589" lon="-3.50123">
        <ele>177.6</ele>
        <time>2025-02-26T10:52:41Z</time>
      </trkpt>
      <trkpt lat="48.06588" lon="-3.50121">
        <ele>177.7</ele>
        <time>2025-02-26T10:52:42Z</time>
      </trkpt>
      <trkpt lat="48.06587" lon="-3.50119">
        <ele>177.8</ele>
        <time>2025-02-26T10:52:43Z</time>
      </trkpt>
      <trkpt lat="48.06587" lon="-3.50117">
        <ele>177.8</ele>
        <time>2025-02-26T10:52:44Z</time>
      </trkpt>
      <trkpt lat="48.06587" lon="-3.50116">
        <ele>177.8</ele>
        <time>2025-02-26T10:52:45Z</time>
      </trkpt>
      <trkpt lat="48.06587" lon="-3.50115">
        <ele>177.9</ele>
        <time>2025-02-26T10:52:46Z</time>
      </trkpt>
      <trkpt lat="48.06586" lon="-3.50113">
        <ele>177.9</ele>
        <time>2025-02-26T10:52:47Z</time>
      </trkpt>
      <trkpt lat="48.06585" lon="-3.50111">
        <ele>178</ele>
        <time>2025-02-26T10:52:48Z</time>
      </trkpt>
      <trkpt lat="48.06584" lon="-3.50109">
        <ele>178</ele>
        <time>2025-02-26T10:52:49Z</time>
      </trkpt>
      <trkpt lat="48.06583" lon="-3.50107">
        <ele>178</ele>
        <time>2025-02-26T10:52:50Z</time>
      </trkpt>
      <trkpt lat="48.06582" lon="-3.50106">
        <ele>177.9</ele>
        <time>2025-02-26T10:52:51Z</time>
      </trkpt>
      <trkpt lat="48.06582" lon="-3.50105">
        <ele>177.9</ele>
        <time>2025-02-26T10:52:52Z</time>
      </trkpt>
      <trkpt lat="48.06581" lon="-3.50103">
        <ele>177.9</ele>
        <time>2025-02-26T10:52:53Z</time>
      </trkpt>
      <trkpt lat="48.06581" lon="-3.50101">
        <ele>177.9</ele>
        <time>2025-02-26T10:52:54Z</time>
      </trkpt>
      <trkpt lat="48.06581" lon="-3.50099">
        <ele>177.9</ele>
        <time>2025-02-26T10:52:55Z</time>
      </trkpt>
      <trkpt lat="48.0658" lon="-3.50098">
        <ele>177.8</ele>
        <time>2025-02-26T10:52:56Z</time>
      </trkpt>
      <trkpt lat="48.0658" lon="-3.50095">
        <ele>177.9</ele>
        <time>2025-02-26T10:52:57Z</time>
      </trkpt>
      <trkpt lat="48.0658" lon="-3.50093">
        <ele>177.8</ele>
        <time>2025-02-26T10:52:58Z</time>
      </trkpt>
      <trkpt lat="48.06579" lon="-3.50092">
        <ele>177.8</ele>
        <time>2025-02-26T10:52:59Z</time>
      </trkpt>
      <trkpt lat="48.06579" lon="-3.5009">
        <ele>177.8</ele>
        <time>2025-02-26T10:53:00Z</time>
      </trkpt>
      <trkpt lat="48.06578" lon="-3.50089">
        <ele>177.8</ele>
        <time>2025-02-26T10:53:01Z</time>
      </trkpt>
      <trkpt lat="48.06578" lon="-3.50088">
        <ele>177.8</ele>
        <time>2025-02-26T10:53:02Z</time>
      </trkpt>
      <trkpt lat="48.06578" lon="-3.50086">
        <ele>177.8</ele>
        <time>2025-02-26T10:53:03Z</time>
      </trkpt>
      <trkpt lat="48.06577" lon="-3.50085">
        <ele>177.8</ele>
        <time>2025-02-26T10:53:04Z</time>
      </trkpt>
      <trkpt lat="48.06577" lon="-3.50083">
        <ele>177.8</ele>
        <time>2025-02-26T10:53:05Z</time>
      </trkpt>
      <trkpt lat="48.06577" lon="-3.5008">
        <ele>177.9</ele>
        <time>2025-02-26T10:53:06Z</time>
      </trkpt>
      <trkpt lat="48.06577" lon="-3.50079">
        <ele>177.9</ele>
        <time>2025-02-26T10:53:07Z</time>
      </trkpt>
      <trkpt lat="48.06576" lon="-3.50077">
        <ele>177.9</ele>
        <time>2025-02-26T10:53:08Z</time>
      </trkpt>
      <trkpt lat="48.06576" lon="-3.50076">
        <ele>177.9</ele>
        <time>2025-02-26T10:53:09Z</time>
      </trkpt>
      <trkpt lat="48.06576" lon="-3.50074">
        <ele>178</ele>
        <time>2025-02-26T10:53:10Z</time>
      </trkpt>
      <trkpt lat="48.06576" lon="-3.50073">
        <ele>178</ele>
        <time>2025-02-26T10:53:11Z</time>
      </trkpt>
      <trkpt lat="48.06575" lon="-3.50071">
        <ele>178</ele>
        <time>2025-02-26T10:53:12Z</time>
      </trkpt>
      <trkpt lat="48.06575" lon="-3.50069">
        <ele>178.1</ele>
        <time>2025-02-26T10:53:13Z</time>
      </trkpt>
      <trkpt lat="48.06575" lon="-3.50067">
        <ele>178.1</ele>
        <time>2025-02-26T10:53:14Z</time>
      </trkpt>
      <trkpt lat="48.06575" lon="-3.50066">
        <ele>178.2</ele>
        <time>2025-02-26T10:53:15Z</time>
      </trkpt>
      <trkpt lat="48.06575" lon="-3.50064">
        <ele>178.2</ele>
        <time>2025-02-26T10:53:16Z</time>
      </trkpt>
      <trkpt lat="48.06574" lon="-3.50062">
        <ele>178.2</ele>
        <time>2025-02-26T10:53:17Z</time>
      </trkpt>
      <trkpt lat="48.06574" lon="-3.5006">
        <ele>178.3</ele>
        <time>2025-02-26T10:53:18Z</time>
      </trkpt>
      <trkpt lat="48.06574" lon="-3.50058">
        <ele>178.3</ele>
        <time>2025-02-26T10:53:19Z</time>
      </trkpt>
      <trkpt lat="48.06574" lon="-3.50056">
        <ele>178.3</ele>
        <time>2025-02-26T10:53:20Z</time>
      </trkpt>
      <trkpt lat="48.06574" lon="-3.50055">
        <ele>178.4</ele>
        <time>2025-02-26T10:53:21Z</time>
      </trkpt>
      <trkpt lat="48.06574" lon="-3.50053">
        <ele>178.4</ele>
        <time>2025-02-26T10:53:22Z</time>
      </trkpt>
      <trkpt lat="48.06574" lon="-3.50051">
        <ele>178.4</ele>
        <time>2025-02-26T10:53:23Z</time>
      </trkpt>
      <trkpt lat="48.06574" lon="-3.5005">
        <ele>178.4</ele>
        <time>2025-02-26T10:53:24Z</time>
      </trkpt>
      <trkpt lat="48.06574" lon="-3.50048">
        <ele>178.4</ele>
        <time>2025-02-26T10:53:25Z</time>
      </trkpt>
      <trkpt lat="48.06574" lon="-3.50046">
        <ele>178.5</ele>
        <time>2025-02-26T10:53:26Z</time>
      </trkpt>
      <trkpt lat="48.06574" lon="-3.50044">
        <ele>178.5</ele>
        <time>2025-02-26T10:53:27Z</time>
      </trkpt>
      <trkpt lat="48.06574" lon="-3.50042">
        <ele>178.5</ele>
        <time>2025-02-26T10:53:28Z</time>
      </trkpt>
      <trkpt lat="48.06575" lon="-3.5004">
        <ele>178.5</ele>
        <time>2025-02-26T10:53:29Z</time>
      </trkpt>
      <trkpt lat="48.06574" lon="-3.50038">
        <ele>178.6</ele>
        <time>2025-02-26T10:53:30Z</time>
      </trkpt>
      <trkpt lat="48.06574" lon="-3.50037">
        <ele>178.6</ele>
        <time>2025-02-26T10:53:31Z</time>
      </trkpt>
      <trkpt lat="48.06575" lon="-3.50035">
        <ele>178.6</ele>
        <time>2025-02-26T10:53:32Z</time>
      </trkpt>
      <trkpt lat="48.06575" lon="-3.50036">
        <ele>178.6</ele>
        <time>2025-02-26T10:53:33Z</time>
      </trkpt>
      <trkpt lat="48.06577" lon="-3.50034">
        <ele>178.7</ele>
        <time>2025-02-26T10:53:34Z</time>
      </trkpt>
      <trkpt lat="48.06578" lon="-3.50033">
        <ele>178.7</ele>
        <time>2025-02-26T10:53:35Z</time>
      </trkpt>
      <trkpt lat="48.06577" lon="-3.50032">
        <ele>178.7</ele>
        <time>2025-02-26T10:53:36Z</time>
      </trkpt>
      <trkpt lat="48.06577" lon="-3.5003">
        <ele>178.8</ele>
        <time>2025-02-26T10:53:37Z</time>
      </trkpt>
      <trkpt lat="48.06577" lon="-3.50028">
        <ele>178.8</ele>
        <time>2025-02-26T10:53:38Z</time>
      </trkpt>
      <trkpt lat="48.06577" lon="-3.50027">
        <ele>178.8</ele>
        <time>2025-02-26T10:53:39Z</time>
      </trkpt>
      <trkpt lat="48.06576" lon="-3.50025">
        <ele>178.7</ele>
        <time>2025-02-26T10:53:40Z</time>
      </trkpt>
      <trkpt lat="48.06576" lon="-3.50023">
        <ele>178.7</ele>
        <time>2025-02-26T10:53:41Z</time>
      </trkpt>
      <trkpt lat="48.06576" lon="-3.50021">
        <ele>178.7</ele>
        <time>2025-02-26T10:53:42Z</time>
      </trkpt>
      <trkpt lat="48.06576" lon="-3.5002">
        <ele>178.7</ele>
        <time>2025-02-26T10:53:43Z</time>
      </trkpt>
      <trkpt lat="48.06575" lon="-3.50018">
        <ele>178.7</ele>
        <time>2025-02-26T10:53:44Z</time>
      </trkpt>
      <trkpt lat="48.06575" lon="-3.50016">
        <ele>178.7</ele>
        <time>2025-02-26T10:53:45Z</time>
      </trkpt>
      <trkpt lat="48.06575" lon="-3.50015">
        <ele>178.7</ele>
        <time>2025-02-26T10:53:46Z</time>
      </trkpt>
      <trkpt lat="48.06575" lon="-3.50013">
        <ele>178.7</ele>
        <time>2025-02-26T10:53:47Z</time>
      </trkpt>
      <trkpt lat="48.06575" lon="-3.50011">
        <ele>178.7</ele>
        <time>2025-02-26T10:53:48Z</time>
      </trkpt>
      <trkpt lat="48.06574" lon="-3.5001">
        <ele>178.7</ele>
        <time>2025-02-26T10:53:49Z</time>
      </trkpt>
      <trkpt lat="48.06574" lon="-3.50008">
        <ele>178.7</ele>
        <time>2025-02-26T10:53:50Z</time>
      </trkpt>
      <trkpt lat="48.06574" lon="-3.50006">
        <ele>178.7</ele>
        <time>2025-02-26T10:53:51Z</time>
      </trkpt>
      <trkpt lat="48.06574" lon="-3.50004">
        <ele>178.6</ele>
        <time>2025-02-26T10:53:52Z</time>
      </trkpt>
      <trkpt lat="48.06574" lon="-3.50002">
        <ele>178.7</ele>
        <time>2025-02-26T10:53:53Z</time>
      </trkpt>
      <trkpt lat="48.06574" lon="-3.5">
        <ele>178.7</ele>
        <time>2025-02-26T10:53:54Z</time>
      </trkpt>
      <trkpt lat="48.06574" lon="-3.49999">
        <ele>178.6</ele>
        <time>2025-02-26T10:53:55Z</time>
      </trkpt>
      <trkpt lat="48.06574" lon="-3.49997">
        <ele>178.6</ele>
        <time>2025-02-26T10:53:56Z</time>
      </trkpt>
      <trkpt lat="48.06574" lon="-3.49996">
        <ele>178.6</ele>
        <time>2025-02-26T10:53:57Z</time>
      </trkpt>
      <trkpt lat="48.06575" lon="-3.49994">
        <ele>178.6</ele>
        <time>2025-02-26T10:53:58Z</time>
      </trkpt>
      <trkpt lat="48.06575" lon="-3.49992">
        <ele>178.6</ele>
        <time>2025-02-26T10:53:59Z</time>
      </trkpt>
      <trkpt lat="48.06574" lon="-3.4999">
        <ele>178.6</ele>
        <time>2025-02-26T10:54:00Z</time>
      </trkpt>
      <trkpt lat="48.06574" lon="-3.49988">
        <ele>178.5</ele>
        <time>2025-02-26T10:54:01Z</time>
      </trkpt>
      <trkpt lat="48.06574" lon="-3.49986">
        <ele>178.5</ele>
        <time>2025-02-26T10:54:02Z</time>
      </trkpt>
      <trkpt lat="48.06574" lon="-3.49984">
        <ele>178.5</ele>
        <time>2025-02-26T10:54:03Z</time>
      </trkpt>
      <trkpt lat="48.06574" lon="-3.49982">
        <ele>178.4</ele>
        <time>2025-02-26T10:54:04Z</time>
      </trkpt>
      <trkpt lat="48.06574" lon="-3.4998">
        <ele>178.4</ele>
        <time>2025-02-26T10:54:05Z</time>
      </trkpt>
      <trkpt lat="48.06574" lon="-3.49979">
        <ele>178.4</ele>
        <time>2025-02-26T10:54:06Z</time>
      </trkpt>
      <trkpt lat="48.06574" lon="-3.49977">
        <ele>178.4</ele>
        <time>2025-02-26T10:54:07Z</time>
      </trkpt>
      <trkpt lat="48.06574" lon="-3.49975">
        <ele>178.4</ele>
        <time>2025-02-26T10:54:08Z</time>
      </trkpt>
      <trkpt lat="48.06574" lon="-3.49973">
        <ele>178.4</ele>
        <time>2025-02-26T10:54:09Z</time>
      </trkpt>
      <trkpt lat="48.06574" lon="-3.49972">
        <ele>178.3</ele>
        <time>2025-02-26T10:54:10Z</time>
      </trkpt>
      <trkpt lat="48.06574" lon="-3.4997">
        <ele>178.3</ele>
        <time>2025-02-26T10:54:11Z</time>
      </trkpt>
      <trkpt lat="48.06574" lon="-3.49968">
        <ele>178.2</ele>
        <time>2025-02-26T10:54:12Z</time>
      </trkpt>
      <trkpt lat="48.06574" lon="-3.49966">
        <ele>178.2</ele>
        <time>2025-02-26T10:54:13Z</time>
      </trkpt>
      <trkpt lat="48.06574" lon="-3.49965">
        <ele>178.1</ele>
        <time>2025-02-26T10:54:14Z</time>
      </trkpt>
      <trkpt lat="48.06574" lon="-3.49963">
        <ele>178.1</ele>
        <time>2025-02-26T10:54:15Z</time>
      </trkpt>
      <trkpt lat="48.06574" lon="-3.49961">
        <ele>178</ele>
        <time>2025-02-26T10:54:16Z</time>
      </trkpt>
      <trkpt lat="48.06574" lon="-3.49959">
        <ele>178</ele>
        <time>2025-02-26T10:54:17Z</time>
      </trkpt>
      <trkpt lat="48.06574" lon="-3.49957">
        <ele>177.9</ele>
        <time>2025-02-26T10:54:18Z</time>
      </trkpt>
      <trkpt lat="48.06574" lon="-3.49955">
        <ele>177.9</ele>
        <time>2025-02-26T10:54:19Z</time>
      </trkpt>
      <trkpt lat="48.06573" lon="-3.49953">
        <ele>177.8</ele>
        <time>2025-02-26T10:54:20Z</time>
      </trkpt>
      <trkpt lat="48.06573" lon="-3.49951">
        <ele>177.8</ele>
        <time>2025-02-26T10:54:21Z</time>
      </trkpt>
      <trkpt lat="48.06573" lon="-3.49949">
        <ele>177.7</ele>
        <time>2025-02-26T10:54:22Z</time>
      </trkpt>
      <trkpt lat="48.06573" lon="-3.49947">
        <ele>177.7</ele>
        <time>2025-02-26T10:54:23Z</time>
      </trkpt>
      <trkpt lat="48.06573" lon="-3.49945">
        <ele>177.6</ele>
        <time>2025-02-26T10:54:24Z</time>
      </trkpt>
      <trkpt lat="48.06574" lon="-3.49943">
        <ele>177.6</ele>
        <time>2025-02-26T10:54:25Z</time>
      </trkpt>
      <trkpt lat="48.06573" lon="-3.49941">
        <ele>177.5</ele>
        <time>2025-02-26T10:54:26Z</time>
      </trkpt>
      <trkpt lat="48.06573" lon="-3.49939">
        <ele>177.5</ele>
        <time>2025-02-26T10:54:27Z</time>
      </trkpt>
      <trkpt lat="48.06573" lon="-3.49937">
        <ele>177.4</ele>
        <time>2025-02-26T10:54:28Z</time>
      </trkpt>
      <trkpt lat="48.06574" lon="-3.49936">
        <ele>177.3</ele>
        <time>2025-02-26T10:54:29Z</time>
      </trkpt>
      <trkpt lat="48.06573" lon="-3.49934">
        <ele>177.2</ele>
        <time>2025-02-26T10:54:30Z</time>
      </trkpt>
      <trkpt lat="48.06573" lon="-3.49932">
        <ele>177.2</ele>
        <time>2025-02-26T10:54:31Z</time>
      </trkpt>
      <trkpt lat="48.06573" lon="-3.4993">
        <ele>177.1</ele>
        <time>2025-02-26T10:54:32Z</time>
      </trkpt>
      <trkpt lat="48.06573" lon="-3.49928">
        <ele>177</ele>
        <time>2025-02-26T10:54:33Z</time>
      </trkpt>
      <trkpt lat="48.06574" lon="-3.49926">
        <ele>177</ele>
        <time>2025-02-26T10:54:34Z</time>
      </trkpt>
      <trkpt lat="48.06574" lon="-3.49925">
        <ele>176.9</ele>
        <time>2025-02-26T10:54:35Z</time>
      </trkpt>
      <trkpt lat="48.06573" lon="-3.49923">
        <ele>176.9</ele>
        <time>2025-02-26T10:54:36Z</time>
      </trkpt>
      <trkpt lat="48.06574" lon="-3.49921">
        <ele>176.8</ele>
        <time>2025-02-26T10:54:37Z</time>
      </trkpt>
      <trkpt lat="48.06573" lon="-3.49919">
        <ele>176.7</ele>
        <time>2025-02-26T10:54:38Z</time>
      </trkpt>
      <trkpt lat="48.06573" lon="-3.49917">
        <ele>176.6</ele>
        <time>2025-02-26T10:54:39Z</time>
      </trkpt>
      <trkpt lat="48.06572" lon="-3.49915">
        <ele>176.5</ele>
        <time>2025-02-26T10:54:40Z</time>
      </trkpt>
      <trkpt lat="48.06572" lon="-3.49912">
        <ele>176.4</ele>
        <time>2025-02-26T10:54:41Z</time>
      </trkpt>
      <trkpt lat="48.06572" lon="-3.49911">
        <ele>176.4</ele>
        <time>2025-02-26T10:54:42Z</time>
      </trkpt>
      <trkpt lat="48.06572" lon="-3.49909">
        <ele>176.3</ele>
        <time>2025-02-26T10:54:43Z</time>
      </trkpt>
      <trkpt lat="48.06572" lon="-3.49907">
        <ele>176.3</ele>
        <time>2025-02-26T10:54:44Z</time>
      </trkpt>
      <trkpt lat="48.06572" lon="-3.49905">
        <ele>176.2</ele>
        <time>2025-02-26T10:54:45Z</time>
      </trkpt>
      <trkpt lat="48.06572" lon="-3.49903">
        <ele>176.1</ele>
        <time>2025-02-26T10:54:46Z</time>
      </trkpt>
      <trkpt lat="48.06572" lon="-3.49902">
        <ele>176</ele>
        <time>2025-02-26T10:54:47Z</time>
      </trkpt>
      <trkpt lat="48.06572" lon="-3.499">
        <ele>176</ele>
        <time>2025-02-26T10:54:48Z</time>
      </trkpt>
      <trkpt lat="48.06573" lon="-3.49899">
        <ele>176</ele>
        <time>2025-02-26T10:54:49Z</time>
      </trkpt>
      <trkpt lat="48.06573" lon="-3.49897">
        <ele>175.9</ele>
        <time>2025-02-26T10:54:50Z</time>
      </trkpt>
      <trkpt lat="48.06573" lon="-3.49895">
        <ele>175.8</ele>
        <time>2025-02-26T10:54:51Z</time>
      </trkpt>
      <trkpt lat="48.06573" lon="-3.49894">
        <ele>175.8</ele>
        <time>2025-02-26T10:54:52Z</time>
      </trkpt>
      <trkpt lat="48.06573" lon="-3.49892">
        <ele>175.7</ele>
        <time>2025-02-26T10:54:53Z</time>
      </trkpt>
      <trkpt lat="48.06573" lon="-3.49891">
        <ele>175.7</ele>
        <time>2025-02-26T10:54:54Z</time>
      </trkpt>
      <trkpt lat="48.06572" lon="-3.4989">
        <ele>175.6</ele>
        <time>2025-02-26T10:54:55Z</time>
      </trkpt>
      <trkpt lat="48.06572" lon="-3.4989">
        <ele>175.6</ele>
        <time>2025-02-26T10:54:56Z</time>
      </trkpt>
      <trkpt lat="48.06572" lon="-3.4989">
        <ele>175.6</ele>
        <time>2025-02-26T10:54:57Z</time>
      </trkpt>
      <trkpt lat="48.06572" lon="-3.4989">
        <ele>175.6</ele>
        <time>2025-02-26T10:54:58Z</time>
      </trkpt>
      <trkpt lat="48.06572" lon="-3.4989">
        <ele>175.6</ele>
        <time>2025-02-26T10:54:59Z</time>
      </trkpt>
      <trkpt lat="48.06572" lon="-3.4989">
        <ele>175.6</ele>
        <time>2025-02-26T10:55:00Z</time>
      </trkpt>
      <trkpt lat="48.06572" lon="-3.4989">
        <ele>175.6</ele>
        <time>2025-02-26T10:55:01Z</time>
      </trkpt>
      <trkpt lat="48.06572" lon="-3.4989">
        <ele>175.6</ele>
        <time>2025-02-26T10:55:02Z</time>
      </trkpt>
      <trkpt lat="48.06571" lon="-3.4989">
        <ele>175.6</ele>
        <time>2025-02-26T10:55:03Z</time>
      </trkpt>
      <trkpt lat="48.06571" lon="-3.4989">
        <ele>175.6</ele>
        <time>2025-02-26T10:55:04Z</time>
      </trkpt>
      <trkpt lat="48.06571" lon="-3.49888">
        <ele>175.5</ele>
        <time>2025-02-26T10:55:05Z</time>
      </trkpt>
      <trkpt lat="48.06571" lon="-3.49886">
        <ele>175.5</ele>
        <time>2025-02-26T10:55:06Z</time>
      </trkpt>
      <trkpt lat="48.06571" lon="-3.49884">
        <ele>175.5</ele>
        <time>2025-02-26T10:55:07Z</time>
      </trkpt>
      <trkpt lat="48.06571" lon="-3.49883">
        <ele>175.4</ele>
        <time>2025-02-26T10:55:08Z</time>
      </trkpt>
      <trkpt lat="48.06571" lon="-3.49881">
        <ele>175.4</ele>
        <time>2025-02-26T10:55:09Z</time>
      </trkpt>
      <trkpt lat="48.0657" lon="-3.4988">
        <ele>175.4</ele>
        <time>2025-02-26T10:55:10Z</time>
      </trkpt>
      <trkpt lat="48.0657" lon="-3.49878">
        <ele>175.3</ele>
        <time>2025-02-26T10:55:11Z</time>
      </trkpt>
      <trkpt lat="48.0657" lon="-3.49876">
        <ele>175.3</ele>
        <time>2025-02-26T10:55:12Z</time>
      </trkpt>
      <trkpt lat="48.06569" lon="-3.49875">
        <ele>175.2</ele>
        <time>2025-02-26T10:55:13Z</time>
      </trkpt>
      <trkpt lat="48.06569" lon="-3.49873">
        <ele>175.2</ele>
        <time>2025-02-26T10:55:14Z</time>
      </trkpt>
      <trkpt lat="48.06569" lon="-3.49872">
        <ele>175.1</ele>
        <time>2025-02-26T10:55:15Z</time>
      </trkpt>
      <trkpt lat="48.06568" lon="-3.4987">
        <ele>175.1</ele>
        <time>2025-02-26T10:55:16Z</time>
      </trkpt>
      <trkpt lat="48.06568" lon="-3.49868">
        <ele>175</ele>
        <time>2025-02-26T10:55:17Z</time>
      </trkpt>
      <trkpt lat="48.06568" lon="-3.49867">
        <ele>175</ele>
        <time>2025-02-26T10:55:18Z</time>
      </trkpt>
      <trkpt lat="48.06567" lon="-3.49865">
        <ele>174.9</ele>
        <time>2025-02-26T10:55:19Z</time>
      </trkpt>
      <trkpt lat="48.06567" lon="-3.49864">
        <ele>174.9</ele>
        <time>2025-02-26T10:55:20Z</time>
      </trkpt>
      <trkpt lat="48.06567" lon="-3.49862">
        <ele>174.8</ele>
        <time>2025-02-26T10:55:21Z</time>
      </trkpt>
      <trkpt lat="48.06567" lon="-3.4986">
        <ele>174.8</ele>
        <time>2025-02-26T10:55:22Z</time>
      </trkpt>
      <trkpt lat="48.06566" lon="-3.49859">
        <ele>174.8</ele>
        <time>2025-02-26T10:55:23Z</time>
      </trkpt>
      <trkpt lat="48.06566" lon="-3.49857">
        <ele>174.7</ele>
        <time>2025-02-26T10:55:24Z</time>
      </trkpt>
      <trkpt lat="48.06565" lon="-3.49855">
        <ele>174.7</ele>
        <time>2025-02-26T10:55:25Z</time>
      </trkpt>
      <trkpt lat="48.06565" lon="-3.49854">
        <ele>174.7</ele>
        <time>2025-02-26T10:55:26Z</time>
      </trkpt>
      <trkpt lat="48.06565" lon="-3.49852">
        <ele>174.7</ele>
        <time>2025-02-26T10:55:27Z</time>
      </trkpt>
      <trkpt lat="48.06565" lon="-3.49851">
        <ele>174.6</ele>
        <time>2025-02-26T10:55:28Z</time>
      </trkpt>
      <trkpt lat="48.06564" lon="-3.49849">
        <ele>174.6</ele>
        <time>2025-02-26T10:55:29Z</time>
      </trkpt>
      <trkpt lat="48.06564" lon="-3.49847">
        <ele>174.6</ele>
        <time>2025-02-26T10:55:30Z</time>
      </trkpt>
      <trkpt lat="48.06564" lon="-3.49846">
        <ele>174.6</ele>
        <time>2025-02-26T10:55:31Z</time>
      </trkpt>
      <trkpt lat="48.06564" lon="-3.49844">
        <ele>174.6</ele>
        <time>2025-02-26T10:55:32Z</time>
      </trkpt>
      <trkpt lat="48.06563" lon="-3.49842">
        <ele>174.5</ele>
        <time>2025-02-26T10:55:33Z</time>
      </trkpt>
      <trkpt lat="48.06563" lon="-3.4984">
        <ele>174.5</ele>
        <time>2025-02-26T10:55:34Z</time>
      </trkpt>
      <trkpt lat="48.06563" lon="-3.49838">
        <ele>174.5</ele>
        <time>2025-02-26T10:55:35Z</time>
      </trkpt>
      <trkpt lat="48.06562" lon="-3.49836">
        <ele>174.5</ele>
        <time>2025-02-26T10:55:36Z</time>
      </trkpt>
      <trkpt lat="48.06562" lon="-3.49835">
        <ele>174.5</ele>
        <time>2025-02-26T10:55:37Z</time>
      </trkpt>
      <trkpt lat="48.06562" lon="-3.49833">
        <ele>174.4</ele>
        <time>2025-02-26T10:55:38Z</time>
      </trkpt>
      <trkpt lat="48.06561" lon="-3.49832">
        <ele>174.4</ele>
        <time>2025-02-26T10:55:39Z</time>
      </trkpt>
      <trkpt lat="48.06561" lon="-3.4983">
        <ele>174.4</ele>
        <time>2025-02-26T10:55:40Z</time>
      </trkpt>
      <trkpt lat="48.06561" lon="-3.49828">
        <ele>174.4</ele>
        <time>2025-02-26T10:55:41Z</time>
      </trkpt>
      <trkpt lat="48.06561" lon="-3.49826">
        <ele>174.4</ele>
        <time>2025-02-26T10:55:42Z</time>
      </trkpt>
      <trkpt lat="48.06561" lon="-3.49825">
        <ele>174.4</ele>
        <time>2025-02-26T10:55:43Z</time>
      </trkpt>
      <trkpt lat="48.0656" lon="-3.49823">
        <ele>174.3</ele>
        <time>2025-02-26T10:55:44Z</time>
      </trkpt>
      <trkpt lat="48.06559" lon="-3.49821">
        <ele>174.3</ele>
        <time>2025-02-26T10:55:45Z</time>
      </trkpt>
      <trkpt lat="48.06559" lon="-3.4982">
        <ele>174.3</ele>
        <time>2025-02-26T10:55:46Z</time>
      </trkpt>
      <trkpt lat="48.06559" lon="-3.49818">
        <ele>174.3</ele>
        <time>2025-02-26T10:55:47Z</time>
      </trkpt>
      <trkpt lat="48.06559" lon="-3.49816">
        <ele>174.2</ele>
        <time>2025-02-26T10:55:48Z</time>
      </trkpt>
      <trkpt lat="48.06559" lon="-3.49814">
        <ele>174.2</ele>
        <time>2025-02-26T10:55:49Z</time>
      </trkpt>
      <trkpt lat="48.06558" lon="-3.49812">
        <ele>174.2</ele>
        <time>2025-02-26T10:55:50Z</time>
      </trkpt>
      <trkpt lat="48.06558" lon="-3.49811">
        <ele>174.2</ele>
        <time>2025-02-26T10:55:51Z</time>
      </trkpt>
      <trkpt lat="48.06558" lon="-3.49809">
        <ele>174.1</ele>
        <time>2025-02-26T10:55:52Z</time>
      </trkpt>
      <trkpt lat="48.06558" lon="-3.49807">
        <ele>174.1</ele>
        <time>2025-02-26T10:55:53Z</time>
      </trkpt>
      <trkpt lat="48.06558" lon="-3.49805">
        <ele>174.2</ele>
        <time>2025-02-26T10:55:54Z</time>
      </trkpt>
      <trkpt lat="48.06558" lon="-3.49803">
        <ele>174.1</ele>
        <time>2025-02-26T10:55:55Z</time>
      </trkpt>
      <trkpt lat="48.06557" lon="-3.49801">
        <ele>174.1</ele>
        <time>2025-02-26T10:55:56Z</time>
      </trkpt>
      <trkpt lat="48.06556" lon="-3.498">
        <ele>174</ele>
        <time>2025-02-26T10:55:57Z</time>
      </trkpt>
      <trkpt lat="48.06556" lon="-3.49798">
        <ele>174</ele>
        <time>2025-02-26T10:55:58Z</time>
      </trkpt>
      <trkpt lat="48.06556" lon="-3.49796">
        <ele>174</ele>
        <time>2025-02-26T10:55:59Z</time>
      </trkpt>
      <trkpt lat="48.06556" lon="-3.49794">
        <ele>174</ele>
        <time>2025-02-26T10:56:00Z</time>
      </trkpt>
      <trkpt lat="48.06555" lon="-3.49793">
        <ele>174</ele>
        <time>2025-02-26T10:56:01Z</time>
      </trkpt>
      <trkpt lat="48.06555" lon="-3.49791">
        <ele>174</ele>
        <time>2025-02-26T10:56:02Z</time>
      </trkpt>
      <trkpt lat="48.06555" lon="-3.49789">
        <ele>173.9</ele>
        <time>2025-02-26T10:56:03Z</time>
      </trkpt>
      <trkpt lat="48.06554" lon="-3.49788">
        <ele>173.9</ele>
        <time>2025-02-26T10:56:04Z</time>
      </trkpt>
      <trkpt lat="48.06554" lon="-3.49786">
        <ele>173.9</ele>
        <time>2025-02-26T10:56:05Z</time>
      </trkpt>
      <trkpt lat="48.06554" lon="-3.49785">
        <ele>173.9</ele>
        <time>2025-02-26T10:56:06Z</time>
      </trkpt>
      <trkpt lat="48.06553" lon="-3.49783">
        <ele>173.8</ele>
        <time>2025-02-26T10:56:07Z</time>
      </trkpt>
      <trkpt lat="48.06553" lon="-3.49782">
        <ele>173.8</ele>
        <time>2025-02-26T10:56:08Z</time>
      </trkpt>
      <trkpt lat="48.06553" lon="-3.4978">
        <ele>173.8</ele>
        <time>2025-02-26T10:56:09Z</time>
      </trkpt>
      <trkpt lat="48.06553" lon="-3.49778">
        <ele>173.8</ele>
        <time>2025-02-26T10:56:10Z</time>
      </trkpt>
      <trkpt lat="48.06553" lon="-3.49777">
        <ele>173.8</ele>
        <time>2025-02-26T10:56:11Z</time>
      </trkpt>
      <trkpt lat="48.06552" lon="-3.49775">
        <ele>173.7</ele>
        <time>2025-02-26T10:56:12Z</time>
      </trkpt>
      <trkpt lat="48.06552" lon="-3.49773">
        <ele>173.7</ele>
        <time>2025-02-26T10:56:13Z</time>
      </trkpt>
      <trkpt lat="48.06551" lon="-3.49771">
        <ele>173.7</ele>
        <time>2025-02-26T10:56:14Z</time>
      </trkpt>
      <trkpt lat="48.06551" lon="-3.4977">
        <ele>173.7</ele>
        <time>2025-02-26T10:56:15Z</time>
      </trkpt>
      <trkpt lat="48.0655" lon="-3.49768">
        <ele>173.6</ele>
        <time>2025-02-26T10:56:16Z</time>
      </trkpt>
      <trkpt lat="48.0655" lon="-3.49767">
        <ele>173.6</ele>
        <time>2025-02-26T10:56:17Z</time>
      </trkpt>
      <trkpt lat="48.0655" lon="-3.49765">
        <ele>173.6</ele>
        <time>2025-02-26T10:56:18Z</time>
      </trkpt>
      <trkpt lat="48.0655" lon="-3.49763">
        <ele>173.6</ele>
        <time>2025-02-26T10:56:19Z</time>
      </trkpt>
      <trkpt lat="48.0655" lon="-3.49762">
        <ele>173.6</ele>
        <time>2025-02-26T10:56:20Z</time>
      </trkpt>
      <trkpt lat="48.06549" lon="-3.4976">
        <ele>173.5</ele>
        <time>2025-02-26T10:56:21Z</time>
      </trkpt>
      <trkpt lat="48.06548" lon="-3.49759">
        <ele>173.4</ele>
        <time>2025-02-26T10:56:22Z</time>
      </trkpt>
      <trkpt lat="48.06547" lon="-3.49757">
        <ele>173.4</ele>
        <time>2025-02-26T10:56:23Z</time>
      </trkpt>
      <trkpt lat="48.06547" lon="-3.49755">
        <ele>173.4</ele>
        <time>2025-02-26T10:56:24Z</time>
      </trkpt>
      <trkpt lat="48.06547" lon="-3.49753">
        <ele>173.4</ele>
        <time>2025-02-26T10:56:25Z</time>
      </trkpt>
      <trkpt lat="48.06547" lon="-3.49752">
        <ele>173.4</ele>
        <time>2025-02-26T10:56:26Z</time>
      </trkpt>
      <trkpt lat="48.06547" lon="-3.4975">
        <ele>173.4</ele>
        <time>2025-02-26T10:56:27Z</time>
      </trkpt>
      <trkpt lat="48.06547" lon="-3.49749">
        <ele>173.4</ele>
        <time>2025-02-26T10:56:28Z</time>
      </trkpt>
      <trkpt lat="48.06547" lon="-3.49747">
        <ele>173.4</ele>
        <time>2025-02-26T10:56:29Z</time>
      </trkpt>
      <trkpt lat="48.06547" lon="-3.49745">
        <ele>173.4</ele>
        <time>2025-02-26T10:56:30Z</time>
      </trkpt>
      <trkpt lat="48.06546" lon="-3.49743">
        <ele>173.4</ele>
        <time>2025-02-26T10:56:31Z</time>
      </trkpt>
      <trkpt lat="48.06546" lon="-3.49742">
        <ele>173.4</ele>
        <time>2025-02-26T10:56:32Z</time>
      </trkpt>
      <trkpt lat="48.06546" lon="-3.4974">
        <ele>173.4</ele>
        <time>2025-02-26T10:56:33Z</time>
      </trkpt>
      <trkpt lat="48.06546" lon="-3.49738">
        <ele>173.4</ele>
        <time>2025-02-26T10:56:34Z</time>
      </trkpt>
      <trkpt lat="48.06546" lon="-3.49737">
        <ele>173.5</ele>
        <time>2025-02-26T10:56:35Z</time>
      </trkpt>
      <trkpt lat="48.06545" lon="-3.49735">
        <ele>173.5</ele>
        <time>2025-02-26T10:56:36Z</time>
      </trkpt>
      <trkpt lat="48.06545" lon="-3.49733">
        <ele>173.5</ele>
        <time>2025-02-26T10:56:37Z</time>
      </trkpt>
      <trkpt lat="48.06546" lon="-3.49731">
        <ele>173.5</ele>
        <time>2025-02-26T10:56:38Z</time>
      </trkpt>
      <trkpt lat="48.06545" lon="-3.49729">
        <ele>173.5</ele>
        <time>2025-02-26T10:56:39Z</time>
      </trkpt>
      <trkpt lat="48.06545" lon="-3.49727">
        <ele>173.5</ele>
        <time>2025-02-26T10:56:40Z</time>
      </trkpt>
      <trkpt lat="48.06545" lon="-3.49725">
        <ele>173.6</ele>
        <time>2025-02-26T10:56:41Z</time>
      </trkpt>
      <trkpt lat="48.06545" lon="-3.49724">
        <ele>173.6</ele>
        <time>2025-02-26T10:56:42Z</time>
      </trkpt>
      <trkpt lat="48.06545" lon="-3.49722">
        <ele>173.6</ele>
        <time>2025-02-26T10:56:43Z</time>
      </trkpt>
      <trkpt lat="48.06544" lon="-3.4972">
        <ele>173.6</ele>
        <time>2025-02-26T10:56:44Z</time>
      </trkpt>
      <trkpt lat="48.06544" lon="-3.49719">
        <ele>173.6</ele>
        <time>2025-02-26T10:56:45Z</time>
      </trkpt>
      <trkpt lat="48.06544" lon="-3.49717">
        <ele>173.6</ele>
        <time>2025-02-26T10:56:46Z</time>
      </trkpt>
      <trkpt lat="48.06544" lon="-3.49715">
        <ele>173.6</ele>
        <time>2025-02-26T10:56:47Z</time>
      </trkpt>
      <trkpt lat="48.06543" lon="-3.49714">
        <ele>173.6</ele>
        <time>2025-02-26T10:56:48Z</time>
      </trkpt>
      <trkpt lat="48.06543" lon="-3.49712">
        <ele>173.6</ele>
        <time>2025-02-26T10:56:49Z</time>
      </trkpt>
      <trkpt lat="48.06544" lon="-3.4971">
        <ele>173.6</ele>
        <time>2025-02-26T10:56:50Z</time>
      </trkpt>
      <trkpt lat="48.06544" lon="-3.49708">
        <ele>173.6</ele>
        <time>2025-02-26T10:56:51Z</time>
      </trkpt>
      <trkpt lat="48.06544" lon="-3.49706">
        <ele>173.6</ele>
        <time>2025-02-26T10:56:52Z</time>
      </trkpt>
      <trkpt lat="48.06544" lon="-3.49705">
        <ele>173.6</ele>
        <time>2025-02-26T10:56:53Z</time>
      </trkpt>
      <trkpt lat="48.06544" lon="-3.49703">
        <ele>173.6</ele>
        <time>2025-02-26T10:56:54Z</time>
      </trkpt>
      <trkpt lat="48.06544" lon="-3.49701">
        <ele>173.6</ele>
        <time>2025-02-26T10:56:55Z</time>
      </trkpt>
      <trkpt lat="48.06544" lon="-3.49699">
        <ele>173.6</ele>
        <time>2025-02-26T10:56:56Z</time>
      </trkpt>
      <trkpt lat="48.06543" lon="-3.49698">
        <ele>173.6</ele>
        <time>2025-02-26T10:56:57Z</time>
      </trkpt>
      <trkpt lat="48.06544" lon="-3.49696">
        <ele>173.6</ele>
        <time>2025-02-26T10:56:58Z</time>
      </trkpt>
      <trkpt lat="48.06543" lon="-3.49694">
        <ele>173.5</ele>
        <time>2025-02-26T10:56:59Z</time>
      </trkpt>
      <trkpt lat="48.06543" lon="-3.49692">
        <ele>173.6</ele>
        <time>2025-02-26T10:57:00Z</time>
      </trkpt>
      <trkpt lat="48.06543" lon="-3.4969">
        <ele>173.5</ele>
        <time>2025-02-26T10:57:01Z</time>
      </trkpt>
      <trkpt lat="48.06543" lon="-3.49688">
        <ele>173.5</ele>
        <time>2025-02-26T10:57:02Z</time>
      </trkpt>
      <trkpt lat="48.06542" lon="-3.49687">
        <ele>173.5</ele>
        <time>2025-02-26T10:57:03Z</time>
      </trkpt>
      <trkpt lat="48.06542" lon="-3.49685">
        <ele>173.5</ele>
        <time>2025-02-26T10:57:04Z</time>
      </trkpt>
      <trkpt lat="48.06542" lon="-3.49683">
        <ele>173.5</ele>
        <time>2025-02-26T10:57:05Z</time>
      </trkpt>
      <trkpt lat="48.06542" lon="-3.49681">
        <ele>173.5</ele>
        <time>2025-02-26T10:57:06Z</time>
      </trkpt>
      <trkpt lat="48.06541" lon="-3.4968">
        <ele>173.5</ele>
        <time>2025-02-26T10:57:07Z</time>
      </trkpt>
      <trkpt lat="48.0654" lon="-3.49678">
        <ele>173.5</ele>
        <time>2025-02-26T10:57:08Z</time>
      </trkpt>
      <trkpt lat="48.0654" lon="-3.49677">
        <ele>173.4</ele>
        <time>2025-02-26T10:57:09Z</time>
      </trkpt>
      <trkpt lat="48.06539" lon="-3.49675">
        <ele>173.4</ele>
        <time>2025-02-26T10:57:10Z</time>
      </trkpt>
      <trkpt lat="48.06539" lon="-3.49673">
        <ele>173.4</ele>
        <time>2025-02-26T10:57:11Z</time>
      </trkpt>
      <trkpt lat="48.06539" lon="-3.49671">
        <ele>173.4</ele>
        <time>2025-02-26T10:57:12Z</time>
      </trkpt>
      <trkpt lat="48.06539" lon="-3.49669">
        <ele>173.4</ele>
        <time>2025-02-26T10:57:13Z</time>
      </trkpt>
      <trkpt lat="48.06539" lon="-3.49668">
        <ele>173.4</ele>
        <time>2025-02-26T10:57:14Z</time>
      </trkpt>
      <trkpt lat="48.06539" lon="-3.49666">
        <ele>173.4</ele>
        <time>2025-02-26T10:57:15Z</time>
      </trkpt>
      <trkpt lat="48.06539" lon="-3.49664">
        <ele>173.4</ele>
        <time>2025-02-26T10:57:16Z</time>
      </trkpt>
      <trkpt lat="48.06538" lon="-3.49662">
        <ele>173.4</ele>
        <time>2025-02-26T10:57:17Z</time>
      </trkpt>
      <trkpt lat="48.06538" lon="-3.49661">
        <ele>173.4</ele>
        <time>2025-02-26T10:57:18Z</time>
      </trkpt>
      <trkpt lat="48.06538" lon="-3.49659">
        <ele>173.4</ele>
        <time>2025-02-26T10:57:19Z</time>
      </trkpt>
      <trkpt lat="48.06537" lon="-3.49657">
        <ele>173.3</ele>
        <time>2025-02-26T10:57:20Z</time>
      </trkpt>
      <trkpt lat="48.06536" lon="-3.49656">
        <ele>173.3</ele>
        <time>2025-02-26T10:57:21Z</time>
      </trkpt>
      <trkpt lat="48.06536" lon="-3.49654">
        <ele>173.3</ele>
        <time>2025-02-26T10:57:22Z</time>
      </trkpt>
      <trkpt lat="48.06536" lon="-3.49653">
        <ele>173.3</ele>
        <time>2025-02-26T10:57:23Z</time>
      </trkpt>
      <trkpt lat="48.06535" lon="-3.49651">
        <ele>173.3</ele>
        <time>2025-02-26T10:57:24Z</time>
      </trkpt>
      <trkpt lat="48.06535" lon="-3.4965">
        <ele>173.3</ele>
        <time>2025-02-26T10:57:25Z</time>
      </trkpt>
      <trkpt lat="48.06535" lon="-3.49648">
        <ele>173.3</ele>
        <time>2025-02-26T10:57:26Z</time>
      </trkpt>
      <trkpt lat="48.06535" lon="-3.49646">
        <ele>173.3</ele>
        <time>2025-02-26T10:57:27Z</time>
      </trkpt>
      <trkpt lat="48.06535" lon="-3.49645">
        <ele>173.2</ele>
        <time>2025-02-26T10:57:28Z</time>
      </trkpt>
      <trkpt lat="48.06534" lon="-3.49643">
        <ele>173.2</ele>
        <time>2025-02-26T10:57:29Z</time>
      </trkpt>
      <trkpt lat="48.06534" lon="-3.49641">
        <ele>173.2</ele>
        <time>2025-02-26T10:57:30Z</time>
      </trkpt>
      <trkpt lat="48.06534" lon="-3.49639">
        <ele>173.2</ele>
        <time>2025-02-26T10:57:31Z</time>
      </trkpt>
      <trkpt lat="48.06534" lon="-3.49637">
        <ele>173.2</ele>
        <time>2025-02-26T10:57:32Z</time>
      </trkpt>
      <trkpt lat="48.06533" lon="-3.49635">
        <ele>173.1</ele>
        <time>2025-02-26T10:57:33Z</time>
      </trkpt>
      <trkpt lat="48.06533" lon="-3.49633">
        <ele>173</ele>
        <time>2025-02-26T10:57:34Z</time>
      </trkpt>
      <trkpt lat="48.06533" lon="-3.49631">
        <ele>173</ele>
        <time>2025-02-26T10:57:35Z</time>
      </trkpt>
      <trkpt lat="48.06533" lon="-3.4963">
        <ele>172.9</ele>
        <time>2025-02-26T10:57:36Z</time>
      </trkpt>
      <trkpt lat="48.06532" lon="-3.49629">
        <ele>172.9</ele>
        <time>2025-02-26T10:57:37Z</time>
      </trkpt>
      <trkpt lat="48.06532" lon="-3.49627">
        <ele>172.8</ele>
        <time>2025-02-26T10:57:38Z</time>
      </trkpt>
      <trkpt lat="48.06532" lon="-3.49625">
        <ele>172.7</ele>
        <time>2025-02-26T10:57:39Z</time>
      </trkpt>
      <trkpt lat="48.06531" lon="-3.49623">
        <ele>172.6</ele>
        <time>2025-02-26T10:57:40Z</time>
      </trkpt>
      <trkpt lat="48.06531" lon="-3.49621">
        <ele>172.5</ele>
        <time>2025-02-26T10:57:41Z</time>
      </trkpt>
      <trkpt lat="48.06531" lon="-3.49619">
        <ele>172.5</ele>
        <time>2025-02-26T10:57:42Z</time>
      </trkpt>
      <trkpt lat="48.06531" lon="-3.49617">
        <ele>172.4</ele>
        <time>2025-02-26T10:57:43Z</time>
      </trkpt>
      <trkpt lat="48.06531" lon="-3.49616">
        <ele>172.4</ele>
        <time>2025-02-26T10:57:44Z</time>
      </trkpt>
      <trkpt lat="48.0653" lon="-3.49614">
        <ele>172.3</ele>
        <time>2025-02-26T10:57:45Z</time>
      </trkpt>
      <trkpt lat="48.0653" lon="-3.49613">
        <ele>172.2</ele>
        <time>2025-02-26T10:57:46Z</time>
      </trkpt>
      <trkpt lat="48.06529" lon="-3.49611">
        <ele>172.1</ele>
        <time>2025-02-26T10:57:47Z</time>
      </trkpt>
      <trkpt lat="48.06529" lon="-3.49609">
        <ele>172.1</ele>
        <time>2025-02-26T10:57:48Z</time>
      </trkpt>
      <trkpt lat="48.06529" lon="-3.49607">
        <ele>172.1</ele>
        <time>2025-02-26T10:57:49Z</time>
      </trkpt>
      <trkpt lat="48.06529" lon="-3.49606">
        <ele>172.1</ele>
        <time>2025-02-26T10:57:50Z</time>
      </trkpt>
      <trkpt lat="48.06529" lon="-3.49604">
        <ele>172.1</ele>
        <time>2025-02-26T10:57:51Z</time>
      </trkpt>
      <trkpt lat="48.06529" lon="-3.49602">
        <ele>172.1</ele>
        <time>2025-02-26T10:57:52Z</time>
      </trkpt>
      <trkpt lat="48.06529" lon="-3.496">
        <ele>172.1</ele>
        <time>2025-02-26T10:57:53Z</time>
      </trkpt>
      <trkpt lat="48.06528" lon="-3.49599">
        <ele>172</ele>
        <time>2025-02-26T10:57:54Z</time>
      </trkpt>
      <trkpt lat="48.06528" lon="-3.49598">
        <ele>172</ele>
        <time>2025-02-26T10:57:55Z</time>
      </trkpt>
      <trkpt lat="48.06528" lon="-3.49596">
        <ele>172</ele>
        <time>2025-02-26T10:57:56Z</time>
      </trkpt>
      <trkpt lat="48.06528" lon="-3.49594">
        <ele>172</ele>
        <time>2025-02-26T10:57:57Z</time>
      </trkpt>
      <trkpt lat="48.06528" lon="-3.49592">
        <ele>172</ele>
        <time>2025-02-26T10:57:58Z</time>
      </trkpt>
      <trkpt lat="48.06528" lon="-3.49591">
        <ele>172</ele>
        <time>2025-02-26T10:57:59Z</time>
      </trkpt>
      <trkpt lat="48.06528" lon="-3.49589">
        <ele>172</ele>
        <time>2025-02-26T10:58:00Z</time>
      </trkpt>
      <trkpt lat="48.06528" lon="-3.49587">
        <ele>172</ele>
        <time>2025-02-26T10:58:01Z</time>
      </trkpt>
      <trkpt lat="48.06528" lon="-3.49586">
        <ele>172</ele>
        <time>2025-02-26T10:58:02Z</time>
      </trkpt>
      <trkpt lat="48.06527" lon="-3.49584">
        <ele>172</ele>
        <time>2025-02-26T10:58:03Z</time>
      </trkpt>
      <trkpt lat="48.06527" lon="-3.49582">
        <ele>171.9</ele>
        <time>2025-02-26T10:58:04Z</time>
      </trkpt>
      <trkpt lat="48.06527" lon="-3.49581">
        <ele>171.9</ele>
        <time>2025-02-26T10:58:05Z</time>
      </trkpt>
      <trkpt lat="48.06526" lon="-3.49579">
        <ele>171.9</ele>
        <time>2025-02-26T10:58:06Z</time>
      </trkpt>
      <trkpt lat="48.06525" lon="-3.49577">
        <ele>171.8</ele>
        <time>2025-02-26T10:58:07Z</time>
      </trkpt>
      <trkpt lat="48.06526" lon="-3.49575">
        <ele>171.8</ele>
        <time>2025-02-26T10:58:08Z</time>
      </trkpt>
      <trkpt lat="48.06525" lon="-3.49574">
        <ele>171.8</ele>
        <time>2025-02-26T10:58:09Z</time>
      </trkpt>
      <trkpt lat="48.06525" lon="-3.49572">
        <ele>171.8</ele>
        <time>2025-02-26T10:58:10Z</time>
      </trkpt>
      <trkpt lat="48.06525" lon="-3.49571">
        <ele>171.8</ele>
        <time>2025-02-26T10:58:11Z</time>
      </trkpt>
      <trkpt lat="48.06526" lon="-3.49569">
        <ele>171.8</ele>
        <time>2025-02-26T10:58:12Z</time>
      </trkpt>
      <trkpt lat="48.06526" lon="-3.49567">
        <ele>171.9</ele>
        <time>2025-02-26T10:58:13Z</time>
      </trkpt>
      <trkpt lat="48.06526" lon="-3.49565">
        <ele>171.9</ele>
        <time>2025-02-26T10:58:14Z</time>
      </trkpt>
      <trkpt lat="48.06527" lon="-3.49564">
        <ele>171.9</ele>
        <time>2025-02-26T10:58:15Z</time>
      </trkpt>
      <trkpt lat="48.06527" lon="-3.49562">
        <ele>171.9</ele>
        <time>2025-02-26T10:58:16Z</time>
      </trkpt>
      <trkpt lat="48.06527" lon="-3.49561">
        <ele>171.9</ele>
        <time>2025-02-26T10:58:17Z</time>
      </trkpt>
      <trkpt lat="48.06527" lon="-3.49559">
        <ele>171.9</ele>
        <time>2025-02-26T10:58:18Z</time>
      </trkpt>
      <trkpt lat="48.06526" lon="-3.49557">
        <ele>171.9</ele>
        <time>2025-02-26T10:58:19Z</time>
      </trkpt>
      <trkpt lat="48.06527" lon="-3.49556">
        <ele>171.9</ele>
        <time>2025-02-26T10:58:20Z</time>
      </trkpt>
      <trkpt lat="48.06527" lon="-3.49554">
        <ele>171.9</ele>
        <time>2025-02-26T10:58:21Z</time>
      </trkpt>
      <trkpt lat="48.06527" lon="-3.49552">
        <ele>172</ele>
        <time>2025-02-26T10:58:22Z</time>
      </trkpt>
      <trkpt lat="48.06527" lon="-3.49551">
        <ele>172</ele>
        <time>2025-02-26T10:58:23Z</time>
      </trkpt>
      <trkpt lat="48.06528" lon="-3.49549">
        <ele>172</ele>
        <time>2025-02-26T10:58:24Z</time>
      </trkpt>
      <trkpt lat="48.06527" lon="-3.49547">
        <ele>172</ele>
        <time>2025-02-26T10:58:25Z</time>
      </trkpt>
      <trkpt lat="48.06528" lon="-3.49545">
        <ele>172</ele>
        <time>2025-02-26T10:58:26Z</time>
      </trkpt>
      <trkpt lat="48.06528" lon="-3.49544">
        <ele>172</ele>
        <time>2025-02-26T10:58:27Z</time>
      </trkpt>
      <trkpt lat="48.06528" lon="-3.49542">
        <ele>172</ele>
        <time>2025-02-26T10:58:28Z</time>
      </trkpt>
      <trkpt lat="48.06528" lon="-3.4954">
        <ele>172</ele>
        <time>2025-02-26T10:58:29Z</time>
      </trkpt>
      <trkpt lat="48.06528" lon="-3.49538">
        <ele>172</ele>
        <time>2025-02-26T10:58:30Z</time>
      </trkpt>
      <trkpt lat="48.06528" lon="-3.49537">
        <ele>172</ele>
        <time>2025-02-26T10:58:31Z</time>
      </trkpt>
      <trkpt lat="48.06529" lon="-3.49535">
        <ele>172.1</ele>
        <time>2025-02-26T10:58:32Z</time>
      </trkpt>
      <trkpt lat="48.06529" lon="-3.49533">
        <ele>172.1</ele>
        <time>2025-02-26T10:58:33Z</time>
      </trkpt>
      <trkpt lat="48.06529" lon="-3.49532">
        <ele>172.1</ele>
        <time>2025-02-26T10:58:34Z</time>
      </trkpt>
      <trkpt lat="48.06529" lon="-3.4953">
        <ele>172.1</ele>
        <time>2025-02-26T10:58:35Z</time>
      </trkpt>
      <trkpt lat="48.06529" lon="-3.49529">
        <ele>172.1</ele>
        <time>2025-02-26T10:58:36Z</time>
      </trkpt>
      <trkpt lat="48.06529" lon="-3.49527">
        <ele>172.1</ele>
        <time>2025-02-26T10:58:37Z</time>
      </trkpt>
      <trkpt lat="48.06529" lon="-3.49524">
        <ele>172</ele>
        <time>2025-02-26T10:58:38Z</time>
      </trkpt>
      <trkpt lat="48.06529" lon="-3.49522">
        <ele>171.9</ele>
        <time>2025-02-26T10:58:39Z</time>
      </trkpt>
      <trkpt lat="48.06529" lon="-3.4952">
        <ele>171.8</ele>
        <time>2025-02-26T10:58:40Z</time>
      </trkpt>
      <trkpt lat="48.06529" lon="-3.49519">
        <ele>171.7</ele>
        <time>2025-02-26T10:58:41Z</time>
      </trkpt>
      <trkpt lat="48.06529" lon="-3.49517">
        <ele>171.7</ele>
        <time>2025-02-26T10:58:42Z</time>
      </trkpt>
      <trkpt lat="48.0653" lon="-3.49515">
        <ele>171.7</ele>
        <time>2025-02-26T10:58:43Z</time>
      </trkpt>
      <trkpt lat="48.0653" lon="-3.49514">
        <ele>171.6</ele>
        <time>2025-02-26T10:58:44Z</time>
      </trkpt>
      <trkpt lat="48.0653" lon="-3.49512">
        <ele>171.6</ele>
        <time>2025-02-26T10:58:45Z</time>
      </trkpt>
      <trkpt lat="48.0653" lon="-3.4951">
        <ele>171.5</ele>
        <time>2025-02-26T10:58:46Z</time>
      </trkpt>
      <trkpt lat="48.0653" lon="-3.49508">
        <ele>171.5</ele>
        <time>2025-02-26T10:58:47Z</time>
      </trkpt>
      <trkpt lat="48.0653" lon="-3.49506">
        <ele>171.4</ele>
        <time>2025-02-26T10:58:48Z</time>
      </trkpt>
      <trkpt lat="48.0653" lon="-3.49504">
        <ele>171.3</ele>
        <time>2025-02-26T10:58:49Z</time>
      </trkpt>
      <trkpt lat="48.06531" lon="-3.49503">
        <ele>171.3</ele>
        <time>2025-02-26T10:58:50Z</time>
      </trkpt>
      <trkpt lat="48.06531" lon="-3.49501">
        <ele>171.3</ele>
        <time>2025-02-26T10:58:51Z</time>
      </trkpt>
      <trkpt lat="48.06531" lon="-3.49499">
        <ele>171.2</ele>
        <time>2025-02-26T10:58:52Z</time>
      </trkpt>
      <trkpt lat="48.06531" lon="-3.49497">
        <ele>171.1</ele>
        <time>2025-02-26T10:58:53Z</time>
      </trkpt>
      <trkpt lat="48.06531" lon="-3.49495">
        <ele>171.1</ele>
        <time>2025-02-26T10:58:54Z</time>
      </trkpt>
      <trkpt lat="48.06532" lon="-3.49494">
        <ele>171.1</ele>
        <time>2025-02-26T10:58:55Z</time>
      </trkpt>
      <trkpt lat="48.06532" lon="-3.49492">
        <ele>171</ele>
        <time>2025-02-26T10:58:56Z</time>
      </trkpt>
      <trkpt lat="48.06532" lon="-3.4949">
        <ele>171</ele>
        <time>2025-02-26T10:58:57Z</time>
      </trkpt>
      <trkpt lat="48.06532" lon="-3.49488">
        <ele>170.9</ele>
        <time>2025-02-26T10:58:58Z</time>
      </trkpt>
      <trkpt lat="48.06533" lon="-3.49486">
        <ele>170.9</ele>
        <time>2025-02-26T10:58:59Z</time>
      </trkpt>
      <trkpt lat="48.06533" lon="-3.49485">
        <ele>170.8</ele>
        <time>2025-02-26T10:59:00Z</time>
      </trkpt>
      <trkpt lat="48.06533" lon="-3.49483">
        <ele>170.7</ele>
        <time>2025-02-26T10:59:01Z</time>
      </trkpt>
      <trkpt lat="48.06533" lon="-3.49481">
        <ele>170.7</ele>
        <time>2025-02-26T10:59:02Z</time>
      </trkpt>
      <trkpt lat="48.06533" lon="-3.49479">
        <ele>170.6</ele>
        <time>2025-02-26T10:59:03Z</time>
      </trkpt>
      <trkpt lat="48.06533" lon="-3.49477">
        <ele>170.6</ele>
        <time>2025-02-26T10:59:04Z</time>
      </trkpt>
      <trkpt lat="48.06533" lon="-3.49475">
        <ele>170.5</ele>
        <time>2025-02-26T10:59:05Z</time>
      </trkpt>
      <trkpt lat="48.06534" lon="-3.49474">
        <ele>170.5</ele>
        <time>2025-02-26T10:59:06Z</time>
      </trkpt>
      <trkpt lat="48.06533" lon="-3.49472">
        <ele>170.4</ele>
        <time>2025-02-26T10:59:07Z</time>
      </trkpt>
      <trkpt lat="48.06534" lon="-3.4947">
        <ele>170.4</ele>
        <time>2025-02-26T10:59:08Z</time>
      </trkpt>
      <trkpt lat="48.06534" lon="-3.49468">
        <ele>170.3</ele>
        <time>2025-02-26T10:59:09Z</time>
      </trkpt>
      <trkpt lat="48.06534" lon="-3.49467">
        <ele>170.2</ele>
        <time>2025-02-26T10:59:10Z</time>
      </trkpt>
      <trkpt lat="48.06534" lon="-3.49465">
        <ele>170.2</ele>
        <time>2025-02-26T10:59:11Z</time>
      </trkpt>
      <trkpt lat="48.06535" lon="-3.49463">
        <ele>170.2</ele>
        <time>2025-02-26T10:59:12Z</time>
      </trkpt>
      <trkpt lat="48.06535" lon="-3.49461">
        <ele>170.1</ele>
        <time>2025-02-26T10:59:13Z</time>
      </trkpt>
      <trkpt lat="48.06535" lon="-3.49459">
        <ele>170</ele>
        <time>2025-02-26T10:59:14Z</time>
      </trkpt>
      <trkpt lat="48.06535" lon="-3.49457">
        <ele>170</ele>
        <time>2025-02-26T10:59:15Z</time>
      </trkpt>
      <trkpt lat="48.06535" lon="-3.49456">
        <ele>169.9</ele>
        <time>2025-02-26T10:59:16Z</time>
      </trkpt>
      <trkpt lat="48.06536" lon="-3.49454">
        <ele>169.9</ele>
        <time>2025-02-26T10:59:17Z</time>
      </trkpt>
      <trkpt lat="48.06536" lon="-3.49453">
        <ele>169.9</ele>
        <time>2025-02-26T10:59:18Z</time>
      </trkpt>
      <trkpt lat="48.06537" lon="-3.49451">
        <ele>169.9</ele>
        <time>2025-02-26T10:59:19Z</time>
      </trkpt>
      <trkpt lat="48.06537" lon="-3.4945">
        <ele>169.9</ele>
        <time>2025-02-26T10:59:20Z</time>
      </trkpt>
      <trkpt lat="48.06537" lon="-3.49448">
        <ele>169.8</ele>
        <time>2025-02-26T10:59:21Z</time>
      </trkpt>
      <trkpt lat="48.06537" lon="-3.49447">
        <ele>169.8</ele>
        <time>2025-02-26T10:59:22Z</time>
      </trkpt>
      <trkpt lat="48.06537" lon="-3.49445">
        <ele>169.7</ele>
        <time>2025-02-26T10:59:23Z</time>
      </trkpt>
      <trkpt lat="48.06537" lon="-3.49443">
        <ele>169.6</ele>
        <time>2025-02-26T10:59:24Z</time>
      </trkpt>
      <trkpt lat="48.06538" lon="-3.49442">
        <ele>169.6</ele>
        <time>2025-02-26T10:59:25Z</time>
      </trkpt>
      <trkpt lat="48.06538" lon="-3.4944">
        <ele>169.6</ele>
        <time>2025-02-26T10:59:26Z</time>
      </trkpt>
      <trkpt lat="48.06538" lon="-3.49439">
        <ele>169.5</ele>
        <time>2025-02-26T10:59:27Z</time>
      </trkpt>
      <trkpt lat="48.06538" lon="-3.49437">
        <ele>169.5</ele>
        <time>2025-02-26T10:59:28Z</time>
      </trkpt>
      <trkpt lat="48.06539" lon="-3.49436">
        <ele>169.5</ele>
        <time>2025-02-26T10:59:29Z</time>
      </trkpt>
      <trkpt lat="48.06539" lon="-3.49434">
        <ele>169.4</ele>
        <time>2025-02-26T10:59:30Z</time>
      </trkpt>
      <trkpt lat="48.06539" lon="-3.49433">
        <ele>169.4</ele>
        <time>2025-02-26T10:59:31Z</time>
      </trkpt>
      <trkpt lat="48.06539" lon="-3.49431">
        <ele>169.3</ele>
        <time>2025-02-26T10:59:32Z</time>
      </trkpt>
      <trkpt lat="48.06539" lon="-3.49429">
        <ele>169.3</ele>
        <time>2025-02-26T10:59:33Z</time>
      </trkpt>
      <trkpt lat="48.06539" lon="-3.49428">
        <ele>169.2</ele>
        <time>2025-02-26T10:59:34Z</time>
      </trkpt>
      <trkpt lat="48.06539" lon="-3.49426">
        <ele>169.2</ele>
        <time>2025-02-26T10:59:35Z</time>
      </trkpt>
      <trkpt lat="48.06539" lon="-3.49425">
        <ele>169.1</ele>
        <time>2025-02-26T10:59:36Z</time>
      </trkpt>
      <trkpt lat="48.0654" lon="-3.49423">
        <ele>169.1</ele>
        <time>2025-02-26T10:59:37Z</time>
      </trkpt>
      <trkpt lat="48.0654" lon="-3.49421">
        <ele>169</ele>
        <time>2025-02-26T10:59:38Z</time>
      </trkpt>
      <trkpt lat="48.0654" lon="-3.4942">
        <ele>169</ele>
        <time>2025-02-26T10:59:39Z</time>
      </trkpt>
      <trkpt lat="48.0654" lon="-3.49418">
        <ele>168.9</ele>
        <time>2025-02-26T10:59:40Z</time>
      </trkpt>
      <trkpt lat="48.0654" lon="-3.49417">
        <ele>168.9</ele>
        <time>2025-02-26T10:59:41Z</time>
      </trkpt>
      <trkpt lat="48.06541" lon="-3.49415">
        <ele>168.8</ele>
        <time>2025-02-26T10:59:42Z</time>
      </trkpt>
      <trkpt lat="48.06541" lon="-3.49413">
        <ele>168.7</ele>
        <time>2025-02-26T10:59:43Z</time>
      </trkpt>
      <trkpt lat="48.06541" lon="-3.49412">
        <ele>168.6</ele>
        <time>2025-02-26T10:59:44Z</time>
      </trkpt>
      <trkpt lat="48.06541" lon="-3.4941">
        <ele>168.5</ele>
        <time>2025-02-26T10:59:45Z</time>
      </trkpt>
      <trkpt lat="48.06542" lon="-3.49408">
        <ele>168.4</ele>
        <time>2025-02-26T10:59:46Z</time>
      </trkpt>
      <trkpt lat="48.06542" lon="-3.49407">
        <ele>168.3</ele>
        <time>2025-02-26T10:59:47Z</time>
      </trkpt>
      <trkpt lat="48.06542" lon="-3.49405">
        <ele>168.2</ele>
        <time>2025-02-26T10:59:48Z</time>
      </trkpt>
      <trkpt lat="48.06542" lon="-3.49404">
        <ele>168.1</ele>
        <time>2025-02-26T10:59:49Z</time>
      </trkpt>
      <trkpt lat="48.06543" lon="-3.49402">
        <ele>168.1</ele>
        <time>2025-02-26T10:59:50Z</time>
      </trkpt>
      <trkpt lat="48.06544" lon="-3.49401">
        <ele>168</ele>
        <time>2025-02-26T10:59:51Z</time>
      </trkpt>
      <trkpt lat="48.06544" lon="-3.494">
        <ele>168</ele>
        <time>2025-02-26T10:59:52Z</time>
      </trkpt>
      <trkpt lat="48.06544" lon="-3.49398">
        <ele>167.9</ele>
        <time>2025-02-26T10:59:53Z</time>
      </trkpt>
      <trkpt lat="48.06545" lon="-3.49397">
        <ele>167.8</ele>
        <time>2025-02-26T10:59:54Z</time>
      </trkpt>
      <trkpt lat="48.06546" lon="-3.49396">
        <ele>167.8</ele>
        <time>2025-02-26T10:59:55Z</time>
      </trkpt>
      <trkpt lat="48.06546" lon="-3.49394">
        <ele>167.7</ele>
        <time>2025-02-26T10:59:56Z</time>
      </trkpt>
      <trkpt lat="48.06547" lon="-3.49392">
        <ele>167.6</ele>
        <time>2025-02-26T10:59:57Z</time>
      </trkpt>
      <trkpt lat="48.06546" lon="-3.4939">
        <ele>167.4</ele>
        <time>2025-02-26T10:59:58Z</time>
      </trkpt>
      <trkpt lat="48.06546" lon="-3.49389">
        <ele>167.3</ele>
        <time>2025-02-26T10:59:59Z</time>
      </trkpt>
      <trkpt lat="48.06546" lon="-3.49387">
        <ele>167.2</ele>
        <time>2025-02-26T11:00:00Z</time>
      </trkpt>
      <trkpt lat="48.06546" lon="-3.49385">
        <ele>167.2</ele>
        <time>2025-02-26T11:00:01Z</time>
      </trkpt>
      <trkpt lat="48.06547" lon="-3.49383">
        <ele>167.1</ele>
        <time>2025-02-26T11:00:02Z</time>
      </trkpt>
      <trkpt lat="48.06546" lon="-3.49381">
        <ele>167.1</ele>
        <time>2025-02-26T11:00:03Z</time>
      </trkpt>
      <trkpt lat="48.06546" lon="-3.49379">
        <ele>167</ele>
        <time>2025-02-26T11:00:04Z</time>
      </trkpt>
      <trkpt lat="48.06546" lon="-3.49377">
        <ele>166.9</ele>
        <time>2025-02-26T11:00:05Z</time>
      </trkpt>
      <trkpt lat="48.06546" lon="-3.49375">
        <ele>166.9</ele>
        <time>2025-02-26T11:00:06Z</time>
      </trkpt>
      <trkpt lat="48.06547" lon="-3.49374">
        <ele>166.8</ele>
        <time>2025-02-26T11:00:07Z</time>
      </trkpt>
      <trkpt lat="48.06547" lon="-3.49372">
        <ele>166.8</ele>
        <time>2025-02-26T11:00:08Z</time>
      </trkpt>
      <trkpt lat="48.06548" lon="-3.4937">
        <ele>166.7</ele>
        <time>2025-02-26T11:00:09Z</time>
      </trkpt>
      <trkpt lat="48.06548" lon="-3.49368">
        <ele>166.7</ele>
        <time>2025-02-26T11:00:10Z</time>
      </trkpt>
      <trkpt lat="48.06548" lon="-3.49367">
        <ele>166.7</ele>
        <time>2025-02-26T11:00:11Z</time>
      </trkpt>
      <trkpt lat="48.06548" lon="-3.49365">
        <ele>166.6</ele>
        <time>2025-02-26T11:00:12Z</time>
      </trkpt>
      <trkpt lat="48.06548" lon="-3.49363">
        <ele>166.6</ele>
        <time>2025-02-26T11:00:13Z</time>
      </trkpt>
      <trkpt lat="48.06549" lon="-3.49362">
        <ele>166.5</ele>
        <time>2025-02-26T11:00:14Z</time>
      </trkpt>
      <trkpt lat="48.06549" lon="-3.4936">
        <ele>166.5</ele>
        <time>2025-02-26T11:00:15Z</time>
      </trkpt>
      <trkpt lat="48.06549" lon="-3.49358">
        <ele>166.5</ele>
        <time>2025-02-26T11:00:16Z</time>
      </trkpt>
      <trkpt lat="48.06548" lon="-3.49357">
        <ele>166.5</ele>
        <time>2025-02-26T11:00:17Z</time>
      </trkpt>
      <trkpt lat="48.06549" lon="-3.49355">
        <ele>166.5</ele>
        <time>2025-02-26T11:00:18Z</time>
      </trkpt>
      <trkpt lat="48.06549" lon="-3.49353">
        <ele>166.5</ele>
        <time>2025-02-26T11:00:19Z</time>
      </trkpt>
      <trkpt lat="48.06549" lon="-3.49351">
        <ele>166.6</ele>
        <time>2025-02-26T11:00:20Z</time>
      </trkpt>
      <trkpt lat="48.06549" lon="-3.4935">
        <ele>166.5</ele>
        <time>2025-02-26T11:00:21Z</time>
      </trkpt>
      <trkpt lat="48.06549" lon="-3.49348">
        <ele>166.5</ele>
        <time>2025-02-26T11:00:22Z</time>
      </trkpt>
      <trkpt lat="48.06549" lon="-3.49346">
        <ele>166.5</ele>
        <time>2025-02-26T11:00:23Z</time>
      </trkpt>
      <trkpt lat="48.0655" lon="-3.49344">
        <ele>166.6</ele>
        <time>2025-02-26T11:00:24Z</time>
      </trkpt>
      <trkpt lat="48.0655" lon="-3.49343">
        <ele>166.6</ele>
        <time>2025-02-26T11:00:25Z</time>
      </trkpt>
      <trkpt lat="48.0655" lon="-3.49341">
        <ele>166.6</ele>
        <time>2025-02-26T11:00:26Z</time>
      </trkpt>
      <trkpt lat="48.0655" lon="-3.49339">
        <ele>166.6</ele>
        <time>2025-02-26T11:00:27Z</time>
      </trkpt>
      <trkpt lat="48.0655" lon="-3.49337">
        <ele>166.6</ele>
        <time>2025-02-26T11:00:28Z</time>
      </trkpt>
      <trkpt lat="48.06551" lon="-3.49336">
        <ele>166.6</ele>
        <time>2025-02-26T11:00:29Z</time>
      </trkpt>
      <trkpt lat="48.06551" lon="-3.49334">
        <ele>166.7</ele>
        <time>2025-02-26T11:00:30Z</time>
      </trkpt>
      <trkpt lat="48.06551" lon="-3.49332">
        <ele>166.6</ele>
        <time>2025-02-26T11:00:31Z</time>
      </trkpt>
      <trkpt lat="48.06551" lon="-3.4933">
        <ele>166.6</ele>
        <time>2025-02-26T11:00:32Z</time>
      </trkpt>
      <trkpt lat="48.06551" lon="-3.49329">
        <ele>166.5</ele>
        <time>2025-02-26T11:00:33Z</time>
      </trkpt>
      <trkpt lat="48.06551" lon="-3.49327">
        <ele>166.4</ele>
        <time>2025-02-26T11:00:34Z</time>
      </trkpt>
      <trkpt lat="48.06551" lon="-3.49325">
        <ele>166.4</ele>
        <time>2025-02-26T11:00:35Z</time>
      </trkpt>
      <trkpt lat="48.06551" lon="-3.49323">
        <ele>166.3</ele>
        <time>2025-02-26T11:00:36Z</time>
      </trkpt>
      <trkpt lat="48.06551" lon="-3.49321">
        <ele>166.3</ele>
        <time>2025-02-26T11:00:37Z</time>
      </trkpt>
      <trkpt lat="48.06551" lon="-3.4932">
        <ele>166.2</ele>
        <time>2025-02-26T11:00:38Z</time>
      </trkpt>
      <trkpt lat="48.06551" lon="-3.49318">
        <ele>166.1</ele>
        <time>2025-02-26T11:00:39Z</time>
      </trkpt>
      <trkpt lat="48.06551" lon="-3.49316">
        <ele>166.1</ele>
        <time>2025-02-26T11:00:40Z</time>
      </trkpt>
      <trkpt lat="48.06551" lon="-3.49315">
        <ele>166</ele>
        <time>2025-02-26T11:00:41Z</time>
      </trkpt>
      <trkpt lat="48.06551" lon="-3.49313">
        <ele>165.9</ele>
        <time>2025-02-26T11:00:42Z</time>
      </trkpt>
      <trkpt lat="48.06551" lon="-3.49311">
        <ele>165.9</ele>
        <time>2025-02-26T11:00:43Z</time>
      </trkpt>
      <trkpt lat="48.06551" lon="-3.49309">
        <ele>165.8</ele>
        <time>2025-02-26T11:00:44Z</time>
      </trkpt>
      <trkpt lat="48.06551" lon="-3.49308">
        <ele>165.8</ele>
        <time>2025-02-26T11:00:45Z</time>
      </trkpt>
      <trkpt lat="48.06551" lon="-3.49306">
        <ele>165.7</ele>
        <time>2025-02-26T11:00:46Z</time>
      </trkpt>
      <trkpt lat="48.06551" lon="-3.49304">
        <ele>165.6</ele>
        <time>2025-02-26T11:00:47Z</time>
      </trkpt>
      <trkpt lat="48.06551" lon="-3.49304">
        <ele>165.6</ele>
        <time>2025-02-26T11:00:48Z</time>
      </trkpt>
      <trkpt lat="48.06551" lon="-3.49304">
        <ele>165.6</ele>
        <time>2025-02-26T11:00:49Z</time>
      </trkpt>
      <trkpt lat="48.06551" lon="-3.49303">
        <ele>165.6</ele>
        <time>2025-02-26T11:00:50Z</time>
      </trkpt>
      <trkpt lat="48.06552" lon="-3.49301">
        <ele>165.6</ele>
        <time>2025-02-26T11:00:51Z</time>
      </trkpt>
      <trkpt lat="48.06552" lon="-3.49299">
        <ele>165.5</ele>
        <time>2025-02-26T11:00:52Z</time>
      </trkpt>
      <trkpt lat="48.06551" lon="-3.49298">
        <ele>165.5</ele>
        <time>2025-02-26T11:00:53Z</time>
      </trkpt>
      <trkpt lat="48.06552" lon="-3.49296">
        <ele>165.4</ele>
        <time>2025-02-26T11:00:54Z</time>
      </trkpt>
      <trkpt lat="48.06552" lon="-3.49294">
        <ele>165.4</ele>
        <time>2025-02-26T11:00:55Z</time>
      </trkpt>
      <trkpt lat="48.06552" lon="-3.49292">
        <ele>165.3</ele>
        <time>2025-02-26T11:00:56Z</time>
      </trkpt>
      <trkpt lat="48.06552" lon="-3.49291">
        <ele>165.3</ele>
        <time>2025-02-26T11:00:57Z</time>
      </trkpt>
      <trkpt lat="48.06552" lon="-3.49289">
        <ele>165.2</ele>
        <time>2025-02-26T11:00:58Z</time>
      </trkpt>
      <trkpt lat="48.06552" lon="-3.49287">
        <ele>165.2</ele>
        <time>2025-02-26T11:00:59Z</time>
      </trkpt>
      <trkpt lat="48.06552" lon="-3.49286">
        <ele>165.1</ele>
        <time>2025-02-26T11:01:00Z</time>
      </trkpt>
      <trkpt lat="48.06552" lon="-3.49284">
        <ele>165.1</ele>
        <time>2025-02-26T11:01:01Z</time>
      </trkpt>
      <trkpt lat="48.06552" lon="-3.49282">
        <ele>165</ele>
        <time>2025-02-26T11:01:02Z</time>
      </trkpt>
      <trkpt lat="48.06552" lon="-3.49281">
        <ele>165</ele>
        <time>2025-02-26T11:01:03Z</time>
      </trkpt>
      <trkpt lat="48.06552" lon="-3.49279">
        <ele>164.9</ele>
        <time>2025-02-26T11:01:04Z</time>
      </trkpt>
      <trkpt lat="48.06552" lon="-3.49277">
        <ele>164.9</ele>
        <time>2025-02-26T11:01:05Z</time>
      </trkpt>
      <trkpt lat="48.06553" lon="-3.49275">
        <ele>164.9</ele>
        <time>2025-02-26T11:01:06Z</time>
      </trkpt>
      <trkpt lat="48.06553" lon="-3.49274">
        <ele>164.9</ele>
        <time>2025-02-26T11:01:07Z</time>
      </trkpt>
      <trkpt lat="48.06553" lon="-3.49272">
        <ele>164.9</ele>
        <time>2025-02-26T11:01:08Z</time>
      </trkpt>
      <trkpt lat="48.06554" lon="-3.49271">
        <ele>164.9</ele>
        <time>2025-02-26T11:01:09Z</time>
      </trkpt>
      <trkpt lat="48.06554" lon="-3.49269">
        <ele>164.9</ele>
        <time>2025-02-26T11:01:10Z</time>
      </trkpt>
      <trkpt lat="48.06554" lon="-3.49268">
        <ele>164.9</ele>
        <time>2025-02-26T11:01:11Z</time>
      </trkpt>
      <trkpt lat="48.06554" lon="-3.49266">
        <ele>164.9</ele>
        <time>2025-02-26T11:01:12Z</time>
      </trkpt>
      <trkpt lat="48.06554" lon="-3.49265">
        <ele>164.9</ele>
        <time>2025-02-26T11:01:13Z</time>
      </trkpt>
      <trkpt lat="48.06554" lon="-3.49263">
        <ele>165</ele>
        <time>2025-02-26T11:01:14Z</time>
      </trkpt>
      <trkpt lat="48.06554" lon="-3.49261">
        <ele>165</ele>
        <time>2025-02-26T11:01:15Z</time>
      </trkpt>
      <trkpt lat="48.06554" lon="-3.49259">
        <ele>164.9</ele>
        <time>2025-02-26T11:01:16Z</time>
      </trkpt>
      <trkpt lat="48.06555" lon="-3.49257">
        <ele>165</ele>
        <time>2025-02-26T11:01:17Z</time>
      </trkpt>
      <trkpt lat="48.06555" lon="-3.49256">
        <ele>165</ele>
        <time>2025-02-26T11:01:18Z</time>
      </trkpt>
      <trkpt lat="48.06555" lon="-3.49254">
        <ele>165</ele>
        <time>2025-02-26T11:01:19Z</time>
      </trkpt>
      <trkpt lat="48.06555" lon="-3.49252">
        <ele>165</ele>
        <time>2025-02-26T11:01:20Z</time>
      </trkpt>
      <trkpt lat="48.06555" lon="-3.4925">
        <ele>165</ele>
        <time>2025-02-26T11:01:21Z</time>
      </trkpt>
      <trkpt lat="48.06556" lon="-3.49249">
        <ele>165</ele>
        <time>2025-02-26T11:01:22Z</time>
      </trkpt>
      <trkpt lat="48.06556" lon="-3.49247">
        <ele>165</ele>
        <time>2025-02-26T11:01:23Z</time>
      </trkpt>
      <trkpt lat="48.06556" lon="-3.49245">
        <ele>165</ele>
        <time>2025-02-26T11:01:24Z</time>
      </trkpt>
      <trkpt lat="48.06556" lon="-3.49244">
        <ele>165</ele>
        <time>2025-02-26T11:01:25Z</time>
      </trkpt>
      <trkpt lat="48.06556" lon="-3.49242">
        <ele>165</ele>
        <time>2025-02-26T11:01:26Z</time>
      </trkpt>
      <trkpt lat="48.06556" lon="-3.49241">
        <ele>165</ele>
        <time>2025-02-26T11:01:27Z</time>
      </trkpt>
      <trkpt lat="48.06557" lon="-3.49239">
        <ele>165</ele>
        <time>2025-02-26T11:01:28Z</time>
      </trkpt>
      <trkpt lat="48.06556" lon="-3.49237">
        <ele>165</ele>
        <time>2025-02-26T11:01:29Z</time>
      </trkpt>
      <trkpt lat="48.06556" lon="-3.49235">
        <ele>165</ele>
        <time>2025-02-26T11:01:30Z</time>
      </trkpt>
      <trkpt lat="48.06556" lon="-3.49234">
        <ele>165</ele>
        <time>2025-02-26T11:01:31Z</time>
      </trkpt>
      <trkpt lat="48.06556" lon="-3.49232">
        <ele>165</ele>
        <time>2025-02-26T11:01:32Z</time>
      </trkpt>
      <trkpt lat="48.06556" lon="-3.4923">
        <ele>165</ele>
        <time>2025-02-26T11:01:33Z</time>
      </trkpt>
      <trkpt lat="48.06556" lon="-3.49228">
        <ele>165</ele>
        <time>2025-02-26T11:01:34Z</time>
      </trkpt>
      <trkpt lat="48.06556" lon="-3.49226">
        <ele>165</ele>
        <time>2025-02-26T11:01:35Z</time>
      </trkpt>
      <trkpt lat="48.06557" lon="-3.49224">
        <ele>165</ele>
        <time>2025-02-26T11:01:36Z</time>
      </trkpt>
      <trkpt lat="48.06557" lon="-3.49223">
        <ele>165</ele>
        <time>2025-02-26T11:01:37Z</time>
      </trkpt>
      <trkpt lat="48.06557" lon="-3.49221">
        <ele>165</ele>
        <time>2025-02-26T11:01:38Z</time>
      </trkpt>
      <trkpt lat="48.06557" lon="-3.49219">
        <ele>164.9</ele>
        <time>2025-02-26T11:01:39Z</time>
      </trkpt>
      <trkpt lat="48.06557" lon="-3.49218">
        <ele>164.8</ele>
        <time>2025-02-26T11:01:40Z</time>
      </trkpt>
      <trkpt lat="48.06557" lon="-3.49216">
        <ele>164.8</ele>
        <time>2025-02-26T11:01:41Z</time>
      </trkpt>
      <trkpt lat="48.06557" lon="-3.49214">
        <ele>164.7</ele>
        <time>2025-02-26T11:01:42Z</time>
      </trkpt>
      <trkpt lat="48.06558" lon="-3.49212">
        <ele>164.6</ele>
        <time>2025-02-26T11:01:43Z</time>
      </trkpt>
      <trkpt lat="48.06558" lon="-3.4921">
        <ele>164.5</ele>
        <time>2025-02-26T11:01:44Z</time>
      </trkpt>
      <trkpt lat="48.06558" lon="-3.49209">
        <ele>164.5</ele>
        <time>2025-02-26T11:01:45Z</time>
      </trkpt>
      <trkpt lat="48.06558" lon="-3.49207">
        <ele>164.4</ele>
        <time>2025-02-26T11:01:46Z</time>
      </trkpt>
      <trkpt lat="48.06559" lon="-3.49205">
        <ele>164.3</ele>
        <time>2025-02-26T11:01:47Z</time>
      </trkpt>
      <trkpt lat="48.06559" lon="-3.49203">
        <ele>164.2</ele>
        <time>2025-02-26T11:01:48Z</time>
      </trkpt>
      <trkpt lat="48.06559" lon="-3.49201">
        <ele>164.1</ele>
        <time>2025-02-26T11:01:49Z</time>
      </trkpt>
      <trkpt lat="48.06559" lon="-3.49199">
        <ele>164.1</ele>
        <time>2025-02-26T11:01:50Z</time>
      </trkpt>
      <trkpt lat="48.06559" lon="-3.49197">
        <ele>164</ele>
        <time>2025-02-26T11:01:51Z</time>
      </trkpt>
      <trkpt lat="48.0656" lon="-3.49195">
        <ele>163.9</ele>
        <time>2025-02-26T11:01:52Z</time>
      </trkpt>
      <trkpt lat="48.06561" lon="-3.49194">
        <ele>163.8</ele>
        <time>2025-02-26T11:01:53Z</time>
      </trkpt>
      <trkpt lat="48.06562" lon="-3.49192">
        <ele>163.7</ele>
        <time>2025-02-26T11:01:54Z</time>
      </trkpt>
      <trkpt lat="48.06561" lon="-3.4919">
        <ele>163.6</ele>
        <time>2025-02-26T11:01:55Z</time>
      </trkpt>
      <trkpt lat="48.06561" lon="-3.49189">
        <ele>163.6</ele>
        <time>2025-02-26T11:01:56Z</time>
      </trkpt>
      <trkpt lat="48.06561" lon="-3.49187">
        <ele>163.5</ele>
        <time>2025-02-26T11:01:57Z</time>
      </trkpt>
      <trkpt lat="48.06562" lon="-3.49185">
        <ele>163.4</ele>
        <time>2025-02-26T11:01:58Z</time>
      </trkpt>
      <trkpt lat="48.06562" lon="-3.49183">
        <ele>163.4</ele>
        <time>2025-02-26T11:01:59Z</time>
      </trkpt>
      <trkpt lat="48.06562" lon="-3.49181">
        <ele>163.3</ele>
        <time>2025-02-26T11:02:00Z</time>
      </trkpt>
      <trkpt lat="48.06562" lon="-3.4918">
        <ele>163.2</ele>
        <time>2025-02-26T11:02:01Z</time>
      </trkpt>
      <trkpt lat="48.06563" lon="-3.49178">
        <ele>163.1</ele>
        <time>2025-02-26T11:02:02Z</time>
      </trkpt>
      <trkpt lat="48.06563" lon="-3.49176">
        <ele>163.1</ele>
        <time>2025-02-26T11:02:03Z</time>
      </trkpt>
      <trkpt lat="48.06563" lon="-3.49174">
        <ele>163</ele>
        <time>2025-02-26T11:02:04Z</time>
      </trkpt>
      <trkpt lat="48.06563" lon="-3.49173">
        <ele>162.9</ele>
        <time>2025-02-26T11:02:05Z</time>
      </trkpt>
      <trkpt lat="48.06563" lon="-3.49171">
        <ele>162.9</ele>
        <time>2025-02-26T11:02:06Z</time>
      </trkpt>
      <trkpt lat="48.06564" lon="-3.49169">
        <ele>162.8</ele>
        <time>2025-02-26T11:02:07Z</time>
      </trkpt>
      <trkpt lat="48.06564" lon="-3.49167">
        <ele>162.7</ele>
        <time>2025-02-26T11:02:08Z</time>
      </trkpt>
      <trkpt lat="48.06565" lon="-3.49166">
        <ele>162.6</ele>
        <time>2025-02-26T11:02:09Z</time>
      </trkpt>
      <trkpt lat="48.06565" lon="-3.49164">
        <ele>162.5</ele>
        <time>2025-02-26T11:02:10Z</time>
      </trkpt>
      <trkpt lat="48.06565" lon="-3.49162">
        <ele>162.3</ele>
        <time>2025-02-26T11:02:11Z</time>
      </trkpt>
      <trkpt lat="48.06565" lon="-3.49161">
        <ele>162.2</ele>
        <time>2025-02-26T11:02:12Z</time>
      </trkpt>
      <trkpt lat="48.06566" lon="-3.49159">
        <ele>162.1</ele>
        <time>2025-02-26T11:02:13Z</time>
      </trkpt>
      <trkpt lat="48.06566" lon="-3.49158">
        <ele>161.9</ele>
        <time>2025-02-26T11:02:14Z</time>
      </trkpt>
      <trkpt lat="48.06567" lon="-3.49156">
        <ele>161.8</ele>
        <time>2025-02-26T11:02:15Z</time>
      </trkpt>
      <trkpt lat="48.06567" lon="-3.49155">
        <ele>161.7</ele>
        <time>2025-02-26T11:02:16Z</time>
      </trkpt>
      <trkpt lat="48.06568" lon="-3.49153">
        <ele>161.6</ele>
        <time>2025-02-26T11:02:17Z</time>
      </trkpt>
      <trkpt lat="48.06568" lon="-3.49152">
        <ele>161.5</ele>
        <time>2025-02-26T11:02:18Z</time>
      </trkpt>
      <trkpt lat="48.06568" lon="-3.4915">
        <ele>161.3</ele>
        <time>2025-02-26T11:02:19Z</time>
      </trkpt>
      <trkpt lat="48.06568" lon="-3.49148">
        <ele>161.2</ele>
        <time>2025-02-26T11:02:20Z</time>
      </trkpt>
      <trkpt lat="48.06569" lon="-3.49146">
        <ele>161.1</ele>
        <time>2025-02-26T11:02:21Z</time>
      </trkpt>
      <trkpt lat="48.06569" lon="-3.49144">
        <ele>160.9</ele>
        <time>2025-02-26T11:02:22Z</time>
      </trkpt>
      <trkpt lat="48.06569" lon="-3.49143">
        <ele>160.8</ele>
        <time>2025-02-26T11:02:23Z</time>
      </trkpt>
      <trkpt lat="48.06569" lon="-3.4914">
        <ele>160.6</ele>
        <time>2025-02-26T11:02:24Z</time>
      </trkpt>
      <trkpt lat="48.06569" lon="-3.49139">
        <ele>160.5</ele>
        <time>2025-02-26T11:02:25Z</time>
      </trkpt>
      <trkpt lat="48.06569" lon="-3.49137">
        <ele>160.4</ele>
        <time>2025-02-26T11:02:26Z</time>
      </trkpt>
      <trkpt lat="48.0657" lon="-3.49135">
        <ele>160.3</ele>
        <time>2025-02-26T11:02:27Z</time>
      </trkpt>
      <trkpt lat="48.0657" lon="-3.49133">
        <ele>160.1</ele>
        <time>2025-02-26T11:02:28Z</time>
      </trkpt>
      <trkpt lat="48.06571" lon="-3.49131">
        <ele>160</ele>
        <time>2025-02-26T11:02:29Z</time>
      </trkpt>
      <trkpt lat="48.06571" lon="-3.49129">
        <ele>159.9</ele>
        <time>2025-02-26T11:02:30Z</time>
      </trkpt>
      <trkpt lat="48.06572" lon="-3.49127">
        <ele>159.7</ele>
        <time>2025-02-26T11:02:31Z</time>
      </trkpt>
      <trkpt lat="48.06572" lon="-3.49126">
        <ele>159.6</ele>
        <time>2025-02-26T11:02:32Z</time>
      </trkpt>
      <trkpt lat="48.06572" lon="-3.49124">
        <ele>159.6</ele>
        <time>2025-02-26T11:02:33Z</time>
      </trkpt>
      <trkpt lat="48.06572" lon="-3.49122">
        <ele>159.4</ele>
        <time>2025-02-26T11:02:34Z</time>
      </trkpt>
      <trkpt lat="48.06573" lon="-3.49121">
        <ele>159.3</ele>
        <time>2025-02-26T11:02:35Z</time>
      </trkpt>
      <trkpt lat="48.06573" lon="-3.49119">
        <ele>159.2</ele>
        <time>2025-02-26T11:02:36Z</time>
      </trkpt>
      <trkpt lat="48.06573" lon="-3.49118">
        <ele>159.1</ele>
        <time>2025-02-26T11:02:37Z</time>
      </trkpt>
      <trkpt lat="48.06573" lon="-3.49115">
        <ele>159</ele>
        <time>2025-02-26T11:02:38Z</time>
      </trkpt>
      <trkpt lat="48.06573" lon="-3.49114">
        <ele>158.9</ele>
        <time>2025-02-26T11:02:39Z</time>
      </trkpt>
      <trkpt lat="48.06573" lon="-3.49113">
        <ele>158.8</ele>
        <time>2025-02-26T11:02:40Z</time>
      </trkpt>
      <trkpt lat="48.06573" lon="-3.49112">
        <ele>158.8</ele>
        <time>2025-02-26T11:02:41Z</time>
      </trkpt>
      <trkpt lat="48.06573" lon="-3.4911">
        <ele>158.7</ele>
        <time>2025-02-26T11:02:42Z</time>
      </trkpt>
      <trkpt lat="48.06574" lon="-3.49108">
        <ele>158.5</ele>
        <time>2025-02-26T11:02:43Z</time>
      </trkpt>
      <trkpt lat="48.06574" lon="-3.49108">
        <ele>158.5</ele>
        <time>2025-02-26T11:02:44Z</time>
      </trkpt>
      <trkpt lat="48.06574" lon="-3.49108">
        <ele>158.5</ele>
        <time>2025-02-26T11:02:45Z</time>
      </trkpt>
      <trkpt lat="48.06574" lon="-3.49108">
        <ele>158.5</ele>
        <time>2025-02-26T11:02:46Z</time>
      </trkpt>
      <trkpt lat="48.06574" lon="-3.49108">
        <ele>158.5</ele>
        <time>2025-02-26T11:02:47Z</time>
      </trkpt>
      <trkpt lat="48.06574" lon="-3.49106">
        <ele>158.4</ele>
        <time>2025-02-26T11:02:48Z</time>
      </trkpt>
      <trkpt lat="48.06575" lon="-3.49104">
        <ele>158.3</ele>
        <time>2025-02-26T11:02:49Z</time>
      </trkpt>
      <trkpt lat="48.06576" lon="-3.49102">
        <ele>158.1</ele>
        <time>2025-02-26T11:02:50Z</time>
      </trkpt>
      <trkpt lat="48.06576" lon="-3.491">
        <ele>158</ele>
        <time>2025-02-26T11:02:51Z</time>
      </trkpt>
      <trkpt lat="48.06577" lon="-3.49098">
        <ele>157.9</ele>
        <time>2025-02-26T11:02:52Z</time>
      </trkpt>
      <trkpt lat="48.06577" lon="-3.49096">
        <ele>157.8</ele>
        <time>2025-02-26T11:02:53Z</time>
      </trkpt>
      <trkpt lat="48.06578" lon="-3.49094">
        <ele>157.7</ele>
        <time>2025-02-26T11:02:54Z</time>
      </trkpt>
      <trkpt lat="48.06578" lon="-3.49093">
        <ele>157.6</ele>
        <time>2025-02-26T11:02:55Z</time>
      </trkpt>
      <trkpt lat="48.06579" lon="-3.49091">
        <ele>157.5</ele>
        <time>2025-02-26T11:02:56Z</time>
      </trkpt>
      <trkpt lat="48.0658" lon="-3.4909">
        <ele>157.4</ele>
        <time>2025-02-26T11:02:57Z</time>
      </trkpt>
      <trkpt lat="48.06579" lon="-3.49087">
        <ele>157.3</ele>
        <time>2025-02-26T11:02:58Z</time>
      </trkpt>
      <trkpt lat="48.06579" lon="-3.49085">
        <ele>157.2</ele>
        <time>2025-02-26T11:02:59Z</time>
      </trkpt>
      <trkpt lat="48.06579" lon="-3.49083">
        <ele>157.1</ele>
        <time>2025-02-26T11:03:00Z</time>
      </trkpt>
      <trkpt lat="48.06579" lon="-3.49081">
        <ele>157</ele>
        <time>2025-02-26T11:03:01Z</time>
      </trkpt>
      <trkpt lat="48.06579" lon="-3.49079">
        <ele>156.8</ele>
        <time>2025-02-26T11:03:02Z</time>
      </trkpt>
      <trkpt lat="48.0658" lon="-3.49077">
        <ele>156.7</ele>
        <time>2025-02-26T11:03:03Z</time>
      </trkpt>
      <trkpt lat="48.06579" lon="-3.49075">
        <ele>156.6</ele>
        <time>2025-02-26T11:03:04Z</time>
      </trkpt>
      <trkpt lat="48.06579" lon="-3.49074">
        <ele>156.5</ele>
        <time>2025-02-26T11:03:05Z</time>
      </trkpt>
      <trkpt lat="48.06579" lon="-3.49072">
        <ele>156.3</ele>
        <time>2025-02-26T11:03:06Z</time>
      </trkpt>
      <trkpt lat="48.06579" lon="-3.4907">
        <ele>156.2</ele>
        <time>2025-02-26T11:03:07Z</time>
      </trkpt>
      <trkpt lat="48.0658" lon="-3.49069">
        <ele>156.1</ele>
        <time>2025-02-26T11:03:08Z</time>
      </trkpt>
      <trkpt lat="48.0658" lon="-3.49068">
        <ele>156</ele>
        <time>2025-02-26T11:03:09Z</time>
      </trkpt>
      <trkpt lat="48.06581" lon="-3.49067">
        <ele>155.9</ele>
        <time>2025-02-26T11:03:10Z</time>
      </trkpt>
      <trkpt lat="48.06582" lon="-3.49065">
        <ele>155.7</ele>
        <time>2025-02-26T11:03:11Z</time>
      </trkpt>
      <trkpt lat="48.06582" lon="-3.49063">
        <ele>155.6</ele>
        <time>2025-02-26T11:03:12Z</time>
      </trkpt>
      <trkpt lat="48.06582" lon="-3.49061">
        <ele>155.4</ele>
        <time>2025-02-26T11:03:13Z</time>
      </trkpt>
      <trkpt lat="48.06582" lon="-3.49059">
        <ele>155.3</ele>
        <time>2025-02-26T11:03:14Z</time>
      </trkpt>
      <trkpt lat="48.06583" lon="-3.49058">
        <ele>155.2</ele>
        <time>2025-02-26T11:03:15Z</time>
      </trkpt>
      <trkpt lat="48.06584" lon="-3.49056">
        <ele>155</ele>
        <time>2025-02-26T11:03:16Z</time>
      </trkpt>
      <trkpt lat="48.06585" lon="-3.49054">
        <ele>154.8</ele>
        <time>2025-02-26T11:03:17Z</time>
      </trkpt>
      <trkpt lat="48.06585" lon="-3.49053">
        <ele>154.7</ele>
        <time>2025-02-26T11:03:18Z</time>
      </trkpt>
      <trkpt lat="48.06585" lon="-3.49051">
        <ele>154.5</ele>
        <time>2025-02-26T11:03:19Z</time>
      </trkpt>
      <trkpt lat="48.06586" lon="-3.49049">
        <ele>154.4</ele>
        <time>2025-02-26T11:03:20Z</time>
      </trkpt>
      <trkpt lat="48.06586" lon="-3.49047">
        <ele>154.2</ele>
        <time>2025-02-26T11:03:21Z</time>
      </trkpt>
      <trkpt lat="48.06586" lon="-3.49046">
        <ele>154.1</ele>
        <time>2025-02-26T11:03:22Z</time>
      </trkpt>
      <trkpt lat="48.06587" lon="-3.49044">
        <ele>154</ele>
        <time>2025-02-26T11:03:23Z</time>
      </trkpt>
      <trkpt lat="48.06586" lon="-3.49043">
        <ele>153.9</ele>
        <time>2025-02-26T11:03:24Z</time>
      </trkpt>
      <trkpt lat="48.06587" lon="-3.49041">
        <ele>153.8</ele>
        <time>2025-02-26T11:03:25Z</time>
      </trkpt>
      <trkpt lat="48.06587" lon="-3.49039">
        <ele>153.6</ele>
        <time>2025-02-26T11:03:26Z</time>
      </trkpt>
      <trkpt lat="48.06587" lon="-3.49037">
        <ele>153.5</ele>
        <time>2025-02-26T11:03:27Z</time>
      </trkpt>
      <trkpt lat="48.06587" lon="-3.49035">
        <ele>153.3</ele>
        <time>2025-02-26T11:03:28Z</time>
      </trkpt>
      <trkpt lat="48.06588" lon="-3.49032">
        <ele>153.2</ele>
        <time>2025-02-26T11:03:29Z</time>
      </trkpt>
      <trkpt lat="48.06588" lon="-3.4903">
        <ele>153</ele>
        <time>2025-02-26T11:03:30Z</time>
      </trkpt>
      <trkpt lat="48.06588" lon="-3.49028">
        <ele>152.9</ele>
        <time>2025-02-26T11:03:31Z</time>
      </trkpt>
      <trkpt lat="48.06589" lon="-3.49027">
        <ele>152.8</ele>
        <time>2025-02-26T11:03:32Z</time>
      </trkpt>
      <trkpt lat="48.06589" lon="-3.49025">
        <ele>152.7</ele>
        <time>2025-02-26T11:03:33Z</time>
      </trkpt>
      <trkpt lat="48.06589" lon="-3.49023">
        <ele>152.6</ele>
        <time>2025-02-26T11:03:34Z</time>
      </trkpt>
      <trkpt lat="48.0659" lon="-3.49021">
        <ele>152.5</ele>
        <time>2025-02-26T11:03:35Z</time>
      </trkpt>
      <trkpt lat="48.0659" lon="-3.4902">
        <ele>152.5</ele>
        <time>2025-02-26T11:03:36Z</time>
      </trkpt>
      <trkpt lat="48.06591" lon="-3.49019">
        <ele>152.4</ele>
        <time>2025-02-26T11:03:37Z</time>
      </trkpt>
      <trkpt lat="48.06591" lon="-3.49017">
        <ele>152.3</ele>
        <time>2025-02-26T11:03:38Z</time>
      </trkpt>
      <trkpt lat="48.06591" lon="-3.49016">
        <ele>152.3</ele>
        <time>2025-02-26T11:03:39Z</time>
      </trkpt>
      <trkpt lat="48.06592" lon="-3.49014">
        <ele>152.2</ele>
        <time>2025-02-26T11:03:40Z</time>
      </trkpt>
      <trkpt lat="48.06592" lon="-3.49013">
        <ele>152.1</ele>
        <time>2025-02-26T11:03:41Z</time>
      </trkpt>
      <trkpt lat="48.06593" lon="-3.49011">
        <ele>152</ele>
        <time>2025-02-26T11:03:42Z</time>
      </trkpt>
      <trkpt lat="48.06593" lon="-3.49008">
        <ele>152</ele>
        <time>2025-02-26T11:03:43Z</time>
      </trkpt>
      <trkpt lat="48.06593" lon="-3.49006">
        <ele>151.9</ele>
        <time>2025-02-26T11:03:44Z</time>
      </trkpt>
      <trkpt lat="48.06593" lon="-3.49004">
        <ele>151.8</ele>
        <time>2025-02-26T11:03:45Z</time>
      </trkpt>
      <trkpt lat="48.06593" lon="-3.49002">
        <ele>151.7</ele>
        <time>2025-02-26T11:03:46Z</time>
      </trkpt>
      <trkpt lat="48.06594" lon="-3.49">
        <ele>151.6</ele>
        <time>2025-02-26T11:03:47Z</time>
      </trkpt>
      <trkpt lat="48.06595" lon="-3.48998">
        <ele>151.5</ele>
        <time>2025-02-26T11:03:48Z</time>
      </trkpt>
      <trkpt lat="48.06595" lon="-3.48996">
        <ele>151.4</ele>
        <time>2025-02-26T11:03:49Z</time>
      </trkpt>
      <trkpt lat="48.06596" lon="-3.48994">
        <ele>151.3</ele>
        <time>2025-02-26T11:03:50Z</time>
      </trkpt>
      <trkpt lat="48.06596" lon="-3.48992">
        <ele>151.3</ele>
        <time>2025-02-26T11:03:51Z</time>
      </trkpt>
      <trkpt lat="48.06596" lon="-3.4899">
        <ele>151.2</ele>
        <time>2025-02-26T11:03:52Z</time>
      </trkpt>
      <trkpt lat="48.06596" lon="-3.48988">
        <ele>151.1</ele>
        <time>2025-02-26T11:03:53Z</time>
      </trkpt>
      <trkpt lat="48.06596" lon="-3.48985">
        <ele>151</ele>
        <time>2025-02-26T11:03:54Z</time>
      </trkpt>
      <trkpt lat="48.06596" lon="-3.48984">
        <ele>150.9</ele>
        <time>2025-02-26T11:03:55Z</time>
      </trkpt>
      <trkpt lat="48.06597" lon="-3.48982">
        <ele>150.9</ele>
        <time>2025-02-26T11:03:56Z</time>
      </trkpt>
      <trkpt lat="48.06597" lon="-3.4898">
        <ele>150.8</ele>
        <time>2025-02-26T11:03:57Z</time>
      </trkpt>
      <trkpt lat="48.06597" lon="-3.48978">
        <ele>150.7</ele>
        <time>2025-02-26T11:03:58Z</time>
      </trkpt>
      <trkpt lat="48.06598" lon="-3.48977">
        <ele>150.6</ele>
        <time>2025-02-26T11:03:59Z</time>
      </trkpt>
      <trkpt lat="48.06598" lon="-3.48975">
        <ele>150.6</ele>
        <time>2025-02-26T11:04:00Z</time>
      </trkpt>
      <trkpt lat="48.06598" lon="-3.48973">
        <ele>150.5</ele>
        <time>2025-02-26T11:04:01Z</time>
      </trkpt>
      <trkpt lat="48.06598" lon="-3.48972">
        <ele>150.4</ele>
        <time>2025-02-26T11:04:02Z</time>
      </trkpt>
      <trkpt lat="48.06598" lon="-3.4897">
        <ele>150.3</ele>
        <time>2025-02-26T11:04:03Z</time>
      </trkpt>
      <trkpt lat="48.06599" lon="-3.48968">
        <ele>150.2</ele>
        <time>2025-02-26T11:04:04Z</time>
      </trkpt>
      <trkpt lat="48.06599" lon="-3.48966">
        <ele>150.1</ele>
        <time>2025-02-26T11:04:05Z</time>
      </trkpt>
      <trkpt lat="48.06598" lon="-3.48964">
        <ele>150</ele>
        <time>2025-02-26T11:04:06Z</time>
      </trkpt>
      <trkpt lat="48.06598" lon="-3.48962">
        <ele>149.9</ele>
        <time>2025-02-26T11:04:07Z</time>
      </trkpt>
      <trkpt lat="48.06598" lon="-3.4896">
        <ele>149.8</ele>
        <time>2025-02-26T11:04:08Z</time>
      </trkpt>
      <trkpt lat="48.06597" lon="-3.48959">
        <ele>149.8</ele>
        <time>2025-02-26T11:04:09Z</time>
      </trkpt>
      <trkpt lat="48.06597" lon="-3.48957">
        <ele>149.7</ele>
        <time>2025-02-26T11:04:10Z</time>
      </trkpt>
      <trkpt lat="48.06597" lon="-3.48955">
        <ele>149.6</ele>
        <time>2025-02-26T11:04:11Z</time>
      </trkpt>
      <trkpt lat="48.06597" lon="-3.48953">
        <ele>149.5</ele>
        <time>2025-02-26T11:04:12Z</time>
      </trkpt>
      <trkpt lat="48.06597" lon="-3.48951">
        <ele>149.4</ele>
        <time>2025-02-26T11:04:13Z</time>
      </trkpt>
      <trkpt lat="48.06596" lon="-3.4895">
        <ele>149.4</ele>
        <time>2025-02-26T11:04:14Z</time>
      </trkpt>
      <trkpt lat="48.06596" lon="-3.48948">
        <ele>149.3</ele>
        <time>2025-02-26T11:04:15Z</time>
      </trkpt>
      <trkpt lat="48.06596" lon="-3.48947">
        <ele>149.2</ele>
        <time>2025-02-26T11:04:16Z</time>
      </trkpt>
      <trkpt lat="48.06595" lon="-3.48945">
        <ele>149.2</ele>
        <time>2025-02-26T11:04:17Z</time>
      </trkpt>
      <trkpt lat="48.06595" lon="-3.48944">
        <ele>149.1</ele>
        <time>2025-02-26T11:04:18Z</time>
      </trkpt>
      <trkpt lat="48.06595" lon="-3.48942">
        <ele>149.1</ele>
        <time>2025-02-26T11:04:19Z</time>
      </trkpt>
      <trkpt lat="48.06594" lon="-3.48941">
        <ele>149.1</ele>
        <time>2025-02-26T11:04:20Z</time>
      </trkpt>
      <trkpt lat="48.06594" lon="-3.48939">
        <ele>149</ele>
        <time>2025-02-26T11:04:21Z</time>
      </trkpt>
      <trkpt lat="48.06594" lon="-3.48937">
        <ele>148.9</ele>
        <time>2025-02-26T11:04:22Z</time>
      </trkpt>
      <trkpt lat="48.06594" lon="-3.48936">
        <ele>148.9</ele>
        <time>2025-02-26T11:04:23Z</time>
      </trkpt>
      <trkpt lat="48.06594" lon="-3.48934">
        <ele>148.9</ele>
        <time>2025-02-26T11:04:24Z</time>
      </trkpt>
      <trkpt lat="48.06593" lon="-3.48933">
        <ele>148.9</ele>
        <time>2025-02-26T11:04:25Z</time>
      </trkpt>
      <trkpt lat="48.06593" lon="-3.48931">
        <ele>148.8</ele>
        <time>2025-02-26T11:04:26Z</time>
      </trkpt>
      <trkpt lat="48.06593" lon="-3.4893">
        <ele>148.8</ele>
        <time>2025-02-26T11:04:27Z</time>
      </trkpt>
      <trkpt lat="48.06592" lon="-3.48928">
        <ele>148.8</ele>
        <time>2025-02-26T11:04:28Z</time>
      </trkpt>
      <trkpt lat="48.06592" lon="-3.48926">
        <ele>148.7</ele>
        <time>2025-02-26T11:04:29Z</time>
      </trkpt>
      <trkpt lat="48.06591" lon="-3.48925">
        <ele>148.7</ele>
        <time>2025-02-26T11:04:30Z</time>
      </trkpt>
      <trkpt lat="48.06591" lon="-3.48923">
        <ele>148.7</ele>
        <time>2025-02-26T11:04:31Z</time>
      </trkpt>
      <trkpt lat="48.06591" lon="-3.48922">
        <ele>148.7</ele>
        <time>2025-02-26T11:04:32Z</time>
      </trkpt>
      <trkpt lat="48.0659" lon="-3.4892">
        <ele>148.6</ele>
        <time>2025-02-26T11:04:33Z</time>
      </trkpt>
      <trkpt lat="48.0659" lon="-3.48919">
        <ele>148.6</ele>
        <time>2025-02-26T11:04:34Z</time>
      </trkpt>
      <trkpt lat="48.06589" lon="-3.48917">
        <ele>148.6</ele>
        <time>2025-02-26T11:04:35Z</time>
      </trkpt>
      <trkpt lat="48.06589" lon="-3.48916">
        <ele>148.5</ele>
        <time>2025-02-26T11:04:36Z</time>
      </trkpt>
      <trkpt lat="48.06588" lon="-3.48914">
        <ele>148.4</ele>
        <time>2025-02-26T11:04:37Z</time>
      </trkpt>
      <trkpt lat="48.06588" lon="-3.48912">
        <ele>148.2</ele>
        <time>2025-02-26T11:04:38Z</time>
      </trkpt>
      <trkpt lat="48.06588" lon="-3.48911">
        <ele>148.1</ele>
        <time>2025-02-26T11:04:39Z</time>
      </trkpt>
      <trkpt lat="48.06587" lon="-3.48909">
        <ele>147.9</ele>
        <time>2025-02-26T11:04:40Z</time>
      </trkpt>
      <trkpt lat="48.06587" lon="-3.48907">
        <ele>147.7</ele>
        <time>2025-02-26T11:04:41Z</time>
      </trkpt>
      <trkpt lat="48.06587" lon="-3.48905">
        <ele>147.6</ele>
        <time>2025-02-26T11:04:42Z</time>
      </trkpt>
      <trkpt lat="48.06586" lon="-3.48904">
        <ele>147.4</ele>
        <time>2025-02-26T11:04:43Z</time>
      </trkpt>
      <trkpt lat="48.06586" lon="-3.48902">
        <ele>147.2</ele>
        <time>2025-02-26T11:04:44Z</time>
      </trkpt>
      <trkpt lat="48.06586" lon="-3.489">
        <ele>147.1</ele>
        <time>2025-02-26T11:04:45Z</time>
      </trkpt>
      <trkpt lat="48.06586" lon="-3.48898">
        <ele>146.9</ele>
        <time>2025-02-26T11:04:46Z</time>
      </trkpt>
      <trkpt lat="48.06585" lon="-3.48896">
        <ele>146.7</ele>
        <time>2025-02-26T11:04:47Z</time>
      </trkpt>
      <trkpt lat="48.06585" lon="-3.48894">
        <ele>146.5</ele>
        <time>2025-02-26T11:04:48Z</time>
      </trkpt>
      <trkpt lat="48.06584" lon="-3.48893">
        <ele>146.4</ele>
        <time>2025-02-26T11:04:49Z</time>
      </trkpt>
      <trkpt lat="48.06584" lon="-3.48891">
        <ele>146.2</ele>
        <time>2025-02-26T11:04:50Z</time>
      </trkpt>
      <trkpt lat="48.06583" lon="-3.4889">
        <ele>146.1</ele>
        <time>2025-02-26T11:04:51Z</time>
      </trkpt>
      <trkpt lat="48.06583" lon="-3.48888">
        <ele>145.9</ele>
        <time>2025-02-26T11:04:52Z</time>
      </trkpt>
      <trkpt lat="48.06583" lon="-3.48887">
        <ele>145.7</ele>
        <time>2025-02-26T11:04:53Z</time>
      </trkpt>
      <trkpt lat="48.06582" lon="-3.48885">
        <ele>145.5</ele>
        <time>2025-02-26T11:04:54Z</time>
      </trkpt>
      <trkpt lat="48.06582" lon="-3.48883">
        <ele>145.3</ele>
        <time>2025-02-26T11:04:55Z</time>
      </trkpt>
      <trkpt lat="48.06582" lon="-3.48882">
        <ele>145.1</ele>
        <time>2025-02-26T11:04:56Z</time>
      </trkpt>
      <trkpt lat="48.06582" lon="-3.4888">
        <ele>144.9</ele>
        <time>2025-02-26T11:04:57Z</time>
      </trkpt>
      <trkpt lat="48.06581" lon="-3.48879">
        <ele>144.7</ele>
        <time>2025-02-26T11:04:58Z</time>
      </trkpt>
      <trkpt lat="48.06581" lon="-3.48877">
        <ele>144.5</ele>
        <time>2025-02-26T11:04:59Z</time>
      </trkpt>
      <trkpt lat="48.06581" lon="-3.48875">
        <ele>144.3</ele>
        <time>2025-02-26T11:05:00Z</time>
      </trkpt>
      <trkpt lat="48.0658" lon="-3.48874">
        <ele>144.1</ele>
        <time>2025-02-26T11:05:01Z</time>
      </trkpt>
      <trkpt lat="48.0658" lon="-3.48872">
        <ele>143.9</ele>
        <time>2025-02-26T11:05:02Z</time>
      </trkpt>
      <trkpt lat="48.0658" lon="-3.4887">
        <ele>143.7</ele>
        <time>2025-02-26T11:05:03Z</time>
      </trkpt>
      <trkpt lat="48.06579" lon="-3.48868">
        <ele>143.4</ele>
        <time>2025-02-26T11:05:04Z</time>
      </trkpt>
      <trkpt lat="48.06579" lon="-3.48866">
        <ele>143.2</ele>
        <time>2025-02-26T11:05:05Z</time>
      </trkpt>
      <trkpt lat="48.06579" lon="-3.48864">
        <ele>143</ele>
        <time>2025-02-26T11:05:06Z</time>
      </trkpt>
      <trkpt lat="48.06579" lon="-3.48863">
        <ele>142.8</ele>
        <time>2025-02-26T11:05:07Z</time>
      </trkpt>
      <trkpt lat="48.06579" lon="-3.48861">
        <ele>142.7</ele>
        <time>2025-02-26T11:05:08Z</time>
      </trkpt>
      <trkpt lat="48.06579" lon="-3.48859">
        <ele>142.6</ele>
        <time>2025-02-26T11:05:09Z</time>
      </trkpt>
      <trkpt lat="48.06578" lon="-3.48857">
        <ele>142.5</ele>
        <time>2025-02-26T11:05:10Z</time>
      </trkpt>
      <trkpt lat="48.06578" lon="-3.48855">
        <ele>142.4</ele>
        <time>2025-02-26T11:05:11Z</time>
      </trkpt>
      <trkpt lat="48.06577" lon="-3.48854">
        <ele>142.3</ele>
        <time>2025-02-26T11:05:12Z</time>
      </trkpt>
      <trkpt lat="48.06577" lon="-3.48852">
        <ele>142.2</ele>
        <time>2025-02-26T11:05:13Z</time>
      </trkpt>
      <trkpt lat="48.06577" lon="-3.4885">
        <ele>142.1</ele>
        <time>2025-02-26T11:05:14Z</time>
      </trkpt>
      <trkpt lat="48.06576" lon="-3.48848">
        <ele>142</ele>
        <time>2025-02-26T11:05:15Z</time>
      </trkpt>
      <trkpt lat="48.06575" lon="-3.48847">
        <ele>141.9</ele>
        <time>2025-02-26T11:05:16Z</time>
      </trkpt>
      <trkpt lat="48.06574" lon="-3.48845">
        <ele>141.8</ele>
        <time>2025-02-26T11:05:17Z</time>
      </trkpt>
      <trkpt lat="48.06575" lon="-3.48843">
        <ele>141.7</ele>
        <time>2025-02-26T11:05:18Z</time>
      </trkpt>
      <trkpt lat="48.06575" lon="-3.48842">
        <ele>141.7</ele>
        <time>2025-02-26T11:05:19Z</time>
      </trkpt>
      <trkpt lat="48.06575" lon="-3.4884">
        <ele>141.6</ele>
        <time>2025-02-26T11:05:20Z</time>
      </trkpt>
      <trkpt lat="48.06575" lon="-3.48838">
        <ele>141.5</ele>
        <time>2025-02-26T11:05:21Z</time>
      </trkpt>
      <trkpt lat="48.06574" lon="-3.48836">
        <ele>141.4</ele>
        <time>2025-02-26T11:05:22Z</time>
      </trkpt>
      <trkpt lat="48.06574" lon="-3.48834">
        <ele>141.4</ele>
        <time>2025-02-26T11:05:23Z</time>
      </trkpt>
      <trkpt lat="48.06574" lon="-3.48832">
        <ele>141.3</ele>
        <time>2025-02-26T11:05:24Z</time>
      </trkpt>
      <trkpt lat="48.06574" lon="-3.48832">
        <ele>141.2</ele>
        <time>2025-02-26T11:05:25Z</time>
      </trkpt>
      <trkpt lat="48.06573" lon="-3.48831">
        <ele>141.1</ele>
        <time>2025-02-26T11:05:26Z</time>
      </trkpt>
      <trkpt lat="48.06571" lon="-3.48831">
        <ele>141</ele>
        <time>2025-02-26T11:05:27Z</time>
      </trkpt>
      <trkpt lat="48.06571" lon="-3.4883">
        <ele>140.9</ele>
        <time>2025-02-26T11:05:28Z</time>
      </trkpt>
      <trkpt lat="48.06571" lon="-3.48828">
        <ele>140.8</ele>
        <time>2025-02-26T11:05:29Z</time>
      </trkpt>
      <trkpt lat="48.06571" lon="-3.48826">
        <ele>140.7</ele>
        <time>2025-02-26T11:05:30Z</time>
      </trkpt>
      <trkpt lat="48.06571" lon="-3.48824">
        <ele>140.6</ele>
        <time>2025-02-26T11:05:31Z</time>
      </trkpt>
      <trkpt lat="48.06571" lon="-3.48823">
        <ele>140.5</ele>
        <time>2025-02-26T11:05:32Z</time>
      </trkpt>
      <trkpt lat="48.0657" lon="-3.48821">
        <ele>140.4</ele>
        <time>2025-02-26T11:05:33Z</time>
      </trkpt>
      <trkpt lat="48.0657" lon="-3.48819">
        <ele>140.2</ele>
        <time>2025-02-26T11:05:34Z</time>
      </trkpt>
      <trkpt lat="48.06569" lon="-3.48817">
        <ele>140.1</ele>
        <time>2025-02-26T11:05:35Z</time>
      </trkpt>
      <trkpt lat="48.06569" lon="-3.48816">
        <ele>140</ele>
        <time>2025-02-26T11:05:36Z</time>
      </trkpt>
      <trkpt lat="48.06569" lon="-3.48814">
        <ele>139.9</ele>
        <time>2025-02-26T11:05:37Z</time>
      </trkpt>
      <trkpt lat="48.06568" lon="-3.48812">
        <ele>139.8</ele>
        <time>2025-02-26T11:05:38Z</time>
      </trkpt>
      <trkpt lat="48.06568" lon="-3.48811">
        <ele>139.7</ele>
        <time>2025-02-26T11:05:39Z</time>
      </trkpt>
      <trkpt lat="48.06567" lon="-3.48809">
        <ele>139.6</ele>
        <time>2025-02-26T11:05:40Z</time>
      </trkpt>
      <trkpt lat="48.06567" lon="-3.48807">
        <ele>139.5</ele>
        <time>2025-02-26T11:05:41Z</time>
      </trkpt>
      <trkpt lat="48.06567" lon="-3.48805">
        <ele>139.4</ele>
        <time>2025-02-26T11:05:42Z</time>
      </trkpt>
      <trkpt lat="48.06567" lon="-3.48803">
        <ele>139.4</ele>
        <time>2025-02-26T11:05:43Z</time>
      </trkpt>
      <trkpt lat="48.06566" lon="-3.48801">
        <ele>139.3</ele>
        <time>2025-02-26T11:05:44Z</time>
      </trkpt>
      <trkpt lat="48.06566" lon="-3.48799">
        <ele>139.3</ele>
        <time>2025-02-26T11:05:45Z</time>
      </trkpt>
      <trkpt lat="48.06565" lon="-3.48797">
        <ele>139.2</ele>
        <time>2025-02-26T11:05:46Z</time>
      </trkpt>
      <trkpt lat="48.06565" lon="-3.48795">
        <ele>139.2</ele>
        <time>2025-02-26T11:05:47Z</time>
      </trkpt>
      <trkpt lat="48.06565" lon="-3.48793">
        <ele>139.2</ele>
        <time>2025-02-26T11:05:48Z</time>
      </trkpt>
      <trkpt lat="48.06564" lon="-3.48791">
        <ele>139.1</ele>
        <time>2025-02-26T11:05:49Z</time>
      </trkpt>
      <trkpt lat="48.06563" lon="-3.48789">
        <ele>139.1</ele>
        <time>2025-02-26T11:05:50Z</time>
      </trkpt>
      <trkpt lat="48.06563" lon="-3.48787">
        <ele>139.1</ele>
        <time>2025-02-26T11:05:51Z</time>
      </trkpt>
      <trkpt lat="48.06562" lon="-3.48786">
        <ele>139.1</ele>
        <time>2025-02-26T11:05:52Z</time>
      </trkpt>
      <trkpt lat="48.06562" lon="-3.48784">
        <ele>139</ele>
        <time>2025-02-26T11:05:53Z</time>
      </trkpt>
      <trkpt lat="48.06561" lon="-3.48783">
        <ele>139</ele>
        <time>2025-02-26T11:05:54Z</time>
      </trkpt>
      <trkpt lat="48.0656" lon="-3.48781">
        <ele>139</ele>
        <time>2025-02-26T11:05:55Z</time>
      </trkpt>
      <trkpt lat="48.06559" lon="-3.4878">
        <ele>139</ele>
        <time>2025-02-26T11:05:56Z</time>
      </trkpt>
      <trkpt lat="48.06559" lon="-3.48779">
        <ele>139</ele>
        <time>2025-02-26T11:05:57Z</time>
      </trkpt>
      <trkpt lat="48.06558" lon="-3.48777">
        <ele>139</ele>
        <time>2025-02-26T11:05:58Z</time>
      </trkpt>
      <trkpt lat="48.06558" lon="-3.48775">
        <ele>139</ele>
        <time>2025-02-26T11:05:59Z</time>
      </trkpt>
      <trkpt lat="48.06558" lon="-3.48774">
        <ele>139</ele>
        <time>2025-02-26T11:06:00Z</time>
      </trkpt>
      <trkpt lat="48.06558" lon="-3.48772">
        <ele>139</ele>
        <time>2025-02-26T11:06:01Z</time>
      </trkpt>
      <trkpt lat="48.06557" lon="-3.48771">
        <ele>139</ele>
        <time>2025-02-26T11:06:02Z</time>
      </trkpt>
      <trkpt lat="48.06557" lon="-3.48769">
        <ele>139</ele>
        <time>2025-02-26T11:06:03Z</time>
      </trkpt>
      <trkpt lat="48.06557" lon="-3.48768">
        <ele>139</ele>
        <time>2025-02-26T11:06:04Z</time>
      </trkpt>
      <trkpt lat="48.06557" lon="-3.48766">
        <ele>139</ele>
        <time>2025-02-26T11:06:05Z</time>
      </trkpt>
      <trkpt lat="48.06558" lon="-3.48764">
        <ele>139</ele>
        <time>2025-02-26T11:06:06Z</time>
      </trkpt>
      <trkpt lat="48.06559" lon="-3.48762">
        <ele>139</ele>
        <time>2025-02-26T11:06:07Z</time>
      </trkpt>
      <trkpt lat="48.0656" lon="-3.48761">
        <ele>139</ele>
        <time>2025-02-26T11:06:08Z</time>
      </trkpt>
      <trkpt lat="48.06561" lon="-3.4876">
        <ele>139</ele>
        <time>2025-02-26T11:06:09Z</time>
      </trkpt>
      <trkpt lat="48.06562" lon="-3.48759">
        <ele>139</ele>
        <time>2025-02-26T11:06:10Z</time>
      </trkpt>
      <trkpt lat="48.06562" lon="-3.48757">
        <ele>139</ele>
        <time>2025-02-26T11:06:11Z</time>
      </trkpt>
      <trkpt lat="48.06562" lon="-3.48757">
        <ele>139</ele>
        <time>2025-02-26T11:06:12Z</time>
      </trkpt>
      <trkpt lat="48.06563" lon="-3.48758">
        <ele>139</ele>
        <time>2025-02-26T11:06:13Z</time>
      </trkpt>
      <trkpt lat="48.06563" lon="-3.48758">
        <ele>139</ele>
        <time>2025-02-26T11:06:14Z</time>
      </trkpt>
      <trkpt lat="48.06563" lon="-3.48758">
        <ele>139</ele>
        <time>2025-02-26T11:06:15Z</time>
      </trkpt>
      <trkpt lat="48.06563" lon="-3.48758">
        <ele>139</ele>
        <time>2025-02-26T11:06:16Z</time>
      </trkpt>
      <trkpt lat="48.06563" lon="-3.48758">
        <ele>139</ele>
        <time>2025-02-26T11:06:17Z</time>
      </trkpt>
      <trkpt lat="48.06563" lon="-3.48758">
        <ele>139</ele>
        <time>2025-02-26T11:06:18Z</time>
      </trkpt>
      <trkpt lat="48.06563" lon="-3.48758">
        <ele>139</ele>
        <time>2025-02-26T11:06:19Z</time>
      </trkpt>
      <trkpt lat="48.06563" lon="-3.48758">
        <ele>139</ele>
        <time>2025-02-26T11:06:20Z</time>
      </trkpt>
      <trkpt lat="48.06562" lon="-3.48758">
        <ele>139</ele>
        <time>2025-02-26T11:06:21Z</time>
      </trkpt>
      <trkpt lat="48.06562" lon="-3.48759">
        <ele>139</ele>
        <time>2025-02-26T11:06:22Z</time>
      </trkpt>
      <trkpt lat="48.06562" lon="-3.48759">
        <ele>139</ele>
        <time>2025-02-26T11:06:23Z</time>
      </trkpt>
      <trkpt lat="48.06562" lon="-3.48759">
        <ele>139</ele>
        <time>2025-02-26T11:06:24Z</time>
      </trkpt>
      <trkpt lat="48.06562" lon="-3.48759">
        <ele>139</ele>
        <time>2025-02-26T11:06:25Z</time>
      </trkpt>
      <trkpt lat="48.06562" lon="-3.48759">
        <ele>139</ele>
        <time>2025-02-26T11:06:26Z</time>
      </trkpt>
      <trkpt lat="48.06562" lon="-3.48759">
        <ele>139</ele>
        <time>2025-02-26T11:06:27Z</time>
      </trkpt>
      <trkpt lat="48.06562" lon="-3.48759">
        <ele>139</ele>
        <time>2025-02-26T11:06:28Z</time>
      </trkpt>
      <trkpt lat="48.06562" lon="-3.48759">
        <ele>139</ele>
        <time>2025-02-26T11:06:29Z</time>
      </trkpt>
      <trkpt lat="48.06562" lon="-3.48759">
        <ele>139</ele>
        <time>2025-02-26T11:06:30Z</time>
      </trkpt>
      <trkpt lat="48.06563" lon="-3.48759">
        <ele>139</ele>
        <time>2025-02-26T11:06:31Z</time>
      </trkpt>
      <trkpt lat="48.06563" lon="-3.48759">
        <ele>139</ele>
        <time>2025-02-26T11:06:32Z</time>
      </trkpt>
      <trkpt lat="48.06564" lon="-3.4876">
        <ele>139</ele>
        <time>2025-02-26T11:06:33Z</time>
      </trkpt>
      <trkpt lat="48.06564" lon="-3.4876">
        <ele>139</ele>
        <time>2025-02-26T11:06:34Z</time>
      </trkpt>
      <trkpt lat="48.06565" lon="-3.48759">
        <ele>139</ele>
        <time>2025-02-26T11:06:35Z</time>
      </trkpt>
      <trkpt lat="48.06566" lon="-3.48758">
        <ele>139</ele>
        <time>2025-02-26T11:06:36Z</time>
      </trkpt>
      <trkpt lat="48.06567" lon="-3.48758">
        <ele>139</ele>
        <time>2025-02-26T11:06:37Z</time>
      </trkpt>
      <trkpt lat="48.06568" lon="-3.48756">
        <ele>139</ele>
        <time>2025-02-26T11:06:38Z</time>
      </trkpt>
      <trkpt lat="48.06569" lon="-3.48755">
        <ele>139</ele>
        <time>2025-02-26T11:06:39Z</time>
      </trkpt>
      <trkpt lat="48.0657" lon="-3.48754">
        <ele>139</ele>
        <time>2025-02-26T11:06:40Z</time>
      </trkpt>
      <trkpt lat="48.06571" lon="-3.48753">
        <ele>139</ele>
        <time>2025-02-26T11:06:41Z</time>
      </trkpt>
      <trkpt lat="48.06572" lon="-3.48753">
        <ele>139</ele>
        <time>2025-02-26T11:06:42Z</time>
      </trkpt>
      <trkpt lat="48.06572" lon="-3.48752">
        <ele>139</ele>
        <time>2025-02-26T11:06:43Z</time>
      </trkpt>
      <trkpt lat="48.06573" lon="-3.48751">
        <ele>139</ele>
        <time>2025-02-26T11:06:44Z</time>
      </trkpt>
      <trkpt lat="48.06573" lon="-3.48749">
        <ele>139</ele>
        <time>2025-02-26T11:06:45Z</time>
      </trkpt>
      <trkpt lat="48.06573" lon="-3.48747">
        <ele>138.9</ele>
        <time>2025-02-26T11:06:46Z</time>
      </trkpt>
      <trkpt lat="48.06574" lon="-3.48746">
        <ele>138.9</ele>
        <time>2025-02-26T11:06:47Z</time>
      </trkpt>
      <trkpt lat="48.06575" lon="-3.48745">
        <ele>138.8</ele>
        <time>2025-02-26T11:06:48Z</time>
      </trkpt>
      <trkpt lat="48.06576" lon="-3.48744">
        <ele>138.8</ele>
        <time>2025-02-26T11:06:49Z</time>
      </trkpt>
      <trkpt lat="48.06577" lon="-3.48743">
        <ele>138.7</ele>
        <time>2025-02-26T11:06:50Z</time>
      </trkpt>
      <trkpt lat="48.06578" lon="-3.48742">
        <ele>138.7</ele>
        <time>2025-02-26T11:06:51Z</time>
      </trkpt>
      <trkpt lat="48.06579" lon="-3.48741">
        <ele>138.7</ele>
        <time>2025-02-26T11:06:52Z</time>
      </trkpt>
      <trkpt lat="48.06579" lon="-3.4874">
        <ele>138.6</ele>
        <time>2025-02-26T11:06:53Z</time>
      </trkpt>
      <trkpt lat="48.0658" lon="-3.48738">
        <ele>138.6</ele>
        <time>2025-02-26T11:06:54Z</time>
      </trkpt>
      <trkpt lat="48.06582" lon="-3.48738">
        <ele>138.6</ele>
        <time>2025-02-26T11:06:55Z</time>
      </trkpt>
      <trkpt lat="48.06583" lon="-3.48737">
        <ele>138.5</ele>
        <time>2025-02-26T11:06:56Z</time>
      </trkpt>
      <trkpt lat="48.06584" lon="-3.48736">
        <ele>138.5</ele>
        <time>2025-02-26T11:06:57Z</time>
      </trkpt>
      <trkpt lat="48.06585" lon="-3.48736">
        <ele>138.5</ele>
        <time>2025-02-26T11:06:58Z</time>
      </trkpt>
      <trkpt lat="48.06586" lon="-3.48735">
        <ele>138.5</ele>
        <time>2025-02-26T11:06:59Z</time>
      </trkpt>
      <trkpt lat="48.06587" lon="-3.48734">
        <ele>138.4</ele>
        <time>2025-02-26T11:07:00Z</time>
      </trkpt>
      <trkpt lat="48.06588" lon="-3.48733">
        <ele>138.4</ele>
        <time>2025-02-26T11:07:01Z</time>
      </trkpt>
      <trkpt lat="48.06589" lon="-3.48731">
        <ele>138.3</ele>
        <time>2025-02-26T11:07:02Z</time>
      </trkpt>
      <trkpt lat="48.06589" lon="-3.48729">
        <ele>138.3</ele>
        <time>2025-02-26T11:07:03Z</time>
      </trkpt>
      <trkpt lat="48.0659" lon="-3.48728">
        <ele>138.2</ele>
        <time>2025-02-26T11:07:04Z</time>
      </trkpt>
      <trkpt lat="48.06592" lon="-3.48728">
        <ele>138.2</ele>
        <time>2025-02-26T11:07:05Z</time>
      </trkpt>
      <trkpt lat="48.06593" lon="-3.48727">
        <ele>138.2</ele>
        <time>2025-02-26T11:07:06Z</time>
      </trkpt>
      <trkpt lat="48.06594" lon="-3.48726">
        <ele>138.2</ele>
        <time>2025-02-26T11:07:07Z</time>
      </trkpt>
      <trkpt lat="48.06595" lon="-3.48725">
        <ele>138.1</ele>
        <time>2025-02-26T11:07:08Z</time>
      </trkpt>
      <trkpt lat="48.06596" lon="-3.48725">
        <ele>138.1</ele>
        <time>2025-02-26T11:07:09Z</time>
      </trkpt>
      <trkpt lat="48.06597" lon="-3.48724">
        <ele>138.1</ele>
        <time>2025-02-26T11:07:10Z</time>
      </trkpt>
      <trkpt lat="48.06598" lon="-3.48723">
        <ele>138</ele>
        <time>2025-02-26T11:07:11Z</time>
      </trkpt>
      <trkpt lat="48.06599" lon="-3.48722">
        <ele>138</ele>
        <time>2025-02-26T11:07:12Z</time>
      </trkpt>
      <trkpt lat="48.066" lon="-3.48721">
        <ele>138</ele>
        <time>2025-02-26T11:07:13Z</time>
      </trkpt>
      <trkpt lat="48.06601" lon="-3.4872">
        <ele>138</ele>
        <time>2025-02-26T11:07:14Z</time>
      </trkpt>
      <trkpt lat="48.06602" lon="-3.48719">
        <ele>138</ele>
        <time>2025-02-26T11:07:15Z</time>
      </trkpt>
      <trkpt lat="48.06603" lon="-3.48719">
        <ele>138</ele>
        <time>2025-02-26T11:07:16Z</time>
      </trkpt>
      <trkpt lat="48.06605" lon="-3.48719">
        <ele>138</ele>
        <time>2025-02-26T11:07:17Z</time>
      </trkpt>
      <trkpt lat="48.06606" lon="-3.48718">
        <ele>138</ele>
        <time>2025-02-26T11:07:18Z</time>
      </trkpt>
      <trkpt lat="48.06607" lon="-3.48717">
        <ele>138</ele>
        <time>2025-02-26T11:07:19Z</time>
      </trkpt>
      <trkpt lat="48.06608" lon="-3.48716">
        <ele>138</ele>
        <time>2025-02-26T11:07:20Z</time>
      </trkpt>
      <trkpt lat="48.06609" lon="-3.48716">
        <ele>138</ele>
        <time>2025-02-26T11:07:21Z</time>
      </trkpt>
      <trkpt lat="48.0661" lon="-3.48716">
        <ele>138</ele>
        <time>2025-02-26T11:07:22Z</time>
      </trkpt>
      <trkpt lat="48.06611" lon="-3.48716">
        <ele>138</ele>
        <time>2025-02-26T11:07:23Z</time>
      </trkpt>
      <trkpt lat="48.06612" lon="-3.48717">
        <ele>138.1</ele>
        <time>2025-02-26T11:07:24Z</time>
      </trkpt>
      <trkpt lat="48.06613" lon="-3.48718">
        <ele>138.2</ele>
        <time>2025-02-26T11:07:25Z</time>
      </trkpt>
      <trkpt lat="48.06614" lon="-3.48718">
        <ele>138.4</ele>
        <time>2025-02-26T11:07:26Z</time>
      </trkpt>
      <trkpt lat="48.06615" lon="-3.48717">
        <ele>138.5</ele>
        <time>2025-02-26T11:07:27Z</time>
      </trkpt>
      <trkpt lat="48.06616" lon="-3.48717">
        <ele>138.5</ele>
        <time>2025-02-26T11:07:28Z</time>
      </trkpt>
      <trkpt lat="48.06617" lon="-3.48716">
        <ele>138.6</ele>
        <time>2025-02-26T11:07:29Z</time>
      </trkpt>
      <trkpt lat="48.06618" lon="-3.48716">
        <ele>138.7</ele>
        <time>2025-02-26T11:07:30Z</time>
      </trkpt>
      <trkpt lat="48.06618" lon="-3.48715">
        <ele>138.8</ele>
        <time>2025-02-26T11:07:31Z</time>
      </trkpt>
      <trkpt lat="48.06619" lon="-3.48714">
        <ele>138.9</ele>
        <time>2025-02-26T11:07:32Z</time>
      </trkpt>
      <trkpt lat="48.0662" lon="-3.48714">
        <ele>138.9</ele>
        <time>2025-02-26T11:07:33Z</time>
      </trkpt>
      <trkpt lat="48.06621" lon="-3.48713">
        <ele>139</ele>
        <time>2025-02-26T11:07:34Z</time>
      </trkpt>
      <trkpt lat="48.06622" lon="-3.48713">
        <ele>139.2</ele>
        <time>2025-02-26T11:07:35Z</time>
      </trkpt>
      <trkpt lat="48.06623" lon="-3.48713">
        <ele>139.3</ele>
        <time>2025-02-26T11:07:36Z</time>
      </trkpt>
      <trkpt lat="48.06624" lon="-3.48713">
        <ele>139.4</ele>
        <time>2025-02-26T11:07:37Z</time>
      </trkpt>
      <trkpt lat="48.06625" lon="-3.48714">
        <ele>139.5</ele>
        <time>2025-02-26T11:07:38Z</time>
      </trkpt>
      <trkpt lat="48.06626" lon="-3.48714">
        <ele>139.6</ele>
        <time>2025-02-26T11:07:39Z</time>
      </trkpt>
      <trkpt lat="48.06627" lon="-3.48714">
        <ele>139.7</ele>
        <time>2025-02-26T11:07:40Z</time>
      </trkpt>
      <trkpt lat="48.06628" lon="-3.48714">
        <ele>139.8</ele>
        <time>2025-02-26T11:07:41Z</time>
      </trkpt>
      <trkpt lat="48.06629" lon="-3.48714">
        <ele>139.9</ele>
        <time>2025-02-26T11:07:42Z</time>
      </trkpt>
      <trkpt lat="48.0663" lon="-3.48714">
        <ele>140</ele>
        <time>2025-02-26T11:07:43Z</time>
      </trkpt>
      <trkpt lat="48.06631" lon="-3.48713">
        <ele>140.1</ele>
        <time>2025-02-26T11:07:44Z</time>
      </trkpt>
      <trkpt lat="48.06632" lon="-3.48713">
        <ele>140.2</ele>
        <time>2025-02-26T11:07:45Z</time>
      </trkpt>
      <trkpt lat="48.06633" lon="-3.48713">
        <ele>140.3</ele>
        <time>2025-02-26T11:07:46Z</time>
      </trkpt>
      <trkpt lat="48.06633" lon="-3.48712">
        <ele>140.4</ele>
        <time>2025-02-26T11:07:47Z</time>
      </trkpt>
      <trkpt lat="48.06634" lon="-3.48712">
        <ele>140.5</ele>
        <time>2025-02-26T11:07:48Z</time>
      </trkpt>
      <trkpt lat="48.06635" lon="-3.48713">
        <ele>140.6</ele>
        <time>2025-02-26T11:07:49Z</time>
      </trkpt>
      <trkpt lat="48.06636" lon="-3.48713">
        <ele>140.7</ele>
        <time>2025-02-26T11:07:50Z</time>
      </trkpt>
      <trkpt lat="48.06637" lon="-3.48714">
        <ele>140.8</ele>
        <time>2025-02-26T11:07:51Z</time>
      </trkpt>
      <trkpt lat="48.06638" lon="-3.48714">
        <ele>140.9</ele>
        <time>2025-02-26T11:07:52Z</time>
      </trkpt>
      <trkpt lat="48.06639" lon="-3.48714">
        <ele>141</ele>
        <time>2025-02-26T11:07:53Z</time>
      </trkpt>
      <trkpt lat="48.06639" lon="-3.48714">
        <ele>141.1</ele>
        <time>2025-02-26T11:07:54Z</time>
      </trkpt>
      <trkpt lat="48.0664" lon="-3.48714">
        <ele>141.2</ele>
        <time>2025-02-26T11:07:55Z</time>
      </trkpt>
      <trkpt lat="48.06641" lon="-3.48715">
        <ele>141.2</ele>
        <time>2025-02-26T11:07:56Z</time>
      </trkpt>
      <trkpt lat="48.06642" lon="-3.48715">
        <ele>141.4</ele>
        <time>2025-02-26T11:07:57Z</time>
      </trkpt>
      <trkpt lat="48.06643" lon="-3.48715">
        <ele>141.5</ele>
        <time>2025-02-26T11:07:58Z</time>
      </trkpt>
      <trkpt lat="48.06644" lon="-3.48715">
        <ele>141.6</ele>
        <time>2025-02-26T11:07:59Z</time>
      </trkpt>
      <trkpt lat="48.06645" lon="-3.48714">
        <ele>141.6</ele>
        <time>2025-02-26T11:08:00Z</time>
      </trkpt>
      <trkpt lat="48.06646" lon="-3.48714">
        <ele>141.7</ele>
        <time>2025-02-26T11:08:01Z</time>
      </trkpt>
      <trkpt lat="48.06647" lon="-3.48713">
        <ele>141.9</ele>
        <time>2025-02-26T11:08:02Z</time>
      </trkpt>
      <trkpt lat="48.06648" lon="-3.48713">
        <ele>142</ele>
        <time>2025-02-26T11:08:03Z</time>
      </trkpt>
      <trkpt lat="48.06649" lon="-3.48713">
        <ele>142.1</ele>
        <time>2025-02-26T11:08:04Z</time>
      </trkpt>
      <trkpt lat="48.0665" lon="-3.48713">
        <ele>142.2</ele>
        <time>2025-02-26T11:08:05Z</time>
      </trkpt>
      <trkpt lat="48.06651" lon="-3.48713">
        <ele>142.3</ele>
        <time>2025-02-26T11:08:06Z</time>
      </trkpt>
      <trkpt lat="48.06652" lon="-3.48713">
        <ele>142.4</ele>
        <time>2025-02-26T11:08:07Z</time>
      </trkpt>
      <trkpt lat="48.06653" lon="-3.48712">
        <ele>142.5</ele>
        <time>2025-02-26T11:08:08Z</time>
      </trkpt>
      <trkpt lat="48.06654" lon="-3.48712">
        <ele>142.7</ele>
        <time>2025-02-26T11:08:09Z</time>
      </trkpt>
      <trkpt lat="48.06655" lon="-3.48712">
        <ele>142.8</ele>
        <time>2025-02-26T11:08:10Z</time>
      </trkpt>
      <trkpt lat="48.06657" lon="-3.48712">
        <ele>142.9</ele>
        <time>2025-02-26T11:08:11Z</time>
      </trkpt>
      <trkpt lat="48.06658" lon="-3.48712">
        <ele>143</ele>
        <time>2025-02-26T11:08:12Z</time>
      </trkpt>
      <trkpt lat="48.06658" lon="-3.48712">
        <ele>143.1</ele>
        <time>2025-02-26T11:08:13Z</time>
      </trkpt>
      <trkpt lat="48.06659" lon="-3.48712">
        <ele>143.2</ele>
        <time>2025-02-26T11:08:14Z</time>
      </trkpt>
      <trkpt lat="48.0666" lon="-3.48712">
        <ele>143.2</ele>
        <time>2025-02-26T11:08:15Z</time>
      </trkpt>
      <trkpt lat="48.0666" lon="-3.48713">
        <ele>143.3</ele>
        <time>2025-02-26T11:08:16Z</time>
      </trkpt>
      <trkpt lat="48.06661" lon="-3.48714">
        <ele>143.4</ele>
        <time>2025-02-26T11:08:17Z</time>
      </trkpt>
      <trkpt lat="48.06661" lon="-3.48715">
        <ele>143.4</ele>
        <time>2025-02-26T11:08:18Z</time>
      </trkpt>
      <trkpt lat="48.06661" lon="-3.48716">
        <ele>143.4</ele>
        <time>2025-02-26T11:08:19Z</time>
      </trkpt>
      <trkpt lat="48.06662" lon="-3.48717">
        <ele>143.4</ele>
        <time>2025-02-26T11:08:20Z</time>
      </trkpt>
      <trkpt lat="48.06663" lon="-3.48718">
        <ele>143.6</ele>
        <time>2025-02-26T11:08:21Z</time>
      </trkpt>
      <trkpt lat="48.06664" lon="-3.48718">
        <ele>143.7</ele>
        <time>2025-02-26T11:08:22Z</time>
      </trkpt>
      <trkpt lat="48.06666" lon="-3.48719">
        <ele>143.9</ele>
        <time>2025-02-26T11:08:23Z</time>
      </trkpt>
      <trkpt lat="48.06666" lon="-3.4872">
        <ele>143.9</ele>
        <time>2025-02-26T11:08:24Z</time>
      </trkpt>
      <trkpt lat="48.06666" lon="-3.48722">
        <ele>143.9</ele>
        <time>2025-02-26T11:08:25Z</time>
      </trkpt>
      <trkpt lat="48.06667" lon="-3.48724">
        <ele>144</ele>
        <time>2025-02-26T11:08:26Z</time>
      </trkpt>
      <trkpt lat="48.06668" lon="-3.48725">
        <ele>144.1</ele>
        <time>2025-02-26T11:08:27Z</time>
      </trkpt>
      <trkpt lat="48.06668" lon="-3.48727">
        <ele>144.1</ele>
        <time>2025-02-26T11:08:28Z</time>
      </trkpt>
      <trkpt lat="48.06668" lon="-3.48728">
        <ele>144.1</ele>
        <time>2025-02-26T11:08:29Z</time>
      </trkpt>
      <trkpt lat="48.06668" lon="-3.48729">
        <ele>144.1</ele>
        <time>2025-02-26T11:08:30Z</time>
      </trkpt>
      <trkpt lat="48.06668" lon="-3.4873">
        <ele>144.2</ele>
        <time>2025-02-26T11:08:31Z</time>
      </trkpt>
      <trkpt lat="48.06669" lon="-3.48731">
        <ele>144.2</ele>
        <time>2025-02-26T11:08:32Z</time>
      </trkpt>
      <trkpt lat="48.06669" lon="-3.48733">
        <ele>144.2</ele>
        <time>2025-02-26T11:08:33Z</time>
      </trkpt>
      <trkpt lat="48.06669" lon="-3.48734">
        <ele>144.2</ele>
        <time>2025-02-26T11:08:34Z</time>
      </trkpt>
      <trkpt lat="48.0667" lon="-3.48735">
        <ele>144.3</ele>
        <time>2025-02-26T11:08:35Z</time>
      </trkpt>
      <trkpt lat="48.0667" lon="-3.48736">
        <ele>144.3</ele>
        <time>2025-02-26T11:08:36Z</time>
      </trkpt>
      <trkpt lat="48.06671" lon="-3.48737">
        <ele>144.4</ele>
        <time>2025-02-26T11:08:37Z</time>
      </trkpt>
      <trkpt lat="48.06672" lon="-3.48738">
        <ele>144.4</ele>
        <time>2025-02-26T11:08:38Z</time>
      </trkpt>
      <trkpt lat="48.06672" lon="-3.48739">
        <ele>144.4</ele>
        <time>2025-02-26T11:08:39Z</time>
      </trkpt>
      <trkpt lat="48.06672" lon="-3.48741">
        <ele>144.5</ele>
        <time>2025-02-26T11:08:40Z</time>
      </trkpt>
      <trkpt lat="48.06673" lon="-3.48742">
        <ele>144.5</ele>
        <time>2025-02-26T11:08:41Z</time>
      </trkpt>
      <trkpt lat="48.06673" lon="-3.48743">
        <ele>144.5</ele>
        <time>2025-02-26T11:08:42Z</time>
      </trkpt>
      <trkpt lat="48.06674" lon="-3.48744">
        <ele>144.5</ele>
        <time>2025-02-26T11:08:43Z</time>
      </trkpt>
      <trkpt lat="48.06674" lon="-3.48746">
        <ele>144.6</ele>
        <time>2025-02-26T11:08:44Z</time>
      </trkpt>
      <trkpt lat="48.06675" lon="-3.48747">
        <ele>144.6</ele>
        <time>2025-02-26T11:08:45Z</time>
      </trkpt>
      <trkpt lat="48.06675" lon="-3.48749">
        <ele>144.6</ele>
        <time>2025-02-26T11:08:46Z</time>
      </trkpt>
      <trkpt lat="48.06676" lon="-3.4875">
        <ele>144.7</ele>
        <time>2025-02-26T11:08:47Z</time>
      </trkpt>
      <trkpt lat="48.06677" lon="-3.48752">
        <ele>144.7</ele>
        <time>2025-02-26T11:08:48Z</time>
      </trkpt>
      <trkpt lat="48.06677" lon="-3.48752">
        <ele>144.7</ele>
        <time>2025-02-26T11:08:49Z</time>
      </trkpt>
      <trkpt lat="48.06678" lon="-3.48753">
        <ele>144.8</ele>
        <time>2025-02-26T11:08:50Z</time>
      </trkpt>
      <trkpt lat="48.06679" lon="-3.48754">
        <ele>144.8</ele>
        <time>2025-02-26T11:08:51Z</time>
      </trkpt>
      <trkpt lat="48.0668" lon="-3.48753">
        <ele>144.9</ele>
        <time>2025-02-26T11:08:52Z</time>
      </trkpt>
      <trkpt lat="48.06681" lon="-3.48754">
        <ele>145</ele>
        <time>2025-02-26T11:08:53Z</time>
      </trkpt>
      <trkpt lat="48.06682" lon="-3.48754">
        <ele>145</ele>
        <time>2025-02-26T11:08:54Z</time>
      </trkpt>
      <trkpt lat="48.06683" lon="-3.48754">
        <ele>145.1</ele>
        <time>2025-02-26T11:08:55Z</time>
      </trkpt>
      <trkpt lat="48.06684" lon="-3.48754">
        <ele>145.2</ele>
        <time>2025-02-26T11:08:56Z</time>
      </trkpt>
      <trkpt lat="48.06685" lon="-3.48753">
        <ele>145.3</ele>
        <time>2025-02-26T11:08:57Z</time>
      </trkpt>
      <trkpt lat="48.06686" lon="-3.48752">
        <ele>145.4</ele>
        <time>2025-02-26T11:08:58Z</time>
      </trkpt>
      <trkpt lat="48.06687" lon="-3.48752">
        <ele>145.5</ele>
        <time>2025-02-26T11:08:59Z</time>
      </trkpt>
      <trkpt lat="48.06688" lon="-3.48751">
        <ele>145.5</ele>
        <time>2025-02-26T11:09:00Z</time>
      </trkpt>
      <trkpt lat="48.06689" lon="-3.48751">
        <ele>145.6</ele>
        <time>2025-02-26T11:09:01Z</time>
      </trkpt>
      <trkpt lat="48.0669" lon="-3.48751">
        <ele>145.6</ele>
        <time>2025-02-26T11:09:02Z</time>
      </trkpt>
      <trkpt lat="48.0669" lon="-3.4875">
        <ele>145.7</ele>
        <time>2025-02-26T11:09:03Z</time>
      </trkpt>
      <trkpt lat="48.06691" lon="-3.48749">
        <ele>145.8</ele>
        <time>2025-02-26T11:09:04Z</time>
      </trkpt>
      <trkpt lat="48.06692" lon="-3.48749">
        <ele>145.8</ele>
        <time>2025-02-26T11:09:05Z</time>
      </trkpt>
      <trkpt lat="48.06692" lon="-3.48748">
        <ele>145.9</ele>
        <time>2025-02-26T11:09:06Z</time>
      </trkpt>
      <trkpt lat="48.06693" lon="-3.48747">
        <ele>146</ele>
        <time>2025-02-26T11:09:07Z</time>
      </trkpt>
      <trkpt lat="48.06694" lon="-3.48746">
        <ele>146.1</ele>
        <time>2025-02-26T11:09:08Z</time>
      </trkpt>
      <trkpt lat="48.06695" lon="-3.48746">
        <ele>146.2</ele>
        <time>2025-02-26T11:09:09Z</time>
      </trkpt>
      <trkpt lat="48.06696" lon="-3.48745">
        <ele>146.3</ele>
        <time>2025-02-26T11:09:10Z</time>
      </trkpt>
      <trkpt lat="48.06697" lon="-3.48745">
        <ele>146.4</ele>
        <time>2025-02-26T11:09:11Z</time>
      </trkpt>
      <trkpt lat="48.06698" lon="-3.48744">
        <ele>146.4</ele>
        <time>2025-02-26T11:09:12Z</time>
      </trkpt>
      <trkpt lat="48.06698" lon="-3.48743">
        <ele>146.5</ele>
        <time>2025-02-26T11:09:13Z</time>
      </trkpt>
      <trkpt lat="48.06699" lon="-3.48742">
        <ele>146.6</ele>
        <time>2025-02-26T11:09:14Z</time>
      </trkpt>
      <trkpt lat="48.067" lon="-3.48741">
        <ele>146.7</ele>
        <time>2025-02-26T11:09:15Z</time>
      </trkpt>
      <trkpt lat="48.06701" lon="-3.4874">
        <ele>146.7</ele>
        <time>2025-02-26T11:09:16Z</time>
      </trkpt>
      <trkpt lat="48.06702" lon="-3.4874">
        <ele>146.8</ele>
        <time>2025-02-26T11:09:17Z</time>
      </trkpt>
      <trkpt lat="48.06702" lon="-3.4874">
        <ele>146.8</ele>
        <time>2025-02-26T11:09:18Z</time>
      </trkpt>
      <trkpt lat="48.06703" lon="-3.4874">
        <ele>146.9</ele>
        <time>2025-02-26T11:09:19Z</time>
      </trkpt>
      <trkpt lat="48.06704" lon="-3.4874">
        <ele>146.9</ele>
        <time>2025-02-26T11:09:20Z</time>
      </trkpt>
      <trkpt lat="48.06705" lon="-3.4874">
        <ele>147</ele>
        <time>2025-02-26T11:09:21Z</time>
      </trkpt>
      <trkpt lat="48.06706" lon="-3.4874">
        <ele>147</ele>
        <time>2025-02-26T11:09:22Z</time>
      </trkpt>
      <trkpt lat="48.06707" lon="-3.48739">
        <ele>147.1</ele>
        <time>2025-02-26T11:09:23Z</time>
      </trkpt>
      <trkpt lat="48.06707" lon="-3.48739">
        <ele>147.1</ele>
        <time>2025-02-26T11:09:24Z</time>
      </trkpt>
      <trkpt lat="48.06708" lon="-3.48738">
        <ele>147.2</ele>
        <time>2025-02-26T11:09:25Z</time>
      </trkpt>
      <trkpt lat="48.06709" lon="-3.48738">
        <ele>147.3</ele>
        <time>2025-02-26T11:09:26Z</time>
      </trkpt>
      <trkpt lat="48.0671" lon="-3.48739">
        <ele>147.3</ele>
        <time>2025-02-26T11:09:27Z</time>
      </trkpt>
      <trkpt lat="48.06711" lon="-3.48738">
        <ele>147.4</ele>
        <time>2025-02-26T11:09:28Z</time>
      </trkpt>
      <trkpt lat="48.06712" lon="-3.48738">
        <ele>147.4</ele>
        <time>2025-02-26T11:09:29Z</time>
      </trkpt>
      <trkpt lat="48.06713" lon="-3.48739">
        <ele>147.5</ele>
        <time>2025-02-26T11:09:30Z</time>
      </trkpt>
      <trkpt lat="48.06714" lon="-3.48739">
        <ele>147.5</ele>
        <time>2025-02-26T11:09:31Z</time>
      </trkpt>
      <trkpt lat="48.06715" lon="-3.48739">
        <ele>147.6</ele>
        <time>2025-02-26T11:09:32Z</time>
      </trkpt>
      <trkpt lat="48.06716" lon="-3.48738">
        <ele>147.7</ele>
        <time>2025-02-26T11:09:33Z</time>
      </trkpt>
      <trkpt lat="48.06717" lon="-3.48738">
        <ele>147.7</ele>
        <time>2025-02-26T11:09:34Z</time>
      </trkpt>
      <trkpt lat="48.06718" lon="-3.48738">
        <ele>147.8</ele>
        <time>2025-02-26T11:09:35Z</time>
      </trkpt>
      <trkpt lat="48.06719" lon="-3.48737">
        <ele>147.8</ele>
        <time>2025-02-26T11:09:36Z</time>
      </trkpt>
      <trkpt lat="48.0672" lon="-3.48737">
        <ele>147.9</ele>
        <time>2025-02-26T11:09:37Z</time>
      </trkpt>
      <trkpt lat="48.06721" lon="-3.48737">
        <ele>147.9</ele>
        <time>2025-02-26T11:09:38Z</time>
      </trkpt>
      <trkpt lat="48.06722" lon="-3.48736">
        <ele>148</ele>
        <time>2025-02-26T11:09:39Z</time>
      </trkpt>
      <trkpt lat="48.06723" lon="-3.48737">
        <ele>148</ele>
        <time>2025-02-26T11:09:40Z</time>
      </trkpt>
      <trkpt lat="48.06724" lon="-3.48737">
        <ele>148</ele>
        <time>2025-02-26T11:09:41Z</time>
      </trkpt>
      <trkpt lat="48.06725" lon="-3.48738">
        <ele>148</ele>
        <time>2025-02-26T11:09:42Z</time>
      </trkpt>
      <trkpt lat="48.06726" lon="-3.48738">
        <ele>148</ele>
        <time>2025-02-26T11:09:43Z</time>
      </trkpt>
      <trkpt lat="48.06727" lon="-3.48739">
        <ele>148</ele>
        <time>2025-02-26T11:09:44Z</time>
      </trkpt>
      <trkpt lat="48.06728" lon="-3.48739">
        <ele>148</ele>
        <time>2025-02-26T11:09:45Z</time>
      </trkpt>
      <trkpt lat="48.06729" lon="-3.4874">
        <ele>148</ele>
        <time>2025-02-26T11:09:46Z</time>
      </trkpt>
      <trkpt lat="48.0673" lon="-3.48741">
        <ele>148</ele>
        <time>2025-02-26T11:09:47Z</time>
      </trkpt>
      <trkpt lat="48.06731" lon="-3.48743">
        <ele>148</ele>
        <time>2025-02-26T11:09:48Z</time>
      </trkpt>
      <trkpt lat="48.06731" lon="-3.48745">
        <ele>148</ele>
        <time>2025-02-26T11:09:49Z</time>
      </trkpt>
      <trkpt lat="48.06732" lon="-3.48746">
        <ele>148</ele>
        <time>2025-02-26T11:09:50Z</time>
      </trkpt>
      <trkpt lat="48.06732" lon="-3.48748">
        <ele>148</ele>
        <time>2025-02-26T11:09:51Z</time>
      </trkpt>
      <trkpt lat="48.06732" lon="-3.48749">
        <ele>148</ele>
        <time>2025-02-26T11:09:52Z</time>
      </trkpt>
      <trkpt lat="48.06733" lon="-3.48751">
        <ele>148</ele>
        <time>2025-02-26T11:09:53Z</time>
      </trkpt>
      <trkpt lat="48.06734" lon="-3.48752">
        <ele>148</ele>
        <time>2025-02-26T11:09:54Z</time>
      </trkpt>
      <trkpt lat="48.06735" lon="-3.48753">
        <ele>148</ele>
        <time>2025-02-26T11:09:55Z</time>
      </trkpt>
      <trkpt lat="48.06736" lon="-3.48754">
        <ele>148.1</ele>
        <time>2025-02-26T11:09:56Z</time>
      </trkpt>
      <trkpt lat="48.06736" lon="-3.48755">
        <ele>148.1</ele>
        <time>2025-02-26T11:09:57Z</time>
      </trkpt>
      <trkpt lat="48.06737" lon="-3.48757">
        <ele>148.1</ele>
        <time>2025-02-26T11:09:58Z</time>
      </trkpt>
      <trkpt lat="48.06738" lon="-3.48757">
        <ele>148.1</ele>
        <time>2025-02-26T11:09:59Z</time>
      </trkpt>
      <trkpt lat="48.0674" lon="-3.48758">
        <ele>148.2</ele>
        <time>2025-02-26T11:10:00Z</time>
      </trkpt>
      <trkpt lat="48.0674" lon="-3.4876">
        <ele>148.2</ele>
        <time>2025-02-26T11:10:01Z</time>
      </trkpt>
      <trkpt lat="48.06741" lon="-3.48761">
        <ele>148.3</ele>
        <time>2025-02-26T11:10:02Z</time>
      </trkpt>
      <trkpt lat="48.06741" lon="-3.48763">
        <ele>148.3</ele>
        <time>2025-02-26T11:10:03Z</time>
      </trkpt>
      <trkpt lat="48.06743" lon="-3.48764">
        <ele>148.4</ele>
        <time>2025-02-26T11:10:04Z</time>
      </trkpt>
      <trkpt lat="48.06744" lon="-3.48765">
        <ele>148.4</ele>
        <time>2025-02-26T11:10:05Z</time>
      </trkpt>
      <trkpt lat="48.06744" lon="-3.48766">
        <ele>148.5</ele>
        <time>2025-02-26T11:10:06Z</time>
      </trkpt>
      <trkpt lat="48.06745" lon="-3.48767">
        <ele>148.5</ele>
        <time>2025-02-26T11:10:07Z</time>
      </trkpt>
      <trkpt lat="48.06745" lon="-3.48769">
        <ele>148.6</ele>
        <time>2025-02-26T11:10:08Z</time>
      </trkpt>
      <trkpt lat="48.06746" lon="-3.4877">
        <ele>148.6</ele>
        <time>2025-02-26T11:10:09Z</time>
      </trkpt>
      <trkpt lat="48.06748" lon="-3.4877">
        <ele>148.7</ele>
        <time>2025-02-26T11:10:10Z</time>
      </trkpt>
      <trkpt lat="48.06749" lon="-3.48771">
        <ele>148.7</ele>
        <time>2025-02-26T11:10:11Z</time>
      </trkpt>
      <trkpt lat="48.06749" lon="-3.48772">
        <ele>148.8</ele>
        <time>2025-02-26T11:10:12Z</time>
      </trkpt>
      <trkpt lat="48.0675" lon="-3.48773">
        <ele>148.8</ele>
        <time>2025-02-26T11:10:13Z</time>
      </trkpt>
      <trkpt lat="48.0675" lon="-3.48774">
        <ele>148.9</ele>
        <time>2025-02-26T11:10:14Z</time>
      </trkpt>
      <trkpt lat="48.06751" lon="-3.48776">
        <ele>148.9</ele>
        <time>2025-02-26T11:10:15Z</time>
      </trkpt>
      <trkpt lat="48.06752" lon="-3.48777">
        <ele>148.9</ele>
        <time>2025-02-26T11:10:16Z</time>
      </trkpt>
      <trkpt lat="48.06753" lon="-3.48778">
        <ele>148.9</ele>
        <time>2025-02-26T11:10:17Z</time>
      </trkpt>
      <trkpt lat="48.06754" lon="-3.48778">
        <ele>148.9</ele>
        <time>2025-02-26T11:10:18Z</time>
      </trkpt>
      <trkpt lat="48.06755" lon="-3.4878">
        <ele>148.8</ele>
        <time>2025-02-26T11:10:19Z</time>
      </trkpt>
      <trkpt lat="48.06756" lon="-3.4878">
        <ele>148.8</ele>
        <time>2025-02-26T11:10:20Z</time>
      </trkpt>
      <trkpt lat="48.06757" lon="-3.48781">
        <ele>148.8</ele>
        <time>2025-02-26T11:10:21Z</time>
      </trkpt>
      <trkpt lat="48.06758" lon="-3.48783">
        <ele>148.8</ele>
        <time>2025-02-26T11:10:22Z</time>
      </trkpt>
      <trkpt lat="48.06759" lon="-3.48784">
        <ele>148.8</ele>
        <time>2025-02-26T11:10:23Z</time>
      </trkpt>
      <trkpt lat="48.0676" lon="-3.48785">
        <ele>148.7</ele>
        <time>2025-02-26T11:10:24Z</time>
      </trkpt>
      <trkpt lat="48.0676" lon="-3.48786">
        <ele>148.7</ele>
        <time>2025-02-26T11:10:25Z</time>
      </trkpt>
      <trkpt lat="48.06761" lon="-3.48787">
        <ele>148.7</ele>
        <time>2025-02-26T11:10:26Z</time>
      </trkpt>
      <trkpt lat="48.06762" lon="-3.48789">
        <ele>148.7</ele>
        <time>2025-02-26T11:10:27Z</time>
      </trkpt>
      <trkpt lat="48.06763" lon="-3.48791">
        <ele>148.7</ele>
        <time>2025-02-26T11:10:28Z</time>
      </trkpt>
      <trkpt lat="48.06764" lon="-3.48792">
        <ele>148.8</ele>
        <time>2025-02-26T11:10:29Z</time>
      </trkpt>
      <trkpt lat="48.06765" lon="-3.48793">
        <ele>148.7</ele>
        <time>2025-02-26T11:10:30Z</time>
      </trkpt>
      <trkpt lat="48.06767" lon="-3.48794">
        <ele>148.8</ele>
        <time>2025-02-26T11:10:31Z</time>
      </trkpt>
      <trkpt lat="48.06767" lon="-3.48796">
        <ele>148.8</ele>
        <time>2025-02-26T11:10:32Z</time>
      </trkpt>
      <trkpt lat="48.06768" lon="-3.48798">
        <ele>148.8</ele>
        <time>2025-02-26T11:10:33Z</time>
      </trkpt>
      <trkpt lat="48.06769" lon="-3.48799">
        <ele>148.8</ele>
        <time>2025-02-26T11:10:34Z</time>
      </trkpt>
      <trkpt lat="48.0677" lon="-3.488">
        <ele>148.9</ele>
        <time>2025-02-26T11:10:35Z</time>
      </trkpt>
      <trkpt lat="48.06772" lon="-3.488">
        <ele>148.8</ele>
        <time>2025-02-26T11:10:36Z</time>
      </trkpt>
      <trkpt lat="48.06773" lon="-3.488">
        <ele>148.8</ele>
        <time>2025-02-26T11:10:37Z</time>
      </trkpt>
      <trkpt lat="48.06774" lon="-3.488">
        <ele>148.8</ele>
        <time>2025-02-26T11:10:38Z</time>
      </trkpt>
      <trkpt lat="48.06775" lon="-3.488">
        <ele>148.8</ele>
        <time>2025-02-26T11:10:39Z</time>
      </trkpt>
      <trkpt lat="48.06777" lon="-3.48799">
        <ele>148.8</ele>
        <time>2025-02-26T11:10:40Z</time>
      </trkpt>
      <trkpt lat="48.06778" lon="-3.48799">
        <ele>148.8</ele>
        <time>2025-02-26T11:10:41Z</time>
      </trkpt>
      <trkpt lat="48.06779" lon="-3.48797">
        <ele>148.7</ele>
        <time>2025-02-26T11:10:42Z</time>
      </trkpt>
      <trkpt lat="48.06779" lon="-3.48795">
        <ele>148.6</ele>
        <time>2025-02-26T11:10:43Z</time>
      </trkpt>
      <trkpt lat="48.0678" lon="-3.48794">
        <ele>148.5</ele>
        <time>2025-02-26T11:10:44Z</time>
      </trkpt>
      <trkpt lat="48.06781" lon="-3.48793">
        <ele>148.5</ele>
        <time>2025-02-26T11:10:45Z</time>
      </trkpt>
      <trkpt lat="48.06781" lon="-3.48792">
        <ele>148.4</ele>
        <time>2025-02-26T11:10:46Z</time>
      </trkpt>
      <trkpt lat="48.06782" lon="-3.48791">
        <ele>148.4</ele>
        <time>2025-02-26T11:10:47Z</time>
      </trkpt>
      <trkpt lat="48.06783" lon="-3.4879">
        <ele>148.4</ele>
        <time>2025-02-26T11:10:48Z</time>
      </trkpt>
      <trkpt lat="48.06784" lon="-3.4879">
        <ele>148.3</ele>
        <time>2025-02-26T11:10:49Z</time>
      </trkpt>
      <trkpt lat="48.06785" lon="-3.4879">
        <ele>148.3</ele>
        <time>2025-02-26T11:10:50Z</time>
      </trkpt>
      <trkpt lat="48.06787" lon="-3.4879">
        <ele>148.3</ele>
        <time>2025-02-26T11:10:51Z</time>
      </trkpt>
      <trkpt lat="48.06788" lon="-3.48791">
        <ele>148.3</ele>
        <time>2025-02-26T11:10:52Z</time>
      </trkpt>
      <trkpt lat="48.06788" lon="-3.48792">
        <ele>148.3</ele>
        <time>2025-02-26T11:10:53Z</time>
      </trkpt>
      <trkpt lat="48.06789" lon="-3.48793">
        <ele>148.3</ele>
        <time>2025-02-26T11:10:54Z</time>
      </trkpt>
      <trkpt lat="48.0679" lon="-3.48794">
        <ele>148.3</ele>
        <time>2025-02-26T11:10:55Z</time>
      </trkpt>
      <trkpt lat="48.06791" lon="-3.48796">
        <ele>148.3</ele>
        <time>2025-02-26T11:10:56Z</time>
      </trkpt>
      <trkpt lat="48.06792" lon="-3.48796">
        <ele>148.3</ele>
        <time>2025-02-26T11:10:57Z</time>
      </trkpt>
      <trkpt lat="48.06793" lon="-3.48797">
        <ele>148.3</ele>
        <time>2025-02-26T11:10:58Z</time>
      </trkpt>
      <trkpt lat="48.06794" lon="-3.48797">
        <ele>148.3</ele>
        <time>2025-02-26T11:10:59Z</time>
      </trkpt>
      <trkpt lat="48.06795" lon="-3.48798">
        <ele>148.3</ele>
        <time>2025-02-26T11:11:00Z</time>
      </trkpt>
      <trkpt lat="48.06796" lon="-3.488">
        <ele>148.3</ele>
        <time>2025-02-26T11:11:01Z</time>
      </trkpt>
      <trkpt lat="48.06797" lon="-3.488">
        <ele>148.3</ele>
        <time>2025-02-26T11:11:02Z</time>
      </trkpt>
      <trkpt lat="48.06798" lon="-3.48801">
        <ele>148.2</ele>
        <time>2025-02-26T11:11:03Z</time>
      </trkpt>
      <trkpt lat="48.06799" lon="-3.48802">
        <ele>148.2</ele>
        <time>2025-02-26T11:11:04Z</time>
      </trkpt>
      <trkpt lat="48.068" lon="-3.48802">
        <ele>148.2</ele>
        <time>2025-02-26T11:11:05Z</time>
      </trkpt>
      <trkpt lat="48.06802" lon="-3.48803">
        <ele>148.1</ele>
        <time>2025-02-26T11:11:06Z</time>
      </trkpt>
      <trkpt lat="48.06803" lon="-3.48804">
        <ele>148.1</ele>
        <time>2025-02-26T11:11:07Z</time>
      </trkpt>
      <trkpt lat="48.06803" lon="-3.48805">
        <ele>148.1</ele>
        <time>2025-02-26T11:11:08Z</time>
      </trkpt>
      <trkpt lat="48.06804" lon="-3.48806">
        <ele>148</ele>
        <time>2025-02-26T11:11:09Z</time>
      </trkpt>
      <trkpt lat="48.06805" lon="-3.48807">
        <ele>148</ele>
        <time>2025-02-26T11:11:10Z</time>
      </trkpt>
      <trkpt lat="48.06806" lon="-3.48808">
        <ele>148</ele>
        <time>2025-02-26T11:11:11Z</time>
      </trkpt>
      <trkpt lat="48.06807" lon="-3.4881">
        <ele>148</ele>
        <time>2025-02-26T11:11:12Z</time>
      </trkpt>
      <trkpt lat="48.06808" lon="-3.48811">
        <ele>148</ele>
        <time>2025-02-26T11:11:13Z</time>
      </trkpt>
      <trkpt lat="48.06809" lon="-3.48811">
        <ele>148</ele>
        <time>2025-02-26T11:11:14Z</time>
      </trkpt>
      <trkpt lat="48.0681" lon="-3.48811">
        <ele>148</ele>
        <time>2025-02-26T11:11:15Z</time>
      </trkpt>
      <trkpt lat="48.06811" lon="-3.48813">
        <ele>148</ele>
        <time>2025-02-26T11:11:16Z</time>
      </trkpt>
      <trkpt lat="48.06812" lon="-3.48814">
        <ele>148</ele>
        <time>2025-02-26T11:11:17Z</time>
      </trkpt>
      <trkpt lat="48.06812" lon="-3.48816">
        <ele>148</ele>
        <time>2025-02-26T11:11:18Z</time>
      </trkpt>
      <trkpt lat="48.06813" lon="-3.48818">
        <ele>148</ele>
        <time>2025-02-26T11:11:19Z</time>
      </trkpt>
      <trkpt lat="48.06814" lon="-3.48818">
        <ele>148</ele>
        <time>2025-02-26T11:11:20Z</time>
      </trkpt>
      <trkpt lat="48.06816" lon="-3.48818">
        <ele>148</ele>
        <time>2025-02-26T11:11:21Z</time>
      </trkpt>
      <trkpt lat="48.06817" lon="-3.48819">
        <ele>148</ele>
        <time>2025-02-26T11:11:22Z</time>
      </trkpt>
      <trkpt lat="48.06817" lon="-3.4882">
        <ele>148</ele>
        <time>2025-02-26T11:11:23Z</time>
      </trkpt>
      <trkpt lat="48.06818" lon="-3.4882">
        <ele>148</ele>
        <time>2025-02-26T11:11:24Z</time>
      </trkpt>
      <trkpt lat="48.06819" lon="-3.48821">
        <ele>148</ele>
        <time>2025-02-26T11:11:25Z</time>
      </trkpt>
      <trkpt lat="48.0682" lon="-3.48822">
        <ele>148</ele>
        <time>2025-02-26T11:11:26Z</time>
      </trkpt>
      <trkpt lat="48.06821" lon="-3.48822">
        <ele>148</ele>
        <time>2025-02-26T11:11:27Z</time>
      </trkpt>
      <trkpt lat="48.06822" lon="-3.48823">
        <ele>148</ele>
        <time>2025-02-26T11:11:28Z</time>
      </trkpt>
      <trkpt lat="48.06823" lon="-3.48824">
        <ele>148</ele>
        <time>2025-02-26T11:11:29Z</time>
      </trkpt>
      <trkpt lat="48.06824" lon="-3.48824">
        <ele>148</ele>
        <time>2025-02-26T11:11:30Z</time>
      </trkpt>
      <trkpt lat="48.06825" lon="-3.48825">
        <ele>148</ele>
        <time>2025-02-26T11:11:31Z</time>
      </trkpt>
      <trkpt lat="48.06826" lon="-3.48826">
        <ele>148</ele>
        <time>2025-02-26T11:11:32Z</time>
      </trkpt>
      <trkpt lat="48.06827" lon="-3.48826">
        <ele>148</ele>
        <time>2025-02-26T11:11:33Z</time>
      </trkpt>
      <trkpt lat="48.06828" lon="-3.48827">
        <ele>148</ele>
        <time>2025-02-26T11:11:34Z</time>
      </trkpt>
      <trkpt lat="48.0683" lon="-3.48827">
        <ele>148</ele>
        <time>2025-02-26T11:11:35Z</time>
      </trkpt>
      <trkpt lat="48.06831" lon="-3.48828">
        <ele>148</ele>
        <time>2025-02-26T11:11:36Z</time>
      </trkpt>
      <trkpt lat="48.06832" lon="-3.48829">
        <ele>148</ele>
        <time>2025-02-26T11:11:37Z</time>
      </trkpt>
      <trkpt lat="48.06833" lon="-3.48829">
        <ele>148</ele>
        <time>2025-02-26T11:11:38Z</time>
      </trkpt>
      <trkpt lat="48.06834" lon="-3.4883">
        <ele>148</ele>
        <time>2025-02-26T11:11:39Z</time>
      </trkpt>
      <trkpt lat="48.06834" lon="-3.48832">
        <ele>148</ele>
        <time>2025-02-26T11:11:40Z</time>
      </trkpt>
      <trkpt lat="48.06835" lon="-3.48833">
        <ele>148</ele>
        <time>2025-02-26T11:11:41Z</time>
      </trkpt>
      <trkpt lat="48.06837" lon="-3.48833">
        <ele>148</ele>
        <time>2025-02-26T11:11:42Z</time>
      </trkpt>
      <trkpt lat="48.06838" lon="-3.48834">
        <ele>148</ele>
        <time>2025-02-26T11:11:43Z</time>
      </trkpt>
      <trkpt lat="48.06839" lon="-3.48835">
        <ele>148</ele>
        <time>2025-02-26T11:11:44Z</time>
      </trkpt>
      <trkpt lat="48.06839" lon="-3.48836">
        <ele>148</ele>
        <time>2025-02-26T11:11:45Z</time>
      </trkpt>
      <trkpt lat="48.0684" lon="-3.48837">
        <ele>148</ele>
        <time>2025-02-26T11:11:46Z</time>
      </trkpt>
      <trkpt lat="48.06842" lon="-3.48837">
        <ele>148</ele>
        <time>2025-02-26T11:11:47Z</time>
      </trkpt>
      <trkpt lat="48.06843" lon="-3.48837">
        <ele>148</ele>
        <time>2025-02-26T11:11:48Z</time>
      </trkpt>
      <trkpt lat="48.06844" lon="-3.48838">
        <ele>148</ele>
        <time>2025-02-26T11:11:49Z</time>
      </trkpt>
      <trkpt lat="48.06845" lon="-3.48839">
        <ele>148</ele>
        <time>2025-02-26T11:11:50Z</time>
      </trkpt>
      <trkpt lat="48.06846" lon="-3.4884">
        <ele>148</ele>
        <time>2025-02-26T11:11:51Z</time>
      </trkpt>
      <trkpt lat="48.06847" lon="-3.48842">
        <ele>148</ele>
        <time>2025-02-26T11:11:52Z</time>
      </trkpt>
      <trkpt lat="48.06847" lon="-3.48843">
        <ele>148</ele>
        <time>2025-02-26T11:11:53Z</time>
      </trkpt>
      <trkpt lat="48.06849" lon="-3.48843">
        <ele>148</ele>
        <time>2025-02-26T11:11:54Z</time>
      </trkpt>
      <trkpt lat="48.0685" lon="-3.48845">
        <ele>148</ele>
        <time>2025-02-26T11:11:55Z</time>
      </trkpt>
      <trkpt lat="48.06851" lon="-3.48846">
        <ele>148</ele>
        <time>2025-02-26T11:11:56Z</time>
      </trkpt>
      <trkpt lat="48.06852" lon="-3.48846">
        <ele>148</ele>
        <time>2025-02-26T11:11:57Z</time>
      </trkpt>
      <trkpt lat="48.06853" lon="-3.48848">
        <ele>148</ele>
        <time>2025-02-26T11:11:58Z</time>
      </trkpt>
      <trkpt lat="48.06854" lon="-3.48848">
        <ele>148</ele>
        <time>2025-02-26T11:11:59Z</time>
      </trkpt>
      <trkpt lat="48.06855" lon="-3.48849">
        <ele>148</ele>
        <time>2025-02-26T11:12:00Z</time>
      </trkpt>
      <trkpt lat="48.06856" lon="-3.4885">
        <ele>148</ele>
        <time>2025-02-26T11:12:01Z</time>
      </trkpt>
      <trkpt lat="48.06857" lon="-3.48851">
        <ele>148</ele>
        <time>2025-02-26T11:12:02Z</time>
      </trkpt>
      <trkpt lat="48.06858" lon="-3.48851">
        <ele>148</ele>
        <time>2025-02-26T11:12:03Z</time>
      </trkpt>
      <trkpt lat="48.0686" lon="-3.48851">
        <ele>148</ele>
        <time>2025-02-26T11:12:04Z</time>
      </trkpt>
      <trkpt lat="48.06861" lon="-3.48851">
        <ele>148</ele>
        <time>2025-02-26T11:12:05Z</time>
      </trkpt>
      <trkpt lat="48.06862" lon="-3.48851">
        <ele>148</ele>
        <time>2025-02-26T11:12:06Z</time>
      </trkpt>
      <trkpt lat="48.06863" lon="-3.48852">
        <ele>148.1</ele>
        <time>2025-02-26T11:12:07Z</time>
      </trkpt>
      <trkpt lat="48.06864" lon="-3.48853">
        <ele>148.1</ele>
        <time>2025-02-26T11:12:08Z</time>
      </trkpt>
      <trkpt lat="48.06865" lon="-3.48854">
        <ele>148.1</ele>
        <time>2025-02-26T11:12:09Z</time>
      </trkpt>
      <trkpt lat="48.06866" lon="-3.48855">
        <ele>148.2</ele>
        <time>2025-02-26T11:12:10Z</time>
      </trkpt>
      <trkpt lat="48.06867" lon="-3.48856">
        <ele>148.2</ele>
        <time>2025-02-26T11:12:11Z</time>
      </trkpt>
      <trkpt lat="48.06867" lon="-3.48857">
        <ele>148.2</ele>
        <time>2025-02-26T11:12:12Z</time>
      </trkpt>
      <trkpt lat="48.06868" lon="-3.48859">
        <ele>148.2</ele>
        <time>2025-02-26T11:12:13Z</time>
      </trkpt>
      <trkpt lat="48.06869" lon="-3.48859">
        <ele>148.3</ele>
        <time>2025-02-26T11:12:14Z</time>
      </trkpt>
      <trkpt lat="48.0687" lon="-3.48861">
        <ele>148.3</ele>
        <time>2025-02-26T11:12:15Z</time>
      </trkpt>
      <trkpt lat="48.06871" lon="-3.48862">
        <ele>148.4</ele>
        <time>2025-02-26T11:12:16Z</time>
      </trkpt>
      <trkpt lat="48.06872" lon="-3.48862">
        <ele>148.4</ele>
        <time>2025-02-26T11:12:17Z</time>
      </trkpt>
      <trkpt lat="48.06873" lon="-3.48863">
        <ele>148.4</ele>
        <time>2025-02-26T11:12:18Z</time>
      </trkpt>
      <trkpt lat="48.06874" lon="-3.48864">
        <ele>148.5</ele>
        <time>2025-02-26T11:12:19Z</time>
      </trkpt>
      <trkpt lat="48.06875" lon="-3.48865">
        <ele>148.5</ele>
        <time>2025-02-26T11:12:20Z</time>
      </trkpt>
      <trkpt lat="48.06876" lon="-3.48866">
        <ele>148.6</ele>
        <time>2025-02-26T11:12:21Z</time>
      </trkpt>
      <trkpt lat="48.06877" lon="-3.48867">
        <ele>148.6</ele>
        <time>2025-02-26T11:12:22Z</time>
      </trkpt>
      <trkpt lat="48.06878" lon="-3.48867">
        <ele>148.7</ele>
        <time>2025-02-26T11:12:23Z</time>
      </trkpt>
      <trkpt lat="48.06879" lon="-3.48868">
        <ele>148.7</ele>
        <time>2025-02-26T11:12:24Z</time>
      </trkpt>
      <trkpt lat="48.0688" lon="-3.48869">
        <ele>148.8</ele>
        <time>2025-02-26T11:12:25Z</time>
      </trkpt>
      <trkpt lat="48.06881" lon="-3.4887">
        <ele>148.8</ele>
        <time>2025-02-26T11:12:26Z</time>
      </trkpt>
      <trkpt lat="48.06882" lon="-3.4887">
        <ele>148.8</ele>
        <time>2025-02-26T11:12:27Z</time>
      </trkpt>
      <trkpt lat="48.06883" lon="-3.48871">
        <ele>148.9</ele>
        <time>2025-02-26T11:12:28Z</time>
      </trkpt>
      <trkpt lat="48.06883" lon="-3.48872">
        <ele>148.9</ele>
        <time>2025-02-26T11:12:29Z</time>
      </trkpt>
      <trkpt lat="48.06884" lon="-3.48873">
        <ele>148.9</ele>
        <time>2025-02-26T11:12:30Z</time>
      </trkpt>
      <trkpt lat="48.06885" lon="-3.48874">
        <ele>148.9</ele>
        <time>2025-02-26T11:12:31Z</time>
      </trkpt>
      <trkpt lat="48.06886" lon="-3.48875">
        <ele>149</ele>
        <time>2025-02-26T11:12:32Z</time>
      </trkpt>
      <trkpt lat="48.06887" lon="-3.48876">
        <ele>149</ele>
        <time>2025-02-26T11:12:33Z</time>
      </trkpt>
      <trkpt lat="48.06888" lon="-3.48877">
        <ele>149</ele>
        <time>2025-02-26T11:12:34Z</time>
      </trkpt>
      <trkpt lat="48.06888" lon="-3.48879">
        <ele>149</ele>
        <time>2025-02-26T11:12:35Z</time>
      </trkpt>
      <trkpt lat="48.06889" lon="-3.4888">
        <ele>149</ele>
        <time>2025-02-26T11:12:36Z</time>
      </trkpt>
      <trkpt lat="48.0689" lon="-3.48881">
        <ele>149</ele>
        <time>2025-02-26T11:12:37Z</time>
      </trkpt>
      <trkpt lat="48.06891" lon="-3.48883">
        <ele>149</ele>
        <time>2025-02-26T11:12:38Z</time>
      </trkpt>
      <trkpt lat="48.06892" lon="-3.48884">
        <ele>149</ele>
        <time>2025-02-26T11:12:39Z</time>
      </trkpt>
      <trkpt lat="48.06893" lon="-3.48885">
        <ele>149</ele>
        <time>2025-02-26T11:12:40Z</time>
      </trkpt>
      <trkpt lat="48.06894" lon="-3.48885">
        <ele>149</ele>
        <time>2025-02-26T11:12:41Z</time>
      </trkpt>
      <trkpt lat="48.06894" lon="-3.48887">
        <ele>149</ele>
        <time>2025-02-26T11:12:42Z</time>
      </trkpt>
      <trkpt lat="48.06895" lon="-3.48888">
        <ele>149</ele>
        <time>2025-02-26T11:12:43Z</time>
      </trkpt>
      <trkpt lat="48.06896" lon="-3.48888">
        <ele>149</ele>
        <time>2025-02-26T11:12:44Z</time>
      </trkpt>
      <trkpt lat="48.06897" lon="-3.48888">
        <ele>149</ele>
        <time>2025-02-26T11:12:45Z</time>
      </trkpt>
      <trkpt lat="48.06898" lon="-3.48888">
        <ele>149</ele>
        <time>2025-02-26T11:12:46Z</time>
      </trkpt>
      <trkpt lat="48.06899" lon="-3.48888">
        <ele>149</ele>
        <time>2025-02-26T11:12:47Z</time>
      </trkpt>
      <trkpt lat="48.069" lon="-3.48887">
        <ele>149</ele>
        <time>2025-02-26T11:12:48Z</time>
      </trkpt>
      <trkpt lat="48.06901" lon="-3.48886">
        <ele>149</ele>
        <time>2025-02-26T11:12:49Z</time>
      </trkpt>
      <trkpt lat="48.06902" lon="-3.48885">
        <ele>149</ele>
        <time>2025-02-26T11:12:50Z</time>
      </trkpt>
      <trkpt lat="48.06903" lon="-3.48885">
        <ele>149</ele>
        <time>2025-02-26T11:12:51Z</time>
      </trkpt>
      <trkpt lat="48.06904" lon="-3.48883">
        <ele>149</ele>
        <time>2025-02-26T11:12:52Z</time>
      </trkpt>
      <trkpt lat="48.06905" lon="-3.48882">
        <ele>149</ele>
        <time>2025-02-26T11:12:53Z</time>
      </trkpt>
      <trkpt lat="48.06906" lon="-3.48881">
        <ele>149</ele>
        <time>2025-02-26T11:12:54Z</time>
      </trkpt>
      <trkpt lat="48.06906" lon="-3.48879">
        <ele>149</ele>
        <time>2025-02-26T11:12:55Z</time>
      </trkpt>
      <trkpt lat="48.06907" lon="-3.48878">
        <ele>149</ele>
        <time>2025-02-26T11:12:56Z</time>
      </trkpt>
      <trkpt lat="48.06908" lon="-3.48877">
        <ele>149</ele>
        <time>2025-02-26T11:12:57Z</time>
      </trkpt>
      <trkpt lat="48.06908" lon="-3.48875">
        <ele>149</ele>
        <time>2025-02-26T11:12:58Z</time>
      </trkpt>
      <trkpt lat="48.06909" lon="-3.48874">
        <ele>149</ele>
        <time>2025-02-26T11:12:59Z</time>
      </trkpt>
      <trkpt lat="48.06909" lon="-3.48873">
        <ele>149</ele>
        <time>2025-02-26T11:13:00Z</time>
      </trkpt>
      <trkpt lat="48.06909" lon="-3.48871">
        <ele>149</ele>
        <time>2025-02-26T11:13:01Z</time>
      </trkpt>
      <trkpt lat="48.06909" lon="-3.4887">
        <ele>149</ele>
        <time>2025-02-26T11:13:02Z</time>
      </trkpt>
      <trkpt lat="48.0691" lon="-3.48868">
        <ele>149</ele>
        <time>2025-02-26T11:13:03Z</time>
      </trkpt>
      <trkpt lat="48.06911" lon="-3.48866">
        <ele>149</ele>
        <time>2025-02-26T11:13:04Z</time>
      </trkpt>
      <trkpt lat="48.06911" lon="-3.48864">
        <ele>149</ele>
        <time>2025-02-26T11:13:05Z</time>
      </trkpt>
      <trkpt lat="48.06911" lon="-3.48863">
        <ele>149</ele>
        <time>2025-02-26T11:13:06Z</time>
      </trkpt>
      <trkpt lat="48.06912" lon="-3.48861">
        <ele>149</ele>
        <time>2025-02-26T11:13:07Z</time>
      </trkpt>
      <trkpt lat="48.06912" lon="-3.48859">
        <ele>149.1</ele>
        <time>2025-02-26T11:13:08Z</time>
      </trkpt>
      <trkpt lat="48.06912" lon="-3.48858">
        <ele>149.1</ele>
        <time>2025-02-26T11:13:09Z</time>
      </trkpt>
      <trkpt lat="48.06913" lon="-3.48856">
        <ele>149.2</ele>
        <time>2025-02-26T11:13:10Z</time>
      </trkpt>
      <trkpt lat="48.06913" lon="-3.48855">
        <ele>149.2</ele>
        <time>2025-02-26T11:13:11Z</time>
      </trkpt>
      <trkpt lat="48.06914" lon="-3.48853">
        <ele>149.3</ele>
        <time>2025-02-26T11:13:12Z</time>
      </trkpt>
      <trkpt lat="48.06915" lon="-3.48852">
        <ele>149.3</ele>
        <time>2025-02-26T11:13:13Z</time>
      </trkpt>
      <trkpt lat="48.06915" lon="-3.4885">
        <ele>149.4</ele>
        <time>2025-02-26T11:13:14Z</time>
      </trkpt>
      <trkpt lat="48.06916" lon="-3.48849">
        <ele>149.4</ele>
        <time>2025-02-26T11:13:15Z</time>
      </trkpt>
      <trkpt lat="48.06916" lon="-3.48847">
        <ele>149.5</ele>
        <time>2025-02-26T11:13:16Z</time>
      </trkpt>
      <trkpt lat="48.06916" lon="-3.48846">
        <ele>149.6</ele>
        <time>2025-02-26T11:13:17Z</time>
      </trkpt>
      <trkpt lat="48.06918" lon="-3.48845">
        <ele>149.6</ele>
        <time>2025-02-26T11:13:18Z</time>
      </trkpt>
      <trkpt lat="48.06919" lon="-3.48843">
        <ele>149.7</ele>
        <time>2025-02-26T11:13:19Z</time>
      </trkpt>
      <trkpt lat="48.06919" lon="-3.48842">
        <ele>149.7</ele>
        <time>2025-02-26T11:13:20Z</time>
      </trkpt>
      <trkpt lat="48.0692" lon="-3.48841">
        <ele>149.8</ele>
        <time>2025-02-26T11:13:21Z</time>
      </trkpt>
      <trkpt lat="48.0692" lon="-3.48839">
        <ele>149.8</ele>
        <time>2025-02-26T11:13:22Z</time>
      </trkpt>
      <trkpt lat="48.0692" lon="-3.48837">
        <ele>149.9</ele>
        <time>2025-02-26T11:13:23Z</time>
      </trkpt>
      <trkpt lat="48.06921" lon="-3.48836">
        <ele>149.9</ele>
        <time>2025-02-26T11:13:24Z</time>
      </trkpt>
      <trkpt lat="48.06922" lon="-3.48835">
        <ele>150</ele>
        <time>2025-02-26T11:13:25Z</time>
      </trkpt>
      <trkpt lat="48.06923" lon="-3.48834">
        <ele>150</ele>
        <time>2025-02-26T11:13:26Z</time>
      </trkpt>
      <trkpt lat="48.06924" lon="-3.48832">
        <ele>150</ele>
        <time>2025-02-26T11:13:27Z</time>
      </trkpt>
      <trkpt lat="48.06924" lon="-3.4883">
        <ele>149.9</ele>
        <time>2025-02-26T11:13:28Z</time>
      </trkpt>
      <trkpt lat="48.06925" lon="-3.48829">
        <ele>149.9</ele>
        <time>2025-02-26T11:13:29Z</time>
      </trkpt>
      <trkpt lat="48.06926" lon="-3.48829">
        <ele>149.9</ele>
        <time>2025-02-26T11:13:30Z</time>
      </trkpt>
      <trkpt lat="48.06927" lon="-3.48828">
        <ele>149.9</ele>
        <time>2025-02-26T11:13:31Z</time>
      </trkpt>
      <trkpt lat="48.06929" lon="-3.48828">
        <ele>149.9</ele>
        <time>2025-02-26T11:13:32Z</time>
      </trkpt>
      <trkpt lat="48.0693" lon="-3.48829">
        <ele>149.9</ele>
        <time>2025-02-26T11:13:33Z</time>
      </trkpt>
      <trkpt lat="48.06931" lon="-3.48828">
        <ele>149.9</ele>
        <time>2025-02-26T11:13:34Z</time>
      </trkpt>
      <trkpt lat="48.06932" lon="-3.48827">
        <ele>149.9</ele>
        <time>2025-02-26T11:13:35Z</time>
      </trkpt>
      <trkpt lat="48.06934" lon="-3.48827">
        <ele>149.9</ele>
        <time>2025-02-26T11:13:36Z</time>
      </trkpt>
      <trkpt lat="48.06935" lon="-3.48827">
        <ele>149.9</ele>
        <time>2025-02-26T11:13:37Z</time>
      </trkpt>
      <trkpt lat="48.06936" lon="-3.48827">
        <ele>149.9</ele>
        <time>2025-02-26T11:13:38Z</time>
      </trkpt>
      <trkpt lat="48.06937" lon="-3.48827">
        <ele>149.9</ele>
        <time>2025-02-26T11:13:39Z</time>
      </trkpt>
      <trkpt lat="48.06938" lon="-3.48827">
        <ele>149.9</ele>
        <time>2025-02-26T11:13:40Z</time>
      </trkpt>
      <trkpt lat="48.06939" lon="-3.48827">
        <ele>150</ele>
        <time>2025-02-26T11:13:41Z</time>
      </trkpt>
      <trkpt lat="48.0694" lon="-3.48827">
        <ele>150</ele>
        <time>2025-02-26T11:13:42Z</time>
      </trkpt>
      <trkpt lat="48.06942" lon="-3.48827">
        <ele>150</ele>
        <time>2025-02-26T11:13:43Z</time>
      </trkpt>
      <trkpt lat="48.06943" lon="-3.48827">
        <ele>150</ele>
        <time>2025-02-26T11:13:44Z</time>
      </trkpt>
      <trkpt lat="48.06944" lon="-3.48827">
        <ele>150</ele>
        <time>2025-02-26T11:13:45Z</time>
      </trkpt>
      <trkpt lat="48.06945" lon="-3.48827">
        <ele>150</ele>
        <time>2025-02-26T11:13:46Z</time>
      </trkpt>
      <trkpt lat="48.06946" lon="-3.48827">
        <ele>150</ele>
        <time>2025-02-26T11:13:47Z</time>
      </trkpt>
      <trkpt lat="48.06947" lon="-3.48828">
        <ele>150.1</ele>
        <time>2025-02-26T11:13:48Z</time>
      </trkpt>
      <trkpt lat="48.06948" lon="-3.48828">
        <ele>150.1</ele>
        <time>2025-02-26T11:13:49Z</time>
      </trkpt>
      <trkpt lat="48.06949" lon="-3.48828">
        <ele>150.1</ele>
        <time>2025-02-26T11:13:50Z</time>
      </trkpt>
      <trkpt lat="48.0695" lon="-3.48828">
        <ele>150.2</ele>
        <time>2025-02-26T11:13:51Z</time>
      </trkpt>
      <trkpt lat="48.06951" lon="-3.48828">
        <ele>150.2</ele>
        <time>2025-02-26T11:13:52Z</time>
      </trkpt>
      <trkpt lat="48.06952" lon="-3.48827">
        <ele>150.3</ele>
        <time>2025-02-26T11:13:53Z</time>
      </trkpt>
      <trkpt lat="48.06953" lon="-3.48827">
        <ele>150.3</ele>
        <time>2025-02-26T11:13:54Z</time>
      </trkpt>
      <trkpt lat="48.06954" lon="-3.48826">
        <ele>150.3</ele>
        <time>2025-02-26T11:13:55Z</time>
      </trkpt>
      <trkpt lat="48.06955" lon="-3.48826">
        <ele>150.4</ele>
        <time>2025-02-26T11:13:56Z</time>
      </trkpt>
      <trkpt lat="48.06956" lon="-3.48826">
        <ele>150.4</ele>
        <time>2025-02-26T11:13:57Z</time>
      </trkpt>
      <trkpt lat="48.06957" lon="-3.48826">
        <ele>150.4</ele>
        <time>2025-02-26T11:13:58Z</time>
      </trkpt>
      <trkpt lat="48.06958" lon="-3.48826">
        <ele>150.5</ele>
        <time>2025-02-26T11:13:59Z</time>
      </trkpt>
      <trkpt lat="48.06959" lon="-3.48826">
        <ele>150.5</ele>
        <time>2025-02-26T11:14:00Z</time>
      </trkpt>
      <trkpt lat="48.0696" lon="-3.48827">
        <ele>150.6</ele>
        <time>2025-02-26T11:14:01Z</time>
      </trkpt>
      <trkpt lat="48.06962" lon="-3.48827">
        <ele>150.6</ele>
        <time>2025-02-26T11:14:02Z</time>
      </trkpt>
      <trkpt lat="48.06963" lon="-3.48827">
        <ele>150.7</ele>
        <time>2025-02-26T11:14:03Z</time>
      </trkpt>
      <trkpt lat="48.06964" lon="-3.48827">
        <ele>150.7</ele>
        <time>2025-02-26T11:14:04Z</time>
      </trkpt>
      <trkpt lat="48.06965" lon="-3.48827">
        <ele>150.7</ele>
        <time>2025-02-26T11:14:05Z</time>
      </trkpt>
      <trkpt lat="48.06966" lon="-3.48828">
        <ele>150.8</ele>
        <time>2025-02-26T11:14:06Z</time>
      </trkpt>
      <trkpt lat="48.06967" lon="-3.48828">
        <ele>150.8</ele>
        <time>2025-02-26T11:14:07Z</time>
      </trkpt>
      <trkpt lat="48.06968" lon="-3.48829">
        <ele>150.9</ele>
        <time>2025-02-26T11:14:08Z</time>
      </trkpt>
      <trkpt lat="48.06969" lon="-3.48829">
        <ele>150.9</ele>
        <time>2025-02-26T11:14:09Z</time>
      </trkpt>
      <trkpt lat="48.0697" lon="-3.48829">
        <ele>150.9</ele>
        <time>2025-02-26T11:14:10Z</time>
      </trkpt>
      <trkpt lat="48.06971" lon="-3.48829">
        <ele>151</ele>
        <time>2025-02-26T11:14:11Z</time>
      </trkpt>
      <trkpt lat="48.06972" lon="-3.48829">
        <ele>151</ele>
        <time>2025-02-26T11:14:12Z</time>
      </trkpt>
      <trkpt lat="48.06974" lon="-3.48829">
        <ele>151</ele>
        <time>2025-02-26T11:14:13Z</time>
      </trkpt>
      <trkpt lat="48.06975" lon="-3.4883">
        <ele>151</ele>
        <time>2025-02-26T11:14:14Z</time>
      </trkpt>
      <trkpt lat="48.06976" lon="-3.48831">
        <ele>151</ele>
        <time>2025-02-26T11:14:15Z</time>
      </trkpt>
      <trkpt lat="48.06977" lon="-3.48831">
        <ele>151</ele>
        <time>2025-02-26T11:14:16Z</time>
      </trkpt>
      <trkpt lat="48.06978" lon="-3.48832">
        <ele>151</ele>
        <time>2025-02-26T11:14:17Z</time>
      </trkpt>
      <trkpt lat="48.06979" lon="-3.48832">
        <ele>151</ele>
        <time>2025-02-26T11:14:18Z</time>
      </trkpt>
      <trkpt lat="48.0698" lon="-3.48832">
        <ele>151</ele>
        <time>2025-02-26T11:14:19Z</time>
      </trkpt>
      <trkpt lat="48.06981" lon="-3.48832">
        <ele>151</ele>
        <time>2025-02-26T11:14:20Z</time>
      </trkpt>
      <trkpt lat="48.06982" lon="-3.48832">
        <ele>151</ele>
        <time>2025-02-26T11:14:21Z</time>
      </trkpt>
      <trkpt lat="48.06983" lon="-3.48833">
        <ele>151</ele>
        <time>2025-02-26T11:14:22Z</time>
      </trkpt>
      <trkpt lat="48.06984" lon="-3.48833">
        <ele>151</ele>
        <time>2025-02-26T11:14:23Z</time>
      </trkpt>
      <trkpt lat="48.06985" lon="-3.48834">
        <ele>151</ele>
        <time>2025-02-26T11:14:24Z</time>
      </trkpt>
      <trkpt lat="48.06987" lon="-3.48834">
        <ele>151</ele>
        <time>2025-02-26T11:14:25Z</time>
      </trkpt>
      <trkpt lat="48.06988" lon="-3.48834">
        <ele>151</ele>
        <time>2025-02-26T11:14:26Z</time>
      </trkpt>
      <trkpt lat="48.06989" lon="-3.48835">
        <ele>150.9</ele>
        <time>2025-02-26T11:14:27Z</time>
      </trkpt>
      <trkpt lat="48.0699" lon="-3.48835">
        <ele>150.9</ele>
        <time>2025-02-26T11:14:28Z</time>
      </trkpt>
      <trkpt lat="48.06991" lon="-3.48835">
        <ele>150.9</ele>
        <time>2025-02-26T11:14:29Z</time>
      </trkpt>
      <trkpt lat="48.06993" lon="-3.48835">
        <ele>150.9</ele>
        <time>2025-02-26T11:14:30Z</time>
      </trkpt>
      <trkpt lat="48.06994" lon="-3.48836">
        <ele>150.9</ele>
        <time>2025-02-26T11:14:31Z</time>
      </trkpt>
      <trkpt lat="48.06995" lon="-3.48836">
        <ele>150.9</ele>
        <time>2025-02-26T11:14:32Z</time>
      </trkpt>
      <trkpt lat="48.06996" lon="-3.48837">
        <ele>150.9</ele>
        <time>2025-02-26T11:14:33Z</time>
      </trkpt>
      <trkpt lat="48.06998" lon="-3.48838">
        <ele>150.9</ele>
        <time>2025-02-26T11:14:34Z</time>
      </trkpt>
      <trkpt lat="48.06999" lon="-3.48838">
        <ele>150.8</ele>
        <time>2025-02-26T11:14:35Z</time>
      </trkpt>
      <trkpt lat="48.07" lon="-3.48838">
        <ele>150.9</ele>
        <time>2025-02-26T11:14:36Z</time>
      </trkpt>
      <trkpt lat="48.07001" lon="-3.48838">
        <ele>150.8</ele>
        <time>2025-02-26T11:14:37Z</time>
      </trkpt>
      <trkpt lat="48.07002" lon="-3.48838">
        <ele>150.8</ele>
        <time>2025-02-26T11:14:38Z</time>
      </trkpt>
      <trkpt lat="48.07003" lon="-3.48838">
        <ele>150.8</ele>
        <time>2025-02-26T11:14:39Z</time>
      </trkpt>
      <trkpt lat="48.07005" lon="-3.48839">
        <ele>150.8</ele>
        <time>2025-02-26T11:14:40Z</time>
      </trkpt>
      <trkpt lat="48.07006" lon="-3.48839">
        <ele>150.8</ele>
        <time>2025-02-26T11:14:41Z</time>
      </trkpt>
      <trkpt lat="48.07007" lon="-3.48839">
        <ele>150.8</ele>
        <time>2025-02-26T11:14:42Z</time>
      </trkpt>
      <trkpt lat="48.07008" lon="-3.48839">
        <ele>150.8</ele>
        <time>2025-02-26T11:14:43Z</time>
      </trkpt>
      <trkpt lat="48.0701" lon="-3.48839">
        <ele>150.8</ele>
        <time>2025-02-26T11:14:44Z</time>
      </trkpt>
      <trkpt lat="48.07011" lon="-3.48839">
        <ele>150.8</ele>
        <time>2025-02-26T11:14:45Z</time>
      </trkpt>
      <trkpt lat="48.07012" lon="-3.4884">
        <ele>150.8</ele>
        <time>2025-02-26T11:14:46Z</time>
      </trkpt>
      <trkpt lat="48.07013" lon="-3.48841">
        <ele>150.7</ele>
        <time>2025-02-26T11:14:47Z</time>
      </trkpt>
      <trkpt lat="48.07014" lon="-3.48841">
        <ele>150.7</ele>
        <time>2025-02-26T11:14:48Z</time>
      </trkpt>
      <trkpt lat="48.07015" lon="-3.48842">
        <ele>150.7</ele>
        <time>2025-02-26T11:14:49Z</time>
      </trkpt>
      <trkpt lat="48.07017" lon="-3.48843">
        <ele>150.7</ele>
        <time>2025-02-26T11:14:50Z</time>
      </trkpt>
      <trkpt lat="48.07018" lon="-3.48843">
        <ele>150.7</ele>
        <time>2025-02-26T11:14:51Z</time>
      </trkpt>
      <trkpt lat="48.07019" lon="-3.48843">
        <ele>150.7</ele>
        <time>2025-02-26T11:14:52Z</time>
      </trkpt>
      <trkpt lat="48.0702" lon="-3.48843">
        <ele>150.6</ele>
        <time>2025-02-26T11:14:53Z</time>
      </trkpt>
      <trkpt lat="48.07021" lon="-3.48844">
        <ele>150.6</ele>
        <time>2025-02-26T11:14:54Z</time>
      </trkpt>
      <trkpt lat="48.07022" lon="-3.48845">
        <ele>150.6</ele>
        <time>2025-02-26T11:14:55Z</time>
      </trkpt>
      <trkpt lat="48.07023" lon="-3.48845">
        <ele>150.6</ele>
        <time>2025-02-26T11:14:56Z</time>
      </trkpt>
      <trkpt lat="48.07024" lon="-3.48846">
        <ele>150.6</ele>
        <time>2025-02-26T11:14:57Z</time>
      </trkpt>
      <trkpt lat="48.07025" lon="-3.48846">
        <ele>150.5</ele>
        <time>2025-02-26T11:14:58Z</time>
      </trkpt>
      <trkpt lat="48.07026" lon="-3.48846">
        <ele>150.6</ele>
        <time>2025-02-26T11:14:59Z</time>
      </trkpt>
      <trkpt lat="48.07028" lon="-3.48846">
        <ele>150.5</ele>
        <time>2025-02-26T11:15:00Z</time>
      </trkpt>
      <trkpt lat="48.07029" lon="-3.48846">
        <ele>150.5</ele>
        <time>2025-02-26T11:15:01Z</time>
      </trkpt>
      <trkpt lat="48.0703" lon="-3.48847">
        <ele>150.5</ele>
        <time>2025-02-26T11:15:02Z</time>
      </trkpt>
      <trkpt lat="48.07031" lon="-3.48847">
        <ele>150.5</ele>
        <time>2025-02-26T11:15:03Z</time>
      </trkpt>
      <trkpt lat="48.07032" lon="-3.48848">
        <ele>150.5</ele>
        <time>2025-02-26T11:15:04Z</time>
      </trkpt>
      <trkpt lat="48.07033" lon="-3.48848">
        <ele>150.5</ele>
        <time>2025-02-26T11:15:05Z</time>
      </trkpt>
      <trkpt lat="48.07034" lon="-3.48848">
        <ele>150.5</ele>
        <time>2025-02-26T11:15:06Z</time>
      </trkpt>
      <trkpt lat="48.07035" lon="-3.48848">
        <ele>150.5</ele>
        <time>2025-02-26T11:15:07Z</time>
      </trkpt>
      <trkpt lat="48.07036" lon="-3.48849">
        <ele>150.5</ele>
        <time>2025-02-26T11:15:08Z</time>
      </trkpt>
      <trkpt lat="48.07038" lon="-3.48849">
        <ele>150.4</ele>
        <time>2025-02-26T11:15:09Z</time>
      </trkpt>
      <trkpt lat="48.07039" lon="-3.4885">
        <ele>150.4</ele>
        <time>2025-02-26T11:15:10Z</time>
      </trkpt>
      <trkpt lat="48.0704" lon="-3.4885">
        <ele>150.4</ele>
        <time>2025-02-26T11:15:11Z</time>
      </trkpt>
      <trkpt lat="48.07041" lon="-3.4885">
        <ele>150.4</ele>
        <time>2025-02-26T11:15:12Z</time>
      </trkpt>
      <trkpt lat="48.07042" lon="-3.4885">
        <ele>150.4</ele>
        <time>2025-02-26T11:15:13Z</time>
      </trkpt>
      <trkpt lat="48.07043" lon="-3.4885">
        <ele>150.4</ele>
        <time>2025-02-26T11:15:14Z</time>
      </trkpt>
      <trkpt lat="48.07045" lon="-3.48851">
        <ele>150.4</ele>
        <time>2025-02-26T11:15:15Z</time>
      </trkpt>
      <trkpt lat="48.07046" lon="-3.48851">
        <ele>150.4</ele>
        <time>2025-02-26T11:15:16Z</time>
      </trkpt>
      <trkpt lat="48.07047" lon="-3.48851">
        <ele>150.4</ele>
        <time>2025-02-26T11:15:17Z</time>
      </trkpt>
      <trkpt lat="48.07049" lon="-3.48851">
        <ele>150.4</ele>
        <time>2025-02-26T11:15:18Z</time>
      </trkpt>
      <trkpt lat="48.0705" lon="-3.48851">
        <ele>150.4</ele>
        <time>2025-02-26T11:15:19Z</time>
      </trkpt>
      <trkpt lat="48.07051" lon="-3.48852">
        <ele>150.3</ele>
        <time>2025-02-26T11:15:20Z</time>
      </trkpt>
      <trkpt lat="48.07052" lon="-3.48852">
        <ele>150.3</ele>
        <time>2025-02-26T11:15:21Z</time>
      </trkpt>
      <trkpt lat="48.07054" lon="-3.48853">
        <ele>150.3</ele>
        <time>2025-02-26T11:15:22Z</time>
      </trkpt>
      <trkpt lat="48.07055" lon="-3.48853">
        <ele>150.3</ele>
        <time>2025-02-26T11:15:23Z</time>
      </trkpt>
      <trkpt lat="48.07056" lon="-3.48853">
        <ele>150.3</ele>
        <time>2025-02-26T11:15:24Z</time>
      </trkpt>
      <trkpt lat="48.07057" lon="-3.48853">
        <ele>150.3</ele>
        <time>2025-02-26T11:15:25Z</time>
      </trkpt>
      <trkpt lat="48.07059" lon="-3.48853">
        <ele>150.4</ele>
        <time>2025-02-26T11:15:26Z</time>
      </trkpt>
      <trkpt lat="48.0706" lon="-3.48853">
        <ele>150.4</ele>
        <time>2025-02-26T11:15:27Z</time>
      </trkpt>
      <trkpt lat="48.07061" lon="-3.48854">
        <ele>150.4</ele>
        <time>2025-02-26T11:15:28Z</time>
      </trkpt>
      <trkpt lat="48.07063" lon="-3.48855">
        <ele>150.4</ele>
        <time>2025-02-26T11:15:29Z</time>
      </trkpt>
      <trkpt lat="48.07064" lon="-3.48855">
        <ele>150.4</ele>
        <time>2025-02-26T11:15:30Z</time>
      </trkpt>
      <trkpt lat="48.07065" lon="-3.48855">
        <ele>150.5</ele>
        <time>2025-02-26T11:15:31Z</time>
      </trkpt>
      <trkpt lat="48.07066" lon="-3.48855">
        <ele>150.5</ele>
        <time>2025-02-26T11:15:32Z</time>
      </trkpt>
      <trkpt lat="48.07067" lon="-3.48856">
        <ele>150.5</ele>
        <time>2025-02-26T11:15:33Z</time>
      </trkpt>
      <trkpt lat="48.07068" lon="-3.48856">
        <ele>150.5</ele>
        <time>2025-02-26T11:15:34Z</time>
      </trkpt>
      <trkpt lat="48.07069" lon="-3.48857">
        <ele>150.6</ele>
        <time>2025-02-26T11:15:35Z</time>
      </trkpt>
      <trkpt lat="48.0707" lon="-3.48857">
        <ele>150.6</ele>
        <time>2025-02-26T11:15:36Z</time>
      </trkpt>
      <trkpt lat="48.07071" lon="-3.48857">
        <ele>150.6</ele>
        <time>2025-02-26T11:15:37Z</time>
      </trkpt>
      <trkpt lat="48.07072" lon="-3.48857">
        <ele>150.7</ele>
        <time>2025-02-26T11:15:38Z</time>
      </trkpt>
      <trkpt lat="48.07073" lon="-3.48857">
        <ele>150.7</ele>
        <time>2025-02-26T11:15:39Z</time>
      </trkpt>
      <trkpt lat="48.07074" lon="-3.48858">
        <ele>150.7</ele>
        <time>2025-02-26T11:15:40Z</time>
      </trkpt>
      <trkpt lat="48.07075" lon="-3.48858">
        <ele>150.7</ele>
        <time>2025-02-26T11:15:41Z</time>
      </trkpt>
      <trkpt lat="48.07077" lon="-3.48858">
        <ele>150.8</ele>
        <time>2025-02-26T11:15:42Z</time>
      </trkpt>
      <trkpt lat="48.07077" lon="-3.48857">
        <ele>150.8</ele>
        <time>2025-02-26T11:15:43Z</time>
      </trkpt>
      <trkpt lat="48.07078" lon="-3.48857">
        <ele>150.8</ele>
        <time>2025-02-26T11:15:44Z</time>
      </trkpt>
      <trkpt lat="48.07079" lon="-3.48857">
        <ele>150.9</ele>
        <time>2025-02-26T11:15:45Z</time>
      </trkpt>
      <trkpt lat="48.0708" lon="-3.48858">
        <ele>150.9</ele>
        <time>2025-02-26T11:15:46Z</time>
      </trkpt>
      <trkpt lat="48.07081" lon="-3.48859">
        <ele>150.9</ele>
        <time>2025-02-26T11:15:47Z</time>
      </trkpt>
      <trkpt lat="48.07082" lon="-3.48859">
        <ele>150.9</ele>
        <time>2025-02-26T11:15:48Z</time>
      </trkpt>
      <trkpt lat="48.07083" lon="-3.48859">
        <ele>151</ele>
        <time>2025-02-26T11:15:49Z</time>
      </trkpt>
      <trkpt lat="48.07084" lon="-3.4886">
        <ele>151</ele>
        <time>2025-02-26T11:15:50Z</time>
      </trkpt>
      <trkpt lat="48.07085" lon="-3.4886">
        <ele>151</ele>
        <time>2025-02-26T11:15:51Z</time>
      </trkpt>
      <trkpt lat="48.07086" lon="-3.4886">
        <ele>151</ele>
        <time>2025-02-26T11:15:52Z</time>
      </trkpt>
      <trkpt lat="48.07086" lon="-3.4886">
        <ele>151</ele>
        <time>2025-02-26T11:15:53Z</time>
      </trkpt>
      <trkpt lat="48.07087" lon="-3.48861">
        <ele>151</ele>
        <time>2025-02-26T11:15:54Z</time>
      </trkpt>
      <trkpt lat="48.07089" lon="-3.4886">
        <ele>151</ele>
        <time>2025-02-26T11:15:55Z</time>
      </trkpt>
      <trkpt lat="48.0709" lon="-3.4886">
        <ele>151</ele>
        <time>2025-02-26T11:15:56Z</time>
      </trkpt>
      <trkpt lat="48.07091" lon="-3.4886">
        <ele>151</ele>
        <time>2025-02-26T11:15:57Z</time>
      </trkpt>
      <trkpt lat="48.07092" lon="-3.48861">
        <ele>151</ele>
        <time>2025-02-26T11:15:58Z</time>
      </trkpt>
      <trkpt lat="48.07093" lon="-3.48861">
        <ele>151</ele>
        <time>2025-02-26T11:15:59Z</time>
      </trkpt>
      <trkpt lat="48.07095" lon="-3.48861">
        <ele>151</ele>
        <time>2025-02-26T11:16:00Z</time>
      </trkpt>
      <trkpt lat="48.07096" lon="-3.48861">
        <ele>151</ele>
        <time>2025-02-26T11:16:01Z</time>
      </trkpt>
      <trkpt lat="48.07097" lon="-3.48862">
        <ele>151</ele>
        <time>2025-02-26T11:16:02Z</time>
      </trkpt>
      <trkpt lat="48.07098" lon="-3.48862">
        <ele>151</ele>
        <time>2025-02-26T11:16:03Z</time>
      </trkpt>
      <trkpt lat="48.071" lon="-3.48862">
        <ele>151</ele>
        <time>2025-02-26T11:16:04Z</time>
      </trkpt>
      <trkpt lat="48.07101" lon="-3.48862">
        <ele>151</ele>
        <time>2025-02-26T11:16:05Z</time>
      </trkpt>
      <trkpt lat="48.07102" lon="-3.48863">
        <ele>150.9</ele>
        <time>2025-02-26T11:16:06Z</time>
      </trkpt>
      <trkpt lat="48.07103" lon="-3.48864">
        <ele>150.9</ele>
        <time>2025-02-26T11:16:07Z</time>
      </trkpt>
      <trkpt lat="48.07104" lon="-3.48864">
        <ele>150.9</ele>
        <time>2025-02-26T11:16:08Z</time>
      </trkpt>
      <trkpt lat="48.07105" lon="-3.48864">
        <ele>150.9</ele>
        <time>2025-02-26T11:16:09Z</time>
      </trkpt>
      <trkpt lat="48.07106" lon="-3.48865">
        <ele>150.9</ele>
        <time>2025-02-26T11:16:10Z</time>
      </trkpt>
      <trkpt lat="48.07107" lon="-3.48865">
        <ele>150.9</ele>
        <time>2025-02-26T11:16:11Z</time>
      </trkpt>
      <trkpt lat="48.07109" lon="-3.48865">
        <ele>150.8</ele>
        <time>2025-02-26T11:16:12Z</time>
      </trkpt>
      <trkpt lat="48.0711" lon="-3.48866">
        <ele>150.8</ele>
        <time>2025-02-26T11:16:13Z</time>
      </trkpt>
      <trkpt lat="48.07111" lon="-3.48867">
        <ele>150.8</ele>
        <time>2025-02-26T11:16:14Z</time>
      </trkpt>
      <trkpt lat="48.07112" lon="-3.48867">
        <ele>150.7</ele>
        <time>2025-02-26T11:16:15Z</time>
      </trkpt>
      <trkpt lat="48.07113" lon="-3.48869">
        <ele>150.7</ele>
        <time>2025-02-26T11:16:16Z</time>
      </trkpt>
      <trkpt lat="48.07115" lon="-3.48866">
        <ele>150.7</ele>
        <time>2025-02-26T11:16:17Z</time>
      </trkpt>
      <trkpt lat="48.07117" lon="-3.48867">
        <ele>150.6</ele>
        <time>2025-02-26T11:16:18Z</time>
      </trkpt>
      <trkpt lat="48.07117" lon="-3.48867">
        <ele>150.6</ele>
        <time>2025-02-26T11:16:19Z</time>
      </trkpt>
      <trkpt lat="48.07118" lon="-3.48868">
        <ele>150.5</ele>
        <time>2025-02-26T11:16:20Z</time>
      </trkpt>
      <trkpt lat="48.07119" lon="-3.48869">
        <ele>150.4</ele>
        <time>2025-02-26T11:16:21Z</time>
      </trkpt>
      <trkpt lat="48.0712" lon="-3.48869">
        <ele>150.4</ele>
        <time>2025-02-26T11:16:22Z</time>
      </trkpt>
      <trkpt lat="48.07121" lon="-3.48869">
        <ele>150.3</ele>
        <time>2025-02-26T11:16:23Z</time>
      </trkpt>
      <trkpt lat="48.07122" lon="-3.48869">
        <ele>150.3</ele>
        <time>2025-02-26T11:16:24Z</time>
      </trkpt>
      <trkpt lat="48.07122" lon="-3.48869">
        <ele>150.3</ele>
        <time>2025-02-26T11:16:25Z</time>
      </trkpt>
      <trkpt lat="48.07122" lon="-3.48869">
        <ele>150.3</ele>
        <time>2025-02-26T11:16:26Z</time>
      </trkpt>
      <trkpt lat="48.07122" lon="-3.48869">
        <ele>150.3</ele>
        <time>2025-02-26T11:16:27Z</time>
      </trkpt>
      <trkpt lat="48.07122" lon="-3.48869">
        <ele>150.3</ele>
        <time>2025-02-26T11:16:28Z</time>
      </trkpt>
      <trkpt lat="48.07122" lon="-3.48869">
        <ele>150.3</ele>
        <time>2025-02-26T11:16:29Z</time>
      </trkpt>
      <trkpt lat="48.07122" lon="-3.48869">
        <ele>150.3</ele>
        <time>2025-02-26T11:16:30Z</time>
      </trkpt>
      <trkpt lat="48.07122" lon="-3.48869">
        <ele>150.3</ele>
        <time>2025-02-26T11:16:31Z</time>
      </trkpt>
      <trkpt lat="48.07122" lon="-3.48869">
        <ele>150.3</ele>
        <time>2025-02-26T11:16:32Z</time>
      </trkpt>
      <trkpt lat="48.07122" lon="-3.48869">
        <ele>150.3</ele>
        <time>2025-02-26T11:16:33Z</time>
      </trkpt>
      <trkpt lat="48.07122" lon="-3.48869">
        <ele>150.3</ele>
        <time>2025-02-26T11:16:34Z</time>
      </trkpt>
      <trkpt lat="48.07122" lon="-3.48869">
        <ele>150.3</ele>
        <time>2025-02-26T11:16:35Z</time>
      </trkpt>
      <trkpt lat="48.07122" lon="-3.48869">
        <ele>150.3</ele>
        <time>2025-02-26T11:16:36Z</time>
      </trkpt>
      <trkpt lat="48.07122" lon="-3.48869">
        <ele>150.3</ele>
        <time>2025-02-26T11:16:37Z</time>
      </trkpt>
      <trkpt lat="48.07122" lon="-3.48869">
        <ele>150.3</ele>
        <time>2025-02-26T11:16:38Z</time>
      </trkpt>
      <trkpt lat="48.07122" lon="-3.48869">
        <ele>150.3</ele>
        <time>2025-02-26T11:16:39Z</time>
      </trkpt>
      <trkpt lat="48.07122" lon="-3.48869">
        <ele>150.3</ele>
        <time>2025-02-26T11:16:40Z</time>
      </trkpt>
      <trkpt lat="48.07122" lon="-3.48869">
        <ele>150.3</ele>
        <time>2025-02-26T11:16:41Z</time>
      </trkpt>
      <trkpt lat="48.07122" lon="-3.48868">
        <ele>150.4</ele>
        <time>2025-02-26T11:16:42Z</time>
      </trkpt>
      <trkpt lat="48.07121" lon="-3.48869">
        <ele>150.4</ele>
        <time>2025-02-26T11:16:43Z</time>
      </trkpt>
      <trkpt lat="48.07121" lon="-3.48869">
        <ele>150.4</ele>
        <time>2025-02-26T11:16:44Z</time>
      </trkpt>
      <trkpt lat="48.07121" lon="-3.48869">
        <ele>150.4</ele>
        <time>2025-02-26T11:16:45Z</time>
      </trkpt>
      <trkpt lat="48.07121" lon="-3.48869">
        <ele>150.4</ele>
        <time>2025-02-26T11:16:46Z</time>
      </trkpt>
      <trkpt lat="48.07121" lon="-3.48869">
        <ele>150.4</ele>
        <time>2025-02-26T11:16:47Z</time>
      </trkpt>
      <trkpt lat="48.07121" lon="-3.48869">
        <ele>150.4</ele>
        <time>2025-02-26T11:16:48Z</time>
      </trkpt>
      <trkpt lat="48.07121" lon="-3.48869">
        <ele>150.4</ele>
        <time>2025-02-26T11:16:49Z</time>
      </trkpt>
      <trkpt lat="48.07121" lon="-3.48869">
        <ele>150.4</ele>
        <time>2025-02-26T11:16:50Z</time>
      </trkpt>
      <trkpt lat="48.07121" lon="-3.48869">
        <ele>150.3</ele>
        <time>2025-02-26T11:16:51Z</time>
      </trkpt>
      <trkpt lat="48.07122" lon="-3.48869">
        <ele>150.3</ele>
        <time>2025-02-26T11:16:52Z</time>
      </trkpt>
      <trkpt lat="48.07123" lon="-3.48871">
        <ele>150.2</ele>
        <time>2025-02-26T11:16:53Z</time>
      </trkpt>
      <trkpt lat="48.07124" lon="-3.48872">
        <ele>150.1</ele>
        <time>2025-02-26T11:16:54Z</time>
      </trkpt>
      <trkpt lat="48.07125" lon="-3.48874">
        <ele>150</ele>
        <time>2025-02-26T11:16:55Z</time>
      </trkpt>
      <trkpt lat="48.07125" lon="-3.48876">
        <ele>150</ele>
        <time>2025-02-26T11:16:56Z</time>
      </trkpt>
      <trkpt lat="48.07125" lon="-3.48878">
        <ele>149.9</ele>
        <time>2025-02-26T11:16:57Z</time>
      </trkpt>
      <trkpt lat="48.07125" lon="-3.48879">
        <ele>149.8</ele>
        <time>2025-02-26T11:16:58Z</time>
      </trkpt>
      <trkpt lat="48.07125" lon="-3.48881">
        <ele>149.8</ele>
        <time>2025-02-26T11:16:59Z</time>
      </trkpt>
      <trkpt lat="48.07125" lon="-3.48882">
        <ele>149.7</ele>
        <time>2025-02-26T11:17:00Z</time>
      </trkpt>
      <trkpt lat="48.07125" lon="-3.48885">
        <ele>149.6</ele>
        <time>2025-02-26T11:17:01Z</time>
      </trkpt>
      <trkpt lat="48.07126" lon="-3.48886">
        <ele>149.6</ele>
        <time>2025-02-26T11:17:02Z</time>
      </trkpt>
      <trkpt lat="48.07127" lon="-3.48888">
        <ele>149.5</ele>
        <time>2025-02-26T11:17:03Z</time>
      </trkpt>
      <trkpt lat="48.07127" lon="-3.4889">
        <ele>149.4</ele>
        <time>2025-02-26T11:17:04Z</time>
      </trkpt>
      <trkpt lat="48.07128" lon="-3.48891">
        <ele>149.2</ele>
        <time>2025-02-26T11:17:05Z</time>
      </trkpt>
      <trkpt lat="48.07129" lon="-3.48893">
        <ele>149.1</ele>
        <time>2025-02-26T11:17:06Z</time>
      </trkpt>
      <trkpt lat="48.0713" lon="-3.48892">
        <ele>149.1</ele>
        <time>2025-02-26T11:17:07Z</time>
      </trkpt>
      <trkpt lat="48.07132" lon="-3.48892">
        <ele>149</ele>
        <time>2025-02-26T11:17:08Z</time>
      </trkpt>
      <trkpt lat="48.07133" lon="-3.48892">
        <ele>149</ele>
        <time>2025-02-26T11:17:09Z</time>
      </trkpt>
      <trkpt lat="48.07134" lon="-3.48892">
        <ele>149</ele>
        <time>2025-02-26T11:17:10Z</time>
      </trkpt>
      <trkpt lat="48.07135" lon="-3.48892">
        <ele>148.9</ele>
        <time>2025-02-26T11:17:11Z</time>
      </trkpt>
      <trkpt lat="48.07136" lon="-3.48893">
        <ele>148.8</ele>
        <time>2025-02-26T11:17:12Z</time>
      </trkpt>
      <trkpt lat="48.07137" lon="-3.48893">
        <ele>148.8</ele>
        <time>2025-02-26T11:17:13Z</time>
      </trkpt>
      <trkpt lat="48.07137" lon="-3.48894">
        <ele>148.7</ele>
        <time>2025-02-26T11:17:14Z</time>
      </trkpt>
      <trkpt lat="48.07137" lon="-3.48894">
        <ele>148.7</ele>
        <time>2025-02-26T11:17:15Z</time>
      </trkpt>
      <trkpt lat="48.07137" lon="-3.48894">
        <ele>148.7</ele>
        <time>2025-02-26T11:17:16Z</time>
      </trkpt>
      <trkpt lat="48.07137" lon="-3.48894">
        <ele>148.7</ele>
        <time>2025-02-26T11:17:17Z</time>
      </trkpt>
      <trkpt lat="48.07137" lon="-3.48894">
        <ele>148.7</ele>
        <time>2025-02-26T11:17:18Z</time>
      </trkpt>
      <trkpt lat="48.07137" lon="-3.48894">
        <ele>148.7</ele>
        <time>2025-02-26T11:17:19Z</time>
      </trkpt>
      <trkpt lat="48.07137" lon="-3.48894">
        <ele>148.7</ele>
        <time>2025-02-26T11:17:20Z</time>
      </trkpt>
      <trkpt lat="48.07137" lon="-3.48894">
        <ele>148.7</ele>
        <time>2025-02-26T11:17:21Z</time>
      </trkpt>
      <trkpt lat="48.07137" lon="-3.48894">
        <ele>148.7</ele>
        <time>2025-02-26T11:17:22Z</time>
      </trkpt>
      <trkpt lat="48.07137" lon="-3.48894">
        <ele>148.7</ele>
        <time>2025-02-26T11:17:23Z</time>
      </trkpt>
      <trkpt lat="48.07136" lon="-3.48894">
        <ele>148.7</ele>
        <time>2025-02-26T11:17:24Z</time>
      </trkpt>
      <trkpt lat="48.07136" lon="-3.48895">
        <ele>148.7</ele>
        <time>2025-02-26T11:17:25Z</time>
      </trkpt>
      <trkpt lat="48.07136" lon="-3.48895">
        <ele>148.7</ele>
        <time>2025-02-26T11:17:26Z</time>
      </trkpt>
      <trkpt lat="48.07136" lon="-3.48895">
        <ele>148.7</ele>
        <time>2025-02-26T11:17:27Z</time>
      </trkpt>
      <trkpt lat="48.07136" lon="-3.48895">
        <ele>148.7</ele>
        <time>2025-02-26T11:17:28Z</time>
      </trkpt>
      <trkpt lat="48.07136" lon="-3.48895">
        <ele>148.7</ele>
        <time>2025-02-26T11:17:29Z</time>
      </trkpt>
      <trkpt lat="48.07136" lon="-3.48895">
        <ele>148.7</ele>
        <time>2025-02-26T11:17:30Z</time>
      </trkpt>
      <trkpt lat="48.07136" lon="-3.48895">
        <ele>148.7</ele>
        <time>2025-02-26T11:17:31Z</time>
      </trkpt>
      <trkpt lat="48.07136" lon="-3.48895">
        <ele>148.7</ele>
        <time>2025-02-26T11:17:32Z</time>
      </trkpt>
      <trkpt lat="48.07136" lon="-3.48895">
        <ele>148.7</ele>
        <time>2025-02-26T11:17:33Z</time>
      </trkpt>
      <trkpt lat="48.07136" lon="-3.48895">
        <ele>148.7</ele>
        <time>2025-02-26T11:17:34Z</time>
      </trkpt>
      <trkpt lat="48.07136" lon="-3.48895">
        <ele>148.7</ele>
        <time>2025-02-26T11:17:35Z</time>
      </trkpt>
      <trkpt lat="48.07136" lon="-3.48895">
        <ele>148.7</ele>
        <time>2025-02-26T11:17:36Z</time>
      </trkpt>
      <trkpt lat="48.07136" lon="-3.48894">
        <ele>148.7</ele>
        <time>2025-02-26T11:17:37Z</time>
      </trkpt>
      <trkpt lat="48.07136" lon="-3.48894">
        <ele>148.7</ele>
        <time>2025-02-26T11:17:38Z</time>
      </trkpt>
      <trkpt lat="48.07137" lon="-3.48894">
        <ele>148.7</ele>
        <time>2025-02-26T11:17:39Z</time>
      </trkpt>
      <trkpt lat="48.07137" lon="-3.48894">
        <ele>148.7</ele>
        <time>2025-02-26T11:17:40Z</time>
      </trkpt>
      <trkpt lat="48.07137" lon="-3.48894">
        <ele>148.7</ele>
        <time>2025-02-26T11:17:41Z</time>
      </trkpt>
      <trkpt lat="48.07137" lon="-3.48894">
        <ele>148.7</ele>
        <time>2025-02-26T11:17:42Z</time>
      </trkpt>
      <trkpt lat="48.07137" lon="-3.48894">
        <ele>148.7</ele>
        <time>2025-02-26T11:17:43Z</time>
      </trkpt>
      <trkpt lat="48.07137" lon="-3.48893">
        <ele>148.8</ele>
        <time>2025-02-26T11:17:44Z</time>
      </trkpt>
      <trkpt lat="48.07137" lon="-3.48893">
        <ele>148.8</ele>
        <time>2025-02-26T11:17:45Z</time>
      </trkpt>
      <trkpt lat="48.07137" lon="-3.48894">
        <ele>148.7</ele>
        <time>2025-02-26T11:17:46Z</time>
      </trkpt>
      <trkpt lat="48.07136" lon="-3.48895">
        <ele>148.6</ele>
        <time>2025-02-26T11:17:47Z</time>
      </trkpt>
      <trkpt lat="48.07137" lon="-3.48896">
        <ele>148.6</ele>
        <time>2025-02-26T11:17:48Z</time>
      </trkpt>
      <trkpt lat="48.07137" lon="-3.48896">
        <ele>148.5</ele>
        <time>2025-02-26T11:17:49Z</time>
      </trkpt>
      <trkpt lat="48.07136" lon="-3.48897">
        <ele>148.5</ele>
        <time>2025-02-26T11:17:50Z</time>
      </trkpt>
      <trkpt lat="48.07136" lon="-3.48897">
        <ele>148.5</ele>
        <time>2025-02-26T11:17:51Z</time>
      </trkpt>
      <trkpt lat="48.07136" lon="-3.48897">
        <ele>148.5</ele>
        <time>2025-02-26T11:17:52Z</time>
      </trkpt>
      <trkpt lat="48.07136" lon="-3.48897">
        <ele>148.5</ele>
        <time>2025-02-26T11:17:53Z</time>
      </trkpt>
      <trkpt lat="48.07136" lon="-3.48897">
        <ele>148.5</ele>
        <time>2025-02-26T11:17:54Z</time>
      </trkpt>
      <trkpt lat="48.07136" lon="-3.48897">
        <ele>148.5</ele>
        <time>2025-02-26T11:17:55Z</time>
      </trkpt>
      <trkpt lat="48.07136" lon="-3.48897">
        <ele>148.6</ele>
        <time>2025-02-26T11:17:56Z</time>
      </trkpt>
      <trkpt lat="48.07136" lon="-3.48897">
        <ele>148.6</ele>
        <time>2025-02-26T11:17:57Z</time>
      </trkpt>
      <trkpt lat="48.07136" lon="-3.48897">
        <ele>148.6</ele>
        <time>2025-02-26T11:17:58Z</time>
      </trkpt>
      <trkpt lat="48.07136" lon="-3.48897">
        <ele>148.6</ele>
        <time>2025-02-26T11:17:59Z</time>
      </trkpt>
      <trkpt lat="48.07136" lon="-3.48896">
        <ele>148.6</ele>
        <time>2025-02-26T11:18:00Z</time>
      </trkpt>
      <trkpt lat="48.07136" lon="-3.48896">
        <ele>148.6</ele>
        <time>2025-02-26T11:18:01Z</time>
      </trkpt>
      <trkpt lat="48.07135" lon="-3.48896">
        <ele>148.6</ele>
        <time>2025-02-26T11:18:02Z</time>
      </trkpt>
      <trkpt lat="48.07135" lon="-3.48896">
        <ele>148.6</ele>
        <time>2025-02-26T11:18:03Z</time>
      </trkpt>
      <trkpt lat="48.07135" lon="-3.48896">
        <ele>148.6</ele>
        <time>2025-02-26T11:18:04Z</time>
      </trkpt>
      <trkpt lat="48.07135" lon="-3.48896">
        <ele>148.6</ele>
        <time>2025-02-26T11:18:05Z</time>
      </trkpt>
      <trkpt lat="48.07134" lon="-3.48896">
        <ele>148.7</ele>
        <time>2025-02-26T11:18:06Z</time>
      </trkpt>
      <trkpt lat="48.07134" lon="-3.48896">
        <ele>148.7</ele>
        <time>2025-02-26T11:18:07Z</time>
      </trkpt>
      <trkpt lat="48.07133" lon="-3.48896">
        <ele>148.7</ele>
        <time>2025-02-26T11:18:08Z</time>
      </trkpt>
      <trkpt lat="48.07133" lon="-3.48896">
        <ele>148.7</ele>
        <time>2025-02-26T11:18:09Z</time>
      </trkpt>
      <trkpt lat="48.07133" lon="-3.48897">
        <ele>148.6</ele>
        <time>2025-02-26T11:18:10Z</time>
      </trkpt>
      <trkpt lat="48.07133" lon="-3.48897">
        <ele>148.6</ele>
        <time>2025-02-26T11:18:11Z</time>
      </trkpt>
      <trkpt lat="48.07133" lon="-3.48898">
        <ele>148.6</ele>
        <time>2025-02-26T11:18:12Z</time>
      </trkpt>
      <trkpt lat="48.07133" lon="-3.48898">
        <ele>148.6</ele>
        <time>2025-02-26T11:18:13Z</time>
      </trkpt>
      <trkpt lat="48.07133" lon="-3.48898">
        <ele>148.6</ele>
        <time>2025-02-26T11:18:14Z</time>
      </trkpt>
      <trkpt lat="48.07133" lon="-3.48898">
        <ele>148.6</ele>
        <time>2025-02-26T11:18:15Z</time>
      </trkpt>
      <trkpt lat="48.07133" lon="-3.48898">
        <ele>148.6</ele>
        <time>2025-02-26T11:18:16Z</time>
      </trkpt>
      <trkpt lat="48.07133" lon="-3.48898">
        <ele>148.6</ele>
        <time>2025-02-26T11:18:17Z</time>
      </trkpt>
      <trkpt lat="48.07133" lon="-3.48898">
        <ele>148.6</ele>
        <time>2025-02-26T11:18:18Z</time>
      </trkpt>
      <trkpt lat="48.07133" lon="-3.48898">
        <ele>148.6</ele>
        <time>2025-02-26T11:18:19Z</time>
      </trkpt>
      <trkpt lat="48.07133" lon="-3.48898">
        <ele>148.6</ele>
        <time>2025-02-26T11:18:20Z</time>
      </trkpt>
      <trkpt lat="48.07133" lon="-3.48898">
        <ele>148.6</ele>
        <time>2025-02-26T11:18:21Z</time>
      </trkpt>
      <trkpt lat="48.07133" lon="-3.48898">
        <ele>148.6</ele>
        <time>2025-02-26T11:18:22Z</time>
      </trkpt>
      <trkpt lat="48.07133" lon="-3.48898">
        <ele>148.6</ele>
        <time>2025-02-26T11:18:23Z</time>
      </trkpt>
      <trkpt lat="48.07133" lon="-3.48898">
        <ele>148.6</ele>
        <time>2025-02-26T11:18:24Z</time>
      </trkpt>
      <trkpt lat="48.07133" lon="-3.48898">
        <ele>148.6</ele>
        <time>2025-02-26T11:18:25Z</time>
      </trkpt>
      <trkpt lat="48.07133" lon="-3.48898">
        <ele>148.6</ele>
        <time>2025-02-26T11:18:26Z</time>
      </trkpt>
      <trkpt lat="48.07133" lon="-3.48898">
        <ele>148.6</ele>
        <time>2025-02-26T11:18:27Z</time>
      </trkpt>
      <trkpt lat="48.07133" lon="-3.48898">
        <ele>148.6</ele>
        <time>2025-02-26T11:18:28Z</time>
      </trkpt>
      <trkpt lat="48.07133" lon="-3.48898">
        <ele>148.6</ele>
        <time>2025-02-26T11:18:29Z</time>
      </trkpt>
      <trkpt lat="48.07133" lon="-3.48898">
        <ele>148.6</ele>
        <time>2025-02-26T11:18:30Z</time>
      </trkpt>
      <trkpt lat="48.07133" lon="-3.48898">
        <ele>148.6</ele>
        <time>2025-02-26T11:18:31Z</time>
      </trkpt>
      <trkpt lat="48.07133" lon="-3.48898">
        <ele>148.6</ele>
        <time>2025-02-26T11:18:32Z</time>
      </trkpt>
      <trkpt lat="48.07133" lon="-3.48898">
        <ele>148.6</ele>
        <time>2025-02-26T11:18:33Z</time>
      </trkpt>
      <trkpt lat="48.07133" lon="-3.48898">
        <ele>148.6</ele>
        <time>2025-02-26T11:18:34Z</time>
      </trkpt>
      <trkpt lat="48.07133" lon="-3.48898">
        <ele>148.6</ele>
        <time>2025-02-26T11:18:35Z</time>
      </trkpt>
      <trkpt lat="48.07133" lon="-3.48898">
        <ele>148.6</ele>
        <time>2025-02-26T11:18:36Z</time>
      </trkpt>
      <trkpt lat="48.07133" lon="-3.48898">
        <ele>148.6</ele>
        <time>2025-02-26T11:18:37Z</time>
      </trkpt>
      <trkpt lat="48.07133" lon="-3.48898">
        <ele>148.6</ele>
        <time>2025-02-26T11:18:38Z</time>
      </trkpt>
      <trkpt lat="48.07133" lon="-3.48898">
        <ele>148.6</ele>
        <time>2025-02-26T11:18:39Z</time>
      </trkpt>
      <trkpt lat="48.07133" lon="-3.48898">
        <ele>148.6</ele>
        <time>2025-02-26T11:18:40Z</time>
      </trkpt>
      <trkpt lat="48.07133" lon="-3.48898">
        <ele>148.6</ele>
        <time>2025-02-26T11:18:41Z</time>
      </trkpt>
      <trkpt lat="48.07133" lon="-3.48898">
        <ele>148.6</ele>
        <time>2025-02-26T11:18:42Z</time>
      </trkpt>
      <trkpt lat="48.07133" lon="-3.48898">
        <ele>148.6</ele>
        <time>2025-02-26T11:18:43Z</time>
      </trkpt>
      <trkpt lat="48.07133" lon="-3.48898">
        <ele>148.6</ele>
        <time>2025-02-26T11:18:44Z</time>
      </trkpt>
      <trkpt lat="48.07133" lon="-3.48898">
        <ele>148.6</ele>
        <time>2025-02-26T11:18:45Z</time>
      </trkpt>
      <trkpt lat="48.07133" lon="-3.48898">
        <ele>148.6</ele>
        <time>2025-02-26T11:18:46Z</time>
      </trkpt>
      <trkpt lat="48.07132" lon="-3.48897">
        <ele>148.6</ele>
        <time>2025-02-26T11:18:47Z</time>
      </trkpt>
      <trkpt lat="48.07132" lon="-3.48897">
        <ele>148.6</ele>
        <time>2025-02-26T11:18:48Z</time>
      </trkpt>
      <trkpt lat="48.07132" lon="-3.48897">
        <ele>148.6</ele>
        <time>2025-02-26T11:18:49Z</time>
      </trkpt>
      <trkpt lat="48.07132" lon="-3.48897">
        <ele>148.6</ele>
        <time>2025-02-26T11:18:50Z</time>
      </trkpt>
      <trkpt lat="48.07132" lon="-3.48897">
        <ele>148.6</ele>
        <time>2025-02-26T11:18:51Z</time>
      </trkpt>
      <trkpt lat="48.07132" lon="-3.48897">
        <ele>148.6</ele>
        <time>2025-02-26T11:18:52Z</time>
      </trkpt>
      <trkpt lat="48.07132" lon="-3.48897">
        <ele>148.6</ele>
        <time>2025-02-26T11:18:53Z</time>
      </trkpt>
      <trkpt lat="48.07132" lon="-3.48897">
        <ele>148.6</ele>
        <time>2025-02-26T11:18:54Z</time>
      </trkpt>
      <trkpt lat="48.07132" lon="-3.48898">
        <ele>148.6</ele>
        <time>2025-02-26T11:18:55Z</time>
      </trkpt>
      <trkpt lat="48.07132" lon="-3.48898">
        <ele>148.6</ele>
        <time>2025-02-26T11:18:56Z</time>
      </trkpt>
      <trkpt lat="48.07132" lon="-3.48898">
        <ele>148.6</ele>
        <time>2025-02-26T11:18:57Z</time>
      </trkpt>
      <trkpt lat="48.07132" lon="-3.48898">
        <ele>148.6</ele>
        <time>2025-02-26T11:18:58Z</time>
      </trkpt>
      <trkpt lat="48.07132" lon="-3.48898">
        <ele>148.6</ele>
        <time>2025-02-26T11:18:59Z</time>
      </trkpt>
      <trkpt lat="48.07132" lon="-3.48898">
        <ele>148.6</ele>
        <time>2025-02-26T11:19:00Z</time>
      </trkpt>
      <trkpt lat="48.07132" lon="-3.48898">
        <ele>148.6</ele>
        <time>2025-02-26T11:19:01Z</time>
      </trkpt>
      <trkpt lat="48.07132" lon="-3.48898">
        <ele>148.6</ele>
        <time>2025-02-26T11:19:02Z</time>
      </trkpt>
      <trkpt lat="48.07132" lon="-3.48898">
        <ele>148.6</ele>
        <time>2025-02-26T11:19:03Z</time>
      </trkpt>
      <trkpt lat="48.07132" lon="-3.48898">
        <ele>148.6</ele>
        <time>2025-02-26T11:19:04Z</time>
      </trkpt>
      <trkpt lat="48.07132" lon="-3.48898">
        <ele>148.6</ele>
        <time>2025-02-26T11:19:05Z</time>
      </trkpt>
      <trkpt lat="48.07132" lon="-3.48898">
        <ele>148.6</ele>
        <time>2025-02-26T11:19:06Z</time>
      </trkpt>
      <trkpt lat="48.07132" lon="-3.48898">
        <ele>148.6</ele>
        <time>2025-02-26T11:19:07Z</time>
      </trkpt>
      <trkpt lat="48.07132" lon="-3.48898">
        <ele>148.6</ele>
        <time>2025-02-26T11:19:08Z</time>
      </trkpt>
      <trkpt lat="48.07132" lon="-3.48898">
        <ele>148.6</ele>
        <time>2025-02-26T11:19:09Z</time>
      </trkpt>
      <trkpt lat="48.07132" lon="-3.48898">
        <ele>148.6</ele>
        <time>2025-02-26T11:19:10Z</time>
      </trkpt>
      <trkpt lat="48.07132" lon="-3.48898">
        <ele>148.6</ele>
        <time>2025-02-26T11:19:11Z</time>
      </trkpt>
      <trkpt lat="48.07132" lon="-3.48898">
        <ele>148.6</ele>
        <time>2025-02-26T11:19:12Z</time>
      </trkpt>
      <trkpt lat="48.07132" lon="-3.48898">
        <ele>148.6</ele>
        <time>2025-02-26T11:19:13Z</time>
      </trkpt>
      <trkpt lat="48.07132" lon="-3.48898">
        <ele>148.6</ele>
        <time>2025-02-26T11:19:14Z</time>
      </trkpt>
      <trkpt lat="48.07132" lon="-3.48898">
        <ele>148.6</ele>
        <time>2025-02-26T11:19:15Z</time>
      </trkpt>
      <trkpt lat="48.07132" lon="-3.48898">
        <ele>148.6</ele>
        <time>2025-02-26T11:19:16Z</time>
      </trkpt>
      <trkpt lat="48.07132" lon="-3.48898">
        <ele>148.6</ele>
        <time>2025-02-26T11:19:17Z</time>
      </trkpt>
      <trkpt lat="48.07132" lon="-3.48899">
        <ele>148.6</ele>
        <time>2025-02-26T11:19:18Z</time>
      </trkpt>
      <trkpt lat="48.07132" lon="-3.48899">
        <ele>148.5</ele>
        <time>2025-02-26T11:19:19Z</time>
      </trkpt>
      <trkpt lat="48.07132" lon="-3.489">
        <ele>148.5</ele>
        <time>2025-02-26T11:19:20Z</time>
      </trkpt>
      <trkpt lat="48.07132" lon="-3.489">
        <ele>148.5</ele>
        <time>2025-02-26T11:19:21Z</time>
      </trkpt>
      <trkpt lat="48.07132" lon="-3.48899">
        <ele>148.5</ele>
        <time>2025-02-26T11:19:22Z</time>
      </trkpt>
      <trkpt lat="48.07134" lon="-3.489">
        <ele>148.4</ele>
        <time>2025-02-26T11:19:23Z</time>
      </trkpt>
      <trkpt lat="48.07135" lon="-3.489">
        <ele>148.4</ele>
        <time>2025-02-26T11:19:24Z</time>
      </trkpt>
      <trkpt lat="48.07135" lon="-3.489">
        <ele>148.4</ele>
        <time>2025-02-26T11:19:25Z</time>
      </trkpt>
      <trkpt lat="48.07135" lon="-3.489">
        <ele>148.4</ele>
        <time>2025-02-26T11:19:26Z</time>
      </trkpt>
      <trkpt lat="48.07135" lon="-3.489">
        <ele>148.4</ele>
        <time>2025-02-26T11:19:27Z</time>
      </trkpt>
      <trkpt lat="48.07135" lon="-3.489">
        <ele>148.4</ele>
        <time>2025-02-26T11:19:28Z</time>
      </trkpt>
      <trkpt lat="48.07135" lon="-3.489">
        <ele>148.4</ele>
        <time>2025-02-26T11:19:29Z</time>
      </trkpt>
      <trkpt lat="48.07135" lon="-3.489">
        <ele>148.4</ele>
        <time>2025-02-26T11:19:30Z</time>
      </trkpt>
      <trkpt lat="48.07134" lon="-3.489">
        <ele>148.4</ele>
        <time>2025-02-26T11:19:31Z</time>
      </trkpt>
      <trkpt lat="48.07133" lon="-3.489">
        <ele>148.4</ele>
        <time>2025-02-26T11:19:32Z</time>
      </trkpt>
      <trkpt lat="48.07133" lon="-3.489">
        <ele>148.4</ele>
        <time>2025-02-26T11:19:33Z</time>
      </trkpt>
      <trkpt lat="48.07132" lon="-3.489">
        <ele>148.4</ele>
        <time>2025-02-26T11:19:34Z</time>
      </trkpt>
      <trkpt lat="48.07132" lon="-3.489">
        <ele>148.4</ele>
        <time>2025-02-26T11:19:35Z</time>
      </trkpt>
      <trkpt lat="48.07131" lon="-3.48901">
        <ele>148.4</ele>
        <time>2025-02-26T11:19:36Z</time>
      </trkpt>
      <trkpt lat="48.07131" lon="-3.48901">
        <ele>148.4</ele>
        <time>2025-02-26T11:19:37Z</time>
      </trkpt>
      <trkpt lat="48.07131" lon="-3.48901">
        <ele>148.4</ele>
        <time>2025-02-26T11:19:38Z</time>
      </trkpt>
      <trkpt lat="48.07131" lon="-3.48901">
        <ele>148.4</ele>
        <time>2025-02-26T11:19:39Z</time>
      </trkpt>
      <trkpt lat="48.07131" lon="-3.48901">
        <ele>148.4</ele>
        <time>2025-02-26T11:19:40Z</time>
      </trkpt>
      <trkpt lat="48.07131" lon="-3.48901">
        <ele>148.5</ele>
        <time>2025-02-26T11:19:41Z</time>
      </trkpt>
      <trkpt lat="48.07131" lon="-3.489">
        <ele>148.5</ele>
        <time>2025-02-26T11:19:42Z</time>
      </trkpt>
      <trkpt lat="48.0713" lon="-3.48899">
        <ele>148.6</ele>
        <time>2025-02-26T11:19:43Z</time>
      </trkpt>
      <trkpt lat="48.07131" lon="-3.48899">
        <ele>148.6</ele>
        <time>2025-02-26T11:19:44Z</time>
      </trkpt>
      <trkpt lat="48.07131" lon="-3.48899">
        <ele>148.6</ele>
        <time>2025-02-26T11:19:45Z</time>
      </trkpt>
      <trkpt lat="48.07131" lon="-3.48899">
        <ele>148.6</ele>
        <time>2025-02-26T11:19:46Z</time>
      </trkpt>
      <trkpt lat="48.07131" lon="-3.48899">
        <ele>148.5</ele>
        <time>2025-02-26T11:19:47Z</time>
      </trkpt>
      <trkpt lat="48.07131" lon="-3.48899">
        <ele>148.5</ele>
        <time>2025-02-26T11:19:48Z</time>
      </trkpt>
      <trkpt lat="48.07131" lon="-3.48899">
        <ele>148.5</ele>
        <time>2025-02-26T11:19:49Z</time>
      </trkpt>
      <trkpt lat="48.07131" lon="-3.48899">
        <ele>148.5</ele>
        <time>2025-02-26T11:19:50Z</time>
      </trkpt>
      <trkpt lat="48.07131" lon="-3.48899">
        <ele>148.5</ele>
        <time>2025-02-26T11:19:51Z</time>
      </trkpt>
      <trkpt lat="48.07131" lon="-3.48899">
        <ele>148.5</ele>
        <time>2025-02-26T11:19:52Z</time>
      </trkpt>
      <trkpt lat="48.07131" lon="-3.48899">
        <ele>148.5</ele>
        <time>2025-02-26T11:19:53Z</time>
      </trkpt>
      <trkpt lat="48.07131" lon="-3.48899">
        <ele>148.5</ele>
        <time>2025-02-26T11:19:54Z</time>
      </trkpt>
      <trkpt lat="48.07132" lon="-3.489">
        <ele>148.5</ele>
        <time>2025-02-26T11:19:55Z</time>
      </trkpt>
      <trkpt lat="48.07132" lon="-3.48901">
        <ele>148.4</ele>
        <time>2025-02-26T11:19:56Z</time>
      </trkpt>
      <trkpt lat="48.07132" lon="-3.489">
        <ele>148.4</ele>
        <time>2025-02-26T11:19:57Z</time>
      </trkpt>
      <trkpt lat="48.07132" lon="-3.489">
        <ele>148.4</ele>
        <time>2025-02-26T11:19:58Z</time>
      </trkpt>
      <trkpt lat="48.07132" lon="-3.489">
        <ele>148.4</ele>
        <time>2025-02-26T11:19:59Z</time>
      </trkpt>
      <trkpt lat="48.07132" lon="-3.489">
        <ele>148.4</ele>
        <time>2025-02-26T11:20:00Z</time>
      </trkpt>
      <trkpt lat="48.07132" lon="-3.48899">
        <ele>148.5</ele>
        <time>2025-02-26T11:20:01Z</time>
      </trkpt>
      <trkpt lat="48.07132" lon="-3.48898">
        <ele>148.6</ele>
        <time>2025-02-26T11:20:02Z</time>
      </trkpt>
      <trkpt lat="48.07132" lon="-3.48898">
        <ele>148.6</ele>
        <time>2025-02-26T11:20:03Z</time>
      </trkpt>
      <trkpt lat="48.07132" lon="-3.48897">
        <ele>148.6</ele>
        <time>2025-02-26T11:20:04Z</time>
      </trkpt>
      <trkpt lat="48.07132" lon="-3.48897">
        <ele>148.7</ele>
        <time>2025-02-26T11:20:05Z</time>
      </trkpt>
      <trkpt lat="48.07132" lon="-3.48897">
        <ele>148.7</ele>
        <time>2025-02-26T11:20:06Z</time>
      </trkpt>
      <trkpt lat="48.07132" lon="-3.48897">
        <ele>148.7</ele>
        <time>2025-02-26T11:20:07Z</time>
      </trkpt>
      <trkpt lat="48.07132" lon="-3.48897">
        <ele>148.7</ele>
        <time>2025-02-26T11:20:08Z</time>
      </trkpt>
      <trkpt lat="48.07132" lon="-3.48897">
        <ele>148.7</ele>
        <time>2025-02-26T11:20:09Z</time>
      </trkpt>
      <trkpt lat="48.07132" lon="-3.48897">
        <ele>148.7</ele>
        <time>2025-02-26T11:20:10Z</time>
      </trkpt>
      <trkpt lat="48.07132" lon="-3.48897">
        <ele>148.7</ele>
        <time>2025-02-26T11:20:11Z</time>
      </trkpt>
      <trkpt lat="48.07132" lon="-3.48897">
        <ele>148.7</ele>
        <time>2025-02-26T11:20:12Z</time>
      </trkpt>
      <trkpt lat="48.07132" lon="-3.48897">
        <ele>148.7</ele>
        <time>2025-02-26T11:20:13Z</time>
      </trkpt>
      <trkpt lat="48.07132" lon="-3.48897">
        <ele>148.7</ele>
        <time>2025-02-26T11:20:14Z</time>
      </trkpt>
      <trkpt lat="48.07132" lon="-3.48897">
        <ele>148.7</ele>
        <time>2025-02-26T11:20:15Z</time>
      </trkpt>
      <trkpt lat="48.07132" lon="-3.48897">
        <ele>148.7</ele>
        <time>2025-02-26T11:20:16Z</time>
      </trkpt>
      <trkpt lat="48.07132" lon="-3.48896">
        <ele>148.7</ele>
        <time>2025-02-26T11:20:17Z</time>
      </trkpt>
      <trkpt lat="48.07133" lon="-3.48896">
        <ele>148.7</ele>
        <time>2025-02-26T11:20:18Z</time>
      </trkpt>
      <trkpt lat="48.07133" lon="-3.48896">
        <ele>148.7</ele>
        <time>2025-02-26T11:20:19Z</time>
      </trkpt>
      <trkpt lat="48.07133" lon="-3.48896">
        <ele>148.7</ele>
        <time>2025-02-26T11:20:20Z</time>
      </trkpt>
      <trkpt lat="48.07133" lon="-3.48896">
        <ele>148.7</ele>
        <time>2025-02-26T11:20:21Z</time>
      </trkpt>
      <trkpt lat="48.07133" lon="-3.48896">
        <ele>148.7</ele>
        <time>2025-02-26T11:20:22Z</time>
      </trkpt>
      <trkpt lat="48.07133" lon="-3.48896">
        <ele>148.7</ele>
        <time>2025-02-26T11:20:23Z</time>
      </trkpt>
      <trkpt lat="48.07133" lon="-3.48896">
        <ele>148.7</ele>
        <time>2025-02-26T11:20:24Z</time>
      </trkpt>
      <trkpt lat="48.07133" lon="-3.48896">
        <ele>148.7</ele>
        <time>2025-02-26T11:20:25Z</time>
      </trkpt>
      <trkpt lat="48.07133" lon="-3.48896">
        <ele>148.7</ele>
        <time>2025-02-26T11:20:26Z</time>
      </trkpt>
      <trkpt lat="48.07133" lon="-3.48896">
        <ele>148.7</ele>
        <time>2025-02-26T11:20:27Z</time>
      </trkpt>
      <trkpt lat="48.07133" lon="-3.48896">
        <ele>148.7</ele>
        <time>2025-02-26T11:20:28Z</time>
      </trkpt>
      <trkpt lat="48.07133" lon="-3.48896">
        <ele>148.7</ele>
        <time>2025-02-26T11:20:29Z</time>
      </trkpt>
      <trkpt lat="48.07133" lon="-3.48896">
        <ele>148.7</ele>
        <time>2025-02-26T11:20:30Z</time>
      </trkpt>
      <trkpt lat="48.07133" lon="-3.48896">
        <ele>148.7</ele>
        <time>2025-02-26T11:20:31Z</time>
      </trkpt>
      <trkpt lat="48.07133" lon="-3.48896">
        <ele>148.7</ele>
        <time>2025-02-26T11:20:32Z</time>
      </trkpt>
      <trkpt lat="48.07133" lon="-3.48896">
        <ele>148.7</ele>
        <time>2025-02-26T11:20:33Z</time>
      </trkpt>
      <trkpt lat="48.07133" lon="-3.48896">
        <ele>148.7</ele>
        <time>2025-02-26T11:20:34Z</time>
      </trkpt>
      <trkpt lat="48.07133" lon="-3.48896">
        <ele>148.7</ele>
        <time>2025-02-26T11:20:35Z</time>
      </trkpt>
      <trkpt lat="48.07133" lon="-3.48896">
        <ele>148.7</ele>
        <time>2025-02-26T11:20:36Z</time>
      </trkpt>
      <trkpt lat="48.07133" lon="-3.48896">
        <ele>148.7</ele>
        <time>2025-02-26T11:20:37Z</time>
      </trkpt>
      <trkpt lat="48.07133" lon="-3.48896">
        <ele>148.7</ele>
        <time>2025-02-26T11:20:38Z</time>
      </trkpt>
      <trkpt lat="48.07133" lon="-3.48896">
        <ele>148.7</ele>
        <time>2025-02-26T11:20:39Z</time>
      </trkpt>
      <trkpt lat="48.07133" lon="-3.48896">
        <ele>148.7</ele>
        <time>2025-02-26T11:20:40Z</time>
      </trkpt>
      <trkpt lat="48.07133" lon="-3.48896">
        <ele>148.7</ele>
        <time>2025-02-26T11:20:41Z</time>
      </trkpt>
      <trkpt lat="48.07133" lon="-3.48896">
        <ele>148.7</ele>
        <time>2025-02-26T11:20:42Z</time>
      </trkpt>
      <trkpt lat="48.07133" lon="-3.48896">
        <ele>148.7</ele>
        <time>2025-02-26T11:20:43Z</time>
      </trkpt>
      <trkpt lat="48.07133" lon="-3.48896">
        <ele>148.7</ele>
        <time>2025-02-26T11:20:44Z</time>
      </trkpt>
      <trkpt lat="48.07133" lon="-3.48896">
        <ele>148.7</ele>
        <time>2025-02-26T11:20:45Z</time>
      </trkpt>
      <trkpt lat="48.07133" lon="-3.48896">
        <ele>148.7</ele>
        <time>2025-02-26T11:20:46Z</time>
      </trkpt>
      <trkpt lat="48.07133" lon="-3.48896">
        <ele>148.7</ele>
        <time>2025-02-26T11:20:47Z</time>
      </trkpt>
      <trkpt lat="48.07133" lon="-3.48896">
        <ele>148.7</ele>
        <time>2025-02-26T11:20:48Z</time>
      </trkpt>
      <trkpt lat="48.07133" lon="-3.48896">
        <ele>148.7</ele>
        <time>2025-02-26T11:20:49Z</time>
      </trkpt>
      <trkpt lat="48.07133" lon="-3.48896">
        <ele>148.7</ele>
        <time>2025-02-26T11:20:50Z</time>
      </trkpt>
      <trkpt lat="48.07133" lon="-3.48896">
        <ele>148.7</ele>
        <time>2025-02-26T11:20:51Z</time>
      </trkpt>
      <trkpt lat="48.07133" lon="-3.48896">
        <ele>148.7</ele>
        <time>2025-02-26T11:20:52Z</time>
      </trkpt>
      <trkpt lat="48.07133" lon="-3.48896">
        <ele>148.7</ele>
        <time>2025-02-26T11:20:53Z</time>
      </trkpt>
      <trkpt lat="48.07133" lon="-3.48896">
        <ele>148.7</ele>
        <time>2025-02-26T11:20:54Z</time>
      </trkpt>
      <trkpt lat="48.07133" lon="-3.48896">
        <ele>148.7</ele>
        <time>2025-02-26T11:20:55Z</time>
      </trkpt>
      <trkpt lat="48.07133" lon="-3.48896">
        <ele>148.8</ele>
        <time>2025-02-26T11:20:56Z</time>
      </trkpt>
      <trkpt lat="48.07133" lon="-3.48896">
        <ele>148.8</ele>
        <time>2025-02-26T11:20:57Z</time>
      </trkpt>
      <trkpt lat="48.07133" lon="-3.48896">
        <ele>148.8</ele>
        <time>2025-02-26T11:20:58Z</time>
      </trkpt>
      <trkpt lat="48.07133" lon="-3.48896">
        <ele>148.8</ele>
        <time>2025-02-26T11:20:59Z</time>
      </trkpt>
      <trkpt lat="48.07133" lon="-3.48896">
        <ele>148.8</ele>
        <time>2025-02-26T11:21:00Z</time>
      </trkpt>
      <trkpt lat="48.07133" lon="-3.48896">
        <ele>148.7</ele>
        <time>2025-02-26T11:21:01Z</time>
      </trkpt>
      <trkpt lat="48.07133" lon="-3.48896">
        <ele>148.7</ele>
        <time>2025-02-26T11:21:02Z</time>
      </trkpt>
      <trkpt lat="48.07133" lon="-3.48897">
        <ele>148.7</ele>
        <time>2025-02-26T11:21:03Z</time>
      </trkpt>
      <trkpt lat="48.07133" lon="-3.48896">
        <ele>148.7</ele>
        <time>2025-02-26T11:21:04Z</time>
      </trkpt>
      <trkpt lat="48.07133" lon="-3.48896">
        <ele>148.7</ele>
        <time>2025-02-26T11:21:05Z</time>
      </trkpt>
      <trkpt lat="48.07132" lon="-3.48897">
        <ele>148.7</ele>
        <time>2025-02-26T11:21:06Z</time>
      </trkpt>
      <trkpt lat="48.07132" lon="-3.48896">
        <ele>148.8</ele>
        <time>2025-02-26T11:21:07Z</time>
      </trkpt>
      <trkpt lat="48.07131" lon="-3.48895">
        <ele>148.9</ele>
        <time>2025-02-26T11:21:08Z</time>
      </trkpt>
      <trkpt lat="48.07131" lon="-3.48893">
        <ele>149</ele>
        <time>2025-02-26T11:21:09Z</time>
      </trkpt>
      <trkpt lat="48.0713" lon="-3.48893">
        <ele>149.1</ele>
        <time>2025-02-26T11:21:10Z</time>
      </trkpt>
      <trkpt lat="48.07128" lon="-3.48893">
        <ele>149.1</ele>
        <time>2025-02-26T11:21:11Z</time>
      </trkpt>
      <trkpt lat="48.07127" lon="-3.48894">
        <ele>149</ele>
        <time>2025-02-26T11:21:12Z</time>
      </trkpt>
      <trkpt lat="48.07126" lon="-3.48894">
        <ele>149.1</ele>
        <time>2025-02-26T11:21:13Z</time>
      </trkpt>
      <trkpt lat="48.07125" lon="-3.48893">
        <ele>149.2</ele>
        <time>2025-02-26T11:21:14Z</time>
      </trkpt>
      <trkpt lat="48.07124" lon="-3.48891">
        <ele>149.4</ele>
        <time>2025-02-26T11:21:15Z</time>
      </trkpt>
      <trkpt lat="48.07123" lon="-3.4889">
        <ele>149.5</ele>
        <time>2025-02-26T11:21:16Z</time>
      </trkpt>
      <trkpt lat="48.07123" lon="-3.48889">
        <ele>149.6</ele>
        <time>2025-02-26T11:21:17Z</time>
      </trkpt>
      <trkpt lat="48.07123" lon="-3.48887">
        <ele>149.7</ele>
        <time>2025-02-26T11:21:18Z</time>
      </trkpt>
      <trkpt lat="48.07122" lon="-3.48885">
        <ele>149.7</ele>
        <time>2025-02-26T11:21:19Z</time>
      </trkpt>
      <trkpt lat="48.07122" lon="-3.48884">
        <ele>149.8</ele>
        <time>2025-02-26T11:21:20Z</time>
      </trkpt>
      <trkpt lat="48.07123" lon="-3.48882">
        <ele>149.8</ele>
        <time>2025-02-26T11:21:21Z</time>
      </trkpt>
      <trkpt lat="48.07123" lon="-3.4888">
        <ele>149.9</ele>
        <time>2025-02-26T11:21:22Z</time>
      </trkpt>
      <trkpt lat="48.07123" lon="-3.48879">
        <ele>149.9</ele>
        <time>2025-02-26T11:21:23Z</time>
      </trkpt>
      <trkpt lat="48.07123" lon="-3.48877">
        <ele>150</ele>
        <time>2025-02-26T11:21:24Z</time>
      </trkpt>
      <trkpt lat="48.07123" lon="-3.48876">
        <ele>150.1</ele>
        <time>2025-02-26T11:21:25Z</time>
      </trkpt>
      <trkpt lat="48.07123" lon="-3.48874">
        <ele>150.1</ele>
        <time>2025-02-26T11:21:26Z</time>
      </trkpt>
      <trkpt lat="48.07123" lon="-3.48872">
        <ele>150.2</ele>
        <time>2025-02-26T11:21:27Z</time>
      </trkpt>
      <trkpt lat="48.07124" lon="-3.48871">
        <ele>150.2</ele>
        <time>2025-02-26T11:21:28Z</time>
      </trkpt>
      <trkpt lat="48.07124" lon="-3.4887">
        <ele>150.2</ele>
        <time>2025-02-26T11:21:29Z</time>
      </trkpt>
      <trkpt lat="48.07124" lon="-3.48868">
        <ele>150.3</ele>
        <time>2025-02-26T11:21:30Z</time>
      </trkpt>
      <trkpt lat="48.07125" lon="-3.48867">
        <ele>150.3</ele>
        <time>2025-02-26T11:21:31Z</time>
      </trkpt>
      <trkpt lat="48.07125" lon="-3.48865">
        <ele>150.3</ele>
        <time>2025-02-26T11:21:32Z</time>
      </trkpt>
      <trkpt lat="48.07126" lon="-3.48864">
        <ele>150.4</ele>
        <time>2025-02-26T11:21:33Z</time>
      </trkpt>
      <trkpt lat="48.07126" lon="-3.48862">
        <ele>150.4</ele>
        <time>2025-02-26T11:21:34Z</time>
      </trkpt>
      <trkpt lat="48.07126" lon="-3.48861">
        <ele>150.5</ele>
        <time>2025-02-26T11:21:35Z</time>
      </trkpt>
      <trkpt lat="48.07126" lon="-3.48859">
        <ele>150.5</ele>
        <time>2025-02-26T11:21:36Z</time>
      </trkpt>
      <trkpt lat="48.07125" lon="-3.48857">
        <ele>150.5</ele>
        <time>2025-02-26T11:21:37Z</time>
      </trkpt>
      <trkpt lat="48.07125" lon="-3.48856">
        <ele>150.5</ele>
        <time>2025-02-26T11:21:38Z</time>
      </trkpt>
      <trkpt lat="48.07126" lon="-3.48854">
        <ele>150.5</ele>
        <time>2025-02-26T11:21:39Z</time>
      </trkpt>
      <trkpt lat="48.07126" lon="-3.48851">
        <ele>150.5</ele>
        <time>2025-02-26T11:21:40Z</time>
      </trkpt>
      <trkpt lat="48.07125" lon="-3.4885">
        <ele>150.5</ele>
        <time>2025-02-26T11:21:41Z</time>
      </trkpt>
      <trkpt lat="48.07125" lon="-3.4885">
        <ele>150.5</ele>
        <time>2025-02-26T11:21:42Z</time>
      </trkpt>
      <trkpt lat="48.07125" lon="-3.4885">
        <ele>150.5</ele>
        <time>2025-02-26T11:21:43Z</time>
      </trkpt>
      <trkpt lat="48.07125" lon="-3.4885">
        <ele>150.5</ele>
        <time>2025-02-26T11:21:44Z</time>
      </trkpt>
      <trkpt lat="48.07125" lon="-3.4885">
        <ele>150.5</ele>
        <time>2025-02-26T11:21:45Z</time>
      </trkpt>
      <trkpt lat="48.07125" lon="-3.4885">
        <ele>150.5</ele>
        <time>2025-02-26T11:21:46Z</time>
      </trkpt>
      <trkpt lat="48.07125" lon="-3.4885">
        <ele>150.5</ele>
        <time>2025-02-26T11:21:47Z</time>
      </trkpt>
      <trkpt lat="48.07125" lon="-3.4885">
        <ele>150.5</ele>
        <time>2025-02-26T11:21:48Z</time>
      </trkpt>
      <trkpt lat="48.07125" lon="-3.4885">
        <ele>150.5</ele>
        <time>2025-02-26T11:21:49Z</time>
      </trkpt>
      <trkpt lat="48.07125" lon="-3.4885">
        <ele>150.5</ele>
        <time>2025-02-26T11:21:50Z</time>
      </trkpt>
      <trkpt lat="48.07125" lon="-3.4885">
        <ele>150.5</ele>
        <time>2025-02-26T11:21:51Z</time>
      </trkpt>
      <trkpt lat="48.07125" lon="-3.48849">
        <ele>150.5</ele>
        <time>2025-02-26T11:21:52Z</time>
      </trkpt>
      <trkpt lat="48.07125" lon="-3.48849">
        <ele>150.5</ele>
        <time>2025-02-26T11:21:53Z</time>
      </trkpt>
      <trkpt lat="48.07125" lon="-3.48847">
        <ele>150.5</ele>
        <time>2025-02-26T11:21:54Z</time>
      </trkpt>
      <trkpt lat="48.07124" lon="-3.48845">
        <ele>150.5</ele>
        <time>2025-02-26T11:21:55Z</time>
      </trkpt>
      <trkpt lat="48.07124" lon="-3.48844">
        <ele>150.5</ele>
        <time>2025-02-26T11:21:56Z</time>
      </trkpt>
      <trkpt lat="48.07124" lon="-3.48842">
        <ele>150.5</ele>
        <time>2025-02-26T11:21:57Z</time>
      </trkpt>
      <trkpt lat="48.07124" lon="-3.48841">
        <ele>150.5</ele>
        <time>2025-02-26T11:21:58Z</time>
      </trkpt>
      <trkpt lat="48.07125" lon="-3.48839">
        <ele>150.5</ele>
        <time>2025-02-26T11:21:59Z</time>
      </trkpt>
      <trkpt lat="48.07124" lon="-3.48837">
        <ele>150.5</ele>
        <time>2025-02-26T11:22:00Z</time>
      </trkpt>
      <trkpt lat="48.07124" lon="-3.48836">
        <ele>150.5</ele>
        <time>2025-02-26T11:22:01Z</time>
      </trkpt>
      <trkpt lat="48.07124" lon="-3.48835">
        <ele>150.5</ele>
        <time>2025-02-26T11:22:02Z</time>
      </trkpt>
      <trkpt lat="48.07124" lon="-3.48833">
        <ele>150.5</ele>
        <time>2025-02-26T11:22:03Z</time>
      </trkpt>
      <trkpt lat="48.07124" lon="-3.48832">
        <ele>150.6</ele>
        <time>2025-02-26T11:22:04Z</time>
      </trkpt>
      <trkpt lat="48.07125" lon="-3.48831">
        <ele>150.6</ele>
        <time>2025-02-26T11:22:05Z</time>
      </trkpt>
      <trkpt lat="48.07124" lon="-3.4883">
        <ele>150.6</ele>
        <time>2025-02-26T11:22:06Z</time>
      </trkpt>
      <trkpt lat="48.07124" lon="-3.48829">
        <ele>150.7</ele>
        <time>2025-02-26T11:22:07Z</time>
      </trkpt>
      <trkpt lat="48.07125" lon="-3.48828">
        <ele>150.7</ele>
        <time>2025-02-26T11:22:08Z</time>
      </trkpt>
      <trkpt lat="48.07125" lon="-3.48827">
        <ele>150.8</ele>
        <time>2025-02-26T11:22:09Z</time>
      </trkpt>
      <trkpt lat="48.07124" lon="-3.48826">
        <ele>150.8</ele>
        <time>2025-02-26T11:22:10Z</time>
      </trkpt>
      <trkpt lat="48.07124" lon="-3.48824">
        <ele>150.8</ele>
        <time>2025-02-26T11:22:11Z</time>
      </trkpt>
      <trkpt lat="48.07124" lon="-3.48823">
        <ele>150.9</ele>
        <time>2025-02-26T11:22:12Z</time>
      </trkpt>
      <trkpt lat="48.07124" lon="-3.48821">
        <ele>151</ele>
        <time>2025-02-26T11:22:13Z</time>
      </trkpt>
      <trkpt lat="48.07125" lon="-3.4882">
        <ele>151</ele>
        <time>2025-02-26T11:22:14Z</time>
      </trkpt>
      <trkpt lat="48.07125" lon="-3.48819">
        <ele>151</ele>
        <time>2025-02-26T11:22:15Z</time>
      </trkpt>
      <trkpt lat="48.07125" lon="-3.48817">
        <ele>151.1</ele>
        <time>2025-02-26T11:22:16Z</time>
      </trkpt>
      <trkpt lat="48.07124" lon="-3.48816">
        <ele>151.2</ele>
        <time>2025-02-26T11:22:17Z</time>
      </trkpt>
      <trkpt lat="48.07124" lon="-3.48815">
        <ele>151.2</ele>
        <time>2025-02-26T11:22:18Z</time>
      </trkpt>
      <trkpt lat="48.07124" lon="-3.48813">
        <ele>151.3</ele>
        <time>2025-02-26T11:22:19Z</time>
      </trkpt>
      <trkpt lat="48.07124" lon="-3.48812">
        <ele>151.3</ele>
        <time>2025-02-26T11:22:20Z</time>
      </trkpt>
      <trkpt lat="48.07124" lon="-3.4881">
        <ele>151.4</ele>
        <time>2025-02-26T11:22:21Z</time>
      </trkpt>
      <trkpt lat="48.07124" lon="-3.48809">
        <ele>151.4</ele>
        <time>2025-02-26T11:22:22Z</time>
      </trkpt>
      <trkpt lat="48.07124" lon="-3.48807">
        <ele>151.5</ele>
        <time>2025-02-26T11:22:23Z</time>
      </trkpt>
      <trkpt lat="48.07124" lon="-3.48806">
        <ele>151.6</ele>
        <time>2025-02-26T11:22:24Z</time>
      </trkpt>
      <trkpt lat="48.07124" lon="-3.48804">
        <ele>151.6</ele>
        <time>2025-02-26T11:22:25Z</time>
      </trkpt>
      <trkpt lat="48.07125" lon="-3.48803">
        <ele>151.6</ele>
        <time>2025-02-26T11:22:26Z</time>
      </trkpt>
      <trkpt lat="48.07126" lon="-3.48802">
        <ele>151.6</ele>
        <time>2025-02-26T11:22:27Z</time>
      </trkpt>
      <trkpt lat="48.07126" lon="-3.488">
        <ele>151.7</ele>
        <time>2025-02-26T11:22:28Z</time>
      </trkpt>
      <trkpt lat="48.07127" lon="-3.48798">
        <ele>151.7</ele>
        <time>2025-02-26T11:22:29Z</time>
      </trkpt>
      <trkpt lat="48.07127" lon="-3.48796">
        <ele>151.8</ele>
        <time>2025-02-26T11:22:30Z</time>
      </trkpt>
      <trkpt lat="48.07127" lon="-3.48795">
        <ele>151.8</ele>
        <time>2025-02-26T11:22:31Z</time>
      </trkpt>
      <trkpt lat="48.07127" lon="-3.48793">
        <ele>151.9</ele>
        <time>2025-02-26T11:22:32Z</time>
      </trkpt>
      <trkpt lat="48.07127" lon="-3.48792">
        <ele>151.9</ele>
        <time>2025-02-26T11:22:33Z</time>
      </trkpt>
      <trkpt lat="48.07127" lon="-3.4879">
        <ele>152</ele>
        <time>2025-02-26T11:22:34Z</time>
      </trkpt>
      <trkpt lat="48.07127" lon="-3.48788">
        <ele>152.1</ele>
        <time>2025-02-26T11:22:35Z</time>
      </trkpt>
      <trkpt lat="48.07127" lon="-3.48786">
        <ele>152.1</ele>
        <time>2025-02-26T11:22:36Z</time>
      </trkpt>
      <trkpt lat="48.07127" lon="-3.48785">
        <ele>152.2</ele>
        <time>2025-02-26T11:22:37Z</time>
      </trkpt>
      <trkpt lat="48.07128" lon="-3.48783">
        <ele>152.2</ele>
        <time>2025-02-26T11:22:38Z</time>
      </trkpt>
      <trkpt lat="48.07128" lon="-3.48781">
        <ele>152.3</ele>
        <time>2025-02-26T11:22:39Z</time>
      </trkpt>
      <trkpt lat="48.07128" lon="-3.4878">
        <ele>152.3</ele>
        <time>2025-02-26T11:22:40Z</time>
      </trkpt>
      <trkpt lat="48.07128" lon="-3.48778">
        <ele>152.4</ele>
        <time>2025-02-26T11:22:41Z</time>
      </trkpt>
      <trkpt lat="48.07128" lon="-3.48776">
        <ele>152.4</ele>
        <time>2025-02-26T11:22:42Z</time>
      </trkpt>
      <trkpt lat="48.07128" lon="-3.48775">
        <ele>152.4</ele>
        <time>2025-02-26T11:22:43Z</time>
      </trkpt>
      <trkpt lat="48.07128" lon="-3.48773">
        <ele>152.4</ele>
        <time>2025-02-26T11:22:44Z</time>
      </trkpt>
      <trkpt lat="48.07128" lon="-3.48771">
        <ele>152.4</ele>
        <time>2025-02-26T11:22:45Z</time>
      </trkpt>
      <trkpt lat="48.07128" lon="-3.4877">
        <ele>152.4</ele>
        <time>2025-02-26T11:22:46Z</time>
      </trkpt>
      <trkpt lat="48.07128" lon="-3.48769">
        <ele>152.4</ele>
        <time>2025-02-26T11:22:47Z</time>
      </trkpt>
      <trkpt lat="48.07128" lon="-3.48767">
        <ele>152.4</ele>
        <time>2025-02-26T11:22:48Z</time>
      </trkpt>
      <trkpt lat="48.07128" lon="-3.48766">
        <ele>152.4</ele>
        <time>2025-02-26T11:22:49Z</time>
      </trkpt>
      <trkpt lat="48.07128" lon="-3.48764">
        <ele>152.4</ele>
        <time>2025-02-26T11:22:50Z</time>
      </trkpt>
      <trkpt lat="48.07128" lon="-3.48762">
        <ele>152.4</ele>
        <time>2025-02-26T11:22:51Z</time>
      </trkpt>
      <trkpt lat="48.07129" lon="-3.48761">
        <ele>152.4</ele>
        <time>2025-02-26T11:22:52Z</time>
      </trkpt>
      <trkpt lat="48.07129" lon="-3.48759">
        <ele>152.3</ele>
        <time>2025-02-26T11:22:53Z</time>
      </trkpt>
      <trkpt lat="48.07129" lon="-3.48758">
        <ele>152.3</ele>
        <time>2025-02-26T11:22:54Z</time>
      </trkpt>
      <trkpt lat="48.0713" lon="-3.48756">
        <ele>152.3</ele>
        <time>2025-02-26T11:22:55Z</time>
      </trkpt>
      <trkpt lat="48.0713" lon="-3.48755">
        <ele>152.3</ele>
        <time>2025-02-26T11:22:56Z</time>
      </trkpt>
      <trkpt lat="48.0713" lon="-3.48754">
        <ele>152.3</ele>
        <time>2025-02-26T11:22:57Z</time>
      </trkpt>
      <trkpt lat="48.0713" lon="-3.48752">
        <ele>152.3</ele>
        <time>2025-02-26T11:22:58Z</time>
      </trkpt>
      <trkpt lat="48.0713" lon="-3.4875">
        <ele>152.3</ele>
        <time>2025-02-26T11:22:59Z</time>
      </trkpt>
      <trkpt lat="48.0713" lon="-3.48748">
        <ele>152.4</ele>
        <time>2025-02-26T11:23:00Z</time>
      </trkpt>
      <trkpt lat="48.0713" lon="-3.48747">
        <ele>152.4</ele>
        <time>2025-02-26T11:23:01Z</time>
      </trkpt>
      <trkpt lat="48.0713" lon="-3.48745">
        <ele>152.5</ele>
        <time>2025-02-26T11:23:02Z</time>
      </trkpt>
      <trkpt lat="48.0713" lon="-3.48743">
        <ele>152.6</ele>
        <time>2025-02-26T11:23:03Z</time>
      </trkpt>
      <trkpt lat="48.0713" lon="-3.48742">
        <ele>152.6</ele>
        <time>2025-02-26T11:23:04Z</time>
      </trkpt>
      <trkpt lat="48.0713" lon="-3.4874">
        <ele>152.7</ele>
        <time>2025-02-26T11:23:05Z</time>
      </trkpt>
      <trkpt lat="48.0713" lon="-3.48738">
        <ele>152.7</ele>
        <time>2025-02-26T11:23:06Z</time>
      </trkpt>
      <trkpt lat="48.0713" lon="-3.48736">
        <ele>152.8</ele>
        <time>2025-02-26T11:23:07Z</time>
      </trkpt>
      <trkpt lat="48.0713" lon="-3.48734">
        <ele>152.9</ele>
        <time>2025-02-26T11:23:08Z</time>
      </trkpt>
      <trkpt lat="48.0713" lon="-3.48733">
        <ele>153</ele>
        <time>2025-02-26T11:23:09Z</time>
      </trkpt>
      <trkpt lat="48.0713" lon="-3.48731">
        <ele>153</ele>
        <time>2025-02-26T11:23:10Z</time>
      </trkpt>
      <trkpt lat="48.0713" lon="-3.48729">
        <ele>153.1</ele>
        <time>2025-02-26T11:23:11Z</time>
      </trkpt>
      <trkpt lat="48.07129" lon="-3.48727">
        <ele>153.2</ele>
        <time>2025-02-26T11:23:12Z</time>
      </trkpt>
      <trkpt lat="48.07129" lon="-3.48725">
        <ele>153.2</ele>
        <time>2025-02-26T11:23:13Z</time>
      </trkpt>
      <trkpt lat="48.07129" lon="-3.48724">
        <ele>153.3</ele>
        <time>2025-02-26T11:23:14Z</time>
      </trkpt>
      <trkpt lat="48.07128" lon="-3.48722">
        <ele>153.4</ele>
        <time>2025-02-26T11:23:15Z</time>
      </trkpt>
      <trkpt lat="48.07128" lon="-3.48721">
        <ele>153.4</ele>
        <time>2025-02-26T11:23:16Z</time>
      </trkpt>
      <trkpt lat="48.07128" lon="-3.48719">
        <ele>153.4</ele>
        <time>2025-02-26T11:23:17Z</time>
      </trkpt>
      <trkpt lat="48.07127" lon="-3.48717">
        <ele>153.4</ele>
        <time>2025-02-26T11:23:18Z</time>
      </trkpt>
      <trkpt lat="48.07127" lon="-3.48715">
        <ele>153.4</ele>
        <time>2025-02-26T11:23:19Z</time>
      </trkpt>
      <trkpt lat="48.07127" lon="-3.48714">
        <ele>153.4</ele>
        <time>2025-02-26T11:23:20Z</time>
      </trkpt>
      <trkpt lat="48.07126" lon="-3.48712">
        <ele>153.5</ele>
        <time>2025-02-26T11:23:21Z</time>
      </trkpt>
      <trkpt lat="48.07126" lon="-3.48711">
        <ele>153.5</ele>
        <time>2025-02-26T11:23:22Z</time>
      </trkpt>
      <trkpt lat="48.07125" lon="-3.4871">
        <ele>153.5</ele>
        <time>2025-02-26T11:23:23Z</time>
      </trkpt>
      <trkpt lat="48.07125" lon="-3.48708">
        <ele>153.5</ele>
        <time>2025-02-26T11:23:24Z</time>
      </trkpt>
      <trkpt lat="48.07124" lon="-3.48706">
        <ele>153.5</ele>
        <time>2025-02-26T11:23:25Z</time>
      </trkpt>
      <trkpt lat="48.07123" lon="-3.48705">
        <ele>153.6</ele>
        <time>2025-02-26T11:23:26Z</time>
      </trkpt>
      <trkpt lat="48.07122" lon="-3.48704">
        <ele>153.6</ele>
        <time>2025-02-26T11:23:27Z</time>
      </trkpt>
      <trkpt lat="48.07122" lon="-3.48702">
        <ele>153.6</ele>
        <time>2025-02-26T11:23:28Z</time>
      </trkpt>
      <trkpt lat="48.07122" lon="-3.487">
        <ele>153.6</ele>
        <time>2025-02-26T11:23:29Z</time>
      </trkpt>
      <trkpt lat="48.07121" lon="-3.48699">
        <ele>153.6</ele>
        <time>2025-02-26T11:23:30Z</time>
      </trkpt>
      <trkpt lat="48.0712" lon="-3.48697">
        <ele>153.7</ele>
        <time>2025-02-26T11:23:31Z</time>
      </trkpt>
      <trkpt lat="48.07119" lon="-3.48696">
        <ele>153.7</ele>
        <time>2025-02-26T11:23:32Z</time>
      </trkpt>
      <trkpt lat="48.07119" lon="-3.48694">
        <ele>153.7</ele>
        <time>2025-02-26T11:23:33Z</time>
      </trkpt>
      <trkpt lat="48.07118" lon="-3.48693">
        <ele>153.7</ele>
        <time>2025-02-26T11:23:34Z</time>
      </trkpt>
      <trkpt lat="48.07117" lon="-3.48692">
        <ele>153.7</ele>
        <time>2025-02-26T11:23:35Z</time>
      </trkpt>
      <trkpt lat="48.07117" lon="-3.4869">
        <ele>153.6</ele>
        <time>2025-02-26T11:23:36Z</time>
      </trkpt>
      <trkpt lat="48.07116" lon="-3.48689">
        <ele>153.6</ele>
        <time>2025-02-26T11:23:37Z</time>
      </trkpt>
      <trkpt lat="48.07116" lon="-3.48687">
        <ele>153.6</ele>
        <time>2025-02-26T11:23:38Z</time>
      </trkpt>
      <trkpt lat="48.07115" lon="-3.48686">
        <ele>153.6</ele>
        <time>2025-02-26T11:23:39Z</time>
      </trkpt>
      <trkpt lat="48.07114" lon="-3.48684">
        <ele>153.5</ele>
        <time>2025-02-26T11:23:40Z</time>
      </trkpt>
      <trkpt lat="48.07114" lon="-3.48683">
        <ele>153.5</ele>
        <time>2025-02-26T11:23:41Z</time>
      </trkpt>
      <trkpt lat="48.07113" lon="-3.48681">
        <ele>153.4</ele>
        <time>2025-02-26T11:23:42Z</time>
      </trkpt>
      <trkpt lat="48.07112" lon="-3.48679">
        <ele>153.4</ele>
        <time>2025-02-26T11:23:43Z</time>
      </trkpt>
      <trkpt lat="48.07112" lon="-3.48678">
        <ele>153.4</ele>
        <time>2025-02-26T11:23:44Z</time>
      </trkpt>
      <trkpt lat="48.07111" lon="-3.48677">
        <ele>153.4</ele>
        <time>2025-02-26T11:23:45Z</time>
      </trkpt>
      <trkpt lat="48.0711" lon="-3.48675">
        <ele>153.3</ele>
        <time>2025-02-26T11:23:46Z</time>
      </trkpt>
      <trkpt lat="48.0711" lon="-3.48674">
        <ele>153.3</ele>
        <time>2025-02-26T11:23:47Z</time>
      </trkpt>
      <trkpt lat="48.07109" lon="-3.48673">
        <ele>153.3</ele>
        <time>2025-02-26T11:23:48Z</time>
      </trkpt>
      <trkpt lat="48.07108" lon="-3.48671">
        <ele>153.2</ele>
        <time>2025-02-26T11:23:49Z</time>
      </trkpt>
      <trkpt lat="48.07108" lon="-3.48669">
        <ele>153.2</ele>
        <time>2025-02-26T11:23:50Z</time>
      </trkpt>
      <trkpt lat="48.07107" lon="-3.48668">
        <ele>153.2</ele>
        <time>2025-02-26T11:23:51Z</time>
      </trkpt>
      <trkpt lat="48.07106" lon="-3.48666">
        <ele>153.2</ele>
        <time>2025-02-26T11:23:52Z</time>
      </trkpt>
      <trkpt lat="48.07105" lon="-3.48665">
        <ele>153.2</ele>
        <time>2025-02-26T11:23:53Z</time>
      </trkpt>
      <trkpt lat="48.07104" lon="-3.48663">
        <ele>153.2</ele>
        <time>2025-02-26T11:23:54Z</time>
      </trkpt>
      <trkpt lat="48.07103" lon="-3.48662">
        <ele>153.3</ele>
        <time>2025-02-26T11:23:55Z</time>
      </trkpt>
      <trkpt lat="48.07103" lon="-3.48661">
        <ele>153.3</ele>
        <time>2025-02-26T11:23:56Z</time>
      </trkpt>
      <trkpt lat="48.07102" lon="-3.48659">
        <ele>153.3</ele>
        <time>2025-02-26T11:23:57Z</time>
      </trkpt>
      <trkpt lat="48.07101" lon="-3.48657">
        <ele>153.4</ele>
        <time>2025-02-26T11:23:58Z</time>
      </trkpt>
      <trkpt lat="48.07101" lon="-3.48656">
        <ele>153.4</ele>
        <time>2025-02-26T11:23:59Z</time>
      </trkpt>
      <trkpt lat="48.071" lon="-3.48654">
        <ele>153.4</ele>
        <time>2025-02-26T11:24:00Z</time>
      </trkpt>
      <trkpt lat="48.07099" lon="-3.48652">
        <ele>153.4</ele>
        <time>2025-02-26T11:24:01Z</time>
      </trkpt>
      <trkpt lat="48.07099" lon="-3.48651">
        <ele>153.5</ele>
        <time>2025-02-26T11:24:02Z</time>
      </trkpt>
      <trkpt lat="48.07098" lon="-3.48649">
        <ele>153.5</ele>
        <time>2025-02-26T11:24:03Z</time>
      </trkpt>
      <trkpt lat="48.07097" lon="-3.48648">
        <ele>153.5</ele>
        <time>2025-02-26T11:24:04Z</time>
      </trkpt>
      <trkpt lat="48.07097" lon="-3.48647">
        <ele>153.5</ele>
        <time>2025-02-26T11:24:05Z</time>
      </trkpt>
      <trkpt lat="48.07096" lon="-3.48645">
        <ele>153.6</ele>
        <time>2025-02-26T11:24:06Z</time>
      </trkpt>
      <trkpt lat="48.07095" lon="-3.48643">
        <ele>153.6</ele>
        <time>2025-02-26T11:24:07Z</time>
      </trkpt>
      <trkpt lat="48.07094" lon="-3.48642">
        <ele>153.6</ele>
        <time>2025-02-26T11:24:08Z</time>
      </trkpt>
      <trkpt lat="48.07093" lon="-3.4864">
        <ele>153.6</ele>
        <time>2025-02-26T11:24:09Z</time>
      </trkpt>
      <trkpt lat="48.07092" lon="-3.48639">
        <ele>153.7</ele>
        <time>2025-02-26T11:24:10Z</time>
      </trkpt>
      <trkpt lat="48.07092" lon="-3.48637">
        <ele>153.7</ele>
        <time>2025-02-26T11:24:11Z</time>
      </trkpt>
      <trkpt lat="48.07091" lon="-3.48635">
        <ele>153.7</ele>
        <time>2025-02-26T11:24:12Z</time>
      </trkpt>
      <trkpt lat="48.0709" lon="-3.48634">
        <ele>153.7</ele>
        <time>2025-02-26T11:24:13Z</time>
      </trkpt>
      <trkpt lat="48.0709" lon="-3.48633">
        <ele>153.8</ele>
        <time>2025-02-26T11:24:14Z</time>
      </trkpt>
      <trkpt lat="48.07089" lon="-3.48631">
        <ele>153.8</ele>
        <time>2025-02-26T11:24:15Z</time>
      </trkpt>
      <trkpt lat="48.07088" lon="-3.4863">
        <ele>153.8</ele>
        <time>2025-02-26T11:24:16Z</time>
      </trkpt>
      <trkpt lat="48.07088" lon="-3.48628">
        <ele>153.8</ele>
        <time>2025-02-26T11:24:17Z</time>
      </trkpt>
      <trkpt lat="48.07087" lon="-3.48627">
        <ele>153.9</ele>
        <time>2025-02-26T11:24:18Z</time>
      </trkpt>
      <trkpt lat="48.07086" lon="-3.48625">
        <ele>153.9</ele>
        <time>2025-02-26T11:24:19Z</time>
      </trkpt>
      <trkpt lat="48.07086" lon="-3.48624">
        <ele>153.9</ele>
        <time>2025-02-26T11:24:20Z</time>
      </trkpt>
      <trkpt lat="48.07085" lon="-3.48623">
        <ele>153.9</ele>
        <time>2025-02-26T11:24:21Z</time>
      </trkpt>
      <trkpt lat="48.07084" lon="-3.48622">
        <ele>154</ele>
        <time>2025-02-26T11:24:22Z</time>
      </trkpt>
      <trkpt lat="48.07084" lon="-3.4862">
        <ele>154</ele>
        <time>2025-02-26T11:24:23Z</time>
      </trkpt>
      <trkpt lat="48.07083" lon="-3.48619">
        <ele>154</ele>
        <time>2025-02-26T11:24:24Z</time>
      </trkpt>
      <trkpt lat="48.07083" lon="-3.48618">
        <ele>154</ele>
        <time>2025-02-26T11:24:25Z</time>
      </trkpt>
      <trkpt lat="48.07082" lon="-3.48617">
        <ele>153.9</ele>
        <time>2025-02-26T11:24:26Z</time>
      </trkpt>
      <trkpt lat="48.07081" lon="-3.48615">
        <ele>153.9</ele>
        <time>2025-02-26T11:24:27Z</time>
      </trkpt>
      <trkpt lat="48.0708" lon="-3.48614">
        <ele>153.9</ele>
        <time>2025-02-26T11:24:28Z</time>
      </trkpt>
      <trkpt lat="48.0708" lon="-3.48612">
        <ele>153.9</ele>
        <time>2025-02-26T11:24:29Z</time>
      </trkpt>
      <trkpt lat="48.07079" lon="-3.48611">
        <ele>153.8</ele>
        <time>2025-02-26T11:24:30Z</time>
      </trkpt>
      <trkpt lat="48.07079" lon="-3.48609">
        <ele>153.8</ele>
        <time>2025-02-26T11:24:31Z</time>
      </trkpt>
      <trkpt lat="48.07078" lon="-3.48608">
        <ele>153.7</ele>
        <time>2025-02-26T11:24:32Z</time>
      </trkpt>
      <trkpt lat="48.07077" lon="-3.48607">
        <ele>153.6</ele>
        <time>2025-02-26T11:24:33Z</time>
      </trkpt>
      <trkpt lat="48.07076" lon="-3.48606">
        <ele>153.5</ele>
        <time>2025-02-26T11:24:34Z</time>
      </trkpt>
      <trkpt lat="48.07076" lon="-3.48604">
        <ele>153.5</ele>
        <time>2025-02-26T11:24:35Z</time>
      </trkpt>
      <trkpt lat="48.07075" lon="-3.48603">
        <ele>153.4</ele>
        <time>2025-02-26T11:24:36Z</time>
      </trkpt>
      <trkpt lat="48.07074" lon="-3.48601">
        <ele>153.3</ele>
        <time>2025-02-26T11:24:37Z</time>
      </trkpt>
      <trkpt lat="48.07073" lon="-3.486">
        <ele>153.2</ele>
        <time>2025-02-26T11:24:38Z</time>
      </trkpt>
      <trkpt lat="48.07073" lon="-3.48599">
        <ele>153.2</ele>
        <time>2025-02-26T11:24:39Z</time>
      </trkpt>
      <trkpt lat="48.07072" lon="-3.48597">
        <ele>153.1</ele>
        <time>2025-02-26T11:24:40Z</time>
      </trkpt>
      <trkpt lat="48.07072" lon="-3.48596">
        <ele>153</ele>
        <time>2025-02-26T11:24:41Z</time>
      </trkpt>
      <trkpt lat="48.07071" lon="-3.48594">
        <ele>152.9</ele>
        <time>2025-02-26T11:24:42Z</time>
      </trkpt>
      <trkpt lat="48.0707" lon="-3.48593">
        <ele>152.9</ele>
        <time>2025-02-26T11:24:43Z</time>
      </trkpt>
      <trkpt lat="48.07069" lon="-3.48592">
        <ele>152.8</ele>
        <time>2025-02-26T11:24:44Z</time>
      </trkpt>
      <trkpt lat="48.07069" lon="-3.48591">
        <ele>152.7</ele>
        <time>2025-02-26T11:24:45Z</time>
      </trkpt>
      <trkpt lat="48.07068" lon="-3.48589">
        <ele>152.7</ele>
        <time>2025-02-26T11:24:46Z</time>
      </trkpt>
      <trkpt lat="48.07067" lon="-3.48588">
        <ele>152.6</ele>
        <time>2025-02-26T11:24:47Z</time>
      </trkpt>
      <trkpt lat="48.07066" lon="-3.48587">
        <ele>152.5</ele>
        <time>2025-02-26T11:24:48Z</time>
      </trkpt>
      <trkpt lat="48.07066" lon="-3.48585">
        <ele>152.4</ele>
        <time>2025-02-26T11:24:49Z</time>
      </trkpt>
      <trkpt lat="48.07065" lon="-3.48584">
        <ele>152.4</ele>
        <time>2025-02-26T11:24:50Z</time>
      </trkpt>
      <trkpt lat="48.07065" lon="-3.48583">
        <ele>152.3</ele>
        <time>2025-02-26T11:24:51Z</time>
      </trkpt>
      <trkpt lat="48.07064" lon="-3.48581">
        <ele>152.2</ele>
        <time>2025-02-26T11:24:52Z</time>
      </trkpt>
      <trkpt lat="48.07063" lon="-3.4858">
        <ele>152.2</ele>
        <time>2025-02-26T11:24:53Z</time>
      </trkpt>
      <trkpt lat="48.07063" lon="-3.48579">
        <ele>152.1</ele>
        <time>2025-02-26T11:24:54Z</time>
      </trkpt>
      <trkpt lat="48.07063" lon="-3.48577">
        <ele>152</ele>
        <time>2025-02-26T11:24:55Z</time>
      </trkpt>
      <trkpt lat="48.07062" lon="-3.48575">
        <ele>151.9</ele>
        <time>2025-02-26T11:24:56Z</time>
      </trkpt>
      <trkpt lat="48.07062" lon="-3.48574">
        <ele>151.9</ele>
        <time>2025-02-26T11:24:57Z</time>
      </trkpt>
      <trkpt lat="48.07061" lon="-3.48572">
        <ele>151.8</ele>
        <time>2025-02-26T11:24:58Z</time>
      </trkpt>
      <trkpt lat="48.0706" lon="-3.48571">
        <ele>151.7</ele>
        <time>2025-02-26T11:24:59Z</time>
      </trkpt>
      <trkpt lat="48.0706" lon="-3.4857">
        <ele>151.7</ele>
        <time>2025-02-26T11:25:00Z</time>
      </trkpt>
      <trkpt lat="48.07059" lon="-3.48569">
        <ele>151.6</ele>
        <time>2025-02-26T11:25:01Z</time>
      </trkpt>
      <trkpt lat="48.07058" lon="-3.48568">
        <ele>151.5</ele>
        <time>2025-02-26T11:25:02Z</time>
      </trkpt>
      <trkpt lat="48.07057" lon="-3.48567">
        <ele>151.5</ele>
        <time>2025-02-26T11:25:03Z</time>
      </trkpt>
      <trkpt lat="48.07056" lon="-3.48566">
        <ele>151.4</ele>
        <time>2025-02-26T11:25:04Z</time>
      </trkpt>
      <trkpt lat="48.07056" lon="-3.48565">
        <ele>151.3</ele>
        <time>2025-02-26T11:25:05Z</time>
      </trkpt>
      <trkpt lat="48.07055" lon="-3.48563">
        <ele>151.3</ele>
        <time>2025-02-26T11:25:06Z</time>
      </trkpt>
      <trkpt lat="48.07055" lon="-3.48562">
        <ele>151.2</ele>
        <time>2025-02-26T11:25:07Z</time>
      </trkpt>
      <trkpt lat="48.07054" lon="-3.4856">
        <ele>151.1</ele>
        <time>2025-02-26T11:25:08Z</time>
      </trkpt>
      <trkpt lat="48.07053" lon="-3.48559">
        <ele>151</ele>
        <time>2025-02-26T11:25:09Z</time>
      </trkpt>
      <trkpt lat="48.07053" lon="-3.48558">
        <ele>151</ele>
        <time>2025-02-26T11:25:10Z</time>
      </trkpt>
      <trkpt lat="48.07052" lon="-3.48557">
        <ele>150.9</ele>
        <time>2025-02-26T11:25:11Z</time>
      </trkpt>
      <trkpt lat="48.07051" lon="-3.48556">
        <ele>150.9</ele>
        <time>2025-02-26T11:25:12Z</time>
      </trkpt>
      <trkpt lat="48.07051" lon="-3.48555">
        <ele>150.8</ele>
        <time>2025-02-26T11:25:13Z</time>
      </trkpt>
      <trkpt lat="48.0705" lon="-3.48553">
        <ele>150.6</ele>
        <time>2025-02-26T11:25:14Z</time>
      </trkpt>
      <trkpt lat="48.07049" lon="-3.48551">
        <ele>150.5</ele>
        <time>2025-02-26T11:25:15Z</time>
      </trkpt>
      <trkpt lat="48.07049" lon="-3.4855">
        <ele>150.5</ele>
        <time>2025-02-26T11:25:16Z</time>
      </trkpt>
      <trkpt lat="48.07048" lon="-3.48549">
        <ele>150.4</ele>
        <time>2025-02-26T11:25:17Z</time>
      </trkpt>
      <trkpt lat="48.07047" lon="-3.48548">
        <ele>150.3</ele>
        <time>2025-02-26T11:25:18Z</time>
      </trkpt>
      <trkpt lat="48.07046" lon="-3.48547">
        <ele>150.2</ele>
        <time>2025-02-26T11:25:19Z</time>
      </trkpt>
      <trkpt lat="48.07046" lon="-3.48545">
        <ele>150.2</ele>
        <time>2025-02-26T11:25:20Z</time>
      </trkpt>
      <trkpt lat="48.07045" lon="-3.48544">
        <ele>150.1</ele>
        <time>2025-02-26T11:25:21Z</time>
      </trkpt>
      <trkpt lat="48.07044" lon="-3.48543">
        <ele>150</ele>
        <time>2025-02-26T11:25:22Z</time>
      </trkpt>
      <trkpt lat="48.07043" lon="-3.48541">
        <ele>150</ele>
        <time>2025-02-26T11:25:23Z</time>
      </trkpt>
      <trkpt lat="48.07042" lon="-3.4854">
        <ele>149.9</ele>
        <time>2025-02-26T11:25:24Z</time>
      </trkpt>
      <trkpt lat="48.07041" lon="-3.48539">
        <ele>149.9</ele>
        <time>2025-02-26T11:25:25Z</time>
      </trkpt>
      <trkpt lat="48.07041" lon="-3.48537">
        <ele>149.9</ele>
        <time>2025-02-26T11:25:26Z</time>
      </trkpt>
      <trkpt lat="48.0704" lon="-3.48536">
        <ele>149.8</ele>
        <time>2025-02-26T11:25:27Z</time>
      </trkpt>
      <trkpt lat="48.07039" lon="-3.48534">
        <ele>149.8</ele>
        <time>2025-02-26T11:25:28Z</time>
      </trkpt>
      <trkpt lat="48.07039" lon="-3.48533">
        <ele>149.8</ele>
        <time>2025-02-26T11:25:29Z</time>
      </trkpt>
      <trkpt lat="48.07038" lon="-3.48532">
        <ele>149.7</ele>
        <time>2025-02-26T11:25:30Z</time>
      </trkpt>
      <trkpt lat="48.07037" lon="-3.48531">
        <ele>149.8</ele>
        <time>2025-02-26T11:25:31Z</time>
      </trkpt>
      <trkpt lat="48.07036" lon="-3.4853">
        <ele>149.8</ele>
        <time>2025-02-26T11:25:32Z</time>
      </trkpt>
      <trkpt lat="48.07035" lon="-3.48529">
        <ele>149.8</ele>
        <time>2025-02-26T11:25:33Z</time>
      </trkpt>
      <trkpt lat="48.07034" lon="-3.48528">
        <ele>149.8</ele>
        <time>2025-02-26T11:25:34Z</time>
      </trkpt>
      <trkpt lat="48.07033" lon="-3.48526">
        <ele>149.7</ele>
        <time>2025-02-26T11:25:35Z</time>
      </trkpt>
      <trkpt lat="48.07032" lon="-3.48525">
        <ele>149.5</ele>
        <time>2025-02-26T11:25:36Z</time>
      </trkpt>
      <trkpt lat="48.07031" lon="-3.48524">
        <ele>149.4</ele>
        <time>2025-02-26T11:25:37Z</time>
      </trkpt>
      <trkpt lat="48.07031" lon="-3.48522">
        <ele>149.3</ele>
        <time>2025-02-26T11:25:38Z</time>
      </trkpt>
      <trkpt lat="48.0703" lon="-3.48521">
        <ele>149.2</ele>
        <time>2025-02-26T11:25:39Z</time>
      </trkpt>
      <trkpt lat="48.07029" lon="-3.48519">
        <ele>149.1</ele>
        <time>2025-02-26T11:25:40Z</time>
      </trkpt>
      <trkpt lat="48.07028" lon="-3.48518">
        <ele>149</ele>
        <time>2025-02-26T11:25:41Z</time>
      </trkpt>
      <trkpt lat="48.07027" lon="-3.48517">
        <ele>148.8</ele>
        <time>2025-02-26T11:25:42Z</time>
      </trkpt>
      <trkpt lat="48.07026" lon="-3.48516">
        <ele>148.7</ele>
        <time>2025-02-26T11:25:43Z</time>
      </trkpt>
      <trkpt lat="48.07025" lon="-3.48515">
        <ele>148.6</ele>
        <time>2025-02-26T11:25:44Z</time>
      </trkpt>
      <trkpt lat="48.07024" lon="-3.48514">
        <ele>148.5</ele>
        <time>2025-02-26T11:25:45Z</time>
      </trkpt>
      <trkpt lat="48.07023" lon="-3.48513">
        <ele>148.4</ele>
        <time>2025-02-26T11:25:46Z</time>
      </trkpt>
      <trkpt lat="48.07022" lon="-3.48512">
        <ele>148.3</ele>
        <time>2025-02-26T11:25:47Z</time>
      </trkpt>
      <trkpt lat="48.07021" lon="-3.4851">
        <ele>148.2</ele>
        <time>2025-02-26T11:25:48Z</time>
      </trkpt>
      <trkpt lat="48.0702" lon="-3.48509">
        <ele>148.1</ele>
        <time>2025-02-26T11:25:49Z</time>
      </trkpt>
      <trkpt lat="48.07019" lon="-3.48508">
        <ele>148</ele>
        <time>2025-02-26T11:25:50Z</time>
      </trkpt>
      <trkpt lat="48.07018" lon="-3.48507">
        <ele>147.9</ele>
        <time>2025-02-26T11:25:51Z</time>
      </trkpt>
      <trkpt lat="48.07017" lon="-3.48506">
        <ele>147.8</ele>
        <time>2025-02-26T11:25:52Z</time>
      </trkpt>
      <trkpt lat="48.07015" lon="-3.48505">
        <ele>147.8</ele>
        <time>2025-02-26T11:25:53Z</time>
      </trkpt>
      <trkpt lat="48.07014" lon="-3.48505">
        <ele>147.8</ele>
        <time>2025-02-26T11:25:54Z</time>
      </trkpt>
      <trkpt lat="48.07013" lon="-3.48504">
        <ele>147.8</ele>
        <time>2025-02-26T11:25:55Z</time>
      </trkpt>
      <trkpt lat="48.07012" lon="-3.48503">
        <ele>147.8</ele>
        <time>2025-02-26T11:25:56Z</time>
      </trkpt>
      <trkpt lat="48.07011" lon="-3.48502">
        <ele>147.7</ele>
        <time>2025-02-26T11:25:57Z</time>
      </trkpt>
      <trkpt lat="48.0701" lon="-3.485">
        <ele>147.7</ele>
        <time>2025-02-26T11:25:58Z</time>
      </trkpt>
      <trkpt lat="48.07009" lon="-3.48499">
        <ele>147.6</ele>
        <time>2025-02-26T11:25:59Z</time>
      </trkpt>
      <trkpt lat="48.07008" lon="-3.48498">
        <ele>147.5</ele>
        <time>2025-02-26T11:26:00Z</time>
      </trkpt>
      <trkpt lat="48.07007" lon="-3.48497">
        <ele>147.4</ele>
        <time>2025-02-26T11:26:01Z</time>
      </trkpt>
      <trkpt lat="48.07006" lon="-3.48496">
        <ele>147.4</ele>
        <time>2025-02-26T11:26:02Z</time>
      </trkpt>
      <trkpt lat="48.07006" lon="-3.48495">
        <ele>147.4</ele>
        <time>2025-02-26T11:26:03Z</time>
      </trkpt>
      <trkpt lat="48.07005" lon="-3.48494">
        <ele>147.3</ele>
        <time>2025-02-26T11:26:04Z</time>
      </trkpt>
      <trkpt lat="48.07003" lon="-3.48493">
        <ele>147.3</ele>
        <time>2025-02-26T11:26:05Z</time>
      </trkpt>
      <trkpt lat="48.07002" lon="-3.48492">
        <ele>147.3</ele>
        <time>2025-02-26T11:26:06Z</time>
      </trkpt>
      <trkpt lat="48.07001" lon="-3.48491">
        <ele>147.3</ele>
        <time>2025-02-26T11:26:07Z</time>
      </trkpt>
      <trkpt lat="48.07" lon="-3.48491">
        <ele>147.3</ele>
        <time>2025-02-26T11:26:08Z</time>
      </trkpt>
      <trkpt lat="48.06999" lon="-3.48489">
        <ele>147.3</ele>
        <time>2025-02-26T11:26:09Z</time>
      </trkpt>
      <trkpt lat="48.06998" lon="-3.48489">
        <ele>147.2</ele>
        <time>2025-02-26T11:26:10Z</time>
      </trkpt>
      <trkpt lat="48.06997" lon="-3.48488">
        <ele>147.2</ele>
        <time>2025-02-26T11:26:11Z</time>
      </trkpt>
      <trkpt lat="48.06996" lon="-3.48487">
        <ele>147.2</ele>
        <time>2025-02-26T11:26:12Z</time>
      </trkpt>
      <trkpt lat="48.06995" lon="-3.48487">
        <ele>147.1</ele>
        <time>2025-02-26T11:26:13Z</time>
      </trkpt>
      <trkpt lat="48.06994" lon="-3.48486">
        <ele>147.1</ele>
        <time>2025-02-26T11:26:14Z</time>
      </trkpt>
      <trkpt lat="48.06993" lon="-3.48485">
        <ele>147</ele>
        <time>2025-02-26T11:26:15Z</time>
      </trkpt>
      <trkpt lat="48.06992" lon="-3.48484">
        <ele>147</ele>
        <time>2025-02-26T11:26:16Z</time>
      </trkpt>
      <trkpt lat="48.06991" lon="-3.48482">
        <ele>146.9</ele>
        <time>2025-02-26T11:26:17Z</time>
      </trkpt>
      <trkpt lat="48.06991" lon="-3.48481">
        <ele>146.8</ele>
        <time>2025-02-26T11:26:18Z</time>
      </trkpt>
      <trkpt lat="48.0699" lon="-3.4848">
        <ele>146.8</ele>
        <time>2025-02-26T11:26:19Z</time>
      </trkpt>
      <trkpt lat="48.06989" lon="-3.48479">
        <ele>146.8</ele>
        <time>2025-02-26T11:26:20Z</time>
      </trkpt>
      <trkpt lat="48.06988" lon="-3.48478">
        <ele>146.8</ele>
        <time>2025-02-26T11:26:21Z</time>
      </trkpt>
      <trkpt lat="48.06986" lon="-3.48477">
        <ele>146.8</ele>
        <time>2025-02-26T11:26:22Z</time>
      </trkpt>
      <trkpt lat="48.06985" lon="-3.48477">
        <ele>146.8</ele>
        <time>2025-02-26T11:26:23Z</time>
      </trkpt>
      <trkpt lat="48.06985" lon="-3.48476">
        <ele>146.7</ele>
        <time>2025-02-26T11:26:24Z</time>
      </trkpt>
      <trkpt lat="48.06984" lon="-3.48474">
        <ele>146.7</ele>
        <time>2025-02-26T11:26:25Z</time>
      </trkpt>
      <trkpt lat="48.06983" lon="-3.48473">
        <ele>146.7</ele>
        <time>2025-02-26T11:26:26Z</time>
      </trkpt>
      <trkpt lat="48.06982" lon="-3.48473">
        <ele>146.7</ele>
        <time>2025-02-26T11:26:27Z</time>
      </trkpt>
      <trkpt lat="48.06981" lon="-3.48472">
        <ele>146.6</ele>
        <time>2025-02-26T11:26:28Z</time>
      </trkpt>
      <trkpt lat="48.0698" lon="-3.48471">
        <ele>146.6</ele>
        <time>2025-02-26T11:26:29Z</time>
      </trkpt>
      <trkpt lat="48.06979" lon="-3.48469">
        <ele>146.5</ele>
        <time>2025-02-26T11:26:30Z</time>
      </trkpt>
      <trkpt lat="48.06978" lon="-3.48469">
        <ele>146.5</ele>
        <time>2025-02-26T11:26:31Z</time>
      </trkpt>
      <trkpt lat="48.06977" lon="-3.48467">
        <ele>146.4</ele>
        <time>2025-02-26T11:26:32Z</time>
      </trkpt>
      <trkpt lat="48.06976" lon="-3.48466">
        <ele>146.3</ele>
        <time>2025-02-26T11:26:33Z</time>
      </trkpt>
      <trkpt lat="48.06975" lon="-3.48465">
        <ele>146.3</ele>
        <time>2025-02-26T11:26:34Z</time>
      </trkpt>
      <trkpt lat="48.06974" lon="-3.48464">
        <ele>146.2</ele>
        <time>2025-02-26T11:26:35Z</time>
      </trkpt>
      <trkpt lat="48.06973" lon="-3.48463">
        <ele>146.3</ele>
        <time>2025-02-26T11:26:36Z</time>
      </trkpt>
      <trkpt lat="48.06972" lon="-3.48462">
        <ele>146.2</ele>
        <time>2025-02-26T11:26:37Z</time>
      </trkpt>
      <trkpt lat="48.06971" lon="-3.48461">
        <ele>146.1</ele>
        <time>2025-02-26T11:26:38Z</time>
      </trkpt>
      <trkpt lat="48.0697" lon="-3.4846">
        <ele>146</ele>
        <time>2025-02-26T11:26:39Z</time>
      </trkpt>
      <trkpt lat="48.06969" lon="-3.48459">
        <ele>146</ele>
        <time>2025-02-26T11:26:40Z</time>
      </trkpt>
      <trkpt lat="48.06968" lon="-3.48458">
        <ele>145.9</ele>
        <time>2025-02-26T11:26:41Z</time>
      </trkpt>
      <trkpt lat="48.06967" lon="-3.48456">
        <ele>145.8</ele>
        <time>2025-02-26T11:26:42Z</time>
      </trkpt>
      <trkpt lat="48.06966" lon="-3.48455">
        <ele>145.7</ele>
        <time>2025-02-26T11:26:43Z</time>
      </trkpt>
      <trkpt lat="48.06965" lon="-3.48455">
        <ele>145.6</ele>
        <time>2025-02-26T11:26:44Z</time>
      </trkpt>
      <trkpt lat="48.06964" lon="-3.48454">
        <ele>145.6</ele>
        <time>2025-02-26T11:26:45Z</time>
      </trkpt>
      <trkpt lat="48.06963" lon="-3.48453">
        <ele>145.5</ele>
        <time>2025-02-26T11:26:46Z</time>
      </trkpt>
      <trkpt lat="48.06963" lon="-3.48452">
        <ele>145.4</ele>
        <time>2025-02-26T11:26:47Z</time>
      </trkpt>
      <trkpt lat="48.06962" lon="-3.48451">
        <ele>145.4</ele>
        <time>2025-02-26T11:26:48Z</time>
      </trkpt>
      <trkpt lat="48.06961" lon="-3.4845">
        <ele>145.3</ele>
        <time>2025-02-26T11:26:49Z</time>
      </trkpt>
      <trkpt lat="48.0696" lon="-3.48449">
        <ele>145.2</ele>
        <time>2025-02-26T11:26:50Z</time>
      </trkpt>
      <trkpt lat="48.06959" lon="-3.48448">
        <ele>145.2</ele>
        <time>2025-02-26T11:26:51Z</time>
      </trkpt>
      <trkpt lat="48.06958" lon="-3.48447">
        <ele>145.1</ele>
        <time>2025-02-26T11:26:52Z</time>
      </trkpt>
      <trkpt lat="48.06957" lon="-3.48446">
        <ele>145.1</ele>
        <time>2025-02-26T11:26:53Z</time>
      </trkpt>
      <trkpt lat="48.06957" lon="-3.48444">
        <ele>145</ele>
        <time>2025-02-26T11:26:54Z</time>
      </trkpt>
      <trkpt lat="48.06956" lon="-3.48443">
        <ele>144.9</ele>
        <time>2025-02-26T11:26:55Z</time>
      </trkpt>
      <trkpt lat="48.06955" lon="-3.48442">
        <ele>144.9</ele>
        <time>2025-02-26T11:26:56Z</time>
      </trkpt>
      <trkpt lat="48.06954" lon="-3.48441">
        <ele>144.8</ele>
        <time>2025-02-26T11:26:57Z</time>
      </trkpt>
      <trkpt lat="48.06953" lon="-3.48441">
        <ele>144.8</ele>
        <time>2025-02-26T11:26:58Z</time>
      </trkpt>
      <trkpt lat="48.06952" lon="-3.48439">
        <ele>144.7</ele>
        <time>2025-02-26T11:26:59Z</time>
      </trkpt>
      <trkpt lat="48.06951" lon="-3.48438">
        <ele>144.7</ele>
        <time>2025-02-26T11:27:00Z</time>
      </trkpt>
      <trkpt lat="48.0695" lon="-3.48437">
        <ele>144.6</ele>
        <time>2025-02-26T11:27:01Z</time>
      </trkpt>
      <trkpt lat="48.0695" lon="-3.48435">
        <ele>144.5</ele>
        <time>2025-02-26T11:27:02Z</time>
      </trkpt>
      <trkpt lat="48.06949" lon="-3.48434">
        <ele>144.5</ele>
        <time>2025-02-26T11:27:03Z</time>
      </trkpt>
      <trkpt lat="48.06948" lon="-3.48432">
        <ele>144.4</ele>
        <time>2025-02-26T11:27:04Z</time>
      </trkpt>
      <trkpt lat="48.06947" lon="-3.48431">
        <ele>144.4</ele>
        <time>2025-02-26T11:27:05Z</time>
      </trkpt>
      <trkpt lat="48.06947" lon="-3.4843">
        <ele>144.4</ele>
        <time>2025-02-26T11:27:06Z</time>
      </trkpt>
      <trkpt lat="48.06946" lon="-3.48428">
        <ele>144.3</ele>
        <time>2025-02-26T11:27:07Z</time>
      </trkpt>
      <trkpt lat="48.06945" lon="-3.48427">
        <ele>144.3</ele>
        <time>2025-02-26T11:27:08Z</time>
      </trkpt>
      <trkpt lat="48.06945" lon="-3.48425">
        <ele>144.3</ele>
        <time>2025-02-26T11:27:09Z</time>
      </trkpt>
      <trkpt lat="48.06944" lon="-3.48424">
        <ele>144.2</ele>
        <time>2025-02-26T11:27:10Z</time>
      </trkpt>
      <trkpt lat="48.06944" lon="-3.48422">
        <ele>144.2</ele>
        <time>2025-02-26T11:27:11Z</time>
      </trkpt>
      <trkpt lat="48.06943" lon="-3.48421">
        <ele>144.1</ele>
        <time>2025-02-26T11:27:12Z</time>
      </trkpt>
      <trkpt lat="48.06942" lon="-3.4842">
        <ele>144</ele>
        <time>2025-02-26T11:27:13Z</time>
      </trkpt>
      <trkpt lat="48.06942" lon="-3.48418">
        <ele>144</ele>
        <time>2025-02-26T11:27:14Z</time>
      </trkpt>
      <trkpt lat="48.06941" lon="-3.48417">
        <ele>143.9</ele>
        <time>2025-02-26T11:27:15Z</time>
      </trkpt>
      <trkpt lat="48.06941" lon="-3.48416">
        <ele>143.7</ele>
        <time>2025-02-26T11:27:16Z</time>
      </trkpt>
      <trkpt lat="48.0694" lon="-3.48414">
        <ele>143.5</ele>
        <time>2025-02-26T11:27:17Z</time>
      </trkpt>
      <trkpt lat="48.06939" lon="-3.48413">
        <ele>143.4</ele>
        <time>2025-02-26T11:27:18Z</time>
      </trkpt>
      <trkpt lat="48.06938" lon="-3.48412">
        <ele>143.2</ele>
        <time>2025-02-26T11:27:19Z</time>
      </trkpt>
      <trkpt lat="48.06938" lon="-3.4841">
        <ele>143</ele>
        <time>2025-02-26T11:27:20Z</time>
      </trkpt>
      <trkpt lat="48.06937" lon="-3.48409">
        <ele>142.8</ele>
        <time>2025-02-26T11:27:21Z</time>
      </trkpt>
      <trkpt lat="48.06937" lon="-3.48407">
        <ele>142.6</ele>
        <time>2025-02-26T11:27:22Z</time>
      </trkpt>
      <trkpt lat="48.06936" lon="-3.48405">
        <ele>142.4</ele>
        <time>2025-02-26T11:27:23Z</time>
      </trkpt>
      <trkpt lat="48.06935" lon="-3.48404">
        <ele>142.3</ele>
        <time>2025-02-26T11:27:24Z</time>
      </trkpt>
      <trkpt lat="48.06935" lon="-3.48402">
        <ele>142.1</ele>
        <time>2025-02-26T11:27:25Z</time>
      </trkpt>
      <trkpt lat="48.06935" lon="-3.48401">
        <ele>141.9</ele>
        <time>2025-02-26T11:27:26Z</time>
      </trkpt>
      <trkpt lat="48.06934" lon="-3.48399">
        <ele>141.8</ele>
        <time>2025-02-26T11:27:27Z</time>
      </trkpt>
      <trkpt lat="48.06934" lon="-3.48397">
        <ele>141.6</ele>
        <time>2025-02-26T11:27:28Z</time>
      </trkpt>
      <trkpt lat="48.06933" lon="-3.48396">
        <ele>141.5</ele>
        <time>2025-02-26T11:27:29Z</time>
      </trkpt>
      <trkpt lat="48.06932" lon="-3.48395">
        <ele>141.4</ele>
        <time>2025-02-26T11:27:30Z</time>
      </trkpt>
      <trkpt lat="48.06932" lon="-3.48393">
        <ele>141.3</ele>
        <time>2025-02-26T11:27:31Z</time>
      </trkpt>
      <trkpt lat="48.06931" lon="-3.48391">
        <ele>141.2</ele>
        <time>2025-02-26T11:27:32Z</time>
      </trkpt>
      <trkpt lat="48.06931" lon="-3.4839">
        <ele>141.1</ele>
        <time>2025-02-26T11:27:33Z</time>
      </trkpt>
      <trkpt lat="48.0693" lon="-3.48388">
        <ele>141</ele>
        <time>2025-02-26T11:27:34Z</time>
      </trkpt>
      <trkpt lat="48.06929" lon="-3.48387">
        <ele>140.8</ele>
        <time>2025-02-26T11:27:35Z</time>
      </trkpt>
      <trkpt lat="48.06929" lon="-3.48385">
        <ele>140.7</ele>
        <time>2025-02-26T11:27:36Z</time>
      </trkpt>
      <trkpt lat="48.06929" lon="-3.48384">
        <ele>140.6</ele>
        <time>2025-02-26T11:27:37Z</time>
      </trkpt>
      <trkpt lat="48.06928" lon="-3.48382">
        <ele>140.4</ele>
        <time>2025-02-26T11:27:38Z</time>
      </trkpt>
      <trkpt lat="48.06928" lon="-3.4838">
        <ele>140.3</ele>
        <time>2025-02-26T11:27:39Z</time>
      </trkpt>
      <trkpt lat="48.06926" lon="-3.48379">
        <ele>140.3</ele>
        <time>2025-02-26T11:27:40Z</time>
      </trkpt>
      <trkpt lat="48.06926" lon="-3.48378">
        <ele>140.2</ele>
        <time>2025-02-26T11:27:41Z</time>
      </trkpt>
      <trkpt lat="48.06925" lon="-3.48377">
        <ele>140.1</ele>
        <time>2025-02-26T11:27:42Z</time>
      </trkpt>
      <trkpt lat="48.06925" lon="-3.48375">
        <ele>139.9</ele>
        <time>2025-02-26T11:27:43Z</time>
      </trkpt>
      <trkpt lat="48.06924" lon="-3.48373">
        <ele>139.8</ele>
        <time>2025-02-26T11:27:44Z</time>
      </trkpt>
      <trkpt lat="48.06924" lon="-3.48372">
        <ele>139.6</ele>
        <time>2025-02-26T11:27:45Z</time>
      </trkpt>
      <trkpt lat="48.06923" lon="-3.4837">
        <ele>139.5</ele>
        <time>2025-02-26T11:27:46Z</time>
      </trkpt>
      <trkpt lat="48.06923" lon="-3.48369">
        <ele>139.4</ele>
        <time>2025-02-26T11:27:47Z</time>
      </trkpt>
      <trkpt lat="48.06922" lon="-3.48367">
        <ele>139.3</ele>
        <time>2025-02-26T11:27:48Z</time>
      </trkpt>
      <trkpt lat="48.06921" lon="-3.48366">
        <ele>139.2</ele>
        <time>2025-02-26T11:27:49Z</time>
      </trkpt>
      <trkpt lat="48.06921" lon="-3.48365">
        <ele>139.1</ele>
        <time>2025-02-26T11:27:50Z</time>
      </trkpt>
      <trkpt lat="48.0692" lon="-3.48363">
        <ele>138.9</ele>
        <time>2025-02-26T11:27:51Z</time>
      </trkpt>
      <trkpt lat="48.0692" lon="-3.48361">
        <ele>138.8</ele>
        <time>2025-02-26T11:27:52Z</time>
      </trkpt>
      <trkpt lat="48.06919" lon="-3.4836">
        <ele>138.7</ele>
        <time>2025-02-26T11:27:53Z</time>
      </trkpt>
      <trkpt lat="48.06919" lon="-3.48358">
        <ele>138.5</ele>
        <time>2025-02-26T11:27:54Z</time>
      </trkpt>
      <trkpt lat="48.06918" lon="-3.48356">
        <ele>138.4</ele>
        <time>2025-02-26T11:27:55Z</time>
      </trkpt>
      <trkpt lat="48.06918" lon="-3.48355">
        <ele>138.2</ele>
        <time>2025-02-26T11:27:56Z</time>
      </trkpt>
      <trkpt lat="48.06917" lon="-3.48353">
        <ele>138.1</ele>
        <time>2025-02-26T11:27:57Z</time>
      </trkpt>
      <trkpt lat="48.06916" lon="-3.48351">
        <ele>137.9</ele>
        <time>2025-02-26T11:27:58Z</time>
      </trkpt>
      <trkpt lat="48.06916" lon="-3.48349">
        <ele>137.8</ele>
        <time>2025-02-26T11:27:59Z</time>
      </trkpt>
      <trkpt lat="48.06915" lon="-3.48348">
        <ele>137.6</ele>
        <time>2025-02-26T11:28:00Z</time>
      </trkpt>
      <trkpt lat="48.06914" lon="-3.48346">
        <ele>137.5</ele>
        <time>2025-02-26T11:28:01Z</time>
      </trkpt>
      <trkpt lat="48.06914" lon="-3.48344">
        <ele>137.4</ele>
        <time>2025-02-26T11:28:02Z</time>
      </trkpt>
      <trkpt lat="48.06913" lon="-3.48343">
        <ele>137.2</ele>
        <time>2025-02-26T11:28:03Z</time>
      </trkpt>
      <trkpt lat="48.06912" lon="-3.48342">
        <ele>137.1</ele>
        <time>2025-02-26T11:28:04Z</time>
      </trkpt>
      <trkpt lat="48.06912" lon="-3.4834">
        <ele>137</ele>
        <time>2025-02-26T11:28:05Z</time>
      </trkpt>
      <trkpt lat="48.06911" lon="-3.48339">
        <ele>136.9</ele>
        <time>2025-02-26T11:28:06Z</time>
      </trkpt>
      <trkpt lat="48.06911" lon="-3.48337">
        <ele>136.8</ele>
        <time>2025-02-26T11:28:07Z</time>
      </trkpt>
      <trkpt lat="48.0691" lon="-3.48335">
        <ele>136.6</ele>
        <time>2025-02-26T11:28:08Z</time>
      </trkpt>
      <trkpt lat="48.0691" lon="-3.48334">
        <ele>136.5</ele>
        <time>2025-02-26T11:28:09Z</time>
      </trkpt>
      <trkpt lat="48.06909" lon="-3.48332">
        <ele>136.5</ele>
        <time>2025-02-26T11:28:10Z</time>
      </trkpt>
      <trkpt lat="48.06908" lon="-3.48331">
        <ele>136.4</ele>
        <time>2025-02-26T11:28:11Z</time>
      </trkpt>
      <trkpt lat="48.06908" lon="-3.48329">
        <ele>136.3</ele>
        <time>2025-02-26T11:28:12Z</time>
      </trkpt>
      <trkpt lat="48.06907" lon="-3.48328">
        <ele>136.2</ele>
        <time>2025-02-26T11:28:13Z</time>
      </trkpt>
      <trkpt lat="48.06907" lon="-3.48326">
        <ele>136.1</ele>
        <time>2025-02-26T11:28:14Z</time>
      </trkpt>
      <trkpt lat="48.06906" lon="-3.48324">
        <ele>136</ele>
        <time>2025-02-26T11:28:15Z</time>
      </trkpt>
      <trkpt lat="48.06906" lon="-3.48323">
        <ele>135.9</ele>
        <time>2025-02-26T11:28:16Z</time>
      </trkpt>
      <trkpt lat="48.06904" lon="-3.48322">
        <ele>135.8</ele>
        <time>2025-02-26T11:28:17Z</time>
      </trkpt>
      <trkpt lat="48.06904" lon="-3.4832">
        <ele>135.8</ele>
        <time>2025-02-26T11:28:18Z</time>
      </trkpt>
      <trkpt lat="48.06903" lon="-3.48319">
        <ele>135.7</ele>
        <time>2025-02-26T11:28:19Z</time>
      </trkpt>
      <trkpt lat="48.06902" lon="-3.48317">
        <ele>135.6</ele>
        <time>2025-02-26T11:28:20Z</time>
      </trkpt>
      <trkpt lat="48.06902" lon="-3.48315">
        <ele>135.4</ele>
        <time>2025-02-26T11:28:21Z</time>
      </trkpt>
      <trkpt lat="48.06902" lon="-3.48313">
        <ele>135.2</ele>
        <time>2025-02-26T11:28:22Z</time>
      </trkpt>
      <trkpt lat="48.06902" lon="-3.48311">
        <ele>135</ele>
        <time>2025-02-26T11:28:23Z</time>
      </trkpt>
      <trkpt lat="48.06902" lon="-3.4831">
        <ele>134.9</ele>
        <time>2025-02-26T11:28:24Z</time>
      </trkpt>
      <trkpt lat="48.06901" lon="-3.48308">
        <ele>134.8</ele>
        <time>2025-02-26T11:28:25Z</time>
      </trkpt>
      <trkpt lat="48.06901" lon="-3.48307">
        <ele>134.7</ele>
        <time>2025-02-26T11:28:26Z</time>
      </trkpt>
      <trkpt lat="48.069" lon="-3.48305">
        <ele>134.6</ele>
        <time>2025-02-26T11:28:27Z</time>
      </trkpt>
      <trkpt lat="48.069" lon="-3.48304">
        <ele>134.5</ele>
        <time>2025-02-26T11:28:28Z</time>
      </trkpt>
      <trkpt lat="48.06899" lon="-3.48302">
        <ele>134.5</ele>
        <time>2025-02-26T11:28:29Z</time>
      </trkpt>
      <trkpt lat="48.06898" lon="-3.48301">
        <ele>134.5</ele>
        <time>2025-02-26T11:28:30Z</time>
      </trkpt>
      <trkpt lat="48.06898" lon="-3.483">
        <ele>134.5</ele>
        <time>2025-02-26T11:28:31Z</time>
      </trkpt>
      <trkpt lat="48.06897" lon="-3.48298">
        <ele>134.4</ele>
        <time>2025-02-26T11:28:32Z</time>
      </trkpt>
      <trkpt lat="48.06897" lon="-3.48296">
        <ele>134.4</ele>
        <time>2025-02-26T11:28:33Z</time>
      </trkpt>
      <trkpt lat="48.06897" lon="-3.48295">
        <ele>134.3</ele>
        <time>2025-02-26T11:28:34Z</time>
      </trkpt>
      <trkpt lat="48.06897" lon="-3.48293">
        <ele>134.3</ele>
        <time>2025-02-26T11:28:35Z</time>
      </trkpt>
      <trkpt lat="48.06897" lon="-3.48291">
        <ele>134.2</ele>
        <time>2025-02-26T11:28:36Z</time>
      </trkpt>
      <trkpt lat="48.06896" lon="-3.4829">
        <ele>134.2</ele>
        <time>2025-02-26T11:28:37Z</time>
      </trkpt>
      <trkpt lat="48.06896" lon="-3.48288">
        <ele>134.1</ele>
        <time>2025-02-26T11:28:38Z</time>
      </trkpt>
      <trkpt lat="48.06895" lon="-3.48287">
        <ele>134.1</ele>
        <time>2025-02-26T11:28:39Z</time>
      </trkpt>
      <trkpt lat="48.06895" lon="-3.48285">
        <ele>134.1</ele>
        <time>2025-02-26T11:28:40Z</time>
      </trkpt>
      <trkpt lat="48.06894" lon="-3.48284">
        <ele>134</ele>
        <time>2025-02-26T11:28:41Z</time>
      </trkpt>
      <trkpt lat="48.06893" lon="-3.48283">
        <ele>134</ele>
        <time>2025-02-26T11:28:42Z</time>
      </trkpt>
      <trkpt lat="48.06893" lon="-3.48281">
        <ele>134</ele>
        <time>2025-02-26T11:28:43Z</time>
      </trkpt>
      <trkpt lat="48.06892" lon="-3.48279">
        <ele>133.9</ele>
        <time>2025-02-26T11:28:44Z</time>
      </trkpt>
      <trkpt lat="48.06892" lon="-3.48277">
        <ele>133.9</ele>
        <time>2025-02-26T11:28:45Z</time>
      </trkpt>
      <trkpt lat="48.06891" lon="-3.48276">
        <ele>133.9</ele>
        <time>2025-02-26T11:28:46Z</time>
      </trkpt>
      <trkpt lat="48.0689" lon="-3.48274">
        <ele>133.8</ele>
        <time>2025-02-26T11:28:47Z</time>
      </trkpt>
      <trkpt lat="48.0689" lon="-3.48272">
        <ele>133.8</ele>
        <time>2025-02-26T11:28:48Z</time>
      </trkpt>
      <trkpt lat="48.06889" lon="-3.48271">
        <ele>133.7</ele>
        <time>2025-02-26T11:28:49Z</time>
      </trkpt>
      <trkpt lat="48.06889" lon="-3.48269">
        <ele>133.7</ele>
        <time>2025-02-26T11:28:50Z</time>
      </trkpt>
      <trkpt lat="48.06888" lon="-3.48267">
        <ele>133.6</ele>
        <time>2025-02-26T11:28:51Z</time>
      </trkpt>
      <trkpt lat="48.06887" lon="-3.48265">
        <ele>133.5</ele>
        <time>2025-02-26T11:28:52Z</time>
      </trkpt>
      <trkpt lat="48.06887" lon="-3.48264">
        <ele>133.4</ele>
        <time>2025-02-26T11:28:53Z</time>
      </trkpt>
      <trkpt lat="48.06886" lon="-3.48263">
        <ele>133.4</ele>
        <time>2025-02-26T11:28:54Z</time>
      </trkpt>
      <trkpt lat="48.06885" lon="-3.48261">
        <ele>133.3</ele>
        <time>2025-02-26T11:28:55Z</time>
      </trkpt>
      <trkpt lat="48.06885" lon="-3.4826">
        <ele>133.2</ele>
        <time>2025-02-26T11:28:56Z</time>
      </trkpt>
      <trkpt lat="48.06884" lon="-3.48259">
        <ele>133.1</ele>
        <time>2025-02-26T11:28:57Z</time>
      </trkpt>
      <trkpt lat="48.06883" lon="-3.48258">
        <ele>133.1</ele>
        <time>2025-02-26T11:28:58Z</time>
      </trkpt>
      <trkpt lat="48.06883" lon="-3.48256">
        <ele>133</ele>
        <time>2025-02-26T11:28:59Z</time>
      </trkpt>
      <trkpt lat="48.06882" lon="-3.48254">
        <ele>132.9</ele>
        <time>2025-02-26T11:29:00Z</time>
      </trkpt>
      <trkpt lat="48.06881" lon="-3.48253">
        <ele>132.8</ele>
        <time>2025-02-26T11:29:01Z</time>
      </trkpt>
      <trkpt lat="48.0688" lon="-3.48252">
        <ele>132.7</ele>
        <time>2025-02-26T11:29:02Z</time>
      </trkpt>
      <trkpt lat="48.06879" lon="-3.4825">
        <ele>132.7</ele>
        <time>2025-02-26T11:29:03Z</time>
      </trkpt>
      <trkpt lat="48.06879" lon="-3.48249">
        <ele>132.6</ele>
        <time>2025-02-26T11:29:04Z</time>
      </trkpt>
      <trkpt lat="48.06878" lon="-3.48247">
        <ele>132.5</ele>
        <time>2025-02-26T11:29:05Z</time>
      </trkpt>
      <trkpt lat="48.06878" lon="-3.48246">
        <ele>132.5</ele>
        <time>2025-02-26T11:29:06Z</time>
      </trkpt>
      <trkpt lat="48.06877" lon="-3.48245">
        <ele>132.5</ele>
        <time>2025-02-26T11:29:07Z</time>
      </trkpt>
      <trkpt lat="48.06876" lon="-3.48243">
        <ele>132.4</ele>
        <time>2025-02-26T11:29:08Z</time>
      </trkpt>
      <trkpt lat="48.06876" lon="-3.48241">
        <ele>132.4</ele>
        <time>2025-02-26T11:29:09Z</time>
      </trkpt>
      <trkpt lat="48.06875" lon="-3.4824">
        <ele>132.3</ele>
        <time>2025-02-26T11:29:10Z</time>
      </trkpt>
      <trkpt lat="48.06875" lon="-3.48238">
        <ele>132.3</ele>
        <time>2025-02-26T11:29:11Z</time>
      </trkpt>
      <trkpt lat="48.06874" lon="-3.48236">
        <ele>132.2</ele>
        <time>2025-02-26T11:29:12Z</time>
      </trkpt>
      <trkpt lat="48.06873" lon="-3.48235">
        <ele>132.2</ele>
        <time>2025-02-26T11:29:13Z</time>
      </trkpt>
      <trkpt lat="48.06872" lon="-3.48233">
        <ele>132.2</ele>
        <time>2025-02-26T11:29:14Z</time>
      </trkpt>
      <trkpt lat="48.06872" lon="-3.48231">
        <ele>132.1</ele>
        <time>2025-02-26T11:29:15Z</time>
      </trkpt>
      <trkpt lat="48.06871" lon="-3.48229">
        <ele>132.1</ele>
        <time>2025-02-26T11:29:16Z</time>
      </trkpt>
      <trkpt lat="48.0687" lon="-3.48227">
        <ele>132.1</ele>
        <time>2025-02-26T11:29:17Z</time>
      </trkpt>
      <trkpt lat="48.0687" lon="-3.48226">
        <ele>132</ele>
        <time>2025-02-26T11:29:18Z</time>
      </trkpt>
      <trkpt lat="48.06869" lon="-3.48225">
        <ele>132</ele>
        <time>2025-02-26T11:29:19Z</time>
      </trkpt>
      <trkpt lat="48.06868" lon="-3.48223">
        <ele>132</ele>
        <time>2025-02-26T11:29:20Z</time>
      </trkpt>
      <trkpt lat="48.06868" lon="-3.48222">
        <ele>132</ele>
        <time>2025-02-26T11:29:21Z</time>
      </trkpt>
      <trkpt lat="48.06867" lon="-3.4822">
        <ele>132</ele>
        <time>2025-02-26T11:29:22Z</time>
      </trkpt>
      <trkpt lat="48.06866" lon="-3.48218">
        <ele>132</ele>
        <time>2025-02-26T11:29:23Z</time>
      </trkpt>
      <trkpt lat="48.06866" lon="-3.48216">
        <ele>132</ele>
        <time>2025-02-26T11:29:24Z</time>
      </trkpt>
      <trkpt lat="48.06866" lon="-3.48215">
        <ele>131.9</ele>
        <time>2025-02-26T11:29:25Z</time>
      </trkpt>
      <trkpt lat="48.06866" lon="-3.48213">
        <ele>131.9</ele>
        <time>2025-02-26T11:29:26Z</time>
      </trkpt>
      <trkpt lat="48.06866" lon="-3.48211">
        <ele>131.9</ele>
        <time>2025-02-26T11:29:27Z</time>
      </trkpt>
      <trkpt lat="48.06866" lon="-3.48209">
        <ele>131.9</ele>
        <time>2025-02-26T11:29:28Z</time>
      </trkpt>
      <trkpt lat="48.06865" lon="-3.48207">
        <ele>131.9</ele>
        <time>2025-02-26T11:29:29Z</time>
      </trkpt>
      <trkpt lat="48.06864" lon="-3.48205">
        <ele>131.9</ele>
        <time>2025-02-26T11:29:30Z</time>
      </trkpt>
      <trkpt lat="48.06863" lon="-3.48204">
        <ele>132</ele>
        <time>2025-02-26T11:29:31Z</time>
      </trkpt>
      <trkpt lat="48.06862" lon="-3.48203">
        <ele>132</ele>
        <time>2025-02-26T11:29:32Z</time>
      </trkpt>
      <trkpt lat="48.06861" lon="-3.48202">
        <ele>132</ele>
        <time>2025-02-26T11:29:33Z</time>
      </trkpt>
      <trkpt lat="48.06861" lon="-3.482">
        <ele>132</ele>
        <time>2025-02-26T11:29:34Z</time>
      </trkpt>
      <trkpt lat="48.0686" lon="-3.48199">
        <ele>132</ele>
        <time>2025-02-26T11:29:35Z</time>
      </trkpt>
      <trkpt lat="48.06859" lon="-3.48197">
        <ele>132</ele>
        <time>2025-02-26T11:29:36Z</time>
      </trkpt>
      <trkpt lat="48.06859" lon="-3.48196">
        <ele>132</ele>
        <time>2025-02-26T11:29:37Z</time>
      </trkpt>
      <trkpt lat="48.06858" lon="-3.48194">
        <ele>132</ele>
        <time>2025-02-26T11:29:38Z</time>
      </trkpt>
      <trkpt lat="48.06857" lon="-3.48193">
        <ele>132.1</ele>
        <time>2025-02-26T11:29:39Z</time>
      </trkpt>
      <trkpt lat="48.06857" lon="-3.48192">
        <ele>132.1</ele>
        <time>2025-02-26T11:29:40Z</time>
      </trkpt>
      <trkpt lat="48.06856" lon="-3.4819">
        <ele>132.2</ele>
        <time>2025-02-26T11:29:41Z</time>
      </trkpt>
      <trkpt lat="48.06856" lon="-3.48189">
        <ele>132.2</ele>
        <time>2025-02-26T11:29:42Z</time>
      </trkpt>
      <trkpt lat="48.06855" lon="-3.48187">
        <ele>132.3</ele>
        <time>2025-02-26T11:29:43Z</time>
      </trkpt>
      <trkpt lat="48.06854" lon="-3.48186">
        <ele>132.3</ele>
        <time>2025-02-26T11:29:44Z</time>
      </trkpt>
      <trkpt lat="48.06853" lon="-3.48184">
        <ele>132.4</ele>
        <time>2025-02-26T11:29:45Z</time>
      </trkpt>
      <trkpt lat="48.06852" lon="-3.48183">
        <ele>132.4</ele>
        <time>2025-02-26T11:29:46Z</time>
      </trkpt>
      <trkpt lat="48.06852" lon="-3.48181">
        <ele>132.5</ele>
        <time>2025-02-26T11:29:47Z</time>
      </trkpt>
      <trkpt lat="48.06851" lon="-3.4818">
        <ele>132.5</ele>
        <time>2025-02-26T11:29:48Z</time>
      </trkpt>
      <trkpt lat="48.0685" lon="-3.48178">
        <ele>132.6</ele>
        <time>2025-02-26T11:29:49Z</time>
      </trkpt>
      <trkpt lat="48.0685" lon="-3.48177">
        <ele>132.6</ele>
        <time>2025-02-26T11:29:50Z</time>
      </trkpt>
      <trkpt lat="48.06849" lon="-3.48176">
        <ele>132.7</ele>
        <time>2025-02-26T11:29:51Z</time>
      </trkpt>
      <trkpt lat="48.06848" lon="-3.48175">
        <ele>132.7</ele>
        <time>2025-02-26T11:29:52Z</time>
      </trkpt>
      <trkpt lat="48.06848" lon="-3.48173">
        <ele>132.8</ele>
        <time>2025-02-26T11:29:53Z</time>
      </trkpt>
      <trkpt lat="48.06847" lon="-3.48172">
        <ele>132.8</ele>
        <time>2025-02-26T11:29:54Z</time>
      </trkpt>
      <trkpt lat="48.06847" lon="-3.4817">
        <ele>132.9</ele>
        <time>2025-02-26T11:29:55Z</time>
      </trkpt>
      <trkpt lat="48.06846" lon="-3.48169">
        <ele>132.9</ele>
        <time>2025-02-26T11:29:56Z</time>
      </trkpt>
      <trkpt lat="48.06846" lon="-3.48168">
        <ele>133</ele>
        <time>2025-02-26T11:29:57Z</time>
      </trkpt>
      <trkpt lat="48.06845" lon="-3.48166">
        <ele>133</ele>
        <time>2025-02-26T11:29:58Z</time>
      </trkpt>
      <trkpt lat="48.06845" lon="-3.48165">
        <ele>133</ele>
        <time>2025-02-26T11:29:59Z</time>
      </trkpt>
      <trkpt lat="48.06845" lon="-3.48163">
        <ele>133.1</ele>
        <time>2025-02-26T11:30:00Z</time>
      </trkpt>
      <trkpt lat="48.06844" lon="-3.48162">
        <ele>133.1</ele>
        <time>2025-02-26T11:30:01Z</time>
      </trkpt>
      <trkpt lat="48.06843" lon="-3.4816">
        <ele>133.1</ele>
        <time>2025-02-26T11:30:02Z</time>
      </trkpt>
      <trkpt lat="48.06843" lon="-3.48159">
        <ele>133.2</ele>
        <time>2025-02-26T11:30:03Z</time>
      </trkpt>
      <trkpt lat="48.06843" lon="-3.48157">
        <ele>133.2</ele>
        <time>2025-02-26T11:30:04Z</time>
      </trkpt>
      <trkpt lat="48.06842" lon="-3.48155">
        <ele>133.3</ele>
        <time>2025-02-26T11:30:05Z</time>
      </trkpt>
      <trkpt lat="48.06842" lon="-3.48154">
        <ele>133.3</ele>
        <time>2025-02-26T11:30:06Z</time>
      </trkpt>
      <trkpt lat="48.06842" lon="-3.48153">
        <ele>133.4</ele>
        <time>2025-02-26T11:30:07Z</time>
      </trkpt>
      <trkpt lat="48.06842" lon="-3.48151">
        <ele>133.4</ele>
        <time>2025-02-26T11:30:08Z</time>
      </trkpt>
      <trkpt lat="48.06841" lon="-3.48149">
        <ele>133.4</ele>
        <time>2025-02-26T11:30:09Z</time>
      </trkpt>
      <trkpt lat="48.06841" lon="-3.48148">
        <ele>133.5</ele>
        <time>2025-02-26T11:30:10Z</time>
      </trkpt>
      <trkpt lat="48.0684" lon="-3.48147">
        <ele>133.5</ele>
        <time>2025-02-26T11:30:11Z</time>
      </trkpt>
      <trkpt lat="48.0684" lon="-3.48146">
        <ele>133.6</ele>
        <time>2025-02-26T11:30:12Z</time>
      </trkpt>
      <trkpt lat="48.06839" lon="-3.48145">
        <ele>133.6</ele>
        <time>2025-02-26T11:30:13Z</time>
      </trkpt>
      <trkpt lat="48.06839" lon="-3.48143">
        <ele>133.7</ele>
        <time>2025-02-26T11:30:14Z</time>
      </trkpt>
      <trkpt lat="48.06839" lon="-3.48142">
        <ele>133.7</ele>
        <time>2025-02-26T11:30:15Z</time>
      </trkpt>
      <trkpt lat="48.06839" lon="-3.48141">
        <ele>133.8</ele>
        <time>2025-02-26T11:30:16Z</time>
      </trkpt>
      <trkpt lat="48.06838" lon="-3.48139">
        <ele>133.8</ele>
        <time>2025-02-26T11:30:17Z</time>
      </trkpt>
      <trkpt lat="48.06838" lon="-3.48137">
        <ele>133.8</ele>
        <time>2025-02-26T11:30:18Z</time>
      </trkpt>
      <trkpt lat="48.06837" lon="-3.48136">
        <ele>133.9</ele>
        <time>2025-02-26T11:30:19Z</time>
      </trkpt>
      <trkpt lat="48.06837" lon="-3.48134">
        <ele>133.9</ele>
        <time>2025-02-26T11:30:20Z</time>
      </trkpt>
      <trkpt lat="48.06838" lon="-3.48132">
        <ele>133.8</ele>
        <time>2025-02-26T11:30:21Z</time>
      </trkpt>
      <trkpt lat="48.06837" lon="-3.4813">
        <ele>133.9</ele>
        <time>2025-02-26T11:30:22Z</time>
      </trkpt>
      <trkpt lat="48.06836" lon="-3.48129">
        <ele>133.9</ele>
        <time>2025-02-26T11:30:23Z</time>
      </trkpt>
      <trkpt lat="48.06835" lon="-3.48127">
        <ele>133.9</ele>
        <time>2025-02-26T11:30:24Z</time>
      </trkpt>
      <trkpt lat="48.06835" lon="-3.48126">
        <ele>134</ele>
        <time>2025-02-26T11:30:25Z</time>
      </trkpt>
      <trkpt lat="48.06834" lon="-3.48125">
        <ele>134</ele>
        <time>2025-02-26T11:30:26Z</time>
      </trkpt>
      <trkpt lat="48.06834" lon="-3.48123">
        <ele>134</ele>
        <time>2025-02-26T11:30:27Z</time>
      </trkpt>
      <trkpt lat="48.06834" lon="-3.48121">
        <ele>134</ele>
        <time>2025-02-26T11:30:28Z</time>
      </trkpt>
      <trkpt lat="48.06833" lon="-3.4812">
        <ele>134</ele>
        <time>2025-02-26T11:30:29Z</time>
      </trkpt>
      <trkpt lat="48.06832" lon="-3.48118">
        <ele>134.1</ele>
        <time>2025-02-26T11:30:30Z</time>
      </trkpt>
      <trkpt lat="48.06832" lon="-3.48117">
        <ele>134.2</ele>
        <time>2025-02-26T11:30:31Z</time>
      </trkpt>
      <trkpt lat="48.06831" lon="-3.48116">
        <ele>134.2</ele>
        <time>2025-02-26T11:30:32Z</time>
      </trkpt>
      <trkpt lat="48.06831" lon="-3.48115">
        <ele>134.3</ele>
        <time>2025-02-26T11:30:33Z</time>
      </trkpt>
      <trkpt lat="48.06831" lon="-3.48113">
        <ele>134.3</ele>
        <time>2025-02-26T11:30:34Z</time>
      </trkpt>
      <trkpt lat="48.0683" lon="-3.48111">
        <ele>134.3</ele>
        <time>2025-02-26T11:30:35Z</time>
      </trkpt>
      <trkpt lat="48.0683" lon="-3.48109">
        <ele>134.5</ele>
        <time>2025-02-26T11:30:36Z</time>
      </trkpt>
      <trkpt lat="48.06829" lon="-3.48108">
        <ele>134.6</ele>
        <time>2025-02-26T11:30:37Z</time>
      </trkpt>
      <trkpt lat="48.06829" lon="-3.48106">
        <ele>134.6</ele>
        <time>2025-02-26T11:30:38Z</time>
      </trkpt>
      <trkpt lat="48.06829" lon="-3.48105">
        <ele>134.7</ele>
        <time>2025-02-26T11:30:39Z</time>
      </trkpt>
      <trkpt lat="48.06828" lon="-3.48103">
        <ele>134.8</ele>
        <time>2025-02-26T11:30:40Z</time>
      </trkpt>
      <trkpt lat="48.06827" lon="-3.48102">
        <ele>134.9</ele>
        <time>2025-02-26T11:30:41Z</time>
      </trkpt>
      <trkpt lat="48.06827" lon="-3.48101">
        <ele>135</ele>
        <time>2025-02-26T11:30:42Z</time>
      </trkpt>
      <trkpt lat="48.06826" lon="-3.481">
        <ele>135.1</ele>
        <time>2025-02-26T11:30:43Z</time>
      </trkpt>
      <trkpt lat="48.06825" lon="-3.48099">
        <ele>135.2</ele>
        <time>2025-02-26T11:30:44Z</time>
      </trkpt>
      <trkpt lat="48.06824" lon="-3.48097">
        <ele>135.3</ele>
        <time>2025-02-26T11:30:45Z</time>
      </trkpt>
      <trkpt lat="48.06824" lon="-3.48096">
        <ele>135.4</ele>
        <time>2025-02-26T11:30:46Z</time>
      </trkpt>
      <trkpt lat="48.06823" lon="-3.48095">
        <ele>135.5</ele>
        <time>2025-02-26T11:30:47Z</time>
      </trkpt>
      <trkpt lat="48.06822" lon="-3.48094">
        <ele>135.6</ele>
        <time>2025-02-26T11:30:48Z</time>
      </trkpt>
      <trkpt lat="48.06821" lon="-3.48093">
        <ele>135.7</ele>
        <time>2025-02-26T11:30:49Z</time>
      </trkpt>
      <trkpt lat="48.06821" lon="-3.48091">
        <ele>135.7</ele>
        <time>2025-02-26T11:30:50Z</time>
      </trkpt>
      <trkpt lat="48.0682" lon="-3.4809">
        <ele>135.8</ele>
        <time>2025-02-26T11:30:51Z</time>
      </trkpt>
      <trkpt lat="48.0682" lon="-3.48088">
        <ele>135.9</ele>
        <time>2025-02-26T11:30:52Z</time>
      </trkpt>
      <trkpt lat="48.06819" lon="-3.48087">
        <ele>136</ele>
        <time>2025-02-26T11:30:53Z</time>
      </trkpt>
      <trkpt lat="48.06818" lon="-3.48086">
        <ele>136</ele>
        <time>2025-02-26T11:30:54Z</time>
      </trkpt>
      <trkpt lat="48.06818" lon="-3.48084">
        <ele>136.1</ele>
        <time>2025-02-26T11:30:55Z</time>
      </trkpt>
      <trkpt lat="48.06817" lon="-3.48083">
        <ele>136.2</ele>
        <time>2025-02-26T11:30:56Z</time>
      </trkpt>
      <trkpt lat="48.06816" lon="-3.48081">
        <ele>136.1</ele>
        <time>2025-02-26T11:30:57Z</time>
      </trkpt>
      <trkpt lat="48.06816" lon="-3.48079">
        <ele>136.1</ele>
        <time>2025-02-26T11:30:58Z</time>
      </trkpt>
      <trkpt lat="48.06816" lon="-3.48078">
        <ele>136</ele>
        <time>2025-02-26T11:30:59Z</time>
      </trkpt>
      <trkpt lat="48.06816" lon="-3.48076">
        <ele>136</ele>
        <time>2025-02-26T11:31:00Z</time>
      </trkpt>
      <trkpt lat="48.06815" lon="-3.48075">
        <ele>136</ele>
        <time>2025-02-26T11:31:01Z</time>
      </trkpt>
      <trkpt lat="48.06815" lon="-3.48073">
        <ele>136</ele>
        <time>2025-02-26T11:31:02Z</time>
      </trkpt>
      <trkpt lat="48.06814" lon="-3.48071">
        <ele>136</ele>
        <time>2025-02-26T11:31:03Z</time>
      </trkpt>
      <trkpt lat="48.06813" lon="-3.4807">
        <ele>136</ele>
        <time>2025-02-26T11:31:04Z</time>
      </trkpt>
      <trkpt lat="48.06813" lon="-3.48068">
        <ele>135.9</ele>
        <time>2025-02-26T11:31:05Z</time>
      </trkpt>
      <trkpt lat="48.06812" lon="-3.48066">
        <ele>135.9</ele>
        <time>2025-02-26T11:31:06Z</time>
      </trkpt>
      <trkpt lat="48.06812" lon="-3.48064">
        <ele>135.9</ele>
        <time>2025-02-26T11:31:07Z</time>
      </trkpt>
      <trkpt lat="48.06811" lon="-3.48063">
        <ele>135.9</ele>
        <time>2025-02-26T11:31:08Z</time>
      </trkpt>
      <trkpt lat="48.0681" lon="-3.48061">
        <ele>135.9</ele>
        <time>2025-02-26T11:31:09Z</time>
      </trkpt>
      <trkpt lat="48.06809" lon="-3.48059">
        <ele>135.9</ele>
        <time>2025-02-26T11:31:10Z</time>
      </trkpt>
      <trkpt lat="48.06809" lon="-3.48058">
        <ele>135.8</ele>
        <time>2025-02-26T11:31:11Z</time>
      </trkpt>
      <trkpt lat="48.06809" lon="-3.48057">
        <ele>135.8</ele>
        <time>2025-02-26T11:31:12Z</time>
      </trkpt>
      <trkpt lat="48.06808" lon="-3.48055">
        <ele>135.8</ele>
        <time>2025-02-26T11:31:13Z</time>
      </trkpt>
      <trkpt lat="48.06808" lon="-3.48054">
        <ele>135.7</ele>
        <time>2025-02-26T11:31:14Z</time>
      </trkpt>
      <trkpt lat="48.06808" lon="-3.48052">
        <ele>135.7</ele>
        <time>2025-02-26T11:31:15Z</time>
      </trkpt>
      <trkpt lat="48.06808" lon="-3.48051">
        <ele>135.7</ele>
        <time>2025-02-26T11:31:16Z</time>
      </trkpt>
      <trkpt lat="48.06807" lon="-3.48049">
        <ele>135.7</ele>
        <time>2025-02-26T11:31:17Z</time>
      </trkpt>
      <trkpt lat="48.06806" lon="-3.48048">
        <ele>135.7</ele>
        <time>2025-02-26T11:31:18Z</time>
      </trkpt>
      <trkpt lat="48.06805" lon="-3.48047">
        <ele>135.7</ele>
        <time>2025-02-26T11:31:19Z</time>
      </trkpt>
      <trkpt lat="48.06804" lon="-3.48044">
        <ele>135.7</ele>
        <time>2025-02-26T11:31:20Z</time>
      </trkpt>
      <trkpt lat="48.06803" lon="-3.48043">
        <ele>135.8</ele>
        <time>2025-02-26T11:31:21Z</time>
      </trkpt>
      <trkpt lat="48.06803" lon="-3.48041">
        <ele>135.8</ele>
        <time>2025-02-26T11:31:22Z</time>
      </trkpt>
      <trkpt lat="48.06802" lon="-3.4804">
        <ele>135.8</ele>
        <time>2025-02-26T11:31:23Z</time>
      </trkpt>
      <trkpt lat="48.06801" lon="-3.48038">
        <ele>135.9</ele>
        <time>2025-02-26T11:31:24Z</time>
      </trkpt>
      <trkpt lat="48.068" lon="-3.48037">
        <ele>136</ele>
        <time>2025-02-26T11:31:25Z</time>
      </trkpt>
      <trkpt lat="48.068" lon="-3.48036">
        <ele>136</ele>
        <time>2025-02-26T11:31:26Z</time>
      </trkpt>
      <trkpt lat="48.06799" lon="-3.48034">
        <ele>136</ele>
        <time>2025-02-26T11:31:27Z</time>
      </trkpt>
      <trkpt lat="48.06799" lon="-3.48033">
        <ele>136.1</ele>
        <time>2025-02-26T11:31:28Z</time>
      </trkpt>
      <trkpt lat="48.06799" lon="-3.4803">
        <ele>136</ele>
        <time>2025-02-26T11:31:29Z</time>
      </trkpt>
      <trkpt lat="48.06799" lon="-3.48029">
        <ele>136</ele>
        <time>2025-02-26T11:31:30Z</time>
      </trkpt>
      <trkpt lat="48.06799" lon="-3.48027">
        <ele>136</ele>
        <time>2025-02-26T11:31:31Z</time>
      </trkpt>
      <trkpt lat="48.06799" lon="-3.48026">
        <ele>136.1</ele>
        <time>2025-02-26T11:31:32Z</time>
      </trkpt>
      <trkpt lat="48.06799" lon="-3.48024">
        <ele>136.2</ele>
        <time>2025-02-26T11:31:33Z</time>
      </trkpt>
      <trkpt lat="48.068" lon="-3.48023">
        <ele>136.2</ele>
        <time>2025-02-26T11:31:34Z</time>
      </trkpt>
      <trkpt lat="48.068" lon="-3.48021">
        <ele>136.3</ele>
        <time>2025-02-26T11:31:35Z</time>
      </trkpt>
      <trkpt lat="48.068" lon="-3.4802">
        <ele>136.4</ele>
        <time>2025-02-26T11:31:36Z</time>
      </trkpt>
      <trkpt lat="48.06801" lon="-3.48019">
        <ele>136.3</ele>
        <time>2025-02-26T11:31:37Z</time>
      </trkpt>
      <trkpt lat="48.06802" lon="-3.48017">
        <ele>136.3</ele>
        <time>2025-02-26T11:31:38Z</time>
      </trkpt>
      <trkpt lat="48.06802" lon="-3.48016">
        <ele>136.4</ele>
        <time>2025-02-26T11:31:39Z</time>
      </trkpt>
      <trkpt lat="48.06802" lon="-3.48014">
        <ele>136.5</ele>
        <time>2025-02-26T11:31:40Z</time>
      </trkpt>
      <trkpt lat="48.06803" lon="-3.48012">
        <ele>136.5</ele>
        <time>2025-02-26T11:31:41Z</time>
      </trkpt>
      <trkpt lat="48.06804" lon="-3.48011">
        <ele>136.4</ele>
        <time>2025-02-26T11:31:42Z</time>
      </trkpt>
      <trkpt lat="48.06805" lon="-3.4801">
        <ele>136.4</ele>
        <time>2025-02-26T11:31:43Z</time>
      </trkpt>
      <trkpt lat="48.06805" lon="-3.48009">
        <ele>136.4</ele>
        <time>2025-02-26T11:31:44Z</time>
      </trkpt>
      <trkpt lat="48.06806" lon="-3.48008">
        <ele>136.4</ele>
        <time>2025-02-26T11:31:45Z</time>
      </trkpt>
      <trkpt lat="48.06807" lon="-3.48007">
        <ele>136.3</ele>
        <time>2025-02-26T11:31:46Z</time>
      </trkpt>
      <trkpt lat="48.06808" lon="-3.48006">
        <ele>136.3</ele>
        <time>2025-02-26T11:31:47Z</time>
      </trkpt>
      <trkpt lat="48.06809" lon="-3.48005">
        <ele>136.3</ele>
        <time>2025-02-26T11:31:48Z</time>
      </trkpt>
      <trkpt lat="48.0681" lon="-3.48004">
        <ele>136.2</ele>
        <time>2025-02-26T11:31:49Z</time>
      </trkpt>
      <trkpt lat="48.06811" lon="-3.48003">
        <ele>136.2</ele>
        <time>2025-02-26T11:31:50Z</time>
      </trkpt>
      <trkpt lat="48.06813" lon="-3.48002">
        <ele>136.1</ele>
        <time>2025-02-26T11:31:51Z</time>
      </trkpt>
      <trkpt lat="48.06813" lon="-3.48001">
        <ele>136.1</ele>
        <time>2025-02-26T11:31:52Z</time>
      </trkpt>
      <trkpt lat="48.06814" lon="-3.48">
        <ele>136</ele>
        <time>2025-02-26T11:31:53Z</time>
      </trkpt>
      <trkpt lat="48.06815" lon="-3.47999">
        <ele>136</ele>
        <time>2025-02-26T11:31:54Z</time>
      </trkpt>
      <trkpt lat="48.06816" lon="-3.47998">
        <ele>135.9</ele>
        <time>2025-02-26T11:31:55Z</time>
      </trkpt>
      <trkpt lat="48.06817" lon="-3.47997">
        <ele>135.8</ele>
        <time>2025-02-26T11:31:56Z</time>
      </trkpt>
      <trkpt lat="48.06819" lon="-3.47997">
        <ele>135.7</ele>
        <time>2025-02-26T11:31:57Z</time>
      </trkpt>
      <trkpt lat="48.0682" lon="-3.47996">
        <ele>135.6</ele>
        <time>2025-02-26T11:31:58Z</time>
      </trkpt>
      <trkpt lat="48.06821" lon="-3.47995">
        <ele>135.5</ele>
        <time>2025-02-26T11:31:59Z</time>
      </trkpt>
      <trkpt lat="48.06821" lon="-3.47994">
        <ele>135.5</ele>
        <time>2025-02-26T11:32:00Z</time>
      </trkpt>
      <trkpt lat="48.06822" lon="-3.47993">
        <ele>135.4</ele>
        <time>2025-02-26T11:32:01Z</time>
      </trkpt>
      <trkpt lat="48.06824" lon="-3.47991">
        <ele>135.3</ele>
        <time>2025-02-26T11:32:02Z</time>
      </trkpt>
      <trkpt lat="48.06825" lon="-3.47991">
        <ele>135.2</ele>
        <time>2025-02-26T11:32:03Z</time>
      </trkpt>
      <trkpt lat="48.06826" lon="-3.4799">
        <ele>135.1</ele>
        <time>2025-02-26T11:32:04Z</time>
      </trkpt>
      <trkpt lat="48.06827" lon="-3.4799">
        <ele>135</ele>
        <time>2025-02-26T11:32:05Z</time>
      </trkpt>
      <trkpt lat="48.06828" lon="-3.47989">
        <ele>134.9</ele>
        <time>2025-02-26T11:32:06Z</time>
      </trkpt>
      <trkpt lat="48.06829" lon="-3.47988">
        <ele>134.9</ele>
        <time>2025-02-26T11:32:07Z</time>
      </trkpt>
      <trkpt lat="48.0683" lon="-3.47986">
        <ele>134.8</ele>
        <time>2025-02-26T11:32:08Z</time>
      </trkpt>
      <trkpt lat="48.06831" lon="-3.47985">
        <ele>134.7</ele>
        <time>2025-02-26T11:32:09Z</time>
      </trkpt>
      <trkpt lat="48.06832" lon="-3.47985">
        <ele>134.7</ele>
        <time>2025-02-26T11:32:10Z</time>
      </trkpt>
      <trkpt lat="48.06833" lon="-3.47984">
        <ele>134.6</ele>
        <time>2025-02-26T11:32:11Z</time>
      </trkpt>
      <trkpt lat="48.06834" lon="-3.47983">
        <ele>134.6</ele>
        <time>2025-02-26T11:32:12Z</time>
      </trkpt>
      <trkpt lat="48.06835" lon="-3.47982">
        <ele>134.6</ele>
        <time>2025-02-26T11:32:13Z</time>
      </trkpt>
      <trkpt lat="48.06836" lon="-3.47981">
        <ele>134.6</ele>
        <time>2025-02-26T11:32:14Z</time>
      </trkpt>
      <trkpt lat="48.06837" lon="-3.47981">
        <ele>134.6</ele>
        <time>2025-02-26T11:32:15Z</time>
      </trkpt>
      <trkpt lat="48.06838" lon="-3.4798">
        <ele>134.6</ele>
        <time>2025-02-26T11:32:16Z</time>
      </trkpt>
      <trkpt lat="48.06838" lon="-3.47978">
        <ele>134.6</ele>
        <time>2025-02-26T11:32:17Z</time>
      </trkpt>
      <trkpt lat="48.0684" lon="-3.47977">
        <ele>134.6</ele>
        <time>2025-02-26T11:32:18Z</time>
      </trkpt>
      <trkpt lat="48.06841" lon="-3.47977">
        <ele>134.6</ele>
        <time>2025-02-26T11:32:19Z</time>
      </trkpt>
      <trkpt lat="48.06842" lon="-3.47976">
        <ele>134.6</ele>
        <time>2025-02-26T11:32:20Z</time>
      </trkpt>
      <trkpt lat="48.06843" lon="-3.47975">
        <ele>134.6</ele>
        <time>2025-02-26T11:32:21Z</time>
      </trkpt>
      <trkpt lat="48.06844" lon="-3.47973">
        <ele>134.6</ele>
        <time>2025-02-26T11:32:22Z</time>
      </trkpt>
      <trkpt lat="48.06845" lon="-3.47972">
        <ele>134.6</ele>
        <time>2025-02-26T11:32:23Z</time>
      </trkpt>
      <trkpt lat="48.06846" lon="-3.47971">
        <ele>134.5</ele>
        <time>2025-02-26T11:32:24Z</time>
      </trkpt>
      <trkpt lat="48.06847" lon="-3.4797">
        <ele>134.5</ele>
        <time>2025-02-26T11:32:25Z</time>
      </trkpt>
      <trkpt lat="48.06848" lon="-3.47968">
        <ele>134.4</ele>
        <time>2025-02-26T11:32:26Z</time>
      </trkpt>
      <trkpt lat="48.06849" lon="-3.47967">
        <ele>134.3</ele>
        <time>2025-02-26T11:32:27Z</time>
      </trkpt>
      <trkpt lat="48.0685" lon="-3.47966">
        <ele>134.3</ele>
        <time>2025-02-26T11:32:28Z</time>
      </trkpt>
      <trkpt lat="48.06851" lon="-3.47965">
        <ele>134.2</ele>
        <time>2025-02-26T11:32:29Z</time>
      </trkpt>
      <trkpt lat="48.06853" lon="-3.47964">
        <ele>134.1</ele>
        <time>2025-02-26T11:32:30Z</time>
      </trkpt>
      <trkpt lat="48.06854" lon="-3.47963">
        <ele>134</ele>
        <time>2025-02-26T11:32:31Z</time>
      </trkpt>
      <trkpt lat="48.06855" lon="-3.47962">
        <ele>134</ele>
        <time>2025-02-26T11:32:32Z</time>
      </trkpt>
      <trkpt lat="48.06855" lon="-3.47961">
        <ele>133.9</ele>
        <time>2025-02-26T11:32:33Z</time>
      </trkpt>
      <trkpt lat="48.06856" lon="-3.4796">
        <ele>133.8</ele>
        <time>2025-02-26T11:32:34Z</time>
      </trkpt>
      <trkpt lat="48.06857" lon="-3.47959">
        <ele>133.7</ele>
        <time>2025-02-26T11:32:35Z</time>
      </trkpt>
      <trkpt lat="48.06858" lon="-3.47958">
        <ele>133.6</ele>
        <time>2025-02-26T11:32:36Z</time>
      </trkpt>
      <trkpt lat="48.06859" lon="-3.47957">
        <ele>133.6</ele>
        <time>2025-02-26T11:32:37Z</time>
      </trkpt>
      <trkpt lat="48.0686" lon="-3.47957">
        <ele>133.5</ele>
        <time>2025-02-26T11:32:38Z</time>
      </trkpt>
      <trkpt lat="48.06861" lon="-3.47955">
        <ele>133.4</ele>
        <time>2025-02-26T11:32:39Z</time>
      </trkpt>
      <trkpt lat="48.06862" lon="-3.47954">
        <ele>133.3</ele>
        <time>2025-02-26T11:32:40Z</time>
      </trkpt>
      <trkpt lat="48.06863" lon="-3.47952">
        <ele>133.2</ele>
        <time>2025-02-26T11:32:41Z</time>
      </trkpt>
      <trkpt lat="48.06863" lon="-3.47951">
        <ele>133.1</ele>
        <time>2025-02-26T11:32:42Z</time>
      </trkpt>
      <trkpt lat="48.06864" lon="-3.47949">
        <ele>133.1</ele>
        <time>2025-02-26T11:32:43Z</time>
      </trkpt>
      <trkpt lat="48.06865" lon="-3.47948">
        <ele>133</ele>
        <time>2025-02-26T11:32:44Z</time>
      </trkpt>
      <trkpt lat="48.06866" lon="-3.47947">
        <ele>132.9</ele>
        <time>2025-02-26T11:32:45Z</time>
      </trkpt>
      <trkpt lat="48.06866" lon="-3.47946">
        <ele>132.9</ele>
        <time>2025-02-26T11:32:46Z</time>
      </trkpt>
      <trkpt lat="48.06867" lon="-3.47945">
        <ele>132.8</ele>
        <time>2025-02-26T11:32:47Z</time>
      </trkpt>
      <trkpt lat="48.06868" lon="-3.47944">
        <ele>132.7</ele>
        <time>2025-02-26T11:32:48Z</time>
      </trkpt>
      <trkpt lat="48.06869" lon="-3.47943">
        <ele>132.7</ele>
        <time>2025-02-26T11:32:49Z</time>
      </trkpt>
      <trkpt lat="48.0687" lon="-3.47943">
        <ele>132.7</ele>
        <time>2025-02-26T11:32:50Z</time>
      </trkpt>
      <trkpt lat="48.06871" lon="-3.47941">
        <ele>132.6</ele>
        <time>2025-02-26T11:32:51Z</time>
      </trkpt>
      <trkpt lat="48.06872" lon="-3.4794">
        <ele>132.6</ele>
        <time>2025-02-26T11:32:52Z</time>
      </trkpt>
      <trkpt lat="48.06873" lon="-3.47939">
        <ele>132.6</ele>
        <time>2025-02-26T11:32:53Z</time>
      </trkpt>
      <trkpt lat="48.06874" lon="-3.47938">
        <ele>132.5</ele>
        <time>2025-02-26T11:32:54Z</time>
      </trkpt>
      <trkpt lat="48.06875" lon="-3.47937">
        <ele>132.5</ele>
        <time>2025-02-26T11:32:55Z</time>
      </trkpt>
      <trkpt lat="48.06876" lon="-3.47936">
        <ele>132.5</ele>
        <time>2025-02-26T11:32:56Z</time>
      </trkpt>
      <trkpt lat="48.06877" lon="-3.47935">
        <ele>132.4</ele>
        <time>2025-02-26T11:32:57Z</time>
      </trkpt>
      <trkpt lat="48.06878" lon="-3.47933">
        <ele>132.4</ele>
        <time>2025-02-26T11:32:58Z</time>
      </trkpt>
      <trkpt lat="48.06879" lon="-3.47932">
        <ele>132.4</ele>
        <time>2025-02-26T11:32:59Z</time>
      </trkpt>
      <trkpt lat="48.06879" lon="-3.4793">
        <ele>132.3</ele>
        <time>2025-02-26T11:33:00Z</time>
      </trkpt>
      <trkpt lat="48.0688" lon="-3.47929">
        <ele>132.3</ele>
        <time>2025-02-26T11:33:01Z</time>
      </trkpt>
      <trkpt lat="48.06881" lon="-3.47927">
        <ele>132.3</ele>
        <time>2025-02-26T11:33:02Z</time>
      </trkpt>
      <trkpt lat="48.06882" lon="-3.47926">
        <ele>132.3</ele>
        <time>2025-02-26T11:33:03Z</time>
      </trkpt>
      <trkpt lat="48.06882" lon="-3.47925">
        <ele>132.2</ele>
        <time>2025-02-26T11:33:04Z</time>
      </trkpt>
      <trkpt lat="48.06883" lon="-3.47924">
        <ele>132.2</ele>
        <time>2025-02-26T11:33:05Z</time>
      </trkpt>
      <trkpt lat="48.06884" lon="-3.47922">
        <ele>132.2</ele>
        <time>2025-02-26T11:33:06Z</time>
      </trkpt>
      <trkpt lat="48.06885" lon="-3.47921">
        <ele>132.2</ele>
        <time>2025-02-26T11:33:07Z</time>
      </trkpt>
      <trkpt lat="48.06886" lon="-3.4792">
        <ele>132.1</ele>
        <time>2025-02-26T11:33:08Z</time>
      </trkpt>
      <trkpt lat="48.06887" lon="-3.47919">
        <ele>132.1</ele>
        <time>2025-02-26T11:33:09Z</time>
      </trkpt>
      <trkpt lat="48.06888" lon="-3.47918">
        <ele>132</ele>
        <time>2025-02-26T11:33:10Z</time>
      </trkpt>
      <trkpt lat="48.06889" lon="-3.47917">
        <ele>132</ele>
        <time>2025-02-26T11:33:11Z</time>
      </trkpt>
      <trkpt lat="48.06889" lon="-3.47915">
        <ele>131.9</ele>
        <time>2025-02-26T11:33:12Z</time>
      </trkpt>
      <trkpt lat="48.0689" lon="-3.47913">
        <ele>131.8</ele>
        <time>2025-02-26T11:33:13Z</time>
      </trkpt>
      <trkpt lat="48.0689" lon="-3.47911">
        <ele>131.8</ele>
        <time>2025-02-26T11:33:14Z</time>
      </trkpt>
      <trkpt lat="48.06891" lon="-3.4791">
        <ele>131.7</ele>
        <time>2025-02-26T11:33:15Z</time>
      </trkpt>
      <trkpt lat="48.06891" lon="-3.47908">
        <ele>131.6</ele>
        <time>2025-02-26T11:33:16Z</time>
      </trkpt>
      <trkpt lat="48.06891" lon="-3.47906">
        <ele>131.6</ele>
        <time>2025-02-26T11:33:17Z</time>
      </trkpt>
      <trkpt lat="48.06891" lon="-3.47904">
        <ele>131.5</ele>
        <time>2025-02-26T11:33:18Z</time>
      </trkpt>
      <trkpt lat="48.0689" lon="-3.47902">
        <ele>131.5</ele>
        <time>2025-02-26T11:33:19Z</time>
      </trkpt>
      <trkpt lat="48.0689" lon="-3.47901">
        <ele>131.4</ele>
        <time>2025-02-26T11:33:20Z</time>
      </trkpt>
      <trkpt lat="48.0689" lon="-3.47899">
        <ele>131.3</ele>
        <time>2025-02-26T11:33:21Z</time>
      </trkpt>
      <trkpt lat="48.0689" lon="-3.47897">
        <ele>131.3</ele>
        <time>2025-02-26T11:33:22Z</time>
      </trkpt>
      <trkpt lat="48.0689" lon="-3.47895">
        <ele>131.2</ele>
        <time>2025-02-26T11:33:23Z</time>
      </trkpt>
      <trkpt lat="48.06889" lon="-3.47893">
        <ele>131.1</ele>
        <time>2025-02-26T11:33:24Z</time>
      </trkpt>
      <trkpt lat="48.06889" lon="-3.47891">
        <ele>131.1</ele>
        <time>2025-02-26T11:33:25Z</time>
      </trkpt>
      <trkpt lat="48.06888" lon="-3.4789">
        <ele>131.1</ele>
        <time>2025-02-26T11:33:26Z</time>
      </trkpt>
      <trkpt lat="48.06887" lon="-3.47888">
        <ele>131.1</ele>
        <time>2025-02-26T11:33:27Z</time>
      </trkpt>
      <trkpt lat="48.06886" lon="-3.47887">
        <ele>131.1</ele>
        <time>2025-02-26T11:33:28Z</time>
      </trkpt>
      <trkpt lat="48.06885" lon="-3.47887">
        <ele>131.2</ele>
        <time>2025-02-26T11:33:29Z</time>
      </trkpt>
      <trkpt lat="48.06884" lon="-3.47888">
        <ele>131.3</ele>
        <time>2025-02-26T11:33:30Z</time>
      </trkpt>
      <trkpt lat="48.06883" lon="-3.47888">
        <ele>131.4</ele>
        <time>2025-02-26T11:33:31Z</time>
      </trkpt>
      <trkpt lat="48.06882" lon="-3.47889">
        <ele>131.5</ele>
        <time>2025-02-26T11:33:32Z</time>
      </trkpt>
      <trkpt lat="48.0688" lon="-3.47889">
        <ele>131.6</ele>
        <time>2025-02-26T11:33:33Z</time>
      </trkpt>
      <trkpt lat="48.06879" lon="-3.47889">
        <ele>131.7</ele>
        <time>2025-02-26T11:33:34Z</time>
      </trkpt>
      <trkpt lat="48.06878" lon="-3.4789">
        <ele>131.8</ele>
        <time>2025-02-26T11:33:35Z</time>
      </trkpt>
      <trkpt lat="48.06877" lon="-3.4789">
        <ele>131.9</ele>
        <time>2025-02-26T11:33:36Z</time>
      </trkpt>
      <trkpt lat="48.06876" lon="-3.4789">
        <ele>132</ele>
        <time>2025-02-26T11:33:37Z</time>
      </trkpt>
      <trkpt lat="48.06874" lon="-3.4789">
        <ele>132.1</ele>
        <time>2025-02-26T11:33:38Z</time>
      </trkpt>
      <trkpt lat="48.06873" lon="-3.4789">
        <ele>132.1</ele>
        <time>2025-02-26T11:33:39Z</time>
      </trkpt>
      <trkpt lat="48.06872" lon="-3.4789">
        <ele>132.2</ele>
        <time>2025-02-26T11:33:40Z</time>
      </trkpt>
      <trkpt lat="48.06871" lon="-3.47891">
        <ele>132.3</ele>
        <time>2025-02-26T11:33:41Z</time>
      </trkpt>
      <trkpt lat="48.0687" lon="-3.47892">
        <ele>132.4</ele>
        <time>2025-02-26T11:33:42Z</time>
      </trkpt>
      <trkpt lat="48.06869" lon="-3.47893">
        <ele>132.5</ele>
        <time>2025-02-26T11:33:43Z</time>
      </trkpt>
      <trkpt lat="48.06868" lon="-3.47894">
        <ele>132.6</ele>
        <time>2025-02-26T11:33:44Z</time>
      </trkpt>
      <trkpt lat="48.06867" lon="-3.47894">
        <ele>132.6</ele>
        <time>2025-02-26T11:33:45Z</time>
      </trkpt>
      <trkpt lat="48.06866" lon="-3.47895">
        <ele>132.7</ele>
        <time>2025-02-26T11:33:46Z</time>
      </trkpt>
      <trkpt lat="48.06864" lon="-3.47895">
        <ele>132.8</ele>
        <time>2025-02-26T11:33:47Z</time>
      </trkpt>
      <trkpt lat="48.06863" lon="-3.47895">
        <ele>132.9</ele>
        <time>2025-02-26T11:33:48Z</time>
      </trkpt>
      <trkpt lat="48.06862" lon="-3.47895">
        <ele>133</ele>
        <time>2025-02-26T11:33:49Z</time>
      </trkpt>
      <trkpt lat="48.06861" lon="-3.47896">
        <ele>133</ele>
        <time>2025-02-26T11:33:50Z</time>
      </trkpt>
      <trkpt lat="48.0686" lon="-3.47897">
        <ele>133.1</ele>
        <time>2025-02-26T11:33:51Z</time>
      </trkpt>
      <trkpt lat="48.06859" lon="-3.47897">
        <ele>133.2</ele>
        <time>2025-02-26T11:33:52Z</time>
      </trkpt>
      <trkpt lat="48.06857" lon="-3.47897">
        <ele>133.3</ele>
        <time>2025-02-26T11:33:53Z</time>
      </trkpt>
      <trkpt lat="48.06856" lon="-3.47898">
        <ele>133.3</ele>
        <time>2025-02-26T11:33:54Z</time>
      </trkpt>
      <trkpt lat="48.06855" lon="-3.47897">
        <ele>133.4</ele>
        <time>2025-02-26T11:33:55Z</time>
      </trkpt>
      <trkpt lat="48.06854" lon="-3.47897">
        <ele>133.5</ele>
        <time>2025-02-26T11:33:56Z</time>
      </trkpt>
      <trkpt lat="48.06853" lon="-3.47897">
        <ele>133.6</ele>
        <time>2025-02-26T11:33:57Z</time>
      </trkpt>
      <trkpt lat="48.06852" lon="-3.47897">
        <ele>133.7</ele>
        <time>2025-02-26T11:33:58Z</time>
      </trkpt>
      <trkpt lat="48.0685" lon="-3.47897">
        <ele>133.8</ele>
        <time>2025-02-26T11:33:59Z</time>
      </trkpt>
      <trkpt lat="48.06849" lon="-3.47898">
        <ele>133.9</ele>
        <time>2025-02-26T11:34:00Z</time>
      </trkpt>
      <trkpt lat="48.06847" lon="-3.47898">
        <ele>134</ele>
        <time>2025-02-26T11:34:01Z</time>
      </trkpt>
      <trkpt lat="48.06846" lon="-3.47899">
        <ele>134.1</ele>
        <time>2025-02-26T11:34:02Z</time>
      </trkpt>
      <trkpt lat="48.06845" lon="-3.47901">
        <ele>134.1</ele>
        <time>2025-02-26T11:34:03Z</time>
      </trkpt>
      <trkpt lat="48.06844" lon="-3.479">
        <ele>134.3</ele>
        <time>2025-02-26T11:34:04Z</time>
      </trkpt>
      <trkpt lat="48.06842" lon="-3.47901">
        <ele>134.4</ele>
        <time>2025-02-26T11:34:05Z</time>
      </trkpt>
      <trkpt lat="48.06841" lon="-3.47902">
        <ele>134.4</ele>
        <time>2025-02-26T11:34:06Z</time>
      </trkpt>
      <trkpt lat="48.0684" lon="-3.47903">
        <ele>134.5</ele>
        <time>2025-02-26T11:34:07Z</time>
      </trkpt>
      <trkpt lat="48.06839" lon="-3.47903">
        <ele>134.6</ele>
        <time>2025-02-26T11:34:08Z</time>
      </trkpt>
      <trkpt lat="48.06838" lon="-3.47903">
        <ele>134.7</ele>
        <time>2025-02-26T11:34:09Z</time>
      </trkpt>
      <trkpt lat="48.06837" lon="-3.47903">
        <ele>134.7</ele>
        <time>2025-02-26T11:34:10Z</time>
      </trkpt>
      <trkpt lat="48.06836" lon="-3.47904">
        <ele>134.8</ele>
        <time>2025-02-26T11:34:11Z</time>
      </trkpt>
      <trkpt lat="48.06835" lon="-3.47905">
        <ele>134.9</ele>
        <time>2025-02-26T11:34:12Z</time>
      </trkpt>
      <trkpt lat="48.06834" lon="-3.47905">
        <ele>135</ele>
        <time>2025-02-26T11:34:13Z</time>
      </trkpt>
      <trkpt lat="48.06833" lon="-3.47905">
        <ele>135</ele>
        <time>2025-02-26T11:34:14Z</time>
      </trkpt>
      <trkpt lat="48.06832" lon="-3.47905">
        <ele>135.1</ele>
        <time>2025-02-26T11:34:15Z</time>
      </trkpt>
      <trkpt lat="48.06831" lon="-3.47905">
        <ele>135.2</ele>
        <time>2025-02-26T11:34:16Z</time>
      </trkpt>
      <trkpt lat="48.0683" lon="-3.47907">
        <ele>135.3</ele>
        <time>2025-02-26T11:34:17Z</time>
      </trkpt>
      <trkpt lat="48.0683" lon="-3.47907">
        <ele>135.4</ele>
        <time>2025-02-26T11:34:18Z</time>
      </trkpt>
      <trkpt lat="48.06828" lon="-3.47907">
        <ele>135.5</ele>
        <time>2025-02-26T11:34:19Z</time>
      </trkpt>
      <trkpt lat="48.06827" lon="-3.47907">
        <ele>135.6</ele>
        <time>2025-02-26T11:34:20Z</time>
      </trkpt>
      <trkpt lat="48.06826" lon="-3.47908">
        <ele>135.7</ele>
        <time>2025-02-26T11:34:21Z</time>
      </trkpt>
      <trkpt lat="48.06825" lon="-3.47908">
        <ele>135.8</ele>
        <time>2025-02-26T11:34:22Z</time>
      </trkpt>
      <trkpt lat="48.06824" lon="-3.47909">
        <ele>136</ele>
        <time>2025-02-26T11:34:23Z</time>
      </trkpt>
      <trkpt lat="48.06822" lon="-3.47908">
        <ele>136.1</ele>
        <time>2025-02-26T11:34:24Z</time>
      </trkpt>
      <trkpt lat="48.06821" lon="-3.47908">
        <ele>136.2</ele>
        <time>2025-02-26T11:34:25Z</time>
      </trkpt>
      <trkpt lat="48.0682" lon="-3.47909">
        <ele>136.3</ele>
        <time>2025-02-26T11:34:26Z</time>
      </trkpt>
      <trkpt lat="48.06818" lon="-3.47908">
        <ele>136.4</ele>
        <time>2025-02-26T11:34:27Z</time>
      </trkpt>
      <trkpt lat="48.06817" lon="-3.47908">
        <ele>136.5</ele>
        <time>2025-02-26T11:34:28Z</time>
      </trkpt>
      <trkpt lat="48.06816" lon="-3.47909">
        <ele>136.7</ele>
        <time>2025-02-26T11:34:29Z</time>
      </trkpt>
      <trkpt lat="48.06815" lon="-3.4791">
        <ele>136.8</ele>
        <time>2025-02-26T11:34:30Z</time>
      </trkpt>
      <trkpt lat="48.06814" lon="-3.4791">
        <ele>136.9</ele>
        <time>2025-02-26T11:34:31Z</time>
      </trkpt>
      <trkpt lat="48.06813" lon="-3.4791">
        <ele>137</ele>
        <time>2025-02-26T11:34:32Z</time>
      </trkpt>
      <trkpt lat="48.06812" lon="-3.4791">
        <ele>137.1</ele>
        <time>2025-02-26T11:34:33Z</time>
      </trkpt>
      <trkpt lat="48.06811" lon="-3.4791">
        <ele>137.2</ele>
        <time>2025-02-26T11:34:34Z</time>
      </trkpt>
      <trkpt lat="48.0681" lon="-3.4791">
        <ele>137.3</ele>
        <time>2025-02-26T11:34:35Z</time>
      </trkpt>
      <trkpt lat="48.06809" lon="-3.47911">
        <ele>137.5</ele>
        <time>2025-02-26T11:34:36Z</time>
      </trkpt>
      <trkpt lat="48.06808" lon="-3.47911">
        <ele>137.6</ele>
        <time>2025-02-26T11:34:37Z</time>
      </trkpt>
      <trkpt lat="48.06807" lon="-3.47911">
        <ele>137.7</ele>
        <time>2025-02-26T11:34:38Z</time>
      </trkpt>
      <trkpt lat="48.06806" lon="-3.47912">
        <ele>137.8</ele>
        <time>2025-02-26T11:34:39Z</time>
      </trkpt>
      <trkpt lat="48.06805" lon="-3.47912">
        <ele>137.9</ele>
        <time>2025-02-26T11:34:40Z</time>
      </trkpt>
      <trkpt lat="48.06804" lon="-3.47912">
        <ele>138</ele>
        <time>2025-02-26T11:34:41Z</time>
      </trkpt>
      <trkpt lat="48.06803" lon="-3.47913">
        <ele>138.1</ele>
        <time>2025-02-26T11:34:42Z</time>
      </trkpt>
      <trkpt lat="48.06802" lon="-3.47914">
        <ele>138.2</ele>
        <time>2025-02-26T11:34:43Z</time>
      </trkpt>
      <trkpt lat="48.06801" lon="-3.47915">
        <ele>138.3</ele>
        <time>2025-02-26T11:34:44Z</time>
      </trkpt>
      <trkpt lat="48.068" lon="-3.47915">
        <ele>138.4</ele>
        <time>2025-02-26T11:34:45Z</time>
      </trkpt>
      <trkpt lat="48.06799" lon="-3.47914">
        <ele>138.4</ele>
        <time>2025-02-26T11:34:46Z</time>
      </trkpt>
      <trkpt lat="48.06798" lon="-3.47914">
        <ele>138.5</ele>
        <time>2025-02-26T11:34:47Z</time>
      </trkpt>
      <trkpt lat="48.06797" lon="-3.47915">
        <ele>138.6</ele>
        <time>2025-02-26T11:34:48Z</time>
      </trkpt>
      <trkpt lat="48.06796" lon="-3.47916">
        <ele>138.7</ele>
        <time>2025-02-26T11:34:49Z</time>
      </trkpt>
      <trkpt lat="48.06795" lon="-3.47916">
        <ele>138.8</ele>
        <time>2025-02-26T11:34:50Z</time>
      </trkpt>
      <trkpt lat="48.06794" lon="-3.47916">
        <ele>138.8</ele>
        <time>2025-02-26T11:34:51Z</time>
      </trkpt>
      <trkpt lat="48.06793" lon="-3.47917">
        <ele>138.9</ele>
        <time>2025-02-26T11:34:52Z</time>
      </trkpt>
      <trkpt lat="48.06792" lon="-3.47919">
        <ele>139</ele>
        <time>2025-02-26T11:34:53Z</time>
      </trkpt>
      <trkpt lat="48.06791" lon="-3.4792">
        <ele>139.1</ele>
        <time>2025-02-26T11:34:54Z</time>
      </trkpt>
      <trkpt lat="48.0679" lon="-3.47922">
        <ele>139.2</ele>
        <time>2025-02-26T11:34:55Z</time>
      </trkpt>
      <trkpt lat="48.06789" lon="-3.47923">
        <ele>139.3</ele>
        <time>2025-02-26T11:34:56Z</time>
      </trkpt>
      <trkpt lat="48.06788" lon="-3.47924">
        <ele>139.4</ele>
        <time>2025-02-26T11:34:57Z</time>
      </trkpt>
      <trkpt lat="48.06786" lon="-3.47923">
        <ele>139.5</ele>
        <time>2025-02-26T11:34:58Z</time>
      </trkpt>
      <trkpt lat="48.06785" lon="-3.47923">
        <ele>139.6</ele>
        <time>2025-02-26T11:34:59Z</time>
      </trkpt>
      <trkpt lat="48.06784" lon="-3.47924">
        <ele>139.7</ele>
        <time>2025-02-26T11:35:00Z</time>
      </trkpt>
      <trkpt lat="48.06784" lon="-3.47924">
        <ele>139.8</ele>
        <time>2025-02-26T11:35:01Z</time>
      </trkpt>
      <trkpt lat="48.06783" lon="-3.47925">
        <ele>139.9</ele>
        <time>2025-02-26T11:35:02Z</time>
      </trkpt>
      <trkpt lat="48.06782" lon="-3.47926">
        <ele>140</ele>
        <time>2025-02-26T11:35:03Z</time>
      </trkpt>
      <trkpt lat="48.06781" lon="-3.47927">
        <ele>140.1</ele>
        <time>2025-02-26T11:35:04Z</time>
      </trkpt>
      <trkpt lat="48.0678" lon="-3.47927">
        <ele>140.2</ele>
        <time>2025-02-26T11:35:05Z</time>
      </trkpt>
      <trkpt lat="48.06779" lon="-3.47928">
        <ele>140.3</ele>
        <time>2025-02-26T11:35:06Z</time>
      </trkpt>
      <trkpt lat="48.06778" lon="-3.47928">
        <ele>140.5</ele>
        <time>2025-02-26T11:35:07Z</time>
      </trkpt>
      <trkpt lat="48.06777" lon="-3.47929">
        <ele>140.6</ele>
        <time>2025-02-26T11:35:08Z</time>
      </trkpt>
      <trkpt lat="48.06776" lon="-3.4793">
        <ele>140.7</ele>
        <time>2025-02-26T11:35:09Z</time>
      </trkpt>
      <trkpt lat="48.06775" lon="-3.47931">
        <ele>140.8</ele>
        <time>2025-02-26T11:35:10Z</time>
      </trkpt>
      <trkpt lat="48.06774" lon="-3.47931">
        <ele>141</ele>
        <time>2025-02-26T11:35:11Z</time>
      </trkpt>
      <trkpt lat="48.06773" lon="-3.47931">
        <ele>141.1</ele>
        <time>2025-02-26T11:35:12Z</time>
      </trkpt>
      <trkpt lat="48.06771" lon="-3.47932">
        <ele>141.2</ele>
        <time>2025-02-26T11:35:13Z</time>
      </trkpt>
      <trkpt lat="48.0677" lon="-3.47932">
        <ele>141.4</ele>
        <time>2025-02-26T11:35:14Z</time>
      </trkpt>
      <trkpt lat="48.06769" lon="-3.47932">
        <ele>141.5</ele>
        <time>2025-02-26T11:35:15Z</time>
      </trkpt>
      <trkpt lat="48.06768" lon="-3.47933">
        <ele>141.6</ele>
        <time>2025-02-26T11:35:16Z</time>
      </trkpt>
      <trkpt lat="48.06768" lon="-3.47933">
        <ele>141.7</ele>
        <time>2025-02-26T11:35:17Z</time>
      </trkpt>
      <trkpt lat="48.06767" lon="-3.47934">
        <ele>141.8</ele>
        <time>2025-02-26T11:35:18Z</time>
      </trkpt>
      <trkpt lat="48.06766" lon="-3.47934">
        <ele>141.9</ele>
        <time>2025-02-26T11:35:19Z</time>
      </trkpt>
      <trkpt lat="48.06765" lon="-3.47935">
        <ele>142</ele>
        <time>2025-02-26T11:35:20Z</time>
      </trkpt>
      <trkpt lat="48.06764" lon="-3.47935">
        <ele>142.1</ele>
        <time>2025-02-26T11:35:21Z</time>
      </trkpt>
      <trkpt lat="48.06763" lon="-3.47936">
        <ele>142.3</ele>
        <time>2025-02-26T11:35:22Z</time>
      </trkpt>
      <trkpt lat="48.06763" lon="-3.47937">
        <ele>142.4</ele>
        <time>2025-02-26T11:35:23Z</time>
      </trkpt>
      <trkpt lat="48.06762" lon="-3.47937">
        <ele>142.5</ele>
        <time>2025-02-26T11:35:24Z</time>
      </trkpt>
      <trkpt lat="48.0676" lon="-3.47937">
        <ele>142.6</ele>
        <time>2025-02-26T11:35:25Z</time>
      </trkpt>
      <trkpt lat="48.06759" lon="-3.47938">
        <ele>142.8</ele>
        <time>2025-02-26T11:35:26Z</time>
      </trkpt>
      <trkpt lat="48.06758" lon="-3.47938">
        <ele>142.9</ele>
        <time>2025-02-26T11:35:27Z</time>
      </trkpt>
      <trkpt lat="48.06757" lon="-3.47939">
        <ele>143.1</ele>
        <time>2025-02-26T11:35:28Z</time>
      </trkpt>
      <trkpt lat="48.06756" lon="-3.47939">
        <ele>143.2</ele>
        <time>2025-02-26T11:35:29Z</time>
      </trkpt>
      <trkpt lat="48.06755" lon="-3.4794">
        <ele>143.3</ele>
        <time>2025-02-26T11:35:30Z</time>
      </trkpt>
      <trkpt lat="48.06754" lon="-3.4794">
        <ele>143.4</ele>
        <time>2025-02-26T11:35:31Z</time>
      </trkpt>
      <trkpt lat="48.06753" lon="-3.4794">
        <ele>143.5</ele>
        <time>2025-02-26T11:35:32Z</time>
      </trkpt>
      <trkpt lat="48.06752" lon="-3.47941">
        <ele>143.6</ele>
        <time>2025-02-26T11:35:33Z</time>
      </trkpt>
      <trkpt lat="48.06751" lon="-3.47941">
        <ele>143.7</ele>
        <time>2025-02-26T11:35:34Z</time>
      </trkpt>
      <trkpt lat="48.06751" lon="-3.47943">
        <ele>143.8</ele>
        <time>2025-02-26T11:35:35Z</time>
      </trkpt>
      <trkpt lat="48.06751" lon="-3.47944">
        <ele>143.9</ele>
        <time>2025-02-26T11:35:36Z</time>
      </trkpt>
      <trkpt lat="48.0675" lon="-3.47944">
        <ele>144</ele>
        <time>2025-02-26T11:35:37Z</time>
      </trkpt>
      <trkpt lat="48.06749" lon="-3.47946">
        <ele>144.1</ele>
        <time>2025-02-26T11:35:38Z</time>
      </trkpt>
      <trkpt lat="48.06748" lon="-3.47947">
        <ele>144.2</ele>
        <time>2025-02-26T11:35:39Z</time>
      </trkpt>
      <trkpt lat="48.06747" lon="-3.47947">
        <ele>144.3</ele>
        <time>2025-02-26T11:35:40Z</time>
      </trkpt>
      <trkpt lat="48.06747" lon="-3.47947">
        <ele>144.3</ele>
        <time>2025-02-26T11:35:41Z</time>
      </trkpt>
      <trkpt lat="48.06746" lon="-3.47947">
        <ele>144.4</ele>
        <time>2025-02-26T11:35:42Z</time>
      </trkpt>
      <trkpt lat="48.06745" lon="-3.47948">
        <ele>144.5</ele>
        <time>2025-02-26T11:35:43Z</time>
      </trkpt>
      <trkpt lat="48.06744" lon="-3.47948">
        <ele>144.6</ele>
        <time>2025-02-26T11:35:44Z</time>
      </trkpt>
      <trkpt lat="48.06743" lon="-3.47949">
        <ele>144.7</ele>
        <time>2025-02-26T11:35:45Z</time>
      </trkpt>
      <trkpt lat="48.06743" lon="-3.47948">
        <ele>144.7</ele>
        <time>2025-02-26T11:35:46Z</time>
      </trkpt>
      <trkpt lat="48.06742" lon="-3.4795">
        <ele>144.8</ele>
        <time>2025-02-26T11:35:47Z</time>
      </trkpt>
      <trkpt lat="48.06741" lon="-3.4795">
        <ele>144.9</ele>
        <time>2025-02-26T11:35:48Z</time>
      </trkpt>
      <trkpt lat="48.0674" lon="-3.47951">
        <ele>145</ele>
        <time>2025-02-26T11:35:49Z</time>
      </trkpt>
      <trkpt lat="48.06739" lon="-3.4795">
        <ele>145</ele>
        <time>2025-02-26T11:35:50Z</time>
      </trkpt>
      <trkpt lat="48.06738" lon="-3.47949">
        <ele>145.1</ele>
        <time>2025-02-26T11:35:51Z</time>
      </trkpt>
      <trkpt lat="48.06737" lon="-3.47948">
        <ele>145.1</ele>
        <time>2025-02-26T11:35:52Z</time>
      </trkpt>
      <trkpt lat="48.06736" lon="-3.47948">
        <ele>145.2</ele>
        <time>2025-02-26T11:35:53Z</time>
      </trkpt>
      <trkpt lat="48.06736" lon="-3.47949">
        <ele>145.3</ele>
        <time>2025-02-26T11:35:54Z</time>
      </trkpt>
      <trkpt lat="48.06735" lon="-3.47949">
        <ele>145.3</ele>
        <time>2025-02-26T11:35:55Z</time>
      </trkpt>
      <trkpt lat="48.06735" lon="-3.4795">
        <ele>145.4</ele>
        <time>2025-02-26T11:35:56Z</time>
      </trkpt>
      <trkpt lat="48.06735" lon="-3.47951">
        <ele>145.5</ele>
        <time>2025-02-26T11:35:57Z</time>
      </trkpt>
      <trkpt lat="48.06734" lon="-3.47951">
        <ele>145.5</ele>
        <time>2025-02-26T11:35:58Z</time>
      </trkpt>
      <trkpt lat="48.06733" lon="-3.47952">
        <ele>145.6</ele>
        <time>2025-02-26T11:35:59Z</time>
      </trkpt>
      <trkpt lat="48.06732" lon="-3.47952">
        <ele>145.7</ele>
        <time>2025-02-26T11:36:00Z</time>
      </trkpt>
      <trkpt lat="48.06731" lon="-3.47952">
        <ele>145.8</ele>
        <time>2025-02-26T11:36:01Z</time>
      </trkpt>
      <trkpt lat="48.06731" lon="-3.47953">
        <ele>145.9</ele>
        <time>2025-02-26T11:36:02Z</time>
      </trkpt>
      <trkpt lat="48.0673" lon="-3.47954">
        <ele>146</ele>
        <time>2025-02-26T11:36:03Z</time>
      </trkpt>
      <trkpt lat="48.06729" lon="-3.47954">
        <ele>146.1</ele>
        <time>2025-02-26T11:36:04Z</time>
      </trkpt>
      <trkpt lat="48.06728" lon="-3.47955">
        <ele>146.2</ele>
        <time>2025-02-26T11:36:05Z</time>
      </trkpt>
      <trkpt lat="48.06727" lon="-3.47955">
        <ele>146.3</ele>
        <time>2025-02-26T11:36:06Z</time>
      </trkpt>
      <trkpt lat="48.06727" lon="-3.47955">
        <ele>146.4</ele>
        <time>2025-02-26T11:36:07Z</time>
      </trkpt>
      <trkpt lat="48.06726" lon="-3.47954">
        <ele>146.4</ele>
        <time>2025-02-26T11:36:08Z</time>
      </trkpt>
      <trkpt lat="48.06725" lon="-3.47955">
        <ele>146.5</ele>
        <time>2025-02-26T11:36:09Z</time>
      </trkpt>
      <trkpt lat="48.06724" lon="-3.47957">
        <ele>146.7</ele>
        <time>2025-02-26T11:36:10Z</time>
      </trkpt>
      <trkpt lat="48.06724" lon="-3.47957">
        <ele>146.8</ele>
        <time>2025-02-26T11:36:11Z</time>
      </trkpt>
      <trkpt lat="48.06723" lon="-3.47957">
        <ele>146.9</ele>
        <time>2025-02-26T11:36:12Z</time>
      </trkpt>
      <trkpt lat="48.06722" lon="-3.47957">
        <ele>146.9</ele>
        <time>2025-02-26T11:36:13Z</time>
      </trkpt>
      <trkpt lat="48.06721" lon="-3.47956">
        <ele>146.9</ele>
        <time>2025-02-26T11:36:14Z</time>
      </trkpt>
      <trkpt lat="48.0672" lon="-3.47957">
        <ele>146.9</ele>
        <time>2025-02-26T11:36:15Z</time>
      </trkpt>
      <trkpt lat="48.06719" lon="-3.47957">
        <ele>147</ele>
        <time>2025-02-26T11:36:16Z</time>
      </trkpt>
      <trkpt lat="48.06719" lon="-3.47957">
        <ele>147</ele>
        <time>2025-02-26T11:36:17Z</time>
      </trkpt>
      <trkpt lat="48.06718" lon="-3.47958">
        <ele>147</ele>
        <time>2025-02-26T11:36:18Z</time>
      </trkpt>
      <trkpt lat="48.06717" lon="-3.47959">
        <ele>147.1</ele>
        <time>2025-02-26T11:36:19Z</time>
      </trkpt>
      <trkpt lat="48.06716" lon="-3.4796">
        <ele>147.2</ele>
        <time>2025-02-26T11:36:20Z</time>
      </trkpt>
      <trkpt lat="48.06716" lon="-3.4796">
        <ele>147.2</ele>
        <time>2025-02-26T11:36:21Z</time>
      </trkpt>
      <trkpt lat="48.06715" lon="-3.47961">
        <ele>147.3</ele>
        <time>2025-02-26T11:36:22Z</time>
      </trkpt>
      <trkpt lat="48.06714" lon="-3.47961">
        <ele>147.3</ele>
        <time>2025-02-26T11:36:23Z</time>
      </trkpt>
      <trkpt lat="48.06713" lon="-3.47961">
        <ele>147.3</ele>
        <time>2025-02-26T11:36:24Z</time>
      </trkpt>
      <trkpt lat="48.06713" lon="-3.47962">
        <ele>147.4</ele>
        <time>2025-02-26T11:36:25Z</time>
      </trkpt>
      <trkpt lat="48.06712" lon="-3.47962">
        <ele>147.4</ele>
        <time>2025-02-26T11:36:26Z</time>
      </trkpt>
      <trkpt lat="48.06711" lon="-3.47963">
        <ele>147.5</ele>
        <time>2025-02-26T11:36:27Z</time>
      </trkpt>
      <trkpt lat="48.0671" lon="-3.47963">
        <ele>147.5</ele>
        <time>2025-02-26T11:36:28Z</time>
      </trkpt>
      <trkpt lat="48.06709" lon="-3.47964">
        <ele>147.5</ele>
        <time>2025-02-26T11:36:29Z</time>
      </trkpt>
      <trkpt lat="48.06709" lon="-3.47964">
        <ele>147.6</ele>
        <time>2025-02-26T11:36:30Z</time>
      </trkpt>
      <trkpt lat="48.06708" lon="-3.47965">
        <ele>147.6</ele>
        <time>2025-02-26T11:36:31Z</time>
      </trkpt>
      <trkpt lat="48.06707" lon="-3.47965">
        <ele>147.6</ele>
        <time>2025-02-26T11:36:32Z</time>
      </trkpt>
      <trkpt lat="48.06706" lon="-3.47966">
        <ele>147.7</ele>
        <time>2025-02-26T11:36:33Z</time>
      </trkpt>
      <trkpt lat="48.06705" lon="-3.47967">
        <ele>147.7</ele>
        <time>2025-02-26T11:36:34Z</time>
      </trkpt>
      <trkpt lat="48.06704" lon="-3.47965">
        <ele>147.7</ele>
        <time>2025-02-26T11:36:35Z</time>
      </trkpt>
      <trkpt lat="48.06703" lon="-3.47965">
        <ele>147.6</ele>
        <time>2025-02-26T11:36:36Z</time>
      </trkpt>
      <trkpt lat="48.06702" lon="-3.47965">
        <ele>147.6</ele>
        <time>2025-02-26T11:36:37Z</time>
      </trkpt>
      <trkpt lat="48.06702" lon="-3.47964">
        <ele>147.6</ele>
        <time>2025-02-26T11:36:38Z</time>
      </trkpt>
      <trkpt lat="48.06701" lon="-3.47963">
        <ele>147.6</ele>
        <time>2025-02-26T11:36:39Z</time>
      </trkpt>
      <trkpt lat="48.067" lon="-3.47962">
        <ele>147.5</ele>
        <time>2025-02-26T11:36:40Z</time>
      </trkpt>
      <trkpt lat="48.067" lon="-3.47961">
        <ele>147.5</ele>
        <time>2025-02-26T11:36:41Z</time>
      </trkpt>
      <trkpt lat="48.06699" lon="-3.4796">
        <ele>147.5</ele>
        <time>2025-02-26T11:36:42Z</time>
      </trkpt>
      <trkpt lat="48.06698" lon="-3.47959">
        <ele>147.5</ele>
        <time>2025-02-26T11:36:43Z</time>
      </trkpt>
      <trkpt lat="48.06698" lon="-3.47957">
        <ele>147.4</ele>
        <time>2025-02-26T11:36:44Z</time>
      </trkpt>
      <trkpt lat="48.06698" lon="-3.47956">
        <ele>147.3</ele>
        <time>2025-02-26T11:36:45Z</time>
      </trkpt>
      <trkpt lat="48.06698" lon="-3.47954">
        <ele>147.3</ele>
        <time>2025-02-26T11:36:46Z</time>
      </trkpt>
      <trkpt lat="48.06699" lon="-3.47953">
        <ele>147.2</ele>
        <time>2025-02-26T11:36:47Z</time>
      </trkpt>
      <trkpt lat="48.06699" lon="-3.47951">
        <ele>147.1</ele>
        <time>2025-02-26T11:36:48Z</time>
      </trkpt>
      <trkpt lat="48.06699" lon="-3.4795">
        <ele>147.1</ele>
        <time>2025-02-26T11:36:49Z</time>
      </trkpt>
      <trkpt lat="48.06699" lon="-3.47949">
        <ele>147</ele>
        <time>2025-02-26T11:36:50Z</time>
      </trkpt>
      <trkpt lat="48.06699" lon="-3.47947">
        <ele>146.9</ele>
        <time>2025-02-26T11:36:51Z</time>
      </trkpt>
      <trkpt lat="48.06699" lon="-3.47946">
        <ele>146.9</ele>
        <time>2025-02-26T11:36:52Z</time>
      </trkpt>
      <trkpt lat="48.06699" lon="-3.47944">
        <ele>146.8</ele>
        <time>2025-02-26T11:36:53Z</time>
      </trkpt>
      <trkpt lat="48.067" lon="-3.47942">
        <ele>146.7</ele>
        <time>2025-02-26T11:36:54Z</time>
      </trkpt>
      <trkpt lat="48.067" lon="-3.47941">
        <ele>146.7</ele>
        <time>2025-02-26T11:36:55Z</time>
      </trkpt>
      <trkpt lat="48.067" lon="-3.47939">
        <ele>146.6</ele>
        <time>2025-02-26T11:36:56Z</time>
      </trkpt>
      <trkpt lat="48.067" lon="-3.47938">
        <ele>146.5</ele>
        <time>2025-02-26T11:36:57Z</time>
      </trkpt>
      <trkpt lat="48.067" lon="-3.47936">
        <ele>146.5</ele>
        <time>2025-02-26T11:36:58Z</time>
      </trkpt>
      <trkpt lat="48.06699" lon="-3.47935">
        <ele>146.5</ele>
        <time>2025-02-26T11:36:59Z</time>
      </trkpt>
      <trkpt lat="48.06698" lon="-3.47934">
        <ele>146.5</ele>
        <time>2025-02-26T11:37:00Z</time>
      </trkpt>
      <trkpt lat="48.06697" lon="-3.47933">
        <ele>146.5</ele>
        <time>2025-02-26T11:37:01Z</time>
      </trkpt>
      <trkpt lat="48.06696" lon="-3.47932">
        <ele>146.5</ele>
        <time>2025-02-26T11:37:02Z</time>
      </trkpt>
      <trkpt lat="48.06695" lon="-3.47931">
        <ele>146.5</ele>
        <time>2025-02-26T11:37:03Z</time>
      </trkpt>
      <trkpt lat="48.06694" lon="-3.47931">
        <ele>146.6</ele>
        <time>2025-02-26T11:37:04Z</time>
      </trkpt>
      <trkpt lat="48.06692" lon="-3.47931">
        <ele>146.6</ele>
        <time>2025-02-26T11:37:05Z</time>
      </trkpt>
      <trkpt lat="48.06691" lon="-3.47932">
        <ele>146.6</ele>
        <time>2025-02-26T11:37:06Z</time>
      </trkpt>
      <trkpt lat="48.0669" lon="-3.47931">
        <ele>146.7</ele>
        <time>2025-02-26T11:37:07Z</time>
      </trkpt>
      <trkpt lat="48.06689" lon="-3.47931">
        <ele>146.7</ele>
        <time>2025-02-26T11:37:08Z</time>
      </trkpt>
      <trkpt lat="48.06688" lon="-3.47931">
        <ele>146.7</ele>
        <time>2025-02-26T11:37:09Z</time>
      </trkpt>
      <trkpt lat="48.06687" lon="-3.47931">
        <ele>146.8</ele>
        <time>2025-02-26T11:37:10Z</time>
      </trkpt>
      <trkpt lat="48.06686" lon="-3.47931">
        <ele>146.8</ele>
        <time>2025-02-26T11:37:11Z</time>
      </trkpt>
      <trkpt lat="48.06685" lon="-3.47931">
        <ele>146.9</ele>
        <time>2025-02-26T11:37:12Z</time>
      </trkpt>
      <trkpt lat="48.06684" lon="-3.47932">
        <ele>146.9</ele>
        <time>2025-02-26T11:37:13Z</time>
      </trkpt>
      <trkpt lat="48.06683" lon="-3.47932">
        <ele>147</ele>
        <time>2025-02-26T11:37:14Z</time>
      </trkpt>
      <trkpt lat="48.06682" lon="-3.47932">
        <ele>147</ele>
        <time>2025-02-26T11:37:15Z</time>
      </trkpt>
      <trkpt lat="48.06681" lon="-3.47933">
        <ele>147</ele>
        <time>2025-02-26T11:37:16Z</time>
      </trkpt>
      <trkpt lat="48.06681" lon="-3.47933">
        <ele>147.1</ele>
        <time>2025-02-26T11:37:17Z</time>
      </trkpt>
      <trkpt lat="48.0668" lon="-3.47934">
        <ele>147.1</ele>
        <time>2025-02-26T11:37:18Z</time>
      </trkpt>
      <trkpt lat="48.06679" lon="-3.47935">
        <ele>147.2</ele>
        <time>2025-02-26T11:37:19Z</time>
      </trkpt>
      <trkpt lat="48.06679" lon="-3.47936">
        <ele>147.2</ele>
        <time>2025-02-26T11:37:20Z</time>
      </trkpt>
      <trkpt lat="48.06678" lon="-3.47936">
        <ele>147.3</ele>
        <time>2025-02-26T11:37:21Z</time>
      </trkpt>
      <trkpt lat="48.06677" lon="-3.47938">
        <ele>147.4</ele>
        <time>2025-02-26T11:37:22Z</time>
      </trkpt>
      <trkpt lat="48.06676" lon="-3.47939">
        <ele>147.5</ele>
        <time>2025-02-26T11:37:23Z</time>
      </trkpt>
      <trkpt lat="48.06676" lon="-3.4794">
        <ele>147.5</ele>
        <time>2025-02-26T11:37:24Z</time>
      </trkpt>
      <trkpt lat="48.06676" lon="-3.4794">
        <ele>147.5</ele>
        <time>2025-02-26T11:37:25Z</time>
      </trkpt>
      <trkpt lat="48.06676" lon="-3.4794">
        <ele>147.5</ele>
        <time>2025-02-26T11:37:26Z</time>
      </trkpt>
      <trkpt lat="48.06676" lon="-3.4794">
        <ele>147.5</ele>
        <time>2025-02-26T11:37:27Z</time>
      </trkpt>
      <trkpt lat="48.06676" lon="-3.4794">
        <ele>147.5</ele>
        <time>2025-02-26T11:37:28Z</time>
      </trkpt>
      <trkpt lat="48.06676" lon="-3.4794">
        <ele>147.5</ele>
        <time>2025-02-26T11:37:29Z</time>
      </trkpt>
      <trkpt lat="48.06676" lon="-3.4794">
        <ele>147.5</ele>
        <time>2025-02-26T11:37:30Z</time>
      </trkpt>
      <trkpt lat="48.06676" lon="-3.4794">
        <ele>147.5</ele>
        <time>2025-02-26T11:37:31Z</time>
      </trkpt>
      <trkpt lat="48.06676" lon="-3.4794">
        <ele>147.5</ele>
        <time>2025-02-26T11:37:32Z</time>
      </trkpt>
      <trkpt lat="48.06677" lon="-3.47942">
        <ele>147.6</ele>
        <time>2025-02-26T11:37:33Z</time>
      </trkpt>
      <trkpt lat="48.06676" lon="-3.47942">
        <ele>147.6</ele>
        <time>2025-02-26T11:37:34Z</time>
      </trkpt>
      <trkpt lat="48.06676" lon="-3.47942">
        <ele>147.6</ele>
        <time>2025-02-26T11:37:35Z</time>
      </trkpt>
      <trkpt lat="48.06676" lon="-3.47942">
        <ele>147.6</ele>
        <time>2025-02-26T11:37:36Z</time>
      </trkpt>
      <trkpt lat="48.06676" lon="-3.47942">
        <ele>147.6</ele>
        <time>2025-02-26T11:37:37Z</time>
      </trkpt>
      <trkpt lat="48.06676" lon="-3.47942">
        <ele>147.6</ele>
        <time>2025-02-26T11:37:38Z</time>
      </trkpt>
      <trkpt lat="48.06676" lon="-3.47943">
        <ele>147.6</ele>
        <time>2025-02-26T11:37:39Z</time>
      </trkpt>
      <trkpt lat="48.06676" lon="-3.47944">
        <ele>147.6</ele>
        <time>2025-02-26T11:37:40Z</time>
      </trkpt>
      <trkpt lat="48.06676" lon="-3.47945">
        <ele>147.7</ele>
        <time>2025-02-26T11:37:41Z</time>
      </trkpt>
      <trkpt lat="48.06675" lon="-3.47945">
        <ele>147.7</ele>
        <time>2025-02-26T11:37:42Z</time>
      </trkpt>
      <trkpt lat="48.06674" lon="-3.47944">
        <ele>147.7</ele>
        <time>2025-02-26T11:37:43Z</time>
      </trkpt>
      <trkpt lat="48.06673" lon="-3.47944">
        <ele>147.8</ele>
        <time>2025-02-26T11:37:44Z</time>
      </trkpt>
      <trkpt lat="48.06672" lon="-3.47944">
        <ele>147.8</ele>
        <time>2025-02-26T11:37:45Z</time>
      </trkpt>
      <trkpt lat="48.06671" lon="-3.47944">
        <ele>147.8</ele>
        <time>2025-02-26T11:37:46Z</time>
      </trkpt>
      <trkpt lat="48.0667" lon="-3.47944">
        <ele>147.9</ele>
        <time>2025-02-26T11:37:47Z</time>
      </trkpt>
      <trkpt lat="48.06669" lon="-3.47944">
        <ele>147.9</ele>
        <time>2025-02-26T11:37:48Z</time>
      </trkpt>
      <trkpt lat="48.06669" lon="-3.47945">
        <ele>147.9</ele>
        <time>2025-02-26T11:37:49Z</time>
      </trkpt>
      <trkpt lat="48.06668" lon="-3.47945">
        <ele>148</ele>
        <time>2025-02-26T11:37:50Z</time>
      </trkpt>
      <trkpt lat="48.06667" lon="-3.47944">
        <ele>148</ele>
        <time>2025-02-26T11:37:51Z</time>
      </trkpt>
      <trkpt lat="48.06666" lon="-3.47945">
        <ele>148</ele>
        <time>2025-02-26T11:37:52Z</time>
      </trkpt>
      <trkpt lat="48.06666" lon="-3.47945">
        <ele>147.9</ele>
        <time>2025-02-26T11:37:53Z</time>
      </trkpt>
      <trkpt lat="48.06665" lon="-3.47946">
        <ele>147.9</ele>
        <time>2025-02-26T11:37:54Z</time>
      </trkpt>
      <trkpt lat="48.06665" lon="-3.47946">
        <ele>147.9</ele>
        <time>2025-02-26T11:37:55Z</time>
      </trkpt>
      <trkpt lat="48.06665" lon="-3.47946">
        <ele>147.9</ele>
        <time>2025-02-26T11:37:56Z</time>
      </trkpt>
      <trkpt lat="48.06665" lon="-3.47946">
        <ele>147.9</ele>
        <time>2025-02-26T11:37:57Z</time>
      </trkpt>
      <trkpt lat="48.06665" lon="-3.47946">
        <ele>147.9</ele>
        <time>2025-02-26T11:37:58Z</time>
      </trkpt>
      <trkpt lat="48.06665" lon="-3.47946">
        <ele>147.9</ele>
        <time>2025-02-26T11:37:59Z</time>
      </trkpt>
      <trkpt lat="48.06665" lon="-3.47946">
        <ele>147.9</ele>
        <time>2025-02-26T11:38:00Z</time>
      </trkpt>
      <trkpt lat="48.06665" lon="-3.47946">
        <ele>147.9</ele>
        <time>2025-02-26T11:38:01Z</time>
      </trkpt>
      <trkpt lat="48.06665" lon="-3.47946">
        <ele>147.9</ele>
        <time>2025-02-26T11:38:02Z</time>
      </trkpt>
      <trkpt lat="48.06665" lon="-3.47946">
        <ele>147.9</ele>
        <time>2025-02-26T11:38:03Z</time>
      </trkpt>
      <trkpt lat="48.06665" lon="-3.47946">
        <ele>147.9</ele>
        <time>2025-02-26T11:38:04Z</time>
      </trkpt>
      <trkpt lat="48.06665" lon="-3.47946">
        <ele>147.9</ele>
        <time>2025-02-26T11:38:05Z</time>
      </trkpt>
      <trkpt lat="48.06665" lon="-3.47946">
        <ele>147.9</ele>
        <time>2025-02-26T11:38:06Z</time>
      </trkpt>
      <trkpt lat="48.06665" lon="-3.47946">
        <ele>147.9</ele>
        <time>2025-02-26T11:38:07Z</time>
      </trkpt>
      <trkpt lat="48.06665" lon="-3.47946">
        <ele>147.9</ele>
        <time>2025-02-26T11:38:08Z</time>
      </trkpt>
      <trkpt lat="48.06665" lon="-3.47946">
        <ele>147.9</ele>
        <time>2025-02-26T11:38:09Z</time>
      </trkpt>
      <trkpt lat="48.06665" lon="-3.47945">
        <ele>147.9</ele>
        <time>2025-02-26T11:38:10Z</time>
      </trkpt>
      <trkpt lat="48.06666" lon="-3.47945">
        <ele>147.9</ele>
        <time>2025-02-26T11:38:11Z</time>
      </trkpt>
      <trkpt lat="48.06666" lon="-3.47945">
        <ele>147.9</ele>
        <time>2025-02-26T11:38:12Z</time>
      </trkpt>
      <trkpt lat="48.06666" lon="-3.47945">
        <ele>147.9</ele>
        <time>2025-02-26T11:38:13Z</time>
      </trkpt>
      <trkpt lat="48.06666" lon="-3.47945">
        <ele>147.9</ele>
        <time>2025-02-26T11:38:14Z</time>
      </trkpt>
      <trkpt lat="48.06666" lon="-3.47945">
        <ele>147.9</ele>
        <time>2025-02-26T11:38:15Z</time>
      </trkpt>
      <trkpt lat="48.06666" lon="-3.47945">
        <ele>147.9</ele>
        <time>2025-02-26T11:38:16Z</time>
      </trkpt>
      <trkpt lat="48.06666" lon="-3.47945">
        <ele>147.9</ele>
        <time>2025-02-26T11:38:17Z</time>
      </trkpt>
      <trkpt lat="48.06666" lon="-3.47945">
        <ele>147.9</ele>
        <time>2025-02-26T11:38:18Z</time>
      </trkpt>
      <trkpt lat="48.06666" lon="-3.47945">
        <ele>147.9</ele>
        <time>2025-02-26T11:38:19Z</time>
      </trkpt>
      <trkpt lat="48.06666" lon="-3.47945">
        <ele>147.9</ele>
        <time>2025-02-26T11:38:20Z</time>
      </trkpt>
      <trkpt lat="48.06666" lon="-3.47945">
        <ele>147.9</ele>
        <time>2025-02-26T11:38:21Z</time>
      </trkpt>
      <trkpt lat="48.06666" lon="-3.47945">
        <ele>147.9</ele>
        <time>2025-02-26T11:38:22Z</time>
      </trkpt>
      <trkpt lat="48.06666" lon="-3.47945">
        <ele>147.9</ele>
        <time>2025-02-26T11:38:23Z</time>
      </trkpt>
      <trkpt lat="48.06666" lon="-3.47945">
        <ele>147.9</ele>
        <time>2025-02-26T11:38:24Z</time>
      </trkpt>
      <trkpt lat="48.06666" lon="-3.47945">
        <ele>147.9</ele>
        <time>2025-02-26T11:38:25Z</time>
      </trkpt>
      <trkpt lat="48.06666" lon="-3.47945">
        <ele>147.9</ele>
        <time>2025-02-26T11:38:26Z</time>
      </trkpt>
      <trkpt lat="48.06666" lon="-3.47945">
        <ele>147.9</ele>
        <time>2025-02-26T11:38:27Z</time>
      </trkpt>
      <trkpt lat="48.06666" lon="-3.47945">
        <ele>147.9</ele>
        <time>2025-02-26T11:38:28Z</time>
      </trkpt>
      <trkpt lat="48.06666" lon="-3.47945">
        <ele>147.9</ele>
        <time>2025-02-26T11:38:29Z</time>
      </trkpt>
      <trkpt lat="48.06666" lon="-3.47945">
        <ele>147.9</ele>
        <time>2025-02-26T11:38:30Z</time>
      </trkpt>
      <trkpt lat="48.06666" lon="-3.47945">
        <ele>147.9</ele>
        <time>2025-02-26T11:38:31Z</time>
      </trkpt>
      <trkpt lat="48.06666" lon="-3.47945">
        <ele>147.9</ele>
        <time>2025-02-26T11:38:32Z</time>
      </trkpt>
      <trkpt lat="48.06666" lon="-3.47945">
        <ele>147.9</ele>
        <time>2025-02-26T11:38:33Z</time>
      </trkpt>
      <trkpt lat="48.06666" lon="-3.47945">
        <ele>147.9</ele>
        <time>2025-02-26T11:38:34Z</time>
      </trkpt>
      <trkpt lat="48.06666" lon="-3.47945">
        <ele>147.9</ele>
        <time>2025-02-26T11:38:35Z</time>
      </trkpt>
      <trkpt lat="48.06666" lon="-3.47945">
        <ele>147.9</ele>
        <time>2025-02-26T11:38:36Z</time>
      </trkpt>
      <trkpt lat="48.06666" lon="-3.47945">
        <ele>147.9</ele>
        <time>2025-02-26T11:38:37Z</time>
      </trkpt>
      <trkpt lat="48.06666" lon="-3.47945">
        <ele>147.9</ele>
        <time>2025-02-26T11:38:38Z</time>
      </trkpt>
      <trkpt lat="48.06666" lon="-3.47945">
        <ele>147.9</ele>
        <time>2025-02-26T11:38:39Z</time>
      </trkpt>
      <trkpt lat="48.06666" lon="-3.47945">
        <ele>147.9</ele>
        <time>2025-02-26T11:38:40Z</time>
      </trkpt>
      <trkpt lat="48.06666" lon="-3.47945">
        <ele>147.9</ele>
        <time>2025-02-26T11:38:41Z</time>
      </trkpt>
      <trkpt lat="48.06666" lon="-3.47945">
        <ele>147.9</ele>
        <time>2025-02-26T11:38:42Z</time>
      </trkpt>
      <trkpt lat="48.06666" lon="-3.47945">
        <ele>147.9</ele>
        <time>2025-02-26T11:38:43Z</time>
      </trkpt>
      <trkpt lat="48.06666" lon="-3.47945">
        <ele>147.9</ele>
        <time>2025-02-26T11:38:44Z</time>
      </trkpt>
      <trkpt lat="48.06666" lon="-3.47945">
        <ele>147.9</ele>
        <time>2025-02-26T11:38:45Z</time>
      </trkpt>
      <trkpt lat="48.06666" lon="-3.47945">
        <ele>147.9</ele>
        <time>2025-02-26T11:38:46Z</time>
      </trkpt>
      <trkpt lat="48.06666" lon="-3.47945">
        <ele>147.9</ele>
        <time>2025-02-26T11:38:47Z</time>
      </trkpt>
      <trkpt lat="48.06666" lon="-3.47945">
        <ele>147.9</ele>
        <time>2025-02-26T11:38:48Z</time>
      </trkpt>
      <trkpt lat="48.06666" lon="-3.47945">
        <ele>147.9</ele>
        <time>2025-02-26T11:38:49Z</time>
      </trkpt>
      <trkpt lat="48.06666" lon="-3.47945">
        <ele>147.9</ele>
        <time>2025-02-26T11:38:50Z</time>
      </trkpt>
      <trkpt lat="48.06666" lon="-3.47945">
        <ele>147.9</ele>
        <time>2025-02-26T11:38:51Z</time>
      </trkpt>
      <trkpt lat="48.06666" lon="-3.47945">
        <ele>147.9</ele>
        <time>2025-02-26T11:38:52Z</time>
      </trkpt>
      <trkpt lat="48.06666" lon="-3.47945">
        <ele>147.9</ele>
        <time>2025-02-26T11:38:53Z</time>
      </trkpt>
      <trkpt lat="48.06666" lon="-3.47945">
        <ele>147.9</ele>
        <time>2025-02-26T11:38:54Z</time>
      </trkpt>
      <trkpt lat="48.06666" lon="-3.47945">
        <ele>147.9</ele>
        <time>2025-02-26T11:38:55Z</time>
      </trkpt>
      <trkpt lat="48.06666" lon="-3.47945">
        <ele>147.9</ele>
        <time>2025-02-26T11:38:56Z</time>
      </trkpt>
      <trkpt lat="48.06666" lon="-3.47945">
        <ele>147.9</ele>
        <time>2025-02-26T11:38:57Z</time>
      </trkpt>
      <trkpt lat="48.06666" lon="-3.47945">
        <ele>147.9</ele>
        <time>2025-02-26T11:38:58Z</time>
      </trkpt>
      <trkpt lat="48.06666" lon="-3.47945">
        <ele>147.9</ele>
        <time>2025-02-26T11:38:59Z</time>
      </trkpt>
      <trkpt lat="48.06666" lon="-3.47945">
        <ele>147.9</ele>
        <time>2025-02-26T11:39:00Z</time>
      </trkpt>
      <trkpt lat="48.06666" lon="-3.47945">
        <ele>147.9</ele>
        <time>2025-02-26T11:39:01Z</time>
      </trkpt>
      <trkpt lat="48.06666" lon="-3.47945">
        <ele>147.9</ele>
        <time>2025-02-26T11:39:02Z</time>
      </trkpt>
      <trkpt lat="48.06666" lon="-3.47945">
        <ele>147.9</ele>
        <time>2025-02-26T11:39:03Z</time>
      </trkpt>
      <trkpt lat="48.06666" lon="-3.47945">
        <ele>147.9</ele>
        <time>2025-02-26T11:39:04Z</time>
      </trkpt>
      <trkpt lat="48.06666" lon="-3.47945">
        <ele>147.9</ele>
        <time>2025-02-26T11:39:05Z</time>
      </trkpt>
      <trkpt lat="48.06666" lon="-3.47945">
        <ele>147.9</ele>
        <time>2025-02-26T11:39:06Z</time>
      </trkpt>
      <trkpt lat="48.06666" lon="-3.47945">
        <ele>147.9</ele>
        <time>2025-02-26T11:39:07Z</time>
      </trkpt>
      <trkpt lat="48.06666" lon="-3.47945">
        <ele>147.9</ele>
        <time>2025-02-26T11:39:08Z</time>
      </trkpt>
      <trkpt lat="48.06666" lon="-3.47945">
        <ele>147.9</ele>
        <time>2025-02-26T11:39:09Z</time>
      </trkpt>
      <trkpt lat="48.06666" lon="-3.47945">
        <ele>147.9</ele>
        <time>2025-02-26T11:39:10Z</time>
      </trkpt>
      <trkpt lat="48.06666" lon="-3.47945">
        <ele>147.9</ele>
        <time>2025-02-26T11:39:11Z</time>
      </trkpt>
      <trkpt lat="48.06666" lon="-3.47945">
        <ele>147.9</ele>
        <time>2025-02-26T11:39:12Z</time>
      </trkpt>
      <trkpt lat="48.06666" lon="-3.47945">
        <ele>147.9</ele>
        <time>2025-02-26T11:39:13Z</time>
      </trkpt>
      <trkpt lat="48.06666" lon="-3.47945">
        <ele>147.9</ele>
        <time>2025-02-26T11:39:14Z</time>
      </trkpt>
      <trkpt lat="48.06666" lon="-3.47945">
        <ele>147.9</ele>
        <time>2025-02-26T11:39:15Z</time>
      </trkpt>
      <trkpt lat="48.06666" lon="-3.47945">
        <ele>147.9</ele>
        <time>2025-02-26T11:39:16Z</time>
      </trkpt>
      <trkpt lat="48.06666" lon="-3.47945">
        <ele>147.9</ele>
        <time>2025-02-26T11:39:17Z</time>
      </trkpt>
      <trkpt lat="48.06666" lon="-3.47945">
        <ele>147.9</ele>
        <time>2025-02-26T11:39:18Z</time>
      </trkpt>
      <trkpt lat="48.06666" lon="-3.47945">
        <ele>147.9</ele>
        <time>2025-02-26T11:39:19Z</time>
      </trkpt>
      <trkpt lat="48.06666" lon="-3.47945">
        <ele>147.9</ele>
        <time>2025-02-26T11:39:20Z</time>
      </trkpt>
      <trkpt lat="48.06666" lon="-3.47945">
        <ele>147.9</ele>
        <time>2025-02-26T11:39:21Z</time>
      </trkpt>
      <trkpt lat="48.06665" lon="-3.47946">
        <ele>147.9</ele>
        <time>2025-02-26T11:39:22Z</time>
      </trkpt>
      <trkpt lat="48.06665" lon="-3.47946">
        <ele>147.9</ele>
        <time>2025-02-26T11:39:23Z</time>
      </trkpt>
      <trkpt lat="48.06665" lon="-3.47946">
        <ele>147.9</ele>
        <time>2025-02-26T11:39:24Z</time>
      </trkpt>
      <trkpt lat="48.06665" lon="-3.47946">
        <ele>147.9</ele>
        <time>2025-02-26T11:39:25Z</time>
      </trkpt>
      <trkpt lat="48.06665" lon="-3.47946">
        <ele>147.9</ele>
        <time>2025-02-26T11:39:26Z</time>
      </trkpt>
      <trkpt lat="48.06665" lon="-3.47946">
        <ele>147.9</ele>
        <time>2025-02-26T11:39:27Z</time>
      </trkpt>
      <trkpt lat="48.06665" lon="-3.47946">
        <ele>147.9</ele>
        <time>2025-02-26T11:39:28Z</time>
      </trkpt>
      <trkpt lat="48.06665" lon="-3.47946">
        <ele>147.9</ele>
        <time>2025-02-26T11:39:29Z</time>
      </trkpt>
      <trkpt lat="48.06665" lon="-3.47946">
        <ele>147.9</ele>
        <time>2025-02-26T11:39:30Z</time>
      </trkpt>
      <trkpt lat="48.06665" lon="-3.47946">
        <ele>147.9</ele>
        <time>2025-02-26T11:39:31Z</time>
      </trkpt>
      <trkpt lat="48.06665" lon="-3.47946">
        <ele>147.9</ele>
        <time>2025-02-26T11:39:32Z</time>
      </trkpt>
      <trkpt lat="48.06665" lon="-3.47946">
        <ele>147.9</ele>
        <time>2025-02-26T11:39:33Z</time>
      </trkpt>
      <trkpt lat="48.06665" lon="-3.47946">
        <ele>147.9</ele>
        <time>2025-02-26T11:39:34Z</time>
      </trkpt>
      <trkpt lat="48.06665" lon="-3.47945">
        <ele>147.9</ele>
        <time>2025-02-26T11:39:35Z</time>
      </trkpt>
      <trkpt lat="48.06665" lon="-3.47944">
        <ele>147.9</ele>
        <time>2025-02-26T11:39:36Z</time>
      </trkpt>
      <trkpt lat="48.06665" lon="-3.47944">
        <ele>147.9</ele>
        <time>2025-02-26T11:39:37Z</time>
      </trkpt>
      <trkpt lat="48.06665" lon="-3.47944">
        <ele>147.9</ele>
        <time>2025-02-26T11:39:38Z</time>
      </trkpt>
      <trkpt lat="48.06665" lon="-3.47945">
        <ele>147.9</ele>
        <time>2025-02-26T11:39:39Z</time>
      </trkpt>
      <trkpt lat="48.06665" lon="-3.47945">
        <ele>147.9</ele>
        <time>2025-02-26T11:39:40Z</time>
      </trkpt>
      <trkpt lat="48.06665" lon="-3.47945">
        <ele>147.9</ele>
        <time>2025-02-26T11:39:41Z</time>
      </trkpt>
      <trkpt lat="48.06665" lon="-3.47944">
        <ele>147.9</ele>
        <time>2025-02-26T11:39:42Z</time>
      </trkpt>
      <trkpt lat="48.06665" lon="-3.47944">
        <ele>147.9</ele>
        <time>2025-02-26T11:39:43Z</time>
      </trkpt>
      <trkpt lat="48.06665" lon="-3.47945">
        <ele>147.9</ele>
        <time>2025-02-26T11:39:44Z</time>
      </trkpt>
      <trkpt lat="48.06666" lon="-3.47945">
        <ele>147.9</ele>
        <time>2025-02-26T11:39:45Z</time>
      </trkpt>
      <trkpt lat="48.06666" lon="-3.47945">
        <ele>147.9</ele>
        <time>2025-02-26T11:39:46Z</time>
      </trkpt>
      <trkpt lat="48.06666" lon="-3.47945">
        <ele>147.9</ele>
        <time>2025-02-26T11:39:47Z</time>
      </trkpt>
      <trkpt lat="48.06666" lon="-3.47946">
        <ele>147.9</ele>
        <time>2025-02-26T11:39:48Z</time>
      </trkpt>
      <trkpt lat="48.06666" lon="-3.47946">
        <ele>147.9</ele>
        <time>2025-02-26T11:39:49Z</time>
      </trkpt>
      <trkpt lat="48.06666" lon="-3.47945">
        <ele>147.9</ele>
        <time>2025-02-26T11:39:50Z</time>
      </trkpt>
      <trkpt lat="48.06666" lon="-3.47945">
        <ele>148</ele>
        <time>2025-02-26T11:39:51Z</time>
      </trkpt>
      <trkpt lat="48.06666" lon="-3.47945">
        <ele>148</ele>
        <time>2025-02-26T11:39:52Z</time>
      </trkpt>
      <trkpt lat="48.06667" lon="-3.47945">
        <ele>148</ele>
        <time>2025-02-26T11:39:53Z</time>
      </trkpt>
      <trkpt lat="48.06667" lon="-3.47945">
        <ele>148</ele>
        <time>2025-02-26T11:39:54Z</time>
      </trkpt>
      <trkpt lat="48.06667" lon="-3.47945">
        <ele>148</ele>
        <time>2025-02-26T11:39:55Z</time>
      </trkpt>
      <trkpt lat="48.06667" lon="-3.47945">
        <ele>148</ele>
        <time>2025-02-26T11:39:56Z</time>
      </trkpt>
      <trkpt lat="48.06667" lon="-3.47945">
        <ele>148</ele>
        <time>2025-02-26T11:39:57Z</time>
      </trkpt>
      <trkpt lat="48.06667" lon="-3.47945">
        <ele>148</ele>
        <time>2025-02-26T11:39:58Z</time>
      </trkpt>
      <trkpt lat="48.06667" lon="-3.47945">
        <ele>148</ele>
        <time>2025-02-26T11:39:59Z</time>
      </trkpt>
      <trkpt lat="48.06667" lon="-3.47945">
        <ele>148</ele>
        <time>2025-02-26T11:40:00Z</time>
      </trkpt>
      <trkpt lat="48.06667" lon="-3.47945">
        <ele>148</ele>
        <time>2025-02-26T11:40:01Z</time>
      </trkpt>
      <trkpt lat="48.06667" lon="-3.47945">
        <ele>148</ele>
        <time>2025-02-26T11:40:02Z</time>
      </trkpt>
      <trkpt lat="48.06667" lon="-3.47945">
        <ele>148</ele>
        <time>2025-02-26T11:40:03Z</time>
      </trkpt>
      <trkpt lat="48.06667" lon="-3.47945">
        <ele>148</ele>
        <time>2025-02-26T11:40:04Z</time>
      </trkpt>
      <trkpt lat="48.06667" lon="-3.47945">
        <ele>148</ele>
        <time>2025-02-26T11:40:05Z</time>
      </trkpt>
      <trkpt lat="48.06667" lon="-3.47945">
        <ele>148</ele>
        <time>2025-02-26T11:40:06Z</time>
      </trkpt>
      <trkpt lat="48.06667" lon="-3.47945">
        <ele>148</ele>
        <time>2025-02-26T11:40:07Z</time>
      </trkpt>
      <trkpt lat="48.06667" lon="-3.47945">
        <ele>148</ele>
        <time>2025-02-26T11:40:08Z</time>
      </trkpt>
      <trkpt lat="48.06667" lon="-3.47945">
        <ele>148</ele>
        <time>2025-02-26T11:40:09Z</time>
      </trkpt>
      <trkpt lat="48.06667" lon="-3.47945">
        <ele>148</ele>
        <time>2025-02-26T11:40:10Z</time>
      </trkpt>
      <trkpt lat="48.06667" lon="-3.47945">
        <ele>148</ele>
        <time>2025-02-26T11:40:11Z</time>
      </trkpt>
      <trkpt lat="48.06667" lon="-3.47945">
        <ele>148</ele>
        <time>2025-02-26T11:40:12Z</time>
      </trkpt>
      <trkpt lat="48.06667" lon="-3.47945">
        <ele>148</ele>
        <time>2025-02-26T11:40:13Z</time>
      </trkpt>
      <trkpt lat="48.06667" lon="-3.47945">
        <ele>148</ele>
        <time>2025-02-26T11:40:14Z</time>
      </trkpt>
      <trkpt lat="48.06667" lon="-3.47945">
        <ele>148</ele>
        <time>2025-02-26T11:40:15Z</time>
      </trkpt>
      <trkpt lat="48.06667" lon="-3.47945">
        <ele>148</ele>
        <time>2025-02-26T11:40:16Z</time>
      </trkpt>
      <trkpt lat="48.06667" lon="-3.47945">
        <ele>148</ele>
        <time>2025-02-26T11:40:17Z</time>
      </trkpt>
      <trkpt lat="48.06667" lon="-3.47945">
        <ele>148</ele>
        <time>2025-02-26T11:40:18Z</time>
      </trkpt>
      <trkpt lat="48.06667" lon="-3.47945">
        <ele>148</ele>
        <time>2025-02-26T11:40:19Z</time>
      </trkpt>
      <trkpt lat="48.06668" lon="-3.47945">
        <ele>148</ele>
        <time>2025-02-26T11:40:20Z</time>
      </trkpt>
      <trkpt lat="48.06668" lon="-3.47945">
        <ele>148</ele>
        <time>2025-02-26T11:40:21Z</time>
      </trkpt>
      <trkpt lat="48.06668" lon="-3.47945">
        <ele>148</ele>
        <time>2025-02-26T11:40:22Z</time>
      </trkpt>
      <trkpt lat="48.06668" lon="-3.47945">
        <ele>148</ele>
        <time>2025-02-26T11:40:23Z</time>
      </trkpt>
      <trkpt lat="48.06668" lon="-3.47945">
        <ele>148</ele>
        <time>2025-02-26T11:40:24Z</time>
      </trkpt>
      <trkpt lat="48.06668" lon="-3.47945">
        <ele>148</ele>
        <time>2025-02-26T11:40:25Z</time>
      </trkpt>
      <trkpt lat="48.06668" lon="-3.47945">
        <ele>148</ele>
        <time>2025-02-26T11:40:26Z</time>
      </trkpt>
      <trkpt lat="48.06667" lon="-3.47944">
        <ele>148</ele>
        <time>2025-02-26T11:40:27Z</time>
      </trkpt>
      <trkpt lat="48.06667" lon="-3.47944">
        <ele>148</ele>
        <time>2025-02-26T11:40:28Z</time>
      </trkpt>
      <trkpt lat="48.06667" lon="-3.47944">
        <ele>148</ele>
        <time>2025-02-26T11:40:29Z</time>
      </trkpt>
      <trkpt lat="48.06667" lon="-3.47944">
        <ele>148</ele>
        <time>2025-02-26T11:40:30Z</time>
      </trkpt>
      <trkpt lat="48.06668" lon="-3.47945">
        <ele>148</ele>
        <time>2025-02-26T11:40:31Z</time>
      </trkpt>
      <trkpt lat="48.06668" lon="-3.47945">
        <ele>148</ele>
        <time>2025-02-26T11:40:32Z</time>
      </trkpt>
      <trkpt lat="48.06668" lon="-3.47945">
        <ele>148</ele>
        <time>2025-02-26T11:40:33Z</time>
      </trkpt>
      <trkpt lat="48.06668" lon="-3.47945">
        <ele>148</ele>
        <time>2025-02-26T11:40:34Z</time>
      </trkpt>
      <trkpt lat="48.06668" lon="-3.47945">
        <ele>148</ele>
        <time>2025-02-26T11:40:35Z</time>
      </trkpt>
      <trkpt lat="48.06668" lon="-3.47945">
        <ele>148</ele>
        <time>2025-02-26T11:40:36Z</time>
      </trkpt>
      <trkpt lat="48.06668" lon="-3.47945">
        <ele>148</ele>
        <time>2025-02-26T11:40:37Z</time>
      </trkpt>
      <trkpt lat="48.06668" lon="-3.47945">
        <ele>148</ele>
        <time>2025-02-26T11:40:38Z</time>
      </trkpt>
      <trkpt lat="48.06668" lon="-3.47945">
        <ele>148</ele>
        <time>2025-02-26T11:40:39Z</time>
      </trkpt>
      <trkpt lat="48.06668" lon="-3.47945">
        <ele>148</ele>
        <time>2025-02-26T11:40:40Z</time>
      </trkpt>
      <trkpt lat="48.06668" lon="-3.47945">
        <ele>148</ele>
        <time>2025-02-26T11:40:41Z</time>
      </trkpt>
      <trkpt lat="48.06668" lon="-3.47945">
        <ele>148</ele>
        <time>2025-02-26T11:40:42Z</time>
      </trkpt>
      <trkpt lat="48.06668" lon="-3.47945">
        <ele>148</ele>
        <time>2025-02-26T11:40:43Z</time>
      </trkpt>
      <trkpt lat="48.06668" lon="-3.47945">
        <ele>147.9</ele>
        <time>2025-02-26T11:40:44Z</time>
      </trkpt>
      <trkpt lat="48.06668" lon="-3.47945">
        <ele>147.9</ele>
        <time>2025-02-26T11:40:45Z</time>
      </trkpt>
      <trkpt lat="48.06668" lon="-3.47945">
        <ele>147.9</ele>
        <time>2025-02-26T11:40:46Z</time>
      </trkpt>
      <trkpt lat="48.06668" lon="-3.47945">
        <ele>147.9</ele>
        <time>2025-02-26T11:40:47Z</time>
      </trkpt>
      <trkpt lat="48.06668" lon="-3.47945">
        <ele>147.9</ele>
        <time>2025-02-26T11:40:48Z</time>
      </trkpt>
      <trkpt lat="48.06668" lon="-3.47945">
        <ele>147.9</ele>
        <time>2025-02-26T11:40:49Z</time>
      </trkpt>
      <trkpt lat="48.06668" lon="-3.47945">
        <ele>147.9</ele>
        <time>2025-02-26T11:40:50Z</time>
      </trkpt>
      <trkpt lat="48.06668" lon="-3.47945">
        <ele>147.9</ele>
        <time>2025-02-26T11:40:51Z</time>
      </trkpt>
      <trkpt lat="48.06668" lon="-3.47945">
        <ele>147.9</ele>
        <time>2025-02-26T11:40:52Z</time>
      </trkpt>
      <trkpt lat="48.06668" lon="-3.47945">
        <ele>147.9</ele>
        <time>2025-02-26T11:40:53Z</time>
      </trkpt>
      <trkpt lat="48.06668" lon="-3.47945">
        <ele>147.9</ele>
        <time>2025-02-26T11:40:54Z</time>
      </trkpt>
      <trkpt lat="48.06668" lon="-3.47945">
        <ele>147.9</ele>
        <time>2025-02-26T11:40:55Z</time>
      </trkpt>
      <trkpt lat="48.06668" lon="-3.47945">
        <ele>147.9</ele>
        <time>2025-02-26T11:40:56Z</time>
      </trkpt>
      <trkpt lat="48.06668" lon="-3.47945">
        <ele>147.9</ele>
        <time>2025-02-26T11:40:57Z</time>
      </trkpt>
      <trkpt lat="48.06668" lon="-3.47945">
        <ele>147.9</ele>
        <time>2025-02-26T11:40:58Z</time>
      </trkpt>
      <trkpt lat="48.06668" lon="-3.47945">
        <ele>147.9</ele>
        <time>2025-02-26T11:40:59Z</time>
      </trkpt>
      <trkpt lat="48.06668" lon="-3.47945">
        <ele>147.9</ele>
        <time>2025-02-26T11:41:00Z</time>
      </trkpt>
      <trkpt lat="48.06668" lon="-3.47945">
        <ele>147.9</ele>
        <time>2025-02-26T11:41:01Z</time>
      </trkpt>
      <trkpt lat="48.06668" lon="-3.47945">
        <ele>147.9</ele>
        <time>2025-02-26T11:41:02Z</time>
      </trkpt>
      <trkpt lat="48.06668" lon="-3.47945">
        <ele>147.9</ele>
        <time>2025-02-26T11:41:03Z</time>
      </trkpt>
      <trkpt lat="48.06668" lon="-3.47945">
        <ele>147.9</ele>
        <time>2025-02-26T11:41:04Z</time>
      </trkpt>
      <trkpt lat="48.06669" lon="-3.47945">
        <ele>147.9</ele>
        <time>2025-02-26T11:41:05Z</time>
      </trkpt>
      <trkpt lat="48.06669" lon="-3.47946">
        <ele>147.9</ele>
        <time>2025-02-26T11:41:06Z</time>
      </trkpt>
      <trkpt lat="48.06669" lon="-3.47947">
        <ele>147.9</ele>
        <time>2025-02-26T11:41:07Z</time>
      </trkpt>
      <trkpt lat="48.06669" lon="-3.47947">
        <ele>147.9</ele>
        <time>2025-02-26T11:41:08Z</time>
      </trkpt>
      <trkpt lat="48.06669" lon="-3.47947">
        <ele>147.9</ele>
        <time>2025-02-26T11:41:09Z</time>
      </trkpt>
      <trkpt lat="48.06669" lon="-3.47947">
        <ele>147.9</ele>
        <time>2025-02-26T11:41:10Z</time>
      </trkpt>
      <trkpt lat="48.06669" lon="-3.47947">
        <ele>147.9</ele>
        <time>2025-02-26T11:41:11Z</time>
      </trkpt>
      <trkpt lat="48.06669" lon="-3.47947">
        <ele>147.9</ele>
        <time>2025-02-26T11:41:12Z</time>
      </trkpt>
      <trkpt lat="48.06669" lon="-3.47947">
        <ele>147.9</ele>
        <time>2025-02-26T11:41:13Z</time>
      </trkpt>
      <trkpt lat="48.06669" lon="-3.47947">
        <ele>147.9</ele>
        <time>2025-02-26T11:41:14Z</time>
      </trkpt>
      <trkpt lat="48.06669" lon="-3.47947">
        <ele>147.9</ele>
        <time>2025-02-26T11:41:15Z</time>
      </trkpt>
      <trkpt lat="48.06669" lon="-3.47947">
        <ele>147.9</ele>
        <time>2025-02-26T11:41:16Z</time>
      </trkpt>
      <trkpt lat="48.06669" lon="-3.47947">
        <ele>147.9</ele>
        <time>2025-02-26T11:41:17Z</time>
      </trkpt>
      <trkpt lat="48.06669" lon="-3.47947">
        <ele>147.9</ele>
        <time>2025-02-26T11:41:18Z</time>
      </trkpt>
      <trkpt lat="48.06669" lon="-3.47947">
        <ele>147.9</ele>
        <time>2025-02-26T11:41:19Z</time>
      </trkpt>
      <trkpt lat="48.06669" lon="-3.47947">
        <ele>147.9</ele>
        <time>2025-02-26T11:41:20Z</time>
      </trkpt>
      <trkpt lat="48.06669" lon="-3.47947">
        <ele>147.9</ele>
        <time>2025-02-26T11:41:21Z</time>
      </trkpt>
      <trkpt lat="48.06669" lon="-3.47947">
        <ele>147.9</ele>
        <time>2025-02-26T11:41:22Z</time>
      </trkpt>
      <trkpt lat="48.06669" lon="-3.47947">
        <ele>147.9</ele>
        <time>2025-02-26T11:41:23Z</time>
      </trkpt>
      <trkpt lat="48.06669" lon="-3.47947">
        <ele>147.9</ele>
        <time>2025-02-26T11:41:24Z</time>
      </trkpt>
      <trkpt lat="48.06669" lon="-3.47947">
        <ele>147.9</ele>
        <time>2025-02-26T11:41:25Z</time>
      </trkpt>
      <trkpt lat="48.06669" lon="-3.47947">
        <ele>147.9</ele>
        <time>2025-02-26T11:41:26Z</time>
      </trkpt>
      <trkpt lat="48.06669" lon="-3.47947">
        <ele>147.9</ele>
        <time>2025-02-26T11:41:27Z</time>
      </trkpt>
      <trkpt lat="48.06669" lon="-3.47947">
        <ele>147.9</ele>
        <time>2025-02-26T11:41:28Z</time>
      </trkpt>
      <trkpt lat="48.06669" lon="-3.47947">
        <ele>147.9</ele>
        <time>2025-02-26T11:41:29Z</time>
      </trkpt>
      <trkpt lat="48.06669" lon="-3.47947">
        <ele>147.9</ele>
        <time>2025-02-26T11:41:30Z</time>
      </trkpt>
      <trkpt lat="48.06669" lon="-3.47947">
        <ele>147.9</ele>
        <time>2025-02-26T11:41:31Z</time>
      </trkpt>
      <trkpt lat="48.06669" lon="-3.47947">
        <ele>147.9</ele>
        <time>2025-02-26T11:41:32Z</time>
      </trkpt>
      <trkpt lat="48.06669" lon="-3.47947">
        <ele>147.9</ele>
        <time>2025-02-26T11:41:33Z</time>
      </trkpt>
      <trkpt lat="48.06669" lon="-3.47947">
        <ele>147.9</ele>
        <time>2025-02-26T11:41:34Z</time>
      </trkpt>
      <trkpt lat="48.06669" lon="-3.47947">
        <ele>147.9</ele>
        <time>2025-02-26T11:41:35Z</time>
      </trkpt>
      <trkpt lat="48.06669" lon="-3.47947">
        <ele>147.9</ele>
        <time>2025-02-26T11:41:36Z</time>
      </trkpt>
      <trkpt lat="48.06669" lon="-3.47947">
        <ele>147.9</ele>
        <time>2025-02-26T11:41:37Z</time>
      </trkpt>
      <trkpt lat="48.06669" lon="-3.47947">
        <ele>147.9</ele>
        <time>2025-02-26T11:41:38Z</time>
      </trkpt>
      <trkpt lat="48.06669" lon="-3.47947">
        <ele>147.9</ele>
        <time>2025-02-26T11:41:39Z</time>
      </trkpt>
      <trkpt lat="48.06669" lon="-3.47947">
        <ele>147.9</ele>
        <time>2025-02-26T11:41:40Z</time>
      </trkpt>
      <trkpt lat="48.06669" lon="-3.47947">
        <ele>147.9</ele>
        <time>2025-02-26T11:41:41Z</time>
      </trkpt>
      <trkpt lat="48.06669" lon="-3.47947">
        <ele>147.9</ele>
        <time>2025-02-26T11:41:42Z</time>
      </trkpt>
      <trkpt lat="48.06669" lon="-3.47947">
        <ele>147.9</ele>
        <time>2025-02-26T11:41:43Z</time>
      </trkpt>
      <trkpt lat="48.06669" lon="-3.47947">
        <ele>147.9</ele>
        <time>2025-02-26T11:41:44Z</time>
      </trkpt>
      <trkpt lat="48.06669" lon="-3.47947">
        <ele>147.9</ele>
        <time>2025-02-26T11:41:45Z</time>
      </trkpt>
      <trkpt lat="48.06669" lon="-3.47947">
        <ele>147.9</ele>
        <time>2025-02-26T11:41:46Z</time>
      </trkpt>
      <trkpt lat="48.06669" lon="-3.47947">
        <ele>147.9</ele>
        <time>2025-02-26T11:41:47Z</time>
      </trkpt>
      <trkpt lat="48.06669" lon="-3.47947">
        <ele>147.9</ele>
        <time>2025-02-26T11:41:48Z</time>
      </trkpt>
      <trkpt lat="48.06669" lon="-3.47947">
        <ele>147.9</ele>
        <time>2025-02-26T11:41:49Z</time>
      </trkpt>
      <trkpt lat="48.06669" lon="-3.47947">
        <ele>147.9</ele>
        <time>2025-02-26T11:41:50Z</time>
      </trkpt>
      <trkpt lat="48.06669" lon="-3.47947">
        <ele>147.9</ele>
        <time>2025-02-26T11:41:51Z</time>
      </trkpt>
      <trkpt lat="48.06669" lon="-3.47947">
        <ele>147.9</ele>
        <time>2025-02-26T11:41:52Z</time>
      </trkpt>
      <trkpt lat="48.06669" lon="-3.47947">
        <ele>147.9</ele>
        <time>2025-02-26T11:41:53Z</time>
      </trkpt>
      <trkpt lat="48.06669" lon="-3.47947">
        <ele>147.9</ele>
        <time>2025-02-26T11:41:54Z</time>
      </trkpt>
      <trkpt lat="48.06669" lon="-3.47947">
        <ele>147.9</ele>
        <time>2025-02-26T11:41:55Z</time>
      </trkpt>
      <trkpt lat="48.06669" lon="-3.47948">
        <ele>147.9</ele>
        <time>2025-02-26T11:41:56Z</time>
      </trkpt>
      <trkpt lat="48.06669" lon="-3.47948">
        <ele>147.9</ele>
        <time>2025-02-26T11:41:57Z</time>
      </trkpt>
      <trkpt lat="48.06669" lon="-3.47948">
        <ele>147.9</ele>
        <time>2025-02-26T11:41:58Z</time>
      </trkpt>
      <trkpt lat="48.06669" lon="-3.47948">
        <ele>147.9</ele>
        <time>2025-02-26T11:41:59Z</time>
      </trkpt>
      <trkpt lat="48.06669" lon="-3.47948">
        <ele>147.9</ele>
        <time>2025-02-26T11:42:00Z</time>
      </trkpt>
      <trkpt lat="48.06669" lon="-3.47948">
        <ele>147.9</ele>
        <time>2025-02-26T11:42:01Z</time>
      </trkpt>
      <trkpt lat="48.06669" lon="-3.47948">
        <ele>147.9</ele>
        <time>2025-02-26T11:42:02Z</time>
      </trkpt>
      <trkpt lat="48.06669" lon="-3.47948">
        <ele>147.9</ele>
        <time>2025-02-26T11:42:03Z</time>
      </trkpt>
      <trkpt lat="48.06669" lon="-3.47948">
        <ele>147.9</ele>
        <time>2025-02-26T11:42:04Z</time>
      </trkpt>
      <trkpt lat="48.06669" lon="-3.47948">
        <ele>147.9</ele>
        <time>2025-02-26T11:42:05Z</time>
      </trkpt>
      <trkpt lat="48.06669" lon="-3.47948">
        <ele>147.9</ele>
        <time>2025-02-26T11:42:06Z</time>
      </trkpt>
      <trkpt lat="48.06669" lon="-3.47948">
        <ele>147.9</ele>
        <time>2025-02-26T11:42:07Z</time>
      </trkpt>
      <trkpt lat="48.06669" lon="-3.47948">
        <ele>147.9</ele>
        <time>2025-02-26T11:42:08Z</time>
      </trkpt>
      <trkpt lat="48.06669" lon="-3.47948">
        <ele>147.9</ele>
        <time>2025-02-26T11:42:09Z</time>
      </trkpt>
      <trkpt lat="48.06669" lon="-3.47948">
        <ele>147.9</ele>
        <time>2025-02-26T11:42:10Z</time>
      </trkpt>
      <trkpt lat="48.06669" lon="-3.47948">
        <ele>147.9</ele>
        <time>2025-02-26T11:42:11Z</time>
      </trkpt>
      <trkpt lat="48.06669" lon="-3.47948">
        <ele>147.9</ele>
        <time>2025-02-26T11:42:12Z</time>
      </trkpt>
      <trkpt lat="48.06669" lon="-3.47948">
        <ele>147.9</ele>
        <time>2025-02-26T11:42:13Z</time>
      </trkpt>
      <trkpt lat="48.06669" lon="-3.47948">
        <ele>147.9</ele>
        <time>2025-02-26T11:42:14Z</time>
      </trkpt>
      <trkpt lat="48.06669" lon="-3.47948">
        <ele>147.9</ele>
        <time>2025-02-26T11:42:15Z</time>
      </trkpt>
      <trkpt lat="48.06669" lon="-3.47948">
        <ele>147.9</ele>
        <time>2025-02-26T11:42:16Z</time>
      </trkpt>
      <trkpt lat="48.06669" lon="-3.47948">
        <ele>147.9</ele>
        <time>2025-02-26T11:42:17Z</time>
      </trkpt>
      <trkpt lat="48.06669" lon="-3.47948">
        <ele>147.9</ele>
        <time>2025-02-26T11:42:18Z</time>
      </trkpt>
      <trkpt lat="48.06668" lon="-3.47948">
        <ele>147.9</ele>
        <time>2025-02-26T11:42:19Z</time>
      </trkpt>
      <trkpt lat="48.06668" lon="-3.47948">
        <ele>147.9</ele>
        <time>2025-02-26T11:42:20Z</time>
      </trkpt>
      <trkpt lat="48.06668" lon="-3.47948">
        <ele>147.9</ele>
        <time>2025-02-26T11:42:21Z</time>
      </trkpt>
      <trkpt lat="48.06668" lon="-3.47948">
        <ele>147.9</ele>
        <time>2025-02-26T11:42:22Z</time>
      </trkpt>
      <trkpt lat="48.06669" lon="-3.47948">
        <ele>147.9</ele>
        <time>2025-02-26T11:42:23Z</time>
      </trkpt>
      <trkpt lat="48.06669" lon="-3.47948">
        <ele>147.9</ele>
        <time>2025-02-26T11:42:24Z</time>
      </trkpt>
      <trkpt lat="48.06669" lon="-3.47948">
        <ele>147.9</ele>
        <time>2025-02-26T11:42:25Z</time>
      </trkpt>
      <trkpt lat="48.06669" lon="-3.47948">
        <ele>147.9</ele>
        <time>2025-02-26T11:42:26Z</time>
      </trkpt>
      <trkpt lat="48.06669" lon="-3.47948">
        <ele>147.9</ele>
        <time>2025-02-26T11:42:27Z</time>
      </trkpt>
      <trkpt lat="48.06669" lon="-3.47948">
        <ele>147.9</ele>
        <time>2025-02-26T11:42:28Z</time>
      </trkpt>
      <trkpt lat="48.06669" lon="-3.47948">
        <ele>147.9</ele>
        <time>2025-02-26T11:42:29Z</time>
      </trkpt>
      <trkpt lat="48.06669" lon="-3.47948">
        <ele>147.9</ele>
        <time>2025-02-26T11:42:30Z</time>
      </trkpt>
      <trkpt lat="48.06669" lon="-3.47948">
        <ele>147.9</ele>
        <time>2025-02-26T11:42:31Z</time>
      </trkpt>
      <trkpt lat="48.06669" lon="-3.47948">
        <ele>147.9</ele>
        <time>2025-02-26T11:42:32Z</time>
      </trkpt>
      <trkpt lat="48.06669" lon="-3.47948">
        <ele>147.9</ele>
        <time>2025-02-26T11:42:33Z</time>
      </trkpt>
      <trkpt lat="48.06669" lon="-3.47948">
        <ele>147.9</ele>
        <time>2025-02-26T11:42:34Z</time>
      </trkpt>
      <trkpt lat="48.06669" lon="-3.47948">
        <ele>147.9</ele>
        <time>2025-02-26T11:42:35Z</time>
      </trkpt>
      <trkpt lat="48.06669" lon="-3.47948">
        <ele>147.9</ele>
        <time>2025-02-26T11:42:36Z</time>
      </trkpt>
      <trkpt lat="48.06668" lon="-3.47948">
        <ele>147.9</ele>
        <time>2025-02-26T11:42:37Z</time>
      </trkpt>
      <trkpt lat="48.06668" lon="-3.47948">
        <ele>147.9</ele>
        <time>2025-02-26T11:42:38Z</time>
      </trkpt>
      <trkpt lat="48.06668" lon="-3.47948">
        <ele>147.9</ele>
        <time>2025-02-26T11:42:39Z</time>
      </trkpt>
      <trkpt lat="48.06668" lon="-3.47948">
        <ele>147.9</ele>
        <time>2025-02-26T11:42:40Z</time>
      </trkpt>
      <trkpt lat="48.06668" lon="-3.47948">
        <ele>147.9</ele>
        <time>2025-02-26T11:42:41Z</time>
      </trkpt>
      <trkpt lat="48.06668" lon="-3.47948">
        <ele>147.9</ele>
        <time>2025-02-26T11:42:42Z</time>
      </trkpt>
      <trkpt lat="48.06668" lon="-3.47948">
        <ele>147.9</ele>
        <time>2025-02-26T11:42:43Z</time>
      </trkpt>
      <trkpt lat="48.06668" lon="-3.47948">
        <ele>147.9</ele>
        <time>2025-02-26T11:42:44Z</time>
      </trkpt>
      <trkpt lat="48.06668" lon="-3.47948">
        <ele>147.9</ele>
        <time>2025-02-26T11:42:45Z</time>
      </trkpt>
      <trkpt lat="48.06668" lon="-3.47948">
        <ele>147.9</ele>
        <time>2025-02-26T11:42:46Z</time>
      </trkpt>
      <trkpt lat="48.06668" lon="-3.47948">
        <ele>147.9</ele>
        <time>2025-02-26T11:42:47Z</time>
      </trkpt>
      <trkpt lat="48.06668" lon="-3.47948">
        <ele>147.9</ele>
        <time>2025-02-26T11:42:48Z</time>
      </trkpt>
      <trkpt lat="48.06668" lon="-3.47948">
        <ele>147.9</ele>
        <time>2025-02-26T11:42:49Z</time>
      </trkpt>
      <trkpt lat="48.06668" lon="-3.47948">
        <ele>147.9</ele>
        <time>2025-02-26T11:42:50Z</time>
      </trkpt>
      <trkpt lat="48.06668" lon="-3.47948">
        <ele>148</ele>
        <time>2025-02-26T11:42:51Z</time>
      </trkpt>
      <trkpt lat="48.06668" lon="-3.47948">
        <ele>148</ele>
        <time>2025-02-26T11:42:52Z</time>
      </trkpt>
      <trkpt lat="48.06668" lon="-3.47948">
        <ele>148</ele>
        <time>2025-02-26T11:42:53Z</time>
      </trkpt>
      <trkpt lat="48.06668" lon="-3.47948">
        <ele>148</ele>
        <time>2025-02-26T11:42:54Z</time>
      </trkpt>
      <trkpt lat="48.06668" lon="-3.47948">
        <ele>148</ele>
        <time>2025-02-26T11:42:55Z</time>
      </trkpt>
      <trkpt lat="48.06668" lon="-3.47948">
        <ele>148</ele>
        <time>2025-02-26T11:42:56Z</time>
      </trkpt>
      <trkpt lat="48.06668" lon="-3.47948">
        <ele>148</ele>
        <time>2025-02-26T11:42:57Z</time>
      </trkpt>
      <trkpt lat="48.06668" lon="-3.47948">
        <ele>148</ele>
        <time>2025-02-26T11:42:58Z</time>
      </trkpt>
      <trkpt lat="48.06668" lon="-3.47948">
        <ele>148</ele>
        <time>2025-02-26T11:42:59Z</time>
      </trkpt>
      <trkpt lat="48.06668" lon="-3.47948">
        <ele>148</ele>
        <time>2025-02-26T11:43:00Z</time>
      </trkpt>
      <trkpt lat="48.06668" lon="-3.47948">
        <ele>148</ele>
        <time>2025-02-26T11:43:01Z</time>
      </trkpt>
      <trkpt lat="48.06668" lon="-3.47948">
        <ele>148</ele>
        <time>2025-02-26T11:43:02Z</time>
      </trkpt>
      <trkpt lat="48.06668" lon="-3.47948">
        <ele>148</ele>
        <time>2025-02-26T11:43:03Z</time>
      </trkpt>
      <trkpt lat="48.06668" lon="-3.47948">
        <ele>148</ele>
        <time>2025-02-26T11:43:04Z</time>
      </trkpt>
      <trkpt lat="48.06668" lon="-3.47948">
        <ele>148</ele>
        <time>2025-02-26T11:43:05Z</time>
      </trkpt>
      <trkpt lat="48.06668" lon="-3.47948">
        <ele>148</ele>
        <time>2025-02-26T11:43:06Z</time>
      </trkpt>
      <trkpt lat="48.06668" lon="-3.47948">
        <ele>148</ele>
        <time>2025-02-26T11:43:07Z</time>
      </trkpt>
      <trkpt lat="48.06668" lon="-3.47948">
        <ele>148</ele>
        <time>2025-02-26T11:43:08Z</time>
      </trkpt>
      <trkpt lat="48.06668" lon="-3.47948">
        <ele>148</ele>
        <time>2025-02-26T11:43:09Z</time>
      </trkpt>
      <trkpt lat="48.06668" lon="-3.47948">
        <ele>148</ele>
        <time>2025-02-26T11:43:10Z</time>
      </trkpt>
      <trkpt lat="48.06668" lon="-3.47948">
        <ele>148</ele>
        <time>2025-02-26T11:43:11Z</time>
      </trkpt>
      <trkpt lat="48.06668" lon="-3.47948">
        <ele>148</ele>
        <time>2025-02-26T11:43:12Z</time>
      </trkpt>
      <trkpt lat="48.06668" lon="-3.47948">
        <ele>148</ele>
        <time>2025-02-26T11:43:13Z</time>
      </trkpt>
      <trkpt lat="48.06668" lon="-3.47948">
        <ele>148</ele>
        <time>2025-02-26T11:43:14Z</time>
      </trkpt>
      <trkpt lat="48.06668" lon="-3.47948">
        <ele>148</ele>
        <time>2025-02-26T11:43:15Z</time>
      </trkpt>
      <trkpt lat="48.06668" lon="-3.47948">
        <ele>148</ele>
        <time>2025-02-26T11:43:16Z</time>
      </trkpt>
      <trkpt lat="48.06668" lon="-3.47948">
        <ele>148</ele>
        <time>2025-02-26T11:43:17Z</time>
      </trkpt>
      <trkpt lat="48.06668" lon="-3.47949">
        <ele>148</ele>
        <time>2025-02-26T11:43:18Z</time>
      </trkpt>
      <trkpt lat="48.06668" lon="-3.4795">
        <ele>148</ele>
        <time>2025-02-26T11:43:19Z</time>
      </trkpt>
      <trkpt lat="48.06668" lon="-3.4795">
        <ele>148</ele>
        <time>2025-02-26T11:43:20Z</time>
      </trkpt>
      <trkpt lat="48.06668" lon="-3.4795">
        <ele>148</ele>
        <time>2025-02-26T11:43:21Z</time>
      </trkpt>
      <trkpt lat="48.06668" lon="-3.4795">
        <ele>148</ele>
        <time>2025-02-26T11:43:22Z</time>
      </trkpt>
      <trkpt lat="48.06668" lon="-3.4795">
        <ele>148</ele>
        <time>2025-02-26T11:43:23Z</time>
      </trkpt>
      <trkpt lat="48.06669" lon="-3.4795">
        <ele>147.9</ele>
        <time>2025-02-26T11:43:24Z</time>
      </trkpt>
      <trkpt lat="48.06669" lon="-3.4795">
        <ele>147.9</ele>
        <time>2025-02-26T11:43:25Z</time>
      </trkpt>
      <trkpt lat="48.06669" lon="-3.4795">
        <ele>147.9</ele>
        <time>2025-02-26T11:43:26Z</time>
      </trkpt>
      <trkpt lat="48.06669" lon="-3.4795">
        <ele>147.9</ele>
        <time>2025-02-26T11:43:27Z</time>
      </trkpt>
      <trkpt lat="48.06669" lon="-3.4795">
        <ele>147.9</ele>
        <time>2025-02-26T11:43:28Z</time>
      </trkpt>
      <trkpt lat="48.06669" lon="-3.4795">
        <ele>147.9</ele>
        <time>2025-02-26T11:43:29Z</time>
      </trkpt>
      <trkpt lat="48.06669" lon="-3.4795">
        <ele>147.9</ele>
        <time>2025-02-26T11:43:30Z</time>
      </trkpt>
      <trkpt lat="48.06669" lon="-3.4795">
        <ele>147.9</ele>
        <time>2025-02-26T11:43:31Z</time>
      </trkpt>
      <trkpt lat="48.06669" lon="-3.4795">
        <ele>147.9</ele>
        <time>2025-02-26T11:43:32Z</time>
      </trkpt>
      <trkpt lat="48.06669" lon="-3.47949">
        <ele>147.9</ele>
        <time>2025-02-26T11:43:33Z</time>
      </trkpt>
      <trkpt lat="48.06669" lon="-3.47949">
        <ele>147.9</ele>
        <time>2025-02-26T11:43:34Z</time>
      </trkpt>
      <trkpt lat="48.06669" lon="-3.47949">
        <ele>147.9</ele>
        <time>2025-02-26T11:43:35Z</time>
      </trkpt>
      <trkpt lat="48.06669" lon="-3.47949">
        <ele>147.9</ele>
        <time>2025-02-26T11:43:36Z</time>
      </trkpt>
      <trkpt lat="48.06669" lon="-3.47949">
        <ele>147.9</ele>
        <time>2025-02-26T11:43:37Z</time>
      </trkpt>
      <trkpt lat="48.06669" lon="-3.47949">
        <ele>147.9</ele>
        <time>2025-02-26T11:43:38Z</time>
      </trkpt>
      <trkpt lat="48.06669" lon="-3.47949">
        <ele>147.9</ele>
        <time>2025-02-26T11:43:39Z</time>
      </trkpt>
      <trkpt lat="48.06669" lon="-3.47949">
        <ele>147.9</ele>
        <time>2025-02-26T11:43:40Z</time>
      </trkpt>
      <trkpt lat="48.06669" lon="-3.47949">
        <ele>147.9</ele>
        <time>2025-02-26T11:43:41Z</time>
      </trkpt>
      <trkpt lat="48.06669" lon="-3.47949">
        <ele>147.9</ele>
        <time>2025-02-26T11:43:42Z</time>
      </trkpt>
      <trkpt lat="48.06669" lon="-3.47949">
        <ele>147.9</ele>
        <time>2025-02-26T11:43:43Z</time>
      </trkpt>
      <trkpt lat="48.06669" lon="-3.47949">
        <ele>147.9</ele>
        <time>2025-02-26T11:43:44Z</time>
      </trkpt>
      <trkpt lat="48.06669" lon="-3.47949">
        <ele>147.9</ele>
        <time>2025-02-26T11:43:45Z</time>
      </trkpt>
      <trkpt lat="48.06669" lon="-3.47949">
        <ele>147.9</ele>
        <time>2025-02-26T11:43:46Z</time>
      </trkpt>
      <trkpt lat="48.06669" lon="-3.47949">
        <ele>147.9</ele>
        <time>2025-02-26T11:43:47Z</time>
      </trkpt>
      <trkpt lat="48.06669" lon="-3.47949">
        <ele>147.9</ele>
        <time>2025-02-26T11:43:48Z</time>
      </trkpt>
      <trkpt lat="48.06669" lon="-3.47949">
        <ele>147.9</ele>
        <time>2025-02-26T11:43:49Z</time>
      </trkpt>
      <trkpt lat="48.06669" lon="-3.47949">
        <ele>147.9</ele>
        <time>2025-02-26T11:43:50Z</time>
      </trkpt>
      <trkpt lat="48.06669" lon="-3.47949">
        <ele>147.9</ele>
        <time>2025-02-26T11:43:51Z</time>
      </trkpt>
      <trkpt lat="48.06669" lon="-3.47949">
        <ele>147.9</ele>
        <time>2025-02-26T11:43:52Z</time>
      </trkpt>
      <trkpt lat="48.06669" lon="-3.47949">
        <ele>147.9</ele>
        <time>2025-02-26T11:43:53Z</time>
      </trkpt>
      <trkpt lat="48.06669" lon="-3.47949">
        <ele>147.9</ele>
        <time>2025-02-26T11:43:54Z</time>
      </trkpt>
      <trkpt lat="48.06669" lon="-3.47949">
        <ele>147.9</ele>
        <time>2025-02-26T11:43:55Z</time>
      </trkpt>
      <trkpt lat="48.06669" lon="-3.47949">
        <ele>147.9</ele>
        <time>2025-02-26T11:43:56Z</time>
      </trkpt>
      <trkpt lat="48.06669" lon="-3.47949">
        <ele>147.9</ele>
        <time>2025-02-26T11:43:57Z</time>
      </trkpt>
      <trkpt lat="48.06669" lon="-3.47949">
        <ele>147.9</ele>
        <time>2025-02-26T11:43:58Z</time>
      </trkpt>
      <trkpt lat="48.06669" lon="-3.47949">
        <ele>147.9</ele>
        <time>2025-02-26T11:43:59Z</time>
      </trkpt>
      <trkpt lat="48.06669" lon="-3.47949">
        <ele>147.9</ele>
        <time>2025-02-26T11:44:00Z</time>
      </trkpt>
      <trkpt lat="48.06669" lon="-3.47949">
        <ele>147.9</ele>
        <time>2025-02-26T11:44:01Z</time>
      </trkpt>
      <trkpt lat="48.06669" lon="-3.47949">
        <ele>147.9</ele>
        <time>2025-02-26T11:44:02Z</time>
      </trkpt>
      <trkpt lat="48.06669" lon="-3.47949">
        <ele>147.9</ele>
        <time>2025-02-26T11:44:03Z</time>
      </trkpt>
      <trkpt lat="48.06669" lon="-3.47949">
        <ele>147.9</ele>
        <time>2025-02-26T11:44:04Z</time>
      </trkpt>
      <trkpt lat="48.06669" lon="-3.47949">
        <ele>147.9</ele>
        <time>2025-02-26T11:44:05Z</time>
      </trkpt>
      <trkpt lat="48.06669" lon="-3.47949">
        <ele>147.9</ele>
        <time>2025-02-26T11:44:06Z</time>
      </trkpt>
      <trkpt lat="48.06669" lon="-3.47949">
        <ele>147.9</ele>
        <time>2025-02-26T11:44:07Z</time>
      </trkpt>
      <trkpt lat="48.06669" lon="-3.47949">
        <ele>147.9</ele>
        <time>2025-02-26T11:44:08Z</time>
      </trkpt>
      <trkpt lat="48.06669" lon="-3.47949">
        <ele>147.9</ele>
        <time>2025-02-26T11:44:09Z</time>
      </trkpt>
      <trkpt lat="48.06669" lon="-3.47949">
        <ele>147.9</ele>
        <time>2025-02-26T11:44:10Z</time>
      </trkpt>
      <trkpt lat="48.06669" lon="-3.47949">
        <ele>147.9</ele>
        <time>2025-02-26T11:44:11Z</time>
      </trkpt>
      <trkpt lat="48.06669" lon="-3.47949">
        <ele>147.9</ele>
        <time>2025-02-26T11:44:12Z</time>
      </trkpt>
      <trkpt lat="48.06669" lon="-3.47949">
        <ele>147.9</ele>
        <time>2025-02-26T11:44:13Z</time>
      </trkpt>
      <trkpt lat="48.06669" lon="-3.47949">
        <ele>147.9</ele>
        <time>2025-02-26T11:44:14Z</time>
      </trkpt>
      <trkpt lat="48.06669" lon="-3.47949">
        <ele>147.9</ele>
        <time>2025-02-26T11:44:15Z</time>
      </trkpt>
      <trkpt lat="48.06669" lon="-3.47949">
        <ele>147.9</ele>
        <time>2025-02-26T11:44:16Z</time>
      </trkpt>
      <trkpt lat="48.06669" lon="-3.47949">
        <ele>147.9</ele>
        <time>2025-02-26T11:44:17Z</time>
      </trkpt>
      <trkpt lat="48.06668" lon="-3.47949">
        <ele>148</ele>
        <time>2025-02-26T11:44:18Z</time>
      </trkpt>
      <trkpt lat="48.06668" lon="-3.47949">
        <ele>148</ele>
        <time>2025-02-26T11:44:19Z</time>
      </trkpt>
      <trkpt lat="48.06668" lon="-3.47949">
        <ele>148</ele>
        <time>2025-02-26T11:44:20Z</time>
      </trkpt>
      <trkpt lat="48.06668" lon="-3.47949">
        <ele>148</ele>
        <time>2025-02-26T11:44:21Z</time>
      </trkpt>
      <trkpt lat="48.06668" lon="-3.47949">
        <ele>148</ele>
        <time>2025-02-26T11:44:22Z</time>
      </trkpt>
      <trkpt lat="48.06668" lon="-3.47949">
        <ele>148</ele>
        <time>2025-02-26T11:44:23Z</time>
      </trkpt>
      <trkpt lat="48.06668" lon="-3.47949">
        <ele>148</ele>
        <time>2025-02-26T11:44:24Z</time>
      </trkpt>
      <trkpt lat="48.06668" lon="-3.47949">
        <ele>148</ele>
        <time>2025-02-26T11:44:25Z</time>
      </trkpt>
      <trkpt lat="48.06668" lon="-3.47949">
        <ele>148</ele>
        <time>2025-02-26T11:44:26Z</time>
      </trkpt>
      <trkpt lat="48.06668" lon="-3.47949">
        <ele>148</ele>
        <time>2025-02-26T11:44:27Z</time>
      </trkpt>
      <trkpt lat="48.06668" lon="-3.47949">
        <ele>148</ele>
        <time>2025-02-26T11:44:28Z</time>
      </trkpt>
      <trkpt lat="48.06668" lon="-3.47949">
        <ele>148</ele>
        <time>2025-02-26T11:44:29Z</time>
      </trkpt>
      <trkpt lat="48.06668" lon="-3.47949">
        <ele>148</ele>
        <time>2025-02-26T11:44:30Z</time>
      </trkpt>
      <trkpt lat="48.06668" lon="-3.47949">
        <ele>148</ele>
        <time>2025-02-26T11:44:31Z</time>
      </trkpt>
      <trkpt lat="48.06668" lon="-3.47949">
        <ele>148</ele>
        <time>2025-02-26T11:44:32Z</time>
      </trkpt>
      <trkpt lat="48.06668" lon="-3.47949">
        <ele>148</ele>
        <time>2025-02-26T11:44:33Z</time>
      </trkpt>
      <trkpt lat="48.06668" lon="-3.47949">
        <ele>148</ele>
        <time>2025-02-26T11:44:34Z</time>
      </trkpt>
      <trkpt lat="48.06668" lon="-3.47949">
        <ele>148</ele>
        <time>2025-02-26T11:44:35Z</time>
      </trkpt>
      <trkpt lat="48.06668" lon="-3.47949">
        <ele>148</ele>
        <time>2025-02-26T11:44:36Z</time>
      </trkpt>
      <trkpt lat="48.06668" lon="-3.47949">
        <ele>148</ele>
        <time>2025-02-26T11:44:37Z</time>
      </trkpt>
      <trkpt lat="48.06668" lon="-3.47949">
        <ele>148</ele>
        <time>2025-02-26T11:44:38Z</time>
      </trkpt>
      <trkpt lat="48.06668" lon="-3.47949">
        <ele>148</ele>
        <time>2025-02-26T11:44:39Z</time>
      </trkpt>
      <trkpt lat="48.06668" lon="-3.47949">
        <ele>148</ele>
        <time>2025-02-26T11:44:40Z</time>
      </trkpt>
      <trkpt lat="48.06668" lon="-3.47949">
        <ele>148</ele>
        <time>2025-02-26T11:44:41Z</time>
      </trkpt>
      <trkpt lat="48.06668" lon="-3.47949">
        <ele>148</ele>
        <time>2025-02-26T11:44:42Z</time>
      </trkpt>
      <trkpt lat="48.06668" lon="-3.47949">
        <ele>148</ele>
        <time>2025-02-26T11:44:43Z</time>
      </trkpt>
      <trkpt lat="48.06668" lon="-3.47949">
        <ele>148</ele>
        <time>2025-02-26T11:44:44Z</time>
      </trkpt>
      <trkpt lat="48.06668" lon="-3.47949">
        <ele>148</ele>
        <time>2025-02-26T11:44:45Z</time>
      </trkpt>
      <trkpt lat="48.06668" lon="-3.47949">
        <ele>148</ele>
        <time>2025-02-26T11:44:46Z</time>
      </trkpt>
      <trkpt lat="48.06668" lon="-3.47949">
        <ele>148</ele>
        <time>2025-02-26T11:44:47Z</time>
      </trkpt>
      <trkpt lat="48.06668" lon="-3.47949">
        <ele>148</ele>
        <time>2025-02-26T11:44:48Z</time>
      </trkpt>
      <trkpt lat="48.06668" lon="-3.47949">
        <ele>148</ele>
        <time>2025-02-26T11:44:49Z</time>
      </trkpt>
      <trkpt lat="48.06668" lon="-3.47949">
        <ele>148</ele>
        <time>2025-02-26T11:44:50Z</time>
      </trkpt>
      <trkpt lat="48.06668" lon="-3.47949">
        <ele>148</ele>
        <time>2025-02-26T11:44:51Z</time>
      </trkpt>
      <trkpt lat="48.06669" lon="-3.47949">
        <ele>147.9</ele>
        <time>2025-02-26T11:44:52Z</time>
      </trkpt>
      <trkpt lat="48.0667" lon="-3.47949">
        <ele>147.9</ele>
        <time>2025-02-26T11:44:53Z</time>
      </trkpt>
      <trkpt lat="48.0667" lon="-3.47949">
        <ele>147.9</ele>
        <time>2025-02-26T11:44:54Z</time>
      </trkpt>
      <trkpt lat="48.0667" lon="-3.47949">
        <ele>147.9</ele>
        <time>2025-02-26T11:44:55Z</time>
      </trkpt>
      <trkpt lat="48.0667" lon="-3.47949">
        <ele>147.9</ele>
        <time>2025-02-26T11:44:56Z</time>
      </trkpt>
      <trkpt lat="48.0667" lon="-3.47949">
        <ele>147.9</ele>
        <time>2025-02-26T11:44:57Z</time>
      </trkpt>
      <trkpt lat="48.0667" lon="-3.47949">
        <ele>147.9</ele>
        <time>2025-02-26T11:44:58Z</time>
      </trkpt>
      <trkpt lat="48.0667" lon="-3.47949">
        <ele>147.9</ele>
        <time>2025-02-26T11:44:59Z</time>
      </trkpt>
      <trkpt lat="48.0667" lon="-3.47949">
        <ele>147.9</ele>
        <time>2025-02-26T11:45:00Z</time>
      </trkpt>
      <trkpt lat="48.0667" lon="-3.47949">
        <ele>147.9</ele>
        <time>2025-02-26T11:45:01Z</time>
      </trkpt>
      <trkpt lat="48.0667" lon="-3.47949">
        <ele>147.9</ele>
        <time>2025-02-26T11:45:02Z</time>
      </trkpt>
      <trkpt lat="48.0667" lon="-3.47949">
        <ele>147.9</ele>
        <time>2025-02-26T11:45:03Z</time>
      </trkpt>
      <trkpt lat="48.0667" lon="-3.47949">
        <ele>147.9</ele>
        <time>2025-02-26T11:45:04Z</time>
      </trkpt>
      <trkpt lat="48.0667" lon="-3.47949">
        <ele>147.9</ele>
        <time>2025-02-26T11:45:05Z</time>
      </trkpt>
      <trkpt lat="48.0667" lon="-3.47949">
        <ele>147.9</ele>
        <time>2025-02-26T11:45:06Z</time>
      </trkpt>
      <trkpt lat="48.0667" lon="-3.47949">
        <ele>147.9</ele>
        <time>2025-02-26T11:45:07Z</time>
      </trkpt>
      <trkpt lat="48.0667" lon="-3.47949">
        <ele>147.9</ele>
        <time>2025-02-26T11:45:08Z</time>
      </trkpt>
      <trkpt lat="48.0667" lon="-3.47949">
        <ele>147.9</ele>
        <time>2025-02-26T11:45:09Z</time>
      </trkpt>
      <trkpt lat="48.0667" lon="-3.47949">
        <ele>147.9</ele>
        <time>2025-02-26T11:45:10Z</time>
      </trkpt>
      <trkpt lat="48.0667" lon="-3.47949">
        <ele>147.9</ele>
        <time>2025-02-26T11:45:11Z</time>
      </trkpt>
      <trkpt lat="48.0667" lon="-3.47949">
        <ele>147.9</ele>
        <time>2025-02-26T11:45:12Z</time>
      </trkpt>
      <trkpt lat="48.0667" lon="-3.47949">
        <ele>147.9</ele>
        <time>2025-02-26T11:45:13Z</time>
      </trkpt>
      <trkpt lat="48.0667" lon="-3.47949">
        <ele>147.9</ele>
        <time>2025-02-26T11:45:14Z</time>
      </trkpt>
      <trkpt lat="48.0667" lon="-3.47949">
        <ele>147.9</ele>
        <time>2025-02-26T11:45:15Z</time>
      </trkpt>
      <trkpt lat="48.0667" lon="-3.47949">
        <ele>147.9</ele>
        <time>2025-02-26T11:45:16Z</time>
      </trkpt>
      <trkpt lat="48.0667" lon="-3.47949">
        <ele>147.9</ele>
        <time>2025-02-26T11:45:17Z</time>
      </trkpt>
      <trkpt lat="48.0667" lon="-3.47949">
        <ele>147.9</ele>
        <time>2025-02-26T11:45:18Z</time>
      </trkpt>
      <trkpt lat="48.0667" lon="-3.47949">
        <ele>147.9</ele>
        <time>2025-02-26T11:45:19Z</time>
      </trkpt>
      <trkpt lat="48.0667" lon="-3.47949">
        <ele>147.9</ele>
        <time>2025-02-26T11:45:20Z</time>
      </trkpt>
      <trkpt lat="48.0667" lon="-3.47949">
        <ele>147.9</ele>
        <time>2025-02-26T11:45:21Z</time>
      </trkpt>
      <trkpt lat="48.0667" lon="-3.47949">
        <ele>147.9</ele>
        <time>2025-02-26T11:45:22Z</time>
      </trkpt>
      <trkpt lat="48.0667" lon="-3.47949">
        <ele>147.9</ele>
        <time>2025-02-26T11:45:23Z</time>
      </trkpt>
      <trkpt lat="48.0667" lon="-3.47949">
        <ele>147.9</ele>
        <time>2025-02-26T11:45:24Z</time>
      </trkpt>
      <trkpt lat="48.0667" lon="-3.47949">
        <ele>147.9</ele>
        <time>2025-02-26T11:45:25Z</time>
      </trkpt>
      <trkpt lat="48.0667" lon="-3.47949">
        <ele>147.9</ele>
        <time>2025-02-26T11:45:26Z</time>
      </trkpt>
      <trkpt lat="48.06669" lon="-3.47949">
        <ele>147.9</ele>
        <time>2025-02-26T11:45:27Z</time>
      </trkpt>
      <trkpt lat="48.06669" lon="-3.47949">
        <ele>147.9</ele>
        <time>2025-02-26T11:45:28Z</time>
      </trkpt>
      <trkpt lat="48.06669" lon="-3.47949">
        <ele>147.9</ele>
        <time>2025-02-26T11:45:29Z</time>
      </trkpt>
      <trkpt lat="48.06669" lon="-3.47949">
        <ele>147.9</ele>
        <time>2025-02-26T11:45:30Z</time>
      </trkpt>
      <trkpt lat="48.06669" lon="-3.47949">
        <ele>147.9</ele>
        <time>2025-02-26T11:45:31Z</time>
      </trkpt>
      <trkpt lat="48.06669" lon="-3.47949">
        <ele>147.9</ele>
        <time>2025-02-26T11:45:32Z</time>
      </trkpt>
      <trkpt lat="48.06669" lon="-3.47949">
        <ele>147.9</ele>
        <time>2025-02-26T11:45:33Z</time>
      </trkpt>
      <trkpt lat="48.06669" lon="-3.47949">
        <ele>147.9</ele>
        <time>2025-02-26T11:45:34Z</time>
      </trkpt>
      <trkpt lat="48.06669" lon="-3.47949">
        <ele>147.9</ele>
        <time>2025-02-26T11:45:35Z</time>
      </trkpt>
      <trkpt lat="48.06669" lon="-3.47949">
        <ele>147.9</ele>
        <time>2025-02-26T11:45:36Z</time>
      </trkpt>
      <trkpt lat="48.06669" lon="-3.47949">
        <ele>147.9</ele>
        <time>2025-02-26T11:45:37Z</time>
      </trkpt>
      <trkpt lat="48.06669" lon="-3.47949">
        <ele>147.9</ele>
        <time>2025-02-26T11:45:38Z</time>
      </trkpt>
      <trkpt lat="48.06669" lon="-3.47949">
        <ele>147.9</ele>
        <time>2025-02-26T11:45:39Z</time>
      </trkpt>
      <trkpt lat="48.06669" lon="-3.47949">
        <ele>147.9</ele>
        <time>2025-02-26T11:45:40Z</time>
      </trkpt>
      <trkpt lat="48.06669" lon="-3.47949">
        <ele>147.9</ele>
        <time>2025-02-26T11:45:41Z</time>
      </trkpt>
      <trkpt lat="48.06669" lon="-3.47949">
        <ele>147.9</ele>
        <time>2025-02-26T11:45:42Z</time>
      </trkpt>
      <trkpt lat="48.06669" lon="-3.47949">
        <ele>147.9</ele>
        <time>2025-02-26T11:45:43Z</time>
      </trkpt>
      <trkpt lat="48.06669" lon="-3.47949">
        <ele>147.9</ele>
        <time>2025-02-26T11:45:44Z</time>
      </trkpt>
      <trkpt lat="48.06669" lon="-3.47949">
        <ele>147.9</ele>
        <time>2025-02-26T11:45:45Z</time>
      </trkpt>
      <trkpt lat="48.06669" lon="-3.47949">
        <ele>147.9</ele>
        <time>2025-02-26T11:45:46Z</time>
      </trkpt>
      <trkpt lat="48.06669" lon="-3.47949">
        <ele>147.9</ele>
        <time>2025-02-26T11:45:47Z</time>
      </trkpt>
      <trkpt lat="48.06669" lon="-3.47949">
        <ele>147.9</ele>
        <time>2025-02-26T11:45:48Z</time>
      </trkpt>
      <trkpt lat="48.06669" lon="-3.47949">
        <ele>147.9</ele>
        <time>2025-02-26T11:45:49Z</time>
      </trkpt>
      <trkpt lat="48.06669" lon="-3.47949">
        <ele>147.9</ele>
        <time>2025-02-26T11:45:50Z</time>
      </trkpt>
      <trkpt lat="48.06669" lon="-3.47949">
        <ele>147.9</ele>
        <time>2025-02-26T11:45:51Z</time>
      </trkpt>
      <trkpt lat="48.06669" lon="-3.47949">
        <ele>147.9</ele>
        <time>2025-02-26T11:45:52Z</time>
      </trkpt>
      <trkpt lat="48.06669" lon="-3.47949">
        <ele>147.9</ele>
        <time>2025-02-26T11:45:53Z</time>
      </trkpt>
      <trkpt lat="48.06669" lon="-3.47949">
        <ele>147.9</ele>
        <time>2025-02-26T11:45:54Z</time>
      </trkpt>
      <trkpt lat="48.06669" lon="-3.4795">
        <ele>147.9</ele>
        <time>2025-02-26T11:45:55Z</time>
      </trkpt>
      <trkpt lat="48.06669" lon="-3.4795">
        <ele>147.9</ele>
        <time>2025-02-26T11:45:56Z</time>
      </trkpt>
      <trkpt lat="48.06669" lon="-3.4795">
        <ele>147.9</ele>
        <time>2025-02-26T11:45:57Z</time>
      </trkpt>
      <trkpt lat="48.06669" lon="-3.4795">
        <ele>147.9</ele>
        <time>2025-02-26T11:45:58Z</time>
      </trkpt>
      <trkpt lat="48.06669" lon="-3.4795">
        <ele>147.9</ele>
        <time>2025-02-26T11:45:59Z</time>
      </trkpt>
      <trkpt lat="48.06669" lon="-3.4795">
        <ele>147.9</ele>
        <time>2025-02-26T11:46:00Z</time>
      </trkpt>
      <trkpt lat="48.06669" lon="-3.4795">
        <ele>147.9</ele>
        <time>2025-02-26T11:46:01Z</time>
      </trkpt>
      <trkpt lat="48.06669" lon="-3.4795">
        <ele>147.9</ele>
        <time>2025-02-26T11:46:02Z</time>
      </trkpt>
      <trkpt lat="48.06669" lon="-3.4795">
        <ele>147.9</ele>
        <time>2025-02-26T11:46:03Z</time>
      </trkpt>
      <trkpt lat="48.06669" lon="-3.4795">
        <ele>147.9</ele>
        <time>2025-02-26T11:46:04Z</time>
      </trkpt>
      <trkpt lat="48.06669" lon="-3.4795">
        <ele>147.9</ele>
        <time>2025-02-26T11:46:05Z</time>
      </trkpt>
      <trkpt lat="48.06669" lon="-3.4795">
        <ele>147.9</ele>
        <time>2025-02-26T11:46:06Z</time>
      </trkpt>
      <trkpt lat="48.06669" lon="-3.4795">
        <ele>147.9</ele>
        <time>2025-02-26T11:46:07Z</time>
      </trkpt>
      <trkpt lat="48.06669" lon="-3.4795">
        <ele>147.9</ele>
        <time>2025-02-26T11:46:08Z</time>
      </trkpt>
      <trkpt lat="48.06669" lon="-3.4795">
        <ele>147.9</ele>
        <time>2025-02-26T11:46:09Z</time>
      </trkpt>
      <trkpt lat="48.06669" lon="-3.4795">
        <ele>147.9</ele>
        <time>2025-02-26T11:46:10Z</time>
      </trkpt>
      <trkpt lat="48.06669" lon="-3.4795">
        <ele>147.9</ele>
        <time>2025-02-26T11:46:11Z</time>
      </trkpt>
      <trkpt lat="48.06669" lon="-3.4795">
        <ele>147.9</ele>
        <time>2025-02-26T11:46:12Z</time>
      </trkpt>
      <trkpt lat="48.06669" lon="-3.4795">
        <ele>147.9</ele>
        <time>2025-02-26T11:46:13Z</time>
      </trkpt>
      <trkpt lat="48.06669" lon="-3.4795">
        <ele>147.9</ele>
        <time>2025-02-26T11:46:14Z</time>
      </trkpt>
      <trkpt lat="48.0667" lon="-3.4795">
        <ele>147.9</ele>
        <time>2025-02-26T11:46:15Z</time>
      </trkpt>
      <trkpt lat="48.0667" lon="-3.4795">
        <ele>147.9</ele>
        <time>2025-02-26T11:46:16Z</time>
      </trkpt>
      <trkpt lat="48.0667" lon="-3.47951">
        <ele>147.9</ele>
        <time>2025-02-26T11:46:17Z</time>
      </trkpt>
      <trkpt lat="48.0667" lon="-3.47951">
        <ele>147.9</ele>
        <time>2025-02-26T11:46:18Z</time>
      </trkpt>
      <trkpt lat="48.0667" lon="-3.47951">
        <ele>147.9</ele>
        <time>2025-02-26T11:46:19Z</time>
      </trkpt>
      <trkpt lat="48.0667" lon="-3.47951">
        <ele>147.9</ele>
        <time>2025-02-26T11:46:20Z</time>
      </trkpt>
      <trkpt lat="48.0667" lon="-3.4795">
        <ele>147.9</ele>
        <time>2025-02-26T11:46:21Z</time>
      </trkpt>
      <trkpt lat="48.0667" lon="-3.47951">
        <ele>147.9</ele>
        <time>2025-02-26T11:46:22Z</time>
      </trkpt>
      <trkpt lat="48.0667" lon="-3.47951">
        <ele>147.9</ele>
        <time>2025-02-26T11:46:23Z</time>
      </trkpt>
      <trkpt lat="48.0667" lon="-3.47951">
        <ele>147.9</ele>
        <time>2025-02-26T11:46:24Z</time>
      </trkpt>
      <trkpt lat="48.0667" lon="-3.47951">
        <ele>147.9</ele>
        <time>2025-02-26T11:46:25Z</time>
      </trkpt>
      <trkpt lat="48.0667" lon="-3.47951">
        <ele>147.9</ele>
        <time>2025-02-26T11:46:26Z</time>
      </trkpt>
      <trkpt lat="48.0667" lon="-3.47951">
        <ele>147.9</ele>
        <time>2025-02-26T11:46:27Z</time>
      </trkpt>
      <trkpt lat="48.0667" lon="-3.47951">
        <ele>147.9</ele>
        <time>2025-02-26T11:46:28Z</time>
      </trkpt>
      <trkpt lat="48.0667" lon="-3.47951">
        <ele>147.9</ele>
        <time>2025-02-26T11:46:29Z</time>
      </trkpt>
      <trkpt lat="48.0667" lon="-3.47951">
        <ele>147.9</ele>
        <time>2025-02-26T11:46:30Z</time>
      </trkpt>
      <trkpt lat="48.0667" lon="-3.47951">
        <ele>147.9</ele>
        <time>2025-02-26T11:46:31Z</time>
      </trkpt>
      <trkpt lat="48.0667" lon="-3.47951">
        <ele>147.9</ele>
        <time>2025-02-26T11:46:32Z</time>
      </trkpt>
      <trkpt lat="48.0667" lon="-3.47951">
        <ele>147.9</ele>
        <time>2025-02-26T11:46:33Z</time>
      </trkpt>
      <trkpt lat="48.0667" lon="-3.47951">
        <ele>147.9</ele>
        <time>2025-02-26T11:46:34Z</time>
      </trkpt>
      <trkpt lat="48.0667" lon="-3.47951">
        <ele>147.9</ele>
        <time>2025-02-26T11:46:35Z</time>
      </trkpt>
      <trkpt lat="48.0667" lon="-3.47951">
        <ele>147.9</ele>
        <time>2025-02-26T11:46:36Z</time>
      </trkpt>
      <trkpt lat="48.0667" lon="-3.47951">
        <ele>147.9</ele>
        <time>2025-02-26T11:46:37Z</time>
      </trkpt>
      <trkpt lat="48.0667" lon="-3.47951">
        <ele>147.9</ele>
        <time>2025-02-26T11:46:38Z</time>
      </trkpt>
      <trkpt lat="48.0667" lon="-3.47951">
        <ele>147.9</ele>
        <time>2025-02-26T11:46:39Z</time>
      </trkpt>
      <trkpt lat="48.0667" lon="-3.47951">
        <ele>147.9</ele>
        <time>2025-02-26T11:46:40Z</time>
      </trkpt>
      <trkpt lat="48.0667" lon="-3.47951">
        <ele>147.9</ele>
        <time>2025-02-26T11:46:41Z</time>
      </trkpt>
      <trkpt lat="48.0667" lon="-3.47951">
        <ele>147.9</ele>
        <time>2025-02-26T11:46:42Z</time>
      </trkpt>
      <trkpt lat="48.0667" lon="-3.47951">
        <ele>147.9</ele>
        <time>2025-02-26T11:46:43Z</time>
      </trkpt>
      <trkpt lat="48.0667" lon="-3.47951">
        <ele>147.9</ele>
        <time>2025-02-26T11:46:44Z</time>
      </trkpt>
      <trkpt lat="48.0667" lon="-3.47951">
        <ele>147.9</ele>
        <time>2025-02-26T11:46:45Z</time>
      </trkpt>
      <trkpt lat="48.0667" lon="-3.47951">
        <ele>147.9</ele>
        <time>2025-02-26T11:46:46Z</time>
      </trkpt>
      <trkpt lat="48.0667" lon="-3.47951">
        <ele>147.9</ele>
        <time>2025-02-26T11:46:47Z</time>
      </trkpt>
      <trkpt lat="48.0667" lon="-3.47951">
        <ele>147.9</ele>
        <time>2025-02-26T11:46:48Z</time>
      </trkpt>
      <trkpt lat="48.0667" lon="-3.47951">
        <ele>147.9</ele>
        <time>2025-02-26T11:46:49Z</time>
      </trkpt>
      <trkpt lat="48.0667" lon="-3.47951">
        <ele>147.9</ele>
        <time>2025-02-26T11:46:50Z</time>
      </trkpt>
      <trkpt lat="48.0667" lon="-3.47951">
        <ele>147.9</ele>
        <time>2025-02-26T11:46:51Z</time>
      </trkpt>
      <trkpt lat="48.0667" lon="-3.47951">
        <ele>147.9</ele>
        <time>2025-02-26T11:46:52Z</time>
      </trkpt>
      <trkpt lat="48.0667" lon="-3.47951">
        <ele>147.9</ele>
        <time>2025-02-26T11:46:53Z</time>
      </trkpt>
      <trkpt lat="48.0667" lon="-3.47951">
        <ele>147.9</ele>
        <time>2025-02-26T11:46:54Z</time>
      </trkpt>
      <trkpt lat="48.0667" lon="-3.47951">
        <ele>147.9</ele>
        <time>2025-02-26T11:46:55Z</time>
      </trkpt>
      <trkpt lat="48.0667" lon="-3.47951">
        <ele>147.9</ele>
        <time>2025-02-26T11:46:56Z</time>
      </trkpt>
      <trkpt lat="48.0667" lon="-3.47952">
        <ele>147.9</ele>
        <time>2025-02-26T11:46:57Z</time>
      </trkpt>
      <trkpt lat="48.0667" lon="-3.47952">
        <ele>147.9</ele>
        <time>2025-02-26T11:46:58Z</time>
      </trkpt>
      <trkpt lat="48.0667" lon="-3.47952">
        <ele>147.9</ele>
        <time>2025-02-26T11:46:59Z</time>
      </trkpt>
      <trkpt lat="48.0667" lon="-3.47952">
        <ele>147.9</ele>
        <time>2025-02-26T11:47:00Z</time>
      </trkpt>
      <trkpt lat="48.0667" lon="-3.47952">
        <ele>147.9</ele>
        <time>2025-02-26T11:47:01Z</time>
      </trkpt>
      <trkpt lat="48.0667" lon="-3.47952">
        <ele>147.9</ele>
        <time>2025-02-26T11:47:02Z</time>
      </trkpt>
      <trkpt lat="48.0667" lon="-3.47952">
        <ele>147.9</ele>
        <time>2025-02-26T11:47:03Z</time>
      </trkpt>
      <trkpt lat="48.0667" lon="-3.47952">
        <ele>147.9</ele>
        <time>2025-02-26T11:47:04Z</time>
      </trkpt>
      <trkpt lat="48.0667" lon="-3.47952">
        <ele>147.9</ele>
        <time>2025-02-26T11:47:05Z</time>
      </trkpt>
      <trkpt lat="48.0667" lon="-3.47952">
        <ele>147.9</ele>
        <time>2025-02-26T11:47:06Z</time>
      </trkpt>
      <trkpt lat="48.0667" lon="-3.47952">
        <ele>147.9</ele>
        <time>2025-02-26T11:47:07Z</time>
      </trkpt>
      <trkpt lat="48.0667" lon="-3.47952">
        <ele>147.9</ele>
        <time>2025-02-26T11:47:08Z</time>
      </trkpt>
      <trkpt lat="48.0667" lon="-3.47952">
        <ele>147.9</ele>
        <time>2025-02-26T11:47:09Z</time>
      </trkpt>
      <trkpt lat="48.0667" lon="-3.47952">
        <ele>147.9</ele>
        <time>2025-02-26T11:47:10Z</time>
      </trkpt>
      <trkpt lat="48.0667" lon="-3.47952">
        <ele>147.9</ele>
        <time>2025-02-26T11:47:11Z</time>
      </trkpt>
      <trkpt lat="48.0667" lon="-3.47952">
        <ele>147.9</ele>
        <time>2025-02-26T11:47:12Z</time>
      </trkpt>
      <trkpt lat="48.0667" lon="-3.47952">
        <ele>147.9</ele>
        <time>2025-02-26T11:47:13Z</time>
      </trkpt>
      <trkpt lat="48.0667" lon="-3.47952">
        <ele>147.9</ele>
        <time>2025-02-26T11:47:14Z</time>
      </trkpt>
      <trkpt lat="48.0667" lon="-3.47952">
        <ele>147.9</ele>
        <time>2025-02-26T11:47:15Z</time>
      </trkpt>
      <trkpt lat="48.0667" lon="-3.47952">
        <ele>147.9</ele>
        <time>2025-02-26T11:47:16Z</time>
      </trkpt>
      <trkpt lat="48.0667" lon="-3.47952">
        <ele>147.9</ele>
        <time>2025-02-26T11:47:17Z</time>
      </trkpt>
      <trkpt lat="48.0667" lon="-3.47952">
        <ele>147.9</ele>
        <time>2025-02-26T11:47:18Z</time>
      </trkpt>
      <trkpt lat="48.0667" lon="-3.47952">
        <ele>147.9</ele>
        <time>2025-02-26T11:47:19Z</time>
      </trkpt>
      <trkpt lat="48.0667" lon="-3.47952">
        <ele>147.9</ele>
        <time>2025-02-26T11:47:20Z</time>
      </trkpt>
      <trkpt lat="48.0667" lon="-3.47952">
        <ele>147.9</ele>
        <time>2025-02-26T11:47:21Z</time>
      </trkpt>
      <trkpt lat="48.0667" lon="-3.47952">
        <ele>147.9</ele>
        <time>2025-02-26T11:47:22Z</time>
      </trkpt>
      <trkpt lat="48.0667" lon="-3.47952">
        <ele>147.9</ele>
        <time>2025-02-26T11:47:23Z</time>
      </trkpt>
      <trkpt lat="48.0667" lon="-3.47952">
        <ele>147.9</ele>
        <time>2025-02-26T11:47:24Z</time>
      </trkpt>
      <trkpt lat="48.0667" lon="-3.47952">
        <ele>147.9</ele>
        <time>2025-02-26T11:47:25Z</time>
      </trkpt>
      <trkpt lat="48.0667" lon="-3.47952">
        <ele>147.9</ele>
        <time>2025-02-26T11:47:26Z</time>
      </trkpt>
      <trkpt lat="48.0667" lon="-3.47952">
        <ele>147.9</ele>
        <time>2025-02-26T11:47:27Z</time>
      </trkpt>
      <trkpt lat="48.0667" lon="-3.47952">
        <ele>147.9</ele>
        <time>2025-02-26T11:47:28Z</time>
      </trkpt>
      <trkpt lat="48.0667" lon="-3.47952">
        <ele>147.9</ele>
        <time>2025-02-26T11:47:29Z</time>
      </trkpt>
      <trkpt lat="48.06671" lon="-3.47952">
        <ele>147.9</ele>
        <time>2025-02-26T11:47:30Z</time>
      </trkpt>
      <trkpt lat="48.06671" lon="-3.47952">
        <ele>147.9</ele>
        <time>2025-02-26T11:47:31Z</time>
      </trkpt>
      <trkpt lat="48.06671" lon="-3.47952">
        <ele>147.9</ele>
        <time>2025-02-26T11:47:32Z</time>
      </trkpt>
      <trkpt lat="48.06671" lon="-3.47952">
        <ele>147.9</ele>
        <time>2025-02-26T11:47:33Z</time>
      </trkpt>
      <trkpt lat="48.06671" lon="-3.47952">
        <ele>147.9</ele>
        <time>2025-02-26T11:47:34Z</time>
      </trkpt>
      <trkpt lat="48.06671" lon="-3.47952">
        <ele>147.9</ele>
        <time>2025-02-26T11:47:35Z</time>
      </trkpt>
      <trkpt lat="48.06671" lon="-3.47952">
        <ele>147.9</ele>
        <time>2025-02-26T11:47:36Z</time>
      </trkpt>
      <trkpt lat="48.06671" lon="-3.47952">
        <ele>147.9</ele>
        <time>2025-02-26T11:47:37Z</time>
      </trkpt>
      <trkpt lat="48.06671" lon="-3.47952">
        <ele>147.9</ele>
        <time>2025-02-26T11:47:38Z</time>
      </trkpt>
      <trkpt lat="48.06671" lon="-3.47952">
        <ele>147.9</ele>
        <time>2025-02-26T11:47:39Z</time>
      </trkpt>
      <trkpt lat="48.06671" lon="-3.47952">
        <ele>147.9</ele>
        <time>2025-02-26T11:47:40Z</time>
      </trkpt>
      <trkpt lat="48.06671" lon="-3.47952">
        <ele>147.9</ele>
        <time>2025-02-26T11:47:41Z</time>
      </trkpt>
      <trkpt lat="48.06671" lon="-3.47952">
        <ele>147.9</ele>
        <time>2025-02-26T11:47:42Z</time>
      </trkpt>
      <trkpt lat="48.06671" lon="-3.47952">
        <ele>147.9</ele>
        <time>2025-02-26T11:47:43Z</time>
      </trkpt>
      <trkpt lat="48.06671" lon="-3.47952">
        <ele>147.9</ele>
        <time>2025-02-26T11:47:44Z</time>
      </trkpt>
      <trkpt lat="48.06671" lon="-3.47952">
        <ele>147.9</ele>
        <time>2025-02-26T11:47:45Z</time>
      </trkpt>
      <trkpt lat="48.06671" lon="-3.47952">
        <ele>147.9</ele>
        <time>2025-02-26T11:47:46Z</time>
      </trkpt>
      <trkpt lat="48.06671" lon="-3.47952">
        <ele>147.9</ele>
        <time>2025-02-26T11:47:47Z</time>
      </trkpt>
      <trkpt lat="48.06671" lon="-3.47952">
        <ele>147.9</ele>
        <time>2025-02-26T11:47:48Z</time>
      </trkpt>
      <trkpt lat="48.06671" lon="-3.47952">
        <ele>147.9</ele>
        <time>2025-02-26T11:47:49Z</time>
      </trkpt>
      <trkpt lat="48.06671" lon="-3.47953">
        <ele>147.9</ele>
        <time>2025-02-26T11:47:50Z</time>
      </trkpt>
      <trkpt lat="48.06671" lon="-3.47953">
        <ele>147.9</ele>
        <time>2025-02-26T11:47:51Z</time>
      </trkpt>
      <trkpt lat="48.06671" lon="-3.47953">
        <ele>147.9</ele>
        <time>2025-02-26T11:47:52Z</time>
      </trkpt>
      <trkpt lat="48.06671" lon="-3.47953">
        <ele>147.9</ele>
        <time>2025-02-26T11:47:53Z</time>
      </trkpt>
      <trkpt lat="48.06671" lon="-3.47953">
        <ele>147.9</ele>
        <time>2025-02-26T11:47:54Z</time>
      </trkpt>
      <trkpt lat="48.06671" lon="-3.47953">
        <ele>147.9</ele>
        <time>2025-02-26T11:47:55Z</time>
      </trkpt>
      <trkpt lat="48.06671" lon="-3.47953">
        <ele>147.9</ele>
        <time>2025-02-26T11:47:56Z</time>
      </trkpt>
      <trkpt lat="48.06671" lon="-3.47953">
        <ele>147.9</ele>
        <time>2025-02-26T11:47:57Z</time>
      </trkpt>
      <trkpt lat="48.06671" lon="-3.47953">
        <ele>147.9</ele>
        <time>2025-02-26T11:47:58Z</time>
      </trkpt>
      <trkpt lat="48.06671" lon="-3.47953">
        <ele>147.9</ele>
        <time>2025-02-26T11:47:59Z</time>
      </trkpt>
      <trkpt lat="48.06671" lon="-3.47953">
        <ele>147.9</ele>
        <time>2025-02-26T11:48:00Z</time>
      </trkpt>
      <trkpt lat="48.06671" lon="-3.47953">
        <ele>147.9</ele>
        <time>2025-02-26T11:48:01Z</time>
      </trkpt>
      <trkpt lat="48.06671" lon="-3.47953">
        <ele>147.9</ele>
        <time>2025-02-26T11:48:02Z</time>
      </trkpt>
      <trkpt lat="48.06671" lon="-3.47953">
        <ele>147.9</ele>
        <time>2025-02-26T11:48:03Z</time>
      </trkpt>
      <trkpt lat="48.06671" lon="-3.47953">
        <ele>147.9</ele>
        <time>2025-02-26T11:48:04Z</time>
      </trkpt>
      <trkpt lat="48.0667" lon="-3.47952">
        <ele>147.9</ele>
        <time>2025-02-26T11:48:05Z</time>
      </trkpt>
      <trkpt lat="48.06669" lon="-3.47952">
        <ele>147.9</ele>
        <time>2025-02-26T11:48:06Z</time>
      </trkpt>
      <trkpt lat="48.06669" lon="-3.47953">
        <ele>147.9</ele>
        <time>2025-02-26T11:48:07Z</time>
      </trkpt>
      <trkpt lat="48.06669" lon="-3.47953">
        <ele>147.9</ele>
        <time>2025-02-26T11:48:08Z</time>
      </trkpt>
      <trkpt lat="48.06669" lon="-3.47951">
        <ele>147.9</ele>
        <time>2025-02-26T11:48:09Z</time>
      </trkpt>
      <trkpt lat="48.06669" lon="-3.4795">
        <ele>147.9</ele>
        <time>2025-02-26T11:48:10Z</time>
      </trkpt>
      <trkpt lat="48.06669" lon="-3.4795">
        <ele>147.9</ele>
        <time>2025-02-26T11:48:11Z</time>
      </trkpt>
      <trkpt lat="48.06669" lon="-3.4795">
        <ele>147.9</ele>
        <time>2025-02-26T11:48:12Z</time>
      </trkpt>
      <trkpt lat="48.06669" lon="-3.4795">
        <ele>147.9</ele>
        <time>2025-02-26T11:48:13Z</time>
      </trkpt>
      <trkpt lat="48.06669" lon="-3.4795">
        <ele>147.9</ele>
        <time>2025-02-26T11:48:14Z</time>
      </trkpt>
      <trkpt lat="48.06669" lon="-3.4795">
        <ele>147.9</ele>
        <time>2025-02-26T11:48:15Z</time>
      </trkpt>
      <trkpt lat="48.06669" lon="-3.4795">
        <ele>147.9</ele>
        <time>2025-02-26T11:48:16Z</time>
      </trkpt>
      <trkpt lat="48.06669" lon="-3.4795">
        <ele>147.9</ele>
        <time>2025-02-26T11:48:17Z</time>
      </trkpt>
      <trkpt lat="48.06669" lon="-3.4795">
        <ele>147.9</ele>
        <time>2025-02-26T11:48:18Z</time>
      </trkpt>
      <trkpt lat="48.06669" lon="-3.4795">
        <ele>147.9</ele>
        <time>2025-02-26T11:48:19Z</time>
      </trkpt>
      <trkpt lat="48.06669" lon="-3.4795">
        <ele>147.9</ele>
        <time>2025-02-26T11:48:20Z</time>
      </trkpt>
      <trkpt lat="48.06669" lon="-3.4795">
        <ele>147.9</ele>
        <time>2025-02-26T11:48:21Z</time>
      </trkpt>
      <trkpt lat="48.06669" lon="-3.4795">
        <ele>147.9</ele>
        <time>2025-02-26T11:48:22Z</time>
      </trkpt>
      <trkpt lat="48.06669" lon="-3.4795">
        <ele>147.9</ele>
        <time>2025-02-26T11:48:23Z</time>
      </trkpt>
      <trkpt lat="48.06669" lon="-3.4795">
        <ele>147.9</ele>
        <time>2025-02-26T11:48:24Z</time>
      </trkpt>
      <trkpt lat="48.06669" lon="-3.4795">
        <ele>147.9</ele>
        <time>2025-02-26T11:48:25Z</time>
      </trkpt>
      <trkpt lat="48.06669" lon="-3.4795">
        <ele>147.9</ele>
        <time>2025-02-26T11:48:26Z</time>
      </trkpt>
      <trkpt lat="48.06669" lon="-3.4795">
        <ele>147.9</ele>
        <time>2025-02-26T11:48:27Z</time>
      </trkpt>
      <trkpt lat="48.06669" lon="-3.4795">
        <ele>147.9</ele>
        <time>2025-02-26T11:48:28Z</time>
      </trkpt>
      <trkpt lat="48.06669" lon="-3.4795">
        <ele>147.9</ele>
        <time>2025-02-26T11:48:29Z</time>
      </trkpt>
      <trkpt lat="48.06669" lon="-3.4795">
        <ele>147.9</ele>
        <time>2025-02-26T11:48:30Z</time>
      </trkpt>
      <trkpt lat="48.06669" lon="-3.4795">
        <ele>147.9</ele>
        <time>2025-02-26T11:48:31Z</time>
      </trkpt>
      <trkpt lat="48.06669" lon="-3.4795">
        <ele>147.9</ele>
        <time>2025-02-26T11:48:32Z</time>
      </trkpt>
      <trkpt lat="48.06669" lon="-3.4795">
        <ele>147.9</ele>
        <time>2025-02-26T11:48:33Z</time>
      </trkpt>
      <trkpt lat="48.06669" lon="-3.4795">
        <ele>147.9</ele>
        <time>2025-02-26T11:48:34Z</time>
      </trkpt>
      <trkpt lat="48.06669" lon="-3.4795">
        <ele>147.9</ele>
        <time>2025-02-26T11:48:35Z</time>
      </trkpt>
      <trkpt lat="48.06669" lon="-3.4795">
        <ele>147.9</ele>
        <time>2025-02-26T11:48:36Z</time>
      </trkpt>
      <trkpt lat="48.06669" lon="-3.4795">
        <ele>147.9</ele>
        <time>2025-02-26T11:48:37Z</time>
      </trkpt>
      <trkpt lat="48.06669" lon="-3.4795">
        <ele>147.9</ele>
        <time>2025-02-26T11:48:38Z</time>
      </trkpt>
      <trkpt lat="48.06669" lon="-3.4795">
        <ele>147.9</ele>
        <time>2025-02-26T11:48:39Z</time>
      </trkpt>
      <trkpt lat="48.06669" lon="-3.47949">
        <ele>147.9</ele>
        <time>2025-02-26T11:48:40Z</time>
      </trkpt>
      <trkpt lat="48.06669" lon="-3.47949">
        <ele>147.9</ele>
        <time>2025-02-26T11:48:41Z</time>
      </trkpt>
      <trkpt lat="48.06669" lon="-3.47949">
        <ele>147.9</ele>
        <time>2025-02-26T11:48:42Z</time>
      </trkpt>
      <trkpt lat="48.06669" lon="-3.47949">
        <ele>147.9</ele>
        <time>2025-02-26T11:48:43Z</time>
      </trkpt>
      <trkpt lat="48.06669" lon="-3.47949">
        <ele>147.9</ele>
        <time>2025-02-26T11:48:44Z</time>
      </trkpt>
      <trkpt lat="48.06669" lon="-3.47949">
        <ele>147.9</ele>
        <time>2025-02-26T11:48:45Z</time>
      </trkpt>
      <trkpt lat="48.06669" lon="-3.47949">
        <ele>147.9</ele>
        <time>2025-02-26T11:48:46Z</time>
      </trkpt>
      <trkpt lat="48.06669" lon="-3.47949">
        <ele>147.9</ele>
        <time>2025-02-26T11:48:47Z</time>
      </trkpt>
      <trkpt lat="48.06669" lon="-3.47949">
        <ele>147.9</ele>
        <time>2025-02-26T11:48:48Z</time>
      </trkpt>
      <trkpt lat="48.06669" lon="-3.47949">
        <ele>147.9</ele>
        <time>2025-02-26T11:48:49Z</time>
      </trkpt>
      <trkpt lat="48.06669" lon="-3.47949">
        <ele>147.9</ele>
        <time>2025-02-26T11:48:50Z</time>
      </trkpt>
      <trkpt lat="48.06669" lon="-3.47949">
        <ele>147.9</ele>
        <time>2025-02-26T11:48:51Z</time>
      </trkpt>
      <trkpt lat="48.06669" lon="-3.47949">
        <ele>147.9</ele>
        <time>2025-02-26T11:48:52Z</time>
      </trkpt>
      <trkpt lat="48.06669" lon="-3.47949">
        <ele>147.9</ele>
        <time>2025-02-26T11:48:53Z</time>
      </trkpt>
      <trkpt lat="48.06669" lon="-3.47949">
        <ele>147.9</ele>
        <time>2025-02-26T11:48:54Z</time>
      </trkpt>
      <trkpt lat="48.06669" lon="-3.47949">
        <ele>147.9</ele>
        <time>2025-02-26T11:48:55Z</time>
      </trkpt>
      <trkpt lat="48.06669" lon="-3.47949">
        <ele>147.9</ele>
        <time>2025-02-26T11:48:56Z</time>
      </trkpt>
      <trkpt lat="48.06669" lon="-3.47949">
        <ele>147.9</ele>
        <time>2025-02-26T11:48:57Z</time>
      </trkpt>
      <trkpt lat="48.06669" lon="-3.47949">
        <ele>147.9</ele>
        <time>2025-02-26T11:48:58Z</time>
      </trkpt>
      <trkpt lat="48.06669" lon="-3.47949">
        <ele>147.9</ele>
        <time>2025-02-26T11:48:59Z</time>
      </trkpt>
      <trkpt lat="48.06669" lon="-3.47949">
        <ele>147.9</ele>
        <time>2025-02-26T11:49:00Z</time>
      </trkpt>
      <trkpt lat="48.06669" lon="-3.47949">
        <ele>147.9</ele>
        <time>2025-02-26T11:49:01Z</time>
      </trkpt>
      <trkpt lat="48.06669" lon="-3.47949">
        <ele>147.9</ele>
        <time>2025-02-26T11:49:02Z</time>
      </trkpt>
      <trkpt lat="48.06669" lon="-3.4795">
        <ele>147.9</ele>
        <time>2025-02-26T11:49:03Z</time>
      </trkpt>
      <trkpt lat="48.06669" lon="-3.4795">
        <ele>147.9</ele>
        <time>2025-02-26T11:49:04Z</time>
      </trkpt>
      <trkpt lat="48.06669" lon="-3.4795">
        <ele>147.9</ele>
        <time>2025-02-26T11:49:05Z</time>
      </trkpt>
      <trkpt lat="48.06669" lon="-3.4795">
        <ele>147.9</ele>
        <time>2025-02-26T11:49:06Z</time>
      </trkpt>
      <trkpt lat="48.06669" lon="-3.4795">
        <ele>147.9</ele>
        <time>2025-02-26T11:49:07Z</time>
      </trkpt>
      <trkpt lat="48.06669" lon="-3.4795">
        <ele>147.9</ele>
        <time>2025-02-26T11:49:08Z</time>
      </trkpt>
      <trkpt lat="48.06669" lon="-3.4795">
        <ele>147.9</ele>
        <time>2025-02-26T11:49:09Z</time>
      </trkpt>
      <trkpt lat="48.06669" lon="-3.4795">
        <ele>147.9</ele>
        <time>2025-02-26T11:49:10Z</time>
      </trkpt>
      <trkpt lat="48.06669" lon="-3.4795">
        <ele>147.9</ele>
        <time>2025-02-26T11:49:11Z</time>
      </trkpt>
      <trkpt lat="48.06669" lon="-3.4795">
        <ele>147.9</ele>
        <time>2025-02-26T11:49:12Z</time>
      </trkpt>
      <trkpt lat="48.06669" lon="-3.4795">
        <ele>147.9</ele>
        <time>2025-02-26T11:49:13Z</time>
      </trkpt>
      <trkpt lat="48.06669" lon="-3.4795">
        <ele>147.9</ele>
        <time>2025-02-26T11:49:14Z</time>
      </trkpt>
      <trkpt lat="48.06669" lon="-3.4795">
        <ele>147.9</ele>
        <time>2025-02-26T11:49:15Z</time>
      </trkpt>
      <trkpt lat="48.06669" lon="-3.4795">
        <ele>147.9</ele>
        <time>2025-02-26T11:49:16Z</time>
      </trkpt>
      <trkpt lat="48.06669" lon="-3.4795">
        <ele>147.9</ele>
        <time>2025-02-26T11:49:17Z</time>
      </trkpt>
      <trkpt lat="48.06669" lon="-3.4795">
        <ele>147.9</ele>
        <time>2025-02-26T11:49:18Z</time>
      </trkpt>
      <trkpt lat="48.06669" lon="-3.4795">
        <ele>147.9</ele>
        <time>2025-02-26T11:49:19Z</time>
      </trkpt>
      <trkpt lat="48.06669" lon="-3.4795">
        <ele>147.9</ele>
        <time>2025-02-26T11:49:20Z</time>
      </trkpt>
      <trkpt lat="48.06669" lon="-3.4795">
        <ele>147.9</ele>
        <time>2025-02-26T11:49:21Z</time>
      </trkpt>
      <trkpt lat="48.06669" lon="-3.47951">
        <ele>147.9</ele>
        <time>2025-02-26T11:49:22Z</time>
      </trkpt>
      <trkpt lat="48.06669" lon="-3.47951">
        <ele>147.9</ele>
        <time>2025-02-26T11:49:23Z</time>
      </trkpt>
      <trkpt lat="48.06669" lon="-3.47951">
        <ele>147.9</ele>
        <time>2025-02-26T11:49:24Z</time>
      </trkpt>
      <trkpt lat="48.06669" lon="-3.47951">
        <ele>147.9</ele>
        <time>2025-02-26T11:49:25Z</time>
      </trkpt>
      <trkpt lat="48.06669" lon="-3.47951">
        <ele>147.9</ele>
        <time>2025-02-26T11:49:26Z</time>
      </trkpt>
      <trkpt lat="48.06669" lon="-3.47951">
        <ele>147.9</ele>
        <time>2025-02-26T11:49:27Z</time>
      </trkpt>
      <trkpt lat="48.06669" lon="-3.47951">
        <ele>147.9</ele>
        <time>2025-02-26T11:49:28Z</time>
      </trkpt>
      <trkpt lat="48.06669" lon="-3.47951">
        <ele>147.9</ele>
        <time>2025-02-26T11:49:29Z</time>
      </trkpt>
      <trkpt lat="48.06669" lon="-3.47951">
        <ele>147.9</ele>
        <time>2025-02-26T11:49:30Z</time>
      </trkpt>
      <trkpt lat="48.06669" lon="-3.47951">
        <ele>147.9</ele>
        <time>2025-02-26T11:49:31Z</time>
      </trkpt>
      <trkpt lat="48.06669" lon="-3.47951">
        <ele>147.9</ele>
        <time>2025-02-26T11:49:32Z</time>
      </trkpt>
      <trkpt lat="48.06669" lon="-3.47951">
        <ele>147.9</ele>
        <time>2025-02-26T11:49:33Z</time>
      </trkpt>
      <trkpt lat="48.06669" lon="-3.47951">
        <ele>147.9</ele>
        <time>2025-02-26T11:49:34Z</time>
      </trkpt>
      <trkpt lat="48.06669" lon="-3.47951">
        <ele>147.9</ele>
        <time>2025-02-26T11:49:35Z</time>
      </trkpt>
      <trkpt lat="48.06669" lon="-3.47951">
        <ele>147.9</ele>
        <time>2025-02-26T11:49:36Z</time>
      </trkpt>
      <trkpt lat="48.06669" lon="-3.47951">
        <ele>147.9</ele>
        <time>2025-02-26T11:49:37Z</time>
      </trkpt>
      <trkpt lat="48.06669" lon="-3.47951">
        <ele>147.9</ele>
        <time>2025-02-26T11:49:38Z</time>
      </trkpt>
      <trkpt lat="48.06669" lon="-3.47951">
        <ele>147.9</ele>
        <time>2025-02-26T11:49:39Z</time>
      </trkpt>
      <trkpt lat="48.06669" lon="-3.47951">
        <ele>147.9</ele>
        <time>2025-02-26T11:49:40Z</time>
      </trkpt>
      <trkpt lat="48.06669" lon="-3.47951">
        <ele>147.9</ele>
        <time>2025-02-26T11:49:41Z</time>
      </trkpt>
      <trkpt lat="48.06669" lon="-3.47951">
        <ele>147.9</ele>
        <time>2025-02-26T11:49:42Z</time>
      </trkpt>
      <trkpt lat="48.06669" lon="-3.47951">
        <ele>147.9</ele>
        <time>2025-02-26T11:49:43Z</time>
      </trkpt>
      <trkpt lat="48.06669" lon="-3.47951">
        <ele>147.9</ele>
        <time>2025-02-26T11:49:44Z</time>
      </trkpt>
      <trkpt lat="48.06669" lon="-3.47951">
        <ele>147.9</ele>
        <time>2025-02-26T11:49:45Z</time>
      </trkpt>
      <trkpt lat="48.06669" lon="-3.47951">
        <ele>147.9</ele>
        <time>2025-02-26T11:49:46Z</time>
      </trkpt>
      <trkpt lat="48.06669" lon="-3.47951">
        <ele>147.9</ele>
        <time>2025-02-26T11:49:47Z</time>
      </trkpt>
      <trkpt lat="48.06669" lon="-3.47951">
        <ele>147.9</ele>
        <time>2025-02-26T11:49:48Z</time>
      </trkpt>
      <trkpt lat="48.06669" lon="-3.47951">
        <ele>147.9</ele>
        <time>2025-02-26T11:49:49Z</time>
      </trkpt>
      <trkpt lat="48.06669" lon="-3.47951">
        <ele>147.9</ele>
        <time>2025-02-26T11:49:50Z</time>
      </trkpt>
      <trkpt lat="48.06669" lon="-3.47951">
        <ele>147.9</ele>
        <time>2025-02-26T11:49:51Z</time>
      </trkpt>
      <trkpt lat="48.06669" lon="-3.47951">
        <ele>147.9</ele>
        <time>2025-02-26T11:49:52Z</time>
      </trkpt>
      <trkpt lat="48.06669" lon="-3.47951">
        <ele>147.9</ele>
        <time>2025-02-26T11:49:53Z</time>
      </trkpt>
      <trkpt lat="48.06669" lon="-3.47951">
        <ele>147.9</ele>
        <time>2025-02-26T11:49:54Z</time>
      </trkpt>
      <trkpt lat="48.06669" lon="-3.47951">
        <ele>147.9</ele>
        <time>2025-02-26T11:49:55Z</time>
      </trkpt>
      <trkpt lat="48.06669" lon="-3.47951">
        <ele>147.9</ele>
        <time>2025-02-26T11:49:56Z</time>
      </trkpt>
      <trkpt lat="48.0667" lon="-3.47951">
        <ele>147.9</ele>
        <time>2025-02-26T11:49:57Z</time>
      </trkpt>
      <trkpt lat="48.0667" lon="-3.47951">
        <ele>147.9</ele>
        <time>2025-02-26T11:49:58Z</time>
      </trkpt>
      <trkpt lat="48.0667" lon="-3.47951">
        <ele>147.9</ele>
        <time>2025-02-26T11:49:59Z</time>
      </trkpt>
      <trkpt lat="48.0667" lon="-3.47951">
        <ele>147.9</ele>
        <time>2025-02-26T11:50:00Z</time>
      </trkpt>
      <trkpt lat="48.0667" lon="-3.47951">
        <ele>147.9</ele>
        <time>2025-02-26T11:50:01Z</time>
      </trkpt>
      <trkpt lat="48.0667" lon="-3.47951">
        <ele>147.9</ele>
        <time>2025-02-26T11:50:02Z</time>
      </trkpt>
      <trkpt lat="48.0667" lon="-3.47952">
        <ele>147.9</ele>
        <time>2025-02-26T11:50:03Z</time>
      </trkpt>
      <trkpt lat="48.0667" lon="-3.47952">
        <ele>147.9</ele>
        <time>2025-02-26T11:50:04Z</time>
      </trkpt>
      <trkpt lat="48.0667" lon="-3.47952">
        <ele>147.9</ele>
        <time>2025-02-26T11:50:05Z</time>
      </trkpt>
      <trkpt lat="48.0667" lon="-3.47952">
        <ele>147.9</ele>
        <time>2025-02-26T11:50:06Z</time>
      </trkpt>
      <trkpt lat="48.0667" lon="-3.47952">
        <ele>147.9</ele>
        <time>2025-02-26T11:50:07Z</time>
      </trkpt>
      <trkpt lat="48.0667" lon="-3.47952">
        <ele>147.9</ele>
        <time>2025-02-26T11:50:08Z</time>
      </trkpt>
      <trkpt lat="48.0667" lon="-3.47952">
        <ele>147.9</ele>
        <time>2025-02-26T11:50:09Z</time>
      </trkpt>
      <trkpt lat="48.0667" lon="-3.47952">
        <ele>147.9</ele>
        <time>2025-02-26T11:50:10Z</time>
      </trkpt>
      <trkpt lat="48.0667" lon="-3.47952">
        <ele>147.9</ele>
        <time>2025-02-26T11:50:11Z</time>
      </trkpt>
      <trkpt lat="48.0667" lon="-3.47952">
        <ele>147.9</ele>
        <time>2025-02-26T11:50:12Z</time>
      </trkpt>
      <trkpt lat="48.0667" lon="-3.47952">
        <ele>147.9</ele>
        <time>2025-02-26T11:50:13Z</time>
      </trkpt>
      <trkpt lat="48.0667" lon="-3.47952">
        <ele>147.9</ele>
        <time>2025-02-26T11:50:14Z</time>
      </trkpt>
      <trkpt lat="48.0667" lon="-3.47952">
        <ele>147.9</ele>
        <time>2025-02-26T11:50:15Z</time>
      </trkpt>
      <trkpt lat="48.0667" lon="-3.47952">
        <ele>147.9</ele>
        <time>2025-02-26T11:50:16Z</time>
      </trkpt>
      <trkpt lat="48.0667" lon="-3.47952">
        <ele>147.9</ele>
        <time>2025-02-26T11:50:17Z</time>
      </trkpt>
      <trkpt lat="48.0667" lon="-3.47952">
        <ele>147.9</ele>
        <time>2025-02-26T11:50:18Z</time>
      </trkpt>
      <trkpt lat="48.0667" lon="-3.47952">
        <ele>147.9</ele>
        <time>2025-02-26T11:50:19Z</time>
      </trkpt>
      <trkpt lat="48.0667" lon="-3.47952">
        <ele>147.9</ele>
        <time>2025-02-26T11:50:20Z</time>
      </trkpt>
      <trkpt lat="48.0667" lon="-3.47952">
        <ele>147.9</ele>
        <time>2025-02-26T11:50:21Z</time>
      </trkpt>
      <trkpt lat="48.0667" lon="-3.47952">
        <ele>147.9</ele>
        <time>2025-02-26T11:50:22Z</time>
      </trkpt>
      <trkpt lat="48.0667" lon="-3.47952">
        <ele>147.9</ele>
        <time>2025-02-26T11:50:23Z</time>
      </trkpt>
      <trkpt lat="48.0667" lon="-3.47952">
        <ele>147.9</ele>
        <time>2025-02-26T11:50:24Z</time>
      </trkpt>
      <trkpt lat="48.0667" lon="-3.47952">
        <ele>147.9</ele>
        <time>2025-02-26T11:50:25Z</time>
      </trkpt>
      <trkpt lat="48.0667" lon="-3.47952">
        <ele>147.9</ele>
        <time>2025-02-26T11:50:26Z</time>
      </trkpt>
      <trkpt lat="48.0667" lon="-3.47952">
        <ele>147.9</ele>
        <time>2025-02-26T11:50:27Z</time>
      </trkpt>
      <trkpt lat="48.0667" lon="-3.47952">
        <ele>147.9</ele>
        <time>2025-02-26T11:50:28Z</time>
      </trkpt>
      <trkpt lat="48.0667" lon="-3.47952">
        <ele>147.9</ele>
        <time>2025-02-26T11:50:29Z</time>
      </trkpt>
      <trkpt lat="48.0667" lon="-3.47952">
        <ele>147.9</ele>
        <time>2025-02-26T11:50:30Z</time>
      </trkpt>
      <trkpt lat="48.0667" lon="-3.47952">
        <ele>147.9</ele>
        <time>2025-02-26T11:50:31Z</time>
      </trkpt>
      <trkpt lat="48.0667" lon="-3.47952">
        <ele>147.9</ele>
        <time>2025-02-26T11:50:32Z</time>
      </trkpt>
      <trkpt lat="48.0667" lon="-3.47952">
        <ele>147.9</ele>
        <time>2025-02-26T11:50:33Z</time>
      </trkpt>
      <trkpt lat="48.0667" lon="-3.47952">
        <ele>147.9</ele>
        <time>2025-02-26T11:50:34Z</time>
      </trkpt>
      <trkpt lat="48.0667" lon="-3.47952">
        <ele>147.9</ele>
        <time>2025-02-26T11:50:35Z</time>
      </trkpt>
      <trkpt lat="48.0667" lon="-3.47952">
        <ele>147.9</ele>
        <time>2025-02-26T11:50:36Z</time>
      </trkpt>
      <trkpt lat="48.0667" lon="-3.47952">
        <ele>147.9</ele>
        <time>2025-02-26T11:50:37Z</time>
      </trkpt>
      <trkpt lat="48.0667" lon="-3.47952">
        <ele>147.9</ele>
        <time>2025-02-26T11:50:38Z</time>
      </trkpt>
      <trkpt lat="48.0667" lon="-3.47952">
        <ele>147.9</ele>
        <time>2025-02-26T11:50:39Z</time>
      </trkpt>
      <trkpt lat="48.0667" lon="-3.47952">
        <ele>147.9</ele>
        <time>2025-02-26T11:50:40Z</time>
      </trkpt>
      <trkpt lat="48.0667" lon="-3.47952">
        <ele>147.9</ele>
        <time>2025-02-26T11:50:41Z</time>
      </trkpt>
      <trkpt lat="48.0667" lon="-3.47952">
        <ele>147.9</ele>
        <time>2025-02-26T11:50:42Z</time>
      </trkpt>
      <trkpt lat="48.0667" lon="-3.47952">
        <ele>147.9</ele>
        <time>2025-02-26T11:50:43Z</time>
      </trkpt>
      <trkpt lat="48.0667" lon="-3.47952">
        <ele>147.9</ele>
        <time>2025-02-26T11:50:44Z</time>
      </trkpt>
      <trkpt lat="48.0667" lon="-3.47952">
        <ele>147.9</ele>
        <time>2025-02-26T11:50:45Z</time>
      </trkpt>
      <trkpt lat="48.0667" lon="-3.47952">
        <ele>147.9</ele>
        <time>2025-02-26T11:50:46Z</time>
      </trkpt>
      <trkpt lat="48.0667" lon="-3.47952">
        <ele>147.9</ele>
        <time>2025-02-26T11:50:47Z</time>
      </trkpt>
      <trkpt lat="48.0667" lon="-3.47952">
        <ele>147.9</ele>
        <time>2025-02-26T11:50:48Z</time>
      </trkpt>
      <trkpt lat="48.0667" lon="-3.47952">
        <ele>147.9</ele>
        <time>2025-02-26T11:50:49Z</time>
      </trkpt>
      <trkpt lat="48.0667" lon="-3.47953">
        <ele>147.9</ele>
        <time>2025-02-26T11:50:50Z</time>
      </trkpt>
      <trkpt lat="48.0667" lon="-3.47953">
        <ele>147.9</ele>
        <time>2025-02-26T11:50:51Z</time>
      </trkpt>
      <trkpt lat="48.0667" lon="-3.47953">
        <ele>147.9</ele>
        <time>2025-02-26T11:50:52Z</time>
      </trkpt>
      <trkpt lat="48.0667" lon="-3.47953">
        <ele>147.9</ele>
        <time>2025-02-26T11:50:53Z</time>
      </trkpt>
      <trkpt lat="48.0667" lon="-3.47953">
        <ele>147.9</ele>
        <time>2025-02-26T11:50:54Z</time>
      </trkpt>
      <trkpt lat="48.0667" lon="-3.47953">
        <ele>147.9</ele>
        <time>2025-02-26T11:50:55Z</time>
      </trkpt>
      <trkpt lat="48.0667" lon="-3.47953">
        <ele>147.9</ele>
        <time>2025-02-26T11:50:56Z</time>
      </trkpt>
      <trkpt lat="48.0667" lon="-3.47953">
        <ele>147.9</ele>
        <time>2025-02-26T11:50:57Z</time>
      </trkpt>
      <trkpt lat="48.0667" lon="-3.47953">
        <ele>147.9</ele>
        <time>2025-02-26T11:50:58Z</time>
      </trkpt>
      <trkpt lat="48.0667" lon="-3.47953">
        <ele>147.9</ele>
        <time>2025-02-26T11:50:59Z</time>
      </trkpt>
      <trkpt lat="48.0667" lon="-3.47953">
        <ele>147.9</ele>
        <time>2025-02-26T11:51:00Z</time>
      </trkpt>
      <trkpt lat="48.0667" lon="-3.47953">
        <ele>147.9</ele>
        <time>2025-02-26T11:51:01Z</time>
      </trkpt>
      <trkpt lat="48.0667" lon="-3.47953">
        <ele>147.9</ele>
        <time>2025-02-26T11:51:02Z</time>
      </trkpt>
      <trkpt lat="48.0667" lon="-3.47953">
        <ele>147.9</ele>
        <time>2025-02-26T11:51:03Z</time>
      </trkpt>
      <trkpt lat="48.0667" lon="-3.47953">
        <ele>147.9</ele>
        <time>2025-02-26T11:51:04Z</time>
      </trkpt>
      <trkpt lat="48.0667" lon="-3.47953">
        <ele>147.9</ele>
        <time>2025-02-26T11:51:05Z</time>
      </trkpt>
      <trkpt lat="48.0667" lon="-3.47953">
        <ele>147.9</ele>
        <time>2025-02-26T11:51:06Z</time>
      </trkpt>
      <trkpt lat="48.0667" lon="-3.47953">
        <ele>147.9</ele>
        <time>2025-02-26T11:51:07Z</time>
      </trkpt>
      <trkpt lat="48.0667" lon="-3.47953">
        <ele>147.9</ele>
        <time>2025-02-26T11:51:08Z</time>
      </trkpt>
      <trkpt lat="48.0667" lon="-3.47953">
        <ele>147.9</ele>
        <time>2025-02-26T11:51:09Z</time>
      </trkpt>
      <trkpt lat="48.0667" lon="-3.47953">
        <ele>147.9</ele>
        <time>2025-02-26T11:51:10Z</time>
      </trkpt>
      <trkpt lat="48.0667" lon="-3.47953">
        <ele>147.9</ele>
        <time>2025-02-26T11:51:11Z</time>
      </trkpt>
      <trkpt lat="48.0667" lon="-3.47953">
        <ele>147.9</ele>
        <time>2025-02-26T11:51:12Z</time>
      </trkpt>
      <trkpt lat="48.0667" lon="-3.47953">
        <ele>147.9</ele>
        <time>2025-02-26T11:51:13Z</time>
      </trkpt>
      <trkpt lat="48.0667" lon="-3.47953">
        <ele>147.9</ele>
        <time>2025-02-26T11:51:14Z</time>
      </trkpt>
      <trkpt lat="48.0667" lon="-3.47953">
        <ele>147.9</ele>
        <time>2025-02-26T11:51:15Z</time>
      </trkpt>
      <trkpt lat="48.0667" lon="-3.47953">
        <ele>147.9</ele>
        <time>2025-02-26T11:51:16Z</time>
      </trkpt>
      <trkpt lat="48.0667" lon="-3.47953">
        <ele>147.9</ele>
        <time>2025-02-26T11:51:17Z</time>
      </trkpt>
      <trkpt lat="48.0667" lon="-3.47953">
        <ele>147.9</ele>
        <time>2025-02-26T11:51:18Z</time>
      </trkpt>
      <trkpt lat="48.0667" lon="-3.47953">
        <ele>147.9</ele>
        <time>2025-02-26T11:51:19Z</time>
      </trkpt>
      <trkpt lat="48.0667" lon="-3.47953">
        <ele>147.9</ele>
        <time>2025-02-26T11:51:20Z</time>
      </trkpt>
      <trkpt lat="48.0667" lon="-3.47953">
        <ele>147.9</ele>
        <time>2025-02-26T11:51:21Z</time>
      </trkpt>
      <trkpt lat="48.0667" lon="-3.47953">
        <ele>147.9</ele>
        <time>2025-02-26T11:51:22Z</time>
      </trkpt>
      <trkpt lat="48.0667" lon="-3.47953">
        <ele>147.9</ele>
        <time>2025-02-26T11:51:23Z</time>
      </trkpt>
      <trkpt lat="48.0667" lon="-3.47953">
        <ele>147.9</ele>
        <time>2025-02-26T11:51:24Z</time>
      </trkpt>
      <trkpt lat="48.0667" lon="-3.47953">
        <ele>147.9</ele>
        <time>2025-02-26T11:51:25Z</time>
      </trkpt>
      <trkpt lat="48.0667" lon="-3.47953">
        <ele>147.9</ele>
        <time>2025-02-26T11:51:26Z</time>
      </trkpt>
      <trkpt lat="48.0667" lon="-3.47953">
        <ele>147.9</ele>
        <time>2025-02-26T11:51:27Z</time>
      </trkpt>
      <trkpt lat="48.0667" lon="-3.47953">
        <ele>147.9</ele>
        <time>2025-02-26T11:51:28Z</time>
      </trkpt>
      <trkpt lat="48.0667" lon="-3.47953">
        <ele>147.9</ele>
        <time>2025-02-26T11:51:29Z</time>
      </trkpt>
      <trkpt lat="48.0667" lon="-3.47953">
        <ele>147.9</ele>
        <time>2025-02-26T11:51:30Z</time>
      </trkpt>
      <trkpt lat="48.0667" lon="-3.47953">
        <ele>147.9</ele>
        <time>2025-02-26T11:51:31Z</time>
      </trkpt>
      <trkpt lat="48.0667" lon="-3.47953">
        <ele>147.9</ele>
        <time>2025-02-26T11:51:32Z</time>
      </trkpt>
      <trkpt lat="48.0667" lon="-3.47953">
        <ele>147.9</ele>
        <time>2025-02-26T11:51:33Z</time>
      </trkpt>
      <trkpt lat="48.0667" lon="-3.47953">
        <ele>147.9</ele>
        <time>2025-02-26T11:51:34Z</time>
      </trkpt>
      <trkpt lat="48.0667" lon="-3.47953">
        <ele>147.9</ele>
        <time>2025-02-26T11:51:35Z</time>
      </trkpt>
      <trkpt lat="48.0667" lon="-3.47953">
        <ele>147.9</ele>
        <time>2025-02-26T11:51:36Z</time>
      </trkpt>
      <trkpt lat="48.0667" lon="-3.47953">
        <ele>147.9</ele>
        <time>2025-02-26T11:51:37Z</time>
      </trkpt>
      <trkpt lat="48.0667" lon="-3.47954">
        <ele>147.9</ele>
        <time>2025-02-26T11:51:38Z</time>
      </trkpt>
      <trkpt lat="48.0667" lon="-3.47954">
        <ele>147.9</ele>
        <time>2025-02-26T11:51:39Z</time>
      </trkpt>
      <trkpt lat="48.0667" lon="-3.47954">
        <ele>147.9</ele>
        <time>2025-02-26T11:51:40Z</time>
      </trkpt>
      <trkpt lat="48.0667" lon="-3.47954">
        <ele>147.9</ele>
        <time>2025-02-26T11:51:41Z</time>
      </trkpt>
      <trkpt lat="48.0667" lon="-3.47954">
        <ele>147.9</ele>
        <time>2025-02-26T11:51:42Z</time>
      </trkpt>
      <trkpt lat="48.0667" lon="-3.47954">
        <ele>147.9</ele>
        <time>2025-02-26T11:51:43Z</time>
      </trkpt>
      <trkpt lat="48.0667" lon="-3.47954">
        <ele>147.9</ele>
        <time>2025-02-26T11:51:44Z</time>
      </trkpt>
      <trkpt lat="48.0667" lon="-3.47954">
        <ele>147.9</ele>
        <time>2025-02-26T11:51:45Z</time>
      </trkpt>
      <trkpt lat="48.0667" lon="-3.47954">
        <ele>147.9</ele>
        <time>2025-02-26T11:51:46Z</time>
      </trkpt>
      <trkpt lat="48.0667" lon="-3.47954">
        <ele>147.9</ele>
        <time>2025-02-26T11:51:47Z</time>
      </trkpt>
      <trkpt lat="48.0667" lon="-3.47954">
        <ele>147.9</ele>
        <time>2025-02-26T11:51:48Z</time>
      </trkpt>
      <trkpt lat="48.0667" lon="-3.47954">
        <ele>147.9</ele>
        <time>2025-02-26T11:51:49Z</time>
      </trkpt>
      <trkpt lat="48.0667" lon="-3.47954">
        <ele>147.9</ele>
        <time>2025-02-26T11:51:50Z</time>
      </trkpt>
      <trkpt lat="48.0667" lon="-3.47954">
        <ele>147.9</ele>
        <time>2025-02-26T11:51:51Z</time>
      </trkpt>
      <trkpt lat="48.0667" lon="-3.47954">
        <ele>147.9</ele>
        <time>2025-02-26T11:51:52Z</time>
      </trkpt>
      <trkpt lat="48.0667" lon="-3.47954">
        <ele>147.9</ele>
        <time>2025-02-26T11:51:53Z</time>
      </trkpt>
      <trkpt lat="48.0667" lon="-3.47954">
        <ele>147.9</ele>
        <time>2025-02-26T11:51:54Z</time>
      </trkpt>
      <trkpt lat="48.0667" lon="-3.47954">
        <ele>147.9</ele>
        <time>2025-02-26T11:51:55Z</time>
      </trkpt>
      <trkpt lat="48.0667" lon="-3.47954">
        <ele>147.9</ele>
        <time>2025-02-26T11:51:56Z</time>
      </trkpt>
      <trkpt lat="48.0667" lon="-3.47954">
        <ele>147.9</ele>
        <time>2025-02-26T11:51:57Z</time>
      </trkpt>
      <trkpt lat="48.0667" lon="-3.47954">
        <ele>147.9</ele>
        <time>2025-02-26T11:51:58Z</time>
      </trkpt>
      <trkpt lat="48.0667" lon="-3.47954">
        <ele>147.9</ele>
        <time>2025-02-26T11:51:59Z</time>
      </trkpt>
      <trkpt lat="48.0667" lon="-3.47954">
        <ele>147.9</ele>
        <time>2025-02-26T11:52:00Z</time>
      </trkpt>
      <trkpt lat="48.0667" lon="-3.47954">
        <ele>147.9</ele>
        <time>2025-02-26T11:52:01Z</time>
      </trkpt>
      <trkpt lat="48.0667" lon="-3.47954">
        <ele>147.9</ele>
        <time>2025-02-26T11:52:02Z</time>
      </trkpt>
      <trkpt lat="48.0667" lon="-3.47954">
        <ele>147.9</ele>
        <time>2025-02-26T11:52:03Z</time>
      </trkpt>
      <trkpt lat="48.0667" lon="-3.47954">
        <ele>147.9</ele>
        <time>2025-02-26T11:52:04Z</time>
      </trkpt>
      <trkpt lat="48.0667" lon="-3.47954">
        <ele>147.9</ele>
        <time>2025-02-26T11:52:05Z</time>
      </trkpt>
      <trkpt lat="48.0667" lon="-3.47954">
        <ele>147.9</ele>
        <time>2025-02-26T11:52:06Z</time>
      </trkpt>
      <trkpt lat="48.0667" lon="-3.47954">
        <ele>147.9</ele>
        <time>2025-02-26T11:52:07Z</time>
      </trkpt>
      <trkpt lat="48.0667" lon="-3.47954">
        <ele>147.9</ele>
        <time>2025-02-26T11:52:08Z</time>
      </trkpt>
      <trkpt lat="48.0667" lon="-3.47954">
        <ele>147.9</ele>
        <time>2025-02-26T11:52:09Z</time>
      </trkpt>
      <trkpt lat="48.0667" lon="-3.47954">
        <ele>147.9</ele>
        <time>2025-02-26T11:52:10Z</time>
      </trkpt>
      <trkpt lat="48.06671" lon="-3.47954">
        <ele>147.9</ele>
        <time>2025-02-26T11:52:11Z</time>
      </trkpt>
      <trkpt lat="48.06671" lon="-3.47954">
        <ele>147.9</ele>
        <time>2025-02-26T11:52:12Z</time>
      </trkpt>
      <trkpt lat="48.06671" lon="-3.47954">
        <ele>147.9</ele>
        <time>2025-02-26T11:52:13Z</time>
      </trkpt>
      <trkpt lat="48.06671" lon="-3.47954">
        <ele>147.9</ele>
        <time>2025-02-26T11:52:14Z</time>
      </trkpt>
      <trkpt lat="48.06671" lon="-3.47954">
        <ele>147.9</ele>
        <time>2025-02-26T11:52:15Z</time>
      </trkpt>
      <trkpt lat="48.06671" lon="-3.47954">
        <ele>147.9</ele>
        <time>2025-02-26T11:52:16Z</time>
      </trkpt>
      <trkpt lat="48.06671" lon="-3.47954">
        <ele>147.9</ele>
        <time>2025-02-26T11:52:17Z</time>
      </trkpt>
      <trkpt lat="48.06671" lon="-3.47954">
        <ele>147.9</ele>
        <time>2025-02-26T11:52:18Z</time>
      </trkpt>
      <trkpt lat="48.06671" lon="-3.47954">
        <ele>147.9</ele>
        <time>2025-02-26T11:52:19Z</time>
      </trkpt>
      <trkpt lat="48.06671" lon="-3.47954">
        <ele>147.9</ele>
        <time>2025-02-26T11:52:20Z</time>
      </trkpt>
      <trkpt lat="48.06671" lon="-3.47954">
        <ele>147.9</ele>
        <time>2025-02-26T11:52:21Z</time>
      </trkpt>
      <trkpt lat="48.06671" lon="-3.47954">
        <ele>147.9</ele>
        <time>2025-02-26T11:52:22Z</time>
      </trkpt>
      <trkpt lat="48.06671" lon="-3.47954">
        <ele>147.9</ele>
        <time>2025-02-26T11:52:23Z</time>
      </trkpt>
      <trkpt lat="48.06671" lon="-3.47954">
        <ele>147.9</ele>
        <time>2025-02-26T11:52:24Z</time>
      </trkpt>
      <trkpt lat="48.06671" lon="-3.47954">
        <ele>147.9</ele>
        <time>2025-02-26T11:52:25Z</time>
      </trkpt>
      <trkpt lat="48.06671" lon="-3.47954">
        <ele>147.9</ele>
        <time>2025-02-26T11:52:26Z</time>
      </trkpt>
      <trkpt lat="48.06671" lon="-3.47954">
        <ele>147.9</ele>
        <time>2025-02-26T11:52:27Z</time>
      </trkpt>
      <trkpt lat="48.06671" lon="-3.47954">
        <ele>147.9</ele>
        <time>2025-02-26T11:52:28Z</time>
      </trkpt>
      <trkpt lat="48.06671" lon="-3.47954">
        <ele>147.9</ele>
        <time>2025-02-26T11:52:29Z</time>
      </trkpt>
      <trkpt lat="48.06671" lon="-3.47954">
        <ele>147.9</ele>
        <time>2025-02-26T11:52:30Z</time>
      </trkpt>
      <trkpt lat="48.06671" lon="-3.47954">
        <ele>147.9</ele>
        <time>2025-02-26T11:52:31Z</time>
      </trkpt>
      <trkpt lat="48.06671" lon="-3.47954">
        <ele>147.9</ele>
        <time>2025-02-26T11:52:32Z</time>
      </trkpt>
      <trkpt lat="48.06671" lon="-3.47954">
        <ele>147.9</ele>
        <time>2025-02-26T11:52:33Z</time>
      </trkpt>
      <trkpt lat="48.06671" lon="-3.47954">
        <ele>147.9</ele>
        <time>2025-02-26T11:52:34Z</time>
      </trkpt>
      <trkpt lat="48.06671" lon="-3.47954">
        <ele>147.9</ele>
        <time>2025-02-26T11:52:35Z</time>
      </trkpt>
      <trkpt lat="48.06671" lon="-3.47954">
        <ele>147.9</ele>
        <time>2025-02-26T11:52:36Z</time>
      </trkpt>
      <trkpt lat="48.06671" lon="-3.47954">
        <ele>147.9</ele>
        <time>2025-02-26T11:52:37Z</time>
      </trkpt>
      <trkpt lat="48.06671" lon="-3.47954">
        <ele>147.9</ele>
        <time>2025-02-26T11:52:38Z</time>
      </trkpt>
      <trkpt lat="48.06671" lon="-3.47954">
        <ele>147.9</ele>
        <time>2025-02-26T11:52:39Z</time>
      </trkpt>
      <trkpt lat="48.06671" lon="-3.47954">
        <ele>147.9</ele>
        <time>2025-02-26T11:52:40Z</time>
      </trkpt>
      <trkpt lat="48.06671" lon="-3.47954">
        <ele>147.9</ele>
        <time>2025-02-26T11:52:41Z</time>
      </trkpt>
      <trkpt lat="48.06671" lon="-3.47954">
        <ele>147.9</ele>
        <time>2025-02-26T11:52:42Z</time>
      </trkpt>
      <trkpt lat="48.06671" lon="-3.47954">
        <ele>147.9</ele>
        <time>2025-02-26T11:52:43Z</time>
      </trkpt>
      <trkpt lat="48.06671" lon="-3.47954">
        <ele>147.9</ele>
        <time>2025-02-26T11:52:44Z</time>
      </trkpt>
      <trkpt lat="48.06671" lon="-3.47954">
        <ele>147.9</ele>
        <time>2025-02-26T11:52:45Z</time>
      </trkpt>
      <trkpt lat="48.06671" lon="-3.47954">
        <ele>147.9</ele>
        <time>2025-02-26T11:52:46Z</time>
      </trkpt>
      <trkpt lat="48.06671" lon="-3.47954">
        <ele>147.9</ele>
        <time>2025-02-26T11:52:47Z</time>
      </trkpt>
      <trkpt lat="48.06671" lon="-3.47954">
        <ele>147.9</ele>
        <time>2025-02-26T11:52:48Z</time>
      </trkpt>
      <trkpt lat="48.06671" lon="-3.47954">
        <ele>147.9</ele>
        <time>2025-02-26T11:52:49Z</time>
      </trkpt>
      <trkpt lat="48.06671" lon="-3.47954">
        <ele>147.9</ele>
        <time>2025-02-26T11:52:50Z</time>
      </trkpt>
      <trkpt lat="48.06671" lon="-3.47954">
        <ele>147.9</ele>
        <time>2025-02-26T11:52:51Z</time>
      </trkpt>
      <trkpt lat="48.06671" lon="-3.47954">
        <ele>147.9</ele>
        <time>2025-02-26T11:52:52Z</time>
      </trkpt>
      <trkpt lat="48.06671" lon="-3.47954">
        <ele>147.9</ele>
        <time>2025-02-26T11:52:53Z</time>
      </trkpt>
      <trkpt lat="48.06671" lon="-3.47954">
        <ele>147.9</ele>
        <time>2025-02-26T11:52:54Z</time>
      </trkpt>
      <trkpt lat="48.06671" lon="-3.47954">
        <ele>147.9</ele>
        <time>2025-02-26T11:52:55Z</time>
      </trkpt>
      <trkpt lat="48.06671" lon="-3.47954">
        <ele>147.9</ele>
        <time>2025-02-26T11:52:56Z</time>
      </trkpt>
      <trkpt lat="48.06671" lon="-3.47954">
        <ele>147.9</ele>
        <time>2025-02-26T11:52:57Z</time>
      </trkpt>
      <trkpt lat="48.06671" lon="-3.47954">
        <ele>147.9</ele>
        <time>2025-02-26T11:52:58Z</time>
      </trkpt>
      <trkpt lat="48.06671" lon="-3.47954">
        <ele>147.9</ele>
        <time>2025-02-26T11:52:59Z</time>
      </trkpt>
      <trkpt lat="48.06671" lon="-3.47954">
        <ele>147.9</ele>
        <time>2025-02-26T11:53:00Z</time>
      </trkpt>
      <trkpt lat="48.06671" lon="-3.47954">
        <ele>147.9</ele>
        <time>2025-02-26T11:53:01Z</time>
      </trkpt>
      <trkpt lat="48.06671" lon="-3.47954">
        <ele>147.9</ele>
        <time>2025-02-26T11:53:02Z</time>
      </trkpt>
      <trkpt lat="48.06671" lon="-3.47954">
        <ele>147.9</ele>
        <time>2025-02-26T11:53:03Z</time>
      </trkpt>
      <trkpt lat="48.06671" lon="-3.47954">
        <ele>147.9</ele>
        <time>2025-02-26T11:53:04Z</time>
      </trkpt>
      <trkpt lat="48.06671" lon="-3.47954">
        <ele>147.9</ele>
        <time>2025-02-26T11:53:05Z</time>
      </trkpt>
      <trkpt lat="48.06671" lon="-3.47954">
        <ele>147.9</ele>
        <time>2025-02-26T11:53:06Z</time>
      </trkpt>
      <trkpt lat="48.06671" lon="-3.47954">
        <ele>147.9</ele>
        <time>2025-02-26T11:53:07Z</time>
      </trkpt>
      <trkpt lat="48.06671" lon="-3.47954">
        <ele>147.9</ele>
        <time>2025-02-26T11:53:08Z</time>
      </trkpt>
      <trkpt lat="48.06671" lon="-3.47954">
        <ele>147.9</ele>
        <time>2025-02-26T11:53:09Z</time>
      </trkpt>
      <trkpt lat="48.06671" lon="-3.47954">
        <ele>147.9</ele>
        <time>2025-02-26T11:53:10Z</time>
      </trkpt>
      <trkpt lat="48.06671" lon="-3.47954">
        <ele>147.9</ele>
        <time>2025-02-26T11:53:11Z</time>
      </trkpt>
      <trkpt lat="48.06671" lon="-3.47954">
        <ele>147.9</ele>
        <time>2025-02-26T11:53:12Z</time>
      </trkpt>
      <trkpt lat="48.06671" lon="-3.47954">
        <ele>147.9</ele>
        <time>2025-02-26T11:53:13Z</time>
      </trkpt>
      <trkpt lat="48.06671" lon="-3.47954">
        <ele>147.9</ele>
        <time>2025-02-26T11:53:14Z</time>
      </trkpt>
      <trkpt lat="48.06671" lon="-3.47954">
        <ele>147.9</ele>
        <time>2025-02-26T11:53:15Z</time>
      </trkpt>
      <trkpt lat="48.06671" lon="-3.47954">
        <ele>147.9</ele>
        <time>2025-02-26T11:53:16Z</time>
      </trkpt>
      <trkpt lat="48.06671" lon="-3.47954">
        <ele>147.9</ele>
        <time>2025-02-26T11:53:17Z</time>
      </trkpt>
      <trkpt lat="48.06671" lon="-3.47954">
        <ele>147.9</ele>
        <time>2025-02-26T11:53:18Z</time>
      </trkpt>
      <trkpt lat="48.06671" lon="-3.47954">
        <ele>147.9</ele>
        <time>2025-02-26T11:53:19Z</time>
      </trkpt>
      <trkpt lat="48.06671" lon="-3.47954">
        <ele>147.9</ele>
        <time>2025-02-26T11:53:20Z</time>
      </trkpt>
      <trkpt lat="48.06671" lon="-3.47954">
        <ele>147.9</ele>
        <time>2025-02-26T11:53:21Z</time>
      </trkpt>
      <trkpt lat="48.06671" lon="-3.47954">
        <ele>147.9</ele>
        <time>2025-02-26T11:53:22Z</time>
      </trkpt>
      <trkpt lat="48.06671" lon="-3.47954">
        <ele>147.9</ele>
        <time>2025-02-26T11:53:23Z</time>
      </trkpt>
      <trkpt lat="48.06671" lon="-3.47954">
        <ele>147.9</ele>
        <time>2025-02-26T11:53:24Z</time>
      </trkpt>
      <trkpt lat="48.06671" lon="-3.47954">
        <ele>147.9</ele>
        <time>2025-02-26T11:53:25Z</time>
      </trkpt>
      <trkpt lat="48.06671" lon="-3.47954">
        <ele>147.9</ele>
        <time>2025-02-26T11:53:26Z</time>
      </trkpt>
      <trkpt lat="48.06671" lon="-3.47954">
        <ele>147.9</ele>
        <time>2025-02-26T11:53:27Z</time>
      </trkpt>
      <trkpt lat="48.06671" lon="-3.47954">
        <ele>147.9</ele>
        <time>2025-02-26T11:53:28Z</time>
      </trkpt>
      <trkpt lat="48.06671" lon="-3.47954">
        <ele>147.9</ele>
        <time>2025-02-26T11:53:29Z</time>
      </trkpt>
      <trkpt lat="48.06671" lon="-3.47954">
        <ele>147.9</ele>
        <time>2025-02-26T11:53:30Z</time>
      </trkpt>
      <trkpt lat="48.06671" lon="-3.47954">
        <ele>147.9</ele>
        <time>2025-02-26T11:53:31Z</time>
      </trkpt>
      <trkpt lat="48.06671" lon="-3.47954">
        <ele>147.9</ele>
        <time>2025-02-26T11:53:32Z</time>
      </trkpt>
      <trkpt lat="48.06671" lon="-3.47954">
        <ele>147.9</ele>
        <time>2025-02-26T11:53:33Z</time>
      </trkpt>
      <trkpt lat="48.06671" lon="-3.47954">
        <ele>147.9</ele>
        <time>2025-02-26T11:53:34Z</time>
      </trkpt>
      <trkpt lat="48.06671" lon="-3.47954">
        <ele>147.9</ele>
        <time>2025-02-26T11:53:35Z</time>
      </trkpt>
      <trkpt lat="48.06671" lon="-3.47954">
        <ele>147.9</ele>
        <time>2025-02-26T11:53:36Z</time>
      </trkpt>
      <trkpt lat="48.06671" lon="-3.47954">
        <ele>147.9</ele>
        <time>2025-02-26T11:53:37Z</time>
      </trkpt>
      <trkpt lat="48.06671" lon="-3.47954">
        <ele>147.9</ele>
        <time>2025-02-26T11:53:38Z</time>
      </trkpt>
      <trkpt lat="48.06671" lon="-3.47954">
        <ele>147.9</ele>
        <time>2025-02-26T11:53:39Z</time>
      </trkpt>
      <trkpt lat="48.06671" lon="-3.47954">
        <ele>147.9</ele>
        <time>2025-02-26T11:53:40Z</time>
      </trkpt>
      <trkpt lat="48.06671" lon="-3.47954">
        <ele>147.9</ele>
        <time>2025-02-26T11:53:41Z</time>
      </trkpt>
      <trkpt lat="48.06671" lon="-3.47954">
        <ele>147.9</ele>
        <time>2025-02-26T11:53:42Z</time>
      </trkpt>
      <trkpt lat="48.06671" lon="-3.47954">
        <ele>147.9</ele>
        <time>2025-02-26T11:53:43Z</time>
      </trkpt>
      <trkpt lat="48.06671" lon="-3.47954">
        <ele>147.9</ele>
        <time>2025-02-26T11:53:44Z</time>
      </trkpt>
      <trkpt lat="48.06671" lon="-3.47954">
        <ele>147.9</ele>
        <time>2025-02-26T11:53:45Z</time>
      </trkpt>
      <trkpt lat="48.06671" lon="-3.47954">
        <ele>147.9</ele>
        <time>2025-02-26T11:53:46Z</time>
      </trkpt>
      <trkpt lat="48.06671" lon="-3.47954">
        <ele>147.9</ele>
        <time>2025-02-26T11:53:47Z</time>
      </trkpt>
      <trkpt lat="48.06671" lon="-3.47954">
        <ele>147.9</ele>
        <time>2025-02-26T11:53:48Z</time>
      </trkpt>
      <trkpt lat="48.06671" lon="-3.47954">
        <ele>147.9</ele>
        <time>2025-02-26T11:53:49Z</time>
      </trkpt>
      <trkpt lat="48.06671" lon="-3.47954">
        <ele>147.9</ele>
        <time>2025-02-26T11:53:50Z</time>
      </trkpt>
      <trkpt lat="48.06671" lon="-3.47954">
        <ele>147.9</ele>
        <time>2025-02-26T11:53:51Z</time>
      </trkpt>
      <trkpt lat="48.06671" lon="-3.47954">
        <ele>147.9</ele>
        <time>2025-02-26T11:53:52Z</time>
      </trkpt>
      <trkpt lat="48.06671" lon="-3.47954">
        <ele>147.9</ele>
        <time>2025-02-26T11:53:53Z</time>
      </trkpt>
      <trkpt lat="48.06671" lon="-3.47954">
        <ele>147.9</ele>
        <time>2025-02-26T11:53:54Z</time>
      </trkpt>
      <trkpt lat="48.06671" lon="-3.47954">
        <ele>147.9</ele>
        <time>2025-02-26T11:53:55Z</time>
      </trkpt>
      <trkpt lat="48.06671" lon="-3.47954">
        <ele>147.9</ele>
        <time>2025-02-26T11:53:56Z</time>
      </trkpt>
      <trkpt lat="48.06671" lon="-3.47954">
        <ele>147.9</ele>
        <time>2025-02-26T11:53:57Z</time>
      </trkpt>
      <trkpt lat="48.06671" lon="-3.47954">
        <ele>147.9</ele>
        <time>2025-02-26T11:53:58Z</time>
      </trkpt>
      <trkpt lat="48.06671" lon="-3.47954">
        <ele>147.9</ele>
        <time>2025-02-26T11:53:59Z</time>
      </trkpt>
      <trkpt lat="48.06671" lon="-3.47954">
        <ele>147.9</ele>
        <time>2025-02-26T11:54:00Z</time>
      </trkpt>
      <trkpt lat="48.06671" lon="-3.47954">
        <ele>147.9</ele>
        <time>2025-02-26T11:54:01Z</time>
      </trkpt>
      <trkpt lat="48.06671" lon="-3.47954">
        <ele>147.9</ele>
        <time>2025-02-26T11:54:02Z</time>
      </trkpt>
      <trkpt lat="48.06671" lon="-3.47954">
        <ele>147.9</ele>
        <time>2025-02-26T11:54:03Z</time>
      </trkpt>
      <trkpt lat="48.06671" lon="-3.47954">
        <ele>147.9</ele>
        <time>2025-02-26T11:54:04Z</time>
      </trkpt>
      <trkpt lat="48.06671" lon="-3.47954">
        <ele>147.9</ele>
        <time>2025-02-26T11:54:05Z</time>
      </trkpt>
      <trkpt lat="48.06671" lon="-3.47954">
        <ele>147.9</ele>
        <time>2025-02-26T11:54:06Z</time>
      </trkpt>
      <trkpt lat="48.06671" lon="-3.47954">
        <ele>147.9</ele>
        <time>2025-02-26T11:54:07Z</time>
      </trkpt>
      <trkpt lat="48.06671" lon="-3.47954">
        <ele>147.9</ele>
        <time>2025-02-26T11:54:08Z</time>
      </trkpt>
      <trkpt lat="48.06671" lon="-3.47954">
        <ele>147.9</ele>
        <time>2025-02-26T11:54:09Z</time>
      </trkpt>
      <trkpt lat="48.06671" lon="-3.47954">
        <ele>147.9</ele>
        <time>2025-02-26T11:54:10Z</time>
      </trkpt>
      <trkpt lat="48.06671" lon="-3.47954">
        <ele>147.9</ele>
        <time>2025-02-26T11:54:11Z</time>
      </trkpt>
      <trkpt lat="48.06671" lon="-3.47954">
        <ele>147.9</ele>
        <time>2025-02-26T11:54:12Z</time>
      </trkpt>
      <trkpt lat="48.06671" lon="-3.47954">
        <ele>147.9</ele>
        <time>2025-02-26T11:54:13Z</time>
      </trkpt>
      <trkpt lat="48.06671" lon="-3.47954">
        <ele>147.9</ele>
        <time>2025-02-26T11:54:14Z</time>
      </trkpt>
      <trkpt lat="48.06671" lon="-3.47954">
        <ele>147.9</ele>
        <time>2025-02-26T11:54:15Z</time>
      </trkpt>
      <trkpt lat="48.06671" lon="-3.47954">
        <ele>147.9</ele>
        <time>2025-02-26T11:54:16Z</time>
      </trkpt>
      <trkpt lat="48.06671" lon="-3.47954">
        <ele>147.9</ele>
        <time>2025-02-26T11:54:17Z</time>
      </trkpt>
      <trkpt lat="48.06671" lon="-3.47954">
        <ele>147.9</ele>
        <time>2025-02-26T11:54:18Z</time>
      </trkpt>
      <trkpt lat="48.06671" lon="-3.47954">
        <ele>147.9</ele>
        <time>2025-02-26T11:54:19Z</time>
      </trkpt>
      <trkpt lat="48.06671" lon="-3.47954">
        <ele>147.9</ele>
        <time>2025-02-26T11:54:20Z</time>
      </trkpt>
      <trkpt lat="48.06671" lon="-3.47954">
        <ele>147.9</ele>
        <time>2025-02-26T11:54:21Z</time>
      </trkpt>
      <trkpt lat="48.06671" lon="-3.47954">
        <ele>147.9</ele>
        <time>2025-02-26T11:54:22Z</time>
      </trkpt>
      <trkpt lat="48.06671" lon="-3.47954">
        <ele>147.9</ele>
        <time>2025-02-26T11:54:23Z</time>
      </trkpt>
      <trkpt lat="48.06671" lon="-3.47954">
        <ele>147.9</ele>
        <time>2025-02-26T11:54:24Z</time>
      </trkpt>
      <trkpt lat="48.06671" lon="-3.47954">
        <ele>147.9</ele>
        <time>2025-02-26T11:54:25Z</time>
      </trkpt>
      <trkpt lat="48.06671" lon="-3.47954">
        <ele>147.9</ele>
        <time>2025-02-26T11:54:26Z</time>
      </trkpt>
      <trkpt lat="48.06671" lon="-3.47954">
        <ele>147.9</ele>
        <time>2025-02-26T11:54:27Z</time>
      </trkpt>
      <trkpt lat="48.06671" lon="-3.47954">
        <ele>147.9</ele>
        <time>2025-02-26T11:54:28Z</time>
      </trkpt>
      <trkpt lat="48.06671" lon="-3.47954">
        <ele>147.9</ele>
        <time>2025-02-26T11:54:29Z</time>
      </trkpt>
      <trkpt lat="48.06671" lon="-3.47954">
        <ele>147.9</ele>
        <time>2025-02-26T11:54:30Z</time>
      </trkpt>
      <trkpt lat="48.06671" lon="-3.47954">
        <ele>147.9</ele>
        <time>2025-02-26T11:54:31Z</time>
      </trkpt>
      <trkpt lat="48.06671" lon="-3.47954">
        <ele>147.9</ele>
        <time>2025-02-26T11:54:32Z</time>
      </trkpt>
      <trkpt lat="48.06671" lon="-3.47954">
        <ele>147.9</ele>
        <time>2025-02-26T11:54:33Z</time>
      </trkpt>
      <trkpt lat="48.06671" lon="-3.47954">
        <ele>147.9</ele>
        <time>2025-02-26T11:54:34Z</time>
      </trkpt>
      <trkpt lat="48.06671" lon="-3.47954">
        <ele>147.9</ele>
        <time>2025-02-26T11:54:35Z</time>
      </trkpt>
      <trkpt lat="48.06671" lon="-3.47954">
        <ele>147.9</ele>
        <time>2025-02-26T11:54:36Z</time>
      </trkpt>
      <trkpt lat="48.06671" lon="-3.47954">
        <ele>147.9</ele>
        <time>2025-02-26T11:54:37Z</time>
      </trkpt>
      <trkpt lat="48.06671" lon="-3.47954">
        <ele>147.9</ele>
        <time>2025-02-26T11:54:38Z</time>
      </trkpt>
      <trkpt lat="48.06671" lon="-3.47955">
        <ele>147.9</ele>
        <time>2025-02-26T11:54:39Z</time>
      </trkpt>
      <trkpt lat="48.06671" lon="-3.47955">
        <ele>147.9</ele>
        <time>2025-02-26T11:54:40Z</time>
      </trkpt>
      <trkpt lat="48.06671" lon="-3.47955">
        <ele>147.9</ele>
        <time>2025-02-26T11:54:41Z</time>
      </trkpt>
      <trkpt lat="48.06671" lon="-3.47955">
        <ele>147.9</ele>
        <time>2025-02-26T11:54:42Z</time>
      </trkpt>
      <trkpt lat="48.06671" lon="-3.47955">
        <ele>147.9</ele>
        <time>2025-02-26T11:54:43Z</time>
      </trkpt>
      <trkpt lat="48.06671" lon="-3.47955">
        <ele>147.9</ele>
        <time>2025-02-26T11:54:44Z</time>
      </trkpt>
      <trkpt lat="48.06671" lon="-3.47955">
        <ele>147.9</ele>
        <time>2025-02-26T11:54:45Z</time>
      </trkpt>
      <trkpt lat="48.06671" lon="-3.47955">
        <ele>147.9</ele>
        <time>2025-02-26T11:54:46Z</time>
      </trkpt>
      <trkpt lat="48.06671" lon="-3.47955">
        <ele>147.9</ele>
        <time>2025-02-26T11:54:47Z</time>
      </trkpt>
      <trkpt lat="48.06671" lon="-3.47955">
        <ele>147.9</ele>
        <time>2025-02-26T11:54:48Z</time>
      </trkpt>
      <trkpt lat="48.06671" lon="-3.47955">
        <ele>147.9</ele>
        <time>2025-02-26T11:54:49Z</time>
      </trkpt>
      <trkpt lat="48.06671" lon="-3.47955">
        <ele>147.9</ele>
        <time>2025-02-26T11:54:50Z</time>
      </trkpt>
      <trkpt lat="48.06671" lon="-3.47955">
        <ele>147.9</ele>
        <time>2025-02-26T11:54:51Z</time>
      </trkpt>
      <trkpt lat="48.06671" lon="-3.47955">
        <ele>147.9</ele>
        <time>2025-02-26T11:54:52Z</time>
      </trkpt>
      <trkpt lat="48.06671" lon="-3.47955">
        <ele>147.9</ele>
        <time>2025-02-26T11:54:53Z</time>
      </trkpt>
      <trkpt lat="48.06671" lon="-3.47955">
        <ele>147.9</ele>
        <time>2025-02-26T11:54:54Z</time>
      </trkpt>
      <trkpt lat="48.06671" lon="-3.47955">
        <ele>147.9</ele>
        <time>2025-02-26T11:54:55Z</time>
      </trkpt>
      <trkpt lat="48.06671" lon="-3.47955">
        <ele>147.9</ele>
        <time>2025-02-26T11:54:56Z</time>
      </trkpt>
      <trkpt lat="48.06671" lon="-3.47955">
        <ele>147.9</ele>
        <time>2025-02-26T11:54:57Z</time>
      </trkpt>
      <trkpt lat="48.06671" lon="-3.47955">
        <ele>147.9</ele>
        <time>2025-02-26T11:54:58Z</time>
      </trkpt>
      <trkpt lat="48.06671" lon="-3.47955">
        <ele>147.9</ele>
        <time>2025-02-26T11:54:59Z</time>
      </trkpt>
      <trkpt lat="48.06671" lon="-3.47955">
        <ele>147.9</ele>
        <time>2025-02-26T11:55:00Z</time>
      </trkpt>
      <trkpt lat="48.06671" lon="-3.47955">
        <ele>147.9</ele>
        <time>2025-02-26T11:55:01Z</time>
      </trkpt>
      <trkpt lat="48.0667" lon="-3.47954">
        <ele>147.9</ele>
        <time>2025-02-26T11:55:02Z</time>
      </trkpt>
      <trkpt lat="48.0667" lon="-3.47954">
        <ele>147.9</ele>
        <time>2025-02-26T11:55:03Z</time>
      </trkpt>
      <trkpt lat="48.0667" lon="-3.47954">
        <ele>147.9</ele>
        <time>2025-02-26T11:55:04Z</time>
      </trkpt>
      <trkpt lat="48.0667" lon="-3.47954">
        <ele>147.9</ele>
        <time>2025-02-26T11:55:05Z</time>
      </trkpt>
      <trkpt lat="48.0667" lon="-3.47954">
        <ele>147.9</ele>
        <time>2025-02-26T11:55:06Z</time>
      </trkpt>
      <trkpt lat="48.0667" lon="-3.47954">
        <ele>147.9</ele>
        <time>2025-02-26T11:55:07Z</time>
      </trkpt>
      <trkpt lat="48.0667" lon="-3.47954">
        <ele>147.9</ele>
        <time>2025-02-26T11:55:08Z</time>
      </trkpt>
      <trkpt lat="48.0667" lon="-3.47954">
        <ele>147.9</ele>
        <time>2025-02-26T11:55:09Z</time>
      </trkpt>
      <trkpt lat="48.0667" lon="-3.47954">
        <ele>147.9</ele>
        <time>2025-02-26T11:55:10Z</time>
      </trkpt>
      <trkpt lat="48.0667" lon="-3.47954">
        <ele>147.9</ele>
        <time>2025-02-26T11:55:11Z</time>
      </trkpt>
      <trkpt lat="48.0667" lon="-3.47954">
        <ele>147.9</ele>
        <time>2025-02-26T11:55:12Z</time>
      </trkpt>
      <trkpt lat="48.0667" lon="-3.47954">
        <ele>147.9</ele>
        <time>2025-02-26T11:55:13Z</time>
      </trkpt>
      <trkpt lat="48.0667" lon="-3.47954">
        <ele>147.9</ele>
        <time>2025-02-26T11:55:14Z</time>
      </trkpt>
      <trkpt lat="48.0667" lon="-3.47954">
        <ele>147.9</ele>
        <time>2025-02-26T11:55:15Z</time>
      </trkpt>
      <trkpt lat="48.0667" lon="-3.47954">
        <ele>147.9</ele>
        <time>2025-02-26T11:55:16Z</time>
      </trkpt>
      <trkpt lat="48.0667" lon="-3.47954">
        <ele>147.9</ele>
        <time>2025-02-26T11:55:17Z</time>
      </trkpt>
      <trkpt lat="48.0667" lon="-3.47954">
        <ele>147.9</ele>
        <time>2025-02-26T11:55:18Z</time>
      </trkpt>
      <trkpt lat="48.0667" lon="-3.47954">
        <ele>147.9</ele>
        <time>2025-02-26T11:55:19Z</time>
      </trkpt>
      <trkpt lat="48.0667" lon="-3.47954">
        <ele>147.9</ele>
        <time>2025-02-26T11:55:20Z</time>
      </trkpt>
      <trkpt lat="48.0667" lon="-3.47954">
        <ele>147.9</ele>
        <time>2025-02-26T11:55:21Z</time>
      </trkpt>
      <trkpt lat="48.0667" lon="-3.47954">
        <ele>147.9</ele>
        <time>2025-02-26T11:55:22Z</time>
      </trkpt>
      <trkpt lat="48.0667" lon="-3.47954">
        <ele>147.9</ele>
        <time>2025-02-26T11:55:23Z</time>
      </trkpt>
      <trkpt lat="48.0667" lon="-3.47954">
        <ele>147.9</ele>
        <time>2025-02-26T11:55:24Z</time>
      </trkpt>
      <trkpt lat="48.0667" lon="-3.47954">
        <ele>147.9</ele>
        <time>2025-02-26T11:55:25Z</time>
      </trkpt>
      <trkpt lat="48.0667" lon="-3.47954">
        <ele>147.9</ele>
        <time>2025-02-26T11:55:26Z</time>
      </trkpt>
      <trkpt lat="48.0667" lon="-3.47954">
        <ele>147.9</ele>
        <time>2025-02-26T11:55:27Z</time>
      </trkpt>
      <trkpt lat="48.0667" lon="-3.47954">
        <ele>147.9</ele>
        <time>2025-02-26T11:55:28Z</time>
      </trkpt>
      <trkpt lat="48.0667" lon="-3.47954">
        <ele>147.9</ele>
        <time>2025-02-26T11:55:29Z</time>
      </trkpt>
      <trkpt lat="48.0667" lon="-3.47954">
        <ele>147.9</ele>
        <time>2025-02-26T11:55:30Z</time>
      </trkpt>
      <trkpt lat="48.0667" lon="-3.47954">
        <ele>147.9</ele>
        <time>2025-02-26T11:55:31Z</time>
      </trkpt>
      <trkpt lat="48.0667" lon="-3.47954">
        <ele>147.9</ele>
        <time>2025-02-26T11:55:32Z</time>
      </trkpt>
      <trkpt lat="48.0667" lon="-3.47954">
        <ele>147.9</ele>
        <time>2025-02-26T11:55:33Z</time>
      </trkpt>
      <trkpt lat="48.0667" lon="-3.47954">
        <ele>147.9</ele>
        <time>2025-02-26T11:55:34Z</time>
      </trkpt>
      <trkpt lat="48.0667" lon="-3.47954">
        <ele>147.9</ele>
        <time>2025-02-26T11:55:35Z</time>
      </trkpt>
      <trkpt lat="48.0667" lon="-3.47954">
        <ele>147.9</ele>
        <time>2025-02-26T11:55:36Z</time>
      </trkpt>
      <trkpt lat="48.0667" lon="-3.47954">
        <ele>147.9</ele>
        <time>2025-02-26T11:55:37Z</time>
      </trkpt>
      <trkpt lat="48.0667" lon="-3.47954">
        <ele>147.9</ele>
        <time>2025-02-26T11:55:38Z</time>
      </trkpt>
      <trkpt lat="48.0667" lon="-3.47954">
        <ele>147.9</ele>
        <time>2025-02-26T11:55:39Z</time>
      </trkpt>
      <trkpt lat="48.0667" lon="-3.47954">
        <ele>147.9</ele>
        <time>2025-02-26T11:55:40Z</time>
      </trkpt>
      <trkpt lat="48.0667" lon="-3.47954">
        <ele>147.9</ele>
        <time>2025-02-26T11:55:41Z</time>
      </trkpt>
      <trkpt lat="48.0667" lon="-3.47954">
        <ele>147.9</ele>
        <time>2025-02-26T11:55:42Z</time>
      </trkpt>
      <trkpt lat="48.0667" lon="-3.47954">
        <ele>147.9</ele>
        <time>2025-02-26T11:55:43Z</time>
      </trkpt>
      <trkpt lat="48.0667" lon="-3.47954">
        <ele>147.9</ele>
        <time>2025-02-26T11:55:44Z</time>
      </trkpt>
      <trkpt lat="48.0667" lon="-3.47954">
        <ele>147.9</ele>
        <time>2025-02-26T11:55:45Z</time>
      </trkpt>
      <trkpt lat="48.0667" lon="-3.47954">
        <ele>147.9</ele>
        <time>2025-02-26T11:55:46Z</time>
      </trkpt>
      <trkpt lat="48.0667" lon="-3.47954">
        <ele>147.9</ele>
        <time>2025-02-26T11:55:47Z</time>
      </trkpt>
      <trkpt lat="48.0667" lon="-3.47954">
        <ele>147.9</ele>
        <time>2025-02-26T11:55:48Z</time>
      </trkpt>
      <trkpt lat="48.0667" lon="-3.47954">
        <ele>147.9</ele>
        <time>2025-02-26T11:55:49Z</time>
      </trkpt>
      <trkpt lat="48.0667" lon="-3.47954">
        <ele>147.9</ele>
        <time>2025-02-26T11:55:50Z</time>
      </trkpt>
      <trkpt lat="48.0667" lon="-3.47954">
        <ele>147.9</ele>
        <time>2025-02-26T11:55:51Z</time>
      </trkpt>
      <trkpt lat="48.0667" lon="-3.47954">
        <ele>147.9</ele>
        <time>2025-02-26T11:55:52Z</time>
      </trkpt>
      <trkpt lat="48.0667" lon="-3.47954">
        <ele>147.9</ele>
        <time>2025-02-26T11:55:53Z</time>
      </trkpt>
      <trkpt lat="48.0667" lon="-3.47954">
        <ele>147.9</ele>
        <time>2025-02-26T11:55:54Z</time>
      </trkpt>
      <trkpt lat="48.0667" lon="-3.47954">
        <ele>147.9</ele>
        <time>2025-02-26T11:55:55Z</time>
      </trkpt>
      <trkpt lat="48.0667" lon="-3.47954">
        <ele>147.9</ele>
        <time>2025-02-26T11:55:56Z</time>
      </trkpt>
      <trkpt lat="48.0667" lon="-3.47954">
        <ele>147.9</ele>
        <time>2025-02-26T11:55:57Z</time>
      </trkpt>
      <trkpt lat="48.0667" lon="-3.47955">
        <ele>147.9</ele>
        <time>2025-02-26T11:55:58Z</time>
      </trkpt>
      <trkpt lat="48.06671" lon="-3.47955">
        <ele>147.9</ele>
        <time>2025-02-26T11:55:59Z</time>
      </trkpt>
      <trkpt lat="48.06671" lon="-3.47955">
        <ele>147.9</ele>
        <time>2025-02-26T11:56:00Z</time>
      </trkpt>
      <trkpt lat="48.06671" lon="-3.47955">
        <ele>147.9</ele>
        <time>2025-02-26T11:56:01Z</time>
      </trkpt>
      <trkpt lat="48.06671" lon="-3.47955">
        <ele>147.9</ele>
        <time>2025-02-26T11:56:02Z</time>
      </trkpt>
      <trkpt lat="48.06671" lon="-3.47955">
        <ele>147.9</ele>
        <time>2025-02-26T11:56:03Z</time>
      </trkpt>
      <trkpt lat="48.06671" lon="-3.47955">
        <ele>147.9</ele>
        <time>2025-02-26T11:56:04Z</time>
      </trkpt>
      <trkpt lat="48.06671" lon="-3.47955">
        <ele>147.9</ele>
        <time>2025-02-26T11:56:05Z</time>
      </trkpt>
      <trkpt lat="48.06671" lon="-3.47955">
        <ele>147.9</ele>
        <time>2025-02-26T11:56:06Z</time>
      </trkpt>
      <trkpt lat="48.06671" lon="-3.47955">
        <ele>147.9</ele>
        <time>2025-02-26T11:56:07Z</time>
      </trkpt>
      <trkpt lat="48.06671" lon="-3.47955">
        <ele>147.9</ele>
        <time>2025-02-26T11:56:08Z</time>
      </trkpt>
      <trkpt lat="48.06671" lon="-3.47955">
        <ele>147.9</ele>
        <time>2025-02-26T11:56:09Z</time>
      </trkpt>
      <trkpt lat="48.06671" lon="-3.47955">
        <ele>147.9</ele>
        <time>2025-02-26T11:56:10Z</time>
      </trkpt>
      <trkpt lat="48.06671" lon="-3.47955">
        <ele>147.9</ele>
        <time>2025-02-26T11:56:11Z</time>
      </trkpt>
      <trkpt lat="48.06671" lon="-3.47955">
        <ele>147.9</ele>
        <time>2025-02-26T11:56:12Z</time>
      </trkpt>
      <trkpt lat="48.06671" lon="-3.47955">
        <ele>147.9</ele>
        <time>2025-02-26T11:56:13Z</time>
      </trkpt>
      <trkpt lat="48.06671" lon="-3.47955">
        <ele>147.9</ele>
        <time>2025-02-26T11:56:14Z</time>
      </trkpt>
      <trkpt lat="48.06671" lon="-3.47955">
        <ele>147.9</ele>
        <time>2025-02-26T11:56:15Z</time>
      </trkpt>
      <trkpt lat="48.06671" lon="-3.47955">
        <ele>147.9</ele>
        <time>2025-02-26T11:56:16Z</time>
      </trkpt>
      <trkpt lat="48.06671" lon="-3.47955">
        <ele>147.9</ele>
        <time>2025-02-26T11:56:17Z</time>
      </trkpt>
      <trkpt lat="48.06671" lon="-3.47955">
        <ele>147.9</ele>
        <time>2025-02-26T11:56:18Z</time>
      </trkpt>
      <trkpt lat="48.06671" lon="-3.47955">
        <ele>147.9</ele>
        <time>2025-02-26T11:56:19Z</time>
      </trkpt>
      <trkpt lat="48.06671" lon="-3.47955">
        <ele>147.9</ele>
        <time>2025-02-26T11:56:20Z</time>
      </trkpt>
      <trkpt lat="48.06671" lon="-3.47955">
        <ele>147.9</ele>
        <time>2025-02-26T11:56:21Z</time>
      </trkpt>
      <trkpt lat="48.06671" lon="-3.47955">
        <ele>147.9</ele>
        <time>2025-02-26T11:56:22Z</time>
      </trkpt>
      <trkpt lat="48.06671" lon="-3.47955">
        <ele>147.9</ele>
        <time>2025-02-26T11:56:23Z</time>
      </trkpt>
      <trkpt lat="48.06671" lon="-3.47955">
        <ele>147.9</ele>
        <time>2025-02-26T11:56:24Z</time>
      </trkpt>
      <trkpt lat="48.06671" lon="-3.47955">
        <ele>147.9</ele>
        <time>2025-02-26T11:56:25Z</time>
      </trkpt>
      <trkpt lat="48.06671" lon="-3.47955">
        <ele>147.9</ele>
        <time>2025-02-26T11:56:26Z</time>
      </trkpt>
      <trkpt lat="48.06671" lon="-3.47955">
        <ele>147.9</ele>
        <time>2025-02-26T11:56:27Z</time>
      </trkpt>
      <trkpt lat="48.06671" lon="-3.47955">
        <ele>147.9</ele>
        <time>2025-02-26T11:56:28Z</time>
      </trkpt>
      <trkpt lat="48.06671" lon="-3.47955">
        <ele>147.9</ele>
        <time>2025-02-26T11:56:29Z</time>
      </trkpt>
      <trkpt lat="48.06671" lon="-3.47955">
        <ele>147.9</ele>
        <time>2025-02-26T11:56:30Z</time>
      </trkpt>
      <trkpt lat="48.06671" lon="-3.47955">
        <ele>147.9</ele>
        <time>2025-02-26T11:56:31Z</time>
      </trkpt>
      <trkpt lat="48.06671" lon="-3.47955">
        <ele>147.9</ele>
        <time>2025-02-26T11:56:32Z</time>
      </trkpt>
      <trkpt lat="48.06671" lon="-3.47955">
        <ele>147.9</ele>
        <time>2025-02-26T11:56:33Z</time>
      </trkpt>
      <trkpt lat="48.06671" lon="-3.47955">
        <ele>147.9</ele>
        <time>2025-02-26T11:56:34Z</time>
      </trkpt>
      <trkpt lat="48.06671" lon="-3.47955">
        <ele>147.9</ele>
        <time>2025-02-26T11:56:35Z</time>
      </trkpt>
      <trkpt lat="48.06671" lon="-3.47955">
        <ele>147.9</ele>
        <time>2025-02-26T11:56:36Z</time>
      </trkpt>
      <trkpt lat="48.06671" lon="-3.47955">
        <ele>147.9</ele>
        <time>2025-02-26T11:56:37Z</time>
      </trkpt>
      <trkpt lat="48.06671" lon="-3.47955">
        <ele>147.9</ele>
        <time>2025-02-26T11:56:38Z</time>
      </trkpt>
      <trkpt lat="48.06671" lon="-3.47955">
        <ele>147.9</ele>
        <time>2025-02-26T11:56:39Z</time>
      </trkpt>
      <trkpt lat="48.06671" lon="-3.47955">
        <ele>147.9</ele>
        <time>2025-02-26T11:56:40Z</time>
      </trkpt>
      <trkpt lat="48.06671" lon="-3.47955">
        <ele>147.9</ele>
        <time>2025-02-26T11:56:41Z</time>
      </trkpt>
      <trkpt lat="48.06671" lon="-3.47955">
        <ele>147.9</ele>
        <time>2025-02-26T11:56:42Z</time>
      </trkpt>
      <trkpt lat="48.06671" lon="-3.47955">
        <ele>147.9</ele>
        <time>2025-02-26T11:56:43Z</time>
      </trkpt>
      <trkpt lat="48.06671" lon="-3.47955">
        <ele>147.9</ele>
        <time>2025-02-26T11:56:44Z</time>
      </trkpt>
      <trkpt lat="48.06671" lon="-3.47955">
        <ele>147.9</ele>
        <time>2025-02-26T11:56:45Z</time>
      </trkpt>
      <trkpt lat="48.06671" lon="-3.47955">
        <ele>147.9</ele>
        <time>2025-02-26T11:56:46Z</time>
      </trkpt>
      <trkpt lat="48.06671" lon="-3.47955">
        <ele>147.9</ele>
        <time>2025-02-26T11:56:47Z</time>
      </trkpt>
      <trkpt lat="48.06671" lon="-3.47955">
        <ele>147.9</ele>
        <time>2025-02-26T11:56:48Z</time>
      </trkpt>
      <trkpt lat="48.06671" lon="-3.47955">
        <ele>147.9</ele>
        <time>2025-02-26T11:56:49Z</time>
      </trkpt>
      <trkpt lat="48.06671" lon="-3.47955">
        <ele>147.9</ele>
        <time>2025-02-26T11:56:50Z</time>
      </trkpt>
      <trkpt lat="48.06671" lon="-3.47955">
        <ele>147.9</ele>
        <time>2025-02-26T11:56:51Z</time>
      </trkpt>
      <trkpt lat="48.06671" lon="-3.47955">
        <ele>147.9</ele>
        <time>2025-02-26T11:56:52Z</time>
      </trkpt>
      <trkpt lat="48.06671" lon="-3.47955">
        <ele>147.9</ele>
        <time>2025-02-26T11:56:53Z</time>
      </trkpt>
      <trkpt lat="48.06671" lon="-3.47955">
        <ele>147.9</ele>
        <time>2025-02-26T11:56:54Z</time>
      </trkpt>
      <trkpt lat="48.06671" lon="-3.47955">
        <ele>147.9</ele>
        <time>2025-02-26T11:56:55Z</time>
      </trkpt>
      <trkpt lat="48.06671" lon="-3.47955">
        <ele>147.9</ele>
        <time>2025-02-26T11:56:56Z</time>
      </trkpt>
      <trkpt lat="48.06671" lon="-3.47955">
        <ele>147.9</ele>
        <time>2025-02-26T11:56:57Z</time>
      </trkpt>
      <trkpt lat="48.06671" lon="-3.47955">
        <ele>147.9</ele>
        <time>2025-02-26T11:56:58Z</time>
      </trkpt>
      <trkpt lat="48.06671" lon="-3.47955">
        <ele>147.9</ele>
        <time>2025-02-26T11:56:59Z</time>
      </trkpt>
      <trkpt lat="48.06671" lon="-3.47955">
        <ele>147.9</ele>
        <time>2025-02-26T11:57:00Z</time>
      </trkpt>
      <trkpt lat="48.06671" lon="-3.47955">
        <ele>147.9</ele>
        <time>2025-02-26T11:57:01Z</time>
      </trkpt>
      <trkpt lat="48.06671" lon="-3.47955">
        <ele>147.9</ele>
        <time>2025-02-26T11:57:02Z</time>
      </trkpt>
      <trkpt lat="48.06671" lon="-3.47955">
        <ele>147.9</ele>
        <time>2025-02-26T11:57:03Z</time>
      </trkpt>
      <trkpt lat="48.06671" lon="-3.47955">
        <ele>147.9</ele>
        <time>2025-02-26T11:57:04Z</time>
      </trkpt>
      <trkpt lat="48.06671" lon="-3.47955">
        <ele>147.9</ele>
        <time>2025-02-26T11:57:05Z</time>
      </trkpt>
      <trkpt lat="48.06671" lon="-3.47955">
        <ele>147.9</ele>
        <time>2025-02-26T11:57:06Z</time>
      </trkpt>
      <trkpt lat="48.06671" lon="-3.47955">
        <ele>147.9</ele>
        <time>2025-02-26T11:57:07Z</time>
      </trkpt>
      <trkpt lat="48.06671" lon="-3.47955">
        <ele>147.9</ele>
        <time>2025-02-26T11:57:08Z</time>
      </trkpt>
      <trkpt lat="48.06671" lon="-3.47955">
        <ele>147.9</ele>
        <time>2025-02-26T11:57:09Z</time>
      </trkpt>
      <trkpt lat="48.06671" lon="-3.47954">
        <ele>147.9</ele>
        <time>2025-02-26T11:57:10Z</time>
      </trkpt>
      <trkpt lat="48.06671" lon="-3.47954">
        <ele>147.9</ele>
        <time>2025-02-26T11:57:11Z</time>
      </trkpt>
      <trkpt lat="48.06671" lon="-3.47953">
        <ele>147.9</ele>
        <time>2025-02-26T11:57:12Z</time>
      </trkpt>
      <trkpt lat="48.0667" lon="-3.47952">
        <ele>147.9</ele>
        <time>2025-02-26T11:57:13Z</time>
      </trkpt>
      <trkpt lat="48.0667" lon="-3.47952">
        <ele>147.9</ele>
        <time>2025-02-26T11:57:14Z</time>
      </trkpt>
      <trkpt lat="48.0667" lon="-3.47952">
        <ele>147.9</ele>
        <time>2025-02-26T11:57:15Z</time>
      </trkpt>
      <trkpt lat="48.0667" lon="-3.47952">
        <ele>147.9</ele>
        <time>2025-02-26T11:57:16Z</time>
      </trkpt>
      <trkpt lat="48.0667" lon="-3.47952">
        <ele>147.9</ele>
        <time>2025-02-26T11:57:17Z</time>
      </trkpt>
      <trkpt lat="48.0667" lon="-3.47952">
        <ele>147.9</ele>
        <time>2025-02-26T11:57:18Z</time>
      </trkpt>
      <trkpt lat="48.0667" lon="-3.47951">
        <ele>147.9</ele>
        <time>2025-02-26T11:57:19Z</time>
      </trkpt>
      <trkpt lat="48.0667" lon="-3.4795">
        <ele>147.9</ele>
        <time>2025-02-26T11:57:20Z</time>
      </trkpt>
      <trkpt lat="48.06671" lon="-3.47949">
        <ele>147.9</ele>
        <time>2025-02-26T11:57:21Z</time>
      </trkpt>
      <trkpt lat="48.06671" lon="-3.47947">
        <ele>147.9</ele>
        <time>2025-02-26T11:57:22Z</time>
      </trkpt>
      <trkpt lat="48.06671" lon="-3.47946">
        <ele>147.9</ele>
        <time>2025-02-26T11:57:23Z</time>
      </trkpt>
      <trkpt lat="48.06671" lon="-3.47946">
        <ele>147.9</ele>
        <time>2025-02-26T11:57:24Z</time>
      </trkpt>
      <trkpt lat="48.06671" lon="-3.47946">
        <ele>147.9</ele>
        <time>2025-02-26T11:57:25Z</time>
      </trkpt>
      <trkpt lat="48.0667" lon="-3.47946">
        <ele>147.9</ele>
        <time>2025-02-26T11:57:26Z</time>
      </trkpt>
      <trkpt lat="48.0667" lon="-3.47947">
        <ele>147.9</ele>
        <time>2025-02-26T11:57:27Z</time>
      </trkpt>
      <trkpt lat="48.0667" lon="-3.47948">
        <ele>147.9</ele>
        <time>2025-02-26T11:57:28Z</time>
      </trkpt>
      <trkpt lat="48.0667" lon="-3.47949">
        <ele>147.9</ele>
        <time>2025-02-26T11:57:29Z</time>
      </trkpt>
      <trkpt lat="48.0667" lon="-3.47949">
        <ele>147.9</ele>
        <time>2025-02-26T11:57:30Z</time>
      </trkpt>
      <trkpt lat="48.06669" lon="-3.47949">
        <ele>147.9</ele>
        <time>2025-02-26T11:57:31Z</time>
      </trkpt>
      <trkpt lat="48.06669" lon="-3.47949">
        <ele>147.9</ele>
        <time>2025-02-26T11:57:32Z</time>
      </trkpt>
      <trkpt lat="48.0667" lon="-3.47948">
        <ele>147.9</ele>
        <time>2025-02-26T11:57:33Z</time>
      </trkpt>
      <trkpt lat="48.0667" lon="-3.47948">
        <ele>147.9</ele>
        <time>2025-02-26T11:57:34Z</time>
      </trkpt>
      <trkpt lat="48.0667" lon="-3.47947">
        <ele>147.9</ele>
        <time>2025-02-26T11:57:35Z</time>
      </trkpt>
      <trkpt lat="48.0667" lon="-3.47947">
        <ele>147.9</ele>
        <time>2025-02-26T11:57:36Z</time>
      </trkpt>
      <trkpt lat="48.0667" lon="-3.47947">
        <ele>147.9</ele>
        <time>2025-02-26T11:57:37Z</time>
      </trkpt>
      <trkpt lat="48.0667" lon="-3.47947">
        <ele>147.9</ele>
        <time>2025-02-26T11:57:38Z</time>
      </trkpt>
      <trkpt lat="48.0667" lon="-3.47947">
        <ele>147.9</ele>
        <time>2025-02-26T11:57:39Z</time>
      </trkpt>
      <trkpt lat="48.0667" lon="-3.47947">
        <ele>147.9</ele>
        <time>2025-02-26T11:57:40Z</time>
      </trkpt>
      <trkpt lat="48.0667" lon="-3.47947">
        <ele>147.9</ele>
        <time>2025-02-26T11:57:41Z</time>
      </trkpt>
      <trkpt lat="48.0667" lon="-3.47947">
        <ele>147.9</ele>
        <time>2025-02-26T11:57:42Z</time>
      </trkpt>
      <trkpt lat="48.0667" lon="-3.47947">
        <ele>147.9</ele>
        <time>2025-02-26T11:57:43Z</time>
      </trkpt>
      <trkpt lat="48.0667" lon="-3.47947">
        <ele>147.9</ele>
        <time>2025-02-26T11:57:44Z</time>
      </trkpt>
      <trkpt lat="48.0667" lon="-3.47947">
        <ele>147.9</ele>
        <time>2025-02-26T11:57:45Z</time>
      </trkpt>
      <trkpt lat="48.0667" lon="-3.47947">
        <ele>147.9</ele>
        <time>2025-02-26T11:57:46Z</time>
      </trkpt>
      <trkpt lat="48.0667" lon="-3.47947">
        <ele>147.9</ele>
        <time>2025-02-26T11:57:47Z</time>
      </trkpt>
      <trkpt lat="48.0667" lon="-3.47947">
        <ele>147.9</ele>
        <time>2025-02-26T11:57:48Z</time>
      </trkpt>
      <trkpt lat="48.0667" lon="-3.47947">
        <ele>147.9</ele>
        <time>2025-02-26T11:57:49Z</time>
      </trkpt>
      <trkpt lat="48.0667" lon="-3.47947">
        <ele>147.9</ele>
        <time>2025-02-26T11:57:50Z</time>
      </trkpt>
      <trkpt lat="48.0667" lon="-3.47947">
        <ele>147.9</ele>
        <time>2025-02-26T11:57:51Z</time>
      </trkpt>
      <trkpt lat="48.0667" lon="-3.47947">
        <ele>147.9</ele>
        <time>2025-02-26T11:57:52Z</time>
      </trkpt>
      <trkpt lat="48.0667" lon="-3.47947">
        <ele>147.9</ele>
        <time>2025-02-26T11:57:53Z</time>
      </trkpt>
      <trkpt lat="48.0667" lon="-3.47947">
        <ele>147.9</ele>
        <time>2025-02-26T11:57:54Z</time>
      </trkpt>
      <trkpt lat="48.0667" lon="-3.47947">
        <ele>147.9</ele>
        <time>2025-02-26T11:57:55Z</time>
      </trkpt>
      <trkpt lat="48.0667" lon="-3.47947">
        <ele>147.9</ele>
        <time>2025-02-26T11:57:56Z</time>
      </trkpt>
      <trkpt lat="48.0667" lon="-3.47947">
        <ele>147.9</ele>
        <time>2025-02-26T11:57:57Z</time>
      </trkpt>
      <trkpt lat="48.0667" lon="-3.47947">
        <ele>147.9</ele>
        <time>2025-02-26T11:57:58Z</time>
      </trkpt>
      <trkpt lat="48.0667" lon="-3.47947">
        <ele>147.9</ele>
        <time>2025-02-26T11:57:59Z</time>
      </trkpt>
      <trkpt lat="48.0667" lon="-3.47947">
        <ele>147.9</ele>
        <time>2025-02-26T11:58:00Z</time>
      </trkpt>
      <trkpt lat="48.0667" lon="-3.47947">
        <ele>147.9</ele>
        <time>2025-02-26T11:58:01Z</time>
      </trkpt>
      <trkpt lat="48.0667" lon="-3.47947">
        <ele>147.9</ele>
        <time>2025-02-26T11:58:02Z</time>
      </trkpt>
      <trkpt lat="48.0667" lon="-3.47947">
        <ele>147.9</ele>
        <time>2025-02-26T11:58:03Z</time>
      </trkpt>
      <trkpt lat="48.0667" lon="-3.47947">
        <ele>147.9</ele>
        <time>2025-02-26T11:58:04Z</time>
      </trkpt>
      <trkpt lat="48.0667" lon="-3.47946">
        <ele>147.9</ele>
        <time>2025-02-26T11:58:05Z</time>
      </trkpt>
      <trkpt lat="48.06669" lon="-3.47946">
        <ele>147.9</ele>
        <time>2025-02-26T11:58:06Z</time>
      </trkpt>
      <trkpt lat="48.06669" lon="-3.47946">
        <ele>147.9</ele>
        <time>2025-02-26T11:58:07Z</time>
      </trkpt>
      <trkpt lat="48.06669" lon="-3.47945">
        <ele>147.9</ele>
        <time>2025-02-26T11:58:08Z</time>
      </trkpt>
      <trkpt lat="48.06669" lon="-3.47945">
        <ele>147.9</ele>
        <time>2025-02-26T11:58:09Z</time>
      </trkpt>
      <trkpt lat="48.06669" lon="-3.47945">
        <ele>147.9</ele>
        <time>2025-02-26T11:58:10Z</time>
      </trkpt>
      <trkpt lat="48.06668" lon="-3.47946">
        <ele>148</ele>
        <time>2025-02-26T11:58:11Z</time>
      </trkpt>
      <trkpt lat="48.06668" lon="-3.47947">
        <ele>148</ele>
        <time>2025-02-26T11:58:12Z</time>
      </trkpt>
      <trkpt lat="48.06668" lon="-3.47948">
        <ele>148</ele>
        <time>2025-02-26T11:58:13Z</time>
      </trkpt>
      <trkpt lat="48.06667" lon="-3.47948">
        <ele>148</ele>
        <time>2025-02-26T11:58:14Z</time>
      </trkpt>
      <trkpt lat="48.06668" lon="-3.47948">
        <ele>148</ele>
        <time>2025-02-26T11:58:15Z</time>
      </trkpt>
      <trkpt lat="48.06668" lon="-3.47948">
        <ele>148</ele>
        <time>2025-02-26T11:58:16Z</time>
      </trkpt>
      <trkpt lat="48.06668" lon="-3.47948">
        <ele>148</ele>
        <time>2025-02-26T11:58:17Z</time>
      </trkpt>
      <trkpt lat="48.06668" lon="-3.47948">
        <ele>148</ele>
        <time>2025-02-26T11:58:18Z</time>
      </trkpt>
      <trkpt lat="48.06668" lon="-3.47948">
        <ele>148</ele>
        <time>2025-02-26T11:58:19Z</time>
      </trkpt>
      <trkpt lat="48.06667" lon="-3.47949">
        <ele>148</ele>
        <time>2025-02-26T11:58:20Z</time>
      </trkpt>
      <trkpt lat="48.06667" lon="-3.47949">
        <ele>148</ele>
        <time>2025-02-26T11:58:21Z</time>
      </trkpt>
      <trkpt lat="48.06667" lon="-3.4795">
        <ele>148</ele>
        <time>2025-02-26T11:58:22Z</time>
      </trkpt>
      <trkpt lat="48.06667" lon="-3.4795">
        <ele>148</ele>
        <time>2025-02-26T11:58:23Z</time>
      </trkpt>
      <trkpt lat="48.06667" lon="-3.4795">
        <ele>148</ele>
        <time>2025-02-26T11:58:24Z</time>
      </trkpt>
      <trkpt lat="48.06667" lon="-3.4795">
        <ele>148</ele>
        <time>2025-02-26T11:58:25Z</time>
      </trkpt>
      <trkpt lat="48.06667" lon="-3.4795">
        <ele>148</ele>
        <time>2025-02-26T11:58:26Z</time>
      </trkpt>
      <trkpt lat="48.06667" lon="-3.4795">
        <ele>148</ele>
        <time>2025-02-26T11:58:27Z</time>
      </trkpt>
      <trkpt lat="48.06667" lon="-3.4795">
        <ele>148</ele>
        <time>2025-02-26T11:58:28Z</time>
      </trkpt>
      <trkpt lat="48.06667" lon="-3.4795">
        <ele>148</ele>
        <time>2025-02-26T11:58:29Z</time>
      </trkpt>
      <trkpt lat="48.06667" lon="-3.4795">
        <ele>148</ele>
        <time>2025-02-26T11:58:30Z</time>
      </trkpt>
      <trkpt lat="48.06667" lon="-3.4795">
        <ele>148</ele>
        <time>2025-02-26T11:58:31Z</time>
      </trkpt>
      <trkpt lat="48.06667" lon="-3.4795">
        <ele>148</ele>
        <time>2025-02-26T11:58:32Z</time>
      </trkpt>
      <trkpt lat="48.06667" lon="-3.4795">
        <ele>148</ele>
        <time>2025-02-26T11:58:33Z</time>
      </trkpt>
      <trkpt lat="48.06667" lon="-3.4795">
        <ele>148</ele>
        <time>2025-02-26T11:58:34Z</time>
      </trkpt>
      <trkpt lat="48.06667" lon="-3.4795">
        <ele>148</ele>
        <time>2025-02-26T11:58:35Z</time>
      </trkpt>
      <trkpt lat="48.06667" lon="-3.4795">
        <ele>148</ele>
        <time>2025-02-26T11:58:36Z</time>
      </trkpt>
      <trkpt lat="48.06667" lon="-3.4795">
        <ele>148</ele>
        <time>2025-02-26T11:58:37Z</time>
      </trkpt>
      <trkpt lat="48.06667" lon="-3.4795">
        <ele>148</ele>
        <time>2025-02-26T11:58:38Z</time>
      </trkpt>
      <trkpt lat="48.06667" lon="-3.4795">
        <ele>148</ele>
        <time>2025-02-26T11:58:39Z</time>
      </trkpt>
      <trkpt lat="48.06668" lon="-3.4795">
        <ele>148</ele>
        <time>2025-02-26T11:58:40Z</time>
      </trkpt>
      <trkpt lat="48.06668" lon="-3.4795">
        <ele>148</ele>
        <time>2025-02-26T11:58:41Z</time>
      </trkpt>
      <trkpt lat="48.06668" lon="-3.4795">
        <ele>148</ele>
        <time>2025-02-26T11:58:42Z</time>
      </trkpt>
      <trkpt lat="48.06668" lon="-3.4795">
        <ele>148</ele>
        <time>2025-02-26T11:58:43Z</time>
      </trkpt>
      <trkpt lat="48.06668" lon="-3.4795">
        <ele>148</ele>
        <time>2025-02-26T11:58:44Z</time>
      </trkpt>
      <trkpt lat="48.06668" lon="-3.4795">
        <ele>148</ele>
        <time>2025-02-26T11:58:45Z</time>
      </trkpt>
      <trkpt lat="48.06668" lon="-3.4795">
        <ele>148</ele>
        <time>2025-02-26T11:58:46Z</time>
      </trkpt>
      <trkpt lat="48.06668" lon="-3.4795">
        <ele>148</ele>
        <time>2025-02-26T11:58:47Z</time>
      </trkpt>
      <trkpt lat="48.06668" lon="-3.4795">
        <ele>148</ele>
        <time>2025-02-26T11:58:48Z</time>
      </trkpt>
      <trkpt lat="48.06668" lon="-3.4795">
        <ele>148</ele>
        <time>2025-02-26T11:58:49Z</time>
      </trkpt>
      <trkpt lat="48.06668" lon="-3.4795">
        <ele>148</ele>
        <time>2025-02-26T11:58:50Z</time>
      </trkpt>
      <trkpt lat="48.06668" lon="-3.4795">
        <ele>148</ele>
        <time>2025-02-26T11:58:51Z</time>
      </trkpt>
      <trkpt lat="48.06668" lon="-3.4795">
        <ele>148</ele>
        <time>2025-02-26T11:58:52Z</time>
      </trkpt>
      <trkpt lat="48.06668" lon="-3.4795">
        <ele>148</ele>
        <time>2025-02-26T11:58:53Z</time>
      </trkpt>
      <trkpt lat="48.06668" lon="-3.4795">
        <ele>148</ele>
        <time>2025-02-26T11:58:54Z</time>
      </trkpt>
      <trkpt lat="48.06668" lon="-3.4795">
        <ele>148</ele>
        <time>2025-02-26T11:58:55Z</time>
      </trkpt>
      <trkpt lat="48.06668" lon="-3.4795">
        <ele>148</ele>
        <time>2025-02-26T11:58:56Z</time>
      </trkpt>
      <trkpt lat="48.06668" lon="-3.4795">
        <ele>148</ele>
        <time>2025-02-26T11:58:57Z</time>
      </trkpt>
      <trkpt lat="48.06668" lon="-3.4795">
        <ele>148</ele>
        <time>2025-02-26T11:58:58Z</time>
      </trkpt>
      <trkpt lat="48.06668" lon="-3.4795">
        <ele>148</ele>
        <time>2025-02-26T11:58:59Z</time>
      </trkpt>
      <trkpt lat="48.06668" lon="-3.4795">
        <ele>148</ele>
        <time>2025-02-26T11:59:00Z</time>
      </trkpt>
      <trkpt lat="48.06668" lon="-3.4795">
        <ele>148</ele>
        <time>2025-02-26T11:59:01Z</time>
      </trkpt>
      <trkpt lat="48.06668" lon="-3.4795">
        <ele>148</ele>
        <time>2025-02-26T11:59:02Z</time>
      </trkpt>
      <trkpt lat="48.06668" lon="-3.4795">
        <ele>148</ele>
        <time>2025-02-26T11:59:03Z</time>
      </trkpt>
      <trkpt lat="48.06668" lon="-3.4795">
        <ele>148</ele>
        <time>2025-02-26T11:59:04Z</time>
      </trkpt>
      <trkpt lat="48.06668" lon="-3.4795">
        <ele>148</ele>
        <time>2025-02-26T11:59:05Z</time>
      </trkpt>
      <trkpt lat="48.06668" lon="-3.4795">
        <ele>148</ele>
        <time>2025-02-26T11:59:06Z</time>
      </trkpt>
      <trkpt lat="48.06668" lon="-3.4795">
        <ele>148</ele>
        <time>2025-02-26T11:59:07Z</time>
      </trkpt>
      <trkpt lat="48.06668" lon="-3.4795">
        <ele>148</ele>
        <time>2025-02-26T11:59:08Z</time>
      </trkpt>
      <trkpt lat="48.06668" lon="-3.4795">
        <ele>148</ele>
        <time>2025-02-26T11:59:09Z</time>
      </trkpt>
      <trkpt lat="48.06668" lon="-3.4795">
        <ele>148</ele>
        <time>2025-02-26T11:59:10Z</time>
      </trkpt>
      <trkpt lat="48.06668" lon="-3.4795">
        <ele>148</ele>
        <time>2025-02-26T11:59:11Z</time>
      </trkpt>
      <trkpt lat="48.06668" lon="-3.4795">
        <ele>148</ele>
        <time>2025-02-26T11:59:12Z</time>
      </trkpt>
      <trkpt lat="48.06668" lon="-3.4795">
        <ele>148</ele>
        <time>2025-02-26T11:59:13Z</time>
      </trkpt>
      <trkpt lat="48.06668" lon="-3.4795">
        <ele>148</ele>
        <time>2025-02-26T11:59:14Z</time>
      </trkpt>
      <trkpt lat="48.06668" lon="-3.4795">
        <ele>148</ele>
        <time>2025-02-26T11:59:15Z</time>
      </trkpt>
      <trkpt lat="48.06668" lon="-3.4795">
        <ele>148</ele>
        <time>2025-02-26T11:59:16Z</time>
      </trkpt>
      <trkpt lat="48.06668" lon="-3.4795">
        <ele>148</ele>
        <time>2025-02-26T11:59:17Z</time>
      </trkpt>
      <trkpt lat="48.06668" lon="-3.4795">
        <ele>148</ele>
        <time>2025-02-26T11:59:18Z</time>
      </trkpt>
      <trkpt lat="48.06668" lon="-3.4795">
        <ele>148</ele>
        <time>2025-02-26T11:59:19Z</time>
      </trkpt>
      <trkpt lat="48.06668" lon="-3.4795">
        <ele>148</ele>
        <time>2025-02-26T11:59:20Z</time>
      </trkpt>
      <trkpt lat="48.06668" lon="-3.4795">
        <ele>148</ele>
        <time>2025-02-26T11:59:21Z</time>
      </trkpt>
      <trkpt lat="48.06668" lon="-3.4795">
        <ele>148</ele>
        <time>2025-02-26T11:59:22Z</time>
      </trkpt>
      <trkpt lat="48.06668" lon="-3.4795">
        <ele>148</ele>
        <time>2025-02-26T11:59:23Z</time>
      </trkpt>
      <trkpt lat="48.06668" lon="-3.4795">
        <ele>148</ele>
        <time>2025-02-26T11:59:24Z</time>
      </trkpt>
      <trkpt lat="48.06668" lon="-3.4795">
        <ele>148</ele>
        <time>2025-02-26T11:59:25Z</time>
      </trkpt>
      <trkpt lat="48.06668" lon="-3.4795">
        <ele>148</ele>
        <time>2025-02-26T11:59:26Z</time>
      </trkpt>
      <trkpt lat="48.06668" lon="-3.4795">
        <ele>148</ele>
        <time>2025-02-26T11:59:27Z</time>
      </trkpt>
      <trkpt lat="48.06668" lon="-3.4795">
        <ele>148</ele>
        <time>2025-02-26T11:59:28Z</time>
      </trkpt>
      <trkpt lat="48.06668" lon="-3.4795">
        <ele>148</ele>
        <time>2025-02-26T11:59:29Z</time>
      </trkpt>
      <trkpt lat="48.06668" lon="-3.4795">
        <ele>148</ele>
        <time>2025-02-26T11:59:30Z</time>
      </trkpt>
      <trkpt lat="48.06668" lon="-3.4795">
        <ele>148</ele>
        <time>2025-02-26T11:59:31Z</time>
      </trkpt>
      <trkpt lat="48.06668" lon="-3.4795">
        <ele>148</ele>
        <time>2025-02-26T11:59:32Z</time>
      </trkpt>
      <trkpt lat="48.06668" lon="-3.4795">
        <ele>148</ele>
        <time>2025-02-26T11:59:33Z</time>
      </trkpt>
      <trkpt lat="48.06668" lon="-3.4795">
        <ele>148</ele>
        <time>2025-02-26T11:59:34Z</time>
      </trkpt>
      <trkpt lat="48.06668" lon="-3.4795">
        <ele>148</ele>
        <time>2025-02-26T11:59:35Z</time>
      </trkpt>
      <trkpt lat="48.06668" lon="-3.4795">
        <ele>148</ele>
        <time>2025-02-26T11:59:36Z</time>
      </trkpt>
      <trkpt lat="48.06668" lon="-3.4795">
        <ele>148</ele>
        <time>2025-02-26T11:59:37Z</time>
      </trkpt>
      <trkpt lat="48.06668" lon="-3.4795">
        <ele>148</ele>
        <time>2025-02-26T11:59:38Z</time>
      </trkpt>
      <trkpt lat="48.06668" lon="-3.4795">
        <ele>148</ele>
        <time>2025-02-26T11:59:39Z</time>
      </trkpt>
      <trkpt lat="48.06668" lon="-3.4795">
        <ele>148</ele>
        <time>2025-02-26T11:59:40Z</time>
      </trkpt>
      <trkpt lat="48.06668" lon="-3.4795">
        <ele>148</ele>
        <time>2025-02-26T11:59:41Z</time>
      </trkpt>
      <trkpt lat="48.06668" lon="-3.4795">
        <ele>148</ele>
        <time>2025-02-26T11:59:42Z</time>
      </trkpt>
      <trkpt lat="48.06668" lon="-3.4795">
        <ele>148</ele>
        <time>2025-02-26T11:59:43Z</time>
      </trkpt>
      <trkpt lat="48.06668" lon="-3.4795">
        <ele>148</ele>
        <time>2025-02-26T11:59:44Z</time>
      </trkpt>
      <trkpt lat="48.06668" lon="-3.4795">
        <ele>148</ele>
        <time>2025-02-26T11:59:45Z</time>
      </trkpt>
      <trkpt lat="48.06668" lon="-3.4795">
        <ele>148</ele>
        <time>2025-02-26T11:59:46Z</time>
      </trkpt>
      <trkpt lat="48.06668" lon="-3.4795">
        <ele>148</ele>
        <time>2025-02-26T11:59:47Z</time>
      </trkpt>
      <trkpt lat="48.06668" lon="-3.4795">
        <ele>148</ele>
        <time>2025-02-26T11:59:48Z</time>
      </trkpt>
      <trkpt lat="48.06668" lon="-3.4795">
        <ele>148</ele>
        <time>2025-02-26T11:59:49Z</time>
      </trkpt>
      <trkpt lat="48.06668" lon="-3.4795">
        <ele>148</ele>
        <time>2025-02-26T11:59:50Z</time>
      </trkpt>
      <trkpt lat="48.06668" lon="-3.4795">
        <ele>148</ele>
        <time>2025-02-26T11:59:51Z</time>
      </trkpt>
      <trkpt lat="48.06668" lon="-3.4795">
        <ele>148</ele>
        <time>2025-02-26T11:59:52Z</time>
      </trkpt>
      <trkpt lat="48.06668" lon="-3.4795">
        <ele>148</ele>
        <time>2025-02-26T11:59:53Z</time>
      </trkpt>
      <trkpt lat="48.06668" lon="-3.4795">
        <ele>148</ele>
        <time>2025-02-26T11:59:54Z</time>
      </trkpt>
      <trkpt lat="48.06668" lon="-3.4795">
        <ele>148</ele>
        <time>2025-02-26T11:59:55Z</time>
      </trkpt>
      <trkpt lat="48.06668" lon="-3.4795">
        <ele>148</ele>
        <time>2025-02-26T11:59:56Z</time>
      </trkpt>
      <trkpt lat="48.06668" lon="-3.4795">
        <ele>148</ele>
        <time>2025-02-26T11:59:57Z</time>
      </trkpt>
      <trkpt lat="48.06668" lon="-3.4795">
        <ele>148</ele>
        <time>2025-02-26T11:59:58Z</time>
      </trkpt>
      <trkpt lat="48.06668" lon="-3.4795">
        <ele>148</ele>
        <time>2025-02-26T11:59:59Z</time>
      </trkpt>
      <trkpt lat="48.06668" lon="-3.4795">
        <ele>148</ele>
        <time>2025-02-26T12:00:00Z</time>
      </trkpt>
      <trkpt lat="48.06668" lon="-3.4795">
        <ele>148</ele>
        <time>2025-02-26T12:00:01Z</time>
      </trkpt>
      <trkpt lat="48.06668" lon="-3.4795">
        <ele>148</ele>
        <time>2025-02-26T12:00:02Z</time>
      </trkpt>
      <trkpt lat="48.06668" lon="-3.4795">
        <ele>148</ele>
        <time>2025-02-26T12:00:03Z</time>
      </trkpt>
      <trkpt lat="48.06668" lon="-3.4795">
        <ele>148</ele>
        <time>2025-02-26T12:00:04Z</time>
      </trkpt>
      <trkpt lat="48.06668" lon="-3.4795">
        <ele>148</ele>
        <time>2025-02-26T12:00:05Z</time>
      </trkpt>
      <trkpt lat="48.06668" lon="-3.4795">
        <ele>148</ele>
        <time>2025-02-26T12:00:06Z</time>
      </trkpt>
      <trkpt lat="48.06668" lon="-3.4795">
        <ele>148</ele>
        <time>2025-02-26T12:00:07Z</time>
      </trkpt>
      <trkpt lat="48.06668" lon="-3.4795">
        <ele>148</ele>
        <time>2025-02-26T12:00:08Z</time>
      </trkpt>
      <trkpt lat="48.06668" lon="-3.4795">
        <ele>148</ele>
        <time>2025-02-26T12:00:09Z</time>
      </trkpt>
      <trkpt lat="48.06668" lon="-3.4795">
        <ele>148</ele>
        <time>2025-02-26T12:00:10Z</time>
      </trkpt>
      <trkpt lat="48.06668" lon="-3.4795">
        <ele>148</ele>
        <time>2025-02-26T12:00:11Z</time>
      </trkpt>
      <trkpt lat="48.06668" lon="-3.4795">
        <ele>148</ele>
        <time>2025-02-26T12:00:12Z</time>
      </trkpt>
      <trkpt lat="48.06668" lon="-3.4795">
        <ele>148</ele>
        <time>2025-02-26T12:00:13Z</time>
      </trkpt>
      <trkpt lat="48.06668" lon="-3.4795">
        <ele>148</ele>
        <time>2025-02-26T12:00:14Z</time>
      </trkpt>
      <trkpt lat="48.06668" lon="-3.4795">
        <ele>148</ele>
        <time>2025-02-26T12:00:15Z</time>
      </trkpt>
      <trkpt lat="48.06668" lon="-3.4795">
        <ele>148</ele>
        <time>2025-02-26T12:00:16Z</time>
      </trkpt>
      <trkpt lat="48.06668" lon="-3.4795">
        <ele>148</ele>
        <time>2025-02-26T12:00:17Z</time>
      </trkpt>
      <trkpt lat="48.06668" lon="-3.4795">
        <ele>148</ele>
        <time>2025-02-26T12:00:18Z</time>
      </trkpt>
      <trkpt lat="48.06668" lon="-3.4795">
        <ele>148</ele>
        <time>2025-02-26T12:00:19Z</time>
      </trkpt>
      <trkpt lat="48.06668" lon="-3.4795">
        <ele>148</ele>
        <time>2025-02-26T12:00:20Z</time>
      </trkpt>
      <trkpt lat="48.06668" lon="-3.4795">
        <ele>148</ele>
        <time>2025-02-26T12:00:21Z</time>
      </trkpt>
      <trkpt lat="48.06668" lon="-3.4795">
        <ele>148</ele>
        <time>2025-02-26T12:00:22Z</time>
      </trkpt>
      <trkpt lat="48.06668" lon="-3.4795">
        <ele>148</ele>
        <time>2025-02-26T12:00:23Z</time>
      </trkpt>
      <trkpt lat="48.06668" lon="-3.4795">
        <ele>148</ele>
        <time>2025-02-26T12:00:24Z</time>
      </trkpt>
      <trkpt lat="48.06668" lon="-3.4795">
        <ele>148</ele>
        <time>2025-02-26T12:00:25Z</time>
      </trkpt>
      <trkpt lat="48.06668" lon="-3.4795">
        <ele>148</ele>
        <time>2025-02-26T12:00:26Z</time>
      </trkpt>
      <trkpt lat="48.06668" lon="-3.4795">
        <ele>148</ele>
        <time>2025-02-26T12:00:27Z</time>
      </trkpt>
      <trkpt lat="48.06668" lon="-3.4795">
        <ele>148</ele>
        <time>2025-02-26T12:00:28Z</time>
      </trkpt>
      <trkpt lat="48.06668" lon="-3.4795">
        <ele>148</ele>
        <time>2025-02-26T12:00:29Z</time>
      </trkpt>
      <trkpt lat="48.06668" lon="-3.4795">
        <ele>148</ele>
        <time>2025-02-26T12:00:30Z</time>
      </trkpt>
      <trkpt lat="48.06668" lon="-3.4795">
        <ele>148</ele>
        <time>2025-02-26T12:00:31Z</time>
      </trkpt>
      <trkpt lat="48.06668" lon="-3.4795">
        <ele>148</ele>
        <time>2025-02-26T12:00:32Z</time>
      </trkpt>
      <trkpt lat="48.06668" lon="-3.4795">
        <ele>148</ele>
        <time>2025-02-26T12:00:33Z</time>
      </trkpt>
      <trkpt lat="48.06668" lon="-3.4795">
        <ele>148</ele>
        <time>2025-02-26T12:00:34Z</time>
      </trkpt>
      <trkpt lat="48.06668" lon="-3.4795">
        <ele>148</ele>
        <time>2025-02-26T12:00:35Z</time>
      </trkpt>
      <trkpt lat="48.06668" lon="-3.4795">
        <ele>148</ele>
        <time>2025-02-26T12:00:36Z</time>
      </trkpt>
      <trkpt lat="48.06668" lon="-3.4795">
        <ele>148</ele>
        <time>2025-02-26T12:00:37Z</time>
      </trkpt>
      <trkpt lat="48.06668" lon="-3.4795">
        <ele>148</ele>
        <time>2025-02-26T12:00:38Z</time>
      </trkpt>
      <trkpt lat="48.06668" lon="-3.4795">
        <ele>148</ele>
        <time>2025-02-26T12:00:39Z</time>
      </trkpt>
      <trkpt lat="48.06668" lon="-3.4795">
        <ele>148</ele>
        <time>2025-02-26T12:00:40Z</time>
      </trkpt>
      <trkpt lat="48.06668" lon="-3.4795">
        <ele>148</ele>
        <time>2025-02-26T12:00:41Z</time>
      </trkpt>
      <trkpt lat="48.06668" lon="-3.4795">
        <ele>148</ele>
        <time>2025-02-26T12:00:42Z</time>
      </trkpt>
      <trkpt lat="48.06668" lon="-3.4795">
        <ele>148</ele>
        <time>2025-02-26T12:00:43Z</time>
      </trkpt>
      <trkpt lat="48.06668" lon="-3.4795">
        <ele>148</ele>
        <time>2025-02-26T12:00:44Z</time>
      </trkpt>
      <trkpt lat="48.06668" lon="-3.4795">
        <ele>148</ele>
        <time>2025-02-26T12:00:45Z</time>
      </trkpt>
      <trkpt lat="48.06668" lon="-3.4795">
        <ele>148</ele>
        <time>2025-02-26T12:00:46Z</time>
      </trkpt>
      <trkpt lat="48.06668" lon="-3.4795">
        <ele>148</ele>
        <time>2025-02-26T12:00:47Z</time>
      </trkpt>
      <trkpt lat="48.06668" lon="-3.4795">
        <ele>148</ele>
        <time>2025-02-26T12:00:48Z</time>
      </trkpt>
      <trkpt lat="48.06668" lon="-3.4795">
        <ele>148</ele>
        <time>2025-02-26T12:00:49Z</time>
      </trkpt>
      <trkpt lat="48.06668" lon="-3.4795">
        <ele>148</ele>
        <time>2025-02-26T12:00:50Z</time>
      </trkpt>
      <trkpt lat="48.06668" lon="-3.4795">
        <ele>148</ele>
        <time>2025-02-26T12:00:51Z</time>
      </trkpt>
      <trkpt lat="48.06668" lon="-3.4795">
        <ele>148</ele>
        <time>2025-02-26T12:00:52Z</time>
      </trkpt>
      <trkpt lat="48.06668" lon="-3.4795">
        <ele>148</ele>
        <time>2025-02-26T12:00:53Z</time>
      </trkpt>
      <trkpt lat="48.06668" lon="-3.4795">
        <ele>148</ele>
        <time>2025-02-26T12:00:54Z</time>
      </trkpt>
      <trkpt lat="48.06668" lon="-3.4795">
        <ele>148</ele>
        <time>2025-02-26T12:00:55Z</time>
      </trkpt>
      <trkpt lat="48.06668" lon="-3.4795">
        <ele>148</ele>
        <time>2025-02-26T12:00:56Z</time>
      </trkpt>
      <trkpt lat="48.06668" lon="-3.4795">
        <ele>148</ele>
        <time>2025-02-26T12:00:57Z</time>
      </trkpt>
      <trkpt lat="48.06668" lon="-3.4795">
        <ele>148</ele>
        <time>2025-02-26T12:00:58Z</time>
      </trkpt>
      <trkpt lat="48.06668" lon="-3.4795">
        <ele>148</ele>
        <time>2025-02-26T12:00:59Z</time>
      </trkpt>
      <trkpt lat="48.06668" lon="-3.4795">
        <ele>148</ele>
        <time>2025-02-26T12:01:00Z</time>
      </trkpt>
      <trkpt lat="48.06668" lon="-3.4795">
        <ele>148</ele>
        <time>2025-02-26T12:01:01Z</time>
      </trkpt>
      <trkpt lat="48.06668" lon="-3.4795">
        <ele>148</ele>
        <time>2025-02-26T12:01:02Z</time>
      </trkpt>
      <trkpt lat="48.06668" lon="-3.4795">
        <ele>148</ele>
        <time>2025-02-26T12:01:03Z</time>
      </trkpt>
      <trkpt lat="48.06668" lon="-3.4795">
        <ele>148</ele>
        <time>2025-02-26T12:01:04Z</time>
      </trkpt>
      <trkpt lat="48.06668" lon="-3.4795">
        <ele>148</ele>
        <time>2025-02-26T12:01:05Z</time>
      </trkpt>
      <trkpt lat="48.06668" lon="-3.4795">
        <ele>148</ele>
        <time>2025-02-26T12:01:06Z</time>
      </trkpt>
      <trkpt lat="48.06668" lon="-3.4795">
        <ele>148</ele>
        <time>2025-02-26T12:01:07Z</time>
      </trkpt>
      <trkpt lat="48.06668" lon="-3.4795">
        <ele>148</ele>
        <time>2025-02-26T12:01:08Z</time>
      </trkpt>
      <trkpt lat="48.06668" lon="-3.4795">
        <ele>148</ele>
        <time>2025-02-26T12:01:09Z</time>
      </trkpt>
      <trkpt lat="48.06668" lon="-3.4795">
        <ele>148</ele>
        <time>2025-02-26T12:01:10Z</time>
      </trkpt>
      <trkpt lat="48.06668" lon="-3.4795">
        <ele>148</ele>
        <time>2025-02-26T12:01:11Z</time>
      </trkpt>
      <trkpt lat="48.06668" lon="-3.4795">
        <ele>148</ele>
        <time>2025-02-26T12:01:12Z</time>
      </trkpt>
      <trkpt lat="48.06668" lon="-3.4795">
        <ele>148</ele>
        <time>2025-02-26T12:01:13Z</time>
      </trkpt>
      <trkpt lat="48.06668" lon="-3.4795">
        <ele>148</ele>
        <time>2025-02-26T12:01:14Z</time>
      </trkpt>
      <trkpt lat="48.06668" lon="-3.4795">
        <ele>148</ele>
        <time>2025-02-26T12:01:15Z</time>
      </trkpt>
      <trkpt lat="48.06668" lon="-3.4795">
        <ele>148</ele>
        <time>2025-02-26T12:01:16Z</time>
      </trkpt>
      <trkpt lat="48.06668" lon="-3.4795">
        <ele>148</ele>
        <time>2025-02-26T12:01:17Z</time>
      </trkpt>
      <trkpt lat="48.06668" lon="-3.4795">
        <ele>148</ele>
        <time>2025-02-26T12:01:18Z</time>
      </trkpt>
      <trkpt lat="48.06668" lon="-3.4795">
        <ele>148</ele>
        <time>2025-02-26T12:01:19Z</time>
      </trkpt>
      <trkpt lat="48.06668" lon="-3.4795">
        <ele>148</ele>
        <time>2025-02-26T12:01:20Z</time>
      </trkpt>
      <trkpt lat="48.06668" lon="-3.4795">
        <ele>148</ele>
        <time>2025-02-26T12:01:21Z</time>
      </trkpt>
      <trkpt lat="48.06668" lon="-3.4795">
        <ele>148</ele>
        <time>2025-02-26T12:01:22Z</time>
      </trkpt>
      <trkpt lat="48.06668" lon="-3.4795">
        <ele>148</ele>
        <time>2025-02-26T12:01:23Z</time>
      </trkpt>
      <trkpt lat="48.06668" lon="-3.47951">
        <ele>148</ele>
        <time>2025-02-26T12:01:24Z</time>
      </trkpt>
      <trkpt lat="48.06668" lon="-3.47951">
        <ele>148</ele>
        <time>2025-02-26T12:01:25Z</time>
      </trkpt>
      <trkpt lat="48.06668" lon="-3.47951">
        <ele>148</ele>
        <time>2025-02-26T12:01:26Z</time>
      </trkpt>
      <trkpt lat="48.06668" lon="-3.47951">
        <ele>148</ele>
        <time>2025-02-26T12:01:27Z</time>
      </trkpt>
      <trkpt lat="48.06668" lon="-3.47951">
        <ele>148</ele>
        <time>2025-02-26T12:01:28Z</time>
      </trkpt>
      <trkpt lat="48.06668" lon="-3.47951">
        <ele>148</ele>
        <time>2025-02-26T12:01:29Z</time>
      </trkpt>
      <trkpt lat="48.06668" lon="-3.47951">
        <ele>148</ele>
        <time>2025-02-26T12:01:30Z</time>
      </trkpt>
      <trkpt lat="48.06668" lon="-3.47951">
        <ele>148</ele>
        <time>2025-02-26T12:01:31Z</time>
      </trkpt>
      <trkpt lat="48.06668" lon="-3.47951">
        <ele>148</ele>
        <time>2025-02-26T12:01:32Z</time>
      </trkpt>
      <trkpt lat="48.06668" lon="-3.47951">
        <ele>148</ele>
        <time>2025-02-26T12:01:33Z</time>
      </trkpt>
      <trkpt lat="48.06668" lon="-3.47951">
        <ele>148</ele>
        <time>2025-02-26T12:01:34Z</time>
      </trkpt>
      <trkpt lat="48.06668" lon="-3.47951">
        <ele>148</ele>
        <time>2025-02-26T12:01:35Z</time>
      </trkpt>
      <trkpt lat="48.06668" lon="-3.47951">
        <ele>148</ele>
        <time>2025-02-26T12:01:36Z</time>
      </trkpt>
      <trkpt lat="48.06668" lon="-3.47951">
        <ele>148</ele>
        <time>2025-02-26T12:01:37Z</time>
      </trkpt>
      <trkpt lat="48.06668" lon="-3.47951">
        <ele>148</ele>
        <time>2025-02-26T12:01:38Z</time>
      </trkpt>
      <trkpt lat="48.06668" lon="-3.47951">
        <ele>148</ele>
        <time>2025-02-26T12:01:39Z</time>
      </trkpt>
      <trkpt lat="48.06668" lon="-3.47951">
        <ele>148</ele>
        <time>2025-02-26T12:01:40Z</time>
      </trkpt>
      <trkpt lat="48.06668" lon="-3.47951">
        <ele>148</ele>
        <time>2025-02-26T12:01:41Z</time>
      </trkpt>
      <trkpt lat="48.06668" lon="-3.47951">
        <ele>148</ele>
        <time>2025-02-26T12:01:42Z</time>
      </trkpt>
      <trkpt lat="48.06668" lon="-3.47951">
        <ele>148</ele>
        <time>2025-02-26T12:01:43Z</time>
      </trkpt>
      <trkpt lat="48.06668" lon="-3.47951">
        <ele>148</ele>
        <time>2025-02-26T12:01:44Z</time>
      </trkpt>
      <trkpt lat="48.06668" lon="-3.47951">
        <ele>148</ele>
        <time>2025-02-26T12:01:45Z</time>
      </trkpt>
      <trkpt lat="48.06668" lon="-3.47951">
        <ele>148</ele>
        <time>2025-02-26T12:01:46Z</time>
      </trkpt>
      <trkpt lat="48.06668" lon="-3.47951">
        <ele>148</ele>
        <time>2025-02-26T12:01:47Z</time>
      </trkpt>
      <trkpt lat="48.06668" lon="-3.47951">
        <ele>148</ele>
        <time>2025-02-26T12:01:48Z</time>
      </trkpt>
      <trkpt lat="48.06668" lon="-3.47951">
        <ele>148</ele>
        <time>2025-02-26T12:01:49Z</time>
      </trkpt>
      <trkpt lat="48.06668" lon="-3.47951">
        <ele>148</ele>
        <time>2025-02-26T12:01:50Z</time>
      </trkpt>
      <trkpt lat="48.06668" lon="-3.47951">
        <ele>148</ele>
        <time>2025-02-26T12:01:51Z</time>
      </trkpt>
      <trkpt lat="48.06668" lon="-3.47951">
        <ele>148</ele>
        <time>2025-02-26T12:01:52Z</time>
      </trkpt>
      <trkpt lat="48.06668" lon="-3.47951">
        <ele>148</ele>
        <time>2025-02-26T12:01:53Z</time>
      </trkpt>
      <trkpt lat="48.06669" lon="-3.4795">
        <ele>147.9</ele>
        <time>2025-02-26T12:01:54Z</time>
      </trkpt>
      <trkpt lat="48.06669" lon="-3.4795">
        <ele>147.9</ele>
        <time>2025-02-26T12:01:55Z</time>
      </trkpt>
      <trkpt lat="48.06669" lon="-3.47949">
        <ele>147.9</ele>
        <time>2025-02-26T12:01:56Z</time>
      </trkpt>
      <trkpt lat="48.06669" lon="-3.47949">
        <ele>147.9</ele>
        <time>2025-02-26T12:01:57Z</time>
      </trkpt>
      <trkpt lat="48.06669" lon="-3.47949">
        <ele>147.9</ele>
        <time>2025-02-26T12:01:58Z</time>
      </trkpt>
      <trkpt lat="48.06669" lon="-3.47949">
        <ele>147.9</ele>
        <time>2025-02-26T12:01:59Z</time>
      </trkpt>
      <trkpt lat="48.06669" lon="-3.47949">
        <ele>147.9</ele>
        <time>2025-02-26T12:02:00Z</time>
      </trkpt>
      <trkpt lat="48.06669" lon="-3.47949">
        <ele>147.9</ele>
        <time>2025-02-26T12:02:01Z</time>
      </trkpt>
      <trkpt lat="48.06669" lon="-3.47949">
        <ele>147.9</ele>
        <time>2025-02-26T12:02:02Z</time>
      </trkpt>
      <trkpt lat="48.06669" lon="-3.47949">
        <ele>147.9</ele>
        <time>2025-02-26T12:02:03Z</time>
      </trkpt>
      <trkpt lat="48.06669" lon="-3.47949">
        <ele>147.9</ele>
        <time>2025-02-26T12:02:04Z</time>
      </trkpt>
      <trkpt lat="48.06669" lon="-3.47949">
        <ele>147.9</ele>
        <time>2025-02-26T12:02:05Z</time>
      </trkpt>
      <trkpt lat="48.06669" lon="-3.47949">
        <ele>147.9</ele>
        <time>2025-02-26T12:02:06Z</time>
      </trkpt>
      <trkpt lat="48.06669" lon="-3.47949">
        <ele>147.9</ele>
        <time>2025-02-26T12:02:07Z</time>
      </trkpt>
      <trkpt lat="48.06669" lon="-3.47949">
        <ele>147.9</ele>
        <time>2025-02-26T12:02:08Z</time>
      </trkpt>
      <trkpt lat="48.06669" lon="-3.47949">
        <ele>147.9</ele>
        <time>2025-02-26T12:02:09Z</time>
      </trkpt>
      <trkpt lat="48.06669" lon="-3.47949">
        <ele>147.9</ele>
        <time>2025-02-26T12:02:10Z</time>
      </trkpt>
      <trkpt lat="48.06669" lon="-3.47949">
        <ele>147.9</ele>
        <time>2025-02-26T12:02:11Z</time>
      </trkpt>
      <trkpt lat="48.06669" lon="-3.47949">
        <ele>147.9</ele>
        <time>2025-02-26T12:02:12Z</time>
      </trkpt>
      <trkpt lat="48.06669" lon="-3.47949">
        <ele>147.9</ele>
        <time>2025-02-26T12:02:13Z</time>
      </trkpt>
      <trkpt lat="48.06669" lon="-3.47949">
        <ele>147.9</ele>
        <time>2025-02-26T12:02:14Z</time>
      </trkpt>
      <trkpt lat="48.06669" lon="-3.47949">
        <ele>147.9</ele>
        <time>2025-02-26T12:02:15Z</time>
      </trkpt>
      <trkpt lat="48.06669" lon="-3.47949">
        <ele>147.9</ele>
        <time>2025-02-26T12:02:16Z</time>
      </trkpt>
      <trkpt lat="48.06669" lon="-3.47949">
        <ele>147.9</ele>
        <time>2025-02-26T12:02:17Z</time>
      </trkpt>
      <trkpt lat="48.06669" lon="-3.47949">
        <ele>147.9</ele>
        <time>2025-02-26T12:02:18Z</time>
      </trkpt>
      <trkpt lat="48.06669" lon="-3.47949">
        <ele>147.9</ele>
        <time>2025-02-26T12:02:19Z</time>
      </trkpt>
      <trkpt lat="48.06669" lon="-3.47949">
        <ele>147.9</ele>
        <time>2025-02-26T12:02:20Z</time>
      </trkpt>
      <trkpt lat="48.06669" lon="-3.47949">
        <ele>147.9</ele>
        <time>2025-02-26T12:02:21Z</time>
      </trkpt>
      <trkpt lat="48.06669" lon="-3.47949">
        <ele>147.9</ele>
        <time>2025-02-26T12:02:22Z</time>
      </trkpt>
      <trkpt lat="48.06669" lon="-3.47949">
        <ele>147.9</ele>
        <time>2025-02-26T12:02:23Z</time>
      </trkpt>
      <trkpt lat="48.06669" lon="-3.47949">
        <ele>147.9</ele>
        <time>2025-02-26T12:02:24Z</time>
      </trkpt>
      <trkpt lat="48.06669" lon="-3.47949">
        <ele>147.9</ele>
        <time>2025-02-26T12:02:25Z</time>
      </trkpt>
      <trkpt lat="48.06669" lon="-3.47949">
        <ele>147.9</ele>
        <time>2025-02-26T12:02:26Z</time>
      </trkpt>
      <trkpt lat="48.06669" lon="-3.47949">
        <ele>147.9</ele>
        <time>2025-02-26T12:02:27Z</time>
      </trkpt>
      <trkpt lat="48.06669" lon="-3.47949">
        <ele>147.9</ele>
        <time>2025-02-26T12:02:28Z</time>
      </trkpt>
      <trkpt lat="48.06669" lon="-3.47949">
        <ele>147.9</ele>
        <time>2025-02-26T12:02:29Z</time>
      </trkpt>
      <trkpt lat="48.06669" lon="-3.47949">
        <ele>147.9</ele>
        <time>2025-02-26T12:02:30Z</time>
      </trkpt>
      <trkpt lat="48.06669" lon="-3.47949">
        <ele>147.9</ele>
        <time>2025-02-26T12:02:31Z</time>
      </trkpt>
      <trkpt lat="48.06669" lon="-3.47949">
        <ele>147.9</ele>
        <time>2025-02-26T12:02:32Z</time>
      </trkpt>
      <trkpt lat="48.06669" lon="-3.47949">
        <ele>147.9</ele>
        <time>2025-02-26T12:02:33Z</time>
      </trkpt>
      <trkpt lat="48.06669" lon="-3.47949">
        <ele>147.9</ele>
        <time>2025-02-26T12:02:34Z</time>
      </trkpt>
      <trkpt lat="48.06669" lon="-3.47949">
        <ele>147.9</ele>
        <time>2025-02-26T12:02:35Z</time>
      </trkpt>
      <trkpt lat="48.06669" lon="-3.47949">
        <ele>147.9</ele>
        <time>2025-02-26T12:02:36Z</time>
      </trkpt>
      <trkpt lat="48.06669" lon="-3.47949">
        <ele>147.9</ele>
        <time>2025-02-26T12:02:37Z</time>
      </trkpt>
      <trkpt lat="48.06669" lon="-3.47949">
        <ele>147.9</ele>
        <time>2025-02-26T12:02:38Z</time>
      </trkpt>
      <trkpt lat="48.06669" lon="-3.47949">
        <ele>147.9</ele>
        <time>2025-02-26T12:02:39Z</time>
      </trkpt>
      <trkpt lat="48.06669" lon="-3.47949">
        <ele>147.9</ele>
        <time>2025-02-26T12:02:40Z</time>
      </trkpt>
      <trkpt lat="48.06669" lon="-3.47949">
        <ele>147.9</ele>
        <time>2025-02-26T12:02:41Z</time>
      </trkpt>
      <trkpt lat="48.06669" lon="-3.47949">
        <ele>147.9</ele>
        <time>2025-02-26T12:02:42Z</time>
      </trkpt>
      <trkpt lat="48.06669" lon="-3.47949">
        <ele>147.9</ele>
        <time>2025-02-26T12:02:43Z</time>
      </trkpt>
      <trkpt lat="48.06669" lon="-3.47949">
        <ele>147.9</ele>
        <time>2025-02-26T12:02:44Z</time>
      </trkpt>
      <trkpt lat="48.06669" lon="-3.47949">
        <ele>147.9</ele>
        <time>2025-02-26T12:02:45Z</time>
      </trkpt>
      <trkpt lat="48.06669" lon="-3.47949">
        <ele>147.9</ele>
        <time>2025-02-26T12:02:46Z</time>
      </trkpt>
      <trkpt lat="48.0667" lon="-3.47949">
        <ele>147.9</ele>
        <time>2025-02-26T12:02:47Z</time>
      </trkpt>
      <trkpt lat="48.0667" lon="-3.47949">
        <ele>147.9</ele>
        <time>2025-02-26T12:02:48Z</time>
      </trkpt>
      <trkpt lat="48.0667" lon="-3.47949">
        <ele>147.9</ele>
        <time>2025-02-26T12:02:49Z</time>
      </trkpt>
      <trkpt lat="48.0667" lon="-3.47949">
        <ele>147.9</ele>
        <time>2025-02-26T12:02:50Z</time>
      </trkpt>
      <trkpt lat="48.0667" lon="-3.47949">
        <ele>147.9</ele>
        <time>2025-02-26T12:02:51Z</time>
      </trkpt>
      <trkpt lat="48.0667" lon="-3.47949">
        <ele>147.9</ele>
        <time>2025-02-26T12:02:52Z</time>
      </trkpt>
      <trkpt lat="48.0667" lon="-3.47949">
        <ele>147.9</ele>
        <time>2025-02-26T12:02:53Z</time>
      </trkpt>
      <trkpt lat="48.0667" lon="-3.47949">
        <ele>147.9</ele>
        <time>2025-02-26T12:02:54Z</time>
      </trkpt>
      <trkpt lat="48.0667" lon="-3.47949">
        <ele>147.9</ele>
        <time>2025-02-26T12:02:55Z</time>
      </trkpt>
      <trkpt lat="48.0667" lon="-3.47949">
        <ele>147.9</ele>
        <time>2025-02-26T12:02:56Z</time>
      </trkpt>
      <trkpt lat="48.0667" lon="-3.47949">
        <ele>147.9</ele>
        <time>2025-02-26T12:02:57Z</time>
      </trkpt>
      <trkpt lat="48.0667" lon="-3.47949">
        <ele>147.9</ele>
        <time>2025-02-26T12:02:58Z</time>
      </trkpt>
      <trkpt lat="48.0667" lon="-3.47949">
        <ele>147.9</ele>
        <time>2025-02-26T12:02:59Z</time>
      </trkpt>
      <trkpt lat="48.0667" lon="-3.47949">
        <ele>147.9</ele>
        <time>2025-02-26T12:03:00Z</time>
      </trkpt>
      <trkpt lat="48.0667" lon="-3.47949">
        <ele>147.9</ele>
        <time>2025-02-26T12:03:01Z</time>
      </trkpt>
      <trkpt lat="48.0667" lon="-3.47949">
        <ele>147.9</ele>
        <time>2025-02-26T12:03:02Z</time>
      </trkpt>
      <trkpt lat="48.0667" lon="-3.47949">
        <ele>147.9</ele>
        <time>2025-02-26T12:03:03Z</time>
      </trkpt>
      <trkpt lat="48.0667" lon="-3.47949">
        <ele>147.9</ele>
        <time>2025-02-26T12:03:04Z</time>
      </trkpt>
      <trkpt lat="48.0667" lon="-3.47949">
        <ele>147.9</ele>
        <time>2025-02-26T12:03:05Z</time>
      </trkpt>
      <trkpt lat="48.0667" lon="-3.47949">
        <ele>147.9</ele>
        <time>2025-02-26T12:03:06Z</time>
      </trkpt>
      <trkpt lat="48.0667" lon="-3.47949">
        <ele>147.9</ele>
        <time>2025-02-26T12:03:07Z</time>
      </trkpt>
      <trkpt lat="48.0667" lon="-3.47949">
        <ele>147.9</ele>
        <time>2025-02-26T12:03:08Z</time>
      </trkpt>
      <trkpt lat="48.0667" lon="-3.47949">
        <ele>147.9</ele>
        <time>2025-02-26T12:03:09Z</time>
      </trkpt>
      <trkpt lat="48.0667" lon="-3.47949">
        <ele>147.9</ele>
        <time>2025-02-26T12:03:10Z</time>
      </trkpt>
      <trkpt lat="48.0667" lon="-3.47949">
        <ele>147.9</ele>
        <time>2025-02-26T12:03:11Z</time>
      </trkpt>
      <trkpt lat="48.0667" lon="-3.47949">
        <ele>147.9</ele>
        <time>2025-02-26T12:03:12Z</time>
      </trkpt>
      <trkpt lat="48.0667" lon="-3.47949">
        <ele>147.9</ele>
        <time>2025-02-26T12:03:13Z</time>
      </trkpt>
      <trkpt lat="48.0667" lon="-3.47949">
        <ele>147.9</ele>
        <time>2025-02-26T12:03:14Z</time>
      </trkpt>
      <trkpt lat="48.0667" lon="-3.47949">
        <ele>147.9</ele>
        <time>2025-02-26T12:03:15Z</time>
      </trkpt>
      <trkpt lat="48.0667" lon="-3.47949">
        <ele>147.9</ele>
        <time>2025-02-26T12:03:16Z</time>
      </trkpt>
      <trkpt lat="48.0667" lon="-3.47949">
        <ele>147.9</ele>
        <time>2025-02-26T12:03:17Z</time>
      </trkpt>
      <trkpt lat="48.0667" lon="-3.47949">
        <ele>147.9</ele>
        <time>2025-02-26T12:03:18Z</time>
      </trkpt>
      <trkpt lat="48.0667" lon="-3.47949">
        <ele>147.9</ele>
        <time>2025-02-26T12:03:19Z</time>
      </trkpt>
      <trkpt lat="48.0667" lon="-3.47949">
        <ele>147.9</ele>
        <time>2025-02-26T12:03:20Z</time>
      </trkpt>
      <trkpt lat="48.0667" lon="-3.47949">
        <ele>147.9</ele>
        <time>2025-02-26T12:03:21Z</time>
      </trkpt>
      <trkpt lat="48.0667" lon="-3.47949">
        <ele>147.9</ele>
        <time>2025-02-26T12:03:22Z</time>
      </trkpt>
      <trkpt lat="48.0667" lon="-3.47949">
        <ele>147.9</ele>
        <time>2025-02-26T12:03:23Z</time>
      </trkpt>
      <trkpt lat="48.0667" lon="-3.47949">
        <ele>147.9</ele>
        <time>2025-02-26T12:03:24Z</time>
      </trkpt>
      <trkpt lat="48.0667" lon="-3.47949">
        <ele>147.9</ele>
        <time>2025-02-26T12:03:25Z</time>
      </trkpt>
      <trkpt lat="48.0667" lon="-3.47949">
        <ele>147.9</ele>
        <time>2025-02-26T12:03:26Z</time>
      </trkpt>
      <trkpt lat="48.0667" lon="-3.47949">
        <ele>147.9</ele>
        <time>2025-02-26T12:03:27Z</time>
      </trkpt>
      <trkpt lat="48.0667" lon="-3.47949">
        <ele>147.9</ele>
        <time>2025-02-26T12:03:28Z</time>
      </trkpt>
      <trkpt lat="48.0667" lon="-3.47949">
        <ele>147.9</ele>
        <time>2025-02-26T12:03:29Z</time>
      </trkpt>
      <trkpt lat="48.0667" lon="-3.47949">
        <ele>147.9</ele>
        <time>2025-02-26T12:03:30Z</time>
      </trkpt>
      <trkpt lat="48.0667" lon="-3.47949">
        <ele>147.9</ele>
        <time>2025-02-26T12:03:31Z</time>
      </trkpt>
      <trkpt lat="48.0667" lon="-3.47948">
        <ele>147.9</ele>
        <time>2025-02-26T12:03:32Z</time>
      </trkpt>
      <trkpt lat="48.0667" lon="-3.47948">
        <ele>147.9</ele>
        <time>2025-02-26T12:03:33Z</time>
      </trkpt>
      <trkpt lat="48.0667" lon="-3.47948">
        <ele>147.9</ele>
        <time>2025-02-26T12:03:34Z</time>
      </trkpt>
      <trkpt lat="48.0667" lon="-3.47948">
        <ele>147.9</ele>
        <time>2025-02-26T12:03:35Z</time>
      </trkpt>
      <trkpt lat="48.0667" lon="-3.47948">
        <ele>147.9</ele>
        <time>2025-02-26T12:03:36Z</time>
      </trkpt>
      <trkpt lat="48.0667" lon="-3.47948">
        <ele>147.9</ele>
        <time>2025-02-26T12:03:37Z</time>
      </trkpt>
      <trkpt lat="48.0667" lon="-3.47948">
        <ele>147.9</ele>
        <time>2025-02-26T12:03:38Z</time>
      </trkpt>
      <trkpt lat="48.0667" lon="-3.47948">
        <ele>147.9</ele>
        <time>2025-02-26T12:03:39Z</time>
      </trkpt>
      <trkpt lat="48.0667" lon="-3.47948">
        <ele>147.9</ele>
        <time>2025-02-26T12:03:40Z</time>
      </trkpt>
      <trkpt lat="48.0667" lon="-3.47948">
        <ele>147.9</ele>
        <time>2025-02-26T12:03:41Z</time>
      </trkpt>
      <trkpt lat="48.0667" lon="-3.47948">
        <ele>147.9</ele>
        <time>2025-02-26T12:03:42Z</time>
      </trkpt>
      <trkpt lat="48.0667" lon="-3.47948">
        <ele>147.9</ele>
        <time>2025-02-26T12:03:43Z</time>
      </trkpt>
      <trkpt lat="48.0667" lon="-3.47948">
        <ele>147.9</ele>
        <time>2025-02-26T12:03:44Z</time>
      </trkpt>
      <trkpt lat="48.0667" lon="-3.47948">
        <ele>147.9</ele>
        <time>2025-02-26T12:03:45Z</time>
      </trkpt>
      <trkpt lat="48.0667" lon="-3.47949">
        <ele>147.9</ele>
        <time>2025-02-26T12:03:46Z</time>
      </trkpt>
      <trkpt lat="48.0667" lon="-3.47949">
        <ele>147.9</ele>
        <time>2025-02-26T12:03:47Z</time>
      </trkpt>
      <trkpt lat="48.0667" lon="-3.47949">
        <ele>147.9</ele>
        <time>2025-02-26T12:03:48Z</time>
      </trkpt>
      <trkpt lat="48.0667" lon="-3.47949">
        <ele>147.9</ele>
        <time>2025-02-26T12:03:49Z</time>
      </trkpt>
      <trkpt lat="48.0667" lon="-3.47949">
        <ele>147.9</ele>
        <time>2025-02-26T12:03:50Z</time>
      </trkpt>
      <trkpt lat="48.0667" lon="-3.47949">
        <ele>147.9</ele>
        <time>2025-02-26T12:03:51Z</time>
      </trkpt>
      <trkpt lat="48.0667" lon="-3.47949">
        <ele>147.9</ele>
        <time>2025-02-26T12:03:52Z</time>
      </trkpt>
      <trkpt lat="48.0667" lon="-3.47949">
        <ele>147.9</ele>
        <time>2025-02-26T12:03:53Z</time>
      </trkpt>
      <trkpt lat="48.0667" lon="-3.47949">
        <ele>147.9</ele>
        <time>2025-02-26T12:03:54Z</time>
      </trkpt>
      <trkpt lat="48.0667" lon="-3.47949">
        <ele>147.9</ele>
        <time>2025-02-26T12:03:55Z</time>
      </trkpt>
      <trkpt lat="48.0667" lon="-3.47949">
        <ele>147.9</ele>
        <time>2025-02-26T12:03:56Z</time>
      </trkpt>
      <trkpt lat="48.0667" lon="-3.47949">
        <ele>147.9</ele>
        <time>2025-02-26T12:03:57Z</time>
      </trkpt>
      <trkpt lat="48.0667" lon="-3.47949">
        <ele>147.9</ele>
        <time>2025-02-26T12:03:58Z</time>
      </trkpt>
      <trkpt lat="48.0667" lon="-3.47949">
        <ele>147.9</ele>
        <time>2025-02-26T12:03:59Z</time>
      </trkpt>
      <trkpt lat="48.0667" lon="-3.47949">
        <ele>147.9</ele>
        <time>2025-02-26T12:04:00Z</time>
      </trkpt>
      <trkpt lat="48.0667" lon="-3.47949">
        <ele>147.9</ele>
        <time>2025-02-26T12:04:01Z</time>
      </trkpt>
      <trkpt lat="48.0667" lon="-3.47949">
        <ele>147.9</ele>
        <time>2025-02-26T12:04:02Z</time>
      </trkpt>
      <trkpt lat="48.0667" lon="-3.47949">
        <ele>147.9</ele>
        <time>2025-02-26T12:04:03Z</time>
      </trkpt>
      <trkpt lat="48.0667" lon="-3.47949">
        <ele>147.9</ele>
        <time>2025-02-26T12:04:04Z</time>
      </trkpt>
      <trkpt lat="48.0667" lon="-3.47949">
        <ele>147.9</ele>
        <time>2025-02-26T12:04:05Z</time>
      </trkpt>
      <trkpt lat="48.0667" lon="-3.47949">
        <ele>147.9</ele>
        <time>2025-02-26T12:04:06Z</time>
      </trkpt>
      <trkpt lat="48.0667" lon="-3.47949">
        <ele>147.9</ele>
        <time>2025-02-26T12:04:07Z</time>
      </trkpt>
      <trkpt lat="48.0667" lon="-3.47949">
        <ele>147.9</ele>
        <time>2025-02-26T12:04:08Z</time>
      </trkpt>
      <trkpt lat="48.0667" lon="-3.47949">
        <ele>147.9</ele>
        <time>2025-02-26T12:04:09Z</time>
      </trkpt>
      <trkpt lat="48.0667" lon="-3.47949">
        <ele>147.9</ele>
        <time>2025-02-26T12:04:10Z</time>
      </trkpt>
      <trkpt lat="48.0667" lon="-3.47949">
        <ele>147.9</ele>
        <time>2025-02-26T12:04:11Z</time>
      </trkpt>
      <trkpt lat="48.0667" lon="-3.47949">
        <ele>147.9</ele>
        <time>2025-02-26T12:04:12Z</time>
      </trkpt>
      <trkpt lat="48.0667" lon="-3.47949">
        <ele>147.9</ele>
        <time>2025-02-26T12:04:13Z</time>
      </trkpt>
      <trkpt lat="48.0667" lon="-3.47949">
        <ele>147.9</ele>
        <time>2025-02-26T12:04:14Z</time>
      </trkpt>
      <trkpt lat="48.0667" lon="-3.47949">
        <ele>147.9</ele>
        <time>2025-02-26T12:04:15Z</time>
      </trkpt>
      <trkpt lat="48.0667" lon="-3.47949">
        <ele>147.9</ele>
        <time>2025-02-26T12:04:16Z</time>
      </trkpt>
      <trkpt lat="48.0667" lon="-3.47949">
        <ele>147.9</ele>
        <time>2025-02-26T12:04:17Z</time>
      </trkpt>
      <trkpt lat="48.0667" lon="-3.47949">
        <ele>147.9</ele>
        <time>2025-02-26T12:04:18Z</time>
      </trkpt>
      <trkpt lat="48.0667" lon="-3.47949">
        <ele>147.9</ele>
        <time>2025-02-26T12:04:19Z</time>
      </trkpt>
      <trkpt lat="48.0667" lon="-3.47949">
        <ele>147.9</ele>
        <time>2025-02-26T12:04:20Z</time>
      </trkpt>
      <trkpt lat="48.0667" lon="-3.47949">
        <ele>147.9</ele>
        <time>2025-02-26T12:04:21Z</time>
      </trkpt>
      <trkpt lat="48.0667" lon="-3.47949">
        <ele>147.9</ele>
        <time>2025-02-26T12:04:22Z</time>
      </trkpt>
      <trkpt lat="48.0667" lon="-3.47949">
        <ele>147.9</ele>
        <time>2025-02-26T12:04:23Z</time>
      </trkpt>
      <trkpt lat="48.0667" lon="-3.47949">
        <ele>147.9</ele>
        <time>2025-02-26T12:04:24Z</time>
      </trkpt>
      <trkpt lat="48.0667" lon="-3.47949">
        <ele>147.9</ele>
        <time>2025-02-26T12:04:25Z</time>
      </trkpt>
      <trkpt lat="48.0667" lon="-3.47949">
        <ele>147.9</ele>
        <time>2025-02-26T12:04:26Z</time>
      </trkpt>
      <trkpt lat="48.0667" lon="-3.47949">
        <ele>147.9</ele>
        <time>2025-02-26T12:04:27Z</time>
      </trkpt>
      <trkpt lat="48.0667" lon="-3.47949">
        <ele>147.9</ele>
        <time>2025-02-26T12:04:28Z</time>
      </trkpt>
      <trkpt lat="48.06671" lon="-3.47949">
        <ele>147.9</ele>
        <time>2025-02-26T12:04:29Z</time>
      </trkpt>
      <trkpt lat="48.06671" lon="-3.47949">
        <ele>147.9</ele>
        <time>2025-02-26T12:04:30Z</time>
      </trkpt>
      <trkpt lat="48.06671" lon="-3.47949">
        <ele>147.9</ele>
        <time>2025-02-26T12:04:31Z</time>
      </trkpt>
      <trkpt lat="48.0667" lon="-3.47948">
        <ele>147.9</ele>
        <time>2025-02-26T12:04:32Z</time>
      </trkpt>
      <trkpt lat="48.0667" lon="-3.47949">
        <ele>147.9</ele>
        <time>2025-02-26T12:04:33Z</time>
      </trkpt>
      <trkpt lat="48.0667" lon="-3.47949">
        <ele>147.9</ele>
        <time>2025-02-26T12:04:34Z</time>
      </trkpt>
      <trkpt lat="48.0667" lon="-3.47949">
        <ele>147.9</ele>
        <time>2025-02-26T12:04:35Z</time>
      </trkpt>
      <trkpt lat="48.0667" lon="-3.47949">
        <ele>147.9</ele>
        <time>2025-02-26T12:04:36Z</time>
      </trkpt>
      <trkpt lat="48.0667" lon="-3.47949">
        <ele>147.9</ele>
        <time>2025-02-26T12:04:37Z</time>
      </trkpt>
      <trkpt lat="48.06669" lon="-3.47949">
        <ele>147.9</ele>
        <time>2025-02-26T12:04:38Z</time>
      </trkpt>
      <trkpt lat="48.0667" lon="-3.47949">
        <ele>147.9</ele>
        <time>2025-02-26T12:04:39Z</time>
      </trkpt>
      <trkpt lat="48.06669" lon="-3.47949">
        <ele>147.9</ele>
        <time>2025-02-26T12:04:40Z</time>
      </trkpt>
      <trkpt lat="48.06669" lon="-3.47949">
        <ele>147.9</ele>
        <time>2025-02-26T12:04:41Z</time>
      </trkpt>
      <trkpt lat="48.06668" lon="-3.47949">
        <ele>147.9</ele>
        <time>2025-02-26T12:04:42Z</time>
      </trkpt>
      <trkpt lat="48.06668" lon="-3.47949">
        <ele>148</ele>
        <time>2025-02-26T12:04:43Z</time>
      </trkpt>
      <trkpt lat="48.06667" lon="-3.4795">
        <ele>148</ele>
        <time>2025-02-26T12:04:44Z</time>
      </trkpt>
      <trkpt lat="48.06667" lon="-3.4795">
        <ele>148</ele>
        <time>2025-02-26T12:04:45Z</time>
      </trkpt>
      <trkpt lat="48.06667" lon="-3.4795">
        <ele>148</ele>
        <time>2025-02-26T12:04:46Z</time>
      </trkpt>
      <trkpt lat="48.06667" lon="-3.4795">
        <ele>148</ele>
        <time>2025-02-26T12:04:47Z</time>
      </trkpt>
      <trkpt lat="48.06667" lon="-3.4795">
        <ele>148</ele>
        <time>2025-02-26T12:04:48Z</time>
      </trkpt>
      <trkpt lat="48.06667" lon="-3.4795">
        <ele>148</ele>
        <time>2025-02-26T12:04:49Z</time>
      </trkpt>
      <trkpt lat="48.06667" lon="-3.4795">
        <ele>148</ele>
        <time>2025-02-26T12:04:50Z</time>
      </trkpt>
      <trkpt lat="48.06667" lon="-3.4795">
        <ele>148</ele>
        <time>2025-02-26T12:04:51Z</time>
      </trkpt>
      <trkpt lat="48.06667" lon="-3.4795">
        <ele>148</ele>
        <time>2025-02-26T12:04:52Z</time>
      </trkpt>
      <trkpt lat="48.06667" lon="-3.4795">
        <ele>148</ele>
        <time>2025-02-26T12:04:53Z</time>
      </trkpt>
      <trkpt lat="48.06667" lon="-3.4795">
        <ele>148</ele>
        <time>2025-02-26T12:04:54Z</time>
      </trkpt>
      <trkpt lat="48.06667" lon="-3.4795">
        <ele>148</ele>
        <time>2025-02-26T12:04:55Z</time>
      </trkpt>
      <trkpt lat="48.06668" lon="-3.4795">
        <ele>148</ele>
        <time>2025-02-26T12:04:56Z</time>
      </trkpt>
      <trkpt lat="48.06668" lon="-3.4795">
        <ele>148</ele>
        <time>2025-02-26T12:04:57Z</time>
      </trkpt>
      <trkpt lat="48.06668" lon="-3.4795">
        <ele>148</ele>
        <time>2025-02-26T12:04:58Z</time>
      </trkpt>
      <trkpt lat="48.06668" lon="-3.4795">
        <ele>148</ele>
        <time>2025-02-26T12:04:59Z</time>
      </trkpt>
      <trkpt lat="48.06668" lon="-3.4795">
        <ele>148</ele>
        <time>2025-02-26T12:05:00Z</time>
      </trkpt>
      <trkpt lat="48.06668" lon="-3.4795">
        <ele>148</ele>
        <time>2025-02-26T12:05:01Z</time>
      </trkpt>
      <trkpt lat="48.06668" lon="-3.4795">
        <ele>148</ele>
        <time>2025-02-26T12:05:02Z</time>
      </trkpt>
      <trkpt lat="48.06668" lon="-3.47949">
        <ele>148</ele>
        <time>2025-02-26T12:05:03Z</time>
      </trkpt>
      <trkpt lat="48.06668" lon="-3.47949">
        <ele>148</ele>
        <time>2025-02-26T12:05:04Z</time>
      </trkpt>
      <trkpt lat="48.06669" lon="-3.47949">
        <ele>147.9</ele>
        <time>2025-02-26T12:05:05Z</time>
      </trkpt>
      <trkpt lat="48.06669" lon="-3.47949">
        <ele>147.9</ele>
        <time>2025-02-26T12:05:06Z</time>
      </trkpt>
      <trkpt lat="48.06669" lon="-3.47949">
        <ele>147.9</ele>
        <time>2025-02-26T12:05:07Z</time>
      </trkpt>
      <trkpt lat="48.06669" lon="-3.47949">
        <ele>147.9</ele>
        <time>2025-02-26T12:05:08Z</time>
      </trkpt>
      <trkpt lat="48.06669" lon="-3.47948">
        <ele>147.9</ele>
        <time>2025-02-26T12:05:09Z</time>
      </trkpt>
      <trkpt lat="48.06669" lon="-3.47948">
        <ele>147.9</ele>
        <time>2025-02-26T12:05:10Z</time>
      </trkpt>
      <trkpt lat="48.06669" lon="-3.47948">
        <ele>147.9</ele>
        <time>2025-02-26T12:05:11Z</time>
      </trkpt>
      <trkpt lat="48.06669" lon="-3.47947">
        <ele>147.9</ele>
        <time>2025-02-26T12:05:12Z</time>
      </trkpt>
      <trkpt lat="48.06669" lon="-3.47947">
        <ele>147.9</ele>
        <time>2025-02-26T12:05:13Z</time>
      </trkpt>
      <trkpt lat="48.06669" lon="-3.47947">
        <ele>147.9</ele>
        <time>2025-02-26T12:05:14Z</time>
      </trkpt>
      <trkpt lat="48.06669" lon="-3.47947">
        <ele>147.9</ele>
        <time>2025-02-26T12:05:15Z</time>
      </trkpt>
      <trkpt lat="48.06669" lon="-3.47947">
        <ele>147.9</ele>
        <time>2025-02-26T12:05:16Z</time>
      </trkpt>
      <trkpt lat="48.06669" lon="-3.47947">
        <ele>147.9</ele>
        <time>2025-02-26T12:05:17Z</time>
      </trkpt>
      <trkpt lat="48.06669" lon="-3.47947">
        <ele>147.9</ele>
        <time>2025-02-26T12:05:18Z</time>
      </trkpt>
      <trkpt lat="48.06669" lon="-3.47947">
        <ele>147.9</ele>
        <time>2025-02-26T12:05:19Z</time>
      </trkpt>
      <trkpt lat="48.06669" lon="-3.47947">
        <ele>147.9</ele>
        <time>2025-02-26T12:05:20Z</time>
      </trkpt>
      <trkpt lat="48.06669" lon="-3.47947">
        <ele>147.9</ele>
        <time>2025-02-26T12:05:21Z</time>
      </trkpt>
      <trkpt lat="48.06669" lon="-3.47947">
        <ele>147.9</ele>
        <time>2025-02-26T12:05:22Z</time>
      </trkpt>
      <trkpt lat="48.06669" lon="-3.47947">
        <ele>147.9</ele>
        <time>2025-02-26T12:05:23Z</time>
      </trkpt>
      <trkpt lat="48.06669" lon="-3.47947">
        <ele>147.9</ele>
        <time>2025-02-26T12:05:24Z</time>
      </trkpt>
      <trkpt lat="48.06669" lon="-3.47947">
        <ele>147.9</ele>
        <time>2025-02-26T12:05:25Z</time>
      </trkpt>
      <trkpt lat="48.06669" lon="-3.47947">
        <ele>147.9</ele>
        <time>2025-02-26T12:05:26Z</time>
      </trkpt>
      <trkpt lat="48.06669" lon="-3.47947">
        <ele>147.9</ele>
        <time>2025-02-26T12:05:27Z</time>
      </trkpt>
      <trkpt lat="48.06669" lon="-3.47947">
        <ele>147.9</ele>
        <time>2025-02-26T12:05:28Z</time>
      </trkpt>
      <trkpt lat="48.06669" lon="-3.47947">
        <ele>147.9</ele>
        <time>2025-02-26T12:05:29Z</time>
      </trkpt>
      <trkpt lat="48.06669" lon="-3.47947">
        <ele>147.9</ele>
        <time>2025-02-26T12:05:30Z</time>
      </trkpt>
      <trkpt lat="48.06669" lon="-3.47947">
        <ele>147.9</ele>
        <time>2025-02-26T12:05:31Z</time>
      </trkpt>
      <trkpt lat="48.06669" lon="-3.47947">
        <ele>147.9</ele>
        <time>2025-02-26T12:05:32Z</time>
      </trkpt>
      <trkpt lat="48.06669" lon="-3.47947">
        <ele>147.9</ele>
        <time>2025-02-26T12:05:33Z</time>
      </trkpt>
      <trkpt lat="48.06669" lon="-3.47947">
        <ele>147.9</ele>
        <time>2025-02-26T12:05:34Z</time>
      </trkpt>
      <trkpt lat="48.06669" lon="-3.47947">
        <ele>147.9</ele>
        <time>2025-02-26T12:05:35Z</time>
      </trkpt>
      <trkpt lat="48.06669" lon="-3.47947">
        <ele>147.9</ele>
        <time>2025-02-26T12:05:36Z</time>
      </trkpt>
      <trkpt lat="48.06669" lon="-3.47947">
        <ele>147.9</ele>
        <time>2025-02-26T12:05:37Z</time>
      </trkpt>
      <trkpt lat="48.06669" lon="-3.47947">
        <ele>147.9</ele>
        <time>2025-02-26T12:05:38Z</time>
      </trkpt>
      <trkpt lat="48.06669" lon="-3.47947">
        <ele>147.9</ele>
        <time>2025-02-26T12:05:39Z</time>
      </trkpt>
      <trkpt lat="48.06669" lon="-3.47947">
        <ele>147.9</ele>
        <time>2025-02-26T12:05:40Z</time>
      </trkpt>
      <trkpt lat="48.06669" lon="-3.47947">
        <ele>147.9</ele>
        <time>2025-02-26T12:05:41Z</time>
      </trkpt>
      <trkpt lat="48.06669" lon="-3.47947">
        <ele>147.9</ele>
        <time>2025-02-26T12:05:42Z</time>
      </trkpt>
      <trkpt lat="48.06669" lon="-3.47947">
        <ele>147.9</ele>
        <time>2025-02-26T12:05:43Z</time>
      </trkpt>
      <trkpt lat="48.06669" lon="-3.47947">
        <ele>147.9</ele>
        <time>2025-02-26T12:05:44Z</time>
      </trkpt>
      <trkpt lat="48.06669" lon="-3.47947">
        <ele>147.9</ele>
        <time>2025-02-26T12:05:45Z</time>
      </trkpt>
      <trkpt lat="48.06669" lon="-3.47947">
        <ele>147.9</ele>
        <time>2025-02-26T12:05:46Z</time>
      </trkpt>
      <trkpt lat="48.06669" lon="-3.47947">
        <ele>147.9</ele>
        <time>2025-02-26T12:05:47Z</time>
      </trkpt>
      <trkpt lat="48.06669" lon="-3.47947">
        <ele>147.9</ele>
        <time>2025-02-26T12:05:48Z</time>
      </trkpt>
      <trkpt lat="48.06669" lon="-3.47947">
        <ele>147.9</ele>
        <time>2025-02-26T12:05:49Z</time>
      </trkpt>
      <trkpt lat="48.06669" lon="-3.47947">
        <ele>147.9</ele>
        <time>2025-02-26T12:05:50Z</time>
      </trkpt>
      <trkpt lat="48.06669" lon="-3.47947">
        <ele>147.9</ele>
        <time>2025-02-26T12:05:51Z</time>
      </trkpt>
      <trkpt lat="48.06669" lon="-3.47947">
        <ele>147.9</ele>
        <time>2025-02-26T12:05:52Z</time>
      </trkpt>
      <trkpt lat="48.06669" lon="-3.47947">
        <ele>147.9</ele>
        <time>2025-02-26T12:05:53Z</time>
      </trkpt>
      <trkpt lat="48.06669" lon="-3.47946">
        <ele>147.9</ele>
        <time>2025-02-26T12:05:54Z</time>
      </trkpt>
      <trkpt lat="48.06669" lon="-3.47946">
        <ele>147.9</ele>
        <time>2025-02-26T12:05:55Z</time>
      </trkpt>
      <trkpt lat="48.06669" lon="-3.47946">
        <ele>147.9</ele>
        <time>2025-02-26T12:05:56Z</time>
      </trkpt>
      <trkpt lat="48.06669" lon="-3.47946">
        <ele>147.9</ele>
        <time>2025-02-26T12:05:57Z</time>
      </trkpt>
      <trkpt lat="48.06669" lon="-3.47946">
        <ele>147.9</ele>
        <time>2025-02-26T12:05:58Z</time>
      </trkpt>
      <trkpt lat="48.06669" lon="-3.47946">
        <ele>147.9</ele>
        <time>2025-02-26T12:05:59Z</time>
      </trkpt>
      <trkpt lat="48.06669" lon="-3.47946">
        <ele>147.9</ele>
        <time>2025-02-26T12:06:00Z</time>
      </trkpt>
      <trkpt lat="48.06669" lon="-3.47946">
        <ele>147.9</ele>
        <time>2025-02-26T12:06:01Z</time>
      </trkpt>
      <trkpt lat="48.06669" lon="-3.47946">
        <ele>147.9</ele>
        <time>2025-02-26T12:06:02Z</time>
      </trkpt>
      <trkpt lat="48.06669" lon="-3.47946">
        <ele>147.9</ele>
        <time>2025-02-26T12:06:03Z</time>
      </trkpt>
      <trkpt lat="48.06669" lon="-3.47946">
        <ele>147.9</ele>
        <time>2025-02-26T12:06:04Z</time>
      </trkpt>
      <trkpt lat="48.06669" lon="-3.47946">
        <ele>147.9</ele>
        <time>2025-02-26T12:06:05Z</time>
      </trkpt>
      <trkpt lat="48.06669" lon="-3.47946">
        <ele>147.9</ele>
        <time>2025-02-26T12:06:06Z</time>
      </trkpt>
      <trkpt lat="48.06669" lon="-3.47946">
        <ele>147.9</ele>
        <time>2025-02-26T12:06:07Z</time>
      </trkpt>
      <trkpt lat="48.06669" lon="-3.47946">
        <ele>147.9</ele>
        <time>2025-02-26T12:06:08Z</time>
      </trkpt>
      <trkpt lat="48.06669" lon="-3.47946">
        <ele>147.9</ele>
        <time>2025-02-26T12:06:09Z</time>
      </trkpt>
      <trkpt lat="48.06669" lon="-3.47946">
        <ele>147.9</ele>
        <time>2025-02-26T12:06:10Z</time>
      </trkpt>
      <trkpt lat="48.06669" lon="-3.47946">
        <ele>147.9</ele>
        <time>2025-02-26T12:06:11Z</time>
      </trkpt>
      <trkpt lat="48.06669" lon="-3.47946">
        <ele>147.9</ele>
        <time>2025-02-26T12:06:12Z</time>
      </trkpt>
      <trkpt lat="48.06669" lon="-3.47946">
        <ele>147.9</ele>
        <time>2025-02-26T12:06:13Z</time>
      </trkpt>
      <trkpt lat="48.06669" lon="-3.47946">
        <ele>147.9</ele>
        <time>2025-02-26T12:06:14Z</time>
      </trkpt>
      <trkpt lat="48.06669" lon="-3.47946">
        <ele>147.9</ele>
        <time>2025-02-26T12:06:15Z</time>
      </trkpt>
      <trkpt lat="48.06669" lon="-3.47946">
        <ele>147.9</ele>
        <time>2025-02-26T12:06:16Z</time>
      </trkpt>
      <trkpt lat="48.06669" lon="-3.47946">
        <ele>147.9</ele>
        <time>2025-02-26T12:06:17Z</time>
      </trkpt>
      <trkpt lat="48.06669" lon="-3.47946">
        <ele>147.9</ele>
        <time>2025-02-26T12:06:18Z</time>
      </trkpt>
      <trkpt lat="48.06669" lon="-3.47946">
        <ele>147.9</ele>
        <time>2025-02-26T12:06:19Z</time>
      </trkpt>
      <trkpt lat="48.06669" lon="-3.47946">
        <ele>147.9</ele>
        <time>2025-02-26T12:06:20Z</time>
      </trkpt>
      <trkpt lat="48.06669" lon="-3.47946">
        <ele>147.9</ele>
        <time>2025-02-26T12:06:21Z</time>
      </trkpt>
      <trkpt lat="48.06669" lon="-3.47946">
        <ele>147.9</ele>
        <time>2025-02-26T12:06:22Z</time>
      </trkpt>
      <trkpt lat="48.06669" lon="-3.47946">
        <ele>147.9</ele>
        <time>2025-02-26T12:06:23Z</time>
      </trkpt>
      <trkpt lat="48.06669" lon="-3.47946">
        <ele>147.9</ele>
        <time>2025-02-26T12:06:24Z</time>
      </trkpt>
      <trkpt lat="48.06669" lon="-3.47946">
        <ele>147.9</ele>
        <time>2025-02-26T12:06:25Z</time>
      </trkpt>
      <trkpt lat="48.06669" lon="-3.47946">
        <ele>147.9</ele>
        <time>2025-02-26T12:06:26Z</time>
      </trkpt>
      <trkpt lat="48.06669" lon="-3.47946">
        <ele>147.9</ele>
        <time>2025-02-26T12:06:27Z</time>
      </trkpt>
      <trkpt lat="48.06669" lon="-3.47946">
        <ele>147.9</ele>
        <time>2025-02-26T12:06:28Z</time>
      </trkpt>
      <trkpt lat="48.06669" lon="-3.47946">
        <ele>147.9</ele>
        <time>2025-02-26T12:06:29Z</time>
      </trkpt>
      <trkpt lat="48.06669" lon="-3.47946">
        <ele>147.9</ele>
        <time>2025-02-26T12:06:30Z</time>
      </trkpt>
      <trkpt lat="48.06669" lon="-3.47946">
        <ele>147.9</ele>
        <time>2025-02-26T12:06:31Z</time>
      </trkpt>
      <trkpt lat="48.06669" lon="-3.47946">
        <ele>147.9</ele>
        <time>2025-02-26T12:06:32Z</time>
      </trkpt>
      <trkpt lat="48.06669" lon="-3.47946">
        <ele>147.9</ele>
        <time>2025-02-26T12:06:33Z</time>
      </trkpt>
      <trkpt lat="48.06669" lon="-3.47946">
        <ele>147.9</ele>
        <time>2025-02-26T12:06:34Z</time>
      </trkpt>
      <trkpt lat="48.06669" lon="-3.47946">
        <ele>147.9</ele>
        <time>2025-02-26T12:06:35Z</time>
      </trkpt>
      <trkpt lat="48.06669" lon="-3.47946">
        <ele>147.9</ele>
        <time>2025-02-26T12:06:36Z</time>
      </trkpt>
      <trkpt lat="48.06669" lon="-3.47946">
        <ele>147.9</ele>
        <time>2025-02-26T12:06:37Z</time>
      </trkpt>
      <trkpt lat="48.06669" lon="-3.47946">
        <ele>147.9</ele>
        <time>2025-02-26T12:06:38Z</time>
      </trkpt>
      <trkpt lat="48.06669" lon="-3.47946">
        <ele>147.9</ele>
        <time>2025-02-26T12:06:39Z</time>
      </trkpt>
      <trkpt lat="48.06669" lon="-3.47946">
        <ele>147.9</ele>
        <time>2025-02-26T12:06:40Z</time>
      </trkpt>
      <trkpt lat="48.06669" lon="-3.47946">
        <ele>147.9</ele>
        <time>2025-02-26T12:06:41Z</time>
      </trkpt>
      <trkpt lat="48.06669" lon="-3.47946">
        <ele>147.9</ele>
        <time>2025-02-26T12:06:42Z</time>
      </trkpt>
      <trkpt lat="48.06669" lon="-3.47946">
        <ele>147.9</ele>
        <time>2025-02-26T12:06:43Z</time>
      </trkpt>
      <trkpt lat="48.06669" lon="-3.47946">
        <ele>147.9</ele>
        <time>2025-02-26T12:06:44Z</time>
      </trkpt>
      <trkpt lat="48.06669" lon="-3.47946">
        <ele>147.9</ele>
        <time>2025-02-26T12:06:45Z</time>
      </trkpt>
      <trkpt lat="48.06669" lon="-3.47946">
        <ele>147.9</ele>
        <time>2025-02-26T12:06:46Z</time>
      </trkpt>
      <trkpt lat="48.06669" lon="-3.47946">
        <ele>147.9</ele>
        <time>2025-02-26T12:06:47Z</time>
      </trkpt>
      <trkpt lat="48.06669" lon="-3.47946">
        <ele>147.9</ele>
        <time>2025-02-26T12:06:48Z</time>
      </trkpt>
      <trkpt lat="48.06669" lon="-3.47946">
        <ele>147.9</ele>
        <time>2025-02-26T12:06:49Z</time>
      </trkpt>
      <trkpt lat="48.06669" lon="-3.47946">
        <ele>147.9</ele>
        <time>2025-02-26T12:06:50Z</time>
      </trkpt>
      <trkpt lat="48.06669" lon="-3.47946">
        <ele>147.9</ele>
        <time>2025-02-26T12:06:51Z</time>
      </trkpt>
      <trkpt lat="48.06669" lon="-3.47946">
        <ele>147.9</ele>
        <time>2025-02-26T12:06:52Z</time>
      </trkpt>
      <trkpt lat="48.06669" lon="-3.47946">
        <ele>147.9</ele>
        <time>2025-02-26T12:06:53Z</time>
      </trkpt>
      <trkpt lat="48.06669" lon="-3.47946">
        <ele>147.9</ele>
        <time>2025-02-26T12:06:54Z</time>
      </trkpt>
      <trkpt lat="48.06669" lon="-3.47946">
        <ele>147.9</ele>
        <time>2025-02-26T12:06:55Z</time>
      </trkpt>
      <trkpt lat="48.06669" lon="-3.47946">
        <ele>147.9</ele>
        <time>2025-02-26T12:06:56Z</time>
      </trkpt>
      <trkpt lat="48.06669" lon="-3.47946">
        <ele>147.9</ele>
        <time>2025-02-26T12:06:57Z</time>
      </trkpt>
      <trkpt lat="48.06669" lon="-3.47946">
        <ele>147.9</ele>
        <time>2025-02-26T12:06:58Z</time>
      </trkpt>
      <trkpt lat="48.06669" lon="-3.47946">
        <ele>147.9</ele>
        <time>2025-02-26T12:06:59Z</time>
      </trkpt>
      <trkpt lat="48.06669" lon="-3.47946">
        <ele>147.9</ele>
        <time>2025-02-26T12:07:00Z</time>
      </trkpt>
      <trkpt lat="48.06669" lon="-3.47946">
        <ele>147.9</ele>
        <time>2025-02-26T12:07:01Z</time>
      </trkpt>
      <trkpt lat="48.06669" lon="-3.47946">
        <ele>147.9</ele>
        <time>2025-02-26T12:07:02Z</time>
      </trkpt>
      <trkpt lat="48.06669" lon="-3.47945">
        <ele>147.9</ele>
        <time>2025-02-26T12:07:03Z</time>
      </trkpt>
      <trkpt lat="48.06669" lon="-3.47945">
        <ele>147.9</ele>
        <time>2025-02-26T12:07:04Z</time>
      </trkpt>
      <trkpt lat="48.06669" lon="-3.47945">
        <ele>147.9</ele>
        <time>2025-02-26T12:07:05Z</time>
      </trkpt>
      <trkpt lat="48.06668" lon="-3.47945">
        <ele>147.9</ele>
        <time>2025-02-26T12:07:06Z</time>
      </trkpt>
      <trkpt lat="48.06668" lon="-3.47945">
        <ele>147.9</ele>
        <time>2025-02-26T12:07:07Z</time>
      </trkpt>
      <trkpt lat="48.06668" lon="-3.47945">
        <ele>147.9</ele>
        <time>2025-02-26T12:07:08Z</time>
      </trkpt>
      <trkpt lat="48.06668" lon="-3.47945">
        <ele>147.9</ele>
        <time>2025-02-26T12:07:09Z</time>
      </trkpt>
      <trkpt lat="48.06668" lon="-3.47945">
        <ele>147.9</ele>
        <time>2025-02-26T12:07:10Z</time>
      </trkpt>
      <trkpt lat="48.06668" lon="-3.47945">
        <ele>147.9</ele>
        <time>2025-02-26T12:07:11Z</time>
      </trkpt>
      <trkpt lat="48.06668" lon="-3.47945">
        <ele>147.9</ele>
        <time>2025-02-26T12:07:12Z</time>
      </trkpt>
      <trkpt lat="48.06668" lon="-3.47945">
        <ele>147.9</ele>
        <time>2025-02-26T12:07:13Z</time>
      </trkpt>
      <trkpt lat="48.06668" lon="-3.47945">
        <ele>147.9</ele>
        <time>2025-02-26T12:07:14Z</time>
      </trkpt>
      <trkpt lat="48.06668" lon="-3.47945">
        <ele>147.9</ele>
        <time>2025-02-26T12:07:15Z</time>
      </trkpt>
      <trkpt lat="48.06668" lon="-3.47945">
        <ele>147.9</ele>
        <time>2025-02-26T12:07:16Z</time>
      </trkpt>
      <trkpt lat="48.06668" lon="-3.47945">
        <ele>147.9</ele>
        <time>2025-02-26T12:07:17Z</time>
      </trkpt>
      <trkpt lat="48.06668" lon="-3.47945">
        <ele>147.9</ele>
        <time>2025-02-26T12:07:18Z</time>
      </trkpt>
      <trkpt lat="48.06668" lon="-3.47945">
        <ele>147.9</ele>
        <time>2025-02-26T12:07:19Z</time>
      </trkpt>
      <trkpt lat="48.06668" lon="-3.47945">
        <ele>147.9</ele>
        <time>2025-02-26T12:07:20Z</time>
      </trkpt>
      <trkpt lat="48.06668" lon="-3.47945">
        <ele>147.9</ele>
        <time>2025-02-26T12:07:21Z</time>
      </trkpt>
      <trkpt lat="48.06668" lon="-3.47945">
        <ele>147.9</ele>
        <time>2025-02-26T12:07:22Z</time>
      </trkpt>
      <trkpt lat="48.06668" lon="-3.47945">
        <ele>147.9</ele>
        <time>2025-02-26T12:07:23Z</time>
      </trkpt>
      <trkpt lat="48.06668" lon="-3.47945">
        <ele>147.9</ele>
        <time>2025-02-26T12:07:24Z</time>
      </trkpt>
      <trkpt lat="48.06668" lon="-3.47945">
        <ele>147.9</ele>
        <time>2025-02-26T12:07:25Z</time>
      </trkpt>
      <trkpt lat="48.06668" lon="-3.47945">
        <ele>147.9</ele>
        <time>2025-02-26T12:07:26Z</time>
      </trkpt>
      <trkpt lat="48.06668" lon="-3.47945">
        <ele>147.9</ele>
        <time>2025-02-26T12:07:27Z</time>
      </trkpt>
      <trkpt lat="48.06668" lon="-3.47945">
        <ele>147.9</ele>
        <time>2025-02-26T12:07:28Z</time>
      </trkpt>
      <trkpt lat="48.06668" lon="-3.47945">
        <ele>147.9</ele>
        <time>2025-02-26T12:07:29Z</time>
      </trkpt>
      <trkpt lat="48.06669" lon="-3.47946">
        <ele>147.9</ele>
        <time>2025-02-26T12:07:30Z</time>
      </trkpt>
      <trkpt lat="48.06669" lon="-3.47946">
        <ele>147.9</ele>
        <time>2025-02-26T12:07:31Z</time>
      </trkpt>
      <trkpt lat="48.06669" lon="-3.47946">
        <ele>147.9</ele>
        <time>2025-02-26T12:07:32Z</time>
      </trkpt>
      <trkpt lat="48.06669" lon="-3.47944">
        <ele>147.9</ele>
        <time>2025-02-26T12:07:33Z</time>
      </trkpt>
      <trkpt lat="48.0667" lon="-3.47944">
        <ele>147.9</ele>
        <time>2025-02-26T12:07:34Z</time>
      </trkpt>
      <trkpt lat="48.0667" lon="-3.47944">
        <ele>147.9</ele>
        <time>2025-02-26T12:07:35Z</time>
      </trkpt>
      <trkpt lat="48.0667" lon="-3.47944">
        <ele>147.9</ele>
        <time>2025-02-26T12:07:36Z</time>
      </trkpt>
      <trkpt lat="48.0667" lon="-3.47944">
        <ele>147.9</ele>
        <time>2025-02-26T12:07:37Z</time>
      </trkpt>
      <trkpt lat="48.0667" lon="-3.47944">
        <ele>147.9</ele>
        <time>2025-02-26T12:07:38Z</time>
      </trkpt>
      <trkpt lat="48.0667" lon="-3.47944">
        <ele>147.9</ele>
        <time>2025-02-26T12:07:39Z</time>
      </trkpt>
      <trkpt lat="48.0667" lon="-3.47944">
        <ele>147.9</ele>
        <time>2025-02-26T12:07:40Z</time>
      </trkpt>
      <trkpt lat="48.0667" lon="-3.47944">
        <ele>147.9</ele>
        <time>2025-02-26T12:07:41Z</time>
      </trkpt>
      <trkpt lat="48.0667" lon="-3.47943">
        <ele>147.9</ele>
        <time>2025-02-26T12:07:42Z</time>
      </trkpt>
      <trkpt lat="48.0667" lon="-3.47943">
        <ele>147.8</ele>
        <time>2025-02-26T12:07:43Z</time>
      </trkpt>
      <trkpt lat="48.0667" lon="-3.47942">
        <ele>147.8</ele>
        <time>2025-02-26T12:07:44Z</time>
      </trkpt>
      <trkpt lat="48.0667" lon="-3.47943">
        <ele>147.8</ele>
        <time>2025-02-26T12:07:45Z</time>
      </trkpt>
      <trkpt lat="48.0667" lon="-3.47943">
        <ele>147.8</ele>
        <time>2025-02-26T12:07:46Z</time>
      </trkpt>
      <trkpt lat="48.0667" lon="-3.47943">
        <ele>147.8</ele>
        <time>2025-02-26T12:07:47Z</time>
      </trkpt>
      <trkpt lat="48.0667" lon="-3.47943">
        <ele>147.8</ele>
        <time>2025-02-26T12:07:48Z</time>
      </trkpt>
      <trkpt lat="48.0667" lon="-3.47943">
        <ele>147.8</ele>
        <time>2025-02-26T12:07:49Z</time>
      </trkpt>
      <trkpt lat="48.0667" lon="-3.47943">
        <ele>147.8</ele>
        <time>2025-02-26T12:07:50Z</time>
      </trkpt>
      <trkpt lat="48.0667" lon="-3.47943">
        <ele>147.8</ele>
        <time>2025-02-26T12:07:51Z</time>
      </trkpt>
      <trkpt lat="48.0667" lon="-3.47943">
        <ele>147.8</ele>
        <time>2025-02-26T12:07:52Z</time>
      </trkpt>
      <trkpt lat="48.0667" lon="-3.47943">
        <ele>147.8</ele>
        <time>2025-02-26T12:07:53Z</time>
      </trkpt>
      <trkpt lat="48.0667" lon="-3.47943">
        <ele>147.8</ele>
        <time>2025-02-26T12:07:54Z</time>
      </trkpt>
      <trkpt lat="48.0667" lon="-3.47942">
        <ele>147.8</ele>
        <time>2025-02-26T12:07:55Z</time>
      </trkpt>
      <trkpt lat="48.0667" lon="-3.47943">
        <ele>147.8</ele>
        <time>2025-02-26T12:07:56Z</time>
      </trkpt>
      <trkpt lat="48.06669" lon="-3.47943">
        <ele>147.8</ele>
        <time>2025-02-26T12:07:57Z</time>
      </trkpt>
      <trkpt lat="48.06669" lon="-3.47943">
        <ele>147.8</ele>
        <time>2025-02-26T12:07:58Z</time>
      </trkpt>
      <trkpt lat="48.06669" lon="-3.47943">
        <ele>147.8</ele>
        <time>2025-02-26T12:07:59Z</time>
      </trkpt>
      <trkpt lat="48.06669" lon="-3.47943">
        <ele>147.8</ele>
        <time>2025-02-26T12:08:00Z</time>
      </trkpt>
      <trkpt lat="48.06669" lon="-3.47943">
        <ele>147.8</ele>
        <time>2025-02-26T12:08:01Z</time>
      </trkpt>
      <trkpt lat="48.0667" lon="-3.47943">
        <ele>147.8</ele>
        <time>2025-02-26T12:08:02Z</time>
      </trkpt>
      <trkpt lat="48.0667" lon="-3.47944">
        <ele>147.9</ele>
        <time>2025-02-26T12:08:03Z</time>
      </trkpt>
      <trkpt lat="48.0667" lon="-3.47945">
        <ele>147.9</ele>
        <time>2025-02-26T12:08:04Z</time>
      </trkpt>
      <trkpt lat="48.0667" lon="-3.47945">
        <ele>147.9</ele>
        <time>2025-02-26T12:08:05Z</time>
      </trkpt>
      <trkpt lat="48.0667" lon="-3.47945">
        <ele>147.9</ele>
        <time>2025-02-26T12:08:06Z</time>
      </trkpt>
      <trkpt lat="48.0667" lon="-3.47945">
        <ele>147.9</ele>
        <time>2025-02-26T12:08:07Z</time>
      </trkpt>
      <trkpt lat="48.0667" lon="-3.47945">
        <ele>147.9</ele>
        <time>2025-02-26T12:08:08Z</time>
      </trkpt>
      <trkpt lat="48.0667" lon="-3.47945">
        <ele>147.9</ele>
        <time>2025-02-26T12:08:09Z</time>
      </trkpt>
      <trkpt lat="48.0667" lon="-3.47945">
        <ele>147.9</ele>
        <time>2025-02-26T12:08:10Z</time>
      </trkpt>
      <trkpt lat="48.06671" lon="-3.47945">
        <ele>147.8</ele>
        <time>2025-02-26T12:08:11Z</time>
      </trkpt>
      <trkpt lat="48.06672" lon="-3.47945">
        <ele>147.8</ele>
        <time>2025-02-26T12:08:12Z</time>
      </trkpt>
      <trkpt lat="48.06672" lon="-3.47945">
        <ele>147.8</ele>
        <time>2025-02-26T12:08:13Z</time>
      </trkpt>
      <trkpt lat="48.06672" lon="-3.47946">
        <ele>147.8</ele>
        <time>2025-02-26T12:08:14Z</time>
      </trkpt>
      <trkpt lat="48.06672" lon="-3.47946">
        <ele>147.8</ele>
        <time>2025-02-26T12:08:15Z</time>
      </trkpt>
      <trkpt lat="48.06672" lon="-3.47946">
        <ele>147.8</ele>
        <time>2025-02-26T12:08:16Z</time>
      </trkpt>
      <trkpt lat="48.06672" lon="-3.47946">
        <ele>147.8</ele>
        <time>2025-02-26T12:08:17Z</time>
      </trkpt>
      <trkpt lat="48.06672" lon="-3.47946">
        <ele>147.8</ele>
        <time>2025-02-26T12:08:18Z</time>
      </trkpt>
      <trkpt lat="48.06672" lon="-3.47946">
        <ele>147.8</ele>
        <time>2025-02-26T12:08:19Z</time>
      </trkpt>
      <trkpt lat="48.06672" lon="-3.47946">
        <ele>147.8</ele>
        <time>2025-02-26T12:08:20Z</time>
      </trkpt>
      <trkpt lat="48.06672" lon="-3.47947">
        <ele>147.8</ele>
        <time>2025-02-26T12:08:21Z</time>
      </trkpt>
      <trkpt lat="48.06672" lon="-3.47948">
        <ele>147.8</ele>
        <time>2025-02-26T12:08:22Z</time>
      </trkpt>
      <trkpt lat="48.06671" lon="-3.4795">
        <ele>147.9</ele>
        <time>2025-02-26T12:08:23Z</time>
      </trkpt>
      <trkpt lat="48.06671" lon="-3.4795">
        <ele>147.9</ele>
        <time>2025-02-26T12:08:24Z</time>
      </trkpt>
      <trkpt lat="48.06671" lon="-3.4795">
        <ele>147.9</ele>
        <time>2025-02-26T12:08:25Z</time>
      </trkpt>
      <trkpt lat="48.06671" lon="-3.4795">
        <ele>147.9</ele>
        <time>2025-02-26T12:08:26Z</time>
      </trkpt>
      <trkpt lat="48.06671" lon="-3.4795">
        <ele>147.9</ele>
        <time>2025-02-26T12:08:27Z</time>
      </trkpt>
      <trkpt lat="48.06671" lon="-3.4795">
        <ele>147.9</ele>
        <time>2025-02-26T12:08:28Z</time>
      </trkpt>
      <trkpt lat="48.06671" lon="-3.47951">
        <ele>147.9</ele>
        <time>2025-02-26T12:08:29Z</time>
      </trkpt>
      <trkpt lat="48.0667" lon="-3.47951">
        <ele>147.9</ele>
        <time>2025-02-26T12:08:30Z</time>
      </trkpt>
      <trkpt lat="48.0667" lon="-3.47951">
        <ele>147.9</ele>
        <time>2025-02-26T12:08:31Z</time>
      </trkpt>
      <trkpt lat="48.0667" lon="-3.47951">
        <ele>147.9</ele>
        <time>2025-02-26T12:08:32Z</time>
      </trkpt>
      <trkpt lat="48.0667" lon="-3.47951">
        <ele>147.9</ele>
        <time>2025-02-26T12:08:33Z</time>
      </trkpt>
      <trkpt lat="48.0667" lon="-3.47951">
        <ele>147.9</ele>
        <time>2025-02-26T12:08:34Z</time>
      </trkpt>
      <trkpt lat="48.0667" lon="-3.47951">
        <ele>147.9</ele>
        <time>2025-02-26T12:08:35Z</time>
      </trkpt>
      <trkpt lat="48.0667" lon="-3.47951">
        <ele>147.9</ele>
        <time>2025-02-26T12:08:36Z</time>
      </trkpt>
      <trkpt lat="48.06671" lon="-3.47951">
        <ele>147.9</ele>
        <time>2025-02-26T12:08:37Z</time>
      </trkpt>
      <trkpt lat="48.06671" lon="-3.47951">
        <ele>147.9</ele>
        <time>2025-02-26T12:08:38Z</time>
      </trkpt>
      <trkpt lat="48.06671" lon="-3.47951">
        <ele>147.9</ele>
        <time>2025-02-26T12:08:39Z</time>
      </trkpt>
      <trkpt lat="48.06671" lon="-3.47951">
        <ele>147.9</ele>
        <time>2025-02-26T12:08:40Z</time>
      </trkpt>
      <trkpt lat="48.06671" lon="-3.47949">
        <ele>147.9</ele>
        <time>2025-02-26T12:08:41Z</time>
      </trkpt>
      <trkpt lat="48.06671" lon="-3.47949">
        <ele>147.9</ele>
        <time>2025-02-26T12:08:42Z</time>
      </trkpt>
      <trkpt lat="48.06671" lon="-3.47948">
        <ele>147.9</ele>
        <time>2025-02-26T12:08:43Z</time>
      </trkpt>
      <trkpt lat="48.06672" lon="-3.47948">
        <ele>147.8</ele>
        <time>2025-02-26T12:08:44Z</time>
      </trkpt>
      <trkpt lat="48.06672" lon="-3.47947">
        <ele>147.8</ele>
        <time>2025-02-26T12:08:45Z</time>
      </trkpt>
      <trkpt lat="48.06672" lon="-3.47947">
        <ele>147.8</ele>
        <time>2025-02-26T12:08:46Z</time>
      </trkpt>
      <trkpt lat="48.06672" lon="-3.47946">
        <ele>147.8</ele>
        <time>2025-02-26T12:08:47Z</time>
      </trkpt>
      <trkpt lat="48.06672" lon="-3.47947">
        <ele>147.8</ele>
        <time>2025-02-26T12:08:48Z</time>
      </trkpt>
      <trkpt lat="48.06672" lon="-3.47947">
        <ele>147.8</ele>
        <time>2025-02-26T12:08:49Z</time>
      </trkpt>
      <trkpt lat="48.06672" lon="-3.47947">
        <ele>147.8</ele>
        <time>2025-02-26T12:08:50Z</time>
      </trkpt>
      <trkpt lat="48.06672" lon="-3.47947">
        <ele>147.8</ele>
        <time>2025-02-26T12:08:51Z</time>
      </trkpt>
      <trkpt lat="48.06672" lon="-3.47947">
        <ele>147.8</ele>
        <time>2025-02-26T12:08:52Z</time>
      </trkpt>
      <trkpt lat="48.06672" lon="-3.47947">
        <ele>147.8</ele>
        <time>2025-02-26T12:08:53Z</time>
      </trkpt>
      <trkpt lat="48.06672" lon="-3.47947">
        <ele>147.8</ele>
        <time>2025-02-26T12:08:54Z</time>
      </trkpt>
      <trkpt lat="48.06671" lon="-3.47946">
        <ele>147.9</ele>
        <time>2025-02-26T12:08:55Z</time>
      </trkpt>
      <trkpt lat="48.06671" lon="-3.47947">
        <ele>147.9</ele>
        <time>2025-02-26T12:08:56Z</time>
      </trkpt>
      <trkpt lat="48.06671" lon="-3.47947">
        <ele>147.9</ele>
        <time>2025-02-26T12:08:57Z</time>
      </trkpt>
      <trkpt lat="48.06671" lon="-3.47947">
        <ele>147.9</ele>
        <time>2025-02-26T12:08:58Z</time>
      </trkpt>
      <trkpt lat="48.06671" lon="-3.47947">
        <ele>147.9</ele>
        <time>2025-02-26T12:08:59Z</time>
      </trkpt>
      <trkpt lat="48.06671" lon="-3.47947">
        <ele>147.9</ele>
        <time>2025-02-26T12:09:00Z</time>
      </trkpt>
      <trkpt lat="48.06671" lon="-3.47947">
        <ele>147.9</ele>
        <time>2025-02-26T12:09:01Z</time>
      </trkpt>
      <trkpt lat="48.06671" lon="-3.47947">
        <ele>147.9</ele>
        <time>2025-02-26T12:09:02Z</time>
      </trkpt>
      <trkpt lat="48.06671" lon="-3.47947">
        <ele>147.9</ele>
        <time>2025-02-26T12:09:03Z</time>
      </trkpt>
      <trkpt lat="48.06671" lon="-3.47947">
        <ele>147.9</ele>
        <time>2025-02-26T12:09:04Z</time>
      </trkpt>
      <trkpt lat="48.06671" lon="-3.47947">
        <ele>147.9</ele>
        <time>2025-02-26T12:09:05Z</time>
      </trkpt>
      <trkpt lat="48.06671" lon="-3.47947">
        <ele>147.9</ele>
        <time>2025-02-26T12:09:06Z</time>
      </trkpt>
      <trkpt lat="48.06671" lon="-3.47947">
        <ele>147.9</ele>
        <time>2025-02-26T12:09:07Z</time>
      </trkpt>
      <trkpt lat="48.06671" lon="-3.47947">
        <ele>147.9</ele>
        <time>2025-02-26T12:09:08Z</time>
      </trkpt>
      <trkpt lat="48.06671" lon="-3.47947">
        <ele>147.9</ele>
        <time>2025-02-26T12:09:09Z</time>
      </trkpt>
      <trkpt lat="48.06671" lon="-3.47947">
        <ele>147.9</ele>
        <time>2025-02-26T12:09:10Z</time>
      </trkpt>
      <trkpt lat="48.06671" lon="-3.47946">
        <ele>147.9</ele>
        <time>2025-02-26T12:09:11Z</time>
      </trkpt>
      <trkpt lat="48.06671" lon="-3.47946">
        <ele>147.9</ele>
        <time>2025-02-26T12:09:12Z</time>
      </trkpt>
      <trkpt lat="48.06671" lon="-3.47946">
        <ele>147.9</ele>
        <time>2025-02-26T12:09:13Z</time>
      </trkpt>
      <trkpt lat="48.06671" lon="-3.47946">
        <ele>147.9</ele>
        <time>2025-02-26T12:09:14Z</time>
      </trkpt>
      <trkpt lat="48.06671" lon="-3.47946">
        <ele>147.9</ele>
        <time>2025-02-26T12:09:15Z</time>
      </trkpt>
      <trkpt lat="48.06671" lon="-3.47946">
        <ele>147.9</ele>
        <time>2025-02-26T12:09:16Z</time>
      </trkpt>
      <trkpt lat="48.06671" lon="-3.47946">
        <ele>147.9</ele>
        <time>2025-02-26T12:09:17Z</time>
      </trkpt>
      <trkpt lat="48.06671" lon="-3.47946">
        <ele>147.9</ele>
        <time>2025-02-26T12:09:18Z</time>
      </trkpt>
      <trkpt lat="48.06671" lon="-3.47946">
        <ele>147.9</ele>
        <time>2025-02-26T12:09:19Z</time>
      </trkpt>
      <trkpt lat="48.06671" lon="-3.47946">
        <ele>147.9</ele>
        <time>2025-02-26T12:09:20Z</time>
      </trkpt>
      <trkpt lat="48.06671" lon="-3.47946">
        <ele>147.9</ele>
        <time>2025-02-26T12:09:21Z</time>
      </trkpt>
      <trkpt lat="48.06671" lon="-3.47946">
        <ele>147.9</ele>
        <time>2025-02-26T12:09:22Z</time>
      </trkpt>
      <trkpt lat="48.06671" lon="-3.47946">
        <ele>147.9</ele>
        <time>2025-02-26T12:09:23Z</time>
      </trkpt>
      <trkpt lat="48.06671" lon="-3.47946">
        <ele>147.9</ele>
        <time>2025-02-26T12:09:24Z</time>
      </trkpt>
      <trkpt lat="48.06671" lon="-3.47946">
        <ele>147.9</ele>
        <time>2025-02-26T12:09:25Z</time>
      </trkpt>
      <trkpt lat="48.06671" lon="-3.47946">
        <ele>147.9</ele>
        <time>2025-02-26T12:09:26Z</time>
      </trkpt>
      <trkpt lat="48.06671" lon="-3.47946">
        <ele>147.9</ele>
        <time>2025-02-26T12:09:27Z</time>
      </trkpt>
      <trkpt lat="48.06671" lon="-3.47946">
        <ele>147.9</ele>
        <time>2025-02-26T12:09:28Z</time>
      </trkpt>
      <trkpt lat="48.06671" lon="-3.47946">
        <ele>147.9</ele>
        <time>2025-02-26T12:09:29Z</time>
      </trkpt>
      <trkpt lat="48.06671" lon="-3.47946">
        <ele>147.9</ele>
        <time>2025-02-26T12:09:30Z</time>
      </trkpt>
      <trkpt lat="48.06671" lon="-3.47946">
        <ele>147.9</ele>
        <time>2025-02-26T12:09:31Z</time>
      </trkpt>
      <trkpt lat="48.0667" lon="-3.47946">
        <ele>147.9</ele>
        <time>2025-02-26T12:09:32Z</time>
      </trkpt>
      <trkpt lat="48.0667" lon="-3.47946">
        <ele>147.9</ele>
        <time>2025-02-26T12:09:33Z</time>
      </trkpt>
      <trkpt lat="48.0667" lon="-3.47946">
        <ele>147.9</ele>
        <time>2025-02-26T12:09:34Z</time>
      </trkpt>
      <trkpt lat="48.0667" lon="-3.47946">
        <ele>147.9</ele>
        <time>2025-02-26T12:09:35Z</time>
      </trkpt>
      <trkpt lat="48.0667" lon="-3.47946">
        <ele>147.9</ele>
        <time>2025-02-26T12:09:36Z</time>
      </trkpt>
      <trkpt lat="48.0667" lon="-3.47946">
        <ele>147.9</ele>
        <time>2025-02-26T12:09:37Z</time>
      </trkpt>
      <trkpt lat="48.0667" lon="-3.47946">
        <ele>147.9</ele>
        <time>2025-02-26T12:09:38Z</time>
      </trkpt>
      <trkpt lat="48.0667" lon="-3.47946">
        <ele>147.9</ele>
        <time>2025-02-26T12:09:39Z</time>
      </trkpt>
      <trkpt lat="48.0667" lon="-3.47946">
        <ele>147.9</ele>
        <time>2025-02-26T12:09:40Z</time>
      </trkpt>
      <trkpt lat="48.0667" lon="-3.47946">
        <ele>147.9</ele>
        <time>2025-02-26T12:09:41Z</time>
      </trkpt>
      <trkpt lat="48.0667" lon="-3.47946">
        <ele>147.9</ele>
        <time>2025-02-26T12:09:42Z</time>
      </trkpt>
      <trkpt lat="48.0667" lon="-3.47946">
        <ele>147.9</ele>
        <time>2025-02-26T12:09:43Z</time>
      </trkpt>
      <trkpt lat="48.0667" lon="-3.47946">
        <ele>147.9</ele>
        <time>2025-02-26T12:09:44Z</time>
      </trkpt>
      <trkpt lat="48.0667" lon="-3.47946">
        <ele>147.9</ele>
        <time>2025-02-26T12:09:45Z</time>
      </trkpt>
      <trkpt lat="48.0667" lon="-3.47946">
        <ele>147.9</ele>
        <time>2025-02-26T12:09:46Z</time>
      </trkpt>
      <trkpt lat="48.0667" lon="-3.47946">
        <ele>147.9</ele>
        <time>2025-02-26T12:09:47Z</time>
      </trkpt>
      <trkpt lat="48.0667" lon="-3.47946">
        <ele>147.9</ele>
        <time>2025-02-26T12:09:48Z</time>
      </trkpt>
      <trkpt lat="48.06671" lon="-3.47946">
        <ele>147.9</ele>
        <time>2025-02-26T12:09:49Z</time>
      </trkpt>
      <trkpt lat="48.06671" lon="-3.47946">
        <ele>147.9</ele>
        <time>2025-02-26T12:09:50Z</time>
      </trkpt>
      <trkpt lat="48.06671" lon="-3.47946">
        <ele>147.9</ele>
        <time>2025-02-26T12:09:51Z</time>
      </trkpt>
      <trkpt lat="48.06671" lon="-3.47946">
        <ele>147.9</ele>
        <time>2025-02-26T12:09:52Z</time>
      </trkpt>
      <trkpt lat="48.06671" lon="-3.47946">
        <ele>147.9</ele>
        <time>2025-02-26T12:09:53Z</time>
      </trkpt>
      <trkpt lat="48.06671" lon="-3.47946">
        <ele>147.9</ele>
        <time>2025-02-26T12:09:54Z</time>
      </trkpt>
      <trkpt lat="48.06671" lon="-3.47946">
        <ele>147.9</ele>
        <time>2025-02-26T12:09:55Z</time>
      </trkpt>
      <trkpt lat="48.06671" lon="-3.47946">
        <ele>147.9</ele>
        <time>2025-02-26T12:09:56Z</time>
      </trkpt>
      <trkpt lat="48.06671" lon="-3.47946">
        <ele>147.9</ele>
        <time>2025-02-26T12:09:57Z</time>
      </trkpt>
      <trkpt lat="48.06671" lon="-3.47946">
        <ele>147.9</ele>
        <time>2025-02-26T12:09:58Z</time>
      </trkpt>
      <trkpt lat="48.06671" lon="-3.47946">
        <ele>147.9</ele>
        <time>2025-02-26T12:09:59Z</time>
      </trkpt>
      <trkpt lat="48.06671" lon="-3.47946">
        <ele>147.9</ele>
        <time>2025-02-26T12:10:00Z</time>
      </trkpt>
      <trkpt lat="48.06671" lon="-3.47946">
        <ele>147.9</ele>
        <time>2025-02-26T12:10:01Z</time>
      </trkpt>
      <trkpt lat="48.06671" lon="-3.47946">
        <ele>147.9</ele>
        <time>2025-02-26T12:10:02Z</time>
      </trkpt>
      <trkpt lat="48.06671" lon="-3.47946">
        <ele>147.9</ele>
        <time>2025-02-26T12:10:03Z</time>
      </trkpt>
      <trkpt lat="48.06671" lon="-3.47946">
        <ele>147.9</ele>
        <time>2025-02-26T12:10:04Z</time>
      </trkpt>
      <trkpt lat="48.06671" lon="-3.47946">
        <ele>147.9</ele>
        <time>2025-02-26T12:10:05Z</time>
      </trkpt>
      <trkpt lat="48.06671" lon="-3.47946">
        <ele>147.9</ele>
        <time>2025-02-26T12:10:06Z</time>
      </trkpt>
      <trkpt lat="48.0667" lon="-3.47947">
        <ele>147.9</ele>
        <time>2025-02-26T12:10:07Z</time>
      </trkpt>
      <trkpt lat="48.0667" lon="-3.47947">
        <ele>147.9</ele>
        <time>2025-02-26T12:10:08Z</time>
      </trkpt>
      <trkpt lat="48.0667" lon="-3.47947">
        <ele>147.9</ele>
        <time>2025-02-26T12:10:09Z</time>
      </trkpt>
      <trkpt lat="48.0667" lon="-3.47947">
        <ele>147.9</ele>
        <time>2025-02-26T12:10:10Z</time>
      </trkpt>
      <trkpt lat="48.0667" lon="-3.47947">
        <ele>147.9</ele>
        <time>2025-02-26T12:10:11Z</time>
      </trkpt>
      <trkpt lat="48.0667" lon="-3.47947">
        <ele>147.9</ele>
        <time>2025-02-26T12:10:12Z</time>
      </trkpt>
      <trkpt lat="48.0667" lon="-3.47947">
        <ele>147.9</ele>
        <time>2025-02-26T12:10:13Z</time>
      </trkpt>
      <trkpt lat="48.0667" lon="-3.47947">
        <ele>147.9</ele>
        <time>2025-02-26T12:10:14Z</time>
      </trkpt>
      <trkpt lat="48.0667" lon="-3.47947">
        <ele>147.9</ele>
        <time>2025-02-26T12:10:15Z</time>
      </trkpt>
      <trkpt lat="48.0667" lon="-3.47947">
        <ele>147.9</ele>
        <time>2025-02-26T12:10:16Z</time>
      </trkpt>
      <trkpt lat="48.0667" lon="-3.47947">
        <ele>147.9</ele>
        <time>2025-02-26T12:10:17Z</time>
      </trkpt>
      <trkpt lat="48.0667" lon="-3.47947">
        <ele>147.9</ele>
        <time>2025-02-26T12:10:18Z</time>
      </trkpt>
      <trkpt lat="48.0667" lon="-3.47947">
        <ele>147.9</ele>
        <time>2025-02-26T12:10:19Z</time>
      </trkpt>
      <trkpt lat="48.0667" lon="-3.47947">
        <ele>147.9</ele>
        <time>2025-02-26T12:10:20Z</time>
      </trkpt>
      <trkpt lat="48.0667" lon="-3.47947">
        <ele>147.9</ele>
        <time>2025-02-26T12:10:21Z</time>
      </trkpt>
      <trkpt lat="48.0667" lon="-3.47947">
        <ele>147.9</ele>
        <time>2025-02-26T12:10:22Z</time>
      </trkpt>
      <trkpt lat="48.0667" lon="-3.47947">
        <ele>147.9</ele>
        <time>2025-02-26T12:10:23Z</time>
      </trkpt>
      <trkpt lat="48.0667" lon="-3.47947">
        <ele>147.9</ele>
        <time>2025-02-26T12:10:24Z</time>
      </trkpt>
      <trkpt lat="48.0667" lon="-3.47947">
        <ele>147.9</ele>
        <time>2025-02-26T12:10:25Z</time>
      </trkpt>
      <trkpt lat="48.0667" lon="-3.47947">
        <ele>147.9</ele>
        <time>2025-02-26T12:10:26Z</time>
      </trkpt>
      <trkpt lat="48.0667" lon="-3.47947">
        <ele>147.9</ele>
        <time>2025-02-26T12:10:27Z</time>
      </trkpt>
      <trkpt lat="48.0667" lon="-3.47947">
        <ele>147.9</ele>
        <time>2025-02-26T12:10:28Z</time>
      </trkpt>
      <trkpt lat="48.0667" lon="-3.47947">
        <ele>147.9</ele>
        <time>2025-02-26T12:10:29Z</time>
      </trkpt>
      <trkpt lat="48.0667" lon="-3.47948">
        <ele>147.9</ele>
        <time>2025-02-26T12:10:30Z</time>
      </trkpt>
      <trkpt lat="48.0667" lon="-3.47948">
        <ele>147.9</ele>
        <time>2025-02-26T12:10:31Z</time>
      </trkpt>
      <trkpt lat="48.0667" lon="-3.47949">
        <ele>147.9</ele>
        <time>2025-02-26T12:10:32Z</time>
      </trkpt>
      <trkpt lat="48.0667" lon="-3.47948">
        <ele>147.9</ele>
        <time>2025-02-26T12:10:33Z</time>
      </trkpt>
      <trkpt lat="48.0667" lon="-3.47948">
        <ele>147.9</ele>
        <time>2025-02-26T12:10:34Z</time>
      </trkpt>
      <trkpt lat="48.0667" lon="-3.47948">
        <ele>147.9</ele>
        <time>2025-02-26T12:10:35Z</time>
      </trkpt>
      <trkpt lat="48.0667" lon="-3.47948">
        <ele>147.9</ele>
        <time>2025-02-26T12:10:36Z</time>
      </trkpt>
      <trkpt lat="48.0667" lon="-3.47948">
        <ele>147.9</ele>
        <time>2025-02-26T12:10:37Z</time>
      </trkpt>
      <trkpt lat="48.0667" lon="-3.47948">
        <ele>147.9</ele>
        <time>2025-02-26T12:10:38Z</time>
      </trkpt>
      <trkpt lat="48.06671" lon="-3.47949">
        <ele>147.9</ele>
        <time>2025-02-26T12:10:39Z</time>
      </trkpt>
      <trkpt lat="48.06671" lon="-3.47949">
        <ele>147.9</ele>
        <time>2025-02-26T12:10:40Z</time>
      </trkpt>
      <trkpt lat="48.06671" lon="-3.47949">
        <ele>147.9</ele>
        <time>2025-02-26T12:10:41Z</time>
      </trkpt>
      <trkpt lat="48.0667" lon="-3.47949">
        <ele>147.9</ele>
        <time>2025-02-26T12:10:42Z</time>
      </trkpt>
      <trkpt lat="48.0667" lon="-3.47949">
        <ele>147.9</ele>
        <time>2025-02-26T12:10:43Z</time>
      </trkpt>
      <trkpt lat="48.0667" lon="-3.47949">
        <ele>147.9</ele>
        <time>2025-02-26T12:10:44Z</time>
      </trkpt>
      <trkpt lat="48.06671" lon="-3.47949">
        <ele>147.9</ele>
        <time>2025-02-26T12:10:45Z</time>
      </trkpt>
      <trkpt lat="48.0667" lon="-3.47948">
        <ele>147.9</ele>
        <time>2025-02-26T12:10:46Z</time>
      </trkpt>
      <trkpt lat="48.0667" lon="-3.47948">
        <ele>147.9</ele>
        <time>2025-02-26T12:10:47Z</time>
      </trkpt>
      <trkpt lat="48.0667" lon="-3.47948">
        <ele>147.9</ele>
        <time>2025-02-26T12:10:48Z</time>
      </trkpt>
      <trkpt lat="48.0667" lon="-3.47948">
        <ele>147.9</ele>
        <time>2025-02-26T12:10:49Z</time>
      </trkpt>
      <trkpt lat="48.0667" lon="-3.47948">
        <ele>147.9</ele>
        <time>2025-02-26T12:10:50Z</time>
      </trkpt>
      <trkpt lat="48.0667" lon="-3.47948">
        <ele>147.9</ele>
        <time>2025-02-26T12:10:51Z</time>
      </trkpt>
      <trkpt lat="48.0667" lon="-3.47948">
        <ele>147.9</ele>
        <time>2025-02-26T12:10:52Z</time>
      </trkpt>
      <trkpt lat="48.0667" lon="-3.47948">
        <ele>147.9</ele>
        <time>2025-02-26T12:10:53Z</time>
      </trkpt>
      <trkpt lat="48.0667" lon="-3.47948">
        <ele>147.9</ele>
        <time>2025-02-26T12:10:54Z</time>
      </trkpt>
      <trkpt lat="48.0667" lon="-3.47948">
        <ele>147.9</ele>
        <time>2025-02-26T12:10:55Z</time>
      </trkpt>
      <trkpt lat="48.0667" lon="-3.47948">
        <ele>147.9</ele>
        <time>2025-02-26T12:10:56Z</time>
      </trkpt>
      <trkpt lat="48.0667" lon="-3.47948">
        <ele>147.9</ele>
        <time>2025-02-26T12:10:57Z</time>
      </trkpt>
      <trkpt lat="48.0667" lon="-3.47948">
        <ele>147.9</ele>
        <time>2025-02-26T12:10:58Z</time>
      </trkpt>
      <trkpt lat="48.0667" lon="-3.47948">
        <ele>147.9</ele>
        <time>2025-02-26T12:10:59Z</time>
      </trkpt>
      <trkpt lat="48.0667" lon="-3.47948">
        <ele>147.9</ele>
        <time>2025-02-26T12:11:00Z</time>
      </trkpt>
      <trkpt lat="48.0667" lon="-3.47948">
        <ele>147.9</ele>
        <time>2025-02-26T12:11:01Z</time>
      </trkpt>
      <trkpt lat="48.0667" lon="-3.47948">
        <ele>147.9</ele>
        <time>2025-02-26T12:11:02Z</time>
      </trkpt>
      <trkpt lat="48.0667" lon="-3.47948">
        <ele>147.9</ele>
        <time>2025-02-26T12:11:03Z</time>
      </trkpt>
      <trkpt lat="48.0667" lon="-3.47948">
        <ele>147.9</ele>
        <time>2025-02-26T12:11:04Z</time>
      </trkpt>
      <trkpt lat="48.0667" lon="-3.47948">
        <ele>147.9</ele>
        <time>2025-02-26T12:11:05Z</time>
      </trkpt>
      <trkpt lat="48.0667" lon="-3.47948">
        <ele>147.9</ele>
        <time>2025-02-26T12:11:06Z</time>
      </trkpt>
      <trkpt lat="48.0667" lon="-3.47948">
        <ele>147.9</ele>
        <time>2025-02-26T12:11:07Z</time>
      </trkpt>
      <trkpt lat="48.0667" lon="-3.47948">
        <ele>147.9</ele>
        <time>2025-02-26T12:11:08Z</time>
      </trkpt>
      <trkpt lat="48.0667" lon="-3.47948">
        <ele>147.9</ele>
        <time>2025-02-26T12:11:09Z</time>
      </trkpt>
      <trkpt lat="48.0667" lon="-3.47948">
        <ele>147.9</ele>
        <time>2025-02-26T12:11:10Z</time>
      </trkpt>
      <trkpt lat="48.0667" lon="-3.47948">
        <ele>147.9</ele>
        <time>2025-02-26T12:11:11Z</time>
      </trkpt>
      <trkpt lat="48.0667" lon="-3.47948">
        <ele>147.9</ele>
        <time>2025-02-26T12:11:12Z</time>
      </trkpt>
      <trkpt lat="48.0667" lon="-3.47948">
        <ele>147.9</ele>
        <time>2025-02-26T12:11:13Z</time>
      </trkpt>
      <trkpt lat="48.0667" lon="-3.47948">
        <ele>147.9</ele>
        <time>2025-02-26T12:11:14Z</time>
      </trkpt>
      <trkpt lat="48.0667" lon="-3.47948">
        <ele>147.9</ele>
        <time>2025-02-26T12:11:15Z</time>
      </trkpt>
      <trkpt lat="48.0667" lon="-3.47948">
        <ele>147.9</ele>
        <time>2025-02-26T12:11:16Z</time>
      </trkpt>
      <trkpt lat="48.0667" lon="-3.47948">
        <ele>147.9</ele>
        <time>2025-02-26T12:11:17Z</time>
      </trkpt>
      <trkpt lat="48.0667" lon="-3.47948">
        <ele>147.9</ele>
        <time>2025-02-26T12:11:18Z</time>
      </trkpt>
      <trkpt lat="48.0667" lon="-3.47948">
        <ele>147.9</ele>
        <time>2025-02-26T12:11:19Z</time>
      </trkpt>
      <trkpt lat="48.0667" lon="-3.47948">
        <ele>147.9</ele>
        <time>2025-02-26T12:11:20Z</time>
      </trkpt>
      <trkpt lat="48.0667" lon="-3.47948">
        <ele>147.9</ele>
        <time>2025-02-26T12:11:21Z</time>
      </trkpt>
      <trkpt lat="48.0667" lon="-3.47948">
        <ele>147.9</ele>
        <time>2025-02-26T12:11:22Z</time>
      </trkpt>
      <trkpt lat="48.0667" lon="-3.47948">
        <ele>147.9</ele>
        <time>2025-02-26T12:11:23Z</time>
      </trkpt>
      <trkpt lat="48.0667" lon="-3.47948">
        <ele>147.9</ele>
        <time>2025-02-26T12:11:24Z</time>
      </trkpt>
      <trkpt lat="48.0667" lon="-3.47949">
        <ele>147.9</ele>
        <time>2025-02-26T12:11:25Z</time>
      </trkpt>
      <trkpt lat="48.0667" lon="-3.47948">
        <ele>147.9</ele>
        <time>2025-02-26T12:11:26Z</time>
      </trkpt>
      <trkpt lat="48.06669" lon="-3.47948">
        <ele>147.9</ele>
        <time>2025-02-26T12:11:27Z</time>
      </trkpt>
      <trkpt lat="48.06669" lon="-3.47948">
        <ele>147.9</ele>
        <time>2025-02-26T12:11:28Z</time>
      </trkpt>
      <trkpt lat="48.06669" lon="-3.47948">
        <ele>147.9</ele>
        <time>2025-02-26T12:11:29Z</time>
      </trkpt>
      <trkpt lat="48.06669" lon="-3.47948">
        <ele>147.9</ele>
        <time>2025-02-26T12:11:30Z</time>
      </trkpt>
      <trkpt lat="48.06669" lon="-3.47948">
        <ele>147.9</ele>
        <time>2025-02-26T12:11:31Z</time>
      </trkpt>
      <trkpt lat="48.06669" lon="-3.47948">
        <ele>147.9</ele>
        <time>2025-02-26T12:11:32Z</time>
      </trkpt>
      <trkpt lat="48.06669" lon="-3.47948">
        <ele>147.9</ele>
        <time>2025-02-26T12:11:33Z</time>
      </trkpt>
      <trkpt lat="48.06669" lon="-3.47948">
        <ele>147.9</ele>
        <time>2025-02-26T12:11:34Z</time>
      </trkpt>
      <trkpt lat="48.06669" lon="-3.47948">
        <ele>147.9</ele>
        <time>2025-02-26T12:11:35Z</time>
      </trkpt>
      <trkpt lat="48.06669" lon="-3.47948">
        <ele>147.9</ele>
        <time>2025-02-26T12:11:36Z</time>
      </trkpt>
      <trkpt lat="48.06669" lon="-3.47948">
        <ele>147.9</ele>
        <time>2025-02-26T12:11:37Z</time>
      </trkpt>
      <trkpt lat="48.06669" lon="-3.47948">
        <ele>147.9</ele>
        <time>2025-02-26T12:11:38Z</time>
      </trkpt>
      <trkpt lat="48.06669" lon="-3.47948">
        <ele>147.9</ele>
        <time>2025-02-26T12:11:39Z</time>
      </trkpt>
      <trkpt lat="48.06669" lon="-3.47948">
        <ele>147.9</ele>
        <time>2025-02-26T12:11:40Z</time>
      </trkpt>
      <trkpt lat="48.06669" lon="-3.47948">
        <ele>147.9</ele>
        <time>2025-02-26T12:11:41Z</time>
      </trkpt>
      <trkpt lat="48.06669" lon="-3.47948">
        <ele>147.9</ele>
        <time>2025-02-26T12:11:42Z</time>
      </trkpt>
      <trkpt lat="48.06669" lon="-3.47948">
        <ele>147.9</ele>
        <time>2025-02-26T12:11:43Z</time>
      </trkpt>
      <trkpt lat="48.06669" lon="-3.47948">
        <ele>147.9</ele>
        <time>2025-02-26T12:11:44Z</time>
      </trkpt>
      <trkpt lat="48.06669" lon="-3.47948">
        <ele>147.9</ele>
        <time>2025-02-26T12:11:45Z</time>
      </trkpt>
      <trkpt lat="48.06669" lon="-3.47948">
        <ele>147.9</ele>
        <time>2025-02-26T12:11:46Z</time>
      </trkpt>
      <trkpt lat="48.06669" lon="-3.47948">
        <ele>147.9</ele>
        <time>2025-02-26T12:11:47Z</time>
      </trkpt>
      <trkpt lat="48.06669" lon="-3.47948">
        <ele>147.9</ele>
        <time>2025-02-26T12:11:48Z</time>
      </trkpt>
      <trkpt lat="48.06669" lon="-3.47947">
        <ele>147.9</ele>
        <time>2025-02-26T12:11:49Z</time>
      </trkpt>
      <trkpt lat="48.06669" lon="-3.47947">
        <ele>147.9</ele>
        <time>2025-02-26T12:11:50Z</time>
      </trkpt>
      <trkpt lat="48.06669" lon="-3.47947">
        <ele>147.9</ele>
        <time>2025-02-26T12:11:51Z</time>
      </trkpt>
      <trkpt lat="48.06669" lon="-3.47947">
        <ele>147.9</ele>
        <time>2025-02-26T12:11:52Z</time>
      </trkpt>
      <trkpt lat="48.06669" lon="-3.47947">
        <ele>147.9</ele>
        <time>2025-02-26T12:11:53Z</time>
      </trkpt>
      <trkpt lat="48.06669" lon="-3.47947">
        <ele>147.9</ele>
        <time>2025-02-26T12:11:54Z</time>
      </trkpt>
      <trkpt lat="48.06669" lon="-3.47947">
        <ele>147.9</ele>
        <time>2025-02-26T12:11:55Z</time>
      </trkpt>
      <trkpt lat="48.06669" lon="-3.47947">
        <ele>147.9</ele>
        <time>2025-02-26T12:11:56Z</time>
      </trkpt>
      <trkpt lat="48.06669" lon="-3.47947">
        <ele>147.9</ele>
        <time>2025-02-26T12:11:57Z</time>
      </trkpt>
      <trkpt lat="48.06669" lon="-3.47947">
        <ele>147.9</ele>
        <time>2025-02-26T12:11:58Z</time>
      </trkpt>
      <trkpt lat="48.06669" lon="-3.47947">
        <ele>147.9</ele>
        <time>2025-02-26T12:11:59Z</time>
      </trkpt>
      <trkpt lat="48.06669" lon="-3.47947">
        <ele>147.9</ele>
        <time>2025-02-26T12:12:00Z</time>
      </trkpt>
      <trkpt lat="48.06669" lon="-3.47947">
        <ele>147.9</ele>
        <time>2025-02-26T12:12:01Z</time>
      </trkpt>
      <trkpt lat="48.06669" lon="-3.47947">
        <ele>147.9</ele>
        <time>2025-02-26T12:12:02Z</time>
      </trkpt>
      <trkpt lat="48.06669" lon="-3.47947">
        <ele>147.9</ele>
        <time>2025-02-26T12:12:03Z</time>
      </trkpt>
      <trkpt lat="48.06669" lon="-3.47947">
        <ele>147.9</ele>
        <time>2025-02-26T12:12:04Z</time>
      </trkpt>
      <trkpt lat="48.06669" lon="-3.47947">
        <ele>147.9</ele>
        <time>2025-02-26T12:12:05Z</time>
      </trkpt>
      <trkpt lat="48.06669" lon="-3.47947">
        <ele>147.9</ele>
        <time>2025-02-26T12:12:06Z</time>
      </trkpt>
      <trkpt lat="48.06669" lon="-3.47947">
        <ele>147.9</ele>
        <time>2025-02-26T12:12:07Z</time>
      </trkpt>
      <trkpt lat="48.06669" lon="-3.47947">
        <ele>147.9</ele>
        <time>2025-02-26T12:12:08Z</time>
      </trkpt>
      <trkpt lat="48.06669" lon="-3.47947">
        <ele>147.9</ele>
        <time>2025-02-26T12:12:09Z</time>
      </trkpt>
      <trkpt lat="48.06669" lon="-3.47947">
        <ele>147.9</ele>
        <time>2025-02-26T12:12:10Z</time>
      </trkpt>
      <trkpt lat="48.06669" lon="-3.47947">
        <ele>147.9</ele>
        <time>2025-02-26T12:12:11Z</time>
      </trkpt>
      <trkpt lat="48.06669" lon="-3.47947">
        <ele>147.9</ele>
        <time>2025-02-26T12:12:12Z</time>
      </trkpt>
      <trkpt lat="48.06669" lon="-3.47947">
        <ele>147.9</ele>
        <time>2025-02-26T12:12:13Z</time>
      </trkpt>
      <trkpt lat="48.06669" lon="-3.47947">
        <ele>147.9</ele>
        <time>2025-02-26T12:12:14Z</time>
      </trkpt>
      <trkpt lat="48.06669" lon="-3.47947">
        <ele>147.9</ele>
        <time>2025-02-26T12:12:15Z</time>
      </trkpt>
      <trkpt lat="48.06669" lon="-3.47947">
        <ele>147.9</ele>
        <time>2025-02-26T12:12:16Z</time>
      </trkpt>
      <trkpt lat="48.06669" lon="-3.47947">
        <ele>147.9</ele>
        <time>2025-02-26T12:12:17Z</time>
      </trkpt>
      <trkpt lat="48.06669" lon="-3.47947">
        <ele>147.9</ele>
        <time>2025-02-26T12:12:18Z</time>
      </trkpt>
      <trkpt lat="48.06669" lon="-3.47947">
        <ele>147.9</ele>
        <time>2025-02-26T12:12:19Z</time>
      </trkpt>
      <trkpt lat="48.06669" lon="-3.47947">
        <ele>147.9</ele>
        <time>2025-02-26T12:12:20Z</time>
      </trkpt>
      <trkpt lat="48.06669" lon="-3.47947">
        <ele>147.9</ele>
        <time>2025-02-26T12:12:21Z</time>
      </trkpt>
      <trkpt lat="48.06669" lon="-3.47947">
        <ele>147.9</ele>
        <time>2025-02-26T12:12:22Z</time>
      </trkpt>
      <trkpt lat="48.06669" lon="-3.47947">
        <ele>147.9</ele>
        <time>2025-02-26T12:12:23Z</time>
      </trkpt>
      <trkpt lat="48.06669" lon="-3.47947">
        <ele>147.9</ele>
        <time>2025-02-26T12:12:24Z</time>
      </trkpt>
      <trkpt lat="48.06669" lon="-3.47947">
        <ele>147.9</ele>
        <time>2025-02-26T12:12:25Z</time>
      </trkpt>
      <trkpt lat="48.06669" lon="-3.47947">
        <ele>147.9</ele>
        <time>2025-02-26T12:12:26Z</time>
      </trkpt>
      <trkpt lat="48.06669" lon="-3.47947">
        <ele>147.9</ele>
        <time>2025-02-26T12:12:27Z</time>
      </trkpt>
      <trkpt lat="48.06669" lon="-3.47947">
        <ele>147.9</ele>
        <time>2025-02-26T12:12:28Z</time>
      </trkpt>
      <trkpt lat="48.06669" lon="-3.47947">
        <ele>147.9</ele>
        <time>2025-02-26T12:12:29Z</time>
      </trkpt>
      <trkpt lat="48.06669" lon="-3.47947">
        <ele>147.9</ele>
        <time>2025-02-26T12:12:30Z</time>
      </trkpt>
      <trkpt lat="48.06669" lon="-3.47947">
        <ele>147.9</ele>
        <time>2025-02-26T12:12:31Z</time>
      </trkpt>
      <trkpt lat="48.06669" lon="-3.47947">
        <ele>147.9</ele>
        <time>2025-02-26T12:12:32Z</time>
      </trkpt>
      <trkpt lat="48.06669" lon="-3.47948">
        <ele>147.9</ele>
        <time>2025-02-26T12:12:33Z</time>
      </trkpt>
      <trkpt lat="48.06668" lon="-3.47947">
        <ele>147.9</ele>
        <time>2025-02-26T12:12:34Z</time>
      </trkpt>
      <trkpt lat="48.06668" lon="-3.47945">
        <ele>147.9</ele>
        <time>2025-02-26T12:12:35Z</time>
      </trkpt>
      <trkpt lat="48.06668" lon="-3.47944">
        <ele>147.9</ele>
        <time>2025-02-26T12:12:36Z</time>
      </trkpt>
      <trkpt lat="48.06668" lon="-3.47944">
        <ele>147.9</ele>
        <time>2025-02-26T12:12:37Z</time>
      </trkpt>
      <trkpt lat="48.06668" lon="-3.47942">
        <ele>147.9</ele>
        <time>2025-02-26T12:12:38Z</time>
      </trkpt>
      <trkpt lat="48.06668" lon="-3.47942">
        <ele>147.8</ele>
        <time>2025-02-26T12:12:39Z</time>
      </trkpt>
      <trkpt lat="48.06668" lon="-3.4794">
        <ele>147.8</ele>
        <time>2025-02-26T12:12:40Z</time>
      </trkpt>
      <trkpt lat="48.06668" lon="-3.47939">
        <ele>147.8</ele>
        <time>2025-02-26T12:12:41Z</time>
      </trkpt>
      <trkpt lat="48.06668" lon="-3.47938">
        <ele>147.7</ele>
        <time>2025-02-26T12:12:42Z</time>
      </trkpt>
      <trkpt lat="48.06667" lon="-3.47937">
        <ele>147.7</ele>
        <time>2025-02-26T12:12:43Z</time>
      </trkpt>
      <trkpt lat="48.06667" lon="-3.47936">
        <ele>147.7</ele>
        <time>2025-02-26T12:12:44Z</time>
      </trkpt>
      <trkpt lat="48.06667" lon="-3.47936">
        <ele>147.7</ele>
        <time>2025-02-26T12:12:45Z</time>
      </trkpt>
      <trkpt lat="48.06666" lon="-3.47935">
        <ele>147.6</ele>
        <time>2025-02-26T12:12:46Z</time>
      </trkpt>
      <trkpt lat="48.06665" lon="-3.47935">
        <ele>147.6</ele>
        <time>2025-02-26T12:12:47Z</time>
      </trkpt>
      <trkpt lat="48.06665" lon="-3.47935">
        <ele>147.5</ele>
        <time>2025-02-26T12:12:48Z</time>
      </trkpt>
      <trkpt lat="48.06664" lon="-3.47936">
        <ele>147.5</ele>
        <time>2025-02-26T12:12:49Z</time>
      </trkpt>
      <trkpt lat="48.06663" lon="-3.47935">
        <ele>147.5</ele>
        <time>2025-02-26T12:12:50Z</time>
      </trkpt>
      <trkpt lat="48.06663" lon="-3.47935">
        <ele>147.4</ele>
        <time>2025-02-26T12:12:51Z</time>
      </trkpt>
      <trkpt lat="48.06663" lon="-3.47934">
        <ele>147.4</ele>
        <time>2025-02-26T12:12:52Z</time>
      </trkpt>
      <trkpt lat="48.06663" lon="-3.47933">
        <ele>147.3</ele>
        <time>2025-02-26T12:12:53Z</time>
      </trkpt>
      <trkpt lat="48.06663" lon="-3.47932">
        <ele>147.4</ele>
        <time>2025-02-26T12:12:54Z</time>
      </trkpt>
      <trkpt lat="48.06662" lon="-3.47932">
        <ele>147.3</ele>
        <time>2025-02-26T12:12:55Z</time>
      </trkpt>
      <trkpt lat="48.06662" lon="-3.47932">
        <ele>147.3</ele>
        <time>2025-02-26T12:12:56Z</time>
      </trkpt>
      <trkpt lat="48.06662" lon="-3.47932">
        <ele>147.3</ele>
        <time>2025-02-26T12:12:57Z</time>
      </trkpt>
      <trkpt lat="48.06663" lon="-3.47932">
        <ele>147.3</ele>
        <time>2025-02-26T12:12:58Z</time>
      </trkpt>
      <trkpt lat="48.06663" lon="-3.47932">
        <ele>147.4</ele>
        <time>2025-02-26T12:12:59Z</time>
      </trkpt>
      <trkpt lat="48.06663" lon="-3.47932">
        <ele>147.4</ele>
        <time>2025-02-26T12:13:00Z</time>
      </trkpt>
      <trkpt lat="48.06663" lon="-3.47932">
        <ele>147.4</ele>
        <time>2025-02-26T12:13:01Z</time>
      </trkpt>
      <trkpt lat="48.06663" lon="-3.47932">
        <ele>147.4</ele>
        <time>2025-02-26T12:13:02Z</time>
      </trkpt>
      <trkpt lat="48.06663" lon="-3.47932">
        <ele>147.4</ele>
        <time>2025-02-26T12:13:03Z</time>
      </trkpt>
      <trkpt lat="48.06663" lon="-3.47932">
        <ele>147.4</ele>
        <time>2025-02-26T12:13:04Z</time>
      </trkpt>
      <trkpt lat="48.06663" lon="-3.47932">
        <ele>147.3</ele>
        <time>2025-02-26T12:13:05Z</time>
      </trkpt>
      <trkpt lat="48.06663" lon="-3.47932">
        <ele>147.3</ele>
        <time>2025-02-26T12:13:06Z</time>
      </trkpt>
      <trkpt lat="48.06663" lon="-3.47932">
        <ele>147.3</ele>
        <time>2025-02-26T12:13:07Z</time>
      </trkpt>
      <trkpt lat="48.06663" lon="-3.47932">
        <ele>147.3</ele>
        <time>2025-02-26T12:13:08Z</time>
      </trkpt>
      <trkpt lat="48.06663" lon="-3.47932">
        <ele>147.3</ele>
        <time>2025-02-26T12:13:09Z</time>
      </trkpt>
      <trkpt lat="48.06663" lon="-3.47932">
        <ele>147.3</ele>
        <time>2025-02-26T12:13:10Z</time>
      </trkpt>
      <trkpt lat="48.06663" lon="-3.47932">
        <ele>147.3</ele>
        <time>2025-02-26T12:13:11Z</time>
      </trkpt>
      <trkpt lat="48.06663" lon="-3.47932">
        <ele>147.3</ele>
        <time>2025-02-26T12:13:12Z</time>
      </trkpt>
      <trkpt lat="48.06663" lon="-3.47932">
        <ele>147.3</ele>
        <time>2025-02-26T12:13:13Z</time>
      </trkpt>
      <trkpt lat="48.06663" lon="-3.47932">
        <ele>147.4</ele>
        <time>2025-02-26T12:13:14Z</time>
      </trkpt>
      <trkpt lat="48.06663" lon="-3.47932">
        <ele>147.3</ele>
        <time>2025-02-26T12:13:15Z</time>
      </trkpt>
      <trkpt lat="48.06663" lon="-3.47932">
        <ele>147.3</ele>
        <time>2025-02-26T12:13:16Z</time>
      </trkpt>
      <trkpt lat="48.06662" lon="-3.47932">
        <ele>147.3</ele>
        <time>2025-02-26T12:13:17Z</time>
      </trkpt>
      <trkpt lat="48.06663" lon="-3.47932">
        <ele>147.3</ele>
        <time>2025-02-26T12:13:18Z</time>
      </trkpt>
      <trkpt lat="48.06663" lon="-3.47931">
        <ele>147.3</ele>
        <time>2025-02-26T12:13:19Z</time>
      </trkpt>
      <trkpt lat="48.06663" lon="-3.47931">
        <ele>147.3</ele>
        <time>2025-02-26T12:13:20Z</time>
      </trkpt>
      <trkpt lat="48.06663" lon="-3.47931">
        <ele>147.3</ele>
        <time>2025-02-26T12:13:21Z</time>
      </trkpt>
      <trkpt lat="48.06663" lon="-3.47931">
        <ele>147.3</ele>
        <time>2025-02-26T12:13:22Z</time>
      </trkpt>
      <trkpt lat="48.06663" lon="-3.47931">
        <ele>147.3</ele>
        <time>2025-02-26T12:13:23Z</time>
      </trkpt>
      <trkpt lat="48.06663" lon="-3.47931">
        <ele>147.3</ele>
        <time>2025-02-26T12:13:24Z</time>
      </trkpt>
      <trkpt lat="48.06663" lon="-3.47931">
        <ele>147.3</ele>
        <time>2025-02-26T12:13:25Z</time>
      </trkpt>
      <trkpt lat="48.06663" lon="-3.47931">
        <ele>147.3</ele>
        <time>2025-02-26T12:13:26Z</time>
      </trkpt>
      <trkpt lat="48.06663" lon="-3.47931">
        <ele>147.3</ele>
        <time>2025-02-26T12:13:27Z</time>
      </trkpt>
      <trkpt lat="48.06663" lon="-3.47931">
        <ele>147.3</ele>
        <time>2025-02-26T12:13:28Z</time>
      </trkpt>
      <trkpt lat="48.06663" lon="-3.47932">
        <ele>147.3</ele>
        <time>2025-02-26T12:13:29Z</time>
      </trkpt>
      <trkpt lat="48.06663" lon="-3.47932">
        <ele>147.3</ele>
        <time>2025-02-26T12:13:30Z</time>
      </trkpt>
      <trkpt lat="48.06662" lon="-3.47932">
        <ele>147.3</ele>
        <time>2025-02-26T12:13:31Z</time>
      </trkpt>
      <trkpt lat="48.06661" lon="-3.47932">
        <ele>147.2</ele>
        <time>2025-02-26T12:13:32Z</time>
      </trkpt>
      <trkpt lat="48.06661" lon="-3.47933">
        <ele>147.2</ele>
        <time>2025-02-26T12:13:33Z</time>
      </trkpt>
      <trkpt lat="48.0666" lon="-3.47934">
        <ele>147.2</ele>
        <time>2025-02-26T12:13:34Z</time>
      </trkpt>
      <trkpt lat="48.0666" lon="-3.47934">
        <ele>147.2</ele>
        <time>2025-02-26T12:13:35Z</time>
      </trkpt>
      <trkpt lat="48.0666" lon="-3.47934">
        <ele>147.2</ele>
        <time>2025-02-26T12:13:36Z</time>
      </trkpt>
      <trkpt lat="48.0666" lon="-3.47934">
        <ele>147.2</ele>
        <time>2025-02-26T12:13:37Z</time>
      </trkpt>
      <trkpt lat="48.06661" lon="-3.47934">
        <ele>147.3</ele>
        <time>2025-02-26T12:13:38Z</time>
      </trkpt>
      <trkpt lat="48.06661" lon="-3.47933">
        <ele>147.3</ele>
        <time>2025-02-26T12:13:39Z</time>
      </trkpt>
      <trkpt lat="48.06661" lon="-3.47933">
        <ele>147.3</ele>
        <time>2025-02-26T12:13:40Z</time>
      </trkpt>
      <trkpt lat="48.06661" lon="-3.47933">
        <ele>147.3</ele>
        <time>2025-02-26T12:13:41Z</time>
      </trkpt>
      <trkpt lat="48.06662" lon="-3.47933">
        <ele>147.3</ele>
        <time>2025-02-26T12:13:42Z</time>
      </trkpt>
      <trkpt lat="48.06662" lon="-3.47933">
        <ele>147.3</ele>
        <time>2025-02-26T12:13:43Z</time>
      </trkpt>
      <trkpt lat="48.06661" lon="-3.47933">
        <ele>147.3</ele>
        <time>2025-02-26T12:13:44Z</time>
      </trkpt>
      <trkpt lat="48.06661" lon="-3.47933">
        <ele>147.3</ele>
        <time>2025-02-26T12:13:45Z</time>
      </trkpt>
      <trkpt lat="48.06661" lon="-3.47933">
        <ele>147.3</ele>
        <time>2025-02-26T12:13:46Z</time>
      </trkpt>
      <trkpt lat="48.06661" lon="-3.47933">
        <ele>147.3</ele>
        <time>2025-02-26T12:13:47Z</time>
      </trkpt>
      <trkpt lat="48.06661" lon="-3.47933">
        <ele>147.3</ele>
        <time>2025-02-26T12:13:48Z</time>
      </trkpt>
      <trkpt lat="48.06661" lon="-3.47933">
        <ele>147.3</ele>
        <time>2025-02-26T12:13:49Z</time>
      </trkpt>
      <trkpt lat="48.06661" lon="-3.47933">
        <ele>147.3</ele>
        <time>2025-02-26T12:13:50Z</time>
      </trkpt>
      <trkpt lat="48.06661" lon="-3.47933">
        <ele>147.3</ele>
        <time>2025-02-26T12:13:51Z</time>
      </trkpt>
      <trkpt lat="48.06661" lon="-3.47933">
        <ele>147.3</ele>
        <time>2025-02-26T12:13:52Z</time>
      </trkpt>
      <trkpt lat="48.06661" lon="-3.47933">
        <ele>147.3</ele>
        <time>2025-02-26T12:13:53Z</time>
      </trkpt>
      <trkpt lat="48.06661" lon="-3.47933">
        <ele>147.3</ele>
        <time>2025-02-26T12:13:54Z</time>
      </trkpt>
      <trkpt lat="48.06661" lon="-3.47934">
        <ele>147.3</ele>
        <time>2025-02-26T12:13:55Z</time>
      </trkpt>
      <trkpt lat="48.06661" lon="-3.47934">
        <ele>147.3</ele>
        <time>2025-02-26T12:13:56Z</time>
      </trkpt>
      <trkpt lat="48.06662" lon="-3.47935">
        <ele>147.4</ele>
        <time>2025-02-26T12:13:57Z</time>
      </trkpt>
      <trkpt lat="48.06663" lon="-3.47936">
        <ele>147.5</ele>
        <time>2025-02-26T12:13:58Z</time>
      </trkpt>
      <trkpt lat="48.06664" lon="-3.47936">
        <ele>147.5</ele>
        <time>2025-02-26T12:13:59Z</time>
      </trkpt>
      <trkpt lat="48.06665" lon="-3.47937">
        <ele>147.6</ele>
        <time>2025-02-26T12:14:00Z</time>
      </trkpt>
      <trkpt lat="48.06666" lon="-3.47937">
        <ele>147.7</ele>
        <time>2025-02-26T12:14:01Z</time>
      </trkpt>
      <trkpt lat="48.06666" lon="-3.47937">
        <ele>147.7</ele>
        <time>2025-02-26T12:14:02Z</time>
      </trkpt>
      <trkpt lat="48.06667" lon="-3.47937">
        <ele>147.7</ele>
        <time>2025-02-26T12:14:03Z</time>
      </trkpt>
      <trkpt lat="48.06667" lon="-3.47937">
        <ele>147.7</ele>
        <time>2025-02-26T12:14:04Z</time>
      </trkpt>
      <trkpt lat="48.06668" lon="-3.47938">
        <ele>147.7</ele>
        <time>2025-02-26T12:14:05Z</time>
      </trkpt>
      <trkpt lat="48.06669" lon="-3.47939">
        <ele>147.7</ele>
        <time>2025-02-26T12:14:06Z</time>
      </trkpt>
      <trkpt lat="48.06669" lon="-3.4794">
        <ele>147.7</ele>
        <time>2025-02-26T12:14:07Z</time>
      </trkpt>
      <trkpt lat="48.0667" lon="-3.47941">
        <ele>147.8</ele>
        <time>2025-02-26T12:14:08Z</time>
      </trkpt>
      <trkpt lat="48.0667" lon="-3.47942">
        <ele>147.8</ele>
        <time>2025-02-26T12:14:09Z</time>
      </trkpt>
      <trkpt lat="48.0667" lon="-3.47943">
        <ele>147.8</ele>
        <time>2025-02-26T12:14:10Z</time>
      </trkpt>
      <trkpt lat="48.0667" lon="-3.47943">
        <ele>147.8</ele>
        <time>2025-02-26T12:14:11Z</time>
      </trkpt>
      <trkpt lat="48.0667" lon="-3.47942">
        <ele>147.8</ele>
        <time>2025-02-26T12:14:12Z</time>
      </trkpt>
      <trkpt lat="48.0667" lon="-3.47942">
        <ele>147.8</ele>
        <time>2025-02-26T12:14:13Z</time>
      </trkpt>
      <trkpt lat="48.0667" lon="-3.47941">
        <ele>147.8</ele>
        <time>2025-02-26T12:14:14Z</time>
      </trkpt>
      <trkpt lat="48.0667" lon="-3.47941">
        <ele>147.8</ele>
        <time>2025-02-26T12:14:15Z</time>
      </trkpt>
      <trkpt lat="48.06671" lon="-3.47942">
        <ele>147.8</ele>
        <time>2025-02-26T12:14:16Z</time>
      </trkpt>
      <trkpt lat="48.06671" lon="-3.47942">
        <ele>147.8</ele>
        <time>2025-02-26T12:14:17Z</time>
      </trkpt>
      <trkpt lat="48.06671" lon="-3.47943">
        <ele>147.8</ele>
        <time>2025-02-26T12:14:18Z</time>
      </trkpt>
      <trkpt lat="48.0667" lon="-3.47945">
        <ele>147.9</ele>
        <time>2025-02-26T12:14:19Z</time>
      </trkpt>
      <trkpt lat="48.06669" lon="-3.47946">
        <ele>147.9</ele>
        <time>2025-02-26T12:14:20Z</time>
      </trkpt>
      <trkpt lat="48.0667" lon="-3.47946">
        <ele>147.9</ele>
        <time>2025-02-26T12:14:21Z</time>
      </trkpt>
      <trkpt lat="48.0667" lon="-3.47945">
        <ele>147.9</ele>
        <time>2025-02-26T12:14:22Z</time>
      </trkpt>
      <trkpt lat="48.0667" lon="-3.47945">
        <ele>147.9</ele>
        <time>2025-02-26T12:14:23Z</time>
      </trkpt>
      <trkpt lat="48.0667" lon="-3.47945">
        <ele>147.9</ele>
        <time>2025-02-26T12:14:24Z</time>
      </trkpt>
      <trkpt lat="48.0667" lon="-3.47945">
        <ele>147.9</ele>
        <time>2025-02-26T12:14:25Z</time>
      </trkpt>
      <trkpt lat="48.0667" lon="-3.47945">
        <ele>147.9</ele>
        <time>2025-02-26T12:14:26Z</time>
      </trkpt>
      <trkpt lat="48.0667" lon="-3.47945">
        <ele>147.9</ele>
        <time>2025-02-26T12:14:27Z</time>
      </trkpt>
      <trkpt lat="48.0667" lon="-3.47945">
        <ele>147.9</ele>
        <time>2025-02-26T12:14:28Z</time>
      </trkpt>
      <trkpt lat="48.0667" lon="-3.47945">
        <ele>147.9</ele>
        <time>2025-02-26T12:14:29Z</time>
      </trkpt>
      <trkpt lat="48.0667" lon="-3.47945">
        <ele>147.9</ele>
        <time>2025-02-26T12:14:30Z</time>
      </trkpt>
      <trkpt lat="48.0667" lon="-3.47945">
        <ele>147.9</ele>
        <time>2025-02-26T12:14:31Z</time>
      </trkpt>
      <trkpt lat="48.0667" lon="-3.47945">
        <ele>147.9</ele>
        <time>2025-02-26T12:14:32Z</time>
      </trkpt>
      <trkpt lat="48.0667" lon="-3.47946">
        <ele>147.9</ele>
        <time>2025-02-26T12:14:33Z</time>
      </trkpt>
      <trkpt lat="48.0667" lon="-3.47946">
        <ele>147.9</ele>
        <time>2025-02-26T12:14:34Z</time>
      </trkpt>
      <trkpt lat="48.0667" lon="-3.47946">
        <ele>147.9</ele>
        <time>2025-02-26T12:14:35Z</time>
      </trkpt>
      <trkpt lat="48.0667" lon="-3.47946">
        <ele>147.9</ele>
        <time>2025-02-26T12:14:36Z</time>
      </trkpt>
      <trkpt lat="48.0667" lon="-3.47946">
        <ele>147.9</ele>
        <time>2025-02-26T12:14:37Z</time>
      </trkpt>
      <trkpt lat="48.0667" lon="-3.47946">
        <ele>147.9</ele>
        <time>2025-02-26T12:14:38Z</time>
      </trkpt>
      <trkpt lat="48.0667" lon="-3.47946">
        <ele>147.9</ele>
        <time>2025-02-26T12:14:39Z</time>
      </trkpt>
      <trkpt lat="48.0667" lon="-3.47946">
        <ele>147.9</ele>
        <time>2025-02-26T12:14:40Z</time>
      </trkpt>
      <trkpt lat="48.06669" lon="-3.47945">
        <ele>147.9</ele>
        <time>2025-02-26T12:14:41Z</time>
      </trkpt>
      <trkpt lat="48.06669" lon="-3.47945">
        <ele>147.9</ele>
        <time>2025-02-26T12:14:42Z</time>
      </trkpt>
      <trkpt lat="48.06669" lon="-3.47945">
        <ele>147.9</ele>
        <time>2025-02-26T12:14:43Z</time>
      </trkpt>
      <trkpt lat="48.06669" lon="-3.47945">
        <ele>147.9</ele>
        <time>2025-02-26T12:14:44Z</time>
      </trkpt>
      <trkpt lat="48.06669" lon="-3.47945">
        <ele>147.9</ele>
        <time>2025-02-26T12:14:45Z</time>
      </trkpt>
      <trkpt lat="48.06669" lon="-3.47945">
        <ele>147.9</ele>
        <time>2025-02-26T12:14:46Z</time>
      </trkpt>
      <trkpt lat="48.06669" lon="-3.47945">
        <ele>147.9</ele>
        <time>2025-02-26T12:14:47Z</time>
      </trkpt>
      <trkpt lat="48.06669" lon="-3.47945">
        <ele>147.9</ele>
        <time>2025-02-26T12:14:48Z</time>
      </trkpt>
      <trkpt lat="48.06669" lon="-3.47945">
        <ele>147.9</ele>
        <time>2025-02-26T12:14:49Z</time>
      </trkpt>
      <trkpt lat="48.06669" lon="-3.47945">
        <ele>147.9</ele>
        <time>2025-02-26T12:14:50Z</time>
      </trkpt>
      <trkpt lat="48.06669" lon="-3.47945">
        <ele>147.9</ele>
        <time>2025-02-26T12:14:51Z</time>
      </trkpt>
      <trkpt lat="48.06669" lon="-3.47945">
        <ele>147.9</ele>
        <time>2025-02-26T12:14:52Z</time>
      </trkpt>
      <trkpt lat="48.06669" lon="-3.47945">
        <ele>147.9</ele>
        <time>2025-02-26T12:14:53Z</time>
      </trkpt>
      <trkpt lat="48.06669" lon="-3.47945">
        <ele>147.9</ele>
        <time>2025-02-26T12:14:54Z</time>
      </trkpt>
      <trkpt lat="48.06669" lon="-3.47945">
        <ele>147.9</ele>
        <time>2025-02-26T12:14:55Z</time>
      </trkpt>
      <trkpt lat="48.06669" lon="-3.47945">
        <ele>147.9</ele>
        <time>2025-02-26T12:14:56Z</time>
      </trkpt>
      <trkpt lat="48.06669" lon="-3.47945">
        <ele>147.9</ele>
        <time>2025-02-26T12:14:57Z</time>
      </trkpt>
      <trkpt lat="48.06669" lon="-3.47945">
        <ele>147.9</ele>
        <time>2025-02-26T12:14:58Z</time>
      </trkpt>
      <trkpt lat="48.06669" lon="-3.47945">
        <ele>147.9</ele>
        <time>2025-02-26T12:14:59Z</time>
      </trkpt>
      <trkpt lat="48.06669" lon="-3.47945">
        <ele>147.9</ele>
        <time>2025-02-26T12:15:00Z</time>
      </trkpt>
      <trkpt lat="48.06669" lon="-3.47945">
        <ele>147.9</ele>
        <time>2025-02-26T12:15:01Z</time>
      </trkpt>
      <trkpt lat="48.06669" lon="-3.47945">
        <ele>147.9</ele>
        <time>2025-02-26T12:15:02Z</time>
      </trkpt>
      <trkpt lat="48.06669" lon="-3.47945">
        <ele>147.9</ele>
        <time>2025-02-26T12:15:03Z</time>
      </trkpt>
      <trkpt lat="48.06669" lon="-3.47945">
        <ele>147.9</ele>
        <time>2025-02-26T12:15:04Z</time>
      </trkpt>
      <trkpt lat="48.06669" lon="-3.47945">
        <ele>147.9</ele>
        <time>2025-02-26T12:15:05Z</time>
      </trkpt>
      <trkpt lat="48.06669" lon="-3.47945">
        <ele>147.9</ele>
        <time>2025-02-26T12:15:06Z</time>
      </trkpt>
      <trkpt lat="48.06669" lon="-3.47945">
        <ele>147.9</ele>
        <time>2025-02-26T12:15:07Z</time>
      </trkpt>
      <trkpt lat="48.06669" lon="-3.47945">
        <ele>147.9</ele>
        <time>2025-02-26T12:15:08Z</time>
      </trkpt>
      <trkpt lat="48.06669" lon="-3.47945">
        <ele>147.9</ele>
        <time>2025-02-26T12:15:09Z</time>
      </trkpt>
      <trkpt lat="48.06669" lon="-3.47945">
        <ele>147.9</ele>
        <time>2025-02-26T12:15:10Z</time>
      </trkpt>
      <trkpt lat="48.06669" lon="-3.47945">
        <ele>147.9</ele>
        <time>2025-02-26T12:15:11Z</time>
      </trkpt>
      <trkpt lat="48.06669" lon="-3.47945">
        <ele>147.9</ele>
        <time>2025-02-26T12:15:12Z</time>
      </trkpt>
      <trkpt lat="48.06669" lon="-3.47945">
        <ele>147.9</ele>
        <time>2025-02-26T12:15:13Z</time>
      </trkpt>
      <trkpt lat="48.06669" lon="-3.47945">
        <ele>147.9</ele>
        <time>2025-02-26T12:15:14Z</time>
      </trkpt>
      <trkpt lat="48.06669" lon="-3.47945">
        <ele>147.9</ele>
        <time>2025-02-26T12:15:15Z</time>
      </trkpt>
      <trkpt lat="48.06669" lon="-3.47945">
        <ele>147.9</ele>
        <time>2025-02-26T12:15:16Z</time>
      </trkpt>
      <trkpt lat="48.06669" lon="-3.47945">
        <ele>147.9</ele>
        <time>2025-02-26T12:15:17Z</time>
      </trkpt>
      <trkpt lat="48.06669" lon="-3.47945">
        <ele>147.9</ele>
        <time>2025-02-26T12:15:18Z</time>
      </trkpt>
      <trkpt lat="48.06669" lon="-3.47945">
        <ele>147.9</ele>
        <time>2025-02-26T12:15:19Z</time>
      </trkpt>
      <trkpt lat="48.06669" lon="-3.47945">
        <ele>147.9</ele>
        <time>2025-02-26T12:15:20Z</time>
      </trkpt>
      <trkpt lat="48.06669" lon="-3.47945">
        <ele>147.9</ele>
        <time>2025-02-26T12:15:21Z</time>
      </trkpt>
      <trkpt lat="48.06669" lon="-3.47945">
        <ele>147.9</ele>
        <time>2025-02-26T12:15:22Z</time>
      </trkpt>
      <trkpt lat="48.06669" lon="-3.47945">
        <ele>147.9</ele>
        <time>2025-02-26T12:15:23Z</time>
      </trkpt>
      <trkpt lat="48.06669" lon="-3.47945">
        <ele>147.9</ele>
        <time>2025-02-26T12:15:24Z</time>
      </trkpt>
      <trkpt lat="48.06669" lon="-3.47945">
        <ele>147.9</ele>
        <time>2025-02-26T12:15:25Z</time>
      </trkpt>
      <trkpt lat="48.06669" lon="-3.47945">
        <ele>147.9</ele>
        <time>2025-02-26T12:15:26Z</time>
      </trkpt>
      <trkpt lat="48.06669" lon="-3.47945">
        <ele>147.9</ele>
        <time>2025-02-26T12:15:27Z</time>
      </trkpt>
      <trkpt lat="48.06669" lon="-3.47945">
        <ele>147.9</ele>
        <time>2025-02-26T12:15:28Z</time>
      </trkpt>
      <trkpt lat="48.06669" lon="-3.47945">
        <ele>147.9</ele>
        <time>2025-02-26T12:15:29Z</time>
      </trkpt>
      <trkpt lat="48.06669" lon="-3.47945">
        <ele>147.9</ele>
        <time>2025-02-26T12:15:30Z</time>
      </trkpt>
      <trkpt lat="48.06669" lon="-3.47945">
        <ele>147.9</ele>
        <time>2025-02-26T12:15:31Z</time>
      </trkpt>
      <trkpt lat="48.06669" lon="-3.47945">
        <ele>147.9</ele>
        <time>2025-02-26T12:15:32Z</time>
      </trkpt>
      <trkpt lat="48.06669" lon="-3.47945">
        <ele>147.9</ele>
        <time>2025-02-26T12:15:33Z</time>
      </trkpt>
      <trkpt lat="48.06669" lon="-3.47945">
        <ele>147.9</ele>
        <time>2025-02-26T12:15:34Z</time>
      </trkpt>
      <trkpt lat="48.06669" lon="-3.47945">
        <ele>147.9</ele>
        <time>2025-02-26T12:15:35Z</time>
      </trkpt>
      <trkpt lat="48.06669" lon="-3.47945">
        <ele>147.9</ele>
        <time>2025-02-26T12:15:36Z</time>
      </trkpt>
      <trkpt lat="48.06669" lon="-3.47945">
        <ele>147.9</ele>
        <time>2025-02-26T12:15:37Z</time>
      </trkpt>
      <trkpt lat="48.06669" lon="-3.47945">
        <ele>147.9</ele>
        <time>2025-02-26T12:15:38Z</time>
      </trkpt>
      <trkpt lat="48.06669" lon="-3.47945">
        <ele>147.9</ele>
        <time>2025-02-26T12:15:39Z</time>
      </trkpt>
      <trkpt lat="48.06669" lon="-3.47945">
        <ele>147.9</ele>
        <time>2025-02-26T12:15:40Z</time>
      </trkpt>
      <trkpt lat="48.06669" lon="-3.47945">
        <ele>147.9</ele>
        <time>2025-02-26T12:15:41Z</time>
      </trkpt>
      <trkpt lat="48.06669" lon="-3.47945">
        <ele>147.9</ele>
        <time>2025-02-26T12:15:42Z</time>
      </trkpt>
      <trkpt lat="48.06669" lon="-3.47945">
        <ele>147.9</ele>
        <time>2025-02-26T12:15:43Z</time>
      </trkpt>
      <trkpt lat="48.06669" lon="-3.47945">
        <ele>147.9</ele>
        <time>2025-02-26T12:15:44Z</time>
      </trkpt>
      <trkpt lat="48.06669" lon="-3.47945">
        <ele>147.9</ele>
        <time>2025-02-26T12:15:45Z</time>
      </trkpt>
      <trkpt lat="48.06669" lon="-3.47945">
        <ele>147.9</ele>
        <time>2025-02-26T12:15:46Z</time>
      </trkpt>
      <trkpt lat="48.06669" lon="-3.47945">
        <ele>147.9</ele>
        <time>2025-02-26T12:15:47Z</time>
      </trkpt>
      <trkpt lat="48.06669" lon="-3.47945">
        <ele>147.9</ele>
        <time>2025-02-26T12:15:48Z</time>
      </trkpt>
      <trkpt lat="48.06669" lon="-3.47945">
        <ele>147.9</ele>
        <time>2025-02-26T12:15:49Z</time>
      </trkpt>
      <trkpt lat="48.06669" lon="-3.47945">
        <ele>147.9</ele>
        <time>2025-02-26T12:15:50Z</time>
      </trkpt>
      <trkpt lat="48.06669" lon="-3.47945">
        <ele>147.9</ele>
        <time>2025-02-26T12:15:51Z</time>
      </trkpt>
      <trkpt lat="48.06669" lon="-3.47945">
        <ele>147.9</ele>
        <time>2025-02-26T12:15:52Z</time>
      </trkpt>
      <trkpt lat="48.06669" lon="-3.47945">
        <ele>147.9</ele>
        <time>2025-02-26T12:15:53Z</time>
      </trkpt>
      <trkpt lat="48.06669" lon="-3.47945">
        <ele>147.9</ele>
        <time>2025-02-26T12:15:54Z</time>
      </trkpt>
      <trkpt lat="48.06669" lon="-3.47945">
        <ele>147.9</ele>
        <time>2025-02-26T12:15:55Z</time>
      </trkpt>
      <trkpt lat="48.06669" lon="-3.47945">
        <ele>147.9</ele>
        <time>2025-02-26T12:15:56Z</time>
      </trkpt>
      <trkpt lat="48.06669" lon="-3.47945">
        <ele>147.9</ele>
        <time>2025-02-26T12:15:57Z</time>
      </trkpt>
      <trkpt lat="48.06669" lon="-3.47945">
        <ele>147.9</ele>
        <time>2025-02-26T12:15:58Z</time>
      </trkpt>
      <trkpt lat="48.06669" lon="-3.47945">
        <ele>147.9</ele>
        <time>2025-02-26T12:15:59Z</time>
      </trkpt>
      <trkpt lat="48.06669" lon="-3.47945">
        <ele>147.9</ele>
        <time>2025-02-26T12:16:00Z</time>
      </trkpt>
      <trkpt lat="48.06669" lon="-3.47945">
        <ele>147.9</ele>
        <time>2025-02-26T12:16:01Z</time>
      </trkpt>
      <trkpt lat="48.06669" lon="-3.47945">
        <ele>147.9</ele>
        <time>2025-02-26T12:16:02Z</time>
      </trkpt>
      <trkpt lat="48.06669" lon="-3.47945">
        <ele>147.9</ele>
        <time>2025-02-26T12:16:03Z</time>
      </trkpt>
      <trkpt lat="48.06669" lon="-3.47945">
        <ele>147.9</ele>
        <time>2025-02-26T12:16:04Z</time>
      </trkpt>
      <trkpt lat="48.06669" lon="-3.47944">
        <ele>147.9</ele>
        <time>2025-02-26T12:16:05Z</time>
      </trkpt>
      <trkpt lat="48.06669" lon="-3.47944">
        <ele>147.9</ele>
        <time>2025-02-26T12:16:06Z</time>
      </trkpt>
      <trkpt lat="48.06669" lon="-3.47944">
        <ele>147.9</ele>
        <time>2025-02-26T12:16:07Z</time>
      </trkpt>
      <trkpt lat="48.06669" lon="-3.47945">
        <ele>147.9</ele>
        <time>2025-02-26T12:16:08Z</time>
      </trkpt>
      <trkpt lat="48.06669" lon="-3.47946">
        <ele>147.9</ele>
        <time>2025-02-26T12:16:09Z</time>
      </trkpt>
      <trkpt lat="48.06669" lon="-3.47946">
        <ele>147.9</ele>
        <time>2025-02-26T12:16:10Z</time>
      </trkpt>
      <trkpt lat="48.06669" lon="-3.47946">
        <ele>147.9</ele>
        <time>2025-02-26T12:16:11Z</time>
      </trkpt>
      <trkpt lat="48.06669" lon="-3.47946">
        <ele>147.9</ele>
        <time>2025-02-26T12:16:12Z</time>
      </trkpt>
      <trkpt lat="48.06669" lon="-3.47946">
        <ele>147.9</ele>
        <time>2025-02-26T12:16:13Z</time>
      </trkpt>
      <trkpt lat="48.06669" lon="-3.47946">
        <ele>147.9</ele>
        <time>2025-02-26T12:16:14Z</time>
      </trkpt>
      <trkpt lat="48.06669" lon="-3.47946">
        <ele>147.9</ele>
        <time>2025-02-26T12:16:15Z</time>
      </trkpt>
      <trkpt lat="48.06669" lon="-3.47946">
        <ele>147.9</ele>
        <time>2025-02-26T12:16:16Z</time>
      </trkpt>
      <trkpt lat="48.06669" lon="-3.47946">
        <ele>147.9</ele>
        <time>2025-02-26T12:16:17Z</time>
      </trkpt>
      <trkpt lat="48.06669" lon="-3.47946">
        <ele>147.9</ele>
        <time>2025-02-26T12:16:18Z</time>
      </trkpt>
      <trkpt lat="48.06669" lon="-3.47946">
        <ele>147.9</ele>
        <time>2025-02-26T12:16:19Z</time>
      </trkpt>
      <trkpt lat="48.06669" lon="-3.47946">
        <ele>147.9</ele>
        <time>2025-02-26T12:16:20Z</time>
      </trkpt>
      <trkpt lat="48.06669" lon="-3.47946">
        <ele>147.9</ele>
        <time>2025-02-26T12:16:21Z</time>
      </trkpt>
      <trkpt lat="48.06669" lon="-3.47946">
        <ele>147.9</ele>
        <time>2025-02-26T12:16:22Z</time>
      </trkpt>
      <trkpt lat="48.06669" lon="-3.47946">
        <ele>147.9</ele>
        <time>2025-02-26T12:16:23Z</time>
      </trkpt>
      <trkpt lat="48.06669" lon="-3.47946">
        <ele>147.9</ele>
        <time>2025-02-26T12:16:24Z</time>
      </trkpt>
      <trkpt lat="48.0667" lon="-3.47946">
        <ele>147.9</ele>
        <time>2025-02-26T12:16:25Z</time>
      </trkpt>
      <trkpt lat="48.0667" lon="-3.47946">
        <ele>147.9</ele>
        <time>2025-02-26T12:16:26Z</time>
      </trkpt>
      <trkpt lat="48.0667" lon="-3.47946">
        <ele>147.9</ele>
        <time>2025-02-26T12:16:27Z</time>
      </trkpt>
      <trkpt lat="48.0667" lon="-3.47946">
        <ele>147.9</ele>
        <time>2025-02-26T12:16:28Z</time>
      </trkpt>
      <trkpt lat="48.0667" lon="-3.47946">
        <ele>147.9</ele>
        <time>2025-02-26T12:16:29Z</time>
      </trkpt>
      <trkpt lat="48.0667" lon="-3.47946">
        <ele>147.9</ele>
        <time>2025-02-26T12:16:30Z</time>
      </trkpt>
      <trkpt lat="48.0667" lon="-3.47946">
        <ele>147.9</ele>
        <time>2025-02-26T12:16:31Z</time>
      </trkpt>
      <trkpt lat="48.0667" lon="-3.47946">
        <ele>147.9</ele>
        <time>2025-02-26T12:16:32Z</time>
      </trkpt>
      <trkpt lat="48.0667" lon="-3.47946">
        <ele>147.9</ele>
        <time>2025-02-26T12:16:33Z</time>
      </trkpt>
      <trkpt lat="48.0667" lon="-3.47946">
        <ele>147.9</ele>
        <time>2025-02-26T12:16:34Z</time>
      </trkpt>
      <trkpt lat="48.0667" lon="-3.47946">
        <ele>147.9</ele>
        <time>2025-02-26T12:16:35Z</time>
      </trkpt>
      <trkpt lat="48.0667" lon="-3.47946">
        <ele>147.9</ele>
        <time>2025-02-26T12:16:36Z</time>
      </trkpt>
      <trkpt lat="48.0667" lon="-3.47946">
        <ele>147.9</ele>
        <time>2025-02-26T12:16:37Z</time>
      </trkpt>
      <trkpt lat="48.0667" lon="-3.47946">
        <ele>147.9</ele>
        <time>2025-02-26T12:16:38Z</time>
      </trkpt>
      <trkpt lat="48.0667" lon="-3.47946">
        <ele>147.9</ele>
        <time>2025-02-26T12:16:39Z</time>
      </trkpt>
      <trkpt lat="48.06671" lon="-3.47945">
        <ele>147.9</ele>
        <time>2025-02-26T12:16:40Z</time>
      </trkpt>
      <trkpt lat="48.06671" lon="-3.47945">
        <ele>147.8</ele>
        <time>2025-02-26T12:16:41Z</time>
      </trkpt>
      <trkpt lat="48.06672" lon="-3.47944">
        <ele>147.8</ele>
        <time>2025-02-26T12:16:42Z</time>
      </trkpt>
      <trkpt lat="48.06673" lon="-3.47945">
        <ele>147.8</ele>
        <time>2025-02-26T12:16:43Z</time>
      </trkpt>
      <trkpt lat="48.06674" lon="-3.47946">
        <ele>147.8</ele>
        <time>2025-02-26T12:16:44Z</time>
      </trkpt>
      <trkpt lat="48.06674" lon="-3.47947">
        <ele>147.7</ele>
        <time>2025-02-26T12:16:45Z</time>
      </trkpt>
      <trkpt lat="48.06675" lon="-3.47948">
        <ele>147.7</ele>
        <time>2025-02-26T12:16:46Z</time>
      </trkpt>
      <trkpt lat="48.06676" lon="-3.47949">
        <ele>147.7</ele>
        <time>2025-02-26T12:16:47Z</time>
      </trkpt>
      <trkpt lat="48.06676" lon="-3.4795">
        <ele>147.7</ele>
        <time>2025-02-26T12:16:48Z</time>
      </trkpt>
      <trkpt lat="48.06677" lon="-3.47951">
        <ele>147.7</ele>
        <time>2025-02-26T12:16:49Z</time>
      </trkpt>
      <trkpt lat="48.06677" lon="-3.47953">
        <ele>147.7</ele>
        <time>2025-02-26T12:16:50Z</time>
      </trkpt>
      <trkpt lat="48.06677" lon="-3.47954">
        <ele>147.8</ele>
        <time>2025-02-26T12:16:51Z</time>
      </trkpt>
      <trkpt lat="48.06677" lon="-3.47954">
        <ele>147.8</ele>
        <time>2025-02-26T12:16:52Z</time>
      </trkpt>
      <trkpt lat="48.06677" lon="-3.47955">
        <ele>147.8</ele>
        <time>2025-02-26T12:16:53Z</time>
      </trkpt>
      <trkpt lat="48.06678" lon="-3.47955">
        <ele>147.7</ele>
        <time>2025-02-26T12:16:54Z</time>
      </trkpt>
      <trkpt lat="48.0668" lon="-3.47956">
        <ele>147.7</ele>
        <time>2025-02-26T12:16:55Z</time>
      </trkpt>
      <trkpt lat="48.06681" lon="-3.47957">
        <ele>147.7</ele>
        <time>2025-02-26T12:16:56Z</time>
      </trkpt>
      <trkpt lat="48.06682" lon="-3.47959">
        <ele>147.7</ele>
        <time>2025-02-26T12:16:57Z</time>
      </trkpt>
      <trkpt lat="48.06683" lon="-3.47959">
        <ele>147.7</ele>
        <time>2025-02-26T12:16:58Z</time>
      </trkpt>
      <trkpt lat="48.06684" lon="-3.47959">
        <ele>147.7</ele>
        <time>2025-02-26T12:16:59Z</time>
      </trkpt>
      <trkpt lat="48.06686" lon="-3.4796">
        <ele>147.7</ele>
        <time>2025-02-26T12:17:00Z</time>
      </trkpt>
      <trkpt lat="48.06687" lon="-3.4796">
        <ele>147.7</ele>
        <time>2025-02-26T12:17:01Z</time>
      </trkpt>
      <trkpt lat="48.06689" lon="-3.4796">
        <ele>147.7</ele>
        <time>2025-02-26T12:17:02Z</time>
      </trkpt>
      <trkpt lat="48.0669" lon="-3.47962">
        <ele>147.7</ele>
        <time>2025-02-26T12:17:03Z</time>
      </trkpt>
      <trkpt lat="48.0669" lon="-3.47963">
        <ele>147.7</ele>
        <time>2025-02-26T12:17:04Z</time>
      </trkpt>
      <trkpt lat="48.06691" lon="-3.47964">
        <ele>147.7</ele>
        <time>2025-02-26T12:17:05Z</time>
      </trkpt>
      <trkpt lat="48.06692" lon="-3.47965">
        <ele>147.8</ele>
        <time>2025-02-26T12:17:06Z</time>
      </trkpt>
      <trkpt lat="48.06694" lon="-3.47966">
        <ele>147.8</ele>
        <time>2025-02-26T12:17:07Z</time>
      </trkpt>
      <trkpt lat="48.06696" lon="-3.47967">
        <ele>147.8</ele>
        <time>2025-02-26T12:17:08Z</time>
      </trkpt>
      <trkpt lat="48.06697" lon="-3.47968">
        <ele>147.8</ele>
        <time>2025-02-26T12:17:09Z</time>
      </trkpt>
      <trkpt lat="48.06698" lon="-3.47969">
        <ele>147.9</ele>
        <time>2025-02-26T12:17:10Z</time>
      </trkpt>
      <trkpt lat="48.06698" lon="-3.47971">
        <ele>148</ele>
        <time>2025-02-26T12:17:11Z</time>
      </trkpt>
      <trkpt lat="48.06698" lon="-3.47971">
        <ele>148</ele>
        <time>2025-02-26T12:17:12Z</time>
      </trkpt>
      <trkpt lat="48.06697" lon="-3.47973">
        <ele>148</ele>
        <time>2025-02-26T12:17:13Z</time>
      </trkpt>
      <trkpt lat="48.06696" lon="-3.47973">
        <ele>148</ele>
        <time>2025-02-26T12:17:14Z</time>
      </trkpt>
      <trkpt lat="48.06696" lon="-3.47975">
        <ele>148.1</ele>
        <time>2025-02-26T12:17:15Z</time>
      </trkpt>
      <trkpt lat="48.06696" lon="-3.47976">
        <ele>148.1</ele>
        <time>2025-02-26T12:17:16Z</time>
      </trkpt>
      <trkpt lat="48.06697" lon="-3.47976">
        <ele>148.1</ele>
        <time>2025-02-26T12:17:17Z</time>
      </trkpt>
      <trkpt lat="48.06697" lon="-3.47974">
        <ele>148.1</ele>
        <time>2025-02-26T12:17:18Z</time>
      </trkpt>
      <trkpt lat="48.06697" lon="-3.47974">
        <ele>148.1</ele>
        <time>2025-02-26T12:17:19Z</time>
      </trkpt>
      <trkpt lat="48.06697" lon="-3.47974">
        <ele>148.1</ele>
        <time>2025-02-26T12:17:20Z</time>
      </trkpt>
      <trkpt lat="48.06697" lon="-3.47974">
        <ele>148.1</ele>
        <time>2025-02-26T12:17:21Z</time>
      </trkpt>
      <trkpt lat="48.06698" lon="-3.47974">
        <ele>148</ele>
        <time>2025-02-26T12:17:22Z</time>
      </trkpt>
      <trkpt lat="48.06696" lon="-3.47974">
        <ele>148.1</ele>
        <time>2025-02-26T12:17:23Z</time>
      </trkpt>
      <trkpt lat="48.06695" lon="-3.47974">
        <ele>148.1</ele>
        <time>2025-02-26T12:17:24Z</time>
      </trkpt>
      <trkpt lat="48.06694" lon="-3.47977">
        <ele>148.2</ele>
        <time>2025-02-26T12:17:25Z</time>
      </trkpt>
      <trkpt lat="48.06692" lon="-3.47978">
        <ele>148.2</ele>
        <time>2025-02-26T12:17:26Z</time>
      </trkpt>
      <trkpt lat="48.0669" lon="-3.47979">
        <ele>148.2</ele>
        <time>2025-02-26T12:17:27Z</time>
      </trkpt>
      <trkpt lat="48.06689" lon="-3.47979">
        <ele>148.2</ele>
        <time>2025-02-26T12:17:28Z</time>
      </trkpt>
      <trkpt lat="48.06688" lon="-3.4798">
        <ele>148.2</ele>
        <time>2025-02-26T12:17:29Z</time>
      </trkpt>
      <trkpt lat="48.06686" lon="-3.4798">
        <ele>148.2</ele>
        <time>2025-02-26T12:17:30Z</time>
      </trkpt>
      <trkpt lat="48.06683" lon="-3.4798">
        <ele>148.2</ele>
        <time>2025-02-26T12:17:31Z</time>
      </trkpt>
      <trkpt lat="48.06683" lon="-3.4798">
        <ele>148.2</ele>
        <time>2025-02-26T12:17:32Z</time>
      </trkpt>
      <trkpt lat="48.06681" lon="-3.47981">
        <ele>148.2</ele>
        <time>2025-02-26T12:17:33Z</time>
      </trkpt>
      <trkpt lat="48.06679" lon="-3.47982">
        <ele>148.2</ele>
        <time>2025-02-26T12:17:34Z</time>
      </trkpt>
      <trkpt lat="48.06678" lon="-3.47982">
        <ele>148.2</ele>
        <time>2025-02-26T12:17:35Z</time>
      </trkpt>
      <trkpt lat="48.06677" lon="-3.47983">
        <ele>148.1</ele>
        <time>2025-02-26T12:17:36Z</time>
      </trkpt>
      <trkpt lat="48.06676" lon="-3.47986">
        <ele>148.2</ele>
        <time>2025-02-26T12:17:37Z</time>
      </trkpt>
      <trkpt lat="48.06675" lon="-3.47987">
        <ele>148.2</ele>
        <time>2025-02-26T12:17:38Z</time>
      </trkpt>
      <trkpt lat="48.06674" lon="-3.47988">
        <ele>148.1</ele>
        <time>2025-02-26T12:17:39Z</time>
      </trkpt>
      <trkpt lat="48.06673" lon="-3.47989">
        <ele>148.1</ele>
        <time>2025-02-26T12:17:40Z</time>
      </trkpt>
      <trkpt lat="48.06672" lon="-3.4799">
        <ele>148.1</ele>
        <time>2025-02-26T12:17:41Z</time>
      </trkpt>
      <trkpt lat="48.06671" lon="-3.4799">
        <ele>148.1</ele>
        <time>2025-02-26T12:17:42Z</time>
      </trkpt>
      <trkpt lat="48.06669" lon="-3.47991">
        <ele>148.1</ele>
        <time>2025-02-26T12:17:43Z</time>
      </trkpt>
      <trkpt lat="48.06669" lon="-3.4799">
        <ele>148.1</ele>
        <time>2025-02-26T12:17:44Z</time>
      </trkpt>
      <trkpt lat="48.06668" lon="-3.47991">
        <ele>148</ele>
        <time>2025-02-26T12:17:45Z</time>
      </trkpt>
      <trkpt lat="48.06667" lon="-3.47992">
        <ele>148</ele>
        <time>2025-02-26T12:17:46Z</time>
      </trkpt>
      <trkpt lat="48.06666" lon="-3.47993">
        <ele>148</ele>
        <time>2025-02-26T12:17:47Z</time>
      </trkpt>
      <trkpt lat="48.06665" lon="-3.47993">
        <ele>147.9</ele>
        <time>2025-02-26T12:17:48Z</time>
      </trkpt>
      <trkpt lat="48.06664" lon="-3.47994">
        <ele>147.9</ele>
        <time>2025-02-26T12:17:49Z</time>
      </trkpt>
      <trkpt lat="48.06662" lon="-3.47995">
        <ele>147.8</ele>
        <time>2025-02-26T12:17:50Z</time>
      </trkpt>
      <trkpt lat="48.06661" lon="-3.47997">
        <ele>147.8</ele>
        <time>2025-02-26T12:17:51Z</time>
      </trkpt>
      <trkpt lat="48.0666" lon="-3.47997">
        <ele>147.8</ele>
        <time>2025-02-26T12:17:52Z</time>
      </trkpt>
      <trkpt lat="48.06659" lon="-3.47997">
        <ele>147.7</ele>
        <time>2025-02-26T12:17:53Z</time>
      </trkpt>
      <trkpt lat="48.06658" lon="-3.47998">
        <ele>147.7</ele>
        <time>2025-02-26T12:17:54Z</time>
      </trkpt>
      <trkpt lat="48.06659" lon="-3.47996">
        <ele>147.7</ele>
        <time>2025-02-26T12:17:55Z</time>
      </trkpt>
      <trkpt lat="48.0666" lon="-3.47996">
        <ele>147.8</ele>
        <time>2025-02-26T12:17:56Z</time>
      </trkpt>
      <trkpt lat="48.0666" lon="-3.47996">
        <ele>147.8</ele>
        <time>2025-02-26T12:17:57Z</time>
      </trkpt>
      <trkpt lat="48.0666" lon="-3.47996">
        <ele>147.8</ele>
        <time>2025-02-26T12:17:58Z</time>
      </trkpt>
      <trkpt lat="48.0666" lon="-3.47996">
        <ele>147.8</ele>
        <time>2025-02-26T12:17:59Z</time>
      </trkpt>
      <trkpt lat="48.0666" lon="-3.47995">
        <ele>147.8</ele>
        <time>2025-02-26T12:18:00Z</time>
      </trkpt>
      <trkpt lat="48.0666" lon="-3.47995">
        <ele>147.8</ele>
        <time>2025-02-26T12:18:01Z</time>
      </trkpt>
      <trkpt lat="48.0666" lon="-3.47995">
        <ele>147.8</ele>
        <time>2025-02-26T12:18:02Z</time>
      </trkpt>
      <trkpt lat="48.0666" lon="-3.47995">
        <ele>147.8</ele>
        <time>2025-02-26T12:18:03Z</time>
      </trkpt>
      <trkpt lat="48.06661" lon="-3.47996">
        <ele>147.8</ele>
        <time>2025-02-26T12:18:04Z</time>
      </trkpt>
      <trkpt lat="48.06661" lon="-3.47996">
        <ele>147.8</ele>
        <time>2025-02-26T12:18:05Z</time>
      </trkpt>
      <trkpt lat="48.0666" lon="-3.47995">
        <ele>147.8</ele>
        <time>2025-02-26T12:18:06Z</time>
      </trkpt>
      <trkpt lat="48.0666" lon="-3.47995">
        <ele>147.7</ele>
        <time>2025-02-26T12:18:07Z</time>
      </trkpt>
      <trkpt lat="48.06658" lon="-3.47996">
        <ele>147.7</ele>
        <time>2025-02-26T12:18:08Z</time>
      </trkpt>
      <trkpt lat="48.06656" lon="-3.47997">
        <ele>147.6</ele>
        <time>2025-02-26T12:18:09Z</time>
      </trkpt>
      <trkpt lat="48.06656" lon="-3.47998">
        <ele>147.6</ele>
        <time>2025-02-26T12:18:10Z</time>
      </trkpt>
      <trkpt lat="48.06655" lon="-3.47999">
        <ele>147.6</ele>
        <time>2025-02-26T12:18:11Z</time>
      </trkpt>
      <trkpt lat="48.06654" lon="-3.48">
        <ele>147.6</ele>
        <time>2025-02-26T12:18:12Z</time>
      </trkpt>
      <trkpt lat="48.06654" lon="-3.48">
        <ele>147.5</ele>
        <time>2025-02-26T12:18:13Z</time>
      </trkpt>
      <trkpt lat="48.06653" lon="-3.48001">
        <ele>147.5</ele>
        <time>2025-02-26T12:18:14Z</time>
      </trkpt>
      <trkpt lat="48.06653" lon="-3.48002">
        <ele>147.5</ele>
        <time>2025-02-26T12:18:15Z</time>
      </trkpt>
      <trkpt lat="48.06653" lon="-3.48003">
        <ele>147.4</ele>
        <time>2025-02-26T12:18:16Z</time>
      </trkpt>
      <trkpt lat="48.06652" lon="-3.48003">
        <ele>147.4</ele>
        <time>2025-02-26T12:18:17Z</time>
      </trkpt>
      <trkpt lat="48.06651" lon="-3.48003">
        <ele>147.4</ele>
        <time>2025-02-26T12:18:18Z</time>
      </trkpt>
      <trkpt lat="48.0665" lon="-3.48004">
        <ele>147.3</ele>
        <time>2025-02-26T12:18:19Z</time>
      </trkpt>
      <trkpt lat="48.06649" lon="-3.48003">
        <ele>147.3</ele>
        <time>2025-02-26T12:18:20Z</time>
      </trkpt>
      <trkpt lat="48.06648" lon="-3.48005">
        <ele>147.2</ele>
        <time>2025-02-26T12:18:21Z</time>
      </trkpt>
      <trkpt lat="48.06647" lon="-3.48005">
        <ele>147.2</ele>
        <time>2025-02-26T12:18:22Z</time>
      </trkpt>
      <trkpt lat="48.06646" lon="-3.48006">
        <ele>147.1</ele>
        <time>2025-02-26T12:18:23Z</time>
      </trkpt>
      <trkpt lat="48.06646" lon="-3.48006">
        <ele>147.1</ele>
        <time>2025-02-26T12:18:24Z</time>
      </trkpt>
      <trkpt lat="48.06645" lon="-3.48007">
        <ele>147</ele>
        <time>2025-02-26T12:18:25Z</time>
      </trkpt>
      <trkpt lat="48.06645" lon="-3.48008">
        <ele>147</ele>
        <time>2025-02-26T12:18:26Z</time>
      </trkpt>
      <trkpt lat="48.06644" lon="-3.48008">
        <ele>146.9</ele>
        <time>2025-02-26T12:18:27Z</time>
      </trkpt>
      <trkpt lat="48.06643" lon="-3.48009">
        <ele>146.9</ele>
        <time>2025-02-26T12:18:28Z</time>
      </trkpt>
      <trkpt lat="48.06642" lon="-3.4801">
        <ele>146.8</ele>
        <time>2025-02-26T12:18:29Z</time>
      </trkpt>
      <trkpt lat="48.06641" lon="-3.48009">
        <ele>146.8</ele>
        <time>2025-02-26T12:18:30Z</time>
      </trkpt>
      <trkpt lat="48.0664" lon="-3.4801">
        <ele>146.7</ele>
        <time>2025-02-26T12:18:31Z</time>
      </trkpt>
      <trkpt lat="48.06639" lon="-3.48011">
        <ele>146.6</ele>
        <time>2025-02-26T12:18:32Z</time>
      </trkpt>
      <trkpt lat="48.06638" lon="-3.48012">
        <ele>146.6</ele>
        <time>2025-02-26T12:18:33Z</time>
      </trkpt>
      <trkpt lat="48.06638" lon="-3.48012">
        <ele>146.5</ele>
        <time>2025-02-26T12:18:34Z</time>
      </trkpt>
      <trkpt lat="48.06637" lon="-3.48012">
        <ele>146.5</ele>
        <time>2025-02-26T12:18:35Z</time>
      </trkpt>
      <trkpt lat="48.06636" lon="-3.48012">
        <ele>146.4</ele>
        <time>2025-02-26T12:18:36Z</time>
      </trkpt>
      <trkpt lat="48.06635" lon="-3.48013">
        <ele>146.3</ele>
        <time>2025-02-26T12:18:37Z</time>
      </trkpt>
      <trkpt lat="48.06634" lon="-3.48013">
        <ele>146.3</ele>
        <time>2025-02-26T12:18:38Z</time>
      </trkpt>
      <trkpt lat="48.06634" lon="-3.48014">
        <ele>146.2</ele>
        <time>2025-02-26T12:18:39Z</time>
      </trkpt>
      <trkpt lat="48.06633" lon="-3.48015">
        <ele>146.1</ele>
        <time>2025-02-26T12:18:40Z</time>
      </trkpt>
      <trkpt lat="48.06632" lon="-3.48016">
        <ele>146.1</ele>
        <time>2025-02-26T12:18:41Z</time>
      </trkpt>
      <trkpt lat="48.06631" lon="-3.48016">
        <ele>146</ele>
        <time>2025-02-26T12:18:42Z</time>
      </trkpt>
      <trkpt lat="48.0663" lon="-3.48017">
        <ele>146</ele>
        <time>2025-02-26T12:18:43Z</time>
      </trkpt>
      <trkpt lat="48.06629" lon="-3.48017">
        <ele>145.9</ele>
        <time>2025-02-26T12:18:44Z</time>
      </trkpt>
      <trkpt lat="48.06628" lon="-3.48018">
        <ele>145.8</ele>
        <time>2025-02-26T12:18:45Z</time>
      </trkpt>
      <trkpt lat="48.06627" lon="-3.48019">
        <ele>145.8</ele>
        <time>2025-02-26T12:18:46Z</time>
      </trkpt>
      <trkpt lat="48.06626" lon="-3.48019">
        <ele>145.7</ele>
        <time>2025-02-26T12:18:47Z</time>
      </trkpt>
      <trkpt lat="48.06625" lon="-3.48019">
        <ele>145.7</ele>
        <time>2025-02-26T12:18:48Z</time>
      </trkpt>
      <trkpt lat="48.06624" lon="-3.4802">
        <ele>145.6</ele>
        <time>2025-02-26T12:18:49Z</time>
      </trkpt>
      <trkpt lat="48.06624" lon="-3.48021">
        <ele>145.6</ele>
        <time>2025-02-26T12:18:50Z</time>
      </trkpt>
      <trkpt lat="48.06623" lon="-3.48021">
        <ele>145.5</ele>
        <time>2025-02-26T12:18:51Z</time>
      </trkpt>
      <trkpt lat="48.06621" lon="-3.48021">
        <ele>145.5</ele>
        <time>2025-02-26T12:18:52Z</time>
      </trkpt>
      <trkpt lat="48.0662" lon="-3.48023">
        <ele>145.4</ele>
        <time>2025-02-26T12:18:53Z</time>
      </trkpt>
      <trkpt lat="48.06619" lon="-3.48024">
        <ele>145.3</ele>
        <time>2025-02-26T12:18:54Z</time>
      </trkpt>
      <trkpt lat="48.06618" lon="-3.48024">
        <ele>145.3</ele>
        <time>2025-02-26T12:18:55Z</time>
      </trkpt>
      <trkpt lat="48.06617" lon="-3.48024">
        <ele>145.2</ele>
        <time>2025-02-26T12:18:56Z</time>
      </trkpt>
      <trkpt lat="48.06616" lon="-3.48025">
        <ele>145.2</ele>
        <time>2025-02-26T12:18:57Z</time>
      </trkpt>
      <trkpt lat="48.06615" lon="-3.48026">
        <ele>145.1</ele>
        <time>2025-02-26T12:18:58Z</time>
      </trkpt>
      <trkpt lat="48.06614" lon="-3.48026">
        <ele>145.1</ele>
        <time>2025-02-26T12:18:59Z</time>
      </trkpt>
      <trkpt lat="48.06613" lon="-3.48026">
        <ele>145.1</ele>
        <time>2025-02-26T12:19:00Z</time>
      </trkpt>
      <trkpt lat="48.06612" lon="-3.48027">
        <ele>145</ele>
        <time>2025-02-26T12:19:01Z</time>
      </trkpt>
      <trkpt lat="48.0661" lon="-3.48027">
        <ele>144.9</ele>
        <time>2025-02-26T12:19:02Z</time>
      </trkpt>
      <trkpt lat="48.06609" lon="-3.48027">
        <ele>144.9</ele>
        <time>2025-02-26T12:19:03Z</time>
      </trkpt>
      <trkpt lat="48.06608" lon="-3.48028">
        <ele>144.8</ele>
        <time>2025-02-26T12:19:04Z</time>
      </trkpt>
      <trkpt lat="48.06607" lon="-3.48028">
        <ele>144.7</ele>
        <time>2025-02-26T12:19:05Z</time>
      </trkpt>
      <trkpt lat="48.06606" lon="-3.48029">
        <ele>144.6</ele>
        <time>2025-02-26T12:19:06Z</time>
      </trkpt>
      <trkpt lat="48.06605" lon="-3.4803">
        <ele>144.5</ele>
        <time>2025-02-26T12:19:07Z</time>
      </trkpt>
      <trkpt lat="48.06603" lon="-3.4803">
        <ele>144.4</ele>
        <time>2025-02-26T12:19:08Z</time>
      </trkpt>
      <trkpt lat="48.06602" lon="-3.4803">
        <ele>144.3</ele>
        <time>2025-02-26T12:19:09Z</time>
      </trkpt>
      <trkpt lat="48.06601" lon="-3.48032">
        <ele>144.2</ele>
        <time>2025-02-26T12:19:10Z</time>
      </trkpt>
      <trkpt lat="48.066" lon="-3.48032">
        <ele>144.1</ele>
        <time>2025-02-26T12:19:11Z</time>
      </trkpt>
      <trkpt lat="48.06598" lon="-3.48032">
        <ele>144</ele>
        <time>2025-02-26T12:19:12Z</time>
      </trkpt>
      <trkpt lat="48.06597" lon="-3.48032">
        <ele>143.9</ele>
        <time>2025-02-26T12:19:13Z</time>
      </trkpt>
      <trkpt lat="48.06596" lon="-3.48032">
        <ele>143.8</ele>
        <time>2025-02-26T12:19:14Z</time>
      </trkpt>
      <trkpt lat="48.06595" lon="-3.48033">
        <ele>143.7</ele>
        <time>2025-02-26T12:19:15Z</time>
      </trkpt>
      <trkpt lat="48.06594" lon="-3.48034">
        <ele>143.7</ele>
        <time>2025-02-26T12:19:16Z</time>
      </trkpt>
      <trkpt lat="48.06592" lon="-3.48034">
        <ele>143.6</ele>
        <time>2025-02-26T12:19:17Z</time>
      </trkpt>
      <trkpt lat="48.06591" lon="-3.48034">
        <ele>143.5</ele>
        <time>2025-02-26T12:19:18Z</time>
      </trkpt>
      <trkpt lat="48.0659" lon="-3.48034">
        <ele>143.4</ele>
        <time>2025-02-26T12:19:19Z</time>
      </trkpt>
      <trkpt lat="48.06589" lon="-3.48034">
        <ele>143.4</ele>
        <time>2025-02-26T12:19:20Z</time>
      </trkpt>
      <trkpt lat="48.06588" lon="-3.48035">
        <ele>143.3</ele>
        <time>2025-02-26T12:19:21Z</time>
      </trkpt>
      <trkpt lat="48.06587" lon="-3.48036">
        <ele>143.2</ele>
        <time>2025-02-26T12:19:22Z</time>
      </trkpt>
      <trkpt lat="48.06586" lon="-3.48036">
        <ele>143.2</ele>
        <time>2025-02-26T12:19:23Z</time>
      </trkpt>
      <trkpt lat="48.06585" lon="-3.48037">
        <ele>143.1</ele>
        <time>2025-02-26T12:19:24Z</time>
      </trkpt>
      <trkpt lat="48.06584" lon="-3.48036">
        <ele>143</ele>
        <time>2025-02-26T12:19:25Z</time>
      </trkpt>
      <trkpt lat="48.06583" lon="-3.48036">
        <ele>143</ele>
        <time>2025-02-26T12:19:26Z</time>
      </trkpt>
      <trkpt lat="48.06582" lon="-3.48037">
        <ele>143</ele>
        <time>2025-02-26T12:19:27Z</time>
      </trkpt>
      <trkpt lat="48.06581" lon="-3.48037">
        <ele>143</ele>
        <time>2025-02-26T12:19:28Z</time>
      </trkpt>
      <trkpt lat="48.0658" lon="-3.48037">
        <ele>143</ele>
        <time>2025-02-26T12:19:29Z</time>
      </trkpt>
      <trkpt lat="48.06578" lon="-3.48038">
        <ele>143</ele>
        <time>2025-02-26T12:19:30Z</time>
      </trkpt>
      <trkpt lat="48.06577" lon="-3.48038">
        <ele>143</ele>
        <time>2025-02-26T12:19:31Z</time>
      </trkpt>
      <trkpt lat="48.06576" lon="-3.48038">
        <ele>143</ele>
        <time>2025-02-26T12:19:32Z</time>
      </trkpt>
      <trkpt lat="48.06575" lon="-3.48038">
        <ele>143</ele>
        <time>2025-02-26T12:19:33Z</time>
      </trkpt>
      <trkpt lat="48.06574" lon="-3.48039">
        <ele>143</ele>
        <time>2025-02-26T12:19:34Z</time>
      </trkpt>
      <trkpt lat="48.06573" lon="-3.48039">
        <ele>143</ele>
        <time>2025-02-26T12:19:35Z</time>
      </trkpt>
      <trkpt lat="48.06572" lon="-3.48039">
        <ele>143</ele>
        <time>2025-02-26T12:19:36Z</time>
      </trkpt>
      <trkpt lat="48.06571" lon="-3.48036">
        <ele>143</ele>
        <time>2025-02-26T12:19:37Z</time>
      </trkpt>
      <trkpt lat="48.06572" lon="-3.48035">
        <ele>143</ele>
        <time>2025-02-26T12:19:38Z</time>
      </trkpt>
      <trkpt lat="48.06572" lon="-3.48035">
        <ele>143</ele>
        <time>2025-02-26T12:19:39Z</time>
      </trkpt>
      <trkpt lat="48.06572" lon="-3.48035">
        <ele>143</ele>
        <time>2025-02-26T12:19:40Z</time>
      </trkpt>
      <trkpt lat="48.06572" lon="-3.48035">
        <ele>143</ele>
        <time>2025-02-26T12:19:41Z</time>
      </trkpt>
      <trkpt lat="48.06572" lon="-3.48034">
        <ele>143</ele>
        <time>2025-02-26T12:19:42Z</time>
      </trkpt>
      <trkpt lat="48.06572" lon="-3.48034">
        <ele>143</ele>
        <time>2025-02-26T12:19:43Z</time>
      </trkpt>
      <trkpt lat="48.06572" lon="-3.48034">
        <ele>143</ele>
        <time>2025-02-26T12:19:44Z</time>
      </trkpt>
      <trkpt lat="48.06572" lon="-3.48035">
        <ele>143</ele>
        <time>2025-02-26T12:19:45Z</time>
      </trkpt>
      <trkpt lat="48.06572" lon="-3.48036">
        <ele>143</ele>
        <time>2025-02-26T12:19:46Z</time>
      </trkpt>
      <trkpt lat="48.06572" lon="-3.48036">
        <ele>143</ele>
        <time>2025-02-26T12:19:47Z</time>
      </trkpt>
      <trkpt lat="48.06573" lon="-3.48036">
        <ele>143</ele>
        <time>2025-02-26T12:19:48Z</time>
      </trkpt>
      <trkpt lat="48.06573" lon="-3.48036">
        <ele>143</ele>
        <time>2025-02-26T12:19:49Z</time>
      </trkpt>
      <trkpt lat="48.06572" lon="-3.48036">
        <ele>143</ele>
        <time>2025-02-26T12:19:50Z</time>
      </trkpt>
      <trkpt lat="48.06571" lon="-3.48036">
        <ele>143</ele>
        <time>2025-02-26T12:19:51Z</time>
      </trkpt>
      <trkpt lat="48.0657" lon="-3.48036">
        <ele>143</ele>
        <time>2025-02-26T12:19:52Z</time>
      </trkpt>
      <trkpt lat="48.06569" lon="-3.48036">
        <ele>143</ele>
        <time>2025-02-26T12:19:53Z</time>
      </trkpt>
      <trkpt lat="48.06567" lon="-3.48036">
        <ele>143</ele>
        <time>2025-02-26T12:19:54Z</time>
      </trkpt>
      <trkpt lat="48.06566" lon="-3.48037">
        <ele>143</ele>
        <time>2025-02-26T12:19:55Z</time>
      </trkpt>
      <trkpt lat="48.06565" lon="-3.48038">
        <ele>143</ele>
        <time>2025-02-26T12:19:56Z</time>
      </trkpt>
      <trkpt lat="48.06564" lon="-3.48039">
        <ele>143</ele>
        <time>2025-02-26T12:19:57Z</time>
      </trkpt>
      <trkpt lat="48.06563" lon="-3.48039">
        <ele>143</ele>
        <time>2025-02-26T12:19:58Z</time>
      </trkpt>
      <trkpt lat="48.06562" lon="-3.48039">
        <ele>143</ele>
        <time>2025-02-26T12:19:59Z</time>
      </trkpt>
      <trkpt lat="48.0656" lon="-3.48039">
        <ele>143</ele>
        <time>2025-02-26T12:20:00Z</time>
      </trkpt>
      <trkpt lat="48.06559" lon="-3.48039">
        <ele>143</ele>
        <time>2025-02-26T12:20:01Z</time>
      </trkpt>
      <trkpt lat="48.06558" lon="-3.48039">
        <ele>143</ele>
        <time>2025-02-26T12:20:02Z</time>
      </trkpt>
      <trkpt lat="48.06557" lon="-3.4804">
        <ele>143</ele>
        <time>2025-02-26T12:20:03Z</time>
      </trkpt>
      <trkpt lat="48.06556" lon="-3.4804">
        <ele>143</ele>
        <time>2025-02-26T12:20:04Z</time>
      </trkpt>
      <trkpt lat="48.06555" lon="-3.4804">
        <ele>143</ele>
        <time>2025-02-26T12:20:05Z</time>
      </trkpt>
      <trkpt lat="48.06554" lon="-3.4804">
        <ele>143</ele>
        <time>2025-02-26T12:20:06Z</time>
      </trkpt>
      <trkpt lat="48.06553" lon="-3.4804">
        <ele>143</ele>
        <time>2025-02-26T12:20:07Z</time>
      </trkpt>
      <trkpt lat="48.06552" lon="-3.4804">
        <ele>143</ele>
        <time>2025-02-26T12:20:08Z</time>
      </trkpt>
      <trkpt lat="48.06551" lon="-3.48041">
        <ele>143</ele>
        <time>2025-02-26T12:20:09Z</time>
      </trkpt>
      <trkpt lat="48.0655" lon="-3.48041">
        <ele>143</ele>
        <time>2025-02-26T12:20:10Z</time>
      </trkpt>
      <trkpt lat="48.06549" lon="-3.48042">
        <ele>143</ele>
        <time>2025-02-26T12:20:11Z</time>
      </trkpt>
      <trkpt lat="48.06548" lon="-3.48041">
        <ele>143</ele>
        <time>2025-02-26T12:20:12Z</time>
      </trkpt>
      <trkpt lat="48.06547" lon="-3.4804">
        <ele>143</ele>
        <time>2025-02-26T12:20:13Z</time>
      </trkpt>
      <trkpt lat="48.06546" lon="-3.4804">
        <ele>143</ele>
        <time>2025-02-26T12:20:14Z</time>
      </trkpt>
      <trkpt lat="48.06545" lon="-3.4804">
        <ele>143</ele>
        <time>2025-02-26T12:20:15Z</time>
      </trkpt>
      <trkpt lat="48.06544" lon="-3.4804">
        <ele>143</ele>
        <time>2025-02-26T12:20:16Z</time>
      </trkpt>
      <trkpt lat="48.06543" lon="-3.4804">
        <ele>143</ele>
        <time>2025-02-26T12:20:17Z</time>
      </trkpt>
      <trkpt lat="48.06542" lon="-3.48041">
        <ele>143</ele>
        <time>2025-02-26T12:20:18Z</time>
      </trkpt>
      <trkpt lat="48.0654" lon="-3.48041">
        <ele>143</ele>
        <time>2025-02-26T12:20:19Z</time>
      </trkpt>
      <trkpt lat="48.06539" lon="-3.4804">
        <ele>143</ele>
        <time>2025-02-26T12:20:20Z</time>
      </trkpt>
      <trkpt lat="48.06538" lon="-3.4804">
        <ele>143</ele>
        <time>2025-02-26T12:20:21Z</time>
      </trkpt>
      <trkpt lat="48.06537" lon="-3.4804">
        <ele>143</ele>
        <time>2025-02-26T12:20:22Z</time>
      </trkpt>
      <trkpt lat="48.06536" lon="-3.4804">
        <ele>143</ele>
        <time>2025-02-26T12:20:23Z</time>
      </trkpt>
      <trkpt lat="48.06535" lon="-3.4804">
        <ele>143</ele>
        <time>2025-02-26T12:20:24Z</time>
      </trkpt>
      <trkpt lat="48.06534" lon="-3.48041">
        <ele>143</ele>
        <time>2025-02-26T12:20:25Z</time>
      </trkpt>
      <trkpt lat="48.06533" lon="-3.48041">
        <ele>143</ele>
        <time>2025-02-26T12:20:26Z</time>
      </trkpt>
      <trkpt lat="48.06531" lon="-3.48041">
        <ele>143</ele>
        <time>2025-02-26T12:20:27Z</time>
      </trkpt>
      <trkpt lat="48.0653" lon="-3.4804">
        <ele>143</ele>
        <time>2025-02-26T12:20:28Z</time>
      </trkpt>
      <trkpt lat="48.06529" lon="-3.4804">
        <ele>143</ele>
        <time>2025-02-26T12:20:29Z</time>
      </trkpt>
      <trkpt lat="48.06528" lon="-3.48041">
        <ele>143</ele>
        <time>2025-02-26T12:20:30Z</time>
      </trkpt>
      <trkpt lat="48.06527" lon="-3.48041">
        <ele>143</ele>
        <time>2025-02-26T12:20:31Z</time>
      </trkpt>
      <trkpt lat="48.06526" lon="-3.48041">
        <ele>143</ele>
        <time>2025-02-26T12:20:32Z</time>
      </trkpt>
      <trkpt lat="48.06524" lon="-3.48041">
        <ele>143</ele>
        <time>2025-02-26T12:20:33Z</time>
      </trkpt>
      <trkpt lat="48.06523" lon="-3.48041">
        <ele>143</ele>
        <time>2025-02-26T12:20:34Z</time>
      </trkpt>
      <trkpt lat="48.06522" lon="-3.48041">
        <ele>143</ele>
        <time>2025-02-26T12:20:35Z</time>
      </trkpt>
      <trkpt lat="48.06521" lon="-3.48042">
        <ele>143</ele>
        <time>2025-02-26T12:20:36Z</time>
      </trkpt>
      <trkpt lat="48.0652" lon="-3.48041">
        <ele>143</ele>
        <time>2025-02-26T12:20:37Z</time>
      </trkpt>
      <trkpt lat="48.06519" lon="-3.48041">
        <ele>143</ele>
        <time>2025-02-26T12:20:38Z</time>
      </trkpt>
      <trkpt lat="48.06517" lon="-3.48041">
        <ele>143</ele>
        <time>2025-02-26T12:20:39Z</time>
      </trkpt>
      <trkpt lat="48.06516" lon="-3.48041">
        <ele>143</ele>
        <time>2025-02-26T12:20:40Z</time>
      </trkpt>
      <trkpt lat="48.06515" lon="-3.48041">
        <ele>143</ele>
        <time>2025-02-26T12:20:41Z</time>
      </trkpt>
      <trkpt lat="48.06514" lon="-3.48041">
        <ele>143</ele>
        <time>2025-02-26T12:20:42Z</time>
      </trkpt>
      <trkpt lat="48.06513" lon="-3.48041">
        <ele>143</ele>
        <time>2025-02-26T12:20:43Z</time>
      </trkpt>
      <trkpt lat="48.06512" lon="-3.48042">
        <ele>143</ele>
        <time>2025-02-26T12:20:44Z</time>
      </trkpt>
      <trkpt lat="48.06511" lon="-3.48042">
        <ele>143</ele>
        <time>2025-02-26T12:20:45Z</time>
      </trkpt>
      <trkpt lat="48.0651" lon="-3.48042">
        <ele>143</ele>
        <time>2025-02-26T12:20:46Z</time>
      </trkpt>
      <trkpt lat="48.06509" lon="-3.48042">
        <ele>143</ele>
        <time>2025-02-26T12:20:47Z</time>
      </trkpt>
      <trkpt lat="48.06508" lon="-3.48042">
        <ele>143</ele>
        <time>2025-02-26T12:20:48Z</time>
      </trkpt>
      <trkpt lat="48.06507" lon="-3.48043">
        <ele>143</ele>
        <time>2025-02-26T12:20:49Z</time>
      </trkpt>
      <trkpt lat="48.06506" lon="-3.48043">
        <ele>143</ele>
        <time>2025-02-26T12:20:50Z</time>
      </trkpt>
      <trkpt lat="48.06505" lon="-3.48043">
        <ele>143</ele>
        <time>2025-02-26T12:20:51Z</time>
      </trkpt>
      <trkpt lat="48.06504" lon="-3.48043">
        <ele>143</ele>
        <time>2025-02-26T12:20:52Z</time>
      </trkpt>
      <trkpt lat="48.06503" lon="-3.48043">
        <ele>143</ele>
        <time>2025-02-26T12:20:53Z</time>
      </trkpt>
      <trkpt lat="48.06502" lon="-3.48044">
        <ele>143</ele>
        <time>2025-02-26T12:20:54Z</time>
      </trkpt>
      <trkpt lat="48.06501" lon="-3.48044">
        <ele>143</ele>
        <time>2025-02-26T12:20:55Z</time>
      </trkpt>
      <trkpt lat="48.065" lon="-3.48044">
        <ele>143</ele>
        <time>2025-02-26T12:20:56Z</time>
      </trkpt>
      <trkpt lat="48.06499" lon="-3.48044">
        <ele>143</ele>
        <time>2025-02-26T12:20:57Z</time>
      </trkpt>
      <trkpt lat="48.06498" lon="-3.48044">
        <ele>143</ele>
        <time>2025-02-26T12:20:58Z</time>
      </trkpt>
      <trkpt lat="48.06497" lon="-3.48045">
        <ele>143</ele>
        <time>2025-02-26T12:20:59Z</time>
      </trkpt>
      <trkpt lat="48.06495" lon="-3.48044">
        <ele>143</ele>
        <time>2025-02-26T12:21:00Z</time>
      </trkpt>
      <trkpt lat="48.06494" lon="-3.48044">
        <ele>143</ele>
        <time>2025-02-26T12:21:01Z</time>
      </trkpt>
      <trkpt lat="48.06493" lon="-3.48044">
        <ele>143</ele>
        <time>2025-02-26T12:21:02Z</time>
      </trkpt>
      <trkpt lat="48.06493" lon="-3.48046">
        <ele>143.1</ele>
        <time>2025-02-26T12:21:03Z</time>
      </trkpt>
      <trkpt lat="48.06491" lon="-3.48045">
        <ele>143.1</ele>
        <time>2025-02-26T12:21:04Z</time>
      </trkpt>
      <trkpt lat="48.06489" lon="-3.48046">
        <ele>143.1</ele>
        <time>2025-02-26T12:21:05Z</time>
      </trkpt>
      <trkpt lat="48.06489" lon="-3.48046">
        <ele>143.1</ele>
        <time>2025-02-26T12:21:06Z</time>
      </trkpt>
      <trkpt lat="48.06487" lon="-3.48045">
        <ele>143.1</ele>
        <time>2025-02-26T12:21:07Z</time>
      </trkpt>
      <trkpt lat="48.06487" lon="-3.48046">
        <ele>143.2</ele>
        <time>2025-02-26T12:21:08Z</time>
      </trkpt>
      <trkpt lat="48.06484" lon="-3.48047">
        <ele>143.2</ele>
        <time>2025-02-26T12:21:09Z</time>
      </trkpt>
      <trkpt lat="48.06483" lon="-3.48047">
        <ele>143.2</ele>
        <time>2025-02-26T12:21:10Z</time>
      </trkpt>
      <trkpt lat="48.06482" lon="-3.48047">
        <ele>143.2</ele>
        <time>2025-02-26T12:21:11Z</time>
      </trkpt>
      <trkpt lat="48.0648" lon="-3.48046">
        <ele>143.2</ele>
        <time>2025-02-26T12:21:12Z</time>
      </trkpt>
      <trkpt lat="48.06479" lon="-3.48046">
        <ele>143.3</ele>
        <time>2025-02-26T12:21:13Z</time>
      </trkpt>
      <trkpt lat="48.06478" lon="-3.48047">
        <ele>143.3</ele>
        <time>2025-02-26T12:21:14Z</time>
      </trkpt>
      <trkpt lat="48.06476" lon="-3.48047">
        <ele>143.3</ele>
        <time>2025-02-26T12:21:15Z</time>
      </trkpt>
      <trkpt lat="48.06475" lon="-3.48047">
        <ele>143.4</ele>
        <time>2025-02-26T12:21:16Z</time>
      </trkpt>
      <trkpt lat="48.06474" lon="-3.48048">
        <ele>143.4</ele>
        <time>2025-02-26T12:21:17Z</time>
      </trkpt>
      <trkpt lat="48.06472" lon="-3.48049">
        <ele>143.5</ele>
        <time>2025-02-26T12:21:18Z</time>
      </trkpt>
      <trkpt lat="48.06473" lon="-3.48048">
        <ele>143.5</ele>
        <time>2025-02-26T12:21:19Z</time>
      </trkpt>
      <trkpt lat="48.06473" lon="-3.48049">
        <ele>143.5</ele>
        <time>2025-02-26T12:21:20Z</time>
      </trkpt>
      <trkpt lat="48.06473" lon="-3.48049">
        <ele>143.5</ele>
        <time>2025-02-26T12:21:21Z</time>
      </trkpt>
      <trkpt lat="48.06472" lon="-3.48048">
        <ele>143.5</ele>
        <time>2025-02-26T12:21:22Z</time>
      </trkpt>
      <trkpt lat="48.06471" lon="-3.48049">
        <ele>143.5</ele>
        <time>2025-02-26T12:21:23Z</time>
      </trkpt>
      <trkpt lat="48.0647" lon="-3.4805">
        <ele>143.5</ele>
        <time>2025-02-26T12:21:24Z</time>
      </trkpt>
      <trkpt lat="48.06469" lon="-3.4805">
        <ele>143.5</ele>
        <time>2025-02-26T12:21:25Z</time>
      </trkpt>
      <trkpt lat="48.06469" lon="-3.48051">
        <ele>143.5</ele>
        <time>2025-02-26T12:21:26Z</time>
      </trkpt>
      <trkpt lat="48.06468" lon="-3.48051">
        <ele>143.5</ele>
        <time>2025-02-26T12:21:27Z</time>
      </trkpt>
      <trkpt lat="48.06467" lon="-3.48051">
        <ele>143.5</ele>
        <time>2025-02-26T12:21:28Z</time>
      </trkpt>
      <trkpt lat="48.06466" lon="-3.48052">
        <ele>143.5</ele>
        <time>2025-02-26T12:21:29Z</time>
      </trkpt>
      <trkpt lat="48.06464" lon="-3.48052">
        <ele>143.5</ele>
        <time>2025-02-26T12:21:30Z</time>
      </trkpt>
      <trkpt lat="48.06463" lon="-3.48052">
        <ele>143.5</ele>
        <time>2025-02-26T12:21:31Z</time>
      </trkpt>
      <trkpt lat="48.06463" lon="-3.48053">
        <ele>143.5</ele>
        <time>2025-02-26T12:21:32Z</time>
      </trkpt>
      <trkpt lat="48.06462" lon="-3.48053">
        <ele>143.4</ele>
        <time>2025-02-26T12:21:33Z</time>
      </trkpt>
      <trkpt lat="48.06461" lon="-3.48053">
        <ele>143.4</ele>
        <time>2025-02-26T12:21:34Z</time>
      </trkpt>
      <trkpt lat="48.06459" lon="-3.48053">
        <ele>143.4</ele>
        <time>2025-02-26T12:21:35Z</time>
      </trkpt>
      <trkpt lat="48.06458" lon="-3.48054">
        <ele>143.4</ele>
        <time>2025-02-26T12:21:36Z</time>
      </trkpt>
      <trkpt lat="48.06457" lon="-3.48054">
        <ele>143.3</ele>
        <time>2025-02-26T12:21:37Z</time>
      </trkpt>
      <trkpt lat="48.06456" lon="-3.48055">
        <ele>143.4</ele>
        <time>2025-02-26T12:21:38Z</time>
      </trkpt>
      <trkpt lat="48.06455" lon="-3.48055">
        <ele>143.4</ele>
        <time>2025-02-26T12:21:39Z</time>
      </trkpt>
      <trkpt lat="48.06454" lon="-3.48055">
        <ele>143.3</ele>
        <time>2025-02-26T12:21:40Z</time>
      </trkpt>
      <trkpt lat="48.06453" lon="-3.48056">
        <ele>143.3</ele>
        <time>2025-02-26T12:21:41Z</time>
      </trkpt>
      <trkpt lat="48.06452" lon="-3.48056">
        <ele>143.3</ele>
        <time>2025-02-26T12:21:42Z</time>
      </trkpt>
      <trkpt lat="48.06451" lon="-3.48057">
        <ele>143.3</ele>
        <time>2025-02-26T12:21:43Z</time>
      </trkpt>
      <trkpt lat="48.0645" lon="-3.48057">
        <ele>143.3</ele>
        <time>2025-02-26T12:21:44Z</time>
      </trkpt>
      <trkpt lat="48.06449" lon="-3.48057">
        <ele>143.2</ele>
        <time>2025-02-26T12:21:45Z</time>
      </trkpt>
      <trkpt lat="48.06448" lon="-3.48057">
        <ele>143.2</ele>
        <time>2025-02-26T12:21:46Z</time>
      </trkpt>
      <trkpt lat="48.06447" lon="-3.48056">
        <ele>143.1</ele>
        <time>2025-02-26T12:21:47Z</time>
      </trkpt>
      <trkpt lat="48.06446" lon="-3.48056">
        <ele>143.1</ele>
        <time>2025-02-26T12:21:48Z</time>
      </trkpt>
      <trkpt lat="48.06444" lon="-3.48056">
        <ele>143</ele>
        <time>2025-02-26T12:21:49Z</time>
      </trkpt>
      <trkpt lat="48.06443" lon="-3.48057">
        <ele>143</ele>
        <time>2025-02-26T12:21:50Z</time>
      </trkpt>
      <trkpt lat="48.06442" lon="-3.48058">
        <ele>143</ele>
        <time>2025-02-26T12:21:51Z</time>
      </trkpt>
      <trkpt lat="48.06441" lon="-3.48058">
        <ele>142.9</ele>
        <time>2025-02-26T12:21:52Z</time>
      </trkpt>
      <trkpt lat="48.0644" lon="-3.48058">
        <ele>142.9</ele>
        <time>2025-02-26T12:21:53Z</time>
      </trkpt>
      <trkpt lat="48.06439" lon="-3.48059">
        <ele>142.9</ele>
        <time>2025-02-26T12:21:54Z</time>
      </trkpt>
      <trkpt lat="48.06438" lon="-3.48059">
        <ele>142.9</ele>
        <time>2025-02-26T12:21:55Z</time>
      </trkpt>
      <trkpt lat="48.06437" lon="-3.48059">
        <ele>142.8</ele>
        <time>2025-02-26T12:21:56Z</time>
      </trkpt>
      <trkpt lat="48.06436" lon="-3.48059">
        <ele>142.7</ele>
        <time>2025-02-26T12:21:57Z</time>
      </trkpt>
      <trkpt lat="48.06435" lon="-3.48059">
        <ele>142.6</ele>
        <time>2025-02-26T12:21:58Z</time>
      </trkpt>
      <trkpt lat="48.06433" lon="-3.4806">
        <ele>142.6</ele>
        <time>2025-02-26T12:21:59Z</time>
      </trkpt>
      <trkpt lat="48.06432" lon="-3.4806">
        <ele>142.5</ele>
        <time>2025-02-26T12:22:00Z</time>
      </trkpt>
      <trkpt lat="48.06431" lon="-3.4806">
        <ele>142.5</ele>
        <time>2025-02-26T12:22:01Z</time>
      </trkpt>
      <trkpt lat="48.0643" lon="-3.4806">
        <ele>142.4</ele>
        <time>2025-02-26T12:22:02Z</time>
      </trkpt>
      <trkpt lat="48.06429" lon="-3.4806">
        <ele>142.3</ele>
        <time>2025-02-26T12:22:03Z</time>
      </trkpt>
      <trkpt lat="48.06428" lon="-3.48061">
        <ele>142.4</ele>
        <time>2025-02-26T12:22:04Z</time>
      </trkpt>
      <trkpt lat="48.06427" lon="-3.48061">
        <ele>142.4</ele>
        <time>2025-02-26T12:22:05Z</time>
      </trkpt>
      <trkpt lat="48.06425" lon="-3.48061">
        <ele>142.3</ele>
        <time>2025-02-26T12:22:06Z</time>
      </trkpt>
      <trkpt lat="48.06424" lon="-3.48062">
        <ele>142.4</ele>
        <time>2025-02-26T12:22:07Z</time>
      </trkpt>
      <trkpt lat="48.06423" lon="-3.48063">
        <ele>142.4</ele>
        <time>2025-02-26T12:22:08Z</time>
      </trkpt>
      <trkpt lat="48.06422" lon="-3.48064">
        <ele>142.4</ele>
        <time>2025-02-26T12:22:09Z</time>
      </trkpt>
      <trkpt lat="48.06421" lon="-3.48064">
        <ele>142.4</ele>
        <time>2025-02-26T12:22:10Z</time>
      </trkpt>
      <trkpt lat="48.0642" lon="-3.48064">
        <ele>142.3</ele>
        <time>2025-02-26T12:22:11Z</time>
      </trkpt>
      <trkpt lat="48.06419" lon="-3.48063">
        <ele>142.2</ele>
        <time>2025-02-26T12:22:12Z</time>
      </trkpt>
      <trkpt lat="48.06418" lon="-3.48063">
        <ele>142.2</ele>
        <time>2025-02-26T12:22:13Z</time>
      </trkpt>
      <trkpt lat="48.06417" lon="-3.48064">
        <ele>142.2</ele>
        <time>2025-02-26T12:22:14Z</time>
      </trkpt>
      <trkpt lat="48.06416" lon="-3.48064">
        <ele>142.1</ele>
        <time>2025-02-26T12:22:15Z</time>
      </trkpt>
      <trkpt lat="48.06415" lon="-3.48064">
        <ele>142.1</ele>
        <time>2025-02-26T12:22:16Z</time>
      </trkpt>
      <trkpt lat="48.06413" lon="-3.48064">
        <ele>142.1</ele>
        <time>2025-02-26T12:22:17Z</time>
      </trkpt>
      <trkpt lat="48.06412" lon="-3.48064">
        <ele>142.1</ele>
        <time>2025-02-26T12:22:18Z</time>
      </trkpt>
      <trkpt lat="48.06411" lon="-3.48064">
        <ele>142</ele>
        <time>2025-02-26T12:22:19Z</time>
      </trkpt>
      <trkpt lat="48.06411" lon="-3.48063">
        <ele>142</ele>
        <time>2025-02-26T12:22:20Z</time>
      </trkpt>
      <trkpt lat="48.0641" lon="-3.48064">
        <ele>142</ele>
        <time>2025-02-26T12:22:21Z</time>
      </trkpt>
      <trkpt lat="48.06408" lon="-3.48064">
        <ele>142</ele>
        <time>2025-02-26T12:22:22Z</time>
      </trkpt>
      <trkpt lat="48.06407" lon="-3.48063">
        <ele>141.9</ele>
        <time>2025-02-26T12:22:23Z</time>
      </trkpt>
      <trkpt lat="48.06406" lon="-3.48063">
        <ele>141.8</ele>
        <time>2025-02-26T12:22:24Z</time>
      </trkpt>
      <trkpt lat="48.06405" lon="-3.48062">
        <ele>141.8</ele>
        <time>2025-02-26T12:22:25Z</time>
      </trkpt>
      <trkpt lat="48.06404" lon="-3.48062">
        <ele>141.7</ele>
        <time>2025-02-26T12:22:26Z</time>
      </trkpt>
      <trkpt lat="48.06403" lon="-3.48062">
        <ele>141.7</ele>
        <time>2025-02-26T12:22:27Z</time>
      </trkpt>
      <trkpt lat="48.06402" lon="-3.48061">
        <ele>141.6</ele>
        <time>2025-02-26T12:22:28Z</time>
      </trkpt>
      <trkpt lat="48.06401" lon="-3.4806">
        <ele>141.5</ele>
        <time>2025-02-26T12:22:29Z</time>
      </trkpt>
      <trkpt lat="48.06401" lon="-3.48059">
        <ele>141.4</ele>
        <time>2025-02-26T12:22:30Z</time>
      </trkpt>
      <trkpt lat="48.064" lon="-3.48058">
        <ele>141.3</ele>
        <time>2025-02-26T12:22:31Z</time>
      </trkpt>
      <trkpt lat="48.06399" lon="-3.48057">
        <ele>141.2</ele>
        <time>2025-02-26T12:22:32Z</time>
      </trkpt>
      <trkpt lat="48.06398" lon="-3.48056">
        <ele>141.1</ele>
        <time>2025-02-26T12:22:33Z</time>
      </trkpt>
      <trkpt lat="48.06397" lon="-3.48055">
        <ele>141</ele>
        <time>2025-02-26T12:22:34Z</time>
      </trkpt>
      <trkpt lat="48.06396" lon="-3.48055">
        <ele>141</ele>
        <time>2025-02-26T12:22:35Z</time>
      </trkpt>
      <trkpt lat="48.06395" lon="-3.48054">
        <ele>140.9</ele>
        <time>2025-02-26T12:22:36Z</time>
      </trkpt>
      <trkpt lat="48.06394" lon="-3.48053">
        <ele>140.9</ele>
        <time>2025-02-26T12:22:37Z</time>
      </trkpt>
      <trkpt lat="48.06393" lon="-3.48052">
        <ele>140.9</ele>
        <time>2025-02-26T12:22:38Z</time>
      </trkpt>
      <trkpt lat="48.06392" lon="-3.4805">
        <ele>140.8</ele>
        <time>2025-02-26T12:22:39Z</time>
      </trkpt>
      <trkpt lat="48.06391" lon="-3.48049">
        <ele>140.8</ele>
        <time>2025-02-26T12:22:40Z</time>
      </trkpt>
      <trkpt lat="48.0639" lon="-3.48048">
        <ele>140.7</ele>
        <time>2025-02-26T12:22:41Z</time>
      </trkpt>
      <trkpt lat="48.06389" lon="-3.48047">
        <ele>140.7</ele>
        <time>2025-02-26T12:22:42Z</time>
      </trkpt>
      <trkpt lat="48.06388" lon="-3.48046">
        <ele>140.7</ele>
        <time>2025-02-26T12:22:43Z</time>
      </trkpt>
      <trkpt lat="48.06387" lon="-3.48045">
        <ele>140.7</ele>
        <time>2025-02-26T12:22:44Z</time>
      </trkpt>
      <trkpt lat="48.06386" lon="-3.48044">
        <ele>140.7</ele>
        <time>2025-02-26T12:22:45Z</time>
      </trkpt>
      <trkpt lat="48.06385" lon="-3.48044">
        <ele>140.7</ele>
        <time>2025-02-26T12:22:46Z</time>
      </trkpt>
      <trkpt lat="48.06384" lon="-3.48043">
        <ele>140.7</ele>
        <time>2025-02-26T12:22:47Z</time>
      </trkpt>
      <trkpt lat="48.06384" lon="-3.48041">
        <ele>140.7</ele>
        <time>2025-02-26T12:22:48Z</time>
      </trkpt>
      <trkpt lat="48.06383" lon="-3.4804">
        <ele>140.6</ele>
        <time>2025-02-26T12:22:49Z</time>
      </trkpt>
      <trkpt lat="48.06382" lon="-3.48038">
        <ele>140.6</ele>
        <time>2025-02-26T12:22:50Z</time>
      </trkpt>
      <trkpt lat="48.06381" lon="-3.48037">
        <ele>140.6</ele>
        <time>2025-02-26T12:22:51Z</time>
      </trkpt>
      <trkpt lat="48.0638" lon="-3.48036">
        <ele>140.6</ele>
        <time>2025-02-26T12:22:52Z</time>
      </trkpt>
      <trkpt lat="48.0638" lon="-3.48035">
        <ele>140.6</ele>
        <time>2025-02-26T12:22:53Z</time>
      </trkpt>
      <trkpt lat="48.06379" lon="-3.48033">
        <ele>140.6</ele>
        <time>2025-02-26T12:22:54Z</time>
      </trkpt>
      <trkpt lat="48.06378" lon="-3.48032">
        <ele>140.5</ele>
        <time>2025-02-26T12:22:55Z</time>
      </trkpt>
      <trkpt lat="48.06377" lon="-3.48031">
        <ele>140.6</ele>
        <time>2025-02-26T12:22:56Z</time>
      </trkpt>
      <trkpt lat="48.06376" lon="-3.4803">
        <ele>140.5</ele>
        <time>2025-02-26T12:22:57Z</time>
      </trkpt>
      <trkpt lat="48.06376" lon="-3.48029">
        <ele>140.5</ele>
        <time>2025-02-26T12:22:58Z</time>
      </trkpt>
      <trkpt lat="48.06375" lon="-3.48028">
        <ele>140.5</ele>
        <time>2025-02-26T12:22:59Z</time>
      </trkpt>
      <trkpt lat="48.06375" lon="-3.48026">
        <ele>140.5</ele>
        <time>2025-02-26T12:23:00Z</time>
      </trkpt>
      <trkpt lat="48.06374" lon="-3.48025">
        <ele>140.5</ele>
        <time>2025-02-26T12:23:01Z</time>
      </trkpt>
      <trkpt lat="48.06373" lon="-3.48024">
        <ele>140.5</ele>
        <time>2025-02-26T12:23:02Z</time>
      </trkpt>
      <trkpt lat="48.06372" lon="-3.48023">
        <ele>140.6</ele>
        <time>2025-02-26T12:23:03Z</time>
      </trkpt>
      <trkpt lat="48.06371" lon="-3.48022">
        <ele>140.6</ele>
        <time>2025-02-26T12:23:04Z</time>
      </trkpt>
      <trkpt lat="48.0637" lon="-3.48021">
        <ele>140.6</ele>
        <time>2025-02-26T12:23:05Z</time>
      </trkpt>
      <trkpt lat="48.06369" lon="-3.4802">
        <ele>140.6</ele>
        <time>2025-02-26T12:23:06Z</time>
      </trkpt>
      <trkpt lat="48.06368" lon="-3.48019">
        <ele>140.7</ele>
        <time>2025-02-26T12:23:07Z</time>
      </trkpt>
      <trkpt lat="48.06367" lon="-3.48018">
        <ele>140.7</ele>
        <time>2025-02-26T12:23:08Z</time>
      </trkpt>
      <trkpt lat="48.06367" lon="-3.48017">
        <ele>140.7</ele>
        <time>2025-02-26T12:23:09Z</time>
      </trkpt>
      <trkpt lat="48.06366" lon="-3.48016">
        <ele>140.8</ele>
        <time>2025-02-26T12:23:10Z</time>
      </trkpt>
      <trkpt lat="48.06365" lon="-3.48015">
        <ele>140.8</ele>
        <time>2025-02-26T12:23:11Z</time>
      </trkpt>
      <trkpt lat="48.06364" lon="-3.48014">
        <ele>140.9</ele>
        <time>2025-02-26T12:23:12Z</time>
      </trkpt>
      <trkpt lat="48.06363" lon="-3.48013">
        <ele>140.9</ele>
        <time>2025-02-26T12:23:13Z</time>
      </trkpt>
      <trkpt lat="48.06362" lon="-3.48012">
        <ele>141</ele>
        <time>2025-02-26T12:23:14Z</time>
      </trkpt>
      <trkpt lat="48.06361" lon="-3.48011">
        <ele>141</ele>
        <time>2025-02-26T12:23:15Z</time>
      </trkpt>
      <trkpt lat="48.06361" lon="-3.48009">
        <ele>141</ele>
        <time>2025-02-26T12:23:16Z</time>
      </trkpt>
      <trkpt lat="48.0636" lon="-3.48008">
        <ele>141.1</ele>
        <time>2025-02-26T12:23:17Z</time>
      </trkpt>
      <trkpt lat="48.0636" lon="-3.48006">
        <ele>141.2</ele>
        <time>2025-02-26T12:23:18Z</time>
      </trkpt>
      <trkpt lat="48.06359" lon="-3.48005">
        <ele>141.2</ele>
        <time>2025-02-26T12:23:19Z</time>
      </trkpt>
      <trkpt lat="48.06358" lon="-3.48003">
        <ele>141.3</ele>
        <time>2025-02-26T12:23:20Z</time>
      </trkpt>
      <trkpt lat="48.06358" lon="-3.48002">
        <ele>141.4</ele>
        <time>2025-02-26T12:23:21Z</time>
      </trkpt>
      <trkpt lat="48.06357" lon="-3.48001">
        <ele>141.5</ele>
        <time>2025-02-26T12:23:22Z</time>
      </trkpt>
      <trkpt lat="48.06356" lon="-3.48">
        <ele>141.5</ele>
        <time>2025-02-26T12:23:23Z</time>
      </trkpt>
      <trkpt lat="48.06356" lon="-3.47998">
        <ele>141.6</ele>
        <time>2025-02-26T12:23:24Z</time>
      </trkpt>
      <trkpt lat="48.06355" lon="-3.47997">
        <ele>141.7</ele>
        <time>2025-02-26T12:23:25Z</time>
      </trkpt>
      <trkpt lat="48.06354" lon="-3.47996">
        <ele>141.8</ele>
        <time>2025-02-26T12:23:26Z</time>
      </trkpt>
      <trkpt lat="48.06354" lon="-3.47994">
        <ele>141.9</ele>
        <time>2025-02-26T12:23:27Z</time>
      </trkpt>
      <trkpt lat="48.06353" lon="-3.47993">
        <ele>142</ele>
        <time>2025-02-26T12:23:28Z</time>
      </trkpt>
      <trkpt lat="48.06352" lon="-3.47992">
        <ele>142.1</ele>
        <time>2025-02-26T12:23:29Z</time>
      </trkpt>
      <trkpt lat="48.06351" lon="-3.47991">
        <ele>142.2</ele>
        <time>2025-02-26T12:23:30Z</time>
      </trkpt>
      <trkpt lat="48.0635" lon="-3.4799">
        <ele>142.3</ele>
        <time>2025-02-26T12:23:31Z</time>
      </trkpt>
      <trkpt lat="48.06349" lon="-3.47988">
        <ele>142.5</ele>
        <time>2025-02-26T12:23:32Z</time>
      </trkpt>
      <trkpt lat="48.06349" lon="-3.47987">
        <ele>142.6</ele>
        <time>2025-02-26T12:23:33Z</time>
      </trkpt>
      <trkpt lat="48.06347" lon="-3.47986">
        <ele>142.7</ele>
        <time>2025-02-26T12:23:34Z</time>
      </trkpt>
      <trkpt lat="48.06347" lon="-3.47984">
        <ele>142.8</ele>
        <time>2025-02-26T12:23:35Z</time>
      </trkpt>
      <trkpt lat="48.06347" lon="-3.47983">
        <ele>142.9</ele>
        <time>2025-02-26T12:23:36Z</time>
      </trkpt>
      <trkpt lat="48.06347" lon="-3.47981">
        <ele>142.9</ele>
        <time>2025-02-26T12:23:37Z</time>
      </trkpt>
      <trkpt lat="48.06345" lon="-3.4798">
        <ele>143.1</ele>
        <time>2025-02-26T12:23:38Z</time>
      </trkpt>
      <trkpt lat="48.06345" lon="-3.47978">
        <ele>143.3</ele>
        <time>2025-02-26T12:23:39Z</time>
      </trkpt>
      <trkpt lat="48.06344" lon="-3.47977">
        <ele>143.4</ele>
        <time>2025-02-26T12:23:40Z</time>
      </trkpt>
      <trkpt lat="48.06343" lon="-3.47975">
        <ele>143.5</ele>
        <time>2025-02-26T12:23:41Z</time>
      </trkpt>
      <trkpt lat="48.06343" lon="-3.47974">
        <ele>143.6</ele>
        <time>2025-02-26T12:23:42Z</time>
      </trkpt>
      <trkpt lat="48.06343" lon="-3.47972">
        <ele>143.6</ele>
        <time>2025-02-26T12:23:43Z</time>
      </trkpt>
      <trkpt lat="48.06343" lon="-3.47971">
        <ele>143.6</ele>
        <time>2025-02-26T12:23:44Z</time>
      </trkpt>
      <trkpt lat="48.06342" lon="-3.47969">
        <ele>143.7</ele>
        <time>2025-02-26T12:23:45Z</time>
      </trkpt>
      <trkpt lat="48.06342" lon="-3.47968">
        <ele>143.8</ele>
        <time>2025-02-26T12:23:46Z</time>
      </trkpt>
      <trkpt lat="48.06341" lon="-3.47967">
        <ele>143.9</ele>
        <time>2025-02-26T12:23:47Z</time>
      </trkpt>
      <trkpt lat="48.06339" lon="-3.47966">
        <ele>144.2</ele>
        <time>2025-02-26T12:23:48Z</time>
      </trkpt>
      <trkpt lat="48.06338" lon="-3.47966">
        <ele>144.3</ele>
        <time>2025-02-26T12:23:49Z</time>
      </trkpt>
      <trkpt lat="48.06337" lon="-3.47965">
        <ele>144.5</ele>
        <time>2025-02-26T12:23:50Z</time>
      </trkpt>
      <trkpt lat="48.06336" lon="-3.47963">
        <ele>144.6</ele>
        <time>2025-02-26T12:23:51Z</time>
      </trkpt>
      <trkpt lat="48.06335" lon="-3.47962">
        <ele>144.7</ele>
        <time>2025-02-26T12:23:52Z</time>
      </trkpt>
      <trkpt lat="48.06334" lon="-3.47961">
        <ele>144.9</ele>
        <time>2025-02-26T12:23:53Z</time>
      </trkpt>
      <trkpt lat="48.06334" lon="-3.4796">
        <ele>145</ele>
        <time>2025-02-26T12:23:54Z</time>
      </trkpt>
      <trkpt lat="48.06333" lon="-3.4796">
        <ele>145.1</ele>
        <time>2025-02-26T12:23:55Z</time>
      </trkpt>
      <trkpt lat="48.06332" lon="-3.47959">
        <ele>145.2</ele>
        <time>2025-02-26T12:23:56Z</time>
      </trkpt>
      <trkpt lat="48.06331" lon="-3.47958">
        <ele>145.3</ele>
        <time>2025-02-26T12:23:57Z</time>
      </trkpt>
      <trkpt lat="48.06331" lon="-3.47957">
        <ele>145.4</ele>
        <time>2025-02-26T12:23:58Z</time>
      </trkpt>
      <trkpt lat="48.0633" lon="-3.47956">
        <ele>145.5</ele>
        <time>2025-02-26T12:23:59Z</time>
      </trkpt>
      <trkpt lat="48.06329" lon="-3.47956">
        <ele>145.7</ele>
        <time>2025-02-26T12:24:00Z</time>
      </trkpt>
      <trkpt lat="48.06328" lon="-3.47955">
        <ele>145.8</ele>
        <time>2025-02-26T12:24:01Z</time>
      </trkpt>
      <trkpt lat="48.06328" lon="-3.47954">
        <ele>145.8</ele>
        <time>2025-02-26T12:24:02Z</time>
      </trkpt>
      <trkpt lat="48.06327" lon="-3.47953">
        <ele>145.9</ele>
        <time>2025-02-26T12:24:03Z</time>
      </trkpt>
      <trkpt lat="48.06326" lon="-3.47953">
        <ele>146</ele>
        <time>2025-02-26T12:24:04Z</time>
      </trkpt>
      <trkpt lat="48.06325" lon="-3.47952">
        <ele>146.2</ele>
        <time>2025-02-26T12:24:05Z</time>
      </trkpt>
      <trkpt lat="48.06325" lon="-3.4795">
        <ele>146.2</ele>
        <time>2025-02-26T12:24:06Z</time>
      </trkpt>
      <trkpt lat="48.06324" lon="-3.47949">
        <ele>146.3</ele>
        <time>2025-02-26T12:24:07Z</time>
      </trkpt>
      <trkpt lat="48.06324" lon="-3.47948">
        <ele>146.4</ele>
        <time>2025-02-26T12:24:08Z</time>
      </trkpt>
      <trkpt lat="48.06323" lon="-3.47947">
        <ele>146.5</ele>
        <time>2025-02-26T12:24:09Z</time>
      </trkpt>
      <trkpt lat="48.06323" lon="-3.47945">
        <ele>146.5</ele>
        <time>2025-02-26T12:24:10Z</time>
      </trkpt>
      <trkpt lat="48.06322" lon="-3.47944">
        <ele>146.6</ele>
        <time>2025-02-26T12:24:11Z</time>
      </trkpt>
      <trkpt lat="48.06321" lon="-3.47944">
        <ele>146.7</ele>
        <time>2025-02-26T12:24:12Z</time>
      </trkpt>
      <trkpt lat="48.0632" lon="-3.47943">
        <ele>146.8</ele>
        <time>2025-02-26T12:24:13Z</time>
      </trkpt>
      <trkpt lat="48.06319" lon="-3.47942">
        <ele>146.9</ele>
        <time>2025-02-26T12:24:14Z</time>
      </trkpt>
      <trkpt lat="48.06318" lon="-3.47942">
        <ele>147.1</ele>
        <time>2025-02-26T12:24:15Z</time>
      </trkpt>
      <trkpt lat="48.06317" lon="-3.4794">
        <ele>147.2</ele>
        <time>2025-02-26T12:24:16Z</time>
      </trkpt>
      <trkpt lat="48.06316" lon="-3.4794">
        <ele>147.3</ele>
        <time>2025-02-26T12:24:17Z</time>
      </trkpt>
      <trkpt lat="48.06315" lon="-3.47939">
        <ele>147.4</ele>
        <time>2025-02-26T12:24:18Z</time>
      </trkpt>
      <trkpt lat="48.06315" lon="-3.47938">
        <ele>147.5</ele>
        <time>2025-02-26T12:24:19Z</time>
      </trkpt>
      <trkpt lat="48.06314" lon="-3.47937">
        <ele>147.5</ele>
        <time>2025-02-26T12:24:20Z</time>
      </trkpt>
      <trkpt lat="48.06313" lon="-3.47937">
        <ele>147.7</ele>
        <time>2025-02-26T12:24:21Z</time>
      </trkpt>
      <trkpt lat="48.06312" lon="-3.47937">
        <ele>147.8</ele>
        <time>2025-02-26T12:24:22Z</time>
      </trkpt>
      <trkpt lat="48.06312" lon="-3.47937">
        <ele>147.9</ele>
        <time>2025-02-26T12:24:23Z</time>
      </trkpt>
      <trkpt lat="48.06311" lon="-3.47935">
        <ele>147.9</ele>
        <time>2025-02-26T12:24:24Z</time>
      </trkpt>
      <trkpt lat="48.06311" lon="-3.47934">
        <ele>147.8</ele>
        <time>2025-02-26T12:24:25Z</time>
      </trkpt>
      <trkpt lat="48.0631" lon="-3.47933">
        <ele>148</ele>
        <time>2025-02-26T12:24:26Z</time>
      </trkpt>
      <trkpt lat="48.06309" lon="-3.47933">
        <ele>148.1</ele>
        <time>2025-02-26T12:24:27Z</time>
      </trkpt>
      <trkpt lat="48.06308" lon="-3.47933">
        <ele>148.2</ele>
        <time>2025-02-26T12:24:28Z</time>
      </trkpt>
      <trkpt lat="48.06307" lon="-3.47932">
        <ele>148.3</ele>
        <time>2025-02-26T12:24:29Z</time>
      </trkpt>
      <trkpt lat="48.06306" lon="-3.47932">
        <ele>148.4</ele>
        <time>2025-02-26T12:24:30Z</time>
      </trkpt>
      <trkpt lat="48.06306" lon="-3.47932">
        <ele>148.5</ele>
        <time>2025-02-26T12:24:31Z</time>
      </trkpt>
      <trkpt lat="48.06305" lon="-3.4793">
        <ele>148.6</ele>
        <time>2025-02-26T12:24:32Z</time>
      </trkpt>
      <trkpt lat="48.06304" lon="-3.47929">
        <ele>148.6</ele>
        <time>2025-02-26T12:24:33Z</time>
      </trkpt>
      <trkpt lat="48.06303" lon="-3.47929">
        <ele>148.7</ele>
        <time>2025-02-26T12:24:34Z</time>
      </trkpt>
      <trkpt lat="48.06303" lon="-3.47928">
        <ele>148.7</ele>
        <time>2025-02-26T12:24:35Z</time>
      </trkpt>
      <trkpt lat="48.06302" lon="-3.47928">
        <ele>148.8</ele>
        <time>2025-02-26T12:24:36Z</time>
      </trkpt>
      <trkpt lat="48.06301" lon="-3.47928">
        <ele>148.9</ele>
        <time>2025-02-26T12:24:37Z</time>
      </trkpt>
      <trkpt lat="48.063" lon="-3.47928">
        <ele>149</ele>
        <time>2025-02-26T12:24:38Z</time>
      </trkpt>
      <trkpt lat="48.06299" lon="-3.47927">
        <ele>149.1</ele>
        <time>2025-02-26T12:24:39Z</time>
      </trkpt>
      <trkpt lat="48.06298" lon="-3.47927">
        <ele>149.2</ele>
        <time>2025-02-26T12:24:40Z</time>
      </trkpt>
      <trkpt lat="48.06297" lon="-3.47927">
        <ele>149.2</ele>
        <time>2025-02-26T12:24:41Z</time>
      </trkpt>
      <trkpt lat="48.06297" lon="-3.47926">
        <ele>149.3</ele>
        <time>2025-02-26T12:24:42Z</time>
      </trkpt>
      <trkpt lat="48.06296" lon="-3.47927">
        <ele>149.4</ele>
        <time>2025-02-26T12:24:43Z</time>
      </trkpt>
      <trkpt lat="48.06295" lon="-3.47927">
        <ele>149.5</ele>
        <time>2025-02-26T12:24:44Z</time>
      </trkpt>
      <trkpt lat="48.06294" lon="-3.47926">
        <ele>149.6</ele>
        <time>2025-02-26T12:24:45Z</time>
      </trkpt>
      <trkpt lat="48.06293" lon="-3.47926">
        <ele>149.7</ele>
        <time>2025-02-26T12:24:46Z</time>
      </trkpt>
      <trkpt lat="48.06293" lon="-3.47926">
        <ele>149.7</ele>
        <time>2025-02-26T12:24:47Z</time>
      </trkpt>
      <trkpt lat="48.06292" lon="-3.47925">
        <ele>149.8</ele>
        <time>2025-02-26T12:24:48Z</time>
      </trkpt>
      <trkpt lat="48.06291" lon="-3.47925">
        <ele>149.9</ele>
        <time>2025-02-26T12:24:49Z</time>
      </trkpt>
      <trkpt lat="48.0629" lon="-3.47926">
        <ele>150.1</ele>
        <time>2025-02-26T12:24:50Z</time>
      </trkpt>
      <trkpt lat="48.06289" lon="-3.47927">
        <ele>150.2</ele>
        <time>2025-02-26T12:24:51Z</time>
      </trkpt>
      <trkpt lat="48.06287" lon="-3.47927">
        <ele>150.3</ele>
        <time>2025-02-26T12:24:52Z</time>
      </trkpt>
      <trkpt lat="48.06286" lon="-3.47927">
        <ele>150.4</ele>
        <time>2025-02-26T12:24:53Z</time>
      </trkpt>
      <trkpt lat="48.06286" lon="-3.47927">
        <ele>150.5</ele>
        <time>2025-02-26T12:24:54Z</time>
      </trkpt>
      <trkpt lat="48.06285" lon="-3.47927">
        <ele>150.6</ele>
        <time>2025-02-26T12:24:55Z</time>
      </trkpt>
      <trkpt lat="48.06284" lon="-3.47927">
        <ele>150.7</ele>
        <time>2025-02-26T12:24:56Z</time>
      </trkpt>
      <trkpt lat="48.06283" lon="-3.47927">
        <ele>150.8</ele>
        <time>2025-02-26T12:24:57Z</time>
      </trkpt>
      <trkpt lat="48.06282" lon="-3.47927">
        <ele>150.9</ele>
        <time>2025-02-26T12:24:58Z</time>
      </trkpt>
      <trkpt lat="48.06281" lon="-3.47927">
        <ele>151</ele>
        <time>2025-02-26T12:24:59Z</time>
      </trkpt>
      <trkpt lat="48.0628" lon="-3.47926">
        <ele>151.1</ele>
        <time>2025-02-26T12:25:00Z</time>
      </trkpt>
      <trkpt lat="48.06279" lon="-3.47927">
        <ele>151.3</ele>
        <time>2025-02-26T12:25:01Z</time>
      </trkpt>
      <trkpt lat="48.06278" lon="-3.47926">
        <ele>151.4</ele>
        <time>2025-02-26T12:25:02Z</time>
      </trkpt>
      <trkpt lat="48.06276" lon="-3.47926">
        <ele>151.5</ele>
        <time>2025-02-26T12:25:03Z</time>
      </trkpt>
      <trkpt lat="48.06275" lon="-3.47927">
        <ele>151.7</ele>
        <time>2025-02-26T12:25:04Z</time>
      </trkpt>
      <trkpt lat="48.06273" lon="-3.47927">
        <ele>151.8</ele>
        <time>2025-02-26T12:25:05Z</time>
      </trkpt>
      <trkpt lat="48.06271" lon="-3.47928">
        <ele>152</ele>
        <time>2025-02-26T12:25:06Z</time>
      </trkpt>
      <trkpt lat="48.06271" lon="-3.47929">
        <ele>152.1</ele>
        <time>2025-02-26T12:25:07Z</time>
      </trkpt>
      <trkpt lat="48.0627" lon="-3.47929">
        <ele>152.2</ele>
        <time>2025-02-26T12:25:08Z</time>
      </trkpt>
      <trkpt lat="48.06269" lon="-3.47929">
        <ele>152.3</ele>
        <time>2025-02-26T12:25:09Z</time>
      </trkpt>
      <trkpt lat="48.06267" lon="-3.47929">
        <ele>152.5</ele>
        <time>2025-02-26T12:25:10Z</time>
      </trkpt>
      <trkpt lat="48.06266" lon="-3.47929">
        <ele>152.6</ele>
        <time>2025-02-26T12:25:11Z</time>
      </trkpt>
      <trkpt lat="48.06265" lon="-3.4793">
        <ele>152.7</ele>
        <time>2025-02-26T12:25:12Z</time>
      </trkpt>
      <trkpt lat="48.06263" lon="-3.4793">
        <ele>152.8</ele>
        <time>2025-02-26T12:25:13Z</time>
      </trkpt>
      <trkpt lat="48.06262" lon="-3.47929">
        <ele>152.9</ele>
        <time>2025-02-26T12:25:14Z</time>
      </trkpt>
      <trkpt lat="48.06261" lon="-3.47929">
        <ele>153</ele>
        <time>2025-02-26T12:25:15Z</time>
      </trkpt>
      <trkpt lat="48.0626" lon="-3.4793">
        <ele>153.1</ele>
        <time>2025-02-26T12:25:16Z</time>
      </trkpt>
      <trkpt lat="48.06259" lon="-3.47929">
        <ele>153.1</ele>
        <time>2025-02-26T12:25:17Z</time>
      </trkpt>
      <trkpt lat="48.06258" lon="-3.47929">
        <ele>153.2</ele>
        <time>2025-02-26T12:25:18Z</time>
      </trkpt>
      <trkpt lat="48.06258" lon="-3.4793">
        <ele>153.3</ele>
        <time>2025-02-26T12:25:19Z</time>
      </trkpt>
      <trkpt lat="48.06257" lon="-3.47931">
        <ele>153.4</ele>
        <time>2025-02-26T12:25:20Z</time>
      </trkpt>
      <trkpt lat="48.06256" lon="-3.47932">
        <ele>153.5</ele>
        <time>2025-02-26T12:25:21Z</time>
      </trkpt>
      <trkpt lat="48.06255" lon="-3.47932">
        <ele>153.6</ele>
        <time>2025-02-26T12:25:22Z</time>
      </trkpt>
      <trkpt lat="48.06254" lon="-3.47932">
        <ele>153.7</ele>
        <time>2025-02-26T12:25:23Z</time>
      </trkpt>
      <trkpt lat="48.06253" lon="-3.47933">
        <ele>153.7</ele>
        <time>2025-02-26T12:25:24Z</time>
      </trkpt>
      <trkpt lat="48.06252" lon="-3.47933">
        <ele>153.8</ele>
        <time>2025-02-26T12:25:25Z</time>
      </trkpt>
      <trkpt lat="48.06251" lon="-3.47933">
        <ele>153.9</ele>
        <time>2025-02-26T12:25:26Z</time>
      </trkpt>
      <trkpt lat="48.06251" lon="-3.47933">
        <ele>153.9</ele>
        <time>2025-02-26T12:25:27Z</time>
      </trkpt>
      <trkpt lat="48.0625" lon="-3.47932">
        <ele>154</ele>
        <time>2025-02-26T12:25:28Z</time>
      </trkpt>
      <trkpt lat="48.06249" lon="-3.47933">
        <ele>154.1</ele>
        <time>2025-02-26T12:25:29Z</time>
      </trkpt>
      <trkpt lat="48.06249" lon="-3.47933">
        <ele>154.1</ele>
        <time>2025-02-26T12:25:30Z</time>
      </trkpt>
      <trkpt lat="48.06248" lon="-3.47932">
        <ele>154.2</ele>
        <time>2025-02-26T12:25:31Z</time>
      </trkpt>
      <trkpt lat="48.06246" lon="-3.47932">
        <ele>154.3</ele>
        <time>2025-02-26T12:25:32Z</time>
      </trkpt>
      <trkpt lat="48.06246" lon="-3.47932">
        <ele>154.4</ele>
        <time>2025-02-26T12:25:33Z</time>
      </trkpt>
      <trkpt lat="48.06245" lon="-3.47932">
        <ele>154.5</ele>
        <time>2025-02-26T12:25:34Z</time>
      </trkpt>
      <trkpt lat="48.06243" lon="-3.47931">
        <ele>154.6</ele>
        <time>2025-02-26T12:25:35Z</time>
      </trkpt>
      <trkpt lat="48.06242" lon="-3.4793">
        <ele>154.7</ele>
        <time>2025-02-26T12:25:36Z</time>
      </trkpt>
      <trkpt lat="48.06242" lon="-3.47929">
        <ele>154.7</ele>
        <time>2025-02-26T12:25:37Z</time>
      </trkpt>
      <trkpt lat="48.06241" lon="-3.47929">
        <ele>154.8</ele>
        <time>2025-02-26T12:25:38Z</time>
      </trkpt>
      <trkpt lat="48.0624" lon="-3.47929">
        <ele>154.9</ele>
        <time>2025-02-26T12:25:39Z</time>
      </trkpt>
      <trkpt lat="48.06239" lon="-3.4793">
        <ele>155</ele>
        <time>2025-02-26T12:25:40Z</time>
      </trkpt>
      <trkpt lat="48.06238" lon="-3.4793">
        <ele>155</ele>
        <time>2025-02-26T12:25:41Z</time>
      </trkpt>
      <trkpt lat="48.06238" lon="-3.4793">
        <ele>155.1</ele>
        <time>2025-02-26T12:25:42Z</time>
      </trkpt>
      <trkpt lat="48.06237" lon="-3.4793">
        <ele>155.2</ele>
        <time>2025-02-26T12:25:43Z</time>
      </trkpt>
      <trkpt lat="48.06236" lon="-3.4793">
        <ele>155.3</ele>
        <time>2025-02-26T12:25:44Z</time>
      </trkpt>
      <trkpt lat="48.06235" lon="-3.4793">
        <ele>155.3</ele>
        <time>2025-02-26T12:25:45Z</time>
      </trkpt>
      <trkpt lat="48.06234" lon="-3.4793">
        <ele>155.4</ele>
        <time>2025-02-26T12:25:46Z</time>
      </trkpt>
      <trkpt lat="48.06234" lon="-3.4793">
        <ele>155.4</ele>
        <time>2025-02-26T12:25:47Z</time>
      </trkpt>
      <trkpt lat="48.06233" lon="-3.47929">
        <ele>155.5</ele>
        <time>2025-02-26T12:25:48Z</time>
      </trkpt>
      <trkpt lat="48.06232" lon="-3.47928">
        <ele>155.5</ele>
        <time>2025-02-26T12:25:49Z</time>
      </trkpt>
      <trkpt lat="48.06231" lon="-3.47928">
        <ele>155.6</ele>
        <time>2025-02-26T12:25:50Z</time>
      </trkpt>
      <trkpt lat="48.06231" lon="-3.47929">
        <ele>155.7</ele>
        <time>2025-02-26T12:25:51Z</time>
      </trkpt>
      <trkpt lat="48.06229" lon="-3.4793">
        <ele>155.8</ele>
        <time>2025-02-26T12:25:52Z</time>
      </trkpt>
      <trkpt lat="48.06228" lon="-3.4793">
        <ele>155.9</ele>
        <time>2025-02-26T12:25:53Z</time>
      </trkpt>
      <trkpt lat="48.06227" lon="-3.4793">
        <ele>156</ele>
        <time>2025-02-26T12:25:54Z</time>
      </trkpt>
      <trkpt lat="48.06226" lon="-3.4793">
        <ele>156.1</ele>
        <time>2025-02-26T12:25:55Z</time>
      </trkpt>
      <trkpt lat="48.06225" lon="-3.4793">
        <ele>156.2</ele>
        <time>2025-02-26T12:25:56Z</time>
      </trkpt>
      <trkpt lat="48.06225" lon="-3.47931">
        <ele>156.3</ele>
        <time>2025-02-26T12:25:57Z</time>
      </trkpt>
      <trkpt lat="48.06223" lon="-3.47931">
        <ele>156.4</ele>
        <time>2025-02-26T12:25:58Z</time>
      </trkpt>
      <trkpt lat="48.06223" lon="-3.47931">
        <ele>156.5</ele>
        <time>2025-02-26T12:25:59Z</time>
      </trkpt>
      <trkpt lat="48.06222" lon="-3.47932">
        <ele>156.6</ele>
        <time>2025-02-26T12:26:00Z</time>
      </trkpt>
      <trkpt lat="48.06221" lon="-3.47932">
        <ele>156.6</ele>
        <time>2025-02-26T12:26:01Z</time>
      </trkpt>
      <trkpt lat="48.0622" lon="-3.47933">
        <ele>156.7</ele>
        <time>2025-02-26T12:26:02Z</time>
      </trkpt>
      <trkpt lat="48.06219" lon="-3.47932">
        <ele>156.7</ele>
        <time>2025-02-26T12:26:03Z</time>
      </trkpt>
      <trkpt lat="48.06218" lon="-3.47932">
        <ele>156.7</ele>
        <time>2025-02-26T12:26:04Z</time>
      </trkpt>
      <trkpt lat="48.06217" lon="-3.47932">
        <ele>156.7</ele>
        <time>2025-02-26T12:26:05Z</time>
      </trkpt>
      <trkpt lat="48.06217" lon="-3.47932">
        <ele>156.7</ele>
        <time>2025-02-26T12:26:06Z</time>
      </trkpt>
      <trkpt lat="48.06216" lon="-3.47932">
        <ele>156.8</ele>
        <time>2025-02-26T12:26:07Z</time>
      </trkpt>
      <trkpt lat="48.06215" lon="-3.47932">
        <ele>156.8</ele>
        <time>2025-02-26T12:26:08Z</time>
      </trkpt>
      <trkpt lat="48.06214" lon="-3.47933">
        <ele>156.9</ele>
        <time>2025-02-26T12:26:09Z</time>
      </trkpt>
      <trkpt lat="48.06212" lon="-3.47932">
        <ele>156.9</ele>
        <time>2025-02-26T12:26:10Z</time>
      </trkpt>
      <trkpt lat="48.06212" lon="-3.47932">
        <ele>156.9</ele>
        <time>2025-02-26T12:26:11Z</time>
      </trkpt>
      <trkpt lat="48.06211" lon="-3.47932">
        <ele>156.9</ele>
        <time>2025-02-26T12:26:12Z</time>
      </trkpt>
      <trkpt lat="48.0621" lon="-3.47931">
        <ele>157</ele>
        <time>2025-02-26T12:26:13Z</time>
      </trkpt>
      <trkpt lat="48.06209" lon="-3.47932">
        <ele>157</ele>
        <time>2025-02-26T12:26:14Z</time>
      </trkpt>
      <trkpt lat="48.06208" lon="-3.47932">
        <ele>157.1</ele>
        <time>2025-02-26T12:26:15Z</time>
      </trkpt>
      <trkpt lat="48.06207" lon="-3.47933">
        <ele>157.1</ele>
        <time>2025-02-26T12:26:16Z</time>
      </trkpt>
      <trkpt lat="48.06207" lon="-3.47935">
        <ele>157.2</ele>
        <time>2025-02-26T12:26:17Z</time>
      </trkpt>
      <trkpt lat="48.06207" lon="-3.47936">
        <ele>157.3</ele>
        <time>2025-02-26T12:26:18Z</time>
      </trkpt>
      <trkpt lat="48.0621" lon="-3.47936">
        <ele>157.2</ele>
        <time>2025-02-26T12:26:19Z</time>
      </trkpt>
      <trkpt lat="48.0621" lon="-3.47937">
        <ele>157.2</ele>
        <time>2025-02-26T12:26:20Z</time>
      </trkpt>
      <trkpt lat="48.06211" lon="-3.47937">
        <ele>157.2</ele>
        <time>2025-02-26T12:26:21Z</time>
      </trkpt>
      <trkpt lat="48.0621" lon="-3.47937">
        <ele>157.2</ele>
        <time>2025-02-26T12:26:22Z</time>
      </trkpt>
      <trkpt lat="48.06209" lon="-3.47938">
        <ele>157.2</ele>
        <time>2025-02-26T12:26:23Z</time>
      </trkpt>
      <trkpt lat="48.06209" lon="-3.47939">
        <ele>157.3</ele>
        <time>2025-02-26T12:26:24Z</time>
      </trkpt>
      <trkpt lat="48.06207" lon="-3.47939">
        <ele>157.3</ele>
        <time>2025-02-26T12:26:25Z</time>
      </trkpt>
      <trkpt lat="48.06207" lon="-3.47939">
        <ele>157.4</ele>
        <time>2025-02-26T12:26:26Z</time>
      </trkpt>
      <trkpt lat="48.06205" lon="-3.47938">
        <ele>157.4</ele>
        <time>2025-02-26T12:26:27Z</time>
      </trkpt>
      <trkpt lat="48.06204" lon="-3.47938">
        <ele>157.4</ele>
        <time>2025-02-26T12:26:28Z</time>
      </trkpt>
      <trkpt lat="48.06202" lon="-3.47938">
        <ele>157.5</ele>
        <time>2025-02-26T12:26:29Z</time>
      </trkpt>
      <trkpt lat="48.062" lon="-3.47937">
        <ele>157.5</ele>
        <time>2025-02-26T12:26:30Z</time>
      </trkpt>
      <trkpt lat="48.062" lon="-3.47936">
        <ele>157.5</ele>
        <time>2025-02-26T12:26:31Z</time>
      </trkpt>
      <trkpt lat="48.06198" lon="-3.47935">
        <ele>157.5</ele>
        <time>2025-02-26T12:26:32Z</time>
      </trkpt>
      <trkpt lat="48.06197" lon="-3.47934">
        <ele>157.6</ele>
        <time>2025-02-26T12:26:33Z</time>
      </trkpt>
      <trkpt lat="48.06196" lon="-3.47934">
        <ele>157.6</ele>
        <time>2025-02-26T12:26:34Z</time>
      </trkpt>
      <trkpt lat="48.06195" lon="-3.47935">
        <ele>157.6</ele>
        <time>2025-02-26T12:26:35Z</time>
      </trkpt>
      <trkpt lat="48.06194" lon="-3.47935">
        <ele>157.7</ele>
        <time>2025-02-26T12:26:36Z</time>
      </trkpt>
      <trkpt lat="48.06193" lon="-3.47935">
        <ele>157.7</ele>
        <time>2025-02-26T12:26:37Z</time>
      </trkpt>
      <trkpt lat="48.06193" lon="-3.47935">
        <ele>157.7</ele>
        <time>2025-02-26T12:26:38Z</time>
      </trkpt>
      <trkpt lat="48.06192" lon="-3.47935">
        <ele>157.7</ele>
        <time>2025-02-26T12:26:39Z</time>
      </trkpt>
      <trkpt lat="48.06191" lon="-3.47934">
        <ele>157.8</ele>
        <time>2025-02-26T12:26:40Z</time>
      </trkpt>
      <trkpt lat="48.06193" lon="-3.47935">
        <ele>157.7</ele>
        <time>2025-02-26T12:26:41Z</time>
      </trkpt>
      <trkpt lat="48.06194" lon="-3.47936">
        <ele>157.7</ele>
        <time>2025-02-26T12:26:42Z</time>
      </trkpt>
      <trkpt lat="48.06195" lon="-3.47936">
        <ele>157.7</ele>
        <time>2025-02-26T12:26:43Z</time>
      </trkpt>
      <trkpt lat="48.06195" lon="-3.47936">
        <ele>157.7</ele>
        <time>2025-02-26T12:26:44Z</time>
      </trkpt>
      <trkpt lat="48.06194" lon="-3.47936">
        <ele>157.7</ele>
        <time>2025-02-26T12:26:45Z</time>
      </trkpt>
      <trkpt lat="48.06193" lon="-3.47935">
        <ele>157.7</ele>
        <time>2025-02-26T12:26:46Z</time>
      </trkpt>
      <trkpt lat="48.06191" lon="-3.47935">
        <ele>157.8</ele>
        <time>2025-02-26T12:26:47Z</time>
      </trkpt>
      <trkpt lat="48.0619" lon="-3.47935">
        <ele>157.8</ele>
        <time>2025-02-26T12:26:48Z</time>
      </trkpt>
      <trkpt lat="48.06188" lon="-3.47935">
        <ele>157.9</ele>
        <time>2025-02-26T12:26:49Z</time>
      </trkpt>
      <trkpt lat="48.06186" lon="-3.47935">
        <ele>157.9</ele>
        <time>2025-02-26T12:26:50Z</time>
      </trkpt>
      <trkpt lat="48.06185" lon="-3.47935">
        <ele>158</ele>
        <time>2025-02-26T12:26:51Z</time>
      </trkpt>
      <trkpt lat="48.06184" lon="-3.47935">
        <ele>158</ele>
        <time>2025-02-26T12:26:52Z</time>
      </trkpt>
      <trkpt lat="48.06183" lon="-3.47935">
        <ele>158.1</ele>
        <time>2025-02-26T12:26:53Z</time>
      </trkpt>
      <trkpt lat="48.06182" lon="-3.47935">
        <ele>158.1</ele>
        <time>2025-02-26T12:26:54Z</time>
      </trkpt>
      <trkpt lat="48.06181" lon="-3.47935">
        <ele>158.1</ele>
        <time>2025-02-26T12:26:55Z</time>
      </trkpt>
      <trkpt lat="48.06179" lon="-3.47933">
        <ele>158.1</ele>
        <time>2025-02-26T12:26:56Z</time>
      </trkpt>
      <trkpt lat="48.06179" lon="-3.47932">
        <ele>158.1</ele>
        <time>2025-02-26T12:26:57Z</time>
      </trkpt>
      <trkpt lat="48.06178" lon="-3.47932">
        <ele>158.1</ele>
        <time>2025-02-26T12:26:58Z</time>
      </trkpt>
      <trkpt lat="48.06177" lon="-3.47931">
        <ele>158.2</ele>
        <time>2025-02-26T12:26:59Z</time>
      </trkpt>
      <trkpt lat="48.06176" lon="-3.4793">
        <ele>158.2</ele>
        <time>2025-02-26T12:27:00Z</time>
      </trkpt>
      <trkpt lat="48.06175" lon="-3.47929">
        <ele>158.1</ele>
        <time>2025-02-26T12:27:01Z</time>
      </trkpt>
      <trkpt lat="48.06174" lon="-3.47928">
        <ele>158.2</ele>
        <time>2025-02-26T12:27:02Z</time>
      </trkpt>
      <trkpt lat="48.06173" lon="-3.47927">
        <ele>158.2</ele>
        <time>2025-02-26T12:27:03Z</time>
      </trkpt>
      <trkpt lat="48.06171" lon="-3.47927">
        <ele>158.2</ele>
        <time>2025-02-26T12:27:04Z</time>
      </trkpt>
      <trkpt lat="48.0617" lon="-3.47927">
        <ele>158.2</ele>
        <time>2025-02-26T12:27:05Z</time>
      </trkpt>
      <trkpt lat="48.06169" lon="-3.47926">
        <ele>158.2</ele>
        <time>2025-02-26T12:27:06Z</time>
      </trkpt>
      <trkpt lat="48.06169" lon="-3.47924">
        <ele>158.2</ele>
        <time>2025-02-26T12:27:07Z</time>
      </trkpt>
      <trkpt lat="48.06168" lon="-3.47923">
        <ele>158.2</ele>
        <time>2025-02-26T12:27:08Z</time>
      </trkpt>
      <trkpt lat="48.06167" lon="-3.47922">
        <ele>158.2</ele>
        <time>2025-02-26T12:27:09Z</time>
      </trkpt>
      <trkpt lat="48.06165" lon="-3.47921">
        <ele>158.2</ele>
        <time>2025-02-26T12:27:10Z</time>
      </trkpt>
      <trkpt lat="48.06164" lon="-3.4792">
        <ele>158.1</ele>
        <time>2025-02-26T12:27:11Z</time>
      </trkpt>
      <trkpt lat="48.06163" lon="-3.47919">
        <ele>158.1</ele>
        <time>2025-02-26T12:27:12Z</time>
      </trkpt>
      <trkpt lat="48.06164" lon="-3.4792">
        <ele>158.1</ele>
        <time>2025-02-26T12:27:13Z</time>
      </trkpt>
      <trkpt lat="48.06164" lon="-3.4792">
        <ele>158.1</ele>
        <time>2025-02-26T12:27:14Z</time>
      </trkpt>
      <trkpt lat="48.06164" lon="-3.4792">
        <ele>158.1</ele>
        <time>2025-02-26T12:27:15Z</time>
      </trkpt>
      <trkpt lat="48.06164" lon="-3.4792">
        <ele>158.1</ele>
        <time>2025-02-26T12:27:16Z</time>
      </trkpt>
      <trkpt lat="48.06164" lon="-3.47921">
        <ele>158.1</ele>
        <time>2025-02-26T12:27:17Z</time>
      </trkpt>
      <trkpt lat="48.06164" lon="-3.47921">
        <ele>158.1</ele>
        <time>2025-02-26T12:27:18Z</time>
      </trkpt>
      <trkpt lat="48.06163" lon="-3.4792">
        <ele>158.1</ele>
        <time>2025-02-26T12:27:19Z</time>
      </trkpt>
      <trkpt lat="48.06162" lon="-3.4792">
        <ele>158.1</ele>
        <time>2025-02-26T12:27:20Z</time>
      </trkpt>
      <trkpt lat="48.06162" lon="-3.4792">
        <ele>158.1</ele>
        <time>2025-02-26T12:27:21Z</time>
      </trkpt>
      <trkpt lat="48.06161" lon="-3.47921">
        <ele>158.1</ele>
        <time>2025-02-26T12:27:22Z</time>
      </trkpt>
      <trkpt lat="48.0616" lon="-3.4792">
        <ele>158.1</ele>
        <time>2025-02-26T12:27:23Z</time>
      </trkpt>
      <trkpt lat="48.06159" lon="-3.47919">
        <ele>158.1</ele>
        <time>2025-02-26T12:27:24Z</time>
      </trkpt>
      <trkpt lat="48.06158" lon="-3.47919">
        <ele>158</ele>
        <time>2025-02-26T12:27:25Z</time>
      </trkpt>
      <trkpt lat="48.06157" lon="-3.47919">
        <ele>158</ele>
        <time>2025-02-26T12:27:26Z</time>
      </trkpt>
      <trkpt lat="48.06156" lon="-3.47918">
        <ele>158</ele>
        <time>2025-02-26T12:27:27Z</time>
      </trkpt>
      <trkpt lat="48.06155" lon="-3.47918">
        <ele>158</ele>
        <time>2025-02-26T12:27:28Z</time>
      </trkpt>
      <trkpt lat="48.06154" lon="-3.47917">
        <ele>158</ele>
        <time>2025-02-26T12:27:29Z</time>
      </trkpt>
      <trkpt lat="48.06154" lon="-3.47916">
        <ele>158</ele>
        <time>2025-02-26T12:27:30Z</time>
      </trkpt>
      <trkpt lat="48.06153" lon="-3.47916">
        <ele>157.9</ele>
        <time>2025-02-26T12:27:31Z</time>
      </trkpt>
      <trkpt lat="48.06152" lon="-3.47916">
        <ele>157.9</ele>
        <time>2025-02-26T12:27:32Z</time>
      </trkpt>
      <trkpt lat="48.06151" lon="-3.47915">
        <ele>157.9</ele>
        <time>2025-02-26T12:27:33Z</time>
      </trkpt>
      <trkpt lat="48.0615" lon="-3.47916">
        <ele>157.9</ele>
        <time>2025-02-26T12:27:34Z</time>
      </trkpt>
      <trkpt lat="48.06149" lon="-3.47916">
        <ele>158</ele>
        <time>2025-02-26T12:27:35Z</time>
      </trkpt>
      <trkpt lat="48.06148" lon="-3.47916">
        <ele>158</ele>
        <time>2025-02-26T12:27:36Z</time>
      </trkpt>
      <trkpt lat="48.06147" lon="-3.47915">
        <ele>157.9</ele>
        <time>2025-02-26T12:27:37Z</time>
      </trkpt>
      <trkpt lat="48.06146" lon="-3.47915">
        <ele>157.8</ele>
        <time>2025-02-26T12:27:38Z</time>
      </trkpt>
      <trkpt lat="48.06145" lon="-3.47914">
        <ele>157.8</ele>
        <time>2025-02-26T12:27:39Z</time>
      </trkpt>
      <trkpt lat="48.06145" lon="-3.47912">
        <ele>157.7</ele>
        <time>2025-02-26T12:27:40Z</time>
      </trkpt>
      <trkpt lat="48.06144" lon="-3.47911">
        <ele>157.6</ele>
        <time>2025-02-26T12:27:41Z</time>
      </trkpt>
      <trkpt lat="48.06143" lon="-3.47911">
        <ele>157.6</ele>
        <time>2025-02-26T12:27:42Z</time>
      </trkpt>
      <trkpt lat="48.06142" lon="-3.4791">
        <ele>157.5</ele>
        <time>2025-02-26T12:27:43Z</time>
      </trkpt>
      <trkpt lat="48.06141" lon="-3.4791">
        <ele>157.5</ele>
        <time>2025-02-26T12:27:44Z</time>
      </trkpt>
      <trkpt lat="48.0614" lon="-3.47909">
        <ele>157.4</ele>
        <time>2025-02-26T12:27:45Z</time>
      </trkpt>
      <trkpt lat="48.06139" lon="-3.47908">
        <ele>157.4</ele>
        <time>2025-02-26T12:27:46Z</time>
      </trkpt>
      <trkpt lat="48.06138" lon="-3.47909">
        <ele>157.4</ele>
        <time>2025-02-26T12:27:47Z</time>
      </trkpt>
      <trkpt lat="48.06137" lon="-3.47907">
        <ele>157.2</ele>
        <time>2025-02-26T12:27:48Z</time>
      </trkpt>
      <trkpt lat="48.06136" lon="-3.47906">
        <ele>157.1</ele>
        <time>2025-02-26T12:27:49Z</time>
      </trkpt>
      <trkpt lat="48.06136" lon="-3.47905">
        <ele>156.9</ele>
        <time>2025-02-26T12:27:50Z</time>
      </trkpt>
      <trkpt lat="48.06135" lon="-3.47903">
        <ele>156.8</ele>
        <time>2025-02-26T12:27:51Z</time>
      </trkpt>
      <trkpt lat="48.06134" lon="-3.47902">
        <ele>156.7</ele>
        <time>2025-02-26T12:27:52Z</time>
      </trkpt>
      <trkpt lat="48.06133" lon="-3.47901">
        <ele>156.6</ele>
        <time>2025-02-26T12:27:53Z</time>
      </trkpt>
      <trkpt lat="48.06132" lon="-3.479">
        <ele>156.4</ele>
        <time>2025-02-26T12:27:54Z</time>
      </trkpt>
      <trkpt lat="48.0613" lon="-3.479">
        <ele>156.3</ele>
        <time>2025-02-26T12:27:55Z</time>
      </trkpt>
      <trkpt lat="48.06129" lon="-3.479">
        <ele>156.3</ele>
        <time>2025-02-26T12:27:56Z</time>
      </trkpt>
      <trkpt lat="48.06128" lon="-3.47899">
        <ele>156.2</ele>
        <time>2025-02-26T12:27:57Z</time>
      </trkpt>
      <trkpt lat="48.06127" lon="-3.47898">
        <ele>156.1</ele>
        <time>2025-02-26T12:27:58Z</time>
      </trkpt>
      <trkpt lat="48.06126" lon="-3.47897">
        <ele>156</ele>
        <time>2025-02-26T12:27:59Z</time>
      </trkpt>
      <trkpt lat="48.06125" lon="-3.47897">
        <ele>155.9</ele>
        <time>2025-02-26T12:28:00Z</time>
      </trkpt>
      <trkpt lat="48.06124" lon="-3.47897">
        <ele>155.9</ele>
        <time>2025-02-26T12:28:01Z</time>
      </trkpt>
      <trkpt lat="48.06123" lon="-3.47896">
        <ele>155.8</ele>
        <time>2025-02-26T12:28:02Z</time>
      </trkpt>
      <trkpt lat="48.06122" lon="-3.47895">
        <ele>155.7</ele>
        <time>2025-02-26T12:28:03Z</time>
      </trkpt>
      <trkpt lat="48.06121" lon="-3.47894">
        <ele>155.6</ele>
        <time>2025-02-26T12:28:04Z</time>
      </trkpt>
      <trkpt lat="48.06121" lon="-3.47893">
        <ele>155.5</ele>
        <time>2025-02-26T12:28:05Z</time>
      </trkpt>
      <trkpt lat="48.0612" lon="-3.47891">
        <ele>155.4</ele>
        <time>2025-02-26T12:28:06Z</time>
      </trkpt>
      <trkpt lat="48.06119" lon="-3.4789">
        <ele>155.4</ele>
        <time>2025-02-26T12:28:07Z</time>
      </trkpt>
      <trkpt lat="48.06118" lon="-3.47889">
        <ele>155.3</ele>
        <time>2025-02-26T12:28:08Z</time>
      </trkpt>
      <trkpt lat="48.06118" lon="-3.47889">
        <ele>155.2</ele>
        <time>2025-02-26T12:28:09Z</time>
      </trkpt>
      <trkpt lat="48.06117" lon="-3.47888">
        <ele>155.1</ele>
        <time>2025-02-26T12:28:10Z</time>
      </trkpt>
      <trkpt lat="48.06116" lon="-3.47888">
        <ele>155.1</ele>
        <time>2025-02-26T12:28:11Z</time>
      </trkpt>
      <trkpt lat="48.06116" lon="-3.47887">
        <ele>155.1</ele>
        <time>2025-02-26T12:28:12Z</time>
      </trkpt>
      <trkpt lat="48.06115" lon="-3.47888">
        <ele>155</ele>
        <time>2025-02-26T12:28:13Z</time>
      </trkpt>
      <trkpt lat="48.06114" lon="-3.47888">
        <ele>155</ele>
        <time>2025-02-26T12:28:14Z</time>
      </trkpt>
      <trkpt lat="48.06113" lon="-3.47889">
        <ele>155.1</ele>
        <time>2025-02-26T12:28:15Z</time>
      </trkpt>
      <trkpt lat="48.06113" lon="-3.4789">
        <ele>155.1</ele>
        <time>2025-02-26T12:28:16Z</time>
      </trkpt>
      <trkpt lat="48.06112" lon="-3.47891">
        <ele>155.1</ele>
        <time>2025-02-26T12:28:17Z</time>
      </trkpt>
      <trkpt lat="48.06111" lon="-3.47892">
        <ele>155.1</ele>
        <time>2025-02-26T12:28:18Z</time>
      </trkpt>
      <trkpt lat="48.0611" lon="-3.47893">
        <ele>155.1</ele>
        <time>2025-02-26T12:28:19Z</time>
      </trkpt>
      <trkpt lat="48.06109" lon="-3.47895">
        <ele>155.1</ele>
        <time>2025-02-26T12:28:20Z</time>
      </trkpt>
      <trkpt lat="48.06108" lon="-3.47896">
        <ele>155.1</ele>
        <time>2025-02-26T12:28:21Z</time>
      </trkpt>
      <trkpt lat="48.06107" lon="-3.47896">
        <ele>155.1</ele>
        <time>2025-02-26T12:28:22Z</time>
      </trkpt>
      <trkpt lat="48.06106" lon="-3.47897">
        <ele>155.1</ele>
        <time>2025-02-26T12:28:23Z</time>
      </trkpt>
      <trkpt lat="48.06106" lon="-3.47898">
        <ele>155.1</ele>
        <time>2025-02-26T12:28:24Z</time>
      </trkpt>
      <trkpt lat="48.06104" lon="-3.47899">
        <ele>155.1</ele>
        <time>2025-02-26T12:28:25Z</time>
      </trkpt>
      <trkpt lat="48.06104" lon="-3.479">
        <ele>155.1</ele>
        <time>2025-02-26T12:28:26Z</time>
      </trkpt>
      <trkpt lat="48.06103" lon="-3.47901">
        <ele>155.1</ele>
        <time>2025-02-26T12:28:27Z</time>
      </trkpt>
      <trkpt lat="48.06102" lon="-3.47902">
        <ele>155.1</ele>
        <time>2025-02-26T12:28:28Z</time>
      </trkpt>
      <trkpt lat="48.06101" lon="-3.47903">
        <ele>155.1</ele>
        <time>2025-02-26T12:28:29Z</time>
      </trkpt>
      <trkpt lat="48.061" lon="-3.47903">
        <ele>155.1</ele>
        <time>2025-02-26T12:28:30Z</time>
      </trkpt>
      <trkpt lat="48.06099" lon="-3.47904">
        <ele>155.1</ele>
        <time>2025-02-26T12:28:31Z</time>
      </trkpt>
      <trkpt lat="48.06098" lon="-3.47905">
        <ele>155.1</ele>
        <time>2025-02-26T12:28:32Z</time>
      </trkpt>
      <trkpt lat="48.06097" lon="-3.47906">
        <ele>155.1</ele>
        <time>2025-02-26T12:28:33Z</time>
      </trkpt>
      <trkpt lat="48.06096" lon="-3.47907">
        <ele>155.1</ele>
        <time>2025-02-26T12:28:34Z</time>
      </trkpt>
      <trkpt lat="48.06096" lon="-3.47907">
        <ele>155.1</ele>
        <time>2025-02-26T12:28:35Z</time>
      </trkpt>
      <trkpt lat="48.06095" lon="-3.47908">
        <ele>155.1</ele>
        <time>2025-02-26T12:28:36Z</time>
      </trkpt>
      <trkpt lat="48.06094" lon="-3.47908">
        <ele>155.1</ele>
        <time>2025-02-26T12:28:37Z</time>
      </trkpt>
      <trkpt lat="48.06093" lon="-3.47909">
        <ele>155.1</ele>
        <time>2025-02-26T12:28:38Z</time>
      </trkpt>
      <trkpt lat="48.06092" lon="-3.4791">
        <ele>155.1</ele>
        <time>2025-02-26T12:28:39Z</time>
      </trkpt>
      <trkpt lat="48.06091" lon="-3.47911">
        <ele>155.1</ele>
        <time>2025-02-26T12:28:40Z</time>
      </trkpt>
      <trkpt lat="48.0609" lon="-3.47912">
        <ele>155.1</ele>
        <time>2025-02-26T12:28:41Z</time>
      </trkpt>
      <trkpt lat="48.06089" lon="-3.47912">
        <ele>155</ele>
        <time>2025-02-26T12:28:42Z</time>
      </trkpt>
      <trkpt lat="48.06088" lon="-3.47913">
        <ele>155</ele>
        <time>2025-02-26T12:28:43Z</time>
      </trkpt>
      <trkpt lat="48.06087" lon="-3.47914">
        <ele>155</ele>
        <time>2025-02-26T12:28:44Z</time>
      </trkpt>
      <trkpt lat="48.06086" lon="-3.47914">
        <ele>155</ele>
        <time>2025-02-26T12:28:45Z</time>
      </trkpt>
      <trkpt lat="48.06085" lon="-3.47915">
        <ele>155</ele>
        <time>2025-02-26T12:28:46Z</time>
      </trkpt>
      <trkpt lat="48.06084" lon="-3.47916">
        <ele>155</ele>
        <time>2025-02-26T12:28:47Z</time>
      </trkpt>
      <trkpt lat="48.06083" lon="-3.47917">
        <ele>155</ele>
        <time>2025-02-26T12:28:48Z</time>
      </trkpt>
      <trkpt lat="48.06082" lon="-3.47917">
        <ele>155</ele>
        <time>2025-02-26T12:28:49Z</time>
      </trkpt>
      <trkpt lat="48.06081" lon="-3.47919">
        <ele>155</ele>
        <time>2025-02-26T12:28:50Z</time>
      </trkpt>
      <trkpt lat="48.06081" lon="-3.47919">
        <ele>155</ele>
        <time>2025-02-26T12:28:51Z</time>
      </trkpt>
      <trkpt lat="48.0608" lon="-3.4792">
        <ele>155</ele>
        <time>2025-02-26T12:28:52Z</time>
      </trkpt>
      <trkpt lat="48.06079" lon="-3.47921">
        <ele>155</ele>
        <time>2025-02-26T12:28:53Z</time>
      </trkpt>
      <trkpt lat="48.06078" lon="-3.47922">
        <ele>155</ele>
        <time>2025-02-26T12:28:54Z</time>
      </trkpt>
      <trkpt lat="48.06077" lon="-3.47923">
        <ele>155</ele>
        <time>2025-02-26T12:28:55Z</time>
      </trkpt>
      <trkpt lat="48.06076" lon="-3.47925">
        <ele>155</ele>
        <time>2025-02-26T12:28:56Z</time>
      </trkpt>
      <trkpt lat="48.06076" lon="-3.47926">
        <ele>155</ele>
        <time>2025-02-26T12:28:57Z</time>
      </trkpt>
      <trkpt lat="48.06075" lon="-3.47927">
        <ele>155</ele>
        <time>2025-02-26T12:28:58Z</time>
      </trkpt>
      <trkpt lat="48.06074" lon="-3.47927">
        <ele>155</ele>
        <time>2025-02-26T12:28:59Z</time>
      </trkpt>
      <trkpt lat="48.06073" lon="-3.47928">
        <ele>155</ele>
        <time>2025-02-26T12:29:00Z</time>
      </trkpt>
      <trkpt lat="48.06072" lon="-3.47928">
        <ele>155</ele>
        <time>2025-02-26T12:29:01Z</time>
      </trkpt>
      <trkpt lat="48.06071" lon="-3.4793">
        <ele>155</ele>
        <time>2025-02-26T12:29:02Z</time>
      </trkpt>
      <trkpt lat="48.06071" lon="-3.47931">
        <ele>155.1</ele>
        <time>2025-02-26T12:29:03Z</time>
      </trkpt>
      <trkpt lat="48.0607" lon="-3.47932">
        <ele>155.1</ele>
        <time>2025-02-26T12:29:04Z</time>
      </trkpt>
      <trkpt lat="48.06069" lon="-3.47933">
        <ele>155.1</ele>
        <time>2025-02-26T12:29:05Z</time>
      </trkpt>
      <trkpt lat="48.06069" lon="-3.47933">
        <ele>155.1</ele>
        <time>2025-02-26T12:29:06Z</time>
      </trkpt>
      <trkpt lat="48.06068" lon="-3.47935">
        <ele>155.1</ele>
        <time>2025-02-26T12:29:07Z</time>
      </trkpt>
      <trkpt lat="48.06067" lon="-3.47936">
        <ele>155.1</ele>
        <time>2025-02-26T12:29:08Z</time>
      </trkpt>
      <trkpt lat="48.06067" lon="-3.47937">
        <ele>155.1</ele>
        <time>2025-02-26T12:29:09Z</time>
      </trkpt>
      <trkpt lat="48.06066" lon="-3.47938">
        <ele>155.2</ele>
        <time>2025-02-26T12:29:10Z</time>
      </trkpt>
      <trkpt lat="48.06066" lon="-3.47939">
        <ele>155.2</ele>
        <time>2025-02-26T12:29:11Z</time>
      </trkpt>
      <trkpt lat="48.06065" lon="-3.4794">
        <ele>155.2</ele>
        <time>2025-02-26T12:29:12Z</time>
      </trkpt>
      <trkpt lat="48.06065" lon="-3.47941">
        <ele>155.2</ele>
        <time>2025-02-26T12:29:13Z</time>
      </trkpt>
      <trkpt lat="48.06065" lon="-3.47942">
        <ele>155.3</ele>
        <time>2025-02-26T12:29:14Z</time>
      </trkpt>
      <trkpt lat="48.06064" lon="-3.47944">
        <ele>155.3</ele>
        <time>2025-02-26T12:29:15Z</time>
      </trkpt>
      <trkpt lat="48.06064" lon="-3.47945">
        <ele>155.3</ele>
        <time>2025-02-26T12:29:16Z</time>
      </trkpt>
      <trkpt lat="48.06063" lon="-3.47946">
        <ele>155.3</ele>
        <time>2025-02-26T12:29:17Z</time>
      </trkpt>
      <trkpt lat="48.06062" lon="-3.47948">
        <ele>155.3</ele>
        <time>2025-02-26T12:29:18Z</time>
      </trkpt>
      <trkpt lat="48.06062" lon="-3.4795">
        <ele>155.4</ele>
        <time>2025-02-26T12:29:19Z</time>
      </trkpt>
      <trkpt lat="48.06062" lon="-3.47951">
        <ele>155.4</ele>
        <time>2025-02-26T12:29:20Z</time>
      </trkpt>
      <trkpt lat="48.06062" lon="-3.47953">
        <ele>155.5</ele>
        <time>2025-02-26T12:29:21Z</time>
      </trkpt>
      <trkpt lat="48.06061" lon="-3.47955">
        <ele>155.5</ele>
        <time>2025-02-26T12:29:22Z</time>
      </trkpt>
      <trkpt lat="48.06061" lon="-3.47956">
        <ele>155.5</ele>
        <time>2025-02-26T12:29:23Z</time>
      </trkpt>
      <trkpt lat="48.06061" lon="-3.47958">
        <ele>155.6</ele>
        <time>2025-02-26T12:29:24Z</time>
      </trkpt>
      <trkpt lat="48.0606" lon="-3.47959">
        <ele>155.6</ele>
        <time>2025-02-26T12:29:25Z</time>
      </trkpt>
      <trkpt lat="48.06059" lon="-3.4796">
        <ele>155.6</ele>
        <time>2025-02-26T12:29:26Z</time>
      </trkpt>
      <trkpt lat="48.06058" lon="-3.47961">
        <ele>155.6</ele>
        <time>2025-02-26T12:29:27Z</time>
      </trkpt>
      <trkpt lat="48.06058" lon="-3.47963">
        <ele>155.7</ele>
        <time>2025-02-26T12:29:28Z</time>
      </trkpt>
      <trkpt lat="48.06057" lon="-3.47964">
        <ele>155.7</ele>
        <time>2025-02-26T12:29:29Z</time>
      </trkpt>
      <trkpt lat="48.06057" lon="-3.47965">
        <ele>155.7</ele>
        <time>2025-02-26T12:29:30Z</time>
      </trkpt>
      <trkpt lat="48.06056" lon="-3.47966">
        <ele>155.8</ele>
        <time>2025-02-26T12:29:31Z</time>
      </trkpt>
      <trkpt lat="48.06056" lon="-3.47968">
        <ele>155.8</ele>
        <time>2025-02-26T12:29:32Z</time>
      </trkpt>
      <trkpt lat="48.06055" lon="-3.47969">
        <ele>155.9</ele>
        <time>2025-02-26T12:29:33Z</time>
      </trkpt>
      <trkpt lat="48.06055" lon="-3.4797">
        <ele>155.9</ele>
        <time>2025-02-26T12:29:34Z</time>
      </trkpt>
      <trkpt lat="48.06054" lon="-3.47972">
        <ele>156</ele>
        <time>2025-02-26T12:29:35Z</time>
      </trkpt>
      <trkpt lat="48.06054" lon="-3.47973">
        <ele>156</ele>
        <time>2025-02-26T12:29:36Z</time>
      </trkpt>
      <trkpt lat="48.06054" lon="-3.47975">
        <ele>156.1</ele>
        <time>2025-02-26T12:29:37Z</time>
      </trkpt>
      <trkpt lat="48.06053" lon="-3.47976">
        <ele>156.1</ele>
        <time>2025-02-26T12:29:38Z</time>
      </trkpt>
      <trkpt lat="48.06052" lon="-3.47978">
        <ele>156.2</ele>
        <time>2025-02-26T12:29:39Z</time>
      </trkpt>
      <trkpt lat="48.06052" lon="-3.47979">
        <ele>156.2</ele>
        <time>2025-02-26T12:29:40Z</time>
      </trkpt>
      <trkpt lat="48.06051" lon="-3.4798">
        <ele>156.3</ele>
        <time>2025-02-26T12:29:41Z</time>
      </trkpt>
      <trkpt lat="48.0605" lon="-3.47982">
        <ele>156.3</ele>
        <time>2025-02-26T12:29:42Z</time>
      </trkpt>
      <trkpt lat="48.0605" lon="-3.47983">
        <ele>156.4</ele>
        <time>2025-02-26T12:29:43Z</time>
      </trkpt>
      <trkpt lat="48.06049" lon="-3.47985">
        <ele>156.4</ele>
        <time>2025-02-26T12:29:44Z</time>
      </trkpt>
      <trkpt lat="48.06049" lon="-3.47986">
        <ele>156.5</ele>
        <time>2025-02-26T12:29:45Z</time>
      </trkpt>
      <trkpt lat="48.06049" lon="-3.47987">
        <ele>156.5</ele>
        <time>2025-02-26T12:29:46Z</time>
      </trkpt>
      <trkpt lat="48.06048" lon="-3.47988">
        <ele>156.6</ele>
        <time>2025-02-26T12:29:47Z</time>
      </trkpt>
      <trkpt lat="48.06048" lon="-3.47989">
        <ele>156.6</ele>
        <time>2025-02-26T12:29:48Z</time>
      </trkpt>
      <trkpt lat="48.06048" lon="-3.47991">
        <ele>156.7</ele>
        <time>2025-02-26T12:29:49Z</time>
      </trkpt>
      <trkpt lat="48.06047" lon="-3.47992">
        <ele>156.7</ele>
        <time>2025-02-26T12:29:50Z</time>
      </trkpt>
      <trkpt lat="48.06047" lon="-3.47994">
        <ele>156.8</ele>
        <time>2025-02-26T12:29:51Z</time>
      </trkpt>
      <trkpt lat="48.06046" lon="-3.47996">
        <ele>156.8</ele>
        <time>2025-02-26T12:29:52Z</time>
      </trkpt>
      <trkpt lat="48.06046" lon="-3.47997">
        <ele>156.9</ele>
        <time>2025-02-26T12:29:53Z</time>
      </trkpt>
      <trkpt lat="48.06045" lon="-3.47999">
        <ele>156.9</ele>
        <time>2025-02-26T12:29:54Z</time>
      </trkpt>
      <trkpt lat="48.06045" lon="-3.48">
        <ele>157</ele>
        <time>2025-02-26T12:29:55Z</time>
      </trkpt>
      <trkpt lat="48.06045" lon="-3.48002">
        <ele>157</ele>
        <time>2025-02-26T12:29:56Z</time>
      </trkpt>
      <trkpt lat="48.06044" lon="-3.48004">
        <ele>157</ele>
        <time>2025-02-26T12:29:57Z</time>
      </trkpt>
      <trkpt lat="48.06044" lon="-3.48005">
        <ele>157</ele>
        <time>2025-02-26T12:29:58Z</time>
      </trkpt>
      <trkpt lat="48.06043" lon="-3.48007">
        <ele>157</ele>
        <time>2025-02-26T12:29:59Z</time>
      </trkpt>
      <trkpt lat="48.06042" lon="-3.48008">
        <ele>157</ele>
        <time>2025-02-26T12:30:00Z</time>
      </trkpt>
      <trkpt lat="48.06041" lon="-3.48009">
        <ele>157</ele>
        <time>2025-02-26T12:30:01Z</time>
      </trkpt>
      <trkpt lat="48.06041" lon="-3.48011">
        <ele>157</ele>
        <time>2025-02-26T12:30:02Z</time>
      </trkpt>
      <trkpt lat="48.06041" lon="-3.48013">
        <ele>157</ele>
        <time>2025-02-26T12:30:03Z</time>
      </trkpt>
      <trkpt lat="48.0604" lon="-3.48014">
        <ele>157</ele>
        <time>2025-02-26T12:30:04Z</time>
      </trkpt>
      <trkpt lat="48.06039" lon="-3.48016">
        <ele>157</ele>
        <time>2025-02-26T12:30:05Z</time>
      </trkpt>
      <trkpt lat="48.06039" lon="-3.48017">
        <ele>157</ele>
        <time>2025-02-26T12:30:06Z</time>
      </trkpt>
      <trkpt lat="48.06038" lon="-3.48018">
        <ele>157</ele>
        <time>2025-02-26T12:30:07Z</time>
      </trkpt>
      <trkpt lat="48.06038" lon="-3.4802">
        <ele>157</ele>
        <time>2025-02-26T12:30:08Z</time>
      </trkpt>
      <trkpt lat="48.06037" lon="-3.48022">
        <ele>157</ele>
        <time>2025-02-26T12:30:09Z</time>
      </trkpt>
      <trkpt lat="48.06037" lon="-3.48023">
        <ele>157</ele>
        <time>2025-02-26T12:30:10Z</time>
      </trkpt>
      <trkpt lat="48.06037" lon="-3.48025">
        <ele>157</ele>
        <time>2025-02-26T12:30:11Z</time>
      </trkpt>
      <trkpt lat="48.06036" lon="-3.48026">
        <ele>157</ele>
        <time>2025-02-26T12:30:12Z</time>
      </trkpt>
      <trkpt lat="48.06035" lon="-3.48027">
        <ele>157</ele>
        <time>2025-02-26T12:30:13Z</time>
      </trkpt>
      <trkpt lat="48.06034" lon="-3.48028">
        <ele>157</ele>
        <time>2025-02-26T12:30:14Z</time>
      </trkpt>
      <trkpt lat="48.06034" lon="-3.4803">
        <ele>157</ele>
        <time>2025-02-26T12:30:15Z</time>
      </trkpt>
      <trkpt lat="48.06033" lon="-3.48032">
        <ele>157</ele>
        <time>2025-02-26T12:30:16Z</time>
      </trkpt>
      <trkpt lat="48.06033" lon="-3.48034">
        <ele>157</ele>
        <time>2025-02-26T12:30:17Z</time>
      </trkpt>
      <trkpt lat="48.06032" lon="-3.48035">
        <ele>157</ele>
        <time>2025-02-26T12:30:18Z</time>
      </trkpt>
      <trkpt lat="48.06031" lon="-3.48037">
        <ele>157</ele>
        <time>2025-02-26T12:30:19Z</time>
      </trkpt>
      <trkpt lat="48.06031" lon="-3.48039">
        <ele>157</ele>
        <time>2025-02-26T12:30:20Z</time>
      </trkpt>
      <trkpt lat="48.0603" lon="-3.4804">
        <ele>157</ele>
        <time>2025-02-26T12:30:21Z</time>
      </trkpt>
      <trkpt lat="48.06029" lon="-3.48042">
        <ele>157</ele>
        <time>2025-02-26T12:30:22Z</time>
      </trkpt>
      <trkpt lat="48.06029" lon="-3.48043">
        <ele>157</ele>
        <time>2025-02-26T12:30:23Z</time>
      </trkpt>
      <trkpt lat="48.06028" lon="-3.48045">
        <ele>157</ele>
        <time>2025-02-26T12:30:24Z</time>
      </trkpt>
      <trkpt lat="48.06027" lon="-3.48046">
        <ele>157</ele>
        <time>2025-02-26T12:30:25Z</time>
      </trkpt>
      <trkpt lat="48.06027" lon="-3.48048">
        <ele>157.1</ele>
        <time>2025-02-26T12:30:26Z</time>
      </trkpt>
      <trkpt lat="48.06026" lon="-3.48049">
        <ele>157.1</ele>
        <time>2025-02-26T12:30:27Z</time>
      </trkpt>
      <trkpt lat="48.06025" lon="-3.48051">
        <ele>157.2</ele>
        <time>2025-02-26T12:30:28Z</time>
      </trkpt>
      <trkpt lat="48.06025" lon="-3.48053">
        <ele>157.2</ele>
        <time>2025-02-26T12:30:29Z</time>
      </trkpt>
      <trkpt lat="48.06024" lon="-3.48055">
        <ele>157.3</ele>
        <time>2025-02-26T12:30:30Z</time>
      </trkpt>
      <trkpt lat="48.06024" lon="-3.48057">
        <ele>157.3</ele>
        <time>2025-02-26T12:30:31Z</time>
      </trkpt>
      <trkpt lat="48.06023" lon="-3.48058">
        <ele>157.4</ele>
        <time>2025-02-26T12:30:32Z</time>
      </trkpt>
      <trkpt lat="48.06022" lon="-3.4806">
        <ele>157.4</ele>
        <time>2025-02-26T12:30:33Z</time>
      </trkpt>
      <trkpt lat="48.06022" lon="-3.48061">
        <ele>157.5</ele>
        <time>2025-02-26T12:30:34Z</time>
      </trkpt>
      <trkpt lat="48.06021" lon="-3.48063">
        <ele>157.5</ele>
        <time>2025-02-26T12:30:35Z</time>
      </trkpt>
      <trkpt lat="48.0602" lon="-3.48065">
        <ele>157.5</ele>
        <time>2025-02-26T12:30:36Z</time>
      </trkpt>
      <trkpt lat="48.0602" lon="-3.48066">
        <ele>157.6</ele>
        <time>2025-02-26T12:30:37Z</time>
      </trkpt>
      <trkpt lat="48.06019" lon="-3.48067">
        <ele>157.6</ele>
        <time>2025-02-26T12:30:38Z</time>
      </trkpt>
      <trkpt lat="48.06019" lon="-3.48068">
        <ele>157.7</ele>
        <time>2025-02-26T12:30:39Z</time>
      </trkpt>
      <trkpt lat="48.06018" lon="-3.4807">
        <ele>157.7</ele>
        <time>2025-02-26T12:30:40Z</time>
      </trkpt>
      <trkpt lat="48.06018" lon="-3.48072">
        <ele>157.7</ele>
        <time>2025-02-26T12:30:41Z</time>
      </trkpt>
      <trkpt lat="48.06017" lon="-3.48073">
        <ele>157.8</ele>
        <time>2025-02-26T12:30:42Z</time>
      </trkpt>
      <trkpt lat="48.06017" lon="-3.48074">
        <ele>157.8</ele>
        <time>2025-02-26T12:30:43Z</time>
      </trkpt>
      <trkpt lat="48.06016" lon="-3.48076">
        <ele>157.9</ele>
        <time>2025-02-26T12:30:44Z</time>
      </trkpt>
      <trkpt lat="48.06015" lon="-3.48077">
        <ele>157.9</ele>
        <time>2025-02-26T12:30:45Z</time>
      </trkpt>
      <trkpt lat="48.06015" lon="-3.48078">
        <ele>158</ele>
        <time>2025-02-26T12:30:46Z</time>
      </trkpt>
      <trkpt lat="48.06014" lon="-3.4808">
        <ele>158</ele>
        <time>2025-02-26T12:30:47Z</time>
      </trkpt>
      <trkpt lat="48.06013" lon="-3.48082">
        <ele>158</ele>
        <time>2025-02-26T12:30:48Z</time>
      </trkpt>
      <trkpt lat="48.06012" lon="-3.48083">
        <ele>158.1</ele>
        <time>2025-02-26T12:30:49Z</time>
      </trkpt>
      <trkpt lat="48.06012" lon="-3.48085">
        <ele>158.2</ele>
        <time>2025-02-26T12:30:50Z</time>
      </trkpt>
      <trkpt lat="48.06011" lon="-3.48087">
        <ele>158.2</ele>
        <time>2025-02-26T12:30:51Z</time>
      </trkpt>
      <trkpt lat="48.0601" lon="-3.48088">
        <ele>158.3</ele>
        <time>2025-02-26T12:30:52Z</time>
      </trkpt>
      <trkpt lat="48.0601" lon="-3.4809">
        <ele>158.3</ele>
        <time>2025-02-26T12:30:53Z</time>
      </trkpt>
      <trkpt lat="48.06009" lon="-3.48091">
        <ele>158.3</ele>
        <time>2025-02-26T12:30:54Z</time>
      </trkpt>
      <trkpt lat="48.06008" lon="-3.48093">
        <ele>158.4</ele>
        <time>2025-02-26T12:30:55Z</time>
      </trkpt>
      <trkpt lat="48.06007" lon="-3.48094">
        <ele>158.5</ele>
        <time>2025-02-26T12:30:56Z</time>
      </trkpt>
      <trkpt lat="48.06007" lon="-3.48095">
        <ele>158.5</ele>
        <time>2025-02-26T12:30:57Z</time>
      </trkpt>
      <trkpt lat="48.06006" lon="-3.48097">
        <ele>158.6</ele>
        <time>2025-02-26T12:30:58Z</time>
      </trkpt>
      <trkpt lat="48.06006" lon="-3.48098">
        <ele>158.6</ele>
        <time>2025-02-26T12:30:59Z</time>
      </trkpt>
      <trkpt lat="48.06005" lon="-3.481">
        <ele>158.6</ele>
        <time>2025-02-26T12:31:00Z</time>
      </trkpt>
      <trkpt lat="48.06004" lon="-3.48102">
        <ele>158.7</ele>
        <time>2025-02-26T12:31:01Z</time>
      </trkpt>
      <trkpt lat="48.06004" lon="-3.48103">
        <ele>158.7</ele>
        <time>2025-02-26T12:31:02Z</time>
      </trkpt>
      <trkpt lat="48.06003" lon="-3.48105">
        <ele>158.8</ele>
        <time>2025-02-26T12:31:03Z</time>
      </trkpt>
      <trkpt lat="48.06003" lon="-3.48107">
        <ele>158.8</ele>
        <time>2025-02-26T12:31:04Z</time>
      </trkpt>
      <trkpt lat="48.06003" lon="-3.48109">
        <ele>158.8</ele>
        <time>2025-02-26T12:31:05Z</time>
      </trkpt>
      <trkpt lat="48.06003" lon="-3.4811">
        <ele>158.8</ele>
        <time>2025-02-26T12:31:06Z</time>
      </trkpt>
      <trkpt lat="48.06002" lon="-3.48112">
        <ele>158.8</ele>
        <time>2025-02-26T12:31:07Z</time>
      </trkpt>
      <trkpt lat="48.06002" lon="-3.48113">
        <ele>158.9</ele>
        <time>2025-02-26T12:31:08Z</time>
      </trkpt>
      <trkpt lat="48.06002" lon="-3.48115">
        <ele>158.9</ele>
        <time>2025-02-26T12:31:09Z</time>
      </trkpt>
      <trkpt lat="48.06001" lon="-3.48117">
        <ele>158.9</ele>
        <time>2025-02-26T12:31:10Z</time>
      </trkpt>
      <trkpt lat="48.06001" lon="-3.48118">
        <ele>158.9</ele>
        <time>2025-02-26T12:31:11Z</time>
      </trkpt>
      <trkpt lat="48.06001" lon="-3.4812">
        <ele>159</ele>
        <time>2025-02-26T12:31:12Z</time>
      </trkpt>
      <trkpt lat="48.05999" lon="-3.48121">
        <ele>159</ele>
        <time>2025-02-26T12:31:13Z</time>
      </trkpt>
      <trkpt lat="48.05999" lon="-3.48123">
        <ele>159.1</ele>
        <time>2025-02-26T12:31:14Z</time>
      </trkpt>
      <trkpt lat="48.05998" lon="-3.48124">
        <ele>159.1</ele>
        <time>2025-02-26T12:31:15Z</time>
      </trkpt>
      <trkpt lat="48.05997" lon="-3.48125">
        <ele>159.2</ele>
        <time>2025-02-26T12:31:16Z</time>
      </trkpt>
      <trkpt lat="48.05996" lon="-3.48126">
        <ele>159.3</ele>
        <time>2025-02-26T12:31:17Z</time>
      </trkpt>
      <trkpt lat="48.05994" lon="-3.48126">
        <ele>159.4</ele>
        <time>2025-02-26T12:31:18Z</time>
      </trkpt>
      <trkpt lat="48.05993" lon="-3.48126">
        <ele>159.5</ele>
        <time>2025-02-26T12:31:19Z</time>
      </trkpt>
      <trkpt lat="48.05992" lon="-3.48126">
        <ele>159.6</ele>
        <time>2025-02-26T12:31:20Z</time>
      </trkpt>
      <trkpt lat="48.05991" lon="-3.48125">
        <ele>159.6</ele>
        <time>2025-02-26T12:31:21Z</time>
      </trkpt>
      <trkpt lat="48.05991" lon="-3.48124">
        <ele>159.7</ele>
        <time>2025-02-26T12:31:22Z</time>
      </trkpt>
      <trkpt lat="48.05991" lon="-3.48123">
        <ele>159.7</ele>
        <time>2025-02-26T12:31:23Z</time>
      </trkpt>
      <trkpt lat="48.0599" lon="-3.48121">
        <ele>159.7</ele>
        <time>2025-02-26T12:31:24Z</time>
      </trkpt>
      <trkpt lat="48.0599" lon="-3.48119">
        <ele>159.7</ele>
        <time>2025-02-26T12:31:25Z</time>
      </trkpt>
      <trkpt lat="48.0599" lon="-3.48118">
        <ele>159.7</ele>
        <time>2025-02-26T12:31:26Z</time>
      </trkpt>
      <trkpt lat="48.0599" lon="-3.48115">
        <ele>159.7</ele>
        <time>2025-02-26T12:31:27Z</time>
      </trkpt>
      <trkpt lat="48.0599" lon="-3.48113">
        <ele>159.7</ele>
        <time>2025-02-26T12:31:28Z</time>
      </trkpt>
      <trkpt lat="48.0599" lon="-3.48111">
        <ele>159.7</ele>
        <time>2025-02-26T12:31:29Z</time>
      </trkpt>
      <trkpt lat="48.05989" lon="-3.48109">
        <ele>159.8</ele>
        <time>2025-02-26T12:31:30Z</time>
      </trkpt>
      <trkpt lat="48.05989" lon="-3.48108">
        <ele>159.8</ele>
        <time>2025-02-26T12:31:31Z</time>
      </trkpt>
      <trkpt lat="48.05989" lon="-3.48106">
        <ele>159.8</ele>
        <time>2025-02-26T12:31:32Z</time>
      </trkpt>
      <trkpt lat="48.05989" lon="-3.48104">
        <ele>159.8</ele>
        <time>2025-02-26T12:31:33Z</time>
      </trkpt>
      <trkpt lat="48.05989" lon="-3.48102">
        <ele>159.8</ele>
        <time>2025-02-26T12:31:34Z</time>
      </trkpt>
      <trkpt lat="48.05989" lon="-3.481">
        <ele>159.8</ele>
        <time>2025-02-26T12:31:35Z</time>
      </trkpt>
      <trkpt lat="48.05989" lon="-3.48098">
        <ele>159.8</ele>
        <time>2025-02-26T12:31:36Z</time>
      </trkpt>
      <trkpt lat="48.05989" lon="-3.48097">
        <ele>159.8</ele>
        <time>2025-02-26T12:31:37Z</time>
      </trkpt>
      <trkpt lat="48.05989" lon="-3.48095">
        <ele>159.8</ele>
        <time>2025-02-26T12:31:38Z</time>
      </trkpt>
      <trkpt lat="48.05989" lon="-3.48093">
        <ele>159.8</ele>
        <time>2025-02-26T12:31:39Z</time>
      </trkpt>
      <trkpt lat="48.0599" lon="-3.48092">
        <ele>159.8</ele>
        <time>2025-02-26T12:31:40Z</time>
      </trkpt>
      <trkpt lat="48.0599" lon="-3.4809">
        <ele>159.8</ele>
        <time>2025-02-26T12:31:41Z</time>
      </trkpt>
      <trkpt lat="48.05989" lon="-3.48088">
        <ele>159.8</ele>
        <time>2025-02-26T12:31:42Z</time>
      </trkpt>
      <trkpt lat="48.05989" lon="-3.48087">
        <ele>159.8</ele>
        <time>2025-02-26T12:31:43Z</time>
      </trkpt>
      <trkpt lat="48.05989" lon="-3.48086">
        <ele>159.8</ele>
        <time>2025-02-26T12:31:44Z</time>
      </trkpt>
      <trkpt lat="48.05989" lon="-3.48084">
        <ele>159.8</ele>
        <time>2025-02-26T12:31:45Z</time>
      </trkpt>
      <trkpt lat="48.05988" lon="-3.48083">
        <ele>159.8</ele>
        <time>2025-02-26T12:31:46Z</time>
      </trkpt>
      <trkpt lat="48.05988" lon="-3.48082">
        <ele>159.9</ele>
        <time>2025-02-26T12:31:47Z</time>
      </trkpt>
      <trkpt lat="48.05987" lon="-3.4808">
        <ele>159.9</ele>
        <time>2025-02-26T12:31:48Z</time>
      </trkpt>
      <trkpt lat="48.05987" lon="-3.48079">
        <ele>159.9</ele>
        <time>2025-02-26T12:31:49Z</time>
      </trkpt>
      <trkpt lat="48.05986" lon="-3.48078">
        <ele>159.9</ele>
        <time>2025-02-26T12:31:50Z</time>
      </trkpt>
      <trkpt lat="48.05985" lon="-3.48077">
        <ele>159.9</ele>
        <time>2025-02-26T12:31:51Z</time>
      </trkpt>
      <trkpt lat="48.05985" lon="-3.48076">
        <ele>159.9</ele>
        <time>2025-02-26T12:31:52Z</time>
      </trkpt>
      <trkpt lat="48.05984" lon="-3.48075">
        <ele>160</ele>
        <time>2025-02-26T12:31:53Z</time>
      </trkpt>
      <trkpt lat="48.05983" lon="-3.48074">
        <ele>160</ele>
        <time>2025-02-26T12:31:54Z</time>
      </trkpt>
      <trkpt lat="48.05983" lon="-3.48072">
        <ele>160</ele>
        <time>2025-02-26T12:31:55Z</time>
      </trkpt>
      <trkpt lat="48.05982" lon="-3.48071">
        <ele>160</ele>
        <time>2025-02-26T12:31:56Z</time>
      </trkpt>
      <trkpt lat="48.05982" lon="-3.48069">
        <ele>160</ele>
        <time>2025-02-26T12:31:57Z</time>
      </trkpt>
      <trkpt lat="48.05982" lon="-3.48068">
        <ele>160</ele>
        <time>2025-02-26T12:31:58Z</time>
      </trkpt>
      <trkpt lat="48.05981" lon="-3.48067">
        <ele>160</ele>
        <time>2025-02-26T12:31:59Z</time>
      </trkpt>
      <trkpt lat="48.0598" lon="-3.48066">
        <ele>160</ele>
        <time>2025-02-26T12:32:00Z</time>
      </trkpt>
      <trkpt lat="48.05979" lon="-3.48066">
        <ele>160</ele>
        <time>2025-02-26T12:32:01Z</time>
      </trkpt>
      <trkpt lat="48.05978" lon="-3.48064">
        <ele>160</ele>
        <time>2025-02-26T12:32:02Z</time>
      </trkpt>
      <trkpt lat="48.05977" lon="-3.48063">
        <ele>160</ele>
        <time>2025-02-26T12:32:03Z</time>
      </trkpt>
      <trkpt lat="48.05977" lon="-3.48062">
        <ele>160</ele>
        <time>2025-02-26T12:32:04Z</time>
      </trkpt>
      <trkpt lat="48.05977" lon="-3.4806">
        <ele>160</ele>
        <time>2025-02-26T12:32:05Z</time>
      </trkpt>
      <trkpt lat="48.05976" lon="-3.48059">
        <ele>160</ele>
        <time>2025-02-26T12:32:06Z</time>
      </trkpt>
      <trkpt lat="48.05976" lon="-3.48058">
        <ele>159.9</ele>
        <time>2025-02-26T12:32:07Z</time>
      </trkpt>
      <trkpt lat="48.05975" lon="-3.48057">
        <ele>159.9</ele>
        <time>2025-02-26T12:32:08Z</time>
      </trkpt>
      <trkpt lat="48.05974" lon="-3.48055">
        <ele>159.9</ele>
        <time>2025-02-26T12:32:09Z</time>
      </trkpt>
      <trkpt lat="48.05974" lon="-3.48054">
        <ele>159.9</ele>
        <time>2025-02-26T12:32:10Z</time>
      </trkpt>
      <trkpt lat="48.05973" lon="-3.48053">
        <ele>160</ele>
        <time>2025-02-26T12:32:11Z</time>
      </trkpt>
      <trkpt lat="48.05973" lon="-3.48051">
        <ele>160</ele>
        <time>2025-02-26T12:32:12Z</time>
      </trkpt>
      <trkpt lat="48.05972" lon="-3.4805">
        <ele>160</ele>
        <time>2025-02-26T12:32:13Z</time>
      </trkpt>
      <trkpt lat="48.05972" lon="-3.48048">
        <ele>160</ele>
        <time>2025-02-26T12:32:14Z</time>
      </trkpt>
      <trkpt lat="48.05971" lon="-3.48047">
        <ele>160.1</ele>
        <time>2025-02-26T12:32:15Z</time>
      </trkpt>
      <trkpt lat="48.0597" lon="-3.48046">
        <ele>160.1</ele>
        <time>2025-02-26T12:32:16Z</time>
      </trkpt>
      <trkpt lat="48.0597" lon="-3.48044">
        <ele>160.2</ele>
        <time>2025-02-26T12:32:17Z</time>
      </trkpt>
      <trkpt lat="48.05969" lon="-3.48043">
        <ele>160.2</ele>
        <time>2025-02-26T12:32:18Z</time>
      </trkpt>
      <trkpt lat="48.05969" lon="-3.48041">
        <ele>160.2</ele>
        <time>2025-02-26T12:32:19Z</time>
      </trkpt>
      <trkpt lat="48.05969" lon="-3.4804">
        <ele>160.3</ele>
        <time>2025-02-26T12:32:20Z</time>
      </trkpt>
      <trkpt lat="48.05968" lon="-3.48038">
        <ele>160.3</ele>
        <time>2025-02-26T12:32:21Z</time>
      </trkpt>
      <trkpt lat="48.05968" lon="-3.48037">
        <ele>160.3</ele>
        <time>2025-02-26T12:32:22Z</time>
      </trkpt>
      <trkpt lat="48.05967" lon="-3.48035">
        <ele>160.4</ele>
        <time>2025-02-26T12:32:23Z</time>
      </trkpt>
      <trkpt lat="48.05967" lon="-3.48033">
        <ele>160.4</ele>
        <time>2025-02-26T12:32:24Z</time>
      </trkpt>
      <trkpt lat="48.05966" lon="-3.48032">
        <ele>160.4</ele>
        <time>2025-02-26T12:32:25Z</time>
      </trkpt>
      <trkpt lat="48.05966" lon="-3.48031">
        <ele>160.5</ele>
        <time>2025-02-26T12:32:26Z</time>
      </trkpt>
      <trkpt lat="48.05965" lon="-3.48029">
        <ele>160.5</ele>
        <time>2025-02-26T12:32:27Z</time>
      </trkpt>
      <trkpt lat="48.05964" lon="-3.48027">
        <ele>160.6</ele>
        <time>2025-02-26T12:32:28Z</time>
      </trkpt>
      <trkpt lat="48.05963" lon="-3.48024">
        <ele>160.6</ele>
        <time>2025-02-26T12:32:29Z</time>
      </trkpt>
      <trkpt lat="48.05962" lon="-3.48022">
        <ele>160.7</ele>
        <time>2025-02-26T12:32:30Z</time>
      </trkpt>
      <trkpt lat="48.05961" lon="-3.4802">
        <ele>160.7</ele>
        <time>2025-02-26T12:32:31Z</time>
      </trkpt>
      <trkpt lat="48.0596" lon="-3.48018">
        <ele>160.7</ele>
        <time>2025-02-26T12:32:32Z</time>
      </trkpt>
      <trkpt lat="48.05959" lon="-3.48016">
        <ele>160.7</ele>
        <time>2025-02-26T12:32:33Z</time>
      </trkpt>
      <trkpt lat="48.05959" lon="-3.48015">
        <ele>160.8</ele>
        <time>2025-02-26T12:32:34Z</time>
      </trkpt>
      <trkpt lat="48.05958" lon="-3.48014">
        <ele>160.8</ele>
        <time>2025-02-26T12:32:35Z</time>
      </trkpt>
      <trkpt lat="48.05958" lon="-3.48013">
        <ele>160.8</ele>
        <time>2025-02-26T12:32:36Z</time>
      </trkpt>
      <trkpt lat="48.05957" lon="-3.48011">
        <ele>160.8</ele>
        <time>2025-02-26T12:32:37Z</time>
      </trkpt>
      <trkpt lat="48.05956" lon="-3.4801">
        <ele>160.8</ele>
        <time>2025-02-26T12:32:38Z</time>
      </trkpt>
      <trkpt lat="48.05955" lon="-3.48009">
        <ele>160.8</ele>
        <time>2025-02-26T12:32:39Z</time>
      </trkpt>
      <trkpt lat="48.05955" lon="-3.48007">
        <ele>160.8</ele>
        <time>2025-02-26T12:32:40Z</time>
      </trkpt>
      <trkpt lat="48.05954" lon="-3.48006">
        <ele>160.8</ele>
        <time>2025-02-26T12:32:41Z</time>
      </trkpt>
      <trkpt lat="48.05953" lon="-3.48004">
        <ele>160.8</ele>
        <time>2025-02-26T12:32:42Z</time>
      </trkpt>
      <trkpt lat="48.05953" lon="-3.48003">
        <ele>160.8</ele>
        <time>2025-02-26T12:32:43Z</time>
      </trkpt>
      <trkpt lat="48.05952" lon="-3.48001">
        <ele>160.8</ele>
        <time>2025-02-26T12:32:44Z</time>
      </trkpt>
      <trkpt lat="48.05951" lon="-3.48">
        <ele>160.7</ele>
        <time>2025-02-26T12:32:45Z</time>
      </trkpt>
      <trkpt lat="48.05951" lon="-3.47999">
        <ele>160.7</ele>
        <time>2025-02-26T12:32:46Z</time>
      </trkpt>
      <trkpt lat="48.0595" lon="-3.47997">
        <ele>160.7</ele>
        <time>2025-02-26T12:32:47Z</time>
      </trkpt>
      <trkpt lat="48.05949" lon="-3.47996">
        <ele>160.7</ele>
        <time>2025-02-26T12:32:48Z</time>
      </trkpt>
      <trkpt lat="48.05949" lon="-3.47995">
        <ele>160.6</ele>
        <time>2025-02-26T12:32:49Z</time>
      </trkpt>
      <trkpt lat="48.05949" lon="-3.47995">
        <ele>160.6</ele>
        <time>2025-02-26T12:32:50Z</time>
      </trkpt>
      <trkpt lat="48.05949" lon="-3.47995">
        <ele>160.6</ele>
        <time>2025-02-26T12:32:51Z</time>
      </trkpt>
      <trkpt lat="48.05949" lon="-3.47995">
        <ele>160.6</ele>
        <time>2025-02-26T12:32:52Z</time>
      </trkpt>
      <trkpt lat="48.05949" lon="-3.47995">
        <ele>160.6</ele>
        <time>2025-02-26T12:32:53Z</time>
      </trkpt>
      <trkpt lat="48.05949" lon="-3.47995">
        <ele>160.6</ele>
        <time>2025-02-26T12:32:54Z</time>
      </trkpt>
      <trkpt lat="48.05949" lon="-3.47996">
        <ele>160.7</ele>
        <time>2025-02-26T12:32:55Z</time>
      </trkpt>
      <trkpt lat="48.05949" lon="-3.47996">
        <ele>160.7</ele>
        <time>2025-02-26T12:32:56Z</time>
      </trkpt>
      <trkpt lat="48.05949" lon="-3.47996">
        <ele>160.7</ele>
        <time>2025-02-26T12:32:57Z</time>
      </trkpt>
      <trkpt lat="48.05949" lon="-3.47996">
        <ele>160.7</ele>
        <time>2025-02-26T12:32:58Z</time>
      </trkpt>
      <trkpt lat="48.05949" lon="-3.47996">
        <ele>160.7</ele>
        <time>2025-02-26T12:32:59Z</time>
      </trkpt>
      <trkpt lat="48.05948" lon="-3.47996">
        <ele>160.7</ele>
        <time>2025-02-26T12:33:00Z</time>
      </trkpt>
      <trkpt lat="48.05948" lon="-3.47996">
        <ele>160.7</ele>
        <time>2025-02-26T12:33:01Z</time>
      </trkpt>
      <trkpt lat="48.05948" lon="-3.47996">
        <ele>160.7</ele>
        <time>2025-02-26T12:33:02Z</time>
      </trkpt>
      <trkpt lat="48.05948" lon="-3.47996">
        <ele>160.7</ele>
        <time>2025-02-26T12:33:03Z</time>
      </trkpt>
      <trkpt lat="48.05948" lon="-3.47996">
        <ele>160.7</ele>
        <time>2025-02-26T12:33:04Z</time>
      </trkpt>
      <trkpt lat="48.05948" lon="-3.47996">
        <ele>160.7</ele>
        <time>2025-02-26T12:33:05Z</time>
      </trkpt>
      <trkpt lat="48.05948" lon="-3.47996">
        <ele>160.7</ele>
        <time>2025-02-26T12:33:06Z</time>
      </trkpt>
      <trkpt lat="48.05948" lon="-3.47996">
        <ele>160.7</ele>
        <time>2025-02-26T12:33:07Z</time>
      </trkpt>
      <trkpt lat="48.05948" lon="-3.47996">
        <ele>160.7</ele>
        <time>2025-02-26T12:33:08Z</time>
      </trkpt>
      <trkpt lat="48.05948" lon="-3.47996">
        <ele>160.7</ele>
        <time>2025-02-26T12:33:09Z</time>
      </trkpt>
      <trkpt lat="48.05948" lon="-3.47996">
        <ele>160.7</ele>
        <time>2025-02-26T12:33:10Z</time>
      </trkpt>
      <trkpt lat="48.05948" lon="-3.47996">
        <ele>160.7</ele>
        <time>2025-02-26T12:33:11Z</time>
      </trkpt>
      <trkpt lat="48.05948" lon="-3.47995">
        <ele>160.7</ele>
        <time>2025-02-26T12:33:12Z</time>
      </trkpt>
      <trkpt lat="48.05948" lon="-3.47994">
        <ele>160.6</ele>
        <time>2025-02-26T12:33:13Z</time>
      </trkpt>
      <trkpt lat="48.05948" lon="-3.47994">
        <ele>160.6</ele>
        <time>2025-02-26T12:33:14Z</time>
      </trkpt>
      <trkpt lat="48.05948" lon="-3.47993">
        <ele>160.6</ele>
        <time>2025-02-26T12:33:15Z</time>
      </trkpt>
      <trkpt lat="48.05947" lon="-3.47991">
        <ele>160.5</ele>
        <time>2025-02-26T12:33:16Z</time>
      </trkpt>
      <trkpt lat="48.05947" lon="-3.47991">
        <ele>160.5</ele>
        <time>2025-02-26T12:33:17Z</time>
      </trkpt>
      <trkpt lat="48.05947" lon="-3.47991">
        <ele>160.5</ele>
        <time>2025-02-26T12:33:18Z</time>
      </trkpt>
      <trkpt lat="48.05947" lon="-3.47991">
        <ele>160.5</ele>
        <time>2025-02-26T12:33:19Z</time>
      </trkpt>
      <trkpt lat="48.05947" lon="-3.47991">
        <ele>160.5</ele>
        <time>2025-02-26T12:33:20Z</time>
      </trkpt>
      <trkpt lat="48.05947" lon="-3.47991">
        <ele>160.5</ele>
        <time>2025-02-26T12:33:21Z</time>
      </trkpt>
      <trkpt lat="48.05947" lon="-3.47991">
        <ele>160.5</ele>
        <time>2025-02-26T12:33:22Z</time>
      </trkpt>
      <trkpt lat="48.05947" lon="-3.47991">
        <ele>160.5</ele>
        <time>2025-02-26T12:33:23Z</time>
      </trkpt>
      <trkpt lat="48.05947" lon="-3.47991">
        <ele>160.5</ele>
        <time>2025-02-26T12:33:24Z</time>
      </trkpt>
      <trkpt lat="48.05947" lon="-3.47991">
        <ele>160.5</ele>
        <time>2025-02-26T12:33:25Z</time>
      </trkpt>
      <trkpt lat="48.05947" lon="-3.47991">
        <ele>160.5</ele>
        <time>2025-02-26T12:33:26Z</time>
      </trkpt>
      <trkpt lat="48.05947" lon="-3.47991">
        <ele>160.5</ele>
        <time>2025-02-26T12:33:27Z</time>
      </trkpt>
      <trkpt lat="48.05947" lon="-3.47991">
        <ele>160.5</ele>
        <time>2025-02-26T12:33:28Z</time>
      </trkpt>
      <trkpt lat="48.05947" lon="-3.47991">
        <ele>160.5</ele>
        <time>2025-02-26T12:33:29Z</time>
      </trkpt>
      <trkpt lat="48.05947" lon="-3.47991">
        <ele>160.5</ele>
        <time>2025-02-26T12:33:30Z</time>
      </trkpt>
      <trkpt lat="48.05947" lon="-3.47991">
        <ele>160.5</ele>
        <time>2025-02-26T12:33:31Z</time>
      </trkpt>
      <trkpt lat="48.05947" lon="-3.4799">
        <ele>160.5</ele>
        <time>2025-02-26T12:33:32Z</time>
      </trkpt>
      <trkpt lat="48.05947" lon="-3.4799">
        <ele>160.5</ele>
        <time>2025-02-26T12:33:33Z</time>
      </trkpt>
      <trkpt lat="48.05947" lon="-3.4799">
        <ele>160.5</ele>
        <time>2025-02-26T12:33:34Z</time>
      </trkpt>
      <trkpt lat="48.05947" lon="-3.4799">
        <ele>160.5</ele>
        <time>2025-02-26T12:33:35Z</time>
      </trkpt>
      <trkpt lat="48.05947" lon="-3.4799">
        <ele>160.5</ele>
        <time>2025-02-26T12:33:36Z</time>
      </trkpt>
      <trkpt lat="48.05947" lon="-3.4799">
        <ele>160.5</ele>
        <time>2025-02-26T12:33:37Z</time>
      </trkpt>
      <trkpt lat="48.05947" lon="-3.4799">
        <ele>160.5</ele>
        <time>2025-02-26T12:33:38Z</time>
      </trkpt>
      <trkpt lat="48.05947" lon="-3.4799">
        <ele>160.5</ele>
        <time>2025-02-26T12:33:39Z</time>
      </trkpt>
      <trkpt lat="48.05947" lon="-3.4799">
        <ele>160.5</ele>
        <time>2025-02-26T12:33:40Z</time>
      </trkpt>
      <trkpt lat="48.05947" lon="-3.4799">
        <ele>160.5</ele>
        <time>2025-02-26T12:33:41Z</time>
      </trkpt>
      <trkpt lat="48.05947" lon="-3.4799">
        <ele>160.5</ele>
        <time>2025-02-26T12:33:42Z</time>
      </trkpt>
      <trkpt lat="48.05947" lon="-3.4799">
        <ele>160.5</ele>
        <time>2025-02-26T12:33:43Z</time>
      </trkpt>
      <trkpt lat="48.05947" lon="-3.4799">
        <ele>160.5</ele>
        <time>2025-02-26T12:33:44Z</time>
      </trkpt>
      <trkpt lat="48.05947" lon="-3.4799">
        <ele>160.5</ele>
        <time>2025-02-26T12:33:45Z</time>
      </trkpt>
      <trkpt lat="48.05947" lon="-3.4799">
        <ele>160.5</ele>
        <time>2025-02-26T12:33:46Z</time>
      </trkpt>
      <trkpt lat="48.05947" lon="-3.4799">
        <ele>160.5</ele>
        <time>2025-02-26T12:33:47Z</time>
      </trkpt>
      <trkpt lat="48.05947" lon="-3.4799">
        <ele>160.5</ele>
        <time>2025-02-26T12:33:48Z</time>
      </trkpt>
      <trkpt lat="48.05947" lon="-3.4799">
        <ele>160.5</ele>
        <time>2025-02-26T12:33:49Z</time>
      </trkpt>
      <trkpt lat="48.05947" lon="-3.4799">
        <ele>160.5</ele>
        <time>2025-02-26T12:33:50Z</time>
      </trkpt>
      <trkpt lat="48.05947" lon="-3.4799">
        <ele>160.5</ele>
        <time>2025-02-26T12:33:51Z</time>
      </trkpt>
      <trkpt lat="48.05947" lon="-3.4799">
        <ele>160.5</ele>
        <time>2025-02-26T12:33:52Z</time>
      </trkpt>
      <trkpt lat="48.05947" lon="-3.4799">
        <ele>160.5</ele>
        <time>2025-02-26T12:33:53Z</time>
      </trkpt>
      <trkpt lat="48.05947" lon="-3.4799">
        <ele>160.5</ele>
        <time>2025-02-26T12:33:54Z</time>
      </trkpt>
      <trkpt lat="48.05947" lon="-3.4799">
        <ele>160.5</ele>
        <time>2025-02-26T12:33:55Z</time>
      </trkpt>
      <trkpt lat="48.05947" lon="-3.4799">
        <ele>160.5</ele>
        <time>2025-02-26T12:33:56Z</time>
      </trkpt>
      <trkpt lat="48.05947" lon="-3.4799">
        <ele>160.5</ele>
        <time>2025-02-26T12:33:57Z</time>
      </trkpt>
      <trkpt lat="48.05947" lon="-3.4799">
        <ele>160.5</ele>
        <time>2025-02-26T12:33:58Z</time>
      </trkpt>
      <trkpt lat="48.05947" lon="-3.4799">
        <ele>160.5</ele>
        <time>2025-02-26T12:33:59Z</time>
      </trkpt>
      <trkpt lat="48.05947" lon="-3.4799">
        <ele>160.5</ele>
        <time>2025-02-26T12:34:00Z</time>
      </trkpt>
      <trkpt lat="48.05947" lon="-3.4799">
        <ele>160.5</ele>
        <time>2025-02-26T12:34:01Z</time>
      </trkpt>
      <trkpt lat="48.05947" lon="-3.4799">
        <ele>160.5</ele>
        <time>2025-02-26T12:34:02Z</time>
      </trkpt>
      <trkpt lat="48.05947" lon="-3.4799">
        <ele>160.5</ele>
        <time>2025-02-26T12:34:03Z</time>
      </trkpt>
      <trkpt lat="48.05947" lon="-3.4799">
        <ele>160.5</ele>
        <time>2025-02-26T12:34:04Z</time>
      </trkpt>
      <trkpt lat="48.05947" lon="-3.4799">
        <ele>160.5</ele>
        <time>2025-02-26T12:34:05Z</time>
      </trkpt>
      <trkpt lat="48.05947" lon="-3.4799">
        <ele>160.5</ele>
        <time>2025-02-26T12:34:06Z</time>
      </trkpt>
      <trkpt lat="48.05948" lon="-3.4799">
        <ele>160.5</ele>
        <time>2025-02-26T12:34:07Z</time>
      </trkpt>
      <trkpt lat="48.05948" lon="-3.4799">
        <ele>160.5</ele>
        <time>2025-02-26T12:34:08Z</time>
      </trkpt>
      <trkpt lat="48.05948" lon="-3.4799">
        <ele>160.5</ele>
        <time>2025-02-26T12:34:09Z</time>
      </trkpt>
      <trkpt lat="48.05948" lon="-3.4799">
        <ele>160.5</ele>
        <time>2025-02-26T12:34:10Z</time>
      </trkpt>
      <trkpt lat="48.05948" lon="-3.4799">
        <ele>160.5</ele>
        <time>2025-02-26T12:34:11Z</time>
      </trkpt>
      <trkpt lat="48.05948" lon="-3.4799">
        <ele>160.5</ele>
        <time>2025-02-26T12:34:12Z</time>
      </trkpt>
      <trkpt lat="48.05948" lon="-3.4799">
        <ele>160.5</ele>
        <time>2025-02-26T12:34:13Z</time>
      </trkpt>
      <trkpt lat="48.05948" lon="-3.4799">
        <ele>160.5</ele>
        <time>2025-02-26T12:34:14Z</time>
      </trkpt>
      <trkpt lat="48.05948" lon="-3.4799">
        <ele>160.5</ele>
        <time>2025-02-26T12:34:15Z</time>
      </trkpt>
      <trkpt lat="48.05948" lon="-3.4799">
        <ele>160.5</ele>
        <time>2025-02-26T12:34:16Z</time>
      </trkpt>
      <trkpt lat="48.05948" lon="-3.4799">
        <ele>160.5</ele>
        <time>2025-02-26T12:34:17Z</time>
      </trkpt>
      <trkpt lat="48.05948" lon="-3.4799">
        <ele>160.5</ele>
        <time>2025-02-26T12:34:18Z</time>
      </trkpt>
      <trkpt lat="48.05948" lon="-3.4799">
        <ele>160.5</ele>
        <time>2025-02-26T12:34:19Z</time>
      </trkpt>
      <trkpt lat="48.05948" lon="-3.4799">
        <ele>160.5</ele>
        <time>2025-02-26T12:34:20Z</time>
      </trkpt>
      <trkpt lat="48.05947" lon="-3.47989">
        <ele>160.4</ele>
        <time>2025-02-26T12:34:21Z</time>
      </trkpt>
      <trkpt lat="48.05947" lon="-3.47988">
        <ele>160.4</ele>
        <time>2025-02-26T12:34:22Z</time>
      </trkpt>
      <trkpt lat="48.05946" lon="-3.47986">
        <ele>160.4</ele>
        <time>2025-02-26T12:34:23Z</time>
      </trkpt>
      <trkpt lat="48.05946" lon="-3.47985">
        <ele>160.4</ele>
        <time>2025-02-26T12:34:24Z</time>
      </trkpt>
      <trkpt lat="48.05945" lon="-3.47983">
        <ele>160.4</ele>
        <time>2025-02-26T12:34:25Z</time>
      </trkpt>
      <trkpt lat="48.05945" lon="-3.47982">
        <ele>160.3</ele>
        <time>2025-02-26T12:34:26Z</time>
      </trkpt>
      <trkpt lat="48.05944" lon="-3.4798">
        <ele>160.3</ele>
        <time>2025-02-26T12:34:27Z</time>
      </trkpt>
      <trkpt lat="48.05944" lon="-3.47979">
        <ele>160.3</ele>
        <time>2025-02-26T12:34:28Z</time>
      </trkpt>
      <trkpt lat="48.05943" lon="-3.47978">
        <ele>160.2</ele>
        <time>2025-02-26T12:34:29Z</time>
      </trkpt>
      <trkpt lat="48.05943" lon="-3.47976">
        <ele>160.2</ele>
        <time>2025-02-26T12:34:30Z</time>
      </trkpt>
      <trkpt lat="48.05943" lon="-3.47974">
        <ele>160.1</ele>
        <time>2025-02-26T12:34:31Z</time>
      </trkpt>
      <trkpt lat="48.05942" lon="-3.47973">
        <ele>160.1</ele>
        <time>2025-02-26T12:34:32Z</time>
      </trkpt>
      <trkpt lat="48.05942" lon="-3.47971">
        <ele>160</ele>
        <time>2025-02-26T12:34:33Z</time>
      </trkpt>
      <trkpt lat="48.05941" lon="-3.4797">
        <ele>159.9</ele>
        <time>2025-02-26T12:34:34Z</time>
      </trkpt>
      <trkpt lat="48.05941" lon="-3.47968">
        <ele>159.8</ele>
        <time>2025-02-26T12:34:35Z</time>
      </trkpt>
      <trkpt lat="48.05941" lon="-3.47967">
        <ele>159.7</ele>
        <time>2025-02-26T12:34:36Z</time>
      </trkpt>
      <trkpt lat="48.05941" lon="-3.47965">
        <ele>159.6</ele>
        <time>2025-02-26T12:34:37Z</time>
      </trkpt>
      <trkpt lat="48.0594" lon="-3.47963">
        <ele>159.6</ele>
        <time>2025-02-26T12:34:38Z</time>
      </trkpt>
      <trkpt lat="48.05939" lon="-3.47962">
        <ele>159.5</ele>
        <time>2025-02-26T12:34:39Z</time>
      </trkpt>
      <trkpt lat="48.05938" lon="-3.47961">
        <ele>159.5</ele>
        <time>2025-02-26T12:34:40Z</time>
      </trkpt>
      <trkpt lat="48.05937" lon="-3.47959">
        <ele>159.4</ele>
        <time>2025-02-26T12:34:41Z</time>
      </trkpt>
      <trkpt lat="48.05936" lon="-3.47957">
        <ele>159.3</ele>
        <time>2025-02-26T12:34:42Z</time>
      </trkpt>
      <trkpt lat="48.05936" lon="-3.47956">
        <ele>159.3</ele>
        <time>2025-02-26T12:34:43Z</time>
      </trkpt>
      <trkpt lat="48.05936" lon="-3.47954">
        <ele>159.2</ele>
        <time>2025-02-26T12:34:44Z</time>
      </trkpt>
      <trkpt lat="48.05935" lon="-3.47952">
        <ele>159.1</ele>
        <time>2025-02-26T12:34:45Z</time>
      </trkpt>
      <trkpt lat="48.05934" lon="-3.47951">
        <ele>159.1</ele>
        <time>2025-02-26T12:34:46Z</time>
      </trkpt>
      <trkpt lat="48.05934" lon="-3.47949">
        <ele>159.1</ele>
        <time>2025-02-26T12:34:47Z</time>
      </trkpt>
      <trkpt lat="48.05933" lon="-3.47948">
        <ele>159</ele>
        <time>2025-02-26T12:34:48Z</time>
      </trkpt>
      <trkpt lat="48.05933" lon="-3.47946">
        <ele>158.9</ele>
        <time>2025-02-26T12:34:49Z</time>
      </trkpt>
      <trkpt lat="48.05933" lon="-3.47945">
        <ele>158.8</ele>
        <time>2025-02-26T12:34:50Z</time>
      </trkpt>
      <trkpt lat="48.05933" lon="-3.47943">
        <ele>158.6</ele>
        <time>2025-02-26T12:34:51Z</time>
      </trkpt>
      <trkpt lat="48.05933" lon="-3.47941">
        <ele>158.5</ele>
        <time>2025-02-26T12:34:52Z</time>
      </trkpt>
      <trkpt lat="48.05932" lon="-3.4794">
        <ele>158.4</ele>
        <time>2025-02-26T12:34:53Z</time>
      </trkpt>
      <trkpt lat="48.05931" lon="-3.47938">
        <ele>158.2</ele>
        <time>2025-02-26T12:34:54Z</time>
      </trkpt>
      <trkpt lat="48.0593" lon="-3.47936">
        <ele>158.1</ele>
        <time>2025-02-26T12:34:55Z</time>
      </trkpt>
      <trkpt lat="48.0593" lon="-3.47935">
        <ele>158</ele>
        <time>2025-02-26T12:34:56Z</time>
      </trkpt>
      <trkpt lat="48.0593" lon="-3.47933">
        <ele>157.9</ele>
        <time>2025-02-26T12:34:57Z</time>
      </trkpt>
      <trkpt lat="48.0593" lon="-3.47932">
        <ele>157.7</ele>
        <time>2025-02-26T12:34:58Z</time>
      </trkpt>
      <trkpt lat="48.05929" lon="-3.4793">
        <ele>157.6</ele>
        <time>2025-02-26T12:34:59Z</time>
      </trkpt>
      <trkpt lat="48.05929" lon="-3.47929">
        <ele>157.5</ele>
        <time>2025-02-26T12:35:00Z</time>
      </trkpt>
      <trkpt lat="48.05928" lon="-3.47928">
        <ele>157.4</ele>
        <time>2025-02-26T12:35:01Z</time>
      </trkpt>
      <trkpt lat="48.05927" lon="-3.47927">
        <ele>157.3</ele>
        <time>2025-02-26T12:35:02Z</time>
      </trkpt>
      <trkpt lat="48.05927" lon="-3.47925">
        <ele>157.2</ele>
        <time>2025-02-26T12:35:03Z</time>
      </trkpt>
      <trkpt lat="48.05926" lon="-3.47924">
        <ele>157.1</ele>
        <time>2025-02-26T12:35:04Z</time>
      </trkpt>
      <trkpt lat="48.05926" lon="-3.47922">
        <ele>157</ele>
        <time>2025-02-26T12:35:05Z</time>
      </trkpt>
      <trkpt lat="48.05925" lon="-3.47921">
        <ele>156.9</ele>
        <time>2025-02-26T12:35:06Z</time>
      </trkpt>
      <trkpt lat="48.05924" lon="-3.47919">
        <ele>156.7</ele>
        <time>2025-02-26T12:35:07Z</time>
      </trkpt>
      <trkpt lat="48.05924" lon="-3.47918">
        <ele>156.6</ele>
        <time>2025-02-26T12:35:08Z</time>
      </trkpt>
      <trkpt lat="48.05925" lon="-3.47916">
        <ele>156.3</ele>
        <time>2025-02-26T12:35:09Z</time>
      </trkpt>
      <trkpt lat="48.05925" lon="-3.47914">
        <ele>156</ele>
        <time>2025-02-26T12:35:10Z</time>
      </trkpt>
      <trkpt lat="48.05926" lon="-3.47913">
        <ele>155.6</ele>
        <time>2025-02-26T12:35:11Z</time>
      </trkpt>
      <trkpt lat="48.05926" lon="-3.47911">
        <ele>155.3</ele>
        <time>2025-02-26T12:35:12Z</time>
      </trkpt>
      <trkpt lat="48.05927" lon="-3.4791">
        <ele>154.9</ele>
        <time>2025-02-26T12:35:13Z</time>
      </trkpt>
      <trkpt lat="48.05927" lon="-3.47908">
        <ele>154.6</ele>
        <time>2025-02-26T12:35:14Z</time>
      </trkpt>
      <trkpt lat="48.05927" lon="-3.47907">
        <ele>154.4</ele>
        <time>2025-02-26T12:35:15Z</time>
      </trkpt>
      <trkpt lat="48.05927" lon="-3.47906">
        <ele>154.1</ele>
        <time>2025-02-26T12:35:16Z</time>
      </trkpt>
      <trkpt lat="48.05926" lon="-3.47904">
        <ele>153.8</ele>
        <time>2025-02-26T12:35:17Z</time>
      </trkpt>
      <trkpt lat="48.05925" lon="-3.47903">
        <ele>153.7</ele>
        <time>2025-02-26T12:35:18Z</time>
      </trkpt>
      <trkpt lat="48.05923" lon="-3.47903">
        <ele>153.9</ele>
        <time>2025-02-26T12:35:19Z</time>
      </trkpt>
      <trkpt lat="48.05922" lon="-3.47902">
        <ele>153.8</ele>
        <time>2025-02-26T12:35:20Z</time>
      </trkpt>
      <trkpt lat="48.0592" lon="-3.47901">
        <ele>153.8</ele>
        <time>2025-02-26T12:35:21Z</time>
      </trkpt>
      <trkpt lat="48.05919" lon="-3.479">
        <ele>153.9</ele>
        <time>2025-02-26T12:35:22Z</time>
      </trkpt>
      <trkpt lat="48.05917" lon="-3.479">
        <ele>154</ele>
        <time>2025-02-26T12:35:23Z</time>
      </trkpt>
      <trkpt lat="48.05916" lon="-3.47902">
        <ele>154.4</ele>
        <time>2025-02-26T12:35:24Z</time>
      </trkpt>
      <trkpt lat="48.05915" lon="-3.47903">
        <ele>154.7</ele>
        <time>2025-02-26T12:35:25Z</time>
      </trkpt>
      <trkpt lat="48.05914" lon="-3.47904">
        <ele>155</ele>
        <time>2025-02-26T12:35:26Z</time>
      </trkpt>
      <trkpt lat="48.05913" lon="-3.47904">
        <ele>155</ele>
        <time>2025-02-26T12:35:27Z</time>
      </trkpt>
      <trkpt lat="48.05912" lon="-3.47904">
        <ele>155.2</ele>
        <time>2025-02-26T12:35:28Z</time>
      </trkpt>
      <trkpt lat="48.0591" lon="-3.47904">
        <ele>155.3</ele>
        <time>2025-02-26T12:35:29Z</time>
      </trkpt>
      <trkpt lat="48.05909" lon="-3.47904">
        <ele>155.3</ele>
        <time>2025-02-26T12:35:30Z</time>
      </trkpt>
      <trkpt lat="48.05908" lon="-3.47904">
        <ele>155.4</ele>
        <time>2025-02-26T12:35:31Z</time>
      </trkpt>
      <trkpt lat="48.05907" lon="-3.47904">
        <ele>155.6</ele>
        <time>2025-02-26T12:35:32Z</time>
      </trkpt>
      <trkpt lat="48.05905" lon="-3.47903">
        <ele>155.6</ele>
        <time>2025-02-26T12:35:33Z</time>
      </trkpt>
      <trkpt lat="48.05904" lon="-3.47903">
        <ele>155.6</ele>
        <time>2025-02-26T12:35:34Z</time>
      </trkpt>
      <trkpt lat="48.05903" lon="-3.47902">
        <ele>155.6</ele>
        <time>2025-02-26T12:35:35Z</time>
      </trkpt>
      <trkpt lat="48.05902" lon="-3.47902">
        <ele>155.7</ele>
        <time>2025-02-26T12:35:36Z</time>
      </trkpt>
      <trkpt lat="48.05901" lon="-3.47903">
        <ele>156</ele>
        <time>2025-02-26T12:35:37Z</time>
      </trkpt>
      <trkpt lat="48.05899" lon="-3.47903">
        <ele>156.2</ele>
        <time>2025-02-26T12:35:38Z</time>
      </trkpt>
      <trkpt lat="48.05898" lon="-3.47904">
        <ele>156.4</ele>
        <time>2025-02-26T12:35:39Z</time>
      </trkpt>
      <trkpt lat="48.05897" lon="-3.47904">
        <ele>156.6</ele>
        <time>2025-02-26T12:35:40Z</time>
      </trkpt>
      <trkpt lat="48.05896" lon="-3.47903">
        <ele>156.4</ele>
        <time>2025-02-26T12:35:41Z</time>
      </trkpt>
      <trkpt lat="48.05895" lon="-3.47902">
        <ele>156.4</ele>
        <time>2025-02-26T12:35:42Z</time>
      </trkpt>
      <trkpt lat="48.05894" lon="-3.47902">
        <ele>156.5</ele>
        <time>2025-02-26T12:35:43Z</time>
      </trkpt>
      <trkpt lat="48.05893" lon="-3.47902">
        <ele>156.5</ele>
        <time>2025-02-26T12:35:44Z</time>
      </trkpt>
      <trkpt lat="48.05892" lon="-3.47902">
        <ele>156.6</ele>
        <time>2025-02-26T12:35:45Z</time>
      </trkpt>
      <trkpt lat="48.05891" lon="-3.47901">
        <ele>156.6</ele>
        <time>2025-02-26T12:35:46Z</time>
      </trkpt>
      <trkpt lat="48.0589" lon="-3.47902">
        <ele>156.8</ele>
        <time>2025-02-26T12:35:47Z</time>
      </trkpt>
      <trkpt lat="48.05889" lon="-3.47902">
        <ele>156.9</ele>
        <time>2025-02-26T12:35:48Z</time>
      </trkpt>
      <trkpt lat="48.05888" lon="-3.47902">
        <ele>156.9</ele>
        <time>2025-02-26T12:35:49Z</time>
      </trkpt>
      <trkpt lat="48.05887" lon="-3.47901">
        <ele>156.9</ele>
        <time>2025-02-26T12:35:50Z</time>
      </trkpt>
      <trkpt lat="48.05886" lon="-3.47901">
        <ele>156.9</ele>
        <time>2025-02-26T12:35:51Z</time>
      </trkpt>
      <trkpt lat="48.05884" lon="-3.47901">
        <ele>157</ele>
        <time>2025-02-26T12:35:52Z</time>
      </trkpt>
      <trkpt lat="48.05883" lon="-3.47901">
        <ele>157.1</ele>
        <time>2025-02-26T12:35:53Z</time>
      </trkpt>
      <trkpt lat="48.05882" lon="-3.47902">
        <ele>157.3</ele>
        <time>2025-02-26T12:35:54Z</time>
      </trkpt>
      <trkpt lat="48.0588" lon="-3.47902">
        <ele>157.3</ele>
        <time>2025-02-26T12:35:55Z</time>
      </trkpt>
      <trkpt lat="48.05879" lon="-3.47901">
        <ele>157.4</ele>
        <time>2025-02-26T12:35:56Z</time>
      </trkpt>
      <trkpt lat="48.05878" lon="-3.47902">
        <ele>157.5</ele>
        <time>2025-02-26T12:35:57Z</time>
      </trkpt>
      <trkpt lat="48.05877" lon="-3.47902">
        <ele>157.6</ele>
        <time>2025-02-26T12:35:58Z</time>
      </trkpt>
      <trkpt lat="48.05876" lon="-3.47903">
        <ele>157.7</ele>
        <time>2025-02-26T12:35:59Z</time>
      </trkpt>
      <trkpt lat="48.05875" lon="-3.47904">
        <ele>157.9</ele>
        <time>2025-02-26T12:36:00Z</time>
      </trkpt>
      <trkpt lat="48.05873" lon="-3.47904">
        <ele>157.9</ele>
        <time>2025-02-26T12:36:01Z</time>
      </trkpt>
      <trkpt lat="48.05872" lon="-3.47904">
        <ele>158</ele>
        <time>2025-02-26T12:36:02Z</time>
      </trkpt>
      <trkpt lat="48.05871" lon="-3.47903">
        <ele>158</ele>
        <time>2025-02-26T12:36:03Z</time>
      </trkpt>
      <trkpt lat="48.0587" lon="-3.47903">
        <ele>158.1</ele>
        <time>2025-02-26T12:36:04Z</time>
      </trkpt>
      <trkpt lat="48.05869" lon="-3.47903">
        <ele>158.1</ele>
        <time>2025-02-26T12:36:05Z</time>
      </trkpt>
      <trkpt lat="48.05867" lon="-3.47903">
        <ele>158.2</ele>
        <time>2025-02-26T12:36:06Z</time>
      </trkpt>
      <trkpt lat="48.05866" lon="-3.47903">
        <ele>158.2</ele>
        <time>2025-02-26T12:36:07Z</time>
      </trkpt>
      <trkpt lat="48.05865" lon="-3.47903">
        <ele>158.3</ele>
        <time>2025-02-26T12:36:08Z</time>
      </trkpt>
      <trkpt lat="48.05864" lon="-3.47903">
        <ele>158.4</ele>
        <time>2025-02-26T12:36:09Z</time>
      </trkpt>
      <trkpt lat="48.05863" lon="-3.47903">
        <ele>158.4</ele>
        <time>2025-02-26T12:36:10Z</time>
      </trkpt>
      <trkpt lat="48.05862" lon="-3.47903">
        <ele>158.5</ele>
        <time>2025-02-26T12:36:11Z</time>
      </trkpt>
      <trkpt lat="48.05861" lon="-3.47903">
        <ele>158.5</ele>
        <time>2025-02-26T12:36:12Z</time>
      </trkpt>
      <trkpt lat="48.0586" lon="-3.47903">
        <ele>158.6</ele>
        <time>2025-02-26T12:36:13Z</time>
      </trkpt>
      <trkpt lat="48.05858" lon="-3.47903">
        <ele>158.6</ele>
        <time>2025-02-26T12:36:14Z</time>
      </trkpt>
      <trkpt lat="48.05857" lon="-3.47903">
        <ele>158.6</ele>
        <time>2025-02-26T12:36:15Z</time>
      </trkpt>
      <trkpt lat="48.05856" lon="-3.47902">
        <ele>158.6</ele>
        <time>2025-02-26T12:36:16Z</time>
      </trkpt>
      <trkpt lat="48.05856" lon="-3.47902">
        <ele>158.7</ele>
        <time>2025-02-26T12:36:17Z</time>
      </trkpt>
      <trkpt lat="48.05855" lon="-3.47901">
        <ele>158.6</ele>
        <time>2025-02-26T12:36:18Z</time>
      </trkpt>
      <trkpt lat="48.05855" lon="-3.47899">
        <ele>158.6</ele>
        <time>2025-02-26T12:36:19Z</time>
      </trkpt>
      <trkpt lat="48.05854" lon="-3.47899">
        <ele>158.6</ele>
        <time>2025-02-26T12:36:20Z</time>
      </trkpt>
      <trkpt lat="48.05853" lon="-3.47898">
        <ele>158.6</ele>
        <time>2025-02-26T12:36:21Z</time>
      </trkpt>
      <trkpt lat="48.05853" lon="-3.47897">
        <ele>158.6</ele>
        <time>2025-02-26T12:36:22Z</time>
      </trkpt>
      <trkpt lat="48.05852" lon="-3.47895">
        <ele>158.6</ele>
        <time>2025-02-26T12:36:23Z</time>
      </trkpt>
      <trkpt lat="48.05851" lon="-3.47893">
        <ele>158.5</ele>
        <time>2025-02-26T12:36:24Z</time>
      </trkpt>
      <trkpt lat="48.0585" lon="-3.47892">
        <ele>158.5</ele>
        <time>2025-02-26T12:36:25Z</time>
      </trkpt>
      <trkpt lat="48.05849" lon="-3.47891">
        <ele>158.5</ele>
        <time>2025-02-26T12:36:26Z</time>
      </trkpt>
      <trkpt lat="48.05848" lon="-3.47891">
        <ele>158.5</ele>
        <time>2025-02-26T12:36:27Z</time>
      </trkpt>
      <trkpt lat="48.05847" lon="-3.4789">
        <ele>158.5</ele>
        <time>2025-02-26T12:36:28Z</time>
      </trkpt>
      <trkpt lat="48.05846" lon="-3.47891">
        <ele>158.6</ele>
        <time>2025-02-26T12:36:29Z</time>
      </trkpt>
      <trkpt lat="48.05845" lon="-3.47891">
        <ele>158.7</ele>
        <time>2025-02-26T12:36:30Z</time>
      </trkpt>
      <trkpt lat="48.05844" lon="-3.47891">
        <ele>158.7</ele>
        <time>2025-02-26T12:36:31Z</time>
      </trkpt>
      <trkpt lat="48.05843" lon="-3.47891">
        <ele>158.7</ele>
        <time>2025-02-26T12:36:32Z</time>
      </trkpt>
      <trkpt lat="48.05842" lon="-3.4789">
        <ele>158.7</ele>
        <time>2025-02-26T12:36:33Z</time>
      </trkpt>
      <trkpt lat="48.05842" lon="-3.47889">
        <ele>158.7</ele>
        <time>2025-02-26T12:36:34Z</time>
      </trkpt>
      <trkpt lat="48.05841" lon="-3.47887">
        <ele>158.6</ele>
        <time>2025-02-26T12:36:35Z</time>
      </trkpt>
      <trkpt lat="48.0584" lon="-3.47886">
        <ele>158.6</ele>
        <time>2025-02-26T12:36:36Z</time>
      </trkpt>
      <trkpt lat="48.05839" lon="-3.47885">
        <ele>158.6</ele>
        <time>2025-02-26T12:36:37Z</time>
      </trkpt>
      <trkpt lat="48.05839" lon="-3.47884">
        <ele>158.5</ele>
        <time>2025-02-26T12:36:38Z</time>
      </trkpt>
      <trkpt lat="48.05838" lon="-3.47883">
        <ele>158.5</ele>
        <time>2025-02-26T12:36:39Z</time>
      </trkpt>
      <trkpt lat="48.05837" lon="-3.47883">
        <ele>158.5</ele>
        <time>2025-02-26T12:36:40Z</time>
      </trkpt>
      <trkpt lat="48.05836" lon="-3.47882">
        <ele>158.5</ele>
        <time>2025-02-26T12:36:41Z</time>
      </trkpt>
      <trkpt lat="48.05836" lon="-3.47881">
        <ele>158.6</ele>
        <time>2025-02-26T12:36:42Z</time>
      </trkpt>
      <trkpt lat="48.05835" lon="-3.4788">
        <ele>158.6</ele>
        <time>2025-02-26T12:36:43Z</time>
      </trkpt>
      <trkpt lat="48.05834" lon="-3.47879">
        <ele>158.6</ele>
        <time>2025-02-26T12:36:44Z</time>
      </trkpt>
      <trkpt lat="48.05833" lon="-3.47879">
        <ele>158.7</ele>
        <time>2025-02-26T12:36:45Z</time>
      </trkpt>
      <trkpt lat="48.05832" lon="-3.47878">
        <ele>158.7</ele>
        <time>2025-02-26T12:36:46Z</time>
      </trkpt>
      <trkpt lat="48.05831" lon="-3.47877">
        <ele>158.7</ele>
        <time>2025-02-26T12:36:47Z</time>
      </trkpt>
      <trkpt lat="48.0583" lon="-3.47876">
        <ele>158.8</ele>
        <time>2025-02-26T12:36:48Z</time>
      </trkpt>
      <trkpt lat="48.05829" lon="-3.47875">
        <ele>158.8</ele>
        <time>2025-02-26T12:36:49Z</time>
      </trkpt>
      <trkpt lat="48.05828" lon="-3.47874">
        <ele>158.8</ele>
        <time>2025-02-26T12:36:50Z</time>
      </trkpt>
      <trkpt lat="48.05827" lon="-3.47873">
        <ele>158.8</ele>
        <time>2025-02-26T12:36:51Z</time>
      </trkpt>
      <trkpt lat="48.05826" lon="-3.47872">
        <ele>158.9</ele>
        <time>2025-02-26T12:36:52Z</time>
      </trkpt>
      <trkpt lat="48.05825" lon="-3.4787">
        <ele>158.9</ele>
        <time>2025-02-26T12:36:53Z</time>
      </trkpt>
      <trkpt lat="48.05825" lon="-3.47869">
        <ele>158.9</ele>
        <time>2025-02-26T12:36:54Z</time>
      </trkpt>
      <trkpt lat="48.05824" lon="-3.47867">
        <ele>158.9</ele>
        <time>2025-02-26T12:36:55Z</time>
      </trkpt>
      <trkpt lat="48.05823" lon="-3.47866">
        <ele>158.9</ele>
        <time>2025-02-26T12:36:56Z</time>
      </trkpt>
      <trkpt lat="48.05822" lon="-3.47864">
        <ele>158.9</ele>
        <time>2025-02-26T12:36:57Z</time>
      </trkpt>
      <trkpt lat="48.05822" lon="-3.47862">
        <ele>158.9</ele>
        <time>2025-02-26T12:36:58Z</time>
      </trkpt>
      <trkpt lat="48.0582" lon="-3.47862">
        <ele>159</ele>
        <time>2025-02-26T12:36:59Z</time>
      </trkpt>
      <trkpt lat="48.05819" lon="-3.47861">
        <ele>159</ele>
        <time>2025-02-26T12:37:00Z</time>
      </trkpt>
      <trkpt lat="48.05818" lon="-3.4786">
        <ele>159.1</ele>
        <time>2025-02-26T12:37:01Z</time>
      </trkpt>
      <trkpt lat="48.05817" lon="-3.47859">
        <ele>159.1</ele>
        <time>2025-02-26T12:37:02Z</time>
      </trkpt>
      <trkpt lat="48.05817" lon="-3.47857">
        <ele>159.2</ele>
        <time>2025-02-26T12:37:03Z</time>
      </trkpt>
      <trkpt lat="48.05815" lon="-3.47856">
        <ele>159.2</ele>
        <time>2025-02-26T12:37:04Z</time>
      </trkpt>
      <trkpt lat="48.05815" lon="-3.47856">
        <ele>159.3</ele>
        <time>2025-02-26T12:37:05Z</time>
      </trkpt>
      <trkpt lat="48.05814" lon="-3.47854">
        <ele>159.3</ele>
        <time>2025-02-26T12:37:06Z</time>
      </trkpt>
      <trkpt lat="48.05813" lon="-3.47853">
        <ele>159.4</ele>
        <time>2025-02-26T12:37:07Z</time>
      </trkpt>
      <trkpt lat="48.05812" lon="-3.47853">
        <ele>159.5</ele>
        <time>2025-02-26T12:37:08Z</time>
      </trkpt>
      <trkpt lat="48.05811" lon="-3.47852">
        <ele>159.5</ele>
        <time>2025-02-26T12:37:09Z</time>
      </trkpt>
      <trkpt lat="48.0581" lon="-3.47852">
        <ele>159.6</ele>
        <time>2025-02-26T12:37:10Z</time>
      </trkpt>
      <trkpt lat="48.05809" lon="-3.47852">
        <ele>159.7</ele>
        <time>2025-02-26T12:37:11Z</time>
      </trkpt>
      <trkpt lat="48.05809" lon="-3.4785">
        <ele>159.7</ele>
        <time>2025-02-26T12:37:12Z</time>
      </trkpt>
      <trkpt lat="48.05809" lon="-3.47849">
        <ele>159.7</ele>
        <time>2025-02-26T12:37:13Z</time>
      </trkpt>
      <trkpt lat="48.05808" lon="-3.47847">
        <ele>159.7</ele>
        <time>2025-02-26T12:37:14Z</time>
      </trkpt>
      <trkpt lat="48.05808" lon="-3.47846">
        <ele>159.8</ele>
        <time>2025-02-26T12:37:15Z</time>
      </trkpt>
      <trkpt lat="48.05807" lon="-3.47846">
        <ele>159.9</ele>
        <time>2025-02-26T12:37:16Z</time>
      </trkpt>
      <trkpt lat="48.05806" lon="-3.47845">
        <ele>160</ele>
        <time>2025-02-26T12:37:17Z</time>
      </trkpt>
      <trkpt lat="48.05805" lon="-3.47844">
        <ele>160</ele>
        <time>2025-02-26T12:37:18Z</time>
      </trkpt>
      <trkpt lat="48.05805" lon="-3.47844">
        <ele>160</ele>
        <time>2025-02-26T12:37:19Z</time>
      </trkpt>
      <trkpt lat="48.05804" lon="-3.47843">
        <ele>160.2</ele>
        <time>2025-02-26T12:37:20Z</time>
      </trkpt>
      <trkpt lat="48.05803" lon="-3.47843">
        <ele>160.2</ele>
        <time>2025-02-26T12:37:21Z</time>
      </trkpt>
      <trkpt lat="48.05802" lon="-3.47843">
        <ele>160.3</ele>
        <time>2025-02-26T12:37:22Z</time>
      </trkpt>
      <trkpt lat="48.05802" lon="-3.47842">
        <ele>160.4</ele>
        <time>2025-02-26T12:37:23Z</time>
      </trkpt>
      <trkpt lat="48.05802" lon="-3.47841">
        <ele>160.4</ele>
        <time>2025-02-26T12:37:24Z</time>
      </trkpt>
      <trkpt lat="48.05801" lon="-3.4784">
        <ele>160.5</ele>
        <time>2025-02-26T12:37:25Z</time>
      </trkpt>
      <trkpt lat="48.05802" lon="-3.47838">
        <ele>160.4</ele>
        <time>2025-02-26T12:37:26Z</time>
      </trkpt>
      <trkpt lat="48.05803" lon="-3.47837">
        <ele>160.3</ele>
        <time>2025-02-26T12:37:27Z</time>
      </trkpt>
      <trkpt lat="48.05804" lon="-3.47835">
        <ele>160.1</ele>
        <time>2025-02-26T12:37:28Z</time>
      </trkpt>
      <trkpt lat="48.05806" lon="-3.47834">
        <ele>160</ele>
        <time>2025-02-26T12:37:29Z</time>
      </trkpt>
      <trkpt lat="48.05807" lon="-3.47832">
        <ele>159.8</ele>
        <time>2025-02-26T12:37:30Z</time>
      </trkpt>
      <trkpt lat="48.05808" lon="-3.47831">
        <ele>159.7</ele>
        <time>2025-02-26T12:37:31Z</time>
      </trkpt>
      <trkpt lat="48.05808" lon="-3.4783">
        <ele>159.6</ele>
        <time>2025-02-26T12:37:32Z</time>
      </trkpt>
      <trkpt lat="48.05808" lon="-3.47828">
        <ele>159.5</ele>
        <time>2025-02-26T12:37:33Z</time>
      </trkpt>
      <trkpt lat="48.05808" lon="-3.47827">
        <ele>159.5</ele>
        <time>2025-02-26T12:37:34Z</time>
      </trkpt>
      <trkpt lat="48.05809" lon="-3.47826">
        <ele>159.4</ele>
        <time>2025-02-26T12:37:35Z</time>
      </trkpt>
      <trkpt lat="48.05809" lon="-3.47825">
        <ele>159.4</ele>
        <time>2025-02-26T12:37:36Z</time>
      </trkpt>
      <trkpt lat="48.05809" lon="-3.47823">
        <ele>159.3</ele>
        <time>2025-02-26T12:37:37Z</time>
      </trkpt>
      <trkpt lat="48.0581" lon="-3.47821">
        <ele>159.1</ele>
        <time>2025-02-26T12:37:38Z</time>
      </trkpt>
      <trkpt lat="48.05811" lon="-3.47821">
        <ele>159</ele>
        <time>2025-02-26T12:37:39Z</time>
      </trkpt>
      <trkpt lat="48.05812" lon="-3.4782">
        <ele>158.9</ele>
        <time>2025-02-26T12:37:40Z</time>
      </trkpt>
      <trkpt lat="48.05813" lon="-3.47819">
        <ele>158.8</ele>
        <time>2025-02-26T12:37:41Z</time>
      </trkpt>
      <trkpt lat="48.05814" lon="-3.47819">
        <ele>158.7</ele>
        <time>2025-02-26T12:37:42Z</time>
      </trkpt>
      <trkpt lat="48.05816" lon="-3.47818">
        <ele>158.5</ele>
        <time>2025-02-26T12:37:43Z</time>
      </trkpt>
      <trkpt lat="48.05817" lon="-3.47816">
        <ele>158.4</ele>
        <time>2025-02-26T12:37:44Z</time>
      </trkpt>
      <trkpt lat="48.05817" lon="-3.47814">
        <ele>158.3</ele>
        <time>2025-02-26T12:37:45Z</time>
      </trkpt>
      <trkpt lat="48.05818" lon="-3.47812">
        <ele>158.3</ele>
        <time>2025-02-26T12:37:46Z</time>
      </trkpt>
      <trkpt lat="48.05818" lon="-3.47811">
        <ele>158.2</ele>
        <time>2025-02-26T12:37:47Z</time>
      </trkpt>
      <trkpt lat="48.05819" lon="-3.4781">
        <ele>158.1</ele>
        <time>2025-02-26T12:37:48Z</time>
      </trkpt>
      <trkpt lat="48.05819" lon="-3.47809">
        <ele>158.1</ele>
        <time>2025-02-26T12:37:49Z</time>
      </trkpt>
      <trkpt lat="48.0582" lon="-3.47808">
        <ele>158</ele>
        <time>2025-02-26T12:37:50Z</time>
      </trkpt>
      <trkpt lat="48.0582" lon="-3.47807">
        <ele>158</ele>
        <time>2025-02-26T12:37:51Z</time>
      </trkpt>
      <trkpt lat="48.05821" lon="-3.47806">
        <ele>157.9</ele>
        <time>2025-02-26T12:37:52Z</time>
      </trkpt>
      <trkpt lat="48.05822" lon="-3.47805">
        <ele>157.9</ele>
        <time>2025-02-26T12:37:53Z</time>
      </trkpt>
      <trkpt lat="48.05822" lon="-3.47804">
        <ele>157.8</ele>
        <time>2025-02-26T12:37:54Z</time>
      </trkpt>
      <trkpt lat="48.05823" lon="-3.47802">
        <ele>157.8</ele>
        <time>2025-02-26T12:37:55Z</time>
      </trkpt>
      <trkpt lat="48.05823" lon="-3.478">
        <ele>157.7</ele>
        <time>2025-02-26T12:37:56Z</time>
      </trkpt>
      <trkpt lat="48.05824" lon="-3.47799">
        <ele>157.7</ele>
        <time>2025-02-26T12:37:57Z</time>
      </trkpt>
      <trkpt lat="48.05825" lon="-3.47798">
        <ele>157.6</ele>
        <time>2025-02-26T12:37:58Z</time>
      </trkpt>
      <trkpt lat="48.05826" lon="-3.47796">
        <ele>157.5</ele>
        <time>2025-02-26T12:37:59Z</time>
      </trkpt>
      <trkpt lat="48.05827" lon="-3.47794">
        <ele>157.4</ele>
        <time>2025-02-26T12:38:00Z</time>
      </trkpt>
      <trkpt lat="48.05829" lon="-3.47792">
        <ele>157.3</ele>
        <time>2025-02-26T12:38:01Z</time>
      </trkpt>
      <trkpt lat="48.0583" lon="-3.4779">
        <ele>157.3</ele>
        <time>2025-02-26T12:38:02Z</time>
      </trkpt>
      <trkpt lat="48.0583" lon="-3.47788">
        <ele>157.2</ele>
        <time>2025-02-26T12:38:03Z</time>
      </trkpt>
      <trkpt lat="48.0583" lon="-3.47786">
        <ele>157.2</ele>
        <time>2025-02-26T12:38:04Z</time>
      </trkpt>
      <trkpt lat="48.05831" lon="-3.47784">
        <ele>157.2</ele>
        <time>2025-02-26T12:38:05Z</time>
      </trkpt>
      <trkpt lat="48.05831" lon="-3.47782">
        <ele>157.1</ele>
        <time>2025-02-26T12:38:06Z</time>
      </trkpt>
      <trkpt lat="48.05831" lon="-3.4778">
        <ele>157.1</ele>
        <time>2025-02-26T12:38:07Z</time>
      </trkpt>
      <trkpt lat="48.05832" lon="-3.47779">
        <ele>157.1</ele>
        <time>2025-02-26T12:38:08Z</time>
      </trkpt>
      <trkpt lat="48.05832" lon="-3.47777">
        <ele>157.1</ele>
        <time>2025-02-26T12:38:09Z</time>
      </trkpt>
      <trkpt lat="48.05833" lon="-3.47776">
        <ele>157</ele>
        <time>2025-02-26T12:38:10Z</time>
      </trkpt>
      <trkpt lat="48.05834" lon="-3.47774">
        <ele>157</ele>
        <time>2025-02-26T12:38:11Z</time>
      </trkpt>
      <trkpt lat="48.05834" lon="-3.47774">
        <ele>157</ele>
        <time>2025-02-26T12:38:12Z</time>
      </trkpt>
      <trkpt lat="48.05834" lon="-3.47772">
        <ele>156.9</ele>
        <time>2025-02-26T12:38:13Z</time>
      </trkpt>
      <trkpt lat="48.05835" lon="-3.47771">
        <ele>156.9</ele>
        <time>2025-02-26T12:38:14Z</time>
      </trkpt>
      <trkpt lat="48.05835" lon="-3.4777">
        <ele>156.9</ele>
        <time>2025-02-26T12:38:15Z</time>
      </trkpt>
      <trkpt lat="48.05836" lon="-3.47768">
        <ele>156.9</ele>
        <time>2025-02-26T12:38:16Z</time>
      </trkpt>
      <trkpt lat="48.05836" lon="-3.47767">
        <ele>156.9</ele>
        <time>2025-02-26T12:38:17Z</time>
      </trkpt>
      <trkpt lat="48.05836" lon="-3.47765">
        <ele>156.9</ele>
        <time>2025-02-26T12:38:18Z</time>
      </trkpt>
      <trkpt lat="48.05837" lon="-3.47764">
        <ele>156.8</ele>
        <time>2025-02-26T12:38:19Z</time>
      </trkpt>
      <trkpt lat="48.05837" lon="-3.47763">
        <ele>156.8</ele>
        <time>2025-02-26T12:38:20Z</time>
      </trkpt>
      <trkpt lat="48.05838" lon="-3.47762">
        <ele>156.8</ele>
        <time>2025-02-26T12:38:21Z</time>
      </trkpt>
      <trkpt lat="48.05839" lon="-3.4776">
        <ele>156.7</ele>
        <time>2025-02-26T12:38:22Z</time>
      </trkpt>
      <trkpt lat="48.05839" lon="-3.47759">
        <ele>156.7</ele>
        <time>2025-02-26T12:38:23Z</time>
      </trkpt>
      <trkpt lat="48.05839" lon="-3.47758">
        <ele>156.7</ele>
        <time>2025-02-26T12:38:24Z</time>
      </trkpt>
      <trkpt lat="48.0584" lon="-3.47756">
        <ele>156.7</ele>
        <time>2025-02-26T12:38:25Z</time>
      </trkpt>
      <trkpt lat="48.05841" lon="-3.47755">
        <ele>156.7</ele>
        <time>2025-02-26T12:38:26Z</time>
      </trkpt>
      <trkpt lat="48.05841" lon="-3.47753">
        <ele>156.7</ele>
        <time>2025-02-26T12:38:27Z</time>
      </trkpt>
      <trkpt lat="48.05842" lon="-3.47752">
        <ele>156.6</ele>
        <time>2025-02-26T12:38:28Z</time>
      </trkpt>
      <trkpt lat="48.05843" lon="-3.47751">
        <ele>156.7</ele>
        <time>2025-02-26T12:38:29Z</time>
      </trkpt>
      <trkpt lat="48.05843" lon="-3.47749">
        <ele>156.7</ele>
        <time>2025-02-26T12:38:30Z</time>
      </trkpt>
      <trkpt lat="48.05843" lon="-3.47747">
        <ele>156.6</ele>
        <time>2025-02-26T12:38:31Z</time>
      </trkpt>
      <trkpt lat="48.05844" lon="-3.47746">
        <ele>156.6</ele>
        <time>2025-02-26T12:38:32Z</time>
      </trkpt>
      <trkpt lat="48.05844" lon="-3.47744">
        <ele>156.6</ele>
        <time>2025-02-26T12:38:33Z</time>
      </trkpt>
      <trkpt lat="48.05844" lon="-3.47743">
        <ele>156.6</ele>
        <time>2025-02-26T12:38:34Z</time>
      </trkpt>
      <trkpt lat="48.05843" lon="-3.47742">
        <ele>156.6</ele>
        <time>2025-02-26T12:38:35Z</time>
      </trkpt>
      <trkpt lat="48.05843" lon="-3.47741">
        <ele>156.6</ele>
        <time>2025-02-26T12:38:36Z</time>
      </trkpt>
      <trkpt lat="48.05843" lon="-3.47739">
        <ele>156.7</ele>
        <time>2025-02-26T12:38:37Z</time>
      </trkpt>
      <trkpt lat="48.05843" lon="-3.47737">
        <ele>156.7</ele>
        <time>2025-02-26T12:38:38Z</time>
      </trkpt>
      <trkpt lat="48.05844" lon="-3.47736">
        <ele>156.6</ele>
        <time>2025-02-26T12:38:39Z</time>
      </trkpt>
      <trkpt lat="48.05844" lon="-3.47734">
        <ele>156.6</ele>
        <time>2025-02-26T12:38:40Z</time>
      </trkpt>
      <trkpt lat="48.05844" lon="-3.47732">
        <ele>156.6</ele>
        <time>2025-02-26T12:38:41Z</time>
      </trkpt>
      <trkpt lat="48.05845" lon="-3.47731">
        <ele>156.6</ele>
        <time>2025-02-26T12:38:42Z</time>
      </trkpt>
      <trkpt lat="48.05846" lon="-3.4773">
        <ele>156.6</ele>
        <time>2025-02-26T12:38:43Z</time>
      </trkpt>
      <trkpt lat="48.05847" lon="-3.47729">
        <ele>156.5</ele>
        <time>2025-02-26T12:38:44Z</time>
      </trkpt>
      <trkpt lat="48.05848" lon="-3.47728">
        <ele>156.5</ele>
        <time>2025-02-26T12:38:45Z</time>
      </trkpt>
      <trkpt lat="48.05848" lon="-3.47727">
        <ele>156.5</ele>
        <time>2025-02-26T12:38:46Z</time>
      </trkpt>
      <trkpt lat="48.05848" lon="-3.47726">
        <ele>156.5</ele>
        <time>2025-02-26T12:38:47Z</time>
      </trkpt>
      <trkpt lat="48.05848" lon="-3.47726">
        <ele>156.5</ele>
        <time>2025-02-26T12:38:48Z</time>
      </trkpt>
      <trkpt lat="48.05848" lon="-3.47726">
        <ele>156.5</ele>
        <time>2025-02-26T12:38:49Z</time>
      </trkpt>
      <trkpt lat="48.05848" lon="-3.47724">
        <ele>156.5</ele>
        <time>2025-02-26T12:38:50Z</time>
      </trkpt>
      <trkpt lat="48.05848" lon="-3.47724">
        <ele>156.5</ele>
        <time>2025-02-26T12:38:51Z</time>
      </trkpt>
      <trkpt lat="48.05848" lon="-3.47723">
        <ele>156.5</ele>
        <time>2025-02-26T12:38:52Z</time>
      </trkpt>
      <trkpt lat="48.05849" lon="-3.47722">
        <ele>156.5</ele>
        <time>2025-02-26T12:38:53Z</time>
      </trkpt>
      <trkpt lat="48.05849" lon="-3.47722">
        <ele>156.4</ele>
        <time>2025-02-26T12:38:54Z</time>
      </trkpt>
      <trkpt lat="48.0585" lon="-3.47721">
        <ele>156.4</ele>
        <time>2025-02-26T12:38:55Z</time>
      </trkpt>
      <trkpt lat="48.05851" lon="-3.47721">
        <ele>156.4</ele>
        <time>2025-02-26T12:38:56Z</time>
      </trkpt>
      <trkpt lat="48.05851" lon="-3.4772">
        <ele>156.4</ele>
        <time>2025-02-26T12:38:57Z</time>
      </trkpt>
      <trkpt lat="48.05851" lon="-3.47719">
        <ele>156.3</ele>
        <time>2025-02-26T12:38:58Z</time>
      </trkpt>
      <trkpt lat="48.05851" lon="-3.47718">
        <ele>156.4</ele>
        <time>2025-02-26T12:38:59Z</time>
      </trkpt>
      <trkpt lat="48.05852" lon="-3.47717">
        <ele>156.3</ele>
        <time>2025-02-26T12:39:00Z</time>
      </trkpt>
      <trkpt lat="48.05852" lon="-3.47715">
        <ele>156.3</ele>
        <time>2025-02-26T12:39:01Z</time>
      </trkpt>
      <trkpt lat="48.05853" lon="-3.47715">
        <ele>156.3</ele>
        <time>2025-02-26T12:39:02Z</time>
      </trkpt>
      <trkpt lat="48.05853" lon="-3.47714">
        <ele>156.3</ele>
        <time>2025-02-26T12:39:03Z</time>
      </trkpt>
      <trkpt lat="48.05854" lon="-3.47714">
        <ele>156.2</ele>
        <time>2025-02-26T12:39:04Z</time>
      </trkpt>
      <trkpt lat="48.05855" lon="-3.47713">
        <ele>156.2</ele>
        <time>2025-02-26T12:39:05Z</time>
      </trkpt>
      <trkpt lat="48.05856" lon="-3.47713">
        <ele>156.2</ele>
        <time>2025-02-26T12:39:06Z</time>
      </trkpt>
      <trkpt lat="48.05857" lon="-3.47713">
        <ele>156.2</ele>
        <time>2025-02-26T12:39:07Z</time>
      </trkpt>
      <trkpt lat="48.05858" lon="-3.47712">
        <ele>156.1</ele>
        <time>2025-02-26T12:39:08Z</time>
      </trkpt>
      <trkpt lat="48.05858" lon="-3.47711">
        <ele>156.1</ele>
        <time>2025-02-26T12:39:09Z</time>
      </trkpt>
      <trkpt lat="48.05859" lon="-3.4771">
        <ele>156.1</ele>
        <time>2025-02-26T12:39:10Z</time>
      </trkpt>
      <trkpt lat="48.05859" lon="-3.47708">
        <ele>156.1</ele>
        <time>2025-02-26T12:39:11Z</time>
      </trkpt>
      <trkpt lat="48.05859" lon="-3.47707">
        <ele>156.1</ele>
        <time>2025-02-26T12:39:12Z</time>
      </trkpt>
      <trkpt lat="48.05858" lon="-3.47706">
        <ele>156.1</ele>
        <time>2025-02-26T12:39:13Z</time>
      </trkpt>
      <trkpt lat="48.05858" lon="-3.47705">
        <ele>156.1</ele>
        <time>2025-02-26T12:39:14Z</time>
      </trkpt>
      <trkpt lat="48.05857" lon="-3.47704">
        <ele>156.1</ele>
        <time>2025-02-26T12:39:15Z</time>
      </trkpt>
      <trkpt lat="48.05856" lon="-3.47704">
        <ele>156.2</ele>
        <time>2025-02-26T12:39:16Z</time>
      </trkpt>
      <trkpt lat="48.05855" lon="-3.47703">
        <ele>156.2</ele>
        <time>2025-02-26T12:39:17Z</time>
      </trkpt>
      <trkpt lat="48.05854" lon="-3.47703">
        <ele>156.3</ele>
        <time>2025-02-26T12:39:18Z</time>
      </trkpt>
      <trkpt lat="48.05853" lon="-3.47703">
        <ele>156.3</ele>
        <time>2025-02-26T12:39:19Z</time>
      </trkpt>
      <trkpt lat="48.05853" lon="-3.47702">
        <ele>156.3</ele>
        <time>2025-02-26T12:39:20Z</time>
      </trkpt>
      <trkpt lat="48.05852" lon="-3.47702">
        <ele>156.3</ele>
        <time>2025-02-26T12:39:21Z</time>
      </trkpt>
      <trkpt lat="48.05851" lon="-3.47701">
        <ele>156.4</ele>
        <time>2025-02-26T12:39:22Z</time>
      </trkpt>
      <trkpt lat="48.05851" lon="-3.477">
        <ele>156.4</ele>
        <time>2025-02-26T12:39:23Z</time>
      </trkpt>
      <trkpt lat="48.05851" lon="-3.47698">
        <ele>156.4</ele>
        <time>2025-02-26T12:39:24Z</time>
      </trkpt>
      <trkpt lat="48.05852" lon="-3.47697">
        <ele>156.3</ele>
        <time>2025-02-26T12:39:25Z</time>
      </trkpt>
      <trkpt lat="48.05853" lon="-3.47696">
        <ele>156.3</ele>
        <time>2025-02-26T12:39:26Z</time>
      </trkpt>
      <trkpt lat="48.05854" lon="-3.47695">
        <ele>156.3</ele>
        <time>2025-02-26T12:39:27Z</time>
      </trkpt>
      <trkpt lat="48.05855" lon="-3.47693">
        <ele>156.2</ele>
        <time>2025-02-26T12:39:28Z</time>
      </trkpt>
      <trkpt lat="48.05856" lon="-3.4769">
        <ele>156</ele>
        <time>2025-02-26T12:39:29Z</time>
      </trkpt>
      <trkpt lat="48.05856" lon="-3.47689">
        <ele>156</ele>
        <time>2025-02-26T12:39:30Z</time>
      </trkpt>
      <trkpt lat="48.05857" lon="-3.47688">
        <ele>155.9</ele>
        <time>2025-02-26T12:39:31Z</time>
      </trkpt>
      <trkpt lat="48.05858" lon="-3.47686">
        <ele>155.8</ele>
        <time>2025-02-26T12:39:32Z</time>
      </trkpt>
      <trkpt lat="48.05859" lon="-3.47685">
        <ele>155.8</ele>
        <time>2025-02-26T12:39:33Z</time>
      </trkpt>
      <trkpt lat="48.05859" lon="-3.47684">
        <ele>155.7</ele>
        <time>2025-02-26T12:39:34Z</time>
      </trkpt>
      <trkpt lat="48.0586" lon="-3.47684">
        <ele>155.7</ele>
        <time>2025-02-26T12:39:35Z</time>
      </trkpt>
      <trkpt lat="48.05861" lon="-3.47683">
        <ele>155.6</ele>
        <time>2025-02-26T12:39:36Z</time>
      </trkpt>
      <trkpt lat="48.05862" lon="-3.47683">
        <ele>155.5</ele>
        <time>2025-02-26T12:39:37Z</time>
      </trkpt>
      <trkpt lat="48.05863" lon="-3.47684">
        <ele>155.4</ele>
        <time>2025-02-26T12:39:38Z</time>
      </trkpt>
      <trkpt lat="48.05865" lon="-3.47683">
        <ele>155.3</ele>
        <time>2025-02-26T12:39:39Z</time>
      </trkpt>
      <trkpt lat="48.05866" lon="-3.47682">
        <ele>155.2</ele>
        <time>2025-02-26T12:39:40Z</time>
      </trkpt>
      <trkpt lat="48.05867" lon="-3.47681">
        <ele>155.1</ele>
        <time>2025-02-26T12:39:41Z</time>
      </trkpt>
      <trkpt lat="48.05868" lon="-3.47682">
        <ele>155.1</ele>
        <time>2025-02-26T12:39:42Z</time>
      </trkpt>
      <trkpt lat="48.05869" lon="-3.47681">
        <ele>155</ele>
        <time>2025-02-26T12:39:43Z</time>
      </trkpt>
      <trkpt lat="48.0587" lon="-3.4768">
        <ele>154.9</ele>
        <time>2025-02-26T12:39:44Z</time>
      </trkpt>
      <trkpt lat="48.05871" lon="-3.4768">
        <ele>154.8</ele>
        <time>2025-02-26T12:39:45Z</time>
      </trkpt>
      <trkpt lat="48.05872" lon="-3.47681">
        <ele>154.7</ele>
        <time>2025-02-26T12:39:46Z</time>
      </trkpt>
      <trkpt lat="48.05874" lon="-3.47681">
        <ele>154.6</ele>
        <time>2025-02-26T12:39:47Z</time>
      </trkpt>
      <trkpt lat="48.05874" lon="-3.4768">
        <ele>154.5</ele>
        <time>2025-02-26T12:39:48Z</time>
      </trkpt>
      <trkpt lat="48.05875" lon="-3.4768">
        <ele>154.4</ele>
        <time>2025-02-26T12:39:49Z</time>
      </trkpt>
      <trkpt lat="48.05876" lon="-3.4768">
        <ele>154.4</ele>
        <time>2025-02-26T12:39:50Z</time>
      </trkpt>
      <trkpt lat="48.05877" lon="-3.4768">
        <ele>154.3</ele>
        <time>2025-02-26T12:39:51Z</time>
      </trkpt>
      <trkpt lat="48.05879" lon="-3.47679">
        <ele>154.2</ele>
        <time>2025-02-26T12:39:52Z</time>
      </trkpt>
      <trkpt lat="48.0588" lon="-3.47678">
        <ele>154.1</ele>
        <time>2025-02-26T12:39:53Z</time>
      </trkpt>
      <trkpt lat="48.05881" lon="-3.47678">
        <ele>153.9</ele>
        <time>2025-02-26T12:39:54Z</time>
      </trkpt>
      <trkpt lat="48.05882" lon="-3.47677">
        <ele>153.8</ele>
        <time>2025-02-26T12:39:55Z</time>
      </trkpt>
      <trkpt lat="48.05883" lon="-3.47675">
        <ele>153.7</ele>
        <time>2025-02-26T12:39:56Z</time>
      </trkpt>
      <trkpt lat="48.05884" lon="-3.47675">
        <ele>153.6</ele>
        <time>2025-02-26T12:39:57Z</time>
      </trkpt>
      <trkpt lat="48.05885" lon="-3.47673">
        <ele>153.5</ele>
        <time>2025-02-26T12:39:58Z</time>
      </trkpt>
      <trkpt lat="48.05886" lon="-3.47672">
        <ele>153.4</ele>
        <time>2025-02-26T12:39:59Z</time>
      </trkpt>
      <trkpt lat="48.05887" lon="-3.4767">
        <ele>153.3</ele>
        <time>2025-02-26T12:40:00Z</time>
      </trkpt>
      <trkpt lat="48.05888" lon="-3.47669">
        <ele>153.2</ele>
        <time>2025-02-26T12:40:01Z</time>
      </trkpt>
      <trkpt lat="48.05889" lon="-3.47668">
        <ele>153</ele>
        <time>2025-02-26T12:40:02Z</time>
      </trkpt>
      <trkpt lat="48.0589" lon="-3.47667">
        <ele>152.9</ele>
        <time>2025-02-26T12:40:03Z</time>
      </trkpt>
      <trkpt lat="48.05891" lon="-3.47665">
        <ele>152.6</ele>
        <time>2025-02-26T12:40:04Z</time>
      </trkpt>
      <trkpt lat="48.05892" lon="-3.47664">
        <ele>152.4</ele>
        <time>2025-02-26T12:40:05Z</time>
      </trkpt>
      <trkpt lat="48.05893" lon="-3.47663">
        <ele>152.2</ele>
        <time>2025-02-26T12:40:06Z</time>
      </trkpt>
      <trkpt lat="48.05894" lon="-3.47663">
        <ele>152.1</ele>
        <time>2025-02-26T12:40:07Z</time>
      </trkpt>
      <trkpt lat="48.05895" lon="-3.47663">
        <ele>151.9</ele>
        <time>2025-02-26T12:40:08Z</time>
      </trkpt>
      <trkpt lat="48.05897" lon="-3.47662">
        <ele>151.7</ele>
        <time>2025-02-26T12:40:09Z</time>
      </trkpt>
      <trkpt lat="48.05898" lon="-3.47661">
        <ele>151.4</ele>
        <time>2025-02-26T12:40:10Z</time>
      </trkpt>
      <trkpt lat="48.05899" lon="-3.4766">
        <ele>151.2</ele>
        <time>2025-02-26T12:40:11Z</time>
      </trkpt>
      <trkpt lat="48.059" lon="-3.47661">
        <ele>151.1</ele>
        <time>2025-02-26T12:40:12Z</time>
      </trkpt>
      <trkpt lat="48.05901" lon="-3.47662">
        <ele>151.1</ele>
        <time>2025-02-26T12:40:13Z</time>
      </trkpt>
      <trkpt lat="48.05902" lon="-3.47663">
        <ele>151.1</ele>
        <time>2025-02-26T12:40:14Z</time>
      </trkpt>
      <trkpt lat="48.05903" lon="-3.47664">
        <ele>151.2</ele>
        <time>2025-02-26T12:40:15Z</time>
      </trkpt>
      <trkpt lat="48.05904" lon="-3.47666">
        <ele>151.3</ele>
        <time>2025-02-26T12:40:16Z</time>
      </trkpt>
      <trkpt lat="48.05904" lon="-3.47667">
        <ele>151.3</ele>
        <time>2025-02-26T12:40:17Z</time>
      </trkpt>
      <trkpt lat="48.05905" lon="-3.47668">
        <ele>151.3</ele>
        <time>2025-02-26T12:40:18Z</time>
      </trkpt>
      <trkpt lat="48.05906" lon="-3.47669">
        <ele>151.3</ele>
        <time>2025-02-26T12:40:19Z</time>
      </trkpt>
      <trkpt lat="48.05907" lon="-3.47667">
        <ele>151.1</ele>
        <time>2025-02-26T12:40:20Z</time>
      </trkpt>
      <trkpt lat="48.05908" lon="-3.47666">
        <ele>150.9</ele>
        <time>2025-02-26T12:40:21Z</time>
      </trkpt>
      <trkpt lat="48.05908" lon="-3.47665">
        <ele>150.7</ele>
        <time>2025-02-26T12:40:22Z</time>
      </trkpt>
      <trkpt lat="48.05909" lon="-3.47664">
        <ele>150.4</ele>
        <time>2025-02-26T12:40:23Z</time>
      </trkpt>
      <trkpt lat="48.0591" lon="-3.47663">
        <ele>150.2</ele>
        <time>2025-02-26T12:40:24Z</time>
      </trkpt>
      <trkpt lat="48.05911" lon="-3.47663">
        <ele>150</ele>
        <time>2025-02-26T12:40:25Z</time>
      </trkpt>
      <trkpt lat="48.05912" lon="-3.47662">
        <ele>149.8</ele>
        <time>2025-02-26T12:40:26Z</time>
      </trkpt>
      <trkpt lat="48.05912" lon="-3.47662">
        <ele>149.6</ele>
        <time>2025-02-26T12:40:27Z</time>
      </trkpt>
      <trkpt lat="48.05913" lon="-3.47661">
        <ele>149.4</ele>
        <time>2025-02-26T12:40:28Z</time>
      </trkpt>
      <trkpt lat="48.05913" lon="-3.47659">
        <ele>149.1</ele>
        <time>2025-02-26T12:40:29Z</time>
      </trkpt>
      <trkpt lat="48.05914" lon="-3.47658">
        <ele>148.8</ele>
        <time>2025-02-26T12:40:30Z</time>
      </trkpt>
      <trkpt lat="48.05914" lon="-3.47656">
        <ele>148.5</ele>
        <time>2025-02-26T12:40:31Z</time>
      </trkpt>
      <trkpt lat="48.05914" lon="-3.47655">
        <ele>148.3</ele>
        <time>2025-02-26T12:40:32Z</time>
      </trkpt>
      <trkpt lat="48.05914" lon="-3.47654">
        <ele>148.1</ele>
        <time>2025-02-26T12:40:33Z</time>
      </trkpt>
      <trkpt lat="48.05914" lon="-3.47652">
        <ele>147.8</ele>
        <time>2025-02-26T12:40:34Z</time>
      </trkpt>
      <trkpt lat="48.05914" lon="-3.47652">
        <ele>147.7</ele>
        <time>2025-02-26T12:40:35Z</time>
      </trkpt>
      <trkpt lat="48.05914" lon="-3.47651">
        <ele>147.6</ele>
        <time>2025-02-26T12:40:36Z</time>
      </trkpt>
      <trkpt lat="48.05913" lon="-3.47651">
        <ele>147.7</ele>
        <time>2025-02-26T12:40:37Z</time>
      </trkpt>
      <trkpt lat="48.05913" lon="-3.4765">
        <ele>147.8</ele>
        <time>2025-02-26T12:40:38Z</time>
      </trkpt>
      <trkpt lat="48.05912" lon="-3.4765">
        <ele>147.7</ele>
        <time>2025-02-26T12:40:39Z</time>
      </trkpt>
      <trkpt lat="48.05913" lon="-3.47648">
        <ele>147.4</ele>
        <time>2025-02-26T12:40:40Z</time>
      </trkpt>
      <trkpt lat="48.05913" lon="-3.47647">
        <ele>147.1</ele>
        <time>2025-02-26T12:40:41Z</time>
      </trkpt>
      <trkpt lat="48.05913" lon="-3.47646">
        <ele>146.9</ele>
        <time>2025-02-26T12:40:42Z</time>
      </trkpt>
      <trkpt lat="48.05913" lon="-3.47645">
        <ele>146.7</ele>
        <time>2025-02-26T12:40:43Z</time>
      </trkpt>
      <trkpt lat="48.05914" lon="-3.47644">
        <ele>146.4</ele>
        <time>2025-02-26T12:40:44Z</time>
      </trkpt>
      <trkpt lat="48.05914" lon="-3.47642">
        <ele>146.1</ele>
        <time>2025-02-26T12:40:45Z</time>
      </trkpt>
      <trkpt lat="48.05914" lon="-3.47641">
        <ele>145.8</ele>
        <time>2025-02-26T12:40:46Z</time>
      </trkpt>
      <trkpt lat="48.05915" lon="-3.47639">
        <ele>145.5</ele>
        <time>2025-02-26T12:40:47Z</time>
      </trkpt>
      <trkpt lat="48.05915" lon="-3.47638">
        <ele>145</ele>
        <time>2025-02-26T12:40:48Z</time>
      </trkpt>
      <trkpt lat="48.05916" lon="-3.47636">
        <ele>144.5</ele>
        <time>2025-02-26T12:40:49Z</time>
      </trkpt>
      <trkpt lat="48.05916" lon="-3.47635">
        <ele>144</ele>
        <time>2025-02-26T12:40:50Z</time>
      </trkpt>
      <trkpt lat="48.05917" lon="-3.47633">
        <ele>143.6</ele>
        <time>2025-02-26T12:40:51Z</time>
      </trkpt>
      <trkpt lat="48.05917" lon="-3.47632">
        <ele>143.1</ele>
        <time>2025-02-26T12:40:52Z</time>
      </trkpt>
      <trkpt lat="48.05918" lon="-3.4763">
        <ele>142.6</ele>
        <time>2025-02-26T12:40:53Z</time>
      </trkpt>
      <trkpt lat="48.05918" lon="-3.47629">
        <ele>142.2</ele>
        <time>2025-02-26T12:40:54Z</time>
      </trkpt>
      <trkpt lat="48.05919" lon="-3.47627">
        <ele>141.8</ele>
        <time>2025-02-26T12:40:55Z</time>
      </trkpt>
      <trkpt lat="48.0592" lon="-3.47626">
        <ele>141.3</ele>
        <time>2025-02-26T12:40:56Z</time>
      </trkpt>
      <trkpt lat="48.0592" lon="-3.47624">
        <ele>140.8</ele>
        <time>2025-02-26T12:40:57Z</time>
      </trkpt>
      <trkpt lat="48.05921" lon="-3.47621">
        <ele>140.1</ele>
        <time>2025-02-26T12:40:58Z</time>
      </trkpt>
      <trkpt lat="48.05921" lon="-3.4762">
        <ele>139.8</ele>
        <time>2025-02-26T12:40:59Z</time>
      </trkpt>
      <trkpt lat="48.05922" lon="-3.47619">
        <ele>139.4</ele>
        <time>2025-02-26T12:41:00Z</time>
      </trkpt>
      <trkpt lat="48.05922" lon="-3.47617">
        <ele>139</ele>
        <time>2025-02-26T12:41:01Z</time>
      </trkpt>
      <trkpt lat="48.05923" lon="-3.47616">
        <ele>138.6</ele>
        <time>2025-02-26T12:41:02Z</time>
      </trkpt>
      <trkpt lat="48.05923" lon="-3.47614">
        <ele>138.2</ele>
        <time>2025-02-26T12:41:03Z</time>
      </trkpt>
      <trkpt lat="48.05924" lon="-3.47613">
        <ele>137.9</ele>
        <time>2025-02-26T12:41:04Z</time>
      </trkpt>
      <trkpt lat="48.05925" lon="-3.47612">
        <ele>137.5</ele>
        <time>2025-02-26T12:41:05Z</time>
      </trkpt>
      <trkpt lat="48.05926" lon="-3.4761">
        <ele>137.3</ele>
        <time>2025-02-26T12:41:06Z</time>
      </trkpt>
      <trkpt lat="48.05926" lon="-3.47609">
        <ele>137.1</ele>
        <time>2025-02-26T12:41:07Z</time>
      </trkpt>
      <trkpt lat="48.05927" lon="-3.47608">
        <ele>136.9</ele>
        <time>2025-02-26T12:41:08Z</time>
      </trkpt>
      <trkpt lat="48.05927" lon="-3.47606">
        <ele>136.7</ele>
        <time>2025-02-26T12:41:09Z</time>
      </trkpt>
      <trkpt lat="48.05928" lon="-3.47605">
        <ele>136.5</ele>
        <time>2025-02-26T12:41:10Z</time>
      </trkpt>
      <trkpt lat="48.05928" lon="-3.47603">
        <ele>136.3</ele>
        <time>2025-02-26T12:41:11Z</time>
      </trkpt>
      <trkpt lat="48.05928" lon="-3.47602">
        <ele>136.2</ele>
        <time>2025-02-26T12:41:12Z</time>
      </trkpt>
      <trkpt lat="48.05928" lon="-3.476">
        <ele>136</ele>
        <time>2025-02-26T12:41:13Z</time>
      </trkpt>
      <trkpt lat="48.05929" lon="-3.47599">
        <ele>135.8</ele>
        <time>2025-02-26T12:41:14Z</time>
      </trkpt>
      <trkpt lat="48.0593" lon="-3.47598">
        <ele>135.6</ele>
        <time>2025-02-26T12:41:15Z</time>
      </trkpt>
      <trkpt lat="48.05931" lon="-3.47597">
        <ele>135.4</ele>
        <time>2025-02-26T12:41:16Z</time>
      </trkpt>
      <trkpt lat="48.05931" lon="-3.47594">
        <ele>135.1</ele>
        <time>2025-02-26T12:41:17Z</time>
      </trkpt>
      <trkpt lat="48.05932" lon="-3.47593">
        <ele>134.9</ele>
        <time>2025-02-26T12:41:18Z</time>
      </trkpt>
      <trkpt lat="48.05932" lon="-3.47591">
        <ele>134.8</ele>
        <time>2025-02-26T12:41:19Z</time>
      </trkpt>
      <trkpt lat="48.05932" lon="-3.4759">
        <ele>134.6</ele>
        <time>2025-02-26T12:41:20Z</time>
      </trkpt>
      <trkpt lat="48.05933" lon="-3.47589">
        <ele>134.4</ele>
        <time>2025-02-26T12:41:21Z</time>
      </trkpt>
      <trkpt lat="48.05934" lon="-3.47588">
        <ele>134.2</ele>
        <time>2025-02-26T12:41:22Z</time>
      </trkpt>
      <trkpt lat="48.05935" lon="-3.47586">
        <ele>134</ele>
        <time>2025-02-26T12:41:23Z</time>
      </trkpt>
      <trkpt lat="48.05935" lon="-3.47584">
        <ele>133.8</ele>
        <time>2025-02-26T12:41:24Z</time>
      </trkpt>
      <trkpt lat="48.05936" lon="-3.47583">
        <ele>133.6</ele>
        <time>2025-02-26T12:41:25Z</time>
      </trkpt>
      <trkpt lat="48.05936" lon="-3.47582">
        <ele>133.4</ele>
        <time>2025-02-26T12:41:26Z</time>
      </trkpt>
      <trkpt lat="48.05937" lon="-3.47581">
        <ele>133.3</ele>
        <time>2025-02-26T12:41:27Z</time>
      </trkpt>
      <trkpt lat="48.05938" lon="-3.4758">
        <ele>133.1</ele>
        <time>2025-02-26T12:41:28Z</time>
      </trkpt>
      <trkpt lat="48.05938" lon="-3.47579">
        <ele>133</ele>
        <time>2025-02-26T12:41:29Z</time>
      </trkpt>
      <trkpt lat="48.05938" lon="-3.47577">
        <ele>132.8</ele>
        <time>2025-02-26T12:41:30Z</time>
      </trkpt>
      <trkpt lat="48.05938" lon="-3.47576">
        <ele>132.7</ele>
        <time>2025-02-26T12:41:31Z</time>
      </trkpt>
      <trkpt lat="48.05938" lon="-3.47574">
        <ele>132.5</ele>
        <time>2025-02-26T12:41:32Z</time>
      </trkpt>
      <trkpt lat="48.05939" lon="-3.47573">
        <ele>132.3</ele>
        <time>2025-02-26T12:41:33Z</time>
      </trkpt>
      <trkpt lat="48.05939" lon="-3.47571">
        <ele>132.1</ele>
        <time>2025-02-26T12:41:34Z</time>
      </trkpt>
      <trkpt lat="48.0594" lon="-3.4757">
        <ele>131.9</ele>
        <time>2025-02-26T12:41:35Z</time>
      </trkpt>
      <trkpt lat="48.0594" lon="-3.47569">
        <ele>131.8</ele>
        <time>2025-02-26T12:41:36Z</time>
      </trkpt>
      <trkpt lat="48.05942" lon="-3.47569">
        <ele>131.6</ele>
        <time>2025-02-26T12:41:37Z</time>
      </trkpt>
      <trkpt lat="48.05943" lon="-3.47567">
        <ele>131.3</ele>
        <time>2025-02-26T12:41:38Z</time>
      </trkpt>
      <trkpt lat="48.05943" lon="-3.47565">
        <ele>131.1</ele>
        <time>2025-02-26T12:41:39Z</time>
      </trkpt>
      <trkpt lat="48.05943" lon="-3.47564">
        <ele>131</ele>
        <time>2025-02-26T12:41:40Z</time>
      </trkpt>
      <trkpt lat="48.05944" lon="-3.47562">
        <ele>130.7</ele>
        <time>2025-02-26T12:41:41Z</time>
      </trkpt>
      <trkpt lat="48.05944" lon="-3.4756">
        <ele>130.5</ele>
        <time>2025-02-26T12:41:42Z</time>
      </trkpt>
      <trkpt lat="48.05944" lon="-3.47558">
        <ele>130.4</ele>
        <time>2025-02-26T12:41:43Z</time>
      </trkpt>
      <trkpt lat="48.05944" lon="-3.47557">
        <ele>130.2</ele>
        <time>2025-02-26T12:41:44Z</time>
      </trkpt>
      <trkpt lat="48.05944" lon="-3.47556">
        <ele>130.1</ele>
        <time>2025-02-26T12:41:45Z</time>
      </trkpt>
      <trkpt lat="48.05945" lon="-3.47555">
        <ele>130</ele>
        <time>2025-02-26T12:41:46Z</time>
      </trkpt>
      <trkpt lat="48.05946" lon="-3.47554">
        <ele>129.8</ele>
        <time>2025-02-26T12:41:47Z</time>
      </trkpt>
      <trkpt lat="48.05946" lon="-3.47553">
        <ele>129.7</ele>
        <time>2025-02-26T12:41:48Z</time>
      </trkpt>
      <trkpt lat="48.05947" lon="-3.47551">
        <ele>129.6</ele>
        <time>2025-02-26T12:41:49Z</time>
      </trkpt>
      <trkpt lat="48.05946" lon="-3.4755">
        <ele>129.5</ele>
        <time>2025-02-26T12:41:50Z</time>
      </trkpt>
      <trkpt lat="48.05947" lon="-3.47548">
        <ele>129.4</ele>
        <time>2025-02-26T12:41:51Z</time>
      </trkpt>
      <trkpt lat="48.05947" lon="-3.47547">
        <ele>129.3</ele>
        <time>2025-02-26T12:41:52Z</time>
      </trkpt>
      <trkpt lat="48.05948" lon="-3.47545">
        <ele>129.1</ele>
        <time>2025-02-26T12:41:53Z</time>
      </trkpt>
      <trkpt lat="48.05949" lon="-3.47544">
        <ele>129</ele>
        <time>2025-02-26T12:41:54Z</time>
      </trkpt>
      <trkpt lat="48.05949" lon="-3.47543">
        <ele>128.9</ele>
        <time>2025-02-26T12:41:55Z</time>
      </trkpt>
      <trkpt lat="48.05948" lon="-3.47541">
        <ele>128.8</ele>
        <time>2025-02-26T12:41:56Z</time>
      </trkpt>
      <trkpt lat="48.05948" lon="-3.47539">
        <ele>128.7</ele>
        <time>2025-02-26T12:41:57Z</time>
      </trkpt>
      <trkpt lat="48.05947" lon="-3.47538">
        <ele>128.7</ele>
        <time>2025-02-26T12:41:58Z</time>
      </trkpt>
      <trkpt lat="48.05946" lon="-3.47537">
        <ele>128.6</ele>
        <time>2025-02-26T12:41:59Z</time>
      </trkpt>
      <trkpt lat="48.05945" lon="-3.47536">
        <ele>128.6</ele>
        <time>2025-02-26T12:42:00Z</time>
      </trkpt>
      <trkpt lat="48.05943" lon="-3.47535">
        <ele>128.6</ele>
        <time>2025-02-26T12:42:01Z</time>
      </trkpt>
      <trkpt lat="48.05942" lon="-3.47534">
        <ele>128.5</ele>
        <time>2025-02-26T12:42:02Z</time>
      </trkpt>
      <trkpt lat="48.05941" lon="-3.47534">
        <ele>128.6</ele>
        <time>2025-02-26T12:42:03Z</time>
      </trkpt>
      <trkpt lat="48.0594" lon="-3.47533">
        <ele>128.6</ele>
        <time>2025-02-26T12:42:04Z</time>
      </trkpt>
      <trkpt lat="48.05939" lon="-3.47532">
        <ele>128.5</ele>
        <time>2025-02-26T12:42:05Z</time>
      </trkpt>
      <trkpt lat="48.05938" lon="-3.47531">
        <ele>128.5</ele>
        <time>2025-02-26T12:42:06Z</time>
      </trkpt>
      <trkpt lat="48.05937" lon="-3.47531">
        <ele>128.5</ele>
        <time>2025-02-26T12:42:07Z</time>
      </trkpt>
      <trkpt lat="48.05936" lon="-3.47531">
        <ele>128.5</ele>
        <time>2025-02-26T12:42:08Z</time>
      </trkpt>
      <trkpt lat="48.05935" lon="-3.47531">
        <ele>128.6</ele>
        <time>2025-02-26T12:42:09Z</time>
      </trkpt>
      <trkpt lat="48.05934" lon="-3.4753">
        <ele>128.6</ele>
        <time>2025-02-26T12:42:10Z</time>
      </trkpt>
      <trkpt lat="48.05932" lon="-3.47531">
        <ele>128.7</ele>
        <time>2025-02-26T12:42:11Z</time>
      </trkpt>
      <trkpt lat="48.05931" lon="-3.4753">
        <ele>128.7</ele>
        <time>2025-02-26T12:42:12Z</time>
      </trkpt>
      <trkpt lat="48.0593" lon="-3.47529">
        <ele>128.6</ele>
        <time>2025-02-26T12:42:13Z</time>
      </trkpt>
      <trkpt lat="48.05929" lon="-3.47528">
        <ele>128.6</ele>
        <time>2025-02-26T12:42:14Z</time>
      </trkpt>
      <trkpt lat="48.05928" lon="-3.47528">
        <ele>128.6</ele>
        <time>2025-02-26T12:42:15Z</time>
      </trkpt>
      <trkpt lat="48.05927" lon="-3.47528">
        <ele>128.6</ele>
        <time>2025-02-26T12:42:16Z</time>
      </trkpt>
      <trkpt lat="48.05926" lon="-3.47527">
        <ele>128.6</ele>
        <time>2025-02-26T12:42:17Z</time>
      </trkpt>
      <trkpt lat="48.05925" lon="-3.47527">
        <ele>128.7</ele>
        <time>2025-02-26T12:42:18Z</time>
      </trkpt>
      <trkpt lat="48.05923" lon="-3.47526">
        <ele>128.7</ele>
        <time>2025-02-26T12:42:19Z</time>
      </trkpt>
      <trkpt lat="48.05922" lon="-3.47526">
        <ele>128.7</ele>
        <time>2025-02-26T12:42:20Z</time>
      </trkpt>
      <trkpt lat="48.05921" lon="-3.47525">
        <ele>128.7</ele>
        <time>2025-02-26T12:42:21Z</time>
      </trkpt>
      <trkpt lat="48.0592" lon="-3.47525">
        <ele>128.8</ele>
        <time>2025-02-26T12:42:22Z</time>
      </trkpt>
      <trkpt lat="48.05919" lon="-3.47525">
        <ele>128.8</ele>
        <time>2025-02-26T12:42:23Z</time>
      </trkpt>
      <trkpt lat="48.05918" lon="-3.47524">
        <ele>128.8</ele>
        <time>2025-02-26T12:42:24Z</time>
      </trkpt>
      <trkpt lat="48.05916" lon="-3.47525">
        <ele>128.9</ele>
        <time>2025-02-26T12:42:25Z</time>
      </trkpt>
      <trkpt lat="48.05915" lon="-3.47524">
        <ele>128.9</ele>
        <time>2025-02-26T12:42:26Z</time>
      </trkpt>
      <trkpt lat="48.05913" lon="-3.47524">
        <ele>129</ele>
        <time>2025-02-26T12:42:27Z</time>
      </trkpt>
      <trkpt lat="48.05913" lon="-3.47524">
        <ele>129</ele>
        <time>2025-02-26T12:42:28Z</time>
      </trkpt>
      <trkpt lat="48.05912" lon="-3.47523">
        <ele>129</ele>
        <time>2025-02-26T12:42:29Z</time>
      </trkpt>
      <trkpt lat="48.05911" lon="-3.47523">
        <ele>129</ele>
        <time>2025-02-26T12:42:30Z</time>
      </trkpt>
      <trkpt lat="48.0591" lon="-3.47523">
        <ele>129</ele>
        <time>2025-02-26T12:42:31Z</time>
      </trkpt>
      <trkpt lat="48.05908" lon="-3.47522">
        <ele>129</ele>
        <time>2025-02-26T12:42:32Z</time>
      </trkpt>
      <trkpt lat="48.05907" lon="-3.47523">
        <ele>129.1</ele>
        <time>2025-02-26T12:42:33Z</time>
      </trkpt>
      <trkpt lat="48.05906" lon="-3.47523">
        <ele>129.1</ele>
        <time>2025-02-26T12:42:34Z</time>
      </trkpt>
      <trkpt lat="48.05905" lon="-3.47523">
        <ele>129.2</ele>
        <time>2025-02-26T12:42:35Z</time>
      </trkpt>
      <trkpt lat="48.05904" lon="-3.47523">
        <ele>129.2</ele>
        <time>2025-02-26T12:42:36Z</time>
      </trkpt>
      <trkpt lat="48.05903" lon="-3.47523">
        <ele>129.2</ele>
        <time>2025-02-26T12:42:37Z</time>
      </trkpt>
      <trkpt lat="48.05902" lon="-3.47523">
        <ele>129.2</ele>
        <time>2025-02-26T12:42:38Z</time>
      </trkpt>
      <trkpt lat="48.05901" lon="-3.47521">
        <ele>129.2</ele>
        <time>2025-02-26T12:42:39Z</time>
      </trkpt>
      <trkpt lat="48.059" lon="-3.47521">
        <ele>129.2</ele>
        <time>2025-02-26T12:42:40Z</time>
      </trkpt>
      <trkpt lat="48.05899" lon="-3.4752">
        <ele>129.2</ele>
        <time>2025-02-26T12:42:41Z</time>
      </trkpt>
      <trkpt lat="48.05898" lon="-3.47519">
        <ele>129.1</ele>
        <time>2025-02-26T12:42:42Z</time>
      </trkpt>
      <trkpt lat="48.05896" lon="-3.47518">
        <ele>129.2</ele>
        <time>2025-02-26T12:42:43Z</time>
      </trkpt>
      <trkpt lat="48.05895" lon="-3.47518">
        <ele>129.1</ele>
        <time>2025-02-26T12:42:44Z</time>
      </trkpt>
      <trkpt lat="48.05893" lon="-3.47517">
        <ele>129.2</ele>
        <time>2025-02-26T12:42:45Z</time>
      </trkpt>
      <trkpt lat="48.05891" lon="-3.47517">
        <ele>129.1</ele>
        <time>2025-02-26T12:42:46Z</time>
      </trkpt>
      <trkpt lat="48.0589" lon="-3.47516">
        <ele>129.1</ele>
        <time>2025-02-26T12:42:47Z</time>
      </trkpt>
      <trkpt lat="48.05888" lon="-3.47513">
        <ele>129</ele>
        <time>2025-02-26T12:42:48Z</time>
      </trkpt>
      <trkpt lat="48.05888" lon="-3.4751">
        <ele>128.8</ele>
        <time>2025-02-26T12:42:49Z</time>
      </trkpt>
      <trkpt lat="48.05888" lon="-3.47508">
        <ele>128.6</ele>
        <time>2025-02-26T12:42:50Z</time>
      </trkpt>
      <trkpt lat="48.05889" lon="-3.47506">
        <ele>128.4</ele>
        <time>2025-02-26T12:42:51Z</time>
      </trkpt>
      <trkpt lat="48.0589" lon="-3.47504">
        <ele>128.2</ele>
        <time>2025-02-26T12:42:52Z</time>
      </trkpt>
      <trkpt lat="48.0589" lon="-3.47502">
        <ele>128.1</ele>
        <time>2025-02-26T12:42:53Z</time>
      </trkpt>
      <trkpt lat="48.0589" lon="-3.475">
        <ele>128</ele>
        <time>2025-02-26T12:42:54Z</time>
      </trkpt>
      <trkpt lat="48.05891" lon="-3.47499">
        <ele>127.9</ele>
        <time>2025-02-26T12:42:55Z</time>
      </trkpt>
      <trkpt lat="48.05891" lon="-3.47497">
        <ele>127.9</ele>
        <time>2025-02-26T12:42:56Z</time>
      </trkpt>
      <trkpt lat="48.05891" lon="-3.47496">
        <ele>127.8</ele>
        <time>2025-02-26T12:42:57Z</time>
      </trkpt>
      <trkpt lat="48.05892" lon="-3.47494">
        <ele>127.8</ele>
        <time>2025-02-26T12:42:58Z</time>
      </trkpt>
      <trkpt lat="48.05893" lon="-3.47492">
        <ele>127.7</ele>
        <time>2025-02-26T12:42:59Z</time>
      </trkpt>
      <trkpt lat="48.05893" lon="-3.47491">
        <ele>127.6</ele>
        <time>2025-02-26T12:43:00Z</time>
      </trkpt>
      <trkpt lat="48.05893" lon="-3.47489">
        <ele>127.6</ele>
        <time>2025-02-26T12:43:01Z</time>
      </trkpt>
      <trkpt lat="48.05893" lon="-3.47488">
        <ele>127.5</ele>
        <time>2025-02-26T12:43:02Z</time>
      </trkpt>
      <trkpt lat="48.05893" lon="-3.47486">
        <ele>127.4</ele>
        <time>2025-02-26T12:43:03Z</time>
      </trkpt>
      <trkpt lat="48.05894" lon="-3.47485">
        <ele>127.4</ele>
        <time>2025-02-26T12:43:04Z</time>
      </trkpt>
      <trkpt lat="48.05894" lon="-3.47484">
        <ele>127.3</ele>
        <time>2025-02-26T12:43:05Z</time>
      </trkpt>
      <trkpt lat="48.05895" lon="-3.47482">
        <ele>127.2</ele>
        <time>2025-02-26T12:43:06Z</time>
      </trkpt>
      <trkpt lat="48.05895" lon="-3.47481">
        <ele>127.1</ele>
        <time>2025-02-26T12:43:07Z</time>
      </trkpt>
      <trkpt lat="48.05895" lon="-3.47479">
        <ele>127.1</ele>
        <time>2025-02-26T12:43:08Z</time>
      </trkpt>
      <trkpt lat="48.05895" lon="-3.47477">
        <ele>127</ele>
        <time>2025-02-26T12:43:09Z</time>
      </trkpt>
      <trkpt lat="48.05895" lon="-3.47476">
        <ele>127</ele>
        <time>2025-02-26T12:43:10Z</time>
      </trkpt>
      <trkpt lat="48.05894" lon="-3.47475">
        <ele>127</ele>
        <time>2025-02-26T12:43:11Z</time>
      </trkpt>
      <trkpt lat="48.05893" lon="-3.47475">
        <ele>127</ele>
        <time>2025-02-26T12:43:12Z</time>
      </trkpt>
      <trkpt lat="48.05891" lon="-3.47476">
        <ele>127.1</ele>
        <time>2025-02-26T12:43:13Z</time>
      </trkpt>
      <trkpt lat="48.05891" lon="-3.47476">
        <ele>127.1</ele>
        <time>2025-02-26T12:43:14Z</time>
      </trkpt>
      <trkpt lat="48.0589" lon="-3.47476">
        <ele>127.1</ele>
        <time>2025-02-26T12:43:15Z</time>
      </trkpt>
      <trkpt lat="48.05889" lon="-3.47476">
        <ele>127.1</ele>
        <time>2025-02-26T12:43:16Z</time>
      </trkpt>
      <trkpt lat="48.05888" lon="-3.47477">
        <ele>127.2</ele>
        <time>2025-02-26T12:43:17Z</time>
      </trkpt>
      <trkpt lat="48.05887" lon="-3.47477">
        <ele>127.2</ele>
        <time>2025-02-26T12:43:18Z</time>
      </trkpt>
      <trkpt lat="48.05885" lon="-3.47477">
        <ele>127.2</ele>
        <time>2025-02-26T12:43:19Z</time>
      </trkpt>
      <trkpt lat="48.05884" lon="-3.47478">
        <ele>127.2</ele>
        <time>2025-02-26T12:43:20Z</time>
      </trkpt>
      <trkpt lat="48.05883" lon="-3.47479">
        <ele>127.2</ele>
        <time>2025-02-26T12:43:21Z</time>
      </trkpt>
      <trkpt lat="48.05883" lon="-3.47479">
        <ele>127.3</ele>
        <time>2025-02-26T12:43:22Z</time>
      </trkpt>
      <trkpt lat="48.05882" lon="-3.4748">
        <ele>127.3</ele>
        <time>2025-02-26T12:43:23Z</time>
      </trkpt>
      <trkpt lat="48.0588" lon="-3.4748">
        <ele>127.3</ele>
        <time>2025-02-26T12:43:24Z</time>
      </trkpt>
      <trkpt lat="48.05879" lon="-3.47481">
        <ele>127.3</ele>
        <time>2025-02-26T12:43:25Z</time>
      </trkpt>
      <trkpt lat="48.05878" lon="-3.47481">
        <ele>127.3</ele>
        <time>2025-02-26T12:43:26Z</time>
      </trkpt>
      <trkpt lat="48.05877" lon="-3.47482">
        <ele>127.4</ele>
        <time>2025-02-26T12:43:27Z</time>
      </trkpt>
      <trkpt lat="48.05876" lon="-3.47482">
        <ele>127.3</ele>
        <time>2025-02-26T12:43:28Z</time>
      </trkpt>
      <trkpt lat="48.05875" lon="-3.47481">
        <ele>127.3</ele>
        <time>2025-02-26T12:43:29Z</time>
      </trkpt>
      <trkpt lat="48.05874" lon="-3.4748">
        <ele>127.3</ele>
        <time>2025-02-26T12:43:30Z</time>
      </trkpt>
      <trkpt lat="48.05873" lon="-3.47479">
        <ele>127.2</ele>
        <time>2025-02-26T12:43:31Z</time>
      </trkpt>
      <trkpt lat="48.05871" lon="-3.47479">
        <ele>127.2</ele>
        <time>2025-02-26T12:43:32Z</time>
      </trkpt>
      <trkpt lat="48.0587" lon="-3.47479">
        <ele>127.2</ele>
        <time>2025-02-26T12:43:33Z</time>
      </trkpt>
      <trkpt lat="48.0587" lon="-3.47477">
        <ele>127.2</ele>
        <time>2025-02-26T12:43:34Z</time>
      </trkpt>
      <trkpt lat="48.05869" lon="-3.47477">
        <ele>127.2</ele>
        <time>2025-02-26T12:43:35Z</time>
      </trkpt>
      <trkpt lat="48.05868" lon="-3.47476">
        <ele>127.1</ele>
        <time>2025-02-26T12:43:36Z</time>
      </trkpt>
      <trkpt lat="48.05868" lon="-3.47475">
        <ele>127.1</ele>
        <time>2025-02-26T12:43:37Z</time>
      </trkpt>
      <trkpt lat="48.05868" lon="-3.47473">
        <ele>127</ele>
        <time>2025-02-26T12:43:38Z</time>
      </trkpt>
      <trkpt lat="48.05867" lon="-3.47472">
        <ele>127</ele>
        <time>2025-02-26T12:43:39Z</time>
      </trkpt>
      <trkpt lat="48.05867" lon="-3.47471">
        <ele>127</ele>
        <time>2025-02-26T12:43:40Z</time>
      </trkpt>
      <trkpt lat="48.05866" lon="-3.4747">
        <ele>127</ele>
        <time>2025-02-26T12:43:41Z</time>
      </trkpt>
      <trkpt lat="48.05865" lon="-3.47469">
        <ele>127</ele>
        <time>2025-02-26T12:43:42Z</time>
      </trkpt>
      <trkpt lat="48.05865" lon="-3.47467">
        <ele>127</ele>
        <time>2025-02-26T12:43:43Z</time>
      </trkpt>
      <trkpt lat="48.05864" lon="-3.47466">
        <ele>127</ele>
        <time>2025-02-26T12:43:44Z</time>
      </trkpt>
      <trkpt lat="48.05863" lon="-3.47465">
        <ele>127</ele>
        <time>2025-02-26T12:43:45Z</time>
      </trkpt>
      <trkpt lat="48.05863" lon="-3.47464">
        <ele>127</ele>
        <time>2025-02-26T12:43:46Z</time>
      </trkpt>
      <trkpt lat="48.05862" lon="-3.47463">
        <ele>127</ele>
        <time>2025-02-26T12:43:47Z</time>
      </trkpt>
      <trkpt lat="48.05861" lon="-3.47462">
        <ele>127</ele>
        <time>2025-02-26T12:43:48Z</time>
      </trkpt>
      <trkpt lat="48.0586" lon="-3.47461">
        <ele>127</ele>
        <time>2025-02-26T12:43:49Z</time>
      </trkpt>
      <trkpt lat="48.05859" lon="-3.4746">
        <ele>127</ele>
        <time>2025-02-26T12:43:50Z</time>
      </trkpt>
      <trkpt lat="48.05858" lon="-3.47459">
        <ele>127</ele>
        <time>2025-02-26T12:43:51Z</time>
      </trkpt>
      <trkpt lat="48.05858" lon="-3.47457">
        <ele>126.9</ele>
        <time>2025-02-26T12:43:52Z</time>
      </trkpt>
      <trkpt lat="48.05857" lon="-3.47456">
        <ele>126.9</ele>
        <time>2025-02-26T12:43:53Z</time>
      </trkpt>
      <trkpt lat="48.05855" lon="-3.47455">
        <ele>126.9</ele>
        <time>2025-02-26T12:43:54Z</time>
      </trkpt>
      <trkpt lat="48.05854" lon="-3.47454">
        <ele>126.8</ele>
        <time>2025-02-26T12:43:55Z</time>
      </trkpt>
      <trkpt lat="48.05854" lon="-3.47453">
        <ele>126.8</ele>
        <time>2025-02-26T12:43:56Z</time>
      </trkpt>
      <trkpt lat="48.05854" lon="-3.47452">
        <ele>126.8</ele>
        <time>2025-02-26T12:43:57Z</time>
      </trkpt>
      <trkpt lat="48.05854" lon="-3.47451">
        <ele>126.8</ele>
        <time>2025-02-26T12:43:58Z</time>
      </trkpt>
      <trkpt lat="48.05854" lon="-3.4745">
        <ele>126.8</ele>
        <time>2025-02-26T12:43:59Z</time>
      </trkpt>
      <trkpt lat="48.05853" lon="-3.47449">
        <ele>126.8</ele>
        <time>2025-02-26T12:44:00Z</time>
      </trkpt>
      <trkpt lat="48.05853" lon="-3.47448">
        <ele>126.7</ele>
        <time>2025-02-26T12:44:01Z</time>
      </trkpt>
      <trkpt lat="48.05852" lon="-3.47447">
        <ele>126.7</ele>
        <time>2025-02-26T12:44:02Z</time>
      </trkpt>
      <trkpt lat="48.05851" lon="-3.47446">
        <ele>126.7</ele>
        <time>2025-02-26T12:44:03Z</time>
      </trkpt>
      <trkpt lat="48.05851" lon="-3.47445">
        <ele>126.6</ele>
        <time>2025-02-26T12:44:04Z</time>
      </trkpt>
      <trkpt lat="48.0585" lon="-3.47444">
        <ele>126.6</ele>
        <time>2025-02-26T12:44:05Z</time>
      </trkpt>
      <trkpt lat="48.0585" lon="-3.47445">
        <ele>126.6</ele>
        <time>2025-02-26T12:44:06Z</time>
      </trkpt>
      <trkpt lat="48.05849" lon="-3.47444">
        <ele>126.6</ele>
        <time>2025-02-26T12:44:07Z</time>
      </trkpt>
      <trkpt lat="48.05849" lon="-3.47443">
        <ele>126.5</ele>
        <time>2025-02-26T12:44:08Z</time>
      </trkpt>
      <trkpt lat="48.05848" lon="-3.47442">
        <ele>126.5</ele>
        <time>2025-02-26T12:44:09Z</time>
      </trkpt>
      <trkpt lat="48.05848" lon="-3.47442">
        <ele>126.5</ele>
        <time>2025-02-26T12:44:10Z</time>
      </trkpt>
      <trkpt lat="48.05847" lon="-3.47442">
        <ele>126.5</ele>
        <time>2025-02-26T12:44:11Z</time>
      </trkpt>
      <trkpt lat="48.05847" lon="-3.47442">
        <ele>126.5</ele>
        <time>2025-02-26T12:44:12Z</time>
      </trkpt>
      <trkpt lat="48.05847" lon="-3.47442">
        <ele>126.5</ele>
        <time>2025-02-26T12:44:13Z</time>
      </trkpt>
      <trkpt lat="48.05848" lon="-3.47442">
        <ele>126.5</ele>
        <time>2025-02-26T12:44:14Z</time>
      </trkpt>
      <trkpt lat="48.05847" lon="-3.47443">
        <ele>126.5</ele>
        <time>2025-02-26T12:44:15Z</time>
      </trkpt>
      <trkpt lat="48.05847" lon="-3.47444">
        <ele>126.5</ele>
        <time>2025-02-26T12:44:16Z</time>
      </trkpt>
      <trkpt lat="48.05846" lon="-3.47443">
        <ele>126.4</ele>
        <time>2025-02-26T12:44:17Z</time>
      </trkpt>
      <trkpt lat="48.05845" lon="-3.47443">
        <ele>126.4</ele>
        <time>2025-02-26T12:44:18Z</time>
      </trkpt>
      <trkpt lat="48.05845" lon="-3.47444">
        <ele>126.4</ele>
        <time>2025-02-26T12:44:19Z</time>
      </trkpt>
      <trkpt lat="48.05845" lon="-3.47444">
        <ele>126.4</ele>
        <time>2025-02-26T12:44:20Z</time>
      </trkpt>
      <trkpt lat="48.05845" lon="-3.47444">
        <ele>126.4</ele>
        <time>2025-02-26T12:44:21Z</time>
      </trkpt>
      <trkpt lat="48.05845" lon="-3.47445">
        <ele>126.4</ele>
        <time>2025-02-26T12:44:22Z</time>
      </trkpt>
      <trkpt lat="48.05846" lon="-3.47445">
        <ele>126.5</ele>
        <time>2025-02-26T12:44:23Z</time>
      </trkpt>
      <trkpt lat="48.05846" lon="-3.47446">
        <ele>126.5</ele>
        <time>2025-02-26T12:44:24Z</time>
      </trkpt>
      <trkpt lat="48.05845" lon="-3.47447">
        <ele>126.5</ele>
        <time>2025-02-26T12:44:25Z</time>
      </trkpt>
      <trkpt lat="48.05845" lon="-3.47447">
        <ele>126.5</ele>
        <time>2025-02-26T12:44:26Z</time>
      </trkpt>
      <trkpt lat="48.05845" lon="-3.47448">
        <ele>126.5</ele>
        <time>2025-02-26T12:44:27Z</time>
      </trkpt>
      <trkpt lat="48.05845" lon="-3.47449">
        <ele>126.5</ele>
        <time>2025-02-26T12:44:28Z</time>
      </trkpt>
      <trkpt lat="48.05845" lon="-3.4745">
        <ele>126.5</ele>
        <time>2025-02-26T12:44:29Z</time>
      </trkpt>
      <trkpt lat="48.05845" lon="-3.4745">
        <ele>126.5</ele>
        <time>2025-02-26T12:44:30Z</time>
      </trkpt>
      <trkpt lat="48.05845" lon="-3.4745">
        <ele>126.5</ele>
        <time>2025-02-26T12:44:31Z</time>
      </trkpt>
      <trkpt lat="48.05845" lon="-3.4745">
        <ele>126.5</ele>
        <time>2025-02-26T12:44:32Z</time>
      </trkpt>
      <trkpt lat="48.05845" lon="-3.4745">
        <ele>126.5</ele>
        <time>2025-02-26T12:44:33Z</time>
      </trkpt>
      <trkpt lat="48.05845" lon="-3.4745">
        <ele>126.5</ele>
        <time>2025-02-26T12:44:34Z</time>
      </trkpt>
      <trkpt lat="48.05845" lon="-3.4745">
        <ele>126.5</ele>
        <time>2025-02-26T12:44:35Z</time>
      </trkpt>
      <trkpt lat="48.05845" lon="-3.4745">
        <ele>126.5</ele>
        <time>2025-02-26T12:44:36Z</time>
      </trkpt>
      <trkpt lat="48.05845" lon="-3.4745">
        <ele>126.5</ele>
        <time>2025-02-26T12:44:37Z</time>
      </trkpt>
      <trkpt lat="48.05845" lon="-3.4745">
        <ele>126.5</ele>
        <time>2025-02-26T12:44:38Z</time>
      </trkpt>
      <trkpt lat="48.05845" lon="-3.4745">
        <ele>126.5</ele>
        <time>2025-02-26T12:44:39Z</time>
      </trkpt>
      <trkpt lat="48.05845" lon="-3.4745">
        <ele>126.5</ele>
        <time>2025-02-26T12:44:40Z</time>
      </trkpt>
      <trkpt lat="48.05845" lon="-3.4745">
        <ele>126.5</ele>
        <time>2025-02-26T12:44:41Z</time>
      </trkpt>
      <trkpt lat="48.05845" lon="-3.47449">
        <ele>126.5</ele>
        <time>2025-02-26T12:44:42Z</time>
      </trkpt>
      <trkpt lat="48.05844" lon="-3.47449">
        <ele>126.5</ele>
        <time>2025-02-26T12:44:43Z</time>
      </trkpt>
      <trkpt lat="48.05844" lon="-3.4745">
        <ele>126.5</ele>
        <time>2025-02-26T12:44:44Z</time>
      </trkpt>
      <trkpt lat="48.05845" lon="-3.4745">
        <ele>126.5</ele>
        <time>2025-02-26T12:44:45Z</time>
      </trkpt>
      <trkpt lat="48.05845" lon="-3.4745">
        <ele>126.5</ele>
        <time>2025-02-26T12:44:46Z</time>
      </trkpt>
      <trkpt lat="48.05845" lon="-3.4745">
        <ele>126.5</ele>
        <time>2025-02-26T12:44:47Z</time>
      </trkpt>
      <trkpt lat="48.05845" lon="-3.4745">
        <ele>126.5</ele>
        <time>2025-02-26T12:44:48Z</time>
      </trkpt>
      <trkpt lat="48.05845" lon="-3.4745">
        <ele>126.5</ele>
        <time>2025-02-26T12:44:49Z</time>
      </trkpt>
      <trkpt lat="48.05845" lon="-3.4745">
        <ele>126.5</ele>
        <time>2025-02-26T12:44:50Z</time>
      </trkpt>
      <trkpt lat="48.05845" lon="-3.4745">
        <ele>126.5</ele>
        <time>2025-02-26T12:44:51Z</time>
      </trkpt>
      <trkpt lat="48.05845" lon="-3.4745">
        <ele>126.5</ele>
        <time>2025-02-26T12:44:52Z</time>
      </trkpt>
      <trkpt lat="48.05845" lon="-3.47451">
        <ele>126.5</ele>
        <time>2025-02-26T12:44:53Z</time>
      </trkpt>
      <trkpt lat="48.05845" lon="-3.47451">
        <ele>126.6</ele>
        <time>2025-02-26T12:44:54Z</time>
      </trkpt>
      <trkpt lat="48.05845" lon="-3.47453">
        <ele>126.6</ele>
        <time>2025-02-26T12:44:55Z</time>
      </trkpt>
      <trkpt lat="48.05846" lon="-3.47455">
        <ele>126.7</ele>
        <time>2025-02-26T12:44:56Z</time>
      </trkpt>
      <trkpt lat="48.05847" lon="-3.47457">
        <ele>126.7</ele>
        <time>2025-02-26T12:44:57Z</time>
      </trkpt>
      <trkpt lat="48.05847" lon="-3.47459">
        <ele>126.8</ele>
        <time>2025-02-26T12:44:58Z</time>
      </trkpt>
      <trkpt lat="48.05847" lon="-3.4746">
        <ele>126.8</ele>
        <time>2025-02-26T12:44:59Z</time>
      </trkpt>
      <trkpt lat="48.05847" lon="-3.47461">
        <ele>126.8</ele>
        <time>2025-02-26T12:45:00Z</time>
      </trkpt>
      <trkpt lat="48.05847" lon="-3.47462">
        <ele>126.8</ele>
        <time>2025-02-26T12:45:01Z</time>
      </trkpt>
      <trkpt lat="48.05846" lon="-3.47463">
        <ele>126.8</ele>
        <time>2025-02-26T12:45:02Z</time>
      </trkpt>
      <trkpt lat="48.05846" lon="-3.47463">
        <ele>126.8</ele>
        <time>2025-02-26T12:45:03Z</time>
      </trkpt>
      <trkpt lat="48.05845" lon="-3.47462">
        <ele>126.8</ele>
        <time>2025-02-26T12:45:04Z</time>
      </trkpt>
      <trkpt lat="48.05844" lon="-3.47461">
        <ele>126.8</ele>
        <time>2025-02-26T12:45:05Z</time>
      </trkpt>
      <trkpt lat="48.05843" lon="-3.4746">
        <ele>126.7</ele>
        <time>2025-02-26T12:45:06Z</time>
      </trkpt>
      <trkpt lat="48.05842" lon="-3.47459">
        <ele>126.7</ele>
        <time>2025-02-26T12:45:07Z</time>
      </trkpt>
      <trkpt lat="48.05841" lon="-3.47458">
        <ele>126.6</ele>
        <time>2025-02-26T12:45:08Z</time>
      </trkpt>
      <trkpt lat="48.0584" lon="-3.47458">
        <ele>126.6</ele>
        <time>2025-02-26T12:45:09Z</time>
      </trkpt>
      <trkpt lat="48.05838" lon="-3.47458">
        <ele>126.6</ele>
        <time>2025-02-26T12:45:10Z</time>
      </trkpt>
      <trkpt lat="48.05837" lon="-3.47459">
        <ele>126.6</ele>
        <time>2025-02-26T12:45:11Z</time>
      </trkpt>
      <trkpt lat="48.05836" lon="-3.4746">
        <ele>126.6</ele>
        <time>2025-02-26T12:45:12Z</time>
      </trkpt>
      <trkpt lat="48.05835" lon="-3.47461">
        <ele>126.6</ele>
        <time>2025-02-26T12:45:13Z</time>
      </trkpt>
      <trkpt lat="48.05835" lon="-3.47461">
        <ele>126.6</ele>
        <time>2025-02-26T12:45:14Z</time>
      </trkpt>
      <trkpt lat="48.05835" lon="-3.47461">
        <ele>126.6</ele>
        <time>2025-02-26T12:45:15Z</time>
      </trkpt>
      <trkpt lat="48.05835" lon="-3.47461">
        <ele>126.6</ele>
        <time>2025-02-26T12:45:16Z</time>
      </trkpt>
      <trkpt lat="48.05835" lon="-3.47462">
        <ele>126.6</ele>
        <time>2025-02-26T12:45:17Z</time>
      </trkpt>
      <trkpt lat="48.05835" lon="-3.47462">
        <ele>126.6</ele>
        <time>2025-02-26T12:45:18Z</time>
      </trkpt>
      <trkpt lat="48.05835" lon="-3.47462">
        <ele>126.6</ele>
        <time>2025-02-26T12:45:19Z</time>
      </trkpt>
      <trkpt lat="48.05835" lon="-3.47463">
        <ele>126.7</ele>
        <time>2025-02-26T12:45:20Z</time>
      </trkpt>
      <trkpt lat="48.05836" lon="-3.47464">
        <ele>126.7</ele>
        <time>2025-02-26T12:45:21Z</time>
      </trkpt>
      <trkpt lat="48.05836" lon="-3.47465">
        <ele>126.8</ele>
        <time>2025-02-26T12:45:22Z</time>
      </trkpt>
      <trkpt lat="48.05837" lon="-3.47466">
        <ele>126.8</ele>
        <time>2025-02-26T12:45:23Z</time>
      </trkpt>
      <trkpt lat="48.05837" lon="-3.47466">
        <ele>126.8</ele>
        <time>2025-02-26T12:45:24Z</time>
      </trkpt>
      <trkpt lat="48.05837" lon="-3.47467">
        <ele>126.8</ele>
        <time>2025-02-26T12:45:25Z</time>
      </trkpt>
      <trkpt lat="48.05837" lon="-3.47468">
        <ele>126.9</ele>
        <time>2025-02-26T12:45:26Z</time>
      </trkpt>
      <trkpt lat="48.05837" lon="-3.47469">
        <ele>126.9</ele>
        <time>2025-02-26T12:45:27Z</time>
      </trkpt>
      <trkpt lat="48.05836" lon="-3.47471">
        <ele>127</ele>
        <time>2025-02-26T12:45:28Z</time>
      </trkpt>
      <trkpt lat="48.05836" lon="-3.47472">
        <ele>127</ele>
        <time>2025-02-26T12:45:29Z</time>
      </trkpt>
      <trkpt lat="48.05836" lon="-3.47471">
        <ele>127</ele>
        <time>2025-02-26T12:45:30Z</time>
      </trkpt>
      <trkpt lat="48.05835" lon="-3.47473">
        <ele>127.1</ele>
        <time>2025-02-26T12:45:31Z</time>
      </trkpt>
      <trkpt lat="48.05835" lon="-3.47475">
        <ele>127.3</ele>
        <time>2025-02-26T12:45:32Z</time>
      </trkpt>
      <trkpt lat="48.05834" lon="-3.47477">
        <ele>127.5</ele>
        <time>2025-02-26T12:45:33Z</time>
      </trkpt>
      <trkpt lat="48.05834" lon="-3.47479">
        <ele>127.7</ele>
        <time>2025-02-26T12:45:34Z</time>
      </trkpt>
      <trkpt lat="48.05834" lon="-3.4748">
        <ele>127.8</ele>
        <time>2025-02-26T12:45:35Z</time>
      </trkpt>
      <trkpt lat="48.05833" lon="-3.47482">
        <ele>128</ele>
        <time>2025-02-26T12:45:36Z</time>
      </trkpt>
      <trkpt lat="48.05834" lon="-3.47483">
        <ele>128.2</ele>
        <time>2025-02-26T12:45:37Z</time>
      </trkpt>
      <trkpt lat="48.05834" lon="-3.47484">
        <ele>128.3</ele>
        <time>2025-02-26T12:45:38Z</time>
      </trkpt>
      <trkpt lat="48.05834" lon="-3.47484">
        <ele>128.2</ele>
        <time>2025-02-26T12:45:39Z</time>
      </trkpt>
      <trkpt lat="48.05834" lon="-3.47485">
        <ele>128.3</ele>
        <time>2025-02-26T12:45:40Z</time>
      </trkpt>
      <trkpt lat="48.05835" lon="-3.47484">
        <ele>128.3</ele>
        <time>2025-02-26T12:45:41Z</time>
      </trkpt>
      <trkpt lat="48.05836" lon="-3.47484">
        <ele>128.1</ele>
        <time>2025-02-26T12:45:42Z</time>
      </trkpt>
      <trkpt lat="48.05837" lon="-3.47482">
        <ele>128</ele>
        <time>2025-02-26T12:45:43Z</time>
      </trkpt>
      <trkpt lat="48.05838" lon="-3.4748">
        <ele>127.7</ele>
        <time>2025-02-26T12:45:44Z</time>
      </trkpt>
      <trkpt lat="48.05838" lon="-3.47478">
        <ele>127.6</ele>
        <time>2025-02-26T12:45:45Z</time>
      </trkpt>
      <trkpt lat="48.05839" lon="-3.47477">
        <ele>127.4</ele>
        <time>2025-02-26T12:45:46Z</time>
      </trkpt>
      <trkpt lat="48.05839" lon="-3.47475">
        <ele>127.3</ele>
        <time>2025-02-26T12:45:47Z</time>
      </trkpt>
      <trkpt lat="48.0584" lon="-3.47474">
        <ele>127.2</ele>
        <time>2025-02-26T12:45:48Z</time>
      </trkpt>
      <trkpt lat="48.05839" lon="-3.47472">
        <ele>127</ele>
        <time>2025-02-26T12:45:49Z</time>
      </trkpt>
      <trkpt lat="48.05839" lon="-3.47469">
        <ele>126.9</ele>
        <time>2025-02-26T12:45:50Z</time>
      </trkpt>
      <trkpt lat="48.05838" lon="-3.47467">
        <ele>126.8</ele>
        <time>2025-02-26T12:45:51Z</time>
      </trkpt>
      <trkpt lat="48.05836" lon="-3.47465">
        <ele>126.8</ele>
        <time>2025-02-26T12:45:52Z</time>
      </trkpt>
      <trkpt lat="48.05834" lon="-3.47463">
        <ele>126.7</ele>
        <time>2025-02-26T12:45:53Z</time>
      </trkpt>
      <trkpt lat="48.05832" lon="-3.47462">
        <ele>126.7</ele>
        <time>2025-02-26T12:45:54Z</time>
      </trkpt>
      <trkpt lat="48.05829" lon="-3.4746">
        <ele>126.7</ele>
        <time>2025-02-26T12:45:55Z</time>
      </trkpt>
      <trkpt lat="48.05827" lon="-3.4746">
        <ele>126.8</ele>
        <time>2025-02-26T12:45:56Z</time>
      </trkpt>
      <trkpt lat="48.05826" lon="-3.47459">
        <ele>126.8</ele>
        <time>2025-02-26T12:45:57Z</time>
      </trkpt>
      <trkpt lat="48.05824" lon="-3.47459">
        <ele>126.9</ele>
        <time>2025-02-26T12:45:58Z</time>
      </trkpt>
      <trkpt lat="48.05822" lon="-3.47458">
        <ele>126.9</ele>
        <time>2025-02-26T12:45:59Z</time>
      </trkpt>
      <trkpt lat="48.05821" lon="-3.47456">
        <ele>126.9</ele>
        <time>2025-02-26T12:46:00Z</time>
      </trkpt>
      <trkpt lat="48.0582" lon="-3.47455">
        <ele>126.9</ele>
        <time>2025-02-26T12:46:01Z</time>
      </trkpt>
      <trkpt lat="48.05818" lon="-3.47454">
        <ele>126.9</ele>
        <time>2025-02-26T12:46:02Z</time>
      </trkpt>
      <trkpt lat="48.05817" lon="-3.47453">
        <ele>126.9</ele>
        <time>2025-02-26T12:46:03Z</time>
      </trkpt>
      <trkpt lat="48.05817" lon="-3.47451">
        <ele>126.8</ele>
        <time>2025-02-26T12:46:04Z</time>
      </trkpt>
      <trkpt lat="48.05817" lon="-3.4745">
        <ele>126.8</ele>
        <time>2025-02-26T12:46:05Z</time>
      </trkpt>
      <trkpt lat="48.05816" lon="-3.47449">
        <ele>126.8</ele>
        <time>2025-02-26T12:46:06Z</time>
      </trkpt>
      <trkpt lat="48.05815" lon="-3.47448">
        <ele>126.8</ele>
        <time>2025-02-26T12:46:07Z</time>
      </trkpt>
      <trkpt lat="48.05815" lon="-3.47446">
        <ele>126.7</ele>
        <time>2025-02-26T12:46:08Z</time>
      </trkpt>
      <trkpt lat="48.05815" lon="-3.47445">
        <ele>126.7</ele>
        <time>2025-02-26T12:46:09Z</time>
      </trkpt>
      <trkpt lat="48.05815" lon="-3.47444">
        <ele>126.6</ele>
        <time>2025-02-26T12:46:10Z</time>
      </trkpt>
      <trkpt lat="48.05816" lon="-3.47443">
        <ele>126.6</ele>
        <time>2025-02-26T12:46:11Z</time>
      </trkpt>
      <trkpt lat="48.05816" lon="-3.47442">
        <ele>126.6</ele>
        <time>2025-02-26T12:46:12Z</time>
      </trkpt>
      <trkpt lat="48.05816" lon="-3.47442">
        <ele>126.6</ele>
        <time>2025-02-26T12:46:13Z</time>
      </trkpt>
      <trkpt lat="48.05816" lon="-3.4744">
        <ele>126.5</ele>
        <time>2025-02-26T12:46:14Z</time>
      </trkpt>
      <trkpt lat="48.05816" lon="-3.47439">
        <ele>126.5</ele>
        <time>2025-02-26T12:46:15Z</time>
      </trkpt>
      <trkpt lat="48.05816" lon="-3.47438">
        <ele>126.5</ele>
        <time>2025-02-26T12:46:16Z</time>
      </trkpt>
      <trkpt lat="48.05816" lon="-3.47436">
        <ele>126.4</ele>
        <time>2025-02-26T12:46:17Z</time>
      </trkpt>
      <trkpt lat="48.05816" lon="-3.47436">
        <ele>126.4</ele>
        <time>2025-02-26T12:46:18Z</time>
      </trkpt>
      <trkpt lat="48.05816" lon="-3.47436">
        <ele>126.4</ele>
        <time>2025-02-26T12:46:19Z</time>
      </trkpt>
      <trkpt lat="48.05815" lon="-3.47435">
        <ele>126.4</ele>
        <time>2025-02-26T12:46:20Z</time>
      </trkpt>
      <trkpt lat="48.05815" lon="-3.47432">
        <ele>126.4</ele>
        <time>2025-02-26T12:46:21Z</time>
      </trkpt>
      <trkpt lat="48.05814" lon="-3.4743">
        <ele>126.3</ele>
        <time>2025-02-26T12:46:22Z</time>
      </trkpt>
      <trkpt lat="48.05813" lon="-3.4743">
        <ele>126.3</ele>
        <time>2025-02-26T12:46:23Z</time>
      </trkpt>
      <trkpt lat="48.05812" lon="-3.4743">
        <ele>126.3</ele>
        <time>2025-02-26T12:46:24Z</time>
      </trkpt>
      <trkpt lat="48.05811" lon="-3.47429">
        <ele>126.4</ele>
        <time>2025-02-26T12:46:25Z</time>
      </trkpt>
      <trkpt lat="48.0581" lon="-3.47428">
        <ele>126.4</ele>
        <time>2025-02-26T12:46:26Z</time>
      </trkpt>
      <trkpt lat="48.0581" lon="-3.47428">
        <ele>126.4</ele>
        <time>2025-02-26T12:46:27Z</time>
      </trkpt>
      <trkpt lat="48.0581" lon="-3.47428">
        <ele>126.4</ele>
        <time>2025-02-26T12:46:28Z</time>
      </trkpt>
      <trkpt lat="48.0581" lon="-3.47428">
        <ele>126.4</ele>
        <time>2025-02-26T12:46:29Z</time>
      </trkpt>
      <trkpt lat="48.0581" lon="-3.47428">
        <ele>126.4</ele>
        <time>2025-02-26T12:46:30Z</time>
      </trkpt>
      <trkpt lat="48.0581" lon="-3.47428">
        <ele>126.3</ele>
        <time>2025-02-26T12:46:31Z</time>
      </trkpt>
      <trkpt lat="48.0581" lon="-3.47428">
        <ele>126.3</ele>
        <time>2025-02-26T12:46:32Z</time>
      </trkpt>
      <trkpt lat="48.0581" lon="-3.47429">
        <ele>126.4</ele>
        <time>2025-02-26T12:46:33Z</time>
      </trkpt>
      <trkpt lat="48.0581" lon="-3.4743">
        <ele>126.4</ele>
        <time>2025-02-26T12:46:34Z</time>
      </trkpt>
      <trkpt lat="48.0581" lon="-3.47431">
        <ele>126.4</ele>
        <time>2025-02-26T12:46:35Z</time>
      </trkpt>
      <trkpt lat="48.0581" lon="-3.47432">
        <ele>126.4</ele>
        <time>2025-02-26T12:46:36Z</time>
      </trkpt>
      <trkpt lat="48.0581" lon="-3.47433">
        <ele>126.5</ele>
        <time>2025-02-26T12:46:37Z</time>
      </trkpt>
      <trkpt lat="48.0581" lon="-3.47433">
        <ele>126.5</ele>
        <time>2025-02-26T12:46:38Z</time>
      </trkpt>
      <trkpt lat="48.0581" lon="-3.47433">
        <ele>126.5</ele>
        <time>2025-02-26T12:46:39Z</time>
      </trkpt>
      <trkpt lat="48.05811" lon="-3.47433">
        <ele>126.5</ele>
        <time>2025-02-26T12:46:40Z</time>
      </trkpt>
      <trkpt lat="48.05811" lon="-3.47433">
        <ele>126.5</ele>
        <time>2025-02-26T12:46:41Z</time>
      </trkpt>
      <trkpt lat="48.0581" lon="-3.47433">
        <ele>126.5</ele>
        <time>2025-02-26T12:46:42Z</time>
      </trkpt>
      <trkpt lat="48.0581" lon="-3.47433">
        <ele>126.5</ele>
        <time>2025-02-26T12:46:43Z</time>
      </trkpt>
      <trkpt lat="48.0581" lon="-3.47433">
        <ele>126.5</ele>
        <time>2025-02-26T12:46:44Z</time>
      </trkpt>
      <trkpt lat="48.0581" lon="-3.47434">
        <ele>126.5</ele>
        <time>2025-02-26T12:46:45Z</time>
      </trkpt>
      <trkpt lat="48.0581" lon="-3.47434">
        <ele>126.5</ele>
        <time>2025-02-26T12:46:46Z</time>
      </trkpt>
      <trkpt lat="48.05809" lon="-3.47436">
        <ele>126.6</ele>
        <time>2025-02-26T12:46:47Z</time>
      </trkpt>
      <trkpt lat="48.05809" lon="-3.47436">
        <ele>126.6</ele>
        <time>2025-02-26T12:46:48Z</time>
      </trkpt>
      <trkpt lat="48.05809" lon="-3.47436">
        <ele>126.6</ele>
        <time>2025-02-26T12:46:49Z</time>
      </trkpt>
      <trkpt lat="48.05808" lon="-3.47436">
        <ele>126.7</ele>
        <time>2025-02-26T12:46:50Z</time>
      </trkpt>
      <trkpt lat="48.05806" lon="-3.47437">
        <ele>126.7</ele>
        <time>2025-02-26T12:46:51Z</time>
      </trkpt>
      <trkpt lat="48.05805" lon="-3.47438">
        <ele>126.8</ele>
        <time>2025-02-26T12:46:52Z</time>
      </trkpt>
      <trkpt lat="48.05804" lon="-3.47438">
        <ele>126.8</ele>
        <time>2025-02-26T12:46:53Z</time>
      </trkpt>
      <trkpt lat="48.05803" lon="-3.47433">
        <ele>126.6</ele>
        <time>2025-02-26T12:46:54Z</time>
      </trkpt>
      <trkpt lat="48.05801" lon="-3.47431">
        <ele>126.6</ele>
        <time>2025-02-26T12:46:55Z</time>
      </trkpt>
      <trkpt lat="48.058" lon="-3.4743">
        <ele>126.6</ele>
        <time>2025-02-26T12:46:56Z</time>
      </trkpt>
      <trkpt lat="48.058" lon="-3.47431">
        <ele>126.6</ele>
        <time>2025-02-26T12:46:57Z</time>
      </trkpt>
      <trkpt lat="48.05799" lon="-3.47431">
        <ele>126.6</ele>
        <time>2025-02-26T12:46:58Z</time>
      </trkpt>
      <trkpt lat="48.05798" lon="-3.47432">
        <ele>126.7</ele>
        <time>2025-02-26T12:46:59Z</time>
      </trkpt>
      <trkpt lat="48.05798" lon="-3.47431">
        <ele>126.7</ele>
        <time>2025-02-26T12:47:00Z</time>
      </trkpt>
      <trkpt lat="48.05797" lon="-3.47431">
        <ele>126.7</ele>
        <time>2025-02-26T12:47:01Z</time>
      </trkpt>
      <trkpt lat="48.05796" lon="-3.4743">
        <ele>126.7</ele>
        <time>2025-02-26T12:47:02Z</time>
      </trkpt>
      <trkpt lat="48.05795" lon="-3.47428">
        <ele>126.6</ele>
        <time>2025-02-26T12:47:03Z</time>
      </trkpt>
      <trkpt lat="48.05795" lon="-3.47426">
        <ele>126.6</ele>
        <time>2025-02-26T12:47:04Z</time>
      </trkpt>
      <trkpt lat="48.05795" lon="-3.47424">
        <ele>126.6</ele>
        <time>2025-02-26T12:47:05Z</time>
      </trkpt>
      <trkpt lat="48.05794" lon="-3.47423">
        <ele>126.5</ele>
        <time>2025-02-26T12:47:06Z</time>
      </trkpt>
      <trkpt lat="48.05793" lon="-3.47422">
        <ele>126.6</ele>
        <time>2025-02-26T12:47:07Z</time>
      </trkpt>
      <trkpt lat="48.05792" lon="-3.4742">
        <ele>126.6</ele>
        <time>2025-02-26T12:47:08Z</time>
      </trkpt>
      <trkpt lat="48.05791" lon="-3.4742">
        <ele>126.6</ele>
        <time>2025-02-26T12:47:09Z</time>
      </trkpt>
      <trkpt lat="48.0579" lon="-3.4742">
        <ele>126.6</ele>
        <time>2025-02-26T12:47:10Z</time>
      </trkpt>
      <trkpt lat="48.05789" lon="-3.47419">
        <ele>126.6</ele>
        <time>2025-02-26T12:47:11Z</time>
      </trkpt>
      <trkpt lat="48.05788" lon="-3.47419">
        <ele>126.7</ele>
        <time>2025-02-26T12:47:12Z</time>
      </trkpt>
      <trkpt lat="48.05786" lon="-3.47419">
        <ele>126.7</ele>
        <time>2025-02-26T12:47:13Z</time>
      </trkpt>
      <trkpt lat="48.05785" lon="-3.47419">
        <ele>126.8</ele>
        <time>2025-02-26T12:47:14Z</time>
      </trkpt>
      <trkpt lat="48.05784" lon="-3.47418">
        <ele>126.8</ele>
        <time>2025-02-26T12:47:15Z</time>
      </trkpt>
      <trkpt lat="48.05783" lon="-3.47419">
        <ele>126.8</ele>
        <time>2025-02-26T12:47:16Z</time>
      </trkpt>
      <trkpt lat="48.05782" lon="-3.4742">
        <ele>126.9</ele>
        <time>2025-02-26T12:47:17Z</time>
      </trkpt>
      <trkpt lat="48.05781" lon="-3.47421">
        <ele>126.9</ele>
        <time>2025-02-26T12:47:18Z</time>
      </trkpt>
      <trkpt lat="48.05781" lon="-3.47422">
        <ele>126.9</ele>
        <time>2025-02-26T12:47:19Z</time>
      </trkpt>
      <trkpt lat="48.0578" lon="-3.47423">
        <ele>126.9</ele>
        <time>2025-02-26T12:47:20Z</time>
      </trkpt>
      <trkpt lat="48.0578" lon="-3.47422">
        <ele>126.9</ele>
        <time>2025-02-26T12:47:21Z</time>
      </trkpt>
      <trkpt lat="48.05779" lon="-3.47422">
        <ele>127</ele>
        <time>2025-02-26T12:47:22Z</time>
      </trkpt>
      <trkpt lat="48.05778" lon="-3.47421">
        <ele>127</ele>
        <time>2025-02-26T12:47:23Z</time>
      </trkpt>
      <trkpt lat="48.05777" lon="-3.47421">
        <ele>127</ele>
        <time>2025-02-26T12:47:24Z</time>
      </trkpt>
      <trkpt lat="48.05777" lon="-3.4742">
        <ele>127</ele>
        <time>2025-02-26T12:47:25Z</time>
      </trkpt>
      <trkpt lat="48.05777" lon="-3.4742">
        <ele>127</ele>
        <time>2025-02-26T12:47:26Z</time>
      </trkpt>
      <trkpt lat="48.05776" lon="-3.47421">
        <ele>127</ele>
        <time>2025-02-26T12:47:27Z</time>
      </trkpt>
      <trkpt lat="48.05775" lon="-3.4742">
        <ele>127</ele>
        <time>2025-02-26T12:47:28Z</time>
      </trkpt>
      <trkpt lat="48.05775" lon="-3.47421">
        <ele>127</ele>
        <time>2025-02-26T12:47:29Z</time>
      </trkpt>
      <trkpt lat="48.05774" lon="-3.47421">
        <ele>127</ele>
        <time>2025-02-26T12:47:30Z</time>
      </trkpt>
      <trkpt lat="48.05773" lon="-3.47421">
        <ele>127</ele>
        <time>2025-02-26T12:47:31Z</time>
      </trkpt>
      <trkpt lat="48.05772" lon="-3.47422">
        <ele>127</ele>
        <time>2025-02-26T12:47:32Z</time>
      </trkpt>
      <trkpt lat="48.05771" lon="-3.47422">
        <ele>127</ele>
        <time>2025-02-26T12:47:33Z</time>
      </trkpt>
      <trkpt lat="48.0577" lon="-3.47422">
        <ele>127</ele>
        <time>2025-02-26T12:47:34Z</time>
      </trkpt>
      <trkpt lat="48.05769" lon="-3.47421">
        <ele>127</ele>
        <time>2025-02-26T12:47:35Z</time>
      </trkpt>
      <trkpt lat="48.05769" lon="-3.47421">
        <ele>127</ele>
        <time>2025-02-26T12:47:36Z</time>
      </trkpt>
      <trkpt lat="48.05768" lon="-3.47421">
        <ele>127.1</ele>
        <time>2025-02-26T12:47:37Z</time>
      </trkpt>
      <trkpt lat="48.05766" lon="-3.47421">
        <ele>127.1</ele>
        <time>2025-02-26T12:47:38Z</time>
      </trkpt>
      <trkpt lat="48.05765" lon="-3.47422">
        <ele>127.1</ele>
        <time>2025-02-26T12:47:39Z</time>
      </trkpt>
      <trkpt lat="48.05764" lon="-3.47422">
        <ele>127.1</ele>
        <time>2025-02-26T12:47:40Z</time>
      </trkpt>
      <trkpt lat="48.05763" lon="-3.47422">
        <ele>127.1</ele>
        <time>2025-02-26T12:47:41Z</time>
      </trkpt>
      <trkpt lat="48.05761" lon="-3.47422">
        <ele>127.1</ele>
        <time>2025-02-26T12:47:42Z</time>
      </trkpt>
      <trkpt lat="48.0576" lon="-3.47422">
        <ele>127.1</ele>
        <time>2025-02-26T12:47:43Z</time>
      </trkpt>
      <trkpt lat="48.05759" lon="-3.47424">
        <ele>127.2</ele>
        <time>2025-02-26T12:47:44Z</time>
      </trkpt>
      <trkpt lat="48.05758" lon="-3.47423">
        <ele>127.2</ele>
        <time>2025-02-26T12:47:45Z</time>
      </trkpt>
      <trkpt lat="48.05757" lon="-3.47423">
        <ele>127.2</ele>
        <time>2025-02-26T12:47:46Z</time>
      </trkpt>
      <trkpt lat="48.05756" lon="-3.47423">
        <ele>127.2</ele>
        <time>2025-02-26T12:47:47Z</time>
      </trkpt>
      <trkpt lat="48.05755" lon="-3.47424">
        <ele>127.2</ele>
        <time>2025-02-26T12:47:48Z</time>
      </trkpt>
      <trkpt lat="48.05754" lon="-3.47424">
        <ele>127.2</ele>
        <time>2025-02-26T12:47:49Z</time>
      </trkpt>
      <trkpt lat="48.05753" lon="-3.47425">
        <ele>127.3</ele>
        <time>2025-02-26T12:47:50Z</time>
      </trkpt>
      <trkpt lat="48.05752" lon="-3.47426">
        <ele>127.3</ele>
        <time>2025-02-26T12:47:51Z</time>
      </trkpt>
      <trkpt lat="48.05751" lon="-3.47427">
        <ele>127.3</ele>
        <time>2025-02-26T12:47:52Z</time>
      </trkpt>
      <trkpt lat="48.05751" lon="-3.47428">
        <ele>127.4</ele>
        <time>2025-02-26T12:47:53Z</time>
      </trkpt>
      <trkpt lat="48.0575" lon="-3.47429">
        <ele>127.5</ele>
        <time>2025-02-26T12:47:54Z</time>
      </trkpt>
      <trkpt lat="48.05749" lon="-3.47431">
        <ele>127.5</ele>
        <time>2025-02-26T12:47:55Z</time>
      </trkpt>
      <trkpt lat="48.05748" lon="-3.47432">
        <ele>127.5</ele>
        <time>2025-02-26T12:47:56Z</time>
      </trkpt>
      <trkpt lat="48.05748" lon="-3.47432">
        <ele>127.5</ele>
        <time>2025-02-26T12:47:57Z</time>
      </trkpt>
      <trkpt lat="48.05747" lon="-3.47432">
        <ele>127.6</ele>
        <time>2025-02-26T12:47:58Z</time>
      </trkpt>
      <trkpt lat="48.05746" lon="-3.47434">
        <ele>127.6</ele>
        <time>2025-02-26T12:47:59Z</time>
      </trkpt>
      <trkpt lat="48.05746" lon="-3.47435">
        <ele>127.7</ele>
        <time>2025-02-26T12:48:00Z</time>
      </trkpt>
      <trkpt lat="48.05745" lon="-3.47436">
        <ele>127.7</ele>
        <time>2025-02-26T12:48:01Z</time>
      </trkpt>
      <trkpt lat="48.05744" lon="-3.47437">
        <ele>127.7</ele>
        <time>2025-02-26T12:48:02Z</time>
      </trkpt>
      <trkpt lat="48.05743" lon="-3.47438">
        <ele>127.8</ele>
        <time>2025-02-26T12:48:03Z</time>
      </trkpt>
      <trkpt lat="48.05743" lon="-3.47439">
        <ele>127.8</ele>
        <time>2025-02-26T12:48:04Z</time>
      </trkpt>
      <trkpt lat="48.05743" lon="-3.47441">
        <ele>127.9</ele>
        <time>2025-02-26T12:48:05Z</time>
      </trkpt>
      <trkpt lat="48.05742" lon="-3.47442">
        <ele>127.9</ele>
        <time>2025-02-26T12:48:06Z</time>
      </trkpt>
      <trkpt lat="48.05742" lon="-3.47444">
        <ele>128</ele>
        <time>2025-02-26T12:48:07Z</time>
      </trkpt>
      <trkpt lat="48.05741" lon="-3.47445">
        <ele>128</ele>
        <time>2025-02-26T12:48:08Z</time>
      </trkpt>
      <trkpt lat="48.05741" lon="-3.47447">
        <ele>128.1</ele>
        <time>2025-02-26T12:48:09Z</time>
      </trkpt>
      <trkpt lat="48.0574" lon="-3.47448">
        <ele>128.2</ele>
        <time>2025-02-26T12:48:10Z</time>
      </trkpt>
      <trkpt lat="48.05739" lon="-3.47451">
        <ele>128.3</ele>
        <time>2025-02-26T12:48:11Z</time>
      </trkpt>
      <trkpt lat="48.05738" lon="-3.47453">
        <ele>128.4</ele>
        <time>2025-02-26T12:48:12Z</time>
      </trkpt>
      <trkpt lat="48.05737" lon="-3.47454">
        <ele>128.5</ele>
        <time>2025-02-26T12:48:13Z</time>
      </trkpt>
      <trkpt lat="48.05737" lon="-3.47456">
        <ele>128.6</ele>
        <time>2025-02-26T12:48:14Z</time>
      </trkpt>
      <trkpt lat="48.05736" lon="-3.47457">
        <ele>128.7</ele>
        <time>2025-02-26T12:48:15Z</time>
      </trkpt>
      <trkpt lat="48.05735" lon="-3.47458">
        <ele>128.8</ele>
        <time>2025-02-26T12:48:16Z</time>
      </trkpt>
      <trkpt lat="48.05734" lon="-3.4746">
        <ele>128.8</ele>
        <time>2025-02-26T12:48:17Z</time>
      </trkpt>
      <trkpt lat="48.05734" lon="-3.47461">
        <ele>128.9</ele>
        <time>2025-02-26T12:48:18Z</time>
      </trkpt>
      <trkpt lat="48.05733" lon="-3.47462">
        <ele>129</ele>
        <time>2025-02-26T12:48:19Z</time>
      </trkpt>
      <trkpt lat="48.05732" lon="-3.47463">
        <ele>129.1</ele>
        <time>2025-02-26T12:48:20Z</time>
      </trkpt>
      <trkpt lat="48.05732" lon="-3.47465">
        <ele>129.2</ele>
        <time>2025-02-26T12:48:21Z</time>
      </trkpt>
      <trkpt lat="48.05731" lon="-3.47467">
        <ele>129.4</ele>
        <time>2025-02-26T12:48:22Z</time>
      </trkpt>
      <trkpt lat="48.0573" lon="-3.47468">
        <ele>129.5</ele>
        <time>2025-02-26T12:48:23Z</time>
      </trkpt>
      <trkpt lat="48.05729" lon="-3.47469">
        <ele>129.6</ele>
        <time>2025-02-26T12:48:24Z</time>
      </trkpt>
      <trkpt lat="48.05728" lon="-3.4747">
        <ele>129.6</ele>
        <time>2025-02-26T12:48:25Z</time>
      </trkpt>
      <trkpt lat="48.05728" lon="-3.47472">
        <ele>129.8</ele>
        <time>2025-02-26T12:48:26Z</time>
      </trkpt>
      <trkpt lat="48.05727" lon="-3.47473">
        <ele>129.9</ele>
        <time>2025-02-26T12:48:27Z</time>
      </trkpt>
      <trkpt lat="48.05726" lon="-3.47474">
        <ele>130</ele>
        <time>2025-02-26T12:48:28Z</time>
      </trkpt>
      <trkpt lat="48.05725" lon="-3.47474">
        <ele>130.1</ele>
        <time>2025-02-26T12:48:29Z</time>
      </trkpt>
      <trkpt lat="48.05724" lon="-3.47474">
        <ele>130.1</ele>
        <time>2025-02-26T12:48:30Z</time>
      </trkpt>
      <trkpt lat="48.05722" lon="-3.47474">
        <ele>130.2</ele>
        <time>2025-02-26T12:48:31Z</time>
      </trkpt>
      <trkpt lat="48.05721" lon="-3.47474">
        <ele>130.3</ele>
        <time>2025-02-26T12:48:32Z</time>
      </trkpt>
      <trkpt lat="48.05719" lon="-3.47474">
        <ele>130.3</ele>
        <time>2025-02-26T12:48:33Z</time>
      </trkpt>
      <trkpt lat="48.05718" lon="-3.47474">
        <ele>130.4</ele>
        <time>2025-02-26T12:48:34Z</time>
      </trkpt>
      <trkpt lat="48.05717" lon="-3.47474">
        <ele>130.4</ele>
        <time>2025-02-26T12:48:35Z</time>
      </trkpt>
      <trkpt lat="48.05716" lon="-3.47473">
        <ele>130.3</ele>
        <time>2025-02-26T12:48:36Z</time>
      </trkpt>
      <trkpt lat="48.05715" lon="-3.47472">
        <ele>130.3</ele>
        <time>2025-02-26T12:48:37Z</time>
      </trkpt>
      <trkpt lat="48.05714" lon="-3.47472">
        <ele>130.3</ele>
        <time>2025-02-26T12:48:38Z</time>
      </trkpt>
      <trkpt lat="48.05713" lon="-3.47471">
        <ele>130.3</ele>
        <time>2025-02-26T12:48:39Z</time>
      </trkpt>
      <trkpt lat="48.05712" lon="-3.47471">
        <ele>130.3</ele>
        <time>2025-02-26T12:48:40Z</time>
      </trkpt>
      <trkpt lat="48.05711" lon="-3.47471">
        <ele>130.3</ele>
        <time>2025-02-26T12:48:41Z</time>
      </trkpt>
      <trkpt lat="48.05709" lon="-3.47471">
        <ele>130.4</ele>
        <time>2025-02-26T12:48:42Z</time>
      </trkpt>
      <trkpt lat="48.05708" lon="-3.47472">
        <ele>130.4</ele>
        <time>2025-02-26T12:48:43Z</time>
      </trkpt>
      <trkpt lat="48.05707" lon="-3.47472">
        <ele>130.5</ele>
        <time>2025-02-26T12:48:44Z</time>
      </trkpt>
      <trkpt lat="48.05705" lon="-3.47472">
        <ele>130.6</ele>
        <time>2025-02-26T12:48:45Z</time>
      </trkpt>
      <trkpt lat="48.05704" lon="-3.47473">
        <ele>130.7</ele>
        <time>2025-02-26T12:48:46Z</time>
      </trkpt>
      <trkpt lat="48.05703" lon="-3.47472">
        <ele>130.7</ele>
        <time>2025-02-26T12:48:47Z</time>
      </trkpt>
      <trkpt lat="48.05702" lon="-3.47472">
        <ele>130.7</ele>
        <time>2025-02-26T12:48:48Z</time>
      </trkpt>
      <trkpt lat="48.05701" lon="-3.47473">
        <ele>130.8</ele>
        <time>2025-02-26T12:48:49Z</time>
      </trkpt>
      <trkpt lat="48.057" lon="-3.47473">
        <ele>130.8</ele>
        <time>2025-02-26T12:48:50Z</time>
      </trkpt>
      <trkpt lat="48.05699" lon="-3.47473">
        <ele>130.9</ele>
        <time>2025-02-26T12:48:51Z</time>
      </trkpt>
      <trkpt lat="48.05699" lon="-3.47474">
        <ele>131</ele>
        <time>2025-02-26T12:48:52Z</time>
      </trkpt>
      <trkpt lat="48.05698" lon="-3.47473">
        <ele>131</ele>
        <time>2025-02-26T12:48:53Z</time>
      </trkpt>
      <trkpt lat="48.05697" lon="-3.47474">
        <ele>131.1</ele>
        <time>2025-02-26T12:48:54Z</time>
      </trkpt>
      <trkpt lat="48.05696" lon="-3.47474">
        <ele>131.1</ele>
        <time>2025-02-26T12:48:55Z</time>
      </trkpt>
      <trkpt lat="48.05695" lon="-3.47473">
        <ele>131.1</ele>
        <time>2025-02-26T12:48:56Z</time>
      </trkpt>
      <trkpt lat="48.05694" lon="-3.47473">
        <ele>131.1</ele>
        <time>2025-02-26T12:48:57Z</time>
      </trkpt>
      <trkpt lat="48.05693" lon="-3.47473">
        <ele>131.1</ele>
        <time>2025-02-26T12:48:58Z</time>
      </trkpt>
      <trkpt lat="48.05692" lon="-3.47473">
        <ele>131.1</ele>
        <time>2025-02-26T12:48:59Z</time>
      </trkpt>
      <trkpt lat="48.05691" lon="-3.47473">
        <ele>131.2</ele>
        <time>2025-02-26T12:49:00Z</time>
      </trkpt>
      <trkpt lat="48.0569" lon="-3.47473">
        <ele>131.3</ele>
        <time>2025-02-26T12:49:01Z</time>
      </trkpt>
      <trkpt lat="48.05689" lon="-3.47472">
        <ele>131.2</ele>
        <time>2025-02-26T12:49:02Z</time>
      </trkpt>
      <trkpt lat="48.05688" lon="-3.47472">
        <ele>131.2</ele>
        <time>2025-02-26T12:49:03Z</time>
      </trkpt>
      <trkpt lat="48.05687" lon="-3.47473">
        <ele>131.3</ele>
        <time>2025-02-26T12:49:04Z</time>
      </trkpt>
      <trkpt lat="48.05686" lon="-3.47473">
        <ele>131.4</ele>
        <time>2025-02-26T12:49:05Z</time>
      </trkpt>
      <trkpt lat="48.05686" lon="-3.47472">
        <ele>131.3</ele>
        <time>2025-02-26T12:49:06Z</time>
      </trkpt>
      <trkpt lat="48.05685" lon="-3.47472">
        <ele>131.3</ele>
        <time>2025-02-26T12:49:07Z</time>
      </trkpt>
      <trkpt lat="48.05684" lon="-3.47472">
        <ele>131.4</ele>
        <time>2025-02-26T12:49:08Z</time>
      </trkpt>
      <trkpt lat="48.05684" lon="-3.47472">
        <ele>131.3</ele>
        <time>2025-02-26T12:49:09Z</time>
      </trkpt>
      <trkpt lat="48.05684" lon="-3.47471">
        <ele>131.3</ele>
        <time>2025-02-26T12:49:10Z</time>
      </trkpt>
      <trkpt lat="48.05684" lon="-3.4747">
        <ele>131.2</ele>
        <time>2025-02-26T12:49:11Z</time>
      </trkpt>
      <trkpt lat="48.05684" lon="-3.4747">
        <ele>131.2</ele>
        <time>2025-02-26T12:49:12Z</time>
      </trkpt>
      <trkpt lat="48.05684" lon="-3.4747">
        <ele>131.2</ele>
        <time>2025-02-26T12:49:13Z</time>
      </trkpt>
      <trkpt lat="48.05684" lon="-3.4747">
        <ele>131.2</ele>
        <time>2025-02-26T12:49:14Z</time>
      </trkpt>
      <trkpt lat="48.05684" lon="-3.47469">
        <ele>131.1</ele>
        <time>2025-02-26T12:49:15Z</time>
      </trkpt>
      <trkpt lat="48.05683" lon="-3.47468">
        <ele>131</ele>
        <time>2025-02-26T12:49:16Z</time>
      </trkpt>
      <trkpt lat="48.05683" lon="-3.47468">
        <ele>131</ele>
        <time>2025-02-26T12:49:17Z</time>
      </trkpt>
      <trkpt lat="48.05681" lon="-3.47468">
        <ele>131.1</ele>
        <time>2025-02-26T12:49:18Z</time>
      </trkpt>
      <trkpt lat="48.0568" lon="-3.47468">
        <ele>131.1</ele>
        <time>2025-02-26T12:49:19Z</time>
      </trkpt>
      <trkpt lat="48.05679" lon="-3.47468">
        <ele>131.2</ele>
        <time>2025-02-26T12:49:20Z</time>
      </trkpt>
      <trkpt lat="48.05678" lon="-3.47467">
        <ele>131.1</ele>
        <time>2025-02-26T12:49:21Z</time>
      </trkpt>
      <trkpt lat="48.05677" lon="-3.47466">
        <ele>131</ele>
        <time>2025-02-26T12:49:22Z</time>
      </trkpt>
      <trkpt lat="48.05676" lon="-3.47466">
        <ele>131.1</ele>
        <time>2025-02-26T12:49:23Z</time>
      </trkpt>
      <trkpt lat="48.05675" lon="-3.47466">
        <ele>131.1</ele>
        <time>2025-02-26T12:49:24Z</time>
      </trkpt>
      <trkpt lat="48.05674" lon="-3.47466">
        <ele>131.1</ele>
        <time>2025-02-26T12:49:25Z</time>
      </trkpt>
      <trkpt lat="48.05673" lon="-3.47466">
        <ele>131.1</ele>
        <time>2025-02-26T12:49:26Z</time>
      </trkpt>
      <trkpt lat="48.05672" lon="-3.47466">
        <ele>131.2</ele>
        <time>2025-02-26T12:49:27Z</time>
      </trkpt>
      <trkpt lat="48.05672" lon="-3.47467">
        <ele>131.3</ele>
        <time>2025-02-26T12:49:28Z</time>
      </trkpt>
      <trkpt lat="48.05671" lon="-3.47468">
        <ele>131.4</ele>
        <time>2025-02-26T12:49:29Z</time>
      </trkpt>
      <trkpt lat="48.05669" lon="-3.47468">
        <ele>131.5</ele>
        <time>2025-02-26T12:49:30Z</time>
      </trkpt>
      <trkpt lat="48.05668" lon="-3.47468">
        <ele>131.5</ele>
        <time>2025-02-26T12:49:31Z</time>
      </trkpt>
      <trkpt lat="48.05667" lon="-3.47467">
        <ele>131.4</ele>
        <time>2025-02-26T12:49:32Z</time>
      </trkpt>
      <trkpt lat="48.05666" lon="-3.47467">
        <ele>131.4</ele>
        <time>2025-02-26T12:49:33Z</time>
      </trkpt>
      <trkpt lat="48.05665" lon="-3.47467">
        <ele>131.4</ele>
        <time>2025-02-26T12:49:34Z</time>
      </trkpt>
      <trkpt lat="48.05664" lon="-3.47467">
        <ele>131.3</ele>
        <time>2025-02-26T12:49:35Z</time>
      </trkpt>
      <trkpt lat="48.05663" lon="-3.47467">
        <ele>131.3</ele>
        <time>2025-02-26T12:49:36Z</time>
      </trkpt>
      <trkpt lat="48.05662" lon="-3.47468">
        <ele>131.3</ele>
        <time>2025-02-26T12:49:37Z</time>
      </trkpt>
      <trkpt lat="48.05661" lon="-3.47468">
        <ele>131.3</ele>
        <time>2025-02-26T12:49:38Z</time>
      </trkpt>
      <trkpt lat="48.05659" lon="-3.47467">
        <ele>131.2</ele>
        <time>2025-02-26T12:49:39Z</time>
      </trkpt>
      <trkpt lat="48.05658" lon="-3.47467">
        <ele>131.1</ele>
        <time>2025-02-26T12:49:40Z</time>
      </trkpt>
      <trkpt lat="48.05657" lon="-3.47467">
        <ele>131.1</ele>
        <time>2025-02-26T12:49:41Z</time>
      </trkpt>
      <trkpt lat="48.05656" lon="-3.47466">
        <ele>131</ele>
        <time>2025-02-26T12:49:42Z</time>
      </trkpt>
      <trkpt lat="48.05655" lon="-3.47466">
        <ele>130.9</ele>
        <time>2025-02-26T12:49:43Z</time>
      </trkpt>
      <trkpt lat="48.05654" lon="-3.47465">
        <ele>130.8</ele>
        <time>2025-02-26T12:49:44Z</time>
      </trkpt>
      <trkpt lat="48.05653" lon="-3.47465">
        <ele>130.8</ele>
        <time>2025-02-26T12:49:45Z</time>
      </trkpt>
      <trkpt lat="48.05652" lon="-3.47466">
        <ele>130.7</ele>
        <time>2025-02-26T12:49:46Z</time>
      </trkpt>
      <trkpt lat="48.0565" lon="-3.47465">
        <ele>130.6</ele>
        <time>2025-02-26T12:49:47Z</time>
      </trkpt>
      <trkpt lat="48.05649" lon="-3.47465">
        <ele>130.6</ele>
        <time>2025-02-26T12:49:48Z</time>
      </trkpt>
      <trkpt lat="48.05648" lon="-3.47466">
        <ele>130.6</ele>
        <time>2025-02-26T12:49:49Z</time>
      </trkpt>
      <trkpt lat="48.05647" lon="-3.47465">
        <ele>130.5</ele>
        <time>2025-02-26T12:49:50Z</time>
      </trkpt>
      <trkpt lat="48.05646" lon="-3.47467">
        <ele>130.6</ele>
        <time>2025-02-26T12:49:51Z</time>
      </trkpt>
      <trkpt lat="48.05644" lon="-3.47467">
        <ele>130.6</ele>
        <time>2025-02-26T12:49:52Z</time>
      </trkpt>
      <trkpt lat="48.05643" lon="-3.47467">
        <ele>130.6</ele>
        <time>2025-02-26T12:49:53Z</time>
      </trkpt>
      <trkpt lat="48.05642" lon="-3.47467">
        <ele>130.5</ele>
        <time>2025-02-26T12:49:54Z</time>
      </trkpt>
      <trkpt lat="48.05641" lon="-3.47466">
        <ele>130.4</ele>
        <time>2025-02-26T12:49:55Z</time>
      </trkpt>
      <trkpt lat="48.0564" lon="-3.47466">
        <ele>130.4</ele>
        <time>2025-02-26T12:49:56Z</time>
      </trkpt>
      <trkpt lat="48.05639" lon="-3.47466">
        <ele>130.3</ele>
        <time>2025-02-26T12:49:57Z</time>
      </trkpt>
      <trkpt lat="48.05638" lon="-3.47466">
        <ele>130.3</ele>
        <time>2025-02-26T12:49:58Z</time>
      </trkpt>
      <trkpt lat="48.05637" lon="-3.47466">
        <ele>130.4</ele>
        <time>2025-02-26T12:49:59Z</time>
      </trkpt>
      <trkpt lat="48.05636" lon="-3.47467">
        <ele>130.4</ele>
        <time>2025-02-26T12:50:00Z</time>
      </trkpt>
      <trkpt lat="48.05635" lon="-3.47467">
        <ele>130.4</ele>
        <time>2025-02-26T12:50:01Z</time>
      </trkpt>
      <trkpt lat="48.05633" lon="-3.47466">
        <ele>130.4</ele>
        <time>2025-02-26T12:50:02Z</time>
      </trkpt>
      <trkpt lat="48.05632" lon="-3.47467">
        <ele>130.4</ele>
        <time>2025-02-26T12:50:03Z</time>
      </trkpt>
      <trkpt lat="48.05631" lon="-3.47465">
        <ele>130.3</ele>
        <time>2025-02-26T12:50:04Z</time>
      </trkpt>
      <trkpt lat="48.05629" lon="-3.47465">
        <ele>130.2</ele>
        <time>2025-02-26T12:50:05Z</time>
      </trkpt>
      <trkpt lat="48.05628" lon="-3.47465">
        <ele>130.2</ele>
        <time>2025-02-26T12:50:06Z</time>
      </trkpt>
      <trkpt lat="48.05627" lon="-3.47465">
        <ele>130.3</ele>
        <time>2025-02-26T12:50:07Z</time>
      </trkpt>
      <trkpt lat="48.05626" lon="-3.47465">
        <ele>130.2</ele>
        <time>2025-02-26T12:50:08Z</time>
      </trkpt>
      <trkpt lat="48.05625" lon="-3.47465">
        <ele>130.2</ele>
        <time>2025-02-26T12:50:09Z</time>
      </trkpt>
      <trkpt lat="48.05624" lon="-3.47464">
        <ele>130.1</ele>
        <time>2025-02-26T12:50:10Z</time>
      </trkpt>
      <trkpt lat="48.05623" lon="-3.47464">
        <ele>130.1</ele>
        <time>2025-02-26T12:50:11Z</time>
      </trkpt>
      <trkpt lat="48.05622" lon="-3.47465">
        <ele>130.2</ele>
        <time>2025-02-26T12:50:12Z</time>
      </trkpt>
      <trkpt lat="48.05621" lon="-3.47464">
        <ele>130.1</ele>
        <time>2025-02-26T12:50:13Z</time>
      </trkpt>
      <trkpt lat="48.0562" lon="-3.47463">
        <ele>130</ele>
        <time>2025-02-26T12:50:14Z</time>
      </trkpt>
      <trkpt lat="48.05619" lon="-3.47463">
        <ele>130</ele>
        <time>2025-02-26T12:50:15Z</time>
      </trkpt>
      <trkpt lat="48.05617" lon="-3.47462">
        <ele>129.9</ele>
        <time>2025-02-26T12:50:16Z</time>
      </trkpt>
      <trkpt lat="48.05615" lon="-3.47461">
        <ele>129.8</ele>
        <time>2025-02-26T12:50:17Z</time>
      </trkpt>
      <trkpt lat="48.05614" lon="-3.47461">
        <ele>129.8</ele>
        <time>2025-02-26T12:50:18Z</time>
      </trkpt>
      <trkpt lat="48.05613" lon="-3.47461">
        <ele>129.8</ele>
        <time>2025-02-26T12:50:19Z</time>
      </trkpt>
      <trkpt lat="48.05612" lon="-3.47461">
        <ele>129.8</ele>
        <time>2025-02-26T12:50:20Z</time>
      </trkpt>
      <trkpt lat="48.05612" lon="-3.47461">
        <ele>129.7</ele>
        <time>2025-02-26T12:50:21Z</time>
      </trkpt>
      <trkpt lat="48.05611" lon="-3.47461">
        <ele>129.7</ele>
        <time>2025-02-26T12:50:22Z</time>
      </trkpt>
      <trkpt lat="48.0561" lon="-3.4746">
        <ele>129.7</ele>
        <time>2025-02-26T12:50:23Z</time>
      </trkpt>
      <trkpt lat="48.05609" lon="-3.4746">
        <ele>129.6</ele>
        <time>2025-02-26T12:50:24Z</time>
      </trkpt>
      <trkpt lat="48.05607" lon="-3.4746">
        <ele>129.6</ele>
        <time>2025-02-26T12:50:25Z</time>
      </trkpt>
      <trkpt lat="48.05606" lon="-3.47459">
        <ele>129.5</ele>
        <time>2025-02-26T12:50:26Z</time>
      </trkpt>
      <trkpt lat="48.05605" lon="-3.47459">
        <ele>129.5</ele>
        <time>2025-02-26T12:50:27Z</time>
      </trkpt>
      <trkpt lat="48.05604" lon="-3.4746">
        <ele>129.5</ele>
        <time>2025-02-26T12:50:28Z</time>
      </trkpt>
      <trkpt lat="48.05603" lon="-3.4746">
        <ele>129.5</ele>
        <time>2025-02-26T12:50:29Z</time>
      </trkpt>
      <trkpt lat="48.05601" lon="-3.47459">
        <ele>129.4</ele>
        <time>2025-02-26T12:50:30Z</time>
      </trkpt>
      <trkpt lat="48.056" lon="-3.47459">
        <ele>129.4</ele>
        <time>2025-02-26T12:50:31Z</time>
      </trkpt>
      <trkpt lat="48.05599" lon="-3.4746">
        <ele>129.4</ele>
        <time>2025-02-26T12:50:32Z</time>
      </trkpt>
      <trkpt lat="48.05597" lon="-3.47461">
        <ele>129.4</ele>
        <time>2025-02-26T12:50:33Z</time>
      </trkpt>
      <trkpt lat="48.05596" lon="-3.47461">
        <ele>129.5</ele>
        <time>2025-02-26T12:50:34Z</time>
      </trkpt>
      <trkpt lat="48.05595" lon="-3.47461">
        <ele>129.4</ele>
        <time>2025-02-26T12:50:35Z</time>
      </trkpt>
      <trkpt lat="48.05594" lon="-3.4746">
        <ele>129.3</ele>
        <time>2025-02-26T12:50:36Z</time>
      </trkpt>
      <trkpt lat="48.05593" lon="-3.4746">
        <ele>129.3</ele>
        <time>2025-02-26T12:50:37Z</time>
      </trkpt>
      <trkpt lat="48.05592" lon="-3.4746">
        <ele>129.3</ele>
        <time>2025-02-26T12:50:38Z</time>
      </trkpt>
      <trkpt lat="48.0559" lon="-3.4746">
        <ele>129.3</ele>
        <time>2025-02-26T12:50:39Z</time>
      </trkpt>
      <trkpt lat="48.05589" lon="-3.4746">
        <ele>129.2</ele>
        <time>2025-02-26T12:50:40Z</time>
      </trkpt>
      <trkpt lat="48.05588" lon="-3.4746">
        <ele>129.2</ele>
        <time>2025-02-26T12:50:41Z</time>
      </trkpt>
      <trkpt lat="48.05587" lon="-3.4746">
        <ele>129.2</ele>
        <time>2025-02-26T12:50:42Z</time>
      </trkpt>
      <trkpt lat="48.05586" lon="-3.47459">
        <ele>129.1</ele>
        <time>2025-02-26T12:50:43Z</time>
      </trkpt>
      <trkpt lat="48.05585" lon="-3.4746">
        <ele>129.1</ele>
        <time>2025-02-26T12:50:44Z</time>
      </trkpt>
      <trkpt lat="48.05583" lon="-3.47461">
        <ele>129.2</ele>
        <time>2025-02-26T12:50:45Z</time>
      </trkpt>
      <trkpt lat="48.05583" lon="-3.47463">
        <ele>129.2</ele>
        <time>2025-02-26T12:50:46Z</time>
      </trkpt>
      <trkpt lat="48.05582" lon="-3.47464">
        <ele>129.2</ele>
        <time>2025-02-26T12:50:47Z</time>
      </trkpt>
      <trkpt lat="48.0558" lon="-3.47463">
        <ele>129</ele>
        <time>2025-02-26T12:50:48Z</time>
      </trkpt>
      <trkpt lat="48.05579" lon="-3.47464">
        <ele>128.9</ele>
        <time>2025-02-26T12:50:49Z</time>
      </trkpt>
      <trkpt lat="48.05579" lon="-3.47465">
        <ele>128.9</ele>
        <time>2025-02-26T12:50:50Z</time>
      </trkpt>
      <trkpt lat="48.05578" lon="-3.47466">
        <ele>128.8</ele>
        <time>2025-02-26T12:50:51Z</time>
      </trkpt>
      <trkpt lat="48.05577" lon="-3.47466">
        <ele>128.7</ele>
        <time>2025-02-26T12:50:52Z</time>
      </trkpt>
      <trkpt lat="48.05575" lon="-3.47467">
        <ele>128.5</ele>
        <time>2025-02-26T12:50:53Z</time>
      </trkpt>
      <trkpt lat="48.05574" lon="-3.47468">
        <ele>128.4</ele>
        <time>2025-02-26T12:50:54Z</time>
      </trkpt>
      <trkpt lat="48.05572" lon="-3.47469">
        <ele>128.3</ele>
        <time>2025-02-26T12:50:55Z</time>
      </trkpt>
      <trkpt lat="48.05571" lon="-3.47471">
        <ele>128.2</ele>
        <time>2025-02-26T12:50:56Z</time>
      </trkpt>
      <trkpt lat="48.0557" lon="-3.47471">
        <ele>128.1</ele>
        <time>2025-02-26T12:50:57Z</time>
      </trkpt>
      <trkpt lat="48.05569" lon="-3.47472">
        <ele>127.9</ele>
        <time>2025-02-26T12:50:58Z</time>
      </trkpt>
      <trkpt lat="48.05568" lon="-3.47472">
        <ele>127.8</ele>
        <time>2025-02-26T12:50:59Z</time>
      </trkpt>
      <trkpt lat="48.05567" lon="-3.47473">
        <ele>127.7</ele>
        <time>2025-02-26T12:51:00Z</time>
      </trkpt>
      <trkpt lat="48.05566" lon="-3.47474">
        <ele>127.7</ele>
        <time>2025-02-26T12:51:01Z</time>
      </trkpt>
      <trkpt lat="48.05565" lon="-3.47475">
        <ele>127.7</ele>
        <time>2025-02-26T12:51:02Z</time>
      </trkpt>
      <trkpt lat="48.05565" lon="-3.47476">
        <ele>127.7</ele>
        <time>2025-02-26T12:51:03Z</time>
      </trkpt>
      <trkpt lat="48.05564" lon="-3.47476">
        <ele>127.6</ele>
        <time>2025-02-26T12:51:04Z</time>
      </trkpt>
      <trkpt lat="48.05563" lon="-3.47478">
        <ele>127.6</ele>
        <time>2025-02-26T12:51:05Z</time>
      </trkpt>
      <trkpt lat="48.05563" lon="-3.4748">
        <ele>127.7</ele>
        <time>2025-02-26T12:51:06Z</time>
      </trkpt>
      <trkpt lat="48.05562" lon="-3.47481">
        <ele>127.7</ele>
        <time>2025-02-26T12:51:07Z</time>
      </trkpt>
      <trkpt lat="48.05561" lon="-3.47482">
        <ele>127.7</ele>
        <time>2025-02-26T12:51:08Z</time>
      </trkpt>
      <trkpt lat="48.05561" lon="-3.47484">
        <ele>127.7</ele>
        <time>2025-02-26T12:51:09Z</time>
      </trkpt>
      <trkpt lat="48.0556" lon="-3.47484">
        <ele>127.6</ele>
        <time>2025-02-26T12:51:10Z</time>
      </trkpt>
      <trkpt lat="48.05559" lon="-3.47485">
        <ele>127.6</ele>
        <time>2025-02-26T12:51:11Z</time>
      </trkpt>
      <trkpt lat="48.05558" lon="-3.47487">
        <ele>127.5</ele>
        <time>2025-02-26T12:51:12Z</time>
      </trkpt>
      <trkpt lat="48.05558" lon="-3.47488">
        <ele>127.6</ele>
        <time>2025-02-26T12:51:13Z</time>
      </trkpt>
      <trkpt lat="48.05558" lon="-3.47489">
        <ele>127.6</ele>
        <time>2025-02-26T12:51:14Z</time>
      </trkpt>
      <trkpt lat="48.05557" lon="-3.4749">
        <ele>127.5</ele>
        <time>2025-02-26T12:51:15Z</time>
      </trkpt>
      <trkpt lat="48.05556" lon="-3.47492">
        <ele>127.6</ele>
        <time>2025-02-26T12:51:16Z</time>
      </trkpt>
      <trkpt lat="48.05556" lon="-3.47493">
        <ele>127.5</ele>
        <time>2025-02-26T12:51:17Z</time>
      </trkpt>
      <trkpt lat="48.05555" lon="-3.47495">
        <ele>127.6</ele>
        <time>2025-02-26T12:51:18Z</time>
      </trkpt>
      <trkpt lat="48.05554" lon="-3.47496">
        <ele>127.6</ele>
        <time>2025-02-26T12:51:19Z</time>
      </trkpt>
      <trkpt lat="48.05554" lon="-3.47497">
        <ele>127.6</ele>
        <time>2025-02-26T12:51:20Z</time>
      </trkpt>
      <trkpt lat="48.05554" lon="-3.47499">
        <ele>127.7</ele>
        <time>2025-02-26T12:51:21Z</time>
      </trkpt>
      <trkpt lat="48.05554" lon="-3.47501">
        <ele>127.9</ele>
        <time>2025-02-26T12:51:22Z</time>
      </trkpt>
      <trkpt lat="48.05553" lon="-3.47503">
        <ele>128</ele>
        <time>2025-02-26T12:51:23Z</time>
      </trkpt>
      <trkpt lat="48.05553" lon="-3.47504">
        <ele>128.1</ele>
        <time>2025-02-26T12:51:24Z</time>
      </trkpt>
      <trkpt lat="48.05553" lon="-3.47506">
        <ele>128.3</ele>
        <time>2025-02-26T12:51:25Z</time>
      </trkpt>
      <trkpt lat="48.05552" lon="-3.47508">
        <ele>128.4</ele>
        <time>2025-02-26T12:51:26Z</time>
      </trkpt>
      <trkpt lat="48.05551" lon="-3.47509">
        <ele>128.4</ele>
        <time>2025-02-26T12:51:27Z</time>
      </trkpt>
      <trkpt lat="48.0555" lon="-3.4751">
        <ele>128.3</ele>
        <time>2025-02-26T12:51:28Z</time>
      </trkpt>
      <trkpt lat="48.05549" lon="-3.47511">
        <ele>128.3</ele>
        <time>2025-02-26T12:51:29Z</time>
      </trkpt>
      <trkpt lat="48.05548" lon="-3.47512">
        <ele>128.3</ele>
        <time>2025-02-26T12:51:30Z</time>
      </trkpt>
      <trkpt lat="48.05548" lon="-3.47513">
        <ele>128.3</ele>
        <time>2025-02-26T12:51:31Z</time>
      </trkpt>
      <trkpt lat="48.05547" lon="-3.47514">
        <ele>128.3</ele>
        <time>2025-02-26T12:51:32Z</time>
      </trkpt>
      <trkpt lat="48.05547" lon="-3.47515">
        <ele>128.4</ele>
        <time>2025-02-26T12:51:33Z</time>
      </trkpt>
      <trkpt lat="48.05547" lon="-3.47517">
        <ele>128.5</ele>
        <time>2025-02-26T12:51:34Z</time>
      </trkpt>
      <trkpt lat="48.05546" lon="-3.47518">
        <ele>128.5</ele>
        <time>2025-02-26T12:51:35Z</time>
      </trkpt>
      <trkpt lat="48.05545" lon="-3.47519">
        <ele>128.5</ele>
        <time>2025-02-26T12:51:36Z</time>
      </trkpt>
      <trkpt lat="48.05545" lon="-3.4752">
        <ele>128.5</ele>
        <time>2025-02-26T12:51:37Z</time>
      </trkpt>
      <trkpt lat="48.05544" lon="-3.47522">
        <ele>128.5</ele>
        <time>2025-02-26T12:51:38Z</time>
      </trkpt>
      <trkpt lat="48.05543" lon="-3.47524">
        <ele>128.5</ele>
        <time>2025-02-26T12:51:39Z</time>
      </trkpt>
      <trkpt lat="48.05542" lon="-3.47526">
        <ele>128.5</ele>
        <time>2025-02-26T12:51:40Z</time>
      </trkpt>
      <trkpt lat="48.05541" lon="-3.47528">
        <ele>128.5</ele>
        <time>2025-02-26T12:51:41Z</time>
      </trkpt>
      <trkpt lat="48.05541" lon="-3.47529">
        <ele>128.4</ele>
        <time>2025-02-26T12:51:42Z</time>
      </trkpt>
      <trkpt lat="48.0554" lon="-3.4753">
        <ele>128.4</ele>
        <time>2025-02-26T12:51:43Z</time>
      </trkpt>
      <trkpt lat="48.05539" lon="-3.4753">
        <ele>128.2</ele>
        <time>2025-02-26T12:51:44Z</time>
      </trkpt>
      <trkpt lat="48.05538" lon="-3.4753">
        <ele>127.9</ele>
        <time>2025-02-26T12:51:45Z</time>
      </trkpt>
      <trkpt lat="48.05537" lon="-3.4753">
        <ele>127.7</ele>
        <time>2025-02-26T12:51:46Z</time>
      </trkpt>
      <trkpt lat="48.05536" lon="-3.47531">
        <ele>127.6</ele>
        <time>2025-02-26T12:51:47Z</time>
      </trkpt>
      <trkpt lat="48.05535" lon="-3.47533">
        <ele>127.5</ele>
        <time>2025-02-26T12:51:48Z</time>
      </trkpt>
      <trkpt lat="48.05534" lon="-3.47534">
        <ele>127.4</ele>
        <time>2025-02-26T12:51:49Z</time>
      </trkpt>
      <trkpt lat="48.05533" lon="-3.47533">
        <ele>127.2</ele>
        <time>2025-02-26T12:51:50Z</time>
      </trkpt>
      <trkpt lat="48.05533" lon="-3.47532">
        <ele>127</ele>
        <time>2025-02-26T12:51:51Z</time>
      </trkpt>
      <trkpt lat="48.05532" lon="-3.47534">
        <ele>126.9</ele>
        <time>2025-02-26T12:51:52Z</time>
      </trkpt>
      <trkpt lat="48.05531" lon="-3.47536">
        <ele>126.6</ele>
        <time>2025-02-26T12:51:53Z</time>
      </trkpt>
      <trkpt lat="48.0553" lon="-3.47536">
        <ele>126.4</ele>
        <time>2025-02-26T12:51:54Z</time>
      </trkpt>
      <trkpt lat="48.05529" lon="-3.47537">
        <ele>126.3</ele>
        <time>2025-02-26T12:51:55Z</time>
      </trkpt>
      <trkpt lat="48.05528" lon="-3.47539">
        <ele>126.1</ele>
        <time>2025-02-26T12:51:56Z</time>
      </trkpt>
      <trkpt lat="48.05528" lon="-3.4754">
        <ele>126</ele>
        <time>2025-02-26T12:51:57Z</time>
      </trkpt>
      <trkpt lat="48.05527" lon="-3.4754">
        <ele>126.2</ele>
        <time>2025-02-26T12:51:58Z</time>
      </trkpt>
      <trkpt lat="48.05526" lon="-3.47541">
        <ele>126.3</ele>
        <time>2025-02-26T12:51:59Z</time>
      </trkpt>
      <trkpt lat="48.05525" lon="-3.47542">
        <ele>126.4</ele>
        <time>2025-02-26T12:52:00Z</time>
      </trkpt>
      <trkpt lat="48.05524" lon="-3.47542">
        <ele>126.5</ele>
        <time>2025-02-26T12:52:01Z</time>
      </trkpt>
      <trkpt lat="48.05523" lon="-3.47543">
        <ele>126.6</ele>
        <time>2025-02-26T12:52:02Z</time>
      </trkpt>
      <trkpt lat="48.05522" lon="-3.47542">
        <ele>126.8</ele>
        <time>2025-02-26T12:52:03Z</time>
      </trkpt>
      <trkpt lat="48.05521" lon="-3.47541">
        <ele>126.9</ele>
        <time>2025-02-26T12:52:04Z</time>
      </trkpt>
      <trkpt lat="48.05522" lon="-3.47541">
        <ele>126.9</ele>
        <time>2025-02-26T12:52:05Z</time>
      </trkpt>
      <trkpt lat="48.05521" lon="-3.4754">
        <ele>127</ele>
        <time>2025-02-26T12:52:06Z</time>
      </trkpt>
      <trkpt lat="48.05521" lon="-3.47538">
        <ele>127.1</ele>
        <time>2025-02-26T12:52:07Z</time>
      </trkpt>
      <trkpt lat="48.05521" lon="-3.47537">
        <ele>127.1</ele>
        <time>2025-02-26T12:52:08Z</time>
      </trkpt>
      <trkpt lat="48.05522" lon="-3.47536">
        <ele>127</ele>
        <time>2025-02-26T12:52:09Z</time>
      </trkpt>
      <trkpt lat="48.05522" lon="-3.47535">
        <ele>127</ele>
        <time>2025-02-26T12:52:10Z</time>
      </trkpt>
      <trkpt lat="48.05522" lon="-3.47534">
        <ele>127</ele>
        <time>2025-02-26T12:52:11Z</time>
      </trkpt>
      <trkpt lat="48.05521" lon="-3.47533">
        <ele>127.2</ele>
        <time>2025-02-26T12:52:12Z</time>
      </trkpt>
      <trkpt lat="48.0552" lon="-3.47533">
        <ele>127.3</ele>
        <time>2025-02-26T12:52:13Z</time>
      </trkpt>
      <trkpt lat="48.05521" lon="-3.47533">
        <ele>127.2</ele>
        <time>2025-02-26T12:52:14Z</time>
      </trkpt>
      <trkpt lat="48.05521" lon="-3.47533">
        <ele>127.2</ele>
        <time>2025-02-26T12:52:15Z</time>
      </trkpt>
      <trkpt lat="48.05521" lon="-3.47533">
        <ele>127.2</ele>
        <time>2025-02-26T12:52:16Z</time>
      </trkpt>
      <trkpt lat="48.05521" lon="-3.47533">
        <ele>127.2</ele>
        <time>2025-02-26T12:52:17Z</time>
      </trkpt>
      <trkpt lat="48.0552" lon="-3.47533">
        <ele>127.3</ele>
        <time>2025-02-26T12:52:18Z</time>
      </trkpt>
      <trkpt lat="48.0552" lon="-3.47534">
        <ele>127.3</ele>
        <time>2025-02-26T12:52:19Z</time>
      </trkpt>
      <trkpt lat="48.0552" lon="-3.47535">
        <ele>127.2</ele>
        <time>2025-02-26T12:52:20Z</time>
      </trkpt>
      <trkpt lat="48.0552" lon="-3.47535">
        <ele>127.2</ele>
        <time>2025-02-26T12:52:21Z</time>
      </trkpt>
      <trkpt lat="48.0552" lon="-3.47535">
        <ele>127.2</ele>
        <time>2025-02-26T12:52:22Z</time>
      </trkpt>
      <trkpt lat="48.0552" lon="-3.47536">
        <ele>127.2</ele>
        <time>2025-02-26T12:52:23Z</time>
      </trkpt>
      <trkpt lat="48.0552" lon="-3.47536">
        <ele>127.2</ele>
        <time>2025-02-26T12:52:24Z</time>
      </trkpt>
      <trkpt lat="48.05521" lon="-3.47537">
        <ele>127.1</ele>
        <time>2025-02-26T12:52:25Z</time>
      </trkpt>
      <trkpt lat="48.05521" lon="-3.47537">
        <ele>127.1</ele>
        <time>2025-02-26T12:52:26Z</time>
      </trkpt>
      <trkpt lat="48.05521" lon="-3.47537">
        <ele>127.1</ele>
        <time>2025-02-26T12:52:27Z</time>
      </trkpt>
      <trkpt lat="48.05521" lon="-3.47537">
        <ele>127.1</ele>
        <time>2025-02-26T12:52:28Z</time>
      </trkpt>
      <trkpt lat="48.05521" lon="-3.47537">
        <ele>127.1</ele>
        <time>2025-02-26T12:52:29Z</time>
      </trkpt>
      <trkpt lat="48.05521" lon="-3.47537">
        <ele>127.1</ele>
        <time>2025-02-26T12:52:30Z</time>
      </trkpt>
      <trkpt lat="48.05521" lon="-3.47538">
        <ele>127.1</ele>
        <time>2025-02-26T12:52:31Z</time>
      </trkpt>
      <trkpt lat="48.05521" lon="-3.47538">
        <ele>127.1</ele>
        <time>2025-02-26T12:52:32Z</time>
      </trkpt>
      <trkpt lat="48.05521" lon="-3.47538">
        <ele>127.1</ele>
        <time>2025-02-26T12:52:33Z</time>
      </trkpt>
      <trkpt lat="48.05521" lon="-3.47538">
        <ele>127.1</ele>
        <time>2025-02-26T12:52:34Z</time>
      </trkpt>
      <trkpt lat="48.05521" lon="-3.47538">
        <ele>127.1</ele>
        <time>2025-02-26T12:52:35Z</time>
      </trkpt>
      <trkpt lat="48.05521" lon="-3.47538">
        <ele>127.1</ele>
        <time>2025-02-26T12:52:36Z</time>
      </trkpt>
      <trkpt lat="48.05521" lon="-3.47538">
        <ele>127.1</ele>
        <time>2025-02-26T12:52:37Z</time>
      </trkpt>
      <trkpt lat="48.05521" lon="-3.47538">
        <ele>127.1</ele>
        <time>2025-02-26T12:52:38Z</time>
      </trkpt>
      <trkpt lat="48.05521" lon="-3.47538">
        <ele>127.1</ele>
        <time>2025-02-26T12:52:39Z</time>
      </trkpt>
      <trkpt lat="48.05521" lon="-3.47538">
        <ele>127.1</ele>
        <time>2025-02-26T12:52:40Z</time>
      </trkpt>
      <trkpt lat="48.05521" lon="-3.47538">
        <ele>127.1</ele>
        <time>2025-02-26T12:52:41Z</time>
      </trkpt>
      <trkpt lat="48.05521" lon="-3.47538">
        <ele>127</ele>
        <time>2025-02-26T12:52:42Z</time>
      </trkpt>
      <trkpt lat="48.05521" lon="-3.47538">
        <ele>127</ele>
        <time>2025-02-26T12:52:43Z</time>
      </trkpt>
      <trkpt lat="48.05521" lon="-3.47538">
        <ele>127</ele>
        <time>2025-02-26T12:52:44Z</time>
      </trkpt>
      <trkpt lat="48.05521" lon="-3.47538">
        <ele>127</ele>
        <time>2025-02-26T12:52:45Z</time>
      </trkpt>
      <trkpt lat="48.05521" lon="-3.47538">
        <ele>127</ele>
        <time>2025-02-26T12:52:46Z</time>
      </trkpt>
      <trkpt lat="48.05521" lon="-3.47538">
        <ele>127</ele>
        <time>2025-02-26T12:52:47Z</time>
      </trkpt>
      <trkpt lat="48.05522" lon="-3.47538">
        <ele>126.9</ele>
        <time>2025-02-26T12:52:48Z</time>
      </trkpt>
      <trkpt lat="48.05522" lon="-3.47538">
        <ele>126.9</ele>
        <time>2025-02-26T12:52:49Z</time>
      </trkpt>
      <trkpt lat="48.05522" lon="-3.47538">
        <ele>126.9</ele>
        <time>2025-02-26T12:52:50Z</time>
      </trkpt>
      <trkpt lat="48.05522" lon="-3.47538">
        <ele>126.9</ele>
        <time>2025-02-26T12:52:51Z</time>
      </trkpt>
      <trkpt lat="48.05522" lon="-3.47538">
        <ele>126.9</ele>
        <time>2025-02-26T12:52:52Z</time>
      </trkpt>
      <trkpt lat="48.05522" lon="-3.47538">
        <ele>126.9</ele>
        <time>2025-02-26T12:52:53Z</time>
      </trkpt>
      <trkpt lat="48.05522" lon="-3.47538">
        <ele>126.9</ele>
        <time>2025-02-26T12:52:54Z</time>
      </trkpt>
      <trkpt lat="48.05522" lon="-3.47538">
        <ele>126.9</ele>
        <time>2025-02-26T12:52:55Z</time>
      </trkpt>
      <trkpt lat="48.05522" lon="-3.47538">
        <ele>126.9</ele>
        <time>2025-02-26T12:52:56Z</time>
      </trkpt>
      <trkpt lat="48.05522" lon="-3.47538">
        <ele>126.9</ele>
        <time>2025-02-26T12:52:57Z</time>
      </trkpt>
      <trkpt lat="48.05522" lon="-3.47538">
        <ele>126.9</ele>
        <time>2025-02-26T12:52:58Z</time>
      </trkpt>
      <trkpt lat="48.05522" lon="-3.47538">
        <ele>126.9</ele>
        <time>2025-02-26T12:52:59Z</time>
      </trkpt>
      <trkpt lat="48.05522" lon="-3.4754">
        <ele>126.9</ele>
        <time>2025-02-26T12:53:00Z</time>
      </trkpt>
      <trkpt lat="48.05522" lon="-3.47541">
        <ele>126.9</ele>
        <time>2025-02-26T12:53:01Z</time>
      </trkpt>
      <trkpt lat="48.05521" lon="-3.47542">
        <ele>126.9</ele>
        <time>2025-02-26T12:53:02Z</time>
      </trkpt>
      <trkpt lat="48.05522" lon="-3.47542">
        <ele>126.9</ele>
        <time>2025-02-26T12:53:03Z</time>
      </trkpt>
      <trkpt lat="48.05523" lon="-3.47542">
        <ele>126.7</ele>
        <time>2025-02-26T12:53:04Z</time>
      </trkpt>
      <trkpt lat="48.05524" lon="-3.47541">
        <ele>126.6</ele>
        <time>2025-02-26T12:53:05Z</time>
      </trkpt>
      <trkpt lat="48.05524" lon="-3.47542">
        <ele>126.6</ele>
        <time>2025-02-26T12:53:06Z</time>
      </trkpt>
      <trkpt lat="48.05524" lon="-3.47541">
        <ele>126.6</ele>
        <time>2025-02-26T12:53:07Z</time>
      </trkpt>
      <trkpt lat="48.05524" lon="-3.47541">
        <ele>126.6</ele>
        <time>2025-02-26T12:53:08Z</time>
      </trkpt>
      <trkpt lat="48.05524" lon="-3.47541">
        <ele>126.6</ele>
        <time>2025-02-26T12:53:09Z</time>
      </trkpt>
      <trkpt lat="48.05524" lon="-3.47541">
        <ele>126.6</ele>
        <time>2025-02-26T12:53:10Z</time>
      </trkpt>
      <trkpt lat="48.05524" lon="-3.47541">
        <ele>126.6</ele>
        <time>2025-02-26T12:53:11Z</time>
      </trkpt>
      <trkpt lat="48.05524" lon="-3.47541">
        <ele>126.6</ele>
        <time>2025-02-26T12:53:12Z</time>
      </trkpt>
      <trkpt lat="48.05524" lon="-3.47541">
        <ele>126.6</ele>
        <time>2025-02-26T12:53:13Z</time>
      </trkpt>
      <trkpt lat="48.05524" lon="-3.47541">
        <ele>126.6</ele>
        <time>2025-02-26T12:53:14Z</time>
      </trkpt>
      <trkpt lat="48.05524" lon="-3.47541">
        <ele>126.6</ele>
        <time>2025-02-26T12:53:15Z</time>
      </trkpt>
      <trkpt lat="48.05524" lon="-3.47541">
        <ele>126.6</ele>
        <time>2025-02-26T12:53:16Z</time>
      </trkpt>
      <trkpt lat="48.05524" lon="-3.47542">
        <ele>126.6</ele>
        <time>2025-02-26T12:53:17Z</time>
      </trkpt>
      <trkpt lat="48.05524" lon="-3.47542">
        <ele>126.6</ele>
        <time>2025-02-26T12:53:18Z</time>
      </trkpt>
      <trkpt lat="48.05523" lon="-3.47543">
        <ele>126.6</ele>
        <time>2025-02-26T12:53:19Z</time>
      </trkpt>
      <trkpt lat="48.05523" lon="-3.47543">
        <ele>126.6</ele>
        <time>2025-02-26T12:53:20Z</time>
      </trkpt>
      <trkpt lat="48.05523" lon="-3.47543">
        <ele>126.6</ele>
        <time>2025-02-26T12:53:21Z</time>
      </trkpt>
      <trkpt lat="48.05523" lon="-3.47543">
        <ele>126.7</ele>
        <time>2025-02-26T12:53:22Z</time>
      </trkpt>
      <trkpt lat="48.05522" lon="-3.47543">
        <ele>126.8</ele>
        <time>2025-02-26T12:53:23Z</time>
      </trkpt>
      <trkpt lat="48.05522" lon="-3.47543">
        <ele>126.8</ele>
        <time>2025-02-26T12:53:24Z</time>
      </trkpt>
      <trkpt lat="48.05522" lon="-3.47543">
        <ele>126.8</ele>
        <time>2025-02-26T12:53:25Z</time>
      </trkpt>
      <trkpt lat="48.05522" lon="-3.47544">
        <ele>126.8</ele>
        <time>2025-02-26T12:53:26Z</time>
      </trkpt>
      <trkpt lat="48.05522" lon="-3.47544">
        <ele>126.8</ele>
        <time>2025-02-26T12:53:27Z</time>
      </trkpt>
      <trkpt lat="48.05522" lon="-3.47544">
        <ele>126.8</ele>
        <time>2025-02-26T12:53:28Z</time>
      </trkpt>
      <trkpt lat="48.05522" lon="-3.47544">
        <ele>126.8</ele>
        <time>2025-02-26T12:53:29Z</time>
      </trkpt>
      <trkpt lat="48.05523" lon="-3.47544">
        <ele>126.7</ele>
        <time>2025-02-26T12:53:30Z</time>
      </trkpt>
      <trkpt lat="48.05523" lon="-3.47546">
        <ele>126.7</ele>
        <time>2025-02-26T12:53:31Z</time>
      </trkpt>
      <trkpt lat="48.05522" lon="-3.47547">
        <ele>126.7</ele>
        <time>2025-02-26T12:53:32Z</time>
      </trkpt>
      <trkpt lat="48.05522" lon="-3.47548">
        <ele>126.7</ele>
        <time>2025-02-26T12:53:33Z</time>
      </trkpt>
      <trkpt lat="48.05522" lon="-3.47549">
        <ele>126.7</ele>
        <time>2025-02-26T12:53:34Z</time>
      </trkpt>
      <trkpt lat="48.05522" lon="-3.4755">
        <ele>126.7</ele>
        <time>2025-02-26T12:53:35Z</time>
      </trkpt>
      <trkpt lat="48.05522" lon="-3.4755">
        <ele>126.7</ele>
        <time>2025-02-26T12:53:36Z</time>
      </trkpt>
      <trkpt lat="48.05522" lon="-3.4755">
        <ele>126.7</ele>
        <time>2025-02-26T12:53:37Z</time>
      </trkpt>
      <trkpt lat="48.05522" lon="-3.47551">
        <ele>126.6</ele>
        <time>2025-02-26T12:53:38Z</time>
      </trkpt>
      <trkpt lat="48.05523" lon="-3.4755">
        <ele>126.6</ele>
        <time>2025-02-26T12:53:39Z</time>
      </trkpt>
      <trkpt lat="48.05524" lon="-3.47549">
        <ele>126.5</ele>
        <time>2025-02-26T12:53:40Z</time>
      </trkpt>
      <trkpt lat="48.05523" lon="-3.47549">
        <ele>126.6</ele>
        <time>2025-02-26T12:53:41Z</time>
      </trkpt>
      <trkpt lat="48.05522" lon="-3.4755">
        <ele>126.7</ele>
        <time>2025-02-26T12:53:42Z</time>
      </trkpt>
      <trkpt lat="48.05521" lon="-3.47552">
        <ele>126.8</ele>
        <time>2025-02-26T12:53:43Z</time>
      </trkpt>
      <trkpt lat="48.0552" lon="-3.47554">
        <ele>126.9</ele>
        <time>2025-02-26T12:53:44Z</time>
      </trkpt>
      <trkpt lat="48.05518" lon="-3.47555">
        <ele>127</ele>
        <time>2025-02-26T12:53:45Z</time>
      </trkpt>
      <trkpt lat="48.05517" lon="-3.47558">
        <ele>127.2</ele>
        <time>2025-02-26T12:53:46Z</time>
      </trkpt>
      <trkpt lat="48.05517" lon="-3.47561">
        <ele>127.3</ele>
        <time>2025-02-26T12:53:47Z</time>
      </trkpt>
      <trkpt lat="48.05518" lon="-3.47564">
        <ele>127.3</ele>
        <time>2025-02-26T12:53:48Z</time>
      </trkpt>
      <trkpt lat="48.05518" lon="-3.47567">
        <ele>127.4</ele>
        <time>2025-02-26T12:53:49Z</time>
      </trkpt>
      <trkpt lat="48.05517" lon="-3.47569">
        <ele>127.5</ele>
        <time>2025-02-26T12:53:50Z</time>
      </trkpt>
      <trkpt lat="48.05516" lon="-3.47571">
        <ele>127.5</ele>
        <time>2025-02-26T12:53:51Z</time>
      </trkpt>
      <trkpt lat="48.05515" lon="-3.47573">
        <ele>127.5</ele>
        <time>2025-02-26T12:53:52Z</time>
      </trkpt>
      <trkpt lat="48.05514" lon="-3.47575">
        <ele>127.5</ele>
        <time>2025-02-26T12:53:53Z</time>
      </trkpt>
      <trkpt lat="48.05512" lon="-3.47575">
        <ele>127.4</ele>
        <time>2025-02-26T12:53:54Z</time>
      </trkpt>
      <trkpt lat="48.05511" lon="-3.47576">
        <ele>127.4</ele>
        <time>2025-02-26T12:53:55Z</time>
      </trkpt>
      <trkpt lat="48.05511" lon="-3.47577">
        <ele>127.3</ele>
        <time>2025-02-26T12:53:56Z</time>
      </trkpt>
      <trkpt lat="48.05511" lon="-3.47579">
        <ele>127.3</ele>
        <time>2025-02-26T12:53:57Z</time>
      </trkpt>
      <trkpt lat="48.0551" lon="-3.47581">
        <ele>127.2</ele>
        <time>2025-02-26T12:53:58Z</time>
      </trkpt>
      <trkpt lat="48.05509" lon="-3.47581">
        <ele>127.1</ele>
        <time>2025-02-26T12:53:59Z</time>
      </trkpt>
      <trkpt lat="48.05508" lon="-3.47582">
        <ele>126.9</ele>
        <time>2025-02-26T12:54:00Z</time>
      </trkpt>
      <trkpt lat="48.05507" lon="-3.47583">
        <ele>126.8</ele>
        <time>2025-02-26T12:54:01Z</time>
      </trkpt>
      <trkpt lat="48.05507" lon="-3.47583">
        <ele>126.7</ele>
        <time>2025-02-26T12:54:02Z</time>
      </trkpt>
      <trkpt lat="48.05505" lon="-3.47582">
        <ele>126.7</ele>
        <time>2025-02-26T12:54:03Z</time>
      </trkpt>
      <trkpt lat="48.05504" lon="-3.47582">
        <ele>126.6</ele>
        <time>2025-02-26T12:54:04Z</time>
      </trkpt>
      <trkpt lat="48.05504" lon="-3.47582">
        <ele>126.5</ele>
        <time>2025-02-26T12:54:05Z</time>
      </trkpt>
      <trkpt lat="48.05503" lon="-3.47583">
        <ele>126.4</ele>
        <time>2025-02-26T12:54:06Z</time>
      </trkpt>
      <trkpt lat="48.05502" lon="-3.47584">
        <ele>126.2</ele>
        <time>2025-02-26T12:54:07Z</time>
      </trkpt>
      <trkpt lat="48.05502" lon="-3.47585">
        <ele>126.2</ele>
        <time>2025-02-26T12:54:08Z</time>
      </trkpt>
      <trkpt lat="48.05502" lon="-3.47587">
        <ele>126.1</ele>
        <time>2025-02-26T12:54:09Z</time>
      </trkpt>
      <trkpt lat="48.05501" lon="-3.47588">
        <ele>125.9</ele>
        <time>2025-02-26T12:54:10Z</time>
      </trkpt>
      <trkpt lat="48.055" lon="-3.47589">
        <ele>125.8</ele>
        <time>2025-02-26T12:54:11Z</time>
      </trkpt>
      <trkpt lat="48.05499" lon="-3.4759">
        <ele>126.1</ele>
        <time>2025-02-26T12:54:12Z</time>
      </trkpt>
      <trkpt lat="48.05499" lon="-3.47592">
        <ele>126.1</ele>
        <time>2025-02-26T12:54:13Z</time>
      </trkpt>
      <trkpt lat="48.05498" lon="-3.47593">
        <ele>126.3</ele>
        <time>2025-02-26T12:54:14Z</time>
      </trkpt>
      <trkpt lat="48.05497" lon="-3.47595">
        <ele>126.5</ele>
        <time>2025-02-26T12:54:15Z</time>
      </trkpt>
      <trkpt lat="48.05496" lon="-3.47597">
        <ele>126.7</ele>
        <time>2025-02-26T12:54:16Z</time>
      </trkpt>
      <trkpt lat="48.05495" lon="-3.47598">
        <ele>126.7</ele>
        <time>2025-02-26T12:54:17Z</time>
      </trkpt>
      <trkpt lat="48.05495" lon="-3.476">
        <ele>126.6</ele>
        <time>2025-02-26T12:54:18Z</time>
      </trkpt>
      <trkpt lat="48.05495" lon="-3.47602">
        <ele>126.5</ele>
        <time>2025-02-26T12:54:19Z</time>
      </trkpt>
      <trkpt lat="48.05497" lon="-3.47603">
        <ele>125.9</ele>
        <time>2025-02-26T12:54:20Z</time>
      </trkpt>
      <trkpt lat="48.05499" lon="-3.47604">
        <ele>125.5</ele>
        <time>2025-02-26T12:54:21Z</time>
      </trkpt>
      <trkpt lat="48.055" lon="-3.47605">
        <ele>125.2</ele>
        <time>2025-02-26T12:54:22Z</time>
      </trkpt>
      <trkpt lat="48.05499" lon="-3.47606">
        <ele>125.3</ele>
        <time>2025-02-26T12:54:23Z</time>
      </trkpt>
      <trkpt lat="48.05499" lon="-3.47606">
        <ele>125.4</ele>
        <time>2025-02-26T12:54:24Z</time>
      </trkpt>
      <trkpt lat="48.05499" lon="-3.47607">
        <ele>125.4</ele>
        <time>2025-02-26T12:54:25Z</time>
      </trkpt>
      <trkpt lat="48.05499" lon="-3.47608">
        <ele>125.4</ele>
        <time>2025-02-26T12:54:26Z</time>
      </trkpt>
      <trkpt lat="48.05499" lon="-3.47609">
        <ele>125.3</ele>
        <time>2025-02-26T12:54:27Z</time>
      </trkpt>
      <trkpt lat="48.05498" lon="-3.4761">
        <ele>125.6</ele>
        <time>2025-02-26T12:54:28Z</time>
      </trkpt>
      <trkpt lat="48.05497" lon="-3.47611">
        <ele>125.7</ele>
        <time>2025-02-26T12:54:29Z</time>
      </trkpt>
      <trkpt lat="48.05497" lon="-3.47612">
        <ele>125.7</ele>
        <time>2025-02-26T12:54:30Z</time>
      </trkpt>
      <trkpt lat="48.05497" lon="-3.47613">
        <ele>125.8</ele>
        <time>2025-02-26T12:54:31Z</time>
      </trkpt>
      <trkpt lat="48.05497" lon="-3.47615">
        <ele>125.9</ele>
        <time>2025-02-26T12:54:32Z</time>
      </trkpt>
      <trkpt lat="48.05496" lon="-3.47615">
        <ele>126.1</ele>
        <time>2025-02-26T12:54:33Z</time>
      </trkpt>
      <trkpt lat="48.05495" lon="-3.47617">
        <ele>126.3</ele>
        <time>2025-02-26T12:54:34Z</time>
      </trkpt>
      <trkpt lat="48.05494" lon="-3.47617">
        <ele>126.5</ele>
        <time>2025-02-26T12:54:35Z</time>
      </trkpt>
      <trkpt lat="48.05493" lon="-3.47618">
        <ele>126.7</ele>
        <time>2025-02-26T12:54:36Z</time>
      </trkpt>
      <trkpt lat="48.05493" lon="-3.47618">
        <ele>126.7</ele>
        <time>2025-02-26T12:54:37Z</time>
      </trkpt>
      <trkpt lat="48.05492" lon="-3.4762">
        <ele>126.8</ele>
        <time>2025-02-26T12:54:38Z</time>
      </trkpt>
      <trkpt lat="48.05491" lon="-3.47622">
        <ele>126.9</ele>
        <time>2025-02-26T12:54:39Z</time>
      </trkpt>
      <trkpt lat="48.0549" lon="-3.47624">
        <ele>127.1</ele>
        <time>2025-02-26T12:54:40Z</time>
      </trkpt>
      <trkpt lat="48.05488" lon="-3.47625">
        <ele>127.3</ele>
        <time>2025-02-26T12:54:41Z</time>
      </trkpt>
      <trkpt lat="48.05487" lon="-3.47625">
        <ele>127.4</ele>
        <time>2025-02-26T12:54:42Z</time>
      </trkpt>
      <trkpt lat="48.05486" lon="-3.47625">
        <ele>127.5</ele>
        <time>2025-02-26T12:54:43Z</time>
      </trkpt>
      <trkpt lat="48.05485" lon="-3.47625">
        <ele>127.6</ele>
        <time>2025-02-26T12:54:44Z</time>
      </trkpt>
      <trkpt lat="48.05485" lon="-3.47625">
        <ele>127.6</ele>
        <time>2025-02-26T12:54:45Z</time>
      </trkpt>
      <trkpt lat="48.05485" lon="-3.47626">
        <ele>127.6</ele>
        <time>2025-02-26T12:54:46Z</time>
      </trkpt>
      <trkpt lat="48.05485" lon="-3.47627">
        <ele>127.6</ele>
        <time>2025-02-26T12:54:47Z</time>
      </trkpt>
      <trkpt lat="48.05484" lon="-3.47628">
        <ele>127.5</ele>
        <time>2025-02-26T12:54:48Z</time>
      </trkpt>
      <trkpt lat="48.05484" lon="-3.47628">
        <ele>127.6</ele>
        <time>2025-02-26T12:54:49Z</time>
      </trkpt>
      <trkpt lat="48.05484" lon="-3.47628">
        <ele>127.6</ele>
        <time>2025-02-26T12:54:50Z</time>
      </trkpt>
      <trkpt lat="48.05484" lon="-3.47628">
        <ele>127.6</ele>
        <time>2025-02-26T12:54:51Z</time>
      </trkpt>
      <trkpt lat="48.05484" lon="-3.47628">
        <ele>127.5</ele>
        <time>2025-02-26T12:54:52Z</time>
      </trkpt>
      <trkpt lat="48.05485" lon="-3.47628">
        <ele>127.5</ele>
        <time>2025-02-26T12:54:53Z</time>
      </trkpt>
      <trkpt lat="48.05485" lon="-3.47628">
        <ele>127.5</ele>
        <time>2025-02-26T12:54:54Z</time>
      </trkpt>
      <trkpt lat="48.05485" lon="-3.47628">
        <ele>127.5</ele>
        <time>2025-02-26T12:54:55Z</time>
      </trkpt>
      <trkpt lat="48.05485" lon="-3.47628">
        <ele>127.5</ele>
        <time>2025-02-26T12:54:56Z</time>
      </trkpt>
      <trkpt lat="48.05485" lon="-3.47628">
        <ele>127.5</ele>
        <time>2025-02-26T12:54:57Z</time>
      </trkpt>
      <trkpt lat="48.05485" lon="-3.47628">
        <ele>127.5</ele>
        <time>2025-02-26T12:54:58Z</time>
      </trkpt>
      <trkpt lat="48.05485" lon="-3.47628">
        <ele>127.5</ele>
        <time>2025-02-26T12:54:59Z</time>
      </trkpt>
      <trkpt lat="48.05485" lon="-3.47628">
        <ele>127.5</ele>
        <time>2025-02-26T12:55:00Z</time>
      </trkpt>
      <trkpt lat="48.05485" lon="-3.47628">
        <ele>127.5</ele>
        <time>2025-02-26T12:55:01Z</time>
      </trkpt>
      <trkpt lat="48.05485" lon="-3.47628">
        <ele>127.5</ele>
        <time>2025-02-26T12:55:02Z</time>
      </trkpt>
      <trkpt lat="48.05485" lon="-3.47628">
        <ele>127.5</ele>
        <time>2025-02-26T12:55:03Z</time>
      </trkpt>
      <trkpt lat="48.05485" lon="-3.47628">
        <ele>127.5</ele>
        <time>2025-02-26T12:55:04Z</time>
      </trkpt>
      <trkpt lat="48.05485" lon="-3.47628">
        <ele>127.5</ele>
        <time>2025-02-26T12:55:05Z</time>
      </trkpt>
      <trkpt lat="48.05485" lon="-3.47628">
        <ele>127.5</ele>
        <time>2025-02-26T12:55:06Z</time>
      </trkpt>
      <trkpt lat="48.05485" lon="-3.47628">
        <ele>127.5</ele>
        <time>2025-02-26T12:55:07Z</time>
      </trkpt>
      <trkpt lat="48.05485" lon="-3.47629">
        <ele>127.5</ele>
        <time>2025-02-26T12:55:08Z</time>
      </trkpt>
      <trkpt lat="48.05485" lon="-3.47629">
        <ele>127.5</ele>
        <time>2025-02-26T12:55:09Z</time>
      </trkpt>
      <trkpt lat="48.05485" lon="-3.47629">
        <ele>127.4</ele>
        <time>2025-02-26T12:55:10Z</time>
      </trkpt>
      <trkpt lat="48.05486" lon="-3.47629">
        <ele>127.4</ele>
        <time>2025-02-26T12:55:11Z</time>
      </trkpt>
      <trkpt lat="48.05486" lon="-3.47629">
        <ele>127.4</ele>
        <time>2025-02-26T12:55:12Z</time>
      </trkpt>
      <trkpt lat="48.05486" lon="-3.47629">
        <ele>127.4</ele>
        <time>2025-02-26T12:55:13Z</time>
      </trkpt>
      <trkpt lat="48.05486" lon="-3.47629">
        <ele>127.3</ele>
        <time>2025-02-26T12:55:14Z</time>
      </trkpt>
      <trkpt lat="48.05486" lon="-3.4763">
        <ele>127.3</ele>
        <time>2025-02-26T12:55:15Z</time>
      </trkpt>
      <trkpt lat="48.05486" lon="-3.4763">
        <ele>127.3</ele>
        <time>2025-02-26T12:55:16Z</time>
      </trkpt>
      <trkpt lat="48.05486" lon="-3.4763">
        <ele>127.3</ele>
        <time>2025-02-26T12:55:17Z</time>
      </trkpt>
      <trkpt lat="48.05487" lon="-3.47629">
        <ele>127.3</ele>
        <time>2025-02-26T12:55:18Z</time>
      </trkpt>
      <trkpt lat="48.05487" lon="-3.4763">
        <ele>127.3</ele>
        <time>2025-02-26T12:55:19Z</time>
      </trkpt>
      <trkpt lat="48.05486" lon="-3.4763">
        <ele>127.3</ele>
        <time>2025-02-26T12:55:20Z</time>
      </trkpt>
      <trkpt lat="48.05486" lon="-3.47631">
        <ele>127.3</ele>
        <time>2025-02-26T12:55:21Z</time>
      </trkpt>
      <trkpt lat="48.05486" lon="-3.47635">
        <ele>127.2</ele>
        <time>2025-02-26T12:55:22Z</time>
      </trkpt>
      <trkpt lat="48.05485" lon="-3.47636">
        <ele>127.1</ele>
        <time>2025-02-26T12:55:23Z</time>
      </trkpt>
      <trkpt lat="48.05485" lon="-3.47637">
        <ele>127.1</ele>
        <time>2025-02-26T12:55:24Z</time>
      </trkpt>
      <trkpt lat="48.05484" lon="-3.47638">
        <ele>127</ele>
        <time>2025-02-26T12:55:25Z</time>
      </trkpt>
      <trkpt lat="48.05484" lon="-3.47639">
        <ele>127</ele>
        <time>2025-02-26T12:55:26Z</time>
      </trkpt>
      <trkpt lat="48.05485" lon="-3.47636">
        <ele>127.1</ele>
        <time>2025-02-26T12:55:27Z</time>
      </trkpt>
      <trkpt lat="48.05486" lon="-3.47636">
        <ele>127.1</ele>
        <time>2025-02-26T12:55:28Z</time>
      </trkpt>
      <trkpt lat="48.05486" lon="-3.47635">
        <ele>127.1</ele>
        <time>2025-02-26T12:55:29Z</time>
      </trkpt>
      <trkpt lat="48.05486" lon="-3.47635">
        <ele>127.1</ele>
        <time>2025-02-26T12:55:30Z</time>
      </trkpt>
      <trkpt lat="48.05486" lon="-3.47635">
        <ele>127.1</ele>
        <time>2025-02-26T12:55:31Z</time>
      </trkpt>
      <trkpt lat="48.05486" lon="-3.47635">
        <ele>127.1</ele>
        <time>2025-02-26T12:55:32Z</time>
      </trkpt>
      <trkpt lat="48.05486" lon="-3.47636">
        <ele>127.1</ele>
        <time>2025-02-26T12:55:33Z</time>
      </trkpt>
      <trkpt lat="48.05485" lon="-3.47637">
        <ele>127.1</ele>
        <time>2025-02-26T12:55:34Z</time>
      </trkpt>
      <trkpt lat="48.05484" lon="-3.47638">
        <ele>127.1</ele>
        <time>2025-02-26T12:55:35Z</time>
      </trkpt>
      <trkpt lat="48.05483" lon="-3.47639">
        <ele>127</ele>
        <time>2025-02-26T12:55:36Z</time>
      </trkpt>
      <trkpt lat="48.05483" lon="-3.4764">
        <ele>127</ele>
        <time>2025-02-26T12:55:37Z</time>
      </trkpt>
      <trkpt lat="48.05482" lon="-3.47642">
        <ele>127</ele>
        <time>2025-02-26T12:55:38Z</time>
      </trkpt>
      <trkpt lat="48.05482" lon="-3.47641">
        <ele>127</ele>
        <time>2025-02-26T12:55:39Z</time>
      </trkpt>
      <trkpt lat="48.05483" lon="-3.47639">
        <ele>127</ele>
        <time>2025-02-26T12:55:40Z</time>
      </trkpt>
      <trkpt lat="48.05483" lon="-3.47638">
        <ele>127</ele>
        <time>2025-02-26T12:55:41Z</time>
      </trkpt>
      <trkpt lat="48.05483" lon="-3.47638">
        <ele>127</ele>
        <time>2025-02-26T12:55:42Z</time>
      </trkpt>
      <trkpt lat="48.05483" lon="-3.47638">
        <ele>127</ele>
        <time>2025-02-26T12:55:43Z</time>
      </trkpt>
      <trkpt lat="48.05483" lon="-3.47638">
        <ele>127</ele>
        <time>2025-02-26T12:55:44Z</time>
      </trkpt>
      <trkpt lat="48.05483" lon="-3.47638">
        <ele>127</ele>
        <time>2025-02-26T12:55:45Z</time>
      </trkpt>
      <trkpt lat="48.05483" lon="-3.47638">
        <ele>127</ele>
        <time>2025-02-26T12:55:46Z</time>
      </trkpt>
      <trkpt lat="48.05483" lon="-3.47638">
        <ele>127</ele>
        <time>2025-02-26T12:55:47Z</time>
      </trkpt>
      <trkpt lat="48.05483" lon="-3.47638">
        <ele>127</ele>
        <time>2025-02-26T12:55:48Z</time>
      </trkpt>
      <trkpt lat="48.05483" lon="-3.47639">
        <ele>127</ele>
        <time>2025-02-26T12:55:49Z</time>
      </trkpt>
      <trkpt lat="48.05483" lon="-3.47638">
        <ele>127</ele>
        <time>2025-02-26T12:55:50Z</time>
      </trkpt>
      <trkpt lat="48.05482" lon="-3.47638">
        <ele>127</ele>
        <time>2025-02-26T12:55:51Z</time>
      </trkpt>
      <trkpt lat="48.05481" lon="-3.4764">
        <ele>127</ele>
        <time>2025-02-26T12:55:52Z</time>
      </trkpt>
      <trkpt lat="48.0548" lon="-3.47642">
        <ele>127</ele>
        <time>2025-02-26T12:55:53Z</time>
      </trkpt>
      <trkpt lat="48.05479" lon="-3.47643">
        <ele>126.9</ele>
        <time>2025-02-26T12:55:54Z</time>
      </trkpt>
      <trkpt lat="48.05478" lon="-3.47644">
        <ele>126.9</ele>
        <time>2025-02-26T12:55:55Z</time>
      </trkpt>
      <trkpt lat="48.05477" lon="-3.47646">
        <ele>126.8</ele>
        <time>2025-02-26T12:55:56Z</time>
      </trkpt>
      <trkpt lat="48.05476" lon="-3.47649">
        <ele>126.6</ele>
        <time>2025-02-26T12:55:57Z</time>
      </trkpt>
      <trkpt lat="48.05476" lon="-3.47652">
        <ele>126.4</ele>
        <time>2025-02-26T12:55:58Z</time>
      </trkpt>
      <trkpt lat="48.05476" lon="-3.47654">
        <ele>126.3</ele>
        <time>2025-02-26T12:55:59Z</time>
      </trkpt>
      <trkpt lat="48.05476" lon="-3.47656">
        <ele>126.2</ele>
        <time>2025-02-26T12:56:00Z</time>
      </trkpt>
      <trkpt lat="48.05476" lon="-3.47657">
        <ele>126.1</ele>
        <time>2025-02-26T12:56:01Z</time>
      </trkpt>
      <trkpt lat="48.05476" lon="-3.47659">
        <ele>126.1</ele>
        <time>2025-02-26T12:56:02Z</time>
      </trkpt>
      <trkpt lat="48.05475" lon="-3.47661">
        <ele>125.9</ele>
        <time>2025-02-26T12:56:03Z</time>
      </trkpt>
      <trkpt lat="48.05475" lon="-3.47662">
        <ele>125.7</ele>
        <time>2025-02-26T12:56:04Z</time>
      </trkpt>
      <trkpt lat="48.05474" lon="-3.47663">
        <ele>125.5</ele>
        <time>2025-02-26T12:56:05Z</time>
      </trkpt>
      <trkpt lat="48.05472" lon="-3.47664">
        <ele>125.2</ele>
        <time>2025-02-26T12:56:06Z</time>
      </trkpt>
      <trkpt lat="48.05471" lon="-3.47665">
        <ele>125.3</ele>
        <time>2025-02-26T12:56:07Z</time>
      </trkpt>
      <trkpt lat="48.05471" lon="-3.47666">
        <ele>125.4</ele>
        <time>2025-02-26T12:56:08Z</time>
      </trkpt>
      <trkpt lat="48.0547" lon="-3.47667">
        <ele>125.5</ele>
        <time>2025-02-26T12:56:09Z</time>
      </trkpt>
      <trkpt lat="48.05469" lon="-3.47668">
        <ele>125.7</ele>
        <time>2025-02-26T12:56:10Z</time>
      </trkpt>
      <trkpt lat="48.05468" lon="-3.47669">
        <ele>125.9</ele>
        <time>2025-02-26T12:56:11Z</time>
      </trkpt>
      <trkpt lat="48.05467" lon="-3.47669">
        <ele>126.1</ele>
        <time>2025-02-26T12:56:12Z</time>
      </trkpt>
      <trkpt lat="48.05466" lon="-3.47669">
        <ele>126.4</ele>
        <time>2025-02-26T12:56:13Z</time>
      </trkpt>
      <trkpt lat="48.05465" lon="-3.47669">
        <ele>126.5</ele>
        <time>2025-02-26T12:56:14Z</time>
      </trkpt>
      <trkpt lat="48.05464" lon="-3.47671">
        <ele>126.7</ele>
        <time>2025-02-26T12:56:15Z</time>
      </trkpt>
      <trkpt lat="48.05463" lon="-3.47672">
        <ele>126.8</ele>
        <time>2025-02-26T12:56:16Z</time>
      </trkpt>
      <trkpt lat="48.05463" lon="-3.47672">
        <ele>126.9</ele>
        <time>2025-02-26T12:56:17Z</time>
      </trkpt>
      <trkpt lat="48.05462" lon="-3.47673">
        <ele>126.9</ele>
        <time>2025-02-26T12:56:18Z</time>
      </trkpt>
      <trkpt lat="48.05461" lon="-3.47673">
        <ele>127.1</ele>
        <time>2025-02-26T12:56:19Z</time>
      </trkpt>
      <trkpt lat="48.0546" lon="-3.47674">
        <ele>127.2</ele>
        <time>2025-02-26T12:56:20Z</time>
      </trkpt>
      <trkpt lat="48.05459" lon="-3.47675">
        <ele>127.2</ele>
        <time>2025-02-26T12:56:21Z</time>
      </trkpt>
      <trkpt lat="48.05459" lon="-3.47677">
        <ele>127.2</ele>
        <time>2025-02-26T12:56:22Z</time>
      </trkpt>
      <trkpt lat="48.05457" lon="-3.4768">
        <ele>127.2</ele>
        <time>2025-02-26T12:56:23Z</time>
      </trkpt>
      <trkpt lat="48.05457" lon="-3.4768">
        <ele>127.2</ele>
        <time>2025-02-26T12:56:24Z</time>
      </trkpt>
      <trkpt lat="48.05456" lon="-3.47681">
        <ele>127.3</ele>
        <time>2025-02-26T12:56:25Z</time>
      </trkpt>
      <trkpt lat="48.05455" lon="-3.47682">
        <ele>127.2</ele>
        <time>2025-02-26T12:56:26Z</time>
      </trkpt>
      <trkpt lat="48.05455" lon="-3.47684">
        <ele>127.1</ele>
        <time>2025-02-26T12:56:27Z</time>
      </trkpt>
      <trkpt lat="48.05454" lon="-3.47685">
        <ele>127</ele>
        <time>2025-02-26T12:56:28Z</time>
      </trkpt>
      <trkpt lat="48.05453" lon="-3.47685">
        <ele>127.1</ele>
        <time>2025-02-26T12:56:29Z</time>
      </trkpt>
      <trkpt lat="48.05453" lon="-3.47685">
        <ele>127</ele>
        <time>2025-02-26T12:56:30Z</time>
      </trkpt>
      <trkpt lat="48.05452" lon="-3.47685">
        <ele>127.1</ele>
        <time>2025-02-26T12:56:31Z</time>
      </trkpt>
      <trkpt lat="48.05451" lon="-3.47686">
        <ele>127.1</ele>
        <time>2025-02-26T12:56:32Z</time>
      </trkpt>
      <trkpt lat="48.05452" lon="-3.47686">
        <ele>127</ele>
        <time>2025-02-26T12:56:33Z</time>
      </trkpt>
      <trkpt lat="48.05453" lon="-3.47688">
        <ele>126.8</ele>
        <time>2025-02-26T12:56:34Z</time>
      </trkpt>
      <trkpt lat="48.05453" lon="-3.47689">
        <ele>126.7</ele>
        <time>2025-02-26T12:56:35Z</time>
      </trkpt>
      <trkpt lat="48.05452" lon="-3.47689">
        <ele>126.7</ele>
        <time>2025-02-26T12:56:36Z</time>
      </trkpt>
      <trkpt lat="48.05451" lon="-3.47688">
        <ele>126.9</ele>
        <time>2025-02-26T12:56:37Z</time>
      </trkpt>
      <trkpt lat="48.0545" lon="-3.47689">
        <ele>126.8</ele>
        <time>2025-02-26T12:56:38Z</time>
      </trkpt>
      <trkpt lat="48.05449" lon="-3.4769">
        <ele>126.6</ele>
        <time>2025-02-26T12:56:39Z</time>
      </trkpt>
      <trkpt lat="48.05448" lon="-3.47692">
        <ele>126.4</ele>
        <time>2025-02-26T12:56:40Z</time>
      </trkpt>
      <trkpt lat="48.05448" lon="-3.47692">
        <ele>126.3</ele>
        <time>2025-02-26T12:56:41Z</time>
      </trkpt>
      <trkpt lat="48.05447" lon="-3.47693">
        <ele>126.2</ele>
        <time>2025-02-26T12:56:42Z</time>
      </trkpt>
      <trkpt lat="48.05449" lon="-3.47691">
        <ele>126.5</ele>
        <time>2025-02-26T12:56:43Z</time>
      </trkpt>
      <trkpt lat="48.05448" lon="-3.47691">
        <ele>126.5</ele>
        <time>2025-02-26T12:56:44Z</time>
      </trkpt>
      <trkpt lat="48.05449" lon="-3.47691">
        <ele>126.5</ele>
        <time>2025-02-26T12:56:45Z</time>
      </trkpt>
      <trkpt lat="48.05448" lon="-3.47693">
        <ele>126.3</ele>
        <time>2025-02-26T12:56:46Z</time>
      </trkpt>
      <trkpt lat="48.05448" lon="-3.47694">
        <ele>126</ele>
        <time>2025-02-26T12:56:47Z</time>
      </trkpt>
      <trkpt lat="48.05447" lon="-3.47696">
        <ele>125.9</ele>
        <time>2025-02-26T12:56:48Z</time>
      </trkpt>
      <trkpt lat="48.05447" lon="-3.47698">
        <ele>125.7</ele>
        <time>2025-02-26T12:56:49Z</time>
      </trkpt>
      <trkpt lat="48.05446" lon="-3.47699">
        <ele>125.6</ele>
        <time>2025-02-26T12:56:50Z</time>
      </trkpt>
      <trkpt lat="48.05446" lon="-3.477">
        <ele>125.5</ele>
        <time>2025-02-26T12:56:51Z</time>
      </trkpt>
      <trkpt lat="48.05445" lon="-3.47701">
        <ele>125.3</ele>
        <time>2025-02-26T12:56:52Z</time>
      </trkpt>
      <trkpt lat="48.05445" lon="-3.47703">
        <ele>125.2</ele>
        <time>2025-02-26T12:56:53Z</time>
      </trkpt>
      <trkpt lat="48.05444" lon="-3.47703">
        <ele>125.1</ele>
        <time>2025-02-26T12:56:54Z</time>
      </trkpt>
      <trkpt lat="48.05444" lon="-3.47704">
        <ele>125</ele>
        <time>2025-02-26T12:56:55Z</time>
      </trkpt>
      <trkpt lat="48.05443" lon="-3.47705">
        <ele>124.9</ele>
        <time>2025-02-26T12:56:56Z</time>
      </trkpt>
      <trkpt lat="48.05443" lon="-3.47706">
        <ele>124.8</ele>
        <time>2025-02-26T12:56:57Z</time>
      </trkpt>
      <trkpt lat="48.05443" lon="-3.47707">
        <ele>124.7</ele>
        <time>2025-02-26T12:56:58Z</time>
      </trkpt>
      <trkpt lat="48.05442" lon="-3.47709">
        <ele>124.5</ele>
        <time>2025-02-26T12:56:59Z</time>
      </trkpt>
      <trkpt lat="48.05442" lon="-3.47711">
        <ele>124.3</ele>
        <time>2025-02-26T12:57:00Z</time>
      </trkpt>
      <trkpt lat="48.05441" lon="-3.47711">
        <ele>124.3</ele>
        <time>2025-02-26T12:57:01Z</time>
      </trkpt>
      <trkpt lat="48.05441" lon="-3.47712">
        <ele>124.2</ele>
        <time>2025-02-26T12:57:02Z</time>
      </trkpt>
      <trkpt lat="48.05441" lon="-3.47712">
        <ele>124.2</ele>
        <time>2025-02-26T12:57:03Z</time>
      </trkpt>
      <trkpt lat="48.05439" lon="-3.47713">
        <ele>124.2</ele>
        <time>2025-02-26T12:57:04Z</time>
      </trkpt>
      <trkpt lat="48.05439" lon="-3.47713">
        <ele>124.2</ele>
        <time>2025-02-26T12:57:05Z</time>
      </trkpt>
      <trkpt lat="48.05439" lon="-3.47712">
        <ele>124.2</ele>
        <time>2025-02-26T12:57:06Z</time>
      </trkpt>
      <trkpt lat="48.05437" lon="-3.47713">
        <ele>124.2</ele>
        <time>2025-02-26T12:57:07Z</time>
      </trkpt>
      <trkpt lat="48.05437" lon="-3.47713">
        <ele>124.2</ele>
        <time>2025-02-26T12:57:08Z</time>
      </trkpt>
      <trkpt lat="48.05435" lon="-3.47714">
        <ele>124.1</ele>
        <time>2025-02-26T12:57:09Z</time>
      </trkpt>
      <trkpt lat="48.05434" lon="-3.47714">
        <ele>124.2</ele>
        <time>2025-02-26T12:57:10Z</time>
      </trkpt>
      <trkpt lat="48.05434" lon="-3.47713">
        <ele>124.2</ele>
        <time>2025-02-26T12:57:11Z</time>
      </trkpt>
      <trkpt lat="48.05434" lon="-3.47713">
        <ele>124.2</ele>
        <time>2025-02-26T12:57:12Z</time>
      </trkpt>
      <trkpt lat="48.05434" lon="-3.47713">
        <ele>124.2</ele>
        <time>2025-02-26T12:57:13Z</time>
      </trkpt>
      <trkpt lat="48.05434" lon="-3.47714">
        <ele>124.2</ele>
        <time>2025-02-26T12:57:14Z</time>
      </trkpt>
      <trkpt lat="48.05434" lon="-3.47715">
        <ele>124</ele>
        <time>2025-02-26T12:57:15Z</time>
      </trkpt>
      <trkpt lat="48.05434" lon="-3.47715">
        <ele>124</ele>
        <time>2025-02-26T12:57:16Z</time>
      </trkpt>
      <trkpt lat="48.05433" lon="-3.47716">
        <ele>123.9</ele>
        <time>2025-02-26T12:57:17Z</time>
      </trkpt>
      <trkpt lat="48.05433" lon="-3.47716">
        <ele>123.8</ele>
        <time>2025-02-26T12:57:18Z</time>
      </trkpt>
      <trkpt lat="48.05433" lon="-3.47716">
        <ele>123.9</ele>
        <time>2025-02-26T12:57:19Z</time>
      </trkpt>
      <trkpt lat="48.05433" lon="-3.47716">
        <ele>123.9</ele>
        <time>2025-02-26T12:57:20Z</time>
      </trkpt>
      <trkpt lat="48.05433" lon="-3.47715">
        <ele>123.9</ele>
        <time>2025-02-26T12:57:21Z</time>
      </trkpt>
      <trkpt lat="48.05432" lon="-3.47715">
        <ele>124</ele>
        <time>2025-02-26T12:57:22Z</time>
      </trkpt>
      <trkpt lat="48.05432" lon="-3.47715">
        <ele>124</ele>
        <time>2025-02-26T12:57:23Z</time>
      </trkpt>
      <trkpt lat="48.05432" lon="-3.47715">
        <ele>124</ele>
        <time>2025-02-26T12:57:24Z</time>
      </trkpt>
      <trkpt lat="48.05431" lon="-3.47715">
        <ele>124</ele>
        <time>2025-02-26T12:57:25Z</time>
      </trkpt>
      <trkpt lat="48.05431" lon="-3.47714">
        <ele>124.1</ele>
        <time>2025-02-26T12:57:26Z</time>
      </trkpt>
      <trkpt lat="48.05431" lon="-3.47715">
        <ele>124.1</ele>
        <time>2025-02-26T12:57:27Z</time>
      </trkpt>
      <trkpt lat="48.05431" lon="-3.47715">
        <ele>124.1</ele>
        <time>2025-02-26T12:57:28Z</time>
      </trkpt>
      <trkpt lat="48.05431" lon="-3.47714">
        <ele>124.1</ele>
        <time>2025-02-26T12:57:29Z</time>
      </trkpt>
      <trkpt lat="48.0543" lon="-3.47714">
        <ele>124.1</ele>
        <time>2025-02-26T12:57:30Z</time>
      </trkpt>
      <trkpt lat="48.0543" lon="-3.47715">
        <ele>124.1</ele>
        <time>2025-02-26T12:57:31Z</time>
      </trkpt>
      <trkpt lat="48.0543" lon="-3.47715">
        <ele>124.1</ele>
        <time>2025-02-26T12:57:32Z</time>
      </trkpt>
      <trkpt lat="48.0543" lon="-3.47716">
        <ele>124</ele>
        <time>2025-02-26T12:57:33Z</time>
      </trkpt>
      <trkpt lat="48.05429" lon="-3.47716">
        <ele>124</ele>
        <time>2025-02-26T12:57:34Z</time>
      </trkpt>
      <trkpt lat="48.05429" lon="-3.47716">
        <ele>123.9</ele>
        <time>2025-02-26T12:57:35Z</time>
      </trkpt>
      <trkpt lat="48.05429" lon="-3.47716">
        <ele>123.9</ele>
        <time>2025-02-26T12:57:36Z</time>
      </trkpt>
      <trkpt lat="48.05429" lon="-3.47716">
        <ele>123.9</ele>
        <time>2025-02-26T12:57:37Z</time>
      </trkpt>
      <trkpt lat="48.05429" lon="-3.47717">
        <ele>123.8</ele>
        <time>2025-02-26T12:57:38Z</time>
      </trkpt>
      <trkpt lat="48.05429" lon="-3.47717">
        <ele>123.8</ele>
        <time>2025-02-26T12:57:39Z</time>
      </trkpt>
      <trkpt lat="48.05429" lon="-3.47717">
        <ele>123.8</ele>
        <time>2025-02-26T12:57:40Z</time>
      </trkpt>
      <trkpt lat="48.05429" lon="-3.47717">
        <ele>123.8</ele>
        <time>2025-02-26T12:57:41Z</time>
      </trkpt>
      <trkpt lat="48.05429" lon="-3.47717">
        <ele>123.8</ele>
        <time>2025-02-26T12:57:42Z</time>
      </trkpt>
      <trkpt lat="48.05428" lon="-3.47717">
        <ele>123.8</ele>
        <time>2025-02-26T12:57:43Z</time>
      </trkpt>
      <trkpt lat="48.05428" lon="-3.47717">
        <ele>123.9</ele>
        <time>2025-02-26T12:57:44Z</time>
      </trkpt>
      <trkpt lat="48.05428" lon="-3.47716">
        <ele>123.9</ele>
        <time>2025-02-26T12:57:45Z</time>
      </trkpt>
      <trkpt lat="48.05428" lon="-3.47716">
        <ele>123.9</ele>
        <time>2025-02-26T12:57:46Z</time>
      </trkpt>
      <trkpt lat="48.05428" lon="-3.47716">
        <ele>123.9</ele>
        <time>2025-02-26T12:57:47Z</time>
      </trkpt>
      <trkpt lat="48.05427" lon="-3.47716">
        <ele>123.9</ele>
        <time>2025-02-26T12:57:48Z</time>
      </trkpt>
      <trkpt lat="48.05427" lon="-3.47716">
        <ele>124</ele>
        <time>2025-02-26T12:57:49Z</time>
      </trkpt>
      <trkpt lat="48.05426" lon="-3.47715">
        <ele>124.2</ele>
        <time>2025-02-26T12:57:50Z</time>
      </trkpt>
      <trkpt lat="48.05426" lon="-3.47715">
        <ele>124.2</ele>
        <time>2025-02-26T12:57:51Z</time>
      </trkpt>
      <trkpt lat="48.05425" lon="-3.47715">
        <ele>124.2</ele>
        <time>2025-02-26T12:57:52Z</time>
      </trkpt>
      <trkpt lat="48.05425" lon="-3.47715">
        <ele>124.2</ele>
        <time>2025-02-26T12:57:53Z</time>
      </trkpt>
      <trkpt lat="48.05424" lon="-3.47715">
        <ele>124.1</ele>
        <time>2025-02-26T12:57:54Z</time>
      </trkpt>
      <trkpt lat="48.05424" lon="-3.47716">
        <ele>124.1</ele>
        <time>2025-02-26T12:57:55Z</time>
      </trkpt>
      <trkpt lat="48.05424" lon="-3.47716">
        <ele>124</ele>
        <time>2025-02-26T12:57:56Z</time>
      </trkpt>
      <trkpt lat="48.05424" lon="-3.47716">
        <ele>124</ele>
        <time>2025-02-26T12:57:57Z</time>
      </trkpt>
      <trkpt lat="48.05424" lon="-3.47716">
        <ele>124</ele>
        <time>2025-02-26T12:57:58Z</time>
      </trkpt>
      <trkpt lat="48.05424" lon="-3.47716">
        <ele>124</ele>
        <time>2025-02-26T12:57:59Z</time>
      </trkpt>
      <trkpt lat="48.05424" lon="-3.47716">
        <ele>124</ele>
        <time>2025-02-26T12:58:00Z</time>
      </trkpt>
      <trkpt lat="48.05424" lon="-3.47716">
        <ele>124</ele>
        <time>2025-02-26T12:58:01Z</time>
      </trkpt>
      <trkpt lat="48.05424" lon="-3.47716">
        <ele>124</ele>
        <time>2025-02-26T12:58:02Z</time>
      </trkpt>
      <trkpt lat="48.05424" lon="-3.47716">
        <ele>124</ele>
        <time>2025-02-26T12:58:03Z</time>
      </trkpt>
      <trkpt lat="48.05424" lon="-3.47716">
        <ele>124</ele>
        <time>2025-02-26T12:58:04Z</time>
      </trkpt>
      <trkpt lat="48.05424" lon="-3.47716">
        <ele>124</ele>
        <time>2025-02-26T12:58:05Z</time>
      </trkpt>
      <trkpt lat="48.05424" lon="-3.47716">
        <ele>124</ele>
        <time>2025-02-26T12:58:06Z</time>
      </trkpt>
      <trkpt lat="48.05424" lon="-3.47716">
        <ele>124</ele>
        <time>2025-02-26T12:58:07Z</time>
      </trkpt>
      <trkpt lat="48.05424" lon="-3.47716">
        <ele>124</ele>
        <time>2025-02-26T12:58:08Z</time>
      </trkpt>
      <trkpt lat="48.05424" lon="-3.47716">
        <ele>124</ele>
        <time>2025-02-26T12:58:09Z</time>
      </trkpt>
      <trkpt lat="48.05424" lon="-3.47716">
        <ele>124</ele>
        <time>2025-02-26T12:58:10Z</time>
      </trkpt>
      <trkpt lat="48.05424" lon="-3.47716">
        <ele>124</ele>
        <time>2025-02-26T12:58:11Z</time>
      </trkpt>
      <trkpt lat="48.05424" lon="-3.47716">
        <ele>124</ele>
        <time>2025-02-26T12:58:12Z</time>
      </trkpt>
      <trkpt lat="48.05424" lon="-3.47716">
        <ele>124</ele>
        <time>2025-02-26T12:58:13Z</time>
      </trkpt>
      <trkpt lat="48.05424" lon="-3.47716">
        <ele>124</ele>
        <time>2025-02-26T12:58:14Z</time>
      </trkpt>
      <trkpt lat="48.05424" lon="-3.47716">
        <ele>124</ele>
        <time>2025-02-26T12:58:15Z</time>
      </trkpt>
      <trkpt lat="48.05424" lon="-3.47716">
        <ele>124</ele>
        <time>2025-02-26T12:58:16Z</time>
      </trkpt>
      <trkpt lat="48.05424" lon="-3.47716">
        <ele>124</ele>
        <time>2025-02-26T12:58:17Z</time>
      </trkpt>
      <trkpt lat="48.05424" lon="-3.47716">
        <ele>124</ele>
        <time>2025-02-26T12:58:18Z</time>
      </trkpt>
      <trkpt lat="48.05424" lon="-3.47716">
        <ele>124</ele>
        <time>2025-02-26T12:58:19Z</time>
      </trkpt>
      <trkpt lat="48.05424" lon="-3.47716">
        <ele>124</ele>
        <time>2025-02-26T12:58:20Z</time>
      </trkpt>
      <trkpt lat="48.05424" lon="-3.47716">
        <ele>124</ele>
        <time>2025-02-26T12:58:21Z</time>
      </trkpt>
      <trkpt lat="48.05424" lon="-3.47716">
        <ele>124</ele>
        <time>2025-02-26T12:58:22Z</time>
      </trkpt>
      <trkpt lat="48.05424" lon="-3.47716">
        <ele>124</ele>
        <time>2025-02-26T12:58:23Z</time>
      </trkpt>
      <trkpt lat="48.05424" lon="-3.47716">
        <ele>124</ele>
        <time>2025-02-26T12:58:24Z</time>
      </trkpt>
      <trkpt lat="48.05424" lon="-3.47716">
        <ele>124</ele>
        <time>2025-02-26T12:58:25Z</time>
      </trkpt>
      <trkpt lat="48.05424" lon="-3.47716">
        <ele>124</ele>
        <time>2025-02-26T12:58:26Z</time>
      </trkpt>
      <trkpt lat="48.05424" lon="-3.47716">
        <ele>124</ele>
        <time>2025-02-26T12:58:27Z</time>
      </trkpt>
      <trkpt lat="48.05424" lon="-3.47716">
        <ele>124</ele>
        <time>2025-02-26T12:58:28Z</time>
      </trkpt>
      <trkpt lat="48.05424" lon="-3.47716">
        <ele>124</ele>
        <time>2025-02-26T12:58:29Z</time>
      </trkpt>
      <trkpt lat="48.05424" lon="-3.47716">
        <ele>124</ele>
        <time>2025-02-26T12:58:30Z</time>
      </trkpt>
      <trkpt lat="48.05424" lon="-3.47716">
        <ele>124</ele>
        <time>2025-02-26T12:58:31Z</time>
      </trkpt>
      <trkpt lat="48.05424" lon="-3.47716">
        <ele>124</ele>
        <time>2025-02-26T12:58:32Z</time>
      </trkpt>
      <trkpt lat="48.05424" lon="-3.47716">
        <ele>124</ele>
        <time>2025-02-26T12:58:33Z</time>
      </trkpt>
      <trkpt lat="48.05424" lon="-3.47716">
        <ele>124</ele>
        <time>2025-02-26T12:58:34Z</time>
      </trkpt>
      <trkpt lat="48.05424" lon="-3.47716">
        <ele>124</ele>
        <time>2025-02-26T12:58:35Z</time>
      </trkpt>
      <trkpt lat="48.05424" lon="-3.47716">
        <ele>124</ele>
        <time>2025-02-26T12:58:36Z</time>
      </trkpt>
      <trkpt lat="48.05424" lon="-3.47716">
        <ele>124</ele>
        <time>2025-02-26T12:58:37Z</time>
      </trkpt>
      <trkpt lat="48.05424" lon="-3.47716">
        <ele>124</ele>
        <time>2025-02-26T12:58:38Z</time>
      </trkpt>
      <trkpt lat="48.05424" lon="-3.47716">
        <ele>124</ele>
        <time>2025-02-26T12:58:39Z</time>
      </trkpt>
      <trkpt lat="48.05424" lon="-3.47716">
        <ele>124</ele>
        <time>2025-02-26T12:58:40Z</time>
      </trkpt>
      <trkpt lat="48.05424" lon="-3.47716">
        <ele>124</ele>
        <time>2025-02-26T12:58:41Z</time>
      </trkpt>
      <trkpt lat="48.05424" lon="-3.47716">
        <ele>124</ele>
        <time>2025-02-26T12:58:42Z</time>
      </trkpt>
      <trkpt lat="48.05424" lon="-3.47716">
        <ele>124</ele>
        <time>2025-02-26T12:58:43Z</time>
      </trkpt>
      <trkpt lat="48.05424" lon="-3.47716">
        <ele>124</ele>
        <time>2025-02-26T12:58:44Z</time>
      </trkpt>
      <trkpt lat="48.05424" lon="-3.47716">
        <ele>124</ele>
        <time>2025-02-26T12:58:45Z</time>
      </trkpt>
      <trkpt lat="48.05424" lon="-3.47716">
        <ele>124</ele>
        <time>2025-02-26T12:58:46Z</time>
      </trkpt>
      <trkpt lat="48.05424" lon="-3.47716">
        <ele>124</ele>
        <time>2025-02-26T12:58:47Z</time>
      </trkpt>
      <trkpt lat="48.05424" lon="-3.47716">
        <ele>124</ele>
        <time>2025-02-26T12:58:48Z</time>
      </trkpt>
      <trkpt lat="48.05424" lon="-3.47716">
        <ele>124</ele>
        <time>2025-02-26T12:58:49Z</time>
      </trkpt>
      <trkpt lat="48.05424" lon="-3.47716">
        <ele>124</ele>
        <time>2025-02-26T12:58:50Z</time>
      </trkpt>
      <trkpt lat="48.05424" lon="-3.47716">
        <ele>124</ele>
        <time>2025-02-26T12:58:51Z</time>
      </trkpt>
      <trkpt lat="48.05424" lon="-3.47716">
        <ele>124</ele>
        <time>2025-02-26T12:58:52Z</time>
      </trkpt>
      <trkpt lat="48.05424" lon="-3.47716">
        <ele>124</ele>
        <time>2025-02-26T12:58:53Z</time>
      </trkpt>
      <trkpt lat="48.05424" lon="-3.47716">
        <ele>124</ele>
        <time>2025-02-26T12:58:54Z</time>
      </trkpt>
      <trkpt lat="48.05424" lon="-3.47716">
        <ele>124</ele>
        <time>2025-02-26T12:58:55Z</time>
      </trkpt>
      <trkpt lat="48.05424" lon="-3.47716">
        <ele>124</ele>
        <time>2025-02-26T12:58:56Z</time>
      </trkpt>
      <trkpt lat="48.05424" lon="-3.47716">
        <ele>124</ele>
        <time>2025-02-26T12:58:57Z</time>
      </trkpt>
      <trkpt lat="48.05424" lon="-3.47716">
        <ele>124</ele>
        <time>2025-02-26T12:58:58Z</time>
      </trkpt>
      <trkpt lat="48.05424" lon="-3.47716">
        <ele>124</ele>
        <time>2025-02-26T12:58:59Z</time>
      </trkpt>
      <trkpt lat="48.05424" lon="-3.47716">
        <ele>124</ele>
        <time>2025-02-26T12:59:00Z</time>
      </trkpt>
      <trkpt lat="48.05424" lon="-3.47716">
        <ele>124</ele>
        <time>2025-02-26T12:59:01Z</time>
      </trkpt>
      <trkpt lat="48.05424" lon="-3.47716">
        <ele>124</ele>
        <time>2025-02-26T12:59:02Z</time>
      </trkpt>
      <trkpt lat="48.05424" lon="-3.47716">
        <ele>124</ele>
        <time>2025-02-26T12:59:03Z</time>
      </trkpt>
      <trkpt lat="48.05424" lon="-3.47716">
        <ele>124</ele>
        <time>2025-02-26T12:59:04Z</time>
      </trkpt>
      <trkpt lat="48.05424" lon="-3.47716">
        <ele>124</ele>
        <time>2025-02-26T12:59:05Z</time>
      </trkpt>
      <trkpt lat="48.05424" lon="-3.47716">
        <ele>124</ele>
        <time>2025-02-26T12:59:06Z</time>
      </trkpt>
      <trkpt lat="48.05424" lon="-3.47716">
        <ele>124</ele>
        <time>2025-02-26T12:59:07Z</time>
      </trkpt>
      <trkpt lat="48.05424" lon="-3.47716">
        <ele>124</ele>
        <time>2025-02-26T12:59:08Z</time>
      </trkpt>
      <trkpt lat="48.05423" lon="-3.47717">
        <ele>123.9</ele>
        <time>2025-02-26T12:59:09Z</time>
      </trkpt>
      <trkpt lat="48.05423" lon="-3.47717">
        <ele>123.8</ele>
        <time>2025-02-26T12:59:10Z</time>
      </trkpt>
      <trkpt lat="48.05424" lon="-3.47718">
        <ele>123.8</ele>
        <time>2025-02-26T12:59:11Z</time>
      </trkpt>
      <trkpt lat="48.05423" lon="-3.47718">
        <ele>123.7</ele>
        <time>2025-02-26T12:59:12Z</time>
      </trkpt>
      <trkpt lat="48.05423" lon="-3.47718">
        <ele>123.7</ele>
        <time>2025-02-26T12:59:13Z</time>
      </trkpt>
      <trkpt lat="48.05423" lon="-3.47719">
        <ele>123.5</ele>
        <time>2025-02-26T12:59:14Z</time>
      </trkpt>
      <trkpt lat="48.05424" lon="-3.4772">
        <ele>123.3</ele>
        <time>2025-02-26T12:59:15Z</time>
      </trkpt>
      <trkpt lat="48.05424" lon="-3.47721">
        <ele>123.3</ele>
        <time>2025-02-26T12:59:16Z</time>
      </trkpt>
      <trkpt lat="48.05424" lon="-3.47721">
        <ele>123.1</ele>
        <time>2025-02-26T12:59:17Z</time>
      </trkpt>
      <trkpt lat="48.05424" lon="-3.47722">
        <ele>123.1</ele>
        <time>2025-02-26T12:59:18Z</time>
      </trkpt>
      <trkpt lat="48.05424" lon="-3.47722">
        <ele>123.1</ele>
        <time>2025-02-26T12:59:19Z</time>
      </trkpt>
      <trkpt lat="48.05423" lon="-3.47723">
        <ele>123.1</ele>
        <time>2025-02-26T12:59:20Z</time>
      </trkpt>
      <trkpt lat="48.05423" lon="-3.47724">
        <ele>123.3</ele>
        <time>2025-02-26T12:59:21Z</time>
      </trkpt>
      <trkpt lat="48.05424" lon="-3.47724">
        <ele>123.3</ele>
        <time>2025-02-26T12:59:22Z</time>
      </trkpt>
      <trkpt lat="48.05424" lon="-3.47724">
        <ele>123.2</ele>
        <time>2025-02-26T12:59:23Z</time>
      </trkpt>
      <trkpt lat="48.05424" lon="-3.47723">
        <ele>123.1</ele>
        <time>2025-02-26T12:59:24Z</time>
      </trkpt>
      <trkpt lat="48.05424" lon="-3.47723">
        <ele>123.1</ele>
        <time>2025-02-26T12:59:25Z</time>
      </trkpt>
      <trkpt lat="48.05423" lon="-3.47723">
        <ele>123.1</ele>
        <time>2025-02-26T12:59:26Z</time>
      </trkpt>
      <trkpt lat="48.05423" lon="-3.47723">
        <ele>123.1</ele>
        <time>2025-02-26T12:59:27Z</time>
      </trkpt>
      <trkpt lat="48.05423" lon="-3.47723">
        <ele>123.1</ele>
        <time>2025-02-26T12:59:28Z</time>
      </trkpt>
      <trkpt lat="48.05422" lon="-3.47722">
        <ele>123</ele>
        <time>2025-02-26T12:59:29Z</time>
      </trkpt>
      <trkpt lat="48.05422" lon="-3.47722">
        <ele>123</ele>
        <time>2025-02-26T12:59:30Z</time>
      </trkpt>
      <trkpt lat="48.05422" lon="-3.47722">
        <ele>123</ele>
        <time>2025-02-26T12:59:31Z</time>
      </trkpt>
      <trkpt lat="48.05423" lon="-3.47721">
        <ele>123.1</ele>
        <time>2025-02-26T12:59:32Z</time>
      </trkpt>
      <trkpt lat="48.05423" lon="-3.47721">
        <ele>123.1</ele>
        <time>2025-02-26T12:59:33Z</time>
      </trkpt>
      <trkpt lat="48.05423" lon="-3.47722">
        <ele>123.1</ele>
        <time>2025-02-26T12:59:34Z</time>
      </trkpt>
      <trkpt lat="48.05423" lon="-3.47722">
        <ele>123.1</ele>
        <time>2025-02-26T12:59:35Z</time>
      </trkpt>
      <trkpt lat="48.05423" lon="-3.47722">
        <ele>123.1</ele>
        <time>2025-02-26T12:59:36Z</time>
      </trkpt>
      <trkpt lat="48.05422" lon="-3.47722">
        <ele>123.1</ele>
        <time>2025-02-26T12:59:37Z</time>
      </trkpt>
      <trkpt lat="48.05422" lon="-3.47722">
        <ele>123.1</ele>
        <time>2025-02-26T12:59:38Z</time>
      </trkpt>
      <trkpt lat="48.05422" lon="-3.47722">
        <ele>123.1</ele>
        <time>2025-02-26T12:59:39Z</time>
      </trkpt>
      <trkpt lat="48.05421" lon="-3.47724">
        <ele>123.2</ele>
        <time>2025-02-26T12:59:40Z</time>
      </trkpt>
      <trkpt lat="48.0542" lon="-3.47726">
        <ele>123.5</ele>
        <time>2025-02-26T12:59:41Z</time>
      </trkpt>
      <trkpt lat="48.05419" lon="-3.47727">
        <ele>123.6</ele>
        <time>2025-02-26T12:59:42Z</time>
      </trkpt>
      <trkpt lat="48.05419" lon="-3.47728">
        <ele>123.8</ele>
        <time>2025-02-26T12:59:43Z</time>
      </trkpt>
      <trkpt lat="48.05418" lon="-3.47728">
        <ele>123.9</ele>
        <time>2025-02-26T12:59:44Z</time>
      </trkpt>
      <trkpt lat="48.05417" lon="-3.47728">
        <ele>123.9</ele>
        <time>2025-02-26T12:59:45Z</time>
      </trkpt>
      <trkpt lat="48.05417" lon="-3.47728">
        <ele>123.9</ele>
        <time>2025-02-26T12:59:46Z</time>
      </trkpt>
      <trkpt lat="48.05417" lon="-3.47729">
        <ele>123.9</ele>
        <time>2025-02-26T12:59:47Z</time>
      </trkpt>
      <trkpt lat="48.05417" lon="-3.47729">
        <ele>123.9</ele>
        <time>2025-02-26T12:59:48Z</time>
      </trkpt>
      <trkpt lat="48.05415" lon="-3.47729">
        <ele>123.9</ele>
        <time>2025-02-26T12:59:49Z</time>
      </trkpt>
      <trkpt lat="48.05415" lon="-3.47729">
        <ele>124</ele>
        <time>2025-02-26T12:59:50Z</time>
      </trkpt>
      <trkpt lat="48.05414" lon="-3.47728">
        <ele>123.8</ele>
        <time>2025-02-26T12:59:51Z</time>
      </trkpt>
      <trkpt lat="48.05413" lon="-3.47728">
        <ele>123.8</ele>
        <time>2025-02-26T12:59:52Z</time>
      </trkpt>
      <trkpt lat="48.05412" lon="-3.47728">
        <ele>123.8</ele>
        <time>2025-02-26T12:59:53Z</time>
      </trkpt>
      <trkpt lat="48.05411" lon="-3.47728">
        <ele>123.8</ele>
        <time>2025-02-26T12:59:54Z</time>
      </trkpt>
      <trkpt lat="48.05411" lon="-3.47729">
        <ele>123.9</ele>
        <time>2025-02-26T12:59:55Z</time>
      </trkpt>
      <trkpt lat="48.05411" lon="-3.47729">
        <ele>123.9</ele>
        <time>2025-02-26T12:59:56Z</time>
      </trkpt>
      <trkpt lat="48.0541" lon="-3.47729">
        <ele>124</ele>
        <time>2025-02-26T12:59:57Z</time>
      </trkpt>
      <trkpt lat="48.05409" lon="-3.47729">
        <ele>124</ele>
        <time>2025-02-26T12:59:58Z</time>
      </trkpt>
      <trkpt lat="48.05409" lon="-3.47729">
        <ele>123.9</ele>
        <time>2025-02-26T12:59:59Z</time>
      </trkpt>
      <trkpt lat="48.05409" lon="-3.47728">
        <ele>123.9</ele>
        <time>2025-02-26T13:00:00Z</time>
      </trkpt>
      <trkpt lat="48.05408" lon="-3.47729">
        <ele>124</ele>
        <time>2025-02-26T13:00:01Z</time>
      </trkpt>
      <trkpt lat="48.05407" lon="-3.47729">
        <ele>124</ele>
        <time>2025-02-26T13:00:02Z</time>
      </trkpt>
      <trkpt lat="48.05407" lon="-3.47729">
        <ele>124</ele>
        <time>2025-02-26T13:00:03Z</time>
      </trkpt>
      <trkpt lat="48.05406" lon="-3.4773">
        <ele>124.2</ele>
        <time>2025-02-26T13:00:04Z</time>
      </trkpt>
      <trkpt lat="48.05405" lon="-3.47729">
        <ele>124</ele>
        <time>2025-02-26T13:00:05Z</time>
      </trkpt>
      <trkpt lat="48.05404" lon="-3.47726">
        <ele>123.6</ele>
        <time>2025-02-26T13:00:06Z</time>
      </trkpt>
      <trkpt lat="48.05403" lon="-3.47725">
        <ele>123.3</ele>
        <time>2025-02-26T13:00:07Z</time>
      </trkpt>
      <trkpt lat="48.05403" lon="-3.47724">
        <ele>123.2</ele>
        <time>2025-02-26T13:00:08Z</time>
      </trkpt>
      <trkpt lat="48.05402" lon="-3.47725">
        <ele>123.4</ele>
        <time>2025-02-26T13:00:09Z</time>
      </trkpt>
      <trkpt lat="48.05402" lon="-3.47726">
        <ele>123.6</ele>
        <time>2025-02-26T13:00:10Z</time>
      </trkpt>
      <trkpt lat="48.05402" lon="-3.47727">
        <ele>123.6</ele>
        <time>2025-02-26T13:00:11Z</time>
      </trkpt>
      <trkpt lat="48.05401" lon="-3.47728">
        <ele>123.9</ele>
        <time>2025-02-26T13:00:12Z</time>
      </trkpt>
      <trkpt lat="48.05401" lon="-3.4773">
        <ele>124.2</ele>
        <time>2025-02-26T13:00:13Z</time>
      </trkpt>
      <trkpt lat="48.05401" lon="-3.47732">
        <ele>124.4</ele>
        <time>2025-02-26T13:00:14Z</time>
      </trkpt>
      <trkpt lat="48.05401" lon="-3.47733">
        <ele>124.5</ele>
        <time>2025-02-26T13:00:15Z</time>
      </trkpt>
      <trkpt lat="48.054" lon="-3.47734">
        <ele>124.7</ele>
        <time>2025-02-26T13:00:16Z</time>
      </trkpt>
      <trkpt lat="48.05399" lon="-3.47735">
        <ele>124.8</ele>
        <time>2025-02-26T13:00:17Z</time>
      </trkpt>
      <trkpt lat="48.05399" lon="-3.47735">
        <ele>124.9</ele>
        <time>2025-02-26T13:00:18Z</time>
      </trkpt>
      <trkpt lat="48.05397" lon="-3.47735">
        <ele>124.9</ele>
        <time>2025-02-26T13:00:19Z</time>
      </trkpt>
      <trkpt lat="48.05396" lon="-3.47735">
        <ele>124.9</ele>
        <time>2025-02-26T13:00:20Z</time>
      </trkpt>
      <trkpt lat="48.05395" lon="-3.47735">
        <ele>124.8</ele>
        <time>2025-02-26T13:00:21Z</time>
      </trkpt>
      <trkpt lat="48.05395" lon="-3.47734">
        <ele>124.7</ele>
        <time>2025-02-26T13:00:22Z</time>
      </trkpt>
      <trkpt lat="48.05394" lon="-3.47734">
        <ele>124.7</ele>
        <time>2025-02-26T13:00:23Z</time>
      </trkpt>
      <trkpt lat="48.05394" lon="-3.47735">
        <ele>124.8</ele>
        <time>2025-02-26T13:00:24Z</time>
      </trkpt>
      <trkpt lat="48.05393" lon="-3.47735">
        <ele>124.9</ele>
        <time>2025-02-26T13:00:25Z</time>
      </trkpt>
      <trkpt lat="48.05393" lon="-3.47736">
        <ele>125</ele>
        <time>2025-02-26T13:00:26Z</time>
      </trkpt>
      <trkpt lat="48.05392" lon="-3.47736">
        <ele>125</ele>
        <time>2025-02-26T13:00:27Z</time>
      </trkpt>
      <trkpt lat="48.05391" lon="-3.47736">
        <ele>124.9</ele>
        <time>2025-02-26T13:00:28Z</time>
      </trkpt>
      <trkpt lat="48.0539" lon="-3.47736">
        <ele>125</ele>
        <time>2025-02-26T13:00:29Z</time>
      </trkpt>
      <trkpt lat="48.05389" lon="-3.47737">
        <ele>125.1</ele>
        <time>2025-02-26T13:00:30Z</time>
      </trkpt>
      <trkpt lat="48.05389" lon="-3.47737">
        <ele>125.1</ele>
        <time>2025-02-26T13:00:31Z</time>
      </trkpt>
      <trkpt lat="48.05388" lon="-3.47737">
        <ele>125.1</ele>
        <time>2025-02-26T13:00:32Z</time>
      </trkpt>
      <trkpt lat="48.05387" lon="-3.47736">
        <ele>125.1</ele>
        <time>2025-02-26T13:00:33Z</time>
      </trkpt>
      <trkpt lat="48.05386" lon="-3.47735">
        <ele>125</ele>
        <time>2025-02-26T13:00:34Z</time>
      </trkpt>
      <trkpt lat="48.05386" lon="-3.47735">
        <ele>124.9</ele>
        <time>2025-02-26T13:00:35Z</time>
      </trkpt>
      <trkpt lat="48.05386" lon="-3.47736">
        <ele>125.1</ele>
        <time>2025-02-26T13:00:36Z</time>
      </trkpt>
      <trkpt lat="48.05386" lon="-3.47737">
        <ele>125.2</ele>
        <time>2025-02-26T13:00:37Z</time>
      </trkpt>
      <trkpt lat="48.05386" lon="-3.47738">
        <ele>125.4</ele>
        <time>2025-02-26T13:00:38Z</time>
      </trkpt>
      <trkpt lat="48.05386" lon="-3.47739">
        <ele>125.5</ele>
        <time>2025-02-26T13:00:39Z</time>
      </trkpt>
      <trkpt lat="48.05385" lon="-3.47739">
        <ele>125.6</ele>
        <time>2025-02-26T13:00:40Z</time>
      </trkpt>
      <trkpt lat="48.05386" lon="-3.47739">
        <ele>125.5</ele>
        <time>2025-02-26T13:00:41Z</time>
      </trkpt>
      <trkpt lat="48.05386" lon="-3.47739">
        <ele>125.6</ele>
        <time>2025-02-26T13:00:42Z</time>
      </trkpt>
      <trkpt lat="48.05386" lon="-3.47739">
        <ele>125.6</ele>
        <time>2025-02-26T13:00:43Z</time>
      </trkpt>
      <trkpt lat="48.05386" lon="-3.47739">
        <ele>125.5</ele>
        <time>2025-02-26T13:00:44Z</time>
      </trkpt>
      <trkpt lat="48.05386" lon="-3.47739">
        <ele>125.5</ele>
        <time>2025-02-26T13:00:45Z</time>
      </trkpt>
      <trkpt lat="48.05386" lon="-3.47738">
        <ele>125.4</ele>
        <time>2025-02-26T13:00:46Z</time>
      </trkpt>
      <trkpt lat="48.05386" lon="-3.47738">
        <ele>125.5</ele>
        <time>2025-02-26T13:00:47Z</time>
      </trkpt>
      <trkpt lat="48.05386" lon="-3.47738">
        <ele>125.5</ele>
        <time>2025-02-26T13:00:48Z</time>
      </trkpt>
      <trkpt lat="48.05386" lon="-3.47739">
        <ele>125.5</ele>
        <time>2025-02-26T13:00:49Z</time>
      </trkpt>
      <trkpt lat="48.05386" lon="-3.4774">
        <ele>125.6</ele>
        <time>2025-02-26T13:00:50Z</time>
      </trkpt>
      <trkpt lat="48.05386" lon="-3.4774">
        <ele>125.7</ele>
        <time>2025-02-26T13:00:51Z</time>
      </trkpt>
      <trkpt lat="48.05386" lon="-3.47739">
        <ele>125.6</ele>
        <time>2025-02-26T13:00:52Z</time>
      </trkpt>
      <trkpt lat="48.05385" lon="-3.47739">
        <ele>125.6</ele>
        <time>2025-02-26T13:00:53Z</time>
      </trkpt>
      <trkpt lat="48.05386" lon="-3.47739">
        <ele>125.6</ele>
        <time>2025-02-26T13:00:54Z</time>
      </trkpt>
      <trkpt lat="48.05386" lon="-3.4774">
        <ele>125.6</ele>
        <time>2025-02-26T13:00:55Z</time>
      </trkpt>
      <trkpt lat="48.05386" lon="-3.4774">
        <ele>125.6</ele>
        <time>2025-02-26T13:00:56Z</time>
      </trkpt>
      <trkpt lat="48.05386" lon="-3.4774">
        <ele>125.6</ele>
        <time>2025-02-26T13:00:57Z</time>
      </trkpt>
      <trkpt lat="48.05386" lon="-3.4774">
        <ele>125.6</ele>
        <time>2025-02-26T13:00:58Z</time>
      </trkpt>
      <trkpt lat="48.05386" lon="-3.4774">
        <ele>125.7</ele>
        <time>2025-02-26T13:00:59Z</time>
      </trkpt>
      <trkpt lat="48.05385" lon="-3.4774">
        <ele>125.6</ele>
        <time>2025-02-26T13:01:00Z</time>
      </trkpt>
      <trkpt lat="48.05385" lon="-3.4774">
        <ele>125.7</ele>
        <time>2025-02-26T13:01:01Z</time>
      </trkpt>
      <trkpt lat="48.05385" lon="-3.4774">
        <ele>125.7</ele>
        <time>2025-02-26T13:01:02Z</time>
      </trkpt>
      <trkpt lat="48.05385" lon="-3.4774">
        <ele>125.7</ele>
        <time>2025-02-26T13:01:03Z</time>
      </trkpt>
      <trkpt lat="48.05384" lon="-3.47739">
        <ele>125.7</ele>
        <time>2025-02-26T13:01:04Z</time>
      </trkpt>
      <trkpt lat="48.05384" lon="-3.47739">
        <ele>125.6</ele>
        <time>2025-02-26T13:01:05Z</time>
      </trkpt>
      <trkpt lat="48.05382" lon="-3.47738">
        <ele>125.6</ele>
        <time>2025-02-26T13:01:06Z</time>
      </trkpt>
      <trkpt lat="48.05381" lon="-3.47738">
        <ele>125.6</ele>
        <time>2025-02-26T13:01:07Z</time>
      </trkpt>
      <trkpt lat="48.05381" lon="-3.47737">
        <ele>125.5</ele>
        <time>2025-02-26T13:01:08Z</time>
      </trkpt>
      <trkpt lat="48.0538" lon="-3.47737">
        <ele>125.4</ele>
        <time>2025-02-26T13:01:09Z</time>
      </trkpt>
      <trkpt lat="48.0538" lon="-3.47736">
        <ele>125.4</ele>
        <time>2025-02-26T13:01:10Z</time>
      </trkpt>
      <trkpt lat="48.0538" lon="-3.47736">
        <ele>125.4</ele>
        <time>2025-02-26T13:01:11Z</time>
      </trkpt>
      <trkpt lat="48.0538" lon="-3.47736">
        <ele>125.4</ele>
        <time>2025-02-26T13:01:12Z</time>
      </trkpt>
      <trkpt lat="48.0538" lon="-3.47736">
        <ele>125.4</ele>
        <time>2025-02-26T13:01:13Z</time>
      </trkpt>
      <trkpt lat="48.0538" lon="-3.47736">
        <ele>125.4</ele>
        <time>2025-02-26T13:01:14Z</time>
      </trkpt>
      <trkpt lat="48.0538" lon="-3.47736">
        <ele>125.4</ele>
        <time>2025-02-26T13:01:15Z</time>
      </trkpt>
      <trkpt lat="48.0538" lon="-3.47736">
        <ele>125.4</ele>
        <time>2025-02-26T13:01:16Z</time>
      </trkpt>
      <trkpt lat="48.0538" lon="-3.47736">
        <ele>125.4</ele>
        <time>2025-02-26T13:01:17Z</time>
      </trkpt>
      <trkpt lat="48.0538" lon="-3.47736">
        <ele>125.3</ele>
        <time>2025-02-26T13:01:18Z</time>
      </trkpt>
      <trkpt lat="48.05379" lon="-3.47735">
        <ele>125.2</ele>
        <time>2025-02-26T13:01:19Z</time>
      </trkpt>
      <trkpt lat="48.05379" lon="-3.47735">
        <ele>125.1</ele>
        <time>2025-02-26T13:01:20Z</time>
      </trkpt>
      <trkpt lat="48.05378" lon="-3.47735">
        <ele>125.2</ele>
        <time>2025-02-26T13:01:21Z</time>
      </trkpt>
      <trkpt lat="48.05377" lon="-3.47734">
        <ele>125</ele>
        <time>2025-02-26T13:01:22Z</time>
      </trkpt>
      <trkpt lat="48.05376" lon="-3.47732">
        <ele>124.8</ele>
        <time>2025-02-26T13:01:23Z</time>
      </trkpt>
      <trkpt lat="48.05375" lon="-3.47732">
        <ele>124.7</ele>
        <time>2025-02-26T13:01:24Z</time>
      </trkpt>
      <trkpt lat="48.05374" lon="-3.47731">
        <ele>124.6</ele>
        <time>2025-02-26T13:01:25Z</time>
      </trkpt>
      <trkpt lat="48.05373" lon="-3.47731">
        <ele>124.5</ele>
        <time>2025-02-26T13:01:26Z</time>
      </trkpt>
      <trkpt lat="48.05373" lon="-3.4773">
        <ele>124.4</ele>
        <time>2025-02-26T13:01:27Z</time>
      </trkpt>
      <trkpt lat="48.05372" lon="-3.4773">
        <ele>124.4</ele>
        <time>2025-02-26T13:01:28Z</time>
      </trkpt>
      <trkpt lat="48.05371" lon="-3.4773">
        <ele>124.5</ele>
        <time>2025-02-26T13:01:29Z</time>
      </trkpt>
      <trkpt lat="48.0537" lon="-3.47731">
        <ele>124.6</ele>
        <time>2025-02-26T13:01:30Z</time>
      </trkpt>
      <trkpt lat="48.05369" lon="-3.47731">
        <ele>124.6</ele>
        <time>2025-02-26T13:01:31Z</time>
      </trkpt>
      <trkpt lat="48.05368" lon="-3.47731">
        <ele>124.7</ele>
        <time>2025-02-26T13:01:32Z</time>
      </trkpt>
      <trkpt lat="48.05367" lon="-3.47732">
        <ele>124.9</ele>
        <time>2025-02-26T13:01:33Z</time>
      </trkpt>
      <trkpt lat="48.05366" lon="-3.47732">
        <ele>125.1</ele>
        <time>2025-02-26T13:01:34Z</time>
      </trkpt>
      <trkpt lat="48.05364" lon="-3.47732">
        <ele>125</ele>
        <time>2025-02-26T13:01:35Z</time>
      </trkpt>
      <trkpt lat="48.05364" lon="-3.47732">
        <ele>125</ele>
        <time>2025-02-26T13:01:36Z</time>
      </trkpt>
      <trkpt lat="48.05363" lon="-3.47732">
        <ele>125</ele>
        <time>2025-02-26T13:01:37Z</time>
      </trkpt>
      <trkpt lat="48.05362" lon="-3.47732">
        <ele>125.1</ele>
        <time>2025-02-26T13:01:38Z</time>
      </trkpt>
      <trkpt lat="48.05362" lon="-3.47733">
        <ele>125.4</ele>
        <time>2025-02-26T13:01:39Z</time>
      </trkpt>
      <trkpt lat="48.0536" lon="-3.47733">
        <ele>125.5</ele>
        <time>2025-02-26T13:01:40Z</time>
      </trkpt>
      <trkpt lat="48.0536" lon="-3.47732">
        <ele>125.4</ele>
        <time>2025-02-26T13:01:41Z</time>
      </trkpt>
      <trkpt lat="48.05359" lon="-3.4773">
        <ele>125.1</ele>
        <time>2025-02-26T13:01:42Z</time>
      </trkpt>
      <trkpt lat="48.0536" lon="-3.47729">
        <ele>124.7</ele>
        <time>2025-02-26T13:01:43Z</time>
      </trkpt>
      <trkpt lat="48.0536" lon="-3.47727">
        <ele>124.3</ele>
        <time>2025-02-26T13:01:44Z</time>
      </trkpt>
      <trkpt lat="48.05359" lon="-3.47725">
        <ele>124</ele>
        <time>2025-02-26T13:01:45Z</time>
      </trkpt>
      <trkpt lat="48.0536" lon="-3.47724">
        <ele>123.7</ele>
        <time>2025-02-26T13:01:46Z</time>
      </trkpt>
      <trkpt lat="48.05363" lon="-3.47726">
        <ele>123.8</ele>
        <time>2025-02-26T13:01:47Z</time>
      </trkpt>
      <trkpt lat="48.05363" lon="-3.47727">
        <ele>123.9</ele>
        <time>2025-02-26T13:01:48Z</time>
      </trkpt>
      <trkpt lat="48.05364" lon="-3.47727">
        <ele>124</ele>
        <time>2025-02-26T13:01:49Z</time>
      </trkpt>
      <trkpt lat="48.05363" lon="-3.47727">
        <ele>124</ele>
        <time>2025-02-26T13:01:50Z</time>
      </trkpt>
      <trkpt lat="48.05362" lon="-3.47727">
        <ele>123.9</ele>
        <time>2025-02-26T13:01:51Z</time>
      </trkpt>
      <trkpt lat="48.05361" lon="-3.47726">
        <ele>123.8</ele>
        <time>2025-02-26T13:01:52Z</time>
      </trkpt>
      <trkpt lat="48.0536" lon="-3.47725">
        <ele>123.8</ele>
        <time>2025-02-26T13:01:53Z</time>
      </trkpt>
      <trkpt lat="48.05359" lon="-3.47724">
        <ele>123.7</ele>
        <time>2025-02-26T13:01:54Z</time>
      </trkpt>
      <trkpt lat="48.05358" lon="-3.47722">
        <ele>123.6</ele>
        <time>2025-02-26T13:01:55Z</time>
      </trkpt>
      <trkpt lat="48.05357" lon="-3.47721">
        <ele>123.8</ele>
        <time>2025-02-26T13:01:56Z</time>
      </trkpt>
      <trkpt lat="48.05355" lon="-3.47721">
        <ele>124</ele>
        <time>2025-02-26T13:01:57Z</time>
      </trkpt>
      <trkpt lat="48.05354" lon="-3.4772">
        <ele>124.2</ele>
        <time>2025-02-26T13:01:58Z</time>
      </trkpt>
      <trkpt lat="48.05353" lon="-3.47719">
        <ele>124.3</ele>
        <time>2025-02-26T13:01:59Z</time>
      </trkpt>
      <trkpt lat="48.05352" lon="-3.47718">
        <ele>124.3</ele>
        <time>2025-02-26T13:02:00Z</time>
      </trkpt>
      <trkpt lat="48.05352" lon="-3.47716">
        <ele>124.3</ele>
        <time>2025-02-26T13:02:01Z</time>
      </trkpt>
      <trkpt lat="48.05351" lon="-3.47714">
        <ele>124.3</ele>
        <time>2025-02-26T13:02:02Z</time>
      </trkpt>
      <trkpt lat="48.05351" lon="-3.47714">
        <ele>124.3</ele>
        <time>2025-02-26T13:02:03Z</time>
      </trkpt>
      <trkpt lat="48.0535" lon="-3.47713">
        <ele>124.4</ele>
        <time>2025-02-26T13:02:04Z</time>
      </trkpt>
      <trkpt lat="48.05349" lon="-3.47713">
        <ele>124.4</ele>
        <time>2025-02-26T13:02:05Z</time>
      </trkpt>
      <trkpt lat="48.05349" lon="-3.47712">
        <ele>124.5</ele>
        <time>2025-02-26T13:02:06Z</time>
      </trkpt>
      <trkpt lat="48.05348" lon="-3.47712">
        <ele>124.6</ele>
        <time>2025-02-26T13:02:07Z</time>
      </trkpt>
      <trkpt lat="48.05347" lon="-3.47712">
        <ele>124.6</ele>
        <time>2025-02-26T13:02:08Z</time>
      </trkpt>
      <trkpt lat="48.05347" lon="-3.47711">
        <ele>124.5</ele>
        <time>2025-02-26T13:02:09Z</time>
      </trkpt>
      <trkpt lat="48.05346" lon="-3.47711">
        <ele>124.6</ele>
        <time>2025-02-26T13:02:10Z</time>
      </trkpt>
      <trkpt lat="48.05349" lon="-3.47712">
        <ele>124.3</ele>
        <time>2025-02-26T13:02:11Z</time>
      </trkpt>
      <trkpt lat="48.0535" lon="-3.47711">
        <ele>124.2</ele>
        <time>2025-02-26T13:02:12Z</time>
      </trkpt>
      <trkpt lat="48.0535" lon="-3.47711">
        <ele>124.2</ele>
        <time>2025-02-26T13:02:13Z</time>
      </trkpt>
      <trkpt lat="48.05349" lon="-3.47712">
        <ele>124.3</ele>
        <time>2025-02-26T13:02:14Z</time>
      </trkpt>
      <trkpt lat="48.05349" lon="-3.47712">
        <ele>124.3</ele>
        <time>2025-02-26T13:02:15Z</time>
      </trkpt>
      <trkpt lat="48.05349" lon="-3.47713">
        <ele>124.5</ele>
        <time>2025-02-26T13:02:16Z</time>
      </trkpt>
      <trkpt lat="48.05348" lon="-3.47713">
        <ele>124.6</ele>
        <time>2025-02-26T13:02:17Z</time>
      </trkpt>
      <trkpt lat="48.05347" lon="-3.47714">
        <ele>124.7</ele>
        <time>2025-02-26T13:02:18Z</time>
      </trkpt>
      <trkpt lat="48.05346" lon="-3.47714">
        <ele>124.8</ele>
        <time>2025-02-26T13:02:19Z</time>
      </trkpt>
      <trkpt lat="48.05346" lon="-3.47713">
        <ele>124.8</ele>
        <time>2025-02-26T13:02:20Z</time>
      </trkpt>
      <trkpt lat="48.05346" lon="-3.47713">
        <ele>124.8</ele>
        <time>2025-02-26T13:02:21Z</time>
      </trkpt>
      <trkpt lat="48.05347" lon="-3.47713">
        <ele>124.7</ele>
        <time>2025-02-26T13:02:22Z</time>
      </trkpt>
      <trkpt lat="48.05347" lon="-3.47714">
        <ele>124.8</ele>
        <time>2025-02-26T13:02:23Z</time>
      </trkpt>
      <trkpt lat="48.05346" lon="-3.47714">
        <ele>124.9</ele>
        <time>2025-02-26T13:02:24Z</time>
      </trkpt>
      <trkpt lat="48.05346" lon="-3.47713">
        <ele>124.8</ele>
        <time>2025-02-26T13:02:25Z</time>
      </trkpt>
      <trkpt lat="48.05346" lon="-3.47712">
        <ele>124.8</ele>
        <time>2025-02-26T13:02:26Z</time>
      </trkpt>
      <trkpt lat="48.05345" lon="-3.47711">
        <ele>124.7</ele>
        <time>2025-02-26T13:02:27Z</time>
      </trkpt>
      <trkpt lat="48.05344" lon="-3.47711">
        <ele>124.8</ele>
        <time>2025-02-26T13:02:28Z</time>
      </trkpt>
      <trkpt lat="48.05344" lon="-3.47712">
        <ele>125</ele>
        <time>2025-02-26T13:02:29Z</time>
      </trkpt>
      <trkpt lat="48.05344" lon="-3.47713">
        <ele>125.1</ele>
        <time>2025-02-26T13:02:30Z</time>
      </trkpt>
      <trkpt lat="48.05344" lon="-3.47712">
        <ele>125</ele>
        <time>2025-02-26T13:02:31Z</time>
      </trkpt>
      <trkpt lat="48.05344" lon="-3.47711">
        <ele>124.9</ele>
        <time>2025-02-26T13:02:32Z</time>
      </trkpt>
      <trkpt lat="48.05343" lon="-3.47712">
        <ele>125</ele>
        <time>2025-02-26T13:02:33Z</time>
      </trkpt>
      <trkpt lat="48.05343" lon="-3.47712">
        <ele>125</ele>
        <time>2025-02-26T13:02:34Z</time>
      </trkpt>
      <trkpt lat="48.05344" lon="-3.47711">
        <ele>124.9</ele>
        <time>2025-02-26T13:02:35Z</time>
      </trkpt>
      <trkpt lat="48.05344" lon="-3.47711">
        <ele>124.8</ele>
        <time>2025-02-26T13:02:36Z</time>
      </trkpt>
      <trkpt lat="48.05344" lon="-3.47711">
        <ele>124.8</ele>
        <time>2025-02-26T13:02:37Z</time>
      </trkpt>
      <trkpt lat="48.05344" lon="-3.4771">
        <ele>124.8</ele>
        <time>2025-02-26T13:02:38Z</time>
      </trkpt>
      <trkpt lat="48.05344" lon="-3.4771">
        <ele>124.8</ele>
        <time>2025-02-26T13:02:39Z</time>
      </trkpt>
      <trkpt lat="48.05344" lon="-3.4771">
        <ele>124.8</ele>
        <time>2025-02-26T13:02:40Z</time>
      </trkpt>
      <trkpt lat="48.05344" lon="-3.47711">
        <ele>124.9</ele>
        <time>2025-02-26T13:02:41Z</time>
      </trkpt>
      <trkpt lat="48.05344" lon="-3.47712">
        <ele>124.9</ele>
        <time>2025-02-26T13:02:42Z</time>
      </trkpt>
      <trkpt lat="48.05345" lon="-3.47712">
        <ele>124.9</ele>
        <time>2025-02-26T13:02:43Z</time>
      </trkpt>
      <trkpt lat="48.05345" lon="-3.47713">
        <ele>124.9</ele>
        <time>2025-02-26T13:02:44Z</time>
      </trkpt>
      <trkpt lat="48.05345" lon="-3.47713">
        <ele>124.9</ele>
        <time>2025-02-26T13:02:45Z</time>
      </trkpt>
      <trkpt lat="48.05345" lon="-3.47713">
        <ele>124.9</ele>
        <time>2025-02-26T13:02:46Z</time>
      </trkpt>
      <trkpt lat="48.05345" lon="-3.47713">
        <ele>124.9</ele>
        <time>2025-02-26T13:02:47Z</time>
      </trkpt>
      <trkpt lat="48.05345" lon="-3.47713">
        <ele>124.9</ele>
        <time>2025-02-26T13:02:48Z</time>
      </trkpt>
      <trkpt lat="48.05345" lon="-3.47713">
        <ele>124.9</ele>
        <time>2025-02-26T13:02:49Z</time>
      </trkpt>
      <trkpt lat="48.05345" lon="-3.47713">
        <ele>124.9</ele>
        <time>2025-02-26T13:02:50Z</time>
      </trkpt>
      <trkpt lat="48.05345" lon="-3.47713">
        <ele>124.9</ele>
        <time>2025-02-26T13:02:51Z</time>
      </trkpt>
      <trkpt lat="48.05345" lon="-3.47713">
        <ele>124.9</ele>
        <time>2025-02-26T13:02:52Z</time>
      </trkpt>
      <trkpt lat="48.05345" lon="-3.47712">
        <ele>124.9</ele>
        <time>2025-02-26T13:02:53Z</time>
      </trkpt>
      <trkpt lat="48.05345" lon="-3.47712">
        <ele>124.8</ele>
        <time>2025-02-26T13:02:54Z</time>
      </trkpt>
      <trkpt lat="48.05345" lon="-3.47712">
        <ele>124.8</ele>
        <time>2025-02-26T13:02:55Z</time>
      </trkpt>
      <trkpt lat="48.05345" lon="-3.47712">
        <ele>124.8</ele>
        <time>2025-02-26T13:02:56Z</time>
      </trkpt>
      <trkpt lat="48.05345" lon="-3.47712">
        <ele>124.8</ele>
        <time>2025-02-26T13:02:57Z</time>
      </trkpt>
      <trkpt lat="48.05345" lon="-3.47712">
        <ele>124.8</ele>
        <time>2025-02-26T13:02:58Z</time>
      </trkpt>
      <trkpt lat="48.05345" lon="-3.47712">
        <ele>124.8</ele>
        <time>2025-02-26T13:02:59Z</time>
      </trkpt>
      <trkpt lat="48.05345" lon="-3.47711">
        <ele>124.8</ele>
        <time>2025-02-26T13:03:00Z</time>
      </trkpt>
      <trkpt lat="48.05345" lon="-3.4771">
        <ele>124.7</ele>
        <time>2025-02-26T13:03:01Z</time>
      </trkpt>
      <trkpt lat="48.05344" lon="-3.4771">
        <ele>124.7</ele>
        <time>2025-02-26T13:03:02Z</time>
      </trkpt>
      <trkpt lat="48.05343" lon="-3.47709">
        <ele>124.7</ele>
        <time>2025-02-26T13:03:03Z</time>
      </trkpt>
      <trkpt lat="48.05342" lon="-3.47708">
        <ele>124.7</ele>
        <time>2025-02-26T13:03:04Z</time>
      </trkpt>
      <trkpt lat="48.05342" lon="-3.47708">
        <ele>124.7</ele>
        <time>2025-02-26T13:03:05Z</time>
      </trkpt>
      <trkpt lat="48.05342" lon="-3.47707">
        <ele>124.6</ele>
        <time>2025-02-26T13:03:06Z</time>
      </trkpt>
      <trkpt lat="48.05342" lon="-3.47707">
        <ele>124.6</ele>
        <time>2025-02-26T13:03:07Z</time>
      </trkpt>
      <trkpt lat="48.05341" lon="-3.47708">
        <ele>124.7</ele>
        <time>2025-02-26T13:03:08Z</time>
      </trkpt>
      <trkpt lat="48.05341" lon="-3.47709">
        <ele>124.8</ele>
        <time>2025-02-26T13:03:09Z</time>
      </trkpt>
      <trkpt lat="48.05341" lon="-3.47709">
        <ele>124.9</ele>
        <time>2025-02-26T13:03:10Z</time>
      </trkpt>
      <trkpt lat="48.05341" lon="-3.47709">
        <ele>124.9</ele>
        <time>2025-02-26T13:03:11Z</time>
      </trkpt>
      <trkpt lat="48.0534" lon="-3.47708">
        <ele>124.8</ele>
        <time>2025-02-26T13:03:12Z</time>
      </trkpt>
      <trkpt lat="48.0534" lon="-3.47708">
        <ele>124.8</ele>
        <time>2025-02-26T13:03:13Z</time>
      </trkpt>
      <trkpt lat="48.05339" lon="-3.47707">
        <ele>124.8</ele>
        <time>2025-02-26T13:03:14Z</time>
      </trkpt>
      <trkpt lat="48.05339" lon="-3.47707">
        <ele>124.8</ele>
        <time>2025-02-26T13:03:15Z</time>
      </trkpt>
      <trkpt lat="48.05338" lon="-3.47707">
        <ele>124.9</ele>
        <time>2025-02-26T13:03:16Z</time>
      </trkpt>
      <trkpt lat="48.05338" lon="-3.47707">
        <ele>124.9</ele>
        <time>2025-02-26T13:03:17Z</time>
      </trkpt>
      <trkpt lat="48.05337" lon="-3.47706">
        <ele>124.9</ele>
        <time>2025-02-26T13:03:18Z</time>
      </trkpt>
      <trkpt lat="48.05337" lon="-3.47706">
        <ele>124.8</ele>
        <time>2025-02-26T13:03:19Z</time>
      </trkpt>
      <trkpt lat="48.05337" lon="-3.47705">
        <ele>124.7</ele>
        <time>2025-02-26T13:03:20Z</time>
      </trkpt>
      <trkpt lat="48.05337" lon="-3.47705">
        <ele>124.6</ele>
        <time>2025-02-26T13:03:21Z</time>
      </trkpt>
      <trkpt lat="48.05337" lon="-3.47704">
        <ele>124.5</ele>
        <time>2025-02-26T13:03:22Z</time>
      </trkpt>
      <trkpt lat="48.05337" lon="-3.47703">
        <ele>124.3</ele>
        <time>2025-02-26T13:03:23Z</time>
      </trkpt>
      <trkpt lat="48.05337" lon="-3.47701">
        <ele>124.1</ele>
        <time>2025-02-26T13:03:24Z</time>
      </trkpt>
      <trkpt lat="48.05337" lon="-3.477">
        <ele>123.9</ele>
        <time>2025-02-26T13:03:25Z</time>
      </trkpt>
      <trkpt lat="48.05337" lon="-3.477">
        <ele>123.8</ele>
        <time>2025-02-26T13:03:26Z</time>
      </trkpt>
      <trkpt lat="48.05336" lon="-3.47699">
        <ele>123.8</ele>
        <time>2025-02-26T13:03:27Z</time>
      </trkpt>
      <trkpt lat="48.05334" lon="-3.47698">
        <ele>123.7</ele>
        <time>2025-02-26T13:03:28Z</time>
      </trkpt>
      <trkpt lat="48.05334" lon="-3.47697">
        <ele>123.5</ele>
        <time>2025-02-26T13:03:29Z</time>
      </trkpt>
      <trkpt lat="48.05334" lon="-3.47696">
        <ele>123.3</ele>
        <time>2025-02-26T13:03:30Z</time>
      </trkpt>
      <trkpt lat="48.05333" lon="-3.47696">
        <ele>123.3</ele>
        <time>2025-02-26T13:03:31Z</time>
      </trkpt>
      <trkpt lat="48.05332" lon="-3.47695">
        <ele>123.4</ele>
        <time>2025-02-26T13:03:32Z</time>
      </trkpt>
      <trkpt lat="48.05332" lon="-3.47696">
        <ele>123.6</ele>
        <time>2025-02-26T13:03:33Z</time>
      </trkpt>
      <trkpt lat="48.05332" lon="-3.47698">
        <ele>123.9</ele>
        <time>2025-02-26T13:03:34Z</time>
      </trkpt>
      <trkpt lat="48.05332" lon="-3.47699">
        <ele>124</ele>
        <time>2025-02-26T13:03:35Z</time>
      </trkpt>
      <trkpt lat="48.05332" lon="-3.477">
        <ele>124.3</ele>
        <time>2025-02-26T13:03:36Z</time>
      </trkpt>
      <trkpt lat="48.0533" lon="-3.47702">
        <ele>125</ele>
        <time>2025-02-26T13:03:37Z</time>
      </trkpt>
      <trkpt lat="48.05329" lon="-3.47703">
        <ele>125.4</ele>
        <time>2025-02-26T13:03:38Z</time>
      </trkpt>
      <trkpt lat="48.05328" lon="-3.47704">
        <ele>125.7</ele>
        <time>2025-02-26T13:03:39Z</time>
      </trkpt>
      <trkpt lat="48.05327" lon="-3.47704">
        <ele>125.9</ele>
        <time>2025-02-26T13:03:40Z</time>
      </trkpt>
      <trkpt lat="48.05326" lon="-3.47704">
        <ele>126.1</ele>
        <time>2025-02-26T13:03:41Z</time>
      </trkpt>
      <trkpt lat="48.05325" lon="-3.47704">
        <ele>126.4</ele>
        <time>2025-02-26T13:03:42Z</time>
      </trkpt>
      <trkpt lat="48.05324" lon="-3.47704">
        <ele>126.5</ele>
        <time>2025-02-26T13:03:43Z</time>
      </trkpt>
      <trkpt lat="48.05323" lon="-3.47703">
        <ele>126.6</ele>
        <time>2025-02-26T13:03:44Z</time>
      </trkpt>
      <trkpt lat="48.05322" lon="-3.47703">
        <ele>126.8</ele>
        <time>2025-02-26T13:03:45Z</time>
      </trkpt>
      <trkpt lat="48.05321" lon="-3.47703">
        <ele>127</ele>
        <time>2025-02-26T13:03:46Z</time>
      </trkpt>
      <trkpt lat="48.0532" lon="-3.47703">
        <ele>127.2</ele>
        <time>2025-02-26T13:03:47Z</time>
      </trkpt>
      <trkpt lat="48.0532" lon="-3.47703">
        <ele>127.3</ele>
        <time>2025-02-26T13:03:48Z</time>
      </trkpt>
      <trkpt lat="48.05319" lon="-3.47703">
        <ele>127.3</ele>
        <time>2025-02-26T13:03:49Z</time>
      </trkpt>
      <trkpt lat="48.05319" lon="-3.47702">
        <ele>127.3</ele>
        <time>2025-02-26T13:03:50Z</time>
      </trkpt>
      <trkpt lat="48.05318" lon="-3.47702">
        <ele>127.2</ele>
        <time>2025-02-26T13:03:51Z</time>
      </trkpt>
      <trkpt lat="48.05317" lon="-3.47701">
        <ele>127.3</ele>
        <time>2025-02-26T13:03:52Z</time>
      </trkpt>
      <trkpt lat="48.05317" lon="-3.47701">
        <ele>127.3</ele>
        <time>2025-02-26T13:03:53Z</time>
      </trkpt>
      <trkpt lat="48.05317" lon="-3.477">
        <ele>127.1</ele>
        <time>2025-02-26T13:03:54Z</time>
      </trkpt>
      <trkpt lat="48.05317" lon="-3.477">
        <ele>126.9</ele>
        <time>2025-02-26T13:03:55Z</time>
      </trkpt>
      <trkpt lat="48.05316" lon="-3.47698">
        <ele>126.6</ele>
        <time>2025-02-26T13:03:56Z</time>
      </trkpt>
      <trkpt lat="48.05315" lon="-3.47698">
        <ele>126.6</ele>
        <time>2025-02-26T13:03:57Z</time>
      </trkpt>
      <trkpt lat="48.05315" lon="-3.47697">
        <ele>126.5</ele>
        <time>2025-02-26T13:03:58Z</time>
      </trkpt>
      <trkpt lat="48.05315" lon="-3.47699">
        <ele>126.9</ele>
        <time>2025-02-26T13:03:59Z</time>
      </trkpt>
      <trkpt lat="48.05314" lon="-3.47698">
        <ele>126.8</ele>
        <time>2025-02-26T13:04:00Z</time>
      </trkpt>
      <trkpt lat="48.05314" lon="-3.47698">
        <ele>126.8</ele>
        <time>2025-02-26T13:04:01Z</time>
      </trkpt>
      <trkpt lat="48.05313" lon="-3.47698">
        <ele>126.9</ele>
        <time>2025-02-26T13:04:02Z</time>
      </trkpt>
      <trkpt lat="48.05312" lon="-3.47697">
        <ele>127</ele>
        <time>2025-02-26T13:04:03Z</time>
      </trkpt>
      <trkpt lat="48.05313" lon="-3.47697">
        <ele>126.8</ele>
        <time>2025-02-26T13:04:04Z</time>
      </trkpt>
      <trkpt lat="48.05313" lon="-3.47697">
        <ele>126.8</ele>
        <time>2025-02-26T13:04:05Z</time>
      </trkpt>
      <trkpt lat="48.05312" lon="-3.47697">
        <ele>126.9</ele>
        <time>2025-02-26T13:04:06Z</time>
      </trkpt>
      <trkpt lat="48.05312" lon="-3.47697">
        <ele>127</ele>
        <time>2025-02-26T13:04:07Z</time>
      </trkpt>
      <trkpt lat="48.05312" lon="-3.47697">
        <ele>127</ele>
        <time>2025-02-26T13:04:08Z</time>
      </trkpt>
      <trkpt lat="48.05312" lon="-3.47697">
        <ele>127</ele>
        <time>2025-02-26T13:04:09Z</time>
      </trkpt>
      <trkpt lat="48.05312" lon="-3.47697">
        <ele>127</ele>
        <time>2025-02-26T13:04:10Z</time>
      </trkpt>
      <trkpt lat="48.05312" lon="-3.47697">
        <ele>127</ele>
        <time>2025-02-26T13:04:11Z</time>
      </trkpt>
      <trkpt lat="48.05312" lon="-3.47697">
        <ele>127</ele>
        <time>2025-02-26T13:04:12Z</time>
      </trkpt>
      <trkpt lat="48.05312" lon="-3.47697">
        <ele>127</ele>
        <time>2025-02-26T13:04:13Z</time>
      </trkpt>
      <trkpt lat="48.05312" lon="-3.47697">
        <ele>127</ele>
        <time>2025-02-26T13:04:14Z</time>
      </trkpt>
      <trkpt lat="48.05312" lon="-3.47697">
        <ele>127</ele>
        <time>2025-02-26T13:04:15Z</time>
      </trkpt>
      <trkpt lat="48.05312" lon="-3.47697">
        <ele>126.9</ele>
        <time>2025-02-26T13:04:16Z</time>
      </trkpt>
      <trkpt lat="48.05311" lon="-3.47697">
        <ele>126.8</ele>
        <time>2025-02-26T13:04:17Z</time>
      </trkpt>
      <trkpt lat="48.05311" lon="-3.47696">
        <ele>126.8</ele>
        <time>2025-02-26T13:04:18Z</time>
      </trkpt>
      <trkpt lat="48.05311" lon="-3.47696">
        <ele>126.8</ele>
        <time>2025-02-26T13:04:19Z</time>
      </trkpt>
      <trkpt lat="48.05311" lon="-3.47696">
        <ele>126.8</ele>
        <time>2025-02-26T13:04:20Z</time>
      </trkpt>
      <trkpt lat="48.05311" lon="-3.47696">
        <ele>126.8</ele>
        <time>2025-02-26T13:04:21Z</time>
      </trkpt>
      <trkpt lat="48.05311" lon="-3.47696">
        <ele>126.8</ele>
        <time>2025-02-26T13:04:22Z</time>
      </trkpt>
      <trkpt lat="48.05311" lon="-3.47696">
        <ele>126.8</ele>
        <time>2025-02-26T13:04:23Z</time>
      </trkpt>
      <trkpt lat="48.05311" lon="-3.47696">
        <ele>126.8</ele>
        <time>2025-02-26T13:04:24Z</time>
      </trkpt>
      <trkpt lat="48.05311" lon="-3.47696">
        <ele>126.8</ele>
        <time>2025-02-26T13:04:25Z</time>
      </trkpt>
      <trkpt lat="48.05311" lon="-3.47696">
        <ele>126.8</ele>
        <time>2025-02-26T13:04:26Z</time>
      </trkpt>
      <trkpt lat="48.05312" lon="-3.47696">
        <ele>126.7</ele>
        <time>2025-02-26T13:04:27Z</time>
      </trkpt>
      <trkpt lat="48.05312" lon="-3.47696">
        <ele>126.6</ele>
        <time>2025-02-26T13:04:28Z</time>
      </trkpt>
      <trkpt lat="48.05312" lon="-3.47696">
        <ele>126.6</ele>
        <time>2025-02-26T13:04:29Z</time>
      </trkpt>
      <trkpt lat="48.05312" lon="-3.47696">
        <ele>126.6</ele>
        <time>2025-02-26T13:04:30Z</time>
      </trkpt>
      <trkpt lat="48.05312" lon="-3.47696">
        <ele>126.6</ele>
        <time>2025-02-26T13:04:31Z</time>
      </trkpt>
      <trkpt lat="48.05312" lon="-3.47696">
        <ele>126.6</ele>
        <time>2025-02-26T13:04:32Z</time>
      </trkpt>
      <trkpt lat="48.05312" lon="-3.47696">
        <ele>126.6</ele>
        <time>2025-02-26T13:04:33Z</time>
      </trkpt>
      <trkpt lat="48.05312" lon="-3.47696">
        <ele>126.6</ele>
        <time>2025-02-26T13:04:34Z</time>
      </trkpt>
      <trkpt lat="48.05312" lon="-3.47696">
        <ele>126.6</ele>
        <time>2025-02-26T13:04:35Z</time>
      </trkpt>
      <trkpt lat="48.05312" lon="-3.47696">
        <ele>126.6</ele>
        <time>2025-02-26T13:04:36Z</time>
      </trkpt>
      <trkpt lat="48.05312" lon="-3.47696">
        <ele>126.6</ele>
        <time>2025-02-26T13:04:37Z</time>
      </trkpt>
      <trkpt lat="48.05312" lon="-3.47696">
        <ele>126.6</ele>
        <time>2025-02-26T13:04:38Z</time>
      </trkpt>
      <trkpt lat="48.05312" lon="-3.47696">
        <ele>126.6</ele>
        <time>2025-02-26T13:04:39Z</time>
      </trkpt>
      <trkpt lat="48.05311" lon="-3.47696">
        <ele>126.7</ele>
        <time>2025-02-26T13:04:40Z</time>
      </trkpt>
      <trkpt lat="48.05311" lon="-3.47696">
        <ele>126.7</ele>
        <time>2025-02-26T13:04:41Z</time>
      </trkpt>
      <trkpt lat="48.0531" lon="-3.47696">
        <ele>126.9</ele>
        <time>2025-02-26T13:04:42Z</time>
      </trkpt>
      <trkpt lat="48.05309" lon="-3.47696">
        <ele>127.1</ele>
        <time>2025-02-26T13:04:43Z</time>
      </trkpt>
      <trkpt lat="48.05309" lon="-3.47696">
        <ele>127</ele>
        <time>2025-02-26T13:04:44Z</time>
      </trkpt>
      <trkpt lat="48.05308" lon="-3.47694">
        <ele>126.5</ele>
        <time>2025-02-26T13:04:45Z</time>
      </trkpt>
      <trkpt lat="48.05308" lon="-3.47693">
        <ele>126.4</ele>
        <time>2025-02-26T13:04:46Z</time>
      </trkpt>
      <trkpt lat="48.05307" lon="-3.47692">
        <ele>126.3</ele>
        <time>2025-02-26T13:04:47Z</time>
      </trkpt>
      <trkpt lat="48.05307" lon="-3.47691">
        <ele>126.1</ele>
        <time>2025-02-26T13:04:48Z</time>
      </trkpt>
      <trkpt lat="48.05306" lon="-3.4769">
        <ele>126</ele>
        <time>2025-02-26T13:04:49Z</time>
      </trkpt>
      <trkpt lat="48.05305" lon="-3.47688">
        <ele>125.8</ele>
        <time>2025-02-26T13:04:50Z</time>
      </trkpt>
      <trkpt lat="48.05305" lon="-3.47689">
        <ele>126</ele>
        <time>2025-02-26T13:04:51Z</time>
      </trkpt>
      <trkpt lat="48.05304" lon="-3.47688">
        <ele>125.9</ele>
        <time>2025-02-26T13:04:52Z</time>
      </trkpt>
      <trkpt lat="48.05304" lon="-3.47686">
        <ele>125.8</ele>
        <time>2025-02-26T13:04:53Z</time>
      </trkpt>
      <trkpt lat="48.05302" lon="-3.47685">
        <ele>126</ele>
        <time>2025-02-26T13:04:54Z</time>
      </trkpt>
      <trkpt lat="48.05301" lon="-3.47684">
        <ele>125.9</ele>
        <time>2025-02-26T13:04:55Z</time>
      </trkpt>
      <trkpt lat="48.05301" lon="-3.47684">
        <ele>126</ele>
        <time>2025-02-26T13:04:56Z</time>
      </trkpt>
      <trkpt lat="48.053" lon="-3.47683">
        <ele>126.2</ele>
        <time>2025-02-26T13:04:57Z</time>
      </trkpt>
      <trkpt lat="48.05299" lon="-3.47683">
        <ele>126.2</ele>
        <time>2025-02-26T13:04:58Z</time>
      </trkpt>
      <trkpt lat="48.05298" lon="-3.47682">
        <ele>126.3</ele>
        <time>2025-02-26T13:04:59Z</time>
      </trkpt>
      <trkpt lat="48.05297" lon="-3.47682">
        <ele>126.5</ele>
        <time>2025-02-26T13:05:00Z</time>
      </trkpt>
      <trkpt lat="48.05298" lon="-3.47682">
        <ele>126.3</ele>
        <time>2025-02-26T13:05:01Z</time>
      </trkpt>
      <trkpt lat="48.05299" lon="-3.47683">
        <ele>126.2</ele>
        <time>2025-02-26T13:05:02Z</time>
      </trkpt>
      <trkpt lat="48.05299" lon="-3.47683">
        <ele>126.2</ele>
        <time>2025-02-26T13:05:03Z</time>
      </trkpt>
      <trkpt lat="48.05299" lon="-3.47683">
        <ele>126.2</ele>
        <time>2025-02-26T13:05:04Z</time>
      </trkpt>
      <trkpt lat="48.05299" lon="-3.47683">
        <ele>126.2</ele>
        <time>2025-02-26T13:05:05Z</time>
      </trkpt>
      <trkpt lat="48.05299" lon="-3.47683">
        <ele>126.2</ele>
        <time>2025-02-26T13:05:06Z</time>
      </trkpt>
      <trkpt lat="48.05299" lon="-3.47683">
        <ele>126.2</ele>
        <time>2025-02-26T13:05:07Z</time>
      </trkpt>
      <trkpt lat="48.05299" lon="-3.47683">
        <ele>126.2</ele>
        <time>2025-02-26T13:05:08Z</time>
      </trkpt>
      <trkpt lat="48.05299" lon="-3.47683">
        <ele>126.2</ele>
        <time>2025-02-26T13:05:09Z</time>
      </trkpt>
      <trkpt lat="48.05298" lon="-3.47683">
        <ele>126.4</ele>
        <time>2025-02-26T13:05:10Z</time>
      </trkpt>
      <trkpt lat="48.05298" lon="-3.47683">
        <ele>126.5</ele>
        <time>2025-02-26T13:05:11Z</time>
      </trkpt>
      <trkpt lat="48.05297" lon="-3.47682">
        <ele>126.6</ele>
        <time>2025-02-26T13:05:12Z</time>
      </trkpt>
      <trkpt lat="48.05295" lon="-3.47681">
        <ele>126.8</ele>
        <time>2025-02-26T13:05:13Z</time>
      </trkpt>
      <trkpt lat="48.05294" lon="-3.4768">
        <ele>126.7</ele>
        <time>2025-02-26T13:05:14Z</time>
      </trkpt>
      <trkpt lat="48.05293" lon="-3.47678">
        <ele>126.5</ele>
        <time>2025-02-26T13:05:15Z</time>
      </trkpt>
      <trkpt lat="48.05292" lon="-3.47677">
        <ele>126.4</ele>
        <time>2025-02-26T13:05:16Z</time>
      </trkpt>
      <trkpt lat="48.05291" lon="-3.47675">
        <ele>126.1</ele>
        <time>2025-02-26T13:05:17Z</time>
      </trkpt>
      <trkpt lat="48.0529" lon="-3.47673">
        <ele>125.8</ele>
        <time>2025-02-26T13:05:18Z</time>
      </trkpt>
      <trkpt lat="48.05289" lon="-3.47671">
        <ele>125.4</ele>
        <time>2025-02-26T13:05:19Z</time>
      </trkpt>
      <trkpt lat="48.05287" lon="-3.4767">
        <ele>125.5</ele>
        <time>2025-02-26T13:05:20Z</time>
      </trkpt>
      <trkpt lat="48.05286" lon="-3.47669">
        <ele>125.2</ele>
        <time>2025-02-26T13:05:21Z</time>
      </trkpt>
      <trkpt lat="48.05285" lon="-3.47667">
        <ele>124.7</ele>
        <time>2025-02-26T13:05:22Z</time>
      </trkpt>
      <trkpt lat="48.05284" lon="-3.47665">
        <ele>124.5</ele>
        <time>2025-02-26T13:05:23Z</time>
      </trkpt>
      <trkpt lat="48.05284" lon="-3.47662">
        <ele>124.3</ele>
        <time>2025-02-26T13:05:24Z</time>
      </trkpt>
      <trkpt lat="48.05284" lon="-3.47663">
        <ele>124.3</ele>
        <time>2025-02-26T13:05:25Z</time>
      </trkpt>
      <trkpt lat="48.05283" lon="-3.47663">
        <ele>124.4</ele>
        <time>2025-02-26T13:05:26Z</time>
      </trkpt>
      <trkpt lat="48.05282" lon="-3.47662">
        <ele>124.5</ele>
        <time>2025-02-26T13:05:27Z</time>
      </trkpt>
      <trkpt lat="48.05281" lon="-3.47662">
        <ele>124.6</ele>
        <time>2025-02-26T13:05:28Z</time>
      </trkpt>
      <trkpt lat="48.0528" lon="-3.47661">
        <ele>124.5</ele>
        <time>2025-02-26T13:05:29Z</time>
      </trkpt>
      <trkpt lat="48.05279" lon="-3.4766">
        <ele>124.4</ele>
        <time>2025-02-26T13:05:30Z</time>
      </trkpt>
      <trkpt lat="48.05278" lon="-3.4766">
        <ele>124.4</ele>
        <time>2025-02-26T13:05:31Z</time>
      </trkpt>
      <trkpt lat="48.05278" lon="-3.47659">
        <ele>124.3</ele>
        <time>2025-02-26T13:05:32Z</time>
      </trkpt>
      <trkpt lat="48.05277" lon="-3.47658">
        <ele>124.2</ele>
        <time>2025-02-26T13:05:33Z</time>
      </trkpt>
      <trkpt lat="48.05277" lon="-3.47657">
        <ele>124.2</ele>
        <time>2025-02-26T13:05:34Z</time>
      </trkpt>
      <trkpt lat="48.05276" lon="-3.47656">
        <ele>124.4</ele>
        <time>2025-02-26T13:05:35Z</time>
      </trkpt>
      <trkpt lat="48.05275" lon="-3.47657">
        <ele>125.2</ele>
        <time>2025-02-26T13:05:36Z</time>
      </trkpt>
      <trkpt lat="48.05274" lon="-3.47659">
        <ele>125.7</ele>
        <time>2025-02-26T13:05:37Z</time>
      </trkpt>
      <trkpt lat="48.05274" lon="-3.4766">
        <ele>126.2</ele>
        <time>2025-02-26T13:05:38Z</time>
      </trkpt>
      <trkpt lat="48.05273" lon="-3.47661">
        <ele>126.7</ele>
        <time>2025-02-26T13:05:39Z</time>
      </trkpt>
      <trkpt lat="48.05273" lon="-3.47661">
        <ele>127.1</ele>
        <time>2025-02-26T13:05:40Z</time>
      </trkpt>
      <trkpt lat="48.05272" lon="-3.47661">
        <ele>127.5</ele>
        <time>2025-02-26T13:05:41Z</time>
      </trkpt>
      <trkpt lat="48.0527" lon="-3.47662">
        <ele>128.2</ele>
        <time>2025-02-26T13:05:42Z</time>
      </trkpt>
      <trkpt lat="48.0527" lon="-3.47662">
        <ele>128.6</ele>
        <time>2025-02-26T13:05:43Z</time>
      </trkpt>
      <trkpt lat="48.05269" lon="-3.47662">
        <ele>129</ele>
        <time>2025-02-26T13:05:44Z</time>
      </trkpt>
      <trkpt lat="48.05268" lon="-3.47663">
        <ele>129.6</ele>
        <time>2025-02-26T13:05:45Z</time>
      </trkpt>
      <trkpt lat="48.05267" lon="-3.47664">
        <ele>130.1</ele>
        <time>2025-02-26T13:05:46Z</time>
      </trkpt>
      <trkpt lat="48.05267" lon="-3.47664">
        <ele>130.4</ele>
        <time>2025-02-26T13:05:47Z</time>
      </trkpt>
      <trkpt lat="48.05266" lon="-3.47664">
        <ele>130.8</ele>
        <time>2025-02-26T13:05:48Z</time>
      </trkpt>
      <trkpt lat="48.05265" lon="-3.47663">
        <ele>130.9</ele>
        <time>2025-02-26T13:05:49Z</time>
      </trkpt>
      <trkpt lat="48.05265" lon="-3.47663">
        <ele>131</ele>
        <time>2025-02-26T13:05:50Z</time>
      </trkpt>
      <trkpt lat="48.05265" lon="-3.47663">
        <ele>130.7</ele>
        <time>2025-02-26T13:05:51Z</time>
      </trkpt>
      <trkpt lat="48.05265" lon="-3.47663">
        <ele>131.1</ele>
        <time>2025-02-26T13:05:52Z</time>
      </trkpt>
      <trkpt lat="48.05264" lon="-3.47662">
        <ele>131.2</ele>
        <time>2025-02-26T13:05:53Z</time>
      </trkpt>
      <trkpt lat="48.05263" lon="-3.47662">
        <ele>131.3</ele>
        <time>2025-02-26T13:05:54Z</time>
      </trkpt>
      <trkpt lat="48.05263" lon="-3.47661">
        <ele>131.4</ele>
        <time>2025-02-26T13:05:55Z</time>
      </trkpt>
      <trkpt lat="48.05262" lon="-3.4766">
        <ele>131.4</ele>
        <time>2025-02-26T13:05:56Z</time>
      </trkpt>
      <trkpt lat="48.05262" lon="-3.4766">
        <ele>131.3</ele>
        <time>2025-02-26T13:05:57Z</time>
      </trkpt>
      <trkpt lat="48.05261" lon="-3.47659">
        <ele>131.5</ele>
        <time>2025-02-26T13:05:58Z</time>
      </trkpt>
      <trkpt lat="48.0526" lon="-3.4766">
        <ele>132</ele>
        <time>2025-02-26T13:05:59Z</time>
      </trkpt>
      <trkpt lat="48.0526" lon="-3.47659">
        <ele>132.1</ele>
        <time>2025-02-26T13:06:00Z</time>
      </trkpt>
      <trkpt lat="48.0526" lon="-3.47658">
        <ele>131.8</ele>
        <time>2025-02-26T13:06:01Z</time>
      </trkpt>
      <trkpt lat="48.05259" lon="-3.47658">
        <ele>131.7</ele>
        <time>2025-02-26T13:06:02Z</time>
      </trkpt>
      <trkpt lat="48.05259" lon="-3.47657">
        <ele>131.8</ele>
        <time>2025-02-26T13:06:03Z</time>
      </trkpt>
      <trkpt lat="48.05259" lon="-3.47657">
        <ele>132</ele>
        <time>2025-02-26T13:06:04Z</time>
      </trkpt>
      <trkpt lat="48.05258" lon="-3.47657">
        <ele>132</ele>
        <time>2025-02-26T13:06:05Z</time>
      </trkpt>
      <trkpt lat="48.05258" lon="-3.47656">
        <ele>131.7</ele>
        <time>2025-02-26T13:06:06Z</time>
      </trkpt>
      <trkpt lat="48.05258" lon="-3.47655">
        <ele>131.7</ele>
        <time>2025-02-26T13:06:07Z</time>
      </trkpt>
      <trkpt lat="48.05257" lon="-3.47654">
        <ele>131.6</ele>
        <time>2025-02-26T13:06:08Z</time>
      </trkpt>
      <trkpt lat="48.05258" lon="-3.47654">
        <ele>131.4</ele>
        <time>2025-02-26T13:06:09Z</time>
      </trkpt>
      <trkpt lat="48.05257" lon="-3.47654">
        <ele>131.6</ele>
        <time>2025-02-26T13:06:10Z</time>
      </trkpt>
      <trkpt lat="48.05257" lon="-3.47655">
        <ele>131.6</ele>
        <time>2025-02-26T13:06:11Z</time>
      </trkpt>
      <trkpt lat="48.05257" lon="-3.47654">
        <ele>131.6</ele>
        <time>2025-02-26T13:06:12Z</time>
      </trkpt>
      <trkpt lat="48.05256" lon="-3.47654">
        <ele>131.9</ele>
        <time>2025-02-26T13:06:13Z</time>
      </trkpt>
      <trkpt lat="48.05256" lon="-3.47654">
        <ele>132</ele>
        <time>2025-02-26T13:06:14Z</time>
      </trkpt>
      <trkpt lat="48.05256" lon="-3.47654">
        <ele>132.1</ele>
        <time>2025-02-26T13:06:15Z</time>
      </trkpt>
      <trkpt lat="48.05256" lon="-3.47654">
        <ele>132.1</ele>
        <time>2025-02-26T13:06:16Z</time>
      </trkpt>
      <trkpt lat="48.05256" lon="-3.47654">
        <ele>132.1</ele>
        <time>2025-02-26T13:06:17Z</time>
      </trkpt>
      <trkpt lat="48.05256" lon="-3.47653">
        <ele>131.9</ele>
        <time>2025-02-26T13:06:18Z</time>
      </trkpt>
      <trkpt lat="48.05256" lon="-3.47653">
        <ele>131.9</ele>
        <time>2025-02-26T13:06:19Z</time>
      </trkpt>
      <trkpt lat="48.05255" lon="-3.47652">
        <ele>131.6</ele>
        <time>2025-02-26T13:06:20Z</time>
      </trkpt>
      <trkpt lat="48.05255" lon="-3.47652">
        <ele>131.8</ele>
        <time>2025-02-26T13:06:21Z</time>
      </trkpt>
      <trkpt lat="48.05255" lon="-3.47651">
        <ele>131.7</ele>
        <time>2025-02-26T13:06:22Z</time>
      </trkpt>
      <trkpt lat="48.05255" lon="-3.47651">
        <ele>131.6</ele>
        <time>2025-02-26T13:06:23Z</time>
      </trkpt>
      <trkpt lat="48.05254" lon="-3.47651">
        <ele>131.6</ele>
        <time>2025-02-26T13:06:24Z</time>
      </trkpt>
      <trkpt lat="48.05254" lon="-3.4765">
        <ele>131.4</ele>
        <time>2025-02-26T13:06:25Z</time>
      </trkpt>
      <trkpt lat="48.05253" lon="-3.47649">
        <ele>131.4</ele>
        <time>2025-02-26T13:06:26Z</time>
      </trkpt>
      <trkpt lat="48.05253" lon="-3.47649">
        <ele>131.5</ele>
        <time>2025-02-26T13:06:27Z</time>
      </trkpt>
      <trkpt lat="48.05252" lon="-3.47648">
        <ele>131.6</ele>
        <time>2025-02-26T13:06:28Z</time>
      </trkpt>
      <trkpt lat="48.05251" lon="-3.47648">
        <ele>131.6</ele>
        <time>2025-02-26T13:06:29Z</time>
      </trkpt>
      <trkpt lat="48.05251" lon="-3.47647">
        <ele>131.6</ele>
        <time>2025-02-26T13:06:30Z</time>
      </trkpt>
      <trkpt lat="48.05251" lon="-3.47646">
        <ele>131.3</ele>
        <time>2025-02-26T13:06:31Z</time>
      </trkpt>
      <trkpt lat="48.0525" lon="-3.47645">
        <ele>131.1</ele>
        <time>2025-02-26T13:06:32Z</time>
      </trkpt>
      <trkpt lat="48.0525" lon="-3.47644">
        <ele>130.8</ele>
        <time>2025-02-26T13:06:33Z</time>
      </trkpt>
      <trkpt lat="48.05249" lon="-3.47643">
        <ele>130.5</ele>
        <time>2025-02-26T13:06:34Z</time>
      </trkpt>
      <trkpt lat="48.05248" lon="-3.47642">
        <ele>130.4</ele>
        <time>2025-02-26T13:06:35Z</time>
      </trkpt>
      <trkpt lat="48.05248" lon="-3.47642">
        <ele>130.2</ele>
        <time>2025-02-26T13:06:36Z</time>
      </trkpt>
      <trkpt lat="48.05246" lon="-3.47642">
        <ele>130.7</ele>
        <time>2025-02-26T13:06:37Z</time>
      </trkpt>
      <trkpt lat="48.05246" lon="-3.47643">
        <ele>131</ele>
        <time>2025-02-26T13:06:38Z</time>
      </trkpt>
      <trkpt lat="48.05247" lon="-3.47645">
        <ele>131.7</ele>
        <time>2025-02-26T13:06:39Z</time>
      </trkpt>
      <trkpt lat="48.05247" lon="-3.47646">
        <ele>131.9</ele>
        <time>2025-02-26T13:06:40Z</time>
      </trkpt>
      <trkpt lat="48.05247" lon="-3.47648">
        <ele>132.5</ele>
        <time>2025-02-26T13:06:41Z</time>
      </trkpt>
      <trkpt lat="48.05246" lon="-3.47647">
        <ele>132.4</ele>
        <time>2025-02-26T13:06:42Z</time>
      </trkpt>
      <trkpt lat="48.05245" lon="-3.47646">
        <ele>132</ele>
        <time>2025-02-26T13:06:43Z</time>
      </trkpt>
      <trkpt lat="48.05244" lon="-3.47644">
        <ele>131.7</ele>
        <time>2025-02-26T13:06:44Z</time>
      </trkpt>
      <trkpt lat="48.05243" lon="-3.47643">
        <ele>131.5</ele>
        <time>2025-02-26T13:06:45Z</time>
      </trkpt>
      <trkpt lat="48.05243" lon="-3.47643">
        <ele>131.3</ele>
        <time>2025-02-26T13:06:46Z</time>
      </trkpt>
      <trkpt lat="48.05242" lon="-3.47642">
        <ele>131</ele>
        <time>2025-02-26T13:06:47Z</time>
      </trkpt>
      <trkpt lat="48.05241" lon="-3.47641">
        <ele>130.9</ele>
        <time>2025-02-26T13:06:48Z</time>
      </trkpt>
      <trkpt lat="48.05241" lon="-3.47639">
        <ele>130.4</ele>
        <time>2025-02-26T13:06:49Z</time>
      </trkpt>
      <trkpt lat="48.05242" lon="-3.47639">
        <ele>130.2</ele>
        <time>2025-02-26T13:06:50Z</time>
      </trkpt>
      <trkpt lat="48.05243" lon="-3.47639">
        <ele>130.2</ele>
        <time>2025-02-26T13:06:51Z</time>
      </trkpt>
      <trkpt lat="48.05243" lon="-3.47639">
        <ele>130.2</ele>
        <time>2025-02-26T13:06:52Z</time>
      </trkpt>
      <trkpt lat="48.05243" lon="-3.47639">
        <ele>130.2</ele>
        <time>2025-02-26T13:06:53Z</time>
      </trkpt>
      <trkpt lat="48.05243" lon="-3.47639">
        <ele>130.2</ele>
        <time>2025-02-26T13:06:54Z</time>
      </trkpt>
      <trkpt lat="48.05243" lon="-3.47638">
        <ele>129.9</ele>
        <time>2025-02-26T13:06:55Z</time>
      </trkpt>
      <trkpt lat="48.05242" lon="-3.47637">
        <ele>129.8</ele>
        <time>2025-02-26T13:06:56Z</time>
      </trkpt>
      <trkpt lat="48.05242" lon="-3.47637">
        <ele>129.4</ele>
        <time>2025-02-26T13:06:57Z</time>
      </trkpt>
      <trkpt lat="48.05241" lon="-3.47636">
        <ele>129.4</ele>
        <time>2025-02-26T13:06:58Z</time>
      </trkpt>
      <trkpt lat="48.0524" lon="-3.47635">
        <ele>129.3</ele>
        <time>2025-02-26T13:06:59Z</time>
      </trkpt>
      <trkpt lat="48.0524" lon="-3.47634">
        <ele>129</ele>
        <time>2025-02-26T13:07:00Z</time>
      </trkpt>
      <trkpt lat="48.0524" lon="-3.47632">
        <ele>128.6</ele>
        <time>2025-02-26T13:07:01Z</time>
      </trkpt>
      <trkpt lat="48.05239" lon="-3.47631">
        <ele>128.4</ele>
        <time>2025-02-26T13:07:02Z</time>
      </trkpt>
      <trkpt lat="48.05238" lon="-3.4763">
        <ele>128.3</ele>
        <time>2025-02-26T13:07:03Z</time>
      </trkpt>
      <trkpt lat="48.05237" lon="-3.4763">
        <ele>128.2</ele>
        <time>2025-02-26T13:07:04Z</time>
      </trkpt>
      <trkpt lat="48.05236" lon="-3.47629">
        <ele>128.1</ele>
        <time>2025-02-26T13:07:05Z</time>
      </trkpt>
      <trkpt lat="48.05236" lon="-3.47628">
        <ele>127.8</ele>
        <time>2025-02-26T13:07:06Z</time>
      </trkpt>
      <trkpt lat="48.05236" lon="-3.47626">
        <ele>127.5</ele>
        <time>2025-02-26T13:07:07Z</time>
      </trkpt>
      <trkpt lat="48.05236" lon="-3.47625">
        <ele>127.2</ele>
        <time>2025-02-26T13:07:08Z</time>
      </trkpt>
      <trkpt lat="48.05235" lon="-3.47624">
        <ele>126.9</ele>
        <time>2025-02-26T13:07:09Z</time>
      </trkpt>
      <trkpt lat="48.05235" lon="-3.47624">
        <ele>127</ele>
        <time>2025-02-26T13:07:10Z</time>
      </trkpt>
      <trkpt lat="48.05234" lon="-3.47625">
        <ele>127.2</ele>
        <time>2025-02-26T13:07:11Z</time>
      </trkpt>
      <trkpt lat="48.05233" lon="-3.47625">
        <ele>127.4</ele>
        <time>2025-02-26T13:07:12Z</time>
      </trkpt>
      <trkpt lat="48.05232" lon="-3.47624">
        <ele>127.3</ele>
        <time>2025-02-26T13:07:13Z</time>
      </trkpt>
      <trkpt lat="48.05232" lon="-3.47624">
        <ele>127.4</ele>
        <time>2025-02-26T13:07:14Z</time>
      </trkpt>
      <trkpt lat="48.05231" lon="-3.47624">
        <ele>127.6</ele>
        <time>2025-02-26T13:07:15Z</time>
      </trkpt>
      <trkpt lat="48.0523" lon="-3.47624">
        <ele>127.7</ele>
        <time>2025-02-26T13:07:16Z</time>
      </trkpt>
      <trkpt lat="48.0523" lon="-3.47624">
        <ele>127.8</ele>
        <time>2025-02-26T13:07:17Z</time>
      </trkpt>
      <trkpt lat="48.0523" lon="-3.47624">
        <ele>127.6</ele>
        <time>2025-02-26T13:07:18Z</time>
      </trkpt>
      <trkpt lat="48.05229" lon="-3.47623">
        <ele>127.3</ele>
        <time>2025-02-26T13:07:19Z</time>
      </trkpt>
      <trkpt lat="48.0523" lon="-3.47623">
        <ele>127.2</ele>
        <time>2025-02-26T13:07:20Z</time>
      </trkpt>
      <trkpt lat="48.0523" lon="-3.47622">
        <ele>126.8</ele>
        <time>2025-02-26T13:07:21Z</time>
      </trkpt>
      <trkpt lat="48.0523" lon="-3.4762">
        <ele>126.4</ele>
        <time>2025-02-26T13:07:22Z</time>
      </trkpt>
      <trkpt lat="48.0523" lon="-3.4762">
        <ele>126.3</ele>
        <time>2025-02-26T13:07:23Z</time>
      </trkpt>
      <trkpt lat="48.0523" lon="-3.47619">
        <ele>126.3</ele>
        <time>2025-02-26T13:07:24Z</time>
      </trkpt>
      <trkpt lat="48.05229" lon="-3.47619">
        <ele>126.3</ele>
        <time>2025-02-26T13:07:25Z</time>
      </trkpt>
      <trkpt lat="48.0523" lon="-3.4762">
        <ele>126.5</ele>
        <time>2025-02-26T13:07:26Z</time>
      </trkpt>
      <trkpt lat="48.05229" lon="-3.47619">
        <ele>126.3</ele>
        <time>2025-02-26T13:07:27Z</time>
      </trkpt>
      <trkpt lat="48.05229" lon="-3.47618">
        <ele>126</ele>
        <time>2025-02-26T13:07:28Z</time>
      </trkpt>
      <trkpt lat="48.05229" lon="-3.47618">
        <ele>126</ele>
        <time>2025-02-26T13:07:29Z</time>
      </trkpt>
      <trkpt lat="48.05229" lon="-3.47618">
        <ele>126</ele>
        <time>2025-02-26T13:07:30Z</time>
      </trkpt>
      <trkpt lat="48.05229" lon="-3.47616">
        <ele>125.6</ele>
        <time>2025-02-26T13:07:31Z</time>
      </trkpt>
      <trkpt lat="48.05229" lon="-3.47615">
        <ele>125.2</ele>
        <time>2025-02-26T13:07:32Z</time>
      </trkpt>
      <trkpt lat="48.05229" lon="-3.47616">
        <ele>125.5</ele>
        <time>2025-02-26T13:07:33Z</time>
      </trkpt>
      <trkpt lat="48.05229" lon="-3.47615">
        <ele>125.3</ele>
        <time>2025-02-26T13:07:34Z</time>
      </trkpt>
      <trkpt lat="48.05229" lon="-3.47616">
        <ele>125.6</ele>
        <time>2025-02-26T13:07:35Z</time>
      </trkpt>
      <trkpt lat="48.05229" lon="-3.47617">
        <ele>125.6</ele>
        <time>2025-02-26T13:07:36Z</time>
      </trkpt>
      <trkpt lat="48.05229" lon="-3.47617">
        <ele>125.6</ele>
        <time>2025-02-26T13:07:37Z</time>
      </trkpt>
      <trkpt lat="48.05229" lon="-3.47617">
        <ele>125.7</ele>
        <time>2025-02-26T13:07:38Z</time>
      </trkpt>
      <trkpt lat="48.05229" lon="-3.47617">
        <ele>125.7</ele>
        <time>2025-02-26T13:07:39Z</time>
      </trkpt>
      <trkpt lat="48.0523" lon="-3.47618">
        <ele>125.7</ele>
        <time>2025-02-26T13:07:40Z</time>
      </trkpt>
      <trkpt lat="48.05229" lon="-3.47616">
        <ele>125.4</ele>
        <time>2025-02-26T13:07:41Z</time>
      </trkpt>
      <trkpt lat="48.05229" lon="-3.47616">
        <ele>125.3</ele>
        <time>2025-02-26T13:07:42Z</time>
      </trkpt>
      <trkpt lat="48.05229" lon="-3.47615">
        <ele>125.2</ele>
        <time>2025-02-26T13:07:43Z</time>
      </trkpt>
      <trkpt lat="48.05229" lon="-3.47615">
        <ele>125.2</ele>
        <time>2025-02-26T13:07:44Z</time>
      </trkpt>
      <trkpt lat="48.05229" lon="-3.47615">
        <ele>125.2</ele>
        <time>2025-02-26T13:07:45Z</time>
      </trkpt>
      <trkpt lat="48.05229" lon="-3.47615">
        <ele>125.2</ele>
        <time>2025-02-26T13:07:46Z</time>
      </trkpt>
      <trkpt lat="48.05229" lon="-3.47615">
        <ele>125.2</ele>
        <time>2025-02-26T13:07:47Z</time>
      </trkpt>
      <trkpt lat="48.05229" lon="-3.47615">
        <ele>125.1</ele>
        <time>2025-02-26T13:07:48Z</time>
      </trkpt>
      <trkpt lat="48.05229" lon="-3.47615">
        <ele>125.2</ele>
        <time>2025-02-26T13:07:49Z</time>
      </trkpt>
      <trkpt lat="48.05229" lon="-3.47615">
        <ele>125.1</ele>
        <time>2025-02-26T13:07:50Z</time>
      </trkpt>
      <trkpt lat="48.05229" lon="-3.47615">
        <ele>125.2</ele>
        <time>2025-02-26T13:07:51Z</time>
      </trkpt>
      <trkpt lat="48.05229" lon="-3.47615">
        <ele>125.1</ele>
        <time>2025-02-26T13:07:52Z</time>
      </trkpt>
      <trkpt lat="48.05229" lon="-3.47614">
        <ele>124.8</ele>
        <time>2025-02-26T13:07:53Z</time>
      </trkpt>
      <trkpt lat="48.05229" lon="-3.47614">
        <ele>124.8</ele>
        <time>2025-02-26T13:07:54Z</time>
      </trkpt>
      <trkpt lat="48.05229" lon="-3.47613">
        <ele>124.5</ele>
        <time>2025-02-26T13:07:55Z</time>
      </trkpt>
      <trkpt lat="48.05229" lon="-3.47613">
        <ele>124.4</ele>
        <time>2025-02-26T13:07:56Z</time>
      </trkpt>
      <trkpt lat="48.05229" lon="-3.47612">
        <ele>124.4</ele>
        <time>2025-02-26T13:07:57Z</time>
      </trkpt>
      <trkpt lat="48.05229" lon="-3.47612">
        <ele>124.4</ele>
        <time>2025-02-26T13:07:58Z</time>
      </trkpt>
      <trkpt lat="48.05229" lon="-3.47612">
        <ele>124.2</ele>
        <time>2025-02-26T13:07:59Z</time>
      </trkpt>
      <trkpt lat="48.05229" lon="-3.47611">
        <ele>124.1</ele>
        <time>2025-02-26T13:08:00Z</time>
      </trkpt>
      <trkpt lat="48.05229" lon="-3.47611">
        <ele>124.1</ele>
        <time>2025-02-26T13:08:01Z</time>
      </trkpt>
      <trkpt lat="48.05229" lon="-3.47611">
        <ele>124.1</ele>
        <time>2025-02-26T13:08:02Z</time>
      </trkpt>
      <trkpt lat="48.05229" lon="-3.47611">
        <ele>124.1</ele>
        <time>2025-02-26T13:08:03Z</time>
      </trkpt>
      <trkpt lat="48.05229" lon="-3.47612">
        <ele>124.2</ele>
        <time>2025-02-26T13:08:04Z</time>
      </trkpt>
      <trkpt lat="48.05229" lon="-3.47612">
        <ele>124.3</ele>
        <time>2025-02-26T13:08:05Z</time>
      </trkpt>
      <trkpt lat="48.05229" lon="-3.47612">
        <ele>124.3</ele>
        <time>2025-02-26T13:08:06Z</time>
      </trkpt>
      <trkpt lat="48.05229" lon="-3.47612">
        <ele>124.3</ele>
        <time>2025-02-26T13:08:07Z</time>
      </trkpt>
      <trkpt lat="48.05229" lon="-3.47612">
        <ele>124.3</ele>
        <time>2025-02-26T13:08:08Z</time>
      </trkpt>
      <trkpt lat="48.05229" lon="-3.47612">
        <ele>124.3</ele>
        <time>2025-02-26T13:08:09Z</time>
      </trkpt>
      <trkpt lat="48.05229" lon="-3.47613">
        <ele>124.4</ele>
        <time>2025-02-26T13:08:10Z</time>
      </trkpt>
      <trkpt lat="48.05229" lon="-3.47613">
        <ele>124.4</ele>
        <time>2025-02-26T13:08:11Z</time>
      </trkpt>
      <trkpt lat="48.05229" lon="-3.47613">
        <ele>124.4</ele>
        <time>2025-02-26T13:08:12Z</time>
      </trkpt>
      <trkpt lat="48.0523" lon="-3.47612">
        <ele>124.3</ele>
        <time>2025-02-26T13:08:13Z</time>
      </trkpt>
      <trkpt lat="48.0523" lon="-3.47612">
        <ele>124.2</ele>
        <time>2025-02-26T13:08:14Z</time>
      </trkpt>
      <trkpt lat="48.0523" lon="-3.47611">
        <ele>124</ele>
        <time>2025-02-26T13:08:15Z</time>
      </trkpt>
      <trkpt lat="48.05229" lon="-3.47611">
        <ele>124</ele>
        <time>2025-02-26T13:08:16Z</time>
      </trkpt>
      <trkpt lat="48.05228" lon="-3.4761">
        <ele>124</ele>
        <time>2025-02-26T13:08:17Z</time>
      </trkpt>
      <trkpt lat="48.05229" lon="-3.47609">
        <ele>123.7</ele>
        <time>2025-02-26T13:08:18Z</time>
      </trkpt>
      <trkpt lat="48.05228" lon="-3.47608">
        <ele>123.5</ele>
        <time>2025-02-26T13:08:19Z</time>
      </trkpt>
      <trkpt lat="48.05228" lon="-3.47607">
        <ele>123.4</ele>
        <time>2025-02-26T13:08:20Z</time>
      </trkpt>
      <trkpt lat="48.05229" lon="-3.47606">
        <ele>123.2</ele>
        <time>2025-02-26T13:08:21Z</time>
      </trkpt>
      <trkpt lat="48.05229" lon="-3.47606">
        <ele>123</ele>
        <time>2025-02-26T13:08:22Z</time>
      </trkpt>
      <trkpt lat="48.0523" lon="-3.47605">
        <ele>122.8</ele>
        <time>2025-02-26T13:08:23Z</time>
      </trkpt>
      <trkpt lat="48.05229" lon="-3.47606">
        <ele>122.9</ele>
        <time>2025-02-26T13:08:24Z</time>
      </trkpt>
      <trkpt lat="48.0523" lon="-3.47604">
        <ele>122.7</ele>
        <time>2025-02-26T13:08:25Z</time>
      </trkpt>
      <trkpt lat="48.0523" lon="-3.47604">
        <ele>122.7</ele>
        <time>2025-02-26T13:08:26Z</time>
      </trkpt>
      <trkpt lat="48.0523" lon="-3.47604">
        <ele>122.7</ele>
        <time>2025-02-26T13:08:27Z</time>
      </trkpt>
      <trkpt lat="48.0523" lon="-3.47604">
        <ele>122.7</ele>
        <time>2025-02-26T13:08:28Z</time>
      </trkpt>
      <trkpt lat="48.0523" lon="-3.47604">
        <ele>122.7</ele>
        <time>2025-02-26T13:08:29Z</time>
      </trkpt>
      <trkpt lat="48.0523" lon="-3.47604">
        <ele>122.7</ele>
        <time>2025-02-26T13:08:30Z</time>
      </trkpt>
      <trkpt lat="48.0523" lon="-3.47604">
        <ele>122.7</ele>
        <time>2025-02-26T13:08:31Z</time>
      </trkpt>
      <trkpt lat="48.0523" lon="-3.47604">
        <ele>122.7</ele>
        <time>2025-02-26T13:08:32Z</time>
      </trkpt>
      <trkpt lat="48.0523" lon="-3.47604">
        <ele>122.7</ele>
        <time>2025-02-26T13:08:33Z</time>
      </trkpt>
      <trkpt lat="48.0523" lon="-3.47605">
        <ele>122.8</ele>
        <time>2025-02-26T13:08:34Z</time>
      </trkpt>
      <trkpt lat="48.0523" lon="-3.47605">
        <ele>122.8</ele>
        <time>2025-02-26T13:08:35Z</time>
      </trkpt>
      <trkpt lat="48.05229" lon="-3.47605">
        <ele>122.9</ele>
        <time>2025-02-26T13:08:36Z</time>
      </trkpt>
      <trkpt lat="48.05229" lon="-3.47605">
        <ele>122.8</ele>
        <time>2025-02-26T13:08:37Z</time>
      </trkpt>
      <trkpt lat="48.05229" lon="-3.47605">
        <ele>122.8</ele>
        <time>2025-02-26T13:08:38Z</time>
      </trkpt>
      <trkpt lat="48.0523" lon="-3.47604">
        <ele>122.7</ele>
        <time>2025-02-26T13:08:39Z</time>
      </trkpt>
      <trkpt lat="48.0523" lon="-3.47604">
        <ele>122.6</ele>
        <time>2025-02-26T13:08:40Z</time>
      </trkpt>
      <trkpt lat="48.0523" lon="-3.47603">
        <ele>122.4</ele>
        <time>2025-02-26T13:08:41Z</time>
      </trkpt>
      <trkpt lat="48.0523" lon="-3.47602">
        <ele>122.3</ele>
        <time>2025-02-26T13:08:42Z</time>
      </trkpt>
      <trkpt lat="48.0523" lon="-3.47602">
        <ele>122.3</ele>
        <time>2025-02-26T13:08:43Z</time>
      </trkpt>
      <trkpt lat="48.0523" lon="-3.47602">
        <ele>122.3</ele>
        <time>2025-02-26T13:08:44Z</time>
      </trkpt>
      <trkpt lat="48.0523" lon="-3.47603">
        <ele>122.4</ele>
        <time>2025-02-26T13:08:45Z</time>
      </trkpt>
      <trkpt lat="48.05229" lon="-3.47603">
        <ele>122.3</ele>
        <time>2025-02-26T13:08:46Z</time>
      </trkpt>
      <trkpt lat="48.05229" lon="-3.47602">
        <ele>122.3</ele>
        <time>2025-02-26T13:08:47Z</time>
      </trkpt>
      <trkpt lat="48.05229" lon="-3.47602">
        <ele>122.3</ele>
        <time>2025-02-26T13:08:48Z</time>
      </trkpt>
      <trkpt lat="48.05229" lon="-3.47601">
        <ele>122.1</ele>
        <time>2025-02-26T13:08:49Z</time>
      </trkpt>
      <trkpt lat="48.05229" lon="-3.47599">
        <ele>121.8</ele>
        <time>2025-02-26T13:08:50Z</time>
      </trkpt>
      <trkpt lat="48.05229" lon="-3.47599">
        <ele>121.7</ele>
        <time>2025-02-26T13:08:51Z</time>
      </trkpt>
      <trkpt lat="48.05229" lon="-3.47598">
        <ele>121.5</ele>
        <time>2025-02-26T13:08:52Z</time>
      </trkpt>
      <trkpt lat="48.0523" lon="-3.47597">
        <ele>121.3</ele>
        <time>2025-02-26T13:08:53Z</time>
      </trkpt>
      <trkpt lat="48.0523" lon="-3.47597">
        <ele>121.2</ele>
        <time>2025-02-26T13:08:54Z</time>
      </trkpt>
      <trkpt lat="48.0523" lon="-3.47597">
        <ele>121.2</ele>
        <time>2025-02-26T13:08:55Z</time>
      </trkpt>
      <trkpt lat="48.0523" lon="-3.47595">
        <ele>120.9</ele>
        <time>2025-02-26T13:08:56Z</time>
      </trkpt>
      <trkpt lat="48.0523" lon="-3.47594">
        <ele>120.6</ele>
        <time>2025-02-26T13:08:57Z</time>
      </trkpt>
      <trkpt lat="48.0523" lon="-3.47593">
        <ele>120.6</ele>
        <time>2025-02-26T13:08:58Z</time>
      </trkpt>
      <trkpt lat="48.0523" lon="-3.47593">
        <ele>120.6</ele>
        <time>2025-02-26T13:08:59Z</time>
      </trkpt>
      <trkpt lat="48.05229" lon="-3.47593">
        <ele>120.6</ele>
        <time>2025-02-26T13:09:00Z</time>
      </trkpt>
      <trkpt lat="48.05229" lon="-3.47593">
        <ele>120.5</ele>
        <time>2025-02-26T13:09:01Z</time>
      </trkpt>
      <trkpt lat="48.05229" lon="-3.47592">
        <ele>120.4</ele>
        <time>2025-02-26T13:09:02Z</time>
      </trkpt>
      <trkpt lat="48.05228" lon="-3.47592">
        <ele>120.5</ele>
        <time>2025-02-26T13:09:03Z</time>
      </trkpt>
      <trkpt lat="48.05227" lon="-3.47592">
        <ele>120.5</ele>
        <time>2025-02-26T13:09:04Z</time>
      </trkpt>
      <trkpt lat="48.05226" lon="-3.47592">
        <ele>120.6</ele>
        <time>2025-02-26T13:09:05Z</time>
      </trkpt>
      <trkpt lat="48.05225" lon="-3.47593">
        <ele>120.8</ele>
        <time>2025-02-26T13:09:06Z</time>
      </trkpt>
      <trkpt lat="48.05224" lon="-3.47593">
        <ele>121</ele>
        <time>2025-02-26T13:09:07Z</time>
      </trkpt>
      <trkpt lat="48.05224" lon="-3.47593">
        <ele>120.9</ele>
        <time>2025-02-26T13:09:08Z</time>
      </trkpt>
      <trkpt lat="48.05224" lon="-3.47593">
        <ele>121</ele>
        <time>2025-02-26T13:09:09Z</time>
      </trkpt>
      <trkpt lat="48.05224" lon="-3.47593">
        <ele>120.9</ele>
        <time>2025-02-26T13:09:10Z</time>
      </trkpt>
      <trkpt lat="48.05224" lon="-3.47593">
        <ele>120.9</ele>
        <time>2025-02-26T13:09:11Z</time>
      </trkpt>
      <trkpt lat="48.05224" lon="-3.47592">
        <ele>120.7</ele>
        <time>2025-02-26T13:09:12Z</time>
      </trkpt>
      <trkpt lat="48.05224" lon="-3.47591">
        <ele>120.7</ele>
        <time>2025-02-26T13:09:13Z</time>
      </trkpt>
      <trkpt lat="48.05223" lon="-3.47591">
        <ele>120.5</ele>
        <time>2025-02-26T13:09:14Z</time>
      </trkpt>
      <trkpt lat="48.05222" lon="-3.47591">
        <ele>120.6</ele>
        <time>2025-02-26T13:09:15Z</time>
      </trkpt>
      <trkpt lat="48.05222" lon="-3.47591">
        <ele>120.5</ele>
        <time>2025-02-26T13:09:16Z</time>
      </trkpt>
      <trkpt lat="48.05222" lon="-3.4759">
        <ele>120.4</ele>
        <time>2025-02-26T13:09:17Z</time>
      </trkpt>
      <trkpt lat="48.05221" lon="-3.4759">
        <ele>120.4</ele>
        <time>2025-02-26T13:09:18Z</time>
      </trkpt>
      <trkpt lat="48.05221" lon="-3.4759">
        <ele>120.4</ele>
        <time>2025-02-26T13:09:19Z</time>
      </trkpt>
      <trkpt lat="48.05221" lon="-3.4759">
        <ele>120.2</ele>
        <time>2025-02-26T13:09:20Z</time>
      </trkpt>
      <trkpt lat="48.05221" lon="-3.4759">
        <ele>120.2</ele>
        <time>2025-02-26T13:09:21Z</time>
      </trkpt>
      <trkpt lat="48.0522" lon="-3.4759">
        <ele>120</ele>
        <time>2025-02-26T13:09:22Z</time>
      </trkpt>
      <trkpt lat="48.0522" lon="-3.4759">
        <ele>120</ele>
        <time>2025-02-26T13:09:23Z</time>
      </trkpt>
      <trkpt lat="48.0522" lon="-3.4759">
        <ele>120</ele>
        <time>2025-02-26T13:09:24Z</time>
      </trkpt>
      <trkpt lat="48.0522" lon="-3.4759">
        <ele>120</ele>
        <time>2025-02-26T13:09:25Z</time>
      </trkpt>
      <trkpt lat="48.05219" lon="-3.47589">
        <ele>119.7</ele>
        <time>2025-02-26T13:09:26Z</time>
      </trkpt>
      <trkpt lat="48.05219" lon="-3.47588">
        <ele>119.4</ele>
        <time>2025-02-26T13:09:27Z</time>
      </trkpt>
      <trkpt lat="48.05218" lon="-3.47587">
        <ele>119.2</ele>
        <time>2025-02-26T13:09:28Z</time>
      </trkpt>
      <trkpt lat="48.05218" lon="-3.47588">
        <ele>119.3</ele>
        <time>2025-02-26T13:09:29Z</time>
      </trkpt>
      <trkpt lat="48.05218" lon="-3.47586">
        <ele>119</ele>
        <time>2025-02-26T13:09:30Z</time>
      </trkpt>
      <trkpt lat="48.05218" lon="-3.47585">
        <ele>118.7</ele>
        <time>2025-02-26T13:09:31Z</time>
      </trkpt>
      <trkpt lat="48.05218" lon="-3.47584">
        <ele>118.5</ele>
        <time>2025-02-26T13:09:32Z</time>
      </trkpt>
      <trkpt lat="48.05219" lon="-3.47583">
        <ele>118.5</ele>
        <time>2025-02-26T13:09:33Z</time>
      </trkpt>
      <trkpt lat="48.0522" lon="-3.47582">
        <ele>118.6</ele>
        <time>2025-02-26T13:09:34Z</time>
      </trkpt>
      <trkpt lat="48.0522" lon="-3.47581">
        <ele>118.6</ele>
        <time>2025-02-26T13:09:35Z</time>
      </trkpt>
      <trkpt lat="48.05221" lon="-3.47581">
        <ele>118.6</ele>
        <time>2025-02-26T13:09:36Z</time>
      </trkpt>
      <trkpt lat="48.05221" lon="-3.4758">
        <ele>118.5</ele>
        <time>2025-02-26T13:09:37Z</time>
      </trkpt>
      <trkpt lat="48.05221" lon="-3.4758">
        <ele>118.6</ele>
        <time>2025-02-26T13:09:38Z</time>
      </trkpt>
      <trkpt lat="48.05221" lon="-3.4758">
        <ele>118.6</ele>
        <time>2025-02-26T13:09:39Z</time>
      </trkpt>
      <trkpt lat="48.05221" lon="-3.4758">
        <ele>118.6</ele>
        <time>2025-02-26T13:09:40Z</time>
      </trkpt>
      <trkpt lat="48.05221" lon="-3.4758">
        <ele>118.6</ele>
        <time>2025-02-26T13:09:41Z</time>
      </trkpt>
      <trkpt lat="48.05221" lon="-3.4758">
        <ele>118.6</ele>
        <time>2025-02-26T13:09:42Z</time>
      </trkpt>
      <trkpt lat="48.05221" lon="-3.4758">
        <ele>118.6</ele>
        <time>2025-02-26T13:09:43Z</time>
      </trkpt>
      <trkpt lat="48.05221" lon="-3.4758">
        <ele>118.5</ele>
        <time>2025-02-26T13:09:44Z</time>
      </trkpt>
      <trkpt lat="48.05221" lon="-3.4758">
        <ele>118.5</ele>
        <time>2025-02-26T13:09:45Z</time>
      </trkpt>
      <trkpt lat="48.05221" lon="-3.4758">
        <ele>118.6</ele>
        <time>2025-02-26T13:09:46Z</time>
      </trkpt>
      <trkpt lat="48.05221" lon="-3.47579">
        <ele>118.6</ele>
        <time>2025-02-26T13:09:47Z</time>
      </trkpt>
      <trkpt lat="48.05221" lon="-3.47579">
        <ele>118.6</ele>
        <time>2025-02-26T13:09:48Z</time>
      </trkpt>
      <trkpt lat="48.05221" lon="-3.47579">
        <ele>118.6</ele>
        <time>2025-02-26T13:09:49Z</time>
      </trkpt>
      <trkpt lat="48.05221" lon="-3.47579">
        <ele>118.6</ele>
        <time>2025-02-26T13:09:50Z</time>
      </trkpt>
      <trkpt lat="48.0522" lon="-3.47579">
        <ele>118.5</ele>
        <time>2025-02-26T13:09:51Z</time>
      </trkpt>
      <trkpt lat="48.0522" lon="-3.47577">
        <ele>118.3</ele>
        <time>2025-02-26T13:09:52Z</time>
      </trkpt>
      <trkpt lat="48.0522" lon="-3.47575">
        <ele>118.2</ele>
        <time>2025-02-26T13:09:53Z</time>
      </trkpt>
      <trkpt lat="48.0522" lon="-3.47575">
        <ele>118.2</ele>
        <time>2025-02-26T13:09:54Z</time>
      </trkpt>
      <trkpt lat="48.05222" lon="-3.47575">
        <ele>118.3</ele>
        <time>2025-02-26T13:09:55Z</time>
      </trkpt>
      <trkpt lat="48.05222" lon="-3.47575">
        <ele>118.4</ele>
        <time>2025-02-26T13:09:56Z</time>
      </trkpt>
      <trkpt lat="48.05222" lon="-3.47575">
        <ele>118.4</ele>
        <time>2025-02-26T13:09:57Z</time>
      </trkpt>
      <trkpt lat="48.05222" lon="-3.47575">
        <ele>118.4</ele>
        <time>2025-02-26T13:09:58Z</time>
      </trkpt>
      <trkpt lat="48.05222" lon="-3.47574">
        <ele>118.4</ele>
        <time>2025-02-26T13:09:59Z</time>
      </trkpt>
      <trkpt lat="48.05223" lon="-3.47575">
        <ele>118.4</ele>
        <time>2025-02-26T13:10:00Z</time>
      </trkpt>
      <trkpt lat="48.05225" lon="-3.47576">
        <ele>118.5</ele>
        <time>2025-02-26T13:10:01Z</time>
      </trkpt>
      <trkpt lat="48.05225" lon="-3.47576">
        <ele>118.5</ele>
        <time>2025-02-26T13:10:02Z</time>
      </trkpt>
      <trkpt lat="48.05226" lon="-3.47575">
        <ele>118.5</ele>
        <time>2025-02-26T13:10:03Z</time>
      </trkpt>
      <trkpt lat="48.05227" lon="-3.47574">
        <ele>118.5</ele>
        <time>2025-02-26T13:10:04Z</time>
      </trkpt>
      <trkpt lat="48.05227" lon="-3.47573">
        <ele>118.5</ele>
        <time>2025-02-26T13:10:05Z</time>
      </trkpt>
      <trkpt lat="48.05227" lon="-3.47573">
        <ele>118.4</ele>
        <time>2025-02-26T13:10:06Z</time>
      </trkpt>
      <trkpt lat="48.05227" lon="-3.47572">
        <ele>118.4</ele>
        <time>2025-02-26T13:10:07Z</time>
      </trkpt>
      <trkpt lat="48.05227" lon="-3.47571">
        <ele>118.4</ele>
        <time>2025-02-26T13:10:08Z</time>
      </trkpt>
      <trkpt lat="48.05227" lon="-3.47571">
        <ele>118.4</ele>
        <time>2025-02-26T13:10:09Z</time>
      </trkpt>
      <trkpt lat="48.05227" lon="-3.47571">
        <ele>118.4</ele>
        <time>2025-02-26T13:10:10Z</time>
      </trkpt>
      <trkpt lat="48.05228" lon="-3.47571">
        <ele>118.4</ele>
        <time>2025-02-26T13:10:11Z</time>
      </trkpt>
      <trkpt lat="48.05228" lon="-3.4757">
        <ele>118.4</ele>
        <time>2025-02-26T13:10:12Z</time>
      </trkpt>
      <trkpt lat="48.05228" lon="-3.4757">
        <ele>118.4</ele>
        <time>2025-02-26T13:10:13Z</time>
      </trkpt>
      <trkpt lat="48.05229" lon="-3.47569">
        <ele>118.4</ele>
        <time>2025-02-26T13:10:14Z</time>
      </trkpt>
      <trkpt lat="48.05229" lon="-3.47569">
        <ele>118.5</ele>
        <time>2025-02-26T13:10:15Z</time>
      </trkpt>
      <trkpt lat="48.05229" lon="-3.47569">
        <ele>118.5</ele>
        <time>2025-02-26T13:10:16Z</time>
      </trkpt>
      <trkpt lat="48.05229" lon="-3.47569">
        <ele>118.5</ele>
        <time>2025-02-26T13:10:17Z</time>
      </trkpt>
      <trkpt lat="48.05229" lon="-3.47568">
        <ele>118.5</ele>
        <time>2025-02-26T13:10:18Z</time>
      </trkpt>
      <trkpt lat="48.05229" lon="-3.47568">
        <ele>118.4</ele>
        <time>2025-02-26T13:10:19Z</time>
      </trkpt>
      <trkpt lat="48.05228" lon="-3.47568">
        <ele>118.4</ele>
        <time>2025-02-26T13:10:20Z</time>
      </trkpt>
      <trkpt lat="48.05229" lon="-3.47566">
        <ele>118.4</ele>
        <time>2025-02-26T13:10:21Z</time>
      </trkpt>
      <trkpt lat="48.05229" lon="-3.47566">
        <ele>118.4</ele>
        <time>2025-02-26T13:10:22Z</time>
      </trkpt>
      <trkpt lat="48.05229" lon="-3.47565">
        <ele>118.4</ele>
        <time>2025-02-26T13:10:23Z</time>
      </trkpt>
      <trkpt lat="48.05229" lon="-3.47565">
        <ele>118.4</ele>
        <time>2025-02-26T13:10:24Z</time>
      </trkpt>
      <trkpt lat="48.05229" lon="-3.47566">
        <ele>118.4</ele>
        <time>2025-02-26T13:10:25Z</time>
      </trkpt>
      <trkpt lat="48.05228" lon="-3.47567">
        <ele>118.4</ele>
        <time>2025-02-26T13:10:26Z</time>
      </trkpt>
      <trkpt lat="48.05228" lon="-3.47568">
        <ele>118.4</ele>
        <time>2025-02-26T13:10:27Z</time>
      </trkpt>
      <trkpt lat="48.05227" lon="-3.47568">
        <ele>118.3</ele>
        <time>2025-02-26T13:10:28Z</time>
      </trkpt>
      <trkpt lat="48.05226" lon="-3.47568">
        <ele>118.2</ele>
        <time>2025-02-26T13:10:29Z</time>
      </trkpt>
      <trkpt lat="48.05225" lon="-3.47568">
        <ele>118.1</ele>
        <time>2025-02-26T13:10:30Z</time>
      </trkpt>
      <trkpt lat="48.05224" lon="-3.47568">
        <ele>118.1</ele>
        <time>2025-02-26T13:10:31Z</time>
      </trkpt>
      <trkpt lat="48.05224" lon="-3.47568">
        <ele>118.1</ele>
        <time>2025-02-26T13:10:32Z</time>
      </trkpt>
      <trkpt lat="48.05224" lon="-3.47567">
        <ele>118</ele>
        <time>2025-02-26T13:10:33Z</time>
      </trkpt>
      <trkpt lat="48.05225" lon="-3.47567">
        <ele>118</ele>
        <time>2025-02-26T13:10:34Z</time>
      </trkpt>
      <trkpt lat="48.05223" lon="-3.47563">
        <ele>117.7</ele>
        <time>2025-02-26T13:10:35Z</time>
      </trkpt>
      <trkpt lat="48.05223" lon="-3.47561">
        <ele>117.4</ele>
        <time>2025-02-26T13:10:36Z</time>
      </trkpt>
      <trkpt lat="48.05223" lon="-3.47561">
        <ele>117.5</ele>
        <time>2025-02-26T13:10:37Z</time>
      </trkpt>
      <trkpt lat="48.05222" lon="-3.47561">
        <ele>117.4</ele>
        <time>2025-02-26T13:10:38Z</time>
      </trkpt>
      <trkpt lat="48.05221" lon="-3.47561">
        <ele>117.4</ele>
        <time>2025-02-26T13:10:39Z</time>
      </trkpt>
      <trkpt lat="48.0522" lon="-3.4756">
        <ele>117.3</ele>
        <time>2025-02-26T13:10:40Z</time>
      </trkpt>
      <trkpt lat="48.0522" lon="-3.47559">
        <ele>117.3</ele>
        <time>2025-02-26T13:10:41Z</time>
      </trkpt>
      <trkpt lat="48.05219" lon="-3.47558">
        <ele>117.2</ele>
        <time>2025-02-26T13:10:42Z</time>
      </trkpt>
      <trkpt lat="48.0522" lon="-3.47557">
        <ele>117.2</ele>
        <time>2025-02-26T13:10:43Z</time>
      </trkpt>
      <trkpt lat="48.05219" lon="-3.47556">
        <ele>117.1</ele>
        <time>2025-02-26T13:10:44Z</time>
      </trkpt>
      <trkpt lat="48.05219" lon="-3.47555">
        <ele>117.2</ele>
        <time>2025-02-26T13:10:45Z</time>
      </trkpt>
      <trkpt lat="48.0522" lon="-3.47555">
        <ele>117.2</ele>
        <time>2025-02-26T13:10:46Z</time>
      </trkpt>
      <trkpt lat="48.05219" lon="-3.47556">
        <ele>117.1</ele>
        <time>2025-02-26T13:10:47Z</time>
      </trkpt>
      <trkpt lat="48.05218" lon="-3.47556">
        <ele>117.2</ele>
        <time>2025-02-26T13:10:48Z</time>
      </trkpt>
      <trkpt lat="48.05218" lon="-3.47555">
        <ele>117.4</ele>
        <time>2025-02-26T13:10:49Z</time>
      </trkpt>
      <trkpt lat="48.05218" lon="-3.47555">
        <ele>117.4</ele>
        <time>2025-02-26T13:10:50Z</time>
      </trkpt>
      <trkpt lat="48.05218" lon="-3.47555">
        <ele>117.4</ele>
        <time>2025-02-26T13:10:51Z</time>
      </trkpt>
      <trkpt lat="48.05218" lon="-3.47555">
        <ele>117.4</ele>
        <time>2025-02-26T13:10:52Z</time>
      </trkpt>
      <trkpt lat="48.05218" lon="-3.47555">
        <ele>117.5</ele>
        <time>2025-02-26T13:10:53Z</time>
      </trkpt>
      <trkpt lat="48.05218" lon="-3.47554">
        <ele>117.6</ele>
        <time>2025-02-26T13:10:54Z</time>
      </trkpt>
      <trkpt lat="48.05218" lon="-3.47554">
        <ele>117.6</ele>
        <time>2025-02-26T13:10:55Z</time>
      </trkpt>
      <trkpt lat="48.05217" lon="-3.47554">
        <ele>117.7</ele>
        <time>2025-02-26T13:10:56Z</time>
      </trkpt>
      <trkpt lat="48.05217" lon="-3.47552">
        <ele>118.2</ele>
        <time>2025-02-26T13:10:57Z</time>
      </trkpt>
      <trkpt lat="48.05218" lon="-3.47553">
        <ele>117.9</ele>
        <time>2025-02-26T13:10:58Z</time>
      </trkpt>
      <trkpt lat="48.05218" lon="-3.47554">
        <ele>117.6</ele>
        <time>2025-02-26T13:10:59Z</time>
      </trkpt>
      <trkpt lat="48.05218" lon="-3.47555">
        <ele>117.2</ele>
        <time>2025-02-26T13:11:00Z</time>
      </trkpt>
      <trkpt lat="48.05218" lon="-3.47556">
        <ele>117.1</ele>
        <time>2025-02-26T13:11:01Z</time>
      </trkpt>
      <trkpt lat="48.05219" lon="-3.47556">
        <ele>117.1</ele>
        <time>2025-02-26T13:11:02Z</time>
      </trkpt>
      <trkpt lat="48.05219" lon="-3.47556">
        <ele>117.1</ele>
        <time>2025-02-26T13:11:03Z</time>
      </trkpt>
      <trkpt lat="48.05219" lon="-3.47555">
        <ele>117.2</ele>
        <time>2025-02-26T13:11:04Z</time>
      </trkpt>
      <trkpt lat="48.05219" lon="-3.47556">
        <ele>117.1</ele>
        <time>2025-02-26T13:11:05Z</time>
      </trkpt>
      <trkpt lat="48.05219" lon="-3.47556">
        <ele>117.1</ele>
        <time>2025-02-26T13:11:06Z</time>
      </trkpt>
      <trkpt lat="48.05219" lon="-3.47556">
        <ele>117.1</ele>
        <time>2025-02-26T13:11:07Z</time>
      </trkpt>
      <trkpt lat="48.05219" lon="-3.47556">
        <ele>117.1</ele>
        <time>2025-02-26T13:11:08Z</time>
      </trkpt>
      <trkpt lat="48.05219" lon="-3.47556">
        <ele>117.1</ele>
        <time>2025-02-26T13:11:09Z</time>
      </trkpt>
      <trkpt lat="48.05219" lon="-3.47556">
        <ele>117.1</ele>
        <time>2025-02-26T13:11:10Z</time>
      </trkpt>
      <trkpt lat="48.05219" lon="-3.47556">
        <ele>117.1</ele>
        <time>2025-02-26T13:11:11Z</time>
      </trkpt>
      <trkpt lat="48.05219" lon="-3.47556">
        <ele>117.1</ele>
        <time>2025-02-26T13:11:12Z</time>
      </trkpt>
      <trkpt lat="48.05219" lon="-3.47556">
        <ele>117.1</ele>
        <time>2025-02-26T13:11:13Z</time>
      </trkpt>
      <trkpt lat="48.05219" lon="-3.47556">
        <ele>117.1</ele>
        <time>2025-02-26T13:11:14Z</time>
      </trkpt>
      <trkpt lat="48.05219" lon="-3.47556">
        <ele>117.1</ele>
        <time>2025-02-26T13:11:15Z</time>
      </trkpt>
      <trkpt lat="48.05219" lon="-3.47556">
        <ele>117.1</ele>
        <time>2025-02-26T13:11:16Z</time>
      </trkpt>
      <trkpt lat="48.05219" lon="-3.47556">
        <ele>117.1</ele>
        <time>2025-02-26T13:11:17Z</time>
      </trkpt>
      <trkpt lat="48.05219" lon="-3.47556">
        <ele>117.1</ele>
        <time>2025-02-26T13:11:18Z</time>
      </trkpt>
      <trkpt lat="48.05219" lon="-3.47556">
        <ele>117.1</ele>
        <time>2025-02-26T13:11:19Z</time>
      </trkpt>
      <trkpt lat="48.05219" lon="-3.47556">
        <ele>117.1</ele>
        <time>2025-02-26T13:11:20Z</time>
      </trkpt>
      <trkpt lat="48.05219" lon="-3.47557">
        <ele>117.2</ele>
        <time>2025-02-26T13:11:21Z</time>
      </trkpt>
      <trkpt lat="48.05219" lon="-3.47557">
        <ele>117.2</ele>
        <time>2025-02-26T13:11:22Z</time>
      </trkpt>
      <trkpt lat="48.0522" lon="-3.47557">
        <ele>117.2</ele>
        <time>2025-02-26T13:11:23Z</time>
      </trkpt>
      <trkpt lat="48.0522" lon="-3.47557">
        <ele>117.2</ele>
        <time>2025-02-26T13:11:24Z</time>
      </trkpt>
      <trkpt lat="48.0522" lon="-3.47557">
        <ele>117.2</ele>
        <time>2025-02-26T13:11:25Z</time>
      </trkpt>
      <trkpt lat="48.0522" lon="-3.47557">
        <ele>117.2</ele>
        <time>2025-02-26T13:11:26Z</time>
      </trkpt>
      <trkpt lat="48.0522" lon="-3.47557">
        <ele>117.2</ele>
        <time>2025-02-26T13:11:27Z</time>
      </trkpt>
      <trkpt lat="48.0522" lon="-3.47557">
        <ele>117.2</ele>
        <time>2025-02-26T13:11:28Z</time>
      </trkpt>
      <trkpt lat="48.0522" lon="-3.47557">
        <ele>117.2</ele>
        <time>2025-02-26T13:11:29Z</time>
      </trkpt>
      <trkpt lat="48.05219" lon="-3.47557">
        <ele>117.2</ele>
        <time>2025-02-26T13:11:30Z</time>
      </trkpt>
      <trkpt lat="48.05219" lon="-3.47557">
        <ele>117.2</ele>
        <time>2025-02-26T13:11:31Z</time>
      </trkpt>
      <trkpt lat="48.05219" lon="-3.47557">
        <ele>117.2</ele>
        <time>2025-02-26T13:11:32Z</time>
      </trkpt>
      <trkpt lat="48.05219" lon="-3.47557">
        <ele>117.2</ele>
        <time>2025-02-26T13:11:33Z</time>
      </trkpt>
      <trkpt lat="48.0522" lon="-3.47558">
        <ele>117.2</ele>
        <time>2025-02-26T13:11:34Z</time>
      </trkpt>
      <trkpt lat="48.0522" lon="-3.47558">
        <ele>117.2</ele>
        <time>2025-02-26T13:11:35Z</time>
      </trkpt>
      <trkpt lat="48.0522" lon="-3.47559">
        <ele>117.3</ele>
        <time>2025-02-26T13:11:36Z</time>
      </trkpt>
      <trkpt lat="48.05221" lon="-3.47559">
        <ele>117.3</ele>
        <time>2025-02-26T13:11:37Z</time>
      </trkpt>
      <trkpt lat="48.05221" lon="-3.4756">
        <ele>117.3</ele>
        <time>2025-02-26T13:11:38Z</time>
      </trkpt>
      <trkpt lat="48.05221" lon="-3.4756">
        <ele>117.3</ele>
        <time>2025-02-26T13:11:39Z</time>
      </trkpt>
      <trkpt lat="48.05221" lon="-3.47561">
        <ele>117.4</ele>
        <time>2025-02-26T13:11:40Z</time>
      </trkpt>
      <trkpt lat="48.05221" lon="-3.47561">
        <ele>117.4</ele>
        <time>2025-02-26T13:11:41Z</time>
      </trkpt>
      <trkpt lat="48.05221" lon="-3.47561">
        <ele>117.4</ele>
        <time>2025-02-26T13:11:42Z</time>
      </trkpt>
      <trkpt lat="48.05221" lon="-3.47561">
        <ele>117.4</ele>
        <time>2025-02-26T13:11:43Z</time>
      </trkpt>
      <trkpt lat="48.05221" lon="-3.47561">
        <ele>117.4</ele>
        <time>2025-02-26T13:11:44Z</time>
      </trkpt>
      <trkpt lat="48.05221" lon="-3.47561">
        <ele>117.4</ele>
        <time>2025-02-26T13:11:45Z</time>
      </trkpt>
      <trkpt lat="48.05221" lon="-3.47561">
        <ele>117.4</ele>
        <time>2025-02-26T13:11:46Z</time>
      </trkpt>
      <trkpt lat="48.05221" lon="-3.47561">
        <ele>117.4</ele>
        <time>2025-02-26T13:11:47Z</time>
      </trkpt>
      <trkpt lat="48.05221" lon="-3.47561">
        <ele>117.4</ele>
        <time>2025-02-26T13:11:48Z</time>
      </trkpt>
      <trkpt lat="48.05221" lon="-3.47561">
        <ele>117.4</ele>
        <time>2025-02-26T13:11:49Z</time>
      </trkpt>
      <trkpt lat="48.05221" lon="-3.47561">
        <ele>117.4</ele>
        <time>2025-02-26T13:11:50Z</time>
      </trkpt>
      <trkpt lat="48.05221" lon="-3.47561">
        <ele>117.4</ele>
        <time>2025-02-26T13:11:51Z</time>
      </trkpt>
      <trkpt lat="48.05221" lon="-3.47561">
        <ele>117.4</ele>
        <time>2025-02-26T13:11:52Z</time>
      </trkpt>
      <trkpt lat="48.05221" lon="-3.47561">
        <ele>117.4</ele>
        <time>2025-02-26T13:11:53Z</time>
      </trkpt>
      <trkpt lat="48.05221" lon="-3.47561">
        <ele>117.4</ele>
        <time>2025-02-26T13:11:54Z</time>
      </trkpt>
      <trkpt lat="48.05221" lon="-3.47561">
        <ele>117.4</ele>
        <time>2025-02-26T13:11:55Z</time>
      </trkpt>
      <trkpt lat="48.05221" lon="-3.47561">
        <ele>117.4</ele>
        <time>2025-02-26T13:11:56Z</time>
      </trkpt>
      <trkpt lat="48.05221" lon="-3.47561">
        <ele>117.4</ele>
        <time>2025-02-26T13:11:57Z</time>
      </trkpt>
      <trkpt lat="48.05221" lon="-3.47561">
        <ele>117.4</ele>
        <time>2025-02-26T13:11:58Z</time>
      </trkpt>
      <trkpt lat="48.05221" lon="-3.4756">
        <ele>117.3</ele>
        <time>2025-02-26T13:11:59Z</time>
      </trkpt>
      <trkpt lat="48.05221" lon="-3.4756">
        <ele>117.3</ele>
        <time>2025-02-26T13:12:00Z</time>
      </trkpt>
      <trkpt lat="48.0522" lon="-3.4756">
        <ele>117.3</ele>
        <time>2025-02-26T13:12:01Z</time>
      </trkpt>
      <trkpt lat="48.0522" lon="-3.4756">
        <ele>117.3</ele>
        <time>2025-02-26T13:12:02Z</time>
      </trkpt>
      <trkpt lat="48.0522" lon="-3.4756">
        <ele>117.3</ele>
        <time>2025-02-26T13:12:03Z</time>
      </trkpt>
      <trkpt lat="48.0522" lon="-3.4756">
        <ele>117.3</ele>
        <time>2025-02-26T13:12:04Z</time>
      </trkpt>
      <trkpt lat="48.0522" lon="-3.4756">
        <ele>117.3</ele>
        <time>2025-02-26T13:12:05Z</time>
      </trkpt>
      <trkpt lat="48.0522" lon="-3.47559">
        <ele>117.3</ele>
        <time>2025-02-26T13:12:06Z</time>
      </trkpt>
      <trkpt lat="48.0522" lon="-3.4756">
        <ele>117.3</ele>
        <time>2025-02-26T13:12:07Z</time>
      </trkpt>
      <trkpt lat="48.0522" lon="-3.4756">
        <ele>117.3</ele>
        <time>2025-02-26T13:12:08Z</time>
      </trkpt>
      <trkpt lat="48.0522" lon="-3.4756">
        <ele>117.3</ele>
        <time>2025-02-26T13:12:09Z</time>
      </trkpt>
      <trkpt lat="48.0522" lon="-3.4756">
        <ele>117.3</ele>
        <time>2025-02-26T13:12:10Z</time>
      </trkpt>
      <trkpt lat="48.0522" lon="-3.4756">
        <ele>117.3</ele>
        <time>2025-02-26T13:12:11Z</time>
      </trkpt>
      <trkpt lat="48.0522" lon="-3.4756">
        <ele>117.3</ele>
        <time>2025-02-26T13:12:12Z</time>
      </trkpt>
      <trkpt lat="48.0522" lon="-3.4756">
        <ele>117.3</ele>
        <time>2025-02-26T13:12:13Z</time>
      </trkpt>
      <trkpt lat="48.0522" lon="-3.4756">
        <ele>117.3</ele>
        <time>2025-02-26T13:12:14Z</time>
      </trkpt>
      <trkpt lat="48.0522" lon="-3.47559">
        <ele>117.3</ele>
        <time>2025-02-26T13:12:15Z</time>
      </trkpt>
      <trkpt lat="48.0522" lon="-3.47559">
        <ele>117.3</ele>
        <time>2025-02-26T13:12:16Z</time>
      </trkpt>
      <trkpt lat="48.0522" lon="-3.47559">
        <ele>117.3</ele>
        <time>2025-02-26T13:12:17Z</time>
      </trkpt>
      <trkpt lat="48.0522" lon="-3.4756">
        <ele>117.4</ele>
        <time>2025-02-26T13:12:18Z</time>
      </trkpt>
      <trkpt lat="48.0522" lon="-3.47561">
        <ele>117.4</ele>
        <time>2025-02-26T13:12:19Z</time>
      </trkpt>
      <trkpt lat="48.0522" lon="-3.47561">
        <ele>117.4</ele>
        <time>2025-02-26T13:12:20Z</time>
      </trkpt>
      <trkpt lat="48.0522" lon="-3.47561">
        <ele>117.4</ele>
        <time>2025-02-26T13:12:21Z</time>
      </trkpt>
      <trkpt lat="48.05219" lon="-3.47561">
        <ele>117.4</ele>
        <time>2025-02-26T13:12:22Z</time>
      </trkpt>
      <trkpt lat="48.05219" lon="-3.47561">
        <ele>117.4</ele>
        <time>2025-02-26T13:12:23Z</time>
      </trkpt>
      <trkpt lat="48.05219" lon="-3.47561">
        <ele>117.4</ele>
        <time>2025-02-26T13:12:24Z</time>
      </trkpt>
      <trkpt lat="48.05219" lon="-3.47562">
        <ele>117.4</ele>
        <time>2025-02-26T13:12:25Z</time>
      </trkpt>
      <trkpt lat="48.05219" lon="-3.47562">
        <ele>117.4</ele>
        <time>2025-02-26T13:12:26Z</time>
      </trkpt>
      <trkpt lat="48.05219" lon="-3.47562">
        <ele>117.5</ele>
        <time>2025-02-26T13:12:27Z</time>
      </trkpt>
      <trkpt lat="48.05219" lon="-3.47563">
        <ele>117.5</ele>
        <time>2025-02-26T13:12:28Z</time>
      </trkpt>
      <trkpt lat="48.05219" lon="-3.47563">
        <ele>117.5</ele>
        <time>2025-02-26T13:12:29Z</time>
      </trkpt>
      <trkpt lat="48.05219" lon="-3.47563">
        <ele>117.5</ele>
        <time>2025-02-26T13:12:30Z</time>
      </trkpt>
      <trkpt lat="48.05219" lon="-3.47562">
        <ele>117.5</ele>
        <time>2025-02-26T13:12:31Z</time>
      </trkpt>
      <trkpt lat="48.05218" lon="-3.47562">
        <ele>117.4</ele>
        <time>2025-02-26T13:12:32Z</time>
      </trkpt>
      <trkpt lat="48.05218" lon="-3.47563">
        <ele>117.5</ele>
        <time>2025-02-26T13:12:33Z</time>
      </trkpt>
      <trkpt lat="48.05218" lon="-3.47563">
        <ele>117.5</ele>
        <time>2025-02-26T13:12:34Z</time>
      </trkpt>
      <trkpt lat="48.05217" lon="-3.47564">
        <ele>117.5</ele>
        <time>2025-02-26T13:12:35Z</time>
      </trkpt>
      <trkpt lat="48.05216" lon="-3.47564">
        <ele>117.5</ele>
        <time>2025-02-26T13:12:36Z</time>
      </trkpt>
      <trkpt lat="48.05214" lon="-3.47564">
        <ele>117.5</ele>
        <time>2025-02-26T13:12:37Z</time>
      </trkpt>
      <trkpt lat="48.05213" lon="-3.47564">
        <ele>117.4</ele>
        <time>2025-02-26T13:12:38Z</time>
      </trkpt>
      <trkpt lat="48.05212" lon="-3.47565">
        <ele>117.4</ele>
        <time>2025-02-26T13:12:39Z</time>
      </trkpt>
      <trkpt lat="48.05211" lon="-3.47566">
        <ele>117.4</ele>
        <time>2025-02-26T13:12:40Z</time>
      </trkpt>
      <trkpt lat="48.05211" lon="-3.47567">
        <ele>117.4</ele>
        <time>2025-02-26T13:12:41Z</time>
      </trkpt>
      <trkpt lat="48.05209" lon="-3.47567">
        <ele>117.3</ele>
        <time>2025-02-26T13:12:42Z</time>
      </trkpt>
      <trkpt lat="48.05208" lon="-3.47567">
        <ele>117.3</ele>
        <time>2025-02-26T13:12:43Z</time>
      </trkpt>
      <trkpt lat="48.05208" lon="-3.47566">
        <ele>117.3</ele>
        <time>2025-02-26T13:12:44Z</time>
      </trkpt>
      <trkpt lat="48.05208" lon="-3.47566">
        <ele>117.3</ele>
        <time>2025-02-26T13:12:45Z</time>
      </trkpt>
      <trkpt lat="48.05207" lon="-3.47566">
        <ele>117.3</ele>
        <time>2025-02-26T13:12:46Z</time>
      </trkpt>
      <trkpt lat="48.05206" lon="-3.47565">
        <ele>117.3</ele>
        <time>2025-02-26T13:12:47Z</time>
      </trkpt>
      <trkpt lat="48.05207" lon="-3.47565">
        <ele>117.3</ele>
        <time>2025-02-26T13:12:48Z</time>
      </trkpt>
      <trkpt lat="48.05207" lon="-3.47565">
        <ele>117.3</ele>
        <time>2025-02-26T13:12:49Z</time>
      </trkpt>
      <trkpt lat="48.05206" lon="-3.47564">
        <ele>117.3</ele>
        <time>2025-02-26T13:12:50Z</time>
      </trkpt>
      <trkpt lat="48.05205" lon="-3.47565">
        <ele>117.2</ele>
        <time>2025-02-26T13:12:51Z</time>
      </trkpt>
      <trkpt lat="48.05204" lon="-3.47566">
        <ele>117.2</ele>
        <time>2025-02-26T13:12:52Z</time>
      </trkpt>
      <trkpt lat="48.05204" lon="-3.47567">
        <ele>117.1</ele>
        <time>2025-02-26T13:12:53Z</time>
      </trkpt>
      <trkpt lat="48.05203" lon="-3.47567">
        <ele>117.1</ele>
        <time>2025-02-26T13:12:54Z</time>
      </trkpt>
      <trkpt lat="48.05202" lon="-3.47568">
        <ele>117</ele>
        <time>2025-02-26T13:12:55Z</time>
      </trkpt>
      <trkpt lat="48.05201" lon="-3.47569">
        <ele>116.9</ele>
        <time>2025-02-26T13:12:56Z</time>
      </trkpt>
      <trkpt lat="48.052" lon="-3.47569">
        <ele>116.8</ele>
        <time>2025-02-26T13:12:57Z</time>
      </trkpt>
      <trkpt lat="48.05199" lon="-3.4757">
        <ele>116.7</ele>
        <time>2025-02-26T13:12:58Z</time>
      </trkpt>
      <trkpt lat="48.05198" lon="-3.47571">
        <ele>116.6</ele>
        <time>2025-02-26T13:12:59Z</time>
      </trkpt>
      <trkpt lat="48.05197" lon="-3.47571">
        <ele>116.5</ele>
        <time>2025-02-26T13:13:00Z</time>
      </trkpt>
      <trkpt lat="48.05196" lon="-3.47571">
        <ele>116.4</ele>
        <time>2025-02-26T13:13:01Z</time>
      </trkpt>
      <trkpt lat="48.05196" lon="-3.47571">
        <ele>116.4</ele>
        <time>2025-02-26T13:13:02Z</time>
      </trkpt>
      <trkpt lat="48.05195" lon="-3.47572">
        <ele>116.3</ele>
        <time>2025-02-26T13:13:03Z</time>
      </trkpt>
      <trkpt lat="48.05194" lon="-3.47572">
        <ele>116.3</ele>
        <time>2025-02-26T13:13:04Z</time>
      </trkpt>
      <trkpt lat="48.05193" lon="-3.47572">
        <ele>116.4</ele>
        <time>2025-02-26T13:13:05Z</time>
      </trkpt>
      <trkpt lat="48.05193" lon="-3.47572">
        <ele>116.4</ele>
        <time>2025-02-26T13:13:06Z</time>
      </trkpt>
      <trkpt lat="48.05192" lon="-3.47573">
        <ele>116.3</ele>
        <time>2025-02-26T13:13:07Z</time>
      </trkpt>
      <trkpt lat="48.05191" lon="-3.47574">
        <ele>116.3</ele>
        <time>2025-02-26T13:13:08Z</time>
      </trkpt>
      <trkpt lat="48.05191" lon="-3.47575">
        <ele>116.3</ele>
        <time>2025-02-26T13:13:09Z</time>
      </trkpt>
      <trkpt lat="48.0519" lon="-3.47576">
        <ele>116.3</ele>
        <time>2025-02-26T13:13:10Z</time>
      </trkpt>
      <trkpt lat="48.0519" lon="-3.47577">
        <ele>116.2</ele>
        <time>2025-02-26T13:13:11Z</time>
      </trkpt>
      <trkpt lat="48.05189" lon="-3.47577">
        <ele>116.2</ele>
        <time>2025-02-26T13:13:12Z</time>
      </trkpt>
      <trkpt lat="48.05189" lon="-3.47578">
        <ele>116.1</ele>
        <time>2025-02-26T13:13:13Z</time>
      </trkpt>
      <trkpt lat="48.05188" lon="-3.47578">
        <ele>116.1</ele>
        <time>2025-02-26T13:13:14Z</time>
      </trkpt>
      <trkpt lat="48.05188" lon="-3.47579">
        <ele>116.1</ele>
        <time>2025-02-26T13:13:15Z</time>
      </trkpt>
      <trkpt lat="48.05187" lon="-3.47579">
        <ele>116.1</ele>
        <time>2025-02-26T13:13:16Z</time>
      </trkpt>
      <trkpt lat="48.05186" lon="-3.47579">
        <ele>116.1</ele>
        <time>2025-02-26T13:13:17Z</time>
      </trkpt>
      <trkpt lat="48.05185" lon="-3.47579">
        <ele>116.2</ele>
        <time>2025-02-26T13:13:18Z</time>
      </trkpt>
      <trkpt lat="48.05185" lon="-3.4758">
        <ele>116.2</ele>
        <time>2025-02-26T13:13:19Z</time>
      </trkpt>
      <trkpt lat="48.05184" lon="-3.4758">
        <ele>116.2</ele>
        <time>2025-02-26T13:13:20Z</time>
      </trkpt>
      <trkpt lat="48.05183" lon="-3.47581">
        <ele>116.2</ele>
        <time>2025-02-26T13:13:21Z</time>
      </trkpt>
      <trkpt lat="48.05183" lon="-3.47582">
        <ele>116</ele>
        <time>2025-02-26T13:13:22Z</time>
      </trkpt>
      <trkpt lat="48.05182" lon="-3.47584">
        <ele>115.9</ele>
        <time>2025-02-26T13:13:23Z</time>
      </trkpt>
      <trkpt lat="48.05182" lon="-3.47586">
        <ele>116.1</ele>
        <time>2025-02-26T13:13:24Z</time>
      </trkpt>
      <trkpt lat="48.05182" lon="-3.47587">
        <ele>116.2</ele>
        <time>2025-02-26T13:13:25Z</time>
      </trkpt>
      <trkpt lat="48.05181" lon="-3.47589">
        <ele>116.3</ele>
        <time>2025-02-26T13:13:26Z</time>
      </trkpt>
      <trkpt lat="48.05181" lon="-3.47591">
        <ele>116.4</ele>
        <time>2025-02-26T13:13:27Z</time>
      </trkpt>
      <trkpt lat="48.05181" lon="-3.47592">
        <ele>116.5</ele>
        <time>2025-02-26T13:13:28Z</time>
      </trkpt>
      <trkpt lat="48.0518" lon="-3.47593">
        <ele>116.5</ele>
        <time>2025-02-26T13:13:29Z</time>
      </trkpt>
      <trkpt lat="48.0518" lon="-3.47594">
        <ele>116.6</ele>
        <time>2025-02-26T13:13:30Z</time>
      </trkpt>
      <trkpt lat="48.05179" lon="-3.47596">
        <ele>116.6</ele>
        <time>2025-02-26T13:13:31Z</time>
      </trkpt>
      <trkpt lat="48.05178" lon="-3.47597">
        <ele>116.6</ele>
        <time>2025-02-26T13:13:32Z</time>
      </trkpt>
      <trkpt lat="48.05177" lon="-3.47597">
        <ele>116.6</ele>
        <time>2025-02-26T13:13:33Z</time>
      </trkpt>
      <trkpt lat="48.05177" lon="-3.476">
        <ele>116.6</ele>
        <time>2025-02-26T13:13:34Z</time>
      </trkpt>
      <trkpt lat="48.05176" lon="-3.47601">
        <ele>116.5</ele>
        <time>2025-02-26T13:13:35Z</time>
      </trkpt>
      <trkpt lat="48.05176" lon="-3.47602">
        <ele>116.6</ele>
        <time>2025-02-26T13:13:36Z</time>
      </trkpt>
      <trkpt lat="48.05176" lon="-3.47602">
        <ele>116.6</ele>
        <time>2025-02-26T13:13:37Z</time>
      </trkpt>
      <trkpt lat="48.05176" lon="-3.47602">
        <ele>116.5</ele>
        <time>2025-02-26T13:13:38Z</time>
      </trkpt>
      <trkpt lat="48.05175" lon="-3.47602">
        <ele>116.5</ele>
        <time>2025-02-26T13:13:39Z</time>
      </trkpt>
      <trkpt lat="48.05175" lon="-3.47601">
        <ele>116.4</ele>
        <time>2025-02-26T13:13:40Z</time>
      </trkpt>
      <trkpt lat="48.05175" lon="-3.47601">
        <ele>116.4</ele>
        <time>2025-02-26T13:13:41Z</time>
      </trkpt>
      <trkpt lat="48.05175" lon="-3.47601">
        <ele>116.4</ele>
        <time>2025-02-26T13:13:42Z</time>
      </trkpt>
      <trkpt lat="48.05174" lon="-3.47601">
        <ele>116.4</ele>
        <time>2025-02-26T13:13:43Z</time>
      </trkpt>
      <trkpt lat="48.05173" lon="-3.47602">
        <ele>116.3</ele>
        <time>2025-02-26T13:13:44Z</time>
      </trkpt>
      <trkpt lat="48.05173" lon="-3.47602">
        <ele>116.2</ele>
        <time>2025-02-26T13:13:45Z</time>
      </trkpt>
      <trkpt lat="48.05172" lon="-3.47602">
        <ele>116.1</ele>
        <time>2025-02-26T13:13:46Z</time>
      </trkpt>
      <trkpt lat="48.05171" lon="-3.47604">
        <ele>116.1</ele>
        <time>2025-02-26T13:13:47Z</time>
      </trkpt>
      <trkpt lat="48.05172" lon="-3.47605">
        <ele>116.1</ele>
        <time>2025-02-26T13:13:48Z</time>
      </trkpt>
      <trkpt lat="48.05172" lon="-3.47606">
        <ele>116</ele>
        <time>2025-02-26T13:13:49Z</time>
      </trkpt>
      <trkpt lat="48.05172" lon="-3.47607">
        <ele>116</ele>
        <time>2025-02-26T13:13:50Z</time>
      </trkpt>
      <trkpt lat="48.05171" lon="-3.47608">
        <ele>115.9</ele>
        <time>2025-02-26T13:13:51Z</time>
      </trkpt>
      <trkpt lat="48.05171" lon="-3.47609">
        <ele>115.9</ele>
        <time>2025-02-26T13:13:52Z</time>
      </trkpt>
      <trkpt lat="48.05171" lon="-3.4761">
        <ele>115.8</ele>
        <time>2025-02-26T13:13:53Z</time>
      </trkpt>
      <trkpt lat="48.05171" lon="-3.47611">
        <ele>115.7</ele>
        <time>2025-02-26T13:13:54Z</time>
      </trkpt>
      <trkpt lat="48.0517" lon="-3.47611">
        <ele>115.7</ele>
        <time>2025-02-26T13:13:55Z</time>
      </trkpt>
      <trkpt lat="48.0517" lon="-3.47612">
        <ele>115.7</ele>
        <time>2025-02-26T13:13:56Z</time>
      </trkpt>
      <trkpt lat="48.05169" lon="-3.47613">
        <ele>115.7</ele>
        <time>2025-02-26T13:13:57Z</time>
      </trkpt>
      <trkpt lat="48.05169" lon="-3.47614">
        <ele>115.6</ele>
        <time>2025-02-26T13:13:58Z</time>
      </trkpt>
      <trkpt lat="48.05169" lon="-3.47615">
        <ele>115.7</ele>
        <time>2025-02-26T13:13:59Z</time>
      </trkpt>
      <trkpt lat="48.05168" lon="-3.47617">
        <ele>115.6</ele>
        <time>2025-02-26T13:14:00Z</time>
      </trkpt>
      <trkpt lat="48.05166" lon="-3.47616">
        <ele>115.4</ele>
        <time>2025-02-26T13:14:01Z</time>
      </trkpt>
      <trkpt lat="48.05165" lon="-3.47616">
        <ele>115.4</ele>
        <time>2025-02-26T13:14:02Z</time>
      </trkpt>
      <trkpt lat="48.05165" lon="-3.47615">
        <ele>115.4</ele>
        <time>2025-02-26T13:14:03Z</time>
      </trkpt>
      <trkpt lat="48.05164" lon="-3.47615">
        <ele>115.4</ele>
        <time>2025-02-26T13:14:04Z</time>
      </trkpt>
      <trkpt lat="48.05163" lon="-3.47615">
        <ele>115.5</ele>
        <time>2025-02-26T13:14:05Z</time>
      </trkpt>
      <trkpt lat="48.05162" lon="-3.47616">
        <ele>115.5</ele>
        <time>2025-02-26T13:14:06Z</time>
      </trkpt>
      <trkpt lat="48.05161" lon="-3.47616">
        <ele>115.6</ele>
        <time>2025-02-26T13:14:07Z</time>
      </trkpt>
      <trkpt lat="48.05161" lon="-3.47614">
        <ele>115.5</ele>
        <time>2025-02-26T13:14:08Z</time>
      </trkpt>
      <trkpt lat="48.0516" lon="-3.47612">
        <ele>115.5</ele>
        <time>2025-02-26T13:14:09Z</time>
      </trkpt>
      <trkpt lat="48.05159" lon="-3.47611">
        <ele>115.5</ele>
        <time>2025-02-26T13:14:10Z</time>
      </trkpt>
      <trkpt lat="48.05159" lon="-3.4761">
        <ele>115.7</ele>
        <time>2025-02-26T13:14:11Z</time>
      </trkpt>
      <trkpt lat="48.05159" lon="-3.47608">
        <ele>115.8</ele>
        <time>2025-02-26T13:14:12Z</time>
      </trkpt>
      <trkpt lat="48.05159" lon="-3.47608">
        <ele>115.9</ele>
        <time>2025-02-26T13:14:13Z</time>
      </trkpt>
      <trkpt lat="48.05159" lon="-3.47607">
        <ele>115.9</ele>
        <time>2025-02-26T13:14:14Z</time>
      </trkpt>
      <trkpt lat="48.05159" lon="-3.47607">
        <ele>115.9</ele>
        <time>2025-02-26T13:14:15Z</time>
      </trkpt>
      <trkpt lat="48.05159" lon="-3.47607">
        <ele>115.9</ele>
        <time>2025-02-26T13:14:16Z</time>
      </trkpt>
      <trkpt lat="48.05159" lon="-3.47608">
        <ele>115.8</ele>
        <time>2025-02-26T13:14:17Z</time>
      </trkpt>
      <trkpt lat="48.05159" lon="-3.47608">
        <ele>115.8</ele>
        <time>2025-02-26T13:14:18Z</time>
      </trkpt>
      <trkpt lat="48.05159" lon="-3.47609">
        <ele>115.8</ele>
        <time>2025-02-26T13:14:19Z</time>
      </trkpt>
      <trkpt lat="48.05158" lon="-3.47609">
        <ele>115.8</ele>
        <time>2025-02-26T13:14:20Z</time>
      </trkpt>
      <trkpt lat="48.05158" lon="-3.47609">
        <ele>115.8</ele>
        <time>2025-02-26T13:14:21Z</time>
      </trkpt>
      <trkpt lat="48.05158" lon="-3.47609">
        <ele>115.8</ele>
        <time>2025-02-26T13:14:22Z</time>
      </trkpt>
      <trkpt lat="48.05158" lon="-3.47609">
        <ele>115.8</ele>
        <time>2025-02-26T13:14:23Z</time>
      </trkpt>
      <trkpt lat="48.05158" lon="-3.4761">
        <ele>115.7</ele>
        <time>2025-02-26T13:14:24Z</time>
      </trkpt>
      <trkpt lat="48.05158" lon="-3.4761">
        <ele>115.8</ele>
        <time>2025-02-26T13:14:25Z</time>
      </trkpt>
      <trkpt lat="48.05158" lon="-3.47609">
        <ele>115.8</ele>
        <time>2025-02-26T13:14:26Z</time>
      </trkpt>
      <trkpt lat="48.0516" lon="-3.47609">
        <ele>115.7</ele>
        <time>2025-02-26T13:14:27Z</time>
      </trkpt>
      <trkpt lat="48.0516" lon="-3.47608">
        <ele>115.7</ele>
        <time>2025-02-26T13:14:28Z</time>
      </trkpt>
      <trkpt lat="48.05161" lon="-3.47608">
        <ele>115.7</ele>
        <time>2025-02-26T13:14:29Z</time>
      </trkpt>
      <trkpt lat="48.05161" lon="-3.47608">
        <ele>115.7</ele>
        <time>2025-02-26T13:14:30Z</time>
      </trkpt>
      <trkpt lat="48.05161" lon="-3.47608">
        <ele>115.7</ele>
        <time>2025-02-26T13:14:31Z</time>
      </trkpt>
      <trkpt lat="48.05161" lon="-3.47608">
        <ele>115.7</ele>
        <time>2025-02-26T13:14:32Z</time>
      </trkpt>
      <trkpt lat="48.05162" lon="-3.47608">
        <ele>115.6</ele>
        <time>2025-02-26T13:14:33Z</time>
      </trkpt>
      <trkpt lat="48.05162" lon="-3.47608">
        <ele>115.5</ele>
        <time>2025-02-26T13:14:34Z</time>
      </trkpt>
      <trkpt lat="48.05163" lon="-3.47609">
        <ele>115.5</ele>
        <time>2025-02-26T13:14:35Z</time>
      </trkpt>
      <trkpt lat="48.05162" lon="-3.47609">
        <ele>115.5</ele>
        <time>2025-02-26T13:14:36Z</time>
      </trkpt>
      <trkpt lat="48.05162" lon="-3.47609">
        <ele>115.5</ele>
        <time>2025-02-26T13:14:37Z</time>
      </trkpt>
      <trkpt lat="48.05162" lon="-3.47609">
        <ele>115.5</ele>
        <time>2025-02-26T13:14:38Z</time>
      </trkpt>
      <trkpt lat="48.05162" lon="-3.47609">
        <ele>115.5</ele>
        <time>2025-02-26T13:14:39Z</time>
      </trkpt>
      <trkpt lat="48.05162" lon="-3.47609">
        <ele>115.5</ele>
        <time>2025-02-26T13:14:40Z</time>
      </trkpt>
      <trkpt lat="48.05162" lon="-3.47609">
        <ele>115.5</ele>
        <time>2025-02-26T13:14:41Z</time>
      </trkpt>
      <trkpt lat="48.05162" lon="-3.47609">
        <ele>115.5</ele>
        <time>2025-02-26T13:14:42Z</time>
      </trkpt>
      <trkpt lat="48.05162" lon="-3.47609">
        <ele>115.5</ele>
        <time>2025-02-26T13:14:43Z</time>
      </trkpt>
      <trkpt lat="48.05162" lon="-3.47609">
        <ele>115.5</ele>
        <time>2025-02-26T13:14:44Z</time>
      </trkpt>
      <trkpt lat="48.05162" lon="-3.47609">
        <ele>115.5</ele>
        <time>2025-02-26T13:14:45Z</time>
      </trkpt>
      <trkpt lat="48.05162" lon="-3.47609">
        <ele>115.5</ele>
        <time>2025-02-26T13:14:46Z</time>
      </trkpt>
      <trkpt lat="48.05162" lon="-3.47609">
        <ele>115.5</ele>
        <time>2025-02-26T13:14:47Z</time>
      </trkpt>
      <trkpt lat="48.05162" lon="-3.47609">
        <ele>115.5</ele>
        <time>2025-02-26T13:14:48Z</time>
      </trkpt>
      <trkpt lat="48.05163" lon="-3.47609">
        <ele>115.5</ele>
        <time>2025-02-26T13:14:49Z</time>
      </trkpt>
      <trkpt lat="48.05163" lon="-3.47609">
        <ele>115.4</ele>
        <time>2025-02-26T13:14:50Z</time>
      </trkpt>
      <trkpt lat="48.05163" lon="-3.47608">
        <ele>115.5</ele>
        <time>2025-02-26T13:14:51Z</time>
      </trkpt>
      <trkpt lat="48.05162" lon="-3.47607">
        <ele>115.6</ele>
        <time>2025-02-26T13:14:52Z</time>
      </trkpt>
      <trkpt lat="48.05162" lon="-3.47607">
        <ele>115.7</ele>
        <time>2025-02-26T13:14:53Z</time>
      </trkpt>
      <trkpt lat="48.05162" lon="-3.47606">
        <ele>115.7</ele>
        <time>2025-02-26T13:14:54Z</time>
      </trkpt>
      <trkpt lat="48.05162" lon="-3.47606">
        <ele>115.8</ele>
        <time>2025-02-26T13:14:55Z</time>
      </trkpt>
      <trkpt lat="48.05162" lon="-3.47607">
        <ele>115.7</ele>
        <time>2025-02-26T13:14:56Z</time>
      </trkpt>
      <trkpt lat="48.05162" lon="-3.47608">
        <ele>115.6</ele>
        <time>2025-02-26T13:14:57Z</time>
      </trkpt>
      <trkpt lat="48.05163" lon="-3.47609">
        <ele>115.4</ele>
        <time>2025-02-26T13:14:58Z</time>
      </trkpt>
      <trkpt lat="48.05162" lon="-3.47611">
        <ele>115.4</ele>
        <time>2025-02-26T13:14:59Z</time>
      </trkpt>
      <trkpt lat="48.05162" lon="-3.47611">
        <ele>115.4</ele>
        <time>2025-02-26T13:15:00Z</time>
      </trkpt>
      <trkpt lat="48.05162" lon="-3.47611">
        <ele>115.4</ele>
        <time>2025-02-26T13:15:01Z</time>
      </trkpt>
      <trkpt lat="48.05161" lon="-3.47612">
        <ele>115.4</ele>
        <time>2025-02-26T13:15:02Z</time>
      </trkpt>
      <trkpt lat="48.0516" lon="-3.47612">
        <ele>115.5</ele>
        <time>2025-02-26T13:15:03Z</time>
      </trkpt>
      <trkpt lat="48.0516" lon="-3.47613">
        <ele>115.6</ele>
        <time>2025-02-26T13:15:04Z</time>
      </trkpt>
      <trkpt lat="48.0516" lon="-3.47613">
        <ele>115.6</ele>
        <time>2025-02-26T13:15:05Z</time>
      </trkpt>
      <trkpt lat="48.0516" lon="-3.47614">
        <ele>115.6</ele>
        <time>2025-02-26T13:15:06Z</time>
      </trkpt>
      <trkpt lat="48.0516" lon="-3.47614">
        <ele>115.6</ele>
        <time>2025-02-26T13:15:07Z</time>
      </trkpt>
      <trkpt lat="48.0516" lon="-3.47614">
        <ele>115.6</ele>
        <time>2025-02-26T13:15:08Z</time>
      </trkpt>
      <trkpt lat="48.0516" lon="-3.47614">
        <ele>115.6</ele>
        <time>2025-02-26T13:15:09Z</time>
      </trkpt>
      <trkpt lat="48.0516" lon="-3.47614">
        <ele>115.6</ele>
        <time>2025-02-26T13:15:10Z</time>
      </trkpt>
      <trkpt lat="48.0516" lon="-3.47614">
        <ele>115.6</ele>
        <time>2025-02-26T13:15:11Z</time>
      </trkpt>
      <trkpt lat="48.0516" lon="-3.47614">
        <ele>115.6</ele>
        <time>2025-02-26T13:15:12Z</time>
      </trkpt>
      <trkpt lat="48.0516" lon="-3.47614">
        <ele>115.6</ele>
        <time>2025-02-26T13:15:13Z</time>
      </trkpt>
      <trkpt lat="48.0516" lon="-3.47613">
        <ele>115.6</ele>
        <time>2025-02-26T13:15:14Z</time>
      </trkpt>
      <trkpt lat="48.0516" lon="-3.47613">
        <ele>115.6</ele>
        <time>2025-02-26T13:15:15Z</time>
      </trkpt>
      <trkpt lat="48.0516" lon="-3.47613">
        <ele>115.6</ele>
        <time>2025-02-26T13:15:16Z</time>
      </trkpt>
      <trkpt lat="48.0516" lon="-3.47614">
        <ele>115.6</ele>
        <time>2025-02-26T13:15:17Z</time>
      </trkpt>
      <trkpt lat="48.0516" lon="-3.47613">
        <ele>115.6</ele>
        <time>2025-02-26T13:15:18Z</time>
      </trkpt>
      <trkpt lat="48.0516" lon="-3.47613">
        <ele>115.6</ele>
        <time>2025-02-26T13:15:19Z</time>
      </trkpt>
      <trkpt lat="48.0516" lon="-3.47613">
        <ele>115.6</ele>
        <time>2025-02-26T13:15:20Z</time>
      </trkpt>
      <trkpt lat="48.0516" lon="-3.47613">
        <ele>115.6</ele>
        <time>2025-02-26T13:15:21Z</time>
      </trkpt>
      <trkpt lat="48.0516" lon="-3.47613">
        <ele>115.6</ele>
        <time>2025-02-26T13:15:22Z</time>
      </trkpt>
      <trkpt lat="48.0516" lon="-3.47613">
        <ele>115.6</ele>
        <time>2025-02-26T13:15:23Z</time>
      </trkpt>
      <trkpt lat="48.0516" lon="-3.47613">
        <ele>115.6</ele>
        <time>2025-02-26T13:15:24Z</time>
      </trkpt>
      <trkpt lat="48.0516" lon="-3.47613">
        <ele>115.6</ele>
        <time>2025-02-26T13:15:25Z</time>
      </trkpt>
      <trkpt lat="48.0516" lon="-3.47613">
        <ele>115.6</ele>
        <time>2025-02-26T13:15:26Z</time>
      </trkpt>
      <trkpt lat="48.0516" lon="-3.47613">
        <ele>115.6</ele>
        <time>2025-02-26T13:15:27Z</time>
      </trkpt>
      <trkpt lat="48.0516" lon="-3.47613">
        <ele>115.6</ele>
        <time>2025-02-26T13:15:28Z</time>
      </trkpt>
      <trkpt lat="48.0516" lon="-3.47613">
        <ele>115.6</ele>
        <time>2025-02-26T13:15:29Z</time>
      </trkpt>
      <trkpt lat="48.0516" lon="-3.47613">
        <ele>115.6</ele>
        <time>2025-02-26T13:15:30Z</time>
      </trkpt>
      <trkpt lat="48.05159" lon="-3.47613">
        <ele>115.6</ele>
        <time>2025-02-26T13:15:31Z</time>
      </trkpt>
      <trkpt lat="48.05159" lon="-3.47612">
        <ele>115.6</ele>
        <time>2025-02-26T13:15:32Z</time>
      </trkpt>
      <trkpt lat="48.05158" lon="-3.47612">
        <ele>115.6</ele>
        <time>2025-02-26T13:15:33Z</time>
      </trkpt>
      <trkpt lat="48.05158" lon="-3.47612">
        <ele>115.6</ele>
        <time>2025-02-26T13:15:34Z</time>
      </trkpt>
      <trkpt lat="48.05158" lon="-3.47611">
        <ele>115.6</ele>
        <time>2025-02-26T13:15:35Z</time>
      </trkpt>
      <trkpt lat="48.05158" lon="-3.47611">
        <ele>115.6</ele>
        <time>2025-02-26T13:15:36Z</time>
      </trkpt>
      <trkpt lat="48.05158" lon="-3.47611">
        <ele>115.7</ele>
        <time>2025-02-26T13:15:37Z</time>
      </trkpt>
      <trkpt lat="48.05158" lon="-3.47611">
        <ele>115.7</ele>
        <time>2025-02-26T13:15:38Z</time>
      </trkpt>
      <trkpt lat="48.05159" lon="-3.4761">
        <ele>115.6</ele>
        <time>2025-02-26T13:15:39Z</time>
      </trkpt>
      <trkpt lat="48.05159" lon="-3.4761">
        <ele>115.6</ele>
        <time>2025-02-26T13:15:40Z</time>
      </trkpt>
      <trkpt lat="48.0516" lon="-3.47611">
        <ele>115.5</ele>
        <time>2025-02-26T13:15:41Z</time>
      </trkpt>
      <trkpt lat="48.0516" lon="-3.47611">
        <ele>115.5</ele>
        <time>2025-02-26T13:15:42Z</time>
      </trkpt>
      <trkpt lat="48.0516" lon="-3.47611">
        <ele>115.5</ele>
        <time>2025-02-26T13:15:43Z</time>
      </trkpt>
      <trkpt lat="48.05161" lon="-3.4761">
        <ele>115.5</ele>
        <time>2025-02-26T13:15:44Z</time>
      </trkpt>
      <trkpt lat="48.05161" lon="-3.47608">
        <ele>115.6</ele>
        <time>2025-02-26T13:15:45Z</time>
      </trkpt>
      <trkpt lat="48.05163" lon="-3.47607">
        <ele>115.6</ele>
        <time>2025-02-26T13:15:46Z</time>
      </trkpt>
      <trkpt lat="48.05163" lon="-3.47606">
        <ele>115.6</ele>
        <time>2025-02-26T13:15:47Z</time>
      </trkpt>
      <trkpt lat="48.05163" lon="-3.47606">
        <ele>115.7</ele>
        <time>2025-02-26T13:15:48Z</time>
      </trkpt>
      <trkpt lat="48.05163" lon="-3.47607">
        <ele>115.6</ele>
        <time>2025-02-26T13:15:49Z</time>
      </trkpt>
      <trkpt lat="48.05163" lon="-3.4761">
        <ele>115.4</ele>
        <time>2025-02-26T13:15:50Z</time>
      </trkpt>
      <trkpt lat="48.05164" lon="-3.47612">
        <ele>115.3</ele>
        <time>2025-02-26T13:15:51Z</time>
      </trkpt>
      <trkpt lat="48.05164" lon="-3.47616">
        <ele>115.4</ele>
        <time>2025-02-26T13:15:52Z</time>
      </trkpt>
      <trkpt lat="48.05164" lon="-3.47618">
        <ele>115.5</ele>
        <time>2025-02-26T13:15:53Z</time>
      </trkpt>
      <trkpt lat="48.05164" lon="-3.47619">
        <ele>115.6</ele>
        <time>2025-02-26T13:15:54Z</time>
      </trkpt>
      <trkpt lat="48.05163" lon="-3.47621">
        <ele>115.7</ele>
        <time>2025-02-26T13:15:55Z</time>
      </trkpt>
      <trkpt lat="48.05163" lon="-3.47623">
        <ele>115.8</ele>
        <time>2025-02-26T13:15:56Z</time>
      </trkpt>
      <trkpt lat="48.05162" lon="-3.47624">
        <ele>115.9</ele>
        <time>2025-02-26T13:15:57Z</time>
      </trkpt>
      <trkpt lat="48.05161" lon="-3.47626">
        <ele>115.9</ele>
        <time>2025-02-26T13:15:58Z</time>
      </trkpt>
      <trkpt lat="48.05161" lon="-3.47627">
        <ele>116</ele>
        <time>2025-02-26T13:15:59Z</time>
      </trkpt>
      <trkpt lat="48.0516" lon="-3.47629">
        <ele>116</ele>
        <time>2025-02-26T13:16:00Z</time>
      </trkpt>
      <trkpt lat="48.05159" lon="-3.47629">
        <ele>116</ele>
        <time>2025-02-26T13:16:01Z</time>
      </trkpt>
      <trkpt lat="48.05158" lon="-3.4763">
        <ele>115.9</ele>
        <time>2025-02-26T13:16:02Z</time>
      </trkpt>
      <trkpt lat="48.05158" lon="-3.47632">
        <ele>116</ele>
        <time>2025-02-26T13:16:03Z</time>
      </trkpt>
      <trkpt lat="48.05158" lon="-3.47634">
        <ele>116</ele>
        <time>2025-02-26T13:16:04Z</time>
      </trkpt>
      <trkpt lat="48.05159" lon="-3.47636">
        <ele>116.1</ele>
        <time>2025-02-26T13:16:05Z</time>
      </trkpt>
      <trkpt lat="48.05159" lon="-3.47637">
        <ele>116.1</ele>
        <time>2025-02-26T13:16:06Z</time>
      </trkpt>
      <trkpt lat="48.05159" lon="-3.47638">
        <ele>116.2</ele>
        <time>2025-02-26T13:16:07Z</time>
      </trkpt>
      <trkpt lat="48.05159" lon="-3.4764">
        <ele>116.3</ele>
        <time>2025-02-26T13:16:08Z</time>
      </trkpt>
      <trkpt lat="48.05159" lon="-3.47641">
        <ele>116.5</ele>
        <time>2025-02-26T13:16:09Z</time>
      </trkpt>
      <trkpt lat="48.05158" lon="-3.47642">
        <ele>116.5</ele>
        <time>2025-02-26T13:16:10Z</time>
      </trkpt>
      <trkpt lat="48.05157" lon="-3.47643">
        <ele>116.4</ele>
        <time>2025-02-26T13:16:11Z</time>
      </trkpt>
      <trkpt lat="48.05156" lon="-3.47644">
        <ele>116.4</ele>
        <time>2025-02-26T13:16:12Z</time>
      </trkpt>
      <trkpt lat="48.05155" lon="-3.47646">
        <ele>116.5</ele>
        <time>2025-02-26T13:16:13Z</time>
      </trkpt>
      <trkpt lat="48.05154" lon="-3.47647">
        <ele>116.5</ele>
        <time>2025-02-26T13:16:14Z</time>
      </trkpt>
      <trkpt lat="48.05153" lon="-3.47648">
        <ele>116.5</ele>
        <time>2025-02-26T13:16:15Z</time>
      </trkpt>
      <trkpt lat="48.05152" lon="-3.4765">
        <ele>116.5</ele>
        <time>2025-02-26T13:16:16Z</time>
      </trkpt>
      <trkpt lat="48.05152" lon="-3.47651">
        <ele>116.7</ele>
        <time>2025-02-26T13:16:17Z</time>
      </trkpt>
      <trkpt lat="48.05151" lon="-3.47652">
        <ele>116.7</ele>
        <time>2025-02-26T13:16:18Z</time>
      </trkpt>
      <trkpt lat="48.05151" lon="-3.47654">
        <ele>116.7</ele>
        <time>2025-02-26T13:16:19Z</time>
      </trkpt>
      <trkpt lat="48.0515" lon="-3.47655">
        <ele>116.7</ele>
        <time>2025-02-26T13:16:20Z</time>
      </trkpt>
      <trkpt lat="48.05149" lon="-3.47656">
        <ele>116.6</ele>
        <time>2025-02-26T13:16:21Z</time>
      </trkpt>
      <trkpt lat="48.05148" lon="-3.47657">
        <ele>116.4</ele>
        <time>2025-02-26T13:16:22Z</time>
      </trkpt>
      <trkpt lat="48.05146" lon="-3.47657">
        <ele>116.1</ele>
        <time>2025-02-26T13:16:23Z</time>
      </trkpt>
      <trkpt lat="48.05145" lon="-3.47656">
        <ele>115.8</ele>
        <time>2025-02-26T13:16:24Z</time>
      </trkpt>
      <trkpt lat="48.05144" lon="-3.47657">
        <ele>115.6</ele>
        <time>2025-02-26T13:16:25Z</time>
      </trkpt>
      <trkpt lat="48.05143" lon="-3.47658">
        <ele>115.4</ele>
        <time>2025-02-26T13:16:26Z</time>
      </trkpt>
      <trkpt lat="48.05142" lon="-3.47659">
        <ele>115.3</ele>
        <time>2025-02-26T13:16:27Z</time>
      </trkpt>
      <trkpt lat="48.05141" lon="-3.47659">
        <ele>115.1</ele>
        <time>2025-02-26T13:16:28Z</time>
      </trkpt>
      <trkpt lat="48.0514" lon="-3.47659">
        <ele>114.9</ele>
        <time>2025-02-26T13:16:29Z</time>
      </trkpt>
      <trkpt lat="48.05138" lon="-3.4766">
        <ele>114.7</ele>
        <time>2025-02-26T13:16:30Z</time>
      </trkpt>
      <trkpt lat="48.05137" lon="-3.47661">
        <ele>114.7</ele>
        <time>2025-02-26T13:16:31Z</time>
      </trkpt>
      <trkpt lat="48.05137" lon="-3.47663">
        <ele>114.7</ele>
        <time>2025-02-26T13:16:32Z</time>
      </trkpt>
      <trkpt lat="48.05137" lon="-3.47664">
        <ele>114.8</ele>
        <time>2025-02-26T13:16:33Z</time>
      </trkpt>
      <trkpt lat="48.05136" lon="-3.47666">
        <ele>114.7</ele>
        <time>2025-02-26T13:16:34Z</time>
      </trkpt>
      <trkpt lat="48.05135" lon="-3.47667">
        <ele>114.7</ele>
        <time>2025-02-26T13:16:35Z</time>
      </trkpt>
      <trkpt lat="48.05135" lon="-3.47668">
        <ele>114.9</ele>
        <time>2025-02-26T13:16:36Z</time>
      </trkpt>
      <trkpt lat="48.05134" lon="-3.47668">
        <ele>115</ele>
        <time>2025-02-26T13:16:37Z</time>
      </trkpt>
      <trkpt lat="48.05133" lon="-3.47668">
        <ele>115</ele>
        <time>2025-02-26T13:16:38Z</time>
      </trkpt>
      <trkpt lat="48.05133" lon="-3.47669">
        <ele>115</ele>
        <time>2025-02-26T13:16:39Z</time>
      </trkpt>
      <trkpt lat="48.05132" lon="-3.47669">
        <ele>115</ele>
        <time>2025-02-26T13:16:40Z</time>
      </trkpt>
      <trkpt lat="48.05131" lon="-3.47668">
        <ele>114.8</ele>
        <time>2025-02-26T13:16:41Z</time>
      </trkpt>
      <trkpt lat="48.0513" lon="-3.47669">
        <ele>114.7</ele>
        <time>2025-02-26T13:16:42Z</time>
      </trkpt>
      <trkpt lat="48.05129" lon="-3.47669">
        <ele>114.8</ele>
        <time>2025-02-26T13:16:43Z</time>
      </trkpt>
      <trkpt lat="48.05128" lon="-3.47669">
        <ele>114.8</ele>
        <time>2025-02-26T13:16:44Z</time>
      </trkpt>
      <trkpt lat="48.05128" lon="-3.4767">
        <ele>114.8</ele>
        <time>2025-02-26T13:16:45Z</time>
      </trkpt>
      <trkpt lat="48.05127" lon="-3.4767">
        <ele>114.8</ele>
        <time>2025-02-26T13:16:46Z</time>
      </trkpt>
      <trkpt lat="48.05127" lon="-3.4767">
        <ele>114.8</ele>
        <time>2025-02-26T13:16:47Z</time>
      </trkpt>
      <trkpt lat="48.05127" lon="-3.47671">
        <ele>114.9</ele>
        <time>2025-02-26T13:16:48Z</time>
      </trkpt>
      <trkpt lat="48.05127" lon="-3.47672">
        <ele>115</ele>
        <time>2025-02-26T13:16:49Z</time>
      </trkpt>
      <trkpt lat="48.05125" lon="-3.47672">
        <ele>115</ele>
        <time>2025-02-26T13:16:50Z</time>
      </trkpt>
      <trkpt lat="48.05125" lon="-3.47672">
        <ele>115</ele>
        <time>2025-02-26T13:16:51Z</time>
      </trkpt>
      <trkpt lat="48.05125" lon="-3.47674">
        <ele>115.3</ele>
        <time>2025-02-26T13:16:52Z</time>
      </trkpt>
      <trkpt lat="48.05126" lon="-3.47675">
        <ele>115.6</ele>
        <time>2025-02-26T13:16:53Z</time>
      </trkpt>
      <trkpt lat="48.05126" lon="-3.47676">
        <ele>115.8</ele>
        <time>2025-02-26T13:16:54Z</time>
      </trkpt>
      <trkpt lat="48.05126" lon="-3.47677">
        <ele>115.9</ele>
        <time>2025-02-26T13:16:55Z</time>
      </trkpt>
      <trkpt lat="48.05126" lon="-3.47678">
        <ele>116.1</ele>
        <time>2025-02-26T13:16:56Z</time>
      </trkpt>
      <trkpt lat="48.05125" lon="-3.47679">
        <ele>116.2</ele>
        <time>2025-02-26T13:16:57Z</time>
      </trkpt>
      <trkpt lat="48.05125" lon="-3.47679">
        <ele>116.2</ele>
        <time>2025-02-26T13:16:58Z</time>
      </trkpt>
      <trkpt lat="48.05125" lon="-3.4768">
        <ele>116.3</ele>
        <time>2025-02-26T13:16:59Z</time>
      </trkpt>
      <trkpt lat="48.05124" lon="-3.47681">
        <ele>116.4</ele>
        <time>2025-02-26T13:17:00Z</time>
      </trkpt>
      <trkpt lat="48.05125" lon="-3.47681">
        <ele>116.6</ele>
        <time>2025-02-26T13:17:01Z</time>
      </trkpt>
      <trkpt lat="48.05125" lon="-3.47682">
        <ele>116.7</ele>
        <time>2025-02-26T13:17:02Z</time>
      </trkpt>
      <trkpt lat="48.05124" lon="-3.47683">
        <ele>116.7</ele>
        <time>2025-02-26T13:17:03Z</time>
      </trkpt>
      <trkpt lat="48.05124" lon="-3.47682">
        <ele>116.5</ele>
        <time>2025-02-26T13:17:04Z</time>
      </trkpt>
      <trkpt lat="48.05123" lon="-3.47682">
        <ele>116.3</ele>
        <time>2025-02-26T13:17:05Z</time>
      </trkpt>
      <trkpt lat="48.05122" lon="-3.47682">
        <ele>116.1</ele>
        <time>2025-02-26T13:17:06Z</time>
      </trkpt>
      <trkpt lat="48.05121" lon="-3.47682">
        <ele>116</ele>
        <time>2025-02-26T13:17:07Z</time>
      </trkpt>
      <trkpt lat="48.0512" lon="-3.47683">
        <ele>116</ele>
        <time>2025-02-26T13:17:08Z</time>
      </trkpt>
      <trkpt lat="48.0512" lon="-3.47684">
        <ele>116</ele>
        <time>2025-02-26T13:17:09Z</time>
      </trkpt>
      <trkpt lat="48.05119" lon="-3.47684">
        <ele>115.9</ele>
        <time>2025-02-26T13:17:10Z</time>
      </trkpt>
      <trkpt lat="48.05119" lon="-3.47684">
        <ele>115.8</ele>
        <time>2025-02-26T13:17:11Z</time>
      </trkpt>
      <trkpt lat="48.05118" lon="-3.47685">
        <ele>115.7</ele>
        <time>2025-02-26T13:17:12Z</time>
      </trkpt>
      <trkpt lat="48.05117" lon="-3.47687">
        <ele>115.9</ele>
        <time>2025-02-26T13:17:13Z</time>
      </trkpt>
      <trkpt lat="48.05117" lon="-3.47688">
        <ele>115.8</ele>
        <time>2025-02-26T13:17:14Z</time>
      </trkpt>
      <trkpt lat="48.05116" lon="-3.47689">
        <ele>115.8</ele>
        <time>2025-02-26T13:17:15Z</time>
      </trkpt>
      <trkpt lat="48.05115" lon="-3.47689">
        <ele>115.5</ele>
        <time>2025-02-26T13:17:16Z</time>
      </trkpt>
      <trkpt lat="48.05116" lon="-3.47688">
        <ele>115.6</ele>
        <time>2025-02-26T13:17:17Z</time>
      </trkpt>
      <trkpt lat="48.05116" lon="-3.47688">
        <ele>115.6</ele>
        <time>2025-02-26T13:17:18Z</time>
      </trkpt>
      <trkpt lat="48.05116" lon="-3.47688">
        <ele>115.7</ele>
        <time>2025-02-26T13:17:19Z</time>
      </trkpt>
      <trkpt lat="48.05116" lon="-3.4769">
        <ele>115.8</ele>
        <time>2025-02-26T13:17:20Z</time>
      </trkpt>
      <trkpt lat="48.05116" lon="-3.4769">
        <ele>115.8</ele>
        <time>2025-02-26T13:17:21Z</time>
      </trkpt>
      <trkpt lat="48.05115" lon="-3.47691">
        <ele>115.8</ele>
        <time>2025-02-26T13:17:22Z</time>
      </trkpt>
      <trkpt lat="48.05115" lon="-3.47691">
        <ele>115.8</ele>
        <time>2025-02-26T13:17:23Z</time>
      </trkpt>
      <trkpt lat="48.05115" lon="-3.47691">
        <ele>115.8</ele>
        <time>2025-02-26T13:17:24Z</time>
      </trkpt>
      <trkpt lat="48.05116" lon="-3.47692">
        <ele>116</ele>
        <time>2025-02-26T13:17:25Z</time>
      </trkpt>
      <trkpt lat="48.05116" lon="-3.47692">
        <ele>116.1</ele>
        <time>2025-02-26T13:17:26Z</time>
      </trkpt>
      <trkpt lat="48.05116" lon="-3.47693">
        <ele>116.1</ele>
        <time>2025-02-26T13:17:27Z</time>
      </trkpt>
      <trkpt lat="48.05114" lon="-3.47693">
        <ele>115.8</ele>
        <time>2025-02-26T13:17:28Z</time>
      </trkpt>
      <trkpt lat="48.05113" lon="-3.47694">
        <ele>115.6</ele>
        <time>2025-02-26T13:17:29Z</time>
      </trkpt>
      <trkpt lat="48.05112" lon="-3.47695">
        <ele>115.6</ele>
        <time>2025-02-26T13:17:30Z</time>
      </trkpt>
      <trkpt lat="48.05111" lon="-3.47695">
        <ele>115.4</ele>
        <time>2025-02-26T13:17:31Z</time>
      </trkpt>
      <trkpt lat="48.0511" lon="-3.47695">
        <ele>115.1</ele>
        <time>2025-02-26T13:17:32Z</time>
      </trkpt>
      <trkpt lat="48.05109" lon="-3.47695">
        <ele>115</ele>
        <time>2025-02-26T13:17:33Z</time>
      </trkpt>
      <trkpt lat="48.05108" lon="-3.47695">
        <ele>114.8</ele>
        <time>2025-02-26T13:17:34Z</time>
      </trkpt>
      <trkpt lat="48.05107" lon="-3.47696">
        <ele>114.9</ele>
        <time>2025-02-26T13:17:35Z</time>
      </trkpt>
      <trkpt lat="48.05106" lon="-3.47696">
        <ele>115</ele>
        <time>2025-02-26T13:17:36Z</time>
      </trkpt>
      <trkpt lat="48.05105" lon="-3.47696">
        <ele>114.9</ele>
        <time>2025-02-26T13:17:37Z</time>
      </trkpt>
      <trkpt lat="48.05105" lon="-3.47695">
        <ele>114.6</ele>
        <time>2025-02-26T13:17:38Z</time>
      </trkpt>
      <trkpt lat="48.05104" lon="-3.47694">
        <ele>114.2</ele>
        <time>2025-02-26T13:17:39Z</time>
      </trkpt>
      <trkpt lat="48.05105" lon="-3.47693">
        <ele>114.2</ele>
        <time>2025-02-26T13:17:40Z</time>
      </trkpt>
      <trkpt lat="48.05104" lon="-3.47692">
        <ele>114.2</ele>
        <time>2025-02-26T13:17:41Z</time>
      </trkpt>
      <trkpt lat="48.05103" lon="-3.47692">
        <ele>114.1</ele>
        <time>2025-02-26T13:17:42Z</time>
      </trkpt>
      <trkpt lat="48.05103" lon="-3.47691">
        <ele>114</ele>
        <time>2025-02-26T13:17:43Z</time>
      </trkpt>
      <trkpt lat="48.05102" lon="-3.47691">
        <ele>113.9</ele>
        <time>2025-02-26T13:17:44Z</time>
      </trkpt>
      <trkpt lat="48.05102" lon="-3.47691">
        <ele>114</ele>
        <time>2025-02-26T13:17:45Z</time>
      </trkpt>
      <trkpt lat="48.05102" lon="-3.47691">
        <ele>113.9</ele>
        <time>2025-02-26T13:17:46Z</time>
      </trkpt>
      <trkpt lat="48.05102" lon="-3.47691">
        <ele>113.9</ele>
        <time>2025-02-26T13:17:47Z</time>
      </trkpt>
      <trkpt lat="48.05102" lon="-3.4769">
        <ele>113.9</ele>
        <time>2025-02-26T13:17:48Z</time>
      </trkpt>
      <trkpt lat="48.05102" lon="-3.4769">
        <ele>113.9</ele>
        <time>2025-02-26T13:17:49Z</time>
      </trkpt>
      <trkpt lat="48.05101" lon="-3.47689">
        <ele>113.8</ele>
        <time>2025-02-26T13:17:50Z</time>
      </trkpt>
      <trkpt lat="48.05101" lon="-3.47689">
        <ele>113.8</ele>
        <time>2025-02-26T13:17:51Z</time>
      </trkpt>
      <trkpt lat="48.051" lon="-3.47689">
        <ele>113.7</ele>
        <time>2025-02-26T13:17:52Z</time>
      </trkpt>
      <trkpt lat="48.05099" lon="-3.4769">
        <ele>113.6</ele>
        <time>2025-02-26T13:17:53Z</time>
      </trkpt>
      <trkpt lat="48.05098" lon="-3.4769">
        <ele>113.6</ele>
        <time>2025-02-26T13:17:54Z</time>
      </trkpt>
      <trkpt lat="48.05096" lon="-3.47689">
        <ele>113.4</ele>
        <time>2025-02-26T13:17:55Z</time>
      </trkpt>
      <trkpt lat="48.05094" lon="-3.47689">
        <ele>113.3</ele>
        <time>2025-02-26T13:17:56Z</time>
      </trkpt>
      <trkpt lat="48.05092" lon="-3.47689">
        <ele>113.1</ele>
        <time>2025-02-26T13:17:57Z</time>
      </trkpt>
      <trkpt lat="48.05091" lon="-3.47689">
        <ele>113</ele>
        <time>2025-02-26T13:17:58Z</time>
      </trkpt>
      <trkpt lat="48.05089" lon="-3.4769">
        <ele>112.9</ele>
        <time>2025-02-26T13:17:59Z</time>
      </trkpt>
      <trkpt lat="48.05089" lon="-3.47689">
        <ele>112.8</ele>
        <time>2025-02-26T13:18:00Z</time>
      </trkpt>
      <trkpt lat="48.05088" lon="-3.47689">
        <ele>112.7</ele>
        <time>2025-02-26T13:18:01Z</time>
      </trkpt>
      <trkpt lat="48.05087" lon="-3.47689">
        <ele>112.7</ele>
        <time>2025-02-26T13:18:02Z</time>
      </trkpt>
      <trkpt lat="48.05086" lon="-3.47688">
        <ele>112.7</ele>
        <time>2025-02-26T13:18:03Z</time>
      </trkpt>
      <trkpt lat="48.05085" lon="-3.47688">
        <ele>112.6</ele>
        <time>2025-02-26T13:18:04Z</time>
      </trkpt>
      <trkpt lat="48.05084" lon="-3.47688">
        <ele>112.5</ele>
        <time>2025-02-26T13:18:05Z</time>
      </trkpt>
      <trkpt lat="48.05084" lon="-3.47688">
        <ele>112.5</ele>
        <time>2025-02-26T13:18:06Z</time>
      </trkpt>
      <trkpt lat="48.05084" lon="-3.47689">
        <ele>112.5</ele>
        <time>2025-02-26T13:18:07Z</time>
      </trkpt>
      <trkpt lat="48.05084" lon="-3.47689">
        <ele>112.4</ele>
        <time>2025-02-26T13:18:08Z</time>
      </trkpt>
      <trkpt lat="48.05083" lon="-3.47689">
        <ele>112.4</ele>
        <time>2025-02-26T13:18:09Z</time>
      </trkpt>
      <trkpt lat="48.05082" lon="-3.4769">
        <ele>112.4</ele>
        <time>2025-02-26T13:18:10Z</time>
      </trkpt>
      <trkpt lat="48.05081" lon="-3.4769">
        <ele>112.4</ele>
        <time>2025-02-26T13:18:11Z</time>
      </trkpt>
      <trkpt lat="48.0508" lon="-3.4769">
        <ele>112.4</ele>
        <time>2025-02-26T13:18:12Z</time>
      </trkpt>
      <trkpt lat="48.05079" lon="-3.47691">
        <ele>112.4</ele>
        <time>2025-02-26T13:18:13Z</time>
      </trkpt>
      <trkpt lat="48.05079" lon="-3.47693">
        <ele>112.3</ele>
        <time>2025-02-26T13:18:14Z</time>
      </trkpt>
      <trkpt lat="48.05078" lon="-3.47694">
        <ele>112.3</ele>
        <time>2025-02-26T13:18:15Z</time>
      </trkpt>
      <trkpt lat="48.05077" lon="-3.47695">
        <ele>112.3</ele>
        <time>2025-02-26T13:18:16Z</time>
      </trkpt>
      <trkpt lat="48.05076" lon="-3.47696">
        <ele>112.5</ele>
        <time>2025-02-26T13:18:17Z</time>
      </trkpt>
      <trkpt lat="48.05076" lon="-3.47698">
        <ele>112.6</ele>
        <time>2025-02-26T13:18:18Z</time>
      </trkpt>
      <trkpt lat="48.05076" lon="-3.47699">
        <ele>112.7</ele>
        <time>2025-02-26T13:18:19Z</time>
      </trkpt>
      <trkpt lat="48.05076" lon="-3.477">
        <ele>112.9</ele>
        <time>2025-02-26T13:18:20Z</time>
      </trkpt>
      <trkpt lat="48.05075" lon="-3.47701">
        <ele>113</ele>
        <time>2025-02-26T13:18:21Z</time>
      </trkpt>
      <trkpt lat="48.05074" lon="-3.47702">
        <ele>113.1</ele>
        <time>2025-02-26T13:18:22Z</time>
      </trkpt>
      <trkpt lat="48.05074" lon="-3.47704">
        <ele>113.2</ele>
        <time>2025-02-26T13:18:23Z</time>
      </trkpt>
      <trkpt lat="48.05074" lon="-3.47706">
        <ele>113.4</ele>
        <time>2025-02-26T13:18:24Z</time>
      </trkpt>
      <trkpt lat="48.05073" lon="-3.47707">
        <ele>113.5</ele>
        <time>2025-02-26T13:18:25Z</time>
      </trkpt>
      <trkpt lat="48.05072" lon="-3.47708">
        <ele>113.4</ele>
        <time>2025-02-26T13:18:26Z</time>
      </trkpt>
      <trkpt lat="48.05071" lon="-3.47708">
        <ele>113.3</ele>
        <time>2025-02-26T13:18:27Z</time>
      </trkpt>
      <trkpt lat="48.0507" lon="-3.47708">
        <ele>113.3</ele>
        <time>2025-02-26T13:18:28Z</time>
      </trkpt>
      <trkpt lat="48.0507" lon="-3.47709">
        <ele>113.3</ele>
        <time>2025-02-26T13:18:29Z</time>
      </trkpt>
      <trkpt lat="48.05069" lon="-3.47709">
        <ele>113.3</ele>
        <time>2025-02-26T13:18:30Z</time>
      </trkpt>
      <trkpt lat="48.05069" lon="-3.47711">
        <ele>113.3</ele>
        <time>2025-02-26T13:18:31Z</time>
      </trkpt>
      <trkpt lat="48.05068" lon="-3.47712">
        <ele>113.3</ele>
        <time>2025-02-26T13:18:32Z</time>
      </trkpt>
      <trkpt lat="48.05067" lon="-3.47712">
        <ele>113.2</ele>
        <time>2025-02-26T13:18:33Z</time>
      </trkpt>
      <trkpt lat="48.05066" lon="-3.47713">
        <ele>113.1</ele>
        <time>2025-02-26T13:18:34Z</time>
      </trkpt>
      <trkpt lat="48.05065" lon="-3.47714">
        <ele>113</ele>
        <time>2025-02-26T13:18:35Z</time>
      </trkpt>
      <trkpt lat="48.05065" lon="-3.47716">
        <ele>112.9</ele>
        <time>2025-02-26T13:18:36Z</time>
      </trkpt>
      <trkpt lat="48.05065" lon="-3.47717">
        <ele>112.9</ele>
        <time>2025-02-26T13:18:37Z</time>
      </trkpt>
      <trkpt lat="48.05065" lon="-3.47719">
        <ele>112.9</ele>
        <time>2025-02-26T13:18:38Z</time>
      </trkpt>
      <trkpt lat="48.05064" lon="-3.4772">
        <ele>112.9</ele>
        <time>2025-02-26T13:18:39Z</time>
      </trkpt>
      <trkpt lat="48.05064" lon="-3.47721">
        <ele>112.8</ele>
        <time>2025-02-26T13:18:40Z</time>
      </trkpt>
      <trkpt lat="48.05063" lon="-3.47722">
        <ele>112.7</ele>
        <time>2025-02-26T13:18:41Z</time>
      </trkpt>
      <trkpt lat="48.05063" lon="-3.47723">
        <ele>112.7</ele>
        <time>2025-02-26T13:18:42Z</time>
      </trkpt>
      <trkpt lat="48.05062" lon="-3.47725">
        <ele>112.8</ele>
        <time>2025-02-26T13:18:43Z</time>
      </trkpt>
      <trkpt lat="48.05062" lon="-3.47726">
        <ele>112.9</ele>
        <time>2025-02-26T13:18:44Z</time>
      </trkpt>
      <trkpt lat="48.05061" lon="-3.47727">
        <ele>112.7</ele>
        <time>2025-02-26T13:18:45Z</time>
      </trkpt>
      <trkpt lat="48.0506" lon="-3.47728">
        <ele>112.7</ele>
        <time>2025-02-26T13:18:46Z</time>
      </trkpt>
      <trkpt lat="48.05059" lon="-3.47728">
        <ele>112.5</ele>
        <time>2025-02-26T13:18:47Z</time>
      </trkpt>
      <trkpt lat="48.05058" lon="-3.47729">
        <ele>112.4</ele>
        <time>2025-02-26T13:18:48Z</time>
      </trkpt>
      <trkpt lat="48.05058" lon="-3.4773">
        <ele>112.4</ele>
        <time>2025-02-26T13:18:49Z</time>
      </trkpt>
      <trkpt lat="48.05057" lon="-3.47731">
        <ele>112.4</ele>
        <time>2025-02-26T13:18:50Z</time>
      </trkpt>
      <trkpt lat="48.05056" lon="-3.47732">
        <ele>112.2</ele>
        <time>2025-02-26T13:18:51Z</time>
      </trkpt>
      <trkpt lat="48.05055" lon="-3.47733">
        <ele>112.1</ele>
        <time>2025-02-26T13:18:52Z</time>
      </trkpt>
      <trkpt lat="48.05055" lon="-3.47735">
        <ele>112.3</ele>
        <time>2025-02-26T13:18:53Z</time>
      </trkpt>
      <trkpt lat="48.05054" lon="-3.47736">
        <ele>112.4</ele>
        <time>2025-02-26T13:18:54Z</time>
      </trkpt>
      <trkpt lat="48.05053" lon="-3.47736">
        <ele>112.4</ele>
        <time>2025-02-26T13:18:55Z</time>
      </trkpt>
      <trkpt lat="48.05052" lon="-3.47737">
        <ele>112.5</ele>
        <time>2025-02-26T13:18:56Z</time>
      </trkpt>
      <trkpt lat="48.05052" lon="-3.47737">
        <ele>112.5</ele>
        <time>2025-02-26T13:18:57Z</time>
      </trkpt>
      <trkpt lat="48.05051" lon="-3.47738">
        <ele>112.5</ele>
        <time>2025-02-26T13:18:58Z</time>
      </trkpt>
      <trkpt lat="48.0505" lon="-3.47739">
        <ele>112.6</ele>
        <time>2025-02-26T13:18:59Z</time>
      </trkpt>
      <trkpt lat="48.05049" lon="-3.47739">
        <ele>112.6</ele>
        <time>2025-02-26T13:19:00Z</time>
      </trkpt>
      <trkpt lat="48.05049" lon="-3.47741">
        <ele>112.7</ele>
        <time>2025-02-26T13:19:01Z</time>
      </trkpt>
      <trkpt lat="48.05048" lon="-3.47742">
        <ele>112.7</ele>
        <time>2025-02-26T13:19:02Z</time>
      </trkpt>
      <trkpt lat="48.05048" lon="-3.47744">
        <ele>112.8</ele>
        <time>2025-02-26T13:19:03Z</time>
      </trkpt>
      <trkpt lat="48.05047" lon="-3.47745">
        <ele>112.8</ele>
        <time>2025-02-26T13:19:04Z</time>
      </trkpt>
      <trkpt lat="48.05046" lon="-3.47744">
        <ele>112.7</ele>
        <time>2025-02-26T13:19:05Z</time>
      </trkpt>
      <trkpt lat="48.05045" lon="-3.47746">
        <ele>112.7</ele>
        <time>2025-02-26T13:19:06Z</time>
      </trkpt>
      <trkpt lat="48.05044" lon="-3.47746">
        <ele>112.6</ele>
        <time>2025-02-26T13:19:07Z</time>
      </trkpt>
      <trkpt lat="48.05043" lon="-3.47748">
        <ele>112.6</ele>
        <time>2025-02-26T13:19:08Z</time>
      </trkpt>
      <trkpt lat="48.05043" lon="-3.47749">
        <ele>112.6</ele>
        <time>2025-02-26T13:19:09Z</time>
      </trkpt>
      <trkpt lat="48.05042" lon="-3.4775">
        <ele>112.6</ele>
        <time>2025-02-26T13:19:10Z</time>
      </trkpt>
      <trkpt lat="48.05041" lon="-3.47751">
        <ele>112.5</ele>
        <time>2025-02-26T13:19:11Z</time>
      </trkpt>
      <trkpt lat="48.05041" lon="-3.47753">
        <ele>112.5</ele>
        <time>2025-02-26T13:19:12Z</time>
      </trkpt>
      <trkpt lat="48.0504" lon="-3.47754">
        <ele>112.6</ele>
        <time>2025-02-26T13:19:13Z</time>
      </trkpt>
      <trkpt lat="48.05039" lon="-3.47756">
        <ele>112.5</ele>
        <time>2025-02-26T13:19:14Z</time>
      </trkpt>
      <trkpt lat="48.05039" lon="-3.47757">
        <ele>112.5</ele>
        <time>2025-02-26T13:19:15Z</time>
      </trkpt>
      <trkpt lat="48.05038" lon="-3.47759">
        <ele>112.4</ele>
        <time>2025-02-26T13:19:16Z</time>
      </trkpt>
      <trkpt lat="48.05038" lon="-3.4776">
        <ele>112.5</ele>
        <time>2025-02-26T13:19:17Z</time>
      </trkpt>
      <trkpt lat="48.05037" lon="-3.47761">
        <ele>112.3</ele>
        <time>2025-02-26T13:19:18Z</time>
      </trkpt>
      <trkpt lat="48.05036" lon="-3.47762">
        <ele>112.2</ele>
        <time>2025-02-26T13:19:19Z</time>
      </trkpt>
      <trkpt lat="48.05034" lon="-3.47763">
        <ele>111.9</ele>
        <time>2025-02-26T13:19:20Z</time>
      </trkpt>
      <trkpt lat="48.05033" lon="-3.47765">
        <ele>111.7</ele>
        <time>2025-02-26T13:19:21Z</time>
      </trkpt>
      <trkpt lat="48.05032" lon="-3.47766">
        <ele>111.5</ele>
        <time>2025-02-26T13:19:22Z</time>
      </trkpt>
      <trkpt lat="48.05031" lon="-3.47767">
        <ele>111.2</ele>
        <time>2025-02-26T13:19:23Z</time>
      </trkpt>
      <trkpt lat="48.0503" lon="-3.47767">
        <ele>110.9</ele>
        <time>2025-02-26T13:19:24Z</time>
      </trkpt>
      <trkpt lat="48.05029" lon="-3.47768">
        <ele>110.7</ele>
        <time>2025-02-26T13:19:25Z</time>
      </trkpt>
      <trkpt lat="48.05029" lon="-3.4777">
        <ele>110.6</ele>
        <time>2025-02-26T13:19:26Z</time>
      </trkpt>
      <trkpt lat="48.05028" lon="-3.47771">
        <ele>110.3</ele>
        <time>2025-02-26T13:19:27Z</time>
      </trkpt>
      <trkpt lat="48.05027" lon="-3.47771">
        <ele>110.3</ele>
        <time>2025-02-26T13:19:28Z</time>
      </trkpt>
      <trkpt lat="48.05026" lon="-3.47772">
        <ele>110.3</ele>
        <time>2025-02-26T13:19:29Z</time>
      </trkpt>
      <trkpt lat="48.05025" lon="-3.47773">
        <ele>110.3</ele>
        <time>2025-02-26T13:19:30Z</time>
      </trkpt>
      <trkpt lat="48.05024" lon="-3.47773">
        <ele>110.3</ele>
        <time>2025-02-26T13:19:31Z</time>
      </trkpt>
      <trkpt lat="48.05023" lon="-3.47773">
        <ele>110.4</ele>
        <time>2025-02-26T13:19:32Z</time>
      </trkpt>
      <trkpt lat="48.05023" lon="-3.47775">
        <ele>110.3</ele>
        <time>2025-02-26T13:19:33Z</time>
      </trkpt>
      <trkpt lat="48.05022" lon="-3.47776">
        <ele>110.3</ele>
        <time>2025-02-26T13:19:34Z</time>
      </trkpt>
      <trkpt lat="48.05021" lon="-3.47777">
        <ele>110.3</ele>
        <time>2025-02-26T13:19:35Z</time>
      </trkpt>
      <trkpt lat="48.0502" lon="-3.47778">
        <ele>110.3</ele>
        <time>2025-02-26T13:19:36Z</time>
      </trkpt>
      <trkpt lat="48.05019" lon="-3.4778">
        <ele>110.5</ele>
        <time>2025-02-26T13:19:37Z</time>
      </trkpt>
      <trkpt lat="48.05018" lon="-3.47781">
        <ele>110.6</ele>
        <time>2025-02-26T13:19:38Z</time>
      </trkpt>
      <trkpt lat="48.05018" lon="-3.47783">
        <ele>110.7</ele>
        <time>2025-02-26T13:19:39Z</time>
      </trkpt>
      <trkpt lat="48.05018" lon="-3.47784">
        <ele>110.8</ele>
        <time>2025-02-26T13:19:40Z</time>
      </trkpt>
      <trkpt lat="48.05017" lon="-3.47786">
        <ele>110.9</ele>
        <time>2025-02-26T13:19:41Z</time>
      </trkpt>
      <trkpt lat="48.05015" lon="-3.47787">
        <ele>110.9</ele>
        <time>2025-02-26T13:19:42Z</time>
      </trkpt>
      <trkpt lat="48.05014" lon="-3.47787">
        <ele>110.8</ele>
        <time>2025-02-26T13:19:43Z</time>
      </trkpt>
      <trkpt lat="48.05013" lon="-3.47789">
        <ele>110.9</ele>
        <time>2025-02-26T13:19:44Z</time>
      </trkpt>
      <trkpt lat="48.05012" lon="-3.4779">
        <ele>110.8</ele>
        <time>2025-02-26T13:19:45Z</time>
      </trkpt>
      <trkpt lat="48.05011" lon="-3.47791">
        <ele>110.8</ele>
        <time>2025-02-26T13:19:46Z</time>
      </trkpt>
      <trkpt lat="48.05011" lon="-3.47792">
        <ele>110.8</ele>
        <time>2025-02-26T13:19:47Z</time>
      </trkpt>
      <trkpt lat="48.0501" lon="-3.47794">
        <ele>110.7</ele>
        <time>2025-02-26T13:19:48Z</time>
      </trkpt>
      <trkpt lat="48.05009" lon="-3.47795">
        <ele>110.7</ele>
        <time>2025-02-26T13:19:49Z</time>
      </trkpt>
      <trkpt lat="48.05008" lon="-3.47795">
        <ele>110.6</ele>
        <time>2025-02-26T13:19:50Z</time>
      </trkpt>
      <trkpt lat="48.05007" lon="-3.47796">
        <ele>110.4</ele>
        <time>2025-02-26T13:19:51Z</time>
      </trkpt>
      <trkpt lat="48.05006" lon="-3.47797">
        <ele>110.3</ele>
        <time>2025-02-26T13:19:52Z</time>
      </trkpt>
      <trkpt lat="48.05005" lon="-3.47797">
        <ele>110.2</ele>
        <time>2025-02-26T13:19:53Z</time>
      </trkpt>
      <trkpt lat="48.05004" lon="-3.47797">
        <ele>110.1</ele>
        <time>2025-02-26T13:19:54Z</time>
      </trkpt>
      <trkpt lat="48.05003" lon="-3.47798">
        <ele>109.9</ele>
        <time>2025-02-26T13:19:55Z</time>
      </trkpt>
      <trkpt lat="48.05002" lon="-3.47799">
        <ele>109.8</ele>
        <time>2025-02-26T13:19:56Z</time>
      </trkpt>
      <trkpt lat="48.05002" lon="-3.47799">
        <ele>109.7</ele>
        <time>2025-02-26T13:19:57Z</time>
      </trkpt>
      <trkpt lat="48.05001" lon="-3.47799">
        <ele>109.6</ele>
        <time>2025-02-26T13:19:58Z</time>
      </trkpt>
      <trkpt lat="48.05" lon="-3.478">
        <ele>109.4</ele>
        <time>2025-02-26T13:19:59Z</time>
      </trkpt>
      <trkpt lat="48.04999" lon="-3.47801">
        <ele>109.4</ele>
        <time>2025-02-26T13:20:00Z</time>
      </trkpt>
      <trkpt lat="48.04998" lon="-3.47802">
        <ele>109.4</ele>
        <time>2025-02-26T13:20:01Z</time>
      </trkpt>
      <trkpt lat="48.04997" lon="-3.47803">
        <ele>109.3</ele>
        <time>2025-02-26T13:20:02Z</time>
      </trkpt>
      <trkpt lat="48.04997" lon="-3.47804">
        <ele>109.3</ele>
        <time>2025-02-26T13:20:03Z</time>
      </trkpt>
      <trkpt lat="48.04995" lon="-3.47804">
        <ele>109.3</ele>
        <time>2025-02-26T13:20:04Z</time>
      </trkpt>
      <trkpt lat="48.04994" lon="-3.47805">
        <ele>109.2</ele>
        <time>2025-02-26T13:20:05Z</time>
      </trkpt>
      <trkpt lat="48.04994" lon="-3.47807">
        <ele>109.3</ele>
        <time>2025-02-26T13:20:06Z</time>
      </trkpt>
      <trkpt lat="48.04993" lon="-3.47808">
        <ele>109.3</ele>
        <time>2025-02-26T13:20:07Z</time>
      </trkpt>
      <trkpt lat="48.04992" lon="-3.47809">
        <ele>109.4</ele>
        <time>2025-02-26T13:20:08Z</time>
      </trkpt>
      <trkpt lat="48.04991" lon="-3.47809">
        <ele>109.4</ele>
        <time>2025-02-26T13:20:09Z</time>
      </trkpt>
      <trkpt lat="48.0499" lon="-3.4781">
        <ele>109.4</ele>
        <time>2025-02-26T13:20:10Z</time>
      </trkpt>
      <trkpt lat="48.04989" lon="-3.47812">
        <ele>109.5</ele>
        <time>2025-02-26T13:20:11Z</time>
      </trkpt>
      <trkpt lat="48.04988" lon="-3.47814">
        <ele>109.5</ele>
        <time>2025-02-26T13:20:12Z</time>
      </trkpt>
      <trkpt lat="48.04987" lon="-3.47815">
        <ele>109.5</ele>
        <time>2025-02-26T13:20:13Z</time>
      </trkpt>
      <trkpt lat="48.04987" lon="-3.47815">
        <ele>109.5</ele>
        <time>2025-02-26T13:20:14Z</time>
      </trkpt>
      <trkpt lat="48.04985" lon="-3.47817">
        <ele>109.5</ele>
        <time>2025-02-26T13:20:15Z</time>
      </trkpt>
      <trkpt lat="48.04984" lon="-3.47818">
        <ele>109.4</ele>
        <time>2025-02-26T13:20:16Z</time>
      </trkpt>
      <trkpt lat="48.04984" lon="-3.47821">
        <ele>109.4</ele>
        <time>2025-02-26T13:20:17Z</time>
      </trkpt>
      <trkpt lat="48.04984" lon="-3.47823">
        <ele>109.4</ele>
        <time>2025-02-26T13:20:18Z</time>
      </trkpt>
      <trkpt lat="48.04984" lon="-3.47824">
        <ele>109.4</ele>
        <time>2025-02-26T13:20:19Z</time>
      </trkpt>
      <trkpt lat="48.04984" lon="-3.47826">
        <ele>109.3</ele>
        <time>2025-02-26T13:20:20Z</time>
      </trkpt>
      <trkpt lat="48.04984" lon="-3.47827">
        <ele>109.3</ele>
        <time>2025-02-26T13:20:21Z</time>
      </trkpt>
      <trkpt lat="48.04983" lon="-3.47829">
        <ele>109.3</ele>
        <time>2025-02-26T13:20:22Z</time>
      </trkpt>
      <trkpt lat="48.04983" lon="-3.47831">
        <ele>109.2</ele>
        <time>2025-02-26T13:20:23Z</time>
      </trkpt>
      <trkpt lat="48.04982" lon="-3.47832">
        <ele>109.1</ele>
        <time>2025-02-26T13:20:24Z</time>
      </trkpt>
      <trkpt lat="48.04982" lon="-3.47833">
        <ele>109</ele>
        <time>2025-02-26T13:20:25Z</time>
      </trkpt>
      <trkpt lat="48.04981" lon="-3.47835">
        <ele>109.1</ele>
        <time>2025-02-26T13:20:26Z</time>
      </trkpt>
      <trkpt lat="48.04981" lon="-3.47836">
        <ele>109.1</ele>
        <time>2025-02-26T13:20:27Z</time>
      </trkpt>
      <trkpt lat="48.04981" lon="-3.47838">
        <ele>109.2</ele>
        <time>2025-02-26T13:20:28Z</time>
      </trkpt>
      <trkpt lat="48.0498" lon="-3.4784">
        <ele>109.2</ele>
        <time>2025-02-26T13:20:29Z</time>
      </trkpt>
      <trkpt lat="48.0498" lon="-3.47841">
        <ele>109.2</ele>
        <time>2025-02-26T13:20:30Z</time>
      </trkpt>
      <trkpt lat="48.04979" lon="-3.47842">
        <ele>109.1</ele>
        <time>2025-02-26T13:20:31Z</time>
      </trkpt>
      <trkpt lat="48.04978" lon="-3.47843">
        <ele>109</ele>
        <time>2025-02-26T13:20:32Z</time>
      </trkpt>
      <trkpt lat="48.04978" lon="-3.47845">
        <ele>109</ele>
        <time>2025-02-26T13:20:33Z</time>
      </trkpt>
      <trkpt lat="48.04977" lon="-3.47846">
        <ele>108.9</ele>
        <time>2025-02-26T13:20:34Z</time>
      </trkpt>
      <trkpt lat="48.04977" lon="-3.47848">
        <ele>108.9</ele>
        <time>2025-02-26T13:20:35Z</time>
      </trkpt>
      <trkpt lat="48.04977" lon="-3.47849">
        <ele>109.1</ele>
        <time>2025-02-26T13:20:36Z</time>
      </trkpt>
      <trkpt lat="48.04977" lon="-3.47851">
        <ele>109</ele>
        <time>2025-02-26T13:20:37Z</time>
      </trkpt>
      <trkpt lat="48.04977" lon="-3.47852">
        <ele>109</ele>
        <time>2025-02-26T13:20:38Z</time>
      </trkpt>
      <trkpt lat="48.04977" lon="-3.47852">
        <ele>109</ele>
        <time>2025-02-26T13:20:39Z</time>
      </trkpt>
      <trkpt lat="48.04976" lon="-3.47854">
        <ele>109</ele>
        <time>2025-02-26T13:20:40Z</time>
      </trkpt>
      <trkpt lat="48.04976" lon="-3.47855">
        <ele>108.9</ele>
        <time>2025-02-26T13:20:41Z</time>
      </trkpt>
      <trkpt lat="48.04975" lon="-3.47856">
        <ele>108.8</ele>
        <time>2025-02-26T13:20:42Z</time>
      </trkpt>
      <trkpt lat="48.04976" lon="-3.47858">
        <ele>108.9</ele>
        <time>2025-02-26T13:20:43Z</time>
      </trkpt>
      <trkpt lat="48.04976" lon="-3.47859">
        <ele>108.9</ele>
        <time>2025-02-26T13:20:44Z</time>
      </trkpt>
      <trkpt lat="48.04975" lon="-3.47861">
        <ele>108.9</ele>
        <time>2025-02-26T13:20:45Z</time>
      </trkpt>
      <trkpt lat="48.04975" lon="-3.47862">
        <ele>109</ele>
        <time>2025-02-26T13:20:46Z</time>
      </trkpt>
      <trkpt lat="48.04975" lon="-3.47864">
        <ele>109.1</ele>
        <time>2025-02-26T13:20:47Z</time>
      </trkpt>
      <trkpt lat="48.04975" lon="-3.47865">
        <ele>109.3</ele>
        <time>2025-02-26T13:20:48Z</time>
      </trkpt>
      <trkpt lat="48.04975" lon="-3.47867">
        <ele>109.4</ele>
        <time>2025-02-26T13:20:49Z</time>
      </trkpt>
      <trkpt lat="48.04974" lon="-3.47868">
        <ele>109.3</ele>
        <time>2025-02-26T13:20:50Z</time>
      </trkpt>
      <trkpt lat="48.04974" lon="-3.47869">
        <ele>109.3</ele>
        <time>2025-02-26T13:20:51Z</time>
      </trkpt>
      <trkpt lat="48.04973" lon="-3.47871">
        <ele>109.1</ele>
        <time>2025-02-26T13:20:52Z</time>
      </trkpt>
      <trkpt lat="48.04972" lon="-3.47872">
        <ele>109.1</ele>
        <time>2025-02-26T13:20:53Z</time>
      </trkpt>
      <trkpt lat="48.04971" lon="-3.47873">
        <ele>109.2</ele>
        <time>2025-02-26T13:20:54Z</time>
      </trkpt>
      <trkpt lat="48.04971" lon="-3.47874">
        <ele>109.4</ele>
        <time>2025-02-26T13:20:55Z</time>
      </trkpt>
      <trkpt lat="48.04969" lon="-3.47875">
        <ele>109.3</ele>
        <time>2025-02-26T13:20:56Z</time>
      </trkpt>
      <trkpt lat="48.04969" lon="-3.47877">
        <ele>109.4</ele>
        <time>2025-02-26T13:20:57Z</time>
      </trkpt>
      <trkpt lat="48.04968" lon="-3.47878">
        <ele>109.5</ele>
        <time>2025-02-26T13:20:58Z</time>
      </trkpt>
      <trkpt lat="48.04967" lon="-3.47879">
        <ele>109.5</ele>
        <time>2025-02-26T13:20:59Z</time>
      </trkpt>
      <trkpt lat="48.04966" lon="-3.4788">
        <ele>109.5</ele>
        <time>2025-02-26T13:21:00Z</time>
      </trkpt>
      <trkpt lat="48.04965" lon="-3.47881">
        <ele>109.5</ele>
        <time>2025-02-26T13:21:01Z</time>
      </trkpt>
      <trkpt lat="48.04965" lon="-3.47882">
        <ele>109.5</ele>
        <time>2025-02-26T13:21:02Z</time>
      </trkpt>
      <trkpt lat="48.04964" lon="-3.47884">
        <ele>109.6</ele>
        <time>2025-02-26T13:21:03Z</time>
      </trkpt>
      <trkpt lat="48.04964" lon="-3.47886">
        <ele>109.7</ele>
        <time>2025-02-26T13:21:04Z</time>
      </trkpt>
      <trkpt lat="48.04964" lon="-3.47887">
        <ele>109.7</ele>
        <time>2025-02-26T13:21:05Z</time>
      </trkpt>
      <trkpt lat="48.04963" lon="-3.47888">
        <ele>109.6</ele>
        <time>2025-02-26T13:21:06Z</time>
      </trkpt>
      <trkpt lat="48.04962" lon="-3.47889">
        <ele>109.6</ele>
        <time>2025-02-26T13:21:07Z</time>
      </trkpt>
      <trkpt lat="48.04962" lon="-3.47892">
        <ele>109.7</ele>
        <time>2025-02-26T13:21:08Z</time>
      </trkpt>
      <trkpt lat="48.04961" lon="-3.47893">
        <ele>109.7</ele>
        <time>2025-02-26T13:21:09Z</time>
      </trkpt>
      <trkpt lat="48.04961" lon="-3.47895">
        <ele>109.8</ele>
        <time>2025-02-26T13:21:10Z</time>
      </trkpt>
      <trkpt lat="48.04961" lon="-3.47896">
        <ele>109.8</ele>
        <time>2025-02-26T13:21:11Z</time>
      </trkpt>
      <trkpt lat="48.0496" lon="-3.47898">
        <ele>109.8</ele>
        <time>2025-02-26T13:21:12Z</time>
      </trkpt>
      <trkpt lat="48.04959" lon="-3.47899">
        <ele>109.7</ele>
        <time>2025-02-26T13:21:13Z</time>
      </trkpt>
      <trkpt lat="48.04959" lon="-3.479">
        <ele>109.6</ele>
        <time>2025-02-26T13:21:14Z</time>
      </trkpt>
      <trkpt lat="48.04958" lon="-3.47901">
        <ele>109.5</ele>
        <time>2025-02-26T13:21:15Z</time>
      </trkpt>
      <trkpt lat="48.04957" lon="-3.47903">
        <ele>109.4</ele>
        <time>2025-02-26T13:21:16Z</time>
      </trkpt>
      <trkpt lat="48.04956" lon="-3.47904">
        <ele>109.2</ele>
        <time>2025-02-26T13:21:17Z</time>
      </trkpt>
      <trkpt lat="48.04955" lon="-3.47904">
        <ele>109</ele>
        <time>2025-02-26T13:21:18Z</time>
      </trkpt>
      <trkpt lat="48.04953" lon="-3.47905">
        <ele>108.8</ele>
        <time>2025-02-26T13:21:19Z</time>
      </trkpt>
      <trkpt lat="48.04952" lon="-3.47906">
        <ele>108.6</ele>
        <time>2025-02-26T13:21:20Z</time>
      </trkpt>
      <trkpt lat="48.04951" lon="-3.47908">
        <ele>108.5</ele>
        <time>2025-02-26T13:21:21Z</time>
      </trkpt>
      <trkpt lat="48.04951" lon="-3.47909">
        <ele>108.5</ele>
        <time>2025-02-26T13:21:22Z</time>
      </trkpt>
      <trkpt lat="48.04951" lon="-3.47911">
        <ele>108.4</ele>
        <time>2025-02-26T13:21:23Z</time>
      </trkpt>
      <trkpt lat="48.0495" lon="-3.47912">
        <ele>108.2</ele>
        <time>2025-02-26T13:21:24Z</time>
      </trkpt>
      <trkpt lat="48.04949" lon="-3.47913">
        <ele>108.1</ele>
        <time>2025-02-26T13:21:25Z</time>
      </trkpt>
      <trkpt lat="48.04948" lon="-3.47915">
        <ele>108</ele>
        <time>2025-02-26T13:21:26Z</time>
      </trkpt>
      <trkpt lat="48.04948" lon="-3.47916">
        <ele>107.8</ele>
        <time>2025-02-26T13:21:27Z</time>
      </trkpt>
      <trkpt lat="48.04947" lon="-3.47917">
        <ele>107.7</ele>
        <time>2025-02-26T13:21:28Z</time>
      </trkpt>
      <trkpt lat="48.04947" lon="-3.47919">
        <ele>107.7</ele>
        <time>2025-02-26T13:21:29Z</time>
      </trkpt>
      <trkpt lat="48.04946" lon="-3.4792">
        <ele>107.6</ele>
        <time>2025-02-26T13:21:30Z</time>
      </trkpt>
      <trkpt lat="48.04945" lon="-3.47921">
        <ele>107.5</ele>
        <time>2025-02-26T13:21:31Z</time>
      </trkpt>
      <trkpt lat="48.04944" lon="-3.47922">
        <ele>107.4</ele>
        <time>2025-02-26T13:21:32Z</time>
      </trkpt>
      <trkpt lat="48.04943" lon="-3.47924">
        <ele>107.5</ele>
        <time>2025-02-26T13:21:33Z</time>
      </trkpt>
      <trkpt lat="48.04942" lon="-3.47925">
        <ele>107.5</ele>
        <time>2025-02-26T13:21:34Z</time>
      </trkpt>
      <trkpt lat="48.04942" lon="-3.47926">
        <ele>107.6</ele>
        <time>2025-02-26T13:21:35Z</time>
      </trkpt>
      <trkpt lat="48.04941" lon="-3.47927">
        <ele>107.6</ele>
        <time>2025-02-26T13:21:36Z</time>
      </trkpt>
      <trkpt lat="48.0494" lon="-3.47928">
        <ele>107.6</ele>
        <time>2025-02-26T13:21:37Z</time>
      </trkpt>
      <trkpt lat="48.04939" lon="-3.47929">
        <ele>107.6</ele>
        <time>2025-02-26T13:21:38Z</time>
      </trkpt>
      <trkpt lat="48.04938" lon="-3.47931">
        <ele>107.7</ele>
        <time>2025-02-26T13:21:39Z</time>
      </trkpt>
      <trkpt lat="48.04938" lon="-3.47932">
        <ele>107.7</ele>
        <time>2025-02-26T13:21:40Z</time>
      </trkpt>
      <trkpt lat="48.04936" lon="-3.47932">
        <ele>107.6</ele>
        <time>2025-02-26T13:21:41Z</time>
      </trkpt>
      <trkpt lat="48.04935" lon="-3.47933">
        <ele>107.6</ele>
        <time>2025-02-26T13:21:42Z</time>
      </trkpt>
      <trkpt lat="48.04933" lon="-3.47932">
        <ele>107.4</ele>
        <time>2025-02-26T13:21:43Z</time>
      </trkpt>
      <trkpt lat="48.04932" lon="-3.47934">
        <ele>107.4</ele>
        <time>2025-02-26T13:21:44Z</time>
      </trkpt>
      <trkpt lat="48.04931" lon="-3.47935">
        <ele>107.4</ele>
        <time>2025-02-26T13:21:45Z</time>
      </trkpt>
      <trkpt lat="48.0493" lon="-3.47936">
        <ele>107.3</ele>
        <time>2025-02-26T13:21:46Z</time>
      </trkpt>
      <trkpt lat="48.0493" lon="-3.47937">
        <ele>107.3</ele>
        <time>2025-02-26T13:21:47Z</time>
      </trkpt>
      <trkpt lat="48.04928" lon="-3.47938">
        <ele>107.2</ele>
        <time>2025-02-26T13:21:48Z</time>
      </trkpt>
      <trkpt lat="48.04928" lon="-3.47939">
        <ele>107.1</ele>
        <time>2025-02-26T13:21:49Z</time>
      </trkpt>
      <trkpt lat="48.04926" lon="-3.4794">
        <ele>107</ele>
        <time>2025-02-26T13:21:50Z</time>
      </trkpt>
      <trkpt lat="48.04925" lon="-3.47939">
        <ele>106.9</ele>
        <time>2025-02-26T13:21:51Z</time>
      </trkpt>
      <trkpt lat="48.04923" lon="-3.4794">
        <ele>106.8</ele>
        <time>2025-02-26T13:21:52Z</time>
      </trkpt>
      <trkpt lat="48.04922" lon="-3.47941">
        <ele>106.6</ele>
        <time>2025-02-26T13:21:53Z</time>
      </trkpt>
      <trkpt lat="48.04921" lon="-3.47942">
        <ele>106.5</ele>
        <time>2025-02-26T13:21:54Z</time>
      </trkpt>
      <trkpt lat="48.0492" lon="-3.47942">
        <ele>106.4</ele>
        <time>2025-02-26T13:21:55Z</time>
      </trkpt>
      <trkpt lat="48.04919" lon="-3.47943">
        <ele>106.3</ele>
        <time>2025-02-26T13:21:56Z</time>
      </trkpt>
      <trkpt lat="48.04917" lon="-3.47943">
        <ele>106.1</ele>
        <time>2025-02-26T13:21:57Z</time>
      </trkpt>
      <trkpt lat="48.04916" lon="-3.47943">
        <ele>106</ele>
        <time>2025-02-26T13:21:58Z</time>
      </trkpt>
      <trkpt lat="48.04915" lon="-3.47943">
        <ele>106</ele>
        <time>2025-02-26T13:21:59Z</time>
      </trkpt>
      <trkpt lat="48.04914" lon="-3.47944">
        <ele>106</ele>
        <time>2025-02-26T13:22:00Z</time>
      </trkpt>
      <trkpt lat="48.04913" lon="-3.47944">
        <ele>106</ele>
        <time>2025-02-26T13:22:01Z</time>
      </trkpt>
      <trkpt lat="48.04912" lon="-3.47943">
        <ele>106.1</ele>
        <time>2025-02-26T13:22:02Z</time>
      </trkpt>
      <trkpt lat="48.04911" lon="-3.47942">
        <ele>106.1</ele>
        <time>2025-02-26T13:22:03Z</time>
      </trkpt>
      <trkpt lat="48.0491" lon="-3.47943">
        <ele>106.1</ele>
        <time>2025-02-26T13:22:04Z</time>
      </trkpt>
      <trkpt lat="48.04909" lon="-3.47943">
        <ele>106.1</ele>
        <time>2025-02-26T13:22:05Z</time>
      </trkpt>
      <trkpt lat="48.04908" lon="-3.47945">
        <ele>106</ele>
        <time>2025-02-26T13:22:06Z</time>
      </trkpt>
      <trkpt lat="48.04907" lon="-3.47945">
        <ele>106</ele>
        <time>2025-02-26T13:22:07Z</time>
      </trkpt>
      <trkpt lat="48.04906" lon="-3.47947">
        <ele>106</ele>
        <time>2025-02-26T13:22:08Z</time>
      </trkpt>
      <trkpt lat="48.04906" lon="-3.47948">
        <ele>106</ele>
        <time>2025-02-26T13:22:09Z</time>
      </trkpt>
      <trkpt lat="48.04905" lon="-3.47949">
        <ele>106</ele>
        <time>2025-02-26T13:22:10Z</time>
      </trkpt>
      <trkpt lat="48.04904" lon="-3.4795">
        <ele>105.9</ele>
        <time>2025-02-26T13:22:11Z</time>
      </trkpt>
      <trkpt lat="48.04904" lon="-3.4795">
        <ele>105.9</ele>
        <time>2025-02-26T13:22:12Z</time>
      </trkpt>
      <trkpt lat="48.04903" lon="-3.47951">
        <ele>105.9</ele>
        <time>2025-02-26T13:22:13Z</time>
      </trkpt>
      <trkpt lat="48.04903" lon="-3.47952">
        <ele>105.9</ele>
        <time>2025-02-26T13:22:14Z</time>
      </trkpt>
      <trkpt lat="48.04903" lon="-3.47953">
        <ele>105.8</ele>
        <time>2025-02-26T13:22:15Z</time>
      </trkpt>
      <trkpt lat="48.04902" lon="-3.47954">
        <ele>105.8</ele>
        <time>2025-02-26T13:22:16Z</time>
      </trkpt>
      <trkpt lat="48.04903" lon="-3.47954">
        <ele>105.8</ele>
        <time>2025-02-26T13:22:17Z</time>
      </trkpt>
      <trkpt lat="48.04902" lon="-3.47955">
        <ele>105.8</ele>
        <time>2025-02-26T13:22:18Z</time>
      </trkpt>
      <trkpt lat="48.04901" lon="-3.47955">
        <ele>105.7</ele>
        <time>2025-02-26T13:22:19Z</time>
      </trkpt>
      <trkpt lat="48.049" lon="-3.47956">
        <ele>105.7</ele>
        <time>2025-02-26T13:22:20Z</time>
      </trkpt>
      <trkpt lat="48.04899" lon="-3.47956">
        <ele>105.6</ele>
        <time>2025-02-26T13:22:21Z</time>
      </trkpt>
      <trkpt lat="48.04898" lon="-3.47957">
        <ele>105.6</ele>
        <time>2025-02-26T13:22:22Z</time>
      </trkpt>
      <trkpt lat="48.04897" lon="-3.47957">
        <ele>105.5</ele>
        <time>2025-02-26T13:22:23Z</time>
      </trkpt>
      <trkpt lat="48.04896" lon="-3.47957">
        <ele>105.4</ele>
        <time>2025-02-26T13:22:24Z</time>
      </trkpt>
      <trkpt lat="48.04895" lon="-3.47957">
        <ele>105.4</ele>
        <time>2025-02-26T13:22:25Z</time>
      </trkpt>
      <trkpt lat="48.04894" lon="-3.47957">
        <ele>105.3</ele>
        <time>2025-02-26T13:22:26Z</time>
      </trkpt>
      <trkpt lat="48.04893" lon="-3.47958">
        <ele>105.3</ele>
        <time>2025-02-26T13:22:27Z</time>
      </trkpt>
      <trkpt lat="48.04893" lon="-3.47959">
        <ele>105.2</ele>
        <time>2025-02-26T13:22:28Z</time>
      </trkpt>
      <trkpt lat="48.04892" lon="-3.4796">
        <ele>105.1</ele>
        <time>2025-02-26T13:22:29Z</time>
      </trkpt>
      <trkpt lat="48.04891" lon="-3.4796">
        <ele>105</ele>
        <time>2025-02-26T13:22:30Z</time>
      </trkpt>
      <trkpt lat="48.0489" lon="-3.4796">
        <ele>104.9</ele>
        <time>2025-02-26T13:22:31Z</time>
      </trkpt>
      <trkpt lat="48.04889" lon="-3.47961">
        <ele>104.8</ele>
        <time>2025-02-26T13:22:32Z</time>
      </trkpt>
      <trkpt lat="48.04889" lon="-3.47962">
        <ele>104.8</ele>
        <time>2025-02-26T13:22:33Z</time>
      </trkpt>
      <trkpt lat="48.04889" lon="-3.47962">
        <ele>104.7</ele>
        <time>2025-02-26T13:22:34Z</time>
      </trkpt>
      <trkpt lat="48.04889" lon="-3.47963">
        <ele>104.6</ele>
        <time>2025-02-26T13:22:35Z</time>
      </trkpt>
      <trkpt lat="48.04888" lon="-3.47964">
        <ele>104.6</ele>
        <time>2025-02-26T13:22:36Z</time>
      </trkpt>
      <trkpt lat="48.04888" lon="-3.47964">
        <ele>104.6</ele>
        <time>2025-02-26T13:22:37Z</time>
      </trkpt>
      <trkpt lat="48.04888" lon="-3.47965">
        <ele>104.6</ele>
        <time>2025-02-26T13:22:38Z</time>
      </trkpt>
      <trkpt lat="48.04888" lon="-3.47965">
        <ele>104.5</ele>
        <time>2025-02-26T13:22:39Z</time>
      </trkpt>
      <trkpt lat="48.04888" lon="-3.47965">
        <ele>104.5</ele>
        <time>2025-02-26T13:22:40Z</time>
      </trkpt>
      <trkpt lat="48.04888" lon="-3.47966">
        <ele>104.5</ele>
        <time>2025-02-26T13:22:41Z</time>
      </trkpt>
      <trkpt lat="48.04888" lon="-3.47966">
        <ele>104.5</ele>
        <time>2025-02-26T13:22:42Z</time>
      </trkpt>
      <trkpt lat="48.04887" lon="-3.47966">
        <ele>104.5</ele>
        <time>2025-02-26T13:22:43Z</time>
      </trkpt>
      <trkpt lat="48.04887" lon="-3.47967">
        <ele>104.4</ele>
        <time>2025-02-26T13:22:44Z</time>
      </trkpt>
      <trkpt lat="48.04886" lon="-3.47967">
        <ele>104.4</ele>
        <time>2025-02-26T13:22:45Z</time>
      </trkpt>
      <trkpt lat="48.04885" lon="-3.47968">
        <ele>104.4</ele>
        <time>2025-02-26T13:22:46Z</time>
      </trkpt>
      <trkpt lat="48.04884" lon="-3.47967">
        <ele>104.5</ele>
        <time>2025-02-26T13:22:47Z</time>
      </trkpt>
      <trkpt lat="48.04883" lon="-3.47966">
        <ele>104.5</ele>
        <time>2025-02-26T13:22:48Z</time>
      </trkpt>
      <trkpt lat="48.04882" lon="-3.47967">
        <ele>104.5</ele>
        <time>2025-02-26T13:22:49Z</time>
      </trkpt>
      <trkpt lat="48.0488" lon="-3.47967">
        <ele>104.5</ele>
        <time>2025-02-26T13:22:50Z</time>
      </trkpt>
      <trkpt lat="48.0488" lon="-3.47968">
        <ele>104.4</ele>
        <time>2025-02-26T13:22:51Z</time>
      </trkpt>
      <trkpt lat="48.0488" lon="-3.47969">
        <ele>104.3</ele>
        <time>2025-02-26T13:22:52Z</time>
      </trkpt>
      <trkpt lat="48.04879" lon="-3.4797">
        <ele>104.2</ele>
        <time>2025-02-26T13:22:53Z</time>
      </trkpt>
      <trkpt lat="48.04878" lon="-3.4797">
        <ele>104.2</ele>
        <time>2025-02-26T13:22:54Z</time>
      </trkpt>
      <trkpt lat="48.04878" lon="-3.4797">
        <ele>104.2</ele>
        <time>2025-02-26T13:22:55Z</time>
      </trkpt>
      <trkpt lat="48.04877" lon="-3.4797">
        <ele>104.2</ele>
        <time>2025-02-26T13:22:56Z</time>
      </trkpt>
      <trkpt lat="48.04877" lon="-3.47971">
        <ele>104.1</ele>
        <time>2025-02-26T13:22:57Z</time>
      </trkpt>
      <trkpt lat="48.04877" lon="-3.47973">
        <ele>104</ele>
        <time>2025-02-26T13:22:58Z</time>
      </trkpt>
      <trkpt lat="48.04876" lon="-3.47972">
        <ele>104.1</ele>
        <time>2025-02-26T13:22:59Z</time>
      </trkpt>
      <trkpt lat="48.04876" lon="-3.47971">
        <ele>104.2</ele>
        <time>2025-02-26T13:23:00Z</time>
      </trkpt>
      <trkpt lat="48.04875" lon="-3.4797">
        <ele>104.2</ele>
        <time>2025-02-26T13:23:01Z</time>
      </trkpt>
      <trkpt lat="48.04873" lon="-3.47972">
        <ele>104</ele>
        <time>2025-02-26T13:23:02Z</time>
      </trkpt>
      <trkpt lat="48.04873" lon="-3.47973">
        <ele>104.1</ele>
        <time>2025-02-26T13:23:03Z</time>
      </trkpt>
      <trkpt lat="48.04872" lon="-3.47974">
        <ele>104.2</ele>
        <time>2025-02-26T13:23:04Z</time>
      </trkpt>
      <trkpt lat="48.04871" lon="-3.47974">
        <ele>104.1</ele>
        <time>2025-02-26T13:23:05Z</time>
      </trkpt>
      <trkpt lat="48.04871" lon="-3.47973">
        <ele>104.1</ele>
        <time>2025-02-26T13:23:06Z</time>
      </trkpt>
      <trkpt lat="48.0487" lon="-3.47973">
        <ele>104</ele>
        <time>2025-02-26T13:23:07Z</time>
      </trkpt>
      <trkpt lat="48.04869" lon="-3.47973">
        <ele>104</ele>
        <time>2025-02-26T13:23:08Z</time>
      </trkpt>
      <trkpt lat="48.04868" lon="-3.47973">
        <ele>104</ele>
        <time>2025-02-26T13:23:09Z</time>
      </trkpt>
      <trkpt lat="48.04866" lon="-3.47974">
        <ele>104.1</ele>
        <time>2025-02-26T13:23:10Z</time>
      </trkpt>
      <trkpt lat="48.04865" lon="-3.47975">
        <ele>104.1</ele>
        <time>2025-02-26T13:23:11Z</time>
      </trkpt>
      <trkpt lat="48.04865" lon="-3.47976">
        <ele>104.2</ele>
        <time>2025-02-26T13:23:12Z</time>
      </trkpt>
      <trkpt lat="48.04864" lon="-3.47977">
        <ele>104.2</ele>
        <time>2025-02-26T13:23:13Z</time>
      </trkpt>
      <trkpt lat="48.04863" lon="-3.47977">
        <ele>104.2</ele>
        <time>2025-02-26T13:23:14Z</time>
      </trkpt>
      <trkpt lat="48.04862" lon="-3.47977">
        <ele>104.2</ele>
        <time>2025-02-26T13:23:15Z</time>
      </trkpt>
      <trkpt lat="48.04862" lon="-3.47976">
        <ele>104.1</ele>
        <time>2025-02-26T13:23:16Z</time>
      </trkpt>
      <trkpt lat="48.04866" lon="-3.47973">
        <ele>104.1</ele>
        <time>2025-02-26T13:23:17Z</time>
      </trkpt>
      <trkpt lat="48.04867" lon="-3.47973">
        <ele>104</ele>
        <time>2025-02-26T13:23:18Z</time>
      </trkpt>
      <trkpt lat="48.04867" lon="-3.47972">
        <ele>104.1</ele>
        <time>2025-02-26T13:23:19Z</time>
      </trkpt>
      <trkpt lat="48.04863" lon="-3.47973">
        <ele>104</ele>
        <time>2025-02-26T13:23:20Z</time>
      </trkpt>
      <trkpt lat="48.0486" lon="-3.47975">
        <ele>104.1</ele>
        <time>2025-02-26T13:23:21Z</time>
      </trkpt>
      <trkpt lat="48.0486" lon="-3.47975">
        <ele>104.1</ele>
        <time>2025-02-26T13:23:22Z</time>
      </trkpt>
      <trkpt lat="48.04859" lon="-3.47979">
        <ele>104.2</ele>
        <time>2025-02-26T13:23:23Z</time>
      </trkpt>
      <trkpt lat="48.0486" lon="-3.47978">
        <ele>104.2</ele>
        <time>2025-02-26T13:23:24Z</time>
      </trkpt>
      <trkpt lat="48.0486" lon="-3.47978">
        <ele>104.2</ele>
        <time>2025-02-26T13:23:25Z</time>
      </trkpt>
      <trkpt lat="48.0486" lon="-3.47978">
        <ele>104.2</ele>
        <time>2025-02-26T13:23:26Z</time>
      </trkpt>
      <trkpt lat="48.04861" lon="-3.47976">
        <ele>104.1</ele>
        <time>2025-02-26T13:23:27Z</time>
      </trkpt>
      <trkpt lat="48.04861" lon="-3.47975">
        <ele>104.1</ele>
        <time>2025-02-26T13:23:28Z</time>
      </trkpt>
      <trkpt lat="48.04861" lon="-3.47975">
        <ele>104.1</ele>
        <time>2025-02-26T13:23:29Z</time>
      </trkpt>
      <trkpt lat="48.0486" lon="-3.47974">
        <ele>104.1</ele>
        <time>2025-02-26T13:23:30Z</time>
      </trkpt>
      <trkpt lat="48.04858" lon="-3.47976">
        <ele>104.1</ele>
        <time>2025-02-26T13:23:31Z</time>
      </trkpt>
      <trkpt lat="48.04857" lon="-3.47978">
        <ele>104.1</ele>
        <time>2025-02-26T13:23:32Z</time>
      </trkpt>
      <trkpt lat="48.04857" lon="-3.47979">
        <ele>104.2</ele>
        <time>2025-02-26T13:23:33Z</time>
      </trkpt>
      <trkpt lat="48.04857" lon="-3.47981">
        <ele>104.2</ele>
        <time>2025-02-26T13:23:34Z</time>
      </trkpt>
      <trkpt lat="48.04856" lon="-3.47982">
        <ele>104.2</ele>
        <time>2025-02-26T13:23:35Z</time>
      </trkpt>
      <trkpt lat="48.04856" lon="-3.47983">
        <ele>104.2</ele>
        <time>2025-02-26T13:23:36Z</time>
      </trkpt>
      <trkpt lat="48.04854" lon="-3.47983">
        <ele>104.2</ele>
        <time>2025-02-26T13:23:37Z</time>
      </trkpt>
      <trkpt lat="48.04853" lon="-3.47984">
        <ele>104.2</ele>
        <time>2025-02-26T13:23:38Z</time>
      </trkpt>
      <trkpt lat="48.04853" lon="-3.47984">
        <ele>104.2</ele>
        <time>2025-02-26T13:23:39Z</time>
      </trkpt>
      <trkpt lat="48.04853" lon="-3.47985">
        <ele>104.2</ele>
        <time>2025-02-26T13:23:40Z</time>
      </trkpt>
      <trkpt lat="48.04852" lon="-3.47984">
        <ele>104.1</ele>
        <time>2025-02-26T13:23:41Z</time>
      </trkpt>
      <trkpt lat="48.04851" lon="-3.47985">
        <ele>104.1</ele>
        <time>2025-02-26T13:23:42Z</time>
      </trkpt>
      <trkpt lat="48.04851" lon="-3.47986">
        <ele>104.1</ele>
        <time>2025-02-26T13:23:43Z</time>
      </trkpt>
      <trkpt lat="48.0485" lon="-3.47987">
        <ele>104.1</ele>
        <time>2025-02-26T13:23:44Z</time>
      </trkpt>
      <trkpt lat="48.0485" lon="-3.47988">
        <ele>104.1</ele>
        <time>2025-02-26T13:23:45Z</time>
      </trkpt>
      <trkpt lat="48.04849" lon="-3.4799">
        <ele>104.1</ele>
        <time>2025-02-26T13:23:46Z</time>
      </trkpt>
      <trkpt lat="48.04849" lon="-3.4799">
        <ele>104.1</ele>
        <time>2025-02-26T13:23:47Z</time>
      </trkpt>
      <trkpt lat="48.04848" lon="-3.47991">
        <ele>104</ele>
        <time>2025-02-26T13:23:48Z</time>
      </trkpt>
      <trkpt lat="48.04847" lon="-3.4799">
        <ele>104</ele>
        <time>2025-02-26T13:23:49Z</time>
      </trkpt>
      <trkpt lat="48.04846" lon="-3.47989">
        <ele>104</ele>
        <time>2025-02-26T13:23:50Z</time>
      </trkpt>
      <trkpt lat="48.04846" lon="-3.47988">
        <ele>104</ele>
        <time>2025-02-26T13:23:51Z</time>
      </trkpt>
      <trkpt lat="48.04845" lon="-3.47988">
        <ele>103.9</ele>
        <time>2025-02-26T13:23:52Z</time>
      </trkpt>
      <trkpt lat="48.04845" lon="-3.47988">
        <ele>103.9</ele>
        <time>2025-02-26T13:23:53Z</time>
      </trkpt>
      <trkpt lat="48.04844" lon="-3.47987">
        <ele>103.9</ele>
        <time>2025-02-26T13:23:54Z</time>
      </trkpt>
      <trkpt lat="48.04843" lon="-3.47986">
        <ele>103.8</ele>
        <time>2025-02-26T13:23:55Z</time>
      </trkpt>
      <trkpt lat="48.04843" lon="-3.47987">
        <ele>103.8</ele>
        <time>2025-02-26T13:23:56Z</time>
      </trkpt>
      <trkpt lat="48.04843" lon="-3.47988">
        <ele>103.8</ele>
        <time>2025-02-26T13:23:57Z</time>
      </trkpt>
      <trkpt lat="48.04842" lon="-3.4799">
        <ele>103.8</ele>
        <time>2025-02-26T13:23:58Z</time>
      </trkpt>
      <trkpt lat="48.04841" lon="-3.47991">
        <ele>103.7</ele>
        <time>2025-02-26T13:23:59Z</time>
      </trkpt>
      <trkpt lat="48.0484" lon="-3.47992">
        <ele>103.6</ele>
        <time>2025-02-26T13:24:00Z</time>
      </trkpt>
      <trkpt lat="48.04839" lon="-3.47992">
        <ele>103.6</ele>
        <time>2025-02-26T13:24:01Z</time>
      </trkpt>
      <trkpt lat="48.04838" lon="-3.47992">
        <ele>103.5</ele>
        <time>2025-02-26T13:24:02Z</time>
      </trkpt>
      <trkpt lat="48.04837" lon="-3.47994">
        <ele>103.4</ele>
        <time>2025-02-26T13:24:03Z</time>
      </trkpt>
      <trkpt lat="48.04837" lon="-3.47995">
        <ele>103.4</ele>
        <time>2025-02-26T13:24:04Z</time>
      </trkpt>
      <trkpt lat="48.04837" lon="-3.47996">
        <ele>103.4</ele>
        <time>2025-02-26T13:24:05Z</time>
      </trkpt>
      <trkpt lat="48.04836" lon="-3.47996">
        <ele>103.3</ele>
        <time>2025-02-26T13:24:06Z</time>
      </trkpt>
      <trkpt lat="48.04836" lon="-3.47996">
        <ele>103.3</ele>
        <time>2025-02-26T13:24:07Z</time>
      </trkpt>
      <trkpt lat="48.04835" lon="-3.47998">
        <ele>103.2</ele>
        <time>2025-02-26T13:24:08Z</time>
      </trkpt>
      <trkpt lat="48.04835" lon="-3.47999">
        <ele>103.1</ele>
        <time>2025-02-26T13:24:09Z</time>
      </trkpt>
      <trkpt lat="48.04835" lon="-3.48">
        <ele>103.1</ele>
        <time>2025-02-26T13:24:10Z</time>
      </trkpt>
      <trkpt lat="48.04835" lon="-3.48002">
        <ele>103.2</ele>
        <time>2025-02-26T13:24:11Z</time>
      </trkpt>
      <trkpt lat="48.04835" lon="-3.48003">
        <ele>103.3</ele>
        <time>2025-02-26T13:24:12Z</time>
      </trkpt>
      <trkpt lat="48.04834" lon="-3.48004">
        <ele>103.3</ele>
        <time>2025-02-26T13:24:13Z</time>
      </trkpt>
      <trkpt lat="48.04833" lon="-3.48005">
        <ele>103.3</ele>
        <time>2025-02-26T13:24:14Z</time>
      </trkpt>
      <trkpt lat="48.04832" lon="-3.48005">
        <ele>103.3</ele>
        <time>2025-02-26T13:24:15Z</time>
      </trkpt>
      <trkpt lat="48.04832" lon="-3.48007">
        <ele>103.4</ele>
        <time>2025-02-26T13:24:16Z</time>
      </trkpt>
      <trkpt lat="48.04831" lon="-3.48009">
        <ele>103.5</ele>
        <time>2025-02-26T13:24:17Z</time>
      </trkpt>
      <trkpt lat="48.04831" lon="-3.48011">
        <ele>103.6</ele>
        <time>2025-02-26T13:24:18Z</time>
      </trkpt>
      <trkpt lat="48.0483" lon="-3.48012">
        <ele>103.6</ele>
        <time>2025-02-26T13:24:19Z</time>
      </trkpt>
      <trkpt lat="48.04829" lon="-3.48014">
        <ele>103.7</ele>
        <time>2025-02-26T13:24:20Z</time>
      </trkpt>
      <trkpt lat="48.04828" lon="-3.48015">
        <ele>103.7</ele>
        <time>2025-02-26T13:24:21Z</time>
      </trkpt>
      <trkpt lat="48.04827" lon="-3.48016">
        <ele>103.7</ele>
        <time>2025-02-26T13:24:22Z</time>
      </trkpt>
      <trkpt lat="48.04828" lon="-3.48018">
        <ele>103.8</ele>
        <time>2025-02-26T13:24:23Z</time>
      </trkpt>
      <trkpt lat="48.04827" lon="-3.48019">
        <ele>103.8</ele>
        <time>2025-02-26T13:24:24Z</time>
      </trkpt>
      <trkpt lat="48.04826" lon="-3.48019">
        <ele>103.8</ele>
        <time>2025-02-26T13:24:25Z</time>
      </trkpt>
      <trkpt lat="48.04826" lon="-3.48019">
        <ele>103.7</ele>
        <time>2025-02-26T13:24:26Z</time>
      </trkpt>
      <trkpt lat="48.04825" lon="-3.48019">
        <ele>103.6</ele>
        <time>2025-02-26T13:24:27Z</time>
      </trkpt>
      <trkpt lat="48.04824" lon="-3.48019">
        <ele>103.6</ele>
        <time>2025-02-26T13:24:28Z</time>
      </trkpt>
      <trkpt lat="48.04825" lon="-3.48016">
        <ele>103.5</ele>
        <time>2025-02-26T13:24:29Z</time>
      </trkpt>
      <trkpt lat="48.04825" lon="-3.48015">
        <ele>103.5</ele>
        <time>2025-02-26T13:24:30Z</time>
      </trkpt>
      <trkpt lat="48.04826" lon="-3.48015">
        <ele>103.5</ele>
        <time>2025-02-26T13:24:31Z</time>
      </trkpt>
      <trkpt lat="48.04826" lon="-3.48015">
        <ele>103.5</ele>
        <time>2025-02-26T13:24:32Z</time>
      </trkpt>
      <trkpt lat="48.04826" lon="-3.48015">
        <ele>103.5</ele>
        <time>2025-02-26T13:24:33Z</time>
      </trkpt>
      <trkpt lat="48.04826" lon="-3.48015">
        <ele>103.5</ele>
        <time>2025-02-26T13:24:34Z</time>
      </trkpt>
      <trkpt lat="48.04826" lon="-3.48015">
        <ele>103.5</ele>
        <time>2025-02-26T13:24:35Z</time>
      </trkpt>
      <trkpt lat="48.04826" lon="-3.48015">
        <ele>103.5</ele>
        <time>2025-02-26T13:24:36Z</time>
      </trkpt>
      <trkpt lat="48.04826" lon="-3.48015">
        <ele>103.5</ele>
        <time>2025-02-26T13:24:37Z</time>
      </trkpt>
      <trkpt lat="48.04826" lon="-3.48014">
        <ele>103.5</ele>
        <time>2025-02-26T13:24:38Z</time>
      </trkpt>
      <trkpt lat="48.04826" lon="-3.48014">
        <ele>103.5</ele>
        <time>2025-02-26T13:24:39Z</time>
      </trkpt>
      <trkpt lat="48.04826" lon="-3.48014">
        <ele>103.5</ele>
        <time>2025-02-26T13:24:40Z</time>
      </trkpt>
      <trkpt lat="48.04826" lon="-3.48014">
        <ele>103.5</ele>
        <time>2025-02-26T13:24:41Z</time>
      </trkpt>
      <trkpt lat="48.04825" lon="-3.48014">
        <ele>103.5</ele>
        <time>2025-02-26T13:24:42Z</time>
      </trkpt>
      <trkpt lat="48.04825" lon="-3.48014">
        <ele>103.5</ele>
        <time>2025-02-26T13:24:43Z</time>
      </trkpt>
      <trkpt lat="48.04825" lon="-3.48014">
        <ele>103.5</ele>
        <time>2025-02-26T13:24:44Z</time>
      </trkpt>
      <trkpt lat="48.04825" lon="-3.48014">
        <ele>103.5</ele>
        <time>2025-02-26T13:24:45Z</time>
      </trkpt>
      <trkpt lat="48.04825" lon="-3.48014">
        <ele>103.5</ele>
        <time>2025-02-26T13:24:46Z</time>
      </trkpt>
      <trkpt lat="48.04825" lon="-3.48014">
        <ele>103.5</ele>
        <time>2025-02-26T13:24:47Z</time>
      </trkpt>
      <trkpt lat="48.04825" lon="-3.48014">
        <ele>103.5</ele>
        <time>2025-02-26T13:24:48Z</time>
      </trkpt>
      <trkpt lat="48.04825" lon="-3.48014">
        <ele>103.5</ele>
        <time>2025-02-26T13:24:49Z</time>
      </trkpt>
      <trkpt lat="48.04825" lon="-3.48015">
        <ele>103.5</ele>
        <time>2025-02-26T13:24:50Z</time>
      </trkpt>
      <trkpt lat="48.04823" lon="-3.48014">
        <ele>103.3</ele>
        <time>2025-02-26T13:24:51Z</time>
      </trkpt>
      <trkpt lat="48.04821" lon="-3.48014">
        <ele>103.1</ele>
        <time>2025-02-26T13:24:52Z</time>
      </trkpt>
      <trkpt lat="48.04821" lon="-3.48013">
        <ele>103.1</ele>
        <time>2025-02-26T13:24:53Z</time>
      </trkpt>
      <trkpt lat="48.04822" lon="-3.48012">
        <ele>103.1</ele>
        <time>2025-02-26T13:24:54Z</time>
      </trkpt>
      <trkpt lat="48.04823" lon="-3.48012">
        <ele>103.1</ele>
        <time>2025-02-26T13:24:55Z</time>
      </trkpt>
      <trkpt lat="48.04823" lon="-3.48012">
        <ele>103.1</ele>
        <time>2025-02-26T13:24:56Z</time>
      </trkpt>
      <trkpt lat="48.04823" lon="-3.48012">
        <ele>103.1</ele>
        <time>2025-02-26T13:24:57Z</time>
      </trkpt>
      <trkpt lat="48.04823" lon="-3.48012">
        <ele>103.1</ele>
        <time>2025-02-26T13:24:58Z</time>
      </trkpt>
      <trkpt lat="48.04823" lon="-3.48011">
        <ele>103.1</ele>
        <time>2025-02-26T13:24:59Z</time>
      </trkpt>
      <trkpt lat="48.04823" lon="-3.48012">
        <ele>103.2</ele>
        <time>2025-02-26T13:25:00Z</time>
      </trkpt>
      <trkpt lat="48.04824" lon="-3.48012">
        <ele>103.2</ele>
        <time>2025-02-26T13:25:01Z</time>
      </trkpt>
      <trkpt lat="48.04824" lon="-3.48012">
        <ele>103.2</ele>
        <time>2025-02-26T13:25:02Z</time>
      </trkpt>
      <trkpt lat="48.04824" lon="-3.48012">
        <ele>103.2</ele>
        <time>2025-02-26T13:25:03Z</time>
      </trkpt>
      <trkpt lat="48.04824" lon="-3.48012">
        <ele>103.2</ele>
        <time>2025-02-26T13:25:04Z</time>
      </trkpt>
      <trkpt lat="48.04824" lon="-3.48012">
        <ele>103.2</ele>
        <time>2025-02-26T13:25:05Z</time>
      </trkpt>
      <trkpt lat="48.04824" lon="-3.48012">
        <ele>103.2</ele>
        <time>2025-02-26T13:25:06Z</time>
      </trkpt>
      <trkpt lat="48.04824" lon="-3.48012">
        <ele>103.2</ele>
        <time>2025-02-26T13:25:07Z</time>
      </trkpt>
      <trkpt lat="48.04824" lon="-3.48012">
        <ele>103.2</ele>
        <time>2025-02-26T13:25:08Z</time>
      </trkpt>
      <trkpt lat="48.04824" lon="-3.48012">
        <ele>103.2</ele>
        <time>2025-02-26T13:25:09Z</time>
      </trkpt>
      <trkpt lat="48.04824" lon="-3.48012">
        <ele>103.2</ele>
        <time>2025-02-26T13:25:10Z</time>
      </trkpt>
      <trkpt lat="48.04824" lon="-3.48012">
        <ele>103.2</ele>
        <time>2025-02-26T13:25:11Z</time>
      </trkpt>
      <trkpt lat="48.04824" lon="-3.48012">
        <ele>103.2</ele>
        <time>2025-02-26T13:25:12Z</time>
      </trkpt>
      <trkpt lat="48.04823" lon="-3.48012">
        <ele>103.2</ele>
        <time>2025-02-26T13:25:13Z</time>
      </trkpt>
      <trkpt lat="48.04824" lon="-3.48012">
        <ele>103.2</ele>
        <time>2025-02-26T13:25:14Z</time>
      </trkpt>
      <trkpt lat="48.04824" lon="-3.48013">
        <ele>103.3</ele>
        <time>2025-02-26T13:25:15Z</time>
      </trkpt>
      <trkpt lat="48.04825" lon="-3.48015">
        <ele>103.5</ele>
        <time>2025-02-26T13:25:16Z</time>
      </trkpt>
      <trkpt lat="48.04825" lon="-3.48016">
        <ele>103.5</ele>
        <time>2025-02-26T13:25:17Z</time>
      </trkpt>
      <trkpt lat="48.04825" lon="-3.48017">
        <ele>103.5</ele>
        <time>2025-02-26T13:25:18Z</time>
      </trkpt>
      <trkpt lat="48.04823" lon="-3.48017">
        <ele>103.4</ele>
        <time>2025-02-26T13:25:19Z</time>
      </trkpt>
      <trkpt lat="48.04823" lon="-3.48017">
        <ele>103.4</ele>
        <time>2025-02-26T13:25:20Z</time>
      </trkpt>
      <trkpt lat="48.04822" lon="-3.48016">
        <ele>103.3</ele>
        <time>2025-02-26T13:25:21Z</time>
      </trkpt>
      <trkpt lat="48.04822" lon="-3.48015">
        <ele>103.2</ele>
        <time>2025-02-26T13:25:22Z</time>
      </trkpt>
      <trkpt lat="48.04821" lon="-3.48014">
        <ele>103.1</ele>
        <time>2025-02-26T13:25:23Z</time>
      </trkpt>
      <trkpt lat="48.04822" lon="-3.48013">
        <ele>103.1</ele>
        <time>2025-02-26T13:25:24Z</time>
      </trkpt>
      <trkpt lat="48.04821" lon="-3.48014">
        <ele>103.1</ele>
        <time>2025-02-26T13:25:25Z</time>
      </trkpt>
      <trkpt lat="48.04821" lon="-3.48016">
        <ele>103.2</ele>
        <time>2025-02-26T13:25:26Z</time>
      </trkpt>
      <trkpt lat="48.0482" lon="-3.48018">
        <ele>103.2</ele>
        <time>2025-02-26T13:25:27Z</time>
      </trkpt>
      <trkpt lat="48.04819" lon="-3.4802">
        <ele>103.2</ele>
        <time>2025-02-26T13:25:28Z</time>
      </trkpt>
      <trkpt lat="48.04819" lon="-3.48021">
        <ele>103.2</ele>
        <time>2025-02-26T13:25:29Z</time>
      </trkpt>
      <trkpt lat="48.04818" lon="-3.48022">
        <ele>103.2</ele>
        <time>2025-02-26T13:25:30Z</time>
      </trkpt>
      <trkpt lat="48.04816" lon="-3.48023">
        <ele>103</ele>
        <time>2025-02-26T13:25:31Z</time>
      </trkpt>
      <trkpt lat="48.04815" lon="-3.48023">
        <ele>102.9</ele>
        <time>2025-02-26T13:25:32Z</time>
      </trkpt>
      <trkpt lat="48.04813" lon="-3.48024">
        <ele>102.7</ele>
        <time>2025-02-26T13:25:33Z</time>
      </trkpt>
      <trkpt lat="48.04812" lon="-3.48024">
        <ele>102.6</ele>
        <time>2025-02-26T13:25:34Z</time>
      </trkpt>
      <trkpt lat="48.04811" lon="-3.48024">
        <ele>102.5</ele>
        <time>2025-02-26T13:25:35Z</time>
      </trkpt>
      <trkpt lat="48.04809" lon="-3.48024">
        <ele>102.4</ele>
        <time>2025-02-26T13:25:36Z</time>
      </trkpt>
      <trkpt lat="48.04809" lon="-3.48025">
        <ele>102.3</ele>
        <time>2025-02-26T13:25:37Z</time>
      </trkpt>
      <trkpt lat="48.04808" lon="-3.48025">
        <ele>102.2</ele>
        <time>2025-02-26T13:25:38Z</time>
      </trkpt>
      <trkpt lat="48.04807" lon="-3.48026">
        <ele>102.1</ele>
        <time>2025-02-26T13:25:39Z</time>
      </trkpt>
      <trkpt lat="48.04807" lon="-3.48027">
        <ele>102.1</ele>
        <time>2025-02-26T13:25:40Z</time>
      </trkpt>
      <trkpt lat="48.04806" lon="-3.48028">
        <ele>102.1</ele>
        <time>2025-02-26T13:25:41Z</time>
      </trkpt>
      <trkpt lat="48.04806" lon="-3.48029">
        <ele>102.3</ele>
        <time>2025-02-26T13:25:42Z</time>
      </trkpt>
      <trkpt lat="48.04806" lon="-3.48029">
        <ele>102.4</ele>
        <time>2025-02-26T13:25:43Z</time>
      </trkpt>
      <trkpt lat="48.04805" lon="-3.48031">
        <ele>102.8</ele>
        <time>2025-02-26T13:25:44Z</time>
      </trkpt>
      <trkpt lat="48.04804" lon="-3.48031">
        <ele>102.9</ele>
        <time>2025-02-26T13:25:45Z</time>
      </trkpt>
      <trkpt lat="48.04803" lon="-3.48031">
        <ele>102.8</ele>
        <time>2025-02-26T13:25:46Z</time>
      </trkpt>
      <trkpt lat="48.04802" lon="-3.48031">
        <ele>102.8</ele>
        <time>2025-02-26T13:25:47Z</time>
      </trkpt>
      <trkpt lat="48.04801" lon="-3.48031">
        <ele>102.8</ele>
        <time>2025-02-26T13:25:48Z</time>
      </trkpt>
      <trkpt lat="48.04801" lon="-3.48032">
        <ele>102.9</ele>
        <time>2025-02-26T13:25:49Z</time>
      </trkpt>
      <trkpt lat="48.048" lon="-3.48032">
        <ele>103.1</ele>
        <time>2025-02-26T13:25:50Z</time>
      </trkpt>
      <trkpt lat="48.04799" lon="-3.48033">
        <ele>103.1</ele>
        <time>2025-02-26T13:25:51Z</time>
      </trkpt>
      <trkpt lat="48.04798" lon="-3.48033">
        <ele>103.2</ele>
        <time>2025-02-26T13:25:52Z</time>
      </trkpt>
      <trkpt lat="48.04797" lon="-3.48033">
        <ele>103.3</ele>
        <time>2025-02-26T13:25:53Z</time>
      </trkpt>
      <trkpt lat="48.04796" lon="-3.48033">
        <ele>103.3</ele>
        <time>2025-02-26T13:25:54Z</time>
      </trkpt>
      <trkpt lat="48.04795" lon="-3.48033">
        <ele>103.2</ele>
        <time>2025-02-26T13:25:55Z</time>
      </trkpt>
      <trkpt lat="48.04794" lon="-3.48032">
        <ele>103</ele>
        <time>2025-02-26T13:25:56Z</time>
      </trkpt>
      <trkpt lat="48.04794" lon="-3.48031">
        <ele>102.8</ele>
        <time>2025-02-26T13:25:57Z</time>
      </trkpt>
      <trkpt lat="48.04793" lon="-3.48031">
        <ele>102.7</ele>
        <time>2025-02-26T13:25:58Z</time>
      </trkpt>
      <trkpt lat="48.04793" lon="-3.4803">
        <ele>102.6</ele>
        <time>2025-02-26T13:25:59Z</time>
      </trkpt>
      <trkpt lat="48.04795" lon="-3.48031">
        <ele>102.7</ele>
        <time>2025-02-26T13:26:00Z</time>
      </trkpt>
      <trkpt lat="48.04796" lon="-3.48031">
        <ele>102.7</ele>
        <time>2025-02-26T13:26:01Z</time>
      </trkpt>
      <trkpt lat="48.04796" lon="-3.4803">
        <ele>102.6</ele>
        <time>2025-02-26T13:26:02Z</time>
      </trkpt>
      <trkpt lat="48.04793" lon="-3.48029">
        <ele>102.2</ele>
        <time>2025-02-26T13:26:03Z</time>
      </trkpt>
      <trkpt lat="48.04792" lon="-3.48028">
        <ele>102.1</ele>
        <time>2025-02-26T13:26:04Z</time>
      </trkpt>
      <trkpt lat="48.04792" lon="-3.48028">
        <ele>102.1</ele>
        <time>2025-02-26T13:26:05Z</time>
      </trkpt>
      <trkpt lat="48.04792" lon="-3.48028">
        <ele>102.1</ele>
        <time>2025-02-26T13:26:06Z</time>
      </trkpt>
      <trkpt lat="48.04791" lon="-3.48027">
        <ele>102</ele>
        <time>2025-02-26T13:26:07Z</time>
      </trkpt>
      <trkpt lat="48.0479" lon="-3.48026">
        <ele>102</ele>
        <time>2025-02-26T13:26:08Z</time>
      </trkpt>
      <trkpt lat="48.04789" lon="-3.48025">
        <ele>101.9</ele>
        <time>2025-02-26T13:26:09Z</time>
      </trkpt>
      <trkpt lat="48.04788" lon="-3.48024">
        <ele>101.9</ele>
        <time>2025-02-26T13:26:10Z</time>
      </trkpt>
      <trkpt lat="48.04787" lon="-3.48023">
        <ele>101.9</ele>
        <time>2025-02-26T13:26:11Z</time>
      </trkpt>
      <trkpt lat="48.04786" lon="-3.48022">
        <ele>101.9</ele>
        <time>2025-02-26T13:26:12Z</time>
      </trkpt>
      <trkpt lat="48.04786" lon="-3.48022">
        <ele>101.8</ele>
        <time>2025-02-26T13:26:13Z</time>
      </trkpt>
      <trkpt lat="48.04787" lon="-3.48024">
        <ele>101.9</ele>
        <time>2025-02-26T13:26:14Z</time>
      </trkpt>
      <trkpt lat="48.04787" lon="-3.48025">
        <ele>101.9</ele>
        <time>2025-02-26T13:26:15Z</time>
      </trkpt>
      <trkpt lat="48.04787" lon="-3.48025">
        <ele>101.9</ele>
        <time>2025-02-26T13:26:16Z</time>
      </trkpt>
      <trkpt lat="48.04787" lon="-3.48025">
        <ele>101.9</ele>
        <time>2025-02-26T13:26:17Z</time>
      </trkpt>
      <trkpt lat="48.04786" lon="-3.48025">
        <ele>101.9</ele>
        <time>2025-02-26T13:26:18Z</time>
      </trkpt>
      <trkpt lat="48.04786" lon="-3.48024">
        <ele>101.9</ele>
        <time>2025-02-26T13:26:19Z</time>
      </trkpt>
      <trkpt lat="48.04786" lon="-3.48024">
        <ele>101.9</ele>
        <time>2025-02-26T13:26:20Z</time>
      </trkpt>
      <trkpt lat="48.04786" lon="-3.48023">
        <ele>101.9</ele>
        <time>2025-02-26T13:26:21Z</time>
      </trkpt>
      <trkpt lat="48.04786" lon="-3.48023">
        <ele>101.9</ele>
        <time>2025-02-26T13:26:22Z</time>
      </trkpt>
      <trkpt lat="48.04786" lon="-3.48023">
        <ele>101.9</ele>
        <time>2025-02-26T13:26:23Z</time>
      </trkpt>
      <trkpt lat="48.04786" lon="-3.48022">
        <ele>101.9</ele>
        <time>2025-02-26T13:26:24Z</time>
      </trkpt>
      <trkpt lat="48.04785" lon="-3.48021">
        <ele>101.8</ele>
        <time>2025-02-26T13:26:25Z</time>
      </trkpt>
      <trkpt lat="48.04785" lon="-3.4802">
        <ele>101.8</ele>
        <time>2025-02-26T13:26:26Z</time>
      </trkpt>
      <trkpt lat="48.04784" lon="-3.4802">
        <ele>101.8</ele>
        <time>2025-02-26T13:26:27Z</time>
      </trkpt>
      <trkpt lat="48.04783" lon="-3.4802">
        <ele>101.8</ele>
        <time>2025-02-26T13:26:28Z</time>
      </trkpt>
      <trkpt lat="48.04783" lon="-3.4802">
        <ele>101.8</ele>
        <time>2025-02-26T13:26:29Z</time>
      </trkpt>
      <trkpt lat="48.04782" lon="-3.4802">
        <ele>101.8</ele>
        <time>2025-02-26T13:26:30Z</time>
      </trkpt>
      <trkpt lat="48.04781" lon="-3.4802">
        <ele>101.7</ele>
        <time>2025-02-26T13:26:31Z</time>
      </trkpt>
      <trkpt lat="48.0478" lon="-3.4802">
        <ele>101.7</ele>
        <time>2025-02-26T13:26:32Z</time>
      </trkpt>
      <trkpt lat="48.0478" lon="-3.48019">
        <ele>101.7</ele>
        <time>2025-02-26T13:26:33Z</time>
      </trkpt>
      <trkpt lat="48.0478" lon="-3.48018">
        <ele>101.7</ele>
        <time>2025-02-26T13:26:34Z</time>
      </trkpt>
      <trkpt lat="48.0478" lon="-3.48017">
        <ele>101.7</ele>
        <time>2025-02-26T13:26:35Z</time>
      </trkpt>
      <trkpt lat="48.0478" lon="-3.48015">
        <ele>101.6</ele>
        <time>2025-02-26T13:26:36Z</time>
      </trkpt>
      <trkpt lat="48.04779" lon="-3.48014">
        <ele>101.5</ele>
        <time>2025-02-26T13:26:37Z</time>
      </trkpt>
      <trkpt lat="48.04779" lon="-3.48014">
        <ele>101.5</ele>
        <time>2025-02-26T13:26:38Z</time>
      </trkpt>
      <trkpt lat="48.04779" lon="-3.48013">
        <ele>101.5</ele>
        <time>2025-02-26T13:26:39Z</time>
      </trkpt>
      <trkpt lat="48.04778" lon="-3.48014">
        <ele>101.5</ele>
        <time>2025-02-26T13:26:40Z</time>
      </trkpt>
      <trkpt lat="48.04778" lon="-3.48014">
        <ele>101.5</ele>
        <time>2025-02-26T13:26:41Z</time>
      </trkpt>
      <trkpt lat="48.04777" lon="-3.48014">
        <ele>101.5</ele>
        <time>2025-02-26T13:26:42Z</time>
      </trkpt>
      <trkpt lat="48.04776" lon="-3.48014">
        <ele>101.4</ele>
        <time>2025-02-26T13:26:43Z</time>
      </trkpt>
      <trkpt lat="48.04776" lon="-3.48013">
        <ele>101.4</ele>
        <time>2025-02-26T13:26:44Z</time>
      </trkpt>
      <trkpt lat="48.04776" lon="-3.48013">
        <ele>101.4</ele>
        <time>2025-02-26T13:26:45Z</time>
      </trkpt>
      <trkpt lat="48.04775" lon="-3.48012">
        <ele>101.4</ele>
        <time>2025-02-26T13:26:46Z</time>
      </trkpt>
      <trkpt lat="48.04775" lon="-3.48012">
        <ele>101.3</ele>
        <time>2025-02-26T13:26:47Z</time>
      </trkpt>
      <trkpt lat="48.04775" lon="-3.48011">
        <ele>101.3</ele>
        <time>2025-02-26T13:26:48Z</time>
      </trkpt>
      <trkpt lat="48.04774" lon="-3.48011">
        <ele>101.3</ele>
        <time>2025-02-26T13:26:49Z</time>
      </trkpt>
      <trkpt lat="48.04774" lon="-3.48013">
        <ele>101.3</ele>
        <time>2025-02-26T13:26:50Z</time>
      </trkpt>
      <trkpt lat="48.04771" lon="-3.48014">
        <ele>101.3</ele>
        <time>2025-02-26T13:26:51Z</time>
      </trkpt>
      <trkpt lat="48.04768" lon="-3.48015">
        <ele>101.2</ele>
        <time>2025-02-26T13:26:52Z</time>
      </trkpt>
      <trkpt lat="48.04766" lon="-3.48015">
        <ele>101.1</ele>
        <time>2025-02-26T13:26:53Z</time>
      </trkpt>
      <trkpt lat="48.04765" lon="-3.48016">
        <ele>101.1</ele>
        <time>2025-02-26T13:26:54Z</time>
      </trkpt>
      <trkpt lat="48.04763" lon="-3.48015">
        <ele>101</ele>
        <time>2025-02-26T13:26:55Z</time>
      </trkpt>
      <trkpt lat="48.04762" lon="-3.48014">
        <ele>100.9</ele>
        <time>2025-02-26T13:26:56Z</time>
      </trkpt>
      <trkpt lat="48.04761" lon="-3.48014">
        <ele>100.9</ele>
        <time>2025-02-26T13:26:57Z</time>
      </trkpt>
      <trkpt lat="48.04761" lon="-3.48012">
        <ele>100.8</ele>
        <time>2025-02-26T13:26:58Z</time>
      </trkpt>
      <trkpt lat="48.04759" lon="-3.48011">
        <ele>100.7</ele>
        <time>2025-02-26T13:26:59Z</time>
      </trkpt>
      <trkpt lat="48.04758" lon="-3.48011">
        <ele>100.7</ele>
        <time>2025-02-26T13:27:00Z</time>
      </trkpt>
      <trkpt lat="48.04758" lon="-3.48011">
        <ele>100.7</ele>
        <time>2025-02-26T13:27:01Z</time>
      </trkpt>
      <trkpt lat="48.04757" lon="-3.48012">
        <ele>100.7</ele>
        <time>2025-02-26T13:27:02Z</time>
      </trkpt>
      <trkpt lat="48.04756" lon="-3.48012">
        <ele>100.6</ele>
        <time>2025-02-26T13:27:03Z</time>
      </trkpt>
      <trkpt lat="48.04755" lon="-3.48011">
        <ele>100.6</ele>
        <time>2025-02-26T13:27:04Z</time>
      </trkpt>
      <trkpt lat="48.04758" lon="-3.48012">
        <ele>100.7</ele>
        <time>2025-02-26T13:27:05Z</time>
      </trkpt>
      <trkpt lat="48.04758" lon="-3.48011">
        <ele>100.7</ele>
        <time>2025-02-26T13:27:06Z</time>
      </trkpt>
      <trkpt lat="48.04757" lon="-3.48011">
        <ele>100.6</ele>
        <time>2025-02-26T13:27:07Z</time>
      </trkpt>
      <trkpt lat="48.04756" lon="-3.48009">
        <ele>100.5</ele>
        <time>2025-02-26T13:27:08Z</time>
      </trkpt>
      <trkpt lat="48.04755" lon="-3.48008">
        <ele>100.5</ele>
        <time>2025-02-26T13:27:09Z</time>
      </trkpt>
      <trkpt lat="48.04754" lon="-3.48008">
        <ele>100.4</ele>
        <time>2025-02-26T13:27:10Z</time>
      </trkpt>
      <trkpt lat="48.04754" lon="-3.48007">
        <ele>100.4</ele>
        <time>2025-02-26T13:27:11Z</time>
      </trkpt>
      <trkpt lat="48.04752" lon="-3.48007">
        <ele>100.3</ele>
        <time>2025-02-26T13:27:12Z</time>
      </trkpt>
      <trkpt lat="48.04752" lon="-3.48008">
        <ele>100.3</ele>
        <time>2025-02-26T13:27:13Z</time>
      </trkpt>
      <trkpt lat="48.04751" lon="-3.48008">
        <ele>100.3</ele>
        <time>2025-02-26T13:27:14Z</time>
      </trkpt>
      <trkpt lat="48.04751" lon="-3.48008">
        <ele>100.3</ele>
        <time>2025-02-26T13:27:15Z</time>
      </trkpt>
      <trkpt lat="48.04752" lon="-3.48006">
        <ele>100.3</ele>
        <time>2025-02-26T13:27:16Z</time>
      </trkpt>
      <trkpt lat="48.04752" lon="-3.48005">
        <ele>100.2</ele>
        <time>2025-02-26T13:27:17Z</time>
      </trkpt>
      <trkpt lat="48.04751" lon="-3.48004">
        <ele>100.2</ele>
        <time>2025-02-26T13:27:18Z</time>
      </trkpt>
      <trkpt lat="48.0475" lon="-3.48003">
        <ele>100.1</ele>
        <time>2025-02-26T13:27:19Z</time>
      </trkpt>
      <trkpt lat="48.04749" lon="-3.48003">
        <ele>100.1</ele>
        <time>2025-02-26T13:27:20Z</time>
      </trkpt>
      <trkpt lat="48.04748" lon="-3.48003">
        <ele>100</ele>
        <time>2025-02-26T13:27:21Z</time>
      </trkpt>
      <trkpt lat="48.04747" lon="-3.48003">
        <ele>100</ele>
        <time>2025-02-26T13:27:22Z</time>
      </trkpt>
      <trkpt lat="48.04746" lon="-3.48003">
        <ele>100</ele>
        <time>2025-02-26T13:27:23Z</time>
      </trkpt>
      <trkpt lat="48.04745" lon="-3.48003">
        <ele>99.9</ele>
        <time>2025-02-26T13:27:24Z</time>
      </trkpt>
      <trkpt lat="48.04744" lon="-3.48003">
        <ele>99.9</ele>
        <time>2025-02-26T13:27:25Z</time>
      </trkpt>
      <trkpt lat="48.04743" lon="-3.48003">
        <ele>99.8</ele>
        <time>2025-02-26T13:27:26Z</time>
      </trkpt>
      <trkpt lat="48.04742" lon="-3.48003">
        <ele>99.8</ele>
        <time>2025-02-26T13:27:27Z</time>
      </trkpt>
      <trkpt lat="48.04742" lon="-3.48004">
        <ele>99.8</ele>
        <time>2025-02-26T13:27:28Z</time>
      </trkpt>
      <trkpt lat="48.04741" lon="-3.48004">
        <ele>99.7</ele>
        <time>2025-02-26T13:27:29Z</time>
      </trkpt>
      <trkpt lat="48.0474" lon="-3.48005">
        <ele>99.8</ele>
        <time>2025-02-26T13:27:30Z</time>
      </trkpt>
      <trkpt lat="48.0474" lon="-3.48005">
        <ele>99.7</ele>
        <time>2025-02-26T13:27:31Z</time>
      </trkpt>
      <trkpt lat="48.04739" lon="-3.48005">
        <ele>99.7</ele>
        <time>2025-02-26T13:27:32Z</time>
      </trkpt>
      <trkpt lat="48.04738" lon="-3.48006">
        <ele>99.7</ele>
        <time>2025-02-26T13:27:33Z</time>
      </trkpt>
      <trkpt lat="48.04737" lon="-3.48007">
        <ele>99.7</ele>
        <time>2025-02-26T13:27:34Z</time>
      </trkpt>
      <trkpt lat="48.04736" lon="-3.48007">
        <ele>99.6</ele>
        <time>2025-02-26T13:27:35Z</time>
      </trkpt>
      <trkpt lat="48.04735" lon="-3.48007">
        <ele>99.6</ele>
        <time>2025-02-26T13:27:36Z</time>
      </trkpt>
      <trkpt lat="48.04734" lon="-3.48008">
        <ele>99.5</ele>
        <time>2025-02-26T13:27:37Z</time>
      </trkpt>
      <trkpt lat="48.04734" lon="-3.48008">
        <ele>99.5</ele>
        <time>2025-02-26T13:27:38Z</time>
      </trkpt>
      <trkpt lat="48.04733" lon="-3.48008">
        <ele>99.5</ele>
        <time>2025-02-26T13:27:39Z</time>
      </trkpt>
      <trkpt lat="48.04732" lon="-3.48007">
        <ele>99.4</ele>
        <time>2025-02-26T13:27:40Z</time>
      </trkpt>
      <trkpt lat="48.04731" lon="-3.48007">
        <ele>99.4</ele>
        <time>2025-02-26T13:27:41Z</time>
      </trkpt>
      <trkpt lat="48.0473" lon="-3.48008">
        <ele>99.4</ele>
        <time>2025-02-26T13:27:42Z</time>
      </trkpt>
      <trkpt lat="48.04729" lon="-3.48008">
        <ele>99.3</ele>
        <time>2025-02-26T13:27:43Z</time>
      </trkpt>
      <trkpt lat="48.04729" lon="-3.48008">
        <ele>99.3</ele>
        <time>2025-02-26T13:27:44Z</time>
      </trkpt>
      <trkpt lat="48.04729" lon="-3.48007">
        <ele>99.3</ele>
        <time>2025-02-26T13:27:45Z</time>
      </trkpt>
      <trkpt lat="48.0473" lon="-3.48007">
        <ele>99.3</ele>
        <time>2025-02-26T13:27:46Z</time>
      </trkpt>
      <trkpt lat="48.04729" lon="-3.48006">
        <ele>99.3</ele>
        <time>2025-02-26T13:27:47Z</time>
      </trkpt>
      <trkpt lat="48.04729" lon="-3.48004">
        <ele>99.3</ele>
        <time>2025-02-26T13:27:48Z</time>
      </trkpt>
      <trkpt lat="48.04729" lon="-3.48004">
        <ele>99.3</ele>
        <time>2025-02-26T13:27:49Z</time>
      </trkpt>
      <trkpt lat="48.0473" lon="-3.48004">
        <ele>99.3</ele>
        <time>2025-02-26T13:27:50Z</time>
      </trkpt>
      <trkpt lat="48.0473" lon="-3.48004">
        <ele>99.3</ele>
        <time>2025-02-26T13:27:51Z</time>
      </trkpt>
      <trkpt lat="48.0473" lon="-3.48004">
        <ele>99.3</ele>
        <time>2025-02-26T13:27:52Z</time>
      </trkpt>
      <trkpt lat="48.0473" lon="-3.48004">
        <ele>99.3</ele>
        <time>2025-02-26T13:27:53Z</time>
      </trkpt>
      <trkpt lat="48.0473" lon="-3.48003">
        <ele>99.3</ele>
        <time>2025-02-26T13:27:54Z</time>
      </trkpt>
      <trkpt lat="48.0473" lon="-3.48003">
        <ele>99.3</ele>
        <time>2025-02-26T13:27:55Z</time>
      </trkpt>
      <trkpt lat="48.0473" lon="-3.48003">
        <ele>99.3</ele>
        <time>2025-02-26T13:27:56Z</time>
      </trkpt>
      <trkpt lat="48.0473" lon="-3.48003">
        <ele>99.3</ele>
        <time>2025-02-26T13:27:57Z</time>
      </trkpt>
      <trkpt lat="48.0473" lon="-3.48003">
        <ele>99.3</ele>
        <time>2025-02-26T13:27:58Z</time>
      </trkpt>
      <trkpt lat="48.04731" lon="-3.48002">
        <ele>99.3</ele>
        <time>2025-02-26T13:27:59Z</time>
      </trkpt>
      <trkpt lat="48.04731" lon="-3.48002">
        <ele>99.4</ele>
        <time>2025-02-26T13:28:00Z</time>
      </trkpt>
      <trkpt lat="48.04732" lon="-3.48002">
        <ele>99.4</ele>
        <time>2025-02-26T13:28:01Z</time>
      </trkpt>
      <trkpt lat="48.04732" lon="-3.48003">
        <ele>99.4</ele>
        <time>2025-02-26T13:28:02Z</time>
      </trkpt>
      <trkpt lat="48.04732" lon="-3.48003">
        <ele>99.4</ele>
        <time>2025-02-26T13:28:03Z</time>
      </trkpt>
      <trkpt lat="48.04732" lon="-3.48003">
        <ele>99.4</ele>
        <time>2025-02-26T13:28:04Z</time>
      </trkpt>
      <trkpt lat="48.04732" lon="-3.48003">
        <ele>99.4</ele>
        <time>2025-02-26T13:28:05Z</time>
      </trkpt>
      <trkpt lat="48.04732" lon="-3.48002">
        <ele>99.4</ele>
        <time>2025-02-26T13:28:06Z</time>
      </trkpt>
      <trkpt lat="48.04731" lon="-3.48002">
        <ele>99.4</ele>
        <time>2025-02-26T13:28:07Z</time>
      </trkpt>
      <trkpt lat="48.04731" lon="-3.48002">
        <ele>99.3</ele>
        <time>2025-02-26T13:28:08Z</time>
      </trkpt>
      <trkpt lat="48.04731" lon="-3.48002">
        <ele>99.3</ele>
        <time>2025-02-26T13:28:09Z</time>
      </trkpt>
      <trkpt lat="48.04731" lon="-3.48002">
        <ele>99.3</ele>
        <time>2025-02-26T13:28:10Z</time>
      </trkpt>
      <trkpt lat="48.04731" lon="-3.48002">
        <ele>99.3</ele>
        <time>2025-02-26T13:28:11Z</time>
      </trkpt>
      <trkpt lat="48.04731" lon="-3.48002">
        <ele>99.3</ele>
        <time>2025-02-26T13:28:12Z</time>
      </trkpt>
      <trkpt lat="48.04731" lon="-3.48002">
        <ele>99.3</ele>
        <time>2025-02-26T13:28:13Z</time>
      </trkpt>
      <trkpt lat="48.04731" lon="-3.48001">
        <ele>99.3</ele>
        <time>2025-02-26T13:28:14Z</time>
      </trkpt>
      <trkpt lat="48.04731" lon="-3.47999">
        <ele>99.4</ele>
        <time>2025-02-26T13:28:15Z</time>
      </trkpt>
      <trkpt lat="48.0473" lon="-3.47999">
        <ele>99.4</ele>
        <time>2025-02-26T13:28:16Z</time>
      </trkpt>
      <trkpt lat="48.0473" lon="-3.47999">
        <ele>99.4</ele>
        <time>2025-02-26T13:28:17Z</time>
      </trkpt>
      <trkpt lat="48.04729" lon="-3.47999">
        <ele>99.3</ele>
        <time>2025-02-26T13:28:18Z</time>
      </trkpt>
      <trkpt lat="48.04729" lon="-3.48">
        <ele>99.3</ele>
        <time>2025-02-26T13:28:19Z</time>
      </trkpt>
      <trkpt lat="48.04728" lon="-3.48">
        <ele>99.2</ele>
        <time>2025-02-26T13:28:20Z</time>
      </trkpt>
      <trkpt lat="48.04727" lon="-3.48001">
        <ele>99.2</ele>
        <time>2025-02-26T13:28:21Z</time>
      </trkpt>
      <trkpt lat="48.04726" lon="-3.48004">
        <ele>99.1</ele>
        <time>2025-02-26T13:28:22Z</time>
      </trkpt>
      <trkpt lat="48.04725" lon="-3.48005">
        <ele>99.1</ele>
        <time>2025-02-26T13:28:23Z</time>
      </trkpt>
      <trkpt lat="48.04723" lon="-3.48007">
        <ele>99</ele>
        <time>2025-02-26T13:28:24Z</time>
      </trkpt>
      <trkpt lat="48.04722" lon="-3.48007">
        <ele>99</ele>
        <time>2025-02-26T13:28:25Z</time>
      </trkpt>
      <trkpt lat="48.04721" lon="-3.48008">
        <ele>98.9</ele>
        <time>2025-02-26T13:28:26Z</time>
      </trkpt>
      <trkpt lat="48.0472" lon="-3.48009">
        <ele>98.9</ele>
        <time>2025-02-26T13:28:27Z</time>
      </trkpt>
      <trkpt lat="48.04718" lon="-3.4801">
        <ele>98.9</ele>
        <time>2025-02-26T13:28:28Z</time>
      </trkpt>
      <trkpt lat="48.04717" lon="-3.48011">
        <ele>98.8</ele>
        <time>2025-02-26T13:28:29Z</time>
      </trkpt>
      <trkpt lat="48.04716" lon="-3.48012">
        <ele>98.8</ele>
        <time>2025-02-26T13:28:30Z</time>
      </trkpt>
      <trkpt lat="48.04716" lon="-3.48014">
        <ele>98.8</ele>
        <time>2025-02-26T13:28:31Z</time>
      </trkpt>
      <trkpt lat="48.04715" lon="-3.48015">
        <ele>98.7</ele>
        <time>2025-02-26T13:28:32Z</time>
      </trkpt>
      <trkpt lat="48.04714" lon="-3.48015">
        <ele>98.7</ele>
        <time>2025-02-26T13:28:33Z</time>
      </trkpt>
      <trkpt lat="48.04713" lon="-3.48015">
        <ele>98.7</ele>
        <time>2025-02-26T13:28:34Z</time>
      </trkpt>
      <trkpt lat="48.04712" lon="-3.48015">
        <ele>98.6</ele>
        <time>2025-02-26T13:28:35Z</time>
      </trkpt>
      <trkpt lat="48.04711" lon="-3.48014">
        <ele>98.6</ele>
        <time>2025-02-26T13:28:36Z</time>
      </trkpt>
      <trkpt lat="48.0471" lon="-3.48014">
        <ele>98.6</ele>
        <time>2025-02-26T13:28:37Z</time>
      </trkpt>
      <trkpt lat="48.0471" lon="-3.48014">
        <ele>98.6</ele>
        <time>2025-02-26T13:28:38Z</time>
      </trkpt>
      <trkpt lat="48.04709" lon="-3.48014">
        <ele>98.5</ele>
        <time>2025-02-26T13:28:39Z</time>
      </trkpt>
      <trkpt lat="48.04708" lon="-3.48014">
        <ele>98.5</ele>
        <time>2025-02-26T13:28:40Z</time>
      </trkpt>
      <trkpt lat="48.04707" lon="-3.48015">
        <ele>98.4</ele>
        <time>2025-02-26T13:28:41Z</time>
      </trkpt>
      <trkpt lat="48.04706" lon="-3.48015">
        <ele>98.4</ele>
        <time>2025-02-26T13:28:42Z</time>
      </trkpt>
      <trkpt lat="48.04705" lon="-3.48015">
        <ele>98.4</ele>
        <time>2025-02-26T13:28:43Z</time>
      </trkpt>
      <trkpt lat="48.04704" lon="-3.48014">
        <ele>98.3</ele>
        <time>2025-02-26T13:28:44Z</time>
      </trkpt>
      <trkpt lat="48.04703" lon="-3.48015">
        <ele>98.3</ele>
        <time>2025-02-26T13:28:45Z</time>
      </trkpt>
      <trkpt lat="48.04701" lon="-3.48015">
        <ele>98.2</ele>
        <time>2025-02-26T13:28:46Z</time>
      </trkpt>
      <trkpt lat="48.04701" lon="-3.48015">
        <ele>98.2</ele>
        <time>2025-02-26T13:28:47Z</time>
      </trkpt>
      <trkpt lat="48.047" lon="-3.48015">
        <ele>98.2</ele>
        <time>2025-02-26T13:28:48Z</time>
      </trkpt>
      <trkpt lat="48.047" lon="-3.48016">
        <ele>98.2</ele>
        <time>2025-02-26T13:28:49Z</time>
      </trkpt>
      <trkpt lat="48.04699" lon="-3.48016">
        <ele>98.2</ele>
        <time>2025-02-26T13:28:50Z</time>
      </trkpt>
      <trkpt lat="48.04699" lon="-3.48014">
        <ele>98.2</ele>
        <time>2025-02-26T13:28:51Z</time>
      </trkpt>
      <trkpt lat="48.04699" lon="-3.48014">
        <ele>98.1</ele>
        <time>2025-02-26T13:28:52Z</time>
      </trkpt>
      <trkpt lat="48.04698" lon="-3.48013">
        <ele>98.1</ele>
        <time>2025-02-26T13:28:53Z</time>
      </trkpt>
      <trkpt lat="48.04697" lon="-3.48012">
        <ele>98.1</ele>
        <time>2025-02-26T13:28:54Z</time>
      </trkpt>
      <trkpt lat="48.04695" lon="-3.48012">
        <ele>98</ele>
        <time>2025-02-26T13:28:55Z</time>
      </trkpt>
      <trkpt lat="48.04696" lon="-3.48013">
        <ele>98.1</ele>
        <time>2025-02-26T13:28:56Z</time>
      </trkpt>
      <trkpt lat="48.04695" lon="-3.48014">
        <ele>98</ele>
        <time>2025-02-26T13:28:57Z</time>
      </trkpt>
      <trkpt lat="48.04694" lon="-3.48014">
        <ele>98</ele>
        <time>2025-02-26T13:28:58Z</time>
      </trkpt>
      <trkpt lat="48.04693" lon="-3.48013">
        <ele>98</ele>
        <time>2025-02-26T13:28:59Z</time>
      </trkpt>
      <trkpt lat="48.04691" lon="-3.48013">
        <ele>97.9</ele>
        <time>2025-02-26T13:29:00Z</time>
      </trkpt>
      <trkpt lat="48.0469" lon="-3.48013">
        <ele>97.9</ele>
        <time>2025-02-26T13:29:01Z</time>
      </trkpt>
      <trkpt lat="48.04689" lon="-3.48012">
        <ele>97.9</ele>
        <time>2025-02-26T13:29:02Z</time>
      </trkpt>
      <trkpt lat="48.04688" lon="-3.48012">
        <ele>97.9</ele>
        <time>2025-02-26T13:29:03Z</time>
      </trkpt>
      <trkpt lat="48.04686" lon="-3.48012">
        <ele>97.9</ele>
        <time>2025-02-26T13:29:04Z</time>
      </trkpt>
      <trkpt lat="48.04685" lon="-3.48012">
        <ele>97.9</ele>
        <time>2025-02-26T13:29:05Z</time>
      </trkpt>
      <trkpt lat="48.04684" lon="-3.48012">
        <ele>97.8</ele>
        <time>2025-02-26T13:29:06Z</time>
      </trkpt>
      <trkpt lat="48.04683" lon="-3.48013">
        <ele>97.8</ele>
        <time>2025-02-26T13:29:07Z</time>
      </trkpt>
      <trkpt lat="48.04682" lon="-3.48014">
        <ele>97.8</ele>
        <time>2025-02-26T13:29:08Z</time>
      </trkpt>
      <trkpt lat="48.04681" lon="-3.48014">
        <ele>97.8</ele>
        <time>2025-02-26T13:29:09Z</time>
      </trkpt>
      <trkpt lat="48.0468" lon="-3.48014">
        <ele>97.8</ele>
        <time>2025-02-26T13:29:10Z</time>
      </trkpt>
      <trkpt lat="48.0468" lon="-3.48014">
        <ele>97.7</ele>
        <time>2025-02-26T13:29:11Z</time>
      </trkpt>
      <trkpt lat="48.04678" lon="-3.48014">
        <ele>97.7</ele>
        <time>2025-02-26T13:29:12Z</time>
      </trkpt>
      <trkpt lat="48.04677" lon="-3.48015">
        <ele>97.7</ele>
        <time>2025-02-26T13:29:13Z</time>
      </trkpt>
      <trkpt lat="48.04676" lon="-3.48016">
        <ele>97.6</ele>
        <time>2025-02-26T13:29:14Z</time>
      </trkpt>
      <trkpt lat="48.04675" lon="-3.48017">
        <ele>97.6</ele>
        <time>2025-02-26T13:29:15Z</time>
      </trkpt>
      <trkpt lat="48.04674" lon="-3.48018">
        <ele>97.5</ele>
        <time>2025-02-26T13:29:16Z</time>
      </trkpt>
      <trkpt lat="48.04673" lon="-3.48018">
        <ele>97.5</ele>
        <time>2025-02-26T13:29:17Z</time>
      </trkpt>
      <trkpt lat="48.04672" lon="-3.48019">
        <ele>97.5</ele>
        <time>2025-02-26T13:29:18Z</time>
      </trkpt>
      <trkpt lat="48.04672" lon="-3.48019">
        <ele>97.4</ele>
        <time>2025-02-26T13:29:19Z</time>
      </trkpt>
      <trkpt lat="48.04671" lon="-3.48019">
        <ele>97.4</ele>
        <time>2025-02-26T13:29:20Z</time>
      </trkpt>
      <trkpt lat="48.0467" lon="-3.48019">
        <ele>97.4</ele>
        <time>2025-02-26T13:29:21Z</time>
      </trkpt>
      <trkpt lat="48.04669" lon="-3.48019">
        <ele>97.4</ele>
        <time>2025-02-26T13:29:22Z</time>
      </trkpt>
      <trkpt lat="48.04668" lon="-3.48019">
        <ele>97.3</ele>
        <time>2025-02-26T13:29:23Z</time>
      </trkpt>
      <trkpt lat="48.04668" lon="-3.4802">
        <ele>97.3</ele>
        <time>2025-02-26T13:29:24Z</time>
      </trkpt>
      <trkpt lat="48.04667" lon="-3.4802">
        <ele>97.3</ele>
        <time>2025-02-26T13:29:25Z</time>
      </trkpt>
      <trkpt lat="48.04666" lon="-3.4802">
        <ele>97.3</ele>
        <time>2025-02-26T13:29:26Z</time>
      </trkpt>
      <trkpt lat="48.04665" lon="-3.4802">
        <ele>97.3</ele>
        <time>2025-02-26T13:29:27Z</time>
      </trkpt>
      <trkpt lat="48.04664" lon="-3.48021">
        <ele>97.2</ele>
        <time>2025-02-26T13:29:28Z</time>
      </trkpt>
      <trkpt lat="48.04663" lon="-3.48021">
        <ele>97.2</ele>
        <time>2025-02-26T13:29:29Z</time>
      </trkpt>
      <trkpt lat="48.04662" lon="-3.48022">
        <ele>97.1</ele>
        <time>2025-02-26T13:29:30Z</time>
      </trkpt>
      <trkpt lat="48.04661" lon="-3.48022">
        <ele>97.1</ele>
        <time>2025-02-26T13:29:31Z</time>
      </trkpt>
      <trkpt lat="48.0466" lon="-3.48022">
        <ele>97.1</ele>
        <time>2025-02-26T13:29:32Z</time>
      </trkpt>
      <trkpt lat="48.04659" lon="-3.48022">
        <ele>97</ele>
        <time>2025-02-26T13:29:33Z</time>
      </trkpt>
      <trkpt lat="48.04658" lon="-3.48023">
        <ele>97</ele>
        <time>2025-02-26T13:29:34Z</time>
      </trkpt>
      <trkpt lat="48.04658" lon="-3.48023">
        <ele>96.9</ele>
        <time>2025-02-26T13:29:35Z</time>
      </trkpt>
      <trkpt lat="48.04656" lon="-3.48024">
        <ele>96.9</ele>
        <time>2025-02-26T13:29:36Z</time>
      </trkpt>
      <trkpt lat="48.04655" lon="-3.48024">
        <ele>96.8</ele>
        <time>2025-02-26T13:29:37Z</time>
      </trkpt>
      <trkpt lat="48.04654" lon="-3.48025">
        <ele>96.7</ele>
        <time>2025-02-26T13:29:38Z</time>
      </trkpt>
      <trkpt lat="48.04653" lon="-3.48025">
        <ele>96.7</ele>
        <time>2025-02-26T13:29:39Z</time>
      </trkpt>
      <trkpt lat="48.04651" lon="-3.48025">
        <ele>96.7</ele>
        <time>2025-02-26T13:29:40Z</time>
      </trkpt>
      <trkpt lat="48.0465" lon="-3.48025">
        <ele>96.6</ele>
        <time>2025-02-26T13:29:41Z</time>
      </trkpt>
      <trkpt lat="48.04648" lon="-3.48025">
        <ele>96.6</ele>
        <time>2025-02-26T13:29:42Z</time>
      </trkpt>
      <trkpt lat="48.04647" lon="-3.48025">
        <ele>96.6</ele>
        <time>2025-02-26T13:29:43Z</time>
      </trkpt>
      <trkpt lat="48.04647" lon="-3.48026">
        <ele>96.5</ele>
        <time>2025-02-26T13:29:44Z</time>
      </trkpt>
      <trkpt lat="48.04646" lon="-3.48027">
        <ele>96.3</ele>
        <time>2025-02-26T13:29:45Z</time>
      </trkpt>
      <trkpt lat="48.04646" lon="-3.48029">
        <ele>96.3</ele>
        <time>2025-02-26T13:29:46Z</time>
      </trkpt>
      <trkpt lat="48.04645" lon="-3.48029">
        <ele>96.3</ele>
        <time>2025-02-26T13:29:47Z</time>
      </trkpt>
      <trkpt lat="48.04645" lon="-3.48029">
        <ele>96.3</ele>
        <time>2025-02-26T13:29:48Z</time>
      </trkpt>
      <trkpt lat="48.04645" lon="-3.48029">
        <ele>96.3</ele>
        <time>2025-02-26T13:29:49Z</time>
      </trkpt>
      <trkpt lat="48.04644" lon="-3.4803">
        <ele>96.3</ele>
        <time>2025-02-26T13:29:50Z</time>
      </trkpt>
      <trkpt lat="48.04643" lon="-3.48029">
        <ele>96.2</ele>
        <time>2025-02-26T13:29:51Z</time>
      </trkpt>
      <trkpt lat="48.04643" lon="-3.48029">
        <ele>96.2</ele>
        <time>2025-02-26T13:29:52Z</time>
      </trkpt>
      <trkpt lat="48.04643" lon="-3.48028">
        <ele>96.2</ele>
        <time>2025-02-26T13:29:53Z</time>
      </trkpt>
      <trkpt lat="48.04642" lon="-3.48028">
        <ele>96.1</ele>
        <time>2025-02-26T13:29:54Z</time>
      </trkpt>
      <trkpt lat="48.04642" lon="-3.48029">
        <ele>96.2</ele>
        <time>2025-02-26T13:29:55Z</time>
      </trkpt>
      <trkpt lat="48.04641" lon="-3.48029">
        <ele>96.2</ele>
        <time>2025-02-26T13:29:56Z</time>
      </trkpt>
      <trkpt lat="48.04641" lon="-3.48029">
        <ele>96.2</ele>
        <time>2025-02-26T13:29:57Z</time>
      </trkpt>
      <trkpt lat="48.0464" lon="-3.48029">
        <ele>96.1</ele>
        <time>2025-02-26T13:29:58Z</time>
      </trkpt>
      <trkpt lat="48.04639" lon="-3.48028">
        <ele>96</ele>
        <time>2025-02-26T13:29:59Z</time>
      </trkpt>
      <trkpt lat="48.04639" lon="-3.48027">
        <ele>96.1</ele>
        <time>2025-02-26T13:30:00Z</time>
      </trkpt>
      <trkpt lat="48.04638" lon="-3.48026">
        <ele>96.2</ele>
        <time>2025-02-26T13:30:01Z</time>
      </trkpt>
      <trkpt lat="48.04637" lon="-3.48026">
        <ele>96.2</ele>
        <time>2025-02-26T13:30:02Z</time>
      </trkpt>
      <trkpt lat="48.04636" lon="-3.48026">
        <ele>96.2</ele>
        <time>2025-02-26T13:30:03Z</time>
      </trkpt>
      <trkpt lat="48.04636" lon="-3.48026">
        <ele>96.2</ele>
        <time>2025-02-26T13:30:04Z</time>
      </trkpt>
      <trkpt lat="48.04636" lon="-3.48026">
        <ele>96.2</ele>
        <time>2025-02-26T13:30:05Z</time>
      </trkpt>
      <trkpt lat="48.04636" lon="-3.48026">
        <ele>96.2</ele>
        <time>2025-02-26T13:30:06Z</time>
      </trkpt>
      <trkpt lat="48.04635" lon="-3.48026">
        <ele>96.2</ele>
        <time>2025-02-26T13:30:07Z</time>
      </trkpt>
      <trkpt lat="48.04634" lon="-3.48026">
        <ele>96.2</ele>
        <time>2025-02-26T13:30:08Z</time>
      </trkpt>
      <trkpt lat="48.04633" lon="-3.48025">
        <ele>96.3</ele>
        <time>2025-02-26T13:30:09Z</time>
      </trkpt>
      <trkpt lat="48.04631" lon="-3.48025">
        <ele>96.3</ele>
        <time>2025-02-26T13:30:10Z</time>
      </trkpt>
      <trkpt lat="48.0463" lon="-3.48024">
        <ele>96.4</ele>
        <time>2025-02-26T13:30:11Z</time>
      </trkpt>
      <trkpt lat="48.04629" lon="-3.48024">
        <ele>96.3</ele>
        <time>2025-02-26T13:30:12Z</time>
      </trkpt>
      <trkpt lat="48.04629" lon="-3.48025">
        <ele>96.3</ele>
        <time>2025-02-26T13:30:13Z</time>
      </trkpt>
      <trkpt lat="48.04628" lon="-3.48026">
        <ele>96.2</ele>
        <time>2025-02-26T13:30:14Z</time>
      </trkpt>
      <trkpt lat="48.04627" lon="-3.48026">
        <ele>96.2</ele>
        <time>2025-02-26T13:30:15Z</time>
      </trkpt>
      <trkpt lat="48.04627" lon="-3.48026">
        <ele>96.1</ele>
        <time>2025-02-26T13:30:16Z</time>
      </trkpt>
      <trkpt lat="48.04626" lon="-3.48027">
        <ele>96.1</ele>
        <time>2025-02-26T13:30:17Z</time>
      </trkpt>
      <trkpt lat="48.04626" lon="-3.48027">
        <ele>96.1</ele>
        <time>2025-02-26T13:30:18Z</time>
      </trkpt>
      <trkpt lat="48.04625" lon="-3.48027">
        <ele>96.1</ele>
        <time>2025-02-26T13:30:19Z</time>
      </trkpt>
      <trkpt lat="48.04624" lon="-3.48027">
        <ele>96.1</ele>
        <time>2025-02-26T13:30:20Z</time>
      </trkpt>
      <trkpt lat="48.04623" lon="-3.48027">
        <ele>96.1</ele>
        <time>2025-02-26T13:30:21Z</time>
      </trkpt>
      <trkpt lat="48.04623" lon="-3.48027">
        <ele>96.1</ele>
        <time>2025-02-26T13:30:22Z</time>
      </trkpt>
      <trkpt lat="48.04622" lon="-3.48027">
        <ele>96.1</ele>
        <time>2025-02-26T13:30:23Z</time>
      </trkpt>
      <trkpt lat="48.04621" lon="-3.48026">
        <ele>96.1</ele>
        <time>2025-02-26T13:30:24Z</time>
      </trkpt>
      <trkpt lat="48.0462" lon="-3.48026">
        <ele>96.1</ele>
        <time>2025-02-26T13:30:25Z</time>
      </trkpt>
      <trkpt lat="48.04619" lon="-3.48026">
        <ele>96.2</ele>
        <time>2025-02-26T13:30:26Z</time>
      </trkpt>
      <trkpt lat="48.04618" lon="-3.48027">
        <ele>96.1</ele>
        <time>2025-02-26T13:30:27Z</time>
      </trkpt>
      <trkpt lat="48.04617" lon="-3.48027">
        <ele>96.1</ele>
        <time>2025-02-26T13:30:28Z</time>
      </trkpt>
      <trkpt lat="48.04616" lon="-3.48028">
        <ele>96</ele>
        <time>2025-02-26T13:30:29Z</time>
      </trkpt>
      <trkpt lat="48.04615" lon="-3.48028">
        <ele>96</ele>
        <time>2025-02-26T13:30:30Z</time>
      </trkpt>
      <trkpt lat="48.04615" lon="-3.48028">
        <ele>96</ele>
        <time>2025-02-26T13:30:31Z</time>
      </trkpt>
      <trkpt lat="48.04614" lon="-3.48028">
        <ele>96</ele>
        <time>2025-02-26T13:30:32Z</time>
      </trkpt>
      <trkpt lat="48.04613" lon="-3.48027">
        <ele>96</ele>
        <time>2025-02-26T13:30:33Z</time>
      </trkpt>
      <trkpt lat="48.04612" lon="-3.48027">
        <ele>96.1</ele>
        <time>2025-02-26T13:30:34Z</time>
      </trkpt>
      <trkpt lat="48.04611" lon="-3.48028">
        <ele>96</ele>
        <time>2025-02-26T13:30:35Z</time>
      </trkpt>
      <trkpt lat="48.0461" lon="-3.48028">
        <ele>96.1</ele>
        <time>2025-02-26T13:30:36Z</time>
      </trkpt>
      <trkpt lat="48.04609" lon="-3.48028">
        <ele>96.1</ele>
        <time>2025-02-26T13:30:37Z</time>
      </trkpt>
      <trkpt lat="48.04609" lon="-3.48027">
        <ele>96.1</ele>
        <time>2025-02-26T13:30:38Z</time>
      </trkpt>
      <trkpt lat="48.04607" lon="-3.48027">
        <ele>96.2</ele>
        <time>2025-02-26T13:30:39Z</time>
      </trkpt>
      <trkpt lat="48.04606" lon="-3.48027">
        <ele>96.2</ele>
        <time>2025-02-26T13:30:40Z</time>
      </trkpt>
      <trkpt lat="48.04605" lon="-3.48027">
        <ele>96.3</ele>
        <time>2025-02-26T13:30:41Z</time>
      </trkpt>
      <trkpt lat="48.04605" lon="-3.48026">
        <ele>96.3</ele>
        <time>2025-02-26T13:30:42Z</time>
      </trkpt>
      <trkpt lat="48.04604" lon="-3.48026">
        <ele>96.3</ele>
        <time>2025-02-26T13:30:43Z</time>
      </trkpt>
      <trkpt lat="48.04603" lon="-3.48027">
        <ele>96.3</ele>
        <time>2025-02-26T13:30:44Z</time>
      </trkpt>
      <trkpt lat="48.04602" lon="-3.48026">
        <ele>96.4</ele>
        <time>2025-02-26T13:30:45Z</time>
      </trkpt>
      <trkpt lat="48.04602" lon="-3.48026">
        <ele>96.4</ele>
        <time>2025-02-26T13:30:46Z</time>
      </trkpt>
      <trkpt lat="48.04601" lon="-3.48025">
        <ele>96.5</ele>
        <time>2025-02-26T13:30:47Z</time>
      </trkpt>
      <trkpt lat="48.046" lon="-3.48025">
        <ele>96.5</ele>
        <time>2025-02-26T13:30:48Z</time>
      </trkpt>
      <trkpt lat="48.04599" lon="-3.48025">
        <ele>96.5</ele>
        <time>2025-02-26T13:30:49Z</time>
      </trkpt>
      <trkpt lat="48.04599" lon="-3.48024">
        <ele>96.5</ele>
        <time>2025-02-26T13:30:50Z</time>
      </trkpt>
      <trkpt lat="48.04598" lon="-3.48023">
        <ele>96.6</ele>
        <time>2025-02-26T13:30:51Z</time>
      </trkpt>
      <trkpt lat="48.04599" lon="-3.48023">
        <ele>96.5</ele>
        <time>2025-02-26T13:30:52Z</time>
      </trkpt>
      <trkpt lat="48.04599" lon="-3.48022">
        <ele>96.6</ele>
        <time>2025-02-26T13:30:53Z</time>
      </trkpt>
      <trkpt lat="48.04598" lon="-3.48022">
        <ele>96.6</ele>
        <time>2025-02-26T13:30:54Z</time>
      </trkpt>
      <trkpt lat="48.04597" lon="-3.48022">
        <ele>96.6</ele>
        <time>2025-02-26T13:30:55Z</time>
      </trkpt>
      <trkpt lat="48.04596" lon="-3.48021">
        <ele>96.6</ele>
        <time>2025-02-26T13:30:56Z</time>
      </trkpt>
      <trkpt lat="48.04595" lon="-3.48021">
        <ele>96.6</ele>
        <time>2025-02-26T13:30:57Z</time>
      </trkpt>
      <trkpt lat="48.04594" lon="-3.48023">
        <ele>96.6</ele>
        <time>2025-02-26T13:30:58Z</time>
      </trkpt>
      <trkpt lat="48.04594" lon="-3.48023">
        <ele>96.6</ele>
        <time>2025-02-26T13:30:59Z</time>
      </trkpt>
      <trkpt lat="48.04593" lon="-3.48024">
        <ele>96.7</ele>
        <time>2025-02-26T13:31:00Z</time>
      </trkpt>
      <trkpt lat="48.04593" lon="-3.48024">
        <ele>96.7</ele>
        <time>2025-02-26T13:31:01Z</time>
      </trkpt>
      <trkpt lat="48.04592" lon="-3.48024">
        <ele>96.7</ele>
        <time>2025-02-26T13:31:02Z</time>
      </trkpt>
      <trkpt lat="48.04591" lon="-3.48024">
        <ele>96.7</ele>
        <time>2025-02-26T13:31:03Z</time>
      </trkpt>
      <trkpt lat="48.04593" lon="-3.48022">
        <ele>96.7</ele>
        <time>2025-02-26T13:31:04Z</time>
      </trkpt>
      <trkpt lat="48.04592" lon="-3.48022">
        <ele>96.7</ele>
        <time>2025-02-26T13:31:05Z</time>
      </trkpt>
      <trkpt lat="48.04592" lon="-3.48022">
        <ele>96.7</ele>
        <time>2025-02-26T13:31:06Z</time>
      </trkpt>
      <trkpt lat="48.04591" lon="-3.48023">
        <ele>96.7</ele>
        <time>2025-02-26T13:31:07Z</time>
      </trkpt>
      <trkpt lat="48.04592" lon="-3.48022">
        <ele>96.7</ele>
        <time>2025-02-26T13:31:08Z</time>
      </trkpt>
      <trkpt lat="48.04592" lon="-3.48022">
        <ele>96.7</ele>
        <time>2025-02-26T13:31:09Z</time>
      </trkpt>
      <trkpt lat="48.04592" lon="-3.48022">
        <ele>96.7</ele>
        <time>2025-02-26T13:31:10Z</time>
      </trkpt>
      <trkpt lat="48.04592" lon="-3.48022">
        <ele>96.7</ele>
        <time>2025-02-26T13:31:11Z</time>
      </trkpt>
      <trkpt lat="48.04592" lon="-3.48022">
        <ele>96.7</ele>
        <time>2025-02-26T13:31:12Z</time>
      </trkpt>
      <trkpt lat="48.04592" lon="-3.48022">
        <ele>96.7</ele>
        <time>2025-02-26T13:31:13Z</time>
      </trkpt>
      <trkpt lat="48.04592" lon="-3.48022">
        <ele>96.7</ele>
        <time>2025-02-26T13:31:14Z</time>
      </trkpt>
      <trkpt lat="48.04592" lon="-3.48022">
        <ele>96.7</ele>
        <time>2025-02-26T13:31:15Z</time>
      </trkpt>
      <trkpt lat="48.04592" lon="-3.48023">
        <ele>96.7</ele>
        <time>2025-02-26T13:31:16Z</time>
      </trkpt>
      <trkpt lat="48.04592" lon="-3.48024">
        <ele>96.7</ele>
        <time>2025-02-26T13:31:17Z</time>
      </trkpt>
      <trkpt lat="48.04592" lon="-3.48024">
        <ele>96.7</ele>
        <time>2025-02-26T13:31:18Z</time>
      </trkpt>
      <trkpt lat="48.04592" lon="-3.48024">
        <ele>96.7</ele>
        <time>2025-02-26T13:31:19Z</time>
      </trkpt>
      <trkpt lat="48.04592" lon="-3.48024">
        <ele>96.7</ele>
        <time>2025-02-26T13:31:20Z</time>
      </trkpt>
      <trkpt lat="48.04592" lon="-3.48024">
        <ele>96.7</ele>
        <time>2025-02-26T13:31:21Z</time>
      </trkpt>
      <trkpt lat="48.04592" lon="-3.48024">
        <ele>96.7</ele>
        <time>2025-02-26T13:31:22Z</time>
      </trkpt>
      <trkpt lat="48.04592" lon="-3.48024">
        <ele>96.7</ele>
        <time>2025-02-26T13:31:23Z</time>
      </trkpt>
      <trkpt lat="48.04592" lon="-3.48024">
        <ele>96.7</ele>
        <time>2025-02-26T13:31:24Z</time>
      </trkpt>
      <trkpt lat="48.04591" lon="-3.48023">
        <ele>96.7</ele>
        <time>2025-02-26T13:31:25Z</time>
      </trkpt>
      <trkpt lat="48.04591" lon="-3.48022">
        <ele>96.7</ele>
        <time>2025-02-26T13:31:26Z</time>
      </trkpt>
      <trkpt lat="48.04591" lon="-3.48022">
        <ele>96.7</ele>
        <time>2025-02-26T13:31:27Z</time>
      </trkpt>
      <trkpt lat="48.04591" lon="-3.48022">
        <ele>96.7</ele>
        <time>2025-02-26T13:31:28Z</time>
      </trkpt>
      <trkpt lat="48.04591" lon="-3.48022">
        <ele>96.7</ele>
        <time>2025-02-26T13:31:29Z</time>
      </trkpt>
      <trkpt lat="48.04591" lon="-3.48022">
        <ele>96.7</ele>
        <time>2025-02-26T13:31:30Z</time>
      </trkpt>
      <trkpt lat="48.04591" lon="-3.48022">
        <ele>96.7</ele>
        <time>2025-02-26T13:31:31Z</time>
      </trkpt>
      <trkpt lat="48.04592" lon="-3.48023">
        <ele>96.7</ele>
        <time>2025-02-26T13:31:32Z</time>
      </trkpt>
      <trkpt lat="48.04592" lon="-3.48022">
        <ele>96.7</ele>
        <time>2025-02-26T13:31:33Z</time>
      </trkpt>
      <trkpt lat="48.04592" lon="-3.48021">
        <ele>96.7</ele>
        <time>2025-02-26T13:31:34Z</time>
      </trkpt>
      <trkpt lat="48.04591" lon="-3.48021">
        <ele>96.7</ele>
        <time>2025-02-26T13:31:35Z</time>
      </trkpt>
      <trkpt lat="48.0459" lon="-3.48022">
        <ele>96.7</ele>
        <time>2025-02-26T13:31:36Z</time>
      </trkpt>
      <trkpt lat="48.0459" lon="-3.48023">
        <ele>96.7</ele>
        <time>2025-02-26T13:31:37Z</time>
      </trkpt>
      <trkpt lat="48.04589" lon="-3.48024">
        <ele>96.7</ele>
        <time>2025-02-26T13:31:38Z</time>
      </trkpt>
      <trkpt lat="48.04587" lon="-3.48024">
        <ele>96.8</ele>
        <time>2025-02-26T13:31:39Z</time>
      </trkpt>
      <trkpt lat="48.04586" lon="-3.48025">
        <ele>96.8</ele>
        <time>2025-02-26T13:31:40Z</time>
      </trkpt>
      <trkpt lat="48.04586" lon="-3.48027">
        <ele>96.9</ele>
        <time>2025-02-26T13:31:41Z</time>
      </trkpt>
      <trkpt lat="48.04585" lon="-3.48028">
        <ele>96.9</ele>
        <time>2025-02-26T13:31:42Z</time>
      </trkpt>
      <trkpt lat="48.04585" lon="-3.48029">
        <ele>97.1</ele>
        <time>2025-02-26T13:31:43Z</time>
      </trkpt>
      <trkpt lat="48.04585" lon="-3.48032">
        <ele>97.3</ele>
        <time>2025-02-26T13:31:44Z</time>
      </trkpt>
      <trkpt lat="48.04585" lon="-3.48033">
        <ele>97.5</ele>
        <time>2025-02-26T13:31:45Z</time>
      </trkpt>
      <trkpt lat="48.04584" lon="-3.48033">
        <ele>97.6</ele>
        <time>2025-02-26T13:31:46Z</time>
      </trkpt>
      <trkpt lat="48.04583" lon="-3.48033">
        <ele>97.6</ele>
        <time>2025-02-26T13:31:47Z</time>
      </trkpt>
      <trkpt lat="48.04583" lon="-3.48033">
        <ele>97.6</ele>
        <time>2025-02-26T13:31:48Z</time>
      </trkpt>
      <trkpt lat="48.04582" lon="-3.48033">
        <ele>97.7</ele>
        <time>2025-02-26T13:31:49Z</time>
      </trkpt>
      <trkpt lat="48.04581" lon="-3.48034">
        <ele>97.9</ele>
        <time>2025-02-26T13:31:50Z</time>
      </trkpt>
      <trkpt lat="48.04581" lon="-3.48035">
        <ele>98</ele>
        <time>2025-02-26T13:31:51Z</time>
      </trkpt>
      <trkpt lat="48.04581" lon="-3.48036">
        <ele>98.1</ele>
        <time>2025-02-26T13:31:52Z</time>
      </trkpt>
      <trkpt lat="48.0458" lon="-3.48037">
        <ele>98.3</ele>
        <time>2025-02-26T13:31:53Z</time>
      </trkpt>
      <trkpt lat="48.0458" lon="-3.48037">
        <ele>98.4</ele>
        <time>2025-02-26T13:31:54Z</time>
      </trkpt>
      <trkpt lat="48.04579" lon="-3.48037">
        <ele>98.4</ele>
        <time>2025-02-26T13:31:55Z</time>
      </trkpt>
      <trkpt lat="48.04578" lon="-3.48037">
        <ele>98.5</ele>
        <time>2025-02-26T13:31:56Z</time>
      </trkpt>
      <trkpt lat="48.04578" lon="-3.48038">
        <ele>98.6</ele>
        <time>2025-02-26T13:31:57Z</time>
      </trkpt>
      <trkpt lat="48.04578" lon="-3.48039">
        <ele>98.8</ele>
        <time>2025-02-26T13:31:58Z</time>
      </trkpt>
      <trkpt lat="48.04577" lon="-3.48039">
        <ele>98.9</ele>
        <time>2025-02-26T13:31:59Z</time>
      </trkpt>
      <trkpt lat="48.04576" lon="-3.4804">
        <ele>99</ele>
        <time>2025-02-26T13:32:00Z</time>
      </trkpt>
      <trkpt lat="48.04576" lon="-3.4804">
        <ele>99.1</ele>
        <time>2025-02-26T13:32:01Z</time>
      </trkpt>
      <trkpt lat="48.04575" lon="-3.4804">
        <ele>99.2</ele>
        <time>2025-02-26T13:32:02Z</time>
      </trkpt>
      <trkpt lat="48.04575" lon="-3.4804">
        <ele>99.2</ele>
        <time>2025-02-26T13:32:03Z</time>
      </trkpt>
      <trkpt lat="48.04574" lon="-3.48041">
        <ele>99.4</ele>
        <time>2025-02-26T13:32:04Z</time>
      </trkpt>
      <trkpt lat="48.04574" lon="-3.48042">
        <ele>99.5</ele>
        <time>2025-02-26T13:32:05Z</time>
      </trkpt>
      <trkpt lat="48.04574" lon="-3.48043">
        <ele>99.7</ele>
        <time>2025-02-26T13:32:06Z</time>
      </trkpt>
      <trkpt lat="48.04574" lon="-3.48044">
        <ele>99.8</ele>
        <time>2025-02-26T13:32:07Z</time>
      </trkpt>
      <trkpt lat="48.04573" lon="-3.48044">
        <ele>100</ele>
        <time>2025-02-26T13:32:08Z</time>
      </trkpt>
      <trkpt lat="48.04573" lon="-3.48044">
        <ele>100</ele>
        <time>2025-02-26T13:32:09Z</time>
      </trkpt>
      <trkpt lat="48.04573" lon="-3.48045">
        <ele>100</ele>
        <time>2025-02-26T13:32:10Z</time>
      </trkpt>
      <trkpt lat="48.04573" lon="-3.48045">
        <ele>100.1</ele>
        <time>2025-02-26T13:32:11Z</time>
      </trkpt>
      <trkpt lat="48.04573" lon="-3.48046">
        <ele>100.3</ele>
        <time>2025-02-26T13:32:12Z</time>
      </trkpt>
      <trkpt lat="48.04572" lon="-3.48047">
        <ele>100.5</ele>
        <time>2025-02-26T13:32:13Z</time>
      </trkpt>
      <trkpt lat="48.04571" lon="-3.48048">
        <ele>100.7</ele>
        <time>2025-02-26T13:32:14Z</time>
      </trkpt>
      <trkpt lat="48.04571" lon="-3.48048">
        <ele>100.8</ele>
        <time>2025-02-26T13:32:15Z</time>
      </trkpt>
      <trkpt lat="48.04571" lon="-3.4805">
        <ele>101</ele>
        <time>2025-02-26T13:32:16Z</time>
      </trkpt>
      <trkpt lat="48.04571" lon="-3.4805">
        <ele>101.1</ele>
        <time>2025-02-26T13:32:17Z</time>
      </trkpt>
      <trkpt lat="48.04571" lon="-3.48051">
        <ele>101.1</ele>
        <time>2025-02-26T13:32:18Z</time>
      </trkpt>
      <trkpt lat="48.04571" lon="-3.48052">
        <ele>101.3</ele>
        <time>2025-02-26T13:32:19Z</time>
      </trkpt>
      <trkpt lat="48.04571" lon="-3.48052">
        <ele>101.2</ele>
        <time>2025-02-26T13:32:20Z</time>
      </trkpt>
      <trkpt lat="48.04572" lon="-3.48052">
        <ele>101.3</ele>
        <time>2025-02-26T13:32:21Z</time>
      </trkpt>
      <trkpt lat="48.04572" lon="-3.48053">
        <ele>101.3</ele>
        <time>2025-02-26T13:32:22Z</time>
      </trkpt>
      <trkpt lat="48.04572" lon="-3.48053">
        <ele>101.4</ele>
        <time>2025-02-26T13:32:23Z</time>
      </trkpt>
      <trkpt lat="48.04572" lon="-3.48054">
        <ele>101.4</ele>
        <time>2025-02-26T13:32:24Z</time>
      </trkpt>
      <trkpt lat="48.04572" lon="-3.48054">
        <ele>101.5</ele>
        <time>2025-02-26T13:32:25Z</time>
      </trkpt>
      <trkpt lat="48.04572" lon="-3.48055">
        <ele>101.5</ele>
        <time>2025-02-26T13:32:26Z</time>
      </trkpt>
      <trkpt lat="48.04573" lon="-3.48055">
        <ele>101.5</ele>
        <time>2025-02-26T13:32:27Z</time>
      </trkpt>
      <trkpt lat="48.04573" lon="-3.48056">
        <ele>101.6</ele>
        <time>2025-02-26T13:32:28Z</time>
      </trkpt>
      <trkpt lat="48.04572" lon="-3.48057">
        <ele>101.9</ele>
        <time>2025-02-26T13:32:29Z</time>
      </trkpt>
      <trkpt lat="48.04572" lon="-3.48057">
        <ele>101.9</ele>
        <time>2025-02-26T13:32:30Z</time>
      </trkpt>
      <trkpt lat="48.04572" lon="-3.48058">
        <ele>102.1</ele>
        <time>2025-02-26T13:32:31Z</time>
      </trkpt>
      <trkpt lat="48.04571" lon="-3.48058">
        <ele>102.3</ele>
        <time>2025-02-26T13:32:32Z</time>
      </trkpt>
      <trkpt lat="48.04571" lon="-3.48059">
        <ele>102.4</ele>
        <time>2025-02-26T13:32:33Z</time>
      </trkpt>
      <trkpt lat="48.0457" lon="-3.48059">
        <ele>102.6</ele>
        <time>2025-02-26T13:32:34Z</time>
      </trkpt>
      <trkpt lat="48.0457" lon="-3.4806">
        <ele>102.8</ele>
        <time>2025-02-26T13:32:35Z</time>
      </trkpt>
      <trkpt lat="48.04569" lon="-3.4806">
        <ele>103</ele>
        <time>2025-02-26T13:32:36Z</time>
      </trkpt>
      <trkpt lat="48.04569" lon="-3.48062">
        <ele>103.3</ele>
        <time>2025-02-26T13:32:37Z</time>
      </trkpt>
      <trkpt lat="48.04568" lon="-3.48063">
        <ele>103.6</ele>
        <time>2025-02-26T13:32:38Z</time>
      </trkpt>
      <trkpt lat="48.04567" lon="-3.48064">
        <ele>104</ele>
        <time>2025-02-26T13:32:39Z</time>
      </trkpt>
      <trkpt lat="48.04566" lon="-3.48065">
        <ele>104.3</ele>
        <time>2025-02-26T13:32:40Z</time>
      </trkpt>
      <trkpt lat="48.04566" lon="-3.48066">
        <ele>104.4</ele>
        <time>2025-02-26T13:32:41Z</time>
      </trkpt>
      <trkpt lat="48.04566" lon="-3.48066">
        <ele>104.4</ele>
        <time>2025-02-26T13:32:42Z</time>
      </trkpt>
      <trkpt lat="48.04566" lon="-3.48066">
        <ele>104.5</ele>
        <time>2025-02-26T13:32:43Z</time>
      </trkpt>
      <trkpt lat="48.04565" lon="-3.48067">
        <ele>104.8</ele>
        <time>2025-02-26T13:32:44Z</time>
      </trkpt>
      <trkpt lat="48.04565" lon="-3.48068">
        <ele>105</ele>
        <time>2025-02-26T13:32:45Z</time>
      </trkpt>
      <trkpt lat="48.04564" lon="-3.48068">
        <ele>105.2</ele>
        <time>2025-02-26T13:32:46Z</time>
      </trkpt>
      <trkpt lat="48.04563" lon="-3.48068">
        <ele>105.2</ele>
        <time>2025-02-26T13:32:47Z</time>
      </trkpt>
      <trkpt lat="48.04563" lon="-3.48067">
        <ele>105.1</ele>
        <time>2025-02-26T13:32:48Z</time>
      </trkpt>
      <trkpt lat="48.04563" lon="-3.48065">
        <ele>104.8</ele>
        <time>2025-02-26T13:32:49Z</time>
      </trkpt>
      <trkpt lat="48.04562" lon="-3.48064">
        <ele>104.7</ele>
        <time>2025-02-26T13:32:50Z</time>
      </trkpt>
      <trkpt lat="48.04561" lon="-3.48066">
        <ele>105.2</ele>
        <time>2025-02-26T13:32:51Z</time>
      </trkpt>
      <trkpt lat="48.0456" lon="-3.48066">
        <ele>105.2</ele>
        <time>2025-02-26T13:32:52Z</time>
      </trkpt>
      <trkpt lat="48.04559" lon="-3.48067">
        <ele>105.5</ele>
        <time>2025-02-26T13:32:53Z</time>
      </trkpt>
      <trkpt lat="48.04559" lon="-3.48068">
        <ele>105.8</ele>
        <time>2025-02-26T13:32:54Z</time>
      </trkpt>
      <trkpt lat="48.04558" lon="-3.48069">
        <ele>106</ele>
        <time>2025-02-26T13:32:55Z</time>
      </trkpt>
      <trkpt lat="48.04557" lon="-3.4807">
        <ele>106.4</ele>
        <time>2025-02-26T13:32:56Z</time>
      </trkpt>
      <trkpt lat="48.04557" lon="-3.4807">
        <ele>106.4</ele>
        <time>2025-02-26T13:32:57Z</time>
      </trkpt>
      <trkpt lat="48.04556" lon="-3.48071">
        <ele>106.7</ele>
        <time>2025-02-26T13:32:58Z</time>
      </trkpt>
      <trkpt lat="48.04556" lon="-3.48071">
        <ele>106.7</ele>
        <time>2025-02-26T13:32:59Z</time>
      </trkpt>
      <trkpt lat="48.04555" lon="-3.48073">
        <ele>107.1</ele>
        <time>2025-02-26T13:33:00Z</time>
      </trkpt>
      <trkpt lat="48.04555" lon="-3.48074">
        <ele>107.4</ele>
        <time>2025-02-26T13:33:01Z</time>
      </trkpt>
      <trkpt lat="48.04554" lon="-3.48075">
        <ele>107.7</ele>
        <time>2025-02-26T13:33:02Z</time>
      </trkpt>
      <trkpt lat="48.04553" lon="-3.48076">
        <ele>108</ele>
        <time>2025-02-26T13:33:03Z</time>
      </trkpt>
      <trkpt lat="48.04557" lon="-3.48075">
        <ele>107.4</ele>
        <time>2025-02-26T13:33:04Z</time>
      </trkpt>
      <trkpt lat="48.04558" lon="-3.48074">
        <ele>106.9</ele>
        <time>2025-02-26T13:33:05Z</time>
      </trkpt>
      <trkpt lat="48.04558" lon="-3.48074">
        <ele>107</ele>
        <time>2025-02-26T13:33:06Z</time>
      </trkpt>
      <trkpt lat="48.04558" lon="-3.48074">
        <ele>107.1</ele>
        <time>2025-02-26T13:33:07Z</time>
      </trkpt>
      <trkpt lat="48.04558" lon="-3.48075">
        <ele>107.3</ele>
        <time>2025-02-26T13:33:08Z</time>
      </trkpt>
      <trkpt lat="48.04558" lon="-3.48076">
        <ele>107.4</ele>
        <time>2025-02-26T13:33:09Z</time>
      </trkpt>
      <trkpt lat="48.04558" lon="-3.48078">
        <ele>107.7</ele>
        <time>2025-02-26T13:33:10Z</time>
      </trkpt>
      <trkpt lat="48.04558" lon="-3.4808">
        <ele>108</ele>
        <time>2025-02-26T13:33:11Z</time>
      </trkpt>
      <trkpt lat="48.04559" lon="-3.48079">
        <ele>107.9</ele>
        <time>2025-02-26T13:33:12Z</time>
      </trkpt>
      <trkpt lat="48.04559" lon="-3.48079">
        <ele>107.9</ele>
        <time>2025-02-26T13:33:13Z</time>
      </trkpt>
      <trkpt lat="48.04559" lon="-3.48079">
        <ele>107.9</ele>
        <time>2025-02-26T13:33:14Z</time>
      </trkpt>
      <trkpt lat="48.04559" lon="-3.48079">
        <ele>107.9</ele>
        <time>2025-02-26T13:33:15Z</time>
      </trkpt>
      <trkpt lat="48.04559" lon="-3.48079">
        <ele>107.9</ele>
        <time>2025-02-26T13:33:16Z</time>
      </trkpt>
      <trkpt lat="48.04559" lon="-3.48079">
        <ele>107.9</ele>
        <time>2025-02-26T13:33:17Z</time>
      </trkpt>
      <trkpt lat="48.04559" lon="-3.48079">
        <ele>107.9</ele>
        <time>2025-02-26T13:33:18Z</time>
      </trkpt>
      <trkpt lat="48.04559" lon="-3.48079">
        <ele>107.9</ele>
        <time>2025-02-26T13:33:19Z</time>
      </trkpt>
      <trkpt lat="48.04559" lon="-3.48079">
        <ele>107.9</ele>
        <time>2025-02-26T13:33:20Z</time>
      </trkpt>
      <trkpt lat="48.04559" lon="-3.48079">
        <ele>107.9</ele>
        <time>2025-02-26T13:33:21Z</time>
      </trkpt>
      <trkpt lat="48.04559" lon="-3.48079">
        <ele>107.9</ele>
        <time>2025-02-26T13:33:22Z</time>
      </trkpt>
      <trkpt lat="48.04559" lon="-3.48079">
        <ele>107.9</ele>
        <time>2025-02-26T13:33:23Z</time>
      </trkpt>
      <trkpt lat="48.04559" lon="-3.48079">
        <ele>107.9</ele>
        <time>2025-02-26T13:33:24Z</time>
      </trkpt>
      <trkpt lat="48.04559" lon="-3.48079">
        <ele>107.9</ele>
        <time>2025-02-26T13:33:25Z</time>
      </trkpt>
      <trkpt lat="48.04559" lon="-3.48079">
        <ele>107.9</ele>
        <time>2025-02-26T13:33:26Z</time>
      </trkpt>
      <trkpt lat="48.04559" lon="-3.48079">
        <ele>107.9</ele>
        <time>2025-02-26T13:33:27Z</time>
      </trkpt>
      <trkpt lat="48.04559" lon="-3.48079">
        <ele>107.9</ele>
        <time>2025-02-26T13:33:28Z</time>
      </trkpt>
      <trkpt lat="48.04559" lon="-3.48079">
        <ele>107.9</ele>
        <time>2025-02-26T13:33:29Z</time>
      </trkpt>
      <trkpt lat="48.04558" lon="-3.48078">
        <ele>107.7</ele>
        <time>2025-02-26T13:33:30Z</time>
      </trkpt>
      <trkpt lat="48.04558" lon="-3.48077">
        <ele>107.6</ele>
        <time>2025-02-26T13:33:31Z</time>
      </trkpt>
      <trkpt lat="48.04556" lon="-3.48076">
        <ele>107.7</ele>
        <time>2025-02-26T13:33:32Z</time>
      </trkpt>
      <trkpt lat="48.04554" lon="-3.48077">
        <ele>108</ele>
        <time>2025-02-26T13:33:33Z</time>
      </trkpt>
      <trkpt lat="48.04552" lon="-3.48078">
        <ele>108.4</ele>
        <time>2025-02-26T13:33:34Z</time>
      </trkpt>
      <trkpt lat="48.0455" lon="-3.48078">
        <ele>108.6</ele>
        <time>2025-02-26T13:33:35Z</time>
      </trkpt>
      <trkpt lat="48.04549" lon="-3.48079">
        <ele>108.9</ele>
        <time>2025-02-26T13:33:36Z</time>
      </trkpt>
      <trkpt lat="48.04548" lon="-3.4808">
        <ele>109.2</ele>
        <time>2025-02-26T13:33:37Z</time>
      </trkpt>
      <trkpt lat="48.04548" lon="-3.48082">
        <ele>109.5</ele>
        <time>2025-02-26T13:33:38Z</time>
      </trkpt>
      <trkpt lat="48.04547" lon="-3.48083">
        <ele>109.8</ele>
        <time>2025-02-26T13:33:39Z</time>
      </trkpt>
      <trkpt lat="48.04546" lon="-3.48084">
        <ele>110.1</ele>
        <time>2025-02-26T13:33:40Z</time>
      </trkpt>
      <trkpt lat="48.04546" lon="-3.48083">
        <ele>110</ele>
        <time>2025-02-26T13:33:41Z</time>
      </trkpt>
      <trkpt lat="48.04544" lon="-3.48084">
        <ele>110.3</ele>
        <time>2025-02-26T13:33:42Z</time>
      </trkpt>
      <trkpt lat="48.04543" lon="-3.48084">
        <ele>110.6</ele>
        <time>2025-02-26T13:33:43Z</time>
      </trkpt>
      <trkpt lat="48.04543" lon="-3.48084">
        <ele>110.6</ele>
        <time>2025-02-26T13:33:44Z</time>
      </trkpt>
      <trkpt lat="48.04542" lon="-3.48084">
        <ele>110.7</ele>
        <time>2025-02-26T13:33:45Z</time>
      </trkpt>
      <trkpt lat="48.04541" lon="-3.48084">
        <ele>110.8</ele>
        <time>2025-02-26T13:33:46Z</time>
      </trkpt>
      <trkpt lat="48.0454" lon="-3.48085">
        <ele>111</ele>
        <time>2025-02-26T13:33:47Z</time>
      </trkpt>
      <trkpt lat="48.04539" lon="-3.48085">
        <ele>111.2</ele>
        <time>2025-02-26T13:33:48Z</time>
      </trkpt>
      <trkpt lat="48.04537" lon="-3.48085">
        <ele>111.3</ele>
        <time>2025-02-26T13:33:49Z</time>
      </trkpt>
      <trkpt lat="48.04537" lon="-3.48085">
        <ele>111.3</ele>
        <time>2025-02-26T13:33:50Z</time>
      </trkpt>
      <trkpt lat="48.04535" lon="-3.48084">
        <ele>111.3</ele>
        <time>2025-02-26T13:33:51Z</time>
      </trkpt>
      <trkpt lat="48.04535" lon="-3.48084">
        <ele>111.3</ele>
        <time>2025-02-26T13:33:52Z</time>
      </trkpt>
      <trkpt lat="48.04534" lon="-3.48084">
        <ele>111.5</ele>
        <time>2025-02-26T13:33:53Z</time>
      </trkpt>
      <trkpt lat="48.04533" lon="-3.48083">
        <ele>111.4</ele>
        <time>2025-02-26T13:33:54Z</time>
      </trkpt>
      <trkpt lat="48.04532" lon="-3.48083">
        <ele>111.4</ele>
        <time>2025-02-26T13:33:55Z</time>
      </trkpt>
      <trkpt lat="48.04531" lon="-3.48083">
        <ele>111.5</ele>
        <time>2025-02-26T13:33:56Z</time>
      </trkpt>
      <trkpt lat="48.0453" lon="-3.48083">
        <ele>111.7</ele>
        <time>2025-02-26T13:33:57Z</time>
      </trkpt>
      <trkpt lat="48.04529" lon="-3.48083">
        <ele>111.8</ele>
        <time>2025-02-26T13:33:58Z</time>
      </trkpt>
      <trkpt lat="48.04529" lon="-3.48083">
        <ele>111.6</ele>
        <time>2025-02-26T13:33:59Z</time>
      </trkpt>
      <trkpt lat="48.04528" lon="-3.48082">
        <ele>111.6</ele>
        <time>2025-02-26T13:34:00Z</time>
      </trkpt>
      <trkpt lat="48.04527" lon="-3.48082">
        <ele>111.7</ele>
        <time>2025-02-26T13:34:01Z</time>
      </trkpt>
      <trkpt lat="48.04526" lon="-3.48082">
        <ele>111.9</ele>
        <time>2025-02-26T13:34:02Z</time>
      </trkpt>
      <trkpt lat="48.04525" lon="-3.48082">
        <ele>112.1</ele>
        <time>2025-02-26T13:34:03Z</time>
      </trkpt>
      <trkpt lat="48.04524" lon="-3.48082">
        <ele>112.3</ele>
        <time>2025-02-26T13:34:04Z</time>
      </trkpt>
      <trkpt lat="48.04523" lon="-3.48082">
        <ele>112.3</ele>
        <time>2025-02-26T13:34:05Z</time>
      </trkpt>
      <trkpt lat="48.04522" lon="-3.48081">
        <ele>112.3</ele>
        <time>2025-02-26T13:34:06Z</time>
      </trkpt>
      <trkpt lat="48.04521" lon="-3.48081">
        <ele>112.6</ele>
        <time>2025-02-26T13:34:07Z</time>
      </trkpt>
      <trkpt lat="48.0452" lon="-3.48081">
        <ele>112.7</ele>
        <time>2025-02-26T13:34:08Z</time>
      </trkpt>
      <trkpt lat="48.04518" lon="-3.48081">
        <ele>112.8</ele>
        <time>2025-02-26T13:34:09Z</time>
      </trkpt>
      <trkpt lat="48.04517" lon="-3.4808">
        <ele>112.8</ele>
        <time>2025-02-26T13:34:10Z</time>
      </trkpt>
      <trkpt lat="48.04516" lon="-3.48079">
        <ele>112.8</ele>
        <time>2025-02-26T13:34:11Z</time>
      </trkpt>
      <trkpt lat="48.04515" lon="-3.48078">
        <ele>112.7</ele>
        <time>2025-02-26T13:34:12Z</time>
      </trkpt>
      <trkpt lat="48.04514" lon="-3.48077">
        <ele>112.6</ele>
        <time>2025-02-26T13:34:13Z</time>
      </trkpt>
      <trkpt lat="48.04513" lon="-3.48076">
        <ele>112.6</ele>
        <time>2025-02-26T13:34:14Z</time>
      </trkpt>
      <trkpt lat="48.04512" lon="-3.48076">
        <ele>112.7</ele>
        <time>2025-02-26T13:34:15Z</time>
      </trkpt>
      <trkpt lat="48.04511" lon="-3.48074">
        <ele>112.4</ele>
        <time>2025-02-26T13:34:16Z</time>
      </trkpt>
      <trkpt lat="48.0451" lon="-3.48072">
        <ele>112.2</ele>
        <time>2025-02-26T13:34:17Z</time>
      </trkpt>
      <trkpt lat="48.04509" lon="-3.48071">
        <ele>111.9</ele>
        <time>2025-02-26T13:34:18Z</time>
      </trkpt>
      <trkpt lat="48.0451" lon="-3.48069">
        <ele>111.4</ele>
        <time>2025-02-26T13:34:19Z</time>
      </trkpt>
      <trkpt lat="48.0451" lon="-3.48067">
        <ele>111.2</ele>
        <time>2025-02-26T13:34:20Z</time>
      </trkpt>
      <trkpt lat="48.04509" lon="-3.48067">
        <ele>111.1</ele>
        <time>2025-02-26T13:34:21Z</time>
      </trkpt>
      <trkpt lat="48.04508" lon="-3.48066">
        <ele>111.1</ele>
        <time>2025-02-26T13:34:22Z</time>
      </trkpt>
      <trkpt lat="48.04507" lon="-3.48066">
        <ele>111.1</ele>
        <time>2025-02-26T13:34:23Z</time>
      </trkpt>
      <trkpt lat="48.04506" lon="-3.48065">
        <ele>111.2</ele>
        <time>2025-02-26T13:34:24Z</time>
      </trkpt>
      <trkpt lat="48.04505" lon="-3.48065">
        <ele>111.3</ele>
        <time>2025-02-26T13:34:25Z</time>
      </trkpt>
      <trkpt lat="48.04505" lon="-3.48064">
        <ele>111.1</ele>
        <time>2025-02-26T13:34:26Z</time>
      </trkpt>
      <trkpt lat="48.04504" lon="-3.48063">
        <ele>111</ele>
        <time>2025-02-26T13:34:27Z</time>
      </trkpt>
      <trkpt lat="48.04503" lon="-3.48063">
        <ele>111.1</ele>
        <time>2025-02-26T13:34:28Z</time>
      </trkpt>
      <trkpt lat="48.04502" lon="-3.48063">
        <ele>111.3</ele>
        <time>2025-02-26T13:34:29Z</time>
      </trkpt>
      <trkpt lat="48.04501" lon="-3.48062">
        <ele>111.2</ele>
        <time>2025-02-26T13:34:30Z</time>
      </trkpt>
      <trkpt lat="48.045" lon="-3.48061">
        <ele>111.1</ele>
        <time>2025-02-26T13:34:31Z</time>
      </trkpt>
      <trkpt lat="48.04499" lon="-3.4806">
        <ele>111.1</ele>
        <time>2025-02-26T13:34:32Z</time>
      </trkpt>
      <trkpt lat="48.04499" lon="-3.48059">
        <ele>111</ele>
        <time>2025-02-26T13:34:33Z</time>
      </trkpt>
      <trkpt lat="48.04498" lon="-3.48058">
        <ele>110.9</ele>
        <time>2025-02-26T13:34:34Z</time>
      </trkpt>
      <trkpt lat="48.04497" lon="-3.48057">
        <ele>110.7</ele>
        <time>2025-02-26T13:34:35Z</time>
      </trkpt>
      <trkpt lat="48.04497" lon="-3.48055">
        <ele>110.5</ele>
        <time>2025-02-26T13:34:36Z</time>
      </trkpt>
      <trkpt lat="48.04496" lon="-3.48054">
        <ele>110.5</ele>
        <time>2025-02-26T13:34:37Z</time>
      </trkpt>
      <trkpt lat="48.04495" lon="-3.48054">
        <ele>110.6</ele>
        <time>2025-02-26T13:34:38Z</time>
      </trkpt>
      <trkpt lat="48.04494" lon="-3.48054">
        <ele>110.8</ele>
        <time>2025-02-26T13:34:39Z</time>
      </trkpt>
      <trkpt lat="48.04493" lon="-3.48054">
        <ele>110.9</ele>
        <time>2025-02-26T13:34:40Z</time>
      </trkpt>
      <trkpt lat="48.04492" lon="-3.48053">
        <ele>110.9</ele>
        <time>2025-02-26T13:34:41Z</time>
      </trkpt>
      <trkpt lat="48.04491" lon="-3.48053">
        <ele>111</ele>
        <time>2025-02-26T13:34:42Z</time>
      </trkpt>
      <trkpt lat="48.04491" lon="-3.48051">
        <ele>110.9</ele>
        <time>2025-02-26T13:34:43Z</time>
      </trkpt>
      <trkpt lat="48.0449" lon="-3.48051">
        <ele>110.9</ele>
        <time>2025-02-26T13:34:44Z</time>
      </trkpt>
      <trkpt lat="48.0449" lon="-3.48051">
        <ele>111</ele>
        <time>2025-02-26T13:34:45Z</time>
      </trkpt>
      <trkpt lat="48.04489" lon="-3.48051">
        <ele>111</ele>
        <time>2025-02-26T13:34:46Z</time>
      </trkpt>
      <trkpt lat="48.04489" lon="-3.48051">
        <ele>111.1</ele>
        <time>2025-02-26T13:34:47Z</time>
      </trkpt>
      <trkpt lat="48.04488" lon="-3.48051">
        <ele>111.3</ele>
        <time>2025-02-26T13:34:48Z</time>
      </trkpt>
      <trkpt lat="48.04487" lon="-3.48051">
        <ele>111.4</ele>
        <time>2025-02-26T13:34:49Z</time>
      </trkpt>
      <trkpt lat="48.04486" lon="-3.48051">
        <ele>111.7</ele>
        <time>2025-02-26T13:34:50Z</time>
      </trkpt>
      <trkpt lat="48.04485" lon="-3.48052">
        <ele>112</ele>
        <time>2025-02-26T13:34:51Z</time>
      </trkpt>
      <trkpt lat="48.04484" lon="-3.48053">
        <ele>112.4</ele>
        <time>2025-02-26T13:34:52Z</time>
      </trkpt>
      <trkpt lat="48.04483" lon="-3.48054">
        <ele>112.6</ele>
        <time>2025-02-26T13:34:53Z</time>
      </trkpt>
      <trkpt lat="48.04482" lon="-3.48053">
        <ele>112.7</ele>
        <time>2025-02-26T13:34:54Z</time>
      </trkpt>
      <trkpt lat="48.04481" lon="-3.48053">
        <ele>112.8</ele>
        <time>2025-02-26T13:34:55Z</time>
      </trkpt>
      <trkpt lat="48.04481" lon="-3.48053">
        <ele>113</ele>
        <time>2025-02-26T13:34:56Z</time>
      </trkpt>
      <trkpt lat="48.0448" lon="-3.48053">
        <ele>113.1</ele>
        <time>2025-02-26T13:34:57Z</time>
      </trkpt>
      <trkpt lat="48.0448" lon="-3.48053">
        <ele>113.1</ele>
        <time>2025-02-26T13:34:58Z</time>
      </trkpt>
      <trkpt lat="48.04479" lon="-3.48053">
        <ele>113.3</ele>
        <time>2025-02-26T13:34:59Z</time>
      </trkpt>
      <trkpt lat="48.04478" lon="-3.48053">
        <ele>113.4</ele>
        <time>2025-02-26T13:35:00Z</time>
      </trkpt>
      <trkpt lat="48.04477" lon="-3.48053">
        <ele>113.5</ele>
        <time>2025-02-26T13:35:01Z</time>
      </trkpt>
      <trkpt lat="48.04477" lon="-3.48053">
        <ele>113.7</ele>
        <time>2025-02-26T13:35:02Z</time>
      </trkpt>
      <trkpt lat="48.04476" lon="-3.48053">
        <ele>113.9</ele>
        <time>2025-02-26T13:35:03Z</time>
      </trkpt>
      <trkpt lat="48.04475" lon="-3.48054">
        <ele>114.1</ele>
        <time>2025-02-26T13:35:04Z</time>
      </trkpt>
      <trkpt lat="48.04474" lon="-3.48054">
        <ele>114.3</ele>
        <time>2025-02-26T13:35:05Z</time>
      </trkpt>
      <trkpt lat="48.04474" lon="-3.48054">
        <ele>114.4</ele>
        <time>2025-02-26T13:35:06Z</time>
      </trkpt>
      <trkpt lat="48.04473" lon="-3.48053">
        <ele>114.3</ele>
        <time>2025-02-26T13:35:07Z</time>
      </trkpt>
      <trkpt lat="48.04472" lon="-3.48052">
        <ele>114.3</ele>
        <time>2025-02-26T13:35:08Z</time>
      </trkpt>
      <trkpt lat="48.04471" lon="-3.48052">
        <ele>114.4</ele>
        <time>2025-02-26T13:35:09Z</time>
      </trkpt>
      <trkpt lat="48.0447" lon="-3.48053">
        <ele>114.8</ele>
        <time>2025-02-26T13:35:10Z</time>
      </trkpt>
      <trkpt lat="48.04469" lon="-3.48053">
        <ele>115</ele>
        <time>2025-02-26T13:35:11Z</time>
      </trkpt>
      <trkpt lat="48.04468" lon="-3.48052">
        <ele>115</ele>
        <time>2025-02-26T13:35:12Z</time>
      </trkpt>
      <trkpt lat="48.04467" lon="-3.48051">
        <ele>114.8</ele>
        <time>2025-02-26T13:35:13Z</time>
      </trkpt>
      <trkpt lat="48.04466" lon="-3.4805">
        <ele>114.8</ele>
        <time>2025-02-26T13:35:14Z</time>
      </trkpt>
      <trkpt lat="48.04465" lon="-3.4805">
        <ele>114.8</ele>
        <time>2025-02-26T13:35:15Z</time>
      </trkpt>
      <trkpt lat="48.04464" lon="-3.48049">
        <ele>114.8</ele>
        <time>2025-02-26T13:35:16Z</time>
      </trkpt>
      <trkpt lat="48.04463" lon="-3.48049">
        <ele>114.9</ele>
        <time>2025-02-26T13:35:17Z</time>
      </trkpt>
      <trkpt lat="48.04462" lon="-3.48049">
        <ele>115</ele>
        <time>2025-02-26T13:35:18Z</time>
      </trkpt>
      <trkpt lat="48.04461" lon="-3.48049">
        <ele>115.3</ele>
        <time>2025-02-26T13:35:19Z</time>
      </trkpt>
      <trkpt lat="48.04461" lon="-3.4805">
        <ele>115.5</ele>
        <time>2025-02-26T13:35:20Z</time>
      </trkpt>
      <trkpt lat="48.0446" lon="-3.4805">
        <ele>115.6</ele>
        <time>2025-02-26T13:35:21Z</time>
      </trkpt>
      <trkpt lat="48.04459" lon="-3.4805">
        <ele>115.8</ele>
        <time>2025-02-26T13:35:22Z</time>
      </trkpt>
      <trkpt lat="48.04458" lon="-3.4805">
        <ele>116</ele>
        <time>2025-02-26T13:35:23Z</time>
      </trkpt>
      <trkpt lat="48.04457" lon="-3.48049">
        <ele>115.9</ele>
        <time>2025-02-26T13:35:24Z</time>
      </trkpt>
      <trkpt lat="48.04456" lon="-3.48049">
        <ele>116</ele>
        <time>2025-02-26T13:35:25Z</time>
      </trkpt>
      <trkpt lat="48.04456" lon="-3.4805">
        <ele>116.3</ele>
        <time>2025-02-26T13:35:26Z</time>
      </trkpt>
      <trkpt lat="48.04455" lon="-3.4805">
        <ele>116.5</ele>
        <time>2025-02-26T13:35:27Z</time>
      </trkpt>
      <trkpt lat="48.04454" lon="-3.4805">
        <ele>116.6</ele>
        <time>2025-02-26T13:35:28Z</time>
      </trkpt>
      <trkpt lat="48.04454" lon="-3.48051">
        <ele>116.7</ele>
        <time>2025-02-26T13:35:29Z</time>
      </trkpt>
      <trkpt lat="48.04453" lon="-3.4805">
        <ele>116.9</ele>
        <time>2025-02-26T13:35:30Z</time>
      </trkpt>
      <trkpt lat="48.04452" lon="-3.48051">
        <ele>117</ele>
        <time>2025-02-26T13:35:31Z</time>
      </trkpt>
      <trkpt lat="48.04451" lon="-3.48051">
        <ele>117.1</ele>
        <time>2025-02-26T13:35:32Z</time>
      </trkpt>
      <trkpt lat="48.04451" lon="-3.48051">
        <ele>117.2</ele>
        <time>2025-02-26T13:35:33Z</time>
      </trkpt>
      <trkpt lat="48.0445" lon="-3.48051">
        <ele>117.3</ele>
        <time>2025-02-26T13:35:34Z</time>
      </trkpt>
      <trkpt lat="48.04449" lon="-3.48052">
        <ele>117.5</ele>
        <time>2025-02-26T13:35:35Z</time>
      </trkpt>
      <trkpt lat="48.04449" lon="-3.48052">
        <ele>117.7</ele>
        <time>2025-02-26T13:35:36Z</time>
      </trkpt>
      <trkpt lat="48.04448" lon="-3.48052">
        <ele>117.8</ele>
        <time>2025-02-26T13:35:37Z</time>
      </trkpt>
      <trkpt lat="48.04448" lon="-3.48052">
        <ele>117.9</ele>
        <time>2025-02-26T13:35:38Z</time>
      </trkpt>
      <trkpt lat="48.04447" lon="-3.48052">
        <ele>118</ele>
        <time>2025-02-26T13:35:39Z</time>
      </trkpt>
      <trkpt lat="48.04446" lon="-3.48053">
        <ele>118.3</ele>
        <time>2025-02-26T13:35:40Z</time>
      </trkpt>
      <trkpt lat="48.04445" lon="-3.48053">
        <ele>118.5</ele>
        <time>2025-02-26T13:35:41Z</time>
      </trkpt>
      <trkpt lat="48.04444" lon="-3.48053">
        <ele>118.6</ele>
        <time>2025-02-26T13:35:42Z</time>
      </trkpt>
      <trkpt lat="48.04444" lon="-3.48054">
        <ele>118.8</ele>
        <time>2025-02-26T13:35:43Z</time>
      </trkpt>
      <trkpt lat="48.04443" lon="-3.48054">
        <ele>119.1</ele>
        <time>2025-02-26T13:35:44Z</time>
      </trkpt>
      <trkpt lat="48.04442" lon="-3.48054">
        <ele>119.3</ele>
        <time>2025-02-26T13:35:45Z</time>
      </trkpt>
      <trkpt lat="48.04441" lon="-3.48053">
        <ele>119.3</ele>
        <time>2025-02-26T13:35:46Z</time>
      </trkpt>
      <trkpt lat="48.0444" lon="-3.48053">
        <ele>119.3</ele>
        <time>2025-02-26T13:35:47Z</time>
      </trkpt>
      <trkpt lat="48.0444" lon="-3.48052">
        <ele>119.4</ele>
        <time>2025-02-26T13:35:48Z</time>
      </trkpt>
      <trkpt lat="48.04439" lon="-3.48052">
        <ele>119.5</ele>
        <time>2025-02-26T13:35:49Z</time>
      </trkpt>
      <trkpt lat="48.04438" lon="-3.48052">
        <ele>119.7</ele>
        <time>2025-02-26T13:35:50Z</time>
      </trkpt>
      <trkpt lat="48.04438" lon="-3.48052">
        <ele>119.8</ele>
        <time>2025-02-26T13:35:51Z</time>
      </trkpt>
      <trkpt lat="48.04437" lon="-3.48052">
        <ele>120.1</ele>
        <time>2025-02-26T13:35:52Z</time>
      </trkpt>
      <trkpt lat="48.04436" lon="-3.48052">
        <ele>120.2</ele>
        <time>2025-02-26T13:35:53Z</time>
      </trkpt>
      <trkpt lat="48.04435" lon="-3.48053">
        <ele>120.4</ele>
        <time>2025-02-26T13:35:54Z</time>
      </trkpt>
      <trkpt lat="48.04435" lon="-3.48053">
        <ele>120.6</ele>
        <time>2025-02-26T13:35:55Z</time>
      </trkpt>
      <trkpt lat="48.04434" lon="-3.48054">
        <ele>121</ele>
        <time>2025-02-26T13:35:56Z</time>
      </trkpt>
      <trkpt lat="48.04433" lon="-3.48055">
        <ele>121.3</ele>
        <time>2025-02-26T13:35:57Z</time>
      </trkpt>
      <trkpt lat="48.04432" lon="-3.48055">
        <ele>121.4</ele>
        <time>2025-02-26T13:35:58Z</time>
      </trkpt>
      <trkpt lat="48.04432" lon="-3.48055">
        <ele>121.7</ele>
        <time>2025-02-26T13:35:59Z</time>
      </trkpt>
      <trkpt lat="48.04431" lon="-3.48055">
        <ele>121.8</ele>
        <time>2025-02-26T13:36:00Z</time>
      </trkpt>
      <trkpt lat="48.0443" lon="-3.48054">
        <ele>121.9</ele>
        <time>2025-02-26T13:36:01Z</time>
      </trkpt>
      <trkpt lat="48.04428" lon="-3.48054">
        <ele>122.2</ele>
        <time>2025-02-26T13:36:02Z</time>
      </trkpt>
      <trkpt lat="48.04427" lon="-3.48054">
        <ele>122.5</ele>
        <time>2025-02-26T13:36:03Z</time>
      </trkpt>
      <trkpt lat="48.04426" lon="-3.48055">
        <ele>122.9</ele>
        <time>2025-02-26T13:36:04Z</time>
      </trkpt>
      <trkpt lat="48.04425" lon="-3.48055">
        <ele>123.2</ele>
        <time>2025-02-26T13:36:05Z</time>
      </trkpt>
      <trkpt lat="48.04424" lon="-3.48056">
        <ele>123.4</ele>
        <time>2025-02-26T13:36:06Z</time>
      </trkpt>
      <trkpt lat="48.04423" lon="-3.48055">
        <ele>123.4</ele>
        <time>2025-02-26T13:36:07Z</time>
      </trkpt>
      <trkpt lat="48.04422" lon="-3.48056">
        <ele>123.8</ele>
        <time>2025-02-26T13:36:08Z</time>
      </trkpt>
      <trkpt lat="48.04422" lon="-3.48055">
        <ele>123.8</ele>
        <time>2025-02-26T13:36:09Z</time>
      </trkpt>
      <trkpt lat="48.04421" lon="-3.48055">
        <ele>124</ele>
        <time>2025-02-26T13:36:10Z</time>
      </trkpt>
      <trkpt lat="48.04421" lon="-3.48054">
        <ele>123.9</ele>
        <time>2025-02-26T13:36:11Z</time>
      </trkpt>
      <trkpt lat="48.0442" lon="-3.48054">
        <ele>124</ele>
        <time>2025-02-26T13:36:12Z</time>
      </trkpt>
      <trkpt lat="48.04419" lon="-3.48054">
        <ele>124.1</ele>
        <time>2025-02-26T13:36:13Z</time>
      </trkpt>
      <trkpt lat="48.04419" lon="-3.48054">
        <ele>124.3</ele>
        <time>2025-02-26T13:36:14Z</time>
      </trkpt>
      <trkpt lat="48.04418" lon="-3.48054">
        <ele>124.4</ele>
        <time>2025-02-26T13:36:15Z</time>
      </trkpt>
      <trkpt lat="48.04417" lon="-3.48054">
        <ele>124.4</ele>
        <time>2025-02-26T13:36:16Z</time>
      </trkpt>
      <trkpt lat="48.04417" lon="-3.48054">
        <ele>124.6</ele>
        <time>2025-02-26T13:36:17Z</time>
      </trkpt>
      <trkpt lat="48.04416" lon="-3.48053">
        <ele>124.4</ele>
        <time>2025-02-26T13:36:18Z</time>
      </trkpt>
      <trkpt lat="48.04415" lon="-3.48053">
        <ele>124.7</ele>
        <time>2025-02-26T13:36:19Z</time>
      </trkpt>
      <trkpt lat="48.04415" lon="-3.48053">
        <ele>124.9</ele>
        <time>2025-02-26T13:36:20Z</time>
      </trkpt>
      <trkpt lat="48.04414" lon="-3.48053">
        <ele>125</ele>
        <time>2025-02-26T13:36:21Z</time>
      </trkpt>
      <trkpt lat="48.04414" lon="-3.48053">
        <ele>125.3</ele>
        <time>2025-02-26T13:36:22Z</time>
      </trkpt>
      <trkpt lat="48.04413" lon="-3.48054">
        <ele>125.6</ele>
        <time>2025-02-26T13:36:23Z</time>
      </trkpt>
      <trkpt lat="48.04412" lon="-3.48055">
        <ele>126.2</ele>
        <time>2025-02-26T13:36:24Z</time>
      </trkpt>
      <trkpt lat="48.04411" lon="-3.48056">
        <ele>126.6</ele>
        <time>2025-02-26T13:36:25Z</time>
      </trkpt>
      <trkpt lat="48.04412" lon="-3.48057">
        <ele>126.4</ele>
        <time>2025-02-26T13:36:26Z</time>
      </trkpt>
      <trkpt lat="48.04412" lon="-3.48058">
        <ele>126.8</ele>
        <time>2025-02-26T13:36:27Z</time>
      </trkpt>
      <trkpt lat="48.04411" lon="-3.48058">
        <ele>127.2</ele>
        <time>2025-02-26T13:36:28Z</time>
      </trkpt>
      <trkpt lat="48.0441" lon="-3.48058">
        <ele>127.3</ele>
        <time>2025-02-26T13:36:29Z</time>
      </trkpt>
      <trkpt lat="48.0441" lon="-3.48059">
        <ele>127.5</ele>
        <time>2025-02-26T13:36:30Z</time>
      </trkpt>
      <trkpt lat="48.04409" lon="-3.48059">
        <ele>127.7</ele>
        <time>2025-02-26T13:36:31Z</time>
      </trkpt>
      <trkpt lat="48.04409" lon="-3.48058">
        <ele>127.6</ele>
        <time>2025-02-26T13:36:32Z</time>
      </trkpt>
      <trkpt lat="48.04408" lon="-3.48057">
        <ele>127.6</ele>
        <time>2025-02-26T13:36:33Z</time>
      </trkpt>
      <trkpt lat="48.04407" lon="-3.48057">
        <ele>127.7</ele>
        <time>2025-02-26T13:36:34Z</time>
      </trkpt>
      <trkpt lat="48.04406" lon="-3.48056">
        <ele>127.7</ele>
        <time>2025-02-26T13:36:35Z</time>
      </trkpt>
      <trkpt lat="48.04406" lon="-3.48056">
        <ele>127.7</ele>
        <time>2025-02-26T13:36:36Z</time>
      </trkpt>
      <trkpt lat="48.04406" lon="-3.48056">
        <ele>127.9</ele>
        <time>2025-02-26T13:36:37Z</time>
      </trkpt>
      <trkpt lat="48.04405" lon="-3.48056">
        <ele>128</ele>
        <time>2025-02-26T13:36:38Z</time>
      </trkpt>
      <trkpt lat="48.04404" lon="-3.48055">
        <ele>128</ele>
        <time>2025-02-26T13:36:39Z</time>
      </trkpt>
      <trkpt lat="48.04404" lon="-3.48055">
        <ele>128.1</ele>
        <time>2025-02-26T13:36:40Z</time>
      </trkpt>
      <trkpt lat="48.04404" lon="-3.48055">
        <ele>128.1</ele>
        <time>2025-02-26T13:36:41Z</time>
      </trkpt>
      <trkpt lat="48.04403" lon="-3.48055">
        <ele>128.5</ele>
        <time>2025-02-26T13:36:42Z</time>
      </trkpt>
      <trkpt lat="48.04402" lon="-3.48056">
        <ele>128.8</ele>
        <time>2025-02-26T13:36:43Z</time>
      </trkpt>
      <trkpt lat="48.04401" lon="-3.48056">
        <ele>129.1</ele>
        <time>2025-02-26T13:36:44Z</time>
      </trkpt>
      <trkpt lat="48.044" lon="-3.48056">
        <ele>129.4</ele>
        <time>2025-02-26T13:36:45Z</time>
      </trkpt>
      <trkpt lat="48.044" lon="-3.48055">
        <ele>129</ele>
        <time>2025-02-26T13:36:46Z</time>
      </trkpt>
      <trkpt lat="48.04399" lon="-3.48054">
        <ele>129</ele>
        <time>2025-02-26T13:36:47Z</time>
      </trkpt>
      <trkpt lat="48.04399" lon="-3.48052">
        <ele>128.7</ele>
        <time>2025-02-26T13:36:48Z</time>
      </trkpt>
      <trkpt lat="48.04399" lon="-3.48052">
        <ele>128.6</ele>
        <time>2025-02-26T13:36:49Z</time>
      </trkpt>
      <trkpt lat="48.04399" lon="-3.48052">
        <ele>128.7</ele>
        <time>2025-02-26T13:36:50Z</time>
      </trkpt>
      <trkpt lat="48.04398" lon="-3.48051">
        <ele>128.7</ele>
        <time>2025-02-26T13:36:51Z</time>
      </trkpt>
      <trkpt lat="48.04397" lon="-3.48051">
        <ele>128.8</ele>
        <time>2025-02-26T13:36:52Z</time>
      </trkpt>
      <trkpt lat="48.04396" lon="-3.4805">
        <ele>128.8</ele>
        <time>2025-02-26T13:36:53Z</time>
      </trkpt>
      <trkpt lat="48.04395" lon="-3.4805">
        <ele>129</ele>
        <time>2025-02-26T13:36:54Z</time>
      </trkpt>
      <trkpt lat="48.04395" lon="-3.48049">
        <ele>128.7</ele>
        <time>2025-02-26T13:36:55Z</time>
      </trkpt>
      <trkpt lat="48.04396" lon="-3.48048">
        <ele>128.4</ele>
        <time>2025-02-26T13:36:56Z</time>
      </trkpt>
      <trkpt lat="48.04396" lon="-3.48048">
        <ele>128.4</ele>
        <time>2025-02-26T13:36:57Z</time>
      </trkpt>
      <trkpt lat="48.04395" lon="-3.48047">
        <ele>128.6</ele>
        <time>2025-02-26T13:36:58Z</time>
      </trkpt>
      <trkpt lat="48.04394" lon="-3.48047">
        <ele>128.8</ele>
        <time>2025-02-26T13:36:59Z</time>
      </trkpt>
      <trkpt lat="48.04393" lon="-3.48047">
        <ele>129</ele>
        <time>2025-02-26T13:37:00Z</time>
      </trkpt>
      <trkpt lat="48.04392" lon="-3.48048">
        <ele>129.5</ele>
        <time>2025-02-26T13:37:01Z</time>
      </trkpt>
      <trkpt lat="48.04391" lon="-3.48049">
        <ele>129.9</ele>
        <time>2025-02-26T13:37:02Z</time>
      </trkpt>
      <trkpt lat="48.0439" lon="-3.4805">
        <ele>130.3</ele>
        <time>2025-02-26T13:37:03Z</time>
      </trkpt>
      <trkpt lat="48.04389" lon="-3.4805">
        <ele>130.6</ele>
        <time>2025-02-26T13:37:04Z</time>
      </trkpt>
      <trkpt lat="48.04388" lon="-3.48049">
        <ele>130.7</ele>
        <time>2025-02-26T13:37:05Z</time>
      </trkpt>
      <trkpt lat="48.04387" lon="-3.48048">
        <ele>130.7</ele>
        <time>2025-02-26T13:37:06Z</time>
      </trkpt>
      <trkpt lat="48.04386" lon="-3.48047">
        <ele>130.7</ele>
        <time>2025-02-26T13:37:07Z</time>
      </trkpt>
      <trkpt lat="48.04384" lon="-3.48046">
        <ele>130.7</ele>
        <time>2025-02-26T13:37:08Z</time>
      </trkpt>
      <trkpt lat="48.04383" lon="-3.48045">
        <ele>130.8</ele>
        <time>2025-02-26T13:37:09Z</time>
      </trkpt>
      <trkpt lat="48.04382" lon="-3.48045">
        <ele>131</ele>
        <time>2025-02-26T13:37:10Z</time>
      </trkpt>
      <trkpt lat="48.04381" lon="-3.48045">
        <ele>131.3</ele>
        <time>2025-02-26T13:37:11Z</time>
      </trkpt>
      <trkpt lat="48.0438" lon="-3.48043">
        <ele>131.1</ele>
        <time>2025-02-26T13:37:12Z</time>
      </trkpt>
      <trkpt lat="48.04379" lon="-3.48042">
        <ele>131</ele>
        <time>2025-02-26T13:37:13Z</time>
      </trkpt>
      <trkpt lat="48.04379" lon="-3.4804">
        <ele>130.6</ele>
        <time>2025-02-26T13:37:14Z</time>
      </trkpt>
      <trkpt lat="48.04379" lon="-3.48039">
        <ele>130.4</ele>
        <time>2025-02-26T13:37:15Z</time>
      </trkpt>
      <trkpt lat="48.04379" lon="-3.48038">
        <ele>130</ele>
        <time>2025-02-26T13:37:16Z</time>
      </trkpt>
      <trkpt lat="48.04378" lon="-3.48037">
        <ele>129.8</ele>
        <time>2025-02-26T13:37:17Z</time>
      </trkpt>
      <trkpt lat="48.04378" lon="-3.48036">
        <ele>129.9</ele>
        <time>2025-02-26T13:37:18Z</time>
      </trkpt>
      <trkpt lat="48.04377" lon="-3.48036">
        <ele>130.1</ele>
        <time>2025-02-26T13:37:19Z</time>
      </trkpt>
      <trkpt lat="48.04376" lon="-3.48036">
        <ele>130.5</ele>
        <time>2025-02-26T13:37:20Z</time>
      </trkpt>
      <trkpt lat="48.04375" lon="-3.48037">
        <ele>130.8</ele>
        <time>2025-02-26T13:37:21Z</time>
      </trkpt>
      <trkpt lat="48.04375" lon="-3.48037">
        <ele>131</ele>
        <time>2025-02-26T13:37:22Z</time>
      </trkpt>
      <trkpt lat="48.04374" lon="-3.48037">
        <ele>131.1</ele>
        <time>2025-02-26T13:37:23Z</time>
      </trkpt>
      <trkpt lat="48.04373" lon="-3.48038">
        <ele>131.4</ele>
        <time>2025-02-26T13:37:24Z</time>
      </trkpt>
      <trkpt lat="48.04372" lon="-3.48038">
        <ele>131.8</ele>
        <time>2025-02-26T13:37:25Z</time>
      </trkpt>
      <trkpt lat="48.04372" lon="-3.48038">
        <ele>131.9</ele>
        <time>2025-02-26T13:37:26Z</time>
      </trkpt>
      <trkpt lat="48.04371" lon="-3.48037">
        <ele>131.9</ele>
        <time>2025-02-26T13:37:27Z</time>
      </trkpt>
      <trkpt lat="48.04369" lon="-3.48037">
        <ele>132.3</ele>
        <time>2025-02-26T13:37:28Z</time>
      </trkpt>
      <trkpt lat="48.04368" lon="-3.48037">
        <ele>132.6</ele>
        <time>2025-02-26T13:37:29Z</time>
      </trkpt>
      <trkpt lat="48.04367" lon="-3.48037">
        <ele>132.9</ele>
        <time>2025-02-26T13:37:30Z</time>
      </trkpt>
      <trkpt lat="48.04367" lon="-3.48037">
        <ele>132.9</ele>
        <time>2025-02-26T13:37:31Z</time>
      </trkpt>
      <trkpt lat="48.04366" lon="-3.48036">
        <ele>132.9</ele>
        <time>2025-02-26T13:37:32Z</time>
      </trkpt>
      <trkpt lat="48.04366" lon="-3.48035">
        <ele>132.8</ele>
        <time>2025-02-26T13:37:33Z</time>
      </trkpt>
      <trkpt lat="48.04366" lon="-3.48034">
        <ele>132.4</ele>
        <time>2025-02-26T13:37:34Z</time>
      </trkpt>
      <trkpt lat="48.04366" lon="-3.48032">
        <ele>132</ele>
        <time>2025-02-26T13:37:35Z</time>
      </trkpt>
      <trkpt lat="48.04366" lon="-3.48031">
        <ele>131.6</ele>
        <time>2025-02-26T13:37:36Z</time>
      </trkpt>
      <trkpt lat="48.04366" lon="-3.4803">
        <ele>131.3</ele>
        <time>2025-02-26T13:37:37Z</time>
      </trkpt>
      <trkpt lat="48.04366" lon="-3.48029">
        <ele>131.1</ele>
        <time>2025-02-26T13:37:38Z</time>
      </trkpt>
      <trkpt lat="48.04365" lon="-3.48028">
        <ele>131</ele>
        <time>2025-02-26T13:37:39Z</time>
      </trkpt>
      <trkpt lat="48.04365" lon="-3.48027">
        <ele>130.9</ele>
        <time>2025-02-26T13:37:40Z</time>
      </trkpt>
      <trkpt lat="48.04363" lon="-3.48027">
        <ele>131.2</ele>
        <time>2025-02-26T13:37:41Z</time>
      </trkpt>
      <trkpt lat="48.04362" lon="-3.48027">
        <ele>131.6</ele>
        <time>2025-02-26T13:37:42Z</time>
      </trkpt>
      <trkpt lat="48.04361" lon="-3.48027">
        <ele>131.7</ele>
        <time>2025-02-26T13:37:43Z</time>
      </trkpt>
      <trkpt lat="48.04361" lon="-3.48027">
        <ele>131.9</ele>
        <time>2025-02-26T13:37:44Z</time>
      </trkpt>
      <trkpt lat="48.0436" lon="-3.48028">
        <ele>132.2</ele>
        <time>2025-02-26T13:37:45Z</time>
      </trkpt>
      <trkpt lat="48.0436" lon="-3.48028">
        <ele>132.5</ele>
        <time>2025-02-26T13:37:46Z</time>
      </trkpt>
      <trkpt lat="48.04359" lon="-3.48028">
        <ele>132.6</ele>
        <time>2025-02-26T13:37:47Z</time>
      </trkpt>
      <trkpt lat="48.04359" lon="-3.48029">
        <ele>132.8</ele>
        <time>2025-02-26T13:37:48Z</time>
      </trkpt>
      <trkpt lat="48.04358" lon="-3.48029">
        <ele>133.2</ele>
        <time>2025-02-26T13:37:49Z</time>
      </trkpt>
      <trkpt lat="48.04357" lon="-3.48029">
        <ele>133.4</ele>
        <time>2025-02-26T13:37:50Z</time>
      </trkpt>
      <trkpt lat="48.04356" lon="-3.48029">
        <ele>133.5</ele>
        <time>2025-02-26T13:37:51Z</time>
      </trkpt>
      <trkpt lat="48.04356" lon="-3.4803">
        <ele>133.9</ele>
        <time>2025-02-26T13:37:52Z</time>
      </trkpt>
      <trkpt lat="48.04355" lon="-3.48031">
        <ele>134.3</ele>
        <time>2025-02-26T13:37:53Z</time>
      </trkpt>
      <trkpt lat="48.04354" lon="-3.4803">
        <ele>134.4</ele>
        <time>2025-02-26T13:37:54Z</time>
      </trkpt>
      <trkpt lat="48.04354" lon="-3.48031">
        <ele>134.6</ele>
        <time>2025-02-26T13:37:55Z</time>
      </trkpt>
      <trkpt lat="48.04353" lon="-3.4803">
        <ele>134.7</ele>
        <time>2025-02-26T13:37:56Z</time>
      </trkpt>
      <trkpt lat="48.04352" lon="-3.4803">
        <ele>134.9</ele>
        <time>2025-02-26T13:37:57Z</time>
      </trkpt>
      <trkpt lat="48.04351" lon="-3.48031">
        <ele>135.2</ele>
        <time>2025-02-26T13:37:58Z</time>
      </trkpt>
      <trkpt lat="48.04352" lon="-3.48033">
        <ele>135.4</ele>
        <time>2025-02-26T13:37:59Z</time>
      </trkpt>
      <trkpt lat="48.04352" lon="-3.48033">
        <ele>135.6</ele>
        <time>2025-02-26T13:38:00Z</time>
      </trkpt>
      <trkpt lat="48.04351" lon="-3.48033">
        <ele>135.9</ele>
        <time>2025-02-26T13:38:01Z</time>
      </trkpt>
      <trkpt lat="48.04351" lon="-3.48034">
        <ele>136.2</ele>
        <time>2025-02-26T13:38:02Z</time>
      </trkpt>
      <trkpt lat="48.0435" lon="-3.48035">
        <ele>136.7</ele>
        <time>2025-02-26T13:38:03Z</time>
      </trkpt>
      <trkpt lat="48.04349" lon="-3.48035">
        <ele>137</ele>
        <time>2025-02-26T13:38:04Z</time>
      </trkpt>
      <trkpt lat="48.04348" lon="-3.48036">
        <ele>137.3</ele>
        <time>2025-02-26T13:38:05Z</time>
      </trkpt>
      <trkpt lat="48.04347" lon="-3.48037">
        <ele>137.8</ele>
        <time>2025-02-26T13:38:06Z</time>
      </trkpt>
      <trkpt lat="48.04346" lon="-3.48037">
        <ele>138</ele>
        <time>2025-02-26T13:38:07Z</time>
      </trkpt>
      <trkpt lat="48.04345" lon="-3.48037">
        <ele>138.4</ele>
        <time>2025-02-26T13:38:08Z</time>
      </trkpt>
      <trkpt lat="48.04345" lon="-3.48039">
        <ele>138.7</ele>
        <time>2025-02-26T13:38:09Z</time>
      </trkpt>
      <trkpt lat="48.04345" lon="-3.48039">
        <ele>139.1</ele>
        <time>2025-02-26T13:38:10Z</time>
      </trkpt>
      <trkpt lat="48.04345" lon="-3.48041">
        <ele>139.5</ele>
        <time>2025-02-26T13:38:11Z</time>
      </trkpt>
      <trkpt lat="48.04344" lon="-3.48042">
        <ele>139.8</ele>
        <time>2025-02-26T13:38:12Z</time>
      </trkpt>
      <trkpt lat="48.04344" lon="-3.48043">
        <ele>140.1</ele>
        <time>2025-02-26T13:38:13Z</time>
      </trkpt>
      <trkpt lat="48.04343" lon="-3.48041">
        <ele>140</ele>
        <time>2025-02-26T13:38:14Z</time>
      </trkpt>
      <trkpt lat="48.04342" lon="-3.48041">
        <ele>140</ele>
        <time>2025-02-26T13:38:15Z</time>
      </trkpt>
      <trkpt lat="48.04342" lon="-3.48041">
        <ele>140.1</ele>
        <time>2025-02-26T13:38:16Z</time>
      </trkpt>
      <trkpt lat="48.04341" lon="-3.48041">
        <ele>140.2</ele>
        <time>2025-02-26T13:38:17Z</time>
      </trkpt>
      <trkpt lat="48.0434" lon="-3.4804">
        <ele>140.4</ele>
        <time>2025-02-26T13:38:18Z</time>
      </trkpt>
      <trkpt lat="48.0434" lon="-3.4804">
        <ele>140.5</ele>
        <time>2025-02-26T13:38:19Z</time>
      </trkpt>
      <trkpt lat="48.0434" lon="-3.4804">
        <ele>140.4</ele>
        <time>2025-02-26T13:38:20Z</time>
      </trkpt>
      <trkpt lat="48.0434" lon="-3.48039">
        <ele>140.3</ele>
        <time>2025-02-26T13:38:21Z</time>
      </trkpt>
      <trkpt lat="48.04339" lon="-3.48038">
        <ele>140.1</ele>
        <time>2025-02-26T13:38:22Z</time>
      </trkpt>
      <trkpt lat="48.04339" lon="-3.48037">
        <ele>140</ele>
        <time>2025-02-26T13:38:23Z</time>
      </trkpt>
      <trkpt lat="48.04338" lon="-3.48037">
        <ele>140</ele>
        <time>2025-02-26T13:38:24Z</time>
      </trkpt>
      <trkpt lat="48.04337" lon="-3.48038">
        <ele>140.6</ele>
        <time>2025-02-26T13:38:25Z</time>
      </trkpt>
      <trkpt lat="48.04336" lon="-3.48037">
        <ele>140.6</ele>
        <time>2025-02-26T13:38:26Z</time>
      </trkpt>
      <trkpt lat="48.04336" lon="-3.48036">
        <ele>140.6</ele>
        <time>2025-02-26T13:38:27Z</time>
      </trkpt>
      <trkpt lat="48.04334" lon="-3.48036">
        <ele>140.8</ele>
        <time>2025-02-26T13:38:28Z</time>
      </trkpt>
      <trkpt lat="48.04335" lon="-3.48037">
        <ele>141</ele>
        <time>2025-02-26T13:38:29Z</time>
      </trkpt>
      <trkpt lat="48.04334" lon="-3.48037">
        <ele>141.3</ele>
        <time>2025-02-26T13:38:30Z</time>
      </trkpt>
      <trkpt lat="48.04333" lon="-3.48036">
        <ele>141.3</ele>
        <time>2025-02-26T13:38:31Z</time>
      </trkpt>
      <trkpt lat="48.04332" lon="-3.48036">
        <ele>141.4</ele>
        <time>2025-02-26T13:38:32Z</time>
      </trkpt>
      <trkpt lat="48.04331" lon="-3.48036">
        <ele>141.7</ele>
        <time>2025-02-26T13:38:33Z</time>
      </trkpt>
      <trkpt lat="48.0433" lon="-3.48036">
        <ele>142</ele>
        <time>2025-02-26T13:38:34Z</time>
      </trkpt>
      <trkpt lat="48.0433" lon="-3.48036">
        <ele>142.3</ele>
        <time>2025-02-26T13:38:35Z</time>
      </trkpt>
      <trkpt lat="48.04329" lon="-3.48037">
        <ele>142.7</ele>
        <time>2025-02-26T13:38:36Z</time>
      </trkpt>
      <trkpt lat="48.04329" lon="-3.48037">
        <ele>142.9</ele>
        <time>2025-02-26T13:38:37Z</time>
      </trkpt>
      <trkpt lat="48.04328" lon="-3.48036">
        <ele>142.7</ele>
        <time>2025-02-26T13:38:38Z</time>
      </trkpt>
      <trkpt lat="48.04329" lon="-3.48036">
        <ele>142.6</ele>
        <time>2025-02-26T13:38:39Z</time>
      </trkpt>
      <trkpt lat="48.04328" lon="-3.48036">
        <ele>142.8</ele>
        <time>2025-02-26T13:38:40Z</time>
      </trkpt>
      <trkpt lat="48.04328" lon="-3.48036">
        <ele>143</ele>
        <time>2025-02-26T13:38:41Z</time>
      </trkpt>
      <trkpt lat="48.04327" lon="-3.48037">
        <ele>143.3</ele>
        <time>2025-02-26T13:38:42Z</time>
      </trkpt>
      <trkpt lat="48.04326" lon="-3.48037">
        <ele>143.6</ele>
        <time>2025-02-26T13:38:43Z</time>
      </trkpt>
      <trkpt lat="48.04325" lon="-3.48037">
        <ele>143.9</ele>
        <time>2025-02-26T13:38:44Z</time>
      </trkpt>
      <trkpt lat="48.04325" lon="-3.48037">
        <ele>144.3</ele>
        <time>2025-02-26T13:38:45Z</time>
      </trkpt>
      <trkpt lat="48.04324" lon="-3.48038">
        <ele>144.6</ele>
        <time>2025-02-26T13:38:46Z</time>
      </trkpt>
      <trkpt lat="48.04324" lon="-3.48039">
        <ele>144.7</ele>
        <time>2025-02-26T13:38:47Z</time>
      </trkpt>
      <trkpt lat="48.04323" lon="-3.48038">
        <ele>145.2</ele>
        <time>2025-02-26T13:38:48Z</time>
      </trkpt>
      <trkpt lat="48.04322" lon="-3.48037">
        <ele>145.2</ele>
        <time>2025-02-26T13:38:49Z</time>
      </trkpt>
      <trkpt lat="48.04321" lon="-3.48037">
        <ele>145.4</ele>
        <time>2025-02-26T13:38:50Z</time>
      </trkpt>
      <trkpt lat="48.0432" lon="-3.48037">
        <ele>145.4</ele>
        <time>2025-02-26T13:38:51Z</time>
      </trkpt>
      <trkpt lat="48.0432" lon="-3.48036">
        <ele>145.6</ele>
        <time>2025-02-26T13:38:52Z</time>
      </trkpt>
      <trkpt lat="48.04319" lon="-3.48037">
        <ele>145.9</ele>
        <time>2025-02-26T13:38:53Z</time>
      </trkpt>
      <trkpt lat="48.0432" lon="-3.48036">
        <ele>145.5</ele>
        <time>2025-02-26T13:38:54Z</time>
      </trkpt>
      <trkpt lat="48.04319" lon="-3.48037">
        <ele>145.9</ele>
        <time>2025-02-26T13:38:55Z</time>
      </trkpt>
      <trkpt lat="48.04318" lon="-3.48037">
        <ele>146.1</ele>
        <time>2025-02-26T13:38:56Z</time>
      </trkpt>
      <trkpt lat="48.04318" lon="-3.48036">
        <ele>146.3</ele>
        <time>2025-02-26T13:38:57Z</time>
      </trkpt>
      <trkpt lat="48.04317" lon="-3.48035">
        <ele>146.2</ele>
        <time>2025-02-26T13:38:58Z</time>
      </trkpt>
      <trkpt lat="48.04316" lon="-3.48034">
        <ele>146.3</ele>
        <time>2025-02-26T13:38:59Z</time>
      </trkpt>
      <trkpt lat="48.04315" lon="-3.48034">
        <ele>146.4</ele>
        <time>2025-02-26T13:39:00Z</time>
      </trkpt>
      <trkpt lat="48.04317" lon="-3.48035">
        <ele>146</ele>
        <time>2025-02-26T13:39:01Z</time>
      </trkpt>
      <trkpt lat="48.04317" lon="-3.48034">
        <ele>146</ele>
        <time>2025-02-26T13:39:02Z</time>
      </trkpt>
      <trkpt lat="48.04316" lon="-3.48034">
        <ele>146.3</ele>
        <time>2025-02-26T13:39:03Z</time>
      </trkpt>
      <trkpt lat="48.04316" lon="-3.48035">
        <ele>146.5</ele>
        <time>2025-02-26T13:39:04Z</time>
      </trkpt>
      <trkpt lat="48.04315" lon="-3.48035">
        <ele>146.9</ele>
        <time>2025-02-26T13:39:05Z</time>
      </trkpt>
      <trkpt lat="48.04314" lon="-3.48036">
        <ele>147.2</ele>
        <time>2025-02-26T13:39:06Z</time>
      </trkpt>
      <trkpt lat="48.04314" lon="-3.48036">
        <ele>147.5</ele>
        <time>2025-02-26T13:39:07Z</time>
      </trkpt>
      <trkpt lat="48.04313" lon="-3.48036">
        <ele>147.6</ele>
        <time>2025-02-26T13:39:08Z</time>
      </trkpt>
      <trkpt lat="48.04313" lon="-3.48036">
        <ele>147.6</ele>
        <time>2025-02-26T13:39:09Z</time>
      </trkpt>
      <trkpt lat="48.04312" lon="-3.48035">
        <ele>147.7</ele>
        <time>2025-02-26T13:39:10Z</time>
      </trkpt>
      <trkpt lat="48.04312" lon="-3.48035">
        <ele>147.9</ele>
        <time>2025-02-26T13:39:11Z</time>
      </trkpt>
      <trkpt lat="48.04311" lon="-3.48035">
        <ele>148.1</ele>
        <time>2025-02-26T13:39:12Z</time>
      </trkpt>
      <trkpt lat="48.0431" lon="-3.48036">
        <ele>148.5</ele>
        <time>2025-02-26T13:39:13Z</time>
      </trkpt>
      <trkpt lat="48.0431" lon="-3.48036">
        <ele>148.8</ele>
        <time>2025-02-26T13:39:14Z</time>
      </trkpt>
      <trkpt lat="48.04309" lon="-3.48036">
        <ele>149</ele>
        <time>2025-02-26T13:39:15Z</time>
      </trkpt>
      <trkpt lat="48.04308" lon="-3.48035">
        <ele>148.8</ele>
        <time>2025-02-26T13:39:16Z</time>
      </trkpt>
      <trkpt lat="48.04308" lon="-3.48035">
        <ele>149.2</ele>
        <time>2025-02-26T13:39:17Z</time>
      </trkpt>
      <trkpt lat="48.04307" lon="-3.48035">
        <ele>149.4</ele>
        <time>2025-02-26T13:39:18Z</time>
      </trkpt>
      <trkpt lat="48.04307" lon="-3.48035">
        <ele>149.6</ele>
        <time>2025-02-26T13:39:19Z</time>
      </trkpt>
      <trkpt lat="48.04306" lon="-3.48035">
        <ele>149.7</ele>
        <time>2025-02-26T13:39:20Z</time>
      </trkpt>
      <trkpt lat="48.04306" lon="-3.48034">
        <ele>149.6</ele>
        <time>2025-02-26T13:39:21Z</time>
      </trkpt>
      <trkpt lat="48.04305" lon="-3.48033">
        <ele>149.6</ele>
        <time>2025-02-26T13:39:22Z</time>
      </trkpt>
      <trkpt lat="48.04304" lon="-3.48032">
        <ele>149.5</ele>
        <time>2025-02-26T13:39:23Z</time>
      </trkpt>
      <trkpt lat="48.04304" lon="-3.48032">
        <ele>149.5</ele>
        <time>2025-02-26T13:39:24Z</time>
      </trkpt>
      <trkpt lat="48.04303" lon="-3.48032">
        <ele>149.7</ele>
        <time>2025-02-26T13:39:25Z</time>
      </trkpt>
      <trkpt lat="48.04302" lon="-3.48031">
        <ele>150</ele>
        <time>2025-02-26T13:39:26Z</time>
      </trkpt>
      <trkpt lat="48.04302" lon="-3.48031">
        <ele>150.1</ele>
        <time>2025-02-26T13:39:27Z</time>
      </trkpt>
      <trkpt lat="48.04301" lon="-3.4803">
        <ele>150.1</ele>
        <time>2025-02-26T13:39:28Z</time>
      </trkpt>
      <trkpt lat="48.04301" lon="-3.48029">
        <ele>149.9</ele>
        <time>2025-02-26T13:39:29Z</time>
      </trkpt>
      <trkpt lat="48.04299" lon="-3.48028">
        <ele>150.2</ele>
        <time>2025-02-26T13:39:30Z</time>
      </trkpt>
      <trkpt lat="48.04299" lon="-3.48028">
        <ele>150.3</ele>
        <time>2025-02-26T13:39:31Z</time>
      </trkpt>
      <trkpt lat="48.04298" lon="-3.48027">
        <ele>150.2</ele>
        <time>2025-02-26T13:39:32Z</time>
      </trkpt>
      <trkpt lat="48.04298" lon="-3.48027">
        <ele>150</ele>
        <time>2025-02-26T13:39:33Z</time>
      </trkpt>
      <trkpt lat="48.04298" lon="-3.48026">
        <ele>150</ele>
        <time>2025-02-26T13:39:34Z</time>
      </trkpt>
      <trkpt lat="48.04297" lon="-3.48025">
        <ele>149.8</ele>
        <time>2025-02-26T13:39:35Z</time>
      </trkpt>
      <trkpt lat="48.04297" lon="-3.48023">
        <ele>149.6</ele>
        <time>2025-02-26T13:39:36Z</time>
      </trkpt>
      <trkpt lat="48.04296" lon="-3.48022">
        <ele>149.5</ele>
        <time>2025-02-26T13:39:37Z</time>
      </trkpt>
      <trkpt lat="48.04296" lon="-3.48021">
        <ele>149.5</ele>
        <time>2025-02-26T13:39:38Z</time>
      </trkpt>
      <trkpt lat="48.04295" lon="-3.48021">
        <ele>149.7</ele>
        <time>2025-02-26T13:39:39Z</time>
      </trkpt>
      <trkpt lat="48.04293" lon="-3.4802">
        <ele>150</ele>
        <time>2025-02-26T13:39:40Z</time>
      </trkpt>
      <trkpt lat="48.04293" lon="-3.48019">
        <ele>150</ele>
        <time>2025-02-26T13:39:41Z</time>
      </trkpt>
      <trkpt lat="48.04292" lon="-3.48019">
        <ele>150.3</ele>
        <time>2025-02-26T13:39:42Z</time>
      </trkpt>
      <trkpt lat="48.04291" lon="-3.48019">
        <ele>150.6</ele>
        <time>2025-02-26T13:39:43Z</time>
      </trkpt>
      <trkpt lat="48.0429" lon="-3.48019">
        <ele>150.9</ele>
        <time>2025-02-26T13:39:44Z</time>
      </trkpt>
      <trkpt lat="48.04289" lon="-3.48019">
        <ele>151.1</ele>
        <time>2025-02-26T13:39:45Z</time>
      </trkpt>
      <trkpt lat="48.04289" lon="-3.48018">
        <ele>151.2</ele>
        <time>2025-02-26T13:39:46Z</time>
      </trkpt>
      <trkpt lat="48.04288" lon="-3.48018">
        <ele>151.4</ele>
        <time>2025-02-26T13:39:47Z</time>
      </trkpt>
      <trkpt lat="48.0429" lon="-3.4802">
        <ele>151</ele>
        <time>2025-02-26T13:39:48Z</time>
      </trkpt>
      <trkpt lat="48.04292" lon="-3.48022">
        <ele>150.8</ele>
        <time>2025-02-26T13:39:49Z</time>
      </trkpt>
      <trkpt lat="48.04293" lon="-3.48022">
        <ele>150.7</ele>
        <time>2025-02-26T13:39:50Z</time>
      </trkpt>
      <trkpt lat="48.04293" lon="-3.48022">
        <ele>150.7</ele>
        <time>2025-02-26T13:39:51Z</time>
      </trkpt>
      <trkpt lat="48.04293" lon="-3.48022">
        <ele>150.7</ele>
        <time>2025-02-26T13:39:52Z</time>
      </trkpt>
      <trkpt lat="48.04293" lon="-3.48022">
        <ele>150.7</ele>
        <time>2025-02-26T13:39:53Z</time>
      </trkpt>
      <trkpt lat="48.04293" lon="-3.48022">
        <ele>150.7</ele>
        <time>2025-02-26T13:39:54Z</time>
      </trkpt>
      <trkpt lat="48.04293" lon="-3.48022">
        <ele>150.7</ele>
        <time>2025-02-26T13:39:55Z</time>
      </trkpt>
      <trkpt lat="48.04292" lon="-3.48022">
        <ele>150.7</ele>
        <time>2025-02-26T13:39:56Z</time>
      </trkpt>
      <trkpt lat="48.04292" lon="-3.48021">
        <ele>150.8</ele>
        <time>2025-02-26T13:39:57Z</time>
      </trkpt>
      <trkpt lat="48.0429" lon="-3.4802">
        <ele>150.9</ele>
        <time>2025-02-26T13:39:58Z</time>
      </trkpt>
      <trkpt lat="48.0429" lon="-3.48019">
        <ele>150.9</ele>
        <time>2025-02-26T13:39:59Z</time>
      </trkpt>
      <trkpt lat="48.04289" lon="-3.48019">
        <ele>151.3</ele>
        <time>2025-02-26T13:40:00Z</time>
      </trkpt>
      <trkpt lat="48.04288" lon="-3.4802">
        <ele>151.9</ele>
        <time>2025-02-26T13:40:01Z</time>
      </trkpt>
      <trkpt lat="48.04287" lon="-3.48019">
        <ele>152</ele>
        <time>2025-02-26T13:40:02Z</time>
      </trkpt>
      <trkpt lat="48.04286" lon="-3.48017">
        <ele>151.8</ele>
        <time>2025-02-26T13:40:03Z</time>
      </trkpt>
      <trkpt lat="48.04285" lon="-3.48016">
        <ele>151.8</ele>
        <time>2025-02-26T13:40:04Z</time>
      </trkpt>
      <trkpt lat="48.04285" lon="-3.48015">
        <ele>151.8</ele>
        <time>2025-02-26T13:40:05Z</time>
      </trkpt>
      <trkpt lat="48.04284" lon="-3.48014">
        <ele>151.8</ele>
        <time>2025-02-26T13:40:06Z</time>
      </trkpt>
      <trkpt lat="48.04283" lon="-3.48012">
        <ele>151.6</ele>
        <time>2025-02-26T13:40:07Z</time>
      </trkpt>
      <trkpt lat="48.04282" lon="-3.48011">
        <ele>151.7</ele>
        <time>2025-02-26T13:40:08Z</time>
      </trkpt>
      <trkpt lat="48.04281" lon="-3.48011">
        <ele>152.1</ele>
        <time>2025-02-26T13:40:09Z</time>
      </trkpt>
      <trkpt lat="48.04281" lon="-3.4801">
        <ele>152.2</ele>
        <time>2025-02-26T13:40:10Z</time>
      </trkpt>
      <trkpt lat="48.04279" lon="-3.4801">
        <ele>152.5</ele>
        <time>2025-02-26T13:40:11Z</time>
      </trkpt>
      <trkpt lat="48.04279" lon="-3.48008">
        <ele>152.4</ele>
        <time>2025-02-26T13:40:12Z</time>
      </trkpt>
      <trkpt lat="48.04279" lon="-3.48008">
        <ele>152.4</ele>
        <time>2025-02-26T13:40:13Z</time>
      </trkpt>
      <trkpt lat="48.04278" lon="-3.48007">
        <ele>152.4</ele>
        <time>2025-02-26T13:40:14Z</time>
      </trkpt>
      <trkpt lat="48.04277" lon="-3.48006">
        <ele>152.3</ele>
        <time>2025-02-26T13:40:15Z</time>
      </trkpt>
      <trkpt lat="48.04277" lon="-3.48005">
        <ele>152.3</ele>
        <time>2025-02-26T13:40:16Z</time>
      </trkpt>
      <trkpt lat="48.04277" lon="-3.48005">
        <ele>152.3</ele>
        <time>2025-02-26T13:40:17Z</time>
      </trkpt>
      <trkpt lat="48.04276" lon="-3.48005">
        <ele>152.5</ele>
        <time>2025-02-26T13:40:18Z</time>
      </trkpt>
      <trkpt lat="48.04275" lon="-3.48005">
        <ele>152.8</ele>
        <time>2025-02-26T13:40:19Z</time>
      </trkpt>
      <trkpt lat="48.04274" lon="-3.48004">
        <ele>153</ele>
        <time>2025-02-26T13:40:20Z</time>
      </trkpt>
      <trkpt lat="48.04273" lon="-3.48003">
        <ele>153.2</ele>
        <time>2025-02-26T13:40:21Z</time>
      </trkpt>
      <trkpt lat="48.04272" lon="-3.48004">
        <ele>153.7</ele>
        <time>2025-02-26T13:40:22Z</time>
      </trkpt>
      <trkpt lat="48.04271" lon="-3.48003">
        <ele>153.9</ele>
        <time>2025-02-26T13:40:23Z</time>
      </trkpt>
      <trkpt lat="48.0427" lon="-3.48003">
        <ele>154.1</ele>
        <time>2025-02-26T13:40:24Z</time>
      </trkpt>
      <trkpt lat="48.0427" lon="-3.48003">
        <ele>154.3</ele>
        <time>2025-02-26T13:40:25Z</time>
      </trkpt>
      <trkpt lat="48.04269" lon="-3.48002">
        <ele>154.4</ele>
        <time>2025-02-26T13:40:26Z</time>
      </trkpt>
      <trkpt lat="48.04268" lon="-3.48002">
        <ele>154.6</ele>
        <time>2025-02-26T13:40:27Z</time>
      </trkpt>
      <trkpt lat="48.04267" lon="-3.48002">
        <ele>154.8</ele>
        <time>2025-02-26T13:40:28Z</time>
      </trkpt>
      <trkpt lat="48.04266" lon="-3.48002">
        <ele>155.1</ele>
        <time>2025-02-26T13:40:29Z</time>
      </trkpt>
      <trkpt lat="48.04265" lon="-3.48001">
        <ele>155.3</ele>
        <time>2025-02-26T13:40:30Z</time>
      </trkpt>
      <trkpt lat="48.04264" lon="-3.48001">
        <ele>155.5</ele>
        <time>2025-02-26T13:40:31Z</time>
      </trkpt>
      <trkpt lat="48.04264" lon="-3.48001">
        <ele>155.8</ele>
        <time>2025-02-26T13:40:32Z</time>
      </trkpt>
      <trkpt lat="48.04263" lon="-3.48001">
        <ele>156.2</ele>
        <time>2025-02-26T13:40:33Z</time>
      </trkpt>
      <trkpt lat="48.04262" lon="-3.48">
        <ele>156.3</ele>
        <time>2025-02-26T13:40:34Z</time>
      </trkpt>
      <trkpt lat="48.04264" lon="-3.48002">
        <ele>155.8</ele>
        <time>2025-02-26T13:40:35Z</time>
      </trkpt>
      <trkpt lat="48.04264" lon="-3.48002">
        <ele>155.9</ele>
        <time>2025-02-26T13:40:36Z</time>
      </trkpt>
      <trkpt lat="48.04264" lon="-3.48004">
        <ele>156.4</ele>
        <time>2025-02-26T13:40:37Z</time>
      </trkpt>
      <trkpt lat="48.04263" lon="-3.48004">
        <ele>156.6</ele>
        <time>2025-02-26T13:40:38Z</time>
      </trkpt>
      <trkpt lat="48.04263" lon="-3.48004">
        <ele>156.6</ele>
        <time>2025-02-26T13:40:39Z</time>
      </trkpt>
      <trkpt lat="48.04263" lon="-3.48004">
        <ele>156.5</ele>
        <time>2025-02-26T13:40:40Z</time>
      </trkpt>
      <trkpt lat="48.04263" lon="-3.48004">
        <ele>156.5</ele>
        <time>2025-02-26T13:40:41Z</time>
      </trkpt>
      <trkpt lat="48.04263" lon="-3.48004">
        <ele>156.5</ele>
        <time>2025-02-26T13:40:42Z</time>
      </trkpt>
      <trkpt lat="48.04263" lon="-3.48004">
        <ele>156.5</ele>
        <time>2025-02-26T13:40:43Z</time>
      </trkpt>
      <trkpt lat="48.04263" lon="-3.48004">
        <ele>156.5</ele>
        <time>2025-02-26T13:40:44Z</time>
      </trkpt>
      <trkpt lat="48.04263" lon="-3.48004">
        <ele>156.5</ele>
        <time>2025-02-26T13:40:45Z</time>
      </trkpt>
      <trkpt lat="48.04263" lon="-3.48004">
        <ele>156.5</ele>
        <time>2025-02-26T13:40:46Z</time>
      </trkpt>
      <trkpt lat="48.04263" lon="-3.48004">
        <ele>156.5</ele>
        <time>2025-02-26T13:40:47Z</time>
      </trkpt>
      <trkpt lat="48.04263" lon="-3.48003">
        <ele>156.7</ele>
        <time>2025-02-26T13:40:48Z</time>
      </trkpt>
      <trkpt lat="48.04263" lon="-3.48003">
        <ele>156.7</ele>
        <time>2025-02-26T13:40:49Z</time>
      </trkpt>
      <trkpt lat="48.04263" lon="-3.48003">
        <ele>156.7</ele>
        <time>2025-02-26T13:40:50Z</time>
      </trkpt>
      <trkpt lat="48.04263" lon="-3.48003">
        <ele>156.7</ele>
        <time>2025-02-26T13:40:51Z</time>
      </trkpt>
      <trkpt lat="48.04263" lon="-3.48003">
        <ele>156.7</ele>
        <time>2025-02-26T13:40:52Z</time>
      </trkpt>
      <trkpt lat="48.04263" lon="-3.48003">
        <ele>156.7</ele>
        <time>2025-02-26T13:40:53Z</time>
      </trkpt>
      <trkpt lat="48.04263" lon="-3.48003">
        <ele>156.7</ele>
        <time>2025-02-26T13:40:54Z</time>
      </trkpt>
      <trkpt lat="48.04263" lon="-3.48003">
        <ele>156.7</ele>
        <time>2025-02-26T13:40:55Z</time>
      </trkpt>
      <trkpt lat="48.04262" lon="-3.48003">
        <ele>156.9</ele>
        <time>2025-02-26T13:40:56Z</time>
      </trkpt>
      <trkpt lat="48.04261" lon="-3.48003">
        <ele>157.2</ele>
        <time>2025-02-26T13:40:57Z</time>
      </trkpt>
      <trkpt lat="48.0426" lon="-3.48002">
        <ele>157.3</ele>
        <time>2025-02-26T13:40:58Z</time>
      </trkpt>
      <trkpt lat="48.04259" lon="-3.48001">
        <ele>157.3</ele>
        <time>2025-02-26T13:40:59Z</time>
      </trkpt>
      <trkpt lat="48.04258" lon="-3.48">
        <ele>157.4</ele>
        <time>2025-02-26T13:41:00Z</time>
      </trkpt>
      <trkpt lat="48.04258" lon="-3.48001">
        <ele>157.7</ele>
        <time>2025-02-26T13:41:01Z</time>
      </trkpt>
      <trkpt lat="48.04257" lon="-3.48001">
        <ele>158</ele>
        <time>2025-02-26T13:41:02Z</time>
      </trkpt>
      <trkpt lat="48.04256" lon="-3.48">
        <ele>158.1</ele>
        <time>2025-02-26T13:41:03Z</time>
      </trkpt>
      <trkpt lat="48.04255" lon="-3.48">
        <ele>158.2</ele>
        <time>2025-02-26T13:41:04Z</time>
      </trkpt>
      <trkpt lat="48.04255" lon="-3.47999">
        <ele>158.2</ele>
        <time>2025-02-26T13:41:05Z</time>
      </trkpt>
      <trkpt lat="48.04255" lon="-3.47998">
        <ele>157.9</ele>
        <time>2025-02-26T13:41:06Z</time>
      </trkpt>
      <trkpt lat="48.04255" lon="-3.47997">
        <ele>157.7</ele>
        <time>2025-02-26T13:41:07Z</time>
      </trkpt>
      <trkpt lat="48.04255" lon="-3.47996">
        <ele>157.5</ele>
        <time>2025-02-26T13:41:08Z</time>
      </trkpt>
      <trkpt lat="48.04256" lon="-3.47995">
        <ele>157.2</ele>
        <time>2025-02-26T13:41:09Z</time>
      </trkpt>
      <trkpt lat="48.04256" lon="-3.47994">
        <ele>156.9</ele>
        <time>2025-02-26T13:41:10Z</time>
      </trkpt>
      <trkpt lat="48.04256" lon="-3.47993">
        <ele>156.6</ele>
        <time>2025-02-26T13:41:11Z</time>
      </trkpt>
      <trkpt lat="48.04256" lon="-3.47991">
        <ele>156.4</ele>
        <time>2025-02-26T13:41:12Z</time>
      </trkpt>
      <trkpt lat="48.04255" lon="-3.4799">
        <ele>156.5</ele>
        <time>2025-02-26T13:41:13Z</time>
      </trkpt>
      <trkpt lat="48.04254" lon="-3.47989">
        <ele>156.6</ele>
        <time>2025-02-26T13:41:14Z</time>
      </trkpt>
      <trkpt lat="48.04253" lon="-3.47987">
        <ele>156.6</ele>
        <time>2025-02-26T13:41:15Z</time>
      </trkpt>
      <trkpt lat="48.04252" lon="-3.47985">
        <ele>156.6</ele>
        <time>2025-02-26T13:41:16Z</time>
      </trkpt>
      <trkpt lat="48.04251" lon="-3.47984">
        <ele>156.7</ele>
        <time>2025-02-26T13:41:17Z</time>
      </trkpt>
      <trkpt lat="48.0425" lon="-3.47982">
        <ele>156.8</ele>
        <time>2025-02-26T13:41:18Z</time>
      </trkpt>
      <trkpt lat="48.04249" lon="-3.47981">
        <ele>157.1</ele>
        <time>2025-02-26T13:41:19Z</time>
      </trkpt>
      <trkpt lat="48.04248" lon="-3.47981">
        <ele>157.4</ele>
        <time>2025-02-26T13:41:20Z</time>
      </trkpt>
      <trkpt lat="48.04247" lon="-3.4798">
        <ele>157.5</ele>
        <time>2025-02-26T13:41:21Z</time>
      </trkpt>
      <trkpt lat="48.04246" lon="-3.47979">
        <ele>157.6</ele>
        <time>2025-02-26T13:41:22Z</time>
      </trkpt>
      <trkpt lat="48.04246" lon="-3.47978">
        <ele>157.5</ele>
        <time>2025-02-26T13:41:23Z</time>
      </trkpt>
      <trkpt lat="48.04245" lon="-3.47977">
        <ele>157.4</ele>
        <time>2025-02-26T13:41:24Z</time>
      </trkpt>
      <trkpt lat="48.04245" lon="-3.47975">
        <ele>157.3</ele>
        <time>2025-02-26T13:41:25Z</time>
      </trkpt>
      <trkpt lat="48.04244" lon="-3.47974">
        <ele>157.3</ele>
        <time>2025-02-26T13:41:26Z</time>
      </trkpt>
      <trkpt lat="48.04243" lon="-3.47973">
        <ele>157.3</ele>
        <time>2025-02-26T13:41:27Z</time>
      </trkpt>
      <trkpt lat="48.04243" lon="-3.47972">
        <ele>157.3</ele>
        <time>2025-02-26T13:41:28Z</time>
      </trkpt>
      <trkpt lat="48.04242" lon="-3.47971">
        <ele>157.2</ele>
        <time>2025-02-26T13:41:29Z</time>
      </trkpt>
      <trkpt lat="48.04241" lon="-3.4797">
        <ele>157</ele>
        <time>2025-02-26T13:41:30Z</time>
      </trkpt>
      <trkpt lat="48.0424" lon="-3.47969">
        <ele>156.9</ele>
        <time>2025-02-26T13:41:31Z</time>
      </trkpt>
      <trkpt lat="48.04239" lon="-3.47968">
        <ele>156.7</ele>
        <time>2025-02-26T13:41:32Z</time>
      </trkpt>
      <trkpt lat="48.04239" lon="-3.47967">
        <ele>156.3</ele>
        <time>2025-02-26T13:41:33Z</time>
      </trkpt>
      <trkpt lat="48.04238" lon="-3.47966">
        <ele>156.3</ele>
        <time>2025-02-26T13:41:34Z</time>
      </trkpt>
      <trkpt lat="48.04239" lon="-3.47968">
        <ele>156.8</ele>
        <time>2025-02-26T13:41:35Z</time>
      </trkpt>
      <trkpt lat="48.04239" lon="-3.47969">
        <ele>157.3</ele>
        <time>2025-02-26T13:41:36Z</time>
      </trkpt>
      <trkpt lat="48.04239" lon="-3.47969">
        <ele>157.4</ele>
        <time>2025-02-26T13:41:37Z</time>
      </trkpt>
      <trkpt lat="48.04239" lon="-3.47969">
        <ele>157.4</ele>
        <time>2025-02-26T13:41:38Z</time>
      </trkpt>
      <trkpt lat="48.04239" lon="-3.47969">
        <ele>157.5</ele>
        <time>2025-02-26T13:41:39Z</time>
      </trkpt>
      <trkpt lat="48.04239" lon="-3.47969">
        <ele>157.5</ele>
        <time>2025-02-26T13:41:40Z</time>
      </trkpt>
      <trkpt lat="48.04239" lon="-3.47969">
        <ele>157.5</ele>
        <time>2025-02-26T13:41:41Z</time>
      </trkpt>
      <trkpt lat="48.04239" lon="-3.47969">
        <ele>157.4</ele>
        <time>2025-02-26T13:41:42Z</time>
      </trkpt>
      <trkpt lat="48.04239" lon="-3.47969">
        <ele>157.4</ele>
        <time>2025-02-26T13:41:43Z</time>
      </trkpt>
      <trkpt lat="48.04239" lon="-3.47969">
        <ele>157.4</ele>
        <time>2025-02-26T13:41:44Z</time>
      </trkpt>
      <trkpt lat="48.04239" lon="-3.47969">
        <ele>157.4</ele>
        <time>2025-02-26T13:41:45Z</time>
      </trkpt>
      <trkpt lat="48.04239" lon="-3.47969">
        <ele>157.4</ele>
        <time>2025-02-26T13:41:46Z</time>
      </trkpt>
      <trkpt lat="48.04239" lon="-3.47969">
        <ele>157.4</ele>
        <time>2025-02-26T13:41:47Z</time>
      </trkpt>
      <trkpt lat="48.04239" lon="-3.47969">
        <ele>157.4</ele>
        <time>2025-02-26T13:41:48Z</time>
      </trkpt>
      <trkpt lat="48.04239" lon="-3.47969">
        <ele>157.4</ele>
        <time>2025-02-26T13:41:49Z</time>
      </trkpt>
      <trkpt lat="48.04239" lon="-3.47969">
        <ele>157.4</ele>
        <time>2025-02-26T13:41:50Z</time>
      </trkpt>
      <trkpt lat="48.04239" lon="-3.47969">
        <ele>157.4</ele>
        <time>2025-02-26T13:41:51Z</time>
      </trkpt>
      <trkpt lat="48.04239" lon="-3.47969">
        <ele>157.4</ele>
        <time>2025-02-26T13:41:52Z</time>
      </trkpt>
      <trkpt lat="48.04239" lon="-3.47969">
        <ele>157.4</ele>
        <time>2025-02-26T13:41:53Z</time>
      </trkpt>
      <trkpt lat="48.04239" lon="-3.47969">
        <ele>157.3</ele>
        <time>2025-02-26T13:41:54Z</time>
      </trkpt>
      <trkpt lat="48.04239" lon="-3.47969">
        <ele>157.3</ele>
        <time>2025-02-26T13:41:55Z</time>
      </trkpt>
      <trkpt lat="48.04239" lon="-3.47969">
        <ele>157.3</ele>
        <time>2025-02-26T13:41:56Z</time>
      </trkpt>
      <trkpt lat="48.04239" lon="-3.47969">
        <ele>157.3</ele>
        <time>2025-02-26T13:41:57Z</time>
      </trkpt>
      <trkpt lat="48.04239" lon="-3.47969">
        <ele>157.3</ele>
        <time>2025-02-26T13:41:58Z</time>
      </trkpt>
      <trkpt lat="48.04239" lon="-3.47969">
        <ele>157.3</ele>
        <time>2025-02-26T13:41:59Z</time>
      </trkpt>
      <trkpt lat="48.04239" lon="-3.47969">
        <ele>157.3</ele>
        <time>2025-02-26T13:42:00Z</time>
      </trkpt>
      <trkpt lat="48.04239" lon="-3.47969">
        <ele>157.4</ele>
        <time>2025-02-26T13:42:01Z</time>
      </trkpt>
      <trkpt lat="48.04239" lon="-3.47969">
        <ele>157.4</ele>
        <time>2025-02-26T13:42:02Z</time>
      </trkpt>
      <trkpt lat="48.04239" lon="-3.47969">
        <ele>157.4</ele>
        <time>2025-02-26T13:42:03Z</time>
      </trkpt>
      <trkpt lat="48.04239" lon="-3.47969">
        <ele>157.4</ele>
        <time>2025-02-26T13:42:04Z</time>
      </trkpt>
      <trkpt lat="48.04239" lon="-3.47969">
        <ele>157.4</ele>
        <time>2025-02-26T13:42:05Z</time>
      </trkpt>
      <trkpt lat="48.04239" lon="-3.47969">
        <ele>157.4</ele>
        <time>2025-02-26T13:42:06Z</time>
      </trkpt>
      <trkpt lat="48.04239" lon="-3.47969">
        <ele>157.4</ele>
        <time>2025-02-26T13:42:07Z</time>
      </trkpt>
      <trkpt lat="48.04239" lon="-3.47969">
        <ele>157.4</ele>
        <time>2025-02-26T13:42:08Z</time>
      </trkpt>
      <trkpt lat="48.04239" lon="-3.47969">
        <ele>157.4</ele>
        <time>2025-02-26T13:42:09Z</time>
      </trkpt>
      <trkpt lat="48.04239" lon="-3.47969">
        <ele>157.4</ele>
        <time>2025-02-26T13:42:10Z</time>
      </trkpt>
      <trkpt lat="48.04239" lon="-3.47969">
        <ele>157.4</ele>
        <time>2025-02-26T13:42:11Z</time>
      </trkpt>
      <trkpt lat="48.04239" lon="-3.47969">
        <ele>157.4</ele>
        <time>2025-02-26T13:42:12Z</time>
      </trkpt>
      <trkpt lat="48.04239" lon="-3.47969">
        <ele>157.4</ele>
        <time>2025-02-26T13:42:13Z</time>
      </trkpt>
      <trkpt lat="48.04239" lon="-3.47969">
        <ele>157.3</ele>
        <time>2025-02-26T13:42:14Z</time>
      </trkpt>
      <trkpt lat="48.04239" lon="-3.47969">
        <ele>157.4</ele>
        <time>2025-02-26T13:42:15Z</time>
      </trkpt>
      <trkpt lat="48.04239" lon="-3.47969">
        <ele>157.4</ele>
        <time>2025-02-26T13:42:16Z</time>
      </trkpt>
      <trkpt lat="48.04239" lon="-3.47969">
        <ele>157.4</ele>
        <time>2025-02-26T13:42:17Z</time>
      </trkpt>
      <trkpt lat="48.04239" lon="-3.47969">
        <ele>157.4</ele>
        <time>2025-02-26T13:42:18Z</time>
      </trkpt>
      <trkpt lat="48.04239" lon="-3.47969">
        <ele>157.4</ele>
        <time>2025-02-26T13:42:19Z</time>
      </trkpt>
      <trkpt lat="48.04239" lon="-3.47969">
        <ele>157.4</ele>
        <time>2025-02-26T13:42:20Z</time>
      </trkpt>
      <trkpt lat="48.04239" lon="-3.47969">
        <ele>157.5</ele>
        <time>2025-02-26T13:42:21Z</time>
      </trkpt>
      <trkpt lat="48.04239" lon="-3.47969">
        <ele>157.5</ele>
        <time>2025-02-26T13:42:22Z</time>
      </trkpt>
      <trkpt lat="48.04239" lon="-3.47969">
        <ele>157.5</ele>
        <time>2025-02-26T13:42:23Z</time>
      </trkpt>
      <trkpt lat="48.04239" lon="-3.47969">
        <ele>157.5</ele>
        <time>2025-02-26T13:42:24Z</time>
      </trkpt>
      <trkpt lat="48.04239" lon="-3.47969">
        <ele>157.5</ele>
        <time>2025-02-26T13:42:25Z</time>
      </trkpt>
      <trkpt lat="48.04239" lon="-3.47969">
        <ele>157.5</ele>
        <time>2025-02-26T13:42:26Z</time>
      </trkpt>
      <trkpt lat="48.04239" lon="-3.47969">
        <ele>157.4</ele>
        <time>2025-02-26T13:42:27Z</time>
      </trkpt>
      <trkpt lat="48.04239" lon="-3.47969">
        <ele>157.3</ele>
        <time>2025-02-26T13:42:28Z</time>
      </trkpt>
      <trkpt lat="48.04239" lon="-3.47969">
        <ele>157.3</ele>
        <time>2025-02-26T13:42:29Z</time>
      </trkpt>
      <trkpt lat="48.04239" lon="-3.47969">
        <ele>157.3</ele>
        <time>2025-02-26T13:42:30Z</time>
      </trkpt>
      <trkpt lat="48.04239" lon="-3.47969">
        <ele>157.1</ele>
        <time>2025-02-26T13:42:31Z</time>
      </trkpt>
      <trkpt lat="48.04239" lon="-3.47969">
        <ele>157.1</ele>
        <time>2025-02-26T13:42:32Z</time>
      </trkpt>
      <trkpt lat="48.04239" lon="-3.47969">
        <ele>157.2</ele>
        <time>2025-02-26T13:42:33Z</time>
      </trkpt>
      <trkpt lat="48.0424" lon="-3.47969">
        <ele>156.9</ele>
        <time>2025-02-26T13:42:34Z</time>
      </trkpt>
      <trkpt lat="48.0424" lon="-3.47969">
        <ele>156.7</ele>
        <time>2025-02-26T13:42:35Z</time>
      </trkpt>
      <trkpt lat="48.04241" lon="-3.47968">
        <ele>156</ele>
        <time>2025-02-26T13:42:36Z</time>
      </trkpt>
      <trkpt lat="48.04242" lon="-3.47967">
        <ele>155.6</ele>
        <time>2025-02-26T13:42:37Z</time>
      </trkpt>
      <trkpt lat="48.04241" lon="-3.47968">
        <ele>156.2</ele>
        <time>2025-02-26T13:42:38Z</time>
      </trkpt>
      <trkpt lat="48.0424" lon="-3.47968">
        <ele>156.4</ele>
        <time>2025-02-26T13:42:39Z</time>
      </trkpt>
      <trkpt lat="48.0424" lon="-3.47968">
        <ele>156.5</ele>
        <time>2025-02-26T13:42:40Z</time>
      </trkpt>
      <trkpt lat="48.0424" lon="-3.47968">
        <ele>156.5</ele>
        <time>2025-02-26T13:42:41Z</time>
      </trkpt>
      <trkpt lat="48.0424" lon="-3.47968">
        <ele>156.5</ele>
        <time>2025-02-26T13:42:42Z</time>
      </trkpt>
      <trkpt lat="48.0424" lon="-3.47968">
        <ele>156.5</ele>
        <time>2025-02-26T13:42:43Z</time>
      </trkpt>
      <trkpt lat="48.0424" lon="-3.47968">
        <ele>156.5</ele>
        <time>2025-02-26T13:42:44Z</time>
      </trkpt>
      <trkpt lat="48.0424" lon="-3.47968">
        <ele>156.5</ele>
        <time>2025-02-26T13:42:45Z</time>
      </trkpt>
      <trkpt lat="48.0424" lon="-3.47968">
        <ele>156.3</ele>
        <time>2025-02-26T13:42:46Z</time>
      </trkpt>
      <trkpt lat="48.04241" lon="-3.47968">
        <ele>156.2</ele>
        <time>2025-02-26T13:42:47Z</time>
      </trkpt>
      <trkpt lat="48.04241" lon="-3.47968">
        <ele>156.2</ele>
        <time>2025-02-26T13:42:48Z</time>
      </trkpt>
      <trkpt lat="48.04241" lon="-3.47968">
        <ele>156.2</ele>
        <time>2025-02-26T13:42:49Z</time>
      </trkpt>
      <trkpt lat="48.04241" lon="-3.47968">
        <ele>156.2</ele>
        <time>2025-02-26T13:42:50Z</time>
      </trkpt>
      <trkpt lat="48.04241" lon="-3.47968">
        <ele>156.2</ele>
        <time>2025-02-26T13:42:51Z</time>
      </trkpt>
      <trkpt lat="48.04241" lon="-3.47968">
        <ele>156.2</ele>
        <time>2025-02-26T13:42:52Z</time>
      </trkpt>
      <trkpt lat="48.04241" lon="-3.47968">
        <ele>156.2</ele>
        <time>2025-02-26T13:42:53Z</time>
      </trkpt>
      <trkpt lat="48.04241" lon="-3.47968">
        <ele>156.2</ele>
        <time>2025-02-26T13:42:54Z</time>
      </trkpt>
      <trkpt lat="48.04241" lon="-3.47968">
        <ele>156.1</ele>
        <time>2025-02-26T13:42:55Z</time>
      </trkpt>
      <trkpt lat="48.04241" lon="-3.47968">
        <ele>156.1</ele>
        <time>2025-02-26T13:42:56Z</time>
      </trkpt>
      <trkpt lat="48.04241" lon="-3.47968">
        <ele>156.1</ele>
        <time>2025-02-26T13:42:57Z</time>
      </trkpt>
      <trkpt lat="48.04241" lon="-3.47968">
        <ele>156.1</ele>
        <time>2025-02-26T13:42:58Z</time>
      </trkpt>
      <trkpt lat="48.04241" lon="-3.47968">
        <ele>156.1</ele>
        <time>2025-02-26T13:42:59Z</time>
      </trkpt>
      <trkpt lat="48.04241" lon="-3.47968">
        <ele>156.1</ele>
        <time>2025-02-26T13:43:00Z</time>
      </trkpt>
      <trkpt lat="48.04241" lon="-3.47968">
        <ele>156.1</ele>
        <time>2025-02-26T13:43:01Z</time>
      </trkpt>
      <trkpt lat="48.04241" lon="-3.47968">
        <ele>156.1</ele>
        <time>2025-02-26T13:43:02Z</time>
      </trkpt>
      <trkpt lat="48.04241" lon="-3.47968">
        <ele>156.1</ele>
        <time>2025-02-26T13:43:03Z</time>
      </trkpt>
      <trkpt lat="48.04241" lon="-3.47968">
        <ele>156.1</ele>
        <time>2025-02-26T13:43:04Z</time>
      </trkpt>
      <trkpt lat="48.04241" lon="-3.47968">
        <ele>156.1</ele>
        <time>2025-02-26T13:43:05Z</time>
      </trkpt>
      <trkpt lat="48.04241" lon="-3.47968">
        <ele>156.1</ele>
        <time>2025-02-26T13:43:06Z</time>
      </trkpt>
      <trkpt lat="48.04241" lon="-3.47968">
        <ele>156.1</ele>
        <time>2025-02-26T13:43:07Z</time>
      </trkpt>
      <trkpt lat="48.04242" lon="-3.47968">
        <ele>156</ele>
        <time>2025-02-26T13:43:08Z</time>
      </trkpt>
      <trkpt lat="48.04242" lon="-3.47968">
        <ele>155.9</ele>
        <time>2025-02-26T13:43:09Z</time>
      </trkpt>
      <trkpt lat="48.04242" lon="-3.47967">
        <ele>155.6</ele>
        <time>2025-02-26T13:43:10Z</time>
      </trkpt>
      <trkpt lat="48.04243" lon="-3.47966">
        <ele>155</ele>
        <time>2025-02-26T13:43:11Z</time>
      </trkpt>
      <trkpt lat="48.04243" lon="-3.47966">
        <ele>154.9</ele>
        <time>2025-02-26T13:43:12Z</time>
      </trkpt>
      <trkpt lat="48.04242" lon="-3.47967">
        <ele>155.4</ele>
        <time>2025-02-26T13:43:13Z</time>
      </trkpt>
      <trkpt lat="48.04241" lon="-3.47968">
        <ele>156.1</ele>
        <time>2025-02-26T13:43:14Z</time>
      </trkpt>
      <trkpt lat="48.0424" lon="-3.47968">
        <ele>156.5</ele>
        <time>2025-02-26T13:43:15Z</time>
      </trkpt>
      <trkpt lat="48.04239" lon="-3.47968">
        <ele>156.9</ele>
        <time>2025-02-26T13:43:16Z</time>
      </trkpt>
      <trkpt lat="48.04238" lon="-3.47968">
        <ele>157.1</ele>
        <time>2025-02-26T13:43:17Z</time>
      </trkpt>
      <trkpt lat="48.04237" lon="-3.47967">
        <ele>157.2</ele>
        <time>2025-02-26T13:43:18Z</time>
      </trkpt>
      <trkpt lat="48.04236" lon="-3.47966">
        <ele>157.2</ele>
        <time>2025-02-26T13:43:19Z</time>
      </trkpt>
      <trkpt lat="48.04235" lon="-3.47965">
        <ele>157</ele>
        <time>2025-02-26T13:43:20Z</time>
      </trkpt>
      <trkpt lat="48.04235" lon="-3.47964">
        <ele>156.7</ele>
        <time>2025-02-26T13:43:21Z</time>
      </trkpt>
      <trkpt lat="48.04238" lon="-3.47967">
        <ele>156.8</ele>
        <time>2025-02-26T13:43:22Z</time>
      </trkpt>
      <trkpt lat="48.04237" lon="-3.47967">
        <ele>157</ele>
        <time>2025-02-26T13:43:23Z</time>
      </trkpt>
      <trkpt lat="48.04236" lon="-3.47967">
        <ele>157.3</ele>
        <time>2025-02-26T13:43:24Z</time>
      </trkpt>
      <trkpt lat="48.04235" lon="-3.47966">
        <ele>157.4</ele>
        <time>2025-02-26T13:43:25Z</time>
      </trkpt>
      <trkpt lat="48.04235" lon="-3.47966">
        <ele>157.6</ele>
        <time>2025-02-26T13:43:26Z</time>
      </trkpt>
      <trkpt lat="48.04234" lon="-3.47967">
        <ele>158</ele>
        <time>2025-02-26T13:43:27Z</time>
      </trkpt>
      <trkpt lat="48.04234" lon="-3.47969">
        <ele>158.8</ele>
        <time>2025-02-26T13:43:28Z</time>
      </trkpt>
      <trkpt lat="48.04235" lon="-3.47971">
        <ele>159.5</ele>
        <time>2025-02-26T13:43:29Z</time>
      </trkpt>
      <trkpt lat="48.04235" lon="-3.47973">
        <ele>160</ele>
        <time>2025-02-26T13:43:30Z</time>
      </trkpt>
      <trkpt lat="48.04234" lon="-3.47973">
        <ele>160.3</ele>
        <time>2025-02-26T13:43:31Z</time>
      </trkpt>
      <trkpt lat="48.04235" lon="-3.47974">
        <ele>160.5</ele>
        <time>2025-02-26T13:43:32Z</time>
      </trkpt>
      <trkpt lat="48.04235" lon="-3.47976">
        <ele>160.7</ele>
        <time>2025-02-26T13:43:33Z</time>
      </trkpt>
      <trkpt lat="48.04234" lon="-3.47976">
        <ele>161</ele>
        <time>2025-02-26T13:43:34Z</time>
      </trkpt>
      <trkpt lat="48.04234" lon="-3.47977">
        <ele>161.2</ele>
        <time>2025-02-26T13:43:35Z</time>
      </trkpt>
      <trkpt lat="48.04233" lon="-3.47978">
        <ele>161.6</ele>
        <time>2025-02-26T13:43:36Z</time>
      </trkpt>
      <trkpt lat="48.04233" lon="-3.47978">
        <ele>162</ele>
        <time>2025-02-26T13:43:37Z</time>
      </trkpt>
      <trkpt lat="48.04232" lon="-3.47978">
        <ele>162.2</ele>
        <time>2025-02-26T13:43:38Z</time>
      </trkpt>
      <trkpt lat="48.04232" lon="-3.47976">
        <ele>161.9</ele>
        <time>2025-02-26T13:43:39Z</time>
      </trkpt>
      <trkpt lat="48.0423" lon="-3.47978">
        <ele>162.8</ele>
        <time>2025-02-26T13:43:40Z</time>
      </trkpt>
      <trkpt lat="48.0423" lon="-3.4798">
        <ele>163.2</ele>
        <time>2025-02-26T13:43:41Z</time>
      </trkpt>
      <trkpt lat="48.04231" lon="-3.4798">
        <ele>163</ele>
        <time>2025-02-26T13:43:42Z</time>
      </trkpt>
      <trkpt lat="48.04231" lon="-3.47979">
        <ele>162.9</ele>
        <time>2025-02-26T13:43:43Z</time>
      </trkpt>
      <trkpt lat="48.04231" lon="-3.4798">
        <ele>163</ele>
        <time>2025-02-26T13:43:44Z</time>
      </trkpt>
      <trkpt lat="48.04231" lon="-3.4798">
        <ele>162.9</ele>
        <time>2025-02-26T13:43:45Z</time>
      </trkpt>
      <trkpt lat="48.04231" lon="-3.47981">
        <ele>163</ele>
        <time>2025-02-26T13:43:46Z</time>
      </trkpt>
      <trkpt lat="48.04232" lon="-3.47981">
        <ele>163</ele>
        <time>2025-02-26T13:43:47Z</time>
      </trkpt>
      <trkpt lat="48.04232" lon="-3.47981">
        <ele>162.6</ele>
        <time>2025-02-26T13:43:48Z</time>
      </trkpt>
      <trkpt lat="48.04232" lon="-3.4798">
        <ele>162.4</ele>
        <time>2025-02-26T13:43:49Z</time>
      </trkpt>
      <trkpt lat="48.04232" lon="-3.47979">
        <ele>162.4</ele>
        <time>2025-02-26T13:43:50Z</time>
      </trkpt>
      <trkpt lat="48.04232" lon="-3.47979">
        <ele>162.4</ele>
        <time>2025-02-26T13:43:51Z</time>
      </trkpt>
      <trkpt lat="48.04232" lon="-3.47979">
        <ele>162.3</ele>
        <time>2025-02-26T13:43:52Z</time>
      </trkpt>
      <trkpt lat="48.04232" lon="-3.47979">
        <ele>162.3</ele>
        <time>2025-02-26T13:43:53Z</time>
      </trkpt>
      <trkpt lat="48.04232" lon="-3.47979">
        <ele>162.2</ele>
        <time>2025-02-26T13:43:54Z</time>
      </trkpt>
      <trkpt lat="48.04232" lon="-3.47978">
        <ele>162.2</ele>
        <time>2025-02-26T13:43:55Z</time>
      </trkpt>
      <trkpt lat="48.04232" lon="-3.47978">
        <ele>162.3</ele>
        <time>2025-02-26T13:43:56Z</time>
      </trkpt>
      <trkpt lat="48.04232" lon="-3.47978">
        <ele>162.3</ele>
        <time>2025-02-26T13:43:57Z</time>
      </trkpt>
      <trkpt lat="48.04232" lon="-3.47978">
        <ele>162.3</ele>
        <time>2025-02-26T13:43:58Z</time>
      </trkpt>
      <trkpt lat="48.04232" lon="-3.47978">
        <ele>162.3</ele>
        <time>2025-02-26T13:43:59Z</time>
      </trkpt>
      <trkpt lat="48.04232" lon="-3.47978">
        <ele>162.3</ele>
        <time>2025-02-26T13:44:00Z</time>
      </trkpt>
      <trkpt lat="48.04232" lon="-3.47978">
        <ele>162.3</ele>
        <time>2025-02-26T13:44:01Z</time>
      </trkpt>
      <trkpt lat="48.04232" lon="-3.47978">
        <ele>162.3</ele>
        <time>2025-02-26T13:44:02Z</time>
      </trkpt>
      <trkpt lat="48.04232" lon="-3.47978">
        <ele>162.4</ele>
        <time>2025-02-26T13:44:03Z</time>
      </trkpt>
      <trkpt lat="48.04231" lon="-3.4798">
        <ele>162.8</ele>
        <time>2025-02-26T13:44:04Z</time>
      </trkpt>
      <trkpt lat="48.0423" lon="-3.4798">
        <ele>163.3</ele>
        <time>2025-02-26T13:44:05Z</time>
      </trkpt>
      <trkpt lat="48.04229" lon="-3.4798">
        <ele>163.4</ele>
        <time>2025-02-26T13:44:06Z</time>
      </trkpt>
      <trkpt lat="48.04229" lon="-3.47978">
        <ele>163.2</ele>
        <time>2025-02-26T13:44:07Z</time>
      </trkpt>
      <trkpt lat="48.04228" lon="-3.47977">
        <ele>163.3</ele>
        <time>2025-02-26T13:44:08Z</time>
      </trkpt>
      <trkpt lat="48.04227" lon="-3.47976">
        <ele>163.3</ele>
        <time>2025-02-26T13:44:09Z</time>
      </trkpt>
      <trkpt lat="48.04227" lon="-3.47976">
        <ele>163.5</ele>
        <time>2025-02-26T13:44:10Z</time>
      </trkpt>
      <trkpt lat="48.04226" lon="-3.47976">
        <ele>163.6</ele>
        <time>2025-02-26T13:44:11Z</time>
      </trkpt>
      <trkpt lat="48.04225" lon="-3.47974">
        <ele>163.5</ele>
        <time>2025-02-26T13:44:12Z</time>
      </trkpt>
      <trkpt lat="48.04224" lon="-3.47973">
        <ele>163.6</ele>
        <time>2025-02-26T13:44:13Z</time>
      </trkpt>
      <trkpt lat="48.04224" lon="-3.47973">
        <ele>163.7</ele>
        <time>2025-02-26T13:44:14Z</time>
      </trkpt>
      <trkpt lat="48.04223" lon="-3.47973">
        <ele>164.1</ele>
        <time>2025-02-26T13:44:15Z</time>
      </trkpt>
      <trkpt lat="48.04222" lon="-3.47973">
        <ele>164.3</ele>
        <time>2025-02-26T13:44:16Z</time>
      </trkpt>
      <trkpt lat="48.04221" lon="-3.47972">
        <ele>164.3</ele>
        <time>2025-02-26T13:44:17Z</time>
      </trkpt>
      <trkpt lat="48.04221" lon="-3.47972">
        <ele>164.2</ele>
        <time>2025-02-26T13:44:18Z</time>
      </trkpt>
      <trkpt lat="48.0422" lon="-3.47971">
        <ele>164.3</ele>
        <time>2025-02-26T13:44:19Z</time>
      </trkpt>
      <trkpt lat="48.0422" lon="-3.47972">
        <ele>164.5</ele>
        <time>2025-02-26T13:44:20Z</time>
      </trkpt>
      <trkpt lat="48.04219" lon="-3.47972">
        <ele>164.7</ele>
        <time>2025-02-26T13:44:21Z</time>
      </trkpt>
      <trkpt lat="48.04218" lon="-3.47971">
        <ele>164.6</ele>
        <time>2025-02-26T13:44:22Z</time>
      </trkpt>
      <trkpt lat="48.04219" lon="-3.4797">
        <ele>163.8</ele>
        <time>2025-02-26T13:44:23Z</time>
      </trkpt>
      <trkpt lat="48.04219" lon="-3.47969">
        <ele>163.7</ele>
        <time>2025-02-26T13:44:24Z</time>
      </trkpt>
      <trkpt lat="48.04219" lon="-3.47969">
        <ele>163.6</ele>
        <time>2025-02-26T13:44:25Z</time>
      </trkpt>
      <trkpt lat="48.04219" lon="-3.47969">
        <ele>163.6</ele>
        <time>2025-02-26T13:44:26Z</time>
      </trkpt>
      <trkpt lat="48.0422" lon="-3.47969">
        <ele>163.3</ele>
        <time>2025-02-26T13:44:27Z</time>
      </trkpt>
      <trkpt lat="48.0422" lon="-3.47968">
        <ele>163</ele>
        <time>2025-02-26T13:44:28Z</time>
      </trkpt>
      <trkpt lat="48.0422" lon="-3.47968">
        <ele>163</ele>
        <time>2025-02-26T13:44:29Z</time>
      </trkpt>
      <trkpt lat="48.04219" lon="-3.47968">
        <ele>163</ele>
        <time>2025-02-26T13:44:30Z</time>
      </trkpt>
      <trkpt lat="48.04218" lon="-3.47967">
        <ele>163</ele>
        <time>2025-02-26T13:44:31Z</time>
      </trkpt>
      <trkpt lat="48.04218" lon="-3.47966">
        <ele>162.8</ele>
        <time>2025-02-26T13:44:32Z</time>
      </trkpt>
      <trkpt lat="48.04217" lon="-3.47966">
        <ele>162.8</ele>
        <time>2025-02-26T13:44:33Z</time>
      </trkpt>
      <trkpt lat="48.04217" lon="-3.47965">
        <ele>162.6</ele>
        <time>2025-02-26T13:44:34Z</time>
      </trkpt>
      <trkpt lat="48.04217" lon="-3.47964">
        <ele>162.2</ele>
        <time>2025-02-26T13:44:35Z</time>
      </trkpt>
      <trkpt lat="48.04216" lon="-3.47962">
        <ele>161.6</ele>
        <time>2025-02-26T13:44:36Z</time>
      </trkpt>
      <trkpt lat="48.04216" lon="-3.4796">
        <ele>160.9</ele>
        <time>2025-02-26T13:44:37Z</time>
      </trkpt>
      <trkpt lat="48.04215" lon="-3.47959">
        <ele>160.4</ele>
        <time>2025-02-26T13:44:38Z</time>
      </trkpt>
      <trkpt lat="48.04215" lon="-3.47957">
        <ele>159.8</ele>
        <time>2025-02-26T13:44:39Z</time>
      </trkpt>
      <trkpt lat="48.04215" lon="-3.47956">
        <ele>159.3</ele>
        <time>2025-02-26T13:44:40Z</time>
      </trkpt>
      <trkpt lat="48.04214" lon="-3.47955">
        <ele>159</ele>
        <time>2025-02-26T13:44:41Z</time>
      </trkpt>
      <trkpt lat="48.04213" lon="-3.47954">
        <ele>158.9</ele>
        <time>2025-02-26T13:44:42Z</time>
      </trkpt>
      <trkpt lat="48.04213" lon="-3.47954">
        <ele>159.1</ele>
        <time>2025-02-26T13:44:43Z</time>
      </trkpt>
      <trkpt lat="48.04213" lon="-3.47955">
        <ele>159.3</ele>
        <time>2025-02-26T13:44:44Z</time>
      </trkpt>
      <trkpt lat="48.04213" lon="-3.47955">
        <ele>159.5</ele>
        <time>2025-02-26T13:44:45Z</time>
      </trkpt>
      <trkpt lat="48.04212" lon="-3.47956">
        <ele>159.8</ele>
        <time>2025-02-26T13:44:46Z</time>
      </trkpt>
      <trkpt lat="48.04213" lon="-3.47956">
        <ele>159.7</ele>
        <time>2025-02-26T13:44:47Z</time>
      </trkpt>
      <trkpt lat="48.04213" lon="-3.47956">
        <ele>159.6</ele>
        <time>2025-02-26T13:44:48Z</time>
      </trkpt>
      <trkpt lat="48.04214" lon="-3.47956">
        <ele>159.7</ele>
        <time>2025-02-26T13:44:49Z</time>
      </trkpt>
      <trkpt lat="48.04214" lon="-3.47956">
        <ele>159.7</ele>
        <time>2025-02-26T13:44:50Z</time>
      </trkpt>
      <trkpt lat="48.04214" lon="-3.47956">
        <ele>159.7</ele>
        <time>2025-02-26T13:44:51Z</time>
      </trkpt>
      <trkpt lat="48.04214" lon="-3.47956">
        <ele>159.7</ele>
        <time>2025-02-26T13:44:52Z</time>
      </trkpt>
      <trkpt lat="48.04214" lon="-3.47957">
        <ele>159.8</ele>
        <time>2025-02-26T13:44:53Z</time>
      </trkpt>
      <trkpt lat="48.04215" lon="-3.47957">
        <ele>159.8</ele>
        <time>2025-02-26T13:44:54Z</time>
      </trkpt>
      <trkpt lat="48.04216" lon="-3.47958">
        <ele>159.7</ele>
        <time>2025-02-26T13:44:55Z</time>
      </trkpt>
      <trkpt lat="48.04216" lon="-3.47957">
        <ele>159.6</ele>
        <time>2025-02-26T13:44:56Z</time>
      </trkpt>
      <trkpt lat="48.04216" lon="-3.47957">
        <ele>159.6</ele>
        <time>2025-02-26T13:44:57Z</time>
      </trkpt>
      <trkpt lat="48.04216" lon="-3.47957">
        <ele>159.6</ele>
        <time>2025-02-26T13:44:58Z</time>
      </trkpt>
      <trkpt lat="48.04216" lon="-3.47958">
        <ele>159.7</ele>
        <time>2025-02-26T13:44:59Z</time>
      </trkpt>
      <trkpt lat="48.04216" lon="-3.47958">
        <ele>160</ele>
        <time>2025-02-26T13:45:00Z</time>
      </trkpt>
      <trkpt lat="48.04215" lon="-3.47958">
        <ele>159.9</ele>
        <time>2025-02-26T13:45:01Z</time>
      </trkpt>
      <trkpt lat="48.04215" lon="-3.47957">
        <ele>159.7</ele>
        <time>2025-02-26T13:45:02Z</time>
      </trkpt>
      <trkpt lat="48.04214" lon="-3.47956">
        <ele>159.4</ele>
        <time>2025-02-26T13:45:03Z</time>
      </trkpt>
      <trkpt lat="48.04213" lon="-3.47954">
        <ele>159</ele>
        <time>2025-02-26T13:45:04Z</time>
      </trkpt>
      <trkpt lat="48.04213" lon="-3.47953">
        <ele>158.7</ele>
        <time>2025-02-26T13:45:05Z</time>
      </trkpt>
      <trkpt lat="48.04213" lon="-3.47952">
        <ele>158.2</ele>
        <time>2025-02-26T13:45:06Z</time>
      </trkpt>
      <trkpt lat="48.04213" lon="-3.47952">
        <ele>158</ele>
        <time>2025-02-26T13:45:07Z</time>
      </trkpt>
      <trkpt lat="48.04214" lon="-3.47952">
        <ele>157.7</ele>
        <time>2025-02-26T13:45:08Z</time>
      </trkpt>
      <trkpt lat="48.04215" lon="-3.47951">
        <ele>157.2</ele>
        <time>2025-02-26T13:45:09Z</time>
      </trkpt>
      <trkpt lat="48.04217" lon="-3.47951">
        <ele>156.8</ele>
        <time>2025-02-26T13:45:10Z</time>
      </trkpt>
      <trkpt lat="48.04216" lon="-3.47951">
        <ele>157.2</ele>
        <time>2025-02-26T13:45:11Z</time>
      </trkpt>
      <trkpt lat="48.04215" lon="-3.47952">
        <ele>157.4</ele>
        <time>2025-02-26T13:45:12Z</time>
      </trkpt>
      <trkpt lat="48.04215" lon="-3.47952">
        <ele>157.4</ele>
        <time>2025-02-26T13:45:13Z</time>
      </trkpt>
      <trkpt lat="48.04215" lon="-3.47952">
        <ele>157.4</ele>
        <time>2025-02-26T13:45:14Z</time>
      </trkpt>
      <trkpt lat="48.04215" lon="-3.47952">
        <ele>157.5</ele>
        <time>2025-02-26T13:45:15Z</time>
      </trkpt>
      <trkpt lat="48.04215" lon="-3.47952">
        <ele>157.5</ele>
        <time>2025-02-26T13:45:16Z</time>
      </trkpt>
      <trkpt lat="48.04215" lon="-3.47952">
        <ele>157.5</ele>
        <time>2025-02-26T13:45:17Z</time>
      </trkpt>
      <trkpt lat="48.04216" lon="-3.47952">
        <ele>157.4</ele>
        <time>2025-02-26T13:45:18Z</time>
      </trkpt>
      <trkpt lat="48.04215" lon="-3.47951">
        <ele>157.2</ele>
        <time>2025-02-26T13:45:19Z</time>
      </trkpt>
      <trkpt lat="48.04215" lon="-3.47951">
        <ele>157.2</ele>
        <time>2025-02-26T13:45:20Z</time>
      </trkpt>
      <trkpt lat="48.04215" lon="-3.47951">
        <ele>157.2</ele>
        <time>2025-02-26T13:45:21Z</time>
      </trkpt>
      <trkpt lat="48.04215" lon="-3.47951">
        <ele>157.2</ele>
        <time>2025-02-26T13:45:22Z</time>
      </trkpt>
      <trkpt lat="48.04215" lon="-3.47951">
        <ele>157.2</ele>
        <time>2025-02-26T13:45:23Z</time>
      </trkpt>
      <trkpt lat="48.04215" lon="-3.47951">
        <ele>157.2</ele>
        <time>2025-02-26T13:45:24Z</time>
      </trkpt>
      <trkpt lat="48.04215" lon="-3.47951">
        <ele>157.2</ele>
        <time>2025-02-26T13:45:25Z</time>
      </trkpt>
      <trkpt lat="48.04215" lon="-3.47951">
        <ele>157.2</ele>
        <time>2025-02-26T13:45:26Z</time>
      </trkpt>
      <trkpt lat="48.04215" lon="-3.47951">
        <ele>157.2</ele>
        <time>2025-02-26T13:45:27Z</time>
      </trkpt>
      <trkpt lat="48.04215" lon="-3.47951">
        <ele>157.2</ele>
        <time>2025-02-26T13:45:28Z</time>
      </trkpt>
      <trkpt lat="48.04215" lon="-3.47951">
        <ele>157.2</ele>
        <time>2025-02-26T13:45:29Z</time>
      </trkpt>
      <trkpt lat="48.04215" lon="-3.47951">
        <ele>157.2</ele>
        <time>2025-02-26T13:45:30Z</time>
      </trkpt>
      <trkpt lat="48.04215" lon="-3.47951">
        <ele>157.2</ele>
        <time>2025-02-26T13:45:31Z</time>
      </trkpt>
      <trkpt lat="48.04215" lon="-3.47951">
        <ele>157.2</ele>
        <time>2025-02-26T13:45:32Z</time>
      </trkpt>
      <trkpt lat="48.04215" lon="-3.47951">
        <ele>157.2</ele>
        <time>2025-02-26T13:45:33Z</time>
      </trkpt>
      <trkpt lat="48.04215" lon="-3.47951">
        <ele>157.2</ele>
        <time>2025-02-26T13:45:34Z</time>
      </trkpt>
      <trkpt lat="48.04215" lon="-3.47951">
        <ele>157.3</ele>
        <time>2025-02-26T13:45:35Z</time>
      </trkpt>
      <trkpt lat="48.04215" lon="-3.47952">
        <ele>157.5</ele>
        <time>2025-02-26T13:45:36Z</time>
      </trkpt>
      <trkpt lat="48.04215" lon="-3.47952">
        <ele>157.5</ele>
        <time>2025-02-26T13:45:37Z</time>
      </trkpt>
      <trkpt lat="48.04215" lon="-3.47952">
        <ele>157.5</ele>
        <time>2025-02-26T13:45:38Z</time>
      </trkpt>
      <trkpt lat="48.04215" lon="-3.47951">
        <ele>157.2</ele>
        <time>2025-02-26T13:45:39Z</time>
      </trkpt>
      <trkpt lat="48.04215" lon="-3.47951">
        <ele>157.1</ele>
        <time>2025-02-26T13:45:40Z</time>
      </trkpt>
      <trkpt lat="48.04215" lon="-3.47951">
        <ele>157.1</ele>
        <time>2025-02-26T13:45:41Z</time>
      </trkpt>
      <trkpt lat="48.04215" lon="-3.47951">
        <ele>157.1</ele>
        <time>2025-02-26T13:45:42Z</time>
      </trkpt>
      <trkpt lat="48.04215" lon="-3.47951">
        <ele>157.1</ele>
        <time>2025-02-26T13:45:43Z</time>
      </trkpt>
      <trkpt lat="48.04215" lon="-3.47951">
        <ele>157.1</ele>
        <time>2025-02-26T13:45:44Z</time>
      </trkpt>
      <trkpt lat="48.04215" lon="-3.4795">
        <ele>157</ele>
        <time>2025-02-26T13:45:45Z</time>
      </trkpt>
      <trkpt lat="48.04215" lon="-3.47951">
        <ele>157.3</ele>
        <time>2025-02-26T13:45:46Z</time>
      </trkpt>
      <trkpt lat="48.04214" lon="-3.47952">
        <ele>157.7</ele>
        <time>2025-02-26T13:45:47Z</time>
      </trkpt>
      <trkpt lat="48.04214" lon="-3.47952">
        <ele>157.9</ele>
        <time>2025-02-26T13:45:48Z</time>
      </trkpt>
      <trkpt lat="48.04213" lon="-3.47951">
        <ele>157.7</ele>
        <time>2025-02-26T13:45:49Z</time>
      </trkpt>
      <trkpt lat="48.04213" lon="-3.47951">
        <ele>157.8</ele>
        <time>2025-02-26T13:45:50Z</time>
      </trkpt>
      <trkpt lat="48.04213" lon="-3.47951">
        <ele>157.9</ele>
        <time>2025-02-26T13:45:51Z</time>
      </trkpt>
      <trkpt lat="48.04212" lon="-3.47952">
        <ele>158.2</ele>
        <time>2025-02-26T13:45:52Z</time>
      </trkpt>
      <trkpt lat="48.04212" lon="-3.47952">
        <ele>158.3</ele>
        <time>2025-02-26T13:45:53Z</time>
      </trkpt>
      <trkpt lat="48.04211" lon="-3.47952">
        <ele>158.7</ele>
        <time>2025-02-26T13:45:54Z</time>
      </trkpt>
      <trkpt lat="48.04211" lon="-3.47952">
        <ele>158.8</ele>
        <time>2025-02-26T13:45:55Z</time>
      </trkpt>
      <trkpt lat="48.04211" lon="-3.47952">
        <ele>158.7</ele>
        <time>2025-02-26T13:45:56Z</time>
      </trkpt>
      <trkpt lat="48.04211" lon="-3.47953">
        <ele>159.1</ele>
        <time>2025-02-26T13:45:57Z</time>
      </trkpt>
      <trkpt lat="48.04209" lon="-3.47953">
        <ele>159.4</ele>
        <time>2025-02-26T13:45:58Z</time>
      </trkpt>
      <trkpt lat="48.04207" lon="-3.47953">
        <ele>159.9</ele>
        <time>2025-02-26T13:45:59Z</time>
      </trkpt>
      <trkpt lat="48.04206" lon="-3.47953">
        <ele>160.2</ele>
        <time>2025-02-26T13:46:00Z</time>
      </trkpt>
      <trkpt lat="48.04205" lon="-3.47954">
        <ele>160.9</ele>
        <time>2025-02-26T13:46:01Z</time>
      </trkpt>
      <trkpt lat="48.04205" lon="-3.47955">
        <ele>161.4</ele>
        <time>2025-02-26T13:46:02Z</time>
      </trkpt>
      <trkpt lat="48.04205" lon="-3.47955">
        <ele>161.6</ele>
        <time>2025-02-26T13:46:03Z</time>
      </trkpt>
      <trkpt lat="48.04205" lon="-3.47956">
        <ele>161.9</ele>
        <time>2025-02-26T13:46:04Z</time>
      </trkpt>
      <trkpt lat="48.04205" lon="-3.47956">
        <ele>161.9</ele>
        <time>2025-02-26T13:46:05Z</time>
      </trkpt>
      <trkpt lat="48.04205" lon="-3.47956">
        <ele>161.9</ele>
        <time>2025-02-26T13:46:06Z</time>
      </trkpt>
      <trkpt lat="48.04205" lon="-3.47956">
        <ele>161.9</ele>
        <time>2025-02-26T13:46:07Z</time>
      </trkpt>
      <trkpt lat="48.04205" lon="-3.47956">
        <ele>161.9</ele>
        <time>2025-02-26T13:46:08Z</time>
      </trkpt>
      <trkpt lat="48.04205" lon="-3.47956">
        <ele>161.9</ele>
        <time>2025-02-26T13:46:09Z</time>
      </trkpt>
      <trkpt lat="48.04205" lon="-3.47956">
        <ele>161.9</ele>
        <time>2025-02-26T13:46:10Z</time>
      </trkpt>
      <trkpt lat="48.04205" lon="-3.47956">
        <ele>161.9</ele>
        <time>2025-02-26T13:46:11Z</time>
      </trkpt>
      <trkpt lat="48.04205" lon="-3.47956">
        <ele>161.9</ele>
        <time>2025-02-26T13:46:12Z</time>
      </trkpt>
      <trkpt lat="48.04205" lon="-3.47956">
        <ele>161.9</ele>
        <time>2025-02-26T13:46:13Z</time>
      </trkpt>
      <trkpt lat="48.04205" lon="-3.47956">
        <ele>161.9</ele>
        <time>2025-02-26T13:46:14Z</time>
      </trkpt>
      <trkpt lat="48.04205" lon="-3.47956">
        <ele>161.9</ele>
        <time>2025-02-26T13:46:15Z</time>
      </trkpt>
      <trkpt lat="48.04205" lon="-3.47956">
        <ele>161.9</ele>
        <time>2025-02-26T13:46:16Z</time>
      </trkpt>
      <trkpt lat="48.04205" lon="-3.47956">
        <ele>161.9</ele>
        <time>2025-02-26T13:46:17Z</time>
      </trkpt>
      <trkpt lat="48.04205" lon="-3.47956">
        <ele>161.9</ele>
        <time>2025-02-26T13:46:18Z</time>
      </trkpt>
      <trkpt lat="48.04205" lon="-3.47956">
        <ele>161.9</ele>
        <time>2025-02-26T13:46:19Z</time>
      </trkpt>
      <trkpt lat="48.04205" lon="-3.47956">
        <ele>161.9</ele>
        <time>2025-02-26T13:46:20Z</time>
      </trkpt>
      <trkpt lat="48.04205" lon="-3.47957">
        <ele>162.4</ele>
        <time>2025-02-26T13:46:21Z</time>
      </trkpt>
      <trkpt lat="48.04205" lon="-3.47957">
        <ele>162.5</ele>
        <time>2025-02-26T13:46:22Z</time>
      </trkpt>
      <trkpt lat="48.04205" lon="-3.47957">
        <ele>162.5</ele>
        <time>2025-02-26T13:46:23Z</time>
      </trkpt>
      <trkpt lat="48.04205" lon="-3.47957">
        <ele>162.5</ele>
        <time>2025-02-26T13:46:24Z</time>
      </trkpt>
      <trkpt lat="48.04205" lon="-3.47957">
        <ele>162.5</ele>
        <time>2025-02-26T13:46:25Z</time>
      </trkpt>
      <trkpt lat="48.04205" lon="-3.47957">
        <ele>162.5</ele>
        <time>2025-02-26T13:46:26Z</time>
      </trkpt>
      <trkpt lat="48.04205" lon="-3.47957">
        <ele>162.5</ele>
        <time>2025-02-26T13:46:27Z</time>
      </trkpt>
      <trkpt lat="48.04205" lon="-3.47957">
        <ele>162.3</ele>
        <time>2025-02-26T13:46:28Z</time>
      </trkpt>
      <trkpt lat="48.04205" lon="-3.47957">
        <ele>162.3</ele>
        <time>2025-02-26T13:46:29Z</time>
      </trkpt>
      <trkpt lat="48.04205" lon="-3.47957">
        <ele>162.3</ele>
        <time>2025-02-26T13:46:30Z</time>
      </trkpt>
      <trkpt lat="48.04205" lon="-3.47957">
        <ele>162.6</ele>
        <time>2025-02-26T13:46:31Z</time>
      </trkpt>
      <trkpt lat="48.04204" lon="-3.47957">
        <ele>162.6</ele>
        <time>2025-02-26T13:46:32Z</time>
      </trkpt>
      <trkpt lat="48.04203" lon="-3.47957">
        <ele>162.6</ele>
        <time>2025-02-26T13:46:33Z</time>
      </trkpt>
      <trkpt lat="48.04202" lon="-3.47956">
        <ele>162.5</ele>
        <time>2025-02-26T13:46:34Z</time>
      </trkpt>
      <trkpt lat="48.04202" lon="-3.47956">
        <ele>162.6</ele>
        <time>2025-02-26T13:46:35Z</time>
      </trkpt>
      <trkpt lat="48.04201" lon="-3.47956">
        <ele>162.7</ele>
        <time>2025-02-26T13:46:36Z</time>
      </trkpt>
      <trkpt lat="48.042" lon="-3.47955">
        <ele>162.7</ele>
        <time>2025-02-26T13:46:37Z</time>
      </trkpt>
      <trkpt lat="48.04199" lon="-3.47954">
        <ele>162.5</ele>
        <time>2025-02-26T13:46:38Z</time>
      </trkpt>
      <trkpt lat="48.04199" lon="-3.47953">
        <ele>162.2</ele>
        <time>2025-02-26T13:46:39Z</time>
      </trkpt>
      <trkpt lat="48.04198" lon="-3.47953">
        <ele>162.1</ele>
        <time>2025-02-26T13:46:40Z</time>
      </trkpt>
      <trkpt lat="48.04197" lon="-3.47953">
        <ele>162.3</ele>
        <time>2025-02-26T13:46:41Z</time>
      </trkpt>
      <trkpt lat="48.04197" lon="-3.47953">
        <ele>162.4</ele>
        <time>2025-02-26T13:46:42Z</time>
      </trkpt>
      <trkpt lat="48.04196" lon="-3.47952">
        <ele>162.1</ele>
        <time>2025-02-26T13:46:43Z</time>
      </trkpt>
      <trkpt lat="48.04196" lon="-3.47951">
        <ele>162</ele>
        <time>2025-02-26T13:46:44Z</time>
      </trkpt>
      <trkpt lat="48.04195" lon="-3.47951">
        <ele>161.8</ele>
        <time>2025-02-26T13:46:45Z</time>
      </trkpt>
      <trkpt lat="48.04194" lon="-3.47951">
        <ele>162.3</ele>
        <time>2025-02-26T13:46:46Z</time>
      </trkpt>
      <trkpt lat="48.04194" lon="-3.47952">
        <ele>162.7</ele>
        <time>2025-02-26T13:46:47Z</time>
      </trkpt>
      <trkpt lat="48.04193" lon="-3.47952">
        <ele>162.8</ele>
        <time>2025-02-26T13:46:48Z</time>
      </trkpt>
      <trkpt lat="48.04192" lon="-3.47952">
        <ele>162.7</ele>
        <time>2025-02-26T13:46:49Z</time>
      </trkpt>
      <trkpt lat="48.04191" lon="-3.47952">
        <ele>162.7</ele>
        <time>2025-02-26T13:46:50Z</time>
      </trkpt>
      <trkpt lat="48.0419" lon="-3.47951">
        <ele>162.6</ele>
        <time>2025-02-26T13:46:51Z</time>
      </trkpt>
      <trkpt lat="48.0419" lon="-3.47951">
        <ele>162.6</ele>
        <time>2025-02-26T13:46:52Z</time>
      </trkpt>
      <trkpt lat="48.04189" lon="-3.47951">
        <ele>162.8</ele>
        <time>2025-02-26T13:46:53Z</time>
      </trkpt>
      <trkpt lat="48.04188" lon="-3.47952">
        <ele>162.9</ele>
        <time>2025-02-26T13:46:54Z</time>
      </trkpt>
      <trkpt lat="48.04187" lon="-3.47951">
        <ele>162.9</ele>
        <time>2025-02-26T13:46:55Z</time>
      </trkpt>
      <trkpt lat="48.04186" lon="-3.47951">
        <ele>162.8</ele>
        <time>2025-02-26T13:46:56Z</time>
      </trkpt>
      <trkpt lat="48.04186" lon="-3.4795">
        <ele>162.6</ele>
        <time>2025-02-26T13:46:57Z</time>
      </trkpt>
      <trkpt lat="48.04185" lon="-3.4795">
        <ele>162.7</ele>
        <time>2025-02-26T13:46:58Z</time>
      </trkpt>
      <trkpt lat="48.04184" lon="-3.47951">
        <ele>162.8</ele>
        <time>2025-02-26T13:46:59Z</time>
      </trkpt>
      <trkpt lat="48.04183" lon="-3.4795">
        <ele>162.6</ele>
        <time>2025-02-26T13:47:00Z</time>
      </trkpt>
      <trkpt lat="48.04182" lon="-3.47949">
        <ele>162.3</ele>
        <time>2025-02-26T13:47:01Z</time>
      </trkpt>
      <trkpt lat="48.04182" lon="-3.47948">
        <ele>162.2</ele>
        <time>2025-02-26T13:47:02Z</time>
      </trkpt>
      <trkpt lat="48.04181" lon="-3.47947">
        <ele>162</ele>
        <time>2025-02-26T13:47:03Z</time>
      </trkpt>
      <trkpt lat="48.0418" lon="-3.47947">
        <ele>161.9</ele>
        <time>2025-02-26T13:47:04Z</time>
      </trkpt>
      <trkpt lat="48.04179" lon="-3.47946">
        <ele>161.8</ele>
        <time>2025-02-26T13:47:05Z</time>
      </trkpt>
      <trkpt lat="48.04179" lon="-3.47945">
        <ele>161.5</ele>
        <time>2025-02-26T13:47:06Z</time>
      </trkpt>
      <trkpt lat="48.04178" lon="-3.47944">
        <ele>161.3</ele>
        <time>2025-02-26T13:47:07Z</time>
      </trkpt>
      <trkpt lat="48.04177" lon="-3.47944">
        <ele>161.2</ele>
        <time>2025-02-26T13:47:08Z</time>
      </trkpt>
      <trkpt lat="48.04176" lon="-3.47944">
        <ele>161.4</ele>
        <time>2025-02-26T13:47:09Z</time>
      </trkpt>
      <trkpt lat="48.04175" lon="-3.47944">
        <ele>161.6</ele>
        <time>2025-02-26T13:47:10Z</time>
      </trkpt>
      <trkpt lat="48.04174" lon="-3.47944">
        <ele>161.8</ele>
        <time>2025-02-26T13:47:11Z</time>
      </trkpt>
      <trkpt lat="48.04174" lon="-3.47944">
        <ele>161.7</ele>
        <time>2025-02-26T13:47:12Z</time>
      </trkpt>
      <trkpt lat="48.04173" lon="-3.47943">
        <ele>161.4</ele>
        <time>2025-02-26T13:47:13Z</time>
      </trkpt>
      <trkpt lat="48.04173" lon="-3.47942">
        <ele>161.2</ele>
        <time>2025-02-26T13:47:14Z</time>
      </trkpt>
      <trkpt lat="48.04172" lon="-3.47942">
        <ele>161.3</ele>
        <time>2025-02-26T13:47:15Z</time>
      </trkpt>
      <trkpt lat="48.04171" lon="-3.47942">
        <ele>161.3</ele>
        <time>2025-02-26T13:47:16Z</time>
      </trkpt>
      <trkpt lat="48.0417" lon="-3.47942">
        <ele>161.6</ele>
        <time>2025-02-26T13:47:17Z</time>
      </trkpt>
      <trkpt lat="48.04169" lon="-3.47943">
        <ele>162.1</ele>
        <time>2025-02-26T13:47:18Z</time>
      </trkpt>
      <trkpt lat="48.04168" lon="-3.47944">
        <ele>162.6</ele>
        <time>2025-02-26T13:47:19Z</time>
      </trkpt>
      <trkpt lat="48.04168" lon="-3.47945">
        <ele>163</ele>
        <time>2025-02-26T13:47:20Z</time>
      </trkpt>
      <trkpt lat="48.04167" lon="-3.47945">
        <ele>163.2</ele>
        <time>2025-02-26T13:47:21Z</time>
      </trkpt>
      <trkpt lat="48.04166" lon="-3.47946">
        <ele>163.4</ele>
        <time>2025-02-26T13:47:22Z</time>
      </trkpt>
      <trkpt lat="48.04165" lon="-3.47947">
        <ele>163.7</ele>
        <time>2025-02-26T13:47:23Z</time>
      </trkpt>
      <trkpt lat="48.04164" lon="-3.47948">
        <ele>164</ele>
        <time>2025-02-26T13:47:24Z</time>
      </trkpt>
      <trkpt lat="48.04164" lon="-3.47949">
        <ele>164.3</ele>
        <time>2025-02-26T13:47:25Z</time>
      </trkpt>
      <trkpt lat="48.04163" lon="-3.47951">
        <ele>164.7</ele>
        <time>2025-02-26T13:47:26Z</time>
      </trkpt>
      <trkpt lat="48.04165" lon="-3.47951">
        <ele>164.7</ele>
        <time>2025-02-26T13:47:27Z</time>
      </trkpt>
      <trkpt lat="48.04165" lon="-3.47951">
        <ele>164.7</ele>
        <time>2025-02-26T13:47:28Z</time>
      </trkpt>
      <trkpt lat="48.04165" lon="-3.47951">
        <ele>164.7</ele>
        <time>2025-02-26T13:47:29Z</time>
      </trkpt>
      <trkpt lat="48.04165" lon="-3.47951">
        <ele>164.7</ele>
        <time>2025-02-26T13:47:30Z</time>
      </trkpt>
      <trkpt lat="48.04165" lon="-3.47951">
        <ele>164.7</ele>
        <time>2025-02-26T13:47:31Z</time>
      </trkpt>
      <trkpt lat="48.04165" lon="-3.47954">
        <ele>165.4</ele>
        <time>2025-02-26T13:47:32Z</time>
      </trkpt>
      <trkpt lat="48.04165" lon="-3.47955">
        <ele>165.6</ele>
        <time>2025-02-26T13:47:33Z</time>
      </trkpt>
      <trkpt lat="48.04165" lon="-3.47955">
        <ele>165.5</ele>
        <time>2025-02-26T13:47:34Z</time>
      </trkpt>
      <trkpt lat="48.04165" lon="-3.47954">
        <ele>165.4</ele>
        <time>2025-02-26T13:47:35Z</time>
      </trkpt>
      <trkpt lat="48.04165" lon="-3.47954">
        <ele>165.4</ele>
        <time>2025-02-26T13:47:36Z</time>
      </trkpt>
      <trkpt lat="48.04165" lon="-3.47953">
        <ele>165.2</ele>
        <time>2025-02-26T13:47:37Z</time>
      </trkpt>
      <trkpt lat="48.04165" lon="-3.47953">
        <ele>165.2</ele>
        <time>2025-02-26T13:47:38Z</time>
      </trkpt>
      <trkpt lat="48.04165" lon="-3.47953">
        <ele>165.2</ele>
        <time>2025-02-26T13:47:39Z</time>
      </trkpt>
      <trkpt lat="48.04165" lon="-3.47953">
        <ele>165.2</ele>
        <time>2025-02-26T13:47:40Z</time>
      </trkpt>
      <trkpt lat="48.04165" lon="-3.47953">
        <ele>165.2</ele>
        <time>2025-02-26T13:47:41Z</time>
      </trkpt>
      <trkpt lat="48.04165" lon="-3.47953">
        <ele>165.2</ele>
        <time>2025-02-26T13:47:42Z</time>
      </trkpt>
      <trkpt lat="48.04165" lon="-3.47953">
        <ele>165.2</ele>
        <time>2025-02-26T13:47:43Z</time>
      </trkpt>
      <trkpt lat="48.04164" lon="-3.47953">
        <ele>165.2</ele>
        <time>2025-02-26T13:47:44Z</time>
      </trkpt>
      <trkpt lat="48.04163" lon="-3.47953">
        <ele>165.1</ele>
        <time>2025-02-26T13:47:45Z</time>
      </trkpt>
      <trkpt lat="48.04162" lon="-3.47952">
        <ele>164.8</ele>
        <time>2025-02-26T13:47:46Z</time>
      </trkpt>
      <trkpt lat="48.04161" lon="-3.4795">
        <ele>164.6</ele>
        <time>2025-02-26T13:47:47Z</time>
      </trkpt>
      <trkpt lat="48.0416" lon="-3.4795">
        <ele>164.5</ele>
        <time>2025-02-26T13:47:48Z</time>
      </trkpt>
      <trkpt lat="48.0416" lon="-3.4795">
        <ele>164.5</ele>
        <time>2025-02-26T13:47:49Z</time>
      </trkpt>
      <trkpt lat="48.0416" lon="-3.4795">
        <ele>164.5</ele>
        <time>2025-02-26T13:47:50Z</time>
      </trkpt>
      <trkpt lat="48.0416" lon="-3.4795">
        <ele>164.5</ele>
        <time>2025-02-26T13:47:51Z</time>
      </trkpt>
      <trkpt lat="48.0416" lon="-3.4795">
        <ele>164.5</ele>
        <time>2025-02-26T13:47:52Z</time>
      </trkpt>
      <trkpt lat="48.0416" lon="-3.4795">
        <ele>164.5</ele>
        <time>2025-02-26T13:47:53Z</time>
      </trkpt>
      <trkpt lat="48.0416" lon="-3.4795">
        <ele>164.5</ele>
        <time>2025-02-26T13:47:54Z</time>
      </trkpt>
      <trkpt lat="48.0416" lon="-3.4795">
        <ele>164.5</ele>
        <time>2025-02-26T13:47:55Z</time>
      </trkpt>
      <trkpt lat="48.0416" lon="-3.4795">
        <ele>164.5</ele>
        <time>2025-02-26T13:47:56Z</time>
      </trkpt>
      <trkpt lat="48.04159" lon="-3.4795">
        <ele>164.4</ele>
        <time>2025-02-26T13:47:57Z</time>
      </trkpt>
      <trkpt lat="48.04159" lon="-3.47949">
        <ele>164.3</ele>
        <time>2025-02-26T13:47:58Z</time>
      </trkpt>
      <trkpt lat="48.04158" lon="-3.47948">
        <ele>164.1</ele>
        <time>2025-02-26T13:47:59Z</time>
      </trkpt>
      <trkpt lat="48.04157" lon="-3.47947">
        <ele>163.8</ele>
        <time>2025-02-26T13:48:00Z</time>
      </trkpt>
      <trkpt lat="48.04156" lon="-3.47946">
        <ele>163.7</ele>
        <time>2025-02-26T13:48:01Z</time>
      </trkpt>
      <trkpt lat="48.04156" lon="-3.47944">
        <ele>163.2</ele>
        <time>2025-02-26T13:48:02Z</time>
      </trkpt>
      <trkpt lat="48.04155" lon="-3.47944">
        <ele>163.3</ele>
        <time>2025-02-26T13:48:03Z</time>
      </trkpt>
      <trkpt lat="48.04155" lon="-3.47943">
        <ele>163</ele>
        <time>2025-02-26T13:48:04Z</time>
      </trkpt>
      <trkpt lat="48.04155" lon="-3.47943">
        <ele>162.9</ele>
        <time>2025-02-26T13:48:05Z</time>
      </trkpt>
      <trkpt lat="48.04155" lon="-3.47944">
        <ele>163.2</ele>
        <time>2025-02-26T13:48:06Z</time>
      </trkpt>
      <trkpt lat="48.04154" lon="-3.47945">
        <ele>163.6</ele>
        <time>2025-02-26T13:48:07Z</time>
      </trkpt>
      <trkpt lat="48.04152" lon="-3.47945">
        <ele>163.7</ele>
        <time>2025-02-26T13:48:08Z</time>
      </trkpt>
      <trkpt lat="48.04151" lon="-3.47945">
        <ele>163.6</ele>
        <time>2025-02-26T13:48:09Z</time>
      </trkpt>
      <trkpt lat="48.0415" lon="-3.47943">
        <ele>163.2</ele>
        <time>2025-02-26T13:48:10Z</time>
      </trkpt>
      <trkpt lat="48.04148" lon="-3.47942">
        <ele>162.8</ele>
        <time>2025-02-26T13:48:11Z</time>
      </trkpt>
      <trkpt lat="48.04147" lon="-3.47941">
        <ele>162.6</ele>
        <time>2025-02-26T13:48:12Z</time>
      </trkpt>
      <trkpt lat="48.04145" lon="-3.47941">
        <ele>162.7</ele>
        <time>2025-02-26T13:48:13Z</time>
      </trkpt>
      <trkpt lat="48.04146" lon="-3.47943">
        <ele>163.1</ele>
        <time>2025-02-26T13:48:14Z</time>
      </trkpt>
      <trkpt lat="48.04145" lon="-3.47942">
        <ele>162.8</ele>
        <time>2025-02-26T13:48:15Z</time>
      </trkpt>
      <trkpt lat="48.04145" lon="-3.4794">
        <ele>162.4</ele>
        <time>2025-02-26T13:48:16Z</time>
      </trkpt>
      <trkpt lat="48.04144" lon="-3.47939">
        <ele>161.8</ele>
        <time>2025-02-26T13:48:17Z</time>
      </trkpt>
      <trkpt lat="48.04144" lon="-3.47937">
        <ele>161.5</ele>
        <time>2025-02-26T13:48:18Z</time>
      </trkpt>
      <trkpt lat="48.04143" lon="-3.47936">
        <ele>161.1</ele>
        <time>2025-02-26T13:48:19Z</time>
      </trkpt>
      <trkpt lat="48.04142" lon="-3.47935">
        <ele>160.8</ele>
        <time>2025-02-26T13:48:20Z</time>
      </trkpt>
      <trkpt lat="48.04141" lon="-3.47935">
        <ele>160.6</ele>
        <time>2025-02-26T13:48:21Z</time>
      </trkpt>
      <trkpt lat="48.04141" lon="-3.47934">
        <ele>160.4</ele>
        <time>2025-02-26T13:48:22Z</time>
      </trkpt>
      <trkpt lat="48.0414" lon="-3.47934">
        <ele>160.6</ele>
        <time>2025-02-26T13:48:23Z</time>
      </trkpt>
      <trkpt lat="48.04139" lon="-3.47934">
        <ele>160.6</ele>
        <time>2025-02-26T13:48:24Z</time>
      </trkpt>
      <trkpt lat="48.04138" lon="-3.47934">
        <ele>160.5</ele>
        <time>2025-02-26T13:48:25Z</time>
      </trkpt>
      <trkpt lat="48.04137" lon="-3.47932">
        <ele>159.7</ele>
        <time>2025-02-26T13:48:26Z</time>
      </trkpt>
      <trkpt lat="48.04137" lon="-3.4793">
        <ele>159.2</ele>
        <time>2025-02-26T13:48:27Z</time>
      </trkpt>
      <trkpt lat="48.04137" lon="-3.47929">
        <ele>158.6</ele>
        <time>2025-02-26T13:48:28Z</time>
      </trkpt>
      <trkpt lat="48.04136" lon="-3.47928">
        <ele>158.2</ele>
        <time>2025-02-26T13:48:29Z</time>
      </trkpt>
      <trkpt lat="48.04135" lon="-3.47927">
        <ele>157.8</ele>
        <time>2025-02-26T13:48:30Z</time>
      </trkpt>
      <trkpt lat="48.04135" lon="-3.47926">
        <ele>157.6</ele>
        <time>2025-02-26T13:48:31Z</time>
      </trkpt>
      <trkpt lat="48.04135" lon="-3.47926">
        <ele>157.4</ele>
        <time>2025-02-26T13:48:32Z</time>
      </trkpt>
      <trkpt lat="48.04134" lon="-3.47925">
        <ele>157.2</ele>
        <time>2025-02-26T13:48:33Z</time>
      </trkpt>
      <trkpt lat="48.04134" lon="-3.47925">
        <ele>157.3</ele>
        <time>2025-02-26T13:48:34Z</time>
      </trkpt>
      <trkpt lat="48.04134" lon="-3.47926">
        <ele>157.3</ele>
        <time>2025-02-26T13:48:35Z</time>
      </trkpt>
      <trkpt lat="48.04133" lon="-3.47925">
        <ele>157.2</ele>
        <time>2025-02-26T13:48:36Z</time>
      </trkpt>
      <trkpt lat="48.04133" lon="-3.47925">
        <ele>157.1</ele>
        <time>2025-02-26T13:48:37Z</time>
      </trkpt>
      <trkpt lat="48.04132" lon="-3.47925">
        <ele>157</ele>
        <time>2025-02-26T13:48:38Z</time>
      </trkpt>
      <trkpt lat="48.04131" lon="-3.47925">
        <ele>156.9</ele>
        <time>2025-02-26T13:48:39Z</time>
      </trkpt>
      <trkpt lat="48.0413" lon="-3.47925">
        <ele>156.7</ele>
        <time>2025-02-26T13:48:40Z</time>
      </trkpt>
      <trkpt lat="48.04129" lon="-3.47924">
        <ele>156.4</ele>
        <time>2025-02-26T13:48:41Z</time>
      </trkpt>
      <trkpt lat="48.04128" lon="-3.47923">
        <ele>156.1</ele>
        <time>2025-02-26T13:48:42Z</time>
      </trkpt>
      <trkpt lat="48.04127" lon="-3.47922">
        <ele>155.6</ele>
        <time>2025-02-26T13:48:43Z</time>
      </trkpt>
      <trkpt lat="48.04127" lon="-3.4792">
        <ele>155.1</ele>
        <time>2025-02-26T13:48:44Z</time>
      </trkpt>
      <trkpt lat="48.04126" lon="-3.4792">
        <ele>154.9</ele>
        <time>2025-02-26T13:48:45Z</time>
      </trkpt>
      <trkpt lat="48.04126" lon="-3.47919">
        <ele>154.7</ele>
        <time>2025-02-26T13:48:46Z</time>
      </trkpt>
      <trkpt lat="48.04125" lon="-3.47919">
        <ele>154.6</ele>
        <time>2025-02-26T13:48:47Z</time>
      </trkpt>
      <trkpt lat="48.04125" lon="-3.47918">
        <ele>154.2</ele>
        <time>2025-02-26T13:48:48Z</time>
      </trkpt>
      <trkpt lat="48.04126" lon="-3.47917">
        <ele>154</ele>
        <time>2025-02-26T13:48:49Z</time>
      </trkpt>
      <trkpt lat="48.04126" lon="-3.47916">
        <ele>153.9</ele>
        <time>2025-02-26T13:48:50Z</time>
      </trkpt>
      <trkpt lat="48.04127" lon="-3.47915">
        <ele>153.6</ele>
        <time>2025-02-26T13:48:51Z</time>
      </trkpt>
      <trkpt lat="48.04126" lon="-3.47915">
        <ele>153.4</ele>
        <time>2025-02-26T13:48:52Z</time>
      </trkpt>
      <trkpt lat="48.04126" lon="-3.47914">
        <ele>153.1</ele>
        <time>2025-02-26T13:48:53Z</time>
      </trkpt>
      <trkpt lat="48.04125" lon="-3.47913">
        <ele>152.9</ele>
        <time>2025-02-26T13:48:54Z</time>
      </trkpt>
      <trkpt lat="48.04124" lon="-3.47913">
        <ele>152.8</ele>
        <time>2025-02-26T13:48:55Z</time>
      </trkpt>
      <trkpt lat="48.04123" lon="-3.47912">
        <ele>152.3</ele>
        <time>2025-02-26T13:48:56Z</time>
      </trkpt>
      <trkpt lat="48.04123" lon="-3.47911">
        <ele>152.2</ele>
        <time>2025-02-26T13:48:57Z</time>
      </trkpt>
      <trkpt lat="48.04123" lon="-3.47913">
        <ele>152.6</ele>
        <time>2025-02-26T13:48:58Z</time>
      </trkpt>
      <trkpt lat="48.04122" lon="-3.47913">
        <ele>152.8</ele>
        <time>2025-02-26T13:48:59Z</time>
      </trkpt>
      <trkpt lat="48.04121" lon="-3.47913">
        <ele>152.7</ele>
        <time>2025-02-26T13:49:00Z</time>
      </trkpt>
      <trkpt lat="48.0412" lon="-3.47913">
        <ele>152.5</ele>
        <time>2025-02-26T13:49:01Z</time>
      </trkpt>
      <trkpt lat="48.0412" lon="-3.47912">
        <ele>152.3</ele>
        <time>2025-02-26T13:49:02Z</time>
      </trkpt>
      <trkpt lat="48.04119" lon="-3.47911">
        <ele>151.9</ele>
        <time>2025-02-26T13:49:03Z</time>
      </trkpt>
      <trkpt lat="48.04118" lon="-3.47911">
        <ele>151.7</ele>
        <time>2025-02-26T13:49:04Z</time>
      </trkpt>
      <trkpt lat="48.04118" lon="-3.47911">
        <ele>151.7</ele>
        <time>2025-02-26T13:49:05Z</time>
      </trkpt>
      <trkpt lat="48.04116" lon="-3.4791">
        <ele>151.5</ele>
        <time>2025-02-26T13:49:06Z</time>
      </trkpt>
      <trkpt lat="48.04115" lon="-3.4791">
        <ele>151.2</ele>
        <time>2025-02-26T13:49:07Z</time>
      </trkpt>
      <trkpt lat="48.04115" lon="-3.47908">
        <ele>150.8</ele>
        <time>2025-02-26T13:49:08Z</time>
      </trkpt>
      <trkpt lat="48.04115" lon="-3.47909">
        <ele>150.9</ele>
        <time>2025-02-26T13:49:09Z</time>
      </trkpt>
      <trkpt lat="48.04114" lon="-3.47909">
        <ele>150.9</ele>
        <time>2025-02-26T13:49:10Z</time>
      </trkpt>
      <trkpt lat="48.04113" lon="-3.47909">
        <ele>151</ele>
        <time>2025-02-26T13:49:11Z</time>
      </trkpt>
      <trkpt lat="48.04112" lon="-3.4791">
        <ele>151</ele>
        <time>2025-02-26T13:49:12Z</time>
      </trkpt>
      <trkpt lat="48.04111" lon="-3.47911">
        <ele>151.2</ele>
        <time>2025-02-26T13:49:13Z</time>
      </trkpt>
      <trkpt lat="48.0411" lon="-3.47911">
        <ele>151.1</ele>
        <time>2025-02-26T13:49:14Z</time>
      </trkpt>
      <trkpt lat="48.04109" lon="-3.4791">
        <ele>150.9</ele>
        <time>2025-02-26T13:49:15Z</time>
      </trkpt>
      <trkpt lat="48.04108" lon="-3.4791">
        <ele>150.5</ele>
        <time>2025-02-26T13:49:16Z</time>
      </trkpt>
      <trkpt lat="48.04107" lon="-3.47909">
        <ele>150.3</ele>
        <time>2025-02-26T13:49:17Z</time>
      </trkpt>
      <trkpt lat="48.04106" lon="-3.47909">
        <ele>150.3</ele>
        <time>2025-02-26T13:49:18Z</time>
      </trkpt>
      <trkpt lat="48.04106" lon="-3.47909">
        <ele>150.1</ele>
        <time>2025-02-26T13:49:19Z</time>
      </trkpt>
      <trkpt lat="48.04105" lon="-3.47908">
        <ele>149.8</ele>
        <time>2025-02-26T13:49:20Z</time>
      </trkpt>
      <trkpt lat="48.04106" lon="-3.47908">
        <ele>149.7</ele>
        <time>2025-02-26T13:49:21Z</time>
      </trkpt>
      <trkpt lat="48.04104" lon="-3.47907">
        <ele>149.3</ele>
        <time>2025-02-26T13:49:22Z</time>
      </trkpt>
      <trkpt lat="48.04103" lon="-3.47905">
        <ele>148.8</ele>
        <time>2025-02-26T13:49:23Z</time>
      </trkpt>
      <trkpt lat="48.04103" lon="-3.47904">
        <ele>148.3</ele>
        <time>2025-02-26T13:49:24Z</time>
      </trkpt>
      <trkpt lat="48.04102" lon="-3.47903">
        <ele>147.8</ele>
        <time>2025-02-26T13:49:25Z</time>
      </trkpt>
      <trkpt lat="48.04101" lon="-3.47902">
        <ele>147.4</ele>
        <time>2025-02-26T13:49:26Z</time>
      </trkpt>
      <trkpt lat="48.04101" lon="-3.47901">
        <ele>147.1</ele>
        <time>2025-02-26T13:49:27Z</time>
      </trkpt>
      <trkpt lat="48.041" lon="-3.479">
        <ele>146.8</ele>
        <time>2025-02-26T13:49:28Z</time>
      </trkpt>
      <trkpt lat="48.04099" lon="-3.47899">
        <ele>146.5</ele>
        <time>2025-02-26T13:49:29Z</time>
      </trkpt>
      <trkpt lat="48.04099" lon="-3.47899">
        <ele>146.3</ele>
        <time>2025-02-26T13:49:30Z</time>
      </trkpt>
      <trkpt lat="48.04098" lon="-3.47899">
        <ele>146.4</ele>
        <time>2025-02-26T13:49:31Z</time>
      </trkpt>
      <trkpt lat="48.04098" lon="-3.479">
        <ele>146.5</ele>
        <time>2025-02-26T13:49:32Z</time>
      </trkpt>
      <trkpt lat="48.04097" lon="-3.47901">
        <ele>146.6</ele>
        <time>2025-02-26T13:49:33Z</time>
      </trkpt>
      <trkpt lat="48.04096" lon="-3.479">
        <ele>146.5</ele>
        <time>2025-02-26T13:49:34Z</time>
      </trkpt>
      <trkpt lat="48.04096" lon="-3.47898">
        <ele>145.8</ele>
        <time>2025-02-26T13:49:35Z</time>
      </trkpt>
      <trkpt lat="48.04096" lon="-3.47896">
        <ele>145.3</ele>
        <time>2025-02-26T13:49:36Z</time>
      </trkpt>
      <trkpt lat="48.04095" lon="-3.47895">
        <ele>144.8</ele>
        <time>2025-02-26T13:49:37Z</time>
      </trkpt>
      <trkpt lat="48.04095" lon="-3.47894">
        <ele>144.7</ele>
        <time>2025-02-26T13:49:38Z</time>
      </trkpt>
      <trkpt lat="48.04094" lon="-3.47894">
        <ele>144.6</ele>
        <time>2025-02-26T13:49:39Z</time>
      </trkpt>
      <trkpt lat="48.04093" lon="-3.47894">
        <ele>144.3</ele>
        <time>2025-02-26T13:49:40Z</time>
      </trkpt>
      <trkpt lat="48.04092" lon="-3.47894">
        <ele>144.2</ele>
        <time>2025-02-26T13:49:41Z</time>
      </trkpt>
      <trkpt lat="48.04091" lon="-3.47893">
        <ele>143.9</ele>
        <time>2025-02-26T13:49:42Z</time>
      </trkpt>
      <trkpt lat="48.04091" lon="-3.47892">
        <ele>143.7</ele>
        <time>2025-02-26T13:49:43Z</time>
      </trkpt>
      <trkpt lat="48.0409" lon="-3.47892">
        <ele>143.5</ele>
        <time>2025-02-26T13:49:44Z</time>
      </trkpt>
      <trkpt lat="48.0409" lon="-3.47892">
        <ele>143.5</ele>
        <time>2025-02-26T13:49:45Z</time>
      </trkpt>
      <trkpt lat="48.04089" lon="-3.47892">
        <ele>143.4</ele>
        <time>2025-02-26T13:49:46Z</time>
      </trkpt>
      <trkpt lat="48.04089" lon="-3.47891">
        <ele>143.2</ele>
        <time>2025-02-26T13:49:47Z</time>
      </trkpt>
      <trkpt lat="48.04089" lon="-3.47891">
        <ele>143.1</ele>
        <time>2025-02-26T13:49:48Z</time>
      </trkpt>
      <trkpt lat="48.04089" lon="-3.47892">
        <ele>143.3</ele>
        <time>2025-02-26T13:49:49Z</time>
      </trkpt>
      <trkpt lat="48.04086" lon="-3.47894">
        <ele>143.6</ele>
        <time>2025-02-26T13:49:50Z</time>
      </trkpt>
      <trkpt lat="48.04084" lon="-3.47896">
        <ele>144</ele>
        <time>2025-02-26T13:49:51Z</time>
      </trkpt>
      <trkpt lat="48.04084" lon="-3.47893">
        <ele>143</ele>
        <time>2025-02-26T13:49:52Z</time>
      </trkpt>
      <trkpt lat="48.04084" lon="-3.47891">
        <ele>142.6</ele>
        <time>2025-02-26T13:49:53Z</time>
      </trkpt>
      <trkpt lat="48.04084" lon="-3.4789">
        <ele>142.3</ele>
        <time>2025-02-26T13:49:54Z</time>
      </trkpt>
      <trkpt lat="48.04083" lon="-3.4789">
        <ele>142.2</ele>
        <time>2025-02-26T13:49:55Z</time>
      </trkpt>
      <trkpt lat="48.04082" lon="-3.4789">
        <ele>142.1</ele>
        <time>2025-02-26T13:49:56Z</time>
      </trkpt>
      <trkpt lat="48.04082" lon="-3.47889">
        <ele>141.9</ele>
        <time>2025-02-26T13:49:57Z</time>
      </trkpt>
      <trkpt lat="48.04081" lon="-3.47889">
        <ele>141.7</ele>
        <time>2025-02-26T13:49:58Z</time>
      </trkpt>
      <trkpt lat="48.04081" lon="-3.47889">
        <ele>141.7</ele>
        <time>2025-02-26T13:49:59Z</time>
      </trkpt>
      <trkpt lat="48.04081" lon="-3.47888">
        <ele>141.3</ele>
        <time>2025-02-26T13:50:00Z</time>
      </trkpt>
      <trkpt lat="48.0408" lon="-3.47887">
        <ele>141</ele>
        <time>2025-02-26T13:50:01Z</time>
      </trkpt>
      <trkpt lat="48.0408" lon="-3.47888">
        <ele>141.2</ele>
        <time>2025-02-26T13:50:02Z</time>
      </trkpt>
      <trkpt lat="48.04079" lon="-3.47889">
        <ele>141.4</ele>
        <time>2025-02-26T13:50:03Z</time>
      </trkpt>
      <trkpt lat="48.04079" lon="-3.47889">
        <ele>141.4</ele>
        <time>2025-02-26T13:50:04Z</time>
      </trkpt>
      <trkpt lat="48.04079" lon="-3.47889">
        <ele>141.2</ele>
        <time>2025-02-26T13:50:05Z</time>
      </trkpt>
      <trkpt lat="48.04078" lon="-3.47888">
        <ele>141.1</ele>
        <time>2025-02-26T13:50:06Z</time>
      </trkpt>
      <trkpt lat="48.04078" lon="-3.47888">
        <ele>141</ele>
        <time>2025-02-26T13:50:07Z</time>
      </trkpt>
      <trkpt lat="48.04077" lon="-3.47888">
        <ele>141</ele>
        <time>2025-02-26T13:50:08Z</time>
      </trkpt>
      <trkpt lat="48.04076" lon="-3.47889">
        <ele>140.9</ele>
        <time>2025-02-26T13:50:09Z</time>
      </trkpt>
      <trkpt lat="48.04075" lon="-3.47889">
        <ele>140.8</ele>
        <time>2025-02-26T13:50:10Z</time>
      </trkpt>
      <trkpt lat="48.04075" lon="-3.47888">
        <ele>140.6</ele>
        <time>2025-02-26T13:50:11Z</time>
      </trkpt>
      <trkpt lat="48.04074" lon="-3.47888">
        <ele>140.5</ele>
        <time>2025-02-26T13:50:12Z</time>
      </trkpt>
      <trkpt lat="48.04073" lon="-3.47888">
        <ele>140.3</ele>
        <time>2025-02-26T13:50:13Z</time>
      </trkpt>
      <trkpt lat="48.04072" lon="-3.47889">
        <ele>140.5</ele>
        <time>2025-02-26T13:50:14Z</time>
      </trkpt>
      <trkpt lat="48.04071" lon="-3.47888">
        <ele>140.1</ele>
        <time>2025-02-26T13:50:15Z</time>
      </trkpt>
      <trkpt lat="48.04071" lon="-3.47888">
        <ele>139.9</ele>
        <time>2025-02-26T13:50:16Z</time>
      </trkpt>
      <trkpt lat="48.0407" lon="-3.47887">
        <ele>139.7</ele>
        <time>2025-02-26T13:50:17Z</time>
      </trkpt>
      <trkpt lat="48.0407" lon="-3.47887">
        <ele>139.6</ele>
        <time>2025-02-26T13:50:18Z</time>
      </trkpt>
      <trkpt lat="48.04069" lon="-3.47887">
        <ele>139.5</ele>
        <time>2025-02-26T13:50:19Z</time>
      </trkpt>
      <trkpt lat="48.04068" lon="-3.47887">
        <ele>139.3</ele>
        <time>2025-02-26T13:50:20Z</time>
      </trkpt>
      <trkpt lat="48.04068" lon="-3.47886">
        <ele>139</ele>
        <time>2025-02-26T13:50:21Z</time>
      </trkpt>
      <trkpt lat="48.04067" lon="-3.47885">
        <ele>138.7</ele>
        <time>2025-02-26T13:50:22Z</time>
      </trkpt>
      <trkpt lat="48.04067" lon="-3.47884">
        <ele>138.5</ele>
        <time>2025-02-26T13:50:23Z</time>
      </trkpt>
      <trkpt lat="48.04066" lon="-3.47884">
        <ele>138.3</ele>
        <time>2025-02-26T13:50:24Z</time>
      </trkpt>
      <trkpt lat="48.04065" lon="-3.47884">
        <ele>138.2</ele>
        <time>2025-02-26T13:50:25Z</time>
      </trkpt>
      <trkpt lat="48.04068" lon="-3.47884">
        <ele>138.6</ele>
        <time>2025-02-26T13:50:26Z</time>
      </trkpt>
      <trkpt lat="48.04067" lon="-3.47887">
        <ele>139.2</ele>
        <time>2025-02-26T13:50:27Z</time>
      </trkpt>
      <trkpt lat="48.04067" lon="-3.47888">
        <ele>139.5</ele>
        <time>2025-02-26T13:50:28Z</time>
      </trkpt>
      <trkpt lat="48.04067" lon="-3.47889">
        <ele>139.6</ele>
        <time>2025-02-26T13:50:29Z</time>
      </trkpt>
      <trkpt lat="48.04067" lon="-3.47889">
        <ele>139.6</ele>
        <time>2025-02-26T13:50:30Z</time>
      </trkpt>
      <trkpt lat="48.04067" lon="-3.47889">
        <ele>139.6</ele>
        <time>2025-02-26T13:50:31Z</time>
      </trkpt>
      <trkpt lat="48.04067" lon="-3.47889">
        <ele>139.7</ele>
        <time>2025-02-26T13:50:32Z</time>
      </trkpt>
      <trkpt lat="48.04067" lon="-3.47889">
        <ele>139.7</ele>
        <time>2025-02-26T13:50:33Z</time>
      </trkpt>
      <trkpt lat="48.04067" lon="-3.47889">
        <ele>139.7</ele>
        <time>2025-02-26T13:50:34Z</time>
      </trkpt>
      <trkpt lat="48.04067" lon="-3.47889">
        <ele>139.7</ele>
        <time>2025-02-26T13:50:35Z</time>
      </trkpt>
      <trkpt lat="48.04067" lon="-3.47889">
        <ele>139.6</ele>
        <time>2025-02-26T13:50:36Z</time>
      </trkpt>
      <trkpt lat="48.04068" lon="-3.47888">
        <ele>139.6</ele>
        <time>2025-02-26T13:50:37Z</time>
      </trkpt>
      <trkpt lat="48.04067" lon="-3.47889">
        <ele>139.6</ele>
        <time>2025-02-26T13:50:38Z</time>
      </trkpt>
      <trkpt lat="48.04068" lon="-3.47889">
        <ele>139.7</ele>
        <time>2025-02-26T13:50:39Z</time>
      </trkpt>
      <trkpt lat="48.04067" lon="-3.47888">
        <ele>139.3</ele>
        <time>2025-02-26T13:50:40Z</time>
      </trkpt>
      <trkpt lat="48.04066" lon="-3.47887">
        <ele>138.9</ele>
        <time>2025-02-26T13:50:41Z</time>
      </trkpt>
      <trkpt lat="48.04065" lon="-3.47886">
        <ele>138.6</ele>
        <time>2025-02-26T13:50:42Z</time>
      </trkpt>
      <trkpt lat="48.04064" lon="-3.47886">
        <ele>138.4</ele>
        <time>2025-02-26T13:50:43Z</time>
      </trkpt>
      <trkpt lat="48.04063" lon="-3.47885">
        <ele>138.3</ele>
        <time>2025-02-26T13:50:44Z</time>
      </trkpt>
      <trkpt lat="48.04063" lon="-3.47884">
        <ele>138</ele>
        <time>2025-02-26T13:50:45Z</time>
      </trkpt>
      <trkpt lat="48.04062" lon="-3.47884">
        <ele>137.9</ele>
        <time>2025-02-26T13:50:46Z</time>
      </trkpt>
      <trkpt lat="48.04061" lon="-3.47884">
        <ele>137.8</ele>
        <time>2025-02-26T13:50:47Z</time>
      </trkpt>
      <trkpt lat="48.0406" lon="-3.47884">
        <ele>137.7</ele>
        <time>2025-02-26T13:50:48Z</time>
      </trkpt>
      <trkpt lat="48.04059" lon="-3.47884">
        <ele>137.5</ele>
        <time>2025-02-26T13:50:49Z</time>
      </trkpt>
      <trkpt lat="48.04059" lon="-3.47884">
        <ele>137.3</ele>
        <time>2025-02-26T13:50:50Z</time>
      </trkpt>
      <trkpt lat="48.04058" lon="-3.47883">
        <ele>137</ele>
        <time>2025-02-26T13:50:51Z</time>
      </trkpt>
      <trkpt lat="48.04057" lon="-3.47882">
        <ele>136.7</ele>
        <time>2025-02-26T13:50:52Z</time>
      </trkpt>
      <trkpt lat="48.04056" lon="-3.47881">
        <ele>136.5</ele>
        <time>2025-02-26T13:50:53Z</time>
      </trkpt>
      <trkpt lat="48.04056" lon="-3.4788">
        <ele>136.2</ele>
        <time>2025-02-26T13:50:54Z</time>
      </trkpt>
      <trkpt lat="48.04055" lon="-3.47879">
        <ele>135.9</ele>
        <time>2025-02-26T13:50:55Z</time>
      </trkpt>
      <trkpt lat="48.04055" lon="-3.47879">
        <ele>135.7</ele>
        <time>2025-02-26T13:50:56Z</time>
      </trkpt>
      <trkpt lat="48.04054" lon="-3.47879">
        <ele>135.6</ele>
        <time>2025-02-26T13:50:57Z</time>
      </trkpt>
      <trkpt lat="48.04053" lon="-3.47879">
        <ele>135.3</ele>
        <time>2025-02-26T13:50:58Z</time>
      </trkpt>
      <trkpt lat="48.04052" lon="-3.47878">
        <ele>135.1</ele>
        <time>2025-02-26T13:50:59Z</time>
      </trkpt>
      <trkpt lat="48.04051" lon="-3.47878">
        <ele>135</ele>
        <time>2025-02-26T13:51:00Z</time>
      </trkpt>
      <trkpt lat="48.04051" lon="-3.47877">
        <ele>134.6</ele>
        <time>2025-02-26T13:51:01Z</time>
      </trkpt>
      <trkpt lat="48.0405" lon="-3.47876">
        <ele>134.4</ele>
        <time>2025-02-26T13:51:02Z</time>
      </trkpt>
      <trkpt lat="48.0405" lon="-3.47875">
        <ele>134.2</ele>
        <time>2025-02-26T13:51:03Z</time>
      </trkpt>
      <trkpt lat="48.04049" lon="-3.47875">
        <ele>134</ele>
        <time>2025-02-26T13:51:04Z</time>
      </trkpt>
      <trkpt lat="48.04048" lon="-3.47876">
        <ele>134</ele>
        <time>2025-02-26T13:51:05Z</time>
      </trkpt>
      <trkpt lat="48.04047" lon="-3.47876">
        <ele>133.8</ele>
        <time>2025-02-26T13:51:06Z</time>
      </trkpt>
      <trkpt lat="48.04047" lon="-3.47875">
        <ele>133.6</ele>
        <time>2025-02-26T13:51:07Z</time>
      </trkpt>
      <trkpt lat="48.04046" lon="-3.47875">
        <ele>133.3</ele>
        <time>2025-02-26T13:51:08Z</time>
      </trkpt>
      <trkpt lat="48.04045" lon="-3.47874">
        <ele>133.2</ele>
        <time>2025-02-26T13:51:09Z</time>
      </trkpt>
      <trkpt lat="48.04045" lon="-3.47874">
        <ele>133.1</ele>
        <time>2025-02-26T13:51:10Z</time>
      </trkpt>
      <trkpt lat="48.04044" lon="-3.47875">
        <ele>133.1</ele>
        <time>2025-02-26T13:51:11Z</time>
      </trkpt>
      <trkpt lat="48.04043" lon="-3.47875">
        <ele>133</ele>
        <time>2025-02-26T13:51:12Z</time>
      </trkpt>
      <trkpt lat="48.04043" lon="-3.47875">
        <ele>132.9</ele>
        <time>2025-02-26T13:51:13Z</time>
      </trkpt>
      <trkpt lat="48.04043" lon="-3.47875">
        <ele>132.9</ele>
        <time>2025-02-26T13:51:14Z</time>
      </trkpt>
      <trkpt lat="48.04042" lon="-3.47875">
        <ele>132.8</ele>
        <time>2025-02-26T13:51:15Z</time>
      </trkpt>
      <trkpt lat="48.04041" lon="-3.47875">
        <ele>132.6</ele>
        <time>2025-02-26T13:51:16Z</time>
      </trkpt>
      <trkpt lat="48.0404" lon="-3.47875">
        <ele>132.4</ele>
        <time>2025-02-26T13:51:17Z</time>
      </trkpt>
      <trkpt lat="48.0404" lon="-3.47873">
        <ele>132.1</ele>
        <time>2025-02-26T13:51:18Z</time>
      </trkpt>
      <trkpt lat="48.04039" lon="-3.47873">
        <ele>131.9</ele>
        <time>2025-02-26T13:51:19Z</time>
      </trkpt>
      <trkpt lat="48.04039" lon="-3.47872">
        <ele>131.6</ele>
        <time>2025-02-26T13:51:20Z</time>
      </trkpt>
      <trkpt lat="48.04039" lon="-3.47869">
        <ele>131.2</ele>
        <time>2025-02-26T13:51:21Z</time>
      </trkpt>
      <trkpt lat="48.04038" lon="-3.47869">
        <ele>130.9</ele>
        <time>2025-02-26T13:51:22Z</time>
      </trkpt>
      <trkpt lat="48.04037" lon="-3.47868">
        <ele>130.7</ele>
        <time>2025-02-26T13:51:23Z</time>
      </trkpt>
      <trkpt lat="48.04036" lon="-3.47868">
        <ele>130.5</ele>
        <time>2025-02-26T13:51:24Z</time>
      </trkpt>
      <trkpt lat="48.04035" lon="-3.47868">
        <ele>130.3</ele>
        <time>2025-02-26T13:51:25Z</time>
      </trkpt>
      <trkpt lat="48.04033" lon="-3.47868">
        <ele>130</ele>
        <time>2025-02-26T13:51:26Z</time>
      </trkpt>
      <trkpt lat="48.04032" lon="-3.47867">
        <ele>129.6</ele>
        <time>2025-02-26T13:51:27Z</time>
      </trkpt>
      <trkpt lat="48.04031" lon="-3.47866">
        <ele>129.4</ele>
        <time>2025-02-26T13:51:28Z</time>
      </trkpt>
      <trkpt lat="48.04031" lon="-3.47867">
        <ele>129.5</ele>
        <time>2025-02-26T13:51:29Z</time>
      </trkpt>
      <trkpt lat="48.0403" lon="-3.47868">
        <ele>129.6</ele>
        <time>2025-02-26T13:51:30Z</time>
      </trkpt>
      <trkpt lat="48.0403" lon="-3.47868">
        <ele>129.6</ele>
        <time>2025-02-26T13:51:31Z</time>
      </trkpt>
      <trkpt lat="48.04029" lon="-3.47868">
        <ele>129.5</ele>
        <time>2025-02-26T13:51:32Z</time>
      </trkpt>
      <trkpt lat="48.04028" lon="-3.47868">
        <ele>129.3</ele>
        <time>2025-02-26T13:51:33Z</time>
      </trkpt>
      <trkpt lat="48.04027" lon="-3.47868">
        <ele>129.2</ele>
        <time>2025-02-26T13:51:34Z</time>
      </trkpt>
      <trkpt lat="48.04027" lon="-3.47869">
        <ele>129.2</ele>
        <time>2025-02-26T13:51:35Z</time>
      </trkpt>
      <trkpt lat="48.04026" lon="-3.47869">
        <ele>129.2</ele>
        <time>2025-02-26T13:51:36Z</time>
      </trkpt>
      <trkpt lat="48.04025" lon="-3.47869">
        <ele>129.1</ele>
        <time>2025-02-26T13:51:37Z</time>
      </trkpt>
      <trkpt lat="48.04025" lon="-3.47868">
        <ele>128.8</ele>
        <time>2025-02-26T13:51:38Z</time>
      </trkpt>
      <trkpt lat="48.04025" lon="-3.47868">
        <ele>128.8</ele>
        <time>2025-02-26T13:51:39Z</time>
      </trkpt>
      <trkpt lat="48.04024" lon="-3.47868">
        <ele>128.6</ele>
        <time>2025-02-26T13:51:40Z</time>
      </trkpt>
      <trkpt lat="48.04024" lon="-3.47868">
        <ele>128.6</ele>
        <time>2025-02-26T13:51:41Z</time>
      </trkpt>
      <trkpt lat="48.04022" lon="-3.47867">
        <ele>128.3</ele>
        <time>2025-02-26T13:51:42Z</time>
      </trkpt>
      <trkpt lat="48.04021" lon="-3.47867">
        <ele>128.1</ele>
        <time>2025-02-26T13:51:43Z</time>
      </trkpt>
      <trkpt lat="48.0402" lon="-3.47864">
        <ele>127.5</ele>
        <time>2025-02-26T13:51:44Z</time>
      </trkpt>
      <trkpt lat="48.04021" lon="-3.47863">
        <ele>127.3</ele>
        <time>2025-02-26T13:51:45Z</time>
      </trkpt>
      <trkpt lat="48.04021" lon="-3.47863">
        <ele>127.2</ele>
        <time>2025-02-26T13:51:46Z</time>
      </trkpt>
      <trkpt lat="48.04021" lon="-3.47862">
        <ele>127.2</ele>
        <time>2025-02-26T13:51:47Z</time>
      </trkpt>
      <trkpt lat="48.04021" lon="-3.47861">
        <ele>127</ele>
        <time>2025-02-26T13:51:48Z</time>
      </trkpt>
      <trkpt lat="48.0402" lon="-3.4786">
        <ele>126.7</ele>
        <time>2025-02-26T13:51:49Z</time>
      </trkpt>
      <trkpt lat="48.0402" lon="-3.47859">
        <ele>126.5</ele>
        <time>2025-02-26T13:51:50Z</time>
      </trkpt>
      <trkpt lat="48.04019" lon="-3.47858">
        <ele>126.2</ele>
        <time>2025-02-26T13:51:51Z</time>
      </trkpt>
      <trkpt lat="48.04019" lon="-3.47858">
        <ele>126.1</ele>
        <time>2025-02-26T13:51:52Z</time>
      </trkpt>
      <trkpt lat="48.04018" lon="-3.47857">
        <ele>125.9</ele>
        <time>2025-02-26T13:51:53Z</time>
      </trkpt>
      <trkpt lat="48.04017" lon="-3.47857">
        <ele>125.7</ele>
        <time>2025-02-26T13:51:54Z</time>
      </trkpt>
      <trkpt lat="48.04015" lon="-3.47857">
        <ele>125.5</ele>
        <time>2025-02-26T13:51:55Z</time>
      </trkpt>
      <trkpt lat="48.04015" lon="-3.47857">
        <ele>125.4</ele>
        <time>2025-02-26T13:51:56Z</time>
      </trkpt>
      <trkpt lat="48.04014" lon="-3.47857">
        <ele>125.3</ele>
        <time>2025-02-26T13:51:57Z</time>
      </trkpt>
      <trkpt lat="48.04013" lon="-3.47857">
        <ele>125.2</ele>
        <time>2025-02-26T13:51:58Z</time>
      </trkpt>
      <trkpt lat="48.04012" lon="-3.47857">
        <ele>125</ele>
        <time>2025-02-26T13:51:59Z</time>
      </trkpt>
      <trkpt lat="48.04011" lon="-3.47857">
        <ele>124.9</ele>
        <time>2025-02-26T13:52:00Z</time>
      </trkpt>
      <trkpt lat="48.0401" lon="-3.47856">
        <ele>124.7</ele>
        <time>2025-02-26T13:52:01Z</time>
      </trkpt>
      <trkpt lat="48.0401" lon="-3.47857">
        <ele>124.7</ele>
        <time>2025-02-26T13:52:02Z</time>
      </trkpt>
      <trkpt lat="48.0401" lon="-3.47857">
        <ele>124.8</ele>
        <time>2025-02-26T13:52:03Z</time>
      </trkpt>
      <trkpt lat="48.04009" lon="-3.47858">
        <ele>124.8</ele>
        <time>2025-02-26T13:52:04Z</time>
      </trkpt>
      <trkpt lat="48.04009" lon="-3.47857">
        <ele>124.7</ele>
        <time>2025-02-26T13:52:05Z</time>
      </trkpt>
      <trkpt lat="48.04008" lon="-3.47857">
        <ele>124.5</ele>
        <time>2025-02-26T13:52:06Z</time>
      </trkpt>
      <trkpt lat="48.04007" lon="-3.47857">
        <ele>124.3</ele>
        <time>2025-02-26T13:52:07Z</time>
      </trkpt>
      <trkpt lat="48.04006" lon="-3.47857">
        <ele>124.2</ele>
        <time>2025-02-26T13:52:08Z</time>
      </trkpt>
      <trkpt lat="48.04005" lon="-3.47857">
        <ele>124.1</ele>
        <time>2025-02-26T13:52:09Z</time>
      </trkpt>
      <trkpt lat="48.04005" lon="-3.47857">
        <ele>124</ele>
        <time>2025-02-26T13:52:10Z</time>
      </trkpt>
      <trkpt lat="48.04003" lon="-3.47857">
        <ele>123.9</ele>
        <time>2025-02-26T13:52:11Z</time>
      </trkpt>
      <trkpt lat="48.04002" lon="-3.47858">
        <ele>123.8</ele>
        <time>2025-02-26T13:52:12Z</time>
      </trkpt>
      <trkpt lat="48.04001" lon="-3.47858">
        <ele>123.7</ele>
        <time>2025-02-26T13:52:13Z</time>
      </trkpt>
      <trkpt lat="48.04" lon="-3.47857">
        <ele>123.4</ele>
        <time>2025-02-26T13:52:14Z</time>
      </trkpt>
      <trkpt lat="48.03999" lon="-3.47857">
        <ele>123.1</ele>
        <time>2025-02-26T13:52:15Z</time>
      </trkpt>
      <trkpt lat="48.03998" lon="-3.47857">
        <ele>123</ele>
        <time>2025-02-26T13:52:16Z</time>
      </trkpt>
      <trkpt lat="48.03997" lon="-3.47858">
        <ele>123</ele>
        <time>2025-02-26T13:52:17Z</time>
      </trkpt>
      <trkpt lat="48.03996" lon="-3.47859">
        <ele>122.9</ele>
        <time>2025-02-26T13:52:18Z</time>
      </trkpt>
      <trkpt lat="48.03995" lon="-3.47859">
        <ele>122.7</ele>
        <time>2025-02-26T13:52:19Z</time>
      </trkpt>
      <trkpt lat="48.03994" lon="-3.4786">
        <ele>122.5</ele>
        <time>2025-02-26T13:52:20Z</time>
      </trkpt>
      <trkpt lat="48.03993" lon="-3.4786">
        <ele>122.2</ele>
        <time>2025-02-26T13:52:21Z</time>
      </trkpt>
      <trkpt lat="48.03992" lon="-3.47859">
        <ele>122</ele>
        <time>2025-02-26T13:52:22Z</time>
      </trkpt>
      <trkpt lat="48.03991" lon="-3.47859">
        <ele>121.7</ele>
        <time>2025-02-26T13:52:23Z</time>
      </trkpt>
      <trkpt lat="48.03991" lon="-3.47858">
        <ele>121.6</ele>
        <time>2025-02-26T13:52:24Z</time>
      </trkpt>
      <trkpt lat="48.0399" lon="-3.47857">
        <ele>121.3</ele>
        <time>2025-02-26T13:52:25Z</time>
      </trkpt>
      <trkpt lat="48.03989" lon="-3.47857">
        <ele>121.1</ele>
        <time>2025-02-26T13:52:26Z</time>
      </trkpt>
      <trkpt lat="48.03988" lon="-3.47856">
        <ele>120.8</ele>
        <time>2025-02-26T13:52:27Z</time>
      </trkpt>
      <trkpt lat="48.03987" lon="-3.47857">
        <ele>120.6</ele>
        <time>2025-02-26T13:52:28Z</time>
      </trkpt>
      <trkpt lat="48.03986" lon="-3.47856">
        <ele>120.4</ele>
        <time>2025-02-26T13:52:29Z</time>
      </trkpt>
      <trkpt lat="48.03985" lon="-3.47855">
        <ele>120.1</ele>
        <time>2025-02-26T13:52:30Z</time>
      </trkpt>
      <trkpt lat="48.03985" lon="-3.47854">
        <ele>119.8</ele>
        <time>2025-02-26T13:52:31Z</time>
      </trkpt>
      <trkpt lat="48.03984" lon="-3.47853">
        <ele>119.5</ele>
        <time>2025-02-26T13:52:32Z</time>
      </trkpt>
      <trkpt lat="48.03986" lon="-3.47854">
        <ele>120</ele>
        <time>2025-02-26T13:52:33Z</time>
      </trkpt>
      <trkpt lat="48.03984" lon="-3.47851">
        <ele>119.4</ele>
        <time>2025-02-26T13:52:34Z</time>
      </trkpt>
      <trkpt lat="48.03983" lon="-3.47849">
        <ele>118.7</ele>
        <time>2025-02-26T13:52:35Z</time>
      </trkpt>
      <trkpt lat="48.03981" lon="-3.47847">
        <ele>118.2</ele>
        <time>2025-02-26T13:52:36Z</time>
      </trkpt>
      <trkpt lat="48.03982" lon="-3.47847">
        <ele>118.4</ele>
        <time>2025-02-26T13:52:37Z</time>
      </trkpt>
      <trkpt lat="48.03982" lon="-3.47847">
        <ele>118.4</ele>
        <time>2025-02-26T13:52:38Z</time>
      </trkpt>
      <trkpt lat="48.03982" lon="-3.47847">
        <ele>118.4</ele>
        <time>2025-02-26T13:52:39Z</time>
      </trkpt>
      <trkpt lat="48.03982" lon="-3.47847">
        <ele>118.3</ele>
        <time>2025-02-26T13:52:40Z</time>
      </trkpt>
      <trkpt lat="48.03981" lon="-3.47847">
        <ele>118.2</ele>
        <time>2025-02-26T13:52:41Z</time>
      </trkpt>
      <trkpt lat="48.0398" lon="-3.47848">
        <ele>118.1</ele>
        <time>2025-02-26T13:52:42Z</time>
      </trkpt>
      <trkpt lat="48.03979" lon="-3.47846">
        <ele>117.7</ele>
        <time>2025-02-26T13:52:43Z</time>
      </trkpt>
      <trkpt lat="48.03978" lon="-3.47846">
        <ele>117.4</ele>
        <time>2025-02-26T13:52:44Z</time>
      </trkpt>
      <trkpt lat="48.03976" lon="-3.47846">
        <ele>117.1</ele>
        <time>2025-02-26T13:52:45Z</time>
      </trkpt>
      <trkpt lat="48.03975" lon="-3.47846">
        <ele>117</ele>
        <time>2025-02-26T13:52:46Z</time>
      </trkpt>
      <trkpt lat="48.03974" lon="-3.47846">
        <ele>116.8</ele>
        <time>2025-02-26T13:52:47Z</time>
      </trkpt>
      <trkpt lat="48.03973" lon="-3.47846">
        <ele>116.5</ele>
        <time>2025-02-26T13:52:48Z</time>
      </trkpt>
      <trkpt lat="48.03972" lon="-3.47845">
        <ele>116.3</ele>
        <time>2025-02-26T13:52:49Z</time>
      </trkpt>
      <trkpt lat="48.03972" lon="-3.47845">
        <ele>116.1</ele>
        <time>2025-02-26T13:52:50Z</time>
      </trkpt>
      <trkpt lat="48.03971" lon="-3.47844">
        <ele>115.9</ele>
        <time>2025-02-26T13:52:51Z</time>
      </trkpt>
      <trkpt lat="48.0397" lon="-3.47845">
        <ele>115.8</ele>
        <time>2025-02-26T13:52:52Z</time>
      </trkpt>
      <trkpt lat="48.0397" lon="-3.47845">
        <ele>115.7</ele>
        <time>2025-02-26T13:52:53Z</time>
      </trkpt>
      <trkpt lat="48.03969" lon="-3.47845">
        <ele>115.4</ele>
        <time>2025-02-26T13:52:54Z</time>
      </trkpt>
      <trkpt lat="48.03968" lon="-3.47846">
        <ele>115.3</ele>
        <time>2025-02-26T13:52:55Z</time>
      </trkpt>
      <trkpt lat="48.03967" lon="-3.47846">
        <ele>115.1</ele>
        <time>2025-02-26T13:52:56Z</time>
      </trkpt>
      <trkpt lat="48.03967" lon="-3.47845">
        <ele>114.8</ele>
        <time>2025-02-26T13:52:57Z</time>
      </trkpt>
      <trkpt lat="48.03966" lon="-3.47844">
        <ele>114.6</ele>
        <time>2025-02-26T13:52:58Z</time>
      </trkpt>
      <trkpt lat="48.03965" lon="-3.47844">
        <ele>114.4</ele>
        <time>2025-02-26T13:52:59Z</time>
      </trkpt>
      <trkpt lat="48.03965" lon="-3.47843">
        <ele>114.2</ele>
        <time>2025-02-26T13:53:00Z</time>
      </trkpt>
      <trkpt lat="48.03964" lon="-3.47842">
        <ele>113.9</ele>
        <time>2025-02-26T13:53:01Z</time>
      </trkpt>
      <trkpt lat="48.03964" lon="-3.47842">
        <ele>113.7</ele>
        <time>2025-02-26T13:53:02Z</time>
      </trkpt>
      <trkpt lat="48.03963" lon="-3.47842">
        <ele>113.5</ele>
        <time>2025-02-26T13:53:03Z</time>
      </trkpt>
      <trkpt lat="48.03962" lon="-3.47841">
        <ele>113.3</ele>
        <time>2025-02-26T13:53:04Z</time>
      </trkpt>
      <trkpt lat="48.03961" lon="-3.47841">
        <ele>113</ele>
        <time>2025-02-26T13:53:05Z</time>
      </trkpt>
      <trkpt lat="48.0396" lon="-3.47841">
        <ele>112.6</ele>
        <time>2025-02-26T13:53:06Z</time>
      </trkpt>
      <trkpt lat="48.03959" lon="-3.4784">
        <ele>112.5</ele>
        <time>2025-02-26T13:53:07Z</time>
      </trkpt>
      <trkpt lat="48.03958" lon="-3.4784">
        <ele>112.1</ele>
        <time>2025-02-26T13:53:08Z</time>
      </trkpt>
      <trkpt lat="48.03955" lon="-3.47839">
        <ele>111.4</ele>
        <time>2025-02-26T13:53:09Z</time>
      </trkpt>
      <trkpt lat="48.03953" lon="-3.47839">
        <ele>110.9</ele>
        <time>2025-02-26T13:53:10Z</time>
      </trkpt>
      <trkpt lat="48.03952" lon="-3.47839">
        <ele>110.5</ele>
        <time>2025-02-26T13:53:11Z</time>
      </trkpt>
      <trkpt lat="48.0395" lon="-3.47839">
        <ele>110</ele>
        <time>2025-02-26T13:53:12Z</time>
      </trkpt>
      <trkpt lat="48.03949" lon="-3.4784">
        <ele>109.8</ele>
        <time>2025-02-26T13:53:13Z</time>
      </trkpt>
      <trkpt lat="48.03947" lon="-3.47839">
        <ele>109.3</ele>
        <time>2025-02-26T13:53:14Z</time>
      </trkpt>
      <trkpt lat="48.03946" lon="-3.47838">
        <ele>108.9</ele>
        <time>2025-02-26T13:53:15Z</time>
      </trkpt>
      <trkpt lat="48.03945" lon="-3.47837">
        <ele>108.6</ele>
        <time>2025-02-26T13:53:16Z</time>
      </trkpt>
      <trkpt lat="48.03945" lon="-3.47837">
        <ele>108.4</ele>
        <time>2025-02-26T13:53:17Z</time>
      </trkpt>
      <trkpt lat="48.03944" lon="-3.47836">
        <ele>108.2</ele>
        <time>2025-02-26T13:53:18Z</time>
      </trkpt>
      <trkpt lat="48.03943" lon="-3.47837">
        <ele>107.8</ele>
        <time>2025-02-26T13:53:19Z</time>
      </trkpt>
      <trkpt lat="48.03942" lon="-3.47836">
        <ele>107.4</ele>
        <time>2025-02-26T13:53:20Z</time>
      </trkpt>
      <trkpt lat="48.03941" lon="-3.47836">
        <ele>107</ele>
        <time>2025-02-26T13:53:21Z</time>
      </trkpt>
      <trkpt lat="48.03941" lon="-3.47835">
        <ele>106.7</ele>
        <time>2025-02-26T13:53:22Z</time>
      </trkpt>
      <trkpt lat="48.0394" lon="-3.47834">
        <ele>106.3</ele>
        <time>2025-02-26T13:53:23Z</time>
      </trkpt>
      <trkpt lat="48.03939" lon="-3.47833">
        <ele>105.9</ele>
        <time>2025-02-26T13:53:24Z</time>
      </trkpt>
      <trkpt lat="48.03938" lon="-3.47833">
        <ele>105.5</ele>
        <time>2025-02-26T13:53:25Z</time>
      </trkpt>
      <trkpt lat="48.03937" lon="-3.47833">
        <ele>105.2</ele>
        <time>2025-02-26T13:53:26Z</time>
      </trkpt>
      <trkpt lat="48.03936" lon="-3.47834">
        <ele>104.8</ele>
        <time>2025-02-26T13:53:27Z</time>
      </trkpt>
      <trkpt lat="48.03936" lon="-3.47835">
        <ele>104.8</ele>
        <time>2025-02-26T13:53:28Z</time>
      </trkpt>
      <trkpt lat="48.03936" lon="-3.47836">
        <ele>104.7</ele>
        <time>2025-02-26T13:53:29Z</time>
      </trkpt>
      <trkpt lat="48.03935" lon="-3.47835">
        <ele>104.4</ele>
        <time>2025-02-26T13:53:30Z</time>
      </trkpt>
      <trkpt lat="48.03936" lon="-3.47833">
        <ele>104.4</ele>
        <time>2025-02-26T13:53:31Z</time>
      </trkpt>
      <trkpt lat="48.03936" lon="-3.47832">
        <ele>104.3</ele>
        <time>2025-02-26T13:53:32Z</time>
      </trkpt>
      <trkpt lat="48.03935" lon="-3.47832">
        <ele>104</ele>
        <time>2025-02-26T13:53:33Z</time>
      </trkpt>
      <trkpt lat="48.03934" lon="-3.47833">
        <ele>103.7</ele>
        <time>2025-02-26T13:53:34Z</time>
      </trkpt>
      <trkpt lat="48.03933" lon="-3.47834">
        <ele>103.5</ele>
        <time>2025-02-26T13:53:35Z</time>
      </trkpt>
      <trkpt lat="48.03932" lon="-3.47834">
        <ele>103.2</ele>
        <time>2025-02-26T13:53:36Z</time>
      </trkpt>
      <trkpt lat="48.03932" lon="-3.47833">
        <ele>102.9</ele>
        <time>2025-02-26T13:53:37Z</time>
      </trkpt>
      <trkpt lat="48.03931" lon="-3.47833">
        <ele>102.6</ele>
        <time>2025-02-26T13:53:38Z</time>
      </trkpt>
      <trkpt lat="48.0393" lon="-3.47833">
        <ele>102.2</ele>
        <time>2025-02-26T13:53:39Z</time>
      </trkpt>
      <trkpt lat="48.03929" lon="-3.47833">
        <ele>101.9</ele>
        <time>2025-02-26T13:53:40Z</time>
      </trkpt>
      <trkpt lat="48.03929" lon="-3.47833">
        <ele>101.7</ele>
        <time>2025-02-26T13:53:41Z</time>
      </trkpt>
      <trkpt lat="48.03928" lon="-3.47832">
        <ele>101.2</ele>
        <time>2025-02-26T13:53:42Z</time>
      </trkpt>
      <trkpt lat="48.03927" lon="-3.47831">
        <ele>100.8</ele>
        <time>2025-02-26T13:53:43Z</time>
      </trkpt>
      <trkpt lat="48.03926" lon="-3.47831">
        <ele>100.4</ele>
        <time>2025-02-26T13:53:44Z</time>
      </trkpt>
      <trkpt lat="48.03926" lon="-3.4783">
        <ele>100.2</ele>
        <time>2025-02-26T13:53:45Z</time>
      </trkpt>
      <trkpt lat="48.03925" lon="-3.4783">
        <ele>99.8</ele>
        <time>2025-02-26T13:53:46Z</time>
      </trkpt>
      <trkpt lat="48.03924" lon="-3.47831">
        <ele>99.5</ele>
        <time>2025-02-26T13:53:47Z</time>
      </trkpt>
      <trkpt lat="48.03923" lon="-3.47831">
        <ele>99.2</ele>
        <time>2025-02-26T13:53:48Z</time>
      </trkpt>
      <trkpt lat="48.03922" lon="-3.47831">
        <ele>98.8</ele>
        <time>2025-02-26T13:53:49Z</time>
      </trkpt>
      <trkpt lat="48.03921" lon="-3.4783">
        <ele>98.3</ele>
        <time>2025-02-26T13:53:50Z</time>
      </trkpt>
      <trkpt lat="48.03921" lon="-3.47829">
        <ele>97.8</ele>
        <time>2025-02-26T13:53:51Z</time>
      </trkpt>
      <trkpt lat="48.0392" lon="-3.47828">
        <ele>97.2</ele>
        <time>2025-02-26T13:53:52Z</time>
      </trkpt>
      <trkpt lat="48.03919" lon="-3.47826">
        <ele>96.8</ele>
        <time>2025-02-26T13:53:53Z</time>
      </trkpt>
      <trkpt lat="48.03919" lon="-3.47825">
        <ele>96.3</ele>
        <time>2025-02-26T13:53:54Z</time>
      </trkpt>
      <trkpt lat="48.03919" lon="-3.47824">
        <ele>96.3</ele>
        <time>2025-02-26T13:53:55Z</time>
      </trkpt>
      <trkpt lat="48.03918" lon="-3.47824">
        <ele>95.7</ele>
        <time>2025-02-26T13:53:56Z</time>
      </trkpt>
      <trkpt lat="48.03916" lon="-3.47824">
        <ele>95.2</ele>
        <time>2025-02-26T13:53:57Z</time>
      </trkpt>
      <trkpt lat="48.03915" lon="-3.47824">
        <ele>94.6</ele>
        <time>2025-02-26T13:53:58Z</time>
      </trkpt>
      <trkpt lat="48.03914" lon="-3.47823">
        <ele>94.1</ele>
        <time>2025-02-26T13:53:59Z</time>
      </trkpt>
      <trkpt lat="48.03915" lon="-3.47823">
        <ele>94.4</ele>
        <time>2025-02-26T13:54:00Z</time>
      </trkpt>
      <trkpt lat="48.03913" lon="-3.4782">
        <ele>93.4</ele>
        <time>2025-02-26T13:54:01Z</time>
      </trkpt>
      <trkpt lat="48.03911" lon="-3.47819">
        <ele>92.5</ele>
        <time>2025-02-26T13:54:02Z</time>
      </trkpt>
      <trkpt lat="48.0391" lon="-3.47817">
        <ele>91.9</ele>
        <time>2025-02-26T13:54:03Z</time>
      </trkpt>
      <trkpt lat="48.03909" lon="-3.47816">
        <ele>91.4</ele>
        <time>2025-02-26T13:54:04Z</time>
      </trkpt>
      <trkpt lat="48.03908" lon="-3.47815">
        <ele>91.1</ele>
        <time>2025-02-26T13:54:05Z</time>
      </trkpt>
      <trkpt lat="48.03907" lon="-3.47815">
        <ele>90.8</ele>
        <time>2025-02-26T13:54:06Z</time>
      </trkpt>
      <trkpt lat="48.03906" lon="-3.47815">
        <ele>90.6</ele>
        <time>2025-02-26T13:54:07Z</time>
      </trkpt>
      <trkpt lat="48.03905" lon="-3.47815">
        <ele>90.2</ele>
        <time>2025-02-26T13:54:08Z</time>
      </trkpt>
      <trkpt lat="48.03904" lon="-3.47815">
        <ele>89.9</ele>
        <time>2025-02-26T13:54:09Z</time>
      </trkpt>
      <trkpt lat="48.03903" lon="-3.47815">
        <ele>89.5</ele>
        <time>2025-02-26T13:54:10Z</time>
      </trkpt>
      <trkpt lat="48.03902" lon="-3.47815">
        <ele>89.1</ele>
        <time>2025-02-26T13:54:11Z</time>
      </trkpt>
      <trkpt lat="48.03901" lon="-3.47815">
        <ele>88.7</ele>
        <time>2025-02-26T13:54:12Z</time>
      </trkpt>
      <trkpt lat="48.039" lon="-3.47814">
        <ele>88.2</ele>
        <time>2025-02-26T13:54:13Z</time>
      </trkpt>
      <trkpt lat="48.03899" lon="-3.47814">
        <ele>88.1</ele>
        <time>2025-02-26T13:54:14Z</time>
      </trkpt>
      <trkpt lat="48.03899" lon="-3.47813">
        <ele>87.8</ele>
        <time>2025-02-26T13:54:15Z</time>
      </trkpt>
      <trkpt lat="48.03897" lon="-3.47811">
        <ele>87.2</ele>
        <time>2025-02-26T13:54:16Z</time>
      </trkpt>
      <trkpt lat="48.03897" lon="-3.4781">
        <ele>86.8</ele>
        <time>2025-02-26T13:54:17Z</time>
      </trkpt>
      <trkpt lat="48.03896" lon="-3.47809">
        <ele>86.4</ele>
        <time>2025-02-26T13:54:18Z</time>
      </trkpt>
      <trkpt lat="48.03895" lon="-3.47808">
        <ele>85.9</ele>
        <time>2025-02-26T13:54:19Z</time>
      </trkpt>
      <trkpt lat="48.03893" lon="-3.47807">
        <ele>85.4</ele>
        <time>2025-02-26T13:54:20Z</time>
      </trkpt>
      <trkpt lat="48.03892" lon="-3.47806">
        <ele>85.1</ele>
        <time>2025-02-26T13:54:21Z</time>
      </trkpt>
      <trkpt lat="48.03893" lon="-3.47807">
        <ele>85.3</ele>
        <time>2025-02-26T13:54:22Z</time>
      </trkpt>
      <trkpt lat="48.03893" lon="-3.47807">
        <ele>85.2</ele>
        <time>2025-02-26T13:54:23Z</time>
      </trkpt>
      <trkpt lat="48.03892" lon="-3.47807">
        <ele>85.1</ele>
        <time>2025-02-26T13:54:24Z</time>
      </trkpt>
      <trkpt lat="48.03892" lon="-3.47807">
        <ele>84.9</ele>
        <time>2025-02-26T13:54:25Z</time>
      </trkpt>
      <trkpt lat="48.03891" lon="-3.47806">
        <ele>84.5</ele>
        <time>2025-02-26T13:54:26Z</time>
      </trkpt>
      <trkpt lat="48.0389" lon="-3.47805">
        <ele>84.2</ele>
        <time>2025-02-26T13:54:27Z</time>
      </trkpt>
      <trkpt lat="48.03889" lon="-3.47805">
        <ele>83.9</ele>
        <time>2025-02-26T13:54:28Z</time>
      </trkpt>
      <trkpt lat="48.03889" lon="-3.47805">
        <ele>84</ele>
        <time>2025-02-26T13:54:29Z</time>
      </trkpt>
      <trkpt lat="48.03889" lon="-3.47806">
        <ele>84.1</ele>
        <time>2025-02-26T13:54:30Z</time>
      </trkpt>
      <trkpt lat="48.03889" lon="-3.47808">
        <ele>84.2</ele>
        <time>2025-02-26T13:54:31Z</time>
      </trkpt>
      <trkpt lat="48.03888" lon="-3.47808">
        <ele>84.2</ele>
        <time>2025-02-26T13:54:32Z</time>
      </trkpt>
      <trkpt lat="48.03888" lon="-3.47808">
        <ele>84.2</ele>
        <time>2025-02-26T13:54:33Z</time>
      </trkpt>
      <trkpt lat="48.03887" lon="-3.47809">
        <ele>84.1</ele>
        <time>2025-02-26T13:54:34Z</time>
      </trkpt>
      <trkpt lat="48.03887" lon="-3.47809">
        <ele>84.1</ele>
        <time>2025-02-26T13:54:35Z</time>
      </trkpt>
      <trkpt lat="48.03886" lon="-3.47809">
        <ele>84</ele>
        <time>2025-02-26T13:54:36Z</time>
      </trkpt>
      <trkpt lat="48.03885" lon="-3.47809">
        <ele>84</ele>
        <time>2025-02-26T13:54:37Z</time>
      </trkpt>
      <trkpt lat="48.03885" lon="-3.47811">
        <ele>84.1</ele>
        <time>2025-02-26T13:54:38Z</time>
      </trkpt>
      <trkpt lat="48.03884" lon="-3.47812">
        <ele>84.1</ele>
        <time>2025-02-26T13:54:39Z</time>
      </trkpt>
      <trkpt lat="48.03883" lon="-3.47812">
        <ele>84</ele>
        <time>2025-02-26T13:54:40Z</time>
      </trkpt>
      <trkpt lat="48.03883" lon="-3.47811">
        <ele>84</ele>
        <time>2025-02-26T13:54:41Z</time>
      </trkpt>
      <trkpt lat="48.03883" lon="-3.47811">
        <ele>83.8</ele>
        <time>2025-02-26T13:54:42Z</time>
      </trkpt>
      <trkpt lat="48.03882" lon="-3.4781">
        <ele>83.7</ele>
        <time>2025-02-26T13:54:43Z</time>
      </trkpt>
      <trkpt lat="48.03882" lon="-3.4781">
        <ele>83.7</ele>
        <time>2025-02-26T13:54:44Z</time>
      </trkpt>
      <trkpt lat="48.03881" lon="-3.47809">
        <ele>83.5</ele>
        <time>2025-02-26T13:54:45Z</time>
      </trkpt>
      <trkpt lat="48.03881" lon="-3.47809">
        <ele>83.5</ele>
        <time>2025-02-26T13:54:46Z</time>
      </trkpt>
      <trkpt lat="48.03879" lon="-3.4781">
        <ele>83.3</ele>
        <time>2025-02-26T13:54:47Z</time>
      </trkpt>
      <trkpt lat="48.03878" lon="-3.47812">
        <ele>83.4</ele>
        <time>2025-02-26T13:54:48Z</time>
      </trkpt>
      <trkpt lat="48.03877" lon="-3.47813">
        <ele>83.3</ele>
        <time>2025-02-26T13:54:49Z</time>
      </trkpt>
      <trkpt lat="48.03874" lon="-3.47811">
        <ele>82.9</ele>
        <time>2025-02-26T13:54:50Z</time>
      </trkpt>
      <trkpt lat="48.03873" lon="-3.47809">
        <ele>82.6</ele>
        <time>2025-02-26T13:54:51Z</time>
      </trkpt>
      <trkpt lat="48.03872" lon="-3.47807">
        <ele>82.3</ele>
        <time>2025-02-26T13:54:52Z</time>
      </trkpt>
      <trkpt lat="48.03871" lon="-3.47803">
        <ele>82</ele>
        <time>2025-02-26T13:54:53Z</time>
      </trkpt>
      <trkpt lat="48.03873" lon="-3.47801">
        <ele>82</ele>
        <time>2025-02-26T13:54:54Z</time>
      </trkpt>
      <trkpt lat="48.03874" lon="-3.47798">
        <ele>82</ele>
        <time>2025-02-26T13:54:55Z</time>
      </trkpt>
      <trkpt lat="48.03876" lon="-3.47797">
        <ele>82.1</ele>
        <time>2025-02-26T13:54:56Z</time>
      </trkpt>
      <trkpt lat="48.03876" lon="-3.47794">
        <ele>82</ele>
        <time>2025-02-26T13:54:57Z</time>
      </trkpt>
      <trkpt lat="48.03877" lon="-3.47792">
        <ele>82</ele>
        <time>2025-02-26T13:54:58Z</time>
      </trkpt>
      <trkpt lat="48.03878" lon="-3.4779">
        <ele>81.9</ele>
        <time>2025-02-26T13:54:59Z</time>
      </trkpt>
      <trkpt lat="48.03879" lon="-3.47788">
        <ele>81.9</ele>
        <time>2025-02-26T13:55:00Z</time>
      </trkpt>
      <trkpt lat="48.03879" lon="-3.47786">
        <ele>81.8</ele>
        <time>2025-02-26T13:55:01Z</time>
      </trkpt>
      <trkpt lat="48.03879" lon="-3.47784">
        <ele>81.7</ele>
        <time>2025-02-26T13:55:02Z</time>
      </trkpt>
      <trkpt lat="48.0388" lon="-3.47782">
        <ele>81.6</ele>
        <time>2025-02-26T13:55:03Z</time>
      </trkpt>
      <trkpt lat="48.0388" lon="-3.4778">
        <ele>81.5</ele>
        <time>2025-02-26T13:55:04Z</time>
      </trkpt>
      <trkpt lat="48.0388" lon="-3.4778">
        <ele>81.5</ele>
        <time>2025-02-26T13:55:05Z</time>
      </trkpt>
      <trkpt lat="48.0388" lon="-3.47779">
        <ele>81.5</ele>
        <time>2025-02-26T13:55:06Z</time>
      </trkpt>
      <trkpt lat="48.0388" lon="-3.47781">
        <ele>81.6</ele>
        <time>2025-02-26T13:55:07Z</time>
      </trkpt>
      <trkpt lat="48.0388" lon="-3.4778">
        <ele>81.5</ele>
        <time>2025-02-26T13:55:08Z</time>
      </trkpt>
      <trkpt lat="48.03881" lon="-3.47782">
        <ele>81.6</ele>
        <time>2025-02-26T13:55:09Z</time>
      </trkpt>
      <trkpt lat="48.03881" lon="-3.47782">
        <ele>81.7</ele>
        <time>2025-02-26T13:55:10Z</time>
      </trkpt>
      <trkpt lat="48.03879" lon="-3.47781">
        <ele>81.5</ele>
        <time>2025-02-26T13:55:11Z</time>
      </trkpt>
      <trkpt lat="48.03877" lon="-3.4778">
        <ele>81.2</ele>
        <time>2025-02-26T13:55:12Z</time>
      </trkpt>
      <trkpt lat="48.03877" lon="-3.47781">
        <ele>81.3</ele>
        <time>2025-02-26T13:55:13Z</time>
      </trkpt>
      <trkpt lat="48.03879" lon="-3.47782">
        <ele>81.5</ele>
        <time>2025-02-26T13:55:14Z</time>
      </trkpt>
      <trkpt lat="48.03879" lon="-3.47782">
        <ele>81.5</ele>
        <time>2025-02-26T13:55:15Z</time>
      </trkpt>
      <trkpt lat="48.03879" lon="-3.47782">
        <ele>81.5</ele>
        <time>2025-02-26T13:55:16Z</time>
      </trkpt>
      <trkpt lat="48.03879" lon="-3.47782">
        <ele>81.5</ele>
        <time>2025-02-26T13:55:17Z</time>
      </trkpt>
      <trkpt lat="48.03879" lon="-3.47782">
        <ele>81.5</ele>
        <time>2025-02-26T13:55:18Z</time>
      </trkpt>
      <trkpt lat="48.03879" lon="-3.47782">
        <ele>81.5</ele>
        <time>2025-02-26T13:55:19Z</time>
      </trkpt>
      <trkpt lat="48.0388" lon="-3.47782">
        <ele>81.6</ele>
        <time>2025-02-26T13:55:20Z</time>
      </trkpt>
      <trkpt lat="48.0388" lon="-3.47781">
        <ele>81.5</ele>
        <time>2025-02-26T13:55:21Z</time>
      </trkpt>
      <trkpt lat="48.0388" lon="-3.4778">
        <ele>81.5</ele>
        <time>2025-02-26T13:55:22Z</time>
      </trkpt>
      <trkpt lat="48.03881" lon="-3.4778">
        <ele>81.6</ele>
        <time>2025-02-26T13:55:23Z</time>
      </trkpt>
      <trkpt lat="48.03882" lon="-3.4778">
        <ele>81.6</ele>
        <time>2025-02-26T13:55:24Z</time>
      </trkpt>
      <trkpt lat="48.03882" lon="-3.4778">
        <ele>81.6</ele>
        <time>2025-02-26T13:55:25Z</time>
      </trkpt>
      <trkpt lat="48.03881" lon="-3.4778">
        <ele>81.5</ele>
        <time>2025-02-26T13:55:26Z</time>
      </trkpt>
      <trkpt lat="48.03881" lon="-3.4778">
        <ele>81.6</ele>
        <time>2025-02-26T13:55:27Z</time>
      </trkpt>
      <trkpt lat="48.03881" lon="-3.4778">
        <ele>81.6</ele>
        <time>2025-02-26T13:55:28Z</time>
      </trkpt>
      <trkpt lat="48.03881" lon="-3.4778">
        <ele>81.6</ele>
        <time>2025-02-26T13:55:29Z</time>
      </trkpt>
      <trkpt lat="48.03881" lon="-3.4778">
        <ele>81.6</ele>
        <time>2025-02-26T13:55:30Z</time>
      </trkpt>
      <trkpt lat="48.03881" lon="-3.4778">
        <ele>81.6</ele>
        <time>2025-02-26T13:55:31Z</time>
      </trkpt>
      <trkpt lat="48.03881" lon="-3.4778">
        <ele>81.6</ele>
        <time>2025-02-26T13:55:32Z</time>
      </trkpt>
      <trkpt lat="48.03881" lon="-3.4778">
        <ele>81.6</ele>
        <time>2025-02-26T13:55:33Z</time>
      </trkpt>
      <trkpt lat="48.03881" lon="-3.4778">
        <ele>81.6</ele>
        <time>2025-02-26T13:55:34Z</time>
      </trkpt>
      <trkpt lat="48.03881" lon="-3.4778">
        <ele>81.6</ele>
        <time>2025-02-26T13:55:35Z</time>
      </trkpt>
      <trkpt lat="48.03881" lon="-3.4778">
        <ele>81.6</ele>
        <time>2025-02-26T13:55:36Z</time>
      </trkpt>
      <trkpt lat="48.03881" lon="-3.4778">
        <ele>81.6</ele>
        <time>2025-02-26T13:55:37Z</time>
      </trkpt>
      <trkpt lat="48.03881" lon="-3.4778">
        <ele>81.6</ele>
        <time>2025-02-26T13:55:38Z</time>
      </trkpt>
      <trkpt lat="48.03882" lon="-3.4778">
        <ele>81.6</ele>
        <time>2025-02-26T13:55:39Z</time>
      </trkpt>
      <trkpt lat="48.03882" lon="-3.4778">
        <ele>81.6</ele>
        <time>2025-02-26T13:55:40Z</time>
      </trkpt>
      <trkpt lat="48.03882" lon="-3.4778">
        <ele>81.6</ele>
        <time>2025-02-26T13:55:41Z</time>
      </trkpt>
      <trkpt lat="48.03882" lon="-3.4778">
        <ele>81.6</ele>
        <time>2025-02-26T13:55:42Z</time>
      </trkpt>
      <trkpt lat="48.03882" lon="-3.4778">
        <ele>81.6</ele>
        <time>2025-02-26T13:55:43Z</time>
      </trkpt>
      <trkpt lat="48.03882" lon="-3.4778">
        <ele>81.6</ele>
        <time>2025-02-26T13:55:44Z</time>
      </trkpt>
      <trkpt lat="48.03882" lon="-3.4778">
        <ele>81.6</ele>
        <time>2025-02-26T13:55:45Z</time>
      </trkpt>
      <trkpt lat="48.03882" lon="-3.4778">
        <ele>81.6</ele>
        <time>2025-02-26T13:55:46Z</time>
      </trkpt>
      <trkpt lat="48.03882" lon="-3.4778">
        <ele>81.6</ele>
        <time>2025-02-26T13:55:47Z</time>
      </trkpt>
      <trkpt lat="48.03882" lon="-3.4778">
        <ele>81.6</ele>
        <time>2025-02-26T13:55:48Z</time>
      </trkpt>
      <trkpt lat="48.03882" lon="-3.4778">
        <ele>81.6</ele>
        <time>2025-02-26T13:55:49Z</time>
      </trkpt>
      <trkpt lat="48.03882" lon="-3.4778">
        <ele>81.6</ele>
        <time>2025-02-26T13:55:50Z</time>
      </trkpt>
      <trkpt lat="48.03882" lon="-3.4778">
        <ele>81.6</ele>
        <time>2025-02-26T13:55:51Z</time>
      </trkpt>
      <trkpt lat="48.03882" lon="-3.4778">
        <ele>81.6</ele>
        <time>2025-02-26T13:55:52Z</time>
      </trkpt>
      <trkpt lat="48.03882" lon="-3.4778">
        <ele>81.6</ele>
        <time>2025-02-26T13:55:53Z</time>
      </trkpt>
      <trkpt lat="48.03882" lon="-3.4778">
        <ele>81.6</ele>
        <time>2025-02-26T13:55:54Z</time>
      </trkpt>
      <trkpt lat="48.03882" lon="-3.4778">
        <ele>81.6</ele>
        <time>2025-02-26T13:55:55Z</time>
      </trkpt>
      <trkpt lat="48.03882" lon="-3.4778">
        <ele>81.6</ele>
        <time>2025-02-26T13:55:56Z</time>
      </trkpt>
      <trkpt lat="48.03882" lon="-3.4778">
        <ele>81.6</ele>
        <time>2025-02-26T13:55:57Z</time>
      </trkpt>
      <trkpt lat="48.03882" lon="-3.4778">
        <ele>81.6</ele>
        <time>2025-02-26T13:55:58Z</time>
      </trkpt>
      <trkpt lat="48.03882" lon="-3.4778">
        <ele>81.6</ele>
        <time>2025-02-26T13:55:59Z</time>
      </trkpt>
      <trkpt lat="48.03882" lon="-3.4778">
        <ele>81.6</ele>
        <time>2025-02-26T13:56:00Z</time>
      </trkpt>
      <trkpt lat="48.03882" lon="-3.4778">
        <ele>81.6</ele>
        <time>2025-02-26T13:56:01Z</time>
      </trkpt>
      <trkpt lat="48.03882" lon="-3.4778">
        <ele>81.6</ele>
        <time>2025-02-26T13:56:02Z</time>
      </trkpt>
      <trkpt lat="48.03882" lon="-3.4778">
        <ele>81.6</ele>
        <time>2025-02-26T13:56:03Z</time>
      </trkpt>
      <trkpt lat="48.03882" lon="-3.4778">
        <ele>81.6</ele>
        <time>2025-02-26T13:56:04Z</time>
      </trkpt>
      <trkpt lat="48.03882" lon="-3.4778">
        <ele>81.6</ele>
        <time>2025-02-26T13:56:05Z</time>
      </trkpt>
      <trkpt lat="48.03882" lon="-3.4778">
        <ele>81.6</ele>
        <time>2025-02-26T13:56:06Z</time>
      </trkpt>
      <trkpt lat="48.03882" lon="-3.4778">
        <ele>81.6</ele>
        <time>2025-02-26T13:56:07Z</time>
      </trkpt>
      <trkpt lat="48.03881" lon="-3.4778">
        <ele>81.6</ele>
        <time>2025-02-26T13:56:08Z</time>
      </trkpt>
      <trkpt lat="48.03881" lon="-3.4778">
        <ele>81.6</ele>
        <time>2025-02-26T13:56:09Z</time>
      </trkpt>
      <trkpt lat="48.03881" lon="-3.4778">
        <ele>81.6</ele>
        <time>2025-02-26T13:56:10Z</time>
      </trkpt>
      <trkpt lat="48.03881" lon="-3.4778">
        <ele>81.6</ele>
        <time>2025-02-26T13:56:11Z</time>
      </trkpt>
      <trkpt lat="48.03881" lon="-3.4778">
        <ele>81.6</ele>
        <time>2025-02-26T13:56:12Z</time>
      </trkpt>
      <trkpt lat="48.03881" lon="-3.4778">
        <ele>81.6</ele>
        <time>2025-02-26T13:56:13Z</time>
      </trkpt>
      <trkpt lat="48.03881" lon="-3.4778">
        <ele>81.6</ele>
        <time>2025-02-26T13:56:14Z</time>
      </trkpt>
      <trkpt lat="48.03881" lon="-3.47781">
        <ele>81.6</ele>
        <time>2025-02-26T13:56:15Z</time>
      </trkpt>
      <trkpt lat="48.03882" lon="-3.47781">
        <ele>81.7</ele>
        <time>2025-02-26T13:56:16Z</time>
      </trkpt>
      <trkpt lat="48.03884" lon="-3.47782">
        <ele>81.9</ele>
        <time>2025-02-26T13:56:17Z</time>
      </trkpt>
      <trkpt lat="48.03884" lon="-3.47781">
        <ele>81.9</ele>
        <time>2025-02-26T13:56:18Z</time>
      </trkpt>
      <trkpt lat="48.03885" lon="-3.4778">
        <ele>81.9</ele>
        <time>2025-02-26T13:56:19Z</time>
      </trkpt>
      <trkpt lat="48.03886" lon="-3.47779">
        <ele>81.9</ele>
        <time>2025-02-26T13:56:20Z</time>
      </trkpt>
      <trkpt lat="48.03887" lon="-3.47778">
        <ele>81.9</ele>
        <time>2025-02-26T13:56:21Z</time>
      </trkpt>
      <trkpt lat="48.03886" lon="-3.47777">
        <ele>81.7</ele>
        <time>2025-02-26T13:56:22Z</time>
      </trkpt>
      <trkpt lat="48.03886" lon="-3.47776">
        <ele>81.7</ele>
        <time>2025-02-26T13:56:23Z</time>
      </trkpt>
      <trkpt lat="48.03887" lon="-3.47775">
        <ele>81.7</ele>
        <time>2025-02-26T13:56:24Z</time>
      </trkpt>
      <trkpt lat="48.03888" lon="-3.47775">
        <ele>81.7</ele>
        <time>2025-02-26T13:56:25Z</time>
      </trkpt>
      <trkpt lat="48.03889" lon="-3.47776">
        <ele>81.8</ele>
        <time>2025-02-26T13:56:26Z</time>
      </trkpt>
      <trkpt lat="48.0389" lon="-3.47775">
        <ele>82</ele>
        <time>2025-02-26T13:56:27Z</time>
      </trkpt>
      <trkpt lat="48.03891" lon="-3.47772">
        <ele>82</ele>
        <time>2025-02-26T13:56:28Z</time>
      </trkpt>
      <trkpt lat="48.03891" lon="-3.47769">
        <ele>81.7</ele>
        <time>2025-02-26T13:56:29Z</time>
      </trkpt>
      <trkpt lat="48.03891" lon="-3.47767">
        <ele>81.7</ele>
        <time>2025-02-26T13:56:30Z</time>
      </trkpt>
      <trkpt lat="48.03892" lon="-3.47766">
        <ele>81.8</ele>
        <time>2025-02-26T13:56:31Z</time>
      </trkpt>
      <trkpt lat="48.03892" lon="-3.47764">
        <ele>81.7</ele>
        <time>2025-02-26T13:56:32Z</time>
      </trkpt>
      <trkpt lat="48.03892" lon="-3.47763">
        <ele>81.6</ele>
        <time>2025-02-26T13:56:33Z</time>
      </trkpt>
      <trkpt lat="48.03892" lon="-3.47762">
        <ele>81.5</ele>
        <time>2025-02-26T13:56:34Z</time>
      </trkpt>
      <trkpt lat="48.03892" lon="-3.47761">
        <ele>81.4</ele>
        <time>2025-02-26T13:56:35Z</time>
      </trkpt>
      <trkpt lat="48.03892" lon="-3.47759">
        <ele>81.3</ele>
        <time>2025-02-26T13:56:36Z</time>
      </trkpt>
      <trkpt lat="48.03892" lon="-3.47757">
        <ele>81.2</ele>
        <time>2025-02-26T13:56:37Z</time>
      </trkpt>
      <trkpt lat="48.03893" lon="-3.47756">
        <ele>81.2</ele>
        <time>2025-02-26T13:56:38Z</time>
      </trkpt>
      <trkpt lat="48.03893" lon="-3.47755">
        <ele>81.2</ele>
        <time>2025-02-26T13:56:39Z</time>
      </trkpt>
      <trkpt lat="48.03894" lon="-3.47754">
        <ele>81.2</ele>
        <time>2025-02-26T13:56:40Z</time>
      </trkpt>
      <trkpt lat="48.03895" lon="-3.47754">
        <ele>81.5</ele>
        <time>2025-02-26T13:56:41Z</time>
      </trkpt>
      <trkpt lat="48.03896" lon="-3.47755">
        <ele>81.7</ele>
        <time>2025-02-26T13:56:42Z</time>
      </trkpt>
      <trkpt lat="48.03896" lon="-3.4776">
        <ele>82.2</ele>
        <time>2025-02-26T13:56:43Z</time>
      </trkpt>
      <trkpt lat="48.03897" lon="-3.4776">
        <ele>82.4</ele>
        <time>2025-02-26T13:56:44Z</time>
      </trkpt>
      <trkpt lat="48.03897" lon="-3.47758">
        <ele>82.1</ele>
        <time>2025-02-26T13:56:45Z</time>
      </trkpt>
      <trkpt lat="48.03897" lon="-3.47756">
        <ele>81.9</ele>
        <time>2025-02-26T13:56:46Z</time>
      </trkpt>
      <trkpt lat="48.03897" lon="-3.47754">
        <ele>81.9</ele>
        <time>2025-02-26T13:56:47Z</time>
      </trkpt>
      <trkpt lat="48.03897" lon="-3.47754">
        <ele>81.9</ele>
        <time>2025-02-26T13:56:48Z</time>
      </trkpt>
      <trkpt lat="48.03897" lon="-3.47752">
        <ele>81.7</ele>
        <time>2025-02-26T13:56:49Z</time>
      </trkpt>
      <trkpt lat="48.03897" lon="-3.47752">
        <ele>81.6</ele>
        <time>2025-02-26T13:56:50Z</time>
      </trkpt>
      <trkpt lat="48.03897" lon="-3.47756">
        <ele>82</ele>
        <time>2025-02-26T13:56:51Z</time>
      </trkpt>
      <trkpt lat="48.03897" lon="-3.47755">
        <ele>81.9</ele>
        <time>2025-02-26T13:56:52Z</time>
      </trkpt>
      <trkpt lat="48.03897" lon="-3.47754">
        <ele>81.7</ele>
        <time>2025-02-26T13:56:53Z</time>
      </trkpt>
      <trkpt lat="48.03897" lon="-3.47752">
        <ele>81.6</ele>
        <time>2025-02-26T13:56:54Z</time>
      </trkpt>
      <trkpt lat="48.03897" lon="-3.4775">
        <ele>81.5</ele>
        <time>2025-02-26T13:56:55Z</time>
      </trkpt>
      <trkpt lat="48.03898" lon="-3.47749">
        <ele>81.6</ele>
        <time>2025-02-26T13:56:56Z</time>
      </trkpt>
      <trkpt lat="48.03898" lon="-3.47748">
        <ele>81.5</ele>
        <time>2025-02-26T13:56:57Z</time>
      </trkpt>
      <trkpt lat="48.03898" lon="-3.47751">
        <ele>81.8</ele>
        <time>2025-02-26T13:56:58Z</time>
      </trkpt>
      <trkpt lat="48.03899" lon="-3.47752">
        <ele>82</ele>
        <time>2025-02-26T13:56:59Z</time>
      </trkpt>
      <trkpt lat="48.03899" lon="-3.47752">
        <ele>82.1</ele>
        <time>2025-02-26T13:57:00Z</time>
      </trkpt>
      <trkpt lat="48.039" lon="-3.47752">
        <ele>82.2</ele>
        <time>2025-02-26T13:57:01Z</time>
      </trkpt>
      <trkpt lat="48.039" lon="-3.47753">
        <ele>82.2</ele>
        <time>2025-02-26T13:57:02Z</time>
      </trkpt>
      <trkpt lat="48.03899" lon="-3.47751">
        <ele>81.9</ele>
        <time>2025-02-26T13:57:03Z</time>
      </trkpt>
      <trkpt lat="48.03899" lon="-3.47749">
        <ele>81.8</ele>
        <time>2025-02-26T13:57:04Z</time>
      </trkpt>
      <trkpt lat="48.03899" lon="-3.47748">
        <ele>81.7</ele>
        <time>2025-02-26T13:57:05Z</time>
      </trkpt>
      <trkpt lat="48.039" lon="-3.47747">
        <ele>81.6</ele>
        <time>2025-02-26T13:57:06Z</time>
      </trkpt>
      <trkpt lat="48.039" lon="-3.47746">
        <ele>81.6</ele>
        <time>2025-02-26T13:57:07Z</time>
      </trkpt>
      <trkpt lat="48.039" lon="-3.47744">
        <ele>81.5</ele>
        <time>2025-02-26T13:57:08Z</time>
      </trkpt>
      <trkpt lat="48.039" lon="-3.47743">
        <ele>81.4</ele>
        <time>2025-02-26T13:57:09Z</time>
      </trkpt>
      <trkpt lat="48.039" lon="-3.47742">
        <ele>81.2</ele>
        <time>2025-02-26T13:57:10Z</time>
      </trkpt>
      <trkpt lat="48.039" lon="-3.47744">
        <ele>81.3</ele>
        <time>2025-02-26T13:57:11Z</time>
      </trkpt>
      <trkpt lat="48.03899" lon="-3.47742">
        <ele>81.1</ele>
        <time>2025-02-26T13:57:12Z</time>
      </trkpt>
      <trkpt lat="48.03899" lon="-3.47741">
        <ele>80.9</ele>
        <time>2025-02-26T13:57:13Z</time>
      </trkpt>
      <trkpt lat="48.03899" lon="-3.4774">
        <ele>80.8</ele>
        <time>2025-02-26T13:57:14Z</time>
      </trkpt>
      <trkpt lat="48.03898" lon="-3.47739">
        <ele>80.6</ele>
        <time>2025-02-26T13:57:15Z</time>
      </trkpt>
      <trkpt lat="48.03898" lon="-3.47738">
        <ele>80.5</ele>
        <time>2025-02-26T13:57:16Z</time>
      </trkpt>
      <trkpt lat="48.03898" lon="-3.47737">
        <ele>80.4</ele>
        <time>2025-02-26T13:57:17Z</time>
      </trkpt>
      <trkpt lat="48.03898" lon="-3.47736">
        <ele>80.4</ele>
        <time>2025-02-26T13:57:18Z</time>
      </trkpt>
      <trkpt lat="48.03899" lon="-3.47735">
        <ele>80.3</ele>
        <time>2025-02-26T13:57:19Z</time>
      </trkpt>
      <trkpt lat="48.03899" lon="-3.47733">
        <ele>80.2</ele>
        <time>2025-02-26T13:57:20Z</time>
      </trkpt>
      <trkpt lat="48.03899" lon="-3.47732">
        <ele>80</ele>
        <time>2025-02-26T13:57:21Z</time>
      </trkpt>
      <trkpt lat="48.039" lon="-3.4773">
        <ele>80</ele>
        <time>2025-02-26T13:57:22Z</time>
      </trkpt>
      <trkpt lat="48.039" lon="-3.47729">
        <ele>79.9</ele>
        <time>2025-02-26T13:57:23Z</time>
      </trkpt>
      <trkpt lat="48.03901" lon="-3.47729">
        <ele>80</ele>
        <time>2025-02-26T13:57:24Z</time>
      </trkpt>
      <trkpt lat="48.03901" lon="-3.47727">
        <ele>79.9</ele>
        <time>2025-02-26T13:57:25Z</time>
      </trkpt>
      <trkpt lat="48.03901" lon="-3.47726">
        <ele>79.7</ele>
        <time>2025-02-26T13:57:26Z</time>
      </trkpt>
      <trkpt lat="48.03901" lon="-3.47725">
        <ele>79.6</ele>
        <time>2025-02-26T13:57:27Z</time>
      </trkpt>
      <trkpt lat="48.03901" lon="-3.47724">
        <ele>79.5</ele>
        <time>2025-02-26T13:57:28Z</time>
      </trkpt>
      <trkpt lat="48.03901" lon="-3.47723">
        <ele>79.4</ele>
        <time>2025-02-26T13:57:29Z</time>
      </trkpt>
      <trkpt lat="48.03901" lon="-3.47722">
        <ele>79.3</ele>
        <time>2025-02-26T13:57:30Z</time>
      </trkpt>
      <trkpt lat="48.03901" lon="-3.47722">
        <ele>79.3</ele>
        <time>2025-02-26T13:57:31Z</time>
      </trkpt>
      <trkpt lat="48.03903" lon="-3.47727">
        <ele>80</ele>
        <time>2025-02-26T13:57:32Z</time>
      </trkpt>
      <trkpt lat="48.03903" lon="-3.47728">
        <ele>80.2</ele>
        <time>2025-02-26T13:57:33Z</time>
      </trkpt>
      <trkpt lat="48.03904" lon="-3.47727">
        <ele>80.1</ele>
        <time>2025-02-26T13:57:34Z</time>
      </trkpt>
      <trkpt lat="48.03904" lon="-3.47727">
        <ele>80.1</ele>
        <time>2025-02-26T13:57:35Z</time>
      </trkpt>
      <trkpt lat="48.03904" lon="-3.47726">
        <ele>80</ele>
        <time>2025-02-26T13:57:36Z</time>
      </trkpt>
      <trkpt lat="48.03904" lon="-3.47726">
        <ele>80</ele>
        <time>2025-02-26T13:57:37Z</time>
      </trkpt>
      <trkpt lat="48.03904" lon="-3.47724">
        <ele>79.8</ele>
        <time>2025-02-26T13:57:38Z</time>
      </trkpt>
      <trkpt lat="48.03904" lon="-3.47723">
        <ele>79.7</ele>
        <time>2025-02-26T13:57:39Z</time>
      </trkpt>
      <trkpt lat="48.03904" lon="-3.47722">
        <ele>79.6</ele>
        <time>2025-02-26T13:57:40Z</time>
      </trkpt>
      <trkpt lat="48.03904" lon="-3.4772">
        <ele>79.5</ele>
        <time>2025-02-26T13:57:41Z</time>
      </trkpt>
      <trkpt lat="48.03904" lon="-3.47719">
        <ele>79.3</ele>
        <time>2025-02-26T13:57:42Z</time>
      </trkpt>
      <trkpt lat="48.03904" lon="-3.47717">
        <ele>79.2</ele>
        <time>2025-02-26T13:57:43Z</time>
      </trkpt>
      <trkpt lat="48.03903" lon="-3.47715">
        <ele>79</ele>
        <time>2025-02-26T13:57:44Z</time>
      </trkpt>
      <trkpt lat="48.03903" lon="-3.47714">
        <ele>78.8</ele>
        <time>2025-02-26T13:57:45Z</time>
      </trkpt>
      <trkpt lat="48.03902" lon="-3.47711">
        <ele>78.7</ele>
        <time>2025-02-26T13:57:46Z</time>
      </trkpt>
      <trkpt lat="48.03902" lon="-3.47709">
        <ele>78.5</ele>
        <time>2025-02-26T13:57:47Z</time>
      </trkpt>
      <trkpt lat="48.03902" lon="-3.47708">
        <ele>78.4</ele>
        <time>2025-02-26T13:57:48Z</time>
      </trkpt>
      <trkpt lat="48.03901" lon="-3.47706">
        <ele>78.2</ele>
        <time>2025-02-26T13:57:49Z</time>
      </trkpt>
      <trkpt lat="48.03901" lon="-3.47705">
        <ele>78.1</ele>
        <time>2025-02-26T13:57:50Z</time>
      </trkpt>
      <trkpt lat="48.039" lon="-3.47703">
        <ele>78</ele>
        <time>2025-02-26T13:57:51Z</time>
      </trkpt>
      <trkpt lat="48.039" lon="-3.47702">
        <ele>77.9</ele>
        <time>2025-02-26T13:57:52Z</time>
      </trkpt>
      <trkpt lat="48.03899" lon="-3.47703">
        <ele>77.9</ele>
        <time>2025-02-26T13:57:53Z</time>
      </trkpt>
      <trkpt lat="48.03898" lon="-3.47703">
        <ele>77.8</ele>
        <time>2025-02-26T13:57:54Z</time>
      </trkpt>
      <trkpt lat="48.03897" lon="-3.47704">
        <ele>77.9</ele>
        <time>2025-02-26T13:57:55Z</time>
      </trkpt>
      <trkpt lat="48.03897" lon="-3.47705">
        <ele>77.9</ele>
        <time>2025-02-26T13:57:56Z</time>
      </trkpt>
      <trkpt lat="48.03896" lon="-3.47706">
        <ele>77.8</ele>
        <time>2025-02-26T13:57:57Z</time>
      </trkpt>
      <trkpt lat="48.03895" lon="-3.47706">
        <ele>77.8</ele>
        <time>2025-02-26T13:57:58Z</time>
      </trkpt>
      <trkpt lat="48.03894" lon="-3.47707">
        <ele>77.8</ele>
        <time>2025-02-26T13:57:59Z</time>
      </trkpt>
      <trkpt lat="48.03893" lon="-3.47708">
        <ele>77.8</ele>
        <time>2025-02-26T13:58:00Z</time>
      </trkpt>
      <trkpt lat="48.03892" lon="-3.47708">
        <ele>77.7</ele>
        <time>2025-02-26T13:58:01Z</time>
      </trkpt>
      <trkpt lat="48.03892" lon="-3.47709">
        <ele>77.7</ele>
        <time>2025-02-26T13:58:02Z</time>
      </trkpt>
      <trkpt lat="48.03891" lon="-3.4771">
        <ele>77.7</ele>
        <time>2025-02-26T13:58:03Z</time>
      </trkpt>
      <trkpt lat="48.0389" lon="-3.4771">
        <ele>77.6</ele>
        <time>2025-02-26T13:58:04Z</time>
      </trkpt>
      <trkpt lat="48.03889" lon="-3.4771">
        <ele>77.6</ele>
        <time>2025-02-26T13:58:05Z</time>
      </trkpt>
      <trkpt lat="48.03889" lon="-3.4771">
        <ele>77.6</ele>
        <time>2025-02-26T13:58:06Z</time>
      </trkpt>
      <trkpt lat="48.03888" lon="-3.47712">
        <ele>77.6</ele>
        <time>2025-02-26T13:58:07Z</time>
      </trkpt>
      <trkpt lat="48.03888" lon="-3.47713">
        <ele>77.6</ele>
        <time>2025-02-26T13:58:08Z</time>
      </trkpt>
      <trkpt lat="48.03889" lon="-3.47713">
        <ele>77.7</ele>
        <time>2025-02-26T13:58:09Z</time>
      </trkpt>
      <trkpt lat="48.03889" lon="-3.47713">
        <ele>77.7</ele>
        <time>2025-02-26T13:58:10Z</time>
      </trkpt>
      <trkpt lat="48.0389" lon="-3.47713">
        <ele>77.7</ele>
        <time>2025-02-26T13:58:11Z</time>
      </trkpt>
      <trkpt lat="48.0389" lon="-3.47713">
        <ele>77.7</ele>
        <time>2025-02-26T13:58:12Z</time>
      </trkpt>
      <trkpt lat="48.0389" lon="-3.47713">
        <ele>77.7</ele>
        <time>2025-02-26T13:58:13Z</time>
      </trkpt>
      <trkpt lat="48.0389" lon="-3.47713">
        <ele>77.7</ele>
        <time>2025-02-26T13:58:14Z</time>
      </trkpt>
      <trkpt lat="48.0389" lon="-3.47713">
        <ele>77.7</ele>
        <time>2025-02-26T13:58:15Z</time>
      </trkpt>
      <trkpt lat="48.0389" lon="-3.47713">
        <ele>77.7</ele>
        <time>2025-02-26T13:58:16Z</time>
      </trkpt>
      <trkpt lat="48.0389" lon="-3.47713">
        <ele>77.7</ele>
        <time>2025-02-26T13:58:17Z</time>
      </trkpt>
      <trkpt lat="48.0389" lon="-3.47713">
        <ele>77.7</ele>
        <time>2025-02-26T13:58:18Z</time>
      </trkpt>
      <trkpt lat="48.0389" lon="-3.47713">
        <ele>77.7</ele>
        <time>2025-02-26T13:58:19Z</time>
      </trkpt>
      <trkpt lat="48.0389" lon="-3.47713">
        <ele>77.7</ele>
        <time>2025-02-26T13:58:20Z</time>
      </trkpt>
      <trkpt lat="48.0389" lon="-3.47713">
        <ele>77.7</ele>
        <time>2025-02-26T13:58:21Z</time>
      </trkpt>
      <trkpt lat="48.0389" lon="-3.47713">
        <ele>77.8</ele>
        <time>2025-02-26T13:58:22Z</time>
      </trkpt>
      <trkpt lat="48.0389" lon="-3.47713">
        <ele>77.7</ele>
        <time>2025-02-26T13:58:23Z</time>
      </trkpt>
      <trkpt lat="48.03889" lon="-3.47713">
        <ele>77.7</ele>
        <time>2025-02-26T13:58:24Z</time>
      </trkpt>
      <trkpt lat="48.03889" lon="-3.47712">
        <ele>77.6</ele>
        <time>2025-02-26T13:58:25Z</time>
      </trkpt>
      <trkpt lat="48.03889" lon="-3.47711">
        <ele>77.6</ele>
        <time>2025-02-26T13:58:26Z</time>
      </trkpt>
      <trkpt lat="48.03888" lon="-3.47711">
        <ele>77.6</ele>
        <time>2025-02-26T13:58:27Z</time>
      </trkpt>
      <trkpt lat="48.03887" lon="-3.47711">
        <ele>77.5</ele>
        <time>2025-02-26T13:58:28Z</time>
      </trkpt>
      <trkpt lat="48.03886" lon="-3.4771">
        <ele>77.5</ele>
        <time>2025-02-26T13:58:29Z</time>
      </trkpt>
      <trkpt lat="48.03885" lon="-3.4771">
        <ele>77.5</ele>
        <time>2025-02-26T13:58:30Z</time>
      </trkpt>
      <trkpt lat="48.03884" lon="-3.47709">
        <ele>77.4</ele>
        <time>2025-02-26T13:58:31Z</time>
      </trkpt>
      <trkpt lat="48.03884" lon="-3.47708">
        <ele>77.4</ele>
        <time>2025-02-26T13:58:32Z</time>
      </trkpt>
      <trkpt lat="48.03883" lon="-3.47708">
        <ele>77.4</ele>
        <time>2025-02-26T13:58:33Z</time>
      </trkpt>
      <trkpt lat="48.03882" lon="-3.47707">
        <ele>77.4</ele>
        <time>2025-02-26T13:58:34Z</time>
      </trkpt>
      <trkpt lat="48.03882" lon="-3.47707">
        <ele>77.3</ele>
        <time>2025-02-26T13:58:35Z</time>
      </trkpt>
      <trkpt lat="48.03881" lon="-3.47706">
        <ele>77.3</ele>
        <time>2025-02-26T13:58:36Z</time>
      </trkpt>
      <trkpt lat="48.0388" lon="-3.47705">
        <ele>77.3</ele>
        <time>2025-02-26T13:58:37Z</time>
      </trkpt>
      <trkpt lat="48.03879" lon="-3.47704">
        <ele>77.2</ele>
        <time>2025-02-26T13:58:38Z</time>
      </trkpt>
      <trkpt lat="48.03878" lon="-3.47703">
        <ele>77.2</ele>
        <time>2025-02-26T13:58:39Z</time>
      </trkpt>
      <trkpt lat="48.03877" lon="-3.47702">
        <ele>77.2</ele>
        <time>2025-02-26T13:58:40Z</time>
      </trkpt>
      <trkpt lat="48.03876" lon="-3.47701">
        <ele>77.1</ele>
        <time>2025-02-26T13:58:41Z</time>
      </trkpt>
      <trkpt lat="48.03875" lon="-3.47699">
        <ele>77.1</ele>
        <time>2025-02-26T13:58:42Z</time>
      </trkpt>
      <trkpt lat="48.03875" lon="-3.47698">
        <ele>77.1</ele>
        <time>2025-02-26T13:58:43Z</time>
      </trkpt>
      <trkpt lat="48.03874" lon="-3.47698">
        <ele>77.1</ele>
        <time>2025-02-26T13:58:44Z</time>
      </trkpt>
      <trkpt lat="48.03874" lon="-3.47696">
        <ele>77</ele>
        <time>2025-02-26T13:58:45Z</time>
      </trkpt>
      <trkpt lat="48.03873" lon="-3.47695">
        <ele>77</ele>
        <time>2025-02-26T13:58:46Z</time>
      </trkpt>
      <trkpt lat="48.03872" lon="-3.47694">
        <ele>77</ele>
        <time>2025-02-26T13:58:47Z</time>
      </trkpt>
      <trkpt lat="48.03871" lon="-3.47694">
        <ele>77</ele>
        <time>2025-02-26T13:58:48Z</time>
      </trkpt>
      <trkpt lat="48.0387" lon="-3.47693">
        <ele>77</ele>
        <time>2025-02-26T13:58:49Z</time>
      </trkpt>
      <trkpt lat="48.03869" lon="-3.47692">
        <ele>76.9</ele>
        <time>2025-02-26T13:58:50Z</time>
      </trkpt>
      <trkpt lat="48.03868" lon="-3.47691">
        <ele>76.9</ele>
        <time>2025-02-26T13:58:51Z</time>
      </trkpt>
      <trkpt lat="48.03868" lon="-3.47691">
        <ele>76.9</ele>
        <time>2025-02-26T13:58:52Z</time>
      </trkpt>
      <trkpt lat="48.03867" lon="-3.4769">
        <ele>76.8</ele>
        <time>2025-02-26T13:58:53Z</time>
      </trkpt>
      <trkpt lat="48.03866" lon="-3.4769">
        <ele>76.8</ele>
        <time>2025-02-26T13:58:54Z</time>
      </trkpt>
      <trkpt lat="48.03865" lon="-3.47689">
        <ele>76.8</ele>
        <time>2025-02-26T13:58:55Z</time>
      </trkpt>
      <trkpt lat="48.03865" lon="-3.47688">
        <ele>76.8</ele>
        <time>2025-02-26T13:58:56Z</time>
      </trkpt>
      <trkpt lat="48.03864" lon="-3.47687">
        <ele>76.7</ele>
        <time>2025-02-26T13:58:57Z</time>
      </trkpt>
      <trkpt lat="48.03863" lon="-3.47686">
        <ele>76.7</ele>
        <time>2025-02-26T13:58:58Z</time>
      </trkpt>
      <trkpt lat="48.03862" lon="-3.47684">
        <ele>76.6</ele>
        <time>2025-02-26T13:58:59Z</time>
      </trkpt>
      <trkpt lat="48.03861" lon="-3.47683">
        <ele>76.6</ele>
        <time>2025-02-26T13:59:00Z</time>
      </trkpt>
      <trkpt lat="48.0386" lon="-3.47682">
        <ele>76.5</ele>
        <time>2025-02-26T13:59:01Z</time>
      </trkpt>
      <trkpt lat="48.03859" lon="-3.47682">
        <ele>76.5</ele>
        <time>2025-02-26T13:59:02Z</time>
      </trkpt>
      <trkpt lat="48.03858" lon="-3.47681">
        <ele>76.4</ele>
        <time>2025-02-26T13:59:03Z</time>
      </trkpt>
      <trkpt lat="48.03857" lon="-3.47679">
        <ele>76.4</ele>
        <time>2025-02-26T13:59:04Z</time>
      </trkpt>
      <trkpt lat="48.03858" lon="-3.47677">
        <ele>76.3</ele>
        <time>2025-02-26T13:59:05Z</time>
      </trkpt>
      <trkpt lat="48.03858" lon="-3.47676">
        <ele>76.3</ele>
        <time>2025-02-26T13:59:06Z</time>
      </trkpt>
      <trkpt lat="48.03857" lon="-3.47675">
        <ele>76.2</ele>
        <time>2025-02-26T13:59:07Z</time>
      </trkpt>
      <trkpt lat="48.03856" lon="-3.47674">
        <ele>76.2</ele>
        <time>2025-02-26T13:59:08Z</time>
      </trkpt>
      <trkpt lat="48.03855" lon="-3.47674">
        <ele>76.2</ele>
        <time>2025-02-26T13:59:09Z</time>
      </trkpt>
      <trkpt lat="48.03854" lon="-3.47673">
        <ele>76.2</ele>
        <time>2025-02-26T13:59:10Z</time>
      </trkpt>
      <trkpt lat="48.03853" lon="-3.47673">
        <ele>76.2</ele>
        <time>2025-02-26T13:59:11Z</time>
      </trkpt>
      <trkpt lat="48.03852" lon="-3.47672">
        <ele>76.1</ele>
        <time>2025-02-26T13:59:12Z</time>
      </trkpt>
      <trkpt lat="48.03851" lon="-3.47671">
        <ele>76.1</ele>
        <time>2025-02-26T13:59:13Z</time>
      </trkpt>
      <trkpt lat="48.0385" lon="-3.47671">
        <ele>76.1</ele>
        <time>2025-02-26T13:59:14Z</time>
      </trkpt>
      <trkpt lat="48.03849" lon="-3.4767">
        <ele>76.1</ele>
        <time>2025-02-26T13:59:15Z</time>
      </trkpt>
      <trkpt lat="48.03848" lon="-3.47669">
        <ele>76</ele>
        <time>2025-02-26T13:59:16Z</time>
      </trkpt>
      <trkpt lat="48.03847" lon="-3.47668">
        <ele>76</ele>
        <time>2025-02-26T13:59:17Z</time>
      </trkpt>
      <trkpt lat="48.03846" lon="-3.47667">
        <ele>76</ele>
        <time>2025-02-26T13:59:18Z</time>
      </trkpt>
      <trkpt lat="48.03845" lon="-3.47667">
        <ele>76</ele>
        <time>2025-02-26T13:59:19Z</time>
      </trkpt>
      <trkpt lat="48.03844" lon="-3.47667">
        <ele>76</ele>
        <time>2025-02-26T13:59:20Z</time>
      </trkpt>
      <trkpt lat="48.03843" lon="-3.47666">
        <ele>75.9</ele>
        <time>2025-02-26T13:59:21Z</time>
      </trkpt>
      <trkpt lat="48.03842" lon="-3.47665">
        <ele>75.9</ele>
        <time>2025-02-26T13:59:22Z</time>
      </trkpt>
      <trkpt lat="48.03841" lon="-3.47665">
        <ele>75.9</ele>
        <time>2025-02-26T13:59:23Z</time>
      </trkpt>
      <trkpt lat="48.0384" lon="-3.47664">
        <ele>75.8</ele>
        <time>2025-02-26T13:59:24Z</time>
      </trkpt>
      <trkpt lat="48.03839" lon="-3.47663">
        <ele>75.8</ele>
        <time>2025-02-26T13:59:25Z</time>
      </trkpt>
      <trkpt lat="48.03838" lon="-3.47663">
        <ele>75.7</ele>
        <time>2025-02-26T13:59:26Z</time>
      </trkpt>
      <trkpt lat="48.03837" lon="-3.47661">
        <ele>75.6</ele>
        <time>2025-02-26T13:59:27Z</time>
      </trkpt>
      <trkpt lat="48.03836" lon="-3.47661">
        <ele>75.6</ele>
        <time>2025-02-26T13:59:28Z</time>
      </trkpt>
      <trkpt lat="48.03835" lon="-3.47659">
        <ele>75.5</ele>
        <time>2025-02-26T13:59:29Z</time>
      </trkpt>
      <trkpt lat="48.03833" lon="-3.47659">
        <ele>75.4</ele>
        <time>2025-02-26T13:59:30Z</time>
      </trkpt>
      <trkpt lat="48.03832" lon="-3.47658">
        <ele>75.3</ele>
        <time>2025-02-26T13:59:31Z</time>
      </trkpt>
      <trkpt lat="48.03831" lon="-3.47657">
        <ele>75.2</ele>
        <time>2025-02-26T13:59:32Z</time>
      </trkpt>
      <trkpt lat="48.0383" lon="-3.47656">
        <ele>75.2</ele>
        <time>2025-02-26T13:59:33Z</time>
      </trkpt>
      <trkpt lat="48.03829" lon="-3.47655">
        <ele>75.1</ele>
        <time>2025-02-26T13:59:34Z</time>
      </trkpt>
      <trkpt lat="48.03828" lon="-3.47655">
        <ele>75</ele>
        <time>2025-02-26T13:59:35Z</time>
      </trkpt>
      <trkpt lat="48.03826" lon="-3.47654">
        <ele>75</ele>
        <time>2025-02-26T13:59:36Z</time>
      </trkpt>
      <trkpt lat="48.03825" lon="-3.47654">
        <ele>74.9</ele>
        <time>2025-02-26T13:59:37Z</time>
      </trkpt>
      <trkpt lat="48.03824" lon="-3.47655">
        <ele>74.9</ele>
        <time>2025-02-26T13:59:38Z</time>
      </trkpt>
      <trkpt lat="48.03823" lon="-3.47655">
        <ele>74.9</ele>
        <time>2025-02-26T13:59:39Z</time>
      </trkpt>
      <trkpt lat="48.03822" lon="-3.47653">
        <ele>74.8</ele>
        <time>2025-02-26T13:59:40Z</time>
      </trkpt>
      <trkpt lat="48.0382" lon="-3.47653">
        <ele>74.8</ele>
        <time>2025-02-26T13:59:41Z</time>
      </trkpt>
      <trkpt lat="48.03819" lon="-3.47654">
        <ele>74.8</ele>
        <time>2025-02-26T13:59:42Z</time>
      </trkpt>
      <trkpt lat="48.03818" lon="-3.47654">
        <ele>74.8</ele>
        <time>2025-02-26T13:59:43Z</time>
      </trkpt>
      <trkpt lat="48.03817" lon="-3.47652">
        <ele>74.7</ele>
        <time>2025-02-26T13:59:44Z</time>
      </trkpt>
      <trkpt lat="48.03815" lon="-3.47653">
        <ele>74.7</ele>
        <time>2025-02-26T13:59:45Z</time>
      </trkpt>
      <trkpt lat="48.03814" lon="-3.47654">
        <ele>74.7</ele>
        <time>2025-02-26T13:59:46Z</time>
      </trkpt>
      <trkpt lat="48.03813" lon="-3.47652">
        <ele>74.6</ele>
        <time>2025-02-26T13:59:47Z</time>
      </trkpt>
      <trkpt lat="48.03812" lon="-3.47651">
        <ele>74.5</ele>
        <time>2025-02-26T13:59:48Z</time>
      </trkpt>
      <trkpt lat="48.03811" lon="-3.47651">
        <ele>74.5</ele>
        <time>2025-02-26T13:59:49Z</time>
      </trkpt>
      <trkpt lat="48.0381" lon="-3.47652">
        <ele>74.5</ele>
        <time>2025-02-26T13:59:50Z</time>
      </trkpt>
      <trkpt lat="48.03809" lon="-3.47652">
        <ele>74.5</ele>
        <time>2025-02-26T13:59:51Z</time>
      </trkpt>
      <trkpt lat="48.03808" lon="-3.47652">
        <ele>74.5</ele>
        <time>2025-02-26T13:59:52Z</time>
      </trkpt>
      <trkpt lat="48.03807" lon="-3.47652">
        <ele>74.5</ele>
        <time>2025-02-26T13:59:53Z</time>
      </trkpt>
      <trkpt lat="48.03805" lon="-3.47652">
        <ele>74.5</ele>
        <time>2025-02-26T13:59:54Z</time>
      </trkpt>
      <trkpt lat="48.03804" lon="-3.47652">
        <ele>74.5</ele>
        <time>2025-02-26T13:59:55Z</time>
      </trkpt>
      <trkpt lat="48.03803" lon="-3.47651">
        <ele>74.4</ele>
        <time>2025-02-26T13:59:56Z</time>
      </trkpt>
      <trkpt lat="48.03802" lon="-3.47651">
        <ele>74.4</ele>
        <time>2025-02-26T13:59:57Z</time>
      </trkpt>
      <trkpt lat="48.03801" lon="-3.47651">
        <ele>74.4</ele>
        <time>2025-02-26T13:59:58Z</time>
      </trkpt>
      <trkpt lat="48.038" lon="-3.47651">
        <ele>74.5</ele>
        <time>2025-02-26T13:59:59Z</time>
      </trkpt>
      <trkpt lat="48.03799" lon="-3.47652">
        <ele>74.5</ele>
        <time>2025-02-26T14:00:00Z</time>
      </trkpt>
      <trkpt lat="48.03797" lon="-3.47652">
        <ele>74.5</ele>
        <time>2025-02-26T14:00:01Z</time>
      </trkpt>
      <trkpt lat="48.03796" lon="-3.47653">
        <ele>74.5</ele>
        <time>2025-02-26T14:00:02Z</time>
      </trkpt>
      <trkpt lat="48.03795" lon="-3.47652">
        <ele>74.5</ele>
        <time>2025-02-26T14:00:03Z</time>
      </trkpt>
      <trkpt lat="48.03795" lon="-3.47649">
        <ele>74.4</ele>
        <time>2025-02-26T14:00:04Z</time>
      </trkpt>
      <trkpt lat="48.03795" lon="-3.47647">
        <ele>74.3</ele>
        <time>2025-02-26T14:00:05Z</time>
      </trkpt>
      <trkpt lat="48.03794" lon="-3.47647">
        <ele>74.3</ele>
        <time>2025-02-26T14:00:06Z</time>
      </trkpt>
      <trkpt lat="48.03793" lon="-3.47647">
        <ele>74.3</ele>
        <time>2025-02-26T14:00:07Z</time>
      </trkpt>
      <trkpt lat="48.03792" lon="-3.47648">
        <ele>74.3</ele>
        <time>2025-02-26T14:00:08Z</time>
      </trkpt>
      <trkpt lat="48.03791" lon="-3.47647">
        <ele>74.3</ele>
        <time>2025-02-26T14:00:09Z</time>
      </trkpt>
      <trkpt lat="48.0379" lon="-3.47647">
        <ele>74.3</ele>
        <time>2025-02-26T14:00:10Z</time>
      </trkpt>
      <trkpt lat="48.03788" lon="-3.47647">
        <ele>74.3</ele>
        <time>2025-02-26T14:00:11Z</time>
      </trkpt>
      <trkpt lat="48.03787" lon="-3.47647">
        <ele>74.3</ele>
        <time>2025-02-26T14:00:12Z</time>
      </trkpt>
      <trkpt lat="48.03787" lon="-3.47646">
        <ele>74.2</ele>
        <time>2025-02-26T14:00:13Z</time>
      </trkpt>
      <trkpt lat="48.03786" lon="-3.47645">
        <ele>74.2</ele>
        <time>2025-02-26T14:00:14Z</time>
      </trkpt>
      <trkpt lat="48.03785" lon="-3.47644">
        <ele>74.2</ele>
        <time>2025-02-26T14:00:15Z</time>
      </trkpt>
      <trkpt lat="48.03785" lon="-3.47644">
        <ele>74.2</ele>
        <time>2025-02-26T14:00:16Z</time>
      </trkpt>
      <trkpt lat="48.03783" lon="-3.47644">
        <ele>74.2</ele>
        <time>2025-02-26T14:00:17Z</time>
      </trkpt>
      <trkpt lat="48.03782" lon="-3.47644">
        <ele>74.2</ele>
        <time>2025-02-26T14:00:18Z</time>
      </trkpt>
      <trkpt lat="48.03781" lon="-3.47645">
        <ele>74.2</ele>
        <time>2025-02-26T14:00:19Z</time>
      </trkpt>
      <trkpt lat="48.0378" lon="-3.47647">
        <ele>74.3</ele>
        <time>2025-02-26T14:00:20Z</time>
      </trkpt>
      <trkpt lat="48.03778" lon="-3.47647">
        <ele>74.3</ele>
        <time>2025-02-26T14:00:21Z</time>
      </trkpt>
      <trkpt lat="48.03777" lon="-3.47647">
        <ele>74.3</ele>
        <time>2025-02-26T14:00:22Z</time>
      </trkpt>
      <trkpt lat="48.03776" lon="-3.47648">
        <ele>74.3</ele>
        <time>2025-02-26T14:00:23Z</time>
      </trkpt>
      <trkpt lat="48.03776" lon="-3.47648">
        <ele>74.3</ele>
        <time>2025-02-26T14:00:24Z</time>
      </trkpt>
      <trkpt lat="48.03775" lon="-3.47648">
        <ele>74.2</ele>
        <time>2025-02-26T14:00:25Z</time>
      </trkpt>
      <trkpt lat="48.03774" lon="-3.47649">
        <ele>74.2</ele>
        <time>2025-02-26T14:00:26Z</time>
      </trkpt>
      <trkpt lat="48.03773" lon="-3.47649">
        <ele>74.2</ele>
        <time>2025-02-26T14:00:27Z</time>
      </trkpt>
      <trkpt lat="48.03771" lon="-3.47649">
        <ele>74.1</ele>
        <time>2025-02-26T14:00:28Z</time>
      </trkpt>
      <trkpt lat="48.0377" lon="-3.47648">
        <ele>74.1</ele>
        <time>2025-02-26T14:00:29Z</time>
      </trkpt>
      <trkpt lat="48.03769" lon="-3.47647">
        <ele>74</ele>
        <time>2025-02-26T14:00:30Z</time>
      </trkpt>
      <trkpt lat="48.03768" lon="-3.47647">
        <ele>74</ele>
        <time>2025-02-26T14:00:31Z</time>
      </trkpt>
      <trkpt lat="48.03767" lon="-3.47647">
        <ele>73.9</ele>
        <time>2025-02-26T14:00:32Z</time>
      </trkpt>
      <trkpt lat="48.03766" lon="-3.47648">
        <ele>73.9</ele>
        <time>2025-02-26T14:00:33Z</time>
      </trkpt>
      <trkpt lat="48.03765" lon="-3.47647">
        <ele>73.8</ele>
        <time>2025-02-26T14:00:34Z</time>
      </trkpt>
      <trkpt lat="48.03765" lon="-3.47646">
        <ele>73.8</ele>
        <time>2025-02-26T14:00:35Z</time>
      </trkpt>
      <trkpt lat="48.03764" lon="-3.47646">
        <ele>73.7</ele>
        <time>2025-02-26T14:00:36Z</time>
      </trkpt>
      <trkpt lat="48.03763" lon="-3.47645">
        <ele>73.7</ele>
        <time>2025-02-26T14:00:37Z</time>
      </trkpt>
      <trkpt lat="48.03762" lon="-3.47644">
        <ele>73.6</ele>
        <time>2025-02-26T14:00:38Z</time>
      </trkpt>
      <trkpt lat="48.03761" lon="-3.47643">
        <ele>73.6</ele>
        <time>2025-02-26T14:00:39Z</time>
      </trkpt>
      <trkpt lat="48.0376" lon="-3.47643">
        <ele>73.5</ele>
        <time>2025-02-26T14:00:40Z</time>
      </trkpt>
      <trkpt lat="48.03759" lon="-3.47643">
        <ele>73.5</ele>
        <time>2025-02-26T14:00:41Z</time>
      </trkpt>
      <trkpt lat="48.03758" lon="-3.47643">
        <ele>73.4</ele>
        <time>2025-02-26T14:00:42Z</time>
      </trkpt>
      <trkpt lat="48.03757" lon="-3.47643">
        <ele>73.4</ele>
        <time>2025-02-26T14:00:43Z</time>
      </trkpt>
      <trkpt lat="48.03756" lon="-3.47643">
        <ele>73.4</ele>
        <time>2025-02-26T14:00:44Z</time>
      </trkpt>
      <trkpt lat="48.03755" lon="-3.47643">
        <ele>73.3</ele>
        <time>2025-02-26T14:00:45Z</time>
      </trkpt>
      <trkpt lat="48.03754" lon="-3.47643">
        <ele>73.3</ele>
        <time>2025-02-26T14:00:46Z</time>
      </trkpt>
      <trkpt lat="48.03753" lon="-3.47643">
        <ele>73.3</ele>
        <time>2025-02-26T14:00:47Z</time>
      </trkpt>
      <trkpt lat="48.03752" lon="-3.47644">
        <ele>73.2</ele>
        <time>2025-02-26T14:00:48Z</time>
      </trkpt>
      <trkpt lat="48.03751" lon="-3.47644">
        <ele>73.2</ele>
        <time>2025-02-26T14:00:49Z</time>
      </trkpt>
      <trkpt lat="48.0375" lon="-3.47644">
        <ele>73.2</ele>
        <time>2025-02-26T14:00:50Z</time>
      </trkpt>
      <trkpt lat="48.03749" lon="-3.47644">
        <ele>73.2</ele>
        <time>2025-02-26T14:00:51Z</time>
      </trkpt>
      <trkpt lat="48.03748" lon="-3.47644">
        <ele>73.2</ele>
        <time>2025-02-26T14:00:52Z</time>
      </trkpt>
      <trkpt lat="48.03747" lon="-3.47646">
        <ele>73.2</ele>
        <time>2025-02-26T14:00:53Z</time>
      </trkpt>
      <trkpt lat="48.03746" lon="-3.47646">
        <ele>73.2</ele>
        <time>2025-02-26T14:00:54Z</time>
      </trkpt>
      <trkpt lat="48.03745" lon="-3.47646">
        <ele>73.2</ele>
        <time>2025-02-26T14:00:55Z</time>
      </trkpt>
      <trkpt lat="48.03744" lon="-3.47647">
        <ele>73.2</ele>
        <time>2025-02-26T14:00:56Z</time>
      </trkpt>
      <trkpt lat="48.03743" lon="-3.47648">
        <ele>73.2</ele>
        <time>2025-02-26T14:00:57Z</time>
      </trkpt>
      <trkpt lat="48.03742" lon="-3.47649">
        <ele>73.3</ele>
        <time>2025-02-26T14:00:58Z</time>
      </trkpt>
      <trkpt lat="48.03741" lon="-3.4765">
        <ele>73.3</ele>
        <time>2025-02-26T14:00:59Z</time>
      </trkpt>
      <trkpt lat="48.0374" lon="-3.47651">
        <ele>73.3</ele>
        <time>2025-02-26T14:01:00Z</time>
      </trkpt>
      <trkpt lat="48.03739" lon="-3.47651">
        <ele>73.3</ele>
        <time>2025-02-26T14:01:01Z</time>
      </trkpt>
      <trkpt lat="48.03738" lon="-3.47651">
        <ele>73.3</ele>
        <time>2025-02-26T14:01:02Z</time>
      </trkpt>
      <trkpt lat="48.03737" lon="-3.47651">
        <ele>73.2</ele>
        <time>2025-02-26T14:01:03Z</time>
      </trkpt>
      <trkpt lat="48.03736" lon="-3.47652">
        <ele>73.2</ele>
        <time>2025-02-26T14:01:04Z</time>
      </trkpt>
      <trkpt lat="48.03735" lon="-3.47652">
        <ele>73.2</ele>
        <time>2025-02-26T14:01:05Z</time>
      </trkpt>
      <trkpt lat="48.03734" lon="-3.47652">
        <ele>73.2</ele>
        <time>2025-02-26T14:01:06Z</time>
      </trkpt>
      <trkpt lat="48.03733" lon="-3.47652">
        <ele>73.2</ele>
        <time>2025-02-26T14:01:07Z</time>
      </trkpt>
      <trkpt lat="48.03732" lon="-3.47652">
        <ele>73.2</ele>
        <time>2025-02-26T14:01:08Z</time>
      </trkpt>
      <trkpt lat="48.03731" lon="-3.47652">
        <ele>73.2</ele>
        <time>2025-02-26T14:01:09Z</time>
      </trkpt>
      <trkpt lat="48.0373" lon="-3.47652">
        <ele>73.1</ele>
        <time>2025-02-26T14:01:10Z</time>
      </trkpt>
      <trkpt lat="48.03729" lon="-3.47652">
        <ele>73.1</ele>
        <time>2025-02-26T14:01:11Z</time>
      </trkpt>
      <trkpt lat="48.03728" lon="-3.47653">
        <ele>73.1</ele>
        <time>2025-02-26T14:01:12Z</time>
      </trkpt>
      <trkpt lat="48.03727" lon="-3.47653">
        <ele>73.1</ele>
        <time>2025-02-26T14:01:13Z</time>
      </trkpt>
      <trkpt lat="48.03726" lon="-3.47653">
        <ele>73.1</ele>
        <time>2025-02-26T14:01:14Z</time>
      </trkpt>
      <trkpt lat="48.03725" lon="-3.47653">
        <ele>73</ele>
        <time>2025-02-26T14:01:15Z</time>
      </trkpt>
      <trkpt lat="48.03724" lon="-3.47654">
        <ele>73</ele>
        <time>2025-02-26T14:01:16Z</time>
      </trkpt>
      <trkpt lat="48.03723" lon="-3.47655">
        <ele>73</ele>
        <time>2025-02-26T14:01:17Z</time>
      </trkpt>
      <trkpt lat="48.03722" lon="-3.47656">
        <ele>73</ele>
        <time>2025-02-26T14:01:18Z</time>
      </trkpt>
      <trkpt lat="48.03721" lon="-3.47656">
        <ele>73</ele>
        <time>2025-02-26T14:01:19Z</time>
      </trkpt>
      <trkpt lat="48.0372" lon="-3.47657">
        <ele>73</ele>
        <time>2025-02-26T14:01:20Z</time>
      </trkpt>
      <trkpt lat="48.03719" lon="-3.47657">
        <ele>73</ele>
        <time>2025-02-26T14:01:21Z</time>
      </trkpt>
      <trkpt lat="48.03717" lon="-3.47657">
        <ele>72.9</ele>
        <time>2025-02-26T14:01:22Z</time>
      </trkpt>
      <trkpt lat="48.03716" lon="-3.47658">
        <ele>72.9</ele>
        <time>2025-02-26T14:01:23Z</time>
      </trkpt>
      <trkpt lat="48.03715" lon="-3.47659">
        <ele>72.9</ele>
        <time>2025-02-26T14:01:24Z</time>
      </trkpt>
      <trkpt lat="48.03714" lon="-3.47659">
        <ele>72.9</ele>
        <time>2025-02-26T14:01:25Z</time>
      </trkpt>
      <trkpt lat="48.03713" lon="-3.4766">
        <ele>72.9</ele>
        <time>2025-02-26T14:01:26Z</time>
      </trkpt>
      <trkpt lat="48.03712" lon="-3.47661">
        <ele>72.9</ele>
        <time>2025-02-26T14:01:27Z</time>
      </trkpt>
      <trkpt lat="48.03711" lon="-3.47662">
        <ele>72.9</ele>
        <time>2025-02-26T14:01:28Z</time>
      </trkpt>
      <trkpt lat="48.0371" lon="-3.47662">
        <ele>72.9</ele>
        <time>2025-02-26T14:01:29Z</time>
      </trkpt>
      <trkpt lat="48.03709" lon="-3.47663">
        <ele>72.9</ele>
        <time>2025-02-26T14:01:30Z</time>
      </trkpt>
      <trkpt lat="48.03708" lon="-3.47664">
        <ele>72.9</ele>
        <time>2025-02-26T14:01:31Z</time>
      </trkpt>
      <trkpt lat="48.03707" lon="-3.47664">
        <ele>72.9</ele>
        <time>2025-02-26T14:01:32Z</time>
      </trkpt>
      <trkpt lat="48.03705" lon="-3.47664">
        <ele>72.9</ele>
        <time>2025-02-26T14:01:33Z</time>
      </trkpt>
      <trkpt lat="48.03704" lon="-3.47663">
        <ele>72.9</ele>
        <time>2025-02-26T14:01:34Z</time>
      </trkpt>
      <trkpt lat="48.03703" lon="-3.47663">
        <ele>72.9</ele>
        <time>2025-02-26T14:01:35Z</time>
      </trkpt>
      <trkpt lat="48.03702" lon="-3.47663">
        <ele>72.9</ele>
        <time>2025-02-26T14:01:36Z</time>
      </trkpt>
      <trkpt lat="48.03701" lon="-3.47663">
        <ele>72.9</ele>
        <time>2025-02-26T14:01:37Z</time>
      </trkpt>
      <trkpt lat="48.03699" lon="-3.47663">
        <ele>72.9</ele>
        <time>2025-02-26T14:01:38Z</time>
      </trkpt>
      <trkpt lat="48.03698" lon="-3.47663">
        <ele>72.9</ele>
        <time>2025-02-26T14:01:39Z</time>
      </trkpt>
      <trkpt lat="48.03697" lon="-3.47664">
        <ele>72.9</ele>
        <time>2025-02-26T14:01:40Z</time>
      </trkpt>
      <trkpt lat="48.03695" lon="-3.47664">
        <ele>72.9</ele>
        <time>2025-02-26T14:01:41Z</time>
      </trkpt>
      <trkpt lat="48.03694" lon="-3.47664">
        <ele>72.9</ele>
        <time>2025-02-26T14:01:42Z</time>
      </trkpt>
      <trkpt lat="48.03693" lon="-3.47664">
        <ele>72.9</ele>
        <time>2025-02-26T14:01:43Z</time>
      </trkpt>
      <trkpt lat="48.03692" lon="-3.47664">
        <ele>72.8</ele>
        <time>2025-02-26T14:01:44Z</time>
      </trkpt>
      <trkpt lat="48.03691" lon="-3.47663">
        <ele>72.8</ele>
        <time>2025-02-26T14:01:45Z</time>
      </trkpt>
      <trkpt lat="48.0369" lon="-3.47663">
        <ele>72.7</ele>
        <time>2025-02-26T14:01:46Z</time>
      </trkpt>
      <trkpt lat="48.03688" lon="-3.47663">
        <ele>72.7</ele>
        <time>2025-02-26T14:01:47Z</time>
      </trkpt>
      <trkpt lat="48.03687" lon="-3.47662">
        <ele>72.6</ele>
        <time>2025-02-26T14:01:48Z</time>
      </trkpt>
      <trkpt lat="48.03686" lon="-3.47661">
        <ele>72.6</ele>
        <time>2025-02-26T14:01:49Z</time>
      </trkpt>
      <trkpt lat="48.03685" lon="-3.47661">
        <ele>72.5</ele>
        <time>2025-02-26T14:01:50Z</time>
      </trkpt>
      <trkpt lat="48.03684" lon="-3.47661">
        <ele>72.5</ele>
        <time>2025-02-26T14:01:51Z</time>
      </trkpt>
      <trkpt lat="48.03683" lon="-3.47659">
        <ele>72.4</ele>
        <time>2025-02-26T14:01:52Z</time>
      </trkpt>
      <trkpt lat="48.03682" lon="-3.47658">
        <ele>72.4</ele>
        <time>2025-02-26T14:01:53Z</time>
      </trkpt>
      <trkpt lat="48.03681" lon="-3.47657">
        <ele>72.3</ele>
        <time>2025-02-26T14:01:54Z</time>
      </trkpt>
      <trkpt lat="48.03679" lon="-3.47657">
        <ele>72.3</ele>
        <time>2025-02-26T14:01:55Z</time>
      </trkpt>
      <trkpt lat="48.03678" lon="-3.47656">
        <ele>72.3</ele>
        <time>2025-02-26T14:01:56Z</time>
      </trkpt>
      <trkpt lat="48.03678" lon="-3.47656">
        <ele>72.2</ele>
        <time>2025-02-26T14:01:57Z</time>
      </trkpt>
      <trkpt lat="48.03677" lon="-3.47655">
        <ele>72.2</ele>
        <time>2025-02-26T14:01:58Z</time>
      </trkpt>
      <trkpt lat="48.03675" lon="-3.47655">
        <ele>72.2</ele>
        <time>2025-02-26T14:01:59Z</time>
      </trkpt>
      <trkpt lat="48.03674" lon="-3.47654">
        <ele>72.2</ele>
        <time>2025-02-26T14:02:00Z</time>
      </trkpt>
      <trkpt lat="48.03673" lon="-3.47655">
        <ele>72.1</ele>
        <time>2025-02-26T14:02:01Z</time>
      </trkpt>
      <trkpt lat="48.03672" lon="-3.47654">
        <ele>72.1</ele>
        <time>2025-02-26T14:02:02Z</time>
      </trkpt>
      <trkpt lat="48.03671" lon="-3.47654">
        <ele>72.1</ele>
        <time>2025-02-26T14:02:03Z</time>
      </trkpt>
      <trkpt lat="48.0367" lon="-3.47653">
        <ele>72.1</ele>
        <time>2025-02-26T14:02:04Z</time>
      </trkpt>
      <trkpt lat="48.03669" lon="-3.47653">
        <ele>72</ele>
        <time>2025-02-26T14:02:05Z</time>
      </trkpt>
      <trkpt lat="48.03668" lon="-3.47653">
        <ele>72</ele>
        <time>2025-02-26T14:02:06Z</time>
      </trkpt>
      <trkpt lat="48.03667" lon="-3.47652">
        <ele>72</ele>
        <time>2025-02-26T14:02:07Z</time>
      </trkpt>
      <trkpt lat="48.03666" lon="-3.47651">
        <ele>72</ele>
        <time>2025-02-26T14:02:08Z</time>
      </trkpt>
      <trkpt lat="48.03664" lon="-3.47651">
        <ele>71.9</ele>
        <time>2025-02-26T14:02:09Z</time>
      </trkpt>
      <trkpt lat="48.03663" lon="-3.4765">
        <ele>71.9</ele>
        <time>2025-02-26T14:02:10Z</time>
      </trkpt>
      <trkpt lat="48.03662" lon="-3.47649">
        <ele>71.8</ele>
        <time>2025-02-26T14:02:11Z</time>
      </trkpt>
      <trkpt lat="48.03661" lon="-3.47649">
        <ele>71.8</ele>
        <time>2025-02-26T14:02:12Z</time>
      </trkpt>
      <trkpt lat="48.03659" lon="-3.47649">
        <ele>71.7</ele>
        <time>2025-02-26T14:02:13Z</time>
      </trkpt>
      <trkpt lat="48.03657" lon="-3.47648">
        <ele>71.7</ele>
        <time>2025-02-26T14:02:14Z</time>
      </trkpt>
      <trkpt lat="48.03655" lon="-3.47648">
        <ele>71.6</ele>
        <time>2025-02-26T14:02:15Z</time>
      </trkpt>
      <trkpt lat="48.03654" lon="-3.47648">
        <ele>71.5</ele>
        <time>2025-02-26T14:02:16Z</time>
      </trkpt>
      <trkpt lat="48.03652" lon="-3.47648">
        <ele>71.5</ele>
        <time>2025-02-26T14:02:17Z</time>
      </trkpt>
      <trkpt lat="48.03651" lon="-3.47648">
        <ele>71.5</ele>
        <time>2025-02-26T14:02:18Z</time>
      </trkpt>
      <trkpt lat="48.03651" lon="-3.47649">
        <ele>71.4</ele>
        <time>2025-02-26T14:02:19Z</time>
      </trkpt>
      <trkpt lat="48.0365" lon="-3.47649">
        <ele>71.4</ele>
        <time>2025-02-26T14:02:20Z</time>
      </trkpt>
      <trkpt lat="48.03649" lon="-3.47649">
        <ele>71.4</ele>
        <time>2025-02-26T14:02:21Z</time>
      </trkpt>
      <trkpt lat="48.03648" lon="-3.47648">
        <ele>71.3</ele>
        <time>2025-02-26T14:02:22Z</time>
      </trkpt>
      <trkpt lat="48.03647" lon="-3.47647">
        <ele>71.3</ele>
        <time>2025-02-26T14:02:23Z</time>
      </trkpt>
      <trkpt lat="48.03645" lon="-3.47647">
        <ele>71.2</ele>
        <time>2025-02-26T14:02:24Z</time>
      </trkpt>
      <trkpt lat="48.03644" lon="-3.47647">
        <ele>71.2</ele>
        <time>2025-02-26T14:02:25Z</time>
      </trkpt>
      <trkpt lat="48.03645" lon="-3.47647">
        <ele>71.2</ele>
        <time>2025-02-26T14:02:26Z</time>
      </trkpt>
      <trkpt lat="48.03644" lon="-3.47647">
        <ele>71.2</ele>
        <time>2025-02-26T14:02:27Z</time>
      </trkpt>
      <trkpt lat="48.03642" lon="-3.47648">
        <ele>71.1</ele>
        <time>2025-02-26T14:02:28Z</time>
      </trkpt>
      <trkpt lat="48.03641" lon="-3.47648">
        <ele>71.1</ele>
        <time>2025-02-26T14:02:29Z</time>
      </trkpt>
      <trkpt lat="48.03639" lon="-3.47648">
        <ele>71</ele>
        <time>2025-02-26T14:02:30Z</time>
      </trkpt>
      <trkpt lat="48.03638" lon="-3.47649">
        <ele>71</ele>
        <time>2025-02-26T14:02:31Z</time>
      </trkpt>
      <trkpt lat="48.03636" lon="-3.4765">
        <ele>71</ele>
        <time>2025-02-26T14:02:32Z</time>
      </trkpt>
      <trkpt lat="48.03635" lon="-3.4765">
        <ele>71</ele>
        <time>2025-02-26T14:02:33Z</time>
      </trkpt>
      <trkpt lat="48.03634" lon="-3.47651">
        <ele>71</ele>
        <time>2025-02-26T14:02:34Z</time>
      </trkpt>
      <trkpt lat="48.03633" lon="-3.47652">
        <ele>71</ele>
        <time>2025-02-26T14:02:35Z</time>
      </trkpt>
      <trkpt lat="48.03632" lon="-3.47652">
        <ele>71</ele>
        <time>2025-02-26T14:02:36Z</time>
      </trkpt>
      <trkpt lat="48.0363" lon="-3.47653">
        <ele>71</ele>
        <time>2025-02-26T14:02:37Z</time>
      </trkpt>
      <trkpt lat="48.03629" lon="-3.47654">
        <ele>71</ele>
        <time>2025-02-26T14:02:38Z</time>
      </trkpt>
      <trkpt lat="48.03629" lon="-3.47655">
        <ele>71</ele>
        <time>2025-02-26T14:02:39Z</time>
      </trkpt>
      <trkpt lat="48.03628" lon="-3.47655">
        <ele>71</ele>
        <time>2025-02-26T14:02:40Z</time>
      </trkpt>
      <trkpt lat="48.03627" lon="-3.47656">
        <ele>71</ele>
        <time>2025-02-26T14:02:41Z</time>
      </trkpt>
      <trkpt lat="48.03626" lon="-3.47657">
        <ele>71</ele>
        <time>2025-02-26T14:02:42Z</time>
      </trkpt>
      <trkpt lat="48.03625" lon="-3.47658">
        <ele>71</ele>
        <time>2025-02-26T14:02:43Z</time>
      </trkpt>
      <trkpt lat="48.03623" lon="-3.47659">
        <ele>71</ele>
        <time>2025-02-26T14:02:44Z</time>
      </trkpt>
      <trkpt lat="48.03622" lon="-3.47659">
        <ele>71</ele>
        <time>2025-02-26T14:02:45Z</time>
      </trkpt>
      <trkpt lat="48.03621" lon="-3.47659">
        <ele>71</ele>
        <time>2025-02-26T14:02:46Z</time>
      </trkpt>
      <trkpt lat="48.0362" lon="-3.4766">
        <ele>71</ele>
        <time>2025-02-26T14:02:47Z</time>
      </trkpt>
      <trkpt lat="48.03619" lon="-3.4766">
        <ele>71</ele>
        <time>2025-02-26T14:02:48Z</time>
      </trkpt>
      <trkpt lat="48.03618" lon="-3.47661">
        <ele>71</ele>
        <time>2025-02-26T14:02:49Z</time>
      </trkpt>
      <trkpt lat="48.03617" lon="-3.47661">
        <ele>71</ele>
        <time>2025-02-26T14:02:50Z</time>
      </trkpt>
      <trkpt lat="48.03616" lon="-3.47662">
        <ele>71</ele>
        <time>2025-02-26T14:02:51Z</time>
      </trkpt>
      <trkpt lat="48.03615" lon="-3.47663">
        <ele>71</ele>
        <time>2025-02-26T14:02:52Z</time>
      </trkpt>
      <trkpt lat="48.03614" lon="-3.47663">
        <ele>71</ele>
        <time>2025-02-26T14:02:53Z</time>
      </trkpt>
      <trkpt lat="48.03613" lon="-3.47663">
        <ele>71</ele>
        <time>2025-02-26T14:02:54Z</time>
      </trkpt>
      <trkpt lat="48.03612" lon="-3.47663">
        <ele>71</ele>
        <time>2025-02-26T14:02:55Z</time>
      </trkpt>
      <trkpt lat="48.03611" lon="-3.47662">
        <ele>71</ele>
        <time>2025-02-26T14:02:56Z</time>
      </trkpt>
      <trkpt lat="48.03609" lon="-3.47663">
        <ele>71</ele>
        <time>2025-02-26T14:02:57Z</time>
      </trkpt>
      <trkpt lat="48.03608" lon="-3.47663">
        <ele>71</ele>
        <time>2025-02-26T14:02:58Z</time>
      </trkpt>
      <trkpt lat="48.03607" lon="-3.47662">
        <ele>71</ele>
        <time>2025-02-26T14:02:59Z</time>
      </trkpt>
      <trkpt lat="48.03607" lon="-3.47661">
        <ele>71</ele>
        <time>2025-02-26T14:03:00Z</time>
      </trkpt>
      <trkpt lat="48.03606" lon="-3.4766">
        <ele>71</ele>
        <time>2025-02-26T14:03:01Z</time>
      </trkpt>
      <trkpt lat="48.03605" lon="-3.47659">
        <ele>71</ele>
        <time>2025-02-26T14:03:02Z</time>
      </trkpt>
      <trkpt lat="48.03604" lon="-3.47658">
        <ele>71</ele>
        <time>2025-02-26T14:03:03Z</time>
      </trkpt>
      <trkpt lat="48.03603" lon="-3.47658">
        <ele>71</ele>
        <time>2025-02-26T14:03:04Z</time>
      </trkpt>
      <trkpt lat="48.03601" lon="-3.47657">
        <ele>71</ele>
        <time>2025-02-26T14:03:05Z</time>
      </trkpt>
      <trkpt lat="48.036" lon="-3.47656">
        <ele>71</ele>
        <time>2025-02-26T14:03:06Z</time>
      </trkpt>
      <trkpt lat="48.03599" lon="-3.47656">
        <ele>71</ele>
        <time>2025-02-26T14:03:07Z</time>
      </trkpt>
      <trkpt lat="48.03599" lon="-3.47654">
        <ele>71</ele>
        <time>2025-02-26T14:03:08Z</time>
      </trkpt>
      <trkpt lat="48.03598" lon="-3.47653">
        <ele>71</ele>
        <time>2025-02-26T14:03:09Z</time>
      </trkpt>
      <trkpt lat="48.03597" lon="-3.47652">
        <ele>71</ele>
        <time>2025-02-26T14:03:10Z</time>
      </trkpt>
      <trkpt lat="48.03595" lon="-3.47652">
        <ele>71</ele>
        <time>2025-02-26T14:03:11Z</time>
      </trkpt>
      <trkpt lat="48.03594" lon="-3.4765">
        <ele>71</ele>
        <time>2025-02-26T14:03:12Z</time>
      </trkpt>
      <trkpt lat="48.03593" lon="-3.4765">
        <ele>71</ele>
        <time>2025-02-26T14:03:13Z</time>
      </trkpt>
      <trkpt lat="48.03592" lon="-3.47649">
        <ele>71</ele>
        <time>2025-02-26T14:03:14Z</time>
      </trkpt>
      <trkpt lat="48.03591" lon="-3.47648">
        <ele>71</ele>
        <time>2025-02-26T14:03:15Z</time>
      </trkpt>
      <trkpt lat="48.0359" lon="-3.47648">
        <ele>71</ele>
        <time>2025-02-26T14:03:16Z</time>
      </trkpt>
      <trkpt lat="48.03589" lon="-3.47647">
        <ele>71</ele>
        <time>2025-02-26T14:03:17Z</time>
      </trkpt>
      <trkpt lat="48.03588" lon="-3.47646">
        <ele>71</ele>
        <time>2025-02-26T14:03:18Z</time>
      </trkpt>
      <trkpt lat="48.03587" lon="-3.47645">
        <ele>71</ele>
        <time>2025-02-26T14:03:19Z</time>
      </trkpt>
      <trkpt lat="48.03586" lon="-3.47645">
        <ele>71</ele>
        <time>2025-02-26T14:03:20Z</time>
      </trkpt>
      <trkpt lat="48.03585" lon="-3.47645">
        <ele>71</ele>
        <time>2025-02-26T14:03:21Z</time>
      </trkpt>
      <trkpt lat="48.03584" lon="-3.47645">
        <ele>71</ele>
        <time>2025-02-26T14:03:22Z</time>
      </trkpt>
      <trkpt lat="48.03583" lon="-3.47645">
        <ele>71</ele>
        <time>2025-02-26T14:03:23Z</time>
      </trkpt>
      <trkpt lat="48.03582" lon="-3.47645">
        <ele>70.9</ele>
        <time>2025-02-26T14:03:24Z</time>
      </trkpt>
      <trkpt lat="48.03581" lon="-3.47645">
        <ele>70.9</ele>
        <time>2025-02-26T14:03:25Z</time>
      </trkpt>
      <trkpt lat="48.0358" lon="-3.47644">
        <ele>70.9</ele>
        <time>2025-02-26T14:03:26Z</time>
      </trkpt>
      <trkpt lat="48.03579" lon="-3.47644">
        <ele>70.8</ele>
        <time>2025-02-26T14:03:27Z</time>
      </trkpt>
      <trkpt lat="48.03577" lon="-3.47645">
        <ele>70.8</ele>
        <time>2025-02-26T14:03:28Z</time>
      </trkpt>
      <trkpt lat="48.03576" lon="-3.47646">
        <ele>70.7</ele>
        <time>2025-02-26T14:03:29Z</time>
      </trkpt>
      <trkpt lat="48.03575" lon="-3.47646">
        <ele>70.7</ele>
        <time>2025-02-26T14:03:30Z</time>
      </trkpt>
      <trkpt lat="48.03574" lon="-3.47647">
        <ele>70.7</ele>
        <time>2025-02-26T14:03:31Z</time>
      </trkpt>
      <trkpt lat="48.03573" lon="-3.47647">
        <ele>70.6</ele>
        <time>2025-02-26T14:03:32Z</time>
      </trkpt>
      <trkpt lat="48.03572" lon="-3.47647">
        <ele>70.6</ele>
        <time>2025-02-26T14:03:33Z</time>
      </trkpt>
      <trkpt lat="48.03571" lon="-3.47647">
        <ele>70.5</ele>
        <time>2025-02-26T14:03:34Z</time>
      </trkpt>
      <trkpt lat="48.0357" lon="-3.47648">
        <ele>70.5</ele>
        <time>2025-02-26T14:03:35Z</time>
      </trkpt>
      <trkpt lat="48.03568" lon="-3.47648">
        <ele>70.5</ele>
        <time>2025-02-26T14:03:36Z</time>
      </trkpt>
      <trkpt lat="48.03568" lon="-3.47649">
        <ele>70.4</ele>
        <time>2025-02-26T14:03:37Z</time>
      </trkpt>
      <trkpt lat="48.03566" lon="-3.4765">
        <ele>70.4</ele>
        <time>2025-02-26T14:03:38Z</time>
      </trkpt>
      <trkpt lat="48.03565" lon="-3.4765">
        <ele>70.4</ele>
        <time>2025-02-26T14:03:39Z</time>
      </trkpt>
      <trkpt lat="48.03564" lon="-3.47651">
        <ele>70.3</ele>
        <time>2025-02-26T14:03:40Z</time>
      </trkpt>
      <trkpt lat="48.03563" lon="-3.47651">
        <ele>70.3</ele>
        <time>2025-02-26T14:03:41Z</time>
      </trkpt>
      <trkpt lat="48.03562" lon="-3.47651">
        <ele>70.2</ele>
        <time>2025-02-26T14:03:42Z</time>
      </trkpt>
      <trkpt lat="48.03561" lon="-3.47651">
        <ele>70.2</ele>
        <time>2025-02-26T14:03:43Z</time>
      </trkpt>
      <trkpt lat="48.0356" lon="-3.47652">
        <ele>70.2</ele>
        <time>2025-02-26T14:03:44Z</time>
      </trkpt>
      <trkpt lat="48.03559" lon="-3.47652">
        <ele>70.1</ele>
        <time>2025-02-26T14:03:45Z</time>
      </trkpt>
      <trkpt lat="48.03558" lon="-3.47653">
        <ele>70.1</ele>
        <time>2025-02-26T14:03:46Z</time>
      </trkpt>
      <trkpt lat="48.03557" lon="-3.47653">
        <ele>70</ele>
        <time>2025-02-26T14:03:47Z</time>
      </trkpt>
      <trkpt lat="48.03556" lon="-3.47654">
        <ele>70</ele>
        <time>2025-02-26T14:03:48Z</time>
      </trkpt>
      <trkpt lat="48.03555" lon="-3.47654">
        <ele>70</ele>
        <time>2025-02-26T14:03:49Z</time>
      </trkpt>
      <trkpt lat="48.03554" lon="-3.47654">
        <ele>70</ele>
        <time>2025-02-26T14:03:50Z</time>
      </trkpt>
      <trkpt lat="48.03552" lon="-3.47654">
        <ele>69.9</ele>
        <time>2025-02-26T14:03:51Z</time>
      </trkpt>
      <trkpt lat="48.03551" lon="-3.47655">
        <ele>69.9</ele>
        <time>2025-02-26T14:03:52Z</time>
      </trkpt>
      <trkpt lat="48.0355" lon="-3.47655">
        <ele>69.9</ele>
        <time>2025-02-26T14:03:53Z</time>
      </trkpt>
      <trkpt lat="48.03549" lon="-3.47655">
        <ele>69.9</ele>
        <time>2025-02-26T14:03:54Z</time>
      </trkpt>
      <trkpt lat="48.03548" lon="-3.47656">
        <ele>69.9</ele>
        <time>2025-02-26T14:03:55Z</time>
      </trkpt>
      <trkpt lat="48.03547" lon="-3.47657">
        <ele>69.9</ele>
        <time>2025-02-26T14:03:56Z</time>
      </trkpt>
      <trkpt lat="48.03545" lon="-3.47657">
        <ele>69.9</ele>
        <time>2025-02-26T14:03:57Z</time>
      </trkpt>
      <trkpt lat="48.03544" lon="-3.47657">
        <ele>69.9</ele>
        <time>2025-02-26T14:03:58Z</time>
      </trkpt>
      <trkpt lat="48.03543" lon="-3.47658">
        <ele>69.9</ele>
        <time>2025-02-26T14:03:59Z</time>
      </trkpt>
      <trkpt lat="48.03542" lon="-3.47658">
        <ele>69.8</ele>
        <time>2025-02-26T14:04:00Z</time>
      </trkpt>
      <trkpt lat="48.03541" lon="-3.47658">
        <ele>69.8</ele>
        <time>2025-02-26T14:04:01Z</time>
      </trkpt>
      <trkpt lat="48.0354" lon="-3.47659">
        <ele>69.8</ele>
        <time>2025-02-26T14:04:02Z</time>
      </trkpt>
      <trkpt lat="48.03539" lon="-3.47659">
        <ele>69.8</ele>
        <time>2025-02-26T14:04:03Z</time>
      </trkpt>
      <trkpt lat="48.03538" lon="-3.47659">
        <ele>69.8</ele>
        <time>2025-02-26T14:04:04Z</time>
      </trkpt>
      <trkpt lat="48.03537" lon="-3.4766">
        <ele>69.8</ele>
        <time>2025-02-26T14:04:05Z</time>
      </trkpt>
      <trkpt lat="48.03536" lon="-3.4766">
        <ele>69.8</ele>
        <time>2025-02-26T14:04:06Z</time>
      </trkpt>
      <trkpt lat="48.03535" lon="-3.47661">
        <ele>69.8</ele>
        <time>2025-02-26T14:04:07Z</time>
      </trkpt>
      <trkpt lat="48.03534" lon="-3.4766">
        <ele>69.8</ele>
        <time>2025-02-26T14:04:08Z</time>
      </trkpt>
      <trkpt lat="48.03532" lon="-3.4766">
        <ele>69.8</ele>
        <time>2025-02-26T14:04:09Z</time>
      </trkpt>
      <trkpt lat="48.03532" lon="-3.47661">
        <ele>69.8</ele>
        <time>2025-02-26T14:04:10Z</time>
      </trkpt>
      <trkpt lat="48.03531" lon="-3.47661">
        <ele>69.8</ele>
        <time>2025-02-26T14:04:11Z</time>
      </trkpt>
      <trkpt lat="48.03529" lon="-3.47662">
        <ele>69.8</ele>
        <time>2025-02-26T14:04:12Z</time>
      </trkpt>
      <trkpt lat="48.03528" lon="-3.47662">
        <ele>69.8</ele>
        <time>2025-02-26T14:04:13Z</time>
      </trkpt>
      <trkpt lat="48.03527" lon="-3.47663">
        <ele>69.8</ele>
        <time>2025-02-26T14:04:14Z</time>
      </trkpt>
      <trkpt lat="48.03526" lon="-3.47663">
        <ele>69.8</ele>
        <time>2025-02-26T14:04:15Z</time>
      </trkpt>
      <trkpt lat="48.03525" lon="-3.47664">
        <ele>69.8</ele>
        <time>2025-02-26T14:04:16Z</time>
      </trkpt>
      <trkpt lat="48.03524" lon="-3.47664">
        <ele>69.8</ele>
        <time>2025-02-26T14:04:17Z</time>
      </trkpt>
      <trkpt lat="48.03523" lon="-3.47664">
        <ele>69.8</ele>
        <time>2025-02-26T14:04:18Z</time>
      </trkpt>
      <trkpt lat="48.03523" lon="-3.47665">
        <ele>69.8</ele>
        <time>2025-02-26T14:04:19Z</time>
      </trkpt>
      <trkpt lat="48.03522" lon="-3.47665">
        <ele>69.7</ele>
        <time>2025-02-26T14:04:20Z</time>
      </trkpt>
      <trkpt lat="48.03521" lon="-3.47665">
        <ele>69.7</ele>
        <time>2025-02-26T14:04:21Z</time>
      </trkpt>
      <trkpt lat="48.0352" lon="-3.47666">
        <ele>69.7</ele>
        <time>2025-02-26T14:04:22Z</time>
      </trkpt>
      <trkpt lat="48.03519" lon="-3.47666">
        <ele>69.7</ele>
        <time>2025-02-26T14:04:23Z</time>
      </trkpt>
      <trkpt lat="48.03518" lon="-3.47667">
        <ele>69.6</ele>
        <time>2025-02-26T14:04:24Z</time>
      </trkpt>
      <trkpt lat="48.03517" lon="-3.47667">
        <ele>69.6</ele>
        <time>2025-02-26T14:04:25Z</time>
      </trkpt>
      <trkpt lat="48.03516" lon="-3.47667">
        <ele>69.6</ele>
        <time>2025-02-26T14:04:26Z</time>
      </trkpt>
      <trkpt lat="48.03515" lon="-3.47668">
        <ele>69.5</ele>
        <time>2025-02-26T14:04:27Z</time>
      </trkpt>
      <trkpt lat="48.03513" lon="-3.47669">
        <ele>69.5</ele>
        <time>2025-02-26T14:04:28Z</time>
      </trkpt>
      <trkpt lat="48.03512" lon="-3.47669">
        <ele>69.5</ele>
        <time>2025-02-26T14:04:29Z</time>
      </trkpt>
      <trkpt lat="48.03511" lon="-3.47669">
        <ele>69.5</ele>
        <time>2025-02-26T14:04:30Z</time>
      </trkpt>
      <trkpt lat="48.0351" lon="-3.4767">
        <ele>69.4</ele>
        <time>2025-02-26T14:04:31Z</time>
      </trkpt>
      <trkpt lat="48.03509" lon="-3.47671">
        <ele>69.4</ele>
        <time>2025-02-26T14:04:32Z</time>
      </trkpt>
      <trkpt lat="48.03508" lon="-3.47671">
        <ele>69.4</ele>
        <time>2025-02-26T14:04:33Z</time>
      </trkpt>
      <trkpt lat="48.03507" lon="-3.47671">
        <ele>69.4</ele>
        <time>2025-02-26T14:04:34Z</time>
      </trkpt>
      <trkpt lat="48.03505" lon="-3.47671">
        <ele>69.3</ele>
        <time>2025-02-26T14:04:35Z</time>
      </trkpt>
      <trkpt lat="48.03504" lon="-3.47672">
        <ele>69.3</ele>
        <time>2025-02-26T14:04:36Z</time>
      </trkpt>
      <trkpt lat="48.03503" lon="-3.47672">
        <ele>69.3</ele>
        <time>2025-02-26T14:04:37Z</time>
      </trkpt>
      <trkpt lat="48.03502" lon="-3.47672">
        <ele>69.3</ele>
        <time>2025-02-26T14:04:38Z</time>
      </trkpt>
      <trkpt lat="48.03501" lon="-3.47673">
        <ele>69.2</ele>
        <time>2025-02-26T14:04:39Z</time>
      </trkpt>
      <trkpt lat="48.035" lon="-3.47674">
        <ele>69.2</ele>
        <time>2025-02-26T14:04:40Z</time>
      </trkpt>
      <trkpt lat="48.03498" lon="-3.47675">
        <ele>69.2</ele>
        <time>2025-02-26T14:04:41Z</time>
      </trkpt>
      <trkpt lat="48.03497" lon="-3.47675">
        <ele>69.2</ele>
        <time>2025-02-26T14:04:42Z</time>
      </trkpt>
      <trkpt lat="48.03496" lon="-3.47676">
        <ele>69.1</ele>
        <time>2025-02-26T14:04:43Z</time>
      </trkpt>
      <trkpt lat="48.03495" lon="-3.47676">
        <ele>69.1</ele>
        <time>2025-02-26T14:04:44Z</time>
      </trkpt>
      <trkpt lat="48.03494" lon="-3.47676">
        <ele>69</ele>
        <time>2025-02-26T14:04:45Z</time>
      </trkpt>
      <trkpt lat="48.03492" lon="-3.47676">
        <ele>69</ele>
        <time>2025-02-26T14:04:46Z</time>
      </trkpt>
      <trkpt lat="48.03491" lon="-3.47676">
        <ele>68.9</ele>
        <time>2025-02-26T14:04:47Z</time>
      </trkpt>
      <trkpt lat="48.0349" lon="-3.47675">
        <ele>68.8</ele>
        <time>2025-02-26T14:04:48Z</time>
      </trkpt>
      <trkpt lat="48.03488" lon="-3.47675">
        <ele>68.7</ele>
        <time>2025-02-26T14:04:49Z</time>
      </trkpt>
      <trkpt lat="48.03487" lon="-3.47675">
        <ele>68.7</ele>
        <time>2025-02-26T14:04:50Z</time>
      </trkpt>
      <trkpt lat="48.03486" lon="-3.47676">
        <ele>68.6</ele>
        <time>2025-02-26T14:04:51Z</time>
      </trkpt>
      <trkpt lat="48.03485" lon="-3.47676">
        <ele>68.6</ele>
        <time>2025-02-26T14:04:52Z</time>
      </trkpt>
      <trkpt lat="48.03484" lon="-3.47676">
        <ele>68.6</ele>
        <time>2025-02-26T14:04:53Z</time>
      </trkpt>
      <trkpt lat="48.03482" lon="-3.47677">
        <ele>68.6</ele>
        <time>2025-02-26T14:04:54Z</time>
      </trkpt>
      <trkpt lat="48.03481" lon="-3.47676">
        <ele>68.5</ele>
        <time>2025-02-26T14:04:55Z</time>
      </trkpt>
      <trkpt lat="48.0348" lon="-3.47676">
        <ele>68.4</ele>
        <time>2025-02-26T14:04:56Z</time>
      </trkpt>
      <trkpt lat="48.03478" lon="-3.47677">
        <ele>68.4</ele>
        <time>2025-02-26T14:04:57Z</time>
      </trkpt>
      <trkpt lat="48.03477" lon="-3.47677">
        <ele>68.3</ele>
        <time>2025-02-26T14:04:58Z</time>
      </trkpt>
      <trkpt lat="48.03476" lon="-3.47677">
        <ele>68.2</ele>
        <time>2025-02-26T14:04:59Z</time>
      </trkpt>
      <trkpt lat="48.03475" lon="-3.47677">
        <ele>68.2</ele>
        <time>2025-02-26T14:05:00Z</time>
      </trkpt>
      <trkpt lat="48.03473" lon="-3.47677">
        <ele>68.2</ele>
        <time>2025-02-26T14:05:01Z</time>
      </trkpt>
      <trkpt lat="48.03472" lon="-3.47678">
        <ele>68.3</ele>
        <time>2025-02-26T14:05:02Z</time>
      </trkpt>
      <trkpt lat="48.03471" lon="-3.47679">
        <ele>68.3</ele>
        <time>2025-02-26T14:05:03Z</time>
      </trkpt>
      <trkpt lat="48.0347" lon="-3.47679">
        <ele>68.3</ele>
        <time>2025-02-26T14:05:04Z</time>
      </trkpt>
      <trkpt lat="48.03468" lon="-3.47678">
        <ele>68.2</ele>
        <time>2025-02-26T14:05:05Z</time>
      </trkpt>
      <trkpt lat="48.03467" lon="-3.47678">
        <ele>68.3</ele>
        <time>2025-02-26T14:05:06Z</time>
      </trkpt>
      <trkpt lat="48.03466" lon="-3.47678">
        <ele>68.2</ele>
        <time>2025-02-26T14:05:07Z</time>
      </trkpt>
      <trkpt lat="48.03465" lon="-3.47677">
        <ele>68.2</ele>
        <time>2025-02-26T14:05:08Z</time>
      </trkpt>
      <trkpt lat="48.03463" lon="-3.47677">
        <ele>68.2</ele>
        <time>2025-02-26T14:05:09Z</time>
      </trkpt>
      <trkpt lat="48.03462" lon="-3.47677">
        <ele>68.2</ele>
        <time>2025-02-26T14:05:10Z</time>
      </trkpt>
      <trkpt lat="48.03461" lon="-3.47676">
        <ele>68.2</ele>
        <time>2025-02-26T14:05:11Z</time>
      </trkpt>
      <trkpt lat="48.0346" lon="-3.47675">
        <ele>68.1</ele>
        <time>2025-02-26T14:05:12Z</time>
      </trkpt>
      <trkpt lat="48.03459" lon="-3.47674">
        <ele>68</ele>
        <time>2025-02-26T14:05:13Z</time>
      </trkpt>
      <trkpt lat="48.03458" lon="-3.47674">
        <ele>68</ele>
        <time>2025-02-26T14:05:14Z</time>
      </trkpt>
      <trkpt lat="48.03456" lon="-3.47674">
        <ele>68</ele>
        <time>2025-02-26T14:05:15Z</time>
      </trkpt>
      <trkpt lat="48.03455" lon="-3.47675">
        <ele>68.1</ele>
        <time>2025-02-26T14:05:16Z</time>
      </trkpt>
      <trkpt lat="48.03454" lon="-3.47674">
        <ele>68.1</ele>
        <time>2025-02-26T14:05:17Z</time>
      </trkpt>
      <trkpt lat="48.03453" lon="-3.47673">
        <ele>68.1</ele>
        <time>2025-02-26T14:05:18Z</time>
      </trkpt>
      <trkpt lat="48.03452" lon="-3.47672">
        <ele>68</ele>
        <time>2025-02-26T14:05:19Z</time>
      </trkpt>
      <trkpt lat="48.03451" lon="-3.47672">
        <ele>68.1</ele>
        <time>2025-02-26T14:05:20Z</time>
      </trkpt>
      <trkpt lat="48.0345" lon="-3.47671">
        <ele>68</ele>
        <time>2025-02-26T14:05:21Z</time>
      </trkpt>
      <trkpt lat="48.03449" lon="-3.47671">
        <ele>68.1</ele>
        <time>2025-02-26T14:05:22Z</time>
      </trkpt>
      <trkpt lat="48.03447" lon="-3.47672">
        <ele>68.1</ele>
        <time>2025-02-26T14:05:23Z</time>
      </trkpt>
      <trkpt lat="48.03446" lon="-3.47673">
        <ele>68.2</ele>
        <time>2025-02-26T14:05:24Z</time>
      </trkpt>
      <trkpt lat="48.03445" lon="-3.47674">
        <ele>68.2</ele>
        <time>2025-02-26T14:05:25Z</time>
      </trkpt>
      <trkpt lat="48.03444" lon="-3.47673">
        <ele>68.2</ele>
        <time>2025-02-26T14:05:26Z</time>
      </trkpt>
      <trkpt lat="48.03443" lon="-3.47672">
        <ele>68.2</ele>
        <time>2025-02-26T14:05:27Z</time>
      </trkpt>
      <trkpt lat="48.03442" lon="-3.47671">
        <ele>68.1</ele>
        <time>2025-02-26T14:05:28Z</time>
      </trkpt>
      <trkpt lat="48.03441" lon="-3.47671">
        <ele>68.1</ele>
        <time>2025-02-26T14:05:29Z</time>
      </trkpt>
      <trkpt lat="48.0344" lon="-3.4767">
        <ele>68.1</ele>
        <time>2025-02-26T14:05:30Z</time>
      </trkpt>
      <trkpt lat="48.03439" lon="-3.4767">
        <ele>68.1</ele>
        <time>2025-02-26T14:05:31Z</time>
      </trkpt>
      <trkpt lat="48.03438" lon="-3.4767">
        <ele>68.1</ele>
        <time>2025-02-26T14:05:32Z</time>
      </trkpt>
      <trkpt lat="48.03437" lon="-3.4767">
        <ele>68.1</ele>
        <time>2025-02-26T14:05:33Z</time>
      </trkpt>
      <trkpt lat="48.03436" lon="-3.47668">
        <ele>68.1</ele>
        <time>2025-02-26T14:05:34Z</time>
      </trkpt>
      <trkpt lat="48.03435" lon="-3.47668">
        <ele>68.1</ele>
        <time>2025-02-26T14:05:35Z</time>
      </trkpt>
      <trkpt lat="48.03433" lon="-3.47668">
        <ele>68</ele>
        <time>2025-02-26T14:05:36Z</time>
      </trkpt>
      <trkpt lat="48.03432" lon="-3.47667">
        <ele>68</ele>
        <time>2025-02-26T14:05:37Z</time>
      </trkpt>
      <trkpt lat="48.03431" lon="-3.47667">
        <ele>68</ele>
        <time>2025-02-26T14:05:38Z</time>
      </trkpt>
      <trkpt lat="48.0343" lon="-3.47667">
        <ele>68</ele>
        <time>2025-02-26T14:05:39Z</time>
      </trkpt>
      <trkpt lat="48.03429" lon="-3.47667">
        <ele>68</ele>
        <time>2025-02-26T14:05:40Z</time>
      </trkpt>
      <trkpt lat="48.03428" lon="-3.47667">
        <ele>68</ele>
        <time>2025-02-26T14:05:41Z</time>
      </trkpt>
      <trkpt lat="48.03427" lon="-3.47666">
        <ele>68</ele>
        <time>2025-02-26T14:05:42Z</time>
      </trkpt>
      <trkpt lat="48.03426" lon="-3.47666">
        <ele>68</ele>
        <time>2025-02-26T14:05:43Z</time>
      </trkpt>
      <trkpt lat="48.03425" lon="-3.47666">
        <ele>68</ele>
        <time>2025-02-26T14:05:44Z</time>
      </trkpt>
      <trkpt lat="48.03424" lon="-3.47665">
        <ele>68</ele>
        <time>2025-02-26T14:05:45Z</time>
      </trkpt>
      <trkpt lat="48.03423" lon="-3.47665">
        <ele>68</ele>
        <time>2025-02-26T14:05:46Z</time>
      </trkpt>
      <trkpt lat="48.03422" lon="-3.47665">
        <ele>68</ele>
        <time>2025-02-26T14:05:47Z</time>
      </trkpt>
      <trkpt lat="48.0342" lon="-3.47665">
        <ele>68</ele>
        <time>2025-02-26T14:05:48Z</time>
      </trkpt>
      <trkpt lat="48.03419" lon="-3.47665">
        <ele>67.9</ele>
        <time>2025-02-26T14:05:49Z</time>
      </trkpt>
      <trkpt lat="48.03419" lon="-3.47663">
        <ele>67.9</ele>
        <time>2025-02-26T14:05:50Z</time>
      </trkpt>
      <trkpt lat="48.03417" lon="-3.47663">
        <ele>67.9</ele>
        <time>2025-02-26T14:05:51Z</time>
      </trkpt>
      <trkpt lat="48.03416" lon="-3.47662">
        <ele>67.8</ele>
        <time>2025-02-26T14:05:52Z</time>
      </trkpt>
      <trkpt lat="48.03415" lon="-3.47663">
        <ele>67.8</ele>
        <time>2025-02-26T14:05:53Z</time>
      </trkpt>
      <trkpt lat="48.03414" lon="-3.47664">
        <ele>67.9</ele>
        <time>2025-02-26T14:05:54Z</time>
      </trkpt>
      <trkpt lat="48.03413" lon="-3.47664">
        <ele>67.9</ele>
        <time>2025-02-26T14:05:55Z</time>
      </trkpt>
      <trkpt lat="48.03412" lon="-3.47663">
        <ele>67.9</ele>
        <time>2025-02-26T14:05:56Z</time>
      </trkpt>
      <trkpt lat="48.03411" lon="-3.47663">
        <ele>67.9</ele>
        <time>2025-02-26T14:05:57Z</time>
      </trkpt>
      <trkpt lat="48.03411" lon="-3.47662">
        <ele>67.8</ele>
        <time>2025-02-26T14:05:58Z</time>
      </trkpt>
      <trkpt lat="48.0341" lon="-3.47661">
        <ele>67.8</ele>
        <time>2025-02-26T14:05:59Z</time>
      </trkpt>
      <trkpt lat="48.03408" lon="-3.47661">
        <ele>67.8</ele>
        <time>2025-02-26T14:06:00Z</time>
      </trkpt>
      <trkpt lat="48.03407" lon="-3.4766">
        <ele>67.8</ele>
        <time>2025-02-26T14:06:01Z</time>
      </trkpt>
      <trkpt lat="48.03406" lon="-3.4766">
        <ele>67.7</ele>
        <time>2025-02-26T14:06:02Z</time>
      </trkpt>
      <trkpt lat="48.03405" lon="-3.47659">
        <ele>67.7</ele>
        <time>2025-02-26T14:06:03Z</time>
      </trkpt>
      <trkpt lat="48.03404" lon="-3.47659">
        <ele>67.7</ele>
        <time>2025-02-26T14:06:04Z</time>
      </trkpt>
      <trkpt lat="48.03403" lon="-3.47659">
        <ele>67.7</ele>
        <time>2025-02-26T14:06:05Z</time>
      </trkpt>
      <trkpt lat="48.03402" lon="-3.47659">
        <ele>67.7</ele>
        <time>2025-02-26T14:06:06Z</time>
      </trkpt>
      <trkpt lat="48.03401" lon="-3.47658">
        <ele>67.7</ele>
        <time>2025-02-26T14:06:07Z</time>
      </trkpt>
      <trkpt lat="48.034" lon="-3.47658">
        <ele>67.7</ele>
        <time>2025-02-26T14:06:08Z</time>
      </trkpt>
      <trkpt lat="48.03399" lon="-3.47658">
        <ele>67.7</ele>
        <time>2025-02-26T14:06:09Z</time>
      </trkpt>
      <trkpt lat="48.03397" lon="-3.47658">
        <ele>67.7</ele>
        <time>2025-02-26T14:06:10Z</time>
      </trkpt>
      <trkpt lat="48.03396" lon="-3.47657">
        <ele>67.6</ele>
        <time>2025-02-26T14:06:11Z</time>
      </trkpt>
      <trkpt lat="48.03395" lon="-3.47657">
        <ele>67.7</ele>
        <time>2025-02-26T14:06:12Z</time>
      </trkpt>
      <trkpt lat="48.03394" lon="-3.47657">
        <ele>67.7</ele>
        <time>2025-02-26T14:06:13Z</time>
      </trkpt>
      <trkpt lat="48.03393" lon="-3.47657">
        <ele>67.7</ele>
        <time>2025-02-26T14:06:14Z</time>
      </trkpt>
      <trkpt lat="48.03392" lon="-3.47656">
        <ele>67.6</ele>
        <time>2025-02-26T14:06:15Z</time>
      </trkpt>
      <trkpt lat="48.03391" lon="-3.47656">
        <ele>67.6</ele>
        <time>2025-02-26T14:06:16Z</time>
      </trkpt>
      <trkpt lat="48.0339" lon="-3.47654">
        <ele>67.6</ele>
        <time>2025-02-26T14:06:17Z</time>
      </trkpt>
      <trkpt lat="48.03389" lon="-3.47654">
        <ele>67.5</ele>
        <time>2025-02-26T14:06:18Z</time>
      </trkpt>
      <trkpt lat="48.03388" lon="-3.47654">
        <ele>67.5</ele>
        <time>2025-02-26T14:06:19Z</time>
      </trkpt>
      <trkpt lat="48.03387" lon="-3.47654">
        <ele>67.5</ele>
        <time>2025-02-26T14:06:20Z</time>
      </trkpt>
      <trkpt lat="48.03386" lon="-3.47653">
        <ele>67.5</ele>
        <time>2025-02-26T14:06:21Z</time>
      </trkpt>
      <trkpt lat="48.03385" lon="-3.47653">
        <ele>67.5</ele>
        <time>2025-02-26T14:06:22Z</time>
      </trkpt>
      <trkpt lat="48.03384" lon="-3.47652">
        <ele>67.5</ele>
        <time>2025-02-26T14:06:23Z</time>
      </trkpt>
      <trkpt lat="48.03383" lon="-3.4765">
        <ele>67.4</ele>
        <time>2025-02-26T14:06:24Z</time>
      </trkpt>
      <trkpt lat="48.03382" lon="-3.4765">
        <ele>67.4</ele>
        <time>2025-02-26T14:06:25Z</time>
      </trkpt>
      <trkpt lat="48.03381" lon="-3.4765">
        <ele>67.4</ele>
        <time>2025-02-26T14:06:26Z</time>
      </trkpt>
      <trkpt lat="48.0338" lon="-3.4765">
        <ele>67.4</ele>
        <time>2025-02-26T14:06:27Z</time>
      </trkpt>
      <trkpt lat="48.03379" lon="-3.47649">
        <ele>67.3</ele>
        <time>2025-02-26T14:06:28Z</time>
      </trkpt>
      <trkpt lat="48.03378" lon="-3.47647">
        <ele>67.3</ele>
        <time>2025-02-26T14:06:29Z</time>
      </trkpt>
      <trkpt lat="48.03376" lon="-3.47647">
        <ele>67.3</ele>
        <time>2025-02-26T14:06:30Z</time>
      </trkpt>
      <trkpt lat="48.03375" lon="-3.47647">
        <ele>67.3</ele>
        <time>2025-02-26T14:06:31Z</time>
      </trkpt>
      <trkpt lat="48.03374" lon="-3.47647">
        <ele>67.3</ele>
        <time>2025-02-26T14:06:32Z</time>
      </trkpt>
      <trkpt lat="48.03373" lon="-3.47647">
        <ele>67.3</ele>
        <time>2025-02-26T14:06:33Z</time>
      </trkpt>
      <trkpt lat="48.03372" lon="-3.47647">
        <ele>67.3</ele>
        <time>2025-02-26T14:06:34Z</time>
      </trkpt>
      <trkpt lat="48.0337" lon="-3.47647">
        <ele>67.3</ele>
        <time>2025-02-26T14:06:35Z</time>
      </trkpt>
      <trkpt lat="48.03369" lon="-3.47647">
        <ele>67.3</ele>
        <time>2025-02-26T14:06:36Z</time>
      </trkpt>
      <trkpt lat="48.03368" lon="-3.47647">
        <ele>67.3</ele>
        <time>2025-02-26T14:06:37Z</time>
      </trkpt>
      <trkpt lat="48.03367" lon="-3.47645">
        <ele>67.2</ele>
        <time>2025-02-26T14:06:38Z</time>
      </trkpt>
      <trkpt lat="48.03366" lon="-3.47645">
        <ele>67.2</ele>
        <time>2025-02-26T14:06:39Z</time>
      </trkpt>
      <trkpt lat="48.03365" lon="-3.47644">
        <ele>67.2</ele>
        <time>2025-02-26T14:06:40Z</time>
      </trkpt>
      <trkpt lat="48.03363" lon="-3.47644">
        <ele>67.2</ele>
        <time>2025-02-26T14:06:41Z</time>
      </trkpt>
      <trkpt lat="48.03362" lon="-3.47644">
        <ele>67.2</ele>
        <time>2025-02-26T14:06:42Z</time>
      </trkpt>
      <trkpt lat="48.03361" lon="-3.47644">
        <ele>67.2</ele>
        <time>2025-02-26T14:06:43Z</time>
      </trkpt>
      <trkpt lat="48.0336" lon="-3.47643">
        <ele>67.1</ele>
        <time>2025-02-26T14:06:44Z</time>
      </trkpt>
      <trkpt lat="48.03359" lon="-3.47643">
        <ele>67.1</ele>
        <time>2025-02-26T14:06:45Z</time>
      </trkpt>
      <trkpt lat="48.03358" lon="-3.47641">
        <ele>67.1</ele>
        <time>2025-02-26T14:06:46Z</time>
      </trkpt>
      <trkpt lat="48.03357" lon="-3.4764">
        <ele>67</ele>
        <time>2025-02-26T14:06:47Z</time>
      </trkpt>
      <trkpt lat="48.03356" lon="-3.47639">
        <ele>67</ele>
        <time>2025-02-26T14:06:48Z</time>
      </trkpt>
      <trkpt lat="48.03355" lon="-3.47639">
        <ele>67</ele>
        <time>2025-02-26T14:06:49Z</time>
      </trkpt>
      <trkpt lat="48.03354" lon="-3.47638">
        <ele>67</ele>
        <time>2025-02-26T14:06:50Z</time>
      </trkpt>
      <trkpt lat="48.03353" lon="-3.47638">
        <ele>67</ele>
        <time>2025-02-26T14:06:51Z</time>
      </trkpt>
      <trkpt lat="48.03352" lon="-3.47638">
        <ele>67</ele>
        <time>2025-02-26T14:06:52Z</time>
      </trkpt>
      <trkpt lat="48.03351" lon="-3.47638">
        <ele>67</ele>
        <time>2025-02-26T14:06:53Z</time>
      </trkpt>
      <trkpt lat="48.0335" lon="-3.47637">
        <ele>67</ele>
        <time>2025-02-26T14:06:54Z</time>
      </trkpt>
      <trkpt lat="48.03349" lon="-3.47636">
        <ele>67</ele>
        <time>2025-02-26T14:06:55Z</time>
      </trkpt>
      <trkpt lat="48.03348" lon="-3.47636">
        <ele>67</ele>
        <time>2025-02-26T14:06:56Z</time>
      </trkpt>
      <trkpt lat="48.03347" lon="-3.47635">
        <ele>67</ele>
        <time>2025-02-26T14:06:57Z</time>
      </trkpt>
      <trkpt lat="48.03346" lon="-3.47635">
        <ele>67</ele>
        <time>2025-02-26T14:06:58Z</time>
      </trkpt>
      <trkpt lat="48.03346" lon="-3.47635">
        <ele>67</ele>
        <time>2025-02-26T14:06:59Z</time>
      </trkpt>
      <trkpt lat="48.03345" lon="-3.47634">
        <ele>67</ele>
        <time>2025-02-26T14:07:00Z</time>
      </trkpt>
      <trkpt lat="48.03344" lon="-3.47634">
        <ele>67</ele>
        <time>2025-02-26T14:07:01Z</time>
      </trkpt>
      <trkpt lat="48.03343" lon="-3.47634">
        <ele>67</ele>
        <time>2025-02-26T14:07:02Z</time>
      </trkpt>
      <trkpt lat="48.03342" lon="-3.47633">
        <ele>67</ele>
        <time>2025-02-26T14:07:03Z</time>
      </trkpt>
      <trkpt lat="48.0334" lon="-3.47633">
        <ele>67</ele>
        <time>2025-02-26T14:07:04Z</time>
      </trkpt>
      <trkpt lat="48.03339" lon="-3.47633">
        <ele>67</ele>
        <time>2025-02-26T14:07:05Z</time>
      </trkpt>
      <trkpt lat="48.03338" lon="-3.47633">
        <ele>67</ele>
        <time>2025-02-26T14:07:06Z</time>
      </trkpt>
      <trkpt lat="48.03337" lon="-3.47632">
        <ele>67</ele>
        <time>2025-02-26T14:07:07Z</time>
      </trkpt>
      <trkpt lat="48.03336" lon="-3.47632">
        <ele>67</ele>
        <time>2025-02-26T14:07:08Z</time>
      </trkpt>
      <trkpt lat="48.03335" lon="-3.47631">
        <ele>67</ele>
        <time>2025-02-26T14:07:09Z</time>
      </trkpt>
      <trkpt lat="48.03334" lon="-3.47631">
        <ele>67</ele>
        <time>2025-02-26T14:07:10Z</time>
      </trkpt>
      <trkpt lat="48.03333" lon="-3.4763">
        <ele>67</ele>
        <time>2025-02-26T14:07:11Z</time>
      </trkpt>
      <trkpt lat="48.03332" lon="-3.47629">
        <ele>67</ele>
        <time>2025-02-26T14:07:12Z</time>
      </trkpt>
      <trkpt lat="48.03331" lon="-3.47629">
        <ele>67</ele>
        <time>2025-02-26T14:07:13Z</time>
      </trkpt>
      <trkpt lat="48.0333" lon="-3.4763">
        <ele>67</ele>
        <time>2025-02-26T14:07:14Z</time>
      </trkpt>
      <trkpt lat="48.03329" lon="-3.47629">
        <ele>66.9</ele>
        <time>2025-02-26T14:07:15Z</time>
      </trkpt>
      <trkpt lat="48.03328" lon="-3.47628">
        <ele>66.9</ele>
        <time>2025-02-26T14:07:16Z</time>
      </trkpt>
      <trkpt lat="48.03327" lon="-3.47627">
        <ele>66.9</ele>
        <time>2025-02-26T14:07:17Z</time>
      </trkpt>
      <trkpt lat="48.03326" lon="-3.47626">
        <ele>66.9</ele>
        <time>2025-02-26T14:07:18Z</time>
      </trkpt>
      <trkpt lat="48.03325" lon="-3.47626">
        <ele>66.9</ele>
        <time>2025-02-26T14:07:19Z</time>
      </trkpt>
      <trkpt lat="48.03324" lon="-3.47625">
        <ele>66.8</ele>
        <time>2025-02-26T14:07:20Z</time>
      </trkpt>
      <trkpt lat="48.03323" lon="-3.47625">
        <ele>66.8</ele>
        <time>2025-02-26T14:07:21Z</time>
      </trkpt>
      <trkpt lat="48.03322" lon="-3.47624">
        <ele>66.8</ele>
        <time>2025-02-26T14:07:22Z</time>
      </trkpt>
      <trkpt lat="48.03321" lon="-3.47624">
        <ele>66.8</ele>
        <time>2025-02-26T14:07:23Z</time>
      </trkpt>
      <trkpt lat="48.0332" lon="-3.47623">
        <ele>66.7</ele>
        <time>2025-02-26T14:07:24Z</time>
      </trkpt>
      <trkpt lat="48.03318" lon="-3.47622">
        <ele>66.7</ele>
        <time>2025-02-26T14:07:25Z</time>
      </trkpt>
      <trkpt lat="48.03317" lon="-3.47622">
        <ele>66.6</ele>
        <time>2025-02-26T14:07:26Z</time>
      </trkpt>
      <trkpt lat="48.03316" lon="-3.47621">
        <ele>66.6</ele>
        <time>2025-02-26T14:07:27Z</time>
      </trkpt>
      <trkpt lat="48.03315" lon="-3.4762">
        <ele>66.5</ele>
        <time>2025-02-26T14:07:28Z</time>
      </trkpt>
      <trkpt lat="48.03314" lon="-3.4762">
        <ele>66.5</ele>
        <time>2025-02-26T14:07:29Z</time>
      </trkpt>
      <trkpt lat="48.03313" lon="-3.47619">
        <ele>66.5</ele>
        <time>2025-02-26T14:07:30Z</time>
      </trkpt>
      <trkpt lat="48.03312" lon="-3.47618">
        <ele>66.4</ele>
        <time>2025-02-26T14:07:31Z</time>
      </trkpt>
      <trkpt lat="48.03311" lon="-3.47617">
        <ele>66.4</ele>
        <time>2025-02-26T14:07:32Z</time>
      </trkpt>
      <trkpt lat="48.0331" lon="-3.47616">
        <ele>66.3</ele>
        <time>2025-02-26T14:07:33Z</time>
      </trkpt>
      <trkpt lat="48.03309" lon="-3.47615">
        <ele>66.2</ele>
        <time>2025-02-26T14:07:34Z</time>
      </trkpt>
      <trkpt lat="48.03308" lon="-3.47615">
        <ele>66.2</ele>
        <time>2025-02-26T14:07:35Z</time>
      </trkpt>
      <trkpt lat="48.03306" lon="-3.47614">
        <ele>66.1</ele>
        <time>2025-02-26T14:07:36Z</time>
      </trkpt>
      <trkpt lat="48.03306" lon="-3.47612">
        <ele>66</ele>
        <time>2025-02-26T14:07:37Z</time>
      </trkpt>
      <trkpt lat="48.03305" lon="-3.47611">
        <ele>66</ele>
        <time>2025-02-26T14:07:38Z</time>
      </trkpt>
      <trkpt lat="48.03304" lon="-3.4761">
        <ele>66.1</ele>
        <time>2025-02-26T14:07:39Z</time>
      </trkpt>
      <trkpt lat="48.03303" lon="-3.47609">
        <ele>66.1</ele>
        <time>2025-02-26T14:07:40Z</time>
      </trkpt>
      <trkpt lat="48.03302" lon="-3.47609">
        <ele>66.1</ele>
        <time>2025-02-26T14:07:41Z</time>
      </trkpt>
      <trkpt lat="48.03301" lon="-3.47608">
        <ele>66.2</ele>
        <time>2025-02-26T14:07:42Z</time>
      </trkpt>
      <trkpt lat="48.033" lon="-3.47608">
        <ele>66.2</ele>
        <time>2025-02-26T14:07:43Z</time>
      </trkpt>
      <trkpt lat="48.03299" lon="-3.47608">
        <ele>66.2</ele>
        <time>2025-02-26T14:07:44Z</time>
      </trkpt>
      <trkpt lat="48.03298" lon="-3.47608">
        <ele>66.3</ele>
        <time>2025-02-26T14:07:45Z</time>
      </trkpt>
      <trkpt lat="48.03297" lon="-3.47608">
        <ele>66.3</ele>
        <time>2025-02-26T14:07:46Z</time>
      </trkpt>
      <trkpt lat="48.03295" lon="-3.47608">
        <ele>66.3</ele>
        <time>2025-02-26T14:07:47Z</time>
      </trkpt>
      <trkpt lat="48.03294" lon="-3.47608">
        <ele>66.4</ele>
        <time>2025-02-26T14:07:48Z</time>
      </trkpt>
      <trkpt lat="48.03293" lon="-3.47609">
        <ele>66.4</ele>
        <time>2025-02-26T14:07:49Z</time>
      </trkpt>
      <trkpt lat="48.03292" lon="-3.47609">
        <ele>66.4</ele>
        <time>2025-02-26T14:07:50Z</time>
      </trkpt>
      <trkpt lat="48.03291" lon="-3.47609">
        <ele>66.5</ele>
        <time>2025-02-26T14:07:51Z</time>
      </trkpt>
      <trkpt lat="48.03291" lon="-3.4761">
        <ele>66.5</ele>
        <time>2025-02-26T14:07:52Z</time>
      </trkpt>
      <trkpt lat="48.0329" lon="-3.47611">
        <ele>66.6</ele>
        <time>2025-02-26T14:07:53Z</time>
      </trkpt>
      <trkpt lat="48.03289" lon="-3.47612">
        <ele>66.6</ele>
        <time>2025-02-26T14:07:54Z</time>
      </trkpt>
      <trkpt lat="48.03288" lon="-3.47613">
        <ele>66.6</ele>
        <time>2025-02-26T14:07:55Z</time>
      </trkpt>
      <trkpt lat="48.03287" lon="-3.47613">
        <ele>66.7</ele>
        <time>2025-02-26T14:07:56Z</time>
      </trkpt>
      <trkpt lat="48.03286" lon="-3.47614">
        <ele>66.7</ele>
        <time>2025-02-26T14:07:57Z</time>
      </trkpt>
      <trkpt lat="48.03285" lon="-3.47615">
        <ele>66.7</ele>
        <time>2025-02-26T14:07:58Z</time>
      </trkpt>
      <trkpt lat="48.03283" lon="-3.47615">
        <ele>66.7</ele>
        <time>2025-02-26T14:07:59Z</time>
      </trkpt>
      <trkpt lat="48.03282" lon="-3.47615">
        <ele>66.8</ele>
        <time>2025-02-26T14:08:00Z</time>
      </trkpt>
      <trkpt lat="48.03281" lon="-3.47615">
        <ele>66.8</ele>
        <time>2025-02-26T14:08:01Z</time>
      </trkpt>
      <trkpt lat="48.0328" lon="-3.47616">
        <ele>66.8</ele>
        <time>2025-02-26T14:08:02Z</time>
      </trkpt>
      <trkpt lat="48.03279" lon="-3.47617">
        <ele>66.8</ele>
        <time>2025-02-26T14:08:03Z</time>
      </trkpt>
      <trkpt lat="48.03278" lon="-3.47618">
        <ele>66.7</ele>
        <time>2025-02-26T14:08:04Z</time>
      </trkpt>
      <trkpt lat="48.03277" lon="-3.47619">
        <ele>66.7</ele>
        <time>2025-02-26T14:08:05Z</time>
      </trkpt>
      <trkpt lat="48.03276" lon="-3.4762">
        <ele>66.6</ele>
        <time>2025-02-26T14:08:06Z</time>
      </trkpt>
      <trkpt lat="48.03275" lon="-3.47621">
        <ele>66.6</ele>
        <time>2025-02-26T14:08:07Z</time>
      </trkpt>
      <trkpt lat="48.03274" lon="-3.47621">
        <ele>66.5</ele>
        <time>2025-02-26T14:08:08Z</time>
      </trkpt>
      <trkpt lat="48.03273" lon="-3.47622">
        <ele>66.5</ele>
        <time>2025-02-26T14:08:09Z</time>
      </trkpt>
      <trkpt lat="48.03272" lon="-3.47622">
        <ele>66.5</ele>
        <time>2025-02-26T14:08:10Z</time>
      </trkpt>
      <trkpt lat="48.0327" lon="-3.47622">
        <ele>66.4</ele>
        <time>2025-02-26T14:08:11Z</time>
      </trkpt>
      <trkpt lat="48.03269" lon="-3.47622">
        <ele>66.4</ele>
        <time>2025-02-26T14:08:12Z</time>
      </trkpt>
      <trkpt lat="48.03268" lon="-3.47622">
        <ele>66.4</ele>
        <time>2025-02-26T14:08:13Z</time>
      </trkpt>
      <trkpt lat="48.03267" lon="-3.47621">
        <ele>66.4</ele>
        <time>2025-02-26T14:08:14Z</time>
      </trkpt>
      <trkpt lat="48.03266" lon="-3.47621">
        <ele>66.4</ele>
        <time>2025-02-26T14:08:15Z</time>
      </trkpt>
      <trkpt lat="48.03265" lon="-3.47621">
        <ele>66.3</ele>
        <time>2025-02-26T14:08:16Z</time>
      </trkpt>
      <trkpt lat="48.03264" lon="-3.47622">
        <ele>66.3</ele>
        <time>2025-02-26T14:08:17Z</time>
      </trkpt>
      <trkpt lat="48.03263" lon="-3.47621">
        <ele>66.3</ele>
        <time>2025-02-26T14:08:18Z</time>
      </trkpt>
      <trkpt lat="48.03261" lon="-3.47621">
        <ele>66.3</ele>
        <time>2025-02-26T14:08:19Z</time>
      </trkpt>
      <trkpt lat="48.0326" lon="-3.47621">
        <ele>66.2</ele>
        <time>2025-02-26T14:08:20Z</time>
      </trkpt>
      <trkpt lat="48.03259" lon="-3.4762">
        <ele>66.2</ele>
        <time>2025-02-26T14:08:21Z</time>
      </trkpt>
      <trkpt lat="48.03258" lon="-3.4762">
        <ele>66.2</ele>
        <time>2025-02-26T14:08:22Z</time>
      </trkpt>
      <trkpt lat="48.03257" lon="-3.47619">
        <ele>66.2</ele>
        <time>2025-02-26T14:08:23Z</time>
      </trkpt>
      <trkpt lat="48.03256" lon="-3.47619">
        <ele>66.2</ele>
        <time>2025-02-26T14:08:24Z</time>
      </trkpt>
      <trkpt lat="48.03255" lon="-3.47619">
        <ele>66.1</ele>
        <time>2025-02-26T14:08:25Z</time>
      </trkpt>
      <trkpt lat="48.03254" lon="-3.47619">
        <ele>66.1</ele>
        <time>2025-02-26T14:08:26Z</time>
      </trkpt>
      <trkpt lat="48.03253" lon="-3.47619">
        <ele>66.1</ele>
        <time>2025-02-26T14:08:27Z</time>
      </trkpt>
      <trkpt lat="48.03252" lon="-3.47618">
        <ele>66</ele>
        <time>2025-02-26T14:08:28Z</time>
      </trkpt>
      <trkpt lat="48.0325" lon="-3.47617">
        <ele>66</ele>
        <time>2025-02-26T14:08:29Z</time>
      </trkpt>
      <trkpt lat="48.03249" lon="-3.47617">
        <ele>66</ele>
        <time>2025-02-26T14:08:30Z</time>
      </trkpt>
      <trkpt lat="48.03248" lon="-3.47616">
        <ele>66</ele>
        <time>2025-02-26T14:08:31Z</time>
      </trkpt>
      <trkpt lat="48.03247" lon="-3.47615">
        <ele>66</ele>
        <time>2025-02-26T14:08:32Z</time>
      </trkpt>
      <trkpt lat="48.03246" lon="-3.47615">
        <ele>66</ele>
        <time>2025-02-26T14:08:33Z</time>
      </trkpt>
      <trkpt lat="48.03245" lon="-3.47615">
        <ele>66</ele>
        <time>2025-02-26T14:08:34Z</time>
      </trkpt>
      <trkpt lat="48.03243" lon="-3.47615">
        <ele>66</ele>
        <time>2025-02-26T14:08:35Z</time>
      </trkpt>
      <trkpt lat="48.03242" lon="-3.47614">
        <ele>66</ele>
        <time>2025-02-26T14:08:36Z</time>
      </trkpt>
      <trkpt lat="48.03241" lon="-3.47613">
        <ele>66</ele>
        <time>2025-02-26T14:08:37Z</time>
      </trkpt>
      <trkpt lat="48.0324" lon="-3.47613">
        <ele>66</ele>
        <time>2025-02-26T14:08:38Z</time>
      </trkpt>
      <trkpt lat="48.0324" lon="-3.47612">
        <ele>66</ele>
        <time>2025-02-26T14:08:39Z</time>
      </trkpt>
      <trkpt lat="48.03239" lon="-3.47611">
        <ele>66</ele>
        <time>2025-02-26T14:08:40Z</time>
      </trkpt>
      <trkpt lat="48.03238" lon="-3.4761">
        <ele>66</ele>
        <time>2025-02-26T14:08:41Z</time>
      </trkpt>
      <trkpt lat="48.03237" lon="-3.47609">
        <ele>66</ele>
        <time>2025-02-26T14:08:42Z</time>
      </trkpt>
      <trkpt lat="48.03236" lon="-3.47609">
        <ele>66</ele>
        <time>2025-02-26T14:08:43Z</time>
      </trkpt>
      <trkpt lat="48.03234" lon="-3.47609">
        <ele>66</ele>
        <time>2025-02-26T14:08:44Z</time>
      </trkpt>
      <trkpt lat="48.03233" lon="-3.47608">
        <ele>66</ele>
        <time>2025-02-26T14:08:45Z</time>
      </trkpt>
      <trkpt lat="48.03232" lon="-3.47608">
        <ele>66</ele>
        <time>2025-02-26T14:08:46Z</time>
      </trkpt>
      <trkpt lat="48.03231" lon="-3.47608">
        <ele>66</ele>
        <time>2025-02-26T14:08:47Z</time>
      </trkpt>
      <trkpt lat="48.0323" lon="-3.47608">
        <ele>66</ele>
        <time>2025-02-26T14:08:48Z</time>
      </trkpt>
      <trkpt lat="48.03229" lon="-3.47607">
        <ele>66</ele>
        <time>2025-02-26T14:08:49Z</time>
      </trkpt>
      <trkpt lat="48.03227" lon="-3.47607">
        <ele>66</ele>
        <time>2025-02-26T14:08:50Z</time>
      </trkpt>
      <trkpt lat="48.03226" lon="-3.47606">
        <ele>66</ele>
        <time>2025-02-26T14:08:51Z</time>
      </trkpt>
      <trkpt lat="48.03225" lon="-3.47606">
        <ele>66</ele>
        <time>2025-02-26T14:08:52Z</time>
      </trkpt>
      <trkpt lat="48.03223" lon="-3.47605">
        <ele>66</ele>
        <time>2025-02-26T14:08:53Z</time>
      </trkpt>
      <trkpt lat="48.03222" lon="-3.47605">
        <ele>66</ele>
        <time>2025-02-26T14:08:54Z</time>
      </trkpt>
      <trkpt lat="48.03221" lon="-3.47604">
        <ele>66</ele>
        <time>2025-02-26T14:08:55Z</time>
      </trkpt>
      <trkpt lat="48.0322" lon="-3.47604">
        <ele>65.9</ele>
        <time>2025-02-26T14:08:56Z</time>
      </trkpt>
      <trkpt lat="48.03218" lon="-3.47603">
        <ele>65.9</ele>
        <time>2025-02-26T14:08:57Z</time>
      </trkpt>
      <trkpt lat="48.03217" lon="-3.47603">
        <ele>65.8</ele>
        <time>2025-02-26T14:08:58Z</time>
      </trkpt>
      <trkpt lat="48.03216" lon="-3.47602">
        <ele>65.8</ele>
        <time>2025-02-26T14:08:59Z</time>
      </trkpt>
      <trkpt lat="48.03215" lon="-3.47601">
        <ele>65.7</ele>
        <time>2025-02-26T14:09:00Z</time>
      </trkpt>
      <trkpt lat="48.03214" lon="-3.47601">
        <ele>65.7</ele>
        <time>2025-02-26T14:09:01Z</time>
      </trkpt>
      <trkpt lat="48.03213" lon="-3.47601">
        <ele>65.7</ele>
        <time>2025-02-26T14:09:02Z</time>
      </trkpt>
      <trkpt lat="48.03211" lon="-3.476">
        <ele>65.6</ele>
        <time>2025-02-26T14:09:03Z</time>
      </trkpt>
      <trkpt lat="48.0321" lon="-3.47599">
        <ele>65.6</ele>
        <time>2025-02-26T14:09:04Z</time>
      </trkpt>
      <trkpt lat="48.03209" lon="-3.47599">
        <ele>65.5</ele>
        <time>2025-02-26T14:09:05Z</time>
      </trkpt>
      <trkpt lat="48.03208" lon="-3.47598">
        <ele>65.5</ele>
        <time>2025-02-26T14:09:06Z</time>
      </trkpt>
      <trkpt lat="48.03207" lon="-3.47598">
        <ele>65.4</ele>
        <time>2025-02-26T14:09:07Z</time>
      </trkpt>
      <trkpt lat="48.03205" lon="-3.47598">
        <ele>65.4</ele>
        <time>2025-02-26T14:09:08Z</time>
      </trkpt>
      <trkpt lat="48.03204" lon="-3.47599">
        <ele>65.4</ele>
        <time>2025-02-26T14:09:09Z</time>
      </trkpt>
      <trkpt lat="48.03203" lon="-3.47599">
        <ele>65.3</ele>
        <time>2025-02-26T14:09:10Z</time>
      </trkpt>
      <trkpt lat="48.03202" lon="-3.47599">
        <ele>65.3</ele>
        <time>2025-02-26T14:09:11Z</time>
      </trkpt>
      <trkpt lat="48.03201" lon="-3.47599">
        <ele>65.2</ele>
        <time>2025-02-26T14:09:12Z</time>
      </trkpt>
      <trkpt lat="48.032" lon="-3.47598">
        <ele>65.2</ele>
        <time>2025-02-26T14:09:13Z</time>
      </trkpt>
      <trkpt lat="48.03199" lon="-3.47598">
        <ele>65.1</ele>
        <time>2025-02-26T14:09:14Z</time>
      </trkpt>
      <trkpt lat="48.03197" lon="-3.47599">
        <ele>65.1</ele>
        <time>2025-02-26T14:09:15Z</time>
      </trkpt>
      <trkpt lat="48.03196" lon="-3.47599">
        <ele>65.1</ele>
        <time>2025-02-26T14:09:16Z</time>
      </trkpt>
      <trkpt lat="48.03195" lon="-3.47599">
        <ele>65</ele>
        <time>2025-02-26T14:09:17Z</time>
      </trkpt>
      <trkpt lat="48.03194" lon="-3.47599">
        <ele>65</ele>
        <time>2025-02-26T14:09:18Z</time>
      </trkpt>
      <trkpt lat="48.03193" lon="-3.476">
        <ele>65</ele>
        <time>2025-02-26T14:09:19Z</time>
      </trkpt>
      <trkpt lat="48.03192" lon="-3.47601">
        <ele>65</ele>
        <time>2025-02-26T14:09:20Z</time>
      </trkpt>
      <trkpt lat="48.03191" lon="-3.476">
        <ele>64.9</ele>
        <time>2025-02-26T14:09:21Z</time>
      </trkpt>
      <trkpt lat="48.0319" lon="-3.476">
        <ele>64.9</ele>
        <time>2025-02-26T14:09:22Z</time>
      </trkpt>
      <trkpt lat="48.03188" lon="-3.47599">
        <ele>64.9</ele>
        <time>2025-02-26T14:09:23Z</time>
      </trkpt>
      <trkpt lat="48.03187" lon="-3.47598">
        <ele>64.9</ele>
        <time>2025-02-26T14:09:24Z</time>
      </trkpt>
      <trkpt lat="48.03187" lon="-3.47596">
        <ele>64.8</ele>
        <time>2025-02-26T14:09:25Z</time>
      </trkpt>
      <trkpt lat="48.03186" lon="-3.47595">
        <ele>64.8</ele>
        <time>2025-02-26T14:09:26Z</time>
      </trkpt>
      <trkpt lat="48.03184" lon="-3.47594">
        <ele>64.8</ele>
        <time>2025-02-26T14:09:27Z</time>
      </trkpt>
      <trkpt lat="48.03183" lon="-3.47593">
        <ele>64.7</ele>
        <time>2025-02-26T14:09:28Z</time>
      </trkpt>
      <trkpt lat="48.03182" lon="-3.47592">
        <ele>64.7</ele>
        <time>2025-02-26T14:09:29Z</time>
      </trkpt>
      <trkpt lat="48.03182" lon="-3.47591">
        <ele>64.7</ele>
        <time>2025-02-26T14:09:30Z</time>
      </trkpt>
      <trkpt lat="48.03181" lon="-3.4759">
        <ele>64.6</ele>
        <time>2025-02-26T14:09:31Z</time>
      </trkpt>
      <trkpt lat="48.03181" lon="-3.47589">
        <ele>64.6</ele>
        <time>2025-02-26T14:09:32Z</time>
      </trkpt>
      <trkpt lat="48.03179" lon="-3.47588">
        <ele>64.5</ele>
        <time>2025-02-26T14:09:33Z</time>
      </trkpt>
      <trkpt lat="48.03178" lon="-3.47588">
        <ele>64.5</ele>
        <time>2025-02-26T14:09:34Z</time>
      </trkpt>
      <trkpt lat="48.03177" lon="-3.47588">
        <ele>64.5</ele>
        <time>2025-02-26T14:09:35Z</time>
      </trkpt>
      <trkpt lat="48.03176" lon="-3.47587">
        <ele>64.4</ele>
        <time>2025-02-26T14:09:36Z</time>
      </trkpt>
      <trkpt lat="48.03175" lon="-3.47586">
        <ele>64.4</ele>
        <time>2025-02-26T14:09:37Z</time>
      </trkpt>
      <trkpt lat="48.03174" lon="-3.47585">
        <ele>64.3</ele>
        <time>2025-02-26T14:09:38Z</time>
      </trkpt>
      <trkpt lat="48.03173" lon="-3.47584">
        <ele>64.3</ele>
        <time>2025-02-26T14:09:39Z</time>
      </trkpt>
      <trkpt lat="48.03173" lon="-3.47583">
        <ele>64.2</ele>
        <time>2025-02-26T14:09:40Z</time>
      </trkpt>
      <trkpt lat="48.03172" lon="-3.47583">
        <ele>64.2</ele>
        <time>2025-02-26T14:09:41Z</time>
      </trkpt>
      <trkpt lat="48.03171" lon="-3.47583">
        <ele>64.1</ele>
        <time>2025-02-26T14:09:42Z</time>
      </trkpt>
      <trkpt lat="48.03169" lon="-3.47583">
        <ele>64.1</ele>
        <time>2025-02-26T14:09:43Z</time>
      </trkpt>
      <trkpt lat="48.03168" lon="-3.47582">
        <ele>64.1</ele>
        <time>2025-02-26T14:09:44Z</time>
      </trkpt>
      <trkpt lat="48.03167" lon="-3.47582">
        <ele>64</ele>
        <time>2025-02-26T14:09:45Z</time>
      </trkpt>
      <trkpt lat="48.03166" lon="-3.4758">
        <ele>64</ele>
        <time>2025-02-26T14:09:46Z</time>
      </trkpt>
      <trkpt lat="48.03165" lon="-3.4758">
        <ele>64</ele>
        <time>2025-02-26T14:09:47Z</time>
      </trkpt>
      <trkpt lat="48.03164" lon="-3.47579">
        <ele>64</ele>
        <time>2025-02-26T14:09:48Z</time>
      </trkpt>
      <trkpt lat="48.03164" lon="-3.47577">
        <ele>64</ele>
        <time>2025-02-26T14:09:49Z</time>
      </trkpt>
      <trkpt lat="48.03163" lon="-3.47576">
        <ele>64</ele>
        <time>2025-02-26T14:09:50Z</time>
      </trkpt>
      <trkpt lat="48.03162" lon="-3.47575">
        <ele>64</ele>
        <time>2025-02-26T14:09:51Z</time>
      </trkpt>
      <trkpt lat="48.03161" lon="-3.47575">
        <ele>64</ele>
        <time>2025-02-26T14:09:52Z</time>
      </trkpt>
      <trkpt lat="48.0316" lon="-3.47576">
        <ele>64</ele>
        <time>2025-02-26T14:09:53Z</time>
      </trkpt>
      <trkpt lat="48.03159" lon="-3.47576">
        <ele>64</ele>
        <time>2025-02-26T14:09:54Z</time>
      </trkpt>
      <trkpt lat="48.03158" lon="-3.47576">
        <ele>64</ele>
        <time>2025-02-26T14:09:55Z</time>
      </trkpt>
      <trkpt lat="48.03157" lon="-3.47576">
        <ele>64</ele>
        <time>2025-02-26T14:09:56Z</time>
      </trkpt>
      <trkpt lat="48.03156" lon="-3.47576">
        <ele>64</ele>
        <time>2025-02-26T14:09:57Z</time>
      </trkpt>
      <trkpt lat="48.03155" lon="-3.47576">
        <ele>64</ele>
        <time>2025-02-26T14:09:58Z</time>
      </trkpt>
      <trkpt lat="48.03154" lon="-3.47575">
        <ele>64</ele>
        <time>2025-02-26T14:09:59Z</time>
      </trkpt>
      <trkpt lat="48.03153" lon="-3.47574">
        <ele>64</ele>
        <time>2025-02-26T14:10:00Z</time>
      </trkpt>
      <trkpt lat="48.03152" lon="-3.47573">
        <ele>64</ele>
        <time>2025-02-26T14:10:01Z</time>
      </trkpt>
      <trkpt lat="48.03151" lon="-3.47573">
        <ele>64</ele>
        <time>2025-02-26T14:10:02Z</time>
      </trkpt>
      <trkpt lat="48.0315" lon="-3.47572">
        <ele>64</ele>
        <time>2025-02-26T14:10:03Z</time>
      </trkpt>
      <trkpt lat="48.03149" lon="-3.47572">
        <ele>64</ele>
        <time>2025-02-26T14:10:04Z</time>
      </trkpt>
      <trkpt lat="48.03148" lon="-3.47573">
        <ele>64</ele>
        <time>2025-02-26T14:10:05Z</time>
      </trkpt>
      <trkpt lat="48.03147" lon="-3.47574">
        <ele>64</ele>
        <time>2025-02-26T14:10:06Z</time>
      </trkpt>
      <trkpt lat="48.03145" lon="-3.47572">
        <ele>64</ele>
        <time>2025-02-26T14:10:07Z</time>
      </trkpt>
      <trkpt lat="48.03144" lon="-3.47571">
        <ele>64</ele>
        <time>2025-02-26T14:10:08Z</time>
      </trkpt>
      <trkpt lat="48.03143" lon="-3.4757">
        <ele>64</ele>
        <time>2025-02-26T14:10:09Z</time>
      </trkpt>
      <trkpt lat="48.03143" lon="-3.4757">
        <ele>64</ele>
        <time>2025-02-26T14:10:10Z</time>
      </trkpt>
      <trkpt lat="48.03142" lon="-3.4757">
        <ele>64</ele>
        <time>2025-02-26T14:10:11Z</time>
      </trkpt>
      <trkpt lat="48.03141" lon="-3.47569">
        <ele>64</ele>
        <time>2025-02-26T14:10:12Z</time>
      </trkpt>
      <trkpt lat="48.0314" lon="-3.47567">
        <ele>64</ele>
        <time>2025-02-26T14:10:13Z</time>
      </trkpt>
      <trkpt lat="48.03139" lon="-3.47567">
        <ele>64</ele>
        <time>2025-02-26T14:10:14Z</time>
      </trkpt>
      <trkpt lat="48.03138" lon="-3.47566">
        <ele>64</ele>
        <time>2025-02-26T14:10:15Z</time>
      </trkpt>
      <trkpt lat="48.03138" lon="-3.47565">
        <ele>64</ele>
        <time>2025-02-26T14:10:16Z</time>
      </trkpt>
      <trkpt lat="48.03136" lon="-3.47565">
        <ele>64</ele>
        <time>2025-02-26T14:10:17Z</time>
      </trkpt>
      <trkpt lat="48.03136" lon="-3.47565">
        <ele>64</ele>
        <time>2025-02-26T14:10:18Z</time>
      </trkpt>
      <trkpt lat="48.03135" lon="-3.47564">
        <ele>64</ele>
        <time>2025-02-26T14:10:19Z</time>
      </trkpt>
      <trkpt lat="48.03134" lon="-3.47563">
        <ele>64</ele>
        <time>2025-02-26T14:10:20Z</time>
      </trkpt>
      <trkpt lat="48.03133" lon="-3.47563">
        <ele>64</ele>
        <time>2025-02-26T14:10:21Z</time>
      </trkpt>
      <trkpt lat="48.03132" lon="-3.47562">
        <ele>64</ele>
        <time>2025-02-26T14:10:22Z</time>
      </trkpt>
      <trkpt lat="48.03131" lon="-3.47562">
        <ele>64</ele>
        <time>2025-02-26T14:10:23Z</time>
      </trkpt>
      <trkpt lat="48.0313" lon="-3.47562">
        <ele>64</ele>
        <time>2025-02-26T14:10:24Z</time>
      </trkpt>
      <trkpt lat="48.03129" lon="-3.47562">
        <ele>64</ele>
        <time>2025-02-26T14:10:25Z</time>
      </trkpt>
      <trkpt lat="48.03128" lon="-3.47561">
        <ele>64</ele>
        <time>2025-02-26T14:10:26Z</time>
      </trkpt>
      <trkpt lat="48.03127" lon="-3.47561">
        <ele>64</ele>
        <time>2025-02-26T14:10:27Z</time>
      </trkpt>
      <trkpt lat="48.03127" lon="-3.4756">
        <ele>64</ele>
        <time>2025-02-26T14:10:28Z</time>
      </trkpt>
      <trkpt lat="48.03125" lon="-3.4756">
        <ele>64</ele>
        <time>2025-02-26T14:10:29Z</time>
      </trkpt>
      <trkpt lat="48.03125" lon="-3.47561">
        <ele>64</ele>
        <time>2025-02-26T14:10:30Z</time>
      </trkpt>
      <trkpt lat="48.03124" lon="-3.47561">
        <ele>64</ele>
        <time>2025-02-26T14:10:31Z</time>
      </trkpt>
      <trkpt lat="48.03123" lon="-3.47561">
        <ele>64</ele>
        <time>2025-02-26T14:10:32Z</time>
      </trkpt>
      <trkpt lat="48.03121" lon="-3.47562">
        <ele>64</ele>
        <time>2025-02-26T14:10:33Z</time>
      </trkpt>
      <trkpt lat="48.0312" lon="-3.47562">
        <ele>64</ele>
        <time>2025-02-26T14:10:34Z</time>
      </trkpt>
      <trkpt lat="48.03119" lon="-3.47562">
        <ele>64</ele>
        <time>2025-02-26T14:10:35Z</time>
      </trkpt>
      <trkpt lat="48.03118" lon="-3.47561">
        <ele>64</ele>
        <time>2025-02-26T14:10:36Z</time>
      </trkpt>
      <trkpt lat="48.03117" lon="-3.47562">
        <ele>64</ele>
        <time>2025-02-26T14:10:37Z</time>
      </trkpt>
      <trkpt lat="48.03116" lon="-3.47563">
        <ele>64</ele>
        <time>2025-02-26T14:10:38Z</time>
      </trkpt>
      <trkpt lat="48.03115" lon="-3.47564">
        <ele>64</ele>
        <time>2025-02-26T14:10:39Z</time>
      </trkpt>
      <trkpt lat="48.03114" lon="-3.47565">
        <ele>64</ele>
        <time>2025-02-26T14:10:40Z</time>
      </trkpt>
      <trkpt lat="48.03113" lon="-3.47565">
        <ele>64</ele>
        <time>2025-02-26T14:10:41Z</time>
      </trkpt>
      <trkpt lat="48.03112" lon="-3.47566">
        <ele>64</ele>
        <time>2025-02-26T14:10:42Z</time>
      </trkpt>
      <trkpt lat="48.03111" lon="-3.47567">
        <ele>64</ele>
        <time>2025-02-26T14:10:43Z</time>
      </trkpt>
      <trkpt lat="48.03111" lon="-3.47569">
        <ele>64</ele>
        <time>2025-02-26T14:10:44Z</time>
      </trkpt>
      <trkpt lat="48.03111" lon="-3.4757">
        <ele>64</ele>
        <time>2025-02-26T14:10:45Z</time>
      </trkpt>
      <trkpt lat="48.0311" lon="-3.47571">
        <ele>64</ele>
        <time>2025-02-26T14:10:46Z</time>
      </trkpt>
      <trkpt lat="48.03109" lon="-3.47572">
        <ele>64</ele>
        <time>2025-02-26T14:10:47Z</time>
      </trkpt>
      <trkpt lat="48.03109" lon="-3.47573">
        <ele>63.9</ele>
        <time>2025-02-26T14:10:48Z</time>
      </trkpt>
      <trkpt lat="48.03108" lon="-3.47573">
        <ele>63.9</ele>
        <time>2025-02-26T14:10:49Z</time>
      </trkpt>
      <trkpt lat="48.03106" lon="-3.47574">
        <ele>63.9</ele>
        <time>2025-02-26T14:10:50Z</time>
      </trkpt>
      <trkpt lat="48.03106" lon="-3.47574">
        <ele>63.9</ele>
        <time>2025-02-26T14:10:51Z</time>
      </trkpt>
      <trkpt lat="48.03105" lon="-3.47577">
        <ele>63.8</ele>
        <time>2025-02-26T14:10:52Z</time>
      </trkpt>
      <trkpt lat="48.03105" lon="-3.47578">
        <ele>63.8</ele>
        <time>2025-02-26T14:10:53Z</time>
      </trkpt>
      <trkpt lat="48.03104" lon="-3.4758">
        <ele>63.8</ele>
        <time>2025-02-26T14:10:54Z</time>
      </trkpt>
      <trkpt lat="48.03103" lon="-3.47581">
        <ele>63.7</ele>
        <time>2025-02-26T14:10:55Z</time>
      </trkpt>
      <trkpt lat="48.03102" lon="-3.47582">
        <ele>63.7</ele>
        <time>2025-02-26T14:10:56Z</time>
      </trkpt>
      <trkpt lat="48.03101" lon="-3.47583">
        <ele>63.6</ele>
        <time>2025-02-26T14:10:57Z</time>
      </trkpt>
      <trkpt lat="48.031" lon="-3.47583">
        <ele>63.6</ele>
        <time>2025-02-26T14:10:58Z</time>
      </trkpt>
      <trkpt lat="48.03099" lon="-3.47583">
        <ele>63.6</ele>
        <time>2025-02-26T14:10:59Z</time>
      </trkpt>
      <trkpt lat="48.03098" lon="-3.47583">
        <ele>63.5</ele>
        <time>2025-02-26T14:11:00Z</time>
      </trkpt>
      <trkpt lat="48.03097" lon="-3.47585">
        <ele>63.5</ele>
        <time>2025-02-26T14:11:01Z</time>
      </trkpt>
      <trkpt lat="48.03097" lon="-3.47586">
        <ele>63.5</ele>
        <time>2025-02-26T14:11:02Z</time>
      </trkpt>
      <trkpt lat="48.03095" lon="-3.47586">
        <ele>63.5</ele>
        <time>2025-02-26T14:11:03Z</time>
      </trkpt>
      <trkpt lat="48.03094" lon="-3.47587">
        <ele>63.5</ele>
        <time>2025-02-26T14:11:04Z</time>
      </trkpt>
      <trkpt lat="48.03093" lon="-3.47587">
        <ele>63.4</ele>
        <time>2025-02-26T14:11:05Z</time>
      </trkpt>
      <trkpt lat="48.03092" lon="-3.47586">
        <ele>63.4</ele>
        <time>2025-02-26T14:11:06Z</time>
      </trkpt>
      <trkpt lat="48.03091" lon="-3.47587">
        <ele>63.3</ele>
        <time>2025-02-26T14:11:07Z</time>
      </trkpt>
      <trkpt lat="48.03089" lon="-3.47587">
        <ele>63.3</ele>
        <time>2025-02-26T14:11:08Z</time>
      </trkpt>
      <trkpt lat="48.03088" lon="-3.47587">
        <ele>63.3</ele>
        <time>2025-02-26T14:11:09Z</time>
      </trkpt>
      <trkpt lat="48.03087" lon="-3.47587">
        <ele>63.2</ele>
        <time>2025-02-26T14:11:10Z</time>
      </trkpt>
      <trkpt lat="48.03086" lon="-3.47587">
        <ele>63.2</ele>
        <time>2025-02-26T14:11:11Z</time>
      </trkpt>
      <trkpt lat="48.03085" lon="-3.47587">
        <ele>63.2</ele>
        <time>2025-02-26T14:11:12Z</time>
      </trkpt>
      <trkpt lat="48.03084" lon="-3.47588">
        <ele>63.2</ele>
        <time>2025-02-26T14:11:13Z</time>
      </trkpt>
      <trkpt lat="48.03083" lon="-3.47589">
        <ele>63.2</ele>
        <time>2025-02-26T14:11:14Z</time>
      </trkpt>
      <trkpt lat="48.03083" lon="-3.47591">
        <ele>63.3</ele>
        <time>2025-02-26T14:11:15Z</time>
      </trkpt>
      <trkpt lat="48.03082" lon="-3.47592">
        <ele>63.3</ele>
        <time>2025-02-26T14:11:16Z</time>
      </trkpt>
      <trkpt lat="48.03082" lon="-3.47594">
        <ele>63.4</ele>
        <time>2025-02-26T14:11:17Z</time>
      </trkpt>
      <trkpt lat="48.03081" lon="-3.47596">
        <ele>63.4</ele>
        <time>2025-02-26T14:11:18Z</time>
      </trkpt>
      <trkpt lat="48.03081" lon="-3.47597">
        <ele>63.4</ele>
        <time>2025-02-26T14:11:19Z</time>
      </trkpt>
      <trkpt lat="48.0308" lon="-3.47597">
        <ele>63.5</ele>
        <time>2025-02-26T14:11:20Z</time>
      </trkpt>
      <trkpt lat="48.0308" lon="-3.47599">
        <ele>63.5</ele>
        <time>2025-02-26T14:11:21Z</time>
      </trkpt>
      <trkpt lat="48.0308" lon="-3.47601">
        <ele>63.5</ele>
        <time>2025-02-26T14:11:22Z</time>
      </trkpt>
      <trkpt lat="48.0308" lon="-3.47602">
        <ele>63.6</ele>
        <time>2025-02-26T14:11:23Z</time>
      </trkpt>
      <trkpt lat="48.03079" lon="-3.47603">
        <ele>63.6</ele>
        <time>2025-02-26T14:11:24Z</time>
      </trkpt>
      <trkpt lat="48.03079" lon="-3.47606">
        <ele>63.7</ele>
        <time>2025-02-26T14:11:25Z</time>
      </trkpt>
      <trkpt lat="48.03079" lon="-3.47606">
        <ele>63.7</ele>
        <time>2025-02-26T14:11:26Z</time>
      </trkpt>
      <trkpt lat="48.03078" lon="-3.47607">
        <ele>63.7</ele>
        <time>2025-02-26T14:11:27Z</time>
      </trkpt>
      <trkpt lat="48.03078" lon="-3.47608">
        <ele>63.7</ele>
        <time>2025-02-26T14:11:28Z</time>
      </trkpt>
      <trkpt lat="48.03079" lon="-3.47609">
        <ele>63.8</ele>
        <time>2025-02-26T14:11:29Z</time>
      </trkpt>
      <trkpt lat="48.0308" lon="-3.47609">
        <ele>63.8</ele>
        <time>2025-02-26T14:11:30Z</time>
      </trkpt>
      <trkpt lat="48.03081" lon="-3.4761">
        <ele>63.9</ele>
        <time>2025-02-26T14:11:31Z</time>
      </trkpt>
      <trkpt lat="48.03081" lon="-3.47611">
        <ele>63.9</ele>
        <time>2025-02-26T14:11:32Z</time>
      </trkpt>
      <trkpt lat="48.03081" lon="-3.47613">
        <ele>63.9</ele>
        <time>2025-02-26T14:11:33Z</time>
      </trkpt>
      <trkpt lat="48.03082" lon="-3.47614">
        <ele>64</ele>
        <time>2025-02-26T14:11:34Z</time>
      </trkpt>
      <trkpt lat="48.03082" lon="-3.47615">
        <ele>64</ele>
        <time>2025-02-26T14:11:35Z</time>
      </trkpt>
      <trkpt lat="48.03081" lon="-3.47616">
        <ele>63.9</ele>
        <time>2025-02-26T14:11:36Z</time>
      </trkpt>
      <trkpt lat="48.03081" lon="-3.47617">
        <ele>63.9</ele>
        <time>2025-02-26T14:11:37Z</time>
      </trkpt>
      <trkpt lat="48.0308" lon="-3.47618">
        <ele>63.9</ele>
        <time>2025-02-26T14:11:38Z</time>
      </trkpt>
      <trkpt lat="48.03079" lon="-3.47619">
        <ele>63.8</ele>
        <time>2025-02-26T14:11:39Z</time>
      </trkpt>
      <trkpt lat="48.03079" lon="-3.4762">
        <ele>63.8</ele>
        <time>2025-02-26T14:11:40Z</time>
      </trkpt>
      <trkpt lat="48.03078" lon="-3.47621">
        <ele>63.8</ele>
        <time>2025-02-26T14:11:41Z</time>
      </trkpt>
      <trkpt lat="48.03078" lon="-3.47622">
        <ele>63.8</ele>
        <time>2025-02-26T14:11:42Z</time>
      </trkpt>
      <trkpt lat="48.03077" lon="-3.47622">
        <ele>63.8</ele>
        <time>2025-02-26T14:11:43Z</time>
      </trkpt>
      <trkpt lat="48.03076" lon="-3.47621">
        <ele>63.7</ele>
        <time>2025-02-26T14:11:44Z</time>
      </trkpt>
      <trkpt lat="48.03075" lon="-3.47621">
        <ele>63.7</ele>
        <time>2025-02-26T14:11:45Z</time>
      </trkpt>
      <trkpt lat="48.03074" lon="-3.47622">
        <ele>63.7</ele>
        <time>2025-02-26T14:11:46Z</time>
      </trkpt>
      <trkpt lat="48.03073" lon="-3.47623">
        <ele>63.6</ele>
        <time>2025-02-26T14:11:47Z</time>
      </trkpt>
      <trkpt lat="48.03072" lon="-3.47625">
        <ele>63.6</ele>
        <time>2025-02-26T14:11:48Z</time>
      </trkpt>
      <trkpt lat="48.03072" lon="-3.47626">
        <ele>63.6</ele>
        <time>2025-02-26T14:11:49Z</time>
      </trkpt>
      <trkpt lat="48.03071" lon="-3.47627">
        <ele>63.6</ele>
        <time>2025-02-26T14:11:50Z</time>
      </trkpt>
      <trkpt lat="48.03071" lon="-3.47627">
        <ele>63.6</ele>
        <time>2025-02-26T14:11:51Z</time>
      </trkpt>
      <trkpt lat="48.03071" lon="-3.47628">
        <ele>63.6</ele>
        <time>2025-02-26T14:11:52Z</time>
      </trkpt>
      <trkpt lat="48.0307" lon="-3.47628">
        <ele>63.5</ele>
        <time>2025-02-26T14:11:53Z</time>
      </trkpt>
      <trkpt lat="48.0307" lon="-3.47629">
        <ele>63.5</ele>
        <time>2025-02-26T14:11:54Z</time>
      </trkpt>
      <trkpt lat="48.0307" lon="-3.4763">
        <ele>63.5</ele>
        <time>2025-02-26T14:11:55Z</time>
      </trkpt>
      <trkpt lat="48.0307" lon="-3.47631">
        <ele>63.5</ele>
        <time>2025-02-26T14:11:56Z</time>
      </trkpt>
      <trkpt lat="48.03069" lon="-3.47632">
        <ele>63.5</ele>
        <time>2025-02-26T14:11:57Z</time>
      </trkpt>
      <trkpt lat="48.03069" lon="-3.47632">
        <ele>63.5</ele>
        <time>2025-02-26T14:11:58Z</time>
      </trkpt>
      <trkpt lat="48.03068" lon="-3.47633">
        <ele>63.4</ele>
        <time>2025-02-26T14:11:59Z</time>
      </trkpt>
      <trkpt lat="48.03067" lon="-3.47634">
        <ele>63.4</ele>
        <time>2025-02-26T14:12:00Z</time>
      </trkpt>
      <trkpt lat="48.03067" lon="-3.47634">
        <ele>63.4</ele>
        <time>2025-02-26T14:12:01Z</time>
      </trkpt>
      <trkpt lat="48.03066" lon="-3.47634">
        <ele>63.4</ele>
        <time>2025-02-26T14:12:02Z</time>
      </trkpt>
      <trkpt lat="48.03065" lon="-3.47635">
        <ele>63.3</ele>
        <time>2025-02-26T14:12:03Z</time>
      </trkpt>
      <trkpt lat="48.03064" lon="-3.47635">
        <ele>63.3</ele>
        <time>2025-02-26T14:12:04Z</time>
      </trkpt>
      <trkpt lat="48.03063" lon="-3.47635">
        <ele>63.3</ele>
        <time>2025-02-26T14:12:05Z</time>
      </trkpt>
      <trkpt lat="48.03062" lon="-3.47636">
        <ele>63.2</ele>
        <time>2025-02-26T14:12:06Z</time>
      </trkpt>
      <trkpt lat="48.03061" lon="-3.47637">
        <ele>63.2</ele>
        <time>2025-02-26T14:12:07Z</time>
      </trkpt>
      <trkpt lat="48.0306" lon="-3.47636">
        <ele>63.1</ele>
        <time>2025-02-26T14:12:08Z</time>
      </trkpt>
      <trkpt lat="48.03058" lon="-3.47637">
        <ele>63.1</ele>
        <time>2025-02-26T14:12:09Z</time>
      </trkpt>
      <trkpt lat="48.03057" lon="-3.47638">
        <ele>63.1</ele>
        <time>2025-02-26T14:12:10Z</time>
      </trkpt>
      <trkpt lat="48.03056" lon="-3.47638">
        <ele>63</ele>
        <time>2025-02-26T14:12:11Z</time>
      </trkpt>
      <trkpt lat="48.03055" lon="-3.47638">
        <ele>63</ele>
        <time>2025-02-26T14:12:12Z</time>
      </trkpt>
      <trkpt lat="48.03053" lon="-3.47639">
        <ele>63</ele>
        <time>2025-02-26T14:12:13Z</time>
      </trkpt>
      <trkpt lat="48.03052" lon="-3.47641">
        <ele>63.1</ele>
        <time>2025-02-26T14:12:14Z</time>
      </trkpt>
      <trkpt lat="48.03051" lon="-3.47641">
        <ele>63.1</ele>
        <time>2025-02-26T14:12:15Z</time>
      </trkpt>
      <trkpt lat="48.03049" lon="-3.47641">
        <ele>63.1</ele>
        <time>2025-02-26T14:12:16Z</time>
      </trkpt>
      <trkpt lat="48.03048" lon="-3.47641">
        <ele>63.1</ele>
        <time>2025-02-26T14:12:17Z</time>
      </trkpt>
      <trkpt lat="48.03047" lon="-3.47642">
        <ele>63.1</ele>
        <time>2025-02-26T14:12:18Z</time>
      </trkpt>
      <trkpt lat="48.03046" lon="-3.47643">
        <ele>63.1</ele>
        <time>2025-02-26T14:12:19Z</time>
      </trkpt>
      <trkpt lat="48.03044" lon="-3.47644">
        <ele>63.1</ele>
        <time>2025-02-26T14:12:20Z</time>
      </trkpt>
      <trkpt lat="48.03043" lon="-3.47645">
        <ele>63.1</ele>
        <time>2025-02-26T14:12:21Z</time>
      </trkpt>
      <trkpt lat="48.03042" lon="-3.47646">
        <ele>63.1</ele>
        <time>2025-02-26T14:12:22Z</time>
      </trkpt>
      <trkpt lat="48.03041" lon="-3.47645">
        <ele>63.1</ele>
        <time>2025-02-26T14:12:23Z</time>
      </trkpt>
      <trkpt lat="48.0304" lon="-3.47645">
        <ele>63.1</ele>
        <time>2025-02-26T14:12:24Z</time>
      </trkpt>
      <trkpt lat="48.03039" lon="-3.47646">
        <ele>63.1</ele>
        <time>2025-02-26T14:12:25Z</time>
      </trkpt>
      <trkpt lat="48.03038" lon="-3.47646">
        <ele>63.1</ele>
        <time>2025-02-26T14:12:26Z</time>
      </trkpt>
      <trkpt lat="48.03037" lon="-3.47646">
        <ele>63.1</ele>
        <time>2025-02-26T14:12:27Z</time>
      </trkpt>
      <trkpt lat="48.03035" lon="-3.47648">
        <ele>63.1</ele>
        <time>2025-02-26T14:12:28Z</time>
      </trkpt>
      <trkpt lat="48.03034" lon="-3.4765">
        <ele>63.1</ele>
        <time>2025-02-26T14:12:29Z</time>
      </trkpt>
      <trkpt lat="48.03033" lon="-3.47651">
        <ele>63.1</ele>
        <time>2025-02-26T14:12:30Z</time>
      </trkpt>
      <trkpt lat="48.03032" lon="-3.47652">
        <ele>63.1</ele>
        <time>2025-02-26T14:12:31Z</time>
      </trkpt>
      <trkpt lat="48.03031" lon="-3.47653">
        <ele>63.1</ele>
        <time>2025-02-26T14:12:32Z</time>
      </trkpt>
      <trkpt lat="48.0303" lon="-3.47654">
        <ele>63</ele>
        <time>2025-02-26T14:12:33Z</time>
      </trkpt>
      <trkpt lat="48.03028" lon="-3.47655">
        <ele>63</ele>
        <time>2025-02-26T14:12:34Z</time>
      </trkpt>
      <trkpt lat="48.03028" lon="-3.47656">
        <ele>63</ele>
        <time>2025-02-26T14:12:35Z</time>
      </trkpt>
      <trkpt lat="48.03026" lon="-3.47657">
        <ele>63</ele>
        <time>2025-02-26T14:12:36Z</time>
      </trkpt>
      <trkpt lat="48.03025" lon="-3.47658">
        <ele>63</ele>
        <time>2025-02-26T14:12:37Z</time>
      </trkpt>
      <trkpt lat="48.03024" lon="-3.47659">
        <ele>63</ele>
        <time>2025-02-26T14:12:38Z</time>
      </trkpt>
      <trkpt lat="48.03024" lon="-3.4766">
        <ele>63</ele>
        <time>2025-02-26T14:12:39Z</time>
      </trkpt>
      <trkpt lat="48.03023" lon="-3.47661">
        <ele>63</ele>
        <time>2025-02-26T14:12:40Z</time>
      </trkpt>
      <trkpt lat="48.03022" lon="-3.47662">
        <ele>63</ele>
        <time>2025-02-26T14:12:41Z</time>
      </trkpt>
      <trkpt lat="48.0302" lon="-3.47663">
        <ele>63</ele>
        <time>2025-02-26T14:12:42Z</time>
      </trkpt>
      <trkpt lat="48.03019" lon="-3.47663">
        <ele>63</ele>
        <time>2025-02-26T14:12:43Z</time>
      </trkpt>
      <trkpt lat="48.03018" lon="-3.47664">
        <ele>63</ele>
        <time>2025-02-26T14:12:44Z</time>
      </trkpt>
      <trkpt lat="48.03017" lon="-3.47665">
        <ele>63</ele>
        <time>2025-02-26T14:12:45Z</time>
      </trkpt>
      <trkpt lat="48.03016" lon="-3.47665">
        <ele>63</ele>
        <time>2025-02-26T14:12:46Z</time>
      </trkpt>
      <trkpt lat="48.03015" lon="-3.47666">
        <ele>63</ele>
        <time>2025-02-26T14:12:47Z</time>
      </trkpt>
      <trkpt lat="48.03014" lon="-3.47666">
        <ele>63</ele>
        <time>2025-02-26T14:12:48Z</time>
      </trkpt>
      <trkpt lat="48.03014" lon="-3.47667">
        <ele>63</ele>
        <time>2025-02-26T14:12:49Z</time>
      </trkpt>
      <trkpt lat="48.03012" lon="-3.47667">
        <ele>63</ele>
        <time>2025-02-26T14:12:50Z</time>
      </trkpt>
      <trkpt lat="48.03011" lon="-3.47668">
        <ele>63</ele>
        <time>2025-02-26T14:12:51Z</time>
      </trkpt>
      <trkpt lat="48.03011" lon="-3.47669">
        <ele>63</ele>
        <time>2025-02-26T14:12:52Z</time>
      </trkpt>
      <trkpt lat="48.0301" lon="-3.47671">
        <ele>63</ele>
        <time>2025-02-26T14:12:53Z</time>
      </trkpt>
      <trkpt lat="48.03009" lon="-3.47672">
        <ele>63</ele>
        <time>2025-02-26T14:12:54Z</time>
      </trkpt>
      <trkpt lat="48.03008" lon="-3.47673">
        <ele>63</ele>
        <time>2025-02-26T14:12:55Z</time>
      </trkpt>
      <trkpt lat="48.03007" lon="-3.47674">
        <ele>63</ele>
        <time>2025-02-26T14:12:56Z</time>
      </trkpt>
      <trkpt lat="48.03005" lon="-3.47675">
        <ele>63</ele>
        <time>2025-02-26T14:12:57Z</time>
      </trkpt>
      <trkpt lat="48.03004" lon="-3.47675">
        <ele>63</ele>
        <time>2025-02-26T14:12:58Z</time>
      </trkpt>
      <trkpt lat="48.03003" lon="-3.47674">
        <ele>63</ele>
        <time>2025-02-26T14:12:59Z</time>
      </trkpt>
      <trkpt lat="48.03001" lon="-3.47675">
        <ele>63</ele>
        <time>2025-02-26T14:13:00Z</time>
      </trkpt>
      <trkpt lat="48.03" lon="-3.47675">
        <ele>63</ele>
        <time>2025-02-26T14:13:01Z</time>
      </trkpt>
      <trkpt lat="48.02999" lon="-3.47675">
        <ele>63</ele>
        <time>2025-02-26T14:13:02Z</time>
      </trkpt>
      <trkpt lat="48.02998" lon="-3.47676">
        <ele>63</ele>
        <time>2025-02-26T14:13:03Z</time>
      </trkpt>
      <trkpt lat="48.02997" lon="-3.47677">
        <ele>62.9</ele>
        <time>2025-02-26T14:13:04Z</time>
      </trkpt>
      <trkpt lat="48.02996" lon="-3.47676">
        <ele>62.9</ele>
        <time>2025-02-26T14:13:05Z</time>
      </trkpt>
      <trkpt lat="48.02995" lon="-3.47675">
        <ele>62.9</ele>
        <time>2025-02-26T14:13:06Z</time>
      </trkpt>
      <trkpt lat="48.02994" lon="-3.47673">
        <ele>62.8</ele>
        <time>2025-02-26T14:13:07Z</time>
      </trkpt>
      <trkpt lat="48.02993" lon="-3.47672">
        <ele>62.8</ele>
        <time>2025-02-26T14:13:08Z</time>
      </trkpt>
      <trkpt lat="48.02992" lon="-3.4767">
        <ele>62.8</ele>
        <time>2025-02-26T14:13:09Z</time>
      </trkpt>
      <trkpt lat="48.02991" lon="-3.4767">
        <ele>62.7</ele>
        <time>2025-02-26T14:13:10Z</time>
      </trkpt>
      <trkpt lat="48.0299" lon="-3.47669">
        <ele>62.7</ele>
        <time>2025-02-26T14:13:11Z</time>
      </trkpt>
      <trkpt lat="48.02988" lon="-3.47669">
        <ele>62.6</ele>
        <time>2025-02-26T14:13:12Z</time>
      </trkpt>
      <trkpt lat="48.02987" lon="-3.47669">
        <ele>62.6</ele>
        <time>2025-02-26T14:13:13Z</time>
      </trkpt>
      <trkpt lat="48.02986" lon="-3.47668">
        <ele>62.5</ele>
        <time>2025-02-26T14:13:14Z</time>
      </trkpt>
      <trkpt lat="48.02985" lon="-3.47668">
        <ele>62.5</ele>
        <time>2025-02-26T14:13:15Z</time>
      </trkpt>
      <trkpt lat="48.02984" lon="-3.47668">
        <ele>62.5</ele>
        <time>2025-02-26T14:13:16Z</time>
      </trkpt>
      <trkpt lat="48.02983" lon="-3.47669">
        <ele>62.4</ele>
        <time>2025-02-26T14:13:17Z</time>
      </trkpt>
      <trkpt lat="48.02982" lon="-3.4767">
        <ele>62.4</ele>
        <time>2025-02-26T14:13:18Z</time>
      </trkpt>
      <trkpt lat="48.02981" lon="-3.47671">
        <ele>62.4</ele>
        <time>2025-02-26T14:13:19Z</time>
      </trkpt>
      <trkpt lat="48.0298" lon="-3.4767">
        <ele>62.4</ele>
        <time>2025-02-26T14:13:20Z</time>
      </trkpt>
      <trkpt lat="48.02978" lon="-3.4767">
        <ele>62.3</ele>
        <time>2025-02-26T14:13:21Z</time>
      </trkpt>
      <trkpt lat="48.02977" lon="-3.4767">
        <ele>62.3</ele>
        <time>2025-02-26T14:13:22Z</time>
      </trkpt>
      <trkpt lat="48.02977" lon="-3.47669">
        <ele>62.2</ele>
        <time>2025-02-26T14:13:23Z</time>
      </trkpt>
      <trkpt lat="48.02976" lon="-3.47669">
        <ele>62.2</ele>
        <time>2025-02-26T14:13:24Z</time>
      </trkpt>
      <trkpt lat="48.02975" lon="-3.47668">
        <ele>62.1</ele>
        <time>2025-02-26T14:13:25Z</time>
      </trkpt>
      <trkpt lat="48.02973" lon="-3.47668">
        <ele>62.1</ele>
        <time>2025-02-26T14:13:26Z</time>
      </trkpt>
      <trkpt lat="48.02972" lon="-3.47668">
        <ele>62</ele>
        <time>2025-02-26T14:13:27Z</time>
      </trkpt>
      <trkpt lat="48.02971" lon="-3.47666">
        <ele>62</ele>
        <time>2025-02-26T14:13:28Z</time>
      </trkpt>
      <trkpt lat="48.0297" lon="-3.47665">
        <ele>62</ele>
        <time>2025-02-26T14:13:29Z</time>
      </trkpt>
      <trkpt lat="48.02969" lon="-3.47664">
        <ele>62</ele>
        <time>2025-02-26T14:13:30Z</time>
      </trkpt>
      <trkpt lat="48.02968" lon="-3.47664">
        <ele>62</ele>
        <time>2025-02-26T14:13:31Z</time>
      </trkpt>
      <trkpt lat="48.02966" lon="-3.47665">
        <ele>62</ele>
        <time>2025-02-26T14:13:32Z</time>
      </trkpt>
      <trkpt lat="48.02965" lon="-3.47666">
        <ele>62</ele>
        <time>2025-02-26T14:13:33Z</time>
      </trkpt>
      <trkpt lat="48.02965" lon="-3.47668">
        <ele>62</ele>
        <time>2025-02-26T14:13:34Z</time>
      </trkpt>
      <trkpt lat="48.02964" lon="-3.47669">
        <ele>62.1</ele>
        <time>2025-02-26T14:13:35Z</time>
      </trkpt>
      <trkpt lat="48.02964" lon="-3.4767">
        <ele>62.1</ele>
        <time>2025-02-26T14:13:36Z</time>
      </trkpt>
      <trkpt lat="48.02963" lon="-3.47672">
        <ele>62.1</ele>
        <time>2025-02-26T14:13:37Z</time>
      </trkpt>
      <trkpt lat="48.02963" lon="-3.47673">
        <ele>62.2</ele>
        <time>2025-02-26T14:13:38Z</time>
      </trkpt>
      <trkpt lat="48.02963" lon="-3.47674">
        <ele>62.2</ele>
        <time>2025-02-26T14:13:39Z</time>
      </trkpt>
      <trkpt lat="48.02962" lon="-3.47675">
        <ele>62.2</ele>
        <time>2025-02-26T14:13:40Z</time>
      </trkpt>
      <trkpt lat="48.02961" lon="-3.47676">
        <ele>62.2</ele>
        <time>2025-02-26T14:13:41Z</time>
      </trkpt>
      <trkpt lat="48.0296" lon="-3.47677">
        <ele>62.2</ele>
        <time>2025-02-26T14:13:42Z</time>
      </trkpt>
      <trkpt lat="48.0296" lon="-3.47677">
        <ele>62.2</ele>
        <time>2025-02-26T14:13:43Z</time>
      </trkpt>
      <trkpt lat="48.02959" lon="-3.47677">
        <ele>62.2</ele>
        <time>2025-02-26T14:13:44Z</time>
      </trkpt>
      <trkpt lat="48.02958" lon="-3.47677">
        <ele>62.2</ele>
        <time>2025-02-26T14:13:45Z</time>
      </trkpt>
      <trkpt lat="48.02957" lon="-3.47677">
        <ele>62.2</ele>
        <time>2025-02-26T14:13:46Z</time>
      </trkpt>
      <trkpt lat="48.02956" lon="-3.47677">
        <ele>62.2</ele>
        <time>2025-02-26T14:13:47Z</time>
      </trkpt>
      <trkpt lat="48.02956" lon="-3.47677">
        <ele>62.1</ele>
        <time>2025-02-26T14:13:48Z</time>
      </trkpt>
      <trkpt lat="48.02955" lon="-3.47677">
        <ele>62.1</ele>
        <time>2025-02-26T14:13:49Z</time>
      </trkpt>
      <trkpt lat="48.02953" lon="-3.47677">
        <ele>62.1</ele>
        <time>2025-02-26T14:13:50Z</time>
      </trkpt>
      <trkpt lat="48.02952" lon="-3.47676">
        <ele>62.1</ele>
        <time>2025-02-26T14:13:51Z</time>
      </trkpt>
      <trkpt lat="48.0295" lon="-3.47676">
        <ele>62.1</ele>
        <time>2025-02-26T14:13:52Z</time>
      </trkpt>
      <trkpt lat="48.02949" lon="-3.47675">
        <ele>62</ele>
        <time>2025-02-26T14:13:53Z</time>
      </trkpt>
      <trkpt lat="48.02948" lon="-3.47672">
        <ele>62</ele>
        <time>2025-02-26T14:13:54Z</time>
      </trkpt>
      <trkpt lat="48.02947" lon="-3.47669">
        <ele>62</ele>
        <time>2025-02-26T14:13:55Z</time>
      </trkpt>
      <trkpt lat="48.02947" lon="-3.47667">
        <ele>62</ele>
        <time>2025-02-26T14:13:56Z</time>
      </trkpt>
      <trkpt lat="48.02946" lon="-3.47665">
        <ele>62</ele>
        <time>2025-02-26T14:13:57Z</time>
      </trkpt>
      <trkpt lat="48.02947" lon="-3.47665">
        <ele>62</ele>
        <time>2025-02-26T14:13:58Z</time>
      </trkpt>
      <trkpt lat="48.02946" lon="-3.47665">
        <ele>62</ele>
        <time>2025-02-26T14:13:59Z</time>
      </trkpt>
      <trkpt lat="48.02946" lon="-3.47664">
        <ele>62</ele>
        <time>2025-02-26T14:14:00Z</time>
      </trkpt>
      <trkpt lat="48.02946" lon="-3.47663">
        <ele>62</ele>
        <time>2025-02-26T14:14:01Z</time>
      </trkpt>
      <trkpt lat="48.02946" lon="-3.47662">
        <ele>62</ele>
        <time>2025-02-26T14:14:02Z</time>
      </trkpt>
      <trkpt lat="48.02948" lon="-3.47664">
        <ele>62</ele>
        <time>2025-02-26T14:14:03Z</time>
      </trkpt>
      <trkpt lat="48.02948" lon="-3.47662">
        <ele>62</ele>
        <time>2025-02-26T14:14:04Z</time>
      </trkpt>
      <trkpt lat="48.02947" lon="-3.4766">
        <ele>62</ele>
        <time>2025-02-26T14:14:05Z</time>
      </trkpt>
      <trkpt lat="48.02945" lon="-3.4766">
        <ele>62</ele>
        <time>2025-02-26T14:14:06Z</time>
      </trkpt>
      <trkpt lat="48.02944" lon="-3.47661">
        <ele>62</ele>
        <time>2025-02-26T14:14:07Z</time>
      </trkpt>
      <trkpt lat="48.02943" lon="-3.47662">
        <ele>62</ele>
        <time>2025-02-26T14:14:08Z</time>
      </trkpt>
      <trkpt lat="48.02942" lon="-3.47663">
        <ele>62</ele>
        <time>2025-02-26T14:14:09Z</time>
      </trkpt>
      <trkpt lat="48.02941" lon="-3.47663">
        <ele>62</ele>
        <time>2025-02-26T14:14:10Z</time>
      </trkpt>
      <trkpt lat="48.0294" lon="-3.47663">
        <ele>62</ele>
        <time>2025-02-26T14:14:11Z</time>
      </trkpt>
      <trkpt lat="48.02939" lon="-3.47663">
        <ele>62</ele>
        <time>2025-02-26T14:14:12Z</time>
      </trkpt>
      <trkpt lat="48.02938" lon="-3.47663">
        <ele>62</ele>
        <time>2025-02-26T14:14:13Z</time>
      </trkpt>
      <trkpt lat="48.02937" lon="-3.47663">
        <ele>62</ele>
        <time>2025-02-26T14:14:14Z</time>
      </trkpt>
      <trkpt lat="48.02937" lon="-3.47664">
        <ele>62</ele>
        <time>2025-02-26T14:14:15Z</time>
      </trkpt>
      <trkpt lat="48.02936" lon="-3.47664">
        <ele>62</ele>
        <time>2025-02-26T14:14:16Z</time>
      </trkpt>
      <trkpt lat="48.02935" lon="-3.47665">
        <ele>62</ele>
        <time>2025-02-26T14:14:17Z</time>
      </trkpt>
      <trkpt lat="48.02934" lon="-3.47666">
        <ele>62</ele>
        <time>2025-02-26T14:14:18Z</time>
      </trkpt>
      <trkpt lat="48.02934" lon="-3.47666">
        <ele>62</ele>
        <time>2025-02-26T14:14:19Z</time>
      </trkpt>
      <trkpt lat="48.02933" lon="-3.47667">
        <ele>62</ele>
        <time>2025-02-26T14:14:20Z</time>
      </trkpt>
      <trkpt lat="48.02932" lon="-3.47668">
        <ele>62</ele>
        <time>2025-02-26T14:14:21Z</time>
      </trkpt>
      <trkpt lat="48.02931" lon="-3.47669">
        <ele>62</ele>
        <time>2025-02-26T14:14:22Z</time>
      </trkpt>
      <trkpt lat="48.0293" lon="-3.47669">
        <ele>62</ele>
        <time>2025-02-26T14:14:23Z</time>
      </trkpt>
      <trkpt lat="48.0293" lon="-3.4767">
        <ele>62</ele>
        <time>2025-02-26T14:14:24Z</time>
      </trkpt>
      <trkpt lat="48.02929" lon="-3.4767">
        <ele>62</ele>
        <time>2025-02-26T14:14:25Z</time>
      </trkpt>
      <trkpt lat="48.02928" lon="-3.47671">
        <ele>62</ele>
        <time>2025-02-26T14:14:26Z</time>
      </trkpt>
      <trkpt lat="48.02927" lon="-3.47673">
        <ele>62</ele>
        <time>2025-02-26T14:14:27Z</time>
      </trkpt>
      <trkpt lat="48.02926" lon="-3.47674">
        <ele>62</ele>
        <time>2025-02-26T14:14:28Z</time>
      </trkpt>
      <trkpt lat="48.02926" lon="-3.47674">
        <ele>62</ele>
        <time>2025-02-26T14:14:29Z</time>
      </trkpt>
      <trkpt lat="48.02925" lon="-3.47675">
        <ele>62</ele>
        <time>2025-02-26T14:14:30Z</time>
      </trkpt>
      <trkpt lat="48.02923" lon="-3.47675">
        <ele>62</ele>
        <time>2025-02-26T14:14:31Z</time>
      </trkpt>
      <trkpt lat="48.02922" lon="-3.47675">
        <ele>62</ele>
        <time>2025-02-26T14:14:32Z</time>
      </trkpt>
      <trkpt lat="48.02921" lon="-3.47676">
        <ele>62</ele>
        <time>2025-02-26T14:14:33Z</time>
      </trkpt>
      <trkpt lat="48.0292" lon="-3.47676">
        <ele>62</ele>
        <time>2025-02-26T14:14:34Z</time>
      </trkpt>
      <trkpt lat="48.0292" lon="-3.47676">
        <ele>62</ele>
        <time>2025-02-26T14:14:35Z</time>
      </trkpt>
      <trkpt lat="48.02919" lon="-3.47678">
        <ele>62</ele>
        <time>2025-02-26T14:14:36Z</time>
      </trkpt>
      <trkpt lat="48.02919" lon="-3.47679">
        <ele>62</ele>
        <time>2025-02-26T14:14:37Z</time>
      </trkpt>
      <trkpt lat="48.02918" lon="-3.4768">
        <ele>62</ele>
        <time>2025-02-26T14:14:38Z</time>
      </trkpt>
      <trkpt lat="48.02917" lon="-3.47681">
        <ele>62</ele>
        <time>2025-02-26T14:14:39Z</time>
      </trkpt>
      <trkpt lat="48.02916" lon="-3.47682">
        <ele>62</ele>
        <time>2025-02-26T14:14:40Z</time>
      </trkpt>
      <trkpt lat="48.02915" lon="-3.47683">
        <ele>62</ele>
        <time>2025-02-26T14:14:41Z</time>
      </trkpt>
      <trkpt lat="48.02914" lon="-3.47684">
        <ele>62</ele>
        <time>2025-02-26T14:14:42Z</time>
      </trkpt>
      <trkpt lat="48.02913" lon="-3.47685">
        <ele>62</ele>
        <time>2025-02-26T14:14:43Z</time>
      </trkpt>
      <trkpt lat="48.02912" lon="-3.47685">
        <ele>62</ele>
        <time>2025-02-26T14:14:44Z</time>
      </trkpt>
      <trkpt lat="48.02911" lon="-3.47686">
        <ele>62</ele>
        <time>2025-02-26T14:14:45Z</time>
      </trkpt>
      <trkpt lat="48.0291" lon="-3.47686">
        <ele>62</ele>
        <time>2025-02-26T14:14:46Z</time>
      </trkpt>
      <trkpt lat="48.02909" lon="-3.47688">
        <ele>62</ele>
        <time>2025-02-26T14:14:47Z</time>
      </trkpt>
      <trkpt lat="48.02908" lon="-3.47688">
        <ele>62</ele>
        <time>2025-02-26T14:14:48Z</time>
      </trkpt>
      <trkpt lat="48.02907" lon="-3.47689">
        <ele>62</ele>
        <time>2025-02-26T14:14:49Z</time>
      </trkpt>
      <trkpt lat="48.02906" lon="-3.47689">
        <ele>62</ele>
        <time>2025-02-26T14:14:50Z</time>
      </trkpt>
      <trkpt lat="48.02905" lon="-3.47689">
        <ele>62</ele>
        <time>2025-02-26T14:14:51Z</time>
      </trkpt>
      <trkpt lat="48.02904" lon="-3.47689">
        <ele>62</ele>
        <time>2025-02-26T14:14:52Z</time>
      </trkpt>
      <trkpt lat="48.02903" lon="-3.47689">
        <ele>62</ele>
        <time>2025-02-26T14:14:53Z</time>
      </trkpt>
      <trkpt lat="48.02902" lon="-3.47688">
        <ele>62</ele>
        <time>2025-02-26T14:14:54Z</time>
      </trkpt>
      <trkpt lat="48.02901" lon="-3.4769">
        <ele>62</ele>
        <time>2025-02-26T14:14:55Z</time>
      </trkpt>
      <trkpt lat="48.029" lon="-3.47691">
        <ele>62</ele>
        <time>2025-02-26T14:14:56Z</time>
      </trkpt>
      <trkpt lat="48.029" lon="-3.47692">
        <ele>62</ele>
        <time>2025-02-26T14:14:57Z</time>
      </trkpt>
      <trkpt lat="48.029" lon="-3.47694">
        <ele>62</ele>
        <time>2025-02-26T14:14:58Z</time>
      </trkpt>
      <trkpt lat="48.029" lon="-3.47696">
        <ele>62</ele>
        <time>2025-02-26T14:14:59Z</time>
      </trkpt>
      <trkpt lat="48.029" lon="-3.47697">
        <ele>62.1</ele>
        <time>2025-02-26T14:15:00Z</time>
      </trkpt>
      <trkpt lat="48.02901" lon="-3.47698">
        <ele>62.1</ele>
        <time>2025-02-26T14:15:01Z</time>
      </trkpt>
      <trkpt lat="48.02901" lon="-3.47699">
        <ele>62.1</ele>
        <time>2025-02-26T14:15:02Z</time>
      </trkpt>
      <trkpt lat="48.02902" lon="-3.47699">
        <ele>62.1</ele>
        <time>2025-02-26T14:15:03Z</time>
      </trkpt>
      <trkpt lat="48.02903" lon="-3.477">
        <ele>62.1</ele>
        <time>2025-02-26T14:15:04Z</time>
      </trkpt>
      <trkpt lat="48.02904" lon="-3.47702">
        <ele>62.1</ele>
        <time>2025-02-26T14:15:05Z</time>
      </trkpt>
      <trkpt lat="48.02904" lon="-3.47703">
        <ele>62.1</ele>
        <time>2025-02-26T14:15:06Z</time>
      </trkpt>
      <trkpt lat="48.02904" lon="-3.47705">
        <ele>62.2</ele>
        <time>2025-02-26T14:15:07Z</time>
      </trkpt>
      <trkpt lat="48.02904" lon="-3.47706">
        <ele>62.2</ele>
        <time>2025-02-26T14:15:08Z</time>
      </trkpt>
      <trkpt lat="48.02904" lon="-3.47708">
        <ele>62.2</ele>
        <time>2025-02-26T14:15:09Z</time>
      </trkpt>
      <trkpt lat="48.02905" lon="-3.4771">
        <ele>62.2</ele>
        <time>2025-02-26T14:15:10Z</time>
      </trkpt>
      <trkpt lat="48.02904" lon="-3.47711">
        <ele>62.3</ele>
        <time>2025-02-26T14:15:11Z</time>
      </trkpt>
      <trkpt lat="48.02904" lon="-3.47713">
        <ele>62.3</ele>
        <time>2025-02-26T14:15:12Z</time>
      </trkpt>
      <trkpt lat="48.02903" lon="-3.47714">
        <ele>62.3</ele>
        <time>2025-02-26T14:15:13Z</time>
      </trkpt>
      <trkpt lat="48.02903" lon="-3.47715">
        <ele>62.4</ele>
        <time>2025-02-26T14:15:14Z</time>
      </trkpt>
      <trkpt lat="48.02902" lon="-3.47715">
        <ele>62.4</ele>
        <time>2025-02-26T14:15:15Z</time>
      </trkpt>
      <trkpt lat="48.02901" lon="-3.47715">
        <ele>62.4</ele>
        <time>2025-02-26T14:15:16Z</time>
      </trkpt>
      <trkpt lat="48.029" lon="-3.47715">
        <ele>62.5</ele>
        <time>2025-02-26T14:15:17Z</time>
      </trkpt>
      <trkpt lat="48.02899" lon="-3.47715">
        <ele>62.5</ele>
        <time>2025-02-26T14:15:18Z</time>
      </trkpt>
      <trkpt lat="48.02898" lon="-3.47714">
        <ele>62.5</ele>
        <time>2025-02-26T14:15:19Z</time>
      </trkpt>
      <trkpt lat="48.02897" lon="-3.47714">
        <ele>62.5</ele>
        <time>2025-02-26T14:15:20Z</time>
      </trkpt>
      <trkpt lat="48.02896" lon="-3.47713">
        <ele>62.5</ele>
        <time>2025-02-26T14:15:21Z</time>
      </trkpt>
      <trkpt lat="48.02895" lon="-3.47712">
        <ele>62.5</ele>
        <time>2025-02-26T14:15:22Z</time>
      </trkpt>
      <trkpt lat="48.02895" lon="-3.47711">
        <ele>62.5</ele>
        <time>2025-02-26T14:15:23Z</time>
      </trkpt>
      <trkpt lat="48.02894" lon="-3.4771">
        <ele>62.5</ele>
        <time>2025-02-26T14:15:24Z</time>
      </trkpt>
      <trkpt lat="48.02893" lon="-3.47709">
        <ele>62.5</ele>
        <time>2025-02-26T14:15:25Z</time>
      </trkpt>
      <trkpt lat="48.02892" lon="-3.47708">
        <ele>62.4</ele>
        <time>2025-02-26T14:15:26Z</time>
      </trkpt>
      <trkpt lat="48.02891" lon="-3.47708">
        <ele>62.4</ele>
        <time>2025-02-26T14:15:27Z</time>
      </trkpt>
      <trkpt lat="48.0289" lon="-3.47707">
        <ele>62.4</ele>
        <time>2025-02-26T14:15:28Z</time>
      </trkpt>
      <trkpt lat="48.02889" lon="-3.47707">
        <ele>62.4</ele>
        <time>2025-02-26T14:15:29Z</time>
      </trkpt>
      <trkpt lat="48.02888" lon="-3.47706">
        <ele>62.4</ele>
        <time>2025-02-26T14:15:30Z</time>
      </trkpt>
      <trkpt lat="48.02888" lon="-3.47705">
        <ele>62.4</ele>
        <time>2025-02-26T14:15:31Z</time>
      </trkpt>
      <trkpt lat="48.02887" lon="-3.47704">
        <ele>62.4</ele>
        <time>2025-02-26T14:15:32Z</time>
      </trkpt>
      <trkpt lat="48.02886" lon="-3.47704">
        <ele>62.4</ele>
        <time>2025-02-26T14:15:33Z</time>
      </trkpt>
      <trkpt lat="48.02885" lon="-3.47703">
        <ele>62.4</ele>
        <time>2025-02-26T14:15:34Z</time>
      </trkpt>
      <trkpt lat="48.02884" lon="-3.47702">
        <ele>62.4</ele>
        <time>2025-02-26T14:15:35Z</time>
      </trkpt>
      <trkpt lat="48.02883" lon="-3.47702">
        <ele>62.4</ele>
        <time>2025-02-26T14:15:36Z</time>
      </trkpt>
      <trkpt lat="48.02882" lon="-3.47701">
        <ele>62.4</ele>
        <time>2025-02-26T14:15:37Z</time>
      </trkpt>
      <trkpt lat="48.02881" lon="-3.477">
        <ele>62.4</ele>
        <time>2025-02-26T14:15:38Z</time>
      </trkpt>
      <trkpt lat="48.0288" lon="-3.47699">
        <ele>62.4</ele>
        <time>2025-02-26T14:15:39Z</time>
      </trkpt>
      <trkpt lat="48.02879" lon="-3.47698">
        <ele>62.4</ele>
        <time>2025-02-26T14:15:40Z</time>
      </trkpt>
      <trkpt lat="48.02878" lon="-3.47697">
        <ele>62.4</ele>
        <time>2025-02-26T14:15:41Z</time>
      </trkpt>
      <trkpt lat="48.02877" lon="-3.47697">
        <ele>62.5</ele>
        <time>2025-02-26T14:15:42Z</time>
      </trkpt>
      <trkpt lat="48.02877" lon="-3.47696">
        <ele>62.5</ele>
        <time>2025-02-26T14:15:43Z</time>
      </trkpt>
      <trkpt lat="48.02876" lon="-3.47695">
        <ele>62.5</ele>
        <time>2025-02-26T14:15:44Z</time>
      </trkpt>
      <trkpt lat="48.02875" lon="-3.47694">
        <ele>62.5</ele>
        <time>2025-02-26T14:15:45Z</time>
      </trkpt>
      <trkpt lat="48.02874" lon="-3.47694">
        <ele>62.5</ele>
        <time>2025-02-26T14:15:46Z</time>
      </trkpt>
      <trkpt lat="48.02872" lon="-3.47694">
        <ele>62.6</ele>
        <time>2025-02-26T14:15:47Z</time>
      </trkpt>
      <trkpt lat="48.02871" lon="-3.47693">
        <ele>62.6</ele>
        <time>2025-02-26T14:15:48Z</time>
      </trkpt>
      <trkpt lat="48.0287" lon="-3.47693">
        <ele>62.6</ele>
        <time>2025-02-26T14:15:49Z</time>
      </trkpt>
      <trkpt lat="48.0287" lon="-3.47692">
        <ele>62.6</ele>
        <time>2025-02-26T14:15:50Z</time>
      </trkpt>
      <trkpt lat="48.02868" lon="-3.47692">
        <ele>62.7</ele>
        <time>2025-02-26T14:15:51Z</time>
      </trkpt>
      <trkpt lat="48.02867" lon="-3.47691">
        <ele>62.7</ele>
        <time>2025-02-26T14:15:52Z</time>
      </trkpt>
      <trkpt lat="48.02866" lon="-3.47691">
        <ele>62.7</ele>
        <time>2025-02-26T14:15:53Z</time>
      </trkpt>
      <trkpt lat="48.02865" lon="-3.47691">
        <ele>62.8</ele>
        <time>2025-02-26T14:15:54Z</time>
      </trkpt>
      <trkpt lat="48.02864" lon="-3.47691">
        <ele>62.8</ele>
        <time>2025-02-26T14:15:55Z</time>
      </trkpt>
      <trkpt lat="48.02863" lon="-3.47692">
        <ele>62.9</ele>
        <time>2025-02-26T14:15:56Z</time>
      </trkpt>
      <trkpt lat="48.02861" lon="-3.47691">
        <ele>62.9</ele>
        <time>2025-02-26T14:15:57Z</time>
      </trkpt>
      <trkpt lat="48.0286" lon="-3.4769">
        <ele>62.8</ele>
        <time>2025-02-26T14:15:58Z</time>
      </trkpt>
      <trkpt lat="48.02859" lon="-3.47689">
        <ele>62.8</ele>
        <time>2025-02-26T14:15:59Z</time>
      </trkpt>
      <trkpt lat="48.02858" lon="-3.47688">
        <ele>62.8</ele>
        <time>2025-02-26T14:16:00Z</time>
      </trkpt>
      <trkpt lat="48.02857" lon="-3.47688">
        <ele>62.8</ele>
        <time>2025-02-26T14:16:01Z</time>
      </trkpt>
      <trkpt lat="48.02856" lon="-3.47688">
        <ele>62.8</ele>
        <time>2025-02-26T14:16:02Z</time>
      </trkpt>
      <trkpt lat="48.02855" lon="-3.47689">
        <ele>62.8</ele>
        <time>2025-02-26T14:16:03Z</time>
      </trkpt>
      <trkpt lat="48.02854" lon="-3.47689">
        <ele>62.8</ele>
        <time>2025-02-26T14:16:04Z</time>
      </trkpt>
      <trkpt lat="48.02853" lon="-3.47689">
        <ele>62.8</ele>
        <time>2025-02-26T14:16:05Z</time>
      </trkpt>
      <trkpt lat="48.02852" lon="-3.47688">
        <ele>62.8</ele>
        <time>2025-02-26T14:16:06Z</time>
      </trkpt>
      <trkpt lat="48.02851" lon="-3.47688">
        <ele>62.8</ele>
        <time>2025-02-26T14:16:07Z</time>
      </trkpt>
      <trkpt lat="48.02849" lon="-3.47688">
        <ele>62.8</ele>
        <time>2025-02-26T14:16:08Z</time>
      </trkpt>
      <trkpt lat="48.02849" lon="-3.47689">
        <ele>62.8</ele>
        <time>2025-02-26T14:16:09Z</time>
      </trkpt>
      <trkpt lat="48.02848" lon="-3.47689">
        <ele>62.8</ele>
        <time>2025-02-26T14:16:10Z</time>
      </trkpt>
      <trkpt lat="48.02846" lon="-3.47689">
        <ele>62.8</ele>
        <time>2025-02-26T14:16:11Z</time>
      </trkpt>
      <trkpt lat="48.02845" lon="-3.47688">
        <ele>62.8</ele>
        <time>2025-02-26T14:16:12Z</time>
      </trkpt>
      <trkpt lat="48.02844" lon="-3.47688">
        <ele>62.8</ele>
        <time>2025-02-26T14:16:13Z</time>
      </trkpt>
      <trkpt lat="48.02843" lon="-3.47688">
        <ele>62.8</ele>
        <time>2025-02-26T14:16:14Z</time>
      </trkpt>
      <trkpt lat="48.02842" lon="-3.47688">
        <ele>62.8</ele>
        <time>2025-02-26T14:16:15Z</time>
      </trkpt>
      <trkpt lat="48.02841" lon="-3.47689">
        <ele>62.8</ele>
        <time>2025-02-26T14:16:16Z</time>
      </trkpt>
      <trkpt lat="48.0284" lon="-3.4769">
        <ele>62.8</ele>
        <time>2025-02-26T14:16:17Z</time>
      </trkpt>
      <trkpt lat="48.02838" lon="-3.4769">
        <ele>62.8</ele>
        <time>2025-02-26T14:16:18Z</time>
      </trkpt>
      <trkpt lat="48.02837" lon="-3.47689">
        <ele>62.8</ele>
        <time>2025-02-26T14:16:19Z</time>
      </trkpt>
      <trkpt lat="48.02836" lon="-3.47689">
        <ele>62.8</ele>
        <time>2025-02-26T14:16:20Z</time>
      </trkpt>
      <trkpt lat="48.02835" lon="-3.47689">
        <ele>62.8</ele>
        <time>2025-02-26T14:16:21Z</time>
      </trkpt>
      <trkpt lat="48.02834" lon="-3.4769">
        <ele>62.8</ele>
        <time>2025-02-26T14:16:22Z</time>
      </trkpt>
      <trkpt lat="48.02833" lon="-3.47691">
        <ele>62.9</ele>
        <time>2025-02-26T14:16:23Z</time>
      </trkpt>
      <trkpt lat="48.02832" lon="-3.47692">
        <ele>62.9</ele>
        <time>2025-02-26T14:16:24Z</time>
      </trkpt>
      <trkpt lat="48.02831" lon="-3.47691">
        <ele>63</ele>
        <time>2025-02-26T14:16:25Z</time>
      </trkpt>
      <trkpt lat="48.0283" lon="-3.47692">
        <ele>63</ele>
        <time>2025-02-26T14:16:26Z</time>
      </trkpt>
      <trkpt lat="48.02828" lon="-3.47692">
        <ele>63.1</ele>
        <time>2025-02-26T14:16:27Z</time>
      </trkpt>
      <trkpt lat="48.02827" lon="-3.47692">
        <ele>63.1</ele>
        <time>2025-02-26T14:16:28Z</time>
      </trkpt>
      <trkpt lat="48.02826" lon="-3.47692">
        <ele>63.2</ele>
        <time>2025-02-26T14:16:29Z</time>
      </trkpt>
      <trkpt lat="48.02825" lon="-3.47692">
        <ele>63.2</ele>
        <time>2025-02-26T14:16:30Z</time>
      </trkpt>
      <trkpt lat="48.02824" lon="-3.47693">
        <ele>63.3</ele>
        <time>2025-02-26T14:16:31Z</time>
      </trkpt>
      <trkpt lat="48.02823" lon="-3.47694">
        <ele>63.4</ele>
        <time>2025-02-26T14:16:32Z</time>
      </trkpt>
      <trkpt lat="48.02822" lon="-3.47694">
        <ele>63.4</ele>
        <time>2025-02-26T14:16:33Z</time>
      </trkpt>
      <trkpt lat="48.02821" lon="-3.47694">
        <ele>63.5</ele>
        <time>2025-02-26T14:16:34Z</time>
      </trkpt>
      <trkpt lat="48.0282" lon="-3.47694">
        <ele>63.5</ele>
        <time>2025-02-26T14:16:35Z</time>
      </trkpt>
      <trkpt lat="48.02819" lon="-3.47695">
        <ele>63.5</ele>
        <time>2025-02-26T14:16:36Z</time>
      </trkpt>
      <trkpt lat="48.02818" lon="-3.47695">
        <ele>63.6</ele>
        <time>2025-02-26T14:16:37Z</time>
      </trkpt>
      <trkpt lat="48.02817" lon="-3.47696">
        <ele>63.6</ele>
        <time>2025-02-26T14:16:38Z</time>
      </trkpt>
      <trkpt lat="48.02816" lon="-3.47696">
        <ele>63.7</ele>
        <time>2025-02-26T14:16:39Z</time>
      </trkpt>
      <trkpt lat="48.02815" lon="-3.47697">
        <ele>63.7</ele>
        <time>2025-02-26T14:16:40Z</time>
      </trkpt>
      <trkpt lat="48.02813" lon="-3.47697">
        <ele>63.7</ele>
        <time>2025-02-26T14:16:41Z</time>
      </trkpt>
      <trkpt lat="48.02812" lon="-3.47698">
        <ele>63.8</ele>
        <time>2025-02-26T14:16:42Z</time>
      </trkpt>
      <trkpt lat="48.02811" lon="-3.47698">
        <ele>63.8</ele>
        <time>2025-02-26T14:16:43Z</time>
      </trkpt>
      <trkpt lat="48.0281" lon="-3.47698">
        <ele>63.9</ele>
        <time>2025-02-26T14:16:44Z</time>
      </trkpt>
      <trkpt lat="48.02809" lon="-3.47698">
        <ele>63.9</ele>
        <time>2025-02-26T14:16:45Z</time>
      </trkpt>
      <trkpt lat="48.02808" lon="-3.47698">
        <ele>63.9</ele>
        <time>2025-02-26T14:16:46Z</time>
      </trkpt>
      <trkpt lat="48.02807" lon="-3.47698">
        <ele>64</ele>
        <time>2025-02-26T14:16:47Z</time>
      </trkpt>
      <trkpt lat="48.02806" lon="-3.47698">
        <ele>64</ele>
        <time>2025-02-26T14:16:48Z</time>
      </trkpt>
      <trkpt lat="48.02805" lon="-3.47698">
        <ele>64</ele>
        <time>2025-02-26T14:16:49Z</time>
      </trkpt>
      <trkpt lat="48.02804" lon="-3.47699">
        <ele>64</ele>
        <time>2025-02-26T14:16:50Z</time>
      </trkpt>
      <trkpt lat="48.02803" lon="-3.47699">
        <ele>64</ele>
        <time>2025-02-26T14:16:51Z</time>
      </trkpt>
      <trkpt lat="48.02802" lon="-3.47699">
        <ele>64</ele>
        <time>2025-02-26T14:16:52Z</time>
      </trkpt>
      <trkpt lat="48.02801" lon="-3.47699">
        <ele>64</ele>
        <time>2025-02-26T14:16:53Z</time>
      </trkpt>
      <trkpt lat="48.028" lon="-3.47699">
        <ele>64</ele>
        <time>2025-02-26T14:16:54Z</time>
      </trkpt>
      <trkpt lat="48.02799" lon="-3.47699">
        <ele>64</ele>
        <time>2025-02-26T14:16:55Z</time>
      </trkpt>
      <trkpt lat="48.02798" lon="-3.477">
        <ele>64.1</ele>
        <time>2025-02-26T14:16:56Z</time>
      </trkpt>
      <trkpt lat="48.02797" lon="-3.47701">
        <ele>64.1</ele>
        <time>2025-02-26T14:16:57Z</time>
      </trkpt>
      <trkpt lat="48.02796" lon="-3.47702">
        <ele>64.1</ele>
        <time>2025-02-26T14:16:58Z</time>
      </trkpt>
      <trkpt lat="48.02794" lon="-3.47701">
        <ele>64.1</ele>
        <time>2025-02-26T14:16:59Z</time>
      </trkpt>
      <trkpt lat="48.02793" lon="-3.47701">
        <ele>64.1</ele>
        <time>2025-02-26T14:17:00Z</time>
      </trkpt>
      <trkpt lat="48.02792" lon="-3.47701">
        <ele>64.1</ele>
        <time>2025-02-26T14:17:01Z</time>
      </trkpt>
      <trkpt lat="48.02791" lon="-3.47701">
        <ele>64.1</ele>
        <time>2025-02-26T14:17:02Z</time>
      </trkpt>
      <trkpt lat="48.0279" lon="-3.47702">
        <ele>64.1</ele>
        <time>2025-02-26T14:17:03Z</time>
      </trkpt>
      <trkpt lat="48.02789" lon="-3.47702">
        <ele>64.2</ele>
        <time>2025-02-26T14:17:04Z</time>
      </trkpt>
      <trkpt lat="48.02788" lon="-3.47702">
        <ele>64.2</ele>
        <time>2025-02-26T14:17:05Z</time>
      </trkpt>
      <trkpt lat="48.02786" lon="-3.47702">
        <ele>64.2</ele>
        <time>2025-02-26T14:17:06Z</time>
      </trkpt>
      <trkpt lat="48.02785" lon="-3.47701">
        <ele>64.2</ele>
        <time>2025-02-26T14:17:07Z</time>
      </trkpt>
      <trkpt lat="48.02784" lon="-3.47701">
        <ele>64.2</ele>
        <time>2025-02-26T14:17:08Z</time>
      </trkpt>
      <trkpt lat="48.02783" lon="-3.47702">
        <ele>64.2</ele>
        <time>2025-02-26T14:17:09Z</time>
      </trkpt>
      <trkpt lat="48.02782" lon="-3.47702">
        <ele>64.2</ele>
        <time>2025-02-26T14:17:10Z</time>
      </trkpt>
      <trkpt lat="48.02781" lon="-3.47703">
        <ele>64.3</ele>
        <time>2025-02-26T14:17:11Z</time>
      </trkpt>
      <trkpt lat="48.02779" lon="-3.47703">
        <ele>64.3</ele>
        <time>2025-02-26T14:17:12Z</time>
      </trkpt>
      <trkpt lat="48.02778" lon="-3.47703">
        <ele>64.3</ele>
        <time>2025-02-26T14:17:13Z</time>
      </trkpt>
      <trkpt lat="48.02777" lon="-3.47703">
        <ele>64.3</ele>
        <time>2025-02-26T14:17:14Z</time>
      </trkpt>
      <trkpt lat="48.02776" lon="-3.47704">
        <ele>64.3</ele>
        <time>2025-02-26T14:17:15Z</time>
      </trkpt>
      <trkpt lat="48.02775" lon="-3.47704">
        <ele>64.4</ele>
        <time>2025-02-26T14:17:16Z</time>
      </trkpt>
      <trkpt lat="48.02773" lon="-3.47705">
        <ele>64.4</ele>
        <time>2025-02-26T14:17:17Z</time>
      </trkpt>
      <trkpt lat="48.02772" lon="-3.47706">
        <ele>64.4</ele>
        <time>2025-02-26T14:17:18Z</time>
      </trkpt>
      <trkpt lat="48.02771" lon="-3.47706">
        <ele>64.4</ele>
        <time>2025-02-26T14:17:19Z</time>
      </trkpt>
      <trkpt lat="48.0277" lon="-3.47706">
        <ele>64.4</ele>
        <time>2025-02-26T14:17:20Z</time>
      </trkpt>
      <trkpt lat="48.02769" lon="-3.47707">
        <ele>64.4</ele>
        <time>2025-02-26T14:17:21Z</time>
      </trkpt>
      <trkpt lat="48.02768" lon="-3.47707">
        <ele>64.4</ele>
        <time>2025-02-26T14:17:22Z</time>
      </trkpt>
      <trkpt lat="48.02767" lon="-3.47707">
        <ele>64.5</ele>
        <time>2025-02-26T14:17:23Z</time>
      </trkpt>
      <trkpt lat="48.02765" lon="-3.47707">
        <ele>64.5</ele>
        <time>2025-02-26T14:17:24Z</time>
      </trkpt>
      <trkpt lat="48.02764" lon="-3.47708">
        <ele>64.5</ele>
        <time>2025-02-26T14:17:25Z</time>
      </trkpt>
      <trkpt lat="48.02763" lon="-3.47709">
        <ele>64.5</ele>
        <time>2025-02-26T14:17:26Z</time>
      </trkpt>
      <trkpt lat="48.02762" lon="-3.47709">
        <ele>64.5</ele>
        <time>2025-02-26T14:17:27Z</time>
      </trkpt>
      <trkpt lat="48.02761" lon="-3.4771">
        <ele>64.6</ele>
        <time>2025-02-26T14:17:28Z</time>
      </trkpt>
      <trkpt lat="48.0276" lon="-3.4771">
        <ele>64.6</ele>
        <time>2025-02-26T14:17:29Z</time>
      </trkpt>
      <trkpt lat="48.02759" lon="-3.4771">
        <ele>64.6</ele>
        <time>2025-02-26T14:17:30Z</time>
      </trkpt>
      <trkpt lat="48.02757" lon="-3.4771">
        <ele>64.6</ele>
        <time>2025-02-26T14:17:31Z</time>
      </trkpt>
      <trkpt lat="48.02756" lon="-3.47711">
        <ele>64.6</ele>
        <time>2025-02-26T14:17:32Z</time>
      </trkpt>
      <trkpt lat="48.02755" lon="-3.47712">
        <ele>64.6</ele>
        <time>2025-02-26T14:17:33Z</time>
      </trkpt>
      <trkpt lat="48.02754" lon="-3.47712">
        <ele>64.6</ele>
        <time>2025-02-26T14:17:34Z</time>
      </trkpt>
      <trkpt lat="48.02753" lon="-3.47712">
        <ele>64.6</ele>
        <time>2025-02-26T14:17:35Z</time>
      </trkpt>
      <trkpt lat="48.02752" lon="-3.47712">
        <ele>64.6</ele>
        <time>2025-02-26T14:17:36Z</time>
      </trkpt>
      <trkpt lat="48.02751" lon="-3.47712">
        <ele>64.6</ele>
        <time>2025-02-26T14:17:37Z</time>
      </trkpt>
      <trkpt lat="48.0275" lon="-3.47712">
        <ele>64.6</ele>
        <time>2025-02-26T14:17:38Z</time>
      </trkpt>
      <trkpt lat="48.02748" lon="-3.47712">
        <ele>64.6</ele>
        <time>2025-02-26T14:17:39Z</time>
      </trkpt>
      <trkpt lat="48.02747" lon="-3.47712">
        <ele>64.6</ele>
        <time>2025-02-26T14:17:40Z</time>
      </trkpt>
      <trkpt lat="48.02746" lon="-3.47713">
        <ele>64.7</ele>
        <time>2025-02-26T14:17:41Z</time>
      </trkpt>
      <trkpt lat="48.02745" lon="-3.47713">
        <ele>64.7</ele>
        <time>2025-02-26T14:17:42Z</time>
      </trkpt>
      <trkpt lat="48.02744" lon="-3.47713">
        <ele>64.7</ele>
        <time>2025-02-26T14:17:43Z</time>
      </trkpt>
      <trkpt lat="48.02743" lon="-3.47713">
        <ele>64.7</ele>
        <time>2025-02-26T14:17:44Z</time>
      </trkpt>
      <trkpt lat="48.02742" lon="-3.47713">
        <ele>64.7</ele>
        <time>2025-02-26T14:17:45Z</time>
      </trkpt>
      <trkpt lat="48.02741" lon="-3.47713">
        <ele>64.7</ele>
        <time>2025-02-26T14:17:46Z</time>
      </trkpt>
      <trkpt lat="48.0274" lon="-3.47713">
        <ele>64.7</ele>
        <time>2025-02-26T14:17:47Z</time>
      </trkpt>
      <trkpt lat="48.02739" lon="-3.47713">
        <ele>64.7</ele>
        <time>2025-02-26T14:17:48Z</time>
      </trkpt>
      <trkpt lat="48.02738" lon="-3.47712">
        <ele>64.6</ele>
        <time>2025-02-26T14:17:49Z</time>
      </trkpt>
      <trkpt lat="48.02737" lon="-3.47713">
        <ele>64.7</ele>
        <time>2025-02-26T14:17:50Z</time>
      </trkpt>
      <trkpt lat="48.02736" lon="-3.47712">
        <ele>64.6</ele>
        <time>2025-02-26T14:17:51Z</time>
      </trkpt>
      <trkpt lat="48.02735" lon="-3.47712">
        <ele>64.6</ele>
        <time>2025-02-26T14:17:52Z</time>
      </trkpt>
      <trkpt lat="48.02733" lon="-3.47712">
        <ele>64.6</ele>
        <time>2025-02-26T14:17:53Z</time>
      </trkpt>
      <trkpt lat="48.02732" lon="-3.47712">
        <ele>64.6</ele>
        <time>2025-02-26T14:17:54Z</time>
      </trkpt>
      <trkpt lat="48.02731" lon="-3.47711">
        <ele>64.6</ele>
        <time>2025-02-26T14:17:55Z</time>
      </trkpt>
      <trkpt lat="48.02729" lon="-3.4771">
        <ele>64.6</ele>
        <time>2025-02-26T14:17:56Z</time>
      </trkpt>
      <trkpt lat="48.02728" lon="-3.4771">
        <ele>64.5</ele>
        <time>2025-02-26T14:17:57Z</time>
      </trkpt>
      <trkpt lat="48.02727" lon="-3.4771">
        <ele>64.5</ele>
        <time>2025-02-26T14:17:58Z</time>
      </trkpt>
      <trkpt lat="48.02727" lon="-3.4771">
        <ele>64.5</ele>
        <time>2025-02-26T14:17:59Z</time>
      </trkpt>
      <trkpt lat="48.02726" lon="-3.47709">
        <ele>64.5</ele>
        <time>2025-02-26T14:18:00Z</time>
      </trkpt>
      <trkpt lat="48.02725" lon="-3.4771">
        <ele>64.6</ele>
        <time>2025-02-26T14:18:01Z</time>
      </trkpt>
      <trkpt lat="48.02724" lon="-3.4771">
        <ele>64.6</ele>
        <time>2025-02-26T14:18:02Z</time>
      </trkpt>
      <trkpt lat="48.02723" lon="-3.4771">
        <ele>64.6</ele>
        <time>2025-02-26T14:18:03Z</time>
      </trkpt>
      <trkpt lat="48.02722" lon="-3.4771">
        <ele>64.6</ele>
        <time>2025-02-26T14:18:04Z</time>
      </trkpt>
      <trkpt lat="48.0272" lon="-3.4771">
        <ele>64.6</ele>
        <time>2025-02-26T14:18:05Z</time>
      </trkpt>
      <trkpt lat="48.02719" lon="-3.47709">
        <ele>64.6</ele>
        <time>2025-02-26T14:18:06Z</time>
      </trkpt>
      <trkpt lat="48.02718" lon="-3.47708">
        <ele>64.6</ele>
        <time>2025-02-26T14:18:07Z</time>
      </trkpt>
      <trkpt lat="48.02717" lon="-3.47708">
        <ele>64.7</ele>
        <time>2025-02-26T14:18:08Z</time>
      </trkpt>
      <trkpt lat="48.02716" lon="-3.47708">
        <ele>64.7</ele>
        <time>2025-02-26T14:18:09Z</time>
      </trkpt>
      <trkpt lat="48.02715" lon="-3.47708">
        <ele>64.8</ele>
        <time>2025-02-26T14:18:10Z</time>
      </trkpt>
      <trkpt lat="48.02714" lon="-3.47708">
        <ele>64.8</ele>
        <time>2025-02-26T14:18:11Z</time>
      </trkpt>
      <trkpt lat="48.02713" lon="-3.47708">
        <ele>64.8</ele>
        <time>2025-02-26T14:18:12Z</time>
      </trkpt>
      <trkpt lat="48.02712" lon="-3.47707">
        <ele>64.8</ele>
        <time>2025-02-26T14:18:13Z</time>
      </trkpt>
      <trkpt lat="48.02711" lon="-3.47706">
        <ele>64.8</ele>
        <time>2025-02-26T14:18:14Z</time>
      </trkpt>
      <trkpt lat="48.0271" lon="-3.47706">
        <ele>64.9</ele>
        <time>2025-02-26T14:18:15Z</time>
      </trkpt>
      <trkpt lat="48.02709" lon="-3.47705">
        <ele>64.9</ele>
        <time>2025-02-26T14:18:16Z</time>
      </trkpt>
      <trkpt lat="48.02708" lon="-3.47705">
        <ele>64.9</ele>
        <time>2025-02-26T14:18:17Z</time>
      </trkpt>
      <trkpt lat="48.02707" lon="-3.47705">
        <ele>64.9</ele>
        <time>2025-02-26T14:18:18Z</time>
      </trkpt>
      <trkpt lat="48.02706" lon="-3.47703">
        <ele>64.9</ele>
        <time>2025-02-26T14:18:19Z</time>
      </trkpt>
      <trkpt lat="48.02705" lon="-3.47702">
        <ele>64.9</ele>
        <time>2025-02-26T14:18:20Z</time>
      </trkpt>
      <trkpt lat="48.02703" lon="-3.47702">
        <ele>65</ele>
        <time>2025-02-26T14:18:21Z</time>
      </trkpt>
      <trkpt lat="48.02702" lon="-3.47702">
        <ele>65</ele>
        <time>2025-02-26T14:18:22Z</time>
      </trkpt>
      <trkpt lat="48.02701" lon="-3.47702">
        <ele>65</ele>
        <time>2025-02-26T14:18:23Z</time>
      </trkpt>
      <trkpt lat="48.027" lon="-3.47701">
        <ele>65</ele>
        <time>2025-02-26T14:18:24Z</time>
      </trkpt>
      <trkpt lat="48.02699" lon="-3.477">
        <ele>65.1</ele>
        <time>2025-02-26T14:18:25Z</time>
      </trkpt>
      <trkpt lat="48.02698" lon="-3.477">
        <ele>65.1</ele>
        <time>2025-02-26T14:18:26Z</time>
      </trkpt>
      <trkpt lat="48.02697" lon="-3.47699">
        <ele>65.1</ele>
        <time>2025-02-26T14:18:27Z</time>
      </trkpt>
      <trkpt lat="48.02696" lon="-3.47698">
        <ele>65.1</ele>
        <time>2025-02-26T14:18:28Z</time>
      </trkpt>
      <trkpt lat="48.02695" lon="-3.47698">
        <ele>65.1</ele>
        <time>2025-02-26T14:18:29Z</time>
      </trkpt>
      <trkpt lat="48.02694" lon="-3.47697">
        <ele>65.1</ele>
        <time>2025-02-26T14:18:30Z</time>
      </trkpt>
      <trkpt lat="48.02693" lon="-3.47697">
        <ele>65.1</ele>
        <time>2025-02-26T14:18:31Z</time>
      </trkpt>
      <trkpt lat="48.02692" lon="-3.47696">
        <ele>65.1</ele>
        <time>2025-02-26T14:18:32Z</time>
      </trkpt>
      <trkpt lat="48.02691" lon="-3.47696">
        <ele>65.2</ele>
        <time>2025-02-26T14:18:33Z</time>
      </trkpt>
      <trkpt lat="48.0269" lon="-3.47695">
        <ele>65.2</ele>
        <time>2025-02-26T14:18:34Z</time>
      </trkpt>
      <trkpt lat="48.02689" lon="-3.47695">
        <ele>65.2</ele>
        <time>2025-02-26T14:18:35Z</time>
      </trkpt>
      <trkpt lat="48.02688" lon="-3.47694">
        <ele>65.2</ele>
        <time>2025-02-26T14:18:36Z</time>
      </trkpt>
      <trkpt lat="48.02687" lon="-3.47693">
        <ele>65.2</ele>
        <time>2025-02-26T14:18:37Z</time>
      </trkpt>
      <trkpt lat="48.02686" lon="-3.47692">
        <ele>65.2</ele>
        <time>2025-02-26T14:18:38Z</time>
      </trkpt>
      <trkpt lat="48.02685" lon="-3.47692">
        <ele>65.3</ele>
        <time>2025-02-26T14:18:39Z</time>
      </trkpt>
      <trkpt lat="48.02684" lon="-3.47691">
        <ele>65.2</ele>
        <time>2025-02-26T14:18:40Z</time>
      </trkpt>
      <trkpt lat="48.02683" lon="-3.4769">
        <ele>65.2</ele>
        <time>2025-02-26T14:18:41Z</time>
      </trkpt>
      <trkpt lat="48.02682" lon="-3.47689">
        <ele>65.3</ele>
        <time>2025-02-26T14:18:42Z</time>
      </trkpt>
      <trkpt lat="48.02681" lon="-3.47689">
        <ele>65.3</ele>
        <time>2025-02-26T14:18:43Z</time>
      </trkpt>
      <trkpt lat="48.0268" lon="-3.47688">
        <ele>65.3</ele>
        <time>2025-02-26T14:18:44Z</time>
      </trkpt>
      <trkpt lat="48.02679" lon="-3.47687">
        <ele>65.3</ele>
        <time>2025-02-26T14:18:45Z</time>
      </trkpt>
      <trkpt lat="48.02678" lon="-3.47686">
        <ele>65.3</ele>
        <time>2025-02-26T14:18:46Z</time>
      </trkpt>
      <trkpt lat="48.02677" lon="-3.47685">
        <ele>65.3</ele>
        <time>2025-02-26T14:18:47Z</time>
      </trkpt>
      <trkpt lat="48.02676" lon="-3.47685">
        <ele>65.3</ele>
        <time>2025-02-26T14:18:48Z</time>
      </trkpt>
      <trkpt lat="48.02676" lon="-3.47684">
        <ele>65.3</ele>
        <time>2025-02-26T14:18:49Z</time>
      </trkpt>
      <trkpt lat="48.02675" lon="-3.47682">
        <ele>65.3</ele>
        <time>2025-02-26T14:18:50Z</time>
      </trkpt>
      <trkpt lat="48.02675" lon="-3.47681">
        <ele>65.2</ele>
        <time>2025-02-26T14:18:51Z</time>
      </trkpt>
      <trkpt lat="48.02674" lon="-3.4768">
        <ele>65.2</ele>
        <time>2025-02-26T14:18:52Z</time>
      </trkpt>
      <trkpt lat="48.02674" lon="-3.47679">
        <ele>65.2</ele>
        <time>2025-02-26T14:18:53Z</time>
      </trkpt>
      <trkpt lat="48.02673" lon="-3.47679">
        <ele>65.2</ele>
        <time>2025-02-26T14:18:54Z</time>
      </trkpt>
      <trkpt lat="48.02672" lon="-3.47678">
        <ele>65.2</ele>
        <time>2025-02-26T14:18:55Z</time>
      </trkpt>
      <trkpt lat="48.02672" lon="-3.47676">
        <ele>65.2</ele>
        <time>2025-02-26T14:18:56Z</time>
      </trkpt>
      <trkpt lat="48.02671" lon="-3.47675">
        <ele>65.1</ele>
        <time>2025-02-26T14:18:57Z</time>
      </trkpt>
      <trkpt lat="48.02671" lon="-3.47673">
        <ele>65.1</ele>
        <time>2025-02-26T14:18:58Z</time>
      </trkpt>
      <trkpt lat="48.02671" lon="-3.47672">
        <ele>65.1</ele>
        <time>2025-02-26T14:18:59Z</time>
      </trkpt>
      <trkpt lat="48.02671" lon="-3.4767">
        <ele>65</ele>
        <time>2025-02-26T14:19:00Z</time>
      </trkpt>
      <trkpt lat="48.0267" lon="-3.47669">
        <ele>65</ele>
        <time>2025-02-26T14:19:01Z</time>
      </trkpt>
      <trkpt lat="48.02669" lon="-3.47668">
        <ele>65</ele>
        <time>2025-02-26T14:19:02Z</time>
      </trkpt>
      <trkpt lat="48.02668" lon="-3.47667">
        <ele>64.9</ele>
        <time>2025-02-26T14:19:03Z</time>
      </trkpt>
      <trkpt lat="48.02668" lon="-3.47666">
        <ele>64.9</ele>
        <time>2025-02-26T14:19:04Z</time>
      </trkpt>
      <trkpt lat="48.02667" lon="-3.47664">
        <ele>64.9</ele>
        <time>2025-02-26T14:19:05Z</time>
      </trkpt>
      <trkpt lat="48.02666" lon="-3.47663">
        <ele>64.9</ele>
        <time>2025-02-26T14:19:06Z</time>
      </trkpt>
      <trkpt lat="48.02666" lon="-3.47661">
        <ele>64.8</ele>
        <time>2025-02-26T14:19:07Z</time>
      </trkpt>
      <trkpt lat="48.02665" lon="-3.4766">
        <ele>64.7</ele>
        <time>2025-02-26T14:19:08Z</time>
      </trkpt>
      <trkpt lat="48.02665" lon="-3.47658">
        <ele>64.7</ele>
        <time>2025-02-26T14:19:09Z</time>
      </trkpt>
      <trkpt lat="48.02665" lon="-3.47656">
        <ele>64.6</ele>
        <time>2025-02-26T14:19:10Z</time>
      </trkpt>
      <trkpt lat="48.02665" lon="-3.47654">
        <ele>64.6</ele>
        <time>2025-02-26T14:19:11Z</time>
      </trkpt>
      <trkpt lat="48.02665" lon="-3.47653">
        <ele>64.5</ele>
        <time>2025-02-26T14:19:12Z</time>
      </trkpt>
      <trkpt lat="48.02665" lon="-3.47651">
        <ele>64.4</ele>
        <time>2025-02-26T14:19:13Z</time>
      </trkpt>
      <trkpt lat="48.02665" lon="-3.47649">
        <ele>64.4</ele>
        <time>2025-02-26T14:19:14Z</time>
      </trkpt>
      <trkpt lat="48.02664" lon="-3.47648">
        <ele>64.3</ele>
        <time>2025-02-26T14:19:15Z</time>
      </trkpt>
      <trkpt lat="48.02664" lon="-3.47646">
        <ele>64.3</ele>
        <time>2025-02-26T14:19:16Z</time>
      </trkpt>
      <trkpt lat="48.02663" lon="-3.47645">
        <ele>64.2</ele>
        <time>2025-02-26T14:19:17Z</time>
      </trkpt>
      <trkpt lat="48.02663" lon="-3.47643">
        <ele>64.2</ele>
        <time>2025-02-26T14:19:18Z</time>
      </trkpt>
      <trkpt lat="48.02662" lon="-3.47642">
        <ele>64.1</ele>
        <time>2025-02-26T14:19:19Z</time>
      </trkpt>
      <trkpt lat="48.02661" lon="-3.4764">
        <ele>64.1</ele>
        <time>2025-02-26T14:19:20Z</time>
      </trkpt>
      <trkpt lat="48.02661" lon="-3.47639">
        <ele>64</ele>
        <time>2025-02-26T14:19:21Z</time>
      </trkpt>
      <trkpt lat="48.0266" lon="-3.47637">
        <ele>64</ele>
        <time>2025-02-26T14:19:22Z</time>
      </trkpt>
      <trkpt lat="48.0266" lon="-3.47635">
        <ele>63.9</ele>
        <time>2025-02-26T14:19:23Z</time>
      </trkpt>
      <trkpt lat="48.02659" lon="-3.47634">
        <ele>63.9</ele>
        <time>2025-02-26T14:19:24Z</time>
      </trkpt>
      <trkpt lat="48.02658" lon="-3.47632">
        <ele>63.8</ele>
        <time>2025-02-26T14:19:25Z</time>
      </trkpt>
      <trkpt lat="48.02658" lon="-3.47631">
        <ele>63.8</ele>
        <time>2025-02-26T14:19:26Z</time>
      </trkpt>
      <trkpt lat="48.02657" lon="-3.47629">
        <ele>63.8</ele>
        <time>2025-02-26T14:19:27Z</time>
      </trkpt>
      <trkpt lat="48.02656" lon="-3.47627">
        <ele>63.7</ele>
        <time>2025-02-26T14:19:28Z</time>
      </trkpt>
      <trkpt lat="48.02656" lon="-3.47625">
        <ele>63.7</ele>
        <time>2025-02-26T14:19:29Z</time>
      </trkpt>
      <trkpt lat="48.02655" lon="-3.47624">
        <ele>63.7</ele>
        <time>2025-02-26T14:19:30Z</time>
      </trkpt>
      <trkpt lat="48.02654" lon="-3.47622">
        <ele>63.7</ele>
        <time>2025-02-26T14:19:31Z</time>
      </trkpt>
      <trkpt lat="48.02654" lon="-3.47621">
        <ele>63.6</ele>
        <time>2025-02-26T14:19:32Z</time>
      </trkpt>
      <trkpt lat="48.02654" lon="-3.47619">
        <ele>63.6</ele>
        <time>2025-02-26T14:19:33Z</time>
      </trkpt>
      <trkpt lat="48.02653" lon="-3.47618">
        <ele>63.6</ele>
        <time>2025-02-26T14:19:34Z</time>
      </trkpt>
      <trkpt lat="48.02652" lon="-3.47616">
        <ele>63.6</ele>
        <time>2025-02-26T14:19:35Z</time>
      </trkpt>
      <trkpt lat="48.02652" lon="-3.47614">
        <ele>63.6</ele>
        <time>2025-02-26T14:19:36Z</time>
      </trkpt>
      <trkpt lat="48.02651" lon="-3.47613">
        <ele>63.6</ele>
        <time>2025-02-26T14:19:37Z</time>
      </trkpt>
      <trkpt lat="48.02651" lon="-3.47611">
        <ele>63.6</ele>
        <time>2025-02-26T14:19:38Z</time>
      </trkpt>
      <trkpt lat="48.0265" lon="-3.47609">
        <ele>63.6</ele>
        <time>2025-02-26T14:19:39Z</time>
      </trkpt>
      <trkpt lat="48.02649" lon="-3.47608">
        <ele>63.6</ele>
        <time>2025-02-26T14:19:40Z</time>
      </trkpt>
      <trkpt lat="48.02648" lon="-3.47606">
        <ele>63.6</ele>
        <time>2025-02-26T14:19:41Z</time>
      </trkpt>
      <trkpt lat="48.02647" lon="-3.47605">
        <ele>63.5</ele>
        <time>2025-02-26T14:19:42Z</time>
      </trkpt>
      <trkpt lat="48.02647" lon="-3.47603">
        <ele>63.5</ele>
        <time>2025-02-26T14:19:43Z</time>
      </trkpt>
      <trkpt lat="48.02646" lon="-3.47602">
        <ele>63.5</ele>
        <time>2025-02-26T14:19:44Z</time>
      </trkpt>
      <trkpt lat="48.02646" lon="-3.476">
        <ele>63.5</ele>
        <time>2025-02-26T14:19:45Z</time>
      </trkpt>
      <trkpt lat="48.02645" lon="-3.47598">
        <ele>63.4</ele>
        <time>2025-02-26T14:19:46Z</time>
      </trkpt>
      <trkpt lat="48.02644" lon="-3.47597">
        <ele>63.4</ele>
        <time>2025-02-26T14:19:47Z</time>
      </trkpt>
      <trkpt lat="48.02643" lon="-3.47595">
        <ele>63.4</ele>
        <time>2025-02-26T14:19:48Z</time>
      </trkpt>
      <trkpt lat="48.02642" lon="-3.47594">
        <ele>63.3</ele>
        <time>2025-02-26T14:19:49Z</time>
      </trkpt>
      <trkpt lat="48.02642" lon="-3.47592">
        <ele>63.3</ele>
        <time>2025-02-26T14:19:50Z</time>
      </trkpt>
      <trkpt lat="48.02641" lon="-3.47591">
        <ele>63.3</ele>
        <time>2025-02-26T14:19:51Z</time>
      </trkpt>
      <trkpt lat="48.02641" lon="-3.4759">
        <ele>63.2</ele>
        <time>2025-02-26T14:19:52Z</time>
      </trkpt>
      <trkpt lat="48.0264" lon="-3.47588">
        <ele>63.2</ele>
        <time>2025-02-26T14:19:53Z</time>
      </trkpt>
      <trkpt lat="48.02639" lon="-3.47587">
        <ele>63.1</ele>
        <time>2025-02-26T14:19:54Z</time>
      </trkpt>
      <trkpt lat="48.02639" lon="-3.47585">
        <ele>63.1</ele>
        <time>2025-02-26T14:19:55Z</time>
      </trkpt>
      <trkpt lat="48.02638" lon="-3.47584">
        <ele>63</ele>
        <time>2025-02-26T14:19:56Z</time>
      </trkpt>
      <trkpt lat="48.02637" lon="-3.47583">
        <ele>63</ele>
        <time>2025-02-26T14:19:57Z</time>
      </trkpt>
      <trkpt lat="48.02636" lon="-3.47581">
        <ele>63</ele>
        <time>2025-02-26T14:19:58Z</time>
      </trkpt>
      <trkpt lat="48.02636" lon="-3.47579">
        <ele>63</ele>
        <time>2025-02-26T14:19:59Z</time>
      </trkpt>
      <trkpt lat="48.02634" lon="-3.47578">
        <ele>63</ele>
        <time>2025-02-26T14:20:00Z</time>
      </trkpt>
      <trkpt lat="48.02633" lon="-3.47577">
        <ele>63</ele>
        <time>2025-02-26T14:20:01Z</time>
      </trkpt>
      <trkpt lat="48.02633" lon="-3.47576">
        <ele>63</ele>
        <time>2025-02-26T14:20:02Z</time>
      </trkpt>
      <trkpt lat="48.02632" lon="-3.47575">
        <ele>62.9</ele>
        <time>2025-02-26T14:20:03Z</time>
      </trkpt>
      <trkpt lat="48.02631" lon="-3.47573">
        <ele>62.9</ele>
        <time>2025-02-26T14:20:04Z</time>
      </trkpt>
      <trkpt lat="48.02631" lon="-3.47572">
        <ele>62.9</ele>
        <time>2025-02-26T14:20:05Z</time>
      </trkpt>
      <trkpt lat="48.0263" lon="-3.47571">
        <ele>62.9</ele>
        <time>2025-02-26T14:20:06Z</time>
      </trkpt>
      <trkpt lat="48.02629" lon="-3.47569">
        <ele>62.9</ele>
        <time>2025-02-26T14:20:07Z</time>
      </trkpt>
      <trkpt lat="48.02628" lon="-3.47568">
        <ele>62.8</ele>
        <time>2025-02-26T14:20:08Z</time>
      </trkpt>
      <trkpt lat="48.02628" lon="-3.47566">
        <ele>62.8</ele>
        <time>2025-02-26T14:20:09Z</time>
      </trkpt>
      <trkpt lat="48.02627" lon="-3.47565">
        <ele>62.8</ele>
        <time>2025-02-26T14:20:10Z</time>
      </trkpt>
      <trkpt lat="48.02627" lon="-3.47563">
        <ele>62.7</ele>
        <time>2025-02-26T14:20:11Z</time>
      </trkpt>
      <trkpt lat="48.02626" lon="-3.47562">
        <ele>62.7</ele>
        <time>2025-02-26T14:20:12Z</time>
      </trkpt>
      <trkpt lat="48.02626" lon="-3.4756">
        <ele>62.6</ele>
        <time>2025-02-26T14:20:13Z</time>
      </trkpt>
      <trkpt lat="48.02625" lon="-3.47559">
        <ele>62.6</ele>
        <time>2025-02-26T14:20:14Z</time>
      </trkpt>
      <trkpt lat="48.02625" lon="-3.47558">
        <ele>62.6</ele>
        <time>2025-02-26T14:20:15Z</time>
      </trkpt>
      <trkpt lat="48.02624" lon="-3.47557">
        <ele>62.6</ele>
        <time>2025-02-26T14:20:16Z</time>
      </trkpt>
      <trkpt lat="48.02623" lon="-3.47556">
        <ele>62.6</ele>
        <time>2025-02-26T14:20:17Z</time>
      </trkpt>
      <trkpt lat="48.02622" lon="-3.47554">
        <ele>62.6</ele>
        <time>2025-02-26T14:20:18Z</time>
      </trkpt>
      <trkpt lat="48.02622" lon="-3.47553">
        <ele>62.6</ele>
        <time>2025-02-26T14:20:19Z</time>
      </trkpt>
      <trkpt lat="48.02621" lon="-3.47551">
        <ele>62.6</ele>
        <time>2025-02-26T14:20:20Z</time>
      </trkpt>
      <trkpt lat="48.02621" lon="-3.4755">
        <ele>62.7</ele>
        <time>2025-02-26T14:20:21Z</time>
      </trkpt>
      <trkpt lat="48.0262" lon="-3.47548">
        <ele>62.7</ele>
        <time>2025-02-26T14:20:22Z</time>
      </trkpt>
      <trkpt lat="48.02619" lon="-3.47548">
        <ele>62.7</ele>
        <time>2025-02-26T14:20:23Z</time>
      </trkpt>
      <trkpt lat="48.02618" lon="-3.47546">
        <ele>62.7</ele>
        <time>2025-02-26T14:20:24Z</time>
      </trkpt>
      <trkpt lat="48.02618" lon="-3.47545">
        <ele>62.8</ele>
        <time>2025-02-26T14:20:25Z</time>
      </trkpt>
      <trkpt lat="48.02617" lon="-3.47544">
        <ele>62.8</ele>
        <time>2025-02-26T14:20:26Z</time>
      </trkpt>
      <trkpt lat="48.02616" lon="-3.47543">
        <ele>62.8</ele>
        <time>2025-02-26T14:20:27Z</time>
      </trkpt>
      <trkpt lat="48.02615" lon="-3.47541">
        <ele>62.8</ele>
        <time>2025-02-26T14:20:28Z</time>
      </trkpt>
      <trkpt lat="48.02615" lon="-3.4754">
        <ele>62.9</ele>
        <time>2025-02-26T14:20:29Z</time>
      </trkpt>
      <trkpt lat="48.02614" lon="-3.47539">
        <ele>62.9</ele>
        <time>2025-02-26T14:20:30Z</time>
      </trkpt>
      <trkpt lat="48.02613" lon="-3.47538">
        <ele>62.9</ele>
        <time>2025-02-26T14:20:31Z</time>
      </trkpt>
      <trkpt lat="48.02612" lon="-3.47537">
        <ele>63</ele>
        <time>2025-02-26T14:20:32Z</time>
      </trkpt>
      <trkpt lat="48.02612" lon="-3.47535">
        <ele>63</ele>
        <time>2025-02-26T14:20:33Z</time>
      </trkpt>
      <trkpt lat="48.02611" lon="-3.47534">
        <ele>63</ele>
        <time>2025-02-26T14:20:34Z</time>
      </trkpt>
      <trkpt lat="48.02611" lon="-3.47533">
        <ele>63</ele>
        <time>2025-02-26T14:20:35Z</time>
      </trkpt>
      <trkpt lat="48.0261" lon="-3.47532">
        <ele>63.1</ele>
        <time>2025-02-26T14:20:36Z</time>
      </trkpt>
      <trkpt lat="48.02609" lon="-3.4753">
        <ele>63.1</ele>
        <time>2025-02-26T14:20:37Z</time>
      </trkpt>
      <trkpt lat="48.02608" lon="-3.47529">
        <ele>63.1</ele>
        <time>2025-02-26T14:20:38Z</time>
      </trkpt>
      <trkpt lat="48.02607" lon="-3.47528">
        <ele>63.1</ele>
        <time>2025-02-26T14:20:39Z</time>
      </trkpt>
      <trkpt lat="48.02606" lon="-3.47527">
        <ele>63.1</ele>
        <time>2025-02-26T14:20:40Z</time>
      </trkpt>
      <trkpt lat="48.02606" lon="-3.47526">
        <ele>63.1</ele>
        <time>2025-02-26T14:20:41Z</time>
      </trkpt>
      <trkpt lat="48.02605" lon="-3.47524">
        <ele>63.1</ele>
        <time>2025-02-26T14:20:42Z</time>
      </trkpt>
      <trkpt lat="48.02605" lon="-3.47522">
        <ele>63</ele>
        <time>2025-02-26T14:20:43Z</time>
      </trkpt>
      <trkpt lat="48.02604" lon="-3.47521">
        <ele>63</ele>
        <time>2025-02-26T14:20:44Z</time>
      </trkpt>
      <trkpt lat="48.02603" lon="-3.47519">
        <ele>63</ele>
        <time>2025-02-26T14:20:45Z</time>
      </trkpt>
      <trkpt lat="48.02603" lon="-3.47517">
        <ele>62.9</ele>
        <time>2025-02-26T14:20:46Z</time>
      </trkpt>
      <trkpt lat="48.02602" lon="-3.47516">
        <ele>62.9</ele>
        <time>2025-02-26T14:20:47Z</time>
      </trkpt>
      <trkpt lat="48.02601" lon="-3.47515">
        <ele>62.9</ele>
        <time>2025-02-26T14:20:48Z</time>
      </trkpt>
      <trkpt lat="48.026" lon="-3.47514">
        <ele>62.9</ele>
        <time>2025-02-26T14:20:49Z</time>
      </trkpt>
      <trkpt lat="48.02599" lon="-3.47512">
        <ele>62.9</ele>
        <time>2025-02-26T14:20:50Z</time>
      </trkpt>
      <trkpt lat="48.02599" lon="-3.4751">
        <ele>62.8</ele>
        <time>2025-02-26T14:20:51Z</time>
      </trkpt>
      <trkpt lat="48.02598" lon="-3.47509">
        <ele>62.8</ele>
        <time>2025-02-26T14:20:52Z</time>
      </trkpt>
      <trkpt lat="48.02597" lon="-3.47507">
        <ele>62.8</ele>
        <time>2025-02-26T14:20:53Z</time>
      </trkpt>
      <trkpt lat="48.02597" lon="-3.47506">
        <ele>62.7</ele>
        <time>2025-02-26T14:20:54Z</time>
      </trkpt>
      <trkpt lat="48.02596" lon="-3.47504">
        <ele>62.7</ele>
        <time>2025-02-26T14:20:55Z</time>
      </trkpt>
      <trkpt lat="48.02596" lon="-3.47503">
        <ele>62.7</ele>
        <time>2025-02-26T14:20:56Z</time>
      </trkpt>
      <trkpt lat="48.02595" lon="-3.47501">
        <ele>62.6</ele>
        <time>2025-02-26T14:20:57Z</time>
      </trkpt>
      <trkpt lat="48.02593" lon="-3.47501">
        <ele>62.7</ele>
        <time>2025-02-26T14:20:58Z</time>
      </trkpt>
      <trkpt lat="48.02592" lon="-3.47501">
        <ele>62.7</ele>
        <time>2025-02-26T14:20:59Z</time>
      </trkpt>
      <trkpt lat="48.02591" lon="-3.47499">
        <ele>62.7</ele>
        <time>2025-02-26T14:21:00Z</time>
      </trkpt>
      <trkpt lat="48.0259" lon="-3.47498">
        <ele>62.7</ele>
        <time>2025-02-26T14:21:01Z</time>
      </trkpt>
      <trkpt lat="48.02589" lon="-3.47497">
        <ele>62.7</ele>
        <time>2025-02-26T14:21:02Z</time>
      </trkpt>
      <trkpt lat="48.02588" lon="-3.47495">
        <ele>62.7</ele>
        <time>2025-02-26T14:21:03Z</time>
      </trkpt>
      <trkpt lat="48.02588" lon="-3.47494">
        <ele>62.6</ele>
        <time>2025-02-26T14:21:04Z</time>
      </trkpt>
      <trkpt lat="48.02587" lon="-3.47492">
        <ele>62.6</ele>
        <time>2025-02-26T14:21:05Z</time>
      </trkpt>
      <trkpt lat="48.02586" lon="-3.47491">
        <ele>62.6</ele>
        <time>2025-02-26T14:21:06Z</time>
      </trkpt>
      <trkpt lat="48.02585" lon="-3.4749">
        <ele>62.6</ele>
        <time>2025-02-26T14:21:07Z</time>
      </trkpt>
      <trkpt lat="48.02584" lon="-3.47489">
        <ele>62.6</ele>
        <time>2025-02-26T14:21:08Z</time>
      </trkpt>
      <trkpt lat="48.02583" lon="-3.47487">
        <ele>62.5</ele>
        <time>2025-02-26T14:21:09Z</time>
      </trkpt>
      <trkpt lat="48.02583" lon="-3.47486">
        <ele>62.5</ele>
        <time>2025-02-26T14:21:10Z</time>
      </trkpt>
      <trkpt lat="48.02582" lon="-3.47484">
        <ele>62.4</ele>
        <time>2025-02-26T14:21:11Z</time>
      </trkpt>
      <trkpt lat="48.02582" lon="-3.47483">
        <ele>62.4</ele>
        <time>2025-02-26T14:21:12Z</time>
      </trkpt>
      <trkpt lat="48.02581" lon="-3.47481">
        <ele>62.4</ele>
        <time>2025-02-26T14:21:13Z</time>
      </trkpt>
      <trkpt lat="48.02581" lon="-3.47479">
        <ele>62.3</ele>
        <time>2025-02-26T14:21:14Z</time>
      </trkpt>
      <trkpt lat="48.0258" lon="-3.47478">
        <ele>62.3</ele>
        <time>2025-02-26T14:21:15Z</time>
      </trkpt>
      <trkpt lat="48.02579" lon="-3.47477">
        <ele>62.3</ele>
        <time>2025-02-26T14:21:16Z</time>
      </trkpt>
      <trkpt lat="48.02578" lon="-3.47475">
        <ele>62.3</ele>
        <time>2025-02-26T14:21:17Z</time>
      </trkpt>
      <trkpt lat="48.02578" lon="-3.47474">
        <ele>62.2</ele>
        <time>2025-02-26T14:21:18Z</time>
      </trkpt>
      <trkpt lat="48.02577" lon="-3.47472">
        <ele>62.2</ele>
        <time>2025-02-26T14:21:19Z</time>
      </trkpt>
      <trkpt lat="48.02577" lon="-3.47471">
        <ele>62.2</ele>
        <time>2025-02-26T14:21:20Z</time>
      </trkpt>
      <trkpt lat="48.02576" lon="-3.47469">
        <ele>62.2</ele>
        <time>2025-02-26T14:21:21Z</time>
      </trkpt>
      <trkpt lat="48.02575" lon="-3.47468">
        <ele>62.1</ele>
        <time>2025-02-26T14:21:22Z</time>
      </trkpt>
      <trkpt lat="48.02575" lon="-3.47466">
        <ele>62.1</ele>
        <time>2025-02-26T14:21:23Z</time>
      </trkpt>
      <trkpt lat="48.02574" lon="-3.47465">
        <ele>62.1</ele>
        <time>2025-02-26T14:21:24Z</time>
      </trkpt>
      <trkpt lat="48.02573" lon="-3.47463">
        <ele>62</ele>
        <time>2025-02-26T14:21:25Z</time>
      </trkpt>
      <trkpt lat="48.02573" lon="-3.47462">
        <ele>62</ele>
        <time>2025-02-26T14:21:26Z</time>
      </trkpt>
      <trkpt lat="48.02572" lon="-3.47461">
        <ele>62</ele>
        <time>2025-02-26T14:21:27Z</time>
      </trkpt>
      <trkpt lat="48.02572" lon="-3.47459">
        <ele>61.9</ele>
        <time>2025-02-26T14:21:28Z</time>
      </trkpt>
      <trkpt lat="48.02572" lon="-3.47458">
        <ele>61.9</ele>
        <time>2025-02-26T14:21:29Z</time>
      </trkpt>
      <trkpt lat="48.02571" lon="-3.47456">
        <ele>61.9</ele>
        <time>2025-02-26T14:21:30Z</time>
      </trkpt>
      <trkpt lat="48.0257" lon="-3.47455">
        <ele>61.8</ele>
        <time>2025-02-26T14:21:31Z</time>
      </trkpt>
      <trkpt lat="48.0257" lon="-3.47454">
        <ele>61.8</ele>
        <time>2025-02-26T14:21:32Z</time>
      </trkpt>
      <trkpt lat="48.02569" lon="-3.47453">
        <ele>61.8</ele>
        <time>2025-02-26T14:21:33Z</time>
      </trkpt>
      <trkpt lat="48.02569" lon="-3.47451">
        <ele>61.8</ele>
        <time>2025-02-26T14:21:34Z</time>
      </trkpt>
      <trkpt lat="48.02568" lon="-3.4745">
        <ele>61.7</ele>
        <time>2025-02-26T14:21:35Z</time>
      </trkpt>
      <trkpt lat="48.02567" lon="-3.47448">
        <ele>61.7</ele>
        <time>2025-02-26T14:21:36Z</time>
      </trkpt>
      <trkpt lat="48.02567" lon="-3.47447">
        <ele>61.7</ele>
        <time>2025-02-26T14:21:37Z</time>
      </trkpt>
      <trkpt lat="48.02566" lon="-3.47446">
        <ele>61.7</ele>
        <time>2025-02-26T14:21:38Z</time>
      </trkpt>
      <trkpt lat="48.02565" lon="-3.47445">
        <ele>61.7</ele>
        <time>2025-02-26T14:21:39Z</time>
      </trkpt>
      <trkpt lat="48.02565" lon="-3.47443">
        <ele>61.7</ele>
        <time>2025-02-26T14:21:40Z</time>
      </trkpt>
      <trkpt lat="48.02564" lon="-3.47442">
        <ele>61.7</ele>
        <time>2025-02-26T14:21:41Z</time>
      </trkpt>
      <trkpt lat="48.02564" lon="-3.47441">
        <ele>61.7</ele>
        <time>2025-02-26T14:21:42Z</time>
      </trkpt>
      <trkpt lat="48.02563" lon="-3.47439">
        <ele>61.7</ele>
        <time>2025-02-26T14:21:43Z</time>
      </trkpt>
      <trkpt lat="48.02562" lon="-3.47437">
        <ele>61.7</ele>
        <time>2025-02-26T14:21:44Z</time>
      </trkpt>
      <trkpt lat="48.02562" lon="-3.47436">
        <ele>61.7</ele>
        <time>2025-02-26T14:21:45Z</time>
      </trkpt>
      <trkpt lat="48.02561" lon="-3.47435">
        <ele>61.7</ele>
        <time>2025-02-26T14:21:46Z</time>
      </trkpt>
      <trkpt lat="48.0256" lon="-3.47433">
        <ele>61.8</ele>
        <time>2025-02-26T14:21:47Z</time>
      </trkpt>
      <trkpt lat="48.0256" lon="-3.47432">
        <ele>61.8</ele>
        <time>2025-02-26T14:21:48Z</time>
      </trkpt>
      <trkpt lat="48.02559" lon="-3.47431">
        <ele>61.8</ele>
        <time>2025-02-26T14:21:49Z</time>
      </trkpt>
      <trkpt lat="48.02559" lon="-3.47429">
        <ele>61.8</ele>
        <time>2025-02-26T14:21:50Z</time>
      </trkpt>
      <trkpt lat="48.02558" lon="-3.47428">
        <ele>61.8</ele>
        <time>2025-02-26T14:21:51Z</time>
      </trkpt>
      <trkpt lat="48.02558" lon="-3.47426">
        <ele>61.9</ele>
        <time>2025-02-26T14:21:52Z</time>
      </trkpt>
      <trkpt lat="48.02557" lon="-3.47425">
        <ele>61.9</ele>
        <time>2025-02-26T14:21:53Z</time>
      </trkpt>
      <trkpt lat="48.02557" lon="-3.47423">
        <ele>61.9</ele>
        <time>2025-02-26T14:21:54Z</time>
      </trkpt>
      <trkpt lat="48.02557" lon="-3.47422">
        <ele>61.9</ele>
        <time>2025-02-26T14:21:55Z</time>
      </trkpt>
      <trkpt lat="48.02556" lon="-3.4742">
        <ele>62</ele>
        <time>2025-02-26T14:21:56Z</time>
      </trkpt>
      <trkpt lat="48.02556" lon="-3.47418">
        <ele>62</ele>
        <time>2025-02-26T14:21:57Z</time>
      </trkpt>
      <trkpt lat="48.02555" lon="-3.47417">
        <ele>62</ele>
        <time>2025-02-26T14:21:58Z</time>
      </trkpt>
      <trkpt lat="48.02554" lon="-3.47415">
        <ele>62</ele>
        <time>2025-02-26T14:21:59Z</time>
      </trkpt>
      <trkpt lat="48.02554" lon="-3.47414">
        <ele>61.9</ele>
        <time>2025-02-26T14:22:00Z</time>
      </trkpt>
      <trkpt lat="48.02553" lon="-3.47413">
        <ele>61.8</ele>
        <time>2025-02-26T14:22:01Z</time>
      </trkpt>
      <trkpt lat="48.02553" lon="-3.47411">
        <ele>61.7</ele>
        <time>2025-02-26T14:22:02Z</time>
      </trkpt>
      <trkpt lat="48.02552" lon="-3.4741">
        <ele>61.7</ele>
        <time>2025-02-26T14:22:03Z</time>
      </trkpt>
      <trkpt lat="48.02552" lon="-3.47408">
        <ele>61.6</ele>
        <time>2025-02-26T14:22:04Z</time>
      </trkpt>
      <trkpt lat="48.02551" lon="-3.47407">
        <ele>61.5</ele>
        <time>2025-02-26T14:22:05Z</time>
      </trkpt>
      <trkpt lat="48.02551" lon="-3.47405">
        <ele>61.4</ele>
        <time>2025-02-26T14:22:06Z</time>
      </trkpt>
      <trkpt lat="48.0255" lon="-3.47404">
        <ele>61.4</ele>
        <time>2025-02-26T14:22:07Z</time>
      </trkpt>
      <trkpt lat="48.0255" lon="-3.47403">
        <ele>61.3</ele>
        <time>2025-02-26T14:22:08Z</time>
      </trkpt>
      <trkpt lat="48.02549" lon="-3.47401">
        <ele>61.3</ele>
        <time>2025-02-26T14:22:09Z</time>
      </trkpt>
      <trkpt lat="48.02549" lon="-3.474">
        <ele>61.2</ele>
        <time>2025-02-26T14:22:10Z</time>
      </trkpt>
      <trkpt lat="48.02548" lon="-3.47399">
        <ele>61.1</ele>
        <time>2025-02-26T14:22:11Z</time>
      </trkpt>
      <trkpt lat="48.02547" lon="-3.47397">
        <ele>61.1</ele>
        <time>2025-02-26T14:22:12Z</time>
      </trkpt>
      <trkpt lat="48.02547" lon="-3.47396">
        <ele>61.1</ele>
        <time>2025-02-26T14:22:13Z</time>
      </trkpt>
      <trkpt lat="48.02546" lon="-3.47394">
        <ele>61</ele>
        <time>2025-02-26T14:22:14Z</time>
      </trkpt>
      <trkpt lat="48.02545" lon="-3.47393">
        <ele>61</ele>
        <time>2025-02-26T14:22:15Z</time>
      </trkpt>
      <trkpt lat="48.02545" lon="-3.47392">
        <ele>60.9</ele>
        <time>2025-02-26T14:22:16Z</time>
      </trkpt>
      <trkpt lat="48.02544" lon="-3.4739">
        <ele>60.9</ele>
        <time>2025-02-26T14:22:17Z</time>
      </trkpt>
      <trkpt lat="48.02544" lon="-3.47389">
        <ele>60.9</ele>
        <time>2025-02-26T14:22:18Z</time>
      </trkpt>
      <trkpt lat="48.02543" lon="-3.47388">
        <ele>60.9</ele>
        <time>2025-02-26T14:22:19Z</time>
      </trkpt>
      <trkpt lat="48.02543" lon="-3.47386">
        <ele>60.9</ele>
        <time>2025-02-26T14:22:20Z</time>
      </trkpt>
      <trkpt lat="48.02543" lon="-3.47384">
        <ele>60.9</ele>
        <time>2025-02-26T14:22:21Z</time>
      </trkpt>
      <trkpt lat="48.02542" lon="-3.47383">
        <ele>61</ele>
        <time>2025-02-26T14:22:22Z</time>
      </trkpt>
      <trkpt lat="48.02542" lon="-3.47382">
        <ele>61</ele>
        <time>2025-02-26T14:22:23Z</time>
      </trkpt>
      <trkpt lat="48.02541" lon="-3.47381">
        <ele>61</ele>
        <time>2025-02-26T14:22:24Z</time>
      </trkpt>
      <trkpt lat="48.02541" lon="-3.47379">
        <ele>61.1</ele>
        <time>2025-02-26T14:22:25Z</time>
      </trkpt>
      <trkpt lat="48.0254" lon="-3.47378">
        <ele>61.1</ele>
        <time>2025-02-26T14:22:26Z</time>
      </trkpt>
      <trkpt lat="48.0254" lon="-3.47377">
        <ele>61.1</ele>
        <time>2025-02-26T14:22:27Z</time>
      </trkpt>
      <trkpt lat="48.02539" lon="-3.47376">
        <ele>61.2</ele>
        <time>2025-02-26T14:22:28Z</time>
      </trkpt>
      <trkpt lat="48.02539" lon="-3.47375">
        <ele>61.2</ele>
        <time>2025-02-26T14:22:29Z</time>
      </trkpt>
      <trkpt lat="48.02538" lon="-3.47373">
        <ele>61.3</ele>
        <time>2025-02-26T14:22:30Z</time>
      </trkpt>
      <trkpt lat="48.02538" lon="-3.47372">
        <ele>61.3</ele>
        <time>2025-02-26T14:22:31Z</time>
      </trkpt>
      <trkpt lat="48.02538" lon="-3.4737">
        <ele>61.3</ele>
        <time>2025-02-26T14:22:32Z</time>
      </trkpt>
      <trkpt lat="48.02537" lon="-3.47369">
        <ele>61.3</ele>
        <time>2025-02-26T14:22:33Z</time>
      </trkpt>
      <trkpt lat="48.02537" lon="-3.47367">
        <ele>61.3</ele>
        <time>2025-02-26T14:22:34Z</time>
      </trkpt>
      <trkpt lat="48.02537" lon="-3.47365">
        <ele>61.3</ele>
        <time>2025-02-26T14:22:35Z</time>
      </trkpt>
      <trkpt lat="48.02537" lon="-3.47364">
        <ele>61.4</ele>
        <time>2025-02-26T14:22:36Z</time>
      </trkpt>
      <trkpt lat="48.02536" lon="-3.47362">
        <ele>61.4</ele>
        <time>2025-02-26T14:22:37Z</time>
      </trkpt>
      <trkpt lat="48.02536" lon="-3.47361">
        <ele>61.4</ele>
        <time>2025-02-26T14:22:38Z</time>
      </trkpt>
      <trkpt lat="48.02535" lon="-3.4736">
        <ele>61.4</ele>
        <time>2025-02-26T14:22:39Z</time>
      </trkpt>
      <trkpt lat="48.02535" lon="-3.47358">
        <ele>61.4</ele>
        <time>2025-02-26T14:22:40Z</time>
      </trkpt>
      <trkpt lat="48.02535" lon="-3.47356">
        <ele>61.5</ele>
        <time>2025-02-26T14:22:41Z</time>
      </trkpt>
      <trkpt lat="48.02534" lon="-3.47355">
        <ele>61.5</ele>
        <time>2025-02-26T14:22:42Z</time>
      </trkpt>
      <trkpt lat="48.02534" lon="-3.47353">
        <ele>61.5</ele>
        <time>2025-02-26T14:22:43Z</time>
      </trkpt>
      <trkpt lat="48.02533" lon="-3.47351">
        <ele>61.5</ele>
        <time>2025-02-26T14:22:44Z</time>
      </trkpt>
      <trkpt lat="48.02533" lon="-3.4735">
        <ele>61.6</ele>
        <time>2025-02-26T14:22:45Z</time>
      </trkpt>
      <trkpt lat="48.02534" lon="-3.47348">
        <ele>61.5</ele>
        <time>2025-02-26T14:22:46Z</time>
      </trkpt>
      <trkpt lat="48.02535" lon="-3.47347">
        <ele>61.3</ele>
        <time>2025-02-26T14:22:47Z</time>
      </trkpt>
      <trkpt lat="48.02533" lon="-3.47346">
        <ele>61.5</ele>
        <time>2025-02-26T14:22:48Z</time>
      </trkpt>
      <trkpt lat="48.02532" lon="-3.47344">
        <ele>61.6</ele>
        <time>2025-02-26T14:22:49Z</time>
      </trkpt>
      <trkpt lat="48.02531" lon="-3.47342">
        <ele>61.7</ele>
        <time>2025-02-26T14:22:50Z</time>
      </trkpt>
      <trkpt lat="48.0253" lon="-3.4734">
        <ele>61.8</ele>
        <time>2025-02-26T14:22:51Z</time>
      </trkpt>
      <trkpt lat="48.02529" lon="-3.47339">
        <ele>61.9</ele>
        <time>2025-02-26T14:22:52Z</time>
      </trkpt>
      <trkpt lat="48.02528" lon="-3.47338">
        <ele>61.9</ele>
        <time>2025-02-26T14:22:53Z</time>
      </trkpt>
      <trkpt lat="48.02527" lon="-3.47337">
        <ele>62</ele>
        <time>2025-02-26T14:22:54Z</time>
      </trkpt>
      <trkpt lat="48.02526" lon="-3.47336">
        <ele>62.1</ele>
        <time>2025-02-26T14:22:55Z</time>
      </trkpt>
      <trkpt lat="48.02525" lon="-3.47334">
        <ele>62.1</ele>
        <time>2025-02-26T14:22:56Z</time>
      </trkpt>
      <trkpt lat="48.02524" lon="-3.47331">
        <ele>62</ele>
        <time>2025-02-26T14:22:57Z</time>
      </trkpt>
      <trkpt lat="48.02524" lon="-3.4733">
        <ele>61.9</ele>
        <time>2025-02-26T14:22:58Z</time>
      </trkpt>
      <trkpt lat="48.02523" lon="-3.47328">
        <ele>61.9</ele>
        <time>2025-02-26T14:22:59Z</time>
      </trkpt>
      <trkpt lat="48.02523" lon="-3.47327">
        <ele>61.8</ele>
        <time>2025-02-26T14:23:00Z</time>
      </trkpt>
      <trkpt lat="48.02522" lon="-3.47325">
        <ele>61.7</ele>
        <time>2025-02-26T14:23:01Z</time>
      </trkpt>
      <trkpt lat="48.02521" lon="-3.47324">
        <ele>61.7</ele>
        <time>2025-02-26T14:23:02Z</time>
      </trkpt>
      <trkpt lat="48.02521" lon="-3.47322">
        <ele>61.6</ele>
        <time>2025-02-26T14:23:03Z</time>
      </trkpt>
      <trkpt lat="48.02521" lon="-3.47321">
        <ele>61.6</ele>
        <time>2025-02-26T14:23:04Z</time>
      </trkpt>
      <trkpt lat="48.0252" lon="-3.47319">
        <ele>61.6</ele>
        <time>2025-02-26T14:23:05Z</time>
      </trkpt>
      <trkpt lat="48.0252" lon="-3.47318">
        <ele>61.5</ele>
        <time>2025-02-26T14:23:06Z</time>
      </trkpt>
      <trkpt lat="48.02519" lon="-3.47317">
        <ele>61.5</ele>
        <time>2025-02-26T14:23:07Z</time>
      </trkpt>
      <trkpt lat="48.02519" lon="-3.47316">
        <ele>61.4</ele>
        <time>2025-02-26T14:23:08Z</time>
      </trkpt>
      <trkpt lat="48.02518" lon="-3.47314">
        <ele>61.4</ele>
        <time>2025-02-26T14:23:09Z</time>
      </trkpt>
      <trkpt lat="48.02518" lon="-3.47313">
        <ele>61.4</ele>
        <time>2025-02-26T14:23:10Z</time>
      </trkpt>
      <trkpt lat="48.02517" lon="-3.47312">
        <ele>61.4</ele>
        <time>2025-02-26T14:23:11Z</time>
      </trkpt>
      <trkpt lat="48.02517" lon="-3.4731">
        <ele>61.4</ele>
        <time>2025-02-26T14:23:12Z</time>
      </trkpt>
      <trkpt lat="48.02517" lon="-3.47309">
        <ele>61.3</ele>
        <time>2025-02-26T14:23:13Z</time>
      </trkpt>
      <trkpt lat="48.02516" lon="-3.47307">
        <ele>61.3</ele>
        <time>2025-02-26T14:23:14Z</time>
      </trkpt>
      <trkpt lat="48.02516" lon="-3.47306">
        <ele>61.3</ele>
        <time>2025-02-26T14:23:15Z</time>
      </trkpt>
      <trkpt lat="48.02515" lon="-3.47305">
        <ele>61.4</ele>
        <time>2025-02-26T14:23:16Z</time>
      </trkpt>
      <trkpt lat="48.02514" lon="-3.47303">
        <ele>61.4</ele>
        <time>2025-02-26T14:23:17Z</time>
      </trkpt>
      <trkpt lat="48.02514" lon="-3.47301">
        <ele>61.4</ele>
        <time>2025-02-26T14:23:18Z</time>
      </trkpt>
      <trkpt lat="48.02513" lon="-3.473">
        <ele>61.5</ele>
        <time>2025-02-26T14:23:19Z</time>
      </trkpt>
      <trkpt lat="48.02512" lon="-3.47298">
        <ele>61.5</ele>
        <time>2025-02-26T14:23:20Z</time>
      </trkpt>
      <trkpt lat="48.02512" lon="-3.47296">
        <ele>61.5</ele>
        <time>2025-02-26T14:23:21Z</time>
      </trkpt>
      <trkpt lat="48.02511" lon="-3.47294">
        <ele>61.5</ele>
        <time>2025-02-26T14:23:22Z</time>
      </trkpt>
      <trkpt lat="48.02511" lon="-3.47292">
        <ele>61.5</ele>
        <time>2025-02-26T14:23:23Z</time>
      </trkpt>
      <trkpt lat="48.0251" lon="-3.47291">
        <ele>61.5</ele>
        <time>2025-02-26T14:23:24Z</time>
      </trkpt>
      <trkpt lat="48.0251" lon="-3.47289">
        <ele>61.5</ele>
        <time>2025-02-26T14:23:25Z</time>
      </trkpt>
      <trkpt lat="48.0251" lon="-3.47288">
        <ele>61.5</ele>
        <time>2025-02-26T14:23:26Z</time>
      </trkpt>
      <trkpt lat="48.0251" lon="-3.47286">
        <ele>61.5</ele>
        <time>2025-02-26T14:23:27Z</time>
      </trkpt>
      <trkpt lat="48.0251" lon="-3.47284">
        <ele>61.4</ele>
        <time>2025-02-26T14:23:28Z</time>
      </trkpt>
      <trkpt lat="48.02509" lon="-3.47283">
        <ele>61.5</ele>
        <time>2025-02-26T14:23:29Z</time>
      </trkpt>
      <trkpt lat="48.02508" lon="-3.47282">
        <ele>61.5</ele>
        <time>2025-02-26T14:23:30Z</time>
      </trkpt>
      <trkpt lat="48.02508" lon="-3.4728">
        <ele>61.5</ele>
        <time>2025-02-26T14:23:31Z</time>
      </trkpt>
      <trkpt lat="48.02508" lon="-3.47278">
        <ele>61.4</ele>
        <time>2025-02-26T14:23:32Z</time>
      </trkpt>
      <trkpt lat="48.02508" lon="-3.47277">
        <ele>61.4</ele>
        <time>2025-02-26T14:23:33Z</time>
      </trkpt>
      <trkpt lat="48.02507" lon="-3.47275">
        <ele>61.4</ele>
        <time>2025-02-26T14:23:34Z</time>
      </trkpt>
      <trkpt lat="48.02507" lon="-3.47273">
        <ele>61.3</ele>
        <time>2025-02-26T14:23:35Z</time>
      </trkpt>
      <trkpt lat="48.02507" lon="-3.47272">
        <ele>61.3</ele>
        <time>2025-02-26T14:23:36Z</time>
      </trkpt>
      <trkpt lat="48.02507" lon="-3.4727">
        <ele>61.2</ele>
        <time>2025-02-26T14:23:37Z</time>
      </trkpt>
      <trkpt lat="48.02506" lon="-3.47268">
        <ele>61.2</ele>
        <time>2025-02-26T14:23:38Z</time>
      </trkpt>
      <trkpt lat="48.02506" lon="-3.47266">
        <ele>61.2</ele>
        <time>2025-02-26T14:23:39Z</time>
      </trkpt>
      <trkpt lat="48.02505" lon="-3.47264">
        <ele>61.1</ele>
        <time>2025-02-26T14:23:40Z</time>
      </trkpt>
      <trkpt lat="48.02505" lon="-3.47262">
        <ele>61.1</ele>
        <time>2025-02-26T14:23:41Z</time>
      </trkpt>
      <trkpt lat="48.02505" lon="-3.4726">
        <ele>61</ele>
        <time>2025-02-26T14:23:42Z</time>
      </trkpt>
      <trkpt lat="48.02505" lon="-3.47259">
        <ele>60.9</ele>
        <time>2025-02-26T14:23:43Z</time>
      </trkpt>
      <trkpt lat="48.02505" lon="-3.47257">
        <ele>60.9</ele>
        <time>2025-02-26T14:23:44Z</time>
      </trkpt>
      <trkpt lat="48.02505" lon="-3.47256">
        <ele>60.8</ele>
        <time>2025-02-26T14:23:45Z</time>
      </trkpt>
      <trkpt lat="48.02505" lon="-3.47254">
        <ele>60.8</ele>
        <time>2025-02-26T14:23:46Z</time>
      </trkpt>
      <trkpt lat="48.02505" lon="-3.47252">
        <ele>60.8</ele>
        <time>2025-02-26T14:23:47Z</time>
      </trkpt>
      <trkpt lat="48.02504" lon="-3.47251">
        <ele>60.7</ele>
        <time>2025-02-26T14:23:48Z</time>
      </trkpt>
      <trkpt lat="48.02504" lon="-3.47249">
        <ele>60.7</ele>
        <time>2025-02-26T14:23:49Z</time>
      </trkpt>
      <trkpt lat="48.02504" lon="-3.47248">
        <ele>60.7</ele>
        <time>2025-02-26T14:23:50Z</time>
      </trkpt>
      <trkpt lat="48.02503" lon="-3.47246">
        <ele>60.7</ele>
        <time>2025-02-26T14:23:51Z</time>
      </trkpt>
      <trkpt lat="48.02503" lon="-3.47245">
        <ele>60.7</ele>
        <time>2025-02-26T14:23:52Z</time>
      </trkpt>
      <trkpt lat="48.02503" lon="-3.47243">
        <ele>60.6</ele>
        <time>2025-02-26T14:23:53Z</time>
      </trkpt>
      <trkpt lat="48.02502" lon="-3.47242">
        <ele>60.6</ele>
        <time>2025-02-26T14:23:54Z</time>
      </trkpt>
      <trkpt lat="48.02502" lon="-3.4724">
        <ele>60.6</ele>
        <time>2025-02-26T14:23:55Z</time>
      </trkpt>
      <trkpt lat="48.02501" lon="-3.47239">
        <ele>60.6</ele>
        <time>2025-02-26T14:23:56Z</time>
      </trkpt>
      <trkpt lat="48.025" lon="-3.47238">
        <ele>60.6</ele>
        <time>2025-02-26T14:23:57Z</time>
      </trkpt>
      <trkpt lat="48.025" lon="-3.47236">
        <ele>60.5</ele>
        <time>2025-02-26T14:23:58Z</time>
      </trkpt>
      <trkpt lat="48.025" lon="-3.47235">
        <ele>60.4</ele>
        <time>2025-02-26T14:23:59Z</time>
      </trkpt>
      <trkpt lat="48.02501" lon="-3.47233">
        <ele>60.4</ele>
        <time>2025-02-26T14:24:00Z</time>
      </trkpt>
      <trkpt lat="48.025" lon="-3.47232">
        <ele>60.3</ele>
        <time>2025-02-26T14:24:01Z</time>
      </trkpt>
      <trkpt lat="48.025" lon="-3.47231">
        <ele>60.3</ele>
        <time>2025-02-26T14:24:02Z</time>
      </trkpt>
      <trkpt lat="48.02501" lon="-3.47233">
        <ele>60.4</ele>
        <time>2025-02-26T14:24:03Z</time>
      </trkpt>
      <trkpt lat="48.02501" lon="-3.47233">
        <ele>60.4</ele>
        <time>2025-02-26T14:24:04Z</time>
      </trkpt>
      <trkpt lat="48.02501" lon="-3.47232">
        <ele>60.3</ele>
        <time>2025-02-26T14:24:05Z</time>
      </trkpt>
      <trkpt lat="48.025" lon="-3.47231">
        <ele>60.3</ele>
        <time>2025-02-26T14:24:06Z</time>
      </trkpt>
      <trkpt lat="48.02499" lon="-3.47231">
        <ele>60.3</ele>
        <time>2025-02-26T14:24:07Z</time>
      </trkpt>
      <trkpt lat="48.02498" lon="-3.47232">
        <ele>60.4</ele>
        <time>2025-02-26T14:24:08Z</time>
      </trkpt>
      <trkpt lat="48.02496" lon="-3.47233">
        <ele>60.5</ele>
        <time>2025-02-26T14:24:09Z</time>
      </trkpt>
      <trkpt lat="48.02496" lon="-3.47233">
        <ele>60.5</ele>
        <time>2025-02-26T14:24:10Z</time>
      </trkpt>
      <trkpt lat="48.02496" lon="-3.47233">
        <ele>60.5</ele>
        <time>2025-02-26T14:24:11Z</time>
      </trkpt>
      <trkpt lat="48.02496" lon="-3.47233">
        <ele>60.5</ele>
        <time>2025-02-26T14:24:12Z</time>
      </trkpt>
      <trkpt lat="48.02496" lon="-3.47233">
        <ele>60.5</ele>
        <time>2025-02-26T14:24:13Z</time>
      </trkpt>
      <trkpt lat="48.02496" lon="-3.47233">
        <ele>60.5</ele>
        <time>2025-02-26T14:24:14Z</time>
      </trkpt>
      <trkpt lat="48.02496" lon="-3.47233">
        <ele>60.5</ele>
        <time>2025-02-26T14:24:15Z</time>
      </trkpt>
      <trkpt lat="48.02496" lon="-3.47233">
        <ele>60.5</ele>
        <time>2025-02-26T14:24:16Z</time>
      </trkpt>
      <trkpt lat="48.02496" lon="-3.47233">
        <ele>60.5</ele>
        <time>2025-02-26T14:24:17Z</time>
      </trkpt>
      <trkpt lat="48.02495" lon="-3.47233">
        <ele>60.5</ele>
        <time>2025-02-26T14:24:18Z</time>
      </trkpt>
      <trkpt lat="48.02494" lon="-3.47234">
        <ele>60.5</ele>
        <time>2025-02-26T14:24:19Z</time>
      </trkpt>
      <trkpt lat="48.02494" lon="-3.47235">
        <ele>60.5</ele>
        <time>2025-02-26T14:24:20Z</time>
      </trkpt>
      <trkpt lat="48.02493" lon="-3.47236">
        <ele>60.6</ele>
        <time>2025-02-26T14:24:21Z</time>
      </trkpt>
      <trkpt lat="48.02492" lon="-3.47235">
        <ele>60.6</ele>
        <time>2025-02-26T14:24:22Z</time>
      </trkpt>
      <trkpt lat="48.02491" lon="-3.47234">
        <ele>60.6</ele>
        <time>2025-02-26T14:24:23Z</time>
      </trkpt>
      <trkpt lat="48.02491" lon="-3.47234">
        <ele>60.6</ele>
        <time>2025-02-26T14:24:24Z</time>
      </trkpt>
      <trkpt lat="48.0249" lon="-3.47233">
        <ele>60.5</ele>
        <time>2025-02-26T14:24:25Z</time>
      </trkpt>
      <trkpt lat="48.02491" lon="-3.47234">
        <ele>60.5</ele>
        <time>2025-02-26T14:24:26Z</time>
      </trkpt>
      <trkpt lat="48.02491" lon="-3.47234">
        <ele>60.5</ele>
        <time>2025-02-26T14:24:27Z</time>
      </trkpt>
      <trkpt lat="48.02491" lon="-3.47234">
        <ele>60.5</ele>
        <time>2025-02-26T14:24:28Z</time>
      </trkpt>
      <trkpt lat="48.02491" lon="-3.47234">
        <ele>60.6</ele>
        <time>2025-02-26T14:24:29Z</time>
      </trkpt>
      <trkpt lat="48.02491" lon="-3.47235">
        <ele>60.6</ele>
        <time>2025-02-26T14:24:30Z</time>
      </trkpt>
      <trkpt lat="48.02491" lon="-3.47235">
        <ele>60.6</ele>
        <time>2025-02-26T14:24:31Z</time>
      </trkpt>
      <trkpt lat="48.02492" lon="-3.47236">
        <ele>60.6</ele>
        <time>2025-02-26T14:24:32Z</time>
      </trkpt>
      <trkpt lat="48.02492" lon="-3.47236">
        <ele>60.6</ele>
        <time>2025-02-26T14:24:33Z</time>
      </trkpt>
      <trkpt lat="48.02492" lon="-3.47236">
        <ele>60.6</ele>
        <time>2025-02-26T14:24:34Z</time>
      </trkpt>
      <trkpt lat="48.02492" lon="-3.47236">
        <ele>60.6</ele>
        <time>2025-02-26T14:24:35Z</time>
      </trkpt>
      <trkpt lat="48.02492" lon="-3.47236">
        <ele>60.6</ele>
        <time>2025-02-26T14:24:36Z</time>
      </trkpt>
      <trkpt lat="48.02492" lon="-3.47236">
        <ele>60.6</ele>
        <time>2025-02-26T14:24:37Z</time>
      </trkpt>
      <trkpt lat="48.02492" lon="-3.47236">
        <ele>60.6</ele>
        <time>2025-02-26T14:24:38Z</time>
      </trkpt>
      <trkpt lat="48.02492" lon="-3.47236">
        <ele>60.6</ele>
        <time>2025-02-26T14:24:39Z</time>
      </trkpt>
      <trkpt lat="48.02492" lon="-3.47236">
        <ele>60.6</ele>
        <time>2025-02-26T14:24:40Z</time>
      </trkpt>
      <trkpt lat="48.02492" lon="-3.47236">
        <ele>60.6</ele>
        <time>2025-02-26T14:24:41Z</time>
      </trkpt>
      <trkpt lat="48.02492" lon="-3.47236">
        <ele>60.7</ele>
        <time>2025-02-26T14:24:42Z</time>
      </trkpt>
      <trkpt lat="48.02492" lon="-3.47237">
        <ele>60.7</ele>
        <time>2025-02-26T14:24:43Z</time>
      </trkpt>
      <trkpt lat="48.02493" lon="-3.47237">
        <ele>60.7</ele>
        <time>2025-02-26T14:24:44Z</time>
      </trkpt>
      <trkpt lat="48.02493" lon="-3.47237">
        <ele>60.6</ele>
        <time>2025-02-26T14:24:45Z</time>
      </trkpt>
      <trkpt lat="48.02493" lon="-3.47236">
        <ele>60.6</ele>
        <time>2025-02-26T14:24:46Z</time>
      </trkpt>
      <trkpt lat="48.02494" lon="-3.47236">
        <ele>60.6</ele>
        <time>2025-02-26T14:24:47Z</time>
      </trkpt>
      <trkpt lat="48.02495" lon="-3.47234">
        <ele>60.5</ele>
        <time>2025-02-26T14:24:48Z</time>
      </trkpt>
      <trkpt lat="48.02496" lon="-3.47233">
        <ele>60.4</ele>
        <time>2025-02-26T14:24:49Z</time>
      </trkpt>
      <trkpt lat="48.02497" lon="-3.47232">
        <ele>60.4</ele>
        <time>2025-02-26T14:24:50Z</time>
      </trkpt>
      <trkpt lat="48.02498" lon="-3.4723">
        <ele>60.3</ele>
        <time>2025-02-26T14:24:51Z</time>
      </trkpt>
      <trkpt lat="48.02498" lon="-3.47229">
        <ele>60.3</ele>
        <time>2025-02-26T14:24:52Z</time>
      </trkpt>
      <trkpt lat="48.02498" lon="-3.47228">
        <ele>60.2</ele>
        <time>2025-02-26T14:24:53Z</time>
      </trkpt>
      <trkpt lat="48.02498" lon="-3.47227">
        <ele>60.2</ele>
        <time>2025-02-26T14:24:54Z</time>
      </trkpt>
      <trkpt lat="48.02498" lon="-3.47228">
        <ele>60.2</ele>
        <time>2025-02-26T14:24:55Z</time>
      </trkpt>
      <trkpt lat="48.02498" lon="-3.47228">
        <ele>60.2</ele>
        <time>2025-02-26T14:24:56Z</time>
      </trkpt>
      <trkpt lat="48.02498" lon="-3.47228">
        <ele>60.2</ele>
        <time>2025-02-26T14:24:57Z</time>
      </trkpt>
      <trkpt lat="48.02499" lon="-3.47227">
        <ele>60.2</ele>
        <time>2025-02-26T14:24:58Z</time>
      </trkpt>
      <trkpt lat="48.025" lon="-3.47227">
        <ele>60.2</ele>
        <time>2025-02-26T14:24:59Z</time>
      </trkpt>
      <trkpt lat="48.025" lon="-3.47224">
        <ele>60.1</ele>
        <time>2025-02-26T14:25:00Z</time>
      </trkpt>
      <trkpt lat="48.025" lon="-3.47222">
        <ele>60</ele>
        <time>2025-02-26T14:25:01Z</time>
      </trkpt>
      <trkpt lat="48.025" lon="-3.47221">
        <ele>60</ele>
        <time>2025-02-26T14:25:02Z</time>
      </trkpt>
      <trkpt lat="48.025" lon="-3.47221">
        <ele>59.9</ele>
        <time>2025-02-26T14:25:03Z</time>
      </trkpt>
      <trkpt lat="48.025" lon="-3.47221">
        <ele>59.9</ele>
        <time>2025-02-26T14:25:04Z</time>
      </trkpt>
      <trkpt lat="48.025" lon="-3.4722">
        <ele>59.9</ele>
        <time>2025-02-26T14:25:05Z</time>
      </trkpt>
      <trkpt lat="48.025" lon="-3.4722">
        <ele>59.9</ele>
        <time>2025-02-26T14:25:06Z</time>
      </trkpt>
      <trkpt lat="48.025" lon="-3.4722">
        <ele>59.9</ele>
        <time>2025-02-26T14:25:07Z</time>
      </trkpt>
      <trkpt lat="48.025" lon="-3.4722">
        <ele>59.9</ele>
        <time>2025-02-26T14:25:08Z</time>
      </trkpt>
      <trkpt lat="48.025" lon="-3.47221">
        <ele>60</ele>
        <time>2025-02-26T14:25:09Z</time>
      </trkpt>
      <trkpt lat="48.025" lon="-3.47222">
        <ele>60</ele>
        <time>2025-02-26T14:25:10Z</time>
      </trkpt>
      <trkpt lat="48.025" lon="-3.47223">
        <ele>60</ele>
        <time>2025-02-26T14:25:11Z</time>
      </trkpt>
      <trkpt lat="48.025" lon="-3.47223">
        <ele>60</ele>
        <time>2025-02-26T14:25:12Z</time>
      </trkpt>
      <trkpt lat="48.025" lon="-3.47224">
        <ele>60.1</ele>
        <time>2025-02-26T14:25:13Z</time>
      </trkpt>
      <trkpt lat="48.02501" lon="-3.47225">
        <ele>60.1</ele>
        <time>2025-02-26T14:25:14Z</time>
      </trkpt>
      <trkpt lat="48.02502" lon="-3.47225">
        <ele>60.1</ele>
        <time>2025-02-26T14:25:15Z</time>
      </trkpt>
      <trkpt lat="48.02502" lon="-3.47226">
        <ele>60.1</ele>
        <time>2025-02-26T14:25:16Z</time>
      </trkpt>
      <trkpt lat="48.02501" lon="-3.47229">
        <ele>60.2</ele>
        <time>2025-02-26T14:25:17Z</time>
      </trkpt>
      <trkpt lat="48.025" lon="-3.47228">
        <ele>60.2</ele>
        <time>2025-02-26T14:25:18Z</time>
      </trkpt>
      <trkpt lat="48.025" lon="-3.47227">
        <ele>60.2</ele>
        <time>2025-02-26T14:25:19Z</time>
      </trkpt>
      <trkpt lat="48.02499" lon="-3.47229">
        <ele>60.2</ele>
        <time>2025-02-26T14:25:20Z</time>
      </trkpt>
      <trkpt lat="48.02499" lon="-3.4723">
        <ele>60.3</ele>
        <time>2025-02-26T14:25:21Z</time>
      </trkpt>
      <trkpt lat="48.02499" lon="-3.47232">
        <ele>60.4</ele>
        <time>2025-02-26T14:25:22Z</time>
      </trkpt>
      <trkpt lat="48.02498" lon="-3.47234">
        <ele>60.4</ele>
        <time>2025-02-26T14:25:23Z</time>
      </trkpt>
      <trkpt lat="48.02498" lon="-3.47235">
        <ele>60.5</ele>
        <time>2025-02-26T14:25:24Z</time>
      </trkpt>
      <trkpt lat="48.02498" lon="-3.47235">
        <ele>60.5</ele>
        <time>2025-02-26T14:25:25Z</time>
      </trkpt>
      <trkpt lat="48.02498" lon="-3.47235">
        <ele>60.5</ele>
        <time>2025-02-26T14:25:26Z</time>
      </trkpt>
      <trkpt lat="48.02499" lon="-3.47235">
        <ele>60.5</ele>
        <time>2025-02-26T14:25:27Z</time>
      </trkpt>
      <trkpt lat="48.02499" lon="-3.47235">
        <ele>60.5</ele>
        <time>2025-02-26T14:25:28Z</time>
      </trkpt>
      <trkpt lat="48.02499" lon="-3.47235">
        <ele>60.5</ele>
        <time>2025-02-26T14:25:29Z</time>
      </trkpt>
      <trkpt lat="48.02499" lon="-3.47235">
        <ele>60.5</ele>
        <time>2025-02-26T14:25:30Z</time>
      </trkpt>
      <trkpt lat="48.02499" lon="-3.47235">
        <ele>60.5</ele>
        <time>2025-02-26T14:25:31Z</time>
      </trkpt>
      <trkpt lat="48.02499" lon="-3.47235">
        <ele>60.5</ele>
        <time>2025-02-26T14:25:32Z</time>
      </trkpt>
      <trkpt lat="48.02499" lon="-3.47235">
        <ele>60.5</ele>
        <time>2025-02-26T14:25:33Z</time>
      </trkpt>
      <trkpt lat="48.02499" lon="-3.47235">
        <ele>60.5</ele>
        <time>2025-02-26T14:25:34Z</time>
      </trkpt>
      <trkpt lat="48.02498" lon="-3.47236">
        <ele>60.5</ele>
        <time>2025-02-26T14:25:35Z</time>
      </trkpt>
      <trkpt lat="48.02497" lon="-3.47237">
        <ele>60.6</ele>
        <time>2025-02-26T14:25:36Z</time>
      </trkpt>
      <trkpt lat="48.02498" lon="-3.4724">
        <ele>60.7</ele>
        <time>2025-02-26T14:25:37Z</time>
      </trkpt>
      <trkpt lat="48.02498" lon="-3.47241">
        <ele>60.7</ele>
        <time>2025-02-26T14:25:38Z</time>
      </trkpt>
      <trkpt lat="48.02497" lon="-3.47242">
        <ele>60.8</ele>
        <time>2025-02-26T14:25:39Z</time>
      </trkpt>
      <trkpt lat="48.02496" lon="-3.47244">
        <ele>60.9</ele>
        <time>2025-02-26T14:25:40Z</time>
      </trkpt>
      <trkpt lat="48.02495" lon="-3.47244">
        <ele>60.9</ele>
        <time>2025-02-26T14:25:41Z</time>
      </trkpt>
      <trkpt lat="48.02494" lon="-3.47245">
        <ele>61</ele>
        <time>2025-02-26T14:25:42Z</time>
      </trkpt>
      <trkpt lat="48.02493" lon="-3.47245">
        <ele>61</ele>
        <time>2025-02-26T14:25:43Z</time>
      </trkpt>
      <trkpt lat="48.02492" lon="-3.47245">
        <ele>61</ele>
        <time>2025-02-26T14:25:44Z</time>
      </trkpt>
      <trkpt lat="48.02491" lon="-3.47246">
        <ele>61.1</ele>
        <time>2025-02-26T14:25:45Z</time>
      </trkpt>
      <trkpt lat="48.0249" lon="-3.47246">
        <ele>61.1</ele>
        <time>2025-02-26T14:25:46Z</time>
      </trkpt>
      <trkpt lat="48.02489" lon="-3.47246">
        <ele>61.2</ele>
        <time>2025-02-26T14:25:47Z</time>
      </trkpt>
      <trkpt lat="48.02488" lon="-3.47246">
        <ele>61.2</ele>
        <time>2025-02-26T14:25:48Z</time>
      </trkpt>
      <trkpt lat="48.02488" lon="-3.47246">
        <ele>61.2</ele>
        <time>2025-02-26T14:25:49Z</time>
      </trkpt>
      <trkpt lat="48.02487" lon="-3.47246">
        <ele>61.3</ele>
        <time>2025-02-26T14:25:50Z</time>
      </trkpt>
      <trkpt lat="48.02486" lon="-3.47247">
        <ele>61.3</ele>
        <time>2025-02-26T14:25:51Z</time>
      </trkpt>
      <trkpt lat="48.02485" lon="-3.47246">
        <ele>61.3</ele>
        <time>2025-02-26T14:25:52Z</time>
      </trkpt>
      <trkpt lat="48.02484" lon="-3.47245">
        <ele>61.3</ele>
        <time>2025-02-26T14:25:53Z</time>
      </trkpt>
      <trkpt lat="48.02483" lon="-3.47246">
        <ele>61.4</ele>
        <time>2025-02-26T14:25:54Z</time>
      </trkpt>
      <trkpt lat="48.02482" lon="-3.47246">
        <ele>61.4</ele>
        <time>2025-02-26T14:25:55Z</time>
      </trkpt>
      <trkpt lat="48.02481" lon="-3.47246">
        <ele>61.4</ele>
        <time>2025-02-26T14:25:56Z</time>
      </trkpt>
      <trkpt lat="48.0248" lon="-3.47245">
        <ele>61.4</ele>
        <time>2025-02-26T14:25:57Z</time>
      </trkpt>
      <trkpt lat="48.02479" lon="-3.47244">
        <ele>61.4</ele>
        <time>2025-02-26T14:25:58Z</time>
      </trkpt>
      <trkpt lat="48.02478" lon="-3.47243">
        <ele>61.3</ele>
        <time>2025-02-26T14:25:59Z</time>
      </trkpt>
      <trkpt lat="48.02477" lon="-3.47243">
        <ele>61.4</ele>
        <time>2025-02-26T14:26:00Z</time>
      </trkpt>
      <trkpt lat="48.02476" lon="-3.47243">
        <ele>61.4</ele>
        <time>2025-02-26T14:26:01Z</time>
      </trkpt>
      <trkpt lat="48.02475" lon="-3.47243">
        <ele>61.4</ele>
        <time>2025-02-26T14:26:02Z</time>
      </trkpt>
      <trkpt lat="48.02474" lon="-3.47243">
        <ele>61.4</ele>
        <time>2025-02-26T14:26:03Z</time>
      </trkpt>
      <trkpt lat="48.02473" lon="-3.47243">
        <ele>61.5</ele>
        <time>2025-02-26T14:26:04Z</time>
      </trkpt>
      <trkpt lat="48.02471" lon="-3.47242">
        <ele>61.4</ele>
        <time>2025-02-26T14:26:05Z</time>
      </trkpt>
      <trkpt lat="48.0247" lon="-3.47242">
        <ele>61.4</ele>
        <time>2025-02-26T14:26:06Z</time>
      </trkpt>
      <trkpt lat="48.02469" lon="-3.47242">
        <ele>61.3</ele>
        <time>2025-02-26T14:26:07Z</time>
      </trkpt>
      <trkpt lat="48.02469" lon="-3.47242">
        <ele>61.3</ele>
        <time>2025-02-26T14:26:08Z</time>
      </trkpt>
      <trkpt lat="48.02467" lon="-3.47241">
        <ele>61.3</ele>
        <time>2025-02-26T14:26:09Z</time>
      </trkpt>
      <trkpt lat="48.02466" lon="-3.4724">
        <ele>61.2</ele>
        <time>2025-02-26T14:26:10Z</time>
      </trkpt>
      <trkpt lat="48.02465" lon="-3.47241">
        <ele>61.2</ele>
        <time>2025-02-26T14:26:11Z</time>
      </trkpt>
      <trkpt lat="48.02464" lon="-3.47241">
        <ele>61.1</ele>
        <time>2025-02-26T14:26:12Z</time>
      </trkpt>
      <trkpt lat="48.02463" lon="-3.4724">
        <ele>61</ele>
        <time>2025-02-26T14:26:13Z</time>
      </trkpt>
      <trkpt lat="48.02462" lon="-3.47239">
        <ele>61</ele>
        <time>2025-02-26T14:26:14Z</time>
      </trkpt>
      <trkpt lat="48.02461" lon="-3.47238">
        <ele>60.9</ele>
        <time>2025-02-26T14:26:15Z</time>
      </trkpt>
      <trkpt lat="48.0246" lon="-3.47238">
        <ele>60.9</ele>
        <time>2025-02-26T14:26:16Z</time>
      </trkpt>
      <trkpt lat="48.02459" lon="-3.47237">
        <ele>60.8</ele>
        <time>2025-02-26T14:26:17Z</time>
      </trkpt>
      <trkpt lat="48.02458" lon="-3.47237">
        <ele>60.8</ele>
        <time>2025-02-26T14:26:18Z</time>
      </trkpt>
      <trkpt lat="48.02457" lon="-3.47237">
        <ele>60.8</ele>
        <time>2025-02-26T14:26:19Z</time>
      </trkpt>
      <trkpt lat="48.02456" lon="-3.47237">
        <ele>60.8</ele>
        <time>2025-02-26T14:26:20Z</time>
      </trkpt>
      <trkpt lat="48.02455" lon="-3.47237">
        <ele>60.7</ele>
        <time>2025-02-26T14:26:21Z</time>
      </trkpt>
      <trkpt lat="48.02454" lon="-3.47237">
        <ele>60.7</ele>
        <time>2025-02-26T14:26:22Z</time>
      </trkpt>
      <trkpt lat="48.02453" lon="-3.47237">
        <ele>60.7</ele>
        <time>2025-02-26T14:26:23Z</time>
      </trkpt>
      <trkpt lat="48.02453" lon="-3.47237">
        <ele>60.7</ele>
        <time>2025-02-26T14:26:24Z</time>
      </trkpt>
      <trkpt lat="48.02452" lon="-3.47236">
        <ele>60.6</ele>
        <time>2025-02-26T14:26:25Z</time>
      </trkpt>
      <trkpt lat="48.02451" lon="-3.47235">
        <ele>60.6</ele>
        <time>2025-02-26T14:26:26Z</time>
      </trkpt>
      <trkpt lat="48.0245" lon="-3.47234">
        <ele>60.5</ele>
        <time>2025-02-26T14:26:27Z</time>
      </trkpt>
      <trkpt lat="48.02448" lon="-3.47234">
        <ele>60.5</ele>
        <time>2025-02-26T14:26:28Z</time>
      </trkpt>
      <trkpt lat="48.02447" lon="-3.47234">
        <ele>60.5</ele>
        <time>2025-02-26T14:26:29Z</time>
      </trkpt>
      <trkpt lat="48.02446" lon="-3.47234">
        <ele>60.5</ele>
        <time>2025-02-26T14:26:30Z</time>
      </trkpt>
      <trkpt lat="48.02445" lon="-3.47234">
        <ele>60.5</ele>
        <time>2025-02-26T14:26:31Z</time>
      </trkpt>
      <trkpt lat="48.02444" lon="-3.47234">
        <ele>60.4</ele>
        <time>2025-02-26T14:26:32Z</time>
      </trkpt>
      <trkpt lat="48.02443" lon="-3.47234">
        <ele>60.4</ele>
        <time>2025-02-26T14:26:33Z</time>
      </trkpt>
      <trkpt lat="48.02443" lon="-3.47234">
        <ele>60.4</ele>
        <time>2025-02-26T14:26:34Z</time>
      </trkpt>
      <trkpt lat="48.02442" lon="-3.47233">
        <ele>60.4</ele>
        <time>2025-02-26T14:26:35Z</time>
      </trkpt>
      <trkpt lat="48.0244" lon="-3.47233">
        <ele>60.4</ele>
        <time>2025-02-26T14:26:36Z</time>
      </trkpt>
      <trkpt lat="48.0244" lon="-3.47233">
        <ele>60.4</ele>
        <time>2025-02-26T14:26:37Z</time>
      </trkpt>
      <trkpt lat="48.02439" lon="-3.47234">
        <ele>60.4</ele>
        <time>2025-02-26T14:26:38Z</time>
      </trkpt>
      <trkpt lat="48.02437" lon="-3.47233">
        <ele>60.4</ele>
        <time>2025-02-26T14:26:39Z</time>
      </trkpt>
      <trkpt lat="48.02436" lon="-3.47232">
        <ele>60.4</ele>
        <time>2025-02-26T14:26:40Z</time>
      </trkpt>
      <trkpt lat="48.02435" lon="-3.47231">
        <ele>60.3</ele>
        <time>2025-02-26T14:26:41Z</time>
      </trkpt>
      <trkpt lat="48.02434" lon="-3.47231">
        <ele>60.3</ele>
        <time>2025-02-26T14:26:42Z</time>
      </trkpt>
      <trkpt lat="48.02433" lon="-3.47232">
        <ele>60.3</ele>
        <time>2025-02-26T14:26:43Z</time>
      </trkpt>
      <trkpt lat="48.02432" lon="-3.47232">
        <ele>60.3</ele>
        <time>2025-02-26T14:26:44Z</time>
      </trkpt>
      <trkpt lat="48.02431" lon="-3.47232">
        <ele>60.3</ele>
        <time>2025-02-26T14:26:45Z</time>
      </trkpt>
      <trkpt lat="48.0243" lon="-3.47231">
        <ele>60.3</ele>
        <time>2025-02-26T14:26:46Z</time>
      </trkpt>
      <trkpt lat="48.02429" lon="-3.47231">
        <ele>60.3</ele>
        <time>2025-02-26T14:26:47Z</time>
      </trkpt>
      <trkpt lat="48.02429" lon="-3.4723">
        <ele>60.3</ele>
        <time>2025-02-26T14:26:48Z</time>
      </trkpt>
      <trkpt lat="48.02428" lon="-3.4723">
        <ele>60.3</ele>
        <time>2025-02-26T14:26:49Z</time>
      </trkpt>
      <trkpt lat="48.02427" lon="-3.47229">
        <ele>60.3</ele>
        <time>2025-02-26T14:26:50Z</time>
      </trkpt>
      <trkpt lat="48.02426" lon="-3.47228">
        <ele>60.2</ele>
        <time>2025-02-26T14:26:51Z</time>
      </trkpt>
      <trkpt lat="48.02425" lon="-3.47227">
        <ele>60.2</ele>
        <time>2025-02-26T14:26:52Z</time>
      </trkpt>
      <trkpt lat="48.02425" lon="-3.47226">
        <ele>60.1</ele>
        <time>2025-02-26T14:26:53Z</time>
      </trkpt>
      <trkpt lat="48.02423" lon="-3.47225">
        <ele>60.1</ele>
        <time>2025-02-26T14:26:54Z</time>
      </trkpt>
      <trkpt lat="48.02422" lon="-3.47224">
        <ele>60.1</ele>
        <time>2025-02-26T14:26:55Z</time>
      </trkpt>
      <trkpt lat="48.02422" lon="-3.47223">
        <ele>60</ele>
        <time>2025-02-26T14:26:56Z</time>
      </trkpt>
      <trkpt lat="48.02421" lon="-3.47223">
        <ele>60</ele>
        <time>2025-02-26T14:26:57Z</time>
      </trkpt>
      <trkpt lat="48.0242" lon="-3.47222">
        <ele>60</ele>
        <time>2025-02-26T14:26:58Z</time>
      </trkpt>
      <trkpt lat="48.02419" lon="-3.47223">
        <ele>60</ele>
        <time>2025-02-26T14:26:59Z</time>
      </trkpt>
      <trkpt lat="48.02418" lon="-3.47223">
        <ele>60</ele>
        <time>2025-02-26T14:27:00Z</time>
      </trkpt>
      <trkpt lat="48.02417" lon="-3.47223">
        <ele>60</ele>
        <time>2025-02-26T14:27:01Z</time>
      </trkpt>
      <trkpt lat="48.02416" lon="-3.47223">
        <ele>60</ele>
        <time>2025-02-26T14:27:02Z</time>
      </trkpt>
      <trkpt lat="48.02415" lon="-3.47223">
        <ele>60</ele>
        <time>2025-02-26T14:27:03Z</time>
      </trkpt>
      <trkpt lat="48.02414" lon="-3.47222">
        <ele>60</ele>
        <time>2025-02-26T14:27:04Z</time>
      </trkpt>
      <trkpt lat="48.02413" lon="-3.47223">
        <ele>60</ele>
        <time>2025-02-26T14:27:05Z</time>
      </trkpt>
      <trkpt lat="48.02411" lon="-3.47223">
        <ele>60</ele>
        <time>2025-02-26T14:27:06Z</time>
      </trkpt>
      <trkpt lat="48.02411" lon="-3.47223">
        <ele>60</ele>
        <time>2025-02-26T14:27:07Z</time>
      </trkpt>
      <trkpt lat="48.0241" lon="-3.47223">
        <ele>60</ele>
        <time>2025-02-26T14:27:08Z</time>
      </trkpt>
      <trkpt lat="48.02409" lon="-3.47222">
        <ele>60</ele>
        <time>2025-02-26T14:27:09Z</time>
      </trkpt>
      <trkpt lat="48.02408" lon="-3.47221">
        <ele>60</ele>
        <time>2025-02-26T14:27:10Z</time>
      </trkpt>
      <trkpt lat="48.02407" lon="-3.4722">
        <ele>60</ele>
        <time>2025-02-26T14:27:11Z</time>
      </trkpt>
      <trkpt lat="48.02406" lon="-3.47219">
        <ele>60</ele>
        <time>2025-02-26T14:27:12Z</time>
      </trkpt>
      <trkpt lat="48.02404" lon="-3.47219">
        <ele>60</ele>
        <time>2025-02-26T14:27:13Z</time>
      </trkpt>
      <trkpt lat="48.02404" lon="-3.47219">
        <ele>60</ele>
        <time>2025-02-26T14:27:14Z</time>
      </trkpt>
      <trkpt lat="48.02403" lon="-3.47218">
        <ele>60</ele>
        <time>2025-02-26T14:27:15Z</time>
      </trkpt>
      <trkpt lat="48.02402" lon="-3.4722">
        <ele>60</ele>
        <time>2025-02-26T14:27:16Z</time>
      </trkpt>
      <trkpt lat="48.02401" lon="-3.4722">
        <ele>60</ele>
        <time>2025-02-26T14:27:17Z</time>
      </trkpt>
      <trkpt lat="48.024" lon="-3.47221">
        <ele>60</ele>
        <time>2025-02-26T14:27:18Z</time>
      </trkpt>
      <trkpt lat="48.02399" lon="-3.47222">
        <ele>60</ele>
        <time>2025-02-26T14:27:19Z</time>
      </trkpt>
      <trkpt lat="48.02398" lon="-3.47221">
        <ele>60</ele>
        <time>2025-02-26T14:27:20Z</time>
      </trkpt>
      <trkpt lat="48.02397" lon="-3.47222">
        <ele>60</ele>
        <time>2025-02-26T14:27:21Z</time>
      </trkpt>
      <trkpt lat="48.02397" lon="-3.47222">
        <ele>60</ele>
        <time>2025-02-26T14:27:22Z</time>
      </trkpt>
      <trkpt lat="48.02396" lon="-3.47223">
        <ele>60</ele>
        <time>2025-02-26T14:27:23Z</time>
      </trkpt>
      <trkpt lat="48.02395" lon="-3.47223">
        <ele>60</ele>
        <time>2025-02-26T14:27:24Z</time>
      </trkpt>
      <trkpt lat="48.02394" lon="-3.47223">
        <ele>60</ele>
        <time>2025-02-26T14:27:25Z</time>
      </trkpt>
      <trkpt lat="48.02393" lon="-3.47223">
        <ele>60</ele>
        <time>2025-02-26T14:27:26Z</time>
      </trkpt>
      <trkpt lat="48.02392" lon="-3.47223">
        <ele>60</ele>
        <time>2025-02-26T14:27:27Z</time>
      </trkpt>
      <trkpt lat="48.02391" lon="-3.47223">
        <ele>60</ele>
        <time>2025-02-26T14:27:28Z</time>
      </trkpt>
      <trkpt lat="48.0239" lon="-3.47223">
        <ele>60</ele>
        <time>2025-02-26T14:27:29Z</time>
      </trkpt>
      <trkpt lat="48.02389" lon="-3.47223">
        <ele>60</ele>
        <time>2025-02-26T14:27:30Z</time>
      </trkpt>
      <trkpt lat="48.02389" lon="-3.47222">
        <ele>60</ele>
        <time>2025-02-26T14:27:31Z</time>
      </trkpt>
      <trkpt lat="48.02388" lon="-3.47221">
        <ele>60</ele>
        <time>2025-02-26T14:27:32Z</time>
      </trkpt>
      <trkpt lat="48.02387" lon="-3.47221">
        <ele>60.1</ele>
        <time>2025-02-26T14:27:33Z</time>
      </trkpt>
      <trkpt lat="48.02386" lon="-3.4722">
        <ele>60.1</ele>
        <time>2025-02-26T14:27:34Z</time>
      </trkpt>
      <trkpt lat="48.02385" lon="-3.47219">
        <ele>60.1</ele>
        <time>2025-02-26T14:27:35Z</time>
      </trkpt>
      <trkpt lat="48.02384" lon="-3.47218">
        <ele>60.1</ele>
        <time>2025-02-26T14:27:36Z</time>
      </trkpt>
      <trkpt lat="48.02383" lon="-3.47218">
        <ele>60.2</ele>
        <time>2025-02-26T14:27:37Z</time>
      </trkpt>
      <trkpt lat="48.02382" lon="-3.47218">
        <ele>60.2</ele>
        <time>2025-02-26T14:27:38Z</time>
      </trkpt>
      <trkpt lat="48.02382" lon="-3.47218">
        <ele>60.2</ele>
        <time>2025-02-26T14:27:39Z</time>
      </trkpt>
      <trkpt lat="48.02381" lon="-3.47217">
        <ele>60.2</ele>
        <time>2025-02-26T14:27:40Z</time>
      </trkpt>
      <trkpt lat="48.0238" lon="-3.47216">
        <ele>60.2</ele>
        <time>2025-02-26T14:27:41Z</time>
      </trkpt>
      <trkpt lat="48.02379" lon="-3.47215">
        <ele>60.3</ele>
        <time>2025-02-26T14:27:42Z</time>
      </trkpt>
      <trkpt lat="48.02378" lon="-3.47215">
        <ele>60.3</ele>
        <time>2025-02-26T14:27:43Z</time>
      </trkpt>
      <trkpt lat="48.02377" lon="-3.47215">
        <ele>60.3</ele>
        <time>2025-02-26T14:27:44Z</time>
      </trkpt>
      <trkpt lat="48.02376" lon="-3.47214">
        <ele>60.3</ele>
        <time>2025-02-26T14:27:45Z</time>
      </trkpt>
      <trkpt lat="48.02375" lon="-3.47214">
        <ele>60.3</ele>
        <time>2025-02-26T14:27:46Z</time>
      </trkpt>
      <trkpt lat="48.02374" lon="-3.47214">
        <ele>60.4</ele>
        <time>2025-02-26T14:27:47Z</time>
      </trkpt>
      <trkpt lat="48.02373" lon="-3.47213">
        <ele>60.4</ele>
        <time>2025-02-26T14:27:48Z</time>
      </trkpt>
      <trkpt lat="48.02372" lon="-3.47213">
        <ele>60.4</ele>
        <time>2025-02-26T14:27:49Z</time>
      </trkpt>
      <trkpt lat="48.02371" lon="-3.47212">
        <ele>60.4</ele>
        <time>2025-02-26T14:27:50Z</time>
      </trkpt>
      <trkpt lat="48.0237" lon="-3.47212">
        <ele>60.4</ele>
        <time>2025-02-26T14:27:51Z</time>
      </trkpt>
      <trkpt lat="48.02369" lon="-3.47211">
        <ele>60.4</ele>
        <time>2025-02-26T14:27:52Z</time>
      </trkpt>
      <trkpt lat="48.02368" lon="-3.4721">
        <ele>60.4</ele>
        <time>2025-02-26T14:27:53Z</time>
      </trkpt>
      <trkpt lat="48.02368" lon="-3.47209">
        <ele>60.4</ele>
        <time>2025-02-26T14:27:54Z</time>
      </trkpt>
      <trkpt lat="48.02367" lon="-3.47208">
        <ele>60.4</ele>
        <time>2025-02-26T14:27:55Z</time>
      </trkpt>
      <trkpt lat="48.02366" lon="-3.47207">
        <ele>60.4</ele>
        <time>2025-02-26T14:27:56Z</time>
      </trkpt>
      <trkpt lat="48.02365" lon="-3.47207">
        <ele>60.4</ele>
        <time>2025-02-26T14:27:57Z</time>
      </trkpt>
      <trkpt lat="48.02364" lon="-3.47206">
        <ele>60.4</ele>
        <time>2025-02-26T14:27:58Z</time>
      </trkpt>
      <trkpt lat="48.02363" lon="-3.47206">
        <ele>60.4</ele>
        <time>2025-02-26T14:27:59Z</time>
      </trkpt>
      <trkpt lat="48.02362" lon="-3.47206">
        <ele>60.4</ele>
        <time>2025-02-26T14:28:00Z</time>
      </trkpt>
      <trkpt lat="48.02361" lon="-3.47207">
        <ele>60.5</ele>
        <time>2025-02-26T14:28:01Z</time>
      </trkpt>
      <trkpt lat="48.0236" lon="-3.47208">
        <ele>60.5</ele>
        <time>2025-02-26T14:28:02Z</time>
      </trkpt>
      <trkpt lat="48.02359" lon="-3.47208">
        <ele>60.5</ele>
        <time>2025-02-26T14:28:03Z</time>
      </trkpt>
      <trkpt lat="48.02359" lon="-3.47209">
        <ele>60.5</ele>
        <time>2025-02-26T14:28:04Z</time>
      </trkpt>
      <trkpt lat="48.02357" lon="-3.4721">
        <ele>60.5</ele>
        <time>2025-02-26T14:28:05Z</time>
      </trkpt>
      <trkpt lat="48.02357" lon="-3.4721">
        <ele>60.5</ele>
        <time>2025-02-26T14:28:06Z</time>
      </trkpt>
      <trkpt lat="48.02356" lon="-3.4721">
        <ele>60.5</ele>
        <time>2025-02-26T14:28:07Z</time>
      </trkpt>
      <trkpt lat="48.02354" lon="-3.4721">
        <ele>60.4</ele>
        <time>2025-02-26T14:28:08Z</time>
      </trkpt>
      <trkpt lat="48.02353" lon="-3.4721">
        <ele>60.4</ele>
        <time>2025-02-26T14:28:09Z</time>
      </trkpt>
      <trkpt lat="48.02352" lon="-3.4721">
        <ele>60.4</ele>
        <time>2025-02-26T14:28:10Z</time>
      </trkpt>
      <trkpt lat="48.02351" lon="-3.47209">
        <ele>60.4</ele>
        <time>2025-02-26T14:28:11Z</time>
      </trkpt>
      <trkpt lat="48.0235" lon="-3.4721">
        <ele>60.3</ele>
        <time>2025-02-26T14:28:12Z</time>
      </trkpt>
      <trkpt lat="48.0235" lon="-3.47208">
        <ele>60.3</ele>
        <time>2025-02-26T14:28:13Z</time>
      </trkpt>
      <trkpt lat="48.0235" lon="-3.47207">
        <ele>60.3</ele>
        <time>2025-02-26T14:28:14Z</time>
      </trkpt>
      <trkpt lat="48.0235" lon="-3.47206">
        <ele>60.3</ele>
        <time>2025-02-26T14:28:15Z</time>
      </trkpt>
      <trkpt lat="48.02351" lon="-3.47205">
        <ele>60.2</ele>
        <time>2025-02-26T14:28:16Z</time>
      </trkpt>
      <trkpt lat="48.02351" lon="-3.47201">
        <ele>60.1</ele>
        <time>2025-02-26T14:28:17Z</time>
      </trkpt>
      <trkpt lat="48.02352" lon="-3.47199">
        <ele>60.1</ele>
        <time>2025-02-26T14:28:18Z</time>
      </trkpt>
      <trkpt lat="48.02352" lon="-3.47198">
        <ele>60.1</ele>
        <time>2025-02-26T14:28:19Z</time>
      </trkpt>
      <trkpt lat="48.02352" lon="-3.47198">
        <ele>60.1</ele>
        <time>2025-02-26T14:28:20Z</time>
      </trkpt>
      <trkpt lat="48.02352" lon="-3.47199">
        <ele>60.1</ele>
        <time>2025-02-26T14:28:21Z</time>
      </trkpt>
      <trkpt lat="48.02351" lon="-3.47199">
        <ele>60.1</ele>
        <time>2025-02-26T14:28:22Z</time>
      </trkpt>
      <trkpt lat="48.02351" lon="-3.47199">
        <ele>60.1</ele>
        <time>2025-02-26T14:28:23Z</time>
      </trkpt>
      <trkpt lat="48.02351" lon="-3.47199">
        <ele>60.1</ele>
        <time>2025-02-26T14:28:24Z</time>
      </trkpt>
      <trkpt lat="48.02352" lon="-3.47199">
        <ele>60.1</ele>
        <time>2025-02-26T14:28:25Z</time>
      </trkpt>
      <trkpt lat="48.02352" lon="-3.47199">
        <ele>60.1</ele>
        <time>2025-02-26T14:28:26Z</time>
      </trkpt>
      <trkpt lat="48.02352" lon="-3.47199">
        <ele>60.1</ele>
        <time>2025-02-26T14:28:27Z</time>
      </trkpt>
      <trkpt lat="48.02351" lon="-3.47199">
        <ele>60.1</ele>
        <time>2025-02-26T14:28:28Z</time>
      </trkpt>
      <trkpt lat="48.02351" lon="-3.47198">
        <ele>60.1</ele>
        <time>2025-02-26T14:28:29Z</time>
      </trkpt>
      <trkpt lat="48.02352" lon="-3.47197">
        <ele>60.1</ele>
        <time>2025-02-26T14:28:30Z</time>
      </trkpt>
      <trkpt lat="48.02351" lon="-3.47196">
        <ele>60</ele>
        <time>2025-02-26T14:28:31Z</time>
      </trkpt>
      <trkpt lat="48.02352" lon="-3.47195">
        <ele>60</ele>
        <time>2025-02-26T14:28:32Z</time>
      </trkpt>
      <trkpt lat="48.02352" lon="-3.47194">
        <ele>60</ele>
        <time>2025-02-26T14:28:33Z</time>
      </trkpt>
      <trkpt lat="48.02353" lon="-3.47194">
        <ele>60</ele>
        <time>2025-02-26T14:28:34Z</time>
      </trkpt>
      <trkpt lat="48.02354" lon="-3.47193">
        <ele>60</ele>
        <time>2025-02-26T14:28:35Z</time>
      </trkpt>
      <trkpt lat="48.02354" lon="-3.47192">
        <ele>60</ele>
        <time>2025-02-26T14:28:36Z</time>
      </trkpt>
      <trkpt lat="48.02355" lon="-3.47191">
        <ele>60</ele>
        <time>2025-02-26T14:28:37Z</time>
      </trkpt>
      <trkpt lat="48.02356" lon="-3.4719">
        <ele>60</ele>
        <time>2025-02-26T14:28:38Z</time>
      </trkpt>
      <trkpt lat="48.02355" lon="-3.47189">
        <ele>60</ele>
        <time>2025-02-26T14:28:39Z</time>
      </trkpt>
      <trkpt lat="48.02354" lon="-3.47188">
        <ele>60</ele>
        <time>2025-02-26T14:28:40Z</time>
      </trkpt>
      <trkpt lat="48.02354" lon="-3.47186">
        <ele>60</ele>
        <time>2025-02-26T14:28:41Z</time>
      </trkpt>
      <trkpt lat="48.02354" lon="-3.47185">
        <ele>60</ele>
        <time>2025-02-26T14:28:42Z</time>
      </trkpt>
      <trkpt lat="48.02353" lon="-3.47184">
        <ele>60</ele>
        <time>2025-02-26T14:28:43Z</time>
      </trkpt>
      <trkpt lat="48.02353" lon="-3.47183">
        <ele>60</ele>
        <time>2025-02-26T14:28:44Z</time>
      </trkpt>
      <trkpt lat="48.02352" lon="-3.47182">
        <ele>60</ele>
        <time>2025-02-26T14:28:45Z</time>
      </trkpt>
      <trkpt lat="48.02351" lon="-3.47181">
        <ele>60</ele>
        <time>2025-02-26T14:28:46Z</time>
      </trkpt>
      <trkpt lat="48.02351" lon="-3.47179">
        <ele>60</ele>
        <time>2025-02-26T14:28:47Z</time>
      </trkpt>
      <trkpt lat="48.0235" lon="-3.47177">
        <ele>60</ele>
        <time>2025-02-26T14:28:48Z</time>
      </trkpt>
      <trkpt lat="48.0235" lon="-3.47176">
        <ele>60</ele>
        <time>2025-02-26T14:28:49Z</time>
      </trkpt>
      <trkpt lat="48.0235" lon="-3.47174">
        <ele>60</ele>
        <time>2025-02-26T14:28:50Z</time>
      </trkpt>
      <trkpt lat="48.0235" lon="-3.47172">
        <ele>60</ele>
        <time>2025-02-26T14:28:51Z</time>
      </trkpt>
      <trkpt lat="48.0235" lon="-3.47171">
        <ele>60</ele>
        <time>2025-02-26T14:28:52Z</time>
      </trkpt>
      <trkpt lat="48.02349" lon="-3.4717">
        <ele>60</ele>
        <time>2025-02-26T14:28:53Z</time>
      </trkpt>
      <trkpt lat="48.02348" lon="-3.4717">
        <ele>60</ele>
        <time>2025-02-26T14:28:54Z</time>
      </trkpt>
      <trkpt lat="48.02346" lon="-3.4717">
        <ele>60</ele>
        <time>2025-02-26T14:28:55Z</time>
      </trkpt>
      <trkpt lat="48.02345" lon="-3.4717">
        <ele>60</ele>
        <time>2025-02-26T14:28:56Z</time>
      </trkpt>
      <trkpt lat="48.02343" lon="-3.4717">
        <ele>60</ele>
        <time>2025-02-26T14:28:57Z</time>
      </trkpt>
      <trkpt lat="48.02342" lon="-3.47168">
        <ele>60</ele>
        <time>2025-02-26T14:28:58Z</time>
      </trkpt>
      <trkpt lat="48.02342" lon="-3.47166">
        <ele>60</ele>
        <time>2025-02-26T14:28:59Z</time>
      </trkpt>
      <trkpt lat="48.02341" lon="-3.47166">
        <ele>60</ele>
        <time>2025-02-26T14:29:00Z</time>
      </trkpt>
      <trkpt lat="48.0234" lon="-3.47166">
        <ele>60</ele>
        <time>2025-02-26T14:29:01Z</time>
      </trkpt>
      <trkpt lat="48.02338" lon="-3.47167">
        <ele>60</ele>
        <time>2025-02-26T14:29:02Z</time>
      </trkpt>
      <trkpt lat="48.02337" lon="-3.47168">
        <ele>60</ele>
        <time>2025-02-26T14:29:03Z</time>
      </trkpt>
      <trkpt lat="48.02336" lon="-3.47168">
        <ele>60</ele>
        <time>2025-02-26T14:29:04Z</time>
      </trkpt>
      <trkpt lat="48.02335" lon="-3.47169">
        <ele>60</ele>
        <time>2025-02-26T14:29:05Z</time>
      </trkpt>
      <trkpt lat="48.02333" lon="-3.47169">
        <ele>60</ele>
        <time>2025-02-26T14:29:06Z</time>
      </trkpt>
      <trkpt lat="48.02332" lon="-3.4717">
        <ele>60</ele>
        <time>2025-02-26T14:29:07Z</time>
      </trkpt>
      <trkpt lat="48.02332" lon="-3.4717">
        <ele>60</ele>
        <time>2025-02-26T14:29:08Z</time>
      </trkpt>
      <trkpt lat="48.02331" lon="-3.4717">
        <ele>60</ele>
        <time>2025-02-26T14:29:09Z</time>
      </trkpt>
      <trkpt lat="48.02329" lon="-3.4717">
        <ele>60</ele>
        <time>2025-02-26T14:29:10Z</time>
      </trkpt>
      <trkpt lat="48.02328" lon="-3.4717">
        <ele>60</ele>
        <time>2025-02-26T14:29:11Z</time>
      </trkpt>
      <trkpt lat="48.02327" lon="-3.4717">
        <ele>60</ele>
        <time>2025-02-26T14:29:12Z</time>
      </trkpt>
      <trkpt lat="48.02326" lon="-3.47168">
        <ele>60</ele>
        <time>2025-02-26T14:29:13Z</time>
      </trkpt>
      <trkpt lat="48.02326" lon="-3.47167">
        <ele>60</ele>
        <time>2025-02-26T14:29:14Z</time>
      </trkpt>
      <trkpt lat="48.02326" lon="-3.47165">
        <ele>59.9</ele>
        <time>2025-02-26T14:29:15Z</time>
      </trkpt>
      <trkpt lat="48.02326" lon="-3.47163">
        <ele>59.9</ele>
        <time>2025-02-26T14:29:16Z</time>
      </trkpt>
      <trkpt lat="48.02327" lon="-3.47161">
        <ele>59.8</ele>
        <time>2025-02-26T14:29:17Z</time>
      </trkpt>
      <trkpt lat="48.02328" lon="-3.4716">
        <ele>59.7</ele>
        <time>2025-02-26T14:29:18Z</time>
      </trkpt>
      <trkpt lat="48.02328" lon="-3.47158">
        <ele>59.7</ele>
        <time>2025-02-26T14:29:19Z</time>
      </trkpt>
      <trkpt lat="48.02328" lon="-3.47157">
        <ele>59.6</ele>
        <time>2025-02-26T14:29:20Z</time>
      </trkpt>
      <trkpt lat="48.02328" lon="-3.47155">
        <ele>59.6</ele>
        <time>2025-02-26T14:29:21Z</time>
      </trkpt>
      <trkpt lat="48.02329" lon="-3.47153">
        <ele>59.5</ele>
        <time>2025-02-26T14:29:22Z</time>
      </trkpt>
      <trkpt lat="48.02329" lon="-3.47152">
        <ele>59.5</ele>
        <time>2025-02-26T14:29:23Z</time>
      </trkpt>
      <trkpt lat="48.0233" lon="-3.4715">
        <ele>59.4</ele>
        <time>2025-02-26T14:29:24Z</time>
      </trkpt>
      <trkpt lat="48.0233" lon="-3.47148">
        <ele>59.3</ele>
        <time>2025-02-26T14:29:25Z</time>
      </trkpt>
      <trkpt lat="48.0233" lon="-3.47146">
        <ele>59.3</ele>
        <time>2025-02-26T14:29:26Z</time>
      </trkpt>
      <trkpt lat="48.0233" lon="-3.47144">
        <ele>59.2</ele>
        <time>2025-02-26T14:29:27Z</time>
      </trkpt>
      <trkpt lat="48.02329" lon="-3.47143">
        <ele>59.1</ele>
        <time>2025-02-26T14:29:28Z</time>
      </trkpt>
      <trkpt lat="48.02329" lon="-3.47141">
        <ele>59.1</ele>
        <time>2025-02-26T14:29:29Z</time>
      </trkpt>
      <trkpt lat="48.0233" lon="-3.47139">
        <ele>59</ele>
        <time>2025-02-26T14:29:30Z</time>
      </trkpt>
      <trkpt lat="48.0233" lon="-3.47137">
        <ele>59</ele>
        <time>2025-02-26T14:29:31Z</time>
      </trkpt>
      <trkpt lat="48.0233" lon="-3.47136">
        <ele>59</ele>
        <time>2025-02-26T14:29:32Z</time>
      </trkpt>
      <trkpt lat="48.02329" lon="-3.47134">
        <ele>59</ele>
        <time>2025-02-26T14:29:33Z</time>
      </trkpt>
      <trkpt lat="48.0233" lon="-3.47133">
        <ele>59</ele>
        <time>2025-02-26T14:29:34Z</time>
      </trkpt>
      <trkpt lat="48.0233" lon="-3.47131">
        <ele>59</ele>
        <time>2025-02-26T14:29:35Z</time>
      </trkpt>
      <trkpt lat="48.02331" lon="-3.47129">
        <ele>59</ele>
        <time>2025-02-26T14:29:36Z</time>
      </trkpt>
      <trkpt lat="48.02331" lon="-3.47127">
        <ele>59</ele>
        <time>2025-02-26T14:29:37Z</time>
      </trkpt>
      <trkpt lat="48.02331" lon="-3.47125">
        <ele>59</ele>
        <time>2025-02-26T14:29:38Z</time>
      </trkpt>
      <trkpt lat="48.0233" lon="-3.47123">
        <ele>59</ele>
        <time>2025-02-26T14:29:39Z</time>
      </trkpt>
      <trkpt lat="48.0233" lon="-3.47122">
        <ele>59</ele>
        <time>2025-02-26T14:29:40Z</time>
      </trkpt>
      <trkpt lat="48.0233" lon="-3.4712">
        <ele>59</ele>
        <time>2025-02-26T14:29:41Z</time>
      </trkpt>
      <trkpt lat="48.0233" lon="-3.47118">
        <ele>59</ele>
        <time>2025-02-26T14:29:42Z</time>
      </trkpt>
      <trkpt lat="48.0233" lon="-3.47116">
        <ele>59</ele>
        <time>2025-02-26T14:29:43Z</time>
      </trkpt>
      <trkpt lat="48.0233" lon="-3.47114">
        <ele>59</ele>
        <time>2025-02-26T14:29:44Z</time>
      </trkpt>
      <trkpt lat="48.0233" lon="-3.47112">
        <ele>59</ele>
        <time>2025-02-26T14:29:45Z</time>
      </trkpt>
      <trkpt lat="48.0233" lon="-3.4711">
        <ele>59</ele>
        <time>2025-02-26T14:29:46Z</time>
      </trkpt>
      <trkpt lat="48.0233" lon="-3.47108">
        <ele>58.9</ele>
        <time>2025-02-26T14:29:47Z</time>
      </trkpt>
      <trkpt lat="48.02329" lon="-3.47106">
        <ele>58.8</ele>
        <time>2025-02-26T14:29:48Z</time>
      </trkpt>
      <trkpt lat="48.0233" lon="-3.47104">
        <ele>58.8</ele>
        <time>2025-02-26T14:29:49Z</time>
      </trkpt>
      <trkpt lat="48.0233" lon="-3.47102">
        <ele>58.7</ele>
        <time>2025-02-26T14:29:50Z</time>
      </trkpt>
      <trkpt lat="48.02329" lon="-3.471">
        <ele>58.7</ele>
        <time>2025-02-26T14:29:51Z</time>
      </trkpt>
      <trkpt lat="48.0233" lon="-3.47098">
        <ele>58.6</ele>
        <time>2025-02-26T14:29:52Z</time>
      </trkpt>
      <trkpt lat="48.02331" lon="-3.47097">
        <ele>58.5</ele>
        <time>2025-02-26T14:29:53Z</time>
      </trkpt>
      <trkpt lat="48.02331" lon="-3.47095">
        <ele>58.5</ele>
        <time>2025-02-26T14:29:54Z</time>
      </trkpt>
      <trkpt lat="48.02332" lon="-3.47094">
        <ele>58.4</ele>
        <time>2025-02-26T14:29:55Z</time>
      </trkpt>
      <trkpt lat="48.02332" lon="-3.47092">
        <ele>58.3</ele>
        <time>2025-02-26T14:29:56Z</time>
      </trkpt>
      <trkpt lat="48.02333" lon="-3.4709">
        <ele>58.3</ele>
        <time>2025-02-26T14:29:57Z</time>
      </trkpt>
      <trkpt lat="48.02333" lon="-3.47089">
        <ele>58.2</ele>
        <time>2025-02-26T14:29:58Z</time>
      </trkpt>
      <trkpt lat="48.02333" lon="-3.47087">
        <ele>58.2</ele>
        <time>2025-02-26T14:29:59Z</time>
      </trkpt>
      <trkpt lat="48.02333" lon="-3.47086">
        <ele>58.1</ele>
        <time>2025-02-26T14:30:00Z</time>
      </trkpt>
      <trkpt lat="48.02333" lon="-3.47084">
        <ele>58</ele>
        <time>2025-02-26T14:30:01Z</time>
      </trkpt>
      <trkpt lat="48.02333" lon="-3.47083">
        <ele>58</ele>
        <time>2025-02-26T14:30:02Z</time>
      </trkpt>
      <trkpt lat="48.02334" lon="-3.47081">
        <ele>58</ele>
        <time>2025-02-26T14:30:03Z</time>
      </trkpt>
      <trkpt lat="48.02334" lon="-3.4708">
        <ele>58</ele>
        <time>2025-02-26T14:30:04Z</time>
      </trkpt>
      <trkpt lat="48.02334" lon="-3.47078">
        <ele>58</ele>
        <time>2025-02-26T14:30:05Z</time>
      </trkpt>
      <trkpt lat="48.02333" lon="-3.47077">
        <ele>58</ele>
        <time>2025-02-26T14:30:06Z</time>
      </trkpt>
      <trkpt lat="48.02333" lon="-3.47075">
        <ele>58</ele>
        <time>2025-02-26T14:30:07Z</time>
      </trkpt>
      <trkpt lat="48.02333" lon="-3.47074">
        <ele>58</ele>
        <time>2025-02-26T14:30:08Z</time>
      </trkpt>
      <trkpt lat="48.02333" lon="-3.47072">
        <ele>58</ele>
        <time>2025-02-26T14:30:09Z</time>
      </trkpt>
      <trkpt lat="48.02333" lon="-3.4707">
        <ele>58</ele>
        <time>2025-02-26T14:30:10Z</time>
      </trkpt>
      <trkpt lat="48.02334" lon="-3.47068">
        <ele>58</ele>
        <time>2025-02-26T14:30:11Z</time>
      </trkpt>
      <trkpt lat="48.02335" lon="-3.47067">
        <ele>58</ele>
        <time>2025-02-26T14:30:12Z</time>
      </trkpt>
      <trkpt lat="48.02335" lon="-3.47066">
        <ele>58.1</ele>
        <time>2025-02-26T14:30:13Z</time>
      </trkpt>
      <trkpt lat="48.02336" lon="-3.47064">
        <ele>58.1</ele>
        <time>2025-02-26T14:30:14Z</time>
      </trkpt>
      <trkpt lat="48.02336" lon="-3.47063">
        <ele>58.1</ele>
        <time>2025-02-26T14:30:15Z</time>
      </trkpt>
      <trkpt lat="48.02336" lon="-3.47061">
        <ele>58.1</ele>
        <time>2025-02-26T14:30:16Z</time>
      </trkpt>
      <trkpt lat="48.02337" lon="-3.4706">
        <ele>58.1</ele>
        <time>2025-02-26T14:30:17Z</time>
      </trkpt>
      <trkpt lat="48.02337" lon="-3.47058">
        <ele>58.1</ele>
        <time>2025-02-26T14:30:18Z</time>
      </trkpt>
      <trkpt lat="48.02337" lon="-3.47056">
        <ele>58.1</ele>
        <time>2025-02-26T14:30:19Z</time>
      </trkpt>
      <trkpt lat="48.02336" lon="-3.47055">
        <ele>58.1</ele>
        <time>2025-02-26T14:30:20Z</time>
      </trkpt>
      <trkpt lat="48.02335" lon="-3.47054">
        <ele>58.1</ele>
        <time>2025-02-26T14:30:21Z</time>
      </trkpt>
      <trkpt lat="48.02334" lon="-3.47054">
        <ele>58.1</ele>
        <time>2025-02-26T14:30:22Z</time>
      </trkpt>
      <trkpt lat="48.02333" lon="-3.47055">
        <ele>58</ele>
        <time>2025-02-26T14:30:23Z</time>
      </trkpt>
      <trkpt lat="48.02332" lon="-3.47055">
        <ele>58</ele>
        <time>2025-02-26T14:30:24Z</time>
      </trkpt>
      <trkpt lat="48.02332" lon="-3.47055">
        <ele>58</ele>
        <time>2025-02-26T14:30:25Z</time>
      </trkpt>
      <trkpt lat="48.02331" lon="-3.47055">
        <ele>58</ele>
        <time>2025-02-26T14:30:26Z</time>
      </trkpt>
      <trkpt lat="48.0233" lon="-3.47056">
        <ele>58</ele>
        <time>2025-02-26T14:30:27Z</time>
      </trkpt>
      <trkpt lat="48.02329" lon="-3.47056">
        <ele>58</ele>
        <time>2025-02-26T14:30:28Z</time>
      </trkpt>
      <trkpt lat="48.02328" lon="-3.47056">
        <ele>58</ele>
        <time>2025-02-26T14:30:29Z</time>
      </trkpt>
      <trkpt lat="48.02327" lon="-3.47055">
        <ele>58</ele>
        <time>2025-02-26T14:30:30Z</time>
      </trkpt>
      <trkpt lat="48.02326" lon="-3.47055">
        <ele>58</ele>
        <time>2025-02-26T14:30:31Z</time>
      </trkpt>
      <trkpt lat="48.02325" lon="-3.47055">
        <ele>58</ele>
        <time>2025-02-26T14:30:32Z</time>
      </trkpt>
      <trkpt lat="48.02324" lon="-3.47054">
        <ele>58</ele>
        <time>2025-02-26T14:30:33Z</time>
      </trkpt>
      <trkpt lat="48.02323" lon="-3.47054">
        <ele>58.1</ele>
        <time>2025-02-26T14:30:34Z</time>
      </trkpt>
      <trkpt lat="48.02323" lon="-3.47053">
        <ele>58.1</ele>
        <time>2025-02-26T14:30:35Z</time>
      </trkpt>
      <trkpt lat="48.02322" lon="-3.47053">
        <ele>58.1</ele>
        <time>2025-02-26T14:30:36Z</time>
      </trkpt>
      <trkpt lat="48.02321" lon="-3.47053">
        <ele>58.1</ele>
        <time>2025-02-26T14:30:37Z</time>
      </trkpt>
      <trkpt lat="48.0232" lon="-3.47053">
        <ele>58.1</ele>
        <time>2025-02-26T14:30:38Z</time>
      </trkpt>
      <trkpt lat="48.02319" lon="-3.47053">
        <ele>58.1</ele>
        <time>2025-02-26T14:30:39Z</time>
      </trkpt>
      <trkpt lat="48.02318" lon="-3.47053">
        <ele>58.1</ele>
        <time>2025-02-26T14:30:40Z</time>
      </trkpt>
      <trkpt lat="48.02318" lon="-3.47053">
        <ele>58.1</ele>
        <time>2025-02-26T14:30:41Z</time>
      </trkpt>
      <trkpt lat="48.02317" lon="-3.47053">
        <ele>58.1</ele>
        <time>2025-02-26T14:30:42Z</time>
      </trkpt>
      <trkpt lat="48.02316" lon="-3.47053">
        <ele>58.1</ele>
        <time>2025-02-26T14:30:43Z</time>
      </trkpt>
      <trkpt lat="48.02315" lon="-3.47053">
        <ele>58.1</ele>
        <time>2025-02-26T14:30:44Z</time>
      </trkpt>
      <trkpt lat="48.02314" lon="-3.47053">
        <ele>58.1</ele>
        <time>2025-02-26T14:30:45Z</time>
      </trkpt>
      <trkpt lat="48.02313" lon="-3.47052">
        <ele>58.1</ele>
        <time>2025-02-26T14:30:46Z</time>
      </trkpt>
      <trkpt lat="48.02312" lon="-3.47051">
        <ele>58.2</ele>
        <time>2025-02-26T14:30:47Z</time>
      </trkpt>
      <trkpt lat="48.02311" lon="-3.47051">
        <ele>58.2</ele>
        <time>2025-02-26T14:30:48Z</time>
      </trkpt>
      <trkpt lat="48.0231" lon="-3.4705">
        <ele>58.2</ele>
        <time>2025-02-26T14:30:49Z</time>
      </trkpt>
      <trkpt lat="48.02309" lon="-3.4705">
        <ele>58.2</ele>
        <time>2025-02-26T14:30:50Z</time>
      </trkpt>
      <trkpt lat="48.02308" lon="-3.4705">
        <ele>58.2</ele>
        <time>2025-02-26T14:30:51Z</time>
      </trkpt>
      <trkpt lat="48.02307" lon="-3.4705">
        <ele>58.2</ele>
        <time>2025-02-26T14:30:52Z</time>
      </trkpt>
      <trkpt lat="48.02306" lon="-3.4705">
        <ele>58.2</ele>
        <time>2025-02-26T14:30:53Z</time>
      </trkpt>
      <trkpt lat="48.02305" lon="-3.4705">
        <ele>58.2</ele>
        <time>2025-02-26T14:30:54Z</time>
      </trkpt>
      <trkpt lat="48.02304" lon="-3.47049">
        <ele>58.2</ele>
        <time>2025-02-26T14:30:55Z</time>
      </trkpt>
      <trkpt lat="48.02303" lon="-3.47049">
        <ele>58.2</ele>
        <time>2025-02-26T14:30:56Z</time>
      </trkpt>
      <trkpt lat="48.02302" lon="-3.47049">
        <ele>58.2</ele>
        <time>2025-02-26T14:30:57Z</time>
      </trkpt>
      <trkpt lat="48.02301" lon="-3.47048">
        <ele>58.2</ele>
        <time>2025-02-26T14:30:58Z</time>
      </trkpt>
      <trkpt lat="48.023" lon="-3.47049">
        <ele>58.2</ele>
        <time>2025-02-26T14:30:59Z</time>
      </trkpt>
      <trkpt lat="48.02299" lon="-3.47049">
        <ele>58.2</ele>
        <time>2025-02-26T14:31:00Z</time>
      </trkpt>
      <trkpt lat="48.02298" lon="-3.47049">
        <ele>58.2</ele>
        <time>2025-02-26T14:31:01Z</time>
      </trkpt>
      <trkpt lat="48.02297" lon="-3.47049">
        <ele>58.2</ele>
        <time>2025-02-26T14:31:02Z</time>
      </trkpt>
      <trkpt lat="48.02296" lon="-3.4705">
        <ele>58.1</ele>
        <time>2025-02-26T14:31:03Z</time>
      </trkpt>
      <trkpt lat="48.02295" lon="-3.47051">
        <ele>58.1</ele>
        <time>2025-02-26T14:31:04Z</time>
      </trkpt>
      <trkpt lat="48.02294" lon="-3.47051">
        <ele>58.1</ele>
        <time>2025-02-26T14:31:05Z</time>
      </trkpt>
      <trkpt lat="48.02294" lon="-3.47052">
        <ele>58.1</ele>
        <time>2025-02-26T14:31:06Z</time>
      </trkpt>
      <trkpt lat="48.02293" lon="-3.47054">
        <ele>58</ele>
        <time>2025-02-26T14:31:07Z</time>
      </trkpt>
      <trkpt lat="48.02292" lon="-3.47054">
        <ele>58</ele>
        <time>2025-02-26T14:31:08Z</time>
      </trkpt>
      <trkpt lat="48.02291" lon="-3.47055">
        <ele>58</ele>
        <time>2025-02-26T14:31:09Z</time>
      </trkpt>
      <trkpt lat="48.0229" lon="-3.47055">
        <ele>58</ele>
        <time>2025-02-26T14:31:10Z</time>
      </trkpt>
      <trkpt lat="48.02289" lon="-3.47055">
        <ele>58</ele>
        <time>2025-02-26T14:31:11Z</time>
      </trkpt>
      <trkpt lat="48.02288" lon="-3.47055">
        <ele>58</ele>
        <time>2025-02-26T14:31:12Z</time>
      </trkpt>
      <trkpt lat="48.02288" lon="-3.47055">
        <ele>58</ele>
        <time>2025-02-26T14:31:13Z</time>
      </trkpt>
      <trkpt lat="48.02287" lon="-3.47056">
        <ele>58</ele>
        <time>2025-02-26T14:31:14Z</time>
      </trkpt>
      <trkpt lat="48.02286" lon="-3.47056">
        <ele>58</ele>
        <time>2025-02-26T14:31:15Z</time>
      </trkpt>
      <trkpt lat="48.02285" lon="-3.47056">
        <ele>58</ele>
        <time>2025-02-26T14:31:16Z</time>
      </trkpt>
      <trkpt lat="48.02284" lon="-3.47056">
        <ele>58</ele>
        <time>2025-02-26T14:31:17Z</time>
      </trkpt>
      <trkpt lat="48.02283" lon="-3.47056">
        <ele>58</ele>
        <time>2025-02-26T14:31:18Z</time>
      </trkpt>
      <trkpt lat="48.02283" lon="-3.47056">
        <ele>58</ele>
        <time>2025-02-26T14:31:19Z</time>
      </trkpt>
      <trkpt lat="48.02282" lon="-3.47056">
        <ele>58</ele>
        <time>2025-02-26T14:31:20Z</time>
      </trkpt>
      <trkpt lat="48.02281" lon="-3.47056">
        <ele>58</ele>
        <time>2025-02-26T14:31:21Z</time>
      </trkpt>
      <trkpt lat="48.02281" lon="-3.47054">
        <ele>58</ele>
        <time>2025-02-26T14:31:22Z</time>
      </trkpt>
      <trkpt lat="48.0228" lon="-3.47054">
        <ele>58</ele>
        <time>2025-02-26T14:31:23Z</time>
      </trkpt>
      <trkpt lat="48.02279" lon="-3.47055">
        <ele>58</ele>
        <time>2025-02-26T14:31:24Z</time>
      </trkpt>
      <trkpt lat="48.02279" lon="-3.47055">
        <ele>58</ele>
        <time>2025-02-26T14:31:25Z</time>
      </trkpt>
      <trkpt lat="48.02279" lon="-3.47055">
        <ele>58</ele>
        <time>2025-02-26T14:31:26Z</time>
      </trkpt>
      <trkpt lat="48.02279" lon="-3.47055">
        <ele>58</ele>
        <time>2025-02-26T14:31:27Z</time>
      </trkpt>
      <trkpt lat="48.02279" lon="-3.47055">
        <ele>58</ele>
        <time>2025-02-26T14:31:28Z</time>
      </trkpt>
      <trkpt lat="48.02279" lon="-3.47055">
        <ele>58</ele>
        <time>2025-02-26T14:31:29Z</time>
      </trkpt>
      <trkpt lat="48.02279" lon="-3.47055">
        <ele>58</ele>
        <time>2025-02-26T14:31:30Z</time>
      </trkpt>
      <trkpt lat="48.02279" lon="-3.47054">
        <ele>58</ele>
        <time>2025-02-26T14:31:31Z</time>
      </trkpt>
      <trkpt lat="48.02279" lon="-3.47052">
        <ele>58</ele>
        <time>2025-02-26T14:31:32Z</time>
      </trkpt>
      <trkpt lat="48.0228" lon="-3.47051">
        <ele>58</ele>
        <time>2025-02-26T14:31:33Z</time>
      </trkpt>
      <trkpt lat="48.02279" lon="-3.47049">
        <ele>58</ele>
        <time>2025-02-26T14:31:34Z</time>
      </trkpt>
      <trkpt lat="48.02278" lon="-3.47048">
        <ele>58</ele>
        <time>2025-02-26T14:31:35Z</time>
      </trkpt>
      <trkpt lat="48.02278" lon="-3.47047">
        <ele>58</ele>
        <time>2025-02-26T14:31:36Z</time>
      </trkpt>
      <trkpt lat="48.02278" lon="-3.47045">
        <ele>58</ele>
        <time>2025-02-26T14:31:37Z</time>
      </trkpt>
      <trkpt lat="48.02278" lon="-3.47043">
        <ele>58</ele>
        <time>2025-02-26T14:31:38Z</time>
      </trkpt>
      <trkpt lat="48.02278" lon="-3.47043">
        <ele>58</ele>
        <time>2025-02-26T14:31:39Z</time>
      </trkpt>
      <trkpt lat="48.02277" lon="-3.47042">
        <ele>58</ele>
        <time>2025-02-26T14:31:40Z</time>
      </trkpt>
      <trkpt lat="48.02276" lon="-3.47041">
        <ele>58</ele>
        <time>2025-02-26T14:31:41Z</time>
      </trkpt>
      <trkpt lat="48.02276" lon="-3.47039">
        <ele>58</ele>
        <time>2025-02-26T14:31:42Z</time>
      </trkpt>
      <trkpt lat="48.02275" lon="-3.47038">
        <ele>58</ele>
        <time>2025-02-26T14:31:43Z</time>
      </trkpt>
      <trkpt lat="48.02274" lon="-3.47038">
        <ele>58</ele>
        <time>2025-02-26T14:31:44Z</time>
      </trkpt>
      <trkpt lat="48.02273" lon="-3.47037">
        <ele>58</ele>
        <time>2025-02-26T14:31:45Z</time>
      </trkpt>
      <trkpt lat="48.02272" lon="-3.47036">
        <ele>58</ele>
        <time>2025-02-26T14:31:46Z</time>
      </trkpt>
      <trkpt lat="48.02271" lon="-3.47036">
        <ele>58</ele>
        <time>2025-02-26T14:31:47Z</time>
      </trkpt>
      <trkpt lat="48.0227" lon="-3.47036">
        <ele>58</ele>
        <time>2025-02-26T14:31:48Z</time>
      </trkpt>
      <trkpt lat="48.02269" lon="-3.47036">
        <ele>58</ele>
        <time>2025-02-26T14:31:49Z</time>
      </trkpt>
      <trkpt lat="48.02268" lon="-3.47037">
        <ele>58</ele>
        <time>2025-02-26T14:31:50Z</time>
      </trkpt>
      <trkpt lat="48.02268" lon="-3.47038">
        <ele>58</ele>
        <time>2025-02-26T14:31:51Z</time>
      </trkpt>
      <trkpt lat="48.02267" lon="-3.47039">
        <ele>58</ele>
        <time>2025-02-26T14:31:52Z</time>
      </trkpt>
      <trkpt lat="48.02267" lon="-3.47039">
        <ele>58</ele>
        <time>2025-02-26T14:31:53Z</time>
      </trkpt>
      <trkpt lat="48.02266" lon="-3.4704">
        <ele>58</ele>
        <time>2025-02-26T14:31:54Z</time>
      </trkpt>
      <trkpt lat="48.02265" lon="-3.47041">
        <ele>58</ele>
        <time>2025-02-26T14:31:55Z</time>
      </trkpt>
      <trkpt lat="48.02265" lon="-3.47042">
        <ele>58</ele>
        <time>2025-02-26T14:31:56Z</time>
      </trkpt>
      <trkpt lat="48.02264" lon="-3.47042">
        <ele>58</ele>
        <time>2025-02-26T14:31:57Z</time>
      </trkpt>
      <trkpt lat="48.02263" lon="-3.47042">
        <ele>58</ele>
        <time>2025-02-26T14:31:58Z</time>
      </trkpt>
      <trkpt lat="48.02263" lon="-3.47042">
        <ele>58</ele>
        <time>2025-02-26T14:31:59Z</time>
      </trkpt>
      <trkpt lat="48.02262" lon="-3.47041">
        <ele>58</ele>
        <time>2025-02-26T14:32:00Z</time>
      </trkpt>
      <trkpt lat="48.02261" lon="-3.47041">
        <ele>58</ele>
        <time>2025-02-26T14:32:01Z</time>
      </trkpt>
      <trkpt lat="48.02261" lon="-3.47041">
        <ele>58</ele>
        <time>2025-02-26T14:32:02Z</time>
      </trkpt>
      <trkpt lat="48.02261" lon="-3.47041">
        <ele>58</ele>
        <time>2025-02-26T14:32:03Z</time>
      </trkpt>
      <trkpt lat="48.02261" lon="-3.47041">
        <ele>58</ele>
        <time>2025-02-26T14:32:04Z</time>
      </trkpt>
      <trkpt lat="48.02261" lon="-3.47041">
        <ele>58</ele>
        <time>2025-02-26T14:32:05Z</time>
      </trkpt>
      <trkpt lat="48.0226" lon="-3.47041">
        <ele>58</ele>
        <time>2025-02-26T14:32:06Z</time>
      </trkpt>
      <trkpt lat="48.02259" lon="-3.47041">
        <ele>58</ele>
        <time>2025-02-26T14:32:07Z</time>
      </trkpt>
      <trkpt lat="48.02258" lon="-3.47039">
        <ele>58</ele>
        <time>2025-02-26T14:32:08Z</time>
      </trkpt>
      <trkpt lat="48.02258" lon="-3.47038">
        <ele>58</ele>
        <time>2025-02-26T14:32:09Z</time>
      </trkpt>
      <trkpt lat="48.02258" lon="-3.47037">
        <ele>58</ele>
        <time>2025-02-26T14:32:10Z</time>
      </trkpt>
      <trkpt lat="48.02257" lon="-3.47036">
        <ele>58</ele>
        <time>2025-02-26T14:32:11Z</time>
      </trkpt>
      <trkpt lat="48.02257" lon="-3.47035">
        <ele>58</ele>
        <time>2025-02-26T14:32:12Z</time>
      </trkpt>
      <trkpt lat="48.02257" lon="-3.47034">
        <ele>58</ele>
        <time>2025-02-26T14:32:13Z</time>
      </trkpt>
      <trkpt lat="48.02257" lon="-3.47033">
        <ele>58</ele>
        <time>2025-02-26T14:32:14Z</time>
      </trkpt>
      <trkpt lat="48.02256" lon="-3.47032">
        <ele>58</ele>
        <time>2025-02-26T14:32:15Z</time>
      </trkpt>
      <trkpt lat="48.02254" lon="-3.47033">
        <ele>58</ele>
        <time>2025-02-26T14:32:16Z</time>
      </trkpt>
      <trkpt lat="48.02254" lon="-3.47033">
        <ele>58</ele>
        <time>2025-02-26T14:32:17Z</time>
      </trkpt>
      <trkpt lat="48.02253" lon="-3.47034">
        <ele>58</ele>
        <time>2025-02-26T14:32:18Z</time>
      </trkpt>
      <trkpt lat="48.02252" lon="-3.47035">
        <ele>58</ele>
        <time>2025-02-26T14:32:19Z</time>
      </trkpt>
      <trkpt lat="48.02251" lon="-3.47036">
        <ele>58</ele>
        <time>2025-02-26T14:32:20Z</time>
      </trkpt>
      <trkpt lat="48.0225" lon="-3.47037">
        <ele>58</ele>
        <time>2025-02-26T14:32:21Z</time>
      </trkpt>
      <trkpt lat="48.0225" lon="-3.47036">
        <ele>58</ele>
        <time>2025-02-26T14:32:22Z</time>
      </trkpt>
      <trkpt lat="48.02249" lon="-3.47037">
        <ele>58</ele>
        <time>2025-02-26T14:32:23Z</time>
      </trkpt>
      <trkpt lat="48.02248" lon="-3.47038">
        <ele>58</ele>
        <time>2025-02-26T14:32:24Z</time>
      </trkpt>
      <trkpt lat="48.02247" lon="-3.47038">
        <ele>58</ele>
        <time>2025-02-26T14:32:25Z</time>
      </trkpt>
      <trkpt lat="48.02246" lon="-3.47039">
        <ele>58</ele>
        <time>2025-02-26T14:32:26Z</time>
      </trkpt>
      <trkpt lat="48.02245" lon="-3.47039">
        <ele>58</ele>
        <time>2025-02-26T14:32:27Z</time>
      </trkpt>
      <trkpt lat="48.02244" lon="-3.4704">
        <ele>58</ele>
        <time>2025-02-26T14:32:28Z</time>
      </trkpt>
      <trkpt lat="48.02243" lon="-3.47039">
        <ele>58</ele>
        <time>2025-02-26T14:32:29Z</time>
      </trkpt>
      <trkpt lat="48.02242" lon="-3.4704">
        <ele>58</ele>
        <time>2025-02-26T14:32:30Z</time>
      </trkpt>
      <trkpt lat="48.02241" lon="-3.4704">
        <ele>58</ele>
        <time>2025-02-26T14:32:31Z</time>
      </trkpt>
      <trkpt lat="48.0224" lon="-3.47039">
        <ele>58</ele>
        <time>2025-02-26T14:32:32Z</time>
      </trkpt>
      <trkpt lat="48.0224" lon="-3.47039">
        <ele>58</ele>
        <time>2025-02-26T14:32:33Z</time>
      </trkpt>
      <trkpt lat="48.02239" lon="-3.47038">
        <ele>58</ele>
        <time>2025-02-26T14:32:34Z</time>
      </trkpt>
      <trkpt lat="48.02237" lon="-3.47038">
        <ele>58</ele>
        <time>2025-02-26T14:32:35Z</time>
      </trkpt>
      <trkpt lat="48.02237" lon="-3.47039">
        <ele>58</ele>
        <time>2025-02-26T14:32:36Z</time>
      </trkpt>
      <trkpt lat="48.02236" lon="-3.47039">
        <ele>58</ele>
        <time>2025-02-26T14:32:37Z</time>
      </trkpt>
      <trkpt lat="48.02235" lon="-3.47039">
        <ele>58</ele>
        <time>2025-02-26T14:32:38Z</time>
      </trkpt>
      <trkpt lat="48.02234" lon="-3.4704">
        <ele>58</ele>
        <time>2025-02-26T14:32:39Z</time>
      </trkpt>
      <trkpt lat="48.02233" lon="-3.4704">
        <ele>58</ele>
        <time>2025-02-26T14:32:40Z</time>
      </trkpt>
      <trkpt lat="48.02232" lon="-3.4704">
        <ele>58</ele>
        <time>2025-02-26T14:32:41Z</time>
      </trkpt>
      <trkpt lat="48.02231" lon="-3.4704">
        <ele>58</ele>
        <time>2025-02-26T14:32:42Z</time>
      </trkpt>
      <trkpt lat="48.0223" lon="-3.4704">
        <ele>58</ele>
        <time>2025-02-26T14:32:43Z</time>
      </trkpt>
      <trkpt lat="48.02229" lon="-3.47041">
        <ele>58</ele>
        <time>2025-02-26T14:32:44Z</time>
      </trkpt>
      <trkpt lat="48.02228" lon="-3.47041">
        <ele>58</ele>
        <time>2025-02-26T14:32:45Z</time>
      </trkpt>
      <trkpt lat="48.02227" lon="-3.47041">
        <ele>58</ele>
        <time>2025-02-26T14:32:46Z</time>
      </trkpt>
      <trkpt lat="48.02226" lon="-3.47042">
        <ele>58</ele>
        <time>2025-02-26T14:32:47Z</time>
      </trkpt>
      <trkpt lat="48.02225" lon="-3.47042">
        <ele>58</ele>
        <time>2025-02-26T14:32:48Z</time>
      </trkpt>
      <trkpt lat="48.02223" lon="-3.47043">
        <ele>58</ele>
        <time>2025-02-26T14:32:49Z</time>
      </trkpt>
      <trkpt lat="48.02222" lon="-3.47044">
        <ele>58</ele>
        <time>2025-02-26T14:32:50Z</time>
      </trkpt>
      <trkpt lat="48.02221" lon="-3.47044">
        <ele>58</ele>
        <time>2025-02-26T14:32:51Z</time>
      </trkpt>
      <trkpt lat="48.0222" lon="-3.47045">
        <ele>58</ele>
        <time>2025-02-26T14:32:52Z</time>
      </trkpt>
      <trkpt lat="48.02219" lon="-3.47045">
        <ele>57.9</ele>
        <time>2025-02-26T14:32:53Z</time>
      </trkpt>
      <trkpt lat="48.02218" lon="-3.47044">
        <ele>57.9</ele>
        <time>2025-02-26T14:32:54Z</time>
      </trkpt>
      <trkpt lat="48.02217" lon="-3.47044">
        <ele>57.9</ele>
        <time>2025-02-26T14:32:55Z</time>
      </trkpt>
      <trkpt lat="48.02217" lon="-3.47043">
        <ele>57.9</ele>
        <time>2025-02-26T14:32:56Z</time>
      </trkpt>
      <trkpt lat="48.02215" lon="-3.47044">
        <ele>57.9</ele>
        <time>2025-02-26T14:32:57Z</time>
      </trkpt>
      <trkpt lat="48.02214" lon="-3.47044">
        <ele>57.8</ele>
        <time>2025-02-26T14:32:58Z</time>
      </trkpt>
      <trkpt lat="48.02213" lon="-3.47044">
        <ele>57.8</ele>
        <time>2025-02-26T14:32:59Z</time>
      </trkpt>
      <trkpt lat="48.02212" lon="-3.47045">
        <ele>57.8</ele>
        <time>2025-02-26T14:33:00Z</time>
      </trkpt>
      <trkpt lat="48.02211" lon="-3.47044">
        <ele>57.8</ele>
        <time>2025-02-26T14:33:01Z</time>
      </trkpt>
      <trkpt lat="48.0221" lon="-3.47044">
        <ele>57.7</ele>
        <time>2025-02-26T14:33:02Z</time>
      </trkpt>
      <trkpt lat="48.02209" lon="-3.47044">
        <ele>57.7</ele>
        <time>2025-02-26T14:33:03Z</time>
      </trkpt>
      <trkpt lat="48.02208" lon="-3.47043">
        <ele>57.7</ele>
        <time>2025-02-26T14:33:04Z</time>
      </trkpt>
      <trkpt lat="48.02207" lon="-3.47043">
        <ele>57.7</ele>
        <time>2025-02-26T14:33:05Z</time>
      </trkpt>
      <trkpt lat="48.02206" lon="-3.47042">
        <ele>57.7</ele>
        <time>2025-02-26T14:33:06Z</time>
      </trkpt>
      <trkpt lat="48.02205" lon="-3.47042">
        <ele>57.7</ele>
        <time>2025-02-26T14:33:07Z</time>
      </trkpt>
      <trkpt lat="48.02204" lon="-3.47042">
        <ele>57.7</ele>
        <time>2025-02-26T14:33:08Z</time>
      </trkpt>
      <trkpt lat="48.02203" lon="-3.47042">
        <ele>57.7</ele>
        <time>2025-02-26T14:33:09Z</time>
      </trkpt>
      <trkpt lat="48.02202" lon="-3.47042">
        <ele>57.6</ele>
        <time>2025-02-26T14:33:10Z</time>
      </trkpt>
      <trkpt lat="48.02201" lon="-3.47043">
        <ele>57.6</ele>
        <time>2025-02-26T14:33:11Z</time>
      </trkpt>
      <trkpt lat="48.022" lon="-3.47043">
        <ele>57.6</ele>
        <time>2025-02-26T14:33:12Z</time>
      </trkpt>
      <trkpt lat="48.02199" lon="-3.47043">
        <ele>57.5</ele>
        <time>2025-02-26T14:33:13Z</time>
      </trkpt>
      <trkpt lat="48.02198" lon="-3.47044">
        <ele>57.5</ele>
        <time>2025-02-26T14:33:14Z</time>
      </trkpt>
      <trkpt lat="48.02197" lon="-3.47044">
        <ele>57.5</ele>
        <time>2025-02-26T14:33:15Z</time>
      </trkpt>
      <trkpt lat="48.02197" lon="-3.47046">
        <ele>57.4</ele>
        <time>2025-02-26T14:33:16Z</time>
      </trkpt>
      <trkpt lat="48.02196" lon="-3.47046">
        <ele>57.4</ele>
        <time>2025-02-26T14:33:17Z</time>
      </trkpt>
      <trkpt lat="48.02195" lon="-3.47046">
        <ele>57.3</ele>
        <time>2025-02-26T14:33:18Z</time>
      </trkpt>
      <trkpt lat="48.02194" lon="-3.47047">
        <ele>57.3</ele>
        <time>2025-02-26T14:33:19Z</time>
      </trkpt>
      <trkpt lat="48.02193" lon="-3.47047">
        <ele>57.3</ele>
        <time>2025-02-26T14:33:20Z</time>
      </trkpt>
      <trkpt lat="48.02192" lon="-3.47048">
        <ele>57.3</ele>
        <time>2025-02-26T14:33:21Z</time>
      </trkpt>
      <trkpt lat="48.02191" lon="-3.47048">
        <ele>57.3</ele>
        <time>2025-02-26T14:33:22Z</time>
      </trkpt>
      <trkpt lat="48.0219" lon="-3.47049">
        <ele>57.3</ele>
        <time>2025-02-26T14:33:23Z</time>
      </trkpt>
      <trkpt lat="48.02189" lon="-3.47049">
        <ele>57.2</ele>
        <time>2025-02-26T14:33:24Z</time>
      </trkpt>
      <trkpt lat="48.02188" lon="-3.47049">
        <ele>57.2</ele>
        <time>2025-02-26T14:33:25Z</time>
      </trkpt>
      <trkpt lat="48.02186" lon="-3.47049">
        <ele>57.2</ele>
        <time>2025-02-26T14:33:26Z</time>
      </trkpt>
      <trkpt lat="48.02185" lon="-3.47049">
        <ele>57.2</ele>
        <time>2025-02-26T14:33:27Z</time>
      </trkpt>
      <trkpt lat="48.02184" lon="-3.47048">
        <ele>57.3</ele>
        <time>2025-02-26T14:33:28Z</time>
      </trkpt>
      <trkpt lat="48.02183" lon="-3.47048">
        <ele>57.3</ele>
        <time>2025-02-26T14:33:29Z</time>
      </trkpt>
      <trkpt lat="48.02182" lon="-3.47048">
        <ele>57.3</ele>
        <time>2025-02-26T14:33:30Z</time>
      </trkpt>
      <trkpt lat="48.02182" lon="-3.47048">
        <ele>57.3</ele>
        <time>2025-02-26T14:33:31Z</time>
      </trkpt>
      <trkpt lat="48.02181" lon="-3.47048">
        <ele>57.3</ele>
        <time>2025-02-26T14:33:32Z</time>
      </trkpt>
      <trkpt lat="48.0218" lon="-3.47048">
        <ele>57.3</ele>
        <time>2025-02-26T14:33:33Z</time>
      </trkpt>
      <trkpt lat="48.02179" lon="-3.47048">
        <ele>57.3</ele>
        <time>2025-02-26T14:33:34Z</time>
      </trkpt>
      <trkpt lat="48.02178" lon="-3.47047">
        <ele>57.3</ele>
        <time>2025-02-26T14:33:35Z</time>
      </trkpt>
      <trkpt lat="48.02176" lon="-3.47048">
        <ele>57.3</ele>
        <time>2025-02-26T14:33:36Z</time>
      </trkpt>
      <trkpt lat="48.02176" lon="-3.47049">
        <ele>57.3</ele>
        <time>2025-02-26T14:33:37Z</time>
      </trkpt>
      <trkpt lat="48.02174" lon="-3.47048">
        <ele>57.3</ele>
        <time>2025-02-26T14:33:38Z</time>
      </trkpt>
      <trkpt lat="48.02173" lon="-3.47048">
        <ele>57.3</ele>
        <time>2025-02-26T14:33:39Z</time>
      </trkpt>
      <trkpt lat="48.02172" lon="-3.47048">
        <ele>57.3</ele>
        <time>2025-02-26T14:33:40Z</time>
      </trkpt>
      <trkpt lat="48.02171" lon="-3.47048">
        <ele>57.3</ele>
        <time>2025-02-26T14:33:41Z</time>
      </trkpt>
      <trkpt lat="48.0217" lon="-3.47048">
        <ele>57.3</ele>
        <time>2025-02-26T14:33:42Z</time>
      </trkpt>
      <trkpt lat="48.02169" lon="-3.47048">
        <ele>57.3</ele>
        <time>2025-02-26T14:33:43Z</time>
      </trkpt>
      <trkpt lat="48.02168" lon="-3.47048">
        <ele>57.3</ele>
        <time>2025-02-26T14:33:44Z</time>
      </trkpt>
      <trkpt lat="48.02167" lon="-3.47047">
        <ele>57.3</ele>
        <time>2025-02-26T14:33:45Z</time>
      </trkpt>
      <trkpt lat="48.02166" lon="-3.47049">
        <ele>57.3</ele>
        <time>2025-02-26T14:33:46Z</time>
      </trkpt>
      <trkpt lat="48.02164" lon="-3.47048">
        <ele>57.3</ele>
        <time>2025-02-26T14:33:47Z</time>
      </trkpt>
      <trkpt lat="48.02163" lon="-3.47049">
        <ele>57.3</ele>
        <time>2025-02-26T14:33:48Z</time>
      </trkpt>
      <trkpt lat="48.02162" lon="-3.4705">
        <ele>57.3</ele>
        <time>2025-02-26T14:33:49Z</time>
      </trkpt>
      <trkpt lat="48.02162" lon="-3.4705">
        <ele>57.3</ele>
        <time>2025-02-26T14:33:50Z</time>
      </trkpt>
      <trkpt lat="48.02161" lon="-3.47051">
        <ele>57.4</ele>
        <time>2025-02-26T14:33:51Z</time>
      </trkpt>
      <trkpt lat="48.0216" lon="-3.47051">
        <ele>57.4</ele>
        <time>2025-02-26T14:33:52Z</time>
      </trkpt>
      <trkpt lat="48.02159" lon="-3.47051">
        <ele>57.4</ele>
        <time>2025-02-26T14:33:53Z</time>
      </trkpt>
      <trkpt lat="48.02158" lon="-3.47052">
        <ele>57.4</ele>
        <time>2025-02-26T14:33:54Z</time>
      </trkpt>
      <trkpt lat="48.02157" lon="-3.47052">
        <ele>57.4</ele>
        <time>2025-02-26T14:33:55Z</time>
      </trkpt>
      <trkpt lat="48.02156" lon="-3.47052">
        <ele>57.5</ele>
        <time>2025-02-26T14:33:56Z</time>
      </trkpt>
      <trkpt lat="48.02154" lon="-3.47053">
        <ele>57.5</ele>
        <time>2025-02-26T14:33:57Z</time>
      </trkpt>
      <trkpt lat="48.02154" lon="-3.47054">
        <ele>57.5</ele>
        <time>2025-02-26T14:33:58Z</time>
      </trkpt>
      <trkpt lat="48.02153" lon="-3.47054">
        <ele>57.5</ele>
        <time>2025-02-26T14:33:59Z</time>
      </trkpt>
      <trkpt lat="48.02152" lon="-3.47054">
        <ele>57.6</ele>
        <time>2025-02-26T14:34:00Z</time>
      </trkpt>
      <trkpt lat="48.02151" lon="-3.47055">
        <ele>57.6</ele>
        <time>2025-02-26T14:34:01Z</time>
      </trkpt>
      <trkpt lat="48.0215" lon="-3.47056">
        <ele>57.6</ele>
        <time>2025-02-26T14:34:02Z</time>
      </trkpt>
      <trkpt lat="48.02149" lon="-3.47056">
        <ele>57.6</ele>
        <time>2025-02-26T14:34:03Z</time>
      </trkpt>
      <trkpt lat="48.02149" lon="-3.47057">
        <ele>57.7</ele>
        <time>2025-02-26T14:34:04Z</time>
      </trkpt>
      <trkpt lat="48.02148" lon="-3.47058">
        <ele>57.8</ele>
        <time>2025-02-26T14:34:05Z</time>
      </trkpt>
      <trkpt lat="48.02147" lon="-3.47058">
        <ele>57.8</ele>
        <time>2025-02-26T14:34:06Z</time>
      </trkpt>
      <trkpt lat="48.02146" lon="-3.47058">
        <ele>57.9</ele>
        <time>2025-02-26T14:34:07Z</time>
      </trkpt>
      <trkpt lat="48.02145" lon="-3.47059">
        <ele>57.9</ele>
        <time>2025-02-26T14:34:08Z</time>
      </trkpt>
      <trkpt lat="48.02143" lon="-3.47059">
        <ele>58</ele>
        <time>2025-02-26T14:34:09Z</time>
      </trkpt>
      <trkpt lat="48.02143" lon="-3.47059">
        <ele>58</ele>
        <time>2025-02-26T14:34:10Z</time>
      </trkpt>
      <trkpt lat="48.02142" lon="-3.47058">
        <ele>58</ele>
        <time>2025-02-26T14:34:11Z</time>
      </trkpt>
      <trkpt lat="48.02141" lon="-3.47057">
        <ele>58</ele>
        <time>2025-02-26T14:34:12Z</time>
      </trkpt>
      <trkpt lat="48.02141" lon="-3.47055">
        <ele>57.9</ele>
        <time>2025-02-26T14:34:13Z</time>
      </trkpt>
      <trkpt lat="48.02141" lon="-3.47053">
        <ele>57.9</ele>
        <time>2025-02-26T14:34:14Z</time>
      </trkpt>
      <trkpt lat="48.0214" lon="-3.47052">
        <ele>58</ele>
        <time>2025-02-26T14:34:15Z</time>
      </trkpt>
      <trkpt lat="48.02139" lon="-3.47051">
        <ele>58</ele>
        <time>2025-02-26T14:34:16Z</time>
      </trkpt>
      <trkpt lat="48.02139" lon="-3.4705">
        <ele>58</ele>
        <time>2025-02-26T14:34:17Z</time>
      </trkpt>
      <trkpt lat="48.02138" lon="-3.47049">
        <ele>58</ele>
        <time>2025-02-26T14:34:18Z</time>
      </trkpt>
      <trkpt lat="48.02137" lon="-3.47049">
        <ele>58</ele>
        <time>2025-02-26T14:34:19Z</time>
      </trkpt>
      <trkpt lat="48.02136" lon="-3.47049">
        <ele>58</ele>
        <time>2025-02-26T14:34:20Z</time>
      </trkpt>
      <trkpt lat="48.02135" lon="-3.47049">
        <ele>58</ele>
        <time>2025-02-26T14:34:21Z</time>
      </trkpt>
      <trkpt lat="48.02134" lon="-3.4705">
        <ele>58</ele>
        <time>2025-02-26T14:34:22Z</time>
      </trkpt>
      <trkpt lat="48.02132" lon="-3.47049">
        <ele>58</ele>
        <time>2025-02-26T14:34:23Z</time>
      </trkpt>
      <trkpt lat="48.02131" lon="-3.47048">
        <ele>58</ele>
        <time>2025-02-26T14:34:24Z</time>
      </trkpt>
      <trkpt lat="48.02129" lon="-3.47047">
        <ele>58</ele>
        <time>2025-02-26T14:34:25Z</time>
      </trkpt>
      <trkpt lat="48.02127" lon="-3.47046">
        <ele>58</ele>
        <time>2025-02-26T14:34:26Z</time>
      </trkpt>
      <trkpt lat="48.02126" lon="-3.47046">
        <ele>58</ele>
        <time>2025-02-26T14:34:27Z</time>
      </trkpt>
      <trkpt lat="48.02126" lon="-3.47046">
        <ele>58</ele>
        <time>2025-02-26T14:34:28Z</time>
      </trkpt>
      <trkpt lat="48.02126" lon="-3.47047">
        <ele>58</ele>
        <time>2025-02-26T14:34:29Z</time>
      </trkpt>
      <trkpt lat="48.02126" lon="-3.47048">
        <ele>58</ele>
        <time>2025-02-26T14:34:30Z</time>
      </trkpt>
      <trkpt lat="48.02125" lon="-3.47048">
        <ele>58</ele>
        <time>2025-02-26T14:34:31Z</time>
      </trkpt>
      <trkpt lat="48.02124" lon="-3.47048">
        <ele>58</ele>
        <time>2025-02-26T14:34:32Z</time>
      </trkpt>
      <trkpt lat="48.02124" lon="-3.47047">
        <ele>58</ele>
        <time>2025-02-26T14:34:33Z</time>
      </trkpt>
      <trkpt lat="48.02123" lon="-3.47047">
        <ele>58</ele>
        <time>2025-02-26T14:34:34Z</time>
      </trkpt>
      <trkpt lat="48.02123" lon="-3.47047">
        <ele>58</ele>
        <time>2025-02-26T14:34:35Z</time>
      </trkpt>
      <trkpt lat="48.02122" lon="-3.47047">
        <ele>58</ele>
        <time>2025-02-26T14:34:36Z</time>
      </trkpt>
      <trkpt lat="48.02121" lon="-3.47047">
        <ele>58</ele>
        <time>2025-02-26T14:34:37Z</time>
      </trkpt>
      <trkpt lat="48.0212" lon="-3.47047">
        <ele>58</ele>
        <time>2025-02-26T14:34:38Z</time>
      </trkpt>
      <trkpt lat="48.02119" lon="-3.47047">
        <ele>58</ele>
        <time>2025-02-26T14:34:39Z</time>
      </trkpt>
      <trkpt lat="48.02118" lon="-3.47048">
        <ele>58</ele>
        <time>2025-02-26T14:34:40Z</time>
      </trkpt>
      <trkpt lat="48.02117" lon="-3.47048">
        <ele>58</ele>
        <time>2025-02-26T14:34:41Z</time>
      </trkpt>
      <trkpt lat="48.02117" lon="-3.47048">
        <ele>58</ele>
        <time>2025-02-26T14:34:42Z</time>
      </trkpt>
      <trkpt lat="48.02116" lon="-3.47048">
        <ele>58</ele>
        <time>2025-02-26T14:34:43Z</time>
      </trkpt>
      <trkpt lat="48.02115" lon="-3.47048">
        <ele>58</ele>
        <time>2025-02-26T14:34:44Z</time>
      </trkpt>
      <trkpt lat="48.02114" lon="-3.47048">
        <ele>58</ele>
        <time>2025-02-26T14:34:45Z</time>
      </trkpt>
      <trkpt lat="48.02114" lon="-3.47048">
        <ele>58</ele>
        <time>2025-02-26T14:34:46Z</time>
      </trkpt>
      <trkpt lat="48.02113" lon="-3.47049">
        <ele>58</ele>
        <time>2025-02-26T14:34:47Z</time>
      </trkpt>
      <trkpt lat="48.02112" lon="-3.4705">
        <ele>58</ele>
        <time>2025-02-26T14:34:48Z</time>
      </trkpt>
      <trkpt lat="48.02111" lon="-3.4705">
        <ele>58</ele>
        <time>2025-02-26T14:34:49Z</time>
      </trkpt>
      <trkpt lat="48.0211" lon="-3.47051">
        <ele>58</ele>
        <time>2025-02-26T14:34:50Z</time>
      </trkpt>
      <trkpt lat="48.02109" lon="-3.47051">
        <ele>58</ele>
        <time>2025-02-26T14:34:51Z</time>
      </trkpt>
      <trkpt lat="48.02109" lon="-3.47052">
        <ele>58</ele>
        <time>2025-02-26T14:34:52Z</time>
      </trkpt>
      <trkpt lat="48.02107" lon="-3.47051">
        <ele>58</ele>
        <time>2025-02-26T14:34:53Z</time>
      </trkpt>
      <trkpt lat="48.02106" lon="-3.47051">
        <ele>58</ele>
        <time>2025-02-26T14:34:54Z</time>
      </trkpt>
      <trkpt lat="48.02105" lon="-3.47051">
        <ele>58</ele>
        <time>2025-02-26T14:34:55Z</time>
      </trkpt>
      <trkpt lat="48.02104" lon="-3.4705">
        <ele>58</ele>
        <time>2025-02-26T14:34:56Z</time>
      </trkpt>
      <trkpt lat="48.02103" lon="-3.4705">
        <ele>58</ele>
        <time>2025-02-26T14:34:57Z</time>
      </trkpt>
      <trkpt lat="48.02102" lon="-3.4705">
        <ele>58</ele>
        <time>2025-02-26T14:34:58Z</time>
      </trkpt>
      <trkpt lat="48.02101" lon="-3.4705">
        <ele>58</ele>
        <time>2025-02-26T14:34:59Z</time>
      </trkpt>
      <trkpt lat="48.02101" lon="-3.4705">
        <ele>58</ele>
        <time>2025-02-26T14:35:00Z</time>
      </trkpt>
      <trkpt lat="48.021" lon="-3.47051">
        <ele>58</ele>
        <time>2025-02-26T14:35:01Z</time>
      </trkpt>
      <trkpt lat="48.02099" lon="-3.47051">
        <ele>58</ele>
        <time>2025-02-26T14:35:02Z</time>
      </trkpt>
      <trkpt lat="48.02098" lon="-3.47051">
        <ele>58</ele>
        <time>2025-02-26T14:35:03Z</time>
      </trkpt>
      <trkpt lat="48.02097" lon="-3.47051">
        <ele>58</ele>
        <time>2025-02-26T14:35:04Z</time>
      </trkpt>
      <trkpt lat="48.02096" lon="-3.4705">
        <ele>58</ele>
        <time>2025-02-26T14:35:05Z</time>
      </trkpt>
      <trkpt lat="48.02095" lon="-3.4705">
        <ele>58</ele>
        <time>2025-02-26T14:35:06Z</time>
      </trkpt>
      <trkpt lat="48.02094" lon="-3.47051">
        <ele>58</ele>
        <time>2025-02-26T14:35:07Z</time>
      </trkpt>
      <trkpt lat="48.02093" lon="-3.47051">
        <ele>58</ele>
        <time>2025-02-26T14:35:08Z</time>
      </trkpt>
      <trkpt lat="48.02092" lon="-3.4705">
        <ele>58</ele>
        <time>2025-02-26T14:35:09Z</time>
      </trkpt>
      <trkpt lat="48.02091" lon="-3.4705">
        <ele>58</ele>
        <time>2025-02-26T14:35:10Z</time>
      </trkpt>
      <trkpt lat="48.02091" lon="-3.47051">
        <ele>58</ele>
        <time>2025-02-26T14:35:11Z</time>
      </trkpt>
      <trkpt lat="48.0209" lon="-3.47052">
        <ele>58</ele>
        <time>2025-02-26T14:35:12Z</time>
      </trkpt>
      <trkpt lat="48.02089" lon="-3.47052">
        <ele>58</ele>
        <time>2025-02-26T14:35:13Z</time>
      </trkpt>
      <trkpt lat="48.02088" lon="-3.47053">
        <ele>58</ele>
        <time>2025-02-26T14:35:14Z</time>
      </trkpt>
      <trkpt lat="48.02087" lon="-3.47053">
        <ele>58</ele>
        <time>2025-02-26T14:35:15Z</time>
      </trkpt>
      <trkpt lat="48.02086" lon="-3.47052">
        <ele>58</ele>
        <time>2025-02-26T14:35:16Z</time>
      </trkpt>
      <trkpt lat="48.02085" lon="-3.47052">
        <ele>58</ele>
        <time>2025-02-26T14:35:17Z</time>
      </trkpt>
      <trkpt lat="48.02084" lon="-3.47052">
        <ele>58</ele>
        <time>2025-02-26T14:35:18Z</time>
      </trkpt>
      <trkpt lat="48.02083" lon="-3.47052">
        <ele>58</ele>
        <time>2025-02-26T14:35:19Z</time>
      </trkpt>
      <trkpt lat="48.02082" lon="-3.47051">
        <ele>58</ele>
        <time>2025-02-26T14:35:20Z</time>
      </trkpt>
      <trkpt lat="48.02081" lon="-3.47051">
        <ele>58</ele>
        <time>2025-02-26T14:35:21Z</time>
      </trkpt>
      <trkpt lat="48.0208" lon="-3.47051">
        <ele>58</ele>
        <time>2025-02-26T14:35:22Z</time>
      </trkpt>
      <trkpt lat="48.02079" lon="-3.4705">
        <ele>58</ele>
        <time>2025-02-26T14:35:23Z</time>
      </trkpt>
      <trkpt lat="48.0208" lon="-3.4705">
        <ele>58</ele>
        <time>2025-02-26T14:35:24Z</time>
      </trkpt>
      <trkpt lat="48.0208" lon="-3.47049">
        <ele>58</ele>
        <time>2025-02-26T14:35:25Z</time>
      </trkpt>
      <trkpt lat="48.0208" lon="-3.47049">
        <ele>58</ele>
        <time>2025-02-26T14:35:26Z</time>
      </trkpt>
      <trkpt lat="48.0208" lon="-3.47049">
        <ele>58</ele>
        <time>2025-02-26T14:35:27Z</time>
      </trkpt>
      <trkpt lat="48.0208" lon="-3.47049">
        <ele>58</ele>
        <time>2025-02-26T14:35:28Z</time>
      </trkpt>
      <trkpt lat="48.0208" lon="-3.47049">
        <ele>58</ele>
        <time>2025-02-26T14:35:29Z</time>
      </trkpt>
      <trkpt lat="48.0208" lon="-3.47049">
        <ele>58</ele>
        <time>2025-02-26T14:35:30Z</time>
      </trkpt>
      <trkpt lat="48.0208" lon="-3.47049">
        <ele>58</ele>
        <time>2025-02-26T14:35:31Z</time>
      </trkpt>
      <trkpt lat="48.0208" lon="-3.47049">
        <ele>58</ele>
        <time>2025-02-26T14:35:32Z</time>
      </trkpt>
      <trkpt lat="48.02079" lon="-3.4705">
        <ele>58</ele>
        <time>2025-02-26T14:35:33Z</time>
      </trkpt>
      <trkpt lat="48.02078" lon="-3.4705">
        <ele>58</ele>
        <time>2025-02-26T14:35:34Z</time>
      </trkpt>
      <trkpt lat="48.02077" lon="-3.47051">
        <ele>58</ele>
        <time>2025-02-26T14:35:35Z</time>
      </trkpt>
      <trkpt lat="48.02077" lon="-3.47051">
        <ele>58</ele>
        <time>2025-02-26T14:35:36Z</time>
      </trkpt>
      <trkpt lat="48.02078" lon="-3.47051">
        <ele>58</ele>
        <time>2025-02-26T14:35:37Z</time>
      </trkpt>
      <trkpt lat="48.02077" lon="-3.47051">
        <ele>58</ele>
        <time>2025-02-26T14:35:38Z</time>
      </trkpt>
      <trkpt lat="48.02076" lon="-3.47053">
        <ele>58</ele>
        <time>2025-02-26T14:35:39Z</time>
      </trkpt>
      <trkpt lat="48.02075" lon="-3.47054">
        <ele>58</ele>
        <time>2025-02-26T14:35:40Z</time>
      </trkpt>
      <trkpt lat="48.02074" lon="-3.47054">
        <ele>58</ele>
        <time>2025-02-26T14:35:41Z</time>
      </trkpt>
      <trkpt lat="48.02074" lon="-3.47054">
        <ele>58</ele>
        <time>2025-02-26T14:35:42Z</time>
      </trkpt>
      <trkpt lat="48.02073" lon="-3.47054">
        <ele>58</ele>
        <time>2025-02-26T14:35:43Z</time>
      </trkpt>
      <trkpt lat="48.02073" lon="-3.47054">
        <ele>58</ele>
        <time>2025-02-26T14:35:44Z</time>
      </trkpt>
      <trkpt lat="48.02073" lon="-3.47054">
        <ele>58</ele>
        <time>2025-02-26T14:35:45Z</time>
      </trkpt>
      <trkpt lat="48.02073" lon="-3.47054">
        <ele>58</ele>
        <time>2025-02-26T14:35:46Z</time>
      </trkpt>
      <trkpt lat="48.02073" lon="-3.47054">
        <ele>58</ele>
        <time>2025-02-26T14:35:47Z</time>
      </trkpt>
      <trkpt lat="48.02073" lon="-3.47055">
        <ele>58</ele>
        <time>2025-02-26T14:35:48Z</time>
      </trkpt>
      <trkpt lat="48.02073" lon="-3.47054">
        <ele>58</ele>
        <time>2025-02-26T14:35:49Z</time>
      </trkpt>
      <trkpt lat="48.02073" lon="-3.47054">
        <ele>58</ele>
        <time>2025-02-26T14:35:50Z</time>
      </trkpt>
      <trkpt lat="48.02073" lon="-3.47054">
        <ele>58</ele>
        <time>2025-02-26T14:35:51Z</time>
      </trkpt>
      <trkpt lat="48.02074" lon="-3.47054">
        <ele>58</ele>
        <time>2025-02-26T14:35:52Z</time>
      </trkpt>
      <trkpt lat="48.02075" lon="-3.47054">
        <ele>58</ele>
        <time>2025-02-26T14:35:53Z</time>
      </trkpt>
      <trkpt lat="48.02076" lon="-3.47054">
        <ele>58</ele>
        <time>2025-02-26T14:35:54Z</time>
      </trkpt>
      <trkpt lat="48.02076" lon="-3.47055">
        <ele>58</ele>
        <time>2025-02-26T14:35:55Z</time>
      </trkpt>
      <trkpt lat="48.02076" lon="-3.47055">
        <ele>58</ele>
        <time>2025-02-26T14:35:56Z</time>
      </trkpt>
      <trkpt lat="48.02076" lon="-3.47055">
        <ele>58</ele>
        <time>2025-02-26T14:35:57Z</time>
      </trkpt>
      <trkpt lat="48.02077" lon="-3.47055">
        <ele>58</ele>
        <time>2025-02-26T14:35:58Z</time>
      </trkpt>
      <trkpt lat="48.02077" lon="-3.47055">
        <ele>58</ele>
        <time>2025-02-26T14:35:59Z</time>
      </trkpt>
      <trkpt lat="48.02077" lon="-3.47055">
        <ele>58</ele>
        <time>2025-02-26T14:36:00Z</time>
      </trkpt>
      <trkpt lat="48.02077" lon="-3.47055">
        <ele>58</ele>
        <time>2025-02-26T14:36:01Z</time>
      </trkpt>
      <trkpt lat="48.02077" lon="-3.47055">
        <ele>58</ele>
        <time>2025-02-26T14:36:02Z</time>
      </trkpt>
      <trkpt lat="48.02077" lon="-3.47056">
        <ele>58</ele>
        <time>2025-02-26T14:36:03Z</time>
      </trkpt>
      <trkpt lat="48.02077" lon="-3.47057">
        <ele>58</ele>
        <time>2025-02-26T14:36:04Z</time>
      </trkpt>
      <trkpt lat="48.02077" lon="-3.47058">
        <ele>58</ele>
        <time>2025-02-26T14:36:05Z</time>
      </trkpt>
      <trkpt lat="48.02077" lon="-3.47058">
        <ele>58</ele>
        <time>2025-02-26T14:36:06Z</time>
      </trkpt>
      <trkpt lat="48.02078" lon="-3.47058">
        <ele>58</ele>
        <time>2025-02-26T14:36:07Z</time>
      </trkpt>
      <trkpt lat="48.02078" lon="-3.47058">
        <ele>58</ele>
        <time>2025-02-26T14:36:08Z</time>
      </trkpt>
      <trkpt lat="48.02078" lon="-3.47058">
        <ele>58</ele>
        <time>2025-02-26T14:36:09Z</time>
      </trkpt>
      <trkpt lat="48.02078" lon="-3.47058">
        <ele>58</ele>
        <time>2025-02-26T14:36:10Z</time>
      </trkpt>
      <trkpt lat="48.02077" lon="-3.47058">
        <ele>58</ele>
        <time>2025-02-26T14:36:11Z</time>
      </trkpt>
      <trkpt lat="48.02077" lon="-3.47058">
        <ele>58</ele>
        <time>2025-02-26T14:36:12Z</time>
      </trkpt>
      <trkpt lat="48.02077" lon="-3.47057">
        <ele>58</ele>
        <time>2025-02-26T14:36:13Z</time>
      </trkpt>
      <trkpt lat="48.02078" lon="-3.47057">
        <ele>58</ele>
        <time>2025-02-26T14:36:14Z</time>
      </trkpt>
      <trkpt lat="48.02078" lon="-3.47059">
        <ele>58</ele>
        <time>2025-02-26T14:36:15Z</time>
      </trkpt>
      <trkpt lat="48.02077" lon="-3.4706">
        <ele>58</ele>
        <time>2025-02-26T14:36:16Z</time>
      </trkpt>
      <trkpt lat="48.02075" lon="-3.4706">
        <ele>58</ele>
        <time>2025-02-26T14:36:17Z</time>
      </trkpt>
      <trkpt lat="48.02075" lon="-3.47059">
        <ele>58</ele>
        <time>2025-02-26T14:36:18Z</time>
      </trkpt>
      <trkpt lat="48.02075" lon="-3.47057">
        <ele>58</ele>
        <time>2025-02-26T14:36:19Z</time>
      </trkpt>
      <trkpt lat="48.02076" lon="-3.47056">
        <ele>58</ele>
        <time>2025-02-26T14:36:20Z</time>
      </trkpt>
      <trkpt lat="48.02076" lon="-3.47056">
        <ele>58</ele>
        <time>2025-02-26T14:36:21Z</time>
      </trkpt>
      <trkpt lat="48.02076" lon="-3.47055">
        <ele>58</ele>
        <time>2025-02-26T14:36:22Z</time>
      </trkpt>
      <trkpt lat="48.02075" lon="-3.47055">
        <ele>58</ele>
        <time>2025-02-26T14:36:23Z</time>
      </trkpt>
      <trkpt lat="48.02074" lon="-3.47054">
        <ele>58</ele>
        <time>2025-02-26T14:36:24Z</time>
      </trkpt>
      <trkpt lat="48.02073" lon="-3.47053">
        <ele>58</ele>
        <time>2025-02-26T14:36:25Z</time>
      </trkpt>
      <trkpt lat="48.02072" lon="-3.47052">
        <ele>58</ele>
        <time>2025-02-26T14:36:26Z</time>
      </trkpt>
      <trkpt lat="48.02072" lon="-3.47052">
        <ele>58</ele>
        <time>2025-02-26T14:36:27Z</time>
      </trkpt>
      <trkpt lat="48.02071" lon="-3.47052">
        <ele>58</ele>
        <time>2025-02-26T14:36:28Z</time>
      </trkpt>
      <trkpt lat="48.0207" lon="-3.4705">
        <ele>58</ele>
        <time>2025-02-26T14:36:29Z</time>
      </trkpt>
      <trkpt lat="48.0207" lon="-3.47049">
        <ele>58</ele>
        <time>2025-02-26T14:36:30Z</time>
      </trkpt>
      <trkpt lat="48.02069" lon="-3.47049">
        <ele>58</ele>
        <time>2025-02-26T14:36:31Z</time>
      </trkpt>
      <trkpt lat="48.02068" lon="-3.47049">
        <ele>58</ele>
        <time>2025-02-26T14:36:32Z</time>
      </trkpt>
      <trkpt lat="48.02066" lon="-3.4705">
        <ele>58</ele>
        <time>2025-02-26T14:36:33Z</time>
      </trkpt>
      <trkpt lat="48.02065" lon="-3.4705">
        <ele>58</ele>
        <time>2025-02-26T14:36:34Z</time>
      </trkpt>
      <trkpt lat="48.02064" lon="-3.4705">
        <ele>58</ele>
        <time>2025-02-26T14:36:35Z</time>
      </trkpt>
      <trkpt lat="48.02063" lon="-3.47051">
        <ele>58</ele>
        <time>2025-02-26T14:36:36Z</time>
      </trkpt>
      <trkpt lat="48.02061" lon="-3.47051">
        <ele>58</ele>
        <time>2025-02-26T14:36:37Z</time>
      </trkpt>
      <trkpt lat="48.0206" lon="-3.47053">
        <ele>58</ele>
        <time>2025-02-26T14:36:38Z</time>
      </trkpt>
      <trkpt lat="48.0206" lon="-3.47052">
        <ele>58</ele>
        <time>2025-02-26T14:36:39Z</time>
      </trkpt>
      <trkpt lat="48.0206" lon="-3.47054">
        <ele>58</ele>
        <time>2025-02-26T14:36:40Z</time>
      </trkpt>
      <trkpt lat="48.02059" lon="-3.47055">
        <ele>58</ele>
        <time>2025-02-26T14:36:41Z</time>
      </trkpt>
      <trkpt lat="48.02058" lon="-3.47055">
        <ele>58</ele>
        <time>2025-02-26T14:36:42Z</time>
      </trkpt>
      <trkpt lat="48.02057" lon="-3.47055">
        <ele>58</ele>
        <time>2025-02-26T14:36:43Z</time>
      </trkpt>
      <trkpt lat="48.02056" lon="-3.47055">
        <ele>58</ele>
        <time>2025-02-26T14:36:44Z</time>
      </trkpt>
      <trkpt lat="48.02055" lon="-3.47056">
        <ele>58</ele>
        <time>2025-02-26T14:36:45Z</time>
      </trkpt>
      <trkpt lat="48.02055" lon="-3.47057">
        <ele>58.1</ele>
        <time>2025-02-26T14:36:46Z</time>
      </trkpt>
      <trkpt lat="48.02053" lon="-3.47059">
        <ele>58.1</ele>
        <time>2025-02-26T14:36:47Z</time>
      </trkpt>
      <trkpt lat="48.02052" lon="-3.4706">
        <ele>58.2</ele>
        <time>2025-02-26T14:36:48Z</time>
      </trkpt>
      <trkpt lat="48.02051" lon="-3.4706">
        <ele>58.2</ele>
        <time>2025-02-26T14:36:49Z</time>
      </trkpt>
      <trkpt lat="48.0205" lon="-3.4706">
        <ele>58.2</ele>
        <time>2025-02-26T14:36:50Z</time>
      </trkpt>
      <trkpt lat="48.02049" lon="-3.4706">
        <ele>58.2</ele>
        <time>2025-02-26T14:36:51Z</time>
      </trkpt>
      <trkpt lat="48.02049" lon="-3.4706">
        <ele>58.1</ele>
        <time>2025-02-26T14:36:52Z</time>
      </trkpt>
      <trkpt lat="48.02048" lon="-3.4706">
        <ele>58.2</ele>
        <time>2025-02-26T14:36:53Z</time>
      </trkpt>
      <trkpt lat="48.02048" lon="-3.47061">
        <ele>58.2</ele>
        <time>2025-02-26T14:36:54Z</time>
      </trkpt>
      <trkpt lat="48.0205" lon="-3.47062">
        <ele>58.2</ele>
        <time>2025-02-26T14:36:55Z</time>
      </trkpt>
      <trkpt lat="48.0205" lon="-3.47062">
        <ele>58.2</ele>
        <time>2025-02-26T14:36:56Z</time>
      </trkpt>
      <trkpt lat="48.02051" lon="-3.47062">
        <ele>58.2</ele>
        <time>2025-02-26T14:36:57Z</time>
      </trkpt>
      <trkpt lat="48.02051" lon="-3.47062">
        <ele>58.2</ele>
        <time>2025-02-26T14:36:58Z</time>
      </trkpt>
      <trkpt lat="48.02052" lon="-3.47061">
        <ele>58.2</ele>
        <time>2025-02-26T14:36:59Z</time>
      </trkpt>
      <trkpt lat="48.02054" lon="-3.47063">
        <ele>58.3</ele>
        <time>2025-02-26T14:37:00Z</time>
      </trkpt>
      <trkpt lat="48.02054" lon="-3.47064">
        <ele>58.3</ele>
        <time>2025-02-26T14:37:01Z</time>
      </trkpt>
      <trkpt lat="48.02055" lon="-3.47063">
        <ele>58.3</ele>
        <time>2025-02-26T14:37:02Z</time>
      </trkpt>
      <trkpt lat="48.02056" lon="-3.47061">
        <ele>58.2</ele>
        <time>2025-02-26T14:37:03Z</time>
      </trkpt>
      <trkpt lat="48.02056" lon="-3.47059">
        <ele>58.1</ele>
        <time>2025-02-26T14:37:04Z</time>
      </trkpt>
      <trkpt lat="48.02056" lon="-3.47059">
        <ele>58.1</ele>
        <time>2025-02-26T14:37:05Z</time>
      </trkpt>
      <trkpt lat="48.02056" lon="-3.47059">
        <ele>58.1</ele>
        <time>2025-02-26T14:37:06Z</time>
      </trkpt>
      <trkpt lat="48.02056" lon="-3.47059">
        <ele>58.1</ele>
        <time>2025-02-26T14:37:07Z</time>
      </trkpt>
      <trkpt lat="48.02056" lon="-3.47059">
        <ele>58.1</ele>
        <time>2025-02-26T14:37:08Z</time>
      </trkpt>
      <trkpt lat="48.02056" lon="-3.47059">
        <ele>58.1</ele>
        <time>2025-02-26T14:37:09Z</time>
      </trkpt>
      <trkpt lat="48.02056" lon="-3.47059">
        <ele>58.1</ele>
        <time>2025-02-26T14:37:10Z</time>
      </trkpt>
      <trkpt lat="48.02056" lon="-3.47059">
        <ele>58.1</ele>
        <time>2025-02-26T14:37:11Z</time>
      </trkpt>
      <trkpt lat="48.02056" lon="-3.47059">
        <ele>58.1</ele>
        <time>2025-02-26T14:37:12Z</time>
      </trkpt>
      <trkpt lat="48.02056" lon="-3.47059">
        <ele>58.1</ele>
        <time>2025-02-26T14:37:13Z</time>
      </trkpt>
      <trkpt lat="48.02056" lon="-3.47059">
        <ele>58.1</ele>
        <time>2025-02-26T14:37:14Z</time>
      </trkpt>
      <trkpt lat="48.02056" lon="-3.47059">
        <ele>58.1</ele>
        <time>2025-02-26T14:37:15Z</time>
      </trkpt>
      <trkpt lat="48.02056" lon="-3.47059">
        <ele>58.1</ele>
        <time>2025-02-26T14:37:16Z</time>
      </trkpt>
      <trkpt lat="48.02056" lon="-3.47059">
        <ele>58.1</ele>
        <time>2025-02-26T14:37:17Z</time>
      </trkpt>
      <trkpt lat="48.02056" lon="-3.47059">
        <ele>58.1</ele>
        <time>2025-02-26T14:37:18Z</time>
      </trkpt>
      <trkpt lat="48.02056" lon="-3.47059">
        <ele>58.1</ele>
        <time>2025-02-26T14:37:19Z</time>
      </trkpt>
      <trkpt lat="48.02056" lon="-3.47059">
        <ele>58.1</ele>
        <time>2025-02-26T14:37:20Z</time>
      </trkpt>
      <trkpt lat="48.02056" lon="-3.47058">
        <ele>58.1</ele>
        <time>2025-02-26T14:37:21Z</time>
      </trkpt>
      <trkpt lat="48.02056" lon="-3.47059">
        <ele>58.1</ele>
        <time>2025-02-26T14:37:22Z</time>
      </trkpt>
      <trkpt lat="48.02057" lon="-3.47059">
        <ele>58.1</ele>
        <time>2025-02-26T14:37:23Z</time>
      </trkpt>
      <trkpt lat="48.02056" lon="-3.47059">
        <ele>58.1</ele>
        <time>2025-02-26T14:37:24Z</time>
      </trkpt>
      <trkpt lat="48.02056" lon="-3.47059">
        <ele>58.1</ele>
        <time>2025-02-26T14:37:25Z</time>
      </trkpt>
      <trkpt lat="48.02057" lon="-3.47058">
        <ele>58.1</ele>
        <time>2025-02-26T14:37:26Z</time>
      </trkpt>
      <trkpt lat="48.02056" lon="-3.47058">
        <ele>58.1</ele>
        <time>2025-02-26T14:37:27Z</time>
      </trkpt>
      <trkpt lat="48.02056" lon="-3.47057">
        <ele>58.1</ele>
        <time>2025-02-26T14:37:28Z</time>
      </trkpt>
      <trkpt lat="48.02055" lon="-3.47057">
        <ele>58</ele>
        <time>2025-02-26T14:37:29Z</time>
      </trkpt>
      <trkpt lat="48.02055" lon="-3.47057">
        <ele>58</ele>
        <time>2025-02-26T14:37:30Z</time>
      </trkpt>
      <trkpt lat="48.02055" lon="-3.47057">
        <ele>58</ele>
        <time>2025-02-26T14:37:31Z</time>
      </trkpt>
      <trkpt lat="48.02055" lon="-3.47057">
        <ele>58</ele>
        <time>2025-02-26T14:37:32Z</time>
      </trkpt>
      <trkpt lat="48.02055" lon="-3.47057">
        <ele>58</ele>
        <time>2025-02-26T14:37:33Z</time>
      </trkpt>
      <trkpt lat="48.02055" lon="-3.47057">
        <ele>58</ele>
        <time>2025-02-26T14:37:34Z</time>
      </trkpt>
      <trkpt lat="48.02055" lon="-3.47057">
        <ele>58.1</ele>
        <time>2025-02-26T14:37:35Z</time>
      </trkpt>
      <trkpt lat="48.02055" lon="-3.47057">
        <ele>58.1</ele>
        <time>2025-02-26T14:37:36Z</time>
      </trkpt>
      <trkpt lat="48.02055" lon="-3.47057">
        <ele>58.1</ele>
        <time>2025-02-26T14:37:37Z</time>
      </trkpt>
      <trkpt lat="48.02055" lon="-3.47056">
        <ele>58</ele>
        <time>2025-02-26T14:37:38Z</time>
      </trkpt>
      <trkpt lat="48.02055" lon="-3.47056">
        <ele>58</ele>
        <time>2025-02-26T14:37:39Z</time>
      </trkpt>
      <trkpt lat="48.02055" lon="-3.47056">
        <ele>58</ele>
        <time>2025-02-26T14:37:40Z</time>
      </trkpt>
      <trkpt lat="48.02055" lon="-3.47056">
        <ele>58</ele>
        <time>2025-02-26T14:37:41Z</time>
      </trkpt>
      <trkpt lat="48.02055" lon="-3.47056">
        <ele>58</ele>
        <time>2025-02-26T14:37:42Z</time>
      </trkpt>
      <trkpt lat="48.02055" lon="-3.47056">
        <ele>58</ele>
        <time>2025-02-26T14:37:43Z</time>
      </trkpt>
      <trkpt lat="48.02055" lon="-3.47056">
        <ele>58</ele>
        <time>2025-02-26T14:37:44Z</time>
      </trkpt>
      <trkpt lat="48.02055" lon="-3.47056">
        <ele>58</ele>
        <time>2025-02-26T14:37:45Z</time>
      </trkpt>
      <trkpt lat="48.02055" lon="-3.47056">
        <ele>58</ele>
        <time>2025-02-26T14:37:46Z</time>
      </trkpt>
      <trkpt lat="48.02055" lon="-3.47056">
        <ele>58</ele>
        <time>2025-02-26T14:37:47Z</time>
      </trkpt>
      <trkpt lat="48.02056" lon="-3.47056">
        <ele>58</ele>
        <time>2025-02-26T14:37:48Z</time>
      </trkpt>
      <trkpt lat="48.02056" lon="-3.47056">
        <ele>58</ele>
        <time>2025-02-26T14:37:49Z</time>
      </trkpt>
      <trkpt lat="48.02056" lon="-3.47056">
        <ele>58</ele>
        <time>2025-02-26T14:37:50Z</time>
      </trkpt>
      <trkpt lat="48.02056" lon="-3.47056">
        <ele>58</ele>
        <time>2025-02-26T14:37:51Z</time>
      </trkpt>
      <trkpt lat="48.02056" lon="-3.47056">
        <ele>58</ele>
        <time>2025-02-26T14:37:52Z</time>
      </trkpt>
      <trkpt lat="48.02056" lon="-3.47056">
        <ele>58</ele>
        <time>2025-02-26T14:37:53Z</time>
      </trkpt>
      <trkpt lat="48.02055" lon="-3.47057">
        <ele>58</ele>
        <time>2025-02-26T14:37:54Z</time>
      </trkpt>
      <trkpt lat="48.02054" lon="-3.47056">
        <ele>58</ele>
        <time>2025-02-26T14:37:55Z</time>
      </trkpt>
      <trkpt lat="48.02053" lon="-3.47056">
        <ele>58</ele>
        <time>2025-02-26T14:37:56Z</time>
      </trkpt>
      <trkpt lat="48.02052" lon="-3.47056">
        <ele>58</ele>
        <time>2025-02-26T14:37:57Z</time>
      </trkpt>
      <trkpt lat="48.02051" lon="-3.47055">
        <ele>58</ele>
        <time>2025-02-26T14:37:58Z</time>
      </trkpt>
      <trkpt lat="48.02051" lon="-3.47055">
        <ele>58</ele>
        <time>2025-02-26T14:37:59Z</time>
      </trkpt>
      <trkpt lat="48.0205" lon="-3.47053">
        <ele>58</ele>
        <time>2025-02-26T14:38:00Z</time>
      </trkpt>
      <trkpt lat="48.0205" lon="-3.47054">
        <ele>58</ele>
        <time>2025-02-26T14:38:01Z</time>
      </trkpt>
      <trkpt lat="48.0205" lon="-3.47056">
        <ele>58</ele>
        <time>2025-02-26T14:38:02Z</time>
      </trkpt>
      <trkpt lat="48.02049" lon="-3.47056">
        <ele>58</ele>
        <time>2025-02-26T14:38:03Z</time>
      </trkpt>
      <trkpt lat="48.02048" lon="-3.47054">
        <ele>58</ele>
        <time>2025-02-26T14:38:04Z</time>
      </trkpt>
      <trkpt lat="48.02047" lon="-3.47053">
        <ele>58</ele>
        <time>2025-02-26T14:38:05Z</time>
      </trkpt>
      <trkpt lat="48.02046" lon="-3.47051">
        <ele>57.9</ele>
        <time>2025-02-26T14:38:06Z</time>
      </trkpt>
      <trkpt lat="48.02045" lon="-3.47051">
        <ele>57.9</ele>
        <time>2025-02-26T14:38:07Z</time>
      </trkpt>
      <trkpt lat="48.02044" lon="-3.47049">
        <ele>57.9</ele>
        <time>2025-02-26T14:38:08Z</time>
      </trkpt>
      <trkpt lat="48.02043" lon="-3.47049">
        <ele>57.9</ele>
        <time>2025-02-26T14:38:09Z</time>
      </trkpt>
      <trkpt lat="48.02042" lon="-3.47047">
        <ele>57.9</ele>
        <time>2025-02-26T14:38:10Z</time>
      </trkpt>
      <trkpt lat="48.02041" lon="-3.47046">
        <ele>57.8</ele>
        <time>2025-02-26T14:38:11Z</time>
      </trkpt>
      <trkpt lat="48.0204" lon="-3.47045">
        <ele>57.8</ele>
        <time>2025-02-26T14:38:12Z</time>
      </trkpt>
      <trkpt lat="48.02039" lon="-3.47044">
        <ele>57.7</ele>
        <time>2025-02-26T14:38:13Z</time>
      </trkpt>
      <trkpt lat="48.02038" lon="-3.47042">
        <ele>57.7</ele>
        <time>2025-02-26T14:38:14Z</time>
      </trkpt>
      <trkpt lat="48.02037" lon="-3.47041">
        <ele>57.7</ele>
        <time>2025-02-26T14:38:15Z</time>
      </trkpt>
      <trkpt lat="48.02036" lon="-3.4704">
        <ele>57.6</ele>
        <time>2025-02-26T14:38:16Z</time>
      </trkpt>
      <trkpt lat="48.02036" lon="-3.47039">
        <ele>57.6</ele>
        <time>2025-02-26T14:38:17Z</time>
      </trkpt>
      <trkpt lat="48.02034" lon="-3.47037">
        <ele>57.5</ele>
        <time>2025-02-26T14:38:18Z</time>
      </trkpt>
      <trkpt lat="48.02033" lon="-3.47035">
        <ele>57.4</ele>
        <time>2025-02-26T14:38:19Z</time>
      </trkpt>
      <trkpt lat="48.02031" lon="-3.47034">
        <ele>57.3</ele>
        <time>2025-02-26T14:38:20Z</time>
      </trkpt>
      <trkpt lat="48.0203" lon="-3.47033">
        <ele>57.3</ele>
        <time>2025-02-26T14:38:21Z</time>
      </trkpt>
      <trkpt lat="48.0203" lon="-3.47031">
        <ele>57.2</ele>
        <time>2025-02-26T14:38:22Z</time>
      </trkpt>
      <trkpt lat="48.02029" lon="-3.47031">
        <ele>57.2</ele>
        <time>2025-02-26T14:38:23Z</time>
      </trkpt>
      <trkpt lat="48.02028" lon="-3.47031">
        <ele>57.1</ele>
        <time>2025-02-26T14:38:24Z</time>
      </trkpt>
      <trkpt lat="48.02028" lon="-3.4703">
        <ele>57.1</ele>
        <time>2025-02-26T14:38:25Z</time>
      </trkpt>
      <trkpt lat="48.02027" lon="-3.47029">
        <ele>57.1</ele>
        <time>2025-02-26T14:38:26Z</time>
      </trkpt>
      <trkpt lat="48.02027" lon="-3.47027">
        <ele>57.1</ele>
        <time>2025-02-26T14:38:27Z</time>
      </trkpt>
      <trkpt lat="48.02026" lon="-3.47025">
        <ele>57.2</ele>
        <time>2025-02-26T14:38:28Z</time>
      </trkpt>
      <trkpt lat="48.02025" lon="-3.47024">
        <ele>57.2</ele>
        <time>2025-02-26T14:38:29Z</time>
      </trkpt>
      <trkpt lat="48.02024" lon="-3.47022">
        <ele>57.3</ele>
        <time>2025-02-26T14:38:30Z</time>
      </trkpt>
      <trkpt lat="48.02023" lon="-3.47021">
        <ele>57.3</ele>
        <time>2025-02-26T14:38:31Z</time>
      </trkpt>
      <trkpt lat="48.02022" lon="-3.4702">
        <ele>57.4</ele>
        <time>2025-02-26T14:38:32Z</time>
      </trkpt>
      <trkpt lat="48.0202" lon="-3.47019">
        <ele>57.4</ele>
        <time>2025-02-26T14:38:33Z</time>
      </trkpt>
      <trkpt lat="48.02019" lon="-3.47018">
        <ele>57.4</ele>
        <time>2025-02-26T14:38:34Z</time>
      </trkpt>
      <trkpt lat="48.02018" lon="-3.47017">
        <ele>57.5</ele>
        <time>2025-02-26T14:38:35Z</time>
      </trkpt>
      <trkpt lat="48.02018" lon="-3.47016">
        <ele>57.5</ele>
        <time>2025-02-26T14:38:36Z</time>
      </trkpt>
      <trkpt lat="48.02016" lon="-3.47015">
        <ele>57.5</ele>
        <time>2025-02-26T14:38:37Z</time>
      </trkpt>
      <trkpt lat="48.02015" lon="-3.47014">
        <ele>57.5</ele>
        <time>2025-02-26T14:38:38Z</time>
      </trkpt>
      <trkpt lat="48.02015" lon="-3.47013">
        <ele>57.5</ele>
        <time>2025-02-26T14:38:39Z</time>
      </trkpt>
      <trkpt lat="48.02014" lon="-3.47012">
        <ele>57.5</ele>
        <time>2025-02-26T14:38:40Z</time>
      </trkpt>
      <trkpt lat="48.02013" lon="-3.47011">
        <ele>57.5</ele>
        <time>2025-02-26T14:38:41Z</time>
      </trkpt>
      <trkpt lat="48.02012" lon="-3.4701">
        <ele>57.5</ele>
        <time>2025-02-26T14:38:42Z</time>
      </trkpt>
      <trkpt lat="48.02012" lon="-3.47009">
        <ele>57.5</ele>
        <time>2025-02-26T14:38:43Z</time>
      </trkpt>
      <trkpt lat="48.02011" lon="-3.47007">
        <ele>57.4</ele>
        <time>2025-02-26T14:38:44Z</time>
      </trkpt>
      <trkpt lat="48.02009" lon="-3.47007">
        <ele>57.4</ele>
        <time>2025-02-26T14:38:45Z</time>
      </trkpt>
      <trkpt lat="48.02009" lon="-3.47006">
        <ele>57.4</ele>
        <time>2025-02-26T14:38:46Z</time>
      </trkpt>
      <trkpt lat="48.02008" lon="-3.47004">
        <ele>57.4</ele>
        <time>2025-02-26T14:38:47Z</time>
      </trkpt>
      <trkpt lat="48.02008" lon="-3.47003">
        <ele>57.3</ele>
        <time>2025-02-26T14:38:48Z</time>
      </trkpt>
      <trkpt lat="48.02007" lon="-3.47002">
        <ele>57.3</ele>
        <time>2025-02-26T14:38:49Z</time>
      </trkpt>
      <trkpt lat="48.02006" lon="-3.47001">
        <ele>57.2</ele>
        <time>2025-02-26T14:38:50Z</time>
      </trkpt>
      <trkpt lat="48.02005" lon="-3.47">
        <ele>57.2</ele>
        <time>2025-02-26T14:38:51Z</time>
      </trkpt>
      <trkpt lat="48.02004" lon="-3.46999">
        <ele>57.2</ele>
        <time>2025-02-26T14:38:52Z</time>
      </trkpt>
      <trkpt lat="48.02003" lon="-3.46998">
        <ele>57.1</ele>
        <time>2025-02-26T14:38:53Z</time>
      </trkpt>
      <trkpt lat="48.02003" lon="-3.46996">
        <ele>57.1</ele>
        <time>2025-02-26T14:38:54Z</time>
      </trkpt>
      <trkpt lat="48.02002" lon="-3.46995">
        <ele>57.1</ele>
        <time>2025-02-26T14:38:55Z</time>
      </trkpt>
      <trkpt lat="48.02002" lon="-3.46994">
        <ele>57.1</ele>
        <time>2025-02-26T14:38:56Z</time>
      </trkpt>
      <trkpt lat="48.02001" lon="-3.46993">
        <ele>57</ele>
        <time>2025-02-26T14:38:57Z</time>
      </trkpt>
      <trkpt lat="48.02" lon="-3.46992">
        <ele>57</ele>
        <time>2025-02-26T14:38:58Z</time>
      </trkpt>
      <trkpt lat="48.01998" lon="-3.46991">
        <ele>57</ele>
        <time>2025-02-26T14:38:59Z</time>
      </trkpt>
      <trkpt lat="48.01996" lon="-3.46991">
        <ele>57.1</ele>
        <time>2025-02-26T14:39:00Z</time>
      </trkpt>
      <trkpt lat="48.01995" lon="-3.4699">
        <ele>57.1</ele>
        <time>2025-02-26T14:39:01Z</time>
      </trkpt>
      <trkpt lat="48.01994" lon="-3.4699">
        <ele>57.1</ele>
        <time>2025-02-26T14:39:02Z</time>
      </trkpt>
      <trkpt lat="48.01993" lon="-3.46991">
        <ele>57.2</ele>
        <time>2025-02-26T14:39:03Z</time>
      </trkpt>
      <trkpt lat="48.01992" lon="-3.46992">
        <ele>57.2</ele>
        <time>2025-02-26T14:39:04Z</time>
      </trkpt>
      <trkpt lat="48.01991" lon="-3.46994">
        <ele>57.2</ele>
        <time>2025-02-26T14:39:05Z</time>
      </trkpt>
      <trkpt lat="48.0199" lon="-3.46994">
        <ele>57.3</ele>
        <time>2025-02-26T14:39:06Z</time>
      </trkpt>
      <trkpt lat="48.01989" lon="-3.46996">
        <ele>57.3</ele>
        <time>2025-02-26T14:39:07Z</time>
      </trkpt>
      <trkpt lat="48.01988" lon="-3.46997">
        <ele>57.4</ele>
        <time>2025-02-26T14:39:08Z</time>
      </trkpt>
      <trkpt lat="48.01988" lon="-3.46998">
        <ele>57.4</ele>
        <time>2025-02-26T14:39:09Z</time>
      </trkpt>
      <trkpt lat="48.01987" lon="-3.46999">
        <ele>57.5</ele>
        <time>2025-02-26T14:39:10Z</time>
      </trkpt>
      <trkpt lat="48.01986" lon="-3.47">
        <ele>57.5</ele>
        <time>2025-02-26T14:39:11Z</time>
      </trkpt>
      <trkpt lat="48.01985" lon="-3.47001">
        <ele>57.6</ele>
        <time>2025-02-26T14:39:12Z</time>
      </trkpt>
      <trkpt lat="48.01984" lon="-3.47003">
        <ele>57.7</ele>
        <time>2025-02-26T14:39:13Z</time>
      </trkpt>
      <trkpt lat="48.01984" lon="-3.47004">
        <ele>57.7</ele>
        <time>2025-02-26T14:39:14Z</time>
      </trkpt>
      <trkpt lat="48.01983" lon="-3.47006">
        <ele>57.8</ele>
        <time>2025-02-26T14:39:15Z</time>
      </trkpt>
      <trkpt lat="48.01983" lon="-3.47007">
        <ele>57.9</ele>
        <time>2025-02-26T14:39:16Z</time>
      </trkpt>
      <trkpt lat="48.01983" lon="-3.47008">
        <ele>57.9</ele>
        <time>2025-02-26T14:39:17Z</time>
      </trkpt>
      <trkpt lat="48.01983" lon="-3.4701">
        <ele>58</ele>
        <time>2025-02-26T14:39:18Z</time>
      </trkpt>
      <trkpt lat="48.01983" lon="-3.47011">
        <ele>58</ele>
        <time>2025-02-26T14:39:19Z</time>
      </trkpt>
      <trkpt lat="48.01982" lon="-3.47013">
        <ele>58.1</ele>
        <time>2025-02-26T14:39:20Z</time>
      </trkpt>
      <trkpt lat="48.01982" lon="-3.47014">
        <ele>58.2</ele>
        <time>2025-02-26T14:39:21Z</time>
      </trkpt>
      <trkpt lat="48.01983" lon="-3.47016">
        <ele>58.2</ele>
        <time>2025-02-26T14:39:22Z</time>
      </trkpt>
      <trkpt lat="48.01983" lon="-3.47018">
        <ele>58.3</ele>
        <time>2025-02-26T14:39:23Z</time>
      </trkpt>
      <trkpt lat="48.01983" lon="-3.47019">
        <ele>58.3</ele>
        <time>2025-02-26T14:39:24Z</time>
      </trkpt>
      <trkpt lat="48.01984" lon="-3.4702">
        <ele>58.3</ele>
        <time>2025-02-26T14:39:25Z</time>
      </trkpt>
      <trkpt lat="48.01984" lon="-3.47022">
        <ele>58.3</ele>
        <time>2025-02-26T14:39:26Z</time>
      </trkpt>
      <trkpt lat="48.01985" lon="-3.47023">
        <ele>58.4</ele>
        <time>2025-02-26T14:39:27Z</time>
      </trkpt>
      <trkpt lat="48.01985" lon="-3.47024">
        <ele>58.4</ele>
        <time>2025-02-26T14:39:28Z</time>
      </trkpt>
      <trkpt lat="48.01985" lon="-3.47024">
        <ele>58.4</ele>
        <time>2025-02-26T14:39:29Z</time>
      </trkpt>
      <trkpt lat="48.01985" lon="-3.47026">
        <ele>58.4</ele>
        <time>2025-02-26T14:39:30Z</time>
      </trkpt>
      <trkpt lat="48.01986" lon="-3.47026">
        <ele>58.4</ele>
        <time>2025-02-26T14:39:31Z</time>
      </trkpt>
      <trkpt lat="48.01987" lon="-3.47028">
        <ele>58.5</ele>
        <time>2025-02-26T14:39:32Z</time>
      </trkpt>
      <trkpt lat="48.01988" lon="-3.47029">
        <ele>58.5</ele>
        <time>2025-02-26T14:39:33Z</time>
      </trkpt>
      <trkpt lat="48.01989" lon="-3.47029">
        <ele>58.5</ele>
        <time>2025-02-26T14:39:34Z</time>
      </trkpt>
      <trkpt lat="48.01989" lon="-3.4703">
        <ele>58.5</ele>
        <time>2025-02-26T14:39:35Z</time>
      </trkpt>
      <trkpt lat="48.0199" lon="-3.47031">
        <ele>58.5</ele>
        <time>2025-02-26T14:39:36Z</time>
      </trkpt>
      <trkpt lat="48.0199" lon="-3.47032">
        <ele>58.5</ele>
        <time>2025-02-26T14:39:37Z</time>
      </trkpt>
      <trkpt lat="48.01991" lon="-3.47034">
        <ele>58.5</ele>
        <time>2025-02-26T14:39:38Z</time>
      </trkpt>
      <trkpt lat="48.01992" lon="-3.47035">
        <ele>58.6</ele>
        <time>2025-02-26T14:39:39Z</time>
      </trkpt>
      <trkpt lat="48.01993" lon="-3.47037">
        <ele>58.6</ele>
        <time>2025-02-26T14:39:40Z</time>
      </trkpt>
      <trkpt lat="48.01994" lon="-3.47039">
        <ele>58.6</ele>
        <time>2025-02-26T14:39:41Z</time>
      </trkpt>
      <trkpt lat="48.01995" lon="-3.47041">
        <ele>58.7</ele>
        <time>2025-02-26T14:39:42Z</time>
      </trkpt>
      <trkpt lat="48.01995" lon="-3.47043">
        <ele>58.7</ele>
        <time>2025-02-26T14:39:43Z</time>
      </trkpt>
      <trkpt lat="48.01996" lon="-3.47045">
        <ele>58.8</ele>
        <time>2025-02-26T14:39:44Z</time>
      </trkpt>
      <trkpt lat="48.01997" lon="-3.47048">
        <ele>58.9</ele>
        <time>2025-02-26T14:39:45Z</time>
      </trkpt>
      <trkpt lat="48.01997" lon="-3.4705">
        <ele>58.9</ele>
        <time>2025-02-26T14:39:46Z</time>
      </trkpt>
      <trkpt lat="48.01997" lon="-3.47052">
        <ele>59</ele>
        <time>2025-02-26T14:39:47Z</time>
      </trkpt>
      <trkpt lat="48.01996" lon="-3.47054">
        <ele>59.1</ele>
        <time>2025-02-26T14:39:48Z</time>
      </trkpt>
      <trkpt lat="48.01997" lon="-3.47055">
        <ele>59.1</ele>
        <time>2025-02-26T14:39:49Z</time>
      </trkpt>
      <trkpt lat="48.01997" lon="-3.47055">
        <ele>59.1</ele>
        <time>2025-02-26T14:39:50Z</time>
      </trkpt>
      <trkpt lat="48.01998" lon="-3.47056">
        <ele>59.1</ele>
        <time>2025-02-26T14:39:51Z</time>
      </trkpt>
      <trkpt lat="48.01998" lon="-3.47057">
        <ele>59.1</ele>
        <time>2025-02-26T14:39:52Z</time>
      </trkpt>
      <trkpt lat="48.01999" lon="-3.47058">
        <ele>59.1</ele>
        <time>2025-02-26T14:39:53Z</time>
      </trkpt>
      <trkpt lat="48.02" lon="-3.47059">
        <ele>59.1</ele>
        <time>2025-02-26T14:39:54Z</time>
      </trkpt>
      <trkpt lat="48.02001" lon="-3.4706">
        <ele>59.1</ele>
        <time>2025-02-26T14:39:55Z</time>
      </trkpt>
      <trkpt lat="48.02003" lon="-3.47061">
        <ele>59.1</ele>
        <time>2025-02-26T14:39:56Z</time>
      </trkpt>
      <trkpt lat="48.02003" lon="-3.47063">
        <ele>59.1</ele>
        <time>2025-02-26T14:39:57Z</time>
      </trkpt>
      <trkpt lat="48.02004" lon="-3.47065">
        <ele>59.2</ele>
        <time>2025-02-26T14:39:58Z</time>
      </trkpt>
      <trkpt lat="48.02006" lon="-3.47066">
        <ele>59.2</ele>
        <time>2025-02-26T14:39:59Z</time>
      </trkpt>
      <trkpt lat="48.02007" lon="-3.47067">
        <ele>59.2</ele>
        <time>2025-02-26T14:40:00Z</time>
      </trkpt>
      <trkpt lat="48.02008" lon="-3.47067">
        <ele>59.1</ele>
        <time>2025-02-26T14:40:01Z</time>
      </trkpt>
      <trkpt lat="48.02009" lon="-3.47068">
        <ele>59.1</ele>
        <time>2025-02-26T14:40:02Z</time>
      </trkpt>
      <trkpt lat="48.0201" lon="-3.47069">
        <ele>59.1</ele>
        <time>2025-02-26T14:40:03Z</time>
      </trkpt>
      <trkpt lat="48.02011" lon="-3.4707">
        <ele>59.1</ele>
        <time>2025-02-26T14:40:04Z</time>
      </trkpt>
      <trkpt lat="48.02013" lon="-3.47071">
        <ele>59.1</ele>
        <time>2025-02-26T14:40:05Z</time>
      </trkpt>
      <trkpt lat="48.02014" lon="-3.47073">
        <ele>59.1</ele>
        <time>2025-02-26T14:40:06Z</time>
      </trkpt>
      <trkpt lat="48.02015" lon="-3.47075">
        <ele>59.2</ele>
        <time>2025-02-26T14:40:07Z</time>
      </trkpt>
      <trkpt lat="48.02015" lon="-3.47076">
        <ele>59.2</ele>
        <time>2025-02-26T14:40:08Z</time>
      </trkpt>
      <trkpt lat="48.02016" lon="-3.47078">
        <ele>59.2</ele>
        <time>2025-02-26T14:40:09Z</time>
      </trkpt>
      <trkpt lat="48.02017" lon="-3.47078">
        <ele>59.2</ele>
        <time>2025-02-26T14:40:10Z</time>
      </trkpt>
      <trkpt lat="48.02018" lon="-3.4708">
        <ele>59.2</ele>
        <time>2025-02-26T14:40:11Z</time>
      </trkpt>
      <trkpt lat="48.02018" lon="-3.47083">
        <ele>59.3</ele>
        <time>2025-02-26T14:40:12Z</time>
      </trkpt>
      <trkpt lat="48.02017" lon="-3.47085">
        <ele>59.4</ele>
        <time>2025-02-26T14:40:13Z</time>
      </trkpt>
      <trkpt lat="48.02018" lon="-3.47088">
        <ele>59.5</ele>
        <time>2025-02-26T14:40:14Z</time>
      </trkpt>
      <trkpt lat="48.02019" lon="-3.47089">
        <ele>59.5</ele>
        <time>2025-02-26T14:40:15Z</time>
      </trkpt>
      <trkpt lat="48.0202" lon="-3.4709">
        <ele>59.5</ele>
        <time>2025-02-26T14:40:16Z</time>
      </trkpt>
      <trkpt lat="48.0202" lon="-3.47092">
        <ele>59.5</ele>
        <time>2025-02-26T14:40:17Z</time>
      </trkpt>
      <trkpt lat="48.0202" lon="-3.47093">
        <ele>59.5</ele>
        <time>2025-02-26T14:40:18Z</time>
      </trkpt>
      <trkpt lat="48.0202" lon="-3.47095">
        <ele>59.6</ele>
        <time>2025-02-26T14:40:19Z</time>
      </trkpt>
      <trkpt lat="48.0202" lon="-3.47096">
        <ele>59.6</ele>
        <time>2025-02-26T14:40:20Z</time>
      </trkpt>
      <trkpt lat="48.02021" lon="-3.47097">
        <ele>59.6</ele>
        <time>2025-02-26T14:40:21Z</time>
      </trkpt>
      <trkpt lat="48.02022" lon="-3.47098">
        <ele>59.6</ele>
        <time>2025-02-26T14:40:22Z</time>
      </trkpt>
      <trkpt lat="48.02023" lon="-3.47099">
        <ele>59.6</ele>
        <time>2025-02-26T14:40:23Z</time>
      </trkpt>
      <trkpt lat="48.02024" lon="-3.471">
        <ele>59.7</ele>
        <time>2025-02-26T14:40:24Z</time>
      </trkpt>
      <trkpt lat="48.02025" lon="-3.47102">
        <ele>59.7</ele>
        <time>2025-02-26T14:40:25Z</time>
      </trkpt>
      <trkpt lat="48.02026" lon="-3.47103">
        <ele>59.7</ele>
        <time>2025-02-26T14:40:26Z</time>
      </trkpt>
      <trkpt lat="48.02027" lon="-3.47103">
        <ele>59.7</ele>
        <time>2025-02-26T14:40:27Z</time>
      </trkpt>
      <trkpt lat="48.02028" lon="-3.47104">
        <ele>59.7</ele>
        <time>2025-02-26T14:40:28Z</time>
      </trkpt>
      <trkpt lat="48.02028" lon="-3.47107">
        <ele>59.9</ele>
        <time>2025-02-26T14:40:29Z</time>
      </trkpt>
      <trkpt lat="48.02029" lon="-3.47109">
        <ele>59.9</ele>
        <time>2025-02-26T14:40:30Z</time>
      </trkpt>
      <trkpt lat="48.02029" lon="-3.47111">
        <ele>60</ele>
        <time>2025-02-26T14:40:31Z</time>
      </trkpt>
      <trkpt lat="48.0203" lon="-3.47113">
        <ele>60</ele>
        <time>2025-02-26T14:40:32Z</time>
      </trkpt>
      <trkpt lat="48.0203" lon="-3.47114">
        <ele>60</ele>
        <time>2025-02-26T14:40:33Z</time>
      </trkpt>
      <trkpt lat="48.0203" lon="-3.47116">
        <ele>60</ele>
        <time>2025-02-26T14:40:34Z</time>
      </trkpt>
      <trkpt lat="48.02029" lon="-3.47118">
        <ele>60</ele>
        <time>2025-02-26T14:40:35Z</time>
      </trkpt>
      <trkpt lat="48.02029" lon="-3.47119">
        <ele>60</ele>
        <time>2025-02-26T14:40:36Z</time>
      </trkpt>
      <trkpt lat="48.02028" lon="-3.47121">
        <ele>60</ele>
        <time>2025-02-26T14:40:37Z</time>
      </trkpt>
      <trkpt lat="48.02028" lon="-3.47122">
        <ele>60</ele>
        <time>2025-02-26T14:40:38Z</time>
      </trkpt>
      <trkpt lat="48.02028" lon="-3.47124">
        <ele>60</ele>
        <time>2025-02-26T14:40:39Z</time>
      </trkpt>
      <trkpt lat="48.02028" lon="-3.47126">
        <ele>60</ele>
        <time>2025-02-26T14:40:40Z</time>
      </trkpt>
      <trkpt lat="48.02028" lon="-3.47127">
        <ele>60</ele>
        <time>2025-02-26T14:40:41Z</time>
      </trkpt>
      <trkpt lat="48.02028" lon="-3.4713">
        <ele>60</ele>
        <time>2025-02-26T14:40:42Z</time>
      </trkpt>
      <trkpt lat="48.02028" lon="-3.47131">
        <ele>60</ele>
        <time>2025-02-26T14:40:43Z</time>
      </trkpt>
      <trkpt lat="48.02028" lon="-3.47132">
        <ele>60</ele>
        <time>2025-02-26T14:40:44Z</time>
      </trkpt>
      <trkpt lat="48.02028" lon="-3.47134">
        <ele>60</ele>
        <time>2025-02-26T14:40:45Z</time>
      </trkpt>
      <trkpt lat="48.02029" lon="-3.47135">
        <ele>60</ele>
        <time>2025-02-26T14:40:46Z</time>
      </trkpt>
      <trkpt lat="48.0203" lon="-3.47135">
        <ele>60.1</ele>
        <time>2025-02-26T14:40:47Z</time>
      </trkpt>
      <trkpt lat="48.02031" lon="-3.47136">
        <ele>60.1</ele>
        <time>2025-02-26T14:40:48Z</time>
      </trkpt>
      <trkpt lat="48.02031" lon="-3.47137">
        <ele>60.1</ele>
        <time>2025-02-26T14:40:49Z</time>
      </trkpt>
      <trkpt lat="48.02031" lon="-3.47139">
        <ele>60.1</ele>
        <time>2025-02-26T14:40:50Z</time>
      </trkpt>
      <trkpt lat="48.02031" lon="-3.4714">
        <ele>60.2</ele>
        <time>2025-02-26T14:40:51Z</time>
      </trkpt>
      <trkpt lat="48.02032" lon="-3.47142">
        <ele>60.2</ele>
        <time>2025-02-26T14:40:52Z</time>
      </trkpt>
      <trkpt lat="48.02031" lon="-3.47143">
        <ele>60.3</ele>
        <time>2025-02-26T14:40:53Z</time>
      </trkpt>
      <trkpt lat="48.02031" lon="-3.47145">
        <ele>60.3</ele>
        <time>2025-02-26T14:40:54Z</time>
      </trkpt>
      <trkpt lat="48.02031" lon="-3.47146">
        <ele>60.3</ele>
        <time>2025-02-26T14:40:55Z</time>
      </trkpt>
      <trkpt lat="48.02031" lon="-3.47147">
        <ele>60.4</ele>
        <time>2025-02-26T14:40:56Z</time>
      </trkpt>
      <trkpt lat="48.02031" lon="-3.47149">
        <ele>60.4</ele>
        <time>2025-02-26T14:40:57Z</time>
      </trkpt>
      <trkpt lat="48.02031" lon="-3.47151">
        <ele>60.5</ele>
        <time>2025-02-26T14:40:58Z</time>
      </trkpt>
      <trkpt lat="48.02031" lon="-3.47152">
        <ele>60.5</ele>
        <time>2025-02-26T14:40:59Z</time>
      </trkpt>
      <trkpt lat="48.02031" lon="-3.47154">
        <ele>60.6</ele>
        <time>2025-02-26T14:41:00Z</time>
      </trkpt>
      <trkpt lat="48.02031" lon="-3.47156">
        <ele>60.7</ele>
        <time>2025-02-26T14:41:01Z</time>
      </trkpt>
      <trkpt lat="48.02032" lon="-3.47158">
        <ele>60.7</ele>
        <time>2025-02-26T14:41:02Z</time>
      </trkpt>
      <trkpt lat="48.02032" lon="-3.47159">
        <ele>60.8</ele>
        <time>2025-02-26T14:41:03Z</time>
      </trkpt>
      <trkpt lat="48.02032" lon="-3.47161">
        <ele>60.8</ele>
        <time>2025-02-26T14:41:04Z</time>
      </trkpt>
      <trkpt lat="48.02033" lon="-3.47162">
        <ele>60.9</ele>
        <time>2025-02-26T14:41:05Z</time>
      </trkpt>
      <trkpt lat="48.02033" lon="-3.47163">
        <ele>60.9</ele>
        <time>2025-02-26T14:41:06Z</time>
      </trkpt>
      <trkpt lat="48.02034" lon="-3.47164">
        <ele>60.9</ele>
        <time>2025-02-26T14:41:07Z</time>
      </trkpt>
      <trkpt lat="48.02034" lon="-3.47165">
        <ele>61</ele>
        <time>2025-02-26T14:41:08Z</time>
      </trkpt>
      <trkpt lat="48.02034" lon="-3.47167">
        <ele>61</ele>
        <time>2025-02-26T14:41:09Z</time>
      </trkpt>
      <trkpt lat="48.02035" lon="-3.47168">
        <ele>61.1</ele>
        <time>2025-02-26T14:41:10Z</time>
      </trkpt>
      <trkpt lat="48.02035" lon="-3.4717">
        <ele>61.1</ele>
        <time>2025-02-26T14:41:11Z</time>
      </trkpt>
      <trkpt lat="48.02035" lon="-3.47171">
        <ele>61.1</ele>
        <time>2025-02-26T14:41:12Z</time>
      </trkpt>
      <trkpt lat="48.02035" lon="-3.47172">
        <ele>61.2</ele>
        <time>2025-02-26T14:41:13Z</time>
      </trkpt>
      <trkpt lat="48.02036" lon="-3.47174">
        <ele>61.3</ele>
        <time>2025-02-26T14:41:14Z</time>
      </trkpt>
      <trkpt lat="48.02036" lon="-3.47175">
        <ele>61.3</ele>
        <time>2025-02-26T14:41:15Z</time>
      </trkpt>
      <trkpt lat="48.02036" lon="-3.47177">
        <ele>61.4</ele>
        <time>2025-02-26T14:41:16Z</time>
      </trkpt>
      <trkpt lat="48.02036" lon="-3.47179">
        <ele>61.4</ele>
        <time>2025-02-26T14:41:17Z</time>
      </trkpt>
      <trkpt lat="48.02035" lon="-3.4718">
        <ele>61.5</ele>
        <time>2025-02-26T14:41:18Z</time>
      </trkpt>
      <trkpt lat="48.02035" lon="-3.47182">
        <ele>61.6</ele>
        <time>2025-02-26T14:41:19Z</time>
      </trkpt>
      <trkpt lat="48.02036" lon="-3.47184">
        <ele>61.6</ele>
        <time>2025-02-26T14:41:20Z</time>
      </trkpt>
      <trkpt lat="48.02035" lon="-3.47185">
        <ele>61.7</ele>
        <time>2025-02-26T14:41:21Z</time>
      </trkpt>
      <trkpt lat="48.02035" lon="-3.47187">
        <ele>61.7</ele>
        <time>2025-02-26T14:41:22Z</time>
      </trkpt>
      <trkpt lat="48.02035" lon="-3.47188">
        <ele>61.8</ele>
        <time>2025-02-26T14:41:23Z</time>
      </trkpt>
      <trkpt lat="48.02034" lon="-3.4719">
        <ele>61.8</ele>
        <time>2025-02-26T14:41:24Z</time>
      </trkpt>
      <trkpt lat="48.02033" lon="-3.47191">
        <ele>61.9</ele>
        <time>2025-02-26T14:41:25Z</time>
      </trkpt>
      <trkpt lat="48.02032" lon="-3.47192">
        <ele>61.9</ele>
        <time>2025-02-26T14:41:26Z</time>
      </trkpt>
      <trkpt lat="48.02031" lon="-3.47194">
        <ele>62</ele>
        <time>2025-02-26T14:41:27Z</time>
      </trkpt>
      <trkpt lat="48.02031" lon="-3.47195">
        <ele>62</ele>
        <time>2025-02-26T14:41:28Z</time>
      </trkpt>
      <trkpt lat="48.02029" lon="-3.47196">
        <ele>62</ele>
        <time>2025-02-26T14:41:29Z</time>
      </trkpt>
      <trkpt lat="48.02028" lon="-3.47197">
        <ele>62</ele>
        <time>2025-02-26T14:41:30Z</time>
      </trkpt>
      <trkpt lat="48.02028" lon="-3.47199">
        <ele>62</ele>
        <time>2025-02-26T14:41:31Z</time>
      </trkpt>
      <trkpt lat="48.02027" lon="-3.472">
        <ele>62</ele>
        <time>2025-02-26T14:41:32Z</time>
      </trkpt>
      <trkpt lat="48.02027" lon="-3.47202">
        <ele>62</ele>
        <time>2025-02-26T14:41:33Z</time>
      </trkpt>
      <trkpt lat="48.02026" lon="-3.47203">
        <ele>62</ele>
        <time>2025-02-26T14:41:34Z</time>
      </trkpt>
      <trkpt lat="48.02026" lon="-3.47204">
        <ele>62</ele>
        <time>2025-02-26T14:41:35Z</time>
      </trkpt>
      <trkpt lat="48.02025" lon="-3.47205">
        <ele>62</ele>
        <time>2025-02-26T14:41:36Z</time>
      </trkpt>
      <trkpt lat="48.02024" lon="-3.47206">
        <ele>62</ele>
        <time>2025-02-26T14:41:37Z</time>
      </trkpt>
      <trkpt lat="48.02023" lon="-3.47207">
        <ele>62</ele>
        <time>2025-02-26T14:41:38Z</time>
      </trkpt>
      <trkpt lat="48.02023" lon="-3.47208">
        <ele>62</ele>
        <time>2025-02-26T14:41:39Z</time>
      </trkpt>
      <trkpt lat="48.02022" lon="-3.47209">
        <ele>62</ele>
        <time>2025-02-26T14:41:40Z</time>
      </trkpt>
      <trkpt lat="48.02021" lon="-3.47211">
        <ele>62</ele>
        <time>2025-02-26T14:41:41Z</time>
      </trkpt>
      <trkpt lat="48.0202" lon="-3.47211">
        <ele>62</ele>
        <time>2025-02-26T14:41:42Z</time>
      </trkpt>
      <trkpt lat="48.02019" lon="-3.47212">
        <ele>62</ele>
        <time>2025-02-26T14:41:43Z</time>
      </trkpt>
      <trkpt lat="48.02018" lon="-3.47213">
        <ele>62</ele>
        <time>2025-02-26T14:41:44Z</time>
      </trkpt>
      <trkpt lat="48.02018" lon="-3.47215">
        <ele>62</ele>
        <time>2025-02-26T14:41:45Z</time>
      </trkpt>
      <trkpt lat="48.02017" lon="-3.47216">
        <ele>62</ele>
        <time>2025-02-26T14:41:46Z</time>
      </trkpt>
      <trkpt lat="48.02016" lon="-3.47217">
        <ele>62</ele>
        <time>2025-02-26T14:41:47Z</time>
      </trkpt>
      <trkpt lat="48.02015" lon="-3.47218">
        <ele>62</ele>
        <time>2025-02-26T14:41:48Z</time>
      </trkpt>
      <trkpt lat="48.02015" lon="-3.4722">
        <ele>62</ele>
        <time>2025-02-26T14:41:49Z</time>
      </trkpt>
      <trkpt lat="48.02014" lon="-3.47221">
        <ele>62</ele>
        <time>2025-02-26T14:41:50Z</time>
      </trkpt>
      <trkpt lat="48.02014" lon="-3.47222">
        <ele>62</ele>
        <time>2025-02-26T14:41:51Z</time>
      </trkpt>
      <trkpt lat="48.02013" lon="-3.47223">
        <ele>62</ele>
        <time>2025-02-26T14:41:52Z</time>
      </trkpt>
      <trkpt lat="48.02012" lon="-3.47223">
        <ele>62</ele>
        <time>2025-02-26T14:41:53Z</time>
      </trkpt>
      <trkpt lat="48.02011" lon="-3.47224">
        <ele>62.1</ele>
        <time>2025-02-26T14:41:54Z</time>
      </trkpt>
      <trkpt lat="48.0201" lon="-3.47225">
        <ele>62.1</ele>
        <time>2025-02-26T14:41:55Z</time>
      </trkpt>
      <trkpt lat="48.0201" lon="-3.47226">
        <ele>62.1</ele>
        <time>2025-02-26T14:41:56Z</time>
      </trkpt>
      <trkpt lat="48.02009" lon="-3.47227">
        <ele>62.2</ele>
        <time>2025-02-26T14:41:57Z</time>
      </trkpt>
      <trkpt lat="48.02008" lon="-3.47228">
        <ele>62.2</ele>
        <time>2025-02-26T14:41:58Z</time>
      </trkpt>
      <trkpt lat="48.02007" lon="-3.47229">
        <ele>62.2</ele>
        <time>2025-02-26T14:41:59Z</time>
      </trkpt>
      <trkpt lat="48.02006" lon="-3.47229">
        <ele>62.2</ele>
        <time>2025-02-26T14:42:00Z</time>
      </trkpt>
      <trkpt lat="48.02005" lon="-3.4723">
        <ele>62.3</ele>
        <time>2025-02-26T14:42:01Z</time>
      </trkpt>
      <trkpt lat="48.02003" lon="-3.4723">
        <ele>62.3</ele>
        <time>2025-02-26T14:42:02Z</time>
      </trkpt>
      <trkpt lat="48.02003" lon="-3.47231">
        <ele>62.3</ele>
        <time>2025-02-26T14:42:03Z</time>
      </trkpt>
      <trkpt lat="48.02002" lon="-3.47233">
        <ele>62.4</ele>
        <time>2025-02-26T14:42:04Z</time>
      </trkpt>
      <trkpt lat="48.02001" lon="-3.47234">
        <ele>62.4</ele>
        <time>2025-02-26T14:42:05Z</time>
      </trkpt>
      <trkpt lat="48.02" lon="-3.47234">
        <ele>62.4</ele>
        <time>2025-02-26T14:42:06Z</time>
      </trkpt>
      <trkpt lat="48.01999" lon="-3.47234">
        <ele>62.5</ele>
        <time>2025-02-26T14:42:07Z</time>
      </trkpt>
      <trkpt lat="48.01997" lon="-3.47234">
        <ele>62.5</ele>
        <time>2025-02-26T14:42:08Z</time>
      </trkpt>
      <trkpt lat="48.01996" lon="-3.47233">
        <ele>62.5</ele>
        <time>2025-02-26T14:42:09Z</time>
      </trkpt>
      <trkpt lat="48.01995" lon="-3.47233">
        <ele>62.6</ele>
        <time>2025-02-26T14:42:10Z</time>
      </trkpt>
      <trkpt lat="48.01994" lon="-3.47233">
        <ele>62.6</ele>
        <time>2025-02-26T14:42:11Z</time>
      </trkpt>
      <trkpt lat="48.01993" lon="-3.47233">
        <ele>62.6</ele>
        <time>2025-02-26T14:42:12Z</time>
      </trkpt>
      <trkpt lat="48.01992" lon="-3.47233">
        <ele>62.7</ele>
        <time>2025-02-26T14:42:13Z</time>
      </trkpt>
      <trkpt lat="48.01991" lon="-3.47233">
        <ele>62.7</ele>
        <time>2025-02-26T14:42:14Z</time>
      </trkpt>
      <trkpt lat="48.0199" lon="-3.47235">
        <ele>62.8</ele>
        <time>2025-02-26T14:42:15Z</time>
      </trkpt>
      <trkpt lat="48.01989" lon="-3.47235">
        <ele>62.9</ele>
        <time>2025-02-26T14:42:16Z</time>
      </trkpt>
      <trkpt lat="48.01988" lon="-3.47235">
        <ele>62.9</ele>
        <time>2025-02-26T14:42:17Z</time>
      </trkpt>
      <trkpt lat="48.01987" lon="-3.47234">
        <ele>62.9</ele>
        <time>2025-02-26T14:42:18Z</time>
      </trkpt>
      <trkpt lat="48.01986" lon="-3.47234">
        <ele>62.9</ele>
        <time>2025-02-26T14:42:19Z</time>
      </trkpt>
      <trkpt lat="48.01985" lon="-3.47234">
        <ele>63</ele>
        <time>2025-02-26T14:42:20Z</time>
      </trkpt>
      <trkpt lat="48.01984" lon="-3.47235">
        <ele>63.1</ele>
        <time>2025-02-26T14:42:21Z</time>
      </trkpt>
      <trkpt lat="48.01983" lon="-3.47236">
        <ele>63.1</ele>
        <time>2025-02-26T14:42:22Z</time>
      </trkpt>
      <trkpt lat="48.01982" lon="-3.47237">
        <ele>63.2</ele>
        <time>2025-02-26T14:42:23Z</time>
      </trkpt>
      <trkpt lat="48.01981" lon="-3.47238">
        <ele>63.2</ele>
        <time>2025-02-26T14:42:24Z</time>
      </trkpt>
      <trkpt lat="48.01981" lon="-3.4724">
        <ele>63.3</ele>
        <time>2025-02-26T14:42:25Z</time>
      </trkpt>
      <trkpt lat="48.01981" lon="-3.47241">
        <ele>63.4</ele>
        <time>2025-02-26T14:42:26Z</time>
      </trkpt>
      <trkpt lat="48.0198" lon="-3.47243">
        <ele>63.4</ele>
        <time>2025-02-26T14:42:27Z</time>
      </trkpt>
      <trkpt lat="48.0198" lon="-3.47244">
        <ele>63.5</ele>
        <time>2025-02-26T14:42:28Z</time>
      </trkpt>
      <trkpt lat="48.01979" lon="-3.47245">
        <ele>63.6</ele>
        <time>2025-02-26T14:42:29Z</time>
      </trkpt>
      <trkpt lat="48.01979" lon="-3.47246">
        <ele>63.6</ele>
        <time>2025-02-26T14:42:30Z</time>
      </trkpt>
      <trkpt lat="48.01979" lon="-3.47248">
        <ele>63.7</ele>
        <time>2025-02-26T14:42:31Z</time>
      </trkpt>
      <trkpt lat="48.01978" lon="-3.4725">
        <ele>63.8</ele>
        <time>2025-02-26T14:42:32Z</time>
      </trkpt>
      <trkpt lat="48.01978" lon="-3.47251">
        <ele>63.8</ele>
        <time>2025-02-26T14:42:33Z</time>
      </trkpt>
      <trkpt lat="48.01978" lon="-3.47253">
        <ele>63.9</ele>
        <time>2025-02-26T14:42:34Z</time>
      </trkpt>
      <trkpt lat="48.01977" lon="-3.47254">
        <ele>64</ele>
        <time>2025-02-26T14:42:35Z</time>
      </trkpt>
      <trkpt lat="48.01977" lon="-3.47256">
        <ele>64</ele>
        <time>2025-02-26T14:42:36Z</time>
      </trkpt>
      <trkpt lat="48.01976" lon="-3.47257">
        <ele>64.1</ele>
        <time>2025-02-26T14:42:37Z</time>
      </trkpt>
      <trkpt lat="48.01976" lon="-3.47259">
        <ele>64.2</ele>
        <time>2025-02-26T14:42:38Z</time>
      </trkpt>
      <trkpt lat="48.01975" lon="-3.4726">
        <ele>64.2</ele>
        <time>2025-02-26T14:42:39Z</time>
      </trkpt>
      <trkpt lat="48.01975" lon="-3.47261">
        <ele>64.3</ele>
        <time>2025-02-26T14:42:40Z</time>
      </trkpt>
      <trkpt lat="48.01974" lon="-3.47262">
        <ele>64.4</ele>
        <time>2025-02-26T14:42:41Z</time>
      </trkpt>
      <trkpt lat="48.01973" lon="-3.47263">
        <ele>64.4</ele>
        <time>2025-02-26T14:42:42Z</time>
      </trkpt>
      <trkpt lat="48.01973" lon="-3.47265">
        <ele>64.5</ele>
        <time>2025-02-26T14:42:43Z</time>
      </trkpt>
      <trkpt lat="48.01972" lon="-3.47266">
        <ele>64.6</ele>
        <time>2025-02-26T14:42:44Z</time>
      </trkpt>
      <trkpt lat="48.01972" lon="-3.47268">
        <ele>64.7</ele>
        <time>2025-02-26T14:42:45Z</time>
      </trkpt>
      <trkpt lat="48.01971" lon="-3.47269">
        <ele>64.7</ele>
        <time>2025-02-26T14:42:46Z</time>
      </trkpt>
      <trkpt lat="48.0197" lon="-3.47269">
        <ele>64.8</ele>
        <time>2025-02-26T14:42:47Z</time>
      </trkpt>
      <trkpt lat="48.0197" lon="-3.4727">
        <ele>64.8</ele>
        <time>2025-02-26T14:42:48Z</time>
      </trkpt>
      <trkpt lat="48.01969" lon="-3.47271">
        <ele>64.9</ele>
        <time>2025-02-26T14:42:49Z</time>
      </trkpt>
      <trkpt lat="48.01968" lon="-3.47272">
        <ele>64.9</ele>
        <time>2025-02-26T14:42:50Z</time>
      </trkpt>
      <trkpt lat="48.01968" lon="-3.47273">
        <ele>65</ele>
        <time>2025-02-26T14:42:51Z</time>
      </trkpt>
      <trkpt lat="48.01967" lon="-3.47273">
        <ele>65</ele>
        <time>2025-02-26T14:42:52Z</time>
      </trkpt>
      <trkpt lat="48.01966" lon="-3.47274">
        <ele>65.1</ele>
        <time>2025-02-26T14:42:53Z</time>
      </trkpt>
      <trkpt lat="48.01965" lon="-3.47275">
        <ele>65.2</ele>
        <time>2025-02-26T14:42:54Z</time>
      </trkpt>
      <trkpt lat="48.01963" lon="-3.47277">
        <ele>65.3</ele>
        <time>2025-02-26T14:42:55Z</time>
      </trkpt>
      <trkpt lat="48.01961" lon="-3.47278">
        <ele>65.4</ele>
        <time>2025-02-26T14:42:56Z</time>
      </trkpt>
      <trkpt lat="48.0196" lon="-3.4728">
        <ele>65.5</ele>
        <time>2025-02-26T14:42:57Z</time>
      </trkpt>
      <trkpt lat="48.01958" lon="-3.47282">
        <ele>65.6</ele>
        <time>2025-02-26T14:42:58Z</time>
      </trkpt>
      <trkpt lat="48.01957" lon="-3.47283">
        <ele>65.7</ele>
        <time>2025-02-26T14:42:59Z</time>
      </trkpt>
      <trkpt lat="48.01956" lon="-3.47283">
        <ele>65.8</ele>
        <time>2025-02-26T14:43:00Z</time>
      </trkpt>
      <trkpt lat="48.01955" lon="-3.47285">
        <ele>65.9</ele>
        <time>2025-02-26T14:43:01Z</time>
      </trkpt>
      <trkpt lat="48.01955" lon="-3.47286">
        <ele>65.9</ele>
        <time>2025-02-26T14:43:02Z</time>
      </trkpt>
      <trkpt lat="48.01955" lon="-3.47288">
        <ele>66</ele>
        <time>2025-02-26T14:43:03Z</time>
      </trkpt>
      <trkpt lat="48.01955" lon="-3.4729">
        <ele>66.1</ele>
        <time>2025-02-26T14:43:04Z</time>
      </trkpt>
      <trkpt lat="48.01956" lon="-3.47292">
        <ele>66.1</ele>
        <time>2025-02-26T14:43:05Z</time>
      </trkpt>
      <trkpt lat="48.01956" lon="-3.47293">
        <ele>66.1</ele>
        <time>2025-02-26T14:43:06Z</time>
      </trkpt>
      <trkpt lat="48.01956" lon="-3.47295">
        <ele>66.2</ele>
        <time>2025-02-26T14:43:07Z</time>
      </trkpt>
      <trkpt lat="48.01956" lon="-3.47297">
        <ele>66.3</ele>
        <time>2025-02-26T14:43:08Z</time>
      </trkpt>
      <trkpt lat="48.01957" lon="-3.47298">
        <ele>66.3</ele>
        <time>2025-02-26T14:43:09Z</time>
      </trkpt>
      <trkpt lat="48.01956" lon="-3.47299">
        <ele>66.3</ele>
        <time>2025-02-26T14:43:10Z</time>
      </trkpt>
      <trkpt lat="48.01956" lon="-3.473">
        <ele>66.4</ele>
        <time>2025-02-26T14:43:11Z</time>
      </trkpt>
      <trkpt lat="48.01955" lon="-3.47301">
        <ele>66.5</ele>
        <time>2025-02-26T14:43:12Z</time>
      </trkpt>
      <trkpt lat="48.01955" lon="-3.47303">
        <ele>66.5</ele>
        <time>2025-02-26T14:43:13Z</time>
      </trkpt>
      <trkpt lat="48.01954" lon="-3.47303">
        <ele>66.6</ele>
        <time>2025-02-26T14:43:14Z</time>
      </trkpt>
      <trkpt lat="48.01953" lon="-3.47304">
        <ele>66.6</ele>
        <time>2025-02-26T14:43:15Z</time>
      </trkpt>
      <trkpt lat="48.01952" lon="-3.47305">
        <ele>66.7</ele>
        <time>2025-02-26T14:43:16Z</time>
      </trkpt>
      <trkpt lat="48.01952" lon="-3.47306">
        <ele>66.7</ele>
        <time>2025-02-26T14:43:17Z</time>
      </trkpt>
      <trkpt lat="48.01951" lon="-3.47307">
        <ele>66.8</ele>
        <time>2025-02-26T14:43:18Z</time>
      </trkpt>
      <trkpt lat="48.0195" lon="-3.47308">
        <ele>66.8</ele>
        <time>2025-02-26T14:43:19Z</time>
      </trkpt>
      <trkpt lat="48.01949" lon="-3.47308">
        <ele>66.8</ele>
        <time>2025-02-26T14:43:20Z</time>
      </trkpt>
      <trkpt lat="48.01948" lon="-3.47309">
        <ele>66.9</ele>
        <time>2025-02-26T14:43:21Z</time>
      </trkpt>
      <trkpt lat="48.01947" lon="-3.47309">
        <ele>66.9</ele>
        <time>2025-02-26T14:43:22Z</time>
      </trkpt>
      <trkpt lat="48.01946" lon="-3.47309">
        <ele>66.9</ele>
        <time>2025-02-26T14:43:23Z</time>
      </trkpt>
      <trkpt lat="48.01945" lon="-3.47311">
        <ele>67</ele>
        <time>2025-02-26T14:43:24Z</time>
      </trkpt>
      <trkpt lat="48.01944" lon="-3.47312">
        <ele>67</ele>
        <time>2025-02-26T14:43:25Z</time>
      </trkpt>
      <trkpt lat="48.01943" lon="-3.47312">
        <ele>67</ele>
        <time>2025-02-26T14:43:26Z</time>
      </trkpt>
      <trkpt lat="48.01942" lon="-3.47313">
        <ele>67.1</ele>
        <time>2025-02-26T14:43:27Z</time>
      </trkpt>
      <trkpt lat="48.01942" lon="-3.47314">
        <ele>67.1</ele>
        <time>2025-02-26T14:43:28Z</time>
      </trkpt>
      <trkpt lat="48.01941" lon="-3.47314">
        <ele>67.1</ele>
        <time>2025-02-26T14:43:29Z</time>
      </trkpt>
      <trkpt lat="48.0194" lon="-3.47315">
        <ele>67.2</ele>
        <time>2025-02-26T14:43:30Z</time>
      </trkpt>
      <trkpt lat="48.01939" lon="-3.47315">
        <ele>67.2</ele>
        <time>2025-02-26T14:43:31Z</time>
      </trkpt>
      <trkpt lat="48.01938" lon="-3.47315">
        <ele>67.2</ele>
        <time>2025-02-26T14:43:32Z</time>
      </trkpt>
      <trkpt lat="48.01937" lon="-3.47315">
        <ele>67.3</ele>
        <time>2025-02-26T14:43:33Z</time>
      </trkpt>
      <trkpt lat="48.01936" lon="-3.47315">
        <ele>67.3</ele>
        <time>2025-02-26T14:43:34Z</time>
      </trkpt>
      <trkpt lat="48.01935" lon="-3.47315">
        <ele>67.4</ele>
        <time>2025-02-26T14:43:35Z</time>
      </trkpt>
      <trkpt lat="48.01934" lon="-3.47316">
        <ele>67.4</ele>
        <time>2025-02-26T14:43:36Z</time>
      </trkpt>
      <trkpt lat="48.01933" lon="-3.47316">
        <ele>67.4</ele>
        <time>2025-02-26T14:43:37Z</time>
      </trkpt>
      <trkpt lat="48.01932" lon="-3.47318">
        <ele>67.5</ele>
        <time>2025-02-26T14:43:38Z</time>
      </trkpt>
      <trkpt lat="48.0193" lon="-3.47319">
        <ele>67.5</ele>
        <time>2025-02-26T14:43:39Z</time>
      </trkpt>
      <trkpt lat="48.01929" lon="-3.4732">
        <ele>67.6</ele>
        <time>2025-02-26T14:43:40Z</time>
      </trkpt>
      <trkpt lat="48.01928" lon="-3.47322">
        <ele>67.6</ele>
        <time>2025-02-26T14:43:41Z</time>
      </trkpt>
      <trkpt lat="48.01926" lon="-3.47323">
        <ele>67.7</ele>
        <time>2025-02-26T14:43:42Z</time>
      </trkpt>
      <trkpt lat="48.01925" lon="-3.47323">
        <ele>67.7</ele>
        <time>2025-02-26T14:43:43Z</time>
      </trkpt>
      <trkpt lat="48.01924" lon="-3.47324">
        <ele>67.7</ele>
        <time>2025-02-26T14:43:44Z</time>
      </trkpt>
      <trkpt lat="48.01923" lon="-3.47326">
        <ele>67.8</ele>
        <time>2025-02-26T14:43:45Z</time>
      </trkpt>
      <trkpt lat="48.01922" lon="-3.47327">
        <ele>67.8</ele>
        <time>2025-02-26T14:43:46Z</time>
      </trkpt>
      <trkpt lat="48.01921" lon="-3.47328">
        <ele>67.8</ele>
        <time>2025-02-26T14:43:47Z</time>
      </trkpt>
      <trkpt lat="48.0192" lon="-3.47329">
        <ele>67.9</ele>
        <time>2025-02-26T14:43:48Z</time>
      </trkpt>
      <trkpt lat="48.0192" lon="-3.4733">
        <ele>67.9</ele>
        <time>2025-02-26T14:43:49Z</time>
      </trkpt>
      <trkpt lat="48.01919" lon="-3.47331">
        <ele>67.9</ele>
        <time>2025-02-26T14:43:50Z</time>
      </trkpt>
      <trkpt lat="48.01918" lon="-3.47332">
        <ele>67.9</ele>
        <time>2025-02-26T14:43:51Z</time>
      </trkpt>
      <trkpt lat="48.01917" lon="-3.47332">
        <ele>68</ele>
        <time>2025-02-26T14:43:52Z</time>
      </trkpt>
      <trkpt lat="48.01916" lon="-3.47333">
        <ele>68</ele>
        <time>2025-02-26T14:43:53Z</time>
      </trkpt>
      <trkpt lat="48.01916" lon="-3.47335">
        <ele>68</ele>
        <time>2025-02-26T14:43:54Z</time>
      </trkpt>
      <trkpt lat="48.01915" lon="-3.47336">
        <ele>68.1</ele>
        <time>2025-02-26T14:43:55Z</time>
      </trkpt>
      <trkpt lat="48.01914" lon="-3.47337">
        <ele>68.1</ele>
        <time>2025-02-26T14:43:56Z</time>
      </trkpt>
      <trkpt lat="48.01913" lon="-3.47337">
        <ele>68.2</ele>
        <time>2025-02-26T14:43:57Z</time>
      </trkpt>
      <trkpt lat="48.01912" lon="-3.47338">
        <ele>68.2</ele>
        <time>2025-02-26T14:43:58Z</time>
      </trkpt>
      <trkpt lat="48.01911" lon="-3.47338">
        <ele>68.2</ele>
        <time>2025-02-26T14:43:59Z</time>
      </trkpt>
      <trkpt lat="48.0191" lon="-3.47339">
        <ele>68.3</ele>
        <time>2025-02-26T14:44:00Z</time>
      </trkpt>
      <trkpt lat="48.01909" lon="-3.4734">
        <ele>68.3</ele>
        <time>2025-02-26T14:44:01Z</time>
      </trkpt>
      <trkpt lat="48.01909" lon="-3.47341">
        <ele>68.4</ele>
        <time>2025-02-26T14:44:02Z</time>
      </trkpt>
      <trkpt lat="48.01908" lon="-3.47342">
        <ele>68.4</ele>
        <time>2025-02-26T14:44:03Z</time>
      </trkpt>
      <trkpt lat="48.01907" lon="-3.47343">
        <ele>68.5</ele>
        <time>2025-02-26T14:44:04Z</time>
      </trkpt>
      <trkpt lat="48.01906" lon="-3.47344">
        <ele>68.5</ele>
        <time>2025-02-26T14:44:05Z</time>
      </trkpt>
      <trkpt lat="48.01905" lon="-3.47344">
        <ele>68.6</ele>
        <time>2025-02-26T14:44:06Z</time>
      </trkpt>
      <trkpt lat="48.01904" lon="-3.47345">
        <ele>68.6</ele>
        <time>2025-02-26T14:44:07Z</time>
      </trkpt>
      <trkpt lat="48.01903" lon="-3.47346">
        <ele>68.7</ele>
        <time>2025-02-26T14:44:08Z</time>
      </trkpt>
      <trkpt lat="48.01903" lon="-3.47346">
        <ele>68.7</ele>
        <time>2025-02-26T14:44:09Z</time>
      </trkpt>
      <trkpt lat="48.01902" lon="-3.47347">
        <ele>68.8</ele>
        <time>2025-02-26T14:44:10Z</time>
      </trkpt>
      <trkpt lat="48.01901" lon="-3.47348">
        <ele>68.9</ele>
        <time>2025-02-26T14:44:11Z</time>
      </trkpt>
      <trkpt lat="48.019" lon="-3.47348">
        <ele>68.9</ele>
        <time>2025-02-26T14:44:12Z</time>
      </trkpt>
      <trkpt lat="48.019" lon="-3.47349">
        <ele>69</ele>
        <time>2025-02-26T14:44:13Z</time>
      </trkpt>
      <trkpt lat="48.01899" lon="-3.4735">
        <ele>69</ele>
        <time>2025-02-26T14:44:14Z</time>
      </trkpt>
      <trkpt lat="48.01898" lon="-3.47351">
        <ele>69.1</ele>
        <time>2025-02-26T14:44:15Z</time>
      </trkpt>
      <trkpt lat="48.01897" lon="-3.47351">
        <ele>69.1</ele>
        <time>2025-02-26T14:44:16Z</time>
      </trkpt>
      <trkpt lat="48.01897" lon="-3.47353">
        <ele>69.2</ele>
        <time>2025-02-26T14:44:17Z</time>
      </trkpt>
      <trkpt lat="48.01896" lon="-3.47354">
        <ele>69.3</ele>
        <time>2025-02-26T14:44:18Z</time>
      </trkpt>
      <trkpt lat="48.01895" lon="-3.47355">
        <ele>69.4</ele>
        <time>2025-02-26T14:44:19Z</time>
      </trkpt>
      <trkpt lat="48.01894" lon="-3.47355">
        <ele>69.4</ele>
        <time>2025-02-26T14:44:20Z</time>
      </trkpt>
      <trkpt lat="48.01894" lon="-3.47356">
        <ele>69.5</ele>
        <time>2025-02-26T14:44:21Z</time>
      </trkpt>
      <trkpt lat="48.01893" lon="-3.47356">
        <ele>69.6</ele>
        <time>2025-02-26T14:44:22Z</time>
      </trkpt>
      <trkpt lat="48.01892" lon="-3.47357">
        <ele>69.6</ele>
        <time>2025-02-26T14:44:23Z</time>
      </trkpt>
      <trkpt lat="48.01891" lon="-3.47358">
        <ele>69.7</ele>
        <time>2025-02-26T14:44:24Z</time>
      </trkpt>
      <trkpt lat="48.0189" lon="-3.47358">
        <ele>69.8</ele>
        <time>2025-02-26T14:44:25Z</time>
      </trkpt>
      <trkpt lat="48.01889" lon="-3.47358">
        <ele>69.9</ele>
        <time>2025-02-26T14:44:26Z</time>
      </trkpt>
      <trkpt lat="48.01889" lon="-3.47358">
        <ele>69.9</ele>
        <time>2025-02-26T14:44:27Z</time>
      </trkpt>
      <trkpt lat="48.01888" lon="-3.4736">
        <ele>70</ele>
        <time>2025-02-26T14:44:28Z</time>
      </trkpt>
      <trkpt lat="48.01887" lon="-3.47361">
        <ele>70.1</ele>
        <time>2025-02-26T14:44:29Z</time>
      </trkpt>
      <trkpt lat="48.01886" lon="-3.47362">
        <ele>70.1</ele>
        <time>2025-02-26T14:44:30Z</time>
      </trkpt>
      <trkpt lat="48.01885" lon="-3.47362">
        <ele>70.1</ele>
        <time>2025-02-26T14:44:31Z</time>
      </trkpt>
      <trkpt lat="48.01884" lon="-3.47362">
        <ele>70.2</ele>
        <time>2025-02-26T14:44:32Z</time>
      </trkpt>
      <trkpt lat="48.01883" lon="-3.47362">
        <ele>70.2</ele>
        <time>2025-02-26T14:44:33Z</time>
      </trkpt>
      <trkpt lat="48.01883" lon="-3.47363">
        <ele>70.3</ele>
        <time>2025-02-26T14:44:34Z</time>
      </trkpt>
      <trkpt lat="48.01882" lon="-3.47363">
        <ele>70.3</ele>
        <time>2025-02-26T14:44:35Z</time>
      </trkpt>
      <trkpt lat="48.01881" lon="-3.47364">
        <ele>70.3</ele>
        <time>2025-02-26T14:44:36Z</time>
      </trkpt>
      <trkpt lat="48.0188" lon="-3.47364">
        <ele>70.4</ele>
        <time>2025-02-26T14:44:37Z</time>
      </trkpt>
      <trkpt lat="48.01879" lon="-3.47364">
        <ele>70.4</ele>
        <time>2025-02-26T14:44:38Z</time>
      </trkpt>
      <trkpt lat="48.01878" lon="-3.47363">
        <ele>70.4</ele>
        <time>2025-02-26T14:44:39Z</time>
      </trkpt>
      <trkpt lat="48.01878" lon="-3.47362">
        <ele>70.4</ele>
        <time>2025-02-26T14:44:40Z</time>
      </trkpt>
      <trkpt lat="48.01877" lon="-3.4736">
        <ele>70.4</ele>
        <time>2025-02-26T14:44:41Z</time>
      </trkpt>
      <trkpt lat="48.01877" lon="-3.47359">
        <ele>70.4</ele>
        <time>2025-02-26T14:44:42Z</time>
      </trkpt>
      <trkpt lat="48.01876" lon="-3.47357">
        <ele>70.3</ele>
        <time>2025-02-26T14:44:43Z</time>
      </trkpt>
      <trkpt lat="48.01876" lon="-3.47356">
        <ele>70.3</ele>
        <time>2025-02-26T14:44:44Z</time>
      </trkpt>
      <trkpt lat="48.01875" lon="-3.47355">
        <ele>70.3</ele>
        <time>2025-02-26T14:44:45Z</time>
      </trkpt>
      <trkpt lat="48.01874" lon="-3.47353">
        <ele>70.2</ele>
        <time>2025-02-26T14:44:46Z</time>
      </trkpt>
      <trkpt lat="48.01874" lon="-3.47352">
        <ele>70.2</ele>
        <time>2025-02-26T14:44:47Z</time>
      </trkpt>
      <trkpt lat="48.01874" lon="-3.4735">
        <ele>70.2</ele>
        <time>2025-02-26T14:44:48Z</time>
      </trkpt>
      <trkpt lat="48.01873" lon="-3.47349">
        <ele>70.1</ele>
        <time>2025-02-26T14:44:49Z</time>
      </trkpt>
      <trkpt lat="48.01872" lon="-3.47348">
        <ele>70.1</ele>
        <time>2025-02-26T14:44:50Z</time>
      </trkpt>
      <trkpt lat="48.01871" lon="-3.47348">
        <ele>70.2</ele>
        <time>2025-02-26T14:44:51Z</time>
      </trkpt>
      <trkpt lat="48.0187" lon="-3.47348">
        <ele>70.2</ele>
        <time>2025-02-26T14:44:52Z</time>
      </trkpt>
      <trkpt lat="48.0187" lon="-3.47349">
        <ele>70.3</ele>
        <time>2025-02-26T14:44:53Z</time>
      </trkpt>
      <trkpt lat="48.01869" lon="-3.4735">
        <ele>70.3</ele>
        <time>2025-02-26T14:44:54Z</time>
      </trkpt>
      <trkpt lat="48.01869" lon="-3.47352">
        <ele>70.4</ele>
        <time>2025-02-26T14:44:55Z</time>
      </trkpt>
      <trkpt lat="48.0187" lon="-3.47353">
        <ele>70.4</ele>
        <time>2025-02-26T14:44:56Z</time>
      </trkpt>
      <trkpt lat="48.0187" lon="-3.47355">
        <ele>70.4</ele>
        <time>2025-02-26T14:44:57Z</time>
      </trkpt>
      <trkpt lat="48.0187" lon="-3.47356">
        <ele>70.5</ele>
        <time>2025-02-26T14:44:58Z</time>
      </trkpt>
      <trkpt lat="48.0187" lon="-3.47357">
        <ele>70.5</ele>
        <time>2025-02-26T14:44:59Z</time>
      </trkpt>
      <trkpt lat="48.0187" lon="-3.47359">
        <ele>70.6</ele>
        <time>2025-02-26T14:45:00Z</time>
      </trkpt>
      <trkpt lat="48.0187" lon="-3.4736">
        <ele>70.6</ele>
        <time>2025-02-26T14:45:01Z</time>
      </trkpt>
      <trkpt lat="48.01869" lon="-3.47361">
        <ele>70.7</ele>
        <time>2025-02-26T14:45:02Z</time>
      </trkpt>
      <trkpt lat="48.01868" lon="-3.47362">
        <ele>70.8</ele>
        <time>2025-02-26T14:45:03Z</time>
      </trkpt>
      <trkpt lat="48.01868" lon="-3.47363">
        <ele>70.9</ele>
        <time>2025-02-26T14:45:04Z</time>
      </trkpt>
      <trkpt lat="48.01867" lon="-3.47364">
        <ele>70.9</ele>
        <time>2025-02-26T14:45:05Z</time>
      </trkpt>
      <trkpt lat="48.01867" lon="-3.47366">
        <ele>71</ele>
        <time>2025-02-26T14:45:06Z</time>
      </trkpt>
      <trkpt lat="48.01866" lon="-3.47367">
        <ele>71.1</ele>
        <time>2025-02-26T14:45:07Z</time>
      </trkpt>
      <trkpt lat="48.01865" lon="-3.47367">
        <ele>71.2</ele>
        <time>2025-02-26T14:45:08Z</time>
      </trkpt>
      <trkpt lat="48.01864" lon="-3.47368">
        <ele>71.3</ele>
        <time>2025-02-26T14:45:09Z</time>
      </trkpt>
      <trkpt lat="48.01863" lon="-3.47369">
        <ele>71.5</ele>
        <time>2025-02-26T14:45:10Z</time>
      </trkpt>
      <trkpt lat="48.01862" lon="-3.4737">
        <ele>71.5</ele>
        <time>2025-02-26T14:45:11Z</time>
      </trkpt>
      <trkpt lat="48.01861" lon="-3.47371">
        <ele>71.7</ele>
        <time>2025-02-26T14:45:12Z</time>
      </trkpt>
      <trkpt lat="48.0186" lon="-3.4737">
        <ele>72</ele>
        <time>2025-02-26T14:45:13Z</time>
      </trkpt>
      <trkpt lat="48.01859" lon="-3.4737">
        <ele>72.4</ele>
        <time>2025-02-26T14:45:14Z</time>
      </trkpt>
      <trkpt lat="48.01858" lon="-3.4737">
        <ele>72.7</ele>
        <time>2025-02-26T14:45:15Z</time>
      </trkpt>
      <trkpt lat="48.01857" lon="-3.4737">
        <ele>73.3</ele>
        <time>2025-02-26T14:45:16Z</time>
      </trkpt>
      <trkpt lat="48.01856" lon="-3.47371">
        <ele>73.7</ele>
        <time>2025-02-26T14:45:17Z</time>
      </trkpt>
      <trkpt lat="48.01855" lon="-3.47372">
        <ele>74</ele>
        <time>2025-02-26T14:45:18Z</time>
      </trkpt>
      <trkpt lat="48.01855" lon="-3.47373">
        <ele>74.3</ele>
        <time>2025-02-26T14:45:19Z</time>
      </trkpt>
      <trkpt lat="48.01855" lon="-3.47374">
        <ele>74.4</ele>
        <time>2025-02-26T14:45:20Z</time>
      </trkpt>
      <trkpt lat="48.01855" lon="-3.47375">
        <ele>74.5</ele>
        <time>2025-02-26T14:45:21Z</time>
      </trkpt>
      <trkpt lat="48.01855" lon="-3.47377">
        <ele>74.6</ele>
        <time>2025-02-26T14:45:22Z</time>
      </trkpt>
      <trkpt lat="48.01855" lon="-3.47378">
        <ele>74.6</ele>
        <time>2025-02-26T14:45:23Z</time>
      </trkpt>
      <trkpt lat="48.01855" lon="-3.4738">
        <ele>74.5</ele>
        <time>2025-02-26T14:45:24Z</time>
      </trkpt>
      <trkpt lat="48.01856" lon="-3.47381">
        <ele>74.3</ele>
        <time>2025-02-26T14:45:25Z</time>
      </trkpt>
      <trkpt lat="48.01857" lon="-3.47383">
        <ele>74.2</ele>
        <time>2025-02-26T14:45:26Z</time>
      </trkpt>
      <trkpt lat="48.01857" lon="-3.47384">
        <ele>74.1</ele>
        <time>2025-02-26T14:45:27Z</time>
      </trkpt>
      <trkpt lat="48.01858" lon="-3.47384">
        <ele>73.8</ele>
        <time>2025-02-26T14:45:28Z</time>
      </trkpt>
      <trkpt lat="48.01859" lon="-3.47385">
        <ele>73.6</ele>
        <time>2025-02-26T14:45:29Z</time>
      </trkpt>
      <trkpt lat="48.01859" lon="-3.47386">
        <ele>73.5</ele>
        <time>2025-02-26T14:45:30Z</time>
      </trkpt>
      <trkpt lat="48.0186" lon="-3.47388">
        <ele>73.4</ele>
        <time>2025-02-26T14:45:31Z</time>
      </trkpt>
      <trkpt lat="48.0186" lon="-3.47389">
        <ele>73.6</ele>
        <time>2025-02-26T14:45:32Z</time>
      </trkpt>
      <trkpt lat="48.01859" lon="-3.47391">
        <ele>73.7</ele>
        <time>2025-02-26T14:45:33Z</time>
      </trkpt>
      <trkpt lat="48.0186" lon="-3.47392">
        <ele>73.7</ele>
        <time>2025-02-26T14:45:34Z</time>
      </trkpt>
      <trkpt lat="48.0186" lon="-3.47394">
        <ele>73.6</ele>
        <time>2025-02-26T14:45:35Z</time>
      </trkpt>
      <trkpt lat="48.01861" lon="-3.47395">
        <ele>73.4</ele>
        <time>2025-02-26T14:45:36Z</time>
      </trkpt>
      <trkpt lat="48.01861" lon="-3.47397">
        <ele>73.3</ele>
        <time>2025-02-26T14:45:37Z</time>
      </trkpt>
      <trkpt lat="48.01861" lon="-3.47399">
        <ele>73.5</ele>
        <time>2025-02-26T14:45:38Z</time>
      </trkpt>
      <trkpt lat="48.01861" lon="-3.47401">
        <ele>73.4</ele>
        <time>2025-02-26T14:45:39Z</time>
      </trkpt>
      <trkpt lat="48.01863" lon="-3.47402">
        <ele>73.3</ele>
        <time>2025-02-26T14:45:40Z</time>
      </trkpt>
      <trkpt lat="48.01863" lon="-3.47404">
        <ele>73.4</ele>
        <time>2025-02-26T14:45:41Z</time>
      </trkpt>
      <trkpt lat="48.01863" lon="-3.47406">
        <ele>73.5</ele>
        <time>2025-02-26T14:45:42Z</time>
      </trkpt>
      <trkpt lat="48.01862" lon="-3.47408">
        <ele>73.6</ele>
        <time>2025-02-26T14:45:43Z</time>
      </trkpt>
      <trkpt lat="48.01863" lon="-3.4741">
        <ele>73.6</ele>
        <time>2025-02-26T14:45:44Z</time>
      </trkpt>
      <trkpt lat="48.01863" lon="-3.47411">
        <ele>73.7</ele>
        <time>2025-02-26T14:45:45Z</time>
      </trkpt>
      <trkpt lat="48.01864" lon="-3.47413">
        <ele>73.6</ele>
        <time>2025-02-26T14:45:46Z</time>
      </trkpt>
      <trkpt lat="48.01865" lon="-3.47414">
        <ele>73.6</ele>
        <time>2025-02-26T14:45:47Z</time>
      </trkpt>
      <trkpt lat="48.01866" lon="-3.47416">
        <ele>73.6</ele>
        <time>2025-02-26T14:45:48Z</time>
      </trkpt>
      <trkpt lat="48.01866" lon="-3.47417">
        <ele>73.7</ele>
        <time>2025-02-26T14:45:49Z</time>
      </trkpt>
      <trkpt lat="48.01866" lon="-3.47419">
        <ele>73.8</ele>
        <time>2025-02-26T14:45:50Z</time>
      </trkpt>
      <trkpt lat="48.01866" lon="-3.4742">
        <ele>73.8</ele>
        <time>2025-02-26T14:45:51Z</time>
      </trkpt>
      <trkpt lat="48.01866" lon="-3.47422">
        <ele>73.8</ele>
        <time>2025-02-26T14:45:52Z</time>
      </trkpt>
      <trkpt lat="48.01867" lon="-3.47423">
        <ele>73.8</ele>
        <time>2025-02-26T14:45:53Z</time>
      </trkpt>
      <trkpt lat="48.01867" lon="-3.47425">
        <ele>73.8</ele>
        <time>2025-02-26T14:45:54Z</time>
      </trkpt>
      <trkpt lat="48.01868" lon="-3.47426">
        <ele>73.8</ele>
        <time>2025-02-26T14:45:55Z</time>
      </trkpt>
      <trkpt lat="48.01868" lon="-3.47427">
        <ele>73.8</ele>
        <time>2025-02-26T14:45:56Z</time>
      </trkpt>
      <trkpt lat="48.01869" lon="-3.47429">
        <ele>73.8</ele>
        <time>2025-02-26T14:45:57Z</time>
      </trkpt>
      <trkpt lat="48.01869" lon="-3.4743">
        <ele>73.8</ele>
        <time>2025-02-26T14:45:58Z</time>
      </trkpt>
      <trkpt lat="48.0187" lon="-3.47432">
        <ele>73.8</ele>
        <time>2025-02-26T14:45:59Z</time>
      </trkpt>
      <trkpt lat="48.0187" lon="-3.47434">
        <ele>73.8</ele>
        <time>2025-02-26T14:46:00Z</time>
      </trkpt>
      <trkpt lat="48.0187" lon="-3.47436">
        <ele>73.9</ele>
        <time>2025-02-26T14:46:01Z</time>
      </trkpt>
      <trkpt lat="48.01869" lon="-3.47438">
        <ele>73.9</ele>
        <time>2025-02-26T14:46:02Z</time>
      </trkpt>
      <trkpt lat="48.01869" lon="-3.47439">
        <ele>74</ele>
        <time>2025-02-26T14:46:03Z</time>
      </trkpt>
      <trkpt lat="48.0187" lon="-3.47441">
        <ele>74</ele>
        <time>2025-02-26T14:46:04Z</time>
      </trkpt>
      <trkpt lat="48.0187" lon="-3.47442">
        <ele>74</ele>
        <time>2025-02-26T14:46:05Z</time>
      </trkpt>
      <trkpt lat="48.01871" lon="-3.47443">
        <ele>73.9</ele>
        <time>2025-02-26T14:46:06Z</time>
      </trkpt>
      <trkpt lat="48.01871" lon="-3.47444">
        <ele>73.9</ele>
        <time>2025-02-26T14:46:07Z</time>
      </trkpt>
      <trkpt lat="48.01871" lon="-3.47445">
        <ele>73.9</ele>
        <time>2025-02-26T14:46:08Z</time>
      </trkpt>
      <trkpt lat="48.01871" lon="-3.47446">
        <ele>74</ele>
        <time>2025-02-26T14:46:09Z</time>
      </trkpt>
      <trkpt lat="48.0187" lon="-3.47448">
        <ele>74.1</ele>
        <time>2025-02-26T14:46:10Z</time>
      </trkpt>
      <trkpt lat="48.0187" lon="-3.47449">
        <ele>74.3</ele>
        <time>2025-02-26T14:46:11Z</time>
      </trkpt>
      <trkpt lat="48.01869" lon="-3.47451">
        <ele>74.4</ele>
        <time>2025-02-26T14:46:12Z</time>
      </trkpt>
      <trkpt lat="48.01869" lon="-3.47452">
        <ele>74.5</ele>
        <time>2025-02-26T14:46:13Z</time>
      </trkpt>
      <trkpt lat="48.01868" lon="-3.47454">
        <ele>74.6</ele>
        <time>2025-02-26T14:46:14Z</time>
      </trkpt>
      <trkpt lat="48.01869" lon="-3.47456">
        <ele>74.6</ele>
        <time>2025-02-26T14:46:15Z</time>
      </trkpt>
      <trkpt lat="48.01869" lon="-3.47457">
        <ele>74.6</ele>
        <time>2025-02-26T14:46:16Z</time>
      </trkpt>
      <trkpt lat="48.0187" lon="-3.47457">
        <ele>74.5</ele>
        <time>2025-02-26T14:46:17Z</time>
      </trkpt>
      <trkpt lat="48.01871" lon="-3.47458">
        <ele>74.4</ele>
        <time>2025-02-26T14:46:18Z</time>
      </trkpt>
      <trkpt lat="48.01871" lon="-3.47459">
        <ele>74.4</ele>
        <time>2025-02-26T14:46:19Z</time>
      </trkpt>
      <trkpt lat="48.01871" lon="-3.47461">
        <ele>74.5</ele>
        <time>2025-02-26T14:46:20Z</time>
      </trkpt>
      <trkpt lat="48.01871" lon="-3.47462">
        <ele>74.6</ele>
        <time>2025-02-26T14:46:21Z</time>
      </trkpt>
      <trkpt lat="48.0187" lon="-3.47464">
        <ele>74.7</ele>
        <time>2025-02-26T14:46:22Z</time>
      </trkpt>
      <trkpt lat="48.0187" lon="-3.47466">
        <ele>74.8</ele>
        <time>2025-02-26T14:46:23Z</time>
      </trkpt>
      <trkpt lat="48.0187" lon="-3.47467">
        <ele>74.8</ele>
        <time>2025-02-26T14:46:24Z</time>
      </trkpt>
      <trkpt lat="48.0187" lon="-3.47469">
        <ele>74.9</ele>
        <time>2025-02-26T14:46:25Z</time>
      </trkpt>
      <trkpt lat="48.0187" lon="-3.47471">
        <ele>75</ele>
        <time>2025-02-26T14:46:26Z</time>
      </trkpt>
      <trkpt lat="48.0187" lon="-3.47472">
        <ele>75.1</ele>
        <time>2025-02-26T14:46:27Z</time>
      </trkpt>
      <trkpt lat="48.0187" lon="-3.47474">
        <ele>75.1</ele>
        <time>2025-02-26T14:46:28Z</time>
      </trkpt>
      <trkpt lat="48.01871" lon="-3.47475">
        <ele>75.1</ele>
        <time>2025-02-26T14:46:29Z</time>
      </trkpt>
      <trkpt lat="48.01872" lon="-3.47477">
        <ele>75.1</ele>
        <time>2025-02-26T14:46:30Z</time>
      </trkpt>
      <trkpt lat="48.01873" lon="-3.47478">
        <ele>75.1</ele>
        <time>2025-02-26T14:46:31Z</time>
      </trkpt>
      <trkpt lat="48.01873" lon="-3.4748">
        <ele>75.2</ele>
        <time>2025-02-26T14:46:32Z</time>
      </trkpt>
      <trkpt lat="48.01873" lon="-3.47481">
        <ele>75.2</ele>
        <time>2025-02-26T14:46:33Z</time>
      </trkpt>
      <trkpt lat="48.01873" lon="-3.47482">
        <ele>75.3</ele>
        <time>2025-02-26T14:46:34Z</time>
      </trkpt>
      <trkpt lat="48.01873" lon="-3.47484">
        <ele>75.3</ele>
        <time>2025-02-26T14:46:35Z</time>
      </trkpt>
      <trkpt lat="48.01874" lon="-3.47485">
        <ele>75.3</ele>
        <time>2025-02-26T14:46:36Z</time>
      </trkpt>
      <trkpt lat="48.01874" lon="-3.47487">
        <ele>75.4</ele>
        <time>2025-02-26T14:46:37Z</time>
      </trkpt>
      <trkpt lat="48.01874" lon="-3.47488">
        <ele>75.5</ele>
        <time>2025-02-26T14:46:38Z</time>
      </trkpt>
      <trkpt lat="48.01874" lon="-3.4749">
        <ele>75.6</ele>
        <time>2025-02-26T14:46:39Z</time>
      </trkpt>
      <trkpt lat="48.01875" lon="-3.47491">
        <ele>75.6</ele>
        <time>2025-02-26T14:46:40Z</time>
      </trkpt>
      <trkpt lat="48.01876" lon="-3.47493">
        <ele>75.5</ele>
        <time>2025-02-26T14:46:41Z</time>
      </trkpt>
      <trkpt lat="48.01876" lon="-3.47494">
        <ele>75.6</ele>
        <time>2025-02-26T14:46:42Z</time>
      </trkpt>
      <trkpt lat="48.01876" lon="-3.47496">
        <ele>75.6</ele>
        <time>2025-02-26T14:46:43Z</time>
      </trkpt>
      <trkpt lat="48.01876" lon="-3.47497">
        <ele>75.7</ele>
        <time>2025-02-26T14:46:44Z</time>
      </trkpt>
      <trkpt lat="48.01877" lon="-3.47498">
        <ele>75.6</ele>
        <time>2025-02-26T14:46:45Z</time>
      </trkpt>
      <trkpt lat="48.01878" lon="-3.475">
        <ele>75.6</ele>
        <time>2025-02-26T14:46:46Z</time>
      </trkpt>
      <trkpt lat="48.01878" lon="-3.47501">
        <ele>75.6</ele>
        <time>2025-02-26T14:46:47Z</time>
      </trkpt>
      <trkpt lat="48.01879" lon="-3.47502">
        <ele>75.6</ele>
        <time>2025-02-26T14:46:48Z</time>
      </trkpt>
      <trkpt lat="48.01879" lon="-3.47504">
        <ele>75.6</ele>
        <time>2025-02-26T14:46:49Z</time>
      </trkpt>
      <trkpt lat="48.01879" lon="-3.47505">
        <ele>75.6</ele>
        <time>2025-02-26T14:46:50Z</time>
      </trkpt>
      <trkpt lat="48.0188" lon="-3.47507">
        <ele>75.6</ele>
        <time>2025-02-26T14:46:51Z</time>
      </trkpt>
      <trkpt lat="48.0188" lon="-3.47508">
        <ele>75.6</ele>
        <time>2025-02-26T14:46:52Z</time>
      </trkpt>
      <trkpt lat="48.0188" lon="-3.4751">
        <ele>75.7</ele>
        <time>2025-02-26T14:46:53Z</time>
      </trkpt>
      <trkpt lat="48.01879" lon="-3.47512">
        <ele>75.8</ele>
        <time>2025-02-26T14:46:54Z</time>
      </trkpt>
      <trkpt lat="48.01879" lon="-3.47514">
        <ele>75.9</ele>
        <time>2025-02-26T14:46:55Z</time>
      </trkpt>
      <trkpt lat="48.01879" lon="-3.47516">
        <ele>75.9</ele>
        <time>2025-02-26T14:46:56Z</time>
      </trkpt>
      <trkpt lat="48.0188" lon="-3.47517">
        <ele>75.9</ele>
        <time>2025-02-26T14:46:57Z</time>
      </trkpt>
      <trkpt lat="48.0188" lon="-3.47519">
        <ele>76</ele>
        <time>2025-02-26T14:46:58Z</time>
      </trkpt>
      <trkpt lat="48.01879" lon="-3.47521">
        <ele>76.1</ele>
        <time>2025-02-26T14:46:59Z</time>
      </trkpt>
      <trkpt lat="48.0188" lon="-3.47523">
        <ele>76.2</ele>
        <time>2025-02-26T14:47:00Z</time>
      </trkpt>
      <trkpt lat="48.01881" lon="-3.47525">
        <ele>76.1</ele>
        <time>2025-02-26T14:47:01Z</time>
      </trkpt>
      <trkpt lat="48.01881" lon="-3.47527">
        <ele>76.1</ele>
        <time>2025-02-26T14:47:02Z</time>
      </trkpt>
      <trkpt lat="48.01882" lon="-3.47529">
        <ele>76.1</ele>
        <time>2025-02-26T14:47:03Z</time>
      </trkpt>
      <trkpt lat="48.01882" lon="-3.47531">
        <ele>76.1</ele>
        <time>2025-02-26T14:47:04Z</time>
      </trkpt>
      <trkpt lat="48.01882" lon="-3.47533">
        <ele>76.1</ele>
        <time>2025-02-26T14:47:05Z</time>
      </trkpt>
      <trkpt lat="48.01883" lon="-3.47535">
        <ele>76.1</ele>
        <time>2025-02-26T14:47:06Z</time>
      </trkpt>
      <trkpt lat="48.01883" lon="-3.47537">
        <ele>76.2</ele>
        <time>2025-02-26T14:47:07Z</time>
      </trkpt>
      <trkpt lat="48.01883" lon="-3.47538">
        <ele>76.3</ele>
        <time>2025-02-26T14:47:08Z</time>
      </trkpt>
      <trkpt lat="48.01883" lon="-3.4754">
        <ele>76.3</ele>
        <time>2025-02-26T14:47:09Z</time>
      </trkpt>
      <trkpt lat="48.01884" lon="-3.47542">
        <ele>76.3</ele>
        <time>2025-02-26T14:47:10Z</time>
      </trkpt>
      <trkpt lat="48.01884" lon="-3.47544">
        <ele>76.3</ele>
        <time>2025-02-26T14:47:11Z</time>
      </trkpt>
      <trkpt lat="48.01885" lon="-3.47545">
        <ele>76.1</ele>
        <time>2025-02-26T14:47:12Z</time>
      </trkpt>
      <trkpt lat="48.01886" lon="-3.47547">
        <ele>76.1</ele>
        <time>2025-02-26T14:47:13Z</time>
      </trkpt>
      <trkpt lat="48.01887" lon="-3.47548">
        <ele>76.1</ele>
        <time>2025-02-26T14:47:14Z</time>
      </trkpt>
      <trkpt lat="48.01887" lon="-3.4755">
        <ele>76.1</ele>
        <time>2025-02-26T14:47:15Z</time>
      </trkpt>
      <trkpt lat="48.01887" lon="-3.47552">
        <ele>76.1</ele>
        <time>2025-02-26T14:47:16Z</time>
      </trkpt>
      <trkpt lat="48.01888" lon="-3.47554">
        <ele>76.1</ele>
        <time>2025-02-26T14:47:17Z</time>
      </trkpt>
      <trkpt lat="48.01888" lon="-3.47556">
        <ele>76.1</ele>
        <time>2025-02-26T14:47:18Z</time>
      </trkpt>
      <trkpt lat="48.01888" lon="-3.47557">
        <ele>76.1</ele>
        <time>2025-02-26T14:47:19Z</time>
      </trkpt>
      <trkpt lat="48.01889" lon="-3.47558">
        <ele>76.1</ele>
        <time>2025-02-26T14:47:20Z</time>
      </trkpt>
      <trkpt lat="48.01889" lon="-3.4756">
        <ele>76.2</ele>
        <time>2025-02-26T14:47:21Z</time>
      </trkpt>
      <trkpt lat="48.01888" lon="-3.47562">
        <ele>76.3</ele>
        <time>2025-02-26T14:47:22Z</time>
      </trkpt>
      <trkpt lat="48.01889" lon="-3.47564">
        <ele>76.3</ele>
        <time>2025-02-26T14:47:23Z</time>
      </trkpt>
      <trkpt lat="48.01888" lon="-3.47565">
        <ele>76.5</ele>
        <time>2025-02-26T14:47:24Z</time>
      </trkpt>
      <trkpt lat="48.01888" lon="-3.47567">
        <ele>76.6</ele>
        <time>2025-02-26T14:47:25Z</time>
      </trkpt>
      <trkpt lat="48.01888" lon="-3.47568">
        <ele>76.6</ele>
        <time>2025-02-26T14:47:26Z</time>
      </trkpt>
      <trkpt lat="48.01888" lon="-3.47569">
        <ele>76.6</ele>
        <time>2025-02-26T14:47:27Z</time>
      </trkpt>
      <trkpt lat="48.01889" lon="-3.47571">
        <ele>76.6</ele>
        <time>2025-02-26T14:47:28Z</time>
      </trkpt>
      <trkpt lat="48.01889" lon="-3.47572">
        <ele>76.6</ele>
        <time>2025-02-26T14:47:29Z</time>
      </trkpt>
      <trkpt lat="48.0189" lon="-3.47574">
        <ele>76.6</ele>
        <time>2025-02-26T14:47:30Z</time>
      </trkpt>
      <trkpt lat="48.01891" lon="-3.47575">
        <ele>76.6</ele>
        <time>2025-02-26T14:47:31Z</time>
      </trkpt>
      <trkpt lat="48.01891" lon="-3.47576">
        <ele>76.6</ele>
        <time>2025-02-26T14:47:32Z</time>
      </trkpt>
      <trkpt lat="48.01892" lon="-3.47578">
        <ele>76.6</ele>
        <time>2025-02-26T14:47:33Z</time>
      </trkpt>
      <trkpt lat="48.01892" lon="-3.4758">
        <ele>76.7</ele>
        <time>2025-02-26T14:47:34Z</time>
      </trkpt>
      <trkpt lat="48.01892" lon="-3.47582">
        <ele>76.7</ele>
        <time>2025-02-26T14:47:35Z</time>
      </trkpt>
      <trkpt lat="48.01892" lon="-3.47584">
        <ele>76.8</ele>
        <time>2025-02-26T14:47:36Z</time>
      </trkpt>
      <trkpt lat="48.01893" lon="-3.47585">
        <ele>76.8</ele>
        <time>2025-02-26T14:47:37Z</time>
      </trkpt>
      <trkpt lat="48.01894" lon="-3.47587">
        <ele>76.8</ele>
        <time>2025-02-26T14:47:38Z</time>
      </trkpt>
      <trkpt lat="48.01895" lon="-3.47588">
        <ele>76.7</ele>
        <time>2025-02-26T14:47:39Z</time>
      </trkpt>
      <trkpt lat="48.01895" lon="-3.4759">
        <ele>76.8</ele>
        <time>2025-02-26T14:47:40Z</time>
      </trkpt>
      <trkpt lat="48.01896" lon="-3.47592">
        <ele>76.8</ele>
        <time>2025-02-26T14:47:41Z</time>
      </trkpt>
      <trkpt lat="48.01896" lon="-3.47594">
        <ele>76.9</ele>
        <time>2025-02-26T14:47:42Z</time>
      </trkpt>
      <trkpt lat="48.01896" lon="-3.47596">
        <ele>76.9</ele>
        <time>2025-02-26T14:47:43Z</time>
      </trkpt>
      <trkpt lat="48.01896" lon="-3.47598">
        <ele>77</ele>
        <time>2025-02-26T14:47:44Z</time>
      </trkpt>
      <trkpt lat="48.01897" lon="-3.47599">
        <ele>77</ele>
        <time>2025-02-26T14:47:45Z</time>
      </trkpt>
      <trkpt lat="48.01897" lon="-3.47601">
        <ele>77</ele>
        <time>2025-02-26T14:47:46Z</time>
      </trkpt>
      <trkpt lat="48.01898" lon="-3.47603">
        <ele>77.1</ele>
        <time>2025-02-26T14:47:47Z</time>
      </trkpt>
      <trkpt lat="48.01898" lon="-3.47605">
        <ele>77.1</ele>
        <time>2025-02-26T14:47:48Z</time>
      </trkpt>
      <trkpt lat="48.019" lon="-3.47606">
        <ele>77</ele>
        <time>2025-02-26T14:47:49Z</time>
      </trkpt>
      <trkpt lat="48.019" lon="-3.47609">
        <ele>77.1</ele>
        <time>2025-02-26T14:47:50Z</time>
      </trkpt>
      <trkpt lat="48.01899" lon="-3.47611">
        <ele>77.3</ele>
        <time>2025-02-26T14:47:51Z</time>
      </trkpt>
      <trkpt lat="48.01899" lon="-3.47613">
        <ele>77.4</ele>
        <time>2025-02-26T14:47:52Z</time>
      </trkpt>
      <trkpt lat="48.01898" lon="-3.47615">
        <ele>77.5</ele>
        <time>2025-02-26T14:47:53Z</time>
      </trkpt>
      <trkpt lat="48.01898" lon="-3.47616">
        <ele>77.6</ele>
        <time>2025-02-26T14:47:54Z</time>
      </trkpt>
      <trkpt lat="48.01897" lon="-3.47618">
        <ele>77.7</ele>
        <time>2025-02-26T14:47:55Z</time>
      </trkpt>
      <trkpt lat="48.01896" lon="-3.4762">
        <ele>77.8</ele>
        <time>2025-02-26T14:47:56Z</time>
      </trkpt>
      <trkpt lat="48.01896" lon="-3.47621">
        <ele>77.9</ele>
        <time>2025-02-26T14:47:57Z</time>
      </trkpt>
      <trkpt lat="48.01895" lon="-3.47623">
        <ele>78</ele>
        <time>2025-02-26T14:47:58Z</time>
      </trkpt>
      <trkpt lat="48.01894" lon="-3.47624">
        <ele>78.1</ele>
        <time>2025-02-26T14:47:59Z</time>
      </trkpt>
      <trkpt lat="48.01893" lon="-3.47625">
        <ele>78.2</ele>
        <time>2025-02-26T14:48:00Z</time>
      </trkpt>
      <trkpt lat="48.01892" lon="-3.47626">
        <ele>78.3</ele>
        <time>2025-02-26T14:48:01Z</time>
      </trkpt>
      <trkpt lat="48.01891" lon="-3.47627">
        <ele>78.4</ele>
        <time>2025-02-26T14:48:02Z</time>
      </trkpt>
      <trkpt lat="48.01891" lon="-3.47629">
        <ele>78.5</ele>
        <time>2025-02-26T14:48:03Z</time>
      </trkpt>
      <trkpt lat="48.0189" lon="-3.4763">
        <ele>78.6</ele>
        <time>2025-02-26T14:48:04Z</time>
      </trkpt>
      <trkpt lat="48.0189" lon="-3.47631">
        <ele>78.6</ele>
        <time>2025-02-26T14:48:05Z</time>
      </trkpt>
      <trkpt lat="48.0189" lon="-3.47633">
        <ele>78.7</ele>
        <time>2025-02-26T14:48:06Z</time>
      </trkpt>
      <trkpt lat="48.01889" lon="-3.47634">
        <ele>78.8</ele>
        <time>2025-02-26T14:48:07Z</time>
      </trkpt>
      <trkpt lat="48.01889" lon="-3.47635">
        <ele>78.9</ele>
        <time>2025-02-26T14:48:08Z</time>
      </trkpt>
      <trkpt lat="48.01889" lon="-3.47636">
        <ele>78.9</ele>
        <time>2025-02-26T14:48:09Z</time>
      </trkpt>
      <trkpt lat="48.01889" lon="-3.47638">
        <ele>79</ele>
        <time>2025-02-26T14:48:10Z</time>
      </trkpt>
      <trkpt lat="48.01889" lon="-3.47639">
        <ele>79</ele>
        <time>2025-02-26T14:48:11Z</time>
      </trkpt>
      <trkpt lat="48.01889" lon="-3.4764">
        <ele>79</ele>
        <time>2025-02-26T14:48:12Z</time>
      </trkpt>
      <trkpt lat="48.0189" lon="-3.47642">
        <ele>79</ele>
        <time>2025-02-26T14:48:13Z</time>
      </trkpt>
      <trkpt lat="48.0189" lon="-3.47643">
        <ele>79.1</ele>
        <time>2025-02-26T14:48:14Z</time>
      </trkpt>
      <trkpt lat="48.01889" lon="-3.47645">
        <ele>79.2</ele>
        <time>2025-02-26T14:48:15Z</time>
      </trkpt>
      <trkpt lat="48.01889" lon="-3.47647">
        <ele>79.3</ele>
        <time>2025-02-26T14:48:16Z</time>
      </trkpt>
      <trkpt lat="48.01889" lon="-3.47648">
        <ele>79.4</ele>
        <time>2025-02-26T14:48:17Z</time>
      </trkpt>
      <trkpt lat="48.01888" lon="-3.47649">
        <ele>79.5</ele>
        <time>2025-02-26T14:48:18Z</time>
      </trkpt>
      <trkpt lat="48.01888" lon="-3.47651">
        <ele>79.5</ele>
        <time>2025-02-26T14:48:19Z</time>
      </trkpt>
      <trkpt lat="48.01888" lon="-3.47653">
        <ele>79.6</ele>
        <time>2025-02-26T14:48:20Z</time>
      </trkpt>
      <trkpt lat="48.01888" lon="-3.47654">
        <ele>79.6</ele>
        <time>2025-02-26T14:48:21Z</time>
      </trkpt>
      <trkpt lat="48.01889" lon="-3.47655">
        <ele>79.6</ele>
        <time>2025-02-26T14:48:22Z</time>
      </trkpt>
      <trkpt lat="48.01889" lon="-3.47657">
        <ele>79.7</ele>
        <time>2025-02-26T14:48:23Z</time>
      </trkpt>
      <trkpt lat="48.01889" lon="-3.47659">
        <ele>79.7</ele>
        <time>2025-02-26T14:48:24Z</time>
      </trkpt>
      <trkpt lat="48.0189" lon="-3.4766">
        <ele>79.7</ele>
        <time>2025-02-26T14:48:25Z</time>
      </trkpt>
      <trkpt lat="48.0189" lon="-3.47662">
        <ele>79.8</ele>
        <time>2025-02-26T14:48:26Z</time>
      </trkpt>
      <trkpt lat="48.0189" lon="-3.47664">
        <ele>79.9</ele>
        <time>2025-02-26T14:48:27Z</time>
      </trkpt>
      <trkpt lat="48.0189" lon="-3.47666">
        <ele>79.9</ele>
        <time>2025-02-26T14:48:28Z</time>
      </trkpt>
      <trkpt lat="48.01891" lon="-3.47667">
        <ele>79.8</ele>
        <time>2025-02-26T14:48:29Z</time>
      </trkpt>
      <trkpt lat="48.01891" lon="-3.47668">
        <ele>79.9</ele>
        <time>2025-02-26T14:48:30Z</time>
      </trkpt>
      <trkpt lat="48.01892" lon="-3.4767">
        <ele>79.9</ele>
        <time>2025-02-26T14:48:31Z</time>
      </trkpt>
      <trkpt lat="48.01891" lon="-3.47672">
        <ele>80</ele>
        <time>2025-02-26T14:48:32Z</time>
      </trkpt>
      <trkpt lat="48.0189" lon="-3.47673">
        <ele>80.1</ele>
        <time>2025-02-26T14:48:33Z</time>
      </trkpt>
      <trkpt lat="48.01891" lon="-3.47675">
        <ele>80.2</ele>
        <time>2025-02-26T14:48:34Z</time>
      </trkpt>
      <trkpt lat="48.01891" lon="-3.47676">
        <ele>80.2</ele>
        <time>2025-02-26T14:48:35Z</time>
      </trkpt>
      <trkpt lat="48.01891" lon="-3.47678">
        <ele>80.2</ele>
        <time>2025-02-26T14:48:36Z</time>
      </trkpt>
      <trkpt lat="48.01891" lon="-3.47679">
        <ele>80.3</ele>
        <time>2025-02-26T14:48:37Z</time>
      </trkpt>
      <trkpt lat="48.01891" lon="-3.4768">
        <ele>80.3</ele>
        <time>2025-02-26T14:48:38Z</time>
      </trkpt>
      <trkpt lat="48.01891" lon="-3.47682">
        <ele>80.4</ele>
        <time>2025-02-26T14:48:39Z</time>
      </trkpt>
      <trkpt lat="48.01891" lon="-3.47684">
        <ele>80.5</ele>
        <time>2025-02-26T14:48:40Z</time>
      </trkpt>
      <trkpt lat="48.0189" lon="-3.47685">
        <ele>80.5</ele>
        <time>2025-02-26T14:48:41Z</time>
      </trkpt>
      <trkpt lat="48.01889" lon="-3.47687">
        <ele>80.7</ele>
        <time>2025-02-26T14:48:42Z</time>
      </trkpt>
      <trkpt lat="48.01889" lon="-3.47688">
        <ele>80.8</ele>
        <time>2025-02-26T14:48:43Z</time>
      </trkpt>
      <trkpt lat="48.01888" lon="-3.4769">
        <ele>80.9</ele>
        <time>2025-02-26T14:48:44Z</time>
      </trkpt>
      <trkpt lat="48.01888" lon="-3.47691">
        <ele>81</ele>
        <time>2025-02-26T14:48:45Z</time>
      </trkpt>
      <trkpt lat="48.01887" lon="-3.47692">
        <ele>81.2</ele>
        <time>2025-02-26T14:48:46Z</time>
      </trkpt>
      <trkpt lat="48.01887" lon="-3.47694">
        <ele>81.2</ele>
        <time>2025-02-26T14:48:47Z</time>
      </trkpt>
      <trkpt lat="48.01887" lon="-3.47696">
        <ele>81.3</ele>
        <time>2025-02-26T14:48:48Z</time>
      </trkpt>
      <trkpt lat="48.01887" lon="-3.47698">
        <ele>81.4</ele>
        <time>2025-02-26T14:48:49Z</time>
      </trkpt>
      <trkpt lat="48.01887" lon="-3.47699">
        <ele>81.5</ele>
        <time>2025-02-26T14:48:50Z</time>
      </trkpt>
      <trkpt lat="48.01886" lon="-3.47701">
        <ele>81.6</ele>
        <time>2025-02-26T14:48:51Z</time>
      </trkpt>
      <trkpt lat="48.01886" lon="-3.47702">
        <ele>81.7</ele>
        <time>2025-02-26T14:48:52Z</time>
      </trkpt>
      <trkpt lat="48.01886" lon="-3.47704">
        <ele>81.8</ele>
        <time>2025-02-26T14:48:53Z</time>
      </trkpt>
      <trkpt lat="48.01885" lon="-3.47705">
        <ele>81.9</ele>
        <time>2025-02-26T14:48:54Z</time>
      </trkpt>
      <trkpt lat="48.01885" lon="-3.47706">
        <ele>82</ele>
        <time>2025-02-26T14:48:55Z</time>
      </trkpt>
      <trkpt lat="48.01884" lon="-3.47708">
        <ele>82.1</ele>
        <time>2025-02-26T14:48:56Z</time>
      </trkpt>
      <trkpt lat="48.01885" lon="-3.47709">
        <ele>82.2</ele>
        <time>2025-02-26T14:48:57Z</time>
      </trkpt>
      <trkpt lat="48.01885" lon="-3.47711">
        <ele>82.2</ele>
        <time>2025-02-26T14:48:58Z</time>
      </trkpt>
      <trkpt lat="48.01885" lon="-3.47712">
        <ele>82.2</ele>
        <time>2025-02-26T14:48:59Z</time>
      </trkpt>
      <trkpt lat="48.01885" lon="-3.47714">
        <ele>82.3</ele>
        <time>2025-02-26T14:49:00Z</time>
      </trkpt>
      <trkpt lat="48.01884" lon="-3.47715">
        <ele>82.4</ele>
        <time>2025-02-26T14:49:01Z</time>
      </trkpt>
      <trkpt lat="48.01884" lon="-3.47716">
        <ele>82.5</ele>
        <time>2025-02-26T14:49:02Z</time>
      </trkpt>
      <trkpt lat="48.01884" lon="-3.47717">
        <ele>82.6</ele>
        <time>2025-02-26T14:49:03Z</time>
      </trkpt>
      <trkpt lat="48.01884" lon="-3.47719">
        <ele>82.6</ele>
        <time>2025-02-26T14:49:04Z</time>
      </trkpt>
      <trkpt lat="48.01884" lon="-3.4772">
        <ele>82.7</ele>
        <time>2025-02-26T14:49:05Z</time>
      </trkpt>
      <trkpt lat="48.01883" lon="-3.47722">
        <ele>82.8</ele>
        <time>2025-02-26T14:49:06Z</time>
      </trkpt>
      <trkpt lat="48.01883" lon="-3.47723">
        <ele>82.9</ele>
        <time>2025-02-26T14:49:07Z</time>
      </trkpt>
      <trkpt lat="48.01883" lon="-3.47725">
        <ele>83</ele>
        <time>2025-02-26T14:49:08Z</time>
      </trkpt>
      <trkpt lat="48.01883" lon="-3.47726">
        <ele>83</ele>
        <time>2025-02-26T14:49:09Z</time>
      </trkpt>
      <trkpt lat="48.01883" lon="-3.47728">
        <ele>83.1</ele>
        <time>2025-02-26T14:49:10Z</time>
      </trkpt>
      <trkpt lat="48.01882" lon="-3.47729">
        <ele>83.2</ele>
        <time>2025-02-26T14:49:11Z</time>
      </trkpt>
      <trkpt lat="48.01882" lon="-3.4773">
        <ele>83.3</ele>
        <time>2025-02-26T14:49:12Z</time>
      </trkpt>
      <trkpt lat="48.01881" lon="-3.47732">
        <ele>83.5</ele>
        <time>2025-02-26T14:49:13Z</time>
      </trkpt>
      <trkpt lat="48.01881" lon="-3.47734">
        <ele>83.6</ele>
        <time>2025-02-26T14:49:14Z</time>
      </trkpt>
      <trkpt lat="48.01881" lon="-3.47735">
        <ele>83.6</ele>
        <time>2025-02-26T14:49:15Z</time>
      </trkpt>
      <trkpt lat="48.01881" lon="-3.47736">
        <ele>83.6</ele>
        <time>2025-02-26T14:49:16Z</time>
      </trkpt>
      <trkpt lat="48.01881" lon="-3.47737">
        <ele>83.7</ele>
        <time>2025-02-26T14:49:17Z</time>
      </trkpt>
      <trkpt lat="48.01881" lon="-3.47739">
        <ele>83.8</ele>
        <time>2025-02-26T14:49:18Z</time>
      </trkpt>
      <trkpt lat="48.01881" lon="-3.4774">
        <ele>83.8</ele>
        <time>2025-02-26T14:49:19Z</time>
      </trkpt>
      <trkpt lat="48.0188" lon="-3.47741">
        <ele>84</ele>
        <time>2025-02-26T14:49:20Z</time>
      </trkpt>
      <trkpt lat="48.0188" lon="-3.47743">
        <ele>84</ele>
        <time>2025-02-26T14:49:21Z</time>
      </trkpt>
      <trkpt lat="48.01881" lon="-3.47744">
        <ele>84</ele>
        <time>2025-02-26T14:49:22Z</time>
      </trkpt>
      <trkpt lat="48.01881" lon="-3.47746">
        <ele>83.9</ele>
        <time>2025-02-26T14:49:23Z</time>
      </trkpt>
      <trkpt lat="48.01881" lon="-3.47747">
        <ele>84</ele>
        <time>2025-02-26T14:49:24Z</time>
      </trkpt>
      <trkpt lat="48.01881" lon="-3.47749">
        <ele>84.1</ele>
        <time>2025-02-26T14:49:25Z</time>
      </trkpt>
      <trkpt lat="48.01881" lon="-3.4775">
        <ele>84.1</ele>
        <time>2025-02-26T14:49:26Z</time>
      </trkpt>
      <trkpt lat="48.01881" lon="-3.47752">
        <ele>84.2</ele>
        <time>2025-02-26T14:49:27Z</time>
      </trkpt>
      <trkpt lat="48.0188" lon="-3.47752">
        <ele>84.4</ele>
        <time>2025-02-26T14:49:28Z</time>
      </trkpt>
      <trkpt lat="48.0188" lon="-3.47754">
        <ele>84.4</ele>
        <time>2025-02-26T14:49:29Z</time>
      </trkpt>
      <trkpt lat="48.0188" lon="-3.47755">
        <ele>84.4</ele>
        <time>2025-02-26T14:49:30Z</time>
      </trkpt>
      <trkpt lat="48.01881" lon="-3.47756">
        <ele>84.4</ele>
        <time>2025-02-26T14:49:31Z</time>
      </trkpt>
      <trkpt lat="48.01881" lon="-3.47757">
        <ele>84.4</ele>
        <time>2025-02-26T14:49:32Z</time>
      </trkpt>
      <trkpt lat="48.01882" lon="-3.47757">
        <ele>84.3</ele>
        <time>2025-02-26T14:49:33Z</time>
      </trkpt>
      <trkpt lat="48.01883" lon="-3.47758">
        <ele>84.2</ele>
        <time>2025-02-26T14:49:34Z</time>
      </trkpt>
      <trkpt lat="48.01883" lon="-3.4776">
        <ele>84.2</ele>
        <time>2025-02-26T14:49:35Z</time>
      </trkpt>
      <trkpt lat="48.01883" lon="-3.47761">
        <ele>84.3</ele>
        <time>2025-02-26T14:49:36Z</time>
      </trkpt>
      <trkpt lat="48.01883" lon="-3.47762">
        <ele>84.2</ele>
        <time>2025-02-26T14:49:37Z</time>
      </trkpt>
      <trkpt lat="48.01883" lon="-3.47763">
        <ele>84.3</ele>
        <time>2025-02-26T14:49:38Z</time>
      </trkpt>
      <trkpt lat="48.01883" lon="-3.47765">
        <ele>84.4</ele>
        <time>2025-02-26T14:49:39Z</time>
      </trkpt>
      <trkpt lat="48.01882" lon="-3.47766">
        <ele>84.5</ele>
        <time>2025-02-26T14:49:40Z</time>
      </trkpt>
      <trkpt lat="48.01882" lon="-3.47767">
        <ele>84.6</ele>
        <time>2025-02-26T14:49:41Z</time>
      </trkpt>
      <trkpt lat="48.01881" lon="-3.47768">
        <ele>84.7</ele>
        <time>2025-02-26T14:49:42Z</time>
      </trkpt>
      <trkpt lat="48.01881" lon="-3.4777">
        <ele>84.8</ele>
        <time>2025-02-26T14:49:43Z</time>
      </trkpt>
      <trkpt lat="48.01882" lon="-3.47771">
        <ele>84.8</ele>
        <time>2025-02-26T14:49:44Z</time>
      </trkpt>
      <trkpt lat="48.01882" lon="-3.47773">
        <ele>84.9</ele>
        <time>2025-02-26T14:49:45Z</time>
      </trkpt>
      <trkpt lat="48.01881" lon="-3.47774">
        <ele>85</ele>
        <time>2025-02-26T14:49:46Z</time>
      </trkpt>
      <trkpt lat="48.01881" lon="-3.47775">
        <ele>85.1</ele>
        <time>2025-02-26T14:49:47Z</time>
      </trkpt>
      <trkpt lat="48.0188" lon="-3.47776">
        <ele>85.3</ele>
        <time>2025-02-26T14:49:48Z</time>
      </trkpt>
      <trkpt lat="48.0188" lon="-3.47778">
        <ele>85.4</ele>
        <time>2025-02-26T14:49:49Z</time>
      </trkpt>
      <trkpt lat="48.01879" lon="-3.4778">
        <ele>85.5</ele>
        <time>2025-02-26T14:49:50Z</time>
      </trkpt>
      <trkpt lat="48.01879" lon="-3.47781">
        <ele>85.5</ele>
        <time>2025-02-26T14:49:51Z</time>
      </trkpt>
      <trkpt lat="48.01878" lon="-3.47782">
        <ele>85.7</ele>
        <time>2025-02-26T14:49:52Z</time>
      </trkpt>
      <trkpt lat="48.01877" lon="-3.47783">
        <ele>85.8</ele>
        <time>2025-02-26T14:49:53Z</time>
      </trkpt>
      <trkpt lat="48.01877" lon="-3.47785">
        <ele>85.9</ele>
        <time>2025-02-26T14:49:54Z</time>
      </trkpt>
      <trkpt lat="48.01877" lon="-3.47787">
        <ele>85.9</ele>
        <time>2025-02-26T14:49:55Z</time>
      </trkpt>
      <trkpt lat="48.01877" lon="-3.47789">
        <ele>85.9</ele>
        <time>2025-02-26T14:49:56Z</time>
      </trkpt>
      <trkpt lat="48.01877" lon="-3.4779">
        <ele>85.9</ele>
        <time>2025-02-26T14:49:57Z</time>
      </trkpt>
      <trkpt lat="48.01877" lon="-3.47792">
        <ele>86</ele>
        <time>2025-02-26T14:49:58Z</time>
      </trkpt>
      <trkpt lat="48.01876" lon="-3.47793">
        <ele>86.1</ele>
        <time>2025-02-26T14:49:59Z</time>
      </trkpt>
      <trkpt lat="48.01875" lon="-3.47794">
        <ele>86.3</ele>
        <time>2025-02-26T14:50:00Z</time>
      </trkpt>
      <trkpt lat="48.01874" lon="-3.47796">
        <ele>86.5</ele>
        <time>2025-02-26T14:50:01Z</time>
      </trkpt>
      <trkpt lat="48.01874" lon="-3.47797">
        <ele>86.5</ele>
        <time>2025-02-26T14:50:02Z</time>
      </trkpt>
      <trkpt lat="48.01874" lon="-3.47799">
        <ele>86.5</ele>
        <time>2025-02-26T14:50:03Z</time>
      </trkpt>
      <trkpt lat="48.01874" lon="-3.47801">
        <ele>86.5</ele>
        <time>2025-02-26T14:50:04Z</time>
      </trkpt>
      <trkpt lat="48.01874" lon="-3.47802">
        <ele>86.7</ele>
        <time>2025-02-26T14:50:05Z</time>
      </trkpt>
      <trkpt lat="48.01874" lon="-3.47803">
        <ele>86.7</ele>
        <time>2025-02-26T14:50:06Z</time>
      </trkpt>
      <trkpt lat="48.01873" lon="-3.47804">
        <ele>86.8</ele>
        <time>2025-02-26T14:50:07Z</time>
      </trkpt>
      <trkpt lat="48.01872" lon="-3.47805">
        <ele>87</ele>
        <time>2025-02-26T14:50:08Z</time>
      </trkpt>
      <trkpt lat="48.01873" lon="-3.47807">
        <ele>86.9</ele>
        <time>2025-02-26T14:50:09Z</time>
      </trkpt>
      <trkpt lat="48.01873" lon="-3.47809">
        <ele>86.9</ele>
        <time>2025-02-26T14:50:10Z</time>
      </trkpt>
      <trkpt lat="48.01872" lon="-3.4781">
        <ele>87.1</ele>
        <time>2025-02-26T14:50:11Z</time>
      </trkpt>
      <trkpt lat="48.01871" lon="-3.47811">
        <ele>87.1</ele>
        <time>2025-02-26T14:50:12Z</time>
      </trkpt>
      <trkpt lat="48.01871" lon="-3.47813">
        <ele>87.3</ele>
        <time>2025-02-26T14:50:13Z</time>
      </trkpt>
      <trkpt lat="48.01871" lon="-3.47814">
        <ele>87.3</ele>
        <time>2025-02-26T14:50:14Z</time>
      </trkpt>
      <trkpt lat="48.01871" lon="-3.47816">
        <ele>87.2</ele>
        <time>2025-02-26T14:50:15Z</time>
      </trkpt>
      <trkpt lat="48.01871" lon="-3.47817">
        <ele>87.2</ele>
        <time>2025-02-26T14:50:16Z</time>
      </trkpt>
      <trkpt lat="48.01871" lon="-3.47819">
        <ele>87.2</ele>
        <time>2025-02-26T14:50:17Z</time>
      </trkpt>
      <trkpt lat="48.01871" lon="-3.47821">
        <ele>87.2</ele>
        <time>2025-02-26T14:50:18Z</time>
      </trkpt>
      <trkpt lat="48.01871" lon="-3.47823">
        <ele>87.2</ele>
        <time>2025-02-26T14:50:19Z</time>
      </trkpt>
      <trkpt lat="48.01871" lon="-3.47824">
        <ele>87.3</ele>
        <time>2025-02-26T14:50:20Z</time>
      </trkpt>
      <trkpt lat="48.0187" lon="-3.47825">
        <ele>87.4</ele>
        <time>2025-02-26T14:50:21Z</time>
      </trkpt>
      <trkpt lat="48.0187" lon="-3.47827">
        <ele>87.5</ele>
        <time>2025-02-26T14:50:22Z</time>
      </trkpt>
      <trkpt lat="48.0187" lon="-3.47829">
        <ele>87.5</ele>
        <time>2025-02-26T14:50:23Z</time>
      </trkpt>
      <trkpt lat="48.01871" lon="-3.47831">
        <ele>87.3</ele>
        <time>2025-02-26T14:50:24Z</time>
      </trkpt>
      <trkpt lat="48.01871" lon="-3.47832">
        <ele>87.3</ele>
        <time>2025-02-26T14:50:25Z</time>
      </trkpt>
      <trkpt lat="48.01871" lon="-3.47834">
        <ele>87.2</ele>
        <time>2025-02-26T14:50:26Z</time>
      </trkpt>
      <trkpt lat="48.01871" lon="-3.47836">
        <ele>87.3</ele>
        <time>2025-02-26T14:50:27Z</time>
      </trkpt>
      <trkpt lat="48.0187" lon="-3.47837">
        <ele>87.4</ele>
        <time>2025-02-26T14:50:28Z</time>
      </trkpt>
      <trkpt lat="48.0187" lon="-3.47838">
        <ele>87.4</ele>
        <time>2025-02-26T14:50:29Z</time>
      </trkpt>
      <trkpt lat="48.0187" lon="-3.4784">
        <ele>87.4</ele>
        <time>2025-02-26T14:50:30Z</time>
      </trkpt>
      <trkpt lat="48.01869" lon="-3.47841">
        <ele>87.5</ele>
        <time>2025-02-26T14:50:31Z</time>
      </trkpt>
      <trkpt lat="48.01869" lon="-3.47842">
        <ele>87.6</ele>
        <time>2025-02-26T14:50:32Z</time>
      </trkpt>
      <trkpt lat="48.0187" lon="-3.47844">
        <ele>87.5</ele>
        <time>2025-02-26T14:50:33Z</time>
      </trkpt>
      <trkpt lat="48.0187" lon="-3.47845">
        <ele>87.4</ele>
        <time>2025-02-26T14:50:34Z</time>
      </trkpt>
      <trkpt lat="48.0187" lon="-3.47846">
        <ele>87.3</ele>
        <time>2025-02-26T14:50:35Z</time>
      </trkpt>
      <trkpt lat="48.01871" lon="-3.47848">
        <ele>87.3</ele>
        <time>2025-02-26T14:50:36Z</time>
      </trkpt>
      <trkpt lat="48.0187" lon="-3.47849">
        <ele>87.3</ele>
        <time>2025-02-26T14:50:37Z</time>
      </trkpt>
      <trkpt lat="48.0187" lon="-3.47851">
        <ele>87.4</ele>
        <time>2025-02-26T14:50:38Z</time>
      </trkpt>
      <trkpt lat="48.01869" lon="-3.47852">
        <ele>87.5</ele>
        <time>2025-02-26T14:50:39Z</time>
      </trkpt>
      <trkpt lat="48.01869" lon="-3.47853">
        <ele>87.6</ele>
        <time>2025-02-26T14:50:40Z</time>
      </trkpt>
      <trkpt lat="48.01868" lon="-3.47854">
        <ele>87.7</ele>
        <time>2025-02-26T14:50:41Z</time>
      </trkpt>
      <trkpt lat="48.01868" lon="-3.47856">
        <ele>87.7</ele>
        <time>2025-02-26T14:50:42Z</time>
      </trkpt>
      <trkpt lat="48.01869" lon="-3.47858">
        <ele>87.6</ele>
        <time>2025-02-26T14:50:43Z</time>
      </trkpt>
      <trkpt lat="48.01869" lon="-3.47859">
        <ele>87.5</ele>
        <time>2025-02-26T14:50:44Z</time>
      </trkpt>
      <trkpt lat="48.0187" lon="-3.4786">
        <ele>87.5</ele>
        <time>2025-02-26T14:50:45Z</time>
      </trkpt>
      <trkpt lat="48.0187" lon="-3.47861">
        <ele>87.4</ele>
        <time>2025-02-26T14:50:46Z</time>
      </trkpt>
      <trkpt lat="48.0187" lon="-3.47863">
        <ele>87.3</ele>
        <time>2025-02-26T14:50:47Z</time>
      </trkpt>
      <trkpt lat="48.01871" lon="-3.47864">
        <ele>87.3</ele>
        <time>2025-02-26T14:50:48Z</time>
      </trkpt>
      <trkpt lat="48.01871" lon="-3.47866">
        <ele>87.3</ele>
        <time>2025-02-26T14:50:49Z</time>
      </trkpt>
      <trkpt lat="48.01871" lon="-3.47867">
        <ele>87.3</ele>
        <time>2025-02-26T14:50:50Z</time>
      </trkpt>
      <trkpt lat="48.01871" lon="-3.47869">
        <ele>87.2</ele>
        <time>2025-02-26T14:50:51Z</time>
      </trkpt>
      <trkpt lat="48.01872" lon="-3.4787">
        <ele>87.1</ele>
        <time>2025-02-26T14:50:52Z</time>
      </trkpt>
      <trkpt lat="48.01872" lon="-3.47872">
        <ele>87.1</ele>
        <time>2025-02-26T14:50:53Z</time>
      </trkpt>
      <trkpt lat="48.01872" lon="-3.47874">
        <ele>87.1</ele>
        <time>2025-02-26T14:50:54Z</time>
      </trkpt>
      <trkpt lat="48.01872" lon="-3.47875">
        <ele>87.1</ele>
        <time>2025-02-26T14:50:55Z</time>
      </trkpt>
      <trkpt lat="48.01872" lon="-3.47877">
        <ele>87.1</ele>
        <time>2025-02-26T14:50:56Z</time>
      </trkpt>
      <trkpt lat="48.01872" lon="-3.47879">
        <ele>87.1</ele>
        <time>2025-02-26T14:50:57Z</time>
      </trkpt>
      <trkpt lat="48.01871" lon="-3.4788">
        <ele>87.2</ele>
        <time>2025-02-26T14:50:58Z</time>
      </trkpt>
      <trkpt lat="48.0187" lon="-3.47882">
        <ele>87.4</ele>
        <time>2025-02-26T14:50:59Z</time>
      </trkpt>
      <trkpt lat="48.0187" lon="-3.47883">
        <ele>87.5</ele>
        <time>2025-02-26T14:51:00Z</time>
      </trkpt>
      <trkpt lat="48.01869" lon="-3.47885">
        <ele>87.5</ele>
        <time>2025-02-26T14:51:01Z</time>
      </trkpt>
      <trkpt lat="48.0187" lon="-3.47887">
        <ele>87.4</ele>
        <time>2025-02-26T14:51:02Z</time>
      </trkpt>
      <trkpt lat="48.0187" lon="-3.47889">
        <ele>87.4</ele>
        <time>2025-02-26T14:51:03Z</time>
      </trkpt>
      <trkpt lat="48.01869" lon="-3.4789">
        <ele>87.5</ele>
        <time>2025-02-26T14:51:04Z</time>
      </trkpt>
      <trkpt lat="48.01869" lon="-3.47892">
        <ele>87.5</ele>
        <time>2025-02-26T14:51:05Z</time>
      </trkpt>
      <trkpt lat="48.0187" lon="-3.47894">
        <ele>87.3</ele>
        <time>2025-02-26T14:51:06Z</time>
      </trkpt>
      <trkpt lat="48.01871" lon="-3.47895">
        <ele>87.2</ele>
        <time>2025-02-26T14:51:07Z</time>
      </trkpt>
      <trkpt lat="48.01871" lon="-3.47896">
        <ele>87.1</ele>
        <time>2025-02-26T14:51:08Z</time>
      </trkpt>
      <trkpt lat="48.01871" lon="-3.47898">
        <ele>87.1</ele>
        <time>2025-02-26T14:51:09Z</time>
      </trkpt>
      <trkpt lat="48.01871" lon="-3.47899">
        <ele>87</ele>
        <time>2025-02-26T14:51:10Z</time>
      </trkpt>
      <trkpt lat="48.01872" lon="-3.47901">
        <ele>86.8</ele>
        <time>2025-02-26T14:51:11Z</time>
      </trkpt>
      <trkpt lat="48.01872" lon="-3.47903">
        <ele>86.8</ele>
        <time>2025-02-26T14:51:12Z</time>
      </trkpt>
      <trkpt lat="48.01872" lon="-3.47905">
        <ele>86.9</ele>
        <time>2025-02-26T14:51:13Z</time>
      </trkpt>
      <trkpt lat="48.01872" lon="-3.47906">
        <ele>86.9</ele>
        <time>2025-02-26T14:51:14Z</time>
      </trkpt>
      <trkpt lat="48.01871" lon="-3.47908">
        <ele>87</ele>
        <time>2025-02-26T14:51:15Z</time>
      </trkpt>
      <trkpt lat="48.01871" lon="-3.47909">
        <ele>87</ele>
        <time>2025-02-26T14:51:16Z</time>
      </trkpt>
      <trkpt lat="48.01871" lon="-3.47911">
        <ele>86.9</ele>
        <time>2025-02-26T14:51:17Z</time>
      </trkpt>
      <trkpt lat="48.01871" lon="-3.47912">
        <ele>86.9</ele>
        <time>2025-02-26T14:51:18Z</time>
      </trkpt>
      <trkpt lat="48.01871" lon="-3.47914">
        <ele>87</ele>
        <time>2025-02-26T14:51:19Z</time>
      </trkpt>
      <trkpt lat="48.0187" lon="-3.47915">
        <ele>87</ele>
        <time>2025-02-26T14:51:20Z</time>
      </trkpt>
      <trkpt lat="48.0187" lon="-3.47916">
        <ele>87.1</ele>
        <time>2025-02-26T14:51:21Z</time>
      </trkpt>
      <trkpt lat="48.0187" lon="-3.47918">
        <ele>87.1</ele>
        <time>2025-02-26T14:51:22Z</time>
      </trkpt>
      <trkpt lat="48.01869" lon="-3.47919">
        <ele>87.2</ele>
        <time>2025-02-26T14:51:23Z</time>
      </trkpt>
      <trkpt lat="48.01869" lon="-3.47921">
        <ele>87.3</ele>
        <time>2025-02-26T14:51:24Z</time>
      </trkpt>
      <trkpt lat="48.01868" lon="-3.47922">
        <ele>87.5</ele>
        <time>2025-02-26T14:51:25Z</time>
      </trkpt>
      <trkpt lat="48.01867" lon="-3.47923">
        <ele>87.7</ele>
        <time>2025-02-26T14:51:26Z</time>
      </trkpt>
      <trkpt lat="48.01867" lon="-3.47925">
        <ele>87.7</ele>
        <time>2025-02-26T14:51:27Z</time>
      </trkpt>
      <trkpt lat="48.01867" lon="-3.47926">
        <ele>87.6</ele>
        <time>2025-02-26T14:51:28Z</time>
      </trkpt>
      <trkpt lat="48.01868" lon="-3.47927">
        <ele>87.6</ele>
        <time>2025-02-26T14:51:29Z</time>
      </trkpt>
      <trkpt lat="48.01867" lon="-3.47929">
        <ele>87.6</ele>
        <time>2025-02-26T14:51:30Z</time>
      </trkpt>
      <trkpt lat="48.01867" lon="-3.4793">
        <ele>87.7</ele>
        <time>2025-02-26T14:51:31Z</time>
      </trkpt>
      <trkpt lat="48.01866" lon="-3.47931">
        <ele>87.9</ele>
        <time>2025-02-26T14:51:32Z</time>
      </trkpt>
      <trkpt lat="48.01867" lon="-3.47933">
        <ele>87.8</ele>
        <time>2025-02-26T14:51:33Z</time>
      </trkpt>
      <trkpt lat="48.01867" lon="-3.47935">
        <ele>87.8</ele>
        <time>2025-02-26T14:51:34Z</time>
      </trkpt>
      <trkpt lat="48.01866" lon="-3.47937">
        <ele>87.9</ele>
        <time>2025-02-26T14:51:35Z</time>
      </trkpt>
      <trkpt lat="48.01866" lon="-3.47938">
        <ele>87.9</ele>
        <time>2025-02-26T14:51:36Z</time>
      </trkpt>
      <trkpt lat="48.01866" lon="-3.4794">
        <ele>88.1</ele>
        <time>2025-02-26T14:51:37Z</time>
      </trkpt>
      <trkpt lat="48.01865" lon="-3.47941">
        <ele>88.2</ele>
        <time>2025-02-26T14:51:38Z</time>
      </trkpt>
      <trkpt lat="48.01865" lon="-3.47943">
        <ele>88.2</ele>
        <time>2025-02-26T14:51:39Z</time>
      </trkpt>
      <trkpt lat="48.01865" lon="-3.47945">
        <ele>88.2</ele>
        <time>2025-02-26T14:51:40Z</time>
      </trkpt>
      <trkpt lat="48.01866" lon="-3.47946">
        <ele>88</ele>
        <time>2025-02-26T14:51:41Z</time>
      </trkpt>
      <trkpt lat="48.01866" lon="-3.47948">
        <ele>87.9</ele>
        <time>2025-02-26T14:51:42Z</time>
      </trkpt>
      <trkpt lat="48.01865" lon="-3.47949">
        <ele>87.9</ele>
        <time>2025-02-26T14:51:43Z</time>
      </trkpt>
      <trkpt lat="48.01865" lon="-3.47951">
        <ele>88.1</ele>
        <time>2025-02-26T14:51:44Z</time>
      </trkpt>
      <trkpt lat="48.01865" lon="-3.47954">
        <ele>87.9</ele>
        <time>2025-02-26T14:51:45Z</time>
      </trkpt>
      <trkpt lat="48.01864" lon="-3.47955">
        <ele>87.9</ele>
        <time>2025-02-26T14:51:46Z</time>
      </trkpt>
      <trkpt lat="48.01864" lon="-3.47956">
        <ele>87.9</ele>
        <time>2025-02-26T14:51:47Z</time>
      </trkpt>
      <trkpt lat="48.01864" lon="-3.47958">
        <ele>87.9</ele>
        <time>2025-02-26T14:51:48Z</time>
      </trkpt>
      <trkpt lat="48.01864" lon="-3.47959">
        <ele>87.8</ele>
        <time>2025-02-26T14:51:49Z</time>
      </trkpt>
      <trkpt lat="48.01864" lon="-3.47961">
        <ele>87.8</ele>
        <time>2025-02-26T14:51:50Z</time>
      </trkpt>
      <trkpt lat="48.01863" lon="-3.47962">
        <ele>88</ele>
        <time>2025-02-26T14:51:51Z</time>
      </trkpt>
      <trkpt lat="48.01862" lon="-3.47963">
        <ele>88.1</ele>
        <time>2025-02-26T14:51:52Z</time>
      </trkpt>
      <trkpt lat="48.01862" lon="-3.47964">
        <ele>88.2</ele>
        <time>2025-02-26T14:51:53Z</time>
      </trkpt>
      <trkpt lat="48.01861" lon="-3.47965">
        <ele>88.3</ele>
        <time>2025-02-26T14:51:54Z</time>
      </trkpt>
      <trkpt lat="48.01861" lon="-3.47966">
        <ele>88.4</ele>
        <time>2025-02-26T14:51:55Z</time>
      </trkpt>
      <trkpt lat="48.0186" lon="-3.47966">
        <ele>88.4</ele>
        <time>2025-02-26T14:51:56Z</time>
      </trkpt>
      <trkpt lat="48.0186" lon="-3.47966">
        <ele>88.4</ele>
        <time>2025-02-26T14:51:57Z</time>
      </trkpt>
      <trkpt lat="48.0186" lon="-3.47966">
        <ele>88.4</ele>
        <time>2025-02-26T14:51:58Z</time>
      </trkpt>
      <trkpt lat="48.0186" lon="-3.47967">
        <ele>88.5</ele>
        <time>2025-02-26T14:51:59Z</time>
      </trkpt>
      <trkpt lat="48.0186" lon="-3.47969">
        <ele>88.6</ele>
        <time>2025-02-26T14:52:00Z</time>
      </trkpt>
      <trkpt lat="48.0186" lon="-3.47969">
        <ele>88.5</ele>
        <time>2025-02-26T14:52:01Z</time>
      </trkpt>
      <trkpt lat="48.0186" lon="-3.47969">
        <ele>88.5</ele>
        <time>2025-02-26T14:52:02Z</time>
      </trkpt>
      <trkpt lat="48.0186" lon="-3.47969">
        <ele>88.5</ele>
        <time>2025-02-26T14:52:03Z</time>
      </trkpt>
      <trkpt lat="48.0186" lon="-3.47969">
        <ele>88.4</ele>
        <time>2025-02-26T14:52:04Z</time>
      </trkpt>
      <trkpt lat="48.0186" lon="-3.47968">
        <ele>88.3</ele>
        <time>2025-02-26T14:52:05Z</time>
      </trkpt>
      <trkpt lat="48.01862" lon="-3.47967">
        <ele>88.1</ele>
        <time>2025-02-26T14:52:06Z</time>
      </trkpt>
      <trkpt lat="48.01862" lon="-3.47967">
        <ele>88</ele>
        <time>2025-02-26T14:52:07Z</time>
      </trkpt>
      <trkpt lat="48.01862" lon="-3.47967">
        <ele>88</ele>
        <time>2025-02-26T14:52:08Z</time>
      </trkpt>
      <trkpt lat="48.01862" lon="-3.47967">
        <ele>88.1</ele>
        <time>2025-02-26T14:52:09Z</time>
      </trkpt>
      <trkpt lat="48.01861" lon="-3.47966">
        <ele>88.2</ele>
        <time>2025-02-26T14:52:10Z</time>
      </trkpt>
      <trkpt lat="48.01862" lon="-3.47966">
        <ele>88.1</ele>
        <time>2025-02-26T14:52:11Z</time>
      </trkpt>
      <trkpt lat="48.01862" lon="-3.47966">
        <ele>88</ele>
        <time>2025-02-26T14:52:12Z</time>
      </trkpt>
      <trkpt lat="48.01862" lon="-3.47967">
        <ele>87.9</ele>
        <time>2025-02-26T14:52:13Z</time>
      </trkpt>
      <trkpt lat="48.01863" lon="-3.47968">
        <ele>87.8</ele>
        <time>2025-02-26T14:52:14Z</time>
      </trkpt>
      <trkpt lat="48.01863" lon="-3.47968">
        <ele>87.7</ele>
        <time>2025-02-26T14:52:15Z</time>
      </trkpt>
      <trkpt lat="48.01863" lon="-3.47968">
        <ele>87.8</ele>
        <time>2025-02-26T14:52:16Z</time>
      </trkpt>
      <trkpt lat="48.01863" lon="-3.47968">
        <ele>87.7</ele>
        <time>2025-02-26T14:52:17Z</time>
      </trkpt>
      <trkpt lat="48.01865" lon="-3.47968">
        <ele>87.4</ele>
        <time>2025-02-26T14:52:18Z</time>
      </trkpt>
      <trkpt lat="48.01865" lon="-3.47968">
        <ele>87.3</ele>
        <time>2025-02-26T14:52:19Z</time>
      </trkpt>
      <trkpt lat="48.01865" lon="-3.47968">
        <ele>87.3</ele>
        <time>2025-02-26T14:52:20Z</time>
      </trkpt>
      <trkpt lat="48.01865" lon="-3.47968">
        <ele>87.3</ele>
        <time>2025-02-26T14:52:21Z</time>
      </trkpt>
      <trkpt lat="48.01865" lon="-3.47968">
        <ele>87.3</ele>
        <time>2025-02-26T14:52:22Z</time>
      </trkpt>
      <trkpt lat="48.01865" lon="-3.47968">
        <ele>87.3</ele>
        <time>2025-02-26T14:52:23Z</time>
      </trkpt>
      <trkpt lat="48.01865" lon="-3.47968">
        <ele>87.3</ele>
        <time>2025-02-26T14:52:24Z</time>
      </trkpt>
      <trkpt lat="48.01865" lon="-3.47968">
        <ele>87.3</ele>
        <time>2025-02-26T14:52:25Z</time>
      </trkpt>
      <trkpt lat="48.01865" lon="-3.47968">
        <ele>87.3</ele>
        <time>2025-02-26T14:52:26Z</time>
      </trkpt>
      <trkpt lat="48.01865" lon="-3.47968">
        <ele>87.3</ele>
        <time>2025-02-26T14:52:27Z</time>
      </trkpt>
      <trkpt lat="48.01865" lon="-3.47968">
        <ele>87.3</ele>
        <time>2025-02-26T14:52:28Z</time>
      </trkpt>
      <trkpt lat="48.01866" lon="-3.47968">
        <ele>87.1</ele>
        <time>2025-02-26T14:52:29Z</time>
      </trkpt>
      <trkpt lat="48.01867" lon="-3.47969">
        <ele>87</ele>
        <time>2025-02-26T14:52:30Z</time>
      </trkpt>
      <trkpt lat="48.01866" lon="-3.47969">
        <ele>87.1</ele>
        <time>2025-02-26T14:52:31Z</time>
      </trkpt>
      <trkpt lat="48.01865" lon="-3.4797">
        <ele>87.3</ele>
        <time>2025-02-26T14:52:32Z</time>
      </trkpt>
      <trkpt lat="48.01863" lon="-3.47972">
        <ele>87.6</ele>
        <time>2025-02-26T14:52:33Z</time>
      </trkpt>
      <trkpt lat="48.01862" lon="-3.47973">
        <ele>87.7</ele>
        <time>2025-02-26T14:52:34Z</time>
      </trkpt>
      <trkpt lat="48.01862" lon="-3.47973">
        <ele>87.9</ele>
        <time>2025-02-26T14:52:35Z</time>
      </trkpt>
      <trkpt lat="48.01861" lon="-3.47974">
        <ele>88.1</ele>
        <time>2025-02-26T14:52:36Z</time>
      </trkpt>
      <trkpt lat="48.0186" lon="-3.47975">
        <ele>88.2</ele>
        <time>2025-02-26T14:52:37Z</time>
      </trkpt>
      <trkpt lat="48.0186" lon="-3.47975">
        <ele>88.1</ele>
        <time>2025-02-26T14:52:38Z</time>
      </trkpt>
      <trkpt lat="48.0186" lon="-3.47977">
        <ele>88</ele>
        <time>2025-02-26T14:52:39Z</time>
      </trkpt>
      <trkpt lat="48.01861" lon="-3.47978">
        <ele>87.9</ele>
        <time>2025-02-26T14:52:40Z</time>
      </trkpt>
      <trkpt lat="48.01861" lon="-3.47979">
        <ele>87.8</ele>
        <time>2025-02-26T14:52:41Z</time>
      </trkpt>
      <trkpt lat="48.01861" lon="-3.47979">
        <ele>87.9</ele>
        <time>2025-02-26T14:52:42Z</time>
      </trkpt>
      <trkpt lat="48.0186" lon="-3.47978">
        <ele>88</ele>
        <time>2025-02-26T14:52:43Z</time>
      </trkpt>
      <trkpt lat="48.0186" lon="-3.47978">
        <ele>88</ele>
        <time>2025-02-26T14:52:44Z</time>
      </trkpt>
      <trkpt lat="48.0186" lon="-3.47978">
        <ele>88</ele>
        <time>2025-02-26T14:52:45Z</time>
      </trkpt>
      <trkpt lat="48.0186" lon="-3.47978">
        <ele>88</ele>
        <time>2025-02-26T14:52:46Z</time>
      </trkpt>
      <trkpt lat="48.0186" lon="-3.47978">
        <ele>88</ele>
        <time>2025-02-26T14:52:47Z</time>
      </trkpt>
      <trkpt lat="48.0186" lon="-3.47978">
        <ele>88</ele>
        <time>2025-02-26T14:52:48Z</time>
      </trkpt>
      <trkpt lat="48.0186" lon="-3.47978">
        <ele>88</ele>
        <time>2025-02-26T14:52:49Z</time>
      </trkpt>
      <trkpt lat="48.0186" lon="-3.47978">
        <ele>88</ele>
        <time>2025-02-26T14:52:50Z</time>
      </trkpt>
      <trkpt lat="48.0186" lon="-3.47978">
        <ele>88</ele>
        <time>2025-02-26T14:52:51Z</time>
      </trkpt>
      <trkpt lat="48.0186" lon="-3.47978">
        <ele>88</ele>
        <time>2025-02-26T14:52:52Z</time>
      </trkpt>
      <trkpt lat="48.0186" lon="-3.47978">
        <ele>88</ele>
        <time>2025-02-26T14:52:53Z</time>
      </trkpt>
      <trkpt lat="48.0186" lon="-3.47978">
        <ele>88</ele>
        <time>2025-02-26T14:52:54Z</time>
      </trkpt>
      <trkpt lat="48.0186" lon="-3.47978">
        <ele>88</ele>
        <time>2025-02-26T14:52:55Z</time>
      </trkpt>
      <trkpt lat="48.0186" lon="-3.47978">
        <ele>88</ele>
        <time>2025-02-26T14:52:56Z</time>
      </trkpt>
      <trkpt lat="48.0186" lon="-3.47978">
        <ele>88</ele>
        <time>2025-02-26T14:52:57Z</time>
      </trkpt>
      <trkpt lat="48.0186" lon="-3.47978">
        <ele>88</ele>
        <time>2025-02-26T14:52:58Z</time>
      </trkpt>
      <trkpt lat="48.0186" lon="-3.47978">
        <ele>88</ele>
        <time>2025-02-26T14:52:59Z</time>
      </trkpt>
      <trkpt lat="48.0186" lon="-3.47978">
        <ele>88</ele>
        <time>2025-02-26T14:53:00Z</time>
      </trkpt>
      <trkpt lat="48.0186" lon="-3.47978">
        <ele>88</ele>
        <time>2025-02-26T14:53:01Z</time>
      </trkpt>
      <trkpt lat="48.0186" lon="-3.47978">
        <ele>88</ele>
        <time>2025-02-26T14:53:02Z</time>
      </trkpt>
      <trkpt lat="48.0186" lon="-3.47978">
        <ele>88</ele>
        <time>2025-02-26T14:53:03Z</time>
      </trkpt>
      <trkpt lat="48.01861" lon="-3.47978">
        <ele>87.9</ele>
        <time>2025-02-26T14:53:04Z</time>
      </trkpt>
      <trkpt lat="48.01861" lon="-3.47978">
        <ele>87.9</ele>
        <time>2025-02-26T14:53:05Z</time>
      </trkpt>
      <trkpt lat="48.01861" lon="-3.47978">
        <ele>87.9</ele>
        <time>2025-02-26T14:53:06Z</time>
      </trkpt>
      <trkpt lat="48.01861" lon="-3.47978">
        <ele>87.9</ele>
        <time>2025-02-26T14:53:07Z</time>
      </trkpt>
      <trkpt lat="48.01861" lon="-3.47978">
        <ele>87.9</ele>
        <time>2025-02-26T14:53:08Z</time>
      </trkpt>
      <trkpt lat="48.01861" lon="-3.47978">
        <ele>87.9</ele>
        <time>2025-02-26T14:53:09Z</time>
      </trkpt>
      <trkpt lat="48.01861" lon="-3.47978">
        <ele>87.9</ele>
        <time>2025-02-26T14:53:10Z</time>
      </trkpt>
      <trkpt lat="48.01861" lon="-3.47978">
        <ele>87.9</ele>
        <time>2025-02-26T14:53:11Z</time>
      </trkpt>
      <trkpt lat="48.01861" lon="-3.47978">
        <ele>87.9</ele>
        <time>2025-02-26T14:53:12Z</time>
      </trkpt>
      <trkpt lat="48.01861" lon="-3.47978">
        <ele>88</ele>
        <time>2025-02-26T14:53:13Z</time>
      </trkpt>
      <trkpt lat="48.0186" lon="-3.47978">
        <ele>88.1</ele>
        <time>2025-02-26T14:53:14Z</time>
      </trkpt>
      <trkpt lat="48.0186" lon="-3.47979">
        <ele>88</ele>
        <time>2025-02-26T14:53:15Z</time>
      </trkpt>
      <trkpt lat="48.0186" lon="-3.47979">
        <ele>88</ele>
        <time>2025-02-26T14:53:16Z</time>
      </trkpt>
      <trkpt lat="48.0186" lon="-3.47979">
        <ele>88.1</ele>
        <time>2025-02-26T14:53:17Z</time>
      </trkpt>
      <trkpt lat="48.0186" lon="-3.47979">
        <ele>88.1</ele>
        <time>2025-02-26T14:53:18Z</time>
      </trkpt>
      <trkpt lat="48.0186" lon="-3.47978">
        <ele>88.1</ele>
        <time>2025-02-26T14:53:19Z</time>
      </trkpt>
      <trkpt lat="48.01861" lon="-3.47978">
        <ele>88</ele>
        <time>2025-02-26T14:53:20Z</time>
      </trkpt>
      <trkpt lat="48.01861" lon="-3.47979">
        <ele>87.8</ele>
        <time>2025-02-26T14:53:21Z</time>
      </trkpt>
      <trkpt lat="48.01862" lon="-3.47979">
        <ele>87.5</ele>
        <time>2025-02-26T14:53:22Z</time>
      </trkpt>
      <trkpt lat="48.01862" lon="-3.47979">
        <ele>87.6</ele>
        <time>2025-02-26T14:53:23Z</time>
      </trkpt>
      <trkpt lat="48.01862" lon="-3.47979">
        <ele>87.6</ele>
        <time>2025-02-26T14:53:24Z</time>
      </trkpt>
      <trkpt lat="48.01862" lon="-3.47979">
        <ele>87.6</ele>
        <time>2025-02-26T14:53:25Z</time>
      </trkpt>
      <trkpt lat="48.01862" lon="-3.47979">
        <ele>87.6</ele>
        <time>2025-02-26T14:53:26Z</time>
      </trkpt>
      <trkpt lat="48.01862" lon="-3.47979">
        <ele>87.6</ele>
        <time>2025-02-26T14:53:27Z</time>
      </trkpt>
      <trkpt lat="48.01862" lon="-3.47979">
        <ele>87.6</ele>
        <time>2025-02-26T14:53:28Z</time>
      </trkpt>
      <trkpt lat="48.01862" lon="-3.47979">
        <ele>87.6</ele>
        <time>2025-02-26T14:53:29Z</time>
      </trkpt>
      <trkpt lat="48.01862" lon="-3.47979">
        <ele>87.6</ele>
        <time>2025-02-26T14:53:30Z</time>
      </trkpt>
      <trkpt lat="48.01862" lon="-3.47979">
        <ele>87.6</ele>
        <time>2025-02-26T14:53:31Z</time>
      </trkpt>
      <trkpt lat="48.01862" lon="-3.47979">
        <ele>87.6</ele>
        <time>2025-02-26T14:53:32Z</time>
      </trkpt>
      <trkpt lat="48.01862" lon="-3.47979">
        <ele>87.6</ele>
        <time>2025-02-26T14:53:33Z</time>
      </trkpt>
      <trkpt lat="48.01862" lon="-3.47979">
        <ele>87.6</ele>
        <time>2025-02-26T14:53:34Z</time>
      </trkpt>
      <trkpt lat="48.01862" lon="-3.47979">
        <ele>87.6</ele>
        <time>2025-02-26T14:53:35Z</time>
      </trkpt>
      <trkpt lat="48.01862" lon="-3.47979">
        <ele>87.6</ele>
        <time>2025-02-26T14:53:36Z</time>
      </trkpt>
      <trkpt lat="48.01862" lon="-3.47979">
        <ele>87.6</ele>
        <time>2025-02-26T14:53:37Z</time>
      </trkpt>
      <trkpt lat="48.01862" lon="-3.47979">
        <ele>87.6</ele>
        <time>2025-02-26T14:53:38Z</time>
      </trkpt>
      <trkpt lat="48.01862" lon="-3.47979">
        <ele>87.5</ele>
        <time>2025-02-26T14:53:39Z</time>
      </trkpt>
      <trkpt lat="48.01863" lon="-3.47979">
        <ele>87.5</ele>
        <time>2025-02-26T14:53:40Z</time>
      </trkpt>
      <trkpt lat="48.01862" lon="-3.47979">
        <ele>87.5</ele>
        <time>2025-02-26T14:53:41Z</time>
      </trkpt>
      <trkpt lat="48.01862" lon="-3.47979">
        <ele>87.5</ele>
        <time>2025-02-26T14:53:42Z</time>
      </trkpt>
      <trkpt lat="48.01862" lon="-3.47979">
        <ele>87.5</ele>
        <time>2025-02-26T14:53:43Z</time>
      </trkpt>
      <trkpt lat="48.01862" lon="-3.47979">
        <ele>87.5</ele>
        <time>2025-02-26T14:53:44Z</time>
      </trkpt>
      <trkpt lat="48.01862" lon="-3.47979">
        <ele>87.5</ele>
        <time>2025-02-26T14:53:45Z</time>
      </trkpt>
      <trkpt lat="48.01862" lon="-3.47979">
        <ele>87.5</ele>
        <time>2025-02-26T14:53:46Z</time>
      </trkpt>
      <trkpt lat="48.01862" lon="-3.47979">
        <ele>87.5</ele>
        <time>2025-02-26T14:53:47Z</time>
      </trkpt>
      <trkpt lat="48.01862" lon="-3.47979">
        <ele>87.5</ele>
        <time>2025-02-26T14:53:48Z</time>
      </trkpt>
      <trkpt lat="48.01862" lon="-3.47979">
        <ele>87.5</ele>
        <time>2025-02-26T14:53:49Z</time>
      </trkpt>
      <trkpt lat="48.01862" lon="-3.47979">
        <ele>87.5</ele>
        <time>2025-02-26T14:53:50Z</time>
      </trkpt>
      <trkpt lat="48.01862" lon="-3.47979">
        <ele>87.5</ele>
        <time>2025-02-26T14:53:51Z</time>
      </trkpt>
      <trkpt lat="48.01862" lon="-3.47979">
        <ele>87.6</ele>
        <time>2025-02-26T14:53:52Z</time>
      </trkpt>
      <trkpt lat="48.01862" lon="-3.47978">
        <ele>87.6</ele>
        <time>2025-02-26T14:53:53Z</time>
      </trkpt>
      <trkpt lat="48.01862" lon="-3.47978">
        <ele>87.6</ele>
        <time>2025-02-26T14:53:54Z</time>
      </trkpt>
      <trkpt lat="48.01862" lon="-3.47978">
        <ele>87.6</ele>
        <time>2025-02-26T14:53:55Z</time>
      </trkpt>
      <trkpt lat="48.01862" lon="-3.47978">
        <ele>87.6</ele>
        <time>2025-02-26T14:53:56Z</time>
      </trkpt>
      <trkpt lat="48.01862" lon="-3.47978">
        <ele>87.6</ele>
        <time>2025-02-26T14:53:57Z</time>
      </trkpt>
      <trkpt lat="48.01862" lon="-3.47977">
        <ele>87.6</ele>
        <time>2025-02-26T14:53:58Z</time>
      </trkpt>
      <trkpt lat="48.01862" lon="-3.47977">
        <ele>87.6</ele>
        <time>2025-02-26T14:53:59Z</time>
      </trkpt>
      <trkpt lat="48.01862" lon="-3.47978">
        <ele>87.6</ele>
        <time>2025-02-26T14:54:00Z</time>
      </trkpt>
      <trkpt lat="48.01862" lon="-3.47978">
        <ele>87.6</ele>
        <time>2025-02-26T14:54:01Z</time>
      </trkpt>
      <trkpt lat="48.01862" lon="-3.47978">
        <ele>87.6</ele>
        <time>2025-02-26T14:54:02Z</time>
      </trkpt>
      <trkpt lat="48.01862" lon="-3.47978">
        <ele>87.6</ele>
        <time>2025-02-26T14:54:03Z</time>
      </trkpt>
      <trkpt lat="48.01862" lon="-3.47978">
        <ele>87.6</ele>
        <time>2025-02-26T14:54:04Z</time>
      </trkpt>
      <trkpt lat="48.01862" lon="-3.47978">
        <ele>87.6</ele>
        <time>2025-02-26T14:54:05Z</time>
      </trkpt>
      <trkpt lat="48.01862" lon="-3.47978">
        <ele>87.6</ele>
        <time>2025-02-26T14:54:06Z</time>
      </trkpt>
      <trkpt lat="48.01862" lon="-3.47978">
        <ele>87.5</ele>
        <time>2025-02-26T14:54:07Z</time>
      </trkpt>
      <trkpt lat="48.01863" lon="-3.47978">
        <ele>87.4</ele>
        <time>2025-02-26T14:54:08Z</time>
      </trkpt>
      <trkpt lat="48.01862" lon="-3.47978">
        <ele>87.5</ele>
        <time>2025-02-26T14:54:09Z</time>
      </trkpt>
      <trkpt lat="48.01862" lon="-3.47978">
        <ele>87.6</ele>
        <time>2025-02-26T14:54:10Z</time>
      </trkpt>
      <trkpt lat="48.01862" lon="-3.47978">
        <ele>87.6</ele>
        <time>2025-02-26T14:54:11Z</time>
      </trkpt>
      <trkpt lat="48.01862" lon="-3.47978">
        <ele>87.5</ele>
        <time>2025-02-26T14:54:12Z</time>
      </trkpt>
      <trkpt lat="48.01862" lon="-3.47978">
        <ele>87.5</ele>
        <time>2025-02-26T14:54:13Z</time>
      </trkpt>
      <trkpt lat="48.01862" lon="-3.47978">
        <ele>87.5</ele>
        <time>2025-02-26T14:54:14Z</time>
      </trkpt>
      <trkpt lat="48.01862" lon="-3.47978">
        <ele>87.6</ele>
        <time>2025-02-26T14:54:15Z</time>
      </trkpt>
      <trkpt lat="48.01862" lon="-3.47978">
        <ele>87.5</ele>
        <time>2025-02-26T14:54:16Z</time>
      </trkpt>
      <trkpt lat="48.01862" lon="-3.47978">
        <ele>87.5</ele>
        <time>2025-02-26T14:54:17Z</time>
      </trkpt>
      <trkpt lat="48.01862" lon="-3.47978">
        <ele>87.6</ele>
        <time>2025-02-26T14:54:18Z</time>
      </trkpt>
      <trkpt lat="48.01862" lon="-3.47977">
        <ele>87.7</ele>
        <time>2025-02-26T14:54:19Z</time>
      </trkpt>
      <trkpt lat="48.01861" lon="-3.47977">
        <ele>87.8</ele>
        <time>2025-02-26T14:54:20Z</time>
      </trkpt>
      <trkpt lat="48.01861" lon="-3.47977">
        <ele>87.9</ele>
        <time>2025-02-26T14:54:21Z</time>
      </trkpt>
      <trkpt lat="48.01861" lon="-3.47977">
        <ele>88</ele>
        <time>2025-02-26T14:54:22Z</time>
      </trkpt>
      <trkpt lat="48.01861" lon="-3.47978">
        <ele>88</ele>
        <time>2025-02-26T14:54:23Z</time>
      </trkpt>
      <trkpt lat="48.01861" lon="-3.47979">
        <ele>87.8</ele>
        <time>2025-02-26T14:54:24Z</time>
      </trkpt>
      <trkpt lat="48.01861" lon="-3.47979">
        <ele>87.7</ele>
        <time>2025-02-26T14:54:25Z</time>
      </trkpt>
      <trkpt lat="48.01861" lon="-3.47979">
        <ele>87.7</ele>
        <time>2025-02-26T14:54:26Z</time>
      </trkpt>
      <trkpt lat="48.01861" lon="-3.47979">
        <ele>87.7</ele>
        <time>2025-02-26T14:54:27Z</time>
      </trkpt>
      <trkpt lat="48.01861" lon="-3.47979">
        <ele>87.7</ele>
        <time>2025-02-26T14:54:28Z</time>
      </trkpt>
      <trkpt lat="48.01861" lon="-3.47979">
        <ele>87.7</ele>
        <time>2025-02-26T14:54:29Z</time>
      </trkpt>
      <trkpt lat="48.01861" lon="-3.47979">
        <ele>87.7</ele>
        <time>2025-02-26T14:54:30Z</time>
      </trkpt>
      <trkpt lat="48.01861" lon="-3.47979">
        <ele>87.7</ele>
        <time>2025-02-26T14:54:31Z</time>
      </trkpt>
      <trkpt lat="48.01861" lon="-3.47979">
        <ele>87.7</ele>
        <time>2025-02-26T14:54:32Z</time>
      </trkpt>
      <trkpt lat="48.01861" lon="-3.47979">
        <ele>87.7</ele>
        <time>2025-02-26T14:54:33Z</time>
      </trkpt>
      <trkpt lat="48.01861" lon="-3.47979">
        <ele>87.7</ele>
        <time>2025-02-26T14:54:34Z</time>
      </trkpt>
      <trkpt lat="48.01861" lon="-3.47979">
        <ele>87.7</ele>
        <time>2025-02-26T14:54:35Z</time>
      </trkpt>
      <trkpt lat="48.01861" lon="-3.47979">
        <ele>87.7</ele>
        <time>2025-02-26T14:54:36Z</time>
      </trkpt>
      <trkpt lat="48.01861" lon="-3.47979">
        <ele>87.7</ele>
        <time>2025-02-26T14:54:37Z</time>
      </trkpt>
      <trkpt lat="48.01861" lon="-3.47979">
        <ele>87.7</ele>
        <time>2025-02-26T14:54:38Z</time>
      </trkpt>
      <trkpt lat="48.01861" lon="-3.47979">
        <ele>87.7</ele>
        <time>2025-02-26T14:54:39Z</time>
      </trkpt>
      <trkpt lat="48.01861" lon="-3.47979">
        <ele>87.7</ele>
        <time>2025-02-26T14:54:40Z</time>
      </trkpt>
      <trkpt lat="48.01861" lon="-3.47979">
        <ele>87.7</ele>
        <time>2025-02-26T14:54:41Z</time>
      </trkpt>
      <trkpt lat="48.01862" lon="-3.47978">
        <ele>87.7</ele>
        <time>2025-02-26T14:54:42Z</time>
      </trkpt>
      <trkpt lat="48.01862" lon="-3.47977">
        <ele>87.7</ele>
        <time>2025-02-26T14:54:43Z</time>
      </trkpt>
      <trkpt lat="48.01862" lon="-3.47976">
        <ele>87.7</ele>
        <time>2025-02-26T14:54:44Z</time>
      </trkpt>
      <trkpt lat="48.01862" lon="-3.47976">
        <ele>87.7</ele>
        <time>2025-02-26T14:54:45Z</time>
      </trkpt>
      <trkpt lat="48.01862" lon="-3.47976">
        <ele>87.7</ele>
        <time>2025-02-26T14:54:46Z</time>
      </trkpt>
      <trkpt lat="48.01862" lon="-3.47976">
        <ele>87.7</ele>
        <time>2025-02-26T14:54:47Z</time>
      </trkpt>
      <trkpt lat="48.01862" lon="-3.47976">
        <ele>87.7</ele>
        <time>2025-02-26T14:54:48Z</time>
      </trkpt>
      <trkpt lat="48.01862" lon="-3.47976">
        <ele>87.7</ele>
        <time>2025-02-26T14:54:49Z</time>
      </trkpt>
      <trkpt lat="48.01862" lon="-3.47976">
        <ele>87.7</ele>
        <time>2025-02-26T14:54:50Z</time>
      </trkpt>
      <trkpt lat="48.01862" lon="-3.47976">
        <ele>87.7</ele>
        <time>2025-02-26T14:54:51Z</time>
      </trkpt>
      <trkpt lat="48.01862" lon="-3.47976">
        <ele>87.7</ele>
        <time>2025-02-26T14:54:52Z</time>
      </trkpt>
      <trkpt lat="48.01862" lon="-3.47976">
        <ele>87.7</ele>
        <time>2025-02-26T14:54:53Z</time>
      </trkpt>
      <trkpt lat="48.01862" lon="-3.47976">
        <ele>87.7</ele>
        <time>2025-02-26T14:54:54Z</time>
      </trkpt>
      <trkpt lat="48.01862" lon="-3.47976">
        <ele>87.7</ele>
        <time>2025-02-26T14:54:55Z</time>
      </trkpt>
      <trkpt lat="48.01862" lon="-3.47976">
        <ele>87.7</ele>
        <time>2025-02-26T14:54:56Z</time>
      </trkpt>
      <trkpt lat="48.01862" lon="-3.47976">
        <ele>87.7</ele>
        <time>2025-02-26T14:54:57Z</time>
      </trkpt>
      <trkpt lat="48.01863" lon="-3.47976">
        <ele>87.5</ele>
        <time>2025-02-26T14:54:58Z</time>
      </trkpt>
      <trkpt lat="48.01863" lon="-3.47976">
        <ele>87.4</ele>
        <time>2025-02-26T14:54:59Z</time>
      </trkpt>
      <trkpt lat="48.01864" lon="-3.47976">
        <ele>87.3</ele>
        <time>2025-02-26T14:55:00Z</time>
      </trkpt>
      <trkpt lat="48.01864" lon="-3.47974">
        <ele>87.2</ele>
        <time>2025-02-26T14:55:01Z</time>
      </trkpt>
      <trkpt lat="48.01865" lon="-3.47972">
        <ele>87.3</ele>
        <time>2025-02-26T14:55:02Z</time>
      </trkpt>
      <trkpt lat="48.01864" lon="-3.47971">
        <ele>87.4</ele>
        <time>2025-02-26T14:55:03Z</time>
      </trkpt>
      <trkpt lat="48.01864" lon="-3.4797">
        <ele>87.4</ele>
        <time>2025-02-26T14:55:04Z</time>
      </trkpt>
      <trkpt lat="48.01865" lon="-3.47968">
        <ele>87.4</ele>
        <time>2025-02-26T14:55:05Z</time>
      </trkpt>
      <trkpt lat="48.01865" lon="-3.47968">
        <ele>87.3</ele>
        <time>2025-02-26T14:55:06Z</time>
      </trkpt>
      <trkpt lat="48.01865" lon="-3.47968">
        <ele>87.3</ele>
        <time>2025-02-26T14:55:07Z</time>
      </trkpt>
      <trkpt lat="48.01865" lon="-3.47967">
        <ele>87.3</ele>
        <time>2025-02-26T14:55:08Z</time>
      </trkpt>
      <trkpt lat="48.01865" lon="-3.47967">
        <ele>87.3</ele>
        <time>2025-02-26T14:55:09Z</time>
      </trkpt>
      <trkpt lat="48.01865" lon="-3.47967">
        <ele>87.3</ele>
        <time>2025-02-26T14:55:10Z</time>
      </trkpt>
      <trkpt lat="48.01865" lon="-3.47967">
        <ele>87.3</ele>
        <time>2025-02-26T14:55:11Z</time>
      </trkpt>
      <trkpt lat="48.01865" lon="-3.47967">
        <ele>87.3</ele>
        <time>2025-02-26T14:55:12Z</time>
      </trkpt>
      <trkpt lat="48.01865" lon="-3.47967">
        <ele>87.3</ele>
        <time>2025-02-26T14:55:13Z</time>
      </trkpt>
      <trkpt lat="48.01865" lon="-3.47967">
        <ele>87.3</ele>
        <time>2025-02-26T14:55:14Z</time>
      </trkpt>
      <trkpt lat="48.01865" lon="-3.47967">
        <ele>87.3</ele>
        <time>2025-02-26T14:55:15Z</time>
      </trkpt>
      <trkpt lat="48.01865" lon="-3.47967">
        <ele>87.3</ele>
        <time>2025-02-26T14:55:16Z</time>
      </trkpt>
      <trkpt lat="48.01865" lon="-3.47967">
        <ele>87.3</ele>
        <time>2025-02-26T14:55:17Z</time>
      </trkpt>
      <trkpt lat="48.01865" lon="-3.47967">
        <ele>87.3</ele>
        <time>2025-02-26T14:55:18Z</time>
      </trkpt>
      <trkpt lat="48.01865" lon="-3.47967">
        <ele>87.3</ele>
        <time>2025-02-26T14:55:19Z</time>
      </trkpt>
      <trkpt lat="48.01865" lon="-3.47967">
        <ele>87.3</ele>
        <time>2025-02-26T14:55:20Z</time>
      </trkpt>
      <trkpt lat="48.01865" lon="-3.47967">
        <ele>87.3</ele>
        <time>2025-02-26T14:55:21Z</time>
      </trkpt>
      <trkpt lat="48.01865" lon="-3.47967">
        <ele>87.3</ele>
        <time>2025-02-26T14:55:22Z</time>
      </trkpt>
      <trkpt lat="48.01865" lon="-3.47967">
        <ele>87.3</ele>
        <time>2025-02-26T14:55:23Z</time>
      </trkpt>
      <trkpt lat="48.01865" lon="-3.47967">
        <ele>87.3</ele>
        <time>2025-02-26T14:55:24Z</time>
      </trkpt>
      <trkpt lat="48.01865" lon="-3.47967">
        <ele>87.3</ele>
        <time>2025-02-26T14:55:25Z</time>
      </trkpt>
      <trkpt lat="48.01865" lon="-3.47967">
        <ele>87.3</ele>
        <time>2025-02-26T14:55:26Z</time>
      </trkpt>
      <trkpt lat="48.01865" lon="-3.47967">
        <ele>87.3</ele>
        <time>2025-02-26T14:55:27Z</time>
      </trkpt>
      <trkpt lat="48.01865" lon="-3.47967">
        <ele>87.3</ele>
        <time>2025-02-26T14:55:28Z</time>
      </trkpt>
      <trkpt lat="48.01865" lon="-3.47967">
        <ele>87.3</ele>
        <time>2025-02-26T14:55:29Z</time>
      </trkpt>
      <trkpt lat="48.01865" lon="-3.47967">
        <ele>87.4</ele>
        <time>2025-02-26T14:55:30Z</time>
      </trkpt>
      <trkpt lat="48.01865" lon="-3.47967">
        <ele>87.4</ele>
        <time>2025-02-26T14:55:31Z</time>
      </trkpt>
      <trkpt lat="48.01864" lon="-3.47967">
        <ele>87.6</ele>
        <time>2025-02-26T14:55:32Z</time>
      </trkpt>
      <trkpt lat="48.01863" lon="-3.47966">
        <ele>87.9</ele>
        <time>2025-02-26T14:55:33Z</time>
      </trkpt>
      <trkpt lat="48.01863" lon="-3.47965">
        <ele>87.9</ele>
        <time>2025-02-26T14:55:34Z</time>
      </trkpt>
      <trkpt lat="48.01862" lon="-3.47965">
        <ele>88.2</ele>
        <time>2025-02-26T14:55:35Z</time>
      </trkpt>
      <trkpt lat="48.01861" lon="-3.47964">
        <ele>88.3</ele>
        <time>2025-02-26T14:55:36Z</time>
      </trkpt>
      <trkpt lat="48.01861" lon="-3.47961">
        <ele>88.4</ele>
        <time>2025-02-26T14:55:37Z</time>
      </trkpt>
      <trkpt lat="48.01862" lon="-3.47959">
        <ele>88.3</ele>
        <time>2025-02-26T14:55:38Z</time>
      </trkpt>
      <trkpt lat="48.01862" lon="-3.47957">
        <ele>88.3</ele>
        <time>2025-02-26T14:55:39Z</time>
      </trkpt>
      <trkpt lat="48.01862" lon="-3.47955">
        <ele>88.4</ele>
        <time>2025-02-26T14:55:40Z</time>
      </trkpt>
      <trkpt lat="48.01862" lon="-3.47953">
        <ele>88.5</ele>
        <time>2025-02-26T14:55:41Z</time>
      </trkpt>
      <trkpt lat="48.01863" lon="-3.47951">
        <ele>88.4</ele>
        <time>2025-02-26T14:55:42Z</time>
      </trkpt>
      <trkpt lat="48.01864" lon="-3.47949">
        <ele>88.3</ele>
        <time>2025-02-26T14:55:43Z</time>
      </trkpt>
      <trkpt lat="48.01864" lon="-3.47947">
        <ele>88.2</ele>
        <time>2025-02-26T14:55:44Z</time>
      </trkpt>
      <trkpt lat="48.01865" lon="-3.47946">
        <ele>88.2</ele>
        <time>2025-02-26T14:55:45Z</time>
      </trkpt>
      <trkpt lat="48.01865" lon="-3.47944">
        <ele>88.1</ele>
        <time>2025-02-26T14:55:46Z</time>
      </trkpt>
      <trkpt lat="48.01866" lon="-3.47942">
        <ele>88</ele>
        <time>2025-02-26T14:55:47Z</time>
      </trkpt>
      <trkpt lat="48.01866" lon="-3.4794">
        <ele>87.9</ele>
        <time>2025-02-26T14:55:48Z</time>
      </trkpt>
      <trkpt lat="48.01866" lon="-3.47938">
        <ele>87.9</ele>
        <time>2025-02-26T14:55:49Z</time>
      </trkpt>
      <trkpt lat="48.01867" lon="-3.47936">
        <ele>87.8</ele>
        <time>2025-02-26T14:55:50Z</time>
      </trkpt>
      <trkpt lat="48.01866" lon="-3.47935">
        <ele>87.9</ele>
        <time>2025-02-26T14:55:51Z</time>
      </trkpt>
      <trkpt lat="48.01867" lon="-3.47933">
        <ele>87.7</ele>
        <time>2025-02-26T14:55:52Z</time>
      </trkpt>
      <trkpt lat="48.01867" lon="-3.47932">
        <ele>87.7</ele>
        <time>2025-02-26T14:55:53Z</time>
      </trkpt>
      <trkpt lat="48.01868" lon="-3.4793">
        <ele>87.6</ele>
        <time>2025-02-26T14:55:54Z</time>
      </trkpt>
      <trkpt lat="48.01867" lon="-3.47929">
        <ele>87.8</ele>
        <time>2025-02-26T14:55:55Z</time>
      </trkpt>
      <trkpt lat="48.01866" lon="-3.47927">
        <ele>87.9</ele>
        <time>2025-02-26T14:55:56Z</time>
      </trkpt>
      <trkpt lat="48.01866" lon="-3.47925">
        <ele>87.9</ele>
        <time>2025-02-26T14:55:57Z</time>
      </trkpt>
      <trkpt lat="48.01866" lon="-3.47923">
        <ele>87.9</ele>
        <time>2025-02-26T14:55:58Z</time>
      </trkpt>
      <trkpt lat="48.01866" lon="-3.47921">
        <ele>87.9</ele>
        <time>2025-02-26T14:55:59Z</time>
      </trkpt>
      <trkpt lat="48.01867" lon="-3.47919">
        <ele>87.7</ele>
        <time>2025-02-26T14:56:00Z</time>
      </trkpt>
      <trkpt lat="48.01868" lon="-3.47918">
        <ele>87.6</ele>
        <time>2025-02-26T14:56:01Z</time>
      </trkpt>
      <trkpt lat="48.01868" lon="-3.47916">
        <ele>87.6</ele>
        <time>2025-02-26T14:56:02Z</time>
      </trkpt>
      <trkpt lat="48.01868" lon="-3.47915">
        <ele>87.6</ele>
        <time>2025-02-26T14:56:03Z</time>
      </trkpt>
      <trkpt lat="48.01867" lon="-3.47914">
        <ele>87.7</ele>
        <time>2025-02-26T14:56:04Z</time>
      </trkpt>
      <trkpt lat="48.01868" lon="-3.47913">
        <ele>87.5</ele>
        <time>2025-02-26T14:56:05Z</time>
      </trkpt>
      <trkpt lat="48.01868" lon="-3.47911">
        <ele>87.6</ele>
        <time>2025-02-26T14:56:06Z</time>
      </trkpt>
      <trkpt lat="48.01867" lon="-3.47911">
        <ele>87.8</ele>
        <time>2025-02-26T14:56:07Z</time>
      </trkpt>
      <trkpt lat="48.01865" lon="-3.47911">
        <ele>88.1</ele>
        <time>2025-02-26T14:56:08Z</time>
      </trkpt>
      <trkpt lat="48.01864" lon="-3.47912">
        <ele>88.4</ele>
        <time>2025-02-26T14:56:09Z</time>
      </trkpt>
      <trkpt lat="48.01863" lon="-3.47913">
        <ele>88.5</ele>
        <time>2025-02-26T14:56:10Z</time>
      </trkpt>
      <trkpt lat="48.01862" lon="-3.47913">
        <ele>88.7</ele>
        <time>2025-02-26T14:56:11Z</time>
      </trkpt>
      <trkpt lat="48.01861" lon="-3.47914">
        <ele>89</ele>
        <time>2025-02-26T14:56:12Z</time>
      </trkpt>
      <trkpt lat="48.0186" lon="-3.47914">
        <ele>89.3</ele>
        <time>2025-02-26T14:56:13Z</time>
      </trkpt>
      <trkpt lat="48.01859" lon="-3.47915">
        <ele>89.6</ele>
        <time>2025-02-26T14:56:14Z</time>
      </trkpt>
      <trkpt lat="48.01859" lon="-3.47917">
        <ele>89.8</ele>
        <time>2025-02-26T14:56:15Z</time>
      </trkpt>
      <trkpt lat="48.01857" lon="-3.47919">
        <ele>90.3</ele>
        <time>2025-02-26T14:56:16Z</time>
      </trkpt>
      <trkpt lat="48.01856" lon="-3.47921">
        <ele>90.8</ele>
        <time>2025-02-26T14:56:17Z</time>
      </trkpt>
      <trkpt lat="48.01854" lon="-3.47923">
        <ele>91.2</ele>
        <time>2025-02-26T14:56:18Z</time>
      </trkpt>
      <trkpt lat="48.01853" lon="-3.47925">
        <ele>91.5</ele>
        <time>2025-02-26T14:56:19Z</time>
      </trkpt>
      <trkpt lat="48.01852" lon="-3.47927">
        <ele>91.7</ele>
        <time>2025-02-26T14:56:20Z</time>
      </trkpt>
      <trkpt lat="48.01852" lon="-3.47928">
        <ele>91.9</ele>
        <time>2025-02-26T14:56:21Z</time>
      </trkpt>
      <trkpt lat="48.01851" lon="-3.4793">
        <ele>92.1</ele>
        <time>2025-02-26T14:56:22Z</time>
      </trkpt>
      <trkpt lat="48.0185" lon="-3.47931">
        <ele>92.4</ele>
        <time>2025-02-26T14:56:23Z</time>
      </trkpt>
      <trkpt lat="48.01849" lon="-3.47931">
        <ele>92.7</ele>
        <time>2025-02-26T14:56:24Z</time>
      </trkpt>
      <trkpt lat="48.01848" lon="-3.47932">
        <ele>93</ele>
        <time>2025-02-26T14:56:25Z</time>
      </trkpt>
      <trkpt lat="48.01847" lon="-3.47933">
        <ele>93.2</ele>
        <time>2025-02-26T14:56:26Z</time>
      </trkpt>
      <trkpt lat="48.01847" lon="-3.47934">
        <ele>93.4</ele>
        <time>2025-02-26T14:56:27Z</time>
      </trkpt>
      <trkpt lat="48.01846" lon="-3.47935">
        <ele>93.4</ele>
        <time>2025-02-26T14:56:28Z</time>
      </trkpt>
      <trkpt lat="48.01846" lon="-3.47936">
        <ele>93.4</ele>
        <time>2025-02-26T14:56:29Z</time>
      </trkpt>
      <trkpt lat="48.01846" lon="-3.47938">
        <ele>93.4</ele>
        <time>2025-02-26T14:56:30Z</time>
      </trkpt>
      <trkpt lat="48.01846" lon="-3.4794">
        <ele>93.5</ele>
        <time>2025-02-26T14:56:31Z</time>
      </trkpt>
      <trkpt lat="48.01845" lon="-3.47941">
        <ele>93.8</ele>
        <time>2025-02-26T14:56:32Z</time>
      </trkpt>
      <trkpt lat="48.01844" lon="-3.47942">
        <ele>94</ele>
        <time>2025-02-26T14:56:33Z</time>
      </trkpt>
      <trkpt lat="48.01843" lon="-3.47944">
        <ele>94.2</ele>
        <time>2025-02-26T14:56:34Z</time>
      </trkpt>
      <trkpt lat="48.01843" lon="-3.47945">
        <ele>94.2</ele>
        <time>2025-02-26T14:56:35Z</time>
      </trkpt>
      <trkpt lat="48.01843" lon="-3.47946">
        <ele>94.2</ele>
        <time>2025-02-26T14:56:36Z</time>
      </trkpt>
      <trkpt lat="48.01843" lon="-3.47947">
        <ele>94.2</ele>
        <time>2025-02-26T14:56:37Z</time>
      </trkpt>
      <trkpt lat="48.01842" lon="-3.47948">
        <ele>94.4</ele>
        <time>2025-02-26T14:56:38Z</time>
      </trkpt>
      <trkpt lat="48.01841" lon="-3.47948">
        <ele>94.7</ele>
        <time>2025-02-26T14:56:39Z</time>
      </trkpt>
      <trkpt lat="48.0184" lon="-3.47949">
        <ele>94.9</ele>
        <time>2025-02-26T14:56:40Z</time>
      </trkpt>
      <trkpt lat="48.0184" lon="-3.4795">
        <ele>95</ele>
        <time>2025-02-26T14:56:41Z</time>
      </trkpt>
      <trkpt lat="48.01839" lon="-3.47952">
        <ele>95</ele>
        <time>2025-02-26T14:56:42Z</time>
      </trkpt>
      <trkpt lat="48.01839" lon="-3.47953">
        <ele>95.1</ele>
        <time>2025-02-26T14:56:43Z</time>
      </trkpt>
      <trkpt lat="48.01838" lon="-3.47953">
        <ele>95.2</ele>
        <time>2025-02-26T14:56:44Z</time>
      </trkpt>
      <trkpt lat="48.01838" lon="-3.47954">
        <ele>95.4</ele>
        <time>2025-02-26T14:56:45Z</time>
      </trkpt>
      <trkpt lat="48.01837" lon="-3.47956">
        <ele>95.5</ele>
        <time>2025-02-26T14:56:46Z</time>
      </trkpt>
      <trkpt lat="48.01836" lon="-3.47956">
        <ele>95.8</ele>
        <time>2025-02-26T14:56:47Z</time>
      </trkpt>
      <trkpt lat="48.01835" lon="-3.47958">
        <ele>96</ele>
        <time>2025-02-26T14:56:48Z</time>
      </trkpt>
      <trkpt lat="48.01835" lon="-3.4796">
        <ele>96.1</ele>
        <time>2025-02-26T14:56:49Z</time>
      </trkpt>
      <trkpt lat="48.01834" lon="-3.47961">
        <ele>96.2</ele>
        <time>2025-02-26T14:56:50Z</time>
      </trkpt>
      <trkpt lat="48.01834" lon="-3.47961">
        <ele>96.3</ele>
        <time>2025-02-26T14:56:51Z</time>
      </trkpt>
      <trkpt lat="48.01833" lon="-3.47962">
        <ele>96.4</ele>
        <time>2025-02-26T14:56:52Z</time>
      </trkpt>
      <trkpt lat="48.01832" lon="-3.47963">
        <ele>96.6</ele>
        <time>2025-02-26T14:56:53Z</time>
      </trkpt>
      <trkpt lat="48.01831" lon="-3.47964">
        <ele>96.6</ele>
        <time>2025-02-26T14:56:54Z</time>
      </trkpt>
      <trkpt lat="48.0183" lon="-3.47965">
        <ele>96.6</ele>
        <time>2025-02-26T14:56:55Z</time>
      </trkpt>
      <trkpt lat="48.0183" lon="-3.47965">
        <ele>96.7</ele>
        <time>2025-02-26T14:56:56Z</time>
      </trkpt>
      <trkpt lat="48.01829" lon="-3.47965">
        <ele>96.8</ele>
        <time>2025-02-26T14:56:57Z</time>
      </trkpt>
      <trkpt lat="48.01829" lon="-3.47966">
        <ele>96.8</ele>
        <time>2025-02-26T14:56:58Z</time>
      </trkpt>
      <trkpt lat="48.01828" lon="-3.47967">
        <ele>96.8</ele>
        <time>2025-02-26T14:56:59Z</time>
      </trkpt>
      <trkpt lat="48.01827" lon="-3.47968">
        <ele>96.8</ele>
        <time>2025-02-26T14:57:00Z</time>
      </trkpt>
      <trkpt lat="48.01827" lon="-3.47968">
        <ele>96.9</ele>
        <time>2025-02-26T14:57:01Z</time>
      </trkpt>
      <trkpt lat="48.01826" lon="-3.47968">
        <ele>97</ele>
        <time>2025-02-26T14:57:02Z</time>
      </trkpt>
      <trkpt lat="48.01826" lon="-3.47968">
        <ele>97</ele>
        <time>2025-02-26T14:57:03Z</time>
      </trkpt>
      <trkpt lat="48.01825" lon="-3.47969">
        <ele>97</ele>
        <time>2025-02-26T14:57:04Z</time>
      </trkpt>
      <trkpt lat="48.01825" lon="-3.4797">
        <ele>97</ele>
        <time>2025-02-26T14:57:05Z</time>
      </trkpt>
      <trkpt lat="48.01824" lon="-3.47971">
        <ele>97</ele>
        <time>2025-02-26T14:57:06Z</time>
      </trkpt>
      <trkpt lat="48.01825" lon="-3.47972">
        <ele>97</ele>
        <time>2025-02-26T14:57:07Z</time>
      </trkpt>
      <trkpt lat="48.01823" lon="-3.47972">
        <ele>97.1</ele>
        <time>2025-02-26T14:57:08Z</time>
      </trkpt>
      <trkpt lat="48.01822" lon="-3.47972">
        <ele>97.2</ele>
        <time>2025-02-26T14:57:09Z</time>
      </trkpt>
      <trkpt lat="48.01822" lon="-3.47973">
        <ele>97.1</ele>
        <time>2025-02-26T14:57:10Z</time>
      </trkpt>
      <trkpt lat="48.01821" lon="-3.47974">
        <ele>97.1</ele>
        <time>2025-02-26T14:57:11Z</time>
      </trkpt>
      <trkpt lat="48.0182" lon="-3.47975">
        <ele>97.1</ele>
        <time>2025-02-26T14:57:12Z</time>
      </trkpt>
      <trkpt lat="48.01819" lon="-3.47975">
        <ele>97.2</ele>
        <time>2025-02-26T14:57:13Z</time>
      </trkpt>
      <trkpt lat="48.01819" lon="-3.47977">
        <ele>97.1</ele>
        <time>2025-02-26T14:57:14Z</time>
      </trkpt>
      <trkpt lat="48.01817" lon="-3.47978">
        <ele>97.1</ele>
        <time>2025-02-26T14:57:15Z</time>
      </trkpt>
      <trkpt lat="48.01816" lon="-3.47978">
        <ele>97.1</ele>
        <time>2025-02-26T14:57:16Z</time>
      </trkpt>
      <trkpt lat="48.01815" lon="-3.47978">
        <ele>97.3</ele>
        <time>2025-02-26T14:57:17Z</time>
      </trkpt>
      <trkpt lat="48.01814" lon="-3.47978">
        <ele>97.3</ele>
        <time>2025-02-26T14:57:18Z</time>
      </trkpt>
      <trkpt lat="48.01813" lon="-3.47978">
        <ele>97.4</ele>
        <time>2025-02-26T14:57:19Z</time>
      </trkpt>
      <trkpt lat="48.01812" lon="-3.47979">
        <ele>97.5</ele>
        <time>2025-02-26T14:57:20Z</time>
      </trkpt>
      <trkpt lat="48.0181" lon="-3.47979">
        <ele>97.5</ele>
        <time>2025-02-26T14:57:21Z</time>
      </trkpt>
      <trkpt lat="48.0181" lon="-3.4798">
        <ele>97.5</ele>
        <time>2025-02-26T14:57:22Z</time>
      </trkpt>
      <trkpt lat="48.01808" lon="-3.47979">
        <ele>97.7</ele>
        <time>2025-02-26T14:57:23Z</time>
      </trkpt>
      <trkpt lat="48.01807" lon="-3.47979">
        <ele>97.9</ele>
        <time>2025-02-26T14:57:24Z</time>
      </trkpt>
      <trkpt lat="48.01806" lon="-3.47979">
        <ele>98</ele>
        <time>2025-02-26T14:57:25Z</time>
      </trkpt>
      <trkpt lat="48.01804" lon="-3.47979">
        <ele>98.1</ele>
        <time>2025-02-26T14:57:26Z</time>
      </trkpt>
      <trkpt lat="48.01804" lon="-3.47978">
        <ele>98.2</ele>
        <time>2025-02-26T14:57:27Z</time>
      </trkpt>
      <trkpt lat="48.01803" lon="-3.47978">
        <ele>98.4</ele>
        <time>2025-02-26T14:57:28Z</time>
      </trkpt>
      <trkpt lat="48.01802" lon="-3.47977">
        <ele>98.5</ele>
        <time>2025-02-26T14:57:29Z</time>
      </trkpt>
      <trkpt lat="48.018" lon="-3.47976">
        <ele>98.7</ele>
        <time>2025-02-26T14:57:30Z</time>
      </trkpt>
      <trkpt lat="48.01799" lon="-3.47975">
        <ele>98.9</ele>
        <time>2025-02-26T14:57:31Z</time>
      </trkpt>
      <trkpt lat="48.01798" lon="-3.47975">
        <ele>99</ele>
        <time>2025-02-26T14:57:32Z</time>
      </trkpt>
      <trkpt lat="48.01797" lon="-3.47975">
        <ele>99</ele>
        <time>2025-02-26T14:57:33Z</time>
      </trkpt>
      <trkpt lat="48.01796" lon="-3.47974">
        <ele>99.1</ele>
        <time>2025-02-26T14:57:34Z</time>
      </trkpt>
      <trkpt lat="48.01795" lon="-3.47974">
        <ele>99.2</ele>
        <time>2025-02-26T14:57:35Z</time>
      </trkpt>
      <trkpt lat="48.01794" lon="-3.47973">
        <ele>99.4</ele>
        <time>2025-02-26T14:57:36Z</time>
      </trkpt>
      <trkpt lat="48.01793" lon="-3.47972">
        <ele>99.5</ele>
        <time>2025-02-26T14:57:37Z</time>
      </trkpt>
      <trkpt lat="48.01792" lon="-3.47972">
        <ele>99.5</ele>
        <time>2025-02-26T14:57:38Z</time>
      </trkpt>
      <trkpt lat="48.01791" lon="-3.47972">
        <ele>99.6</ele>
        <time>2025-02-26T14:57:39Z</time>
      </trkpt>
      <trkpt lat="48.0179" lon="-3.47973">
        <ele>99.5</ele>
        <time>2025-02-26T14:57:40Z</time>
      </trkpt>
      <trkpt lat="48.01788" lon="-3.47973">
        <ele>99.6</ele>
        <time>2025-02-26T14:57:41Z</time>
      </trkpt>
      <trkpt lat="48.01787" lon="-3.47972">
        <ele>99.7</ele>
        <time>2025-02-26T14:57:42Z</time>
      </trkpt>
      <trkpt lat="48.01786" lon="-3.47971">
        <ele>99.8</ele>
        <time>2025-02-26T14:57:43Z</time>
      </trkpt>
      <trkpt lat="48.01786" lon="-3.47971">
        <ele>99.9</ele>
        <time>2025-02-26T14:57:44Z</time>
      </trkpt>
      <trkpt lat="48.01785" lon="-3.4797">
        <ele>100</ele>
        <time>2025-02-26T14:57:45Z</time>
      </trkpt>
      <trkpt lat="48.01783" lon="-3.4797">
        <ele>100</ele>
        <time>2025-02-26T14:57:46Z</time>
      </trkpt>
      <trkpt lat="48.01783" lon="-3.4797">
        <ele>100.1</ele>
        <time>2025-02-26T14:57:47Z</time>
      </trkpt>
      <trkpt lat="48.01782" lon="-3.47969">
        <ele>100.2</ele>
        <time>2025-02-26T14:57:48Z</time>
      </trkpt>
      <trkpt lat="48.01782" lon="-3.47968">
        <ele>100.4</ele>
        <time>2025-02-26T14:57:49Z</time>
      </trkpt>
      <trkpt lat="48.01781" lon="-3.47968">
        <ele>100.4</ele>
        <time>2025-02-26T14:57:50Z</time>
      </trkpt>
      <trkpt lat="48.0178" lon="-3.47968">
        <ele>100.5</ele>
        <time>2025-02-26T14:57:51Z</time>
      </trkpt>
      <trkpt lat="48.01778" lon="-3.47968">
        <ele>100.6</ele>
        <time>2025-02-26T14:57:52Z</time>
      </trkpt>
      <trkpt lat="48.01777" lon="-3.47968">
        <ele>100.8</ele>
        <time>2025-02-26T14:57:53Z</time>
      </trkpt>
      <trkpt lat="48.01776" lon="-3.47967">
        <ele>101</ele>
        <time>2025-02-26T14:57:54Z</time>
      </trkpt>
      <trkpt lat="48.01775" lon="-3.47966">
        <ele>101.3</ele>
        <time>2025-02-26T14:57:55Z</time>
      </trkpt>
      <trkpt lat="48.01774" lon="-3.47966">
        <ele>101.4</ele>
        <time>2025-02-26T14:57:56Z</time>
      </trkpt>
      <trkpt lat="48.01773" lon="-3.47965">
        <ele>101.6</ele>
        <time>2025-02-26T14:57:57Z</time>
      </trkpt>
      <trkpt lat="48.01772" lon="-3.47965">
        <ele>101.8</ele>
        <time>2025-02-26T14:57:58Z</time>
      </trkpt>
      <trkpt lat="48.01771" lon="-3.47965">
        <ele>102</ele>
        <time>2025-02-26T14:57:59Z</time>
      </trkpt>
      <trkpt lat="48.0177" lon="-3.47965">
        <ele>102.1</ele>
        <time>2025-02-26T14:58:00Z</time>
      </trkpt>
      <trkpt lat="48.01769" lon="-3.47964">
        <ele>102.3</ele>
        <time>2025-02-26T14:58:01Z</time>
      </trkpt>
      <trkpt lat="48.01768" lon="-3.47965">
        <ele>102.4</ele>
        <time>2025-02-26T14:58:02Z</time>
      </trkpt>
      <trkpt lat="48.01767" lon="-3.47964">
        <ele>102.5</ele>
        <time>2025-02-26T14:58:03Z</time>
      </trkpt>
      <trkpt lat="48.01767" lon="-3.47964">
        <ele>102.7</ele>
        <time>2025-02-26T14:58:04Z</time>
      </trkpt>
      <trkpt lat="48.01766" lon="-3.47963">
        <ele>102.8</ele>
        <time>2025-02-26T14:58:05Z</time>
      </trkpt>
      <trkpt lat="48.01765" lon="-3.47963">
        <ele>103.1</ele>
        <time>2025-02-26T14:58:06Z</time>
      </trkpt>
      <trkpt lat="48.01764" lon="-3.47962">
        <ele>103.2</ele>
        <time>2025-02-26T14:58:07Z</time>
      </trkpt>
      <trkpt lat="48.01763" lon="-3.47962">
        <ele>103.4</ele>
        <time>2025-02-26T14:58:08Z</time>
      </trkpt>
      <trkpt lat="48.01762" lon="-3.47961">
        <ele>103.6</ele>
        <time>2025-02-26T14:58:09Z</time>
      </trkpt>
      <trkpt lat="48.01761" lon="-3.4796">
        <ele>103.9</ele>
        <time>2025-02-26T14:58:10Z</time>
      </trkpt>
      <trkpt lat="48.0176" lon="-3.4796">
        <ele>104.2</ele>
        <time>2025-02-26T14:58:11Z</time>
      </trkpt>
      <trkpt lat="48.01759" lon="-3.4796">
        <ele>104.2</ele>
        <time>2025-02-26T14:58:12Z</time>
      </trkpt>
      <trkpt lat="48.01758" lon="-3.4796">
        <ele>104.3</ele>
        <time>2025-02-26T14:58:13Z</time>
      </trkpt>
      <trkpt lat="48.01757" lon="-3.47959">
        <ele>104.5</ele>
        <time>2025-02-26T14:58:14Z</time>
      </trkpt>
      <trkpt lat="48.01756" lon="-3.47959">
        <ele>104.6</ele>
        <time>2025-02-26T14:58:15Z</time>
      </trkpt>
      <trkpt lat="48.01755" lon="-3.47959">
        <ele>104.7</ele>
        <time>2025-02-26T14:58:16Z</time>
      </trkpt>
      <trkpt lat="48.01754" lon="-3.47959">
        <ele>104.9</ele>
        <time>2025-02-26T14:58:17Z</time>
      </trkpt>
      <trkpt lat="48.01754" lon="-3.4796">
        <ele>104.9</ele>
        <time>2025-02-26T14:58:18Z</time>
      </trkpt>
      <trkpt lat="48.01753" lon="-3.47959">
        <ele>105</ele>
        <time>2025-02-26T14:58:19Z</time>
      </trkpt>
      <trkpt lat="48.01753" lon="-3.47958">
        <ele>105.2</ele>
        <time>2025-02-26T14:58:20Z</time>
      </trkpt>
      <trkpt lat="48.01752" lon="-3.47957">
        <ele>105.4</ele>
        <time>2025-02-26T14:58:21Z</time>
      </trkpt>
      <trkpt lat="48.01751" lon="-3.47957">
        <ele>105.6</ele>
        <time>2025-02-26T14:58:22Z</time>
      </trkpt>
      <trkpt lat="48.01749" lon="-3.47956">
        <ele>105.8</ele>
        <time>2025-02-26T14:58:23Z</time>
      </trkpt>
      <trkpt lat="48.01748" lon="-3.47956">
        <ele>106.1</ele>
        <time>2025-02-26T14:58:24Z</time>
      </trkpt>
      <trkpt lat="48.01747" lon="-3.47957">
        <ele>106.2</ele>
        <time>2025-02-26T14:58:25Z</time>
      </trkpt>
      <trkpt lat="48.01746" lon="-3.47956">
        <ele>106.4</ele>
        <time>2025-02-26T14:58:26Z</time>
      </trkpt>
      <trkpt lat="48.01746" lon="-3.47956">
        <ele>106.6</ele>
        <time>2025-02-26T14:58:27Z</time>
      </trkpt>
      <trkpt lat="48.01745" lon="-3.47955">
        <ele>106.7</ele>
        <time>2025-02-26T14:58:28Z</time>
      </trkpt>
      <trkpt lat="48.01744" lon="-3.47954">
        <ele>106.9</ele>
        <time>2025-02-26T14:58:29Z</time>
      </trkpt>
      <trkpt lat="48.01744" lon="-3.47953">
        <ele>107.2</ele>
        <time>2025-02-26T14:58:30Z</time>
      </trkpt>
      <trkpt lat="48.01743" lon="-3.47952">
        <ele>107.5</ele>
        <time>2025-02-26T14:58:31Z</time>
      </trkpt>
      <trkpt lat="48.01742" lon="-3.47951">
        <ele>107.6</ele>
        <time>2025-02-26T14:58:32Z</time>
      </trkpt>
      <trkpt lat="48.01741" lon="-3.4795">
        <ele>107.9</ele>
        <time>2025-02-26T14:58:33Z</time>
      </trkpt>
      <trkpt lat="48.0174" lon="-3.47949">
        <ele>108.1</ele>
        <time>2025-02-26T14:58:34Z</time>
      </trkpt>
      <trkpt lat="48.0174" lon="-3.47947">
        <ele>108.3</ele>
        <time>2025-02-26T14:58:35Z</time>
      </trkpt>
      <trkpt lat="48.01739" lon="-3.47947">
        <ele>108.4</ele>
        <time>2025-02-26T14:58:36Z</time>
      </trkpt>
      <trkpt lat="48.01738" lon="-3.47947">
        <ele>108.6</ele>
        <time>2025-02-26T14:58:37Z</time>
      </trkpt>
      <trkpt lat="48.01737" lon="-3.47946">
        <ele>108.7</ele>
        <time>2025-02-26T14:58:38Z</time>
      </trkpt>
      <trkpt lat="48.01736" lon="-3.47946">
        <ele>108.9</ele>
        <time>2025-02-26T14:58:39Z</time>
      </trkpt>
      <trkpt lat="48.01735" lon="-3.47946">
        <ele>109.1</ele>
        <time>2025-02-26T14:58:40Z</time>
      </trkpt>
      <trkpt lat="48.01734" lon="-3.47945">
        <ele>109.3</ele>
        <time>2025-02-26T14:58:41Z</time>
      </trkpt>
      <trkpt lat="48.01733" lon="-3.47944">
        <ele>109.4</ele>
        <time>2025-02-26T14:58:42Z</time>
      </trkpt>
      <trkpt lat="48.01733" lon="-3.47944">
        <ele>109.5</ele>
        <time>2025-02-26T14:58:43Z</time>
      </trkpt>
      <trkpt lat="48.01732" lon="-3.47944">
        <ele>109.6</ele>
        <time>2025-02-26T14:58:44Z</time>
      </trkpt>
      <trkpt lat="48.01732" lon="-3.47944">
        <ele>109.7</ele>
        <time>2025-02-26T14:58:45Z</time>
      </trkpt>
      <trkpt lat="48.01731" lon="-3.47943">
        <ele>109.8</ele>
        <time>2025-02-26T14:58:46Z</time>
      </trkpt>
      <trkpt lat="48.01731" lon="-3.47943">
        <ele>109.9</ele>
        <time>2025-02-26T14:58:47Z</time>
      </trkpt>
      <trkpt lat="48.0173" lon="-3.47942">
        <ele>110.1</ele>
        <time>2025-02-26T14:58:48Z</time>
      </trkpt>
      <trkpt lat="48.01728" lon="-3.47942">
        <ele>110.3</ele>
        <time>2025-02-26T14:58:49Z</time>
      </trkpt>
      <trkpt lat="48.01727" lon="-3.47941">
        <ele>110.5</ele>
        <time>2025-02-26T14:58:50Z</time>
      </trkpt>
      <trkpt lat="48.01726" lon="-3.4794">
        <ele>110.6</ele>
        <time>2025-02-26T14:58:51Z</time>
      </trkpt>
      <trkpt lat="48.01726" lon="-3.4794">
        <ele>110.7</ele>
        <time>2025-02-26T14:58:52Z</time>
      </trkpt>
      <trkpt lat="48.01725" lon="-3.47938">
        <ele>110.8</ele>
        <time>2025-02-26T14:58:53Z</time>
      </trkpt>
      <trkpt lat="48.01724" lon="-3.47939">
        <ele>110.9</ele>
        <time>2025-02-26T14:58:54Z</time>
      </trkpt>
      <trkpt lat="48.01724" lon="-3.47939">
        <ele>111</ele>
        <time>2025-02-26T14:58:55Z</time>
      </trkpt>
      <trkpt lat="48.01723" lon="-3.47938">
        <ele>111.1</ele>
        <time>2025-02-26T14:58:56Z</time>
      </trkpt>
      <trkpt lat="48.01722" lon="-3.47938">
        <ele>111.2</ele>
        <time>2025-02-26T14:58:57Z</time>
      </trkpt>
      <trkpt lat="48.01721" lon="-3.47938">
        <ele>111.4</ele>
        <time>2025-02-26T14:58:58Z</time>
      </trkpt>
      <trkpt lat="48.0172" lon="-3.47937">
        <ele>111.5</ele>
        <time>2025-02-26T14:58:59Z</time>
      </trkpt>
      <trkpt lat="48.0172" lon="-3.47938">
        <ele>111.6</ele>
        <time>2025-02-26T14:59:00Z</time>
      </trkpt>
      <trkpt lat="48.01719" lon="-3.47937">
        <ele>111.7</ele>
        <time>2025-02-26T14:59:01Z</time>
      </trkpt>
      <trkpt lat="48.01718" lon="-3.47937">
        <ele>111.9</ele>
        <time>2025-02-26T14:59:02Z</time>
      </trkpt>
      <trkpt lat="48.01717" lon="-3.47936">
        <ele>112</ele>
        <time>2025-02-26T14:59:03Z</time>
      </trkpt>
      <trkpt lat="48.01716" lon="-3.47936">
        <ele>112.1</ele>
        <time>2025-02-26T14:59:04Z</time>
      </trkpt>
      <trkpt lat="48.01715" lon="-3.47935">
        <ele>112.3</ele>
        <time>2025-02-26T14:59:05Z</time>
      </trkpt>
      <trkpt lat="48.01714" lon="-3.47934">
        <ele>112.4</ele>
        <time>2025-02-26T14:59:06Z</time>
      </trkpt>
      <trkpt lat="48.01714" lon="-3.47933">
        <ele>112.5</ele>
        <time>2025-02-26T14:59:07Z</time>
      </trkpt>
      <trkpt lat="48.01713" lon="-3.47933">
        <ele>112.6</ele>
        <time>2025-02-26T14:59:08Z</time>
      </trkpt>
      <trkpt lat="48.01712" lon="-3.47932">
        <ele>112.7</ele>
        <time>2025-02-26T14:59:09Z</time>
      </trkpt>
      <trkpt lat="48.01711" lon="-3.47932">
        <ele>112.9</ele>
        <time>2025-02-26T14:59:10Z</time>
      </trkpt>
      <trkpt lat="48.0171" lon="-3.47932">
        <ele>113</ele>
        <time>2025-02-26T14:59:11Z</time>
      </trkpt>
      <trkpt lat="48.01709" lon="-3.47931">
        <ele>113.1</ele>
        <time>2025-02-26T14:59:12Z</time>
      </trkpt>
      <trkpt lat="48.01708" lon="-3.47931">
        <ele>113.2</ele>
        <time>2025-02-26T14:59:13Z</time>
      </trkpt>
      <trkpt lat="48.01707" lon="-3.47931">
        <ele>113.4</ele>
        <time>2025-02-26T14:59:14Z</time>
      </trkpt>
      <trkpt lat="48.01706" lon="-3.4793">
        <ele>113.5</ele>
        <time>2025-02-26T14:59:15Z</time>
      </trkpt>
      <trkpt lat="48.01706" lon="-3.4793">
        <ele>113.6</ele>
        <time>2025-02-26T14:59:16Z</time>
      </trkpt>
      <trkpt lat="48.01705" lon="-3.4793">
        <ele>113.7</ele>
        <time>2025-02-26T14:59:17Z</time>
      </trkpt>
      <trkpt lat="48.01704" lon="-3.4793">
        <ele>113.9</ele>
        <time>2025-02-26T14:59:18Z</time>
      </trkpt>
      <trkpt lat="48.01703" lon="-3.4793">
        <ele>114</ele>
        <time>2025-02-26T14:59:19Z</time>
      </trkpt>
      <trkpt lat="48.01702" lon="-3.4793">
        <ele>114</ele>
        <time>2025-02-26T14:59:20Z</time>
      </trkpt>
      <trkpt lat="48.01702" lon="-3.4793">
        <ele>114.1</ele>
        <time>2025-02-26T14:59:21Z</time>
      </trkpt>
      <trkpt lat="48.01701" lon="-3.47929">
        <ele>114.2</ele>
        <time>2025-02-26T14:59:22Z</time>
      </trkpt>
      <trkpt lat="48.017" lon="-3.47929">
        <ele>114.4</ele>
        <time>2025-02-26T14:59:23Z</time>
      </trkpt>
      <trkpt lat="48.01699" lon="-3.47929">
        <ele>114.5</ele>
        <time>2025-02-26T14:59:24Z</time>
      </trkpt>
      <trkpt lat="48.01699" lon="-3.47929">
        <ele>114.5</ele>
        <time>2025-02-26T14:59:25Z</time>
      </trkpt>
      <trkpt lat="48.01698" lon="-3.47928">
        <ele>114.6</ele>
        <time>2025-02-26T14:59:26Z</time>
      </trkpt>
      <trkpt lat="48.01698" lon="-3.47927">
        <ele>114.6</ele>
        <time>2025-02-26T14:59:27Z</time>
      </trkpt>
      <trkpt lat="48.01696" lon="-3.47926">
        <ele>114.8</ele>
        <time>2025-02-26T14:59:28Z</time>
      </trkpt>
      <trkpt lat="48.01694" lon="-3.47925">
        <ele>115</ele>
        <time>2025-02-26T14:59:29Z</time>
      </trkpt>
      <trkpt lat="48.01693" lon="-3.47925">
        <ele>115.1</ele>
        <time>2025-02-26T14:59:30Z</time>
      </trkpt>
      <trkpt lat="48.01693" lon="-3.47925">
        <ele>115.2</ele>
        <time>2025-02-26T14:59:31Z</time>
      </trkpt>
      <trkpt lat="48.01692" lon="-3.47925">
        <ele>115.3</ele>
        <time>2025-02-26T14:59:32Z</time>
      </trkpt>
      <trkpt lat="48.01691" lon="-3.47925">
        <ele>115.4</ele>
        <time>2025-02-26T14:59:33Z</time>
      </trkpt>
      <trkpt lat="48.0169" lon="-3.47925">
        <ele>115.5</ele>
        <time>2025-02-26T14:59:34Z</time>
      </trkpt>
      <trkpt lat="48.01689" lon="-3.47924">
        <ele>115.6</ele>
        <time>2025-02-26T14:59:35Z</time>
      </trkpt>
      <trkpt lat="48.01688" lon="-3.47924">
        <ele>115.7</ele>
        <time>2025-02-26T14:59:36Z</time>
      </trkpt>
      <trkpt lat="48.01688" lon="-3.47923">
        <ele>115.8</ele>
        <time>2025-02-26T14:59:37Z</time>
      </trkpt>
      <trkpt lat="48.01687" lon="-3.47923">
        <ele>115.8</ele>
        <time>2025-02-26T14:59:38Z</time>
      </trkpt>
      <trkpt lat="48.01686" lon="-3.47923">
        <ele>115.9</ele>
        <time>2025-02-26T14:59:39Z</time>
      </trkpt>
      <trkpt lat="48.01685" lon="-3.47923">
        <ele>116</ele>
        <time>2025-02-26T14:59:40Z</time>
      </trkpt>
      <trkpt lat="48.01685" lon="-3.47922">
        <ele>116.1</ele>
        <time>2025-02-26T14:59:41Z</time>
      </trkpt>
      <trkpt lat="48.01683" lon="-3.47922">
        <ele>116.2</ele>
        <time>2025-02-26T14:59:42Z</time>
      </trkpt>
      <trkpt lat="48.01683" lon="-3.47921">
        <ele>116.3</ele>
        <time>2025-02-26T14:59:43Z</time>
      </trkpt>
      <trkpt lat="48.01683" lon="-3.4792">
        <ele>116.3</ele>
        <time>2025-02-26T14:59:44Z</time>
      </trkpt>
      <trkpt lat="48.01681" lon="-3.47919">
        <ele>116.4</ele>
        <time>2025-02-26T14:59:45Z</time>
      </trkpt>
      <trkpt lat="48.0168" lon="-3.47918">
        <ele>116.5</ele>
        <time>2025-02-26T14:59:46Z</time>
      </trkpt>
      <trkpt lat="48.0168" lon="-3.47918">
        <ele>116.6</ele>
        <time>2025-02-26T14:59:47Z</time>
      </trkpt>
      <trkpt lat="48.01679" lon="-3.47918">
        <ele>116.6</ele>
        <time>2025-02-26T14:59:48Z</time>
      </trkpt>
      <trkpt lat="48.01679" lon="-3.47917">
        <ele>116.7</ele>
        <time>2025-02-26T14:59:49Z</time>
      </trkpt>
      <trkpt lat="48.01678" lon="-3.47917">
        <ele>116.8</ele>
        <time>2025-02-26T14:59:50Z</time>
      </trkpt>
      <trkpt lat="48.01678" lon="-3.47916">
        <ele>116.8</ele>
        <time>2025-02-26T14:59:51Z</time>
      </trkpt>
      <trkpt lat="48.01677" lon="-3.47916">
        <ele>117</ele>
        <time>2025-02-26T14:59:52Z</time>
      </trkpt>
      <trkpt lat="48.01675" lon="-3.47915">
        <ele>117.1</ele>
        <time>2025-02-26T14:59:53Z</time>
      </trkpt>
      <trkpt lat="48.01674" lon="-3.47915">
        <ele>117.2</ele>
        <time>2025-02-26T14:59:54Z</time>
      </trkpt>
      <trkpt lat="48.01674" lon="-3.47915">
        <ele>117.3</ele>
        <time>2025-02-26T14:59:55Z</time>
      </trkpt>
      <trkpt lat="48.01673" lon="-3.47915">
        <ele>117.4</ele>
        <time>2025-02-26T14:59:56Z</time>
      </trkpt>
      <trkpt lat="48.01672" lon="-3.47915">
        <ele>117.5</ele>
        <time>2025-02-26T14:59:57Z</time>
      </trkpt>
      <trkpt lat="48.01671" lon="-3.47915">
        <ele>117.5</ele>
        <time>2025-02-26T14:59:58Z</time>
      </trkpt>
      <trkpt lat="48.0167" lon="-3.47915">
        <ele>117.7</ele>
        <time>2025-02-26T14:59:59Z</time>
      </trkpt>
      <trkpt lat="48.01669" lon="-3.47914">
        <ele>117.8</ele>
        <time>2025-02-26T15:00:00Z</time>
      </trkpt>
      <trkpt lat="48.01668" lon="-3.47913">
        <ele>117.9</ele>
        <time>2025-02-26T15:00:01Z</time>
      </trkpt>
      <trkpt lat="48.01667" lon="-3.47913">
        <ele>117.9</ele>
        <time>2025-02-26T15:00:02Z</time>
      </trkpt>
      <trkpt lat="48.01666" lon="-3.47913">
        <ele>118</ele>
        <time>2025-02-26T15:00:03Z</time>
      </trkpt>
      <trkpt lat="48.01666" lon="-3.47912">
        <ele>118.1</ele>
        <time>2025-02-26T15:00:04Z</time>
      </trkpt>
      <trkpt lat="48.01664" lon="-3.47912">
        <ele>118.2</ele>
        <time>2025-02-26T15:00:05Z</time>
      </trkpt>
      <trkpt lat="48.01663" lon="-3.47911">
        <ele>118.2</ele>
        <time>2025-02-26T15:00:06Z</time>
      </trkpt>
      <trkpt lat="48.01663" lon="-3.4791">
        <ele>118.3</ele>
        <time>2025-02-26T15:00:07Z</time>
      </trkpt>
      <trkpt lat="48.01662" lon="-3.4791">
        <ele>118.3</ele>
        <time>2025-02-26T15:00:08Z</time>
      </trkpt>
      <trkpt lat="48.01661" lon="-3.4791">
        <ele>118.4</ele>
        <time>2025-02-26T15:00:09Z</time>
      </trkpt>
      <trkpt lat="48.0166" lon="-3.47909">
        <ele>118.4</ele>
        <time>2025-02-26T15:00:10Z</time>
      </trkpt>
      <trkpt lat="48.01659" lon="-3.47909">
        <ele>118.5</ele>
        <time>2025-02-26T15:00:11Z</time>
      </trkpt>
      <trkpt lat="48.01658" lon="-3.47908">
        <ele>118.5</ele>
        <time>2025-02-26T15:00:12Z</time>
      </trkpt>
      <trkpt lat="48.01657" lon="-3.47907">
        <ele>118.6</ele>
        <time>2025-02-26T15:00:13Z</time>
      </trkpt>
      <trkpt lat="48.01656" lon="-3.47906">
        <ele>118.6</ele>
        <time>2025-02-26T15:00:14Z</time>
      </trkpt>
      <trkpt lat="48.01655" lon="-3.47905">
        <ele>118.6</ele>
        <time>2025-02-26T15:00:15Z</time>
      </trkpt>
      <trkpt lat="48.01655" lon="-3.47904">
        <ele>118.7</ele>
        <time>2025-02-26T15:00:16Z</time>
      </trkpt>
      <trkpt lat="48.01654" lon="-3.47904">
        <ele>118.7</ele>
        <time>2025-02-26T15:00:17Z</time>
      </trkpt>
      <trkpt lat="48.01653" lon="-3.47904">
        <ele>118.8</ele>
        <time>2025-02-26T15:00:18Z</time>
      </trkpt>
      <trkpt lat="48.01652" lon="-3.47903">
        <ele>118.8</ele>
        <time>2025-02-26T15:00:19Z</time>
      </trkpt>
      <trkpt lat="48.01651" lon="-3.47902">
        <ele>118.8</ele>
        <time>2025-02-26T15:00:20Z</time>
      </trkpt>
      <trkpt lat="48.01651" lon="-3.47901">
        <ele>118.8</ele>
        <time>2025-02-26T15:00:21Z</time>
      </trkpt>
      <trkpt lat="48.0165" lon="-3.47901">
        <ele>118.9</ele>
        <time>2025-02-26T15:00:22Z</time>
      </trkpt>
      <trkpt lat="48.01649" lon="-3.479">
        <ele>118.9</ele>
        <time>2025-02-26T15:00:23Z</time>
      </trkpt>
      <trkpt lat="48.01648" lon="-3.479">
        <ele>118.9</ele>
        <time>2025-02-26T15:00:24Z</time>
      </trkpt>
      <trkpt lat="48.01648" lon="-3.479">
        <ele>119</ele>
        <time>2025-02-26T15:00:25Z</time>
      </trkpt>
      <trkpt lat="48.01647" lon="-3.479">
        <ele>119</ele>
        <time>2025-02-26T15:00:26Z</time>
      </trkpt>
      <trkpt lat="48.01646" lon="-3.479">
        <ele>119.1</ele>
        <time>2025-02-26T15:00:27Z</time>
      </trkpt>
      <trkpt lat="48.01645" lon="-3.479">
        <ele>119.1</ele>
        <time>2025-02-26T15:00:28Z</time>
      </trkpt>
      <trkpt lat="48.01644" lon="-3.47899">
        <ele>119.1</ele>
        <time>2025-02-26T15:00:29Z</time>
      </trkpt>
      <trkpt lat="48.01644" lon="-3.47899">
        <ele>119.1</ele>
        <time>2025-02-26T15:00:30Z</time>
      </trkpt>
      <trkpt lat="48.01643" lon="-3.47898">
        <ele>119.2</ele>
        <time>2025-02-26T15:00:31Z</time>
      </trkpt>
      <trkpt lat="48.01641" lon="-3.47898">
        <ele>119.2</ele>
        <time>2025-02-26T15:00:32Z</time>
      </trkpt>
      <trkpt lat="48.0164" lon="-3.47898">
        <ele>119.3</ele>
        <time>2025-02-26T15:00:33Z</time>
      </trkpt>
      <trkpt lat="48.0164" lon="-3.47897">
        <ele>119.3</ele>
        <time>2025-02-26T15:00:34Z</time>
      </trkpt>
      <trkpt lat="48.01639" lon="-3.47896">
        <ele>119.3</ele>
        <time>2025-02-26T15:00:35Z</time>
      </trkpt>
      <trkpt lat="48.01638" lon="-3.47896">
        <ele>119.2</ele>
        <time>2025-02-26T15:00:36Z</time>
      </trkpt>
      <trkpt lat="48.01637" lon="-3.47895">
        <ele>119.2</ele>
        <time>2025-02-26T15:00:37Z</time>
      </trkpt>
      <trkpt lat="48.01636" lon="-3.47895">
        <ele>119.2</ele>
        <time>2025-02-26T15:00:38Z</time>
      </trkpt>
      <trkpt lat="48.01635" lon="-3.47895">
        <ele>119.2</ele>
        <time>2025-02-26T15:00:39Z</time>
      </trkpt>
      <trkpt lat="48.01633" lon="-3.47895">
        <ele>119.2</ele>
        <time>2025-02-26T15:00:40Z</time>
      </trkpt>
      <trkpt lat="48.01632" lon="-3.47894">
        <ele>119.2</ele>
        <time>2025-02-26T15:00:41Z</time>
      </trkpt>
      <trkpt lat="48.01631" lon="-3.47893">
        <ele>119.2</ele>
        <time>2025-02-26T15:00:42Z</time>
      </trkpt>
      <trkpt lat="48.0163" lon="-3.47892">
        <ele>119.1</ele>
        <time>2025-02-26T15:00:43Z</time>
      </trkpt>
      <trkpt lat="48.01629" lon="-3.47892">
        <ele>119.1</ele>
        <time>2025-02-26T15:00:44Z</time>
      </trkpt>
      <trkpt lat="48.01628" lon="-3.47892">
        <ele>119.1</ele>
        <time>2025-02-26T15:00:45Z</time>
      </trkpt>
      <trkpt lat="48.01627" lon="-3.47891">
        <ele>119.1</ele>
        <time>2025-02-26T15:00:46Z</time>
      </trkpt>
      <trkpt lat="48.01626" lon="-3.47891">
        <ele>119.1</ele>
        <time>2025-02-26T15:00:47Z</time>
      </trkpt>
      <trkpt lat="48.01625" lon="-3.47891">
        <ele>119.1</ele>
        <time>2025-02-26T15:00:48Z</time>
      </trkpt>
      <trkpt lat="48.01624" lon="-3.4789">
        <ele>119</ele>
        <time>2025-02-26T15:00:49Z</time>
      </trkpt>
      <trkpt lat="48.01622" lon="-3.4789">
        <ele>119</ele>
        <time>2025-02-26T15:00:50Z</time>
      </trkpt>
      <trkpt lat="48.01621" lon="-3.47889">
        <ele>119</ele>
        <time>2025-02-26T15:00:51Z</time>
      </trkpt>
      <trkpt lat="48.01621" lon="-3.47887">
        <ele>119</ele>
        <time>2025-02-26T15:00:52Z</time>
      </trkpt>
      <trkpt lat="48.0162" lon="-3.47886">
        <ele>119</ele>
        <time>2025-02-26T15:00:53Z</time>
      </trkpt>
      <trkpt lat="48.01619" lon="-3.47885">
        <ele>119</ele>
        <time>2025-02-26T15:00:54Z</time>
      </trkpt>
      <trkpt lat="48.01619" lon="-3.47883">
        <ele>119</ele>
        <time>2025-02-26T15:00:55Z</time>
      </trkpt>
      <trkpt lat="48.01617" lon="-3.47882">
        <ele>119</ele>
        <time>2025-02-26T15:00:56Z</time>
      </trkpt>
      <trkpt lat="48.01616" lon="-3.47882">
        <ele>119</ele>
        <time>2025-02-26T15:00:57Z</time>
      </trkpt>
      <trkpt lat="48.01615" lon="-3.47881">
        <ele>119</ele>
        <time>2025-02-26T15:00:58Z</time>
      </trkpt>
      <trkpt lat="48.01614" lon="-3.4788">
        <ele>119</ele>
        <time>2025-02-26T15:00:59Z</time>
      </trkpt>
      <trkpt lat="48.01614" lon="-3.47879">
        <ele>119</ele>
        <time>2025-02-26T15:01:00Z</time>
      </trkpt>
      <trkpt lat="48.01613" lon="-3.47878">
        <ele>119</ele>
        <time>2025-02-26T15:01:01Z</time>
      </trkpt>
      <trkpt lat="48.01612" lon="-3.47878">
        <ele>119</ele>
        <time>2025-02-26T15:01:02Z</time>
      </trkpt>
      <trkpt lat="48.01611" lon="-3.47878">
        <ele>119</ele>
        <time>2025-02-26T15:01:03Z</time>
      </trkpt>
      <trkpt lat="48.0161" lon="-3.47877">
        <ele>119</ele>
        <time>2025-02-26T15:01:04Z</time>
      </trkpt>
      <trkpt lat="48.01609" lon="-3.47877">
        <ele>119</ele>
        <time>2025-02-26T15:01:05Z</time>
      </trkpt>
      <trkpt lat="48.01607" lon="-3.47877">
        <ele>118.9</ele>
        <time>2025-02-26T15:01:06Z</time>
      </trkpt>
      <trkpt lat="48.01606" lon="-3.47876">
        <ele>118.9</ele>
        <time>2025-02-26T15:01:07Z</time>
      </trkpt>
      <trkpt lat="48.01606" lon="-3.47875">
        <ele>118.9</ele>
        <time>2025-02-26T15:01:08Z</time>
      </trkpt>
      <trkpt lat="48.01604" lon="-3.47875">
        <ele>118.9</ele>
        <time>2025-02-26T15:01:09Z</time>
      </trkpt>
      <trkpt lat="48.01603" lon="-3.47875">
        <ele>118.9</ele>
        <time>2025-02-26T15:01:10Z</time>
      </trkpt>
      <trkpt lat="48.01602" lon="-3.47875">
        <ele>118.8</ele>
        <time>2025-02-26T15:01:11Z</time>
      </trkpt>
      <trkpt lat="48.01601" lon="-3.47874">
        <ele>118.8</ele>
        <time>2025-02-26T15:01:12Z</time>
      </trkpt>
      <trkpt lat="48.016" lon="-3.47874">
        <ele>118.8</ele>
        <time>2025-02-26T15:01:13Z</time>
      </trkpt>
      <trkpt lat="48.01599" lon="-3.47873">
        <ele>118.8</ele>
        <time>2025-02-26T15:01:14Z</time>
      </trkpt>
      <trkpt lat="48.01598" lon="-3.47873">
        <ele>118.7</ele>
        <time>2025-02-26T15:01:15Z</time>
      </trkpt>
      <trkpt lat="48.01597" lon="-3.47872">
        <ele>118.7</ele>
        <time>2025-02-26T15:01:16Z</time>
      </trkpt>
      <trkpt lat="48.01596" lon="-3.47871">
        <ele>118.7</ele>
        <time>2025-02-26T15:01:17Z</time>
      </trkpt>
      <trkpt lat="48.01595" lon="-3.47872">
        <ele>118.6</ele>
        <time>2025-02-26T15:01:18Z</time>
      </trkpt>
      <trkpt lat="48.01594" lon="-3.47872">
        <ele>118.6</ele>
        <time>2025-02-26T15:01:19Z</time>
      </trkpt>
      <trkpt lat="48.01593" lon="-3.47871">
        <ele>118.6</ele>
        <time>2025-02-26T15:01:20Z</time>
      </trkpt>
      <trkpt lat="48.01592" lon="-3.47871">
        <ele>118.6</ele>
        <time>2025-02-26T15:01:21Z</time>
      </trkpt>
      <trkpt lat="48.01591" lon="-3.47871">
        <ele>118.5</ele>
        <time>2025-02-26T15:01:22Z</time>
      </trkpt>
      <trkpt lat="48.0159" lon="-3.47871">
        <ele>118.5</ele>
        <time>2025-02-26T15:01:23Z</time>
      </trkpt>
      <trkpt lat="48.01589" lon="-3.47871">
        <ele>118.5</ele>
        <time>2025-02-26T15:01:24Z</time>
      </trkpt>
      <trkpt lat="48.01587" lon="-3.47871">
        <ele>118.4</ele>
        <time>2025-02-26T15:01:25Z</time>
      </trkpt>
      <trkpt lat="48.01586" lon="-3.47871">
        <ele>118.4</ele>
        <time>2025-02-26T15:01:26Z</time>
      </trkpt>
      <trkpt lat="48.01585" lon="-3.4787">
        <ele>118.4</ele>
        <time>2025-02-26T15:01:27Z</time>
      </trkpt>
      <trkpt lat="48.01584" lon="-3.47869">
        <ele>118.3</ele>
        <time>2025-02-26T15:01:28Z</time>
      </trkpt>
      <trkpt lat="48.01583" lon="-3.47869">
        <ele>118.3</ele>
        <time>2025-02-26T15:01:29Z</time>
      </trkpt>
      <trkpt lat="48.01582" lon="-3.47868">
        <ele>118.2</ele>
        <time>2025-02-26T15:01:30Z</time>
      </trkpt>
      <trkpt lat="48.01581" lon="-3.47867">
        <ele>118.2</ele>
        <time>2025-02-26T15:01:31Z</time>
      </trkpt>
      <trkpt lat="48.0158" lon="-3.47867">
        <ele>118.2</ele>
        <time>2025-02-26T15:01:32Z</time>
      </trkpt>
      <trkpt lat="48.01579" lon="-3.47867">
        <ele>118.2</ele>
        <time>2025-02-26T15:01:33Z</time>
      </trkpt>
      <trkpt lat="48.01578" lon="-3.47867">
        <ele>118.2</ele>
        <time>2025-02-26T15:01:34Z</time>
      </trkpt>
      <trkpt lat="48.01577" lon="-3.47866">
        <ele>118.2</ele>
        <time>2025-02-26T15:01:35Z</time>
      </trkpt>
      <trkpt lat="48.01575" lon="-3.47865">
        <ele>118.1</ele>
        <time>2025-02-26T15:01:36Z</time>
      </trkpt>
      <trkpt lat="48.01575" lon="-3.47864">
        <ele>118.1</ele>
        <time>2025-02-26T15:01:37Z</time>
      </trkpt>
      <trkpt lat="48.01574" lon="-3.47862">
        <ele>118</ele>
        <time>2025-02-26T15:01:38Z</time>
      </trkpt>
      <trkpt lat="48.01573" lon="-3.47861">
        <ele>118</ele>
        <time>2025-02-26T15:01:39Z</time>
      </trkpt>
      <trkpt lat="48.01573" lon="-3.4786">
        <ele>118</ele>
        <time>2025-02-26T15:01:40Z</time>
      </trkpt>
      <trkpt lat="48.01572" lon="-3.47858">
        <ele>117.9</ele>
        <time>2025-02-26T15:01:41Z</time>
      </trkpt>
      <trkpt lat="48.01572" lon="-3.47857">
        <ele>117.9</ele>
        <time>2025-02-26T15:01:42Z</time>
      </trkpt>
      <trkpt lat="48.01571" lon="-3.47856">
        <ele>117.8</ele>
        <time>2025-02-26T15:01:43Z</time>
      </trkpt>
      <trkpt lat="48.01571" lon="-3.47855">
        <ele>117.8</ele>
        <time>2025-02-26T15:01:44Z</time>
      </trkpt>
      <trkpt lat="48.0157" lon="-3.47854">
        <ele>117.7</ele>
        <time>2025-02-26T15:01:45Z</time>
      </trkpt>
      <trkpt lat="48.0157" lon="-3.47853">
        <ele>117.7</ele>
        <time>2025-02-26T15:01:46Z</time>
      </trkpt>
      <trkpt lat="48.01569" lon="-3.47851">
        <ele>117.6</ele>
        <time>2025-02-26T15:01:47Z</time>
      </trkpt>
      <trkpt lat="48.01568" lon="-3.4785">
        <ele>117.6</ele>
        <time>2025-02-26T15:01:48Z</time>
      </trkpt>
      <trkpt lat="48.01568" lon="-3.47848">
        <ele>117.5</ele>
        <time>2025-02-26T15:01:49Z</time>
      </trkpt>
      <trkpt lat="48.01566" lon="-3.47847">
        <ele>117.5</ele>
        <time>2025-02-26T15:01:50Z</time>
      </trkpt>
      <trkpt lat="48.01566" lon="-3.47846">
        <ele>117.5</ele>
        <time>2025-02-26T15:01:51Z</time>
      </trkpt>
      <trkpt lat="48.01564" lon="-3.47846">
        <ele>117.4</ele>
        <time>2025-02-26T15:01:52Z</time>
      </trkpt>
      <trkpt lat="48.01563" lon="-3.47844">
        <ele>117.4</ele>
        <time>2025-02-26T15:01:53Z</time>
      </trkpt>
      <trkpt lat="48.01562" lon="-3.47844">
        <ele>117.4</ele>
        <time>2025-02-26T15:01:54Z</time>
      </trkpt>
      <trkpt lat="48.01561" lon="-3.47843">
        <ele>117.3</ele>
        <time>2025-02-26T15:01:55Z</time>
      </trkpt>
      <trkpt lat="48.0156" lon="-3.47842">
        <ele>117.3</ele>
        <time>2025-02-26T15:01:56Z</time>
      </trkpt>
      <trkpt lat="48.01559" lon="-3.47841">
        <ele>117.3</ele>
        <time>2025-02-26T15:01:57Z</time>
      </trkpt>
      <trkpt lat="48.01558" lon="-3.4784">
        <ele>117.2</ele>
        <time>2025-02-26T15:01:58Z</time>
      </trkpt>
      <trkpt lat="48.01557" lon="-3.47839">
        <ele>117.2</ele>
        <time>2025-02-26T15:01:59Z</time>
      </trkpt>
      <trkpt lat="48.01556" lon="-3.47838">
        <ele>117.2</ele>
        <time>2025-02-26T15:02:00Z</time>
      </trkpt>
      <trkpt lat="48.01555" lon="-3.47837">
        <ele>117.1</ele>
        <time>2025-02-26T15:02:01Z</time>
      </trkpt>
      <trkpt lat="48.01554" lon="-3.47837">
        <ele>117.1</ele>
        <time>2025-02-26T15:02:02Z</time>
      </trkpt>
      <trkpt lat="48.01553" lon="-3.47836">
        <ele>117</ele>
        <time>2025-02-26T15:02:03Z</time>
      </trkpt>
      <trkpt lat="48.01552" lon="-3.47835">
        <ele>116.9</ele>
        <time>2025-02-26T15:02:04Z</time>
      </trkpt>
      <trkpt lat="48.01551" lon="-3.47834">
        <ele>116.9</ele>
        <time>2025-02-26T15:02:05Z</time>
      </trkpt>
      <trkpt lat="48.0155" lon="-3.47833">
        <ele>116.8</ele>
        <time>2025-02-26T15:02:06Z</time>
      </trkpt>
      <trkpt lat="48.01549" lon="-3.47833">
        <ele>116.7</ele>
        <time>2025-02-26T15:02:07Z</time>
      </trkpt>
      <trkpt lat="48.01548" lon="-3.47833">
        <ele>116.7</ele>
        <time>2025-02-26T15:02:08Z</time>
      </trkpt>
      <trkpt lat="48.01547" lon="-3.47831">
        <ele>116.6</ele>
        <time>2025-02-26T15:02:09Z</time>
      </trkpt>
      <trkpt lat="48.01546" lon="-3.47831">
        <ele>116.5</ele>
        <time>2025-02-26T15:02:10Z</time>
      </trkpt>
      <trkpt lat="48.01545" lon="-3.4783">
        <ele>116.4</ele>
        <time>2025-02-26T15:02:11Z</time>
      </trkpt>
      <trkpt lat="48.01544" lon="-3.4783">
        <ele>116.4</ele>
        <time>2025-02-26T15:02:12Z</time>
      </trkpt>
      <trkpt lat="48.01543" lon="-3.4783">
        <ele>116.3</ele>
        <time>2025-02-26T15:02:13Z</time>
      </trkpt>
      <trkpt lat="48.01542" lon="-3.4783">
        <ele>116.3</ele>
        <time>2025-02-26T15:02:14Z</time>
      </trkpt>
      <trkpt lat="48.01542" lon="-3.4783">
        <ele>116.3</ele>
        <time>2025-02-26T15:02:15Z</time>
      </trkpt>
      <trkpt lat="48.01542" lon="-3.47831">
        <ele>116.3</ele>
        <time>2025-02-26T15:02:16Z</time>
      </trkpt>
      <trkpt lat="48.01542" lon="-3.47831">
        <ele>116.3</ele>
        <time>2025-02-26T15:02:17Z</time>
      </trkpt>
      <trkpt lat="48.01542" lon="-3.47831">
        <ele>116.3</ele>
        <time>2025-02-26T15:02:18Z</time>
      </trkpt>
      <trkpt lat="48.01542" lon="-3.47831">
        <ele>116.3</ele>
        <time>2025-02-26T15:02:19Z</time>
      </trkpt>
      <trkpt lat="48.01542" lon="-3.47831">
        <ele>116.3</ele>
        <time>2025-02-26T15:02:20Z</time>
      </trkpt>
      <trkpt lat="48.01542" lon="-3.47831">
        <ele>116.3</ele>
        <time>2025-02-26T15:02:21Z</time>
      </trkpt>
      <trkpt lat="48.01542" lon="-3.47831">
        <ele>116.3</ele>
        <time>2025-02-26T15:02:22Z</time>
      </trkpt>
      <trkpt lat="48.01542" lon="-3.47831">
        <ele>116.3</ele>
        <time>2025-02-26T15:02:23Z</time>
      </trkpt>
      <trkpt lat="48.01542" lon="-3.47831">
        <ele>116.3</ele>
        <time>2025-02-26T15:02:24Z</time>
      </trkpt>
      <trkpt lat="48.01542" lon="-3.47831">
        <ele>116.3</ele>
        <time>2025-02-26T15:02:25Z</time>
      </trkpt>
      <trkpt lat="48.01542" lon="-3.47831">
        <ele>116.3</ele>
        <time>2025-02-26T15:02:26Z</time>
      </trkpt>
      <trkpt lat="48.01542" lon="-3.47831">
        <ele>116.3</ele>
        <time>2025-02-26T15:02:27Z</time>
      </trkpt>
      <trkpt lat="48.01542" lon="-3.4783">
        <ele>116.3</ele>
        <time>2025-02-26T15:02:28Z</time>
      </trkpt>
      <trkpt lat="48.01541" lon="-3.4783">
        <ele>116.2</ele>
        <time>2025-02-26T15:02:29Z</time>
      </trkpt>
      <trkpt lat="48.0154" lon="-3.47829">
        <ele>116.1</ele>
        <time>2025-02-26T15:02:30Z</time>
      </trkpt>
      <trkpt lat="48.0154" lon="-3.47827">
        <ele>116</ele>
        <time>2025-02-26T15:02:31Z</time>
      </trkpt>
      <trkpt lat="48.01539" lon="-3.47826">
        <ele>115.9</ele>
        <time>2025-02-26T15:02:32Z</time>
      </trkpt>
      <trkpt lat="48.01539" lon="-3.47825">
        <ele>115.8</ele>
        <time>2025-02-26T15:02:33Z</time>
      </trkpt>
      <trkpt lat="48.01538" lon="-3.47825">
        <ele>115.7</ele>
        <time>2025-02-26T15:02:34Z</time>
      </trkpt>
      <trkpt lat="48.01537" lon="-3.47824">
        <ele>115.7</ele>
        <time>2025-02-26T15:02:35Z</time>
      </trkpt>
      <trkpt lat="48.01536" lon="-3.47824">
        <ele>115.6</ele>
        <time>2025-02-26T15:02:36Z</time>
      </trkpt>
      <trkpt lat="48.01536" lon="-3.47824">
        <ele>115.6</ele>
        <time>2025-02-26T15:02:37Z</time>
      </trkpt>
      <trkpt lat="48.01535" lon="-3.47824">
        <ele>115.6</ele>
        <time>2025-02-26T15:02:38Z</time>
      </trkpt>
      <trkpt lat="48.01534" lon="-3.47823">
        <ele>115.5</ele>
        <time>2025-02-26T15:02:39Z</time>
      </trkpt>
      <trkpt lat="48.01533" lon="-3.47822">
        <ele>115.4</ele>
        <time>2025-02-26T15:02:40Z</time>
      </trkpt>
      <trkpt lat="48.01533" lon="-3.47821">
        <ele>115.3</ele>
        <time>2025-02-26T15:02:41Z</time>
      </trkpt>
      <trkpt lat="48.01531" lon="-3.47821">
        <ele>115.2</ele>
        <time>2025-02-26T15:02:42Z</time>
      </trkpt>
      <trkpt lat="48.0153" lon="-3.4782">
        <ele>115.1</ele>
        <time>2025-02-26T15:02:43Z</time>
      </trkpt>
      <trkpt lat="48.0153" lon="-3.47819">
        <ele>115.1</ele>
        <time>2025-02-26T15:02:44Z</time>
      </trkpt>
      <trkpt lat="48.01529" lon="-3.47819">
        <ele>115</ele>
        <time>2025-02-26T15:02:45Z</time>
      </trkpt>
      <trkpt lat="48.01529" lon="-3.47818">
        <ele>114.9</ele>
        <time>2025-02-26T15:02:46Z</time>
      </trkpt>
      <trkpt lat="48.01528" lon="-3.47818">
        <ele>114.9</ele>
        <time>2025-02-26T15:02:47Z</time>
      </trkpt>
      <trkpt lat="48.01527" lon="-3.47818">
        <ele>114.9</ele>
        <time>2025-02-26T15:02:48Z</time>
      </trkpt>
      <trkpt lat="48.01526" lon="-3.47819">
        <ele>114.9</ele>
        <time>2025-02-26T15:02:49Z</time>
      </trkpt>
      <trkpt lat="48.01525" lon="-3.47819">
        <ele>114.9</ele>
        <time>2025-02-26T15:02:50Z</time>
      </trkpt>
      <trkpt lat="48.01524" lon="-3.47821">
        <ele>115</ele>
        <time>2025-02-26T15:02:51Z</time>
      </trkpt>
      <trkpt lat="48.01524" lon="-3.47822">
        <ele>115.1</ele>
        <time>2025-02-26T15:02:52Z</time>
      </trkpt>
      <trkpt lat="48.01524" lon="-3.47824">
        <ele>115.3</ele>
        <time>2025-02-26T15:02:53Z</time>
      </trkpt>
      <trkpt lat="48.01524" lon="-3.47826">
        <ele>115.4</ele>
        <time>2025-02-26T15:02:54Z</time>
      </trkpt>
      <trkpt lat="48.01524" lon="-3.47827">
        <ele>115.5</ele>
        <time>2025-02-26T15:02:55Z</time>
      </trkpt>
      <trkpt lat="48.01525" lon="-3.47829">
        <ele>115.6</ele>
        <time>2025-02-26T15:02:56Z</time>
      </trkpt>
      <trkpt lat="48.01525" lon="-3.4783">
        <ele>115.7</ele>
        <time>2025-02-26T15:02:57Z</time>
      </trkpt>
      <trkpt lat="48.01525" lon="-3.47831">
        <ele>115.7</ele>
        <time>2025-02-26T15:02:58Z</time>
      </trkpt>
      <trkpt lat="48.01524" lon="-3.47832">
        <ele>115.8</ele>
        <time>2025-02-26T15:02:59Z</time>
      </trkpt>
      <trkpt lat="48.01524" lon="-3.47833">
        <ele>115.8</ele>
        <time>2025-02-26T15:03:00Z</time>
      </trkpt>
      <trkpt lat="48.01524" lon="-3.47835">
        <ele>115.9</ele>
        <time>2025-02-26T15:03:01Z</time>
      </trkpt>
      <trkpt lat="48.01524" lon="-3.47836">
        <ele>116</ele>
        <time>2025-02-26T15:03:02Z</time>
      </trkpt>
      <trkpt lat="48.01524" lon="-3.47838">
        <ele>116</ele>
        <time>2025-02-26T15:03:03Z</time>
      </trkpt>
      <trkpt lat="48.01523" lon="-3.47839">
        <ele>116</ele>
        <time>2025-02-26T15:03:04Z</time>
      </trkpt>
      <trkpt lat="48.01523" lon="-3.4784">
        <ele>116.1</ele>
        <time>2025-02-26T15:03:05Z</time>
      </trkpt>
      <trkpt lat="48.01523" lon="-3.47842">
        <ele>116.1</ele>
        <time>2025-02-26T15:03:06Z</time>
      </trkpt>
      <trkpt lat="48.01523" lon="-3.47843">
        <ele>116.2</ele>
        <time>2025-02-26T15:03:07Z</time>
      </trkpt>
      <trkpt lat="48.01523" lon="-3.47844">
        <ele>116.2</ele>
        <time>2025-02-26T15:03:08Z</time>
      </trkpt>
      <trkpt lat="48.01523" lon="-3.47846">
        <ele>116.3</ele>
        <time>2025-02-26T15:03:09Z</time>
      </trkpt>
      <trkpt lat="48.01523" lon="-3.47847">
        <ele>116.3</ele>
        <time>2025-02-26T15:03:10Z</time>
      </trkpt>
      <trkpt lat="48.01522" lon="-3.47849">
        <ele>116.4</ele>
        <time>2025-02-26T15:03:11Z</time>
      </trkpt>
      <trkpt lat="48.01522" lon="-3.4785">
        <ele>116.4</ele>
        <time>2025-02-26T15:03:12Z</time>
      </trkpt>
      <trkpt lat="48.01522" lon="-3.47852">
        <ele>116.5</ele>
        <time>2025-02-26T15:03:13Z</time>
      </trkpt>
      <trkpt lat="48.01523" lon="-3.47853">
        <ele>116.5</ele>
        <time>2025-02-26T15:03:14Z</time>
      </trkpt>
      <trkpt lat="48.01523" lon="-3.47855">
        <ele>116.6</ele>
        <time>2025-02-26T15:03:15Z</time>
      </trkpt>
      <trkpt lat="48.01522" lon="-3.47857">
        <ele>116.6</ele>
        <time>2025-02-26T15:03:16Z</time>
      </trkpt>
      <trkpt lat="48.01522" lon="-3.47859">
        <ele>116.7</ele>
        <time>2025-02-26T15:03:17Z</time>
      </trkpt>
      <trkpt lat="48.01521" lon="-3.47861">
        <ele>116.8</ele>
        <time>2025-02-26T15:03:18Z</time>
      </trkpt>
      <trkpt lat="48.01521" lon="-3.47862">
        <ele>116.8</ele>
        <time>2025-02-26T15:03:19Z</time>
      </trkpt>
      <trkpt lat="48.01521" lon="-3.47864">
        <ele>116.8</ele>
        <time>2025-02-26T15:03:20Z</time>
      </trkpt>
      <trkpt lat="48.0152" lon="-3.47865">
        <ele>116.9</ele>
        <time>2025-02-26T15:03:21Z</time>
      </trkpt>
      <trkpt lat="48.0152" lon="-3.47867">
        <ele>116.9</ele>
        <time>2025-02-26T15:03:22Z</time>
      </trkpt>
      <trkpt lat="48.0152" lon="-3.47868">
        <ele>117</ele>
        <time>2025-02-26T15:03:23Z</time>
      </trkpt>
      <trkpt lat="48.0152" lon="-3.4787">
        <ele>117</ele>
        <time>2025-02-26T15:03:24Z</time>
      </trkpt>
      <trkpt lat="48.0152" lon="-3.47872">
        <ele>117.1</ele>
        <time>2025-02-26T15:03:25Z</time>
      </trkpt>
      <trkpt lat="48.01521" lon="-3.47874">
        <ele>117.2</ele>
        <time>2025-02-26T15:03:26Z</time>
      </trkpt>
      <trkpt lat="48.01521" lon="-3.47876">
        <ele>117.3</ele>
        <time>2025-02-26T15:03:27Z</time>
      </trkpt>
      <trkpt lat="48.01521" lon="-3.47878">
        <ele>117.3</ele>
        <time>2025-02-26T15:03:28Z</time>
      </trkpt>
      <trkpt lat="48.0152" lon="-3.47879">
        <ele>117.4</ele>
        <time>2025-02-26T15:03:29Z</time>
      </trkpt>
      <trkpt lat="48.0152" lon="-3.47881">
        <ele>117.4</ele>
        <time>2025-02-26T15:03:30Z</time>
      </trkpt>
      <trkpt lat="48.01519" lon="-3.47883">
        <ele>117.5</ele>
        <time>2025-02-26T15:03:31Z</time>
      </trkpt>
      <trkpt lat="48.01519" lon="-3.47885">
        <ele>117.5</ele>
        <time>2025-02-26T15:03:32Z</time>
      </trkpt>
      <trkpt lat="48.01519" lon="-3.47887">
        <ele>117.6</ele>
        <time>2025-02-26T15:03:33Z</time>
      </trkpt>
      <trkpt lat="48.01518" lon="-3.47889">
        <ele>117.7</ele>
        <time>2025-02-26T15:03:34Z</time>
      </trkpt>
      <trkpt lat="48.01518" lon="-3.47891">
        <ele>117.7</ele>
        <time>2025-02-26T15:03:35Z</time>
      </trkpt>
      <trkpt lat="48.01519" lon="-3.47893">
        <ele>117.8</ele>
        <time>2025-02-26T15:03:36Z</time>
      </trkpt>
      <trkpt lat="48.01518" lon="-3.47895">
        <ele>117.9</ele>
        <time>2025-02-26T15:03:37Z</time>
      </trkpt>
      <trkpt lat="48.01518" lon="-3.47897">
        <ele>117.9</ele>
        <time>2025-02-26T15:03:38Z</time>
      </trkpt>
      <trkpt lat="48.01518" lon="-3.47898">
        <ele>118</ele>
        <time>2025-02-26T15:03:39Z</time>
      </trkpt>
      <trkpt lat="48.01518" lon="-3.47899">
        <ele>118</ele>
        <time>2025-02-26T15:03:40Z</time>
      </trkpt>
      <trkpt lat="48.01518" lon="-3.47901">
        <ele>118.1</ele>
        <time>2025-02-26T15:03:41Z</time>
      </trkpt>
      <trkpt lat="48.01518" lon="-3.47903">
        <ele>118.1</ele>
        <time>2025-02-26T15:03:42Z</time>
      </trkpt>
      <trkpt lat="48.01518" lon="-3.47904">
        <ele>118.2</ele>
        <time>2025-02-26T15:03:43Z</time>
      </trkpt>
      <trkpt lat="48.01518" lon="-3.47905">
        <ele>118.2</ele>
        <time>2025-02-26T15:03:44Z</time>
      </trkpt>
      <trkpt lat="48.01518" lon="-3.47907">
        <ele>118.3</ele>
        <time>2025-02-26T15:03:45Z</time>
      </trkpt>
      <trkpt lat="48.01518" lon="-3.47909">
        <ele>118.4</ele>
        <time>2025-02-26T15:03:46Z</time>
      </trkpt>
      <trkpt lat="48.01517" lon="-3.47911">
        <ele>118.4</ele>
        <time>2025-02-26T15:03:47Z</time>
      </trkpt>
      <trkpt lat="48.01517" lon="-3.47912">
        <ele>118.5</ele>
        <time>2025-02-26T15:03:48Z</time>
      </trkpt>
      <trkpt lat="48.01518" lon="-3.47914">
        <ele>118.5</ele>
        <time>2025-02-26T15:03:49Z</time>
      </trkpt>
      <trkpt lat="48.01518" lon="-3.47915">
        <ele>118.6</ele>
        <time>2025-02-26T15:03:50Z</time>
      </trkpt>
      <trkpt lat="48.01518" lon="-3.47916">
        <ele>118.6</ele>
        <time>2025-02-26T15:03:51Z</time>
      </trkpt>
      <trkpt lat="48.01518" lon="-3.47918">
        <ele>118.7</ele>
        <time>2025-02-26T15:03:52Z</time>
      </trkpt>
      <trkpt lat="48.01518" lon="-3.4792">
        <ele>118.6</ele>
        <time>2025-02-26T15:03:53Z</time>
      </trkpt>
      <trkpt lat="48.01518" lon="-3.47921">
        <ele>118.6</ele>
        <time>2025-02-26T15:03:54Z</time>
      </trkpt>
      <trkpt lat="48.01518" lon="-3.47923">
        <ele>118.6</ele>
        <time>2025-02-26T15:03:55Z</time>
      </trkpt>
      <trkpt lat="48.01518" lon="-3.47924">
        <ele>118.7</ele>
        <time>2025-02-26T15:03:56Z</time>
      </trkpt>
      <trkpt lat="48.01519" lon="-3.47925">
        <ele>118.7</ele>
        <time>2025-02-26T15:03:57Z</time>
      </trkpt>
      <trkpt lat="48.01519" lon="-3.47927">
        <ele>118.7</ele>
        <time>2025-02-26T15:03:58Z</time>
      </trkpt>
      <trkpt lat="48.01519" lon="-3.47929">
        <ele>118.7</ele>
        <time>2025-02-26T15:03:59Z</time>
      </trkpt>
      <trkpt lat="48.0152" lon="-3.47931">
        <ele>118.7</ele>
        <time>2025-02-26T15:04:00Z</time>
      </trkpt>
      <trkpt lat="48.0152" lon="-3.47933">
        <ele>118.7</ele>
        <time>2025-02-26T15:04:01Z</time>
      </trkpt>
      <trkpt lat="48.01521" lon="-3.47934">
        <ele>118.8</ele>
        <time>2025-02-26T15:04:02Z</time>
      </trkpt>
      <trkpt lat="48.01521" lon="-3.47936">
        <ele>118.8</ele>
        <time>2025-02-26T15:04:03Z</time>
      </trkpt>
      <trkpt lat="48.01521" lon="-3.47937">
        <ele>118.8</ele>
        <time>2025-02-26T15:04:04Z</time>
      </trkpt>
      <trkpt lat="48.01521" lon="-3.47939">
        <ele>118.8</ele>
        <time>2025-02-26T15:04:05Z</time>
      </trkpt>
      <trkpt lat="48.01522" lon="-3.4794">
        <ele>118.8</ele>
        <time>2025-02-26T15:04:06Z</time>
      </trkpt>
      <trkpt lat="48.01522" lon="-3.47941">
        <ele>118.8</ele>
        <time>2025-02-26T15:04:07Z</time>
      </trkpt>
      <trkpt lat="48.01523" lon="-3.47943">
        <ele>118.8</ele>
        <time>2025-02-26T15:04:08Z</time>
      </trkpt>
      <trkpt lat="48.01523" lon="-3.47945">
        <ele>118.8</ele>
        <time>2025-02-26T15:04:09Z</time>
      </trkpt>
      <trkpt lat="48.01523" lon="-3.47946">
        <ele>118.8</ele>
        <time>2025-02-26T15:04:10Z</time>
      </trkpt>
      <trkpt lat="48.01524" lon="-3.47948">
        <ele>118.9</ele>
        <time>2025-02-26T15:04:11Z</time>
      </trkpt>
      <trkpt lat="48.01524" lon="-3.47949">
        <ele>118.9</ele>
        <time>2025-02-26T15:04:12Z</time>
      </trkpt>
      <trkpt lat="48.01525" lon="-3.47951">
        <ele>118.9</ele>
        <time>2025-02-26T15:04:13Z</time>
      </trkpt>
      <trkpt lat="48.01525" lon="-3.47953">
        <ele>118.9</ele>
        <time>2025-02-26T15:04:14Z</time>
      </trkpt>
      <trkpt lat="48.01525" lon="-3.47954">
        <ele>118.9</ele>
        <time>2025-02-26T15:04:15Z</time>
      </trkpt>
      <trkpt lat="48.01526" lon="-3.47956">
        <ele>119</ele>
        <time>2025-02-26T15:04:16Z</time>
      </trkpt>
      <trkpt lat="48.01527" lon="-3.47957">
        <ele>119</ele>
        <time>2025-02-26T15:04:17Z</time>
      </trkpt>
      <trkpt lat="48.01527" lon="-3.47959">
        <ele>119</ele>
        <time>2025-02-26T15:04:18Z</time>
      </trkpt>
      <trkpt lat="48.01527" lon="-3.47961">
        <ele>119</ele>
        <time>2025-02-26T15:04:19Z</time>
      </trkpt>
      <trkpt lat="48.01527" lon="-3.47963">
        <ele>119</ele>
        <time>2025-02-26T15:04:20Z</time>
      </trkpt>
      <trkpt lat="48.01528" lon="-3.47965">
        <ele>119</ele>
        <time>2025-02-26T15:04:21Z</time>
      </trkpt>
      <trkpt lat="48.01528" lon="-3.47968">
        <ele>119</ele>
        <time>2025-02-26T15:04:22Z</time>
      </trkpt>
      <trkpt lat="48.01529" lon="-3.4797">
        <ele>119.1</ele>
        <time>2025-02-26T15:04:23Z</time>
      </trkpt>
      <trkpt lat="48.0153" lon="-3.47973">
        <ele>119.1</ele>
        <time>2025-02-26T15:04:24Z</time>
      </trkpt>
      <trkpt lat="48.01531" lon="-3.47975">
        <ele>119.2</ele>
        <time>2025-02-26T15:04:25Z</time>
      </trkpt>
      <trkpt lat="48.01532" lon="-3.47976">
        <ele>119.3</ele>
        <time>2025-02-26T15:04:26Z</time>
      </trkpt>
      <trkpt lat="48.01532" lon="-3.47979">
        <ele>119.4</ele>
        <time>2025-02-26T15:04:27Z</time>
      </trkpt>
      <trkpt lat="48.01533" lon="-3.4798">
        <ele>119.4</ele>
        <time>2025-02-26T15:04:28Z</time>
      </trkpt>
      <trkpt lat="48.01534" lon="-3.47981">
        <ele>119.5</ele>
        <time>2025-02-26T15:04:29Z</time>
      </trkpt>
      <trkpt lat="48.01534" lon="-3.47982">
        <ele>119.5</ele>
        <time>2025-02-26T15:04:30Z</time>
      </trkpt>
      <trkpt lat="48.01534" lon="-3.47984">
        <ele>119.5</ele>
        <time>2025-02-26T15:04:31Z</time>
      </trkpt>
      <trkpt lat="48.01534" lon="-3.47986">
        <ele>119.6</ele>
        <time>2025-02-26T15:04:32Z</time>
      </trkpt>
      <trkpt lat="48.01535" lon="-3.47987">
        <ele>119.7</ele>
        <time>2025-02-26T15:04:33Z</time>
      </trkpt>
      <trkpt lat="48.01535" lon="-3.47989">
        <ele>119.7</ele>
        <time>2025-02-26T15:04:34Z</time>
      </trkpt>
      <trkpt lat="48.01535" lon="-3.4799">
        <ele>119.7</ele>
        <time>2025-02-26T15:04:35Z</time>
      </trkpt>
      <trkpt lat="48.01535" lon="-3.47992">
        <ele>119.8</ele>
        <time>2025-02-26T15:04:36Z</time>
      </trkpt>
      <trkpt lat="48.01534" lon="-3.47993">
        <ele>119.8</ele>
        <time>2025-02-26T15:04:37Z</time>
      </trkpt>
      <trkpt lat="48.01534" lon="-3.47995">
        <ele>119.9</ele>
        <time>2025-02-26T15:04:38Z</time>
      </trkpt>
      <trkpt lat="48.01534" lon="-3.47997">
        <ele>119.9</ele>
        <time>2025-02-26T15:04:39Z</time>
      </trkpt>
      <trkpt lat="48.01534" lon="-3.47998">
        <ele>119.9</ele>
        <time>2025-02-26T15:04:40Z</time>
      </trkpt>
      <trkpt lat="48.01534" lon="-3.48">
        <ele>120</ele>
        <time>2025-02-26T15:04:41Z</time>
      </trkpt>
      <trkpt lat="48.01535" lon="-3.48001">
        <ele>120</ele>
        <time>2025-02-26T15:04:42Z</time>
      </trkpt>
      <trkpt lat="48.01536" lon="-3.48002">
        <ele>120</ele>
        <time>2025-02-26T15:04:43Z</time>
      </trkpt>
      <trkpt lat="48.01537" lon="-3.48003">
        <ele>120</ele>
        <time>2025-02-26T15:04:44Z</time>
      </trkpt>
      <trkpt lat="48.01537" lon="-3.48004">
        <ele>120</ele>
        <time>2025-02-26T15:04:45Z</time>
      </trkpt>
      <trkpt lat="48.01537" lon="-3.48005">
        <ele>120</ele>
        <time>2025-02-26T15:04:46Z</time>
      </trkpt>
      <trkpt lat="48.01537" lon="-3.48007">
        <ele>120</ele>
        <time>2025-02-26T15:04:47Z</time>
      </trkpt>
      <trkpt lat="48.01538" lon="-3.48008">
        <ele>120</ele>
        <time>2025-02-26T15:04:48Z</time>
      </trkpt>
      <trkpt lat="48.01538" lon="-3.4801">
        <ele>120</ele>
        <time>2025-02-26T15:04:49Z</time>
      </trkpt>
      <trkpt lat="48.01538" lon="-3.48011">
        <ele>120</ele>
        <time>2025-02-26T15:04:50Z</time>
      </trkpt>
      <trkpt lat="48.01538" lon="-3.48013">
        <ele>120</ele>
        <time>2025-02-26T15:04:51Z</time>
      </trkpt>
      <trkpt lat="48.01538" lon="-3.48014">
        <ele>120</ele>
        <time>2025-02-26T15:04:52Z</time>
      </trkpt>
      <trkpt lat="48.01539" lon="-3.48016">
        <ele>120</ele>
        <time>2025-02-26T15:04:53Z</time>
      </trkpt>
      <trkpt lat="48.01539" lon="-3.48017">
        <ele>120</ele>
        <time>2025-02-26T15:04:54Z</time>
      </trkpt>
      <trkpt lat="48.01539" lon="-3.48019">
        <ele>120</ele>
        <time>2025-02-26T15:04:55Z</time>
      </trkpt>
      <trkpt lat="48.01539" lon="-3.48021">
        <ele>120</ele>
        <time>2025-02-26T15:04:56Z</time>
      </trkpt>
      <trkpt lat="48.01539" lon="-3.48022">
        <ele>120</ele>
        <time>2025-02-26T15:04:57Z</time>
      </trkpt>
      <trkpt lat="48.01539" lon="-3.48024">
        <ele>120</ele>
        <time>2025-02-26T15:04:58Z</time>
      </trkpt>
      <trkpt lat="48.01539" lon="-3.48025">
        <ele>120</ele>
        <time>2025-02-26T15:04:59Z</time>
      </trkpt>
      <trkpt lat="48.01539" lon="-3.48027">
        <ele>120</ele>
        <time>2025-02-26T15:05:00Z</time>
      </trkpt>
      <trkpt lat="48.01539" lon="-3.48028">
        <ele>120</ele>
        <time>2025-02-26T15:05:01Z</time>
      </trkpt>
      <trkpt lat="48.01539" lon="-3.4803">
        <ele>120</ele>
        <time>2025-02-26T15:05:02Z</time>
      </trkpt>
      <trkpt lat="48.01539" lon="-3.48031">
        <ele>120</ele>
        <time>2025-02-26T15:05:03Z</time>
      </trkpt>
      <trkpt lat="48.01539" lon="-3.48033">
        <ele>120</ele>
        <time>2025-02-26T15:05:04Z</time>
      </trkpt>
      <trkpt lat="48.01539" lon="-3.48034">
        <ele>120</ele>
        <time>2025-02-26T15:05:05Z</time>
      </trkpt>
      <trkpt lat="48.01539" lon="-3.48036">
        <ele>120</ele>
        <time>2025-02-26T15:05:06Z</time>
      </trkpt>
      <trkpt lat="48.01539" lon="-3.48037">
        <ele>120</ele>
        <time>2025-02-26T15:05:07Z</time>
      </trkpt>
      <trkpt lat="48.01538" lon="-3.48039">
        <ele>120</ele>
        <time>2025-02-26T15:05:08Z</time>
      </trkpt>
      <trkpt lat="48.01538" lon="-3.4804">
        <ele>120</ele>
        <time>2025-02-26T15:05:09Z</time>
      </trkpt>
      <trkpt lat="48.01538" lon="-3.48042">
        <ele>120</ele>
        <time>2025-02-26T15:05:10Z</time>
      </trkpt>
      <trkpt lat="48.01538" lon="-3.48043">
        <ele>120</ele>
        <time>2025-02-26T15:05:11Z</time>
      </trkpt>
      <trkpt lat="48.01538" lon="-3.48045">
        <ele>120</ele>
        <time>2025-02-26T15:05:12Z</time>
      </trkpt>
      <trkpt lat="48.01538" lon="-3.48047">
        <ele>120</ele>
        <time>2025-02-26T15:05:13Z</time>
      </trkpt>
      <trkpt lat="48.01538" lon="-3.4805">
        <ele>120</ele>
        <time>2025-02-26T15:05:14Z</time>
      </trkpt>
      <trkpt lat="48.01538" lon="-3.48053">
        <ele>120</ele>
        <time>2025-02-26T15:05:15Z</time>
      </trkpt>
      <trkpt lat="48.01538" lon="-3.48056">
        <ele>120</ele>
        <time>2025-02-26T15:05:16Z</time>
      </trkpt>
      <trkpt lat="48.01538" lon="-3.48058">
        <ele>120</ele>
        <time>2025-02-26T15:05:17Z</time>
      </trkpt>
      <trkpt lat="48.01538" lon="-3.48059">
        <ele>120</ele>
        <time>2025-02-26T15:05:18Z</time>
      </trkpt>
      <trkpt lat="48.01538" lon="-3.48061">
        <ele>120</ele>
        <time>2025-02-26T15:05:19Z</time>
      </trkpt>
      <trkpt lat="48.01538" lon="-3.48063">
        <ele>120</ele>
        <time>2025-02-26T15:05:20Z</time>
      </trkpt>
      <trkpt lat="48.01539" lon="-3.48064">
        <ele>120</ele>
        <time>2025-02-26T15:05:21Z</time>
      </trkpt>
      <trkpt lat="48.01539" lon="-3.48065">
        <ele>120</ele>
        <time>2025-02-26T15:05:22Z</time>
      </trkpt>
      <trkpt lat="48.01539" lon="-3.48067">
        <ele>120</ele>
        <time>2025-02-26T15:05:23Z</time>
      </trkpt>
      <trkpt lat="48.01539" lon="-3.48068">
        <ele>120</ele>
        <time>2025-02-26T15:05:24Z</time>
      </trkpt>
      <trkpt lat="48.01538" lon="-3.48069">
        <ele>120</ele>
        <time>2025-02-26T15:05:25Z</time>
      </trkpt>
      <trkpt lat="48.01538" lon="-3.48071">
        <ele>120</ele>
        <time>2025-02-26T15:05:26Z</time>
      </trkpt>
      <trkpt lat="48.01538" lon="-3.48072">
        <ele>120</ele>
        <time>2025-02-26T15:05:27Z</time>
      </trkpt>
      <trkpt lat="48.01538" lon="-3.48074">
        <ele>120</ele>
        <time>2025-02-26T15:05:28Z</time>
      </trkpt>
      <trkpt lat="48.01538" lon="-3.48076">
        <ele>120</ele>
        <time>2025-02-26T15:05:29Z</time>
      </trkpt>
      <trkpt lat="48.01538" lon="-3.48077">
        <ele>120</ele>
        <time>2025-02-26T15:05:30Z</time>
      </trkpt>
      <trkpt lat="48.01538" lon="-3.48079">
        <ele>120</ele>
        <time>2025-02-26T15:05:31Z</time>
      </trkpt>
      <trkpt lat="48.01538" lon="-3.48081">
        <ele>120</ele>
        <time>2025-02-26T15:05:32Z</time>
      </trkpt>
      <trkpt lat="48.01538" lon="-3.48083">
        <ele>120</ele>
        <time>2025-02-26T15:05:33Z</time>
      </trkpt>
      <trkpt lat="48.01538" lon="-3.48085">
        <ele>120</ele>
        <time>2025-02-26T15:05:34Z</time>
      </trkpt>
      <trkpt lat="48.01538" lon="-3.48087">
        <ele>120</ele>
        <time>2025-02-26T15:05:35Z</time>
      </trkpt>
      <trkpt lat="48.01538" lon="-3.48089">
        <ele>120</ele>
        <time>2025-02-26T15:05:36Z</time>
      </trkpt>
      <trkpt lat="48.01538" lon="-3.48091">
        <ele>120</ele>
        <time>2025-02-26T15:05:37Z</time>
      </trkpt>
      <trkpt lat="48.01538" lon="-3.48093">
        <ele>120</ele>
        <time>2025-02-26T15:05:38Z</time>
      </trkpt>
      <trkpt lat="48.01538" lon="-3.48095">
        <ele>120</ele>
        <time>2025-02-26T15:05:39Z</time>
      </trkpt>
      <trkpt lat="48.01538" lon="-3.48096">
        <ele>120</ele>
        <time>2025-02-26T15:05:40Z</time>
      </trkpt>
      <trkpt lat="48.01538" lon="-3.48099">
        <ele>120</ele>
        <time>2025-02-26T15:05:41Z</time>
      </trkpt>
      <trkpt lat="48.01537" lon="-3.481">
        <ele>120</ele>
        <time>2025-02-26T15:05:42Z</time>
      </trkpt>
      <trkpt lat="48.01537" lon="-3.48102">
        <ele>120</ele>
        <time>2025-02-26T15:05:43Z</time>
      </trkpt>
      <trkpt lat="48.01537" lon="-3.48104">
        <ele>120</ele>
        <time>2025-02-26T15:05:44Z</time>
      </trkpt>
      <trkpt lat="48.01537" lon="-3.48106">
        <ele>120</ele>
        <time>2025-02-26T15:05:45Z</time>
      </trkpt>
      <trkpt lat="48.01537" lon="-3.48108">
        <ele>120</ele>
        <time>2025-02-26T15:05:46Z</time>
      </trkpt>
      <trkpt lat="48.01537" lon="-3.4811">
        <ele>120</ele>
        <time>2025-02-26T15:05:47Z</time>
      </trkpt>
      <trkpt lat="48.01538" lon="-3.48112">
        <ele>120</ele>
        <time>2025-02-26T15:05:48Z</time>
      </trkpt>
      <trkpt lat="48.01538" lon="-3.48113">
        <ele>120</ele>
        <time>2025-02-26T15:05:49Z</time>
      </trkpt>
      <trkpt lat="48.01538" lon="-3.48115">
        <ele>120</ele>
        <time>2025-02-26T15:05:50Z</time>
      </trkpt>
      <trkpt lat="48.01539" lon="-3.48117">
        <ele>120</ele>
        <time>2025-02-26T15:05:51Z</time>
      </trkpt>
      <trkpt lat="48.01539" lon="-3.48118">
        <ele>120</ele>
        <time>2025-02-26T15:05:52Z</time>
      </trkpt>
      <trkpt lat="48.01539" lon="-3.4812">
        <ele>120</ele>
        <time>2025-02-26T15:05:53Z</time>
      </trkpt>
      <trkpt lat="48.01538" lon="-3.48121">
        <ele>120</ele>
        <time>2025-02-26T15:05:54Z</time>
      </trkpt>
      <trkpt lat="48.01538" lon="-3.48123">
        <ele>120</ele>
        <time>2025-02-26T15:05:55Z</time>
      </trkpt>
      <trkpt lat="48.01538" lon="-3.48125">
        <ele>120</ele>
        <time>2025-02-26T15:05:56Z</time>
      </trkpt>
      <trkpt lat="48.01537" lon="-3.48127">
        <ele>120</ele>
        <time>2025-02-26T15:05:57Z</time>
      </trkpt>
      <trkpt lat="48.01537" lon="-3.48128">
        <ele>120</ele>
        <time>2025-02-26T15:05:58Z</time>
      </trkpt>
      <trkpt lat="48.01537" lon="-3.4813">
        <ele>120</ele>
        <time>2025-02-26T15:05:59Z</time>
      </trkpt>
      <trkpt lat="48.01537" lon="-3.48132">
        <ele>120</ele>
        <time>2025-02-26T15:06:00Z</time>
      </trkpt>
      <trkpt lat="48.01537" lon="-3.48134">
        <ele>120</ele>
        <time>2025-02-26T15:06:01Z</time>
      </trkpt>
      <trkpt lat="48.01537" lon="-3.48136">
        <ele>120</ele>
        <time>2025-02-26T15:06:02Z</time>
      </trkpt>
      <trkpt lat="48.01536" lon="-3.48137">
        <ele>120</ele>
        <time>2025-02-26T15:06:03Z</time>
      </trkpt>
      <trkpt lat="48.01537" lon="-3.48139">
        <ele>120</ele>
        <time>2025-02-26T15:06:04Z</time>
      </trkpt>
      <trkpt lat="48.01537" lon="-3.48141">
        <ele>120</ele>
        <time>2025-02-26T15:06:05Z</time>
      </trkpt>
      <trkpt lat="48.01536" lon="-3.48143">
        <ele>120</ele>
        <time>2025-02-26T15:06:06Z</time>
      </trkpt>
      <trkpt lat="48.01536" lon="-3.48144">
        <ele>120</ele>
        <time>2025-02-26T15:06:07Z</time>
      </trkpt>
      <trkpt lat="48.01536" lon="-3.48146">
        <ele>120</ele>
        <time>2025-02-26T15:06:08Z</time>
      </trkpt>
      <trkpt lat="48.01536" lon="-3.48147">
        <ele>120</ele>
        <time>2025-02-26T15:06:09Z</time>
      </trkpt>
      <trkpt lat="48.01536" lon="-3.48149">
        <ele>120</ele>
        <time>2025-02-26T15:06:10Z</time>
      </trkpt>
      <trkpt lat="48.01536" lon="-3.48151">
        <ele>120</ele>
        <time>2025-02-26T15:06:11Z</time>
      </trkpt>
      <trkpt lat="48.01536" lon="-3.48153">
        <ele>120</ele>
        <time>2025-02-26T15:06:12Z</time>
      </trkpt>
      <trkpt lat="48.01536" lon="-3.48155">
        <ele>120</ele>
        <time>2025-02-26T15:06:13Z</time>
      </trkpt>
      <trkpt lat="48.01536" lon="-3.48157">
        <ele>120</ele>
        <time>2025-02-26T15:06:14Z</time>
      </trkpt>
      <trkpt lat="48.01536" lon="-3.48158">
        <ele>120</ele>
        <time>2025-02-26T15:06:15Z</time>
      </trkpt>
      <trkpt lat="48.01536" lon="-3.4816">
        <ele>120</ele>
        <time>2025-02-26T15:06:16Z</time>
      </trkpt>
      <trkpt lat="48.01536" lon="-3.48162">
        <ele>120</ele>
        <time>2025-02-26T15:06:17Z</time>
      </trkpt>
      <trkpt lat="48.01536" lon="-3.48164">
        <ele>120</ele>
        <time>2025-02-26T15:06:18Z</time>
      </trkpt>
      <trkpt lat="48.01535" lon="-3.48166">
        <ele>120</ele>
        <time>2025-02-26T15:06:19Z</time>
      </trkpt>
      <trkpt lat="48.01536" lon="-3.48168">
        <ele>120</ele>
        <time>2025-02-26T15:06:20Z</time>
      </trkpt>
      <trkpt lat="48.01536" lon="-3.4817">
        <ele>120</ele>
        <time>2025-02-26T15:06:21Z</time>
      </trkpt>
      <trkpt lat="48.01537" lon="-3.48172">
        <ele>120</ele>
        <time>2025-02-26T15:06:22Z</time>
      </trkpt>
      <trkpt lat="48.01536" lon="-3.48174">
        <ele>120</ele>
        <time>2025-02-26T15:06:23Z</time>
      </trkpt>
      <trkpt lat="48.01537" lon="-3.48176">
        <ele>120</ele>
        <time>2025-02-26T15:06:24Z</time>
      </trkpt>
      <trkpt lat="48.01537" lon="-3.48177">
        <ele>120</ele>
        <time>2025-02-26T15:06:25Z</time>
      </trkpt>
      <trkpt lat="48.01537" lon="-3.48179">
        <ele>120</ele>
        <time>2025-02-26T15:06:26Z</time>
      </trkpt>
      <trkpt lat="48.01536" lon="-3.48181">
        <ele>120</ele>
        <time>2025-02-26T15:06:27Z</time>
      </trkpt>
      <trkpt lat="48.01536" lon="-3.48182">
        <ele>120</ele>
        <time>2025-02-26T15:06:28Z</time>
      </trkpt>
      <trkpt lat="48.01536" lon="-3.48184">
        <ele>120</ele>
        <time>2025-02-26T15:06:29Z</time>
      </trkpt>
      <trkpt lat="48.01536" lon="-3.48186">
        <ele>120</ele>
        <time>2025-02-26T15:06:30Z</time>
      </trkpt>
      <trkpt lat="48.01536" lon="-3.48188">
        <ele>120</ele>
        <time>2025-02-26T15:06:31Z</time>
      </trkpt>
      <trkpt lat="48.01535" lon="-3.4819">
        <ele>120</ele>
        <time>2025-02-26T15:06:32Z</time>
      </trkpt>
      <trkpt lat="48.01535" lon="-3.48192">
        <ele>120</ele>
        <time>2025-02-26T15:06:33Z</time>
      </trkpt>
      <trkpt lat="48.01535" lon="-3.48193">
        <ele>120</ele>
        <time>2025-02-26T15:06:34Z</time>
      </trkpt>
      <trkpt lat="48.01536" lon="-3.48195">
        <ele>120</ele>
        <time>2025-02-26T15:06:35Z</time>
      </trkpt>
      <trkpt lat="48.01536" lon="-3.48196">
        <ele>120</ele>
        <time>2025-02-26T15:06:36Z</time>
      </trkpt>
      <trkpt lat="48.01536" lon="-3.48198">
        <ele>120</ele>
        <time>2025-02-26T15:06:37Z</time>
      </trkpt>
      <trkpt lat="48.01537" lon="-3.48199">
        <ele>120</ele>
        <time>2025-02-26T15:06:38Z</time>
      </trkpt>
      <trkpt lat="48.01536" lon="-3.48201">
        <ele>120</ele>
        <time>2025-02-26T15:06:39Z</time>
      </trkpt>
      <trkpt lat="48.01537" lon="-3.48203">
        <ele>120</ele>
        <time>2025-02-26T15:06:40Z</time>
      </trkpt>
      <trkpt lat="48.01537" lon="-3.48205">
        <ele>120</ele>
        <time>2025-02-26T15:06:41Z</time>
      </trkpt>
      <trkpt lat="48.01537" lon="-3.48207">
        <ele>120</ele>
        <time>2025-02-26T15:06:42Z</time>
      </trkpt>
      <trkpt lat="48.01536" lon="-3.48209">
        <ele>120</ele>
        <time>2025-02-26T15:06:43Z</time>
      </trkpt>
      <trkpt lat="48.01536" lon="-3.48211">
        <ele>120</ele>
        <time>2025-02-26T15:06:44Z</time>
      </trkpt>
      <trkpt lat="48.01536" lon="-3.48212">
        <ele>120</ele>
        <time>2025-02-26T15:06:45Z</time>
      </trkpt>
      <trkpt lat="48.01536" lon="-3.48214">
        <ele>120</ele>
        <time>2025-02-26T15:06:46Z</time>
      </trkpt>
      <trkpt lat="48.01536" lon="-3.48216">
        <ele>120</ele>
        <time>2025-02-26T15:06:47Z</time>
      </trkpt>
      <trkpt lat="48.01536" lon="-3.48218">
        <ele>120</ele>
        <time>2025-02-26T15:06:48Z</time>
      </trkpt>
      <trkpt lat="48.01536" lon="-3.4822">
        <ele>120</ele>
        <time>2025-02-26T15:06:49Z</time>
      </trkpt>
      <trkpt lat="48.01536" lon="-3.48221">
        <ele>120</ele>
        <time>2025-02-26T15:06:50Z</time>
      </trkpt>
      <trkpt lat="48.01536" lon="-3.48223">
        <ele>120</ele>
        <time>2025-02-26T15:06:51Z</time>
      </trkpt>
      <trkpt lat="48.01536" lon="-3.48225">
        <ele>119.9</ele>
        <time>2025-02-26T15:06:52Z</time>
      </trkpt>
      <trkpt lat="48.01536" lon="-3.48226">
        <ele>119.9</ele>
        <time>2025-02-26T15:06:53Z</time>
      </trkpt>
      <trkpt lat="48.01535" lon="-3.48228">
        <ele>119.8</ele>
        <time>2025-02-26T15:06:54Z</time>
      </trkpt>
      <trkpt lat="48.01535" lon="-3.4823">
        <ele>119.8</ele>
        <time>2025-02-26T15:06:55Z</time>
      </trkpt>
      <trkpt lat="48.01535" lon="-3.48231">
        <ele>119.8</ele>
        <time>2025-02-26T15:06:56Z</time>
      </trkpt>
      <trkpt lat="48.01535" lon="-3.48233">
        <ele>119.7</ele>
        <time>2025-02-26T15:06:57Z</time>
      </trkpt>
      <trkpt lat="48.01535" lon="-3.48235">
        <ele>119.7</ele>
        <time>2025-02-26T15:06:58Z</time>
      </trkpt>
      <trkpt lat="48.01535" lon="-3.48237">
        <ele>119.6</ele>
        <time>2025-02-26T15:06:59Z</time>
      </trkpt>
      <trkpt lat="48.01535" lon="-3.48239">
        <ele>119.5</ele>
        <time>2025-02-26T15:07:00Z</time>
      </trkpt>
      <trkpt lat="48.01535" lon="-3.48241">
        <ele>119.5</ele>
        <time>2025-02-26T15:07:01Z</time>
      </trkpt>
      <trkpt lat="48.01535" lon="-3.48243">
        <ele>119.5</ele>
        <time>2025-02-26T15:07:02Z</time>
      </trkpt>
      <trkpt lat="48.01535" lon="-3.48245">
        <ele>119.4</ele>
        <time>2025-02-26T15:07:03Z</time>
      </trkpt>
      <trkpt lat="48.01535" lon="-3.48247">
        <ele>119.3</ele>
        <time>2025-02-26T15:07:04Z</time>
      </trkpt>
      <trkpt lat="48.01534" lon="-3.48249">
        <ele>119.3</ele>
        <time>2025-02-26T15:07:05Z</time>
      </trkpt>
      <trkpt lat="48.01534" lon="-3.4825">
        <ele>119.2</ele>
        <time>2025-02-26T15:07:06Z</time>
      </trkpt>
      <trkpt lat="48.01534" lon="-3.48252">
        <ele>119.2</ele>
        <time>2025-02-26T15:07:07Z</time>
      </trkpt>
      <trkpt lat="48.01535" lon="-3.48254">
        <ele>119.2</ele>
        <time>2025-02-26T15:07:08Z</time>
      </trkpt>
      <trkpt lat="48.01535" lon="-3.48256">
        <ele>119.2</ele>
        <time>2025-02-26T15:07:09Z</time>
      </trkpt>
      <trkpt lat="48.01534" lon="-3.48257">
        <ele>119.2</ele>
        <time>2025-02-26T15:07:10Z</time>
      </trkpt>
      <trkpt lat="48.01535" lon="-3.48259">
        <ele>119.2</ele>
        <time>2025-02-26T15:07:11Z</time>
      </trkpt>
      <trkpt lat="48.01535" lon="-3.48261">
        <ele>119.3</ele>
        <time>2025-02-26T15:07:12Z</time>
      </trkpt>
      <trkpt lat="48.01534" lon="-3.48263">
        <ele>119.2</ele>
        <time>2025-02-26T15:07:13Z</time>
      </trkpt>
      <trkpt lat="48.01534" lon="-3.48265">
        <ele>119.2</ele>
        <time>2025-02-26T15:07:14Z</time>
      </trkpt>
      <trkpt lat="48.01534" lon="-3.48267">
        <ele>119.2</ele>
        <time>2025-02-26T15:07:15Z</time>
      </trkpt>
      <trkpt lat="48.01534" lon="-3.48268">
        <ele>119.2</ele>
        <time>2025-02-26T15:07:16Z</time>
      </trkpt>
      <trkpt lat="48.01534" lon="-3.4827">
        <ele>119.2</ele>
        <time>2025-02-26T15:07:17Z</time>
      </trkpt>
      <trkpt lat="48.01534" lon="-3.48272">
        <ele>119.2</ele>
        <time>2025-02-26T15:07:18Z</time>
      </trkpt>
      <trkpt lat="48.01534" lon="-3.48273">
        <ele>119.2</ele>
        <time>2025-02-26T15:07:19Z</time>
      </trkpt>
      <trkpt lat="48.01534" lon="-3.48275">
        <ele>119.2</ele>
        <time>2025-02-26T15:07:20Z</time>
      </trkpt>
      <trkpt lat="48.01534" lon="-3.48277">
        <ele>119.2</ele>
        <time>2025-02-26T15:07:21Z</time>
      </trkpt>
      <trkpt lat="48.01534" lon="-3.48278">
        <ele>119.2</ele>
        <time>2025-02-26T15:07:22Z</time>
      </trkpt>
      <trkpt lat="48.01534" lon="-3.4828">
        <ele>119.1</ele>
        <time>2025-02-26T15:07:23Z</time>
      </trkpt>
      <trkpt lat="48.01534" lon="-3.48282">
        <ele>119.1</ele>
        <time>2025-02-26T15:07:24Z</time>
      </trkpt>
      <trkpt lat="48.01533" lon="-3.48284">
        <ele>119</ele>
        <time>2025-02-26T15:07:25Z</time>
      </trkpt>
      <trkpt lat="48.01533" lon="-3.48285">
        <ele>118.9</ele>
        <time>2025-02-26T15:07:26Z</time>
      </trkpt>
      <trkpt lat="48.01534" lon="-3.48287">
        <ele>118.9</ele>
        <time>2025-02-26T15:07:27Z</time>
      </trkpt>
      <trkpt lat="48.01534" lon="-3.48289">
        <ele>118.8</ele>
        <time>2025-02-26T15:07:28Z</time>
      </trkpt>
      <trkpt lat="48.01534" lon="-3.48291">
        <ele>118.8</ele>
        <time>2025-02-26T15:07:29Z</time>
      </trkpt>
      <trkpt lat="48.01534" lon="-3.48293">
        <ele>118.7</ele>
        <time>2025-02-26T15:07:30Z</time>
      </trkpt>
      <trkpt lat="48.01533" lon="-3.48294">
        <ele>118.6</ele>
        <time>2025-02-26T15:07:31Z</time>
      </trkpt>
      <trkpt lat="48.01533" lon="-3.48296">
        <ele>118.5</ele>
        <time>2025-02-26T15:07:32Z</time>
      </trkpt>
      <trkpt lat="48.01533" lon="-3.48298">
        <ele>118.5</ele>
        <time>2025-02-26T15:07:33Z</time>
      </trkpt>
      <trkpt lat="48.01532" lon="-3.483">
        <ele>118.4</ele>
        <time>2025-02-26T15:07:34Z</time>
      </trkpt>
      <trkpt lat="48.01532" lon="-3.48301">
        <ele>118.3</ele>
        <time>2025-02-26T15:07:35Z</time>
      </trkpt>
      <trkpt lat="48.01532" lon="-3.48303">
        <ele>118.2</ele>
        <time>2025-02-26T15:07:36Z</time>
      </trkpt>
      <trkpt lat="48.01532" lon="-3.48305">
        <ele>118.2</ele>
        <time>2025-02-26T15:07:37Z</time>
      </trkpt>
      <trkpt lat="48.01532" lon="-3.48307">
        <ele>118.1</ele>
        <time>2025-02-26T15:07:38Z</time>
      </trkpt>
      <trkpt lat="48.01531" lon="-3.48309">
        <ele>118.1</ele>
        <time>2025-02-26T15:07:39Z</time>
      </trkpt>
      <trkpt lat="48.01531" lon="-3.48311">
        <ele>118.1</ele>
        <time>2025-02-26T15:07:40Z</time>
      </trkpt>
      <trkpt lat="48.01531" lon="-3.48312">
        <ele>118.1</ele>
        <time>2025-02-26T15:07:41Z</time>
      </trkpt>
      <trkpt lat="48.01532" lon="-3.48314">
        <ele>118.1</ele>
        <time>2025-02-26T15:07:42Z</time>
      </trkpt>
      <trkpt lat="48.01531" lon="-3.48316">
        <ele>118.1</ele>
        <time>2025-02-26T15:07:43Z</time>
      </trkpt>
      <trkpt lat="48.01532" lon="-3.48318">
        <ele>118.2</ele>
        <time>2025-02-26T15:07:44Z</time>
      </trkpt>
      <trkpt lat="48.01533" lon="-3.4832">
        <ele>118.2</ele>
        <time>2025-02-26T15:07:45Z</time>
      </trkpt>
      <trkpt lat="48.01533" lon="-3.48322">
        <ele>118.2</ele>
        <time>2025-02-26T15:07:46Z</time>
      </trkpt>
      <trkpt lat="48.01533" lon="-3.48324">
        <ele>118.2</ele>
        <time>2025-02-26T15:07:47Z</time>
      </trkpt>
      <trkpt lat="48.01532" lon="-3.48326">
        <ele>118.2</ele>
        <time>2025-02-26T15:07:48Z</time>
      </trkpt>
      <trkpt lat="48.01532" lon="-3.48327">
        <ele>118.2</ele>
        <time>2025-02-26T15:07:49Z</time>
      </trkpt>
      <trkpt lat="48.01532" lon="-3.48329">
        <ele>118.1</ele>
        <time>2025-02-26T15:07:50Z</time>
      </trkpt>
      <trkpt lat="48.01532" lon="-3.48331">
        <ele>118.1</ele>
        <time>2025-02-26T15:07:51Z</time>
      </trkpt>
      <trkpt lat="48.01531" lon="-3.48333">
        <ele>118.1</ele>
        <time>2025-02-26T15:07:52Z</time>
      </trkpt>
      <trkpt lat="48.01531" lon="-3.48335">
        <ele>118.1</ele>
        <time>2025-02-26T15:07:53Z</time>
      </trkpt>
      <trkpt lat="48.01531" lon="-3.48337">
        <ele>118</ele>
        <time>2025-02-26T15:07:54Z</time>
      </trkpt>
      <trkpt lat="48.01531" lon="-3.48339">
        <ele>117.9</ele>
        <time>2025-02-26T15:07:55Z</time>
      </trkpt>
      <trkpt lat="48.01531" lon="-3.4834">
        <ele>117.9</ele>
        <time>2025-02-26T15:07:56Z</time>
      </trkpt>
      <trkpt lat="48.01531" lon="-3.48342">
        <ele>117.8</ele>
        <time>2025-02-26T15:07:57Z</time>
      </trkpt>
      <trkpt lat="48.01531" lon="-3.48344">
        <ele>117.7</ele>
        <time>2025-02-26T15:07:58Z</time>
      </trkpt>
      <trkpt lat="48.01531" lon="-3.48346">
        <ele>117.7</ele>
        <time>2025-02-26T15:07:59Z</time>
      </trkpt>
      <trkpt lat="48.01531" lon="-3.48347">
        <ele>117.6</ele>
        <time>2025-02-26T15:08:00Z</time>
      </trkpt>
      <trkpt lat="48.01531" lon="-3.48349">
        <ele>117.6</ele>
        <time>2025-02-26T15:08:01Z</time>
      </trkpt>
      <trkpt lat="48.01531" lon="-3.48351">
        <ele>117.5</ele>
        <time>2025-02-26T15:08:02Z</time>
      </trkpt>
      <trkpt lat="48.01531" lon="-3.48353">
        <ele>117.4</ele>
        <time>2025-02-26T15:08:03Z</time>
      </trkpt>
      <trkpt lat="48.01531" lon="-3.48355">
        <ele>117.3</ele>
        <time>2025-02-26T15:08:04Z</time>
      </trkpt>
      <trkpt lat="48.0153" lon="-3.48356">
        <ele>117.3</ele>
        <time>2025-02-26T15:08:05Z</time>
      </trkpt>
      <trkpt lat="48.0153" lon="-3.48357">
        <ele>117.2</ele>
        <time>2025-02-26T15:08:06Z</time>
      </trkpt>
      <trkpt lat="48.01529" lon="-3.48359">
        <ele>117.1</ele>
        <time>2025-02-26T15:08:07Z</time>
      </trkpt>
      <trkpt lat="48.01529" lon="-3.48359">
        <ele>117.1</ele>
        <time>2025-02-26T15:08:08Z</time>
      </trkpt>
      <trkpt lat="48.01528" lon="-3.4836">
        <ele>117</ele>
        <time>2025-02-26T15:08:09Z</time>
      </trkpt>
      <trkpt lat="48.01527" lon="-3.48361">
        <ele>117</ele>
        <time>2025-02-26T15:08:10Z</time>
      </trkpt>
      <trkpt lat="48.01526" lon="-3.48362">
        <ele>116.9</ele>
        <time>2025-02-26T15:08:11Z</time>
      </trkpt>
      <trkpt lat="48.01525" lon="-3.48363">
        <ele>116.9</ele>
        <time>2025-02-26T15:08:12Z</time>
      </trkpt>
      <trkpt lat="48.01525" lon="-3.48364">
        <ele>116.9</ele>
        <time>2025-02-26T15:08:13Z</time>
      </trkpt>
      <trkpt lat="48.01524" lon="-3.48365">
        <ele>116.9</ele>
        <time>2025-02-26T15:08:14Z</time>
      </trkpt>
      <trkpt lat="48.01523" lon="-3.48366">
        <ele>116.8</ele>
        <time>2025-02-26T15:08:15Z</time>
      </trkpt>
      <trkpt lat="48.01523" lon="-3.48367">
        <ele>116.8</ele>
        <time>2025-02-26T15:08:16Z</time>
      </trkpt>
      <trkpt lat="48.01522" lon="-3.48368">
        <ele>116.8</ele>
        <time>2025-02-26T15:08:17Z</time>
      </trkpt>
      <trkpt lat="48.01521" lon="-3.48369">
        <ele>116.7</ele>
        <time>2025-02-26T15:08:18Z</time>
      </trkpt>
      <trkpt lat="48.0152" lon="-3.48371">
        <ele>116.7</ele>
        <time>2025-02-26T15:08:19Z</time>
      </trkpt>
      <trkpt lat="48.01519" lon="-3.48372">
        <ele>116.7</ele>
        <time>2025-02-26T15:08:20Z</time>
      </trkpt>
      <trkpt lat="48.01519" lon="-3.48373">
        <ele>116.7</ele>
        <time>2025-02-26T15:08:21Z</time>
      </trkpt>
      <trkpt lat="48.01518" lon="-3.48374">
        <ele>116.6</ele>
        <time>2025-02-26T15:08:22Z</time>
      </trkpt>
      <trkpt lat="48.01518" lon="-3.48376">
        <ele>116.6</ele>
        <time>2025-02-26T15:08:23Z</time>
      </trkpt>
      <trkpt lat="48.01517" lon="-3.48377">
        <ele>116.6</ele>
        <time>2025-02-26T15:08:24Z</time>
      </trkpt>
      <trkpt lat="48.01516" lon="-3.48379">
        <ele>116.6</ele>
        <time>2025-02-26T15:08:25Z</time>
      </trkpt>
      <trkpt lat="48.01515" lon="-3.4838">
        <ele>116.6</ele>
        <time>2025-02-26T15:08:26Z</time>
      </trkpt>
      <trkpt lat="48.01515" lon="-3.48381">
        <ele>116.5</ele>
        <time>2025-02-26T15:08:27Z</time>
      </trkpt>
      <trkpt lat="48.01514" lon="-3.48383">
        <ele>116.5</ele>
        <time>2025-02-26T15:08:28Z</time>
      </trkpt>
      <trkpt lat="48.01514" lon="-3.48384">
        <ele>116.5</ele>
        <time>2025-02-26T15:08:29Z</time>
      </trkpt>
      <trkpt lat="48.01514" lon="-3.48386">
        <ele>116.5</ele>
        <time>2025-02-26T15:08:30Z</time>
      </trkpt>
      <trkpt lat="48.01513" lon="-3.48387">
        <ele>116.5</ele>
        <time>2025-02-26T15:08:31Z</time>
      </trkpt>
      <trkpt lat="48.01512" lon="-3.48389">
        <ele>116.4</ele>
        <time>2025-02-26T15:08:32Z</time>
      </trkpt>
      <trkpt lat="48.01512" lon="-3.4839">
        <ele>116.4</ele>
        <time>2025-02-26T15:08:33Z</time>
      </trkpt>
      <trkpt lat="48.01511" lon="-3.48392">
        <ele>116.3</ele>
        <time>2025-02-26T15:08:34Z</time>
      </trkpt>
      <trkpt lat="48.01511" lon="-3.48393">
        <ele>116.2</ele>
        <time>2025-02-26T15:08:35Z</time>
      </trkpt>
      <trkpt lat="48.0151" lon="-3.48395">
        <ele>116.2</ele>
        <time>2025-02-26T15:08:36Z</time>
      </trkpt>
      <trkpt lat="48.01509" lon="-3.48396">
        <ele>116.1</ele>
        <time>2025-02-26T15:08:37Z</time>
      </trkpt>
      <trkpt lat="48.01509" lon="-3.48397">
        <ele>116</ele>
        <time>2025-02-26T15:08:38Z</time>
      </trkpt>
      <trkpt lat="48.01508" lon="-3.48399">
        <ele>115.9</ele>
        <time>2025-02-26T15:08:39Z</time>
      </trkpt>
      <trkpt lat="48.01508" lon="-3.484">
        <ele>115.9</ele>
        <time>2025-02-26T15:08:40Z</time>
      </trkpt>
      <trkpt lat="48.01507" lon="-3.48401">
        <ele>115.8</ele>
        <time>2025-02-26T15:08:41Z</time>
      </trkpt>
      <trkpt lat="48.01506" lon="-3.48402">
        <ele>115.7</ele>
        <time>2025-02-26T15:08:42Z</time>
      </trkpt>
      <trkpt lat="48.01505" lon="-3.48404">
        <ele>115.6</ele>
        <time>2025-02-26T15:08:43Z</time>
      </trkpt>
      <trkpt lat="48.01504" lon="-3.48406">
        <ele>115.5</ele>
        <time>2025-02-26T15:08:44Z</time>
      </trkpt>
      <trkpt lat="48.01503" lon="-3.48407">
        <ele>115.5</ele>
        <time>2025-02-26T15:08:45Z</time>
      </trkpt>
      <trkpt lat="48.01503" lon="-3.48408">
        <ele>115.4</ele>
        <time>2025-02-26T15:08:46Z</time>
      </trkpt>
      <trkpt lat="48.01502" lon="-3.4841">
        <ele>115.3</ele>
        <time>2025-02-26T15:08:47Z</time>
      </trkpt>
      <trkpt lat="48.01501" lon="-3.48411">
        <ele>115.3</ele>
        <time>2025-02-26T15:08:48Z</time>
      </trkpt>
      <trkpt lat="48.015" lon="-3.48412">
        <ele>115.2</ele>
        <time>2025-02-26T15:08:49Z</time>
      </trkpt>
      <trkpt lat="48.015" lon="-3.48413">
        <ele>115.1</ele>
        <time>2025-02-26T15:08:50Z</time>
      </trkpt>
      <trkpt lat="48.01499" lon="-3.48414">
        <ele>115</ele>
        <time>2025-02-26T15:08:51Z</time>
      </trkpt>
      <trkpt lat="48.01498" lon="-3.48415">
        <ele>114.9</ele>
        <time>2025-02-26T15:08:52Z</time>
      </trkpt>
      <trkpt lat="48.01497" lon="-3.48417">
        <ele>114.8</ele>
        <time>2025-02-26T15:08:53Z</time>
      </trkpt>
      <trkpt lat="48.01497" lon="-3.48418">
        <ele>114.7</ele>
        <time>2025-02-26T15:08:54Z</time>
      </trkpt>
      <trkpt lat="48.01496" lon="-3.48419">
        <ele>114.6</ele>
        <time>2025-02-26T15:08:55Z</time>
      </trkpt>
      <trkpt lat="48.01495" lon="-3.48421">
        <ele>114.5</ele>
        <time>2025-02-26T15:08:56Z</time>
      </trkpt>
      <trkpt lat="48.01494" lon="-3.48422">
        <ele>114.4</ele>
        <time>2025-02-26T15:08:57Z</time>
      </trkpt>
      <trkpt lat="48.01493" lon="-3.48424">
        <ele>114.3</ele>
        <time>2025-02-26T15:08:58Z</time>
      </trkpt>
      <trkpt lat="48.01493" lon="-3.48425">
        <ele>114.2</ele>
        <time>2025-02-26T15:08:59Z</time>
      </trkpt>
      <trkpt lat="48.01492" lon="-3.48426">
        <ele>114.1</ele>
        <time>2025-02-26T15:09:00Z</time>
      </trkpt>
      <trkpt lat="48.01491" lon="-3.48427">
        <ele>114</ele>
        <time>2025-02-26T15:09:01Z</time>
      </trkpt>
      <trkpt lat="48.01491" lon="-3.48429">
        <ele>113.9</ele>
        <time>2025-02-26T15:09:02Z</time>
      </trkpt>
      <trkpt lat="48.0149" lon="-3.4843">
        <ele>113.8</ele>
        <time>2025-02-26T15:09:03Z</time>
      </trkpt>
      <trkpt lat="48.01489" lon="-3.48431">
        <ele>113.7</ele>
        <time>2025-02-26T15:09:04Z</time>
      </trkpt>
      <trkpt lat="48.01488" lon="-3.48432">
        <ele>113.6</ele>
        <time>2025-02-26T15:09:05Z</time>
      </trkpt>
      <trkpt lat="48.01487" lon="-3.48434">
        <ele>113.5</ele>
        <time>2025-02-26T15:09:06Z</time>
      </trkpt>
      <trkpt lat="48.01486" lon="-3.48435">
        <ele>113.4</ele>
        <time>2025-02-26T15:09:07Z</time>
      </trkpt>
      <trkpt lat="48.01485" lon="-3.48436">
        <ele>113.2</ele>
        <time>2025-02-26T15:09:08Z</time>
      </trkpt>
      <trkpt lat="48.01484" lon="-3.48437">
        <ele>113.1</ele>
        <time>2025-02-26T15:09:09Z</time>
      </trkpt>
      <trkpt lat="48.01483" lon="-3.48439">
        <ele>113</ele>
        <time>2025-02-26T15:09:10Z</time>
      </trkpt>
      <trkpt lat="48.01483" lon="-3.4844">
        <ele>112.9</ele>
        <time>2025-02-26T15:09:11Z</time>
      </trkpt>
      <trkpt lat="48.01482" lon="-3.48441">
        <ele>112.8</ele>
        <time>2025-02-26T15:09:12Z</time>
      </trkpt>
      <trkpt lat="48.01481" lon="-3.48442">
        <ele>112.7</ele>
        <time>2025-02-26T15:09:13Z</time>
      </trkpt>
      <trkpt lat="48.0148" lon="-3.48443">
        <ele>112.6</ele>
        <time>2025-02-26T15:09:14Z</time>
      </trkpt>
      <trkpt lat="48.01479" lon="-3.48444">
        <ele>112.5</ele>
        <time>2025-02-26T15:09:15Z</time>
      </trkpt>
      <trkpt lat="48.01478" lon="-3.48445">
        <ele>112.4</ele>
        <time>2025-02-26T15:09:16Z</time>
      </trkpt>
      <trkpt lat="48.01477" lon="-3.48446">
        <ele>112.3</ele>
        <time>2025-02-26T15:09:17Z</time>
      </trkpt>
      <trkpt lat="48.01476" lon="-3.48447">
        <ele>112.2</ele>
        <time>2025-02-26T15:09:18Z</time>
      </trkpt>
      <trkpt lat="48.01476" lon="-3.48448">
        <ele>112.1</ele>
        <time>2025-02-26T15:09:19Z</time>
      </trkpt>
      <trkpt lat="48.01475" lon="-3.4845">
        <ele>112</ele>
        <time>2025-02-26T15:09:20Z</time>
      </trkpt>
      <trkpt lat="48.01474" lon="-3.48451">
        <ele>111.9</ele>
        <time>2025-02-26T15:09:21Z</time>
      </trkpt>
      <trkpt lat="48.01473" lon="-3.48451">
        <ele>111.8</ele>
        <time>2025-02-26T15:09:22Z</time>
      </trkpt>
      <trkpt lat="48.01471" lon="-3.48452">
        <ele>111.7</ele>
        <time>2025-02-26T15:09:23Z</time>
      </trkpt>
      <trkpt lat="48.0147" lon="-3.48452">
        <ele>111.6</ele>
        <time>2025-02-26T15:09:24Z</time>
      </trkpt>
      <trkpt lat="48.01469" lon="-3.48453">
        <ele>111.5</ele>
        <time>2025-02-26T15:09:25Z</time>
      </trkpt>
      <trkpt lat="48.01468" lon="-3.48454">
        <ele>111.3</ele>
        <time>2025-02-26T15:09:26Z</time>
      </trkpt>
      <trkpt lat="48.01467" lon="-3.48454">
        <ele>111.2</ele>
        <time>2025-02-26T15:09:27Z</time>
      </trkpt>
      <trkpt lat="48.01465" lon="-3.48455">
        <ele>111.1</ele>
        <time>2025-02-26T15:09:28Z</time>
      </trkpt>
      <trkpt lat="48.01464" lon="-3.48455">
        <ele>111</ele>
        <time>2025-02-26T15:09:29Z</time>
      </trkpt>
      <trkpt lat="48.01463" lon="-3.48455">
        <ele>110.9</ele>
        <time>2025-02-26T15:09:30Z</time>
      </trkpt>
      <trkpt lat="48.01462" lon="-3.48456">
        <ele>110.8</ele>
        <time>2025-02-26T15:09:31Z</time>
      </trkpt>
      <trkpt lat="48.01461" lon="-3.48457">
        <ele>110.7</ele>
        <time>2025-02-26T15:09:32Z</time>
      </trkpt>
      <trkpt lat="48.01459" lon="-3.48458">
        <ele>110.6</ele>
        <time>2025-02-26T15:09:33Z</time>
      </trkpt>
      <trkpt lat="48.01458" lon="-3.48458">
        <ele>110.5</ele>
        <time>2025-02-26T15:09:34Z</time>
      </trkpt>
      <trkpt lat="48.01457" lon="-3.48458">
        <ele>110.4</ele>
        <time>2025-02-26T15:09:35Z</time>
      </trkpt>
      <trkpt lat="48.01456" lon="-3.48459">
        <ele>110.3</ele>
        <time>2025-02-26T15:09:36Z</time>
      </trkpt>
      <trkpt lat="48.01455" lon="-3.4846">
        <ele>110.2</ele>
        <time>2025-02-26T15:09:37Z</time>
      </trkpt>
      <trkpt lat="48.01453" lon="-3.4846">
        <ele>110.1</ele>
        <time>2025-02-26T15:09:38Z</time>
      </trkpt>
      <trkpt lat="48.01452" lon="-3.4846">
        <ele>110</ele>
        <time>2025-02-26T15:09:39Z</time>
      </trkpt>
      <trkpt lat="48.01451" lon="-3.4846">
        <ele>109.9</ele>
        <time>2025-02-26T15:09:40Z</time>
      </trkpt>
      <trkpt lat="48.0145" lon="-3.48461">
        <ele>109.8</ele>
        <time>2025-02-26T15:09:41Z</time>
      </trkpt>
      <trkpt lat="48.01449" lon="-3.48462">
        <ele>109.7</ele>
        <time>2025-02-26T15:09:42Z</time>
      </trkpt>
      <trkpt lat="48.01448" lon="-3.48463">
        <ele>109.6</ele>
        <time>2025-02-26T15:09:43Z</time>
      </trkpt>
      <trkpt lat="48.01447" lon="-3.48463">
        <ele>109.5</ele>
        <time>2025-02-26T15:09:44Z</time>
      </trkpt>
      <trkpt lat="48.01446" lon="-3.48462">
        <ele>109.5</ele>
        <time>2025-02-26T15:09:45Z</time>
      </trkpt>
      <trkpt lat="48.01445" lon="-3.48463">
        <ele>109.4</ele>
        <time>2025-02-26T15:09:46Z</time>
      </trkpt>
      <trkpt lat="48.01444" lon="-3.48463">
        <ele>109.3</ele>
        <time>2025-02-26T15:09:47Z</time>
      </trkpt>
      <trkpt lat="48.01443" lon="-3.48464">
        <ele>109.2</ele>
        <time>2025-02-26T15:09:48Z</time>
      </trkpt>
      <trkpt lat="48.01441" lon="-3.48463">
        <ele>109.1</ele>
        <time>2025-02-26T15:09:49Z</time>
      </trkpt>
      <trkpt lat="48.0144" lon="-3.48465">
        <ele>109</ele>
        <time>2025-02-26T15:09:50Z</time>
      </trkpt>
      <trkpt lat="48.01439" lon="-3.48465">
        <ele>108.9</ele>
        <time>2025-02-26T15:09:51Z</time>
      </trkpt>
      <trkpt lat="48.01438" lon="-3.48466">
        <ele>108.8</ele>
        <time>2025-02-26T15:09:52Z</time>
      </trkpt>
      <trkpt lat="48.01437" lon="-3.48467">
        <ele>108.7</ele>
        <time>2025-02-26T15:09:53Z</time>
      </trkpt>
      <trkpt lat="48.01436" lon="-3.48467">
        <ele>108.6</ele>
        <time>2025-02-26T15:09:54Z</time>
      </trkpt>
      <trkpt lat="48.01435" lon="-3.48467">
        <ele>108.6</ele>
        <time>2025-02-26T15:09:55Z</time>
      </trkpt>
      <trkpt lat="48.01434" lon="-3.48467">
        <ele>108.5</ele>
        <time>2025-02-26T15:09:56Z</time>
      </trkpt>
      <trkpt lat="48.01433" lon="-3.48468">
        <ele>108.4</ele>
        <time>2025-02-26T15:09:57Z</time>
      </trkpt>
      <trkpt lat="48.01432" lon="-3.48469">
        <ele>108.3</ele>
        <time>2025-02-26T15:09:58Z</time>
      </trkpt>
      <trkpt lat="48.01431" lon="-3.48469">
        <ele>108.2</ele>
        <time>2025-02-26T15:09:59Z</time>
      </trkpt>
      <trkpt lat="48.0143" lon="-3.4847">
        <ele>108.1</ele>
        <time>2025-02-26T15:10:00Z</time>
      </trkpt>
      <trkpt lat="48.01429" lon="-3.4847">
        <ele>108</ele>
        <time>2025-02-26T15:10:01Z</time>
      </trkpt>
      <trkpt lat="48.01428" lon="-3.48471">
        <ele>107.9</ele>
        <time>2025-02-26T15:10:02Z</time>
      </trkpt>
      <trkpt lat="48.01427" lon="-3.4847">
        <ele>107.8</ele>
        <time>2025-02-26T15:10:03Z</time>
      </trkpt>
      <trkpt lat="48.01426" lon="-3.4847">
        <ele>107.8</ele>
        <time>2025-02-26T15:10:04Z</time>
      </trkpt>
      <trkpt lat="48.01425" lon="-3.48469">
        <ele>107.8</ele>
        <time>2025-02-26T15:10:05Z</time>
      </trkpt>
      <trkpt lat="48.01424" lon="-3.4847">
        <ele>107.7</ele>
        <time>2025-02-26T15:10:06Z</time>
      </trkpt>
      <trkpt lat="48.01423" lon="-3.4847">
        <ele>107.6</ele>
        <time>2025-02-26T15:10:07Z</time>
      </trkpt>
      <trkpt lat="48.01422" lon="-3.48471">
        <ele>107.4</ele>
        <time>2025-02-26T15:10:08Z</time>
      </trkpt>
      <trkpt lat="48.01421" lon="-3.48472">
        <ele>107.3</ele>
        <time>2025-02-26T15:10:09Z</time>
      </trkpt>
      <trkpt lat="48.0142" lon="-3.48472">
        <ele>107.2</ele>
        <time>2025-02-26T15:10:10Z</time>
      </trkpt>
      <trkpt lat="48.01419" lon="-3.48473">
        <ele>107.1</ele>
        <time>2025-02-26T15:10:11Z</time>
      </trkpt>
      <trkpt lat="48.01418" lon="-3.48474">
        <ele>107</ele>
        <time>2025-02-26T15:10:12Z</time>
      </trkpt>
      <trkpt lat="48.01416" lon="-3.48474">
        <ele>106.9</ele>
        <time>2025-02-26T15:10:13Z</time>
      </trkpt>
      <trkpt lat="48.01415" lon="-3.48475">
        <ele>106.7</ele>
        <time>2025-02-26T15:10:14Z</time>
      </trkpt>
      <trkpt lat="48.01414" lon="-3.48476">
        <ele>106.6</ele>
        <time>2025-02-26T15:10:15Z</time>
      </trkpt>
      <trkpt lat="48.01413" lon="-3.48476">
        <ele>106.4</ele>
        <time>2025-02-26T15:10:16Z</time>
      </trkpt>
      <trkpt lat="48.01412" lon="-3.48477">
        <ele>106.3</ele>
        <time>2025-02-26T15:10:17Z</time>
      </trkpt>
      <trkpt lat="48.01411" lon="-3.48478">
        <ele>106.1</ele>
        <time>2025-02-26T15:10:18Z</time>
      </trkpt>
      <trkpt lat="48.0141" lon="-3.4848">
        <ele>106</ele>
        <time>2025-02-26T15:10:19Z</time>
      </trkpt>
      <trkpt lat="48.0141" lon="-3.48481">
        <ele>105.8</ele>
        <time>2025-02-26T15:10:20Z</time>
      </trkpt>
      <trkpt lat="48.0141" lon="-3.48483">
        <ele>105.8</ele>
        <time>2025-02-26T15:10:21Z</time>
      </trkpt>
      <trkpt lat="48.0141" lon="-3.48485">
        <ele>105.8</ele>
        <time>2025-02-26T15:10:22Z</time>
      </trkpt>
      <trkpt lat="48.0141" lon="-3.48486">
        <ele>105.6</ele>
        <time>2025-02-26T15:10:23Z</time>
      </trkpt>
      <trkpt lat="48.0141" lon="-3.48488">
        <ele>105.6</ele>
        <time>2025-02-26T15:10:24Z</time>
      </trkpt>
      <trkpt lat="48.01411" lon="-3.4849">
        <ele>105.7</ele>
        <time>2025-02-26T15:10:25Z</time>
      </trkpt>
      <trkpt lat="48.01412" lon="-3.48491">
        <ele>105.7</ele>
        <time>2025-02-26T15:10:26Z</time>
      </trkpt>
      <trkpt lat="48.01412" lon="-3.48493">
        <ele>105.7</ele>
        <time>2025-02-26T15:10:27Z</time>
      </trkpt>
      <trkpt lat="48.01413" lon="-3.48494">
        <ele>105.6</ele>
        <time>2025-02-26T15:10:28Z</time>
      </trkpt>
      <trkpt lat="48.01413" lon="-3.48496">
        <ele>105.7</ele>
        <time>2025-02-26T15:10:29Z</time>
      </trkpt>
      <trkpt lat="48.01414" lon="-3.48498">
        <ele>105.7</ele>
        <time>2025-02-26T15:10:30Z</time>
      </trkpt>
      <trkpt lat="48.01414" lon="-3.48499">
        <ele>105.6</ele>
        <time>2025-02-26T15:10:31Z</time>
      </trkpt>
      <trkpt lat="48.01415" lon="-3.48502">
        <ele>105.6</ele>
        <time>2025-02-26T15:10:32Z</time>
      </trkpt>
      <trkpt lat="48.01415" lon="-3.48504">
        <ele>105.5</ele>
        <time>2025-02-26T15:10:33Z</time>
      </trkpt>
      <trkpt lat="48.01416" lon="-3.48506">
        <ele>105.4</ele>
        <time>2025-02-26T15:10:34Z</time>
      </trkpt>
      <trkpt lat="48.01416" lon="-3.48508">
        <ele>105.3</ele>
        <time>2025-02-26T15:10:35Z</time>
      </trkpt>
      <trkpt lat="48.01416" lon="-3.4851">
        <ele>105.2</ele>
        <time>2025-02-26T15:10:36Z</time>
      </trkpt>
      <trkpt lat="48.01417" lon="-3.48512">
        <ele>105.1</ele>
        <time>2025-02-26T15:10:37Z</time>
      </trkpt>
      <trkpt lat="48.01417" lon="-3.48513">
        <ele>105.1</ele>
        <time>2025-02-26T15:10:38Z</time>
      </trkpt>
      <trkpt lat="48.01418" lon="-3.48514">
        <ele>105.1</ele>
        <time>2025-02-26T15:10:39Z</time>
      </trkpt>
      <trkpt lat="48.01418" lon="-3.48516">
        <ele>105</ele>
        <time>2025-02-26T15:10:40Z</time>
      </trkpt>
      <trkpt lat="48.01418" lon="-3.48518">
        <ele>104.8</ele>
        <time>2025-02-26T15:10:41Z</time>
      </trkpt>
      <trkpt lat="48.01418" lon="-3.4852">
        <ele>104.7</ele>
        <time>2025-02-26T15:10:42Z</time>
      </trkpt>
      <trkpt lat="48.01418" lon="-3.48521">
        <ele>104.6</ele>
        <time>2025-02-26T15:10:43Z</time>
      </trkpt>
      <trkpt lat="48.01419" lon="-3.48523">
        <ele>104.6</ele>
        <time>2025-02-26T15:10:44Z</time>
      </trkpt>
      <trkpt lat="48.01419" lon="-3.48524">
        <ele>104.5</ele>
        <time>2025-02-26T15:10:45Z</time>
      </trkpt>
      <trkpt lat="48.0142" lon="-3.48526">
        <ele>104.5</ele>
        <time>2025-02-26T15:10:46Z</time>
      </trkpt>
      <trkpt lat="48.0142" lon="-3.48528">
        <ele>104.3</ele>
        <time>2025-02-26T15:10:47Z</time>
      </trkpt>
      <trkpt lat="48.01419" lon="-3.48529">
        <ele>104.2</ele>
        <time>2025-02-26T15:10:48Z</time>
      </trkpt>
      <trkpt lat="48.0142" lon="-3.48531">
        <ele>104.2</ele>
        <time>2025-02-26T15:10:49Z</time>
      </trkpt>
      <trkpt lat="48.0142" lon="-3.48532">
        <ele>104.2</ele>
        <time>2025-02-26T15:10:50Z</time>
      </trkpt>
      <trkpt lat="48.01421" lon="-3.48534">
        <ele>104.2</ele>
        <time>2025-02-26T15:10:51Z</time>
      </trkpt>
      <trkpt lat="48.01421" lon="-3.48535">
        <ele>104.2</ele>
        <time>2025-02-26T15:10:52Z</time>
      </trkpt>
      <trkpt lat="48.01421" lon="-3.48537">
        <ele>104.2</ele>
        <time>2025-02-26T15:10:53Z</time>
      </trkpt>
      <trkpt lat="48.01422" lon="-3.48538">
        <ele>104.2</ele>
        <time>2025-02-26T15:10:54Z</time>
      </trkpt>
      <trkpt lat="48.01422" lon="-3.4854">
        <ele>104.1</ele>
        <time>2025-02-26T15:10:55Z</time>
      </trkpt>
      <trkpt lat="48.01422" lon="-3.48541">
        <ele>104.1</ele>
        <time>2025-02-26T15:10:56Z</time>
      </trkpt>
      <trkpt lat="48.01422" lon="-3.48543">
        <ele>104</ele>
        <time>2025-02-26T15:10:57Z</time>
      </trkpt>
      <trkpt lat="48.01422" lon="-3.48543">
        <ele>104</ele>
        <time>2025-02-26T15:10:58Z</time>
      </trkpt>
      <trkpt lat="48.01422" lon="-3.48545">
        <ele>104</ele>
        <time>2025-02-26T15:10:59Z</time>
      </trkpt>
      <trkpt lat="48.01422" lon="-3.48547">
        <ele>103.9</ele>
        <time>2025-02-26T15:11:00Z</time>
      </trkpt>
      <trkpt lat="48.01423" lon="-3.48549">
        <ele>103.9</ele>
        <time>2025-02-26T15:11:01Z</time>
      </trkpt>
      <trkpt lat="48.01423" lon="-3.48551">
        <ele>103.8</ele>
        <time>2025-02-26T15:11:02Z</time>
      </trkpt>
      <trkpt lat="48.01423" lon="-3.48552">
        <ele>103.8</ele>
        <time>2025-02-26T15:11:03Z</time>
      </trkpt>
      <trkpt lat="48.01424" lon="-3.48553">
        <ele>103.9</ele>
        <time>2025-02-26T15:11:04Z</time>
      </trkpt>
      <trkpt lat="48.01425" lon="-3.48553">
        <ele>104</ele>
        <time>2025-02-26T15:11:05Z</time>
      </trkpt>
      <trkpt lat="48.01426" lon="-3.48555">
        <ele>104</ele>
        <time>2025-02-26T15:11:06Z</time>
      </trkpt>
      <trkpt lat="48.01427" lon="-3.48556">
        <ele>104.1</ele>
        <time>2025-02-26T15:11:07Z</time>
      </trkpt>
      <trkpt lat="48.01427" lon="-3.48557">
        <ele>104.1</ele>
        <time>2025-02-26T15:11:08Z</time>
      </trkpt>
      <trkpt lat="48.01428" lon="-3.48558">
        <ele>104.1</ele>
        <time>2025-02-26T15:11:09Z</time>
      </trkpt>
      <trkpt lat="48.01428" lon="-3.4856">
        <ele>104</ele>
        <time>2025-02-26T15:11:10Z</time>
      </trkpt>
      <trkpt lat="48.01427" lon="-3.48561">
        <ele>103.9</ele>
        <time>2025-02-26T15:11:11Z</time>
      </trkpt>
      <trkpt lat="48.01427" lon="-3.48562">
        <ele>103.9</ele>
        <time>2025-02-26T15:11:12Z</time>
      </trkpt>
      <trkpt lat="48.01426" lon="-3.48564">
        <ele>103.8</ele>
        <time>2025-02-26T15:11:13Z</time>
      </trkpt>
      <trkpt lat="48.01426" lon="-3.48566">
        <ele>103.7</ele>
        <time>2025-02-26T15:11:14Z</time>
      </trkpt>
      <trkpt lat="48.01426" lon="-3.48567">
        <ele>103.6</ele>
        <time>2025-02-26T15:11:15Z</time>
      </trkpt>
      <trkpt lat="48.01426" lon="-3.48569">
        <ele>103.5</ele>
        <time>2025-02-26T15:11:16Z</time>
      </trkpt>
      <trkpt lat="48.01426" lon="-3.48571">
        <ele>103.4</ele>
        <time>2025-02-26T15:11:17Z</time>
      </trkpt>
      <trkpt lat="48.01426" lon="-3.48572">
        <ele>103.4</ele>
        <time>2025-02-26T15:11:18Z</time>
      </trkpt>
      <trkpt lat="48.01425" lon="-3.48574">
        <ele>103.3</ele>
        <time>2025-02-26T15:11:19Z</time>
      </trkpt>
      <trkpt lat="48.01425" lon="-3.48575">
        <ele>103.2</ele>
        <time>2025-02-26T15:11:20Z</time>
      </trkpt>
      <trkpt lat="48.01424" lon="-3.48577">
        <ele>103</ele>
        <time>2025-02-26T15:11:21Z</time>
      </trkpt>
      <trkpt lat="48.01424" lon="-3.48578">
        <ele>102.9</ele>
        <time>2025-02-26T15:11:22Z</time>
      </trkpt>
      <trkpt lat="48.01423" lon="-3.4858">
        <ele>102.8</ele>
        <time>2025-02-26T15:11:23Z</time>
      </trkpt>
      <trkpt lat="48.01423" lon="-3.48581">
        <ele>102.8</ele>
        <time>2025-02-26T15:11:24Z</time>
      </trkpt>
      <trkpt lat="48.01423" lon="-3.48583">
        <ele>102.7</ele>
        <time>2025-02-26T15:11:25Z</time>
      </trkpt>
      <trkpt lat="48.01422" lon="-3.48584">
        <ele>102.6</ele>
        <time>2025-02-26T15:11:26Z</time>
      </trkpt>
      <trkpt lat="48.01422" lon="-3.48585">
        <ele>102.5</ele>
        <time>2025-02-26T15:11:27Z</time>
      </trkpt>
      <trkpt lat="48.01421" lon="-3.48587">
        <ele>102.4</ele>
        <time>2025-02-26T15:11:28Z</time>
      </trkpt>
      <trkpt lat="48.01421" lon="-3.48588">
        <ele>102.3</ele>
        <time>2025-02-26T15:11:29Z</time>
      </trkpt>
      <trkpt lat="48.0142" lon="-3.48589">
        <ele>102.2</ele>
        <time>2025-02-26T15:11:30Z</time>
      </trkpt>
      <trkpt lat="48.01421" lon="-3.48591">
        <ele>102.1</ele>
        <time>2025-02-26T15:11:31Z</time>
      </trkpt>
      <trkpt lat="48.01421" lon="-3.48593">
        <ele>102.1</ele>
        <time>2025-02-26T15:11:32Z</time>
      </trkpt>
      <trkpt lat="48.01421" lon="-3.48594">
        <ele>102.1</ele>
        <time>2025-02-26T15:11:33Z</time>
      </trkpt>
      <trkpt lat="48.01421" lon="-3.48595">
        <ele>102</ele>
        <time>2025-02-26T15:11:34Z</time>
      </trkpt>
      <trkpt lat="48.0142" lon="-3.48597">
        <ele>101.9</ele>
        <time>2025-02-26T15:11:35Z</time>
      </trkpt>
      <trkpt lat="48.0142" lon="-3.48598">
        <ele>101.8</ele>
        <time>2025-02-26T15:11:36Z</time>
      </trkpt>
      <trkpt lat="48.0142" lon="-3.486">
        <ele>101.7</ele>
        <time>2025-02-26T15:11:37Z</time>
      </trkpt>
      <trkpt lat="48.0142" lon="-3.48602">
        <ele>101.7</ele>
        <time>2025-02-26T15:11:38Z</time>
      </trkpt>
      <trkpt lat="48.0142" lon="-3.48604">
        <ele>101.6</ele>
        <time>2025-02-26T15:11:39Z</time>
      </trkpt>
      <trkpt lat="48.01421" lon="-3.48605">
        <ele>101.7</ele>
        <time>2025-02-26T15:11:40Z</time>
      </trkpt>
      <trkpt lat="48.01421" lon="-3.48607">
        <ele>101.6</ele>
        <time>2025-02-26T15:11:41Z</time>
      </trkpt>
      <trkpt lat="48.0142" lon="-3.48609">
        <ele>101.4</ele>
        <time>2025-02-26T15:11:42Z</time>
      </trkpt>
      <trkpt lat="48.0142" lon="-3.48611">
        <ele>101.3</ele>
        <time>2025-02-26T15:11:43Z</time>
      </trkpt>
      <trkpt lat="48.0142" lon="-3.48612">
        <ele>101.3</ele>
        <time>2025-02-26T15:11:44Z</time>
      </trkpt>
      <trkpt lat="48.01419" lon="-3.48614">
        <ele>101.2</ele>
        <time>2025-02-26T15:11:45Z</time>
      </trkpt>
      <trkpt lat="48.01419" lon="-3.48616">
        <ele>101.1</ele>
        <time>2025-02-26T15:11:46Z</time>
      </trkpt>
      <trkpt lat="48.01419" lon="-3.48617">
        <ele>101</ele>
        <time>2025-02-26T15:11:47Z</time>
      </trkpt>
      <trkpt lat="48.01418" lon="-3.48619">
        <ele>100.9</ele>
        <time>2025-02-26T15:11:48Z</time>
      </trkpt>
      <trkpt lat="48.01417" lon="-3.4862">
        <ele>100.8</ele>
        <time>2025-02-26T15:11:49Z</time>
      </trkpt>
      <trkpt lat="48.01417" lon="-3.48622">
        <ele>100.7</ele>
        <time>2025-02-26T15:11:50Z</time>
      </trkpt>
      <trkpt lat="48.01417" lon="-3.48623">
        <ele>100.6</ele>
        <time>2025-02-26T15:11:51Z</time>
      </trkpt>
      <trkpt lat="48.01417" lon="-3.48625">
        <ele>100.5</ele>
        <time>2025-02-26T15:11:52Z</time>
      </trkpt>
      <trkpt lat="48.01416" lon="-3.48626">
        <ele>100.4</ele>
        <time>2025-02-26T15:11:53Z</time>
      </trkpt>
      <trkpt lat="48.01415" lon="-3.48627">
        <ele>100.3</ele>
        <time>2025-02-26T15:11:54Z</time>
      </trkpt>
      <trkpt lat="48.01415" lon="-3.48628">
        <ele>100.3</ele>
        <time>2025-02-26T15:11:55Z</time>
      </trkpt>
      <trkpt lat="48.01415" lon="-3.4863">
        <ele>100.2</ele>
        <time>2025-02-26T15:11:56Z</time>
      </trkpt>
      <trkpt lat="48.01415" lon="-3.48631">
        <ele>100.2</ele>
        <time>2025-02-26T15:11:57Z</time>
      </trkpt>
      <trkpt lat="48.01415" lon="-3.48632">
        <ele>100.1</ele>
        <time>2025-02-26T15:11:58Z</time>
      </trkpt>
      <trkpt lat="48.01415" lon="-3.48633">
        <ele>100.1</ele>
        <time>2025-02-26T15:11:59Z</time>
      </trkpt>
      <trkpt lat="48.01416" lon="-3.48634">
        <ele>100.1</ele>
        <time>2025-02-26T15:12:00Z</time>
      </trkpt>
      <trkpt lat="48.01416" lon="-3.48636">
        <ele>100.1</ele>
        <time>2025-02-26T15:12:01Z</time>
      </trkpt>
      <trkpt lat="48.01416" lon="-3.48637">
        <ele>100</ele>
        <time>2025-02-26T15:12:02Z</time>
      </trkpt>
      <trkpt lat="48.01417" lon="-3.48638">
        <ele>100</ele>
        <time>2025-02-26T15:12:03Z</time>
      </trkpt>
      <trkpt lat="48.01416" lon="-3.4864">
        <ele>99.9</ele>
        <time>2025-02-26T15:12:04Z</time>
      </trkpt>
      <trkpt lat="48.01416" lon="-3.48642">
        <ele>100</ele>
        <time>2025-02-26T15:12:05Z</time>
      </trkpt>
      <trkpt lat="48.01417" lon="-3.48644">
        <ele>100</ele>
        <time>2025-02-26T15:12:06Z</time>
      </trkpt>
      <trkpt lat="48.01417" lon="-3.48645">
        <ele>100.1</ele>
        <time>2025-02-26T15:12:07Z</time>
      </trkpt>
      <trkpt lat="48.01418" lon="-3.48646">
        <ele>100.1</ele>
        <time>2025-02-26T15:12:08Z</time>
      </trkpt>
      <trkpt lat="48.01419" lon="-3.48647">
        <ele>100.2</ele>
        <time>2025-02-26T15:12:09Z</time>
      </trkpt>
      <trkpt lat="48.0142" lon="-3.48648">
        <ele>100.3</ele>
        <time>2025-02-26T15:12:10Z</time>
      </trkpt>
      <trkpt lat="48.0142" lon="-3.48649">
        <ele>100.3</ele>
        <time>2025-02-26T15:12:11Z</time>
      </trkpt>
      <trkpt lat="48.01421" lon="-3.4865">
        <ele>100.4</ele>
        <time>2025-02-26T15:12:12Z</time>
      </trkpt>
      <trkpt lat="48.01421" lon="-3.48652">
        <ele>100.4</ele>
        <time>2025-02-26T15:12:13Z</time>
      </trkpt>
      <trkpt lat="48.01422" lon="-3.48653">
        <ele>100.4</ele>
        <time>2025-02-26T15:12:14Z</time>
      </trkpt>
      <trkpt lat="48.01422" lon="-3.48655">
        <ele>100.5</ele>
        <time>2025-02-26T15:12:15Z</time>
      </trkpt>
      <trkpt lat="48.01423" lon="-3.48656">
        <ele>100.5</ele>
        <time>2025-02-26T15:12:16Z</time>
      </trkpt>
      <trkpt lat="48.01423" lon="-3.48658">
        <ele>100.5</ele>
        <time>2025-02-26T15:12:17Z</time>
      </trkpt>
      <trkpt lat="48.01423" lon="-3.48659">
        <ele>100.5</ele>
        <time>2025-02-26T15:12:18Z</time>
      </trkpt>
      <trkpt lat="48.01424" lon="-3.48661">
        <ele>100.6</ele>
        <time>2025-02-26T15:12:19Z</time>
      </trkpt>
      <trkpt lat="48.01424" lon="-3.48662">
        <ele>100.6</ele>
        <time>2025-02-26T15:12:20Z</time>
      </trkpt>
      <trkpt lat="48.01425" lon="-3.48663">
        <ele>100.6</ele>
        <time>2025-02-26T15:12:21Z</time>
      </trkpt>
      <trkpt lat="48.01426" lon="-3.48665">
        <ele>100.7</ele>
        <time>2025-02-26T15:12:22Z</time>
      </trkpt>
      <trkpt lat="48.01426" lon="-3.48666">
        <ele>100.7</ele>
        <time>2025-02-26T15:12:23Z</time>
      </trkpt>
      <trkpt lat="48.01427" lon="-3.48668">
        <ele>100.7</ele>
        <time>2025-02-26T15:12:24Z</time>
      </trkpt>
      <trkpt lat="48.01427" lon="-3.48669">
        <ele>100.7</ele>
        <time>2025-02-26T15:12:25Z</time>
      </trkpt>
      <trkpt lat="48.01427" lon="-3.48671">
        <ele>100.7</ele>
        <time>2025-02-26T15:12:26Z</time>
      </trkpt>
      <trkpt lat="48.01427" lon="-3.48672">
        <ele>100.8</ele>
        <time>2025-02-26T15:12:27Z</time>
      </trkpt>
      <trkpt lat="48.01428" lon="-3.48674">
        <ele>100.8</ele>
        <time>2025-02-26T15:12:28Z</time>
      </trkpt>
      <trkpt lat="48.01428" lon="-3.48676">
        <ele>100.8</ele>
        <time>2025-02-26T15:12:29Z</time>
      </trkpt>
      <trkpt lat="48.01428" lon="-3.48678">
        <ele>100.8</ele>
        <time>2025-02-26T15:12:30Z</time>
      </trkpt>
      <trkpt lat="48.01428" lon="-3.48679">
        <ele>100.8</ele>
        <time>2025-02-26T15:12:31Z</time>
      </trkpt>
      <trkpt lat="48.01428" lon="-3.48681">
        <ele>100.8</ele>
        <time>2025-02-26T15:12:32Z</time>
      </trkpt>
      <trkpt lat="48.01428" lon="-3.48683">
        <ele>100.8</ele>
        <time>2025-02-26T15:12:33Z</time>
      </trkpt>
      <trkpt lat="48.01428" lon="-3.48684">
        <ele>100.8</ele>
        <time>2025-02-26T15:12:34Z</time>
      </trkpt>
      <trkpt lat="48.01427" lon="-3.48686">
        <ele>100.8</ele>
        <time>2025-02-26T15:12:35Z</time>
      </trkpt>
      <trkpt lat="48.01427" lon="-3.48687">
        <ele>100.7</ele>
        <time>2025-02-26T15:12:36Z</time>
      </trkpt>
      <trkpt lat="48.01426" lon="-3.48688">
        <ele>100.7</ele>
        <time>2025-02-26T15:12:37Z</time>
      </trkpt>
      <trkpt lat="48.01426" lon="-3.4869">
        <ele>100.7</ele>
        <time>2025-02-26T15:12:38Z</time>
      </trkpt>
      <trkpt lat="48.01425" lon="-3.48691">
        <ele>100.6</ele>
        <time>2025-02-26T15:12:39Z</time>
      </trkpt>
      <trkpt lat="48.01425" lon="-3.48693">
        <ele>100.6</ele>
        <time>2025-02-26T15:12:40Z</time>
      </trkpt>
      <trkpt lat="48.01424" lon="-3.48695">
        <ele>100.5</ele>
        <time>2025-02-26T15:12:41Z</time>
      </trkpt>
      <trkpt lat="48.01424" lon="-3.48696">
        <ele>100.5</ele>
        <time>2025-02-26T15:12:42Z</time>
      </trkpt>
      <trkpt lat="48.01423" lon="-3.48697">
        <ele>100.4</ele>
        <time>2025-02-26T15:12:43Z</time>
      </trkpt>
      <trkpt lat="48.01423" lon="-3.48699">
        <ele>100.4</ele>
        <time>2025-02-26T15:12:44Z</time>
      </trkpt>
      <trkpt lat="48.01422" lon="-3.487">
        <ele>100.4</ele>
        <time>2025-02-26T15:12:45Z</time>
      </trkpt>
      <trkpt lat="48.01422" lon="-3.48702">
        <ele>100.4</ele>
        <time>2025-02-26T15:12:46Z</time>
      </trkpt>
      <trkpt lat="48.01421" lon="-3.48703">
        <ele>100.3</ele>
        <time>2025-02-26T15:12:47Z</time>
      </trkpt>
      <trkpt lat="48.0142" lon="-3.48704">
        <ele>100.2</ele>
        <time>2025-02-26T15:12:48Z</time>
      </trkpt>
      <trkpt lat="48.01419" lon="-3.48704">
        <ele>100.2</ele>
        <time>2025-02-26T15:12:49Z</time>
      </trkpt>
      <trkpt lat="48.01418" lon="-3.48705">
        <ele>100.1</ele>
        <time>2025-02-26T15:12:50Z</time>
      </trkpt>
      <trkpt lat="48.01417" lon="-3.48707">
        <ele>100</ele>
        <time>2025-02-26T15:12:51Z</time>
      </trkpt>
      <trkpt lat="48.01417" lon="-3.48708">
        <ele>100</ele>
        <time>2025-02-26T15:12:52Z</time>
      </trkpt>
      <trkpt lat="48.01416" lon="-3.48709">
        <ele>99.9</ele>
        <time>2025-02-26T15:12:53Z</time>
      </trkpt>
      <trkpt lat="48.01415" lon="-3.4871">
        <ele>99.9</ele>
        <time>2025-02-26T15:12:54Z</time>
      </trkpt>
      <trkpt lat="48.01414" lon="-3.48711">
        <ele>99.8</ele>
        <time>2025-02-26T15:12:55Z</time>
      </trkpt>
      <trkpt lat="48.01414" lon="-3.48712">
        <ele>99.8</ele>
        <time>2025-02-26T15:12:56Z</time>
      </trkpt>
      <trkpt lat="48.01413" lon="-3.48713">
        <ele>99.7</ele>
        <time>2025-02-26T15:12:57Z</time>
      </trkpt>
      <trkpt lat="48.01413" lon="-3.48715">
        <ele>99.7</ele>
        <time>2025-02-26T15:12:58Z</time>
      </trkpt>
      <trkpt lat="48.01412" lon="-3.48716">
        <ele>99.7</ele>
        <time>2025-02-26T15:12:59Z</time>
      </trkpt>
      <trkpt lat="48.01412" lon="-3.48718">
        <ele>99.7</ele>
        <time>2025-02-26T15:13:00Z</time>
      </trkpt>
      <trkpt lat="48.01412" lon="-3.48719">
        <ele>99.6</ele>
        <time>2025-02-26T15:13:01Z</time>
      </trkpt>
      <trkpt lat="48.01411" lon="-3.4872">
        <ele>99.6</ele>
        <time>2025-02-26T15:13:02Z</time>
      </trkpt>
      <trkpt lat="48.0141" lon="-3.48721">
        <ele>99.5</ele>
        <time>2025-02-26T15:13:03Z</time>
      </trkpt>
      <trkpt lat="48.01409" lon="-3.48721">
        <ele>99.5</ele>
        <time>2025-02-26T15:13:04Z</time>
      </trkpt>
      <trkpt lat="48.01409" lon="-3.48722">
        <ele>99.4</ele>
        <time>2025-02-26T15:13:05Z</time>
      </trkpt>
      <trkpt lat="48.01408" lon="-3.48723">
        <ele>99.4</ele>
        <time>2025-02-26T15:13:06Z</time>
      </trkpt>
      <trkpt lat="48.01407" lon="-3.48723">
        <ele>99.3</ele>
        <time>2025-02-26T15:13:07Z</time>
      </trkpt>
      <trkpt lat="48.01408" lon="-3.48723">
        <ele>99.3</ele>
        <time>2025-02-26T15:13:08Z</time>
      </trkpt>
      <trkpt lat="48.01408" lon="-3.48723">
        <ele>99.3</ele>
        <time>2025-02-26T15:13:09Z</time>
      </trkpt>
      <trkpt lat="48.01408" lon="-3.48723">
        <ele>99.3</ele>
        <time>2025-02-26T15:13:10Z</time>
      </trkpt>
      <trkpt lat="48.01408" lon="-3.48723">
        <ele>99.3</ele>
        <time>2025-02-26T15:13:11Z</time>
      </trkpt>
      <trkpt lat="48.01408" lon="-3.48723">
        <ele>99.3</ele>
        <time>2025-02-26T15:13:12Z</time>
      </trkpt>
      <trkpt lat="48.01408" lon="-3.48723">
        <ele>99.3</ele>
        <time>2025-02-26T15:13:13Z</time>
      </trkpt>
      <trkpt lat="48.01408" lon="-3.48723">
        <ele>99.3</ele>
        <time>2025-02-26T15:13:14Z</time>
      </trkpt>
      <trkpt lat="48.01408" lon="-3.48723">
        <ele>99.3</ele>
        <time>2025-02-26T15:13:15Z</time>
      </trkpt>
      <trkpt lat="48.01408" lon="-3.48723">
        <ele>99.4</ele>
        <time>2025-02-26T15:13:16Z</time>
      </trkpt>
      <trkpt lat="48.01408" lon="-3.48724">
        <ele>99.4</ele>
        <time>2025-02-26T15:13:17Z</time>
      </trkpt>
      <trkpt lat="48.01409" lon="-3.48725">
        <ele>99.4</ele>
        <time>2025-02-26T15:13:18Z</time>
      </trkpt>
      <trkpt lat="48.01408" lon="-3.48725">
        <ele>99.4</ele>
        <time>2025-02-26T15:13:19Z</time>
      </trkpt>
      <trkpt lat="48.01408" lon="-3.48727">
        <ele>99.4</ele>
        <time>2025-02-26T15:13:20Z</time>
      </trkpt>
      <trkpt lat="48.01408" lon="-3.48728">
        <ele>99.5</ele>
        <time>2025-02-26T15:13:21Z</time>
      </trkpt>
      <trkpt lat="48.01409" lon="-3.48729">
        <ele>99.5</ele>
        <time>2025-02-26T15:13:22Z</time>
      </trkpt>
      <trkpt lat="48.01408" lon="-3.48731">
        <ele>99.5</ele>
        <time>2025-02-26T15:13:23Z</time>
      </trkpt>
      <trkpt lat="48.01408" lon="-3.48732">
        <ele>99.5</ele>
        <time>2025-02-26T15:13:24Z</time>
      </trkpt>
      <trkpt lat="48.01408" lon="-3.48732">
        <ele>99.5</ele>
        <time>2025-02-26T15:13:25Z</time>
      </trkpt>
      <trkpt lat="48.01408" lon="-3.48733">
        <ele>99.5</ele>
        <time>2025-02-26T15:13:26Z</time>
      </trkpt>
      <trkpt lat="48.01408" lon="-3.48735">
        <ele>99.5</ele>
        <time>2025-02-26T15:13:27Z</time>
      </trkpt>
      <trkpt lat="48.01408" lon="-3.48736">
        <ele>99.5</ele>
        <time>2025-02-26T15:13:28Z</time>
      </trkpt>
      <trkpt lat="48.01407" lon="-3.48737">
        <ele>99.5</ele>
        <time>2025-02-26T15:13:29Z</time>
      </trkpt>
      <trkpt lat="48.01407" lon="-3.48739">
        <ele>99.5</ele>
        <time>2025-02-26T15:13:30Z</time>
      </trkpt>
      <trkpt lat="48.01408" lon="-3.4874">
        <ele>99.6</ele>
        <time>2025-02-26T15:13:31Z</time>
      </trkpt>
      <trkpt lat="48.01407" lon="-3.48741">
        <ele>99.6</ele>
        <time>2025-02-26T15:13:32Z</time>
      </trkpt>
      <trkpt lat="48.01407" lon="-3.48742">
        <ele>99.5</ele>
        <time>2025-02-26T15:13:33Z</time>
      </trkpt>
      <trkpt lat="48.01406" lon="-3.48742">
        <ele>99.5</ele>
        <time>2025-02-26T15:13:34Z</time>
      </trkpt>
      <trkpt lat="48.01406" lon="-3.48742">
        <ele>99.5</ele>
        <time>2025-02-26T15:13:35Z</time>
      </trkpt>
      <trkpt lat="48.01407" lon="-3.48742">
        <ele>99.5</ele>
        <time>2025-02-26T15:13:36Z</time>
      </trkpt>
      <trkpt lat="48.01407" lon="-3.48742">
        <ele>99.5</ele>
        <time>2025-02-26T15:13:37Z</time>
      </trkpt>
      <trkpt lat="48.01407" lon="-3.48742">
        <ele>99.5</ele>
        <time>2025-02-26T15:13:38Z</time>
      </trkpt>
      <trkpt lat="48.01407" lon="-3.48742">
        <ele>99.5</ele>
        <time>2025-02-26T15:13:39Z</time>
      </trkpt>
      <trkpt lat="48.01407" lon="-3.48742">
        <ele>99.5</ele>
        <time>2025-02-26T15:13:40Z</time>
      </trkpt>
      <trkpt lat="48.01407" lon="-3.48742">
        <ele>99.5</ele>
        <time>2025-02-26T15:13:41Z</time>
      </trkpt>
      <trkpt lat="48.01407" lon="-3.48742">
        <ele>99.5</ele>
        <time>2025-02-26T15:13:42Z</time>
      </trkpt>
      <trkpt lat="48.01407" lon="-3.48742">
        <ele>99.5</ele>
        <time>2025-02-26T15:13:43Z</time>
      </trkpt>
      <trkpt lat="48.01407" lon="-3.48742">
        <ele>99.5</ele>
        <time>2025-02-26T15:13:44Z</time>
      </trkpt>
      <trkpt lat="48.01407" lon="-3.48742">
        <ele>99.5</ele>
        <time>2025-02-26T15:13:45Z</time>
      </trkpt>
      <trkpt lat="48.01407" lon="-3.48742">
        <ele>99.5</ele>
        <time>2025-02-26T15:13:46Z</time>
      </trkpt>
      <trkpt lat="48.01406" lon="-3.48742">
        <ele>99.5</ele>
        <time>2025-02-26T15:13:47Z</time>
      </trkpt>
      <trkpt lat="48.01406" lon="-3.48742">
        <ele>99.5</ele>
        <time>2025-02-26T15:13:48Z</time>
      </trkpt>
      <trkpt lat="48.01406" lon="-3.48741">
        <ele>99.5</ele>
        <time>2025-02-26T15:13:49Z</time>
      </trkpt>
      <trkpt lat="48.01406" lon="-3.48741">
        <ele>99.5</ele>
        <time>2025-02-26T15:13:50Z</time>
      </trkpt>
      <trkpt lat="48.01407" lon="-3.48741">
        <ele>99.6</ele>
        <time>2025-02-26T15:13:51Z</time>
      </trkpt>
      <trkpt lat="48.01408" lon="-3.48742">
        <ele>99.6</ele>
        <time>2025-02-26T15:13:52Z</time>
      </trkpt>
      <trkpt lat="48.01408" lon="-3.48742">
        <ele>99.6</ele>
        <time>2025-02-26T15:13:53Z</time>
      </trkpt>
      <trkpt lat="48.01408" lon="-3.48742">
        <ele>99.6</ele>
        <time>2025-02-26T15:13:54Z</time>
      </trkpt>
      <trkpt lat="48.01408" lon="-3.48742">
        <ele>99.6</ele>
        <time>2025-02-26T15:13:55Z</time>
      </trkpt>
      <trkpt lat="48.01408" lon="-3.48742">
        <ele>99.6</ele>
        <time>2025-02-26T15:13:56Z</time>
      </trkpt>
      <trkpt lat="48.01408" lon="-3.48742">
        <ele>99.6</ele>
        <time>2025-02-26T15:13:57Z</time>
      </trkpt>
      <trkpt lat="48.01408" lon="-3.48743">
        <ele>99.6</ele>
        <time>2025-02-26T15:13:58Z</time>
      </trkpt>
      <trkpt lat="48.01408" lon="-3.48743">
        <ele>99.6</ele>
        <time>2025-02-26T15:13:59Z</time>
      </trkpt>
      <trkpt lat="48.01408" lon="-3.48743">
        <ele>99.6</ele>
        <time>2025-02-26T15:14:00Z</time>
      </trkpt>
      <trkpt lat="48.01408" lon="-3.48743">
        <ele>99.6</ele>
        <time>2025-02-26T15:14:01Z</time>
      </trkpt>
      <trkpt lat="48.01408" lon="-3.48743">
        <ele>99.6</ele>
        <time>2025-02-26T15:14:02Z</time>
      </trkpt>
      <trkpt lat="48.01408" lon="-3.48743">
        <ele>99.6</ele>
        <time>2025-02-26T15:14:03Z</time>
      </trkpt>
      <trkpt lat="48.01408" lon="-3.48743">
        <ele>99.6</ele>
        <time>2025-02-26T15:14:04Z</time>
      </trkpt>
      <trkpt lat="48.01408" lon="-3.48743">
        <ele>99.6</ele>
        <time>2025-02-26T15:14:05Z</time>
      </trkpt>
      <trkpt lat="48.01408" lon="-3.48743">
        <ele>99.6</ele>
        <time>2025-02-26T15:14:06Z</time>
      </trkpt>
      <trkpt lat="48.01408" lon="-3.48743">
        <ele>99.6</ele>
        <time>2025-02-26T15:14:07Z</time>
      </trkpt>
      <trkpt lat="48.01408" lon="-3.48743">
        <ele>99.6</ele>
        <time>2025-02-26T15:14:08Z</time>
      </trkpt>
      <trkpt lat="48.01408" lon="-3.48743">
        <ele>99.6</ele>
        <time>2025-02-26T15:14:09Z</time>
      </trkpt>
      <trkpt lat="48.01409" lon="-3.48742">
        <ele>99.6</ele>
        <time>2025-02-26T15:14:10Z</time>
      </trkpt>
      <trkpt lat="48.0141" lon="-3.48742">
        <ele>99.7</ele>
        <time>2025-02-26T15:14:11Z</time>
      </trkpt>
      <trkpt lat="48.01411" lon="-3.48743">
        <ele>99.7</ele>
        <time>2025-02-26T15:14:12Z</time>
      </trkpt>
      <trkpt lat="48.01411" lon="-3.48743">
        <ele>99.8</ele>
        <time>2025-02-26T15:14:13Z</time>
      </trkpt>
      <trkpt lat="48.01412" lon="-3.48743">
        <ele>99.8</ele>
        <time>2025-02-26T15:14:14Z</time>
      </trkpt>
      <trkpt lat="48.01413" lon="-3.48742">
        <ele>99.8</ele>
        <time>2025-02-26T15:14:15Z</time>
      </trkpt>
      <trkpt lat="48.01414" lon="-3.48742">
        <ele>99.9</ele>
        <time>2025-02-26T15:14:16Z</time>
      </trkpt>
      <trkpt lat="48.01415" lon="-3.48742">
        <ele>99.9</ele>
        <time>2025-02-26T15:14:17Z</time>
      </trkpt>
      <trkpt lat="48.01416" lon="-3.48742">
        <ele>100</ele>
        <time>2025-02-26T15:14:18Z</time>
      </trkpt>
      <trkpt lat="48.01417" lon="-3.48742">
        <ele>100</ele>
        <time>2025-02-26T15:14:19Z</time>
      </trkpt>
      <trkpt lat="48.01418" lon="-3.48742">
        <ele>100.1</ele>
        <time>2025-02-26T15:14:20Z</time>
      </trkpt>
      <trkpt lat="48.01419" lon="-3.48741">
        <ele>100.2</ele>
        <time>2025-02-26T15:14:21Z</time>
      </trkpt>
      <trkpt lat="48.01419" lon="-3.4874">
        <ele>100.2</ele>
        <time>2025-02-26T15:14:22Z</time>
      </trkpt>
      <trkpt lat="48.0142" lon="-3.48739">
        <ele>100.3</ele>
        <time>2025-02-26T15:14:23Z</time>
      </trkpt>
      <trkpt lat="48.0142" lon="-3.48737">
        <ele>100.3</ele>
        <time>2025-02-26T15:14:24Z</time>
      </trkpt>
      <trkpt lat="48.0142" lon="-3.48736">
        <ele>100.3</ele>
        <time>2025-02-26T15:14:25Z</time>
      </trkpt>
      <trkpt lat="48.01421" lon="-3.48735">
        <ele>100.4</ele>
        <time>2025-02-26T15:14:26Z</time>
      </trkpt>
      <trkpt lat="48.01422" lon="-3.48734">
        <ele>100.4</ele>
        <time>2025-02-26T15:14:27Z</time>
      </trkpt>
      <trkpt lat="48.01422" lon="-3.48733">
        <ele>100.5</ele>
        <time>2025-02-26T15:14:28Z</time>
      </trkpt>
      <trkpt lat="48.01423" lon="-3.48731">
        <ele>100.5</ele>
        <time>2025-02-26T15:14:29Z</time>
      </trkpt>
      <trkpt lat="48.01423" lon="-3.4873">
        <ele>100.5</ele>
        <time>2025-02-26T15:14:30Z</time>
      </trkpt>
      <trkpt lat="48.01423" lon="-3.48729">
        <ele>100.5</ele>
        <time>2025-02-26T15:14:31Z</time>
      </trkpt>
      <trkpt lat="48.01424" lon="-3.48728">
        <ele>100.6</ele>
        <time>2025-02-26T15:14:32Z</time>
      </trkpt>
      <trkpt lat="48.01425" lon="-3.48726">
        <ele>100.6</ele>
        <time>2025-02-26T15:14:33Z</time>
      </trkpt>
      <trkpt lat="48.01425" lon="-3.48725">
        <ele>100.6</ele>
        <time>2025-02-26T15:14:34Z</time>
      </trkpt>
      <trkpt lat="48.01425" lon="-3.48724">
        <ele>100.6</ele>
        <time>2025-02-26T15:14:35Z</time>
      </trkpt>
      <trkpt lat="48.01426" lon="-3.48722">
        <ele>100.6</ele>
        <time>2025-02-26T15:14:36Z</time>
      </trkpt>
      <trkpt lat="48.01426" lon="-3.4872">
        <ele>100.7</ele>
        <time>2025-02-26T15:14:37Z</time>
      </trkpt>
      <trkpt lat="48.01426" lon="-3.48719">
        <ele>100.7</ele>
        <time>2025-02-26T15:14:38Z</time>
      </trkpt>
      <trkpt lat="48.01427" lon="-3.48717">
        <ele>100.7</ele>
        <time>2025-02-26T15:14:39Z</time>
      </trkpt>
      <trkpt lat="48.01427" lon="-3.48715">
        <ele>100.7</ele>
        <time>2025-02-26T15:14:40Z</time>
      </trkpt>
      <trkpt lat="48.01427" lon="-3.48714">
        <ele>100.8</ele>
        <time>2025-02-26T15:14:41Z</time>
      </trkpt>
      <trkpt lat="48.01428" lon="-3.48713">
        <ele>100.8</ele>
        <time>2025-02-26T15:14:42Z</time>
      </trkpt>
      <trkpt lat="48.01428" lon="-3.48711">
        <ele>100.8</ele>
        <time>2025-02-26T15:14:43Z</time>
      </trkpt>
      <trkpt lat="48.01428" lon="-3.4871">
        <ele>100.8</ele>
        <time>2025-02-26T15:14:44Z</time>
      </trkpt>
      <trkpt lat="48.01429" lon="-3.48708">
        <ele>100.9</ele>
        <time>2025-02-26T15:14:45Z</time>
      </trkpt>
      <trkpt lat="48.01429" lon="-3.48707">
        <ele>100.9</ele>
        <time>2025-02-26T15:14:46Z</time>
      </trkpt>
      <trkpt lat="48.0143" lon="-3.48705">
        <ele>100.9</ele>
        <time>2025-02-26T15:14:47Z</time>
      </trkpt>
      <trkpt lat="48.0143" lon="-3.48704">
        <ele>101</ele>
        <time>2025-02-26T15:14:48Z</time>
      </trkpt>
      <trkpt lat="48.01431" lon="-3.48702">
        <ele>101</ele>
        <time>2025-02-26T15:14:49Z</time>
      </trkpt>
      <trkpt lat="48.01431" lon="-3.48701">
        <ele>101</ele>
        <time>2025-02-26T15:14:50Z</time>
      </trkpt>
      <trkpt lat="48.01431" lon="-3.48699">
        <ele>101</ele>
        <time>2025-02-26T15:14:51Z</time>
      </trkpt>
      <trkpt lat="48.01433" lon="-3.48698">
        <ele>101.2</ele>
        <time>2025-02-26T15:14:52Z</time>
      </trkpt>
      <trkpt lat="48.01434" lon="-3.48697">
        <ele>101.2</ele>
        <time>2025-02-26T15:14:53Z</time>
      </trkpt>
      <trkpt lat="48.01433" lon="-3.48696">
        <ele>101.2</ele>
        <time>2025-02-26T15:14:54Z</time>
      </trkpt>
      <trkpt lat="48.01433" lon="-3.48694">
        <ele>101.2</ele>
        <time>2025-02-26T15:14:55Z</time>
      </trkpt>
      <trkpt lat="48.01433" lon="-3.48692">
        <ele>101.1</ele>
        <time>2025-02-26T15:14:56Z</time>
      </trkpt>
      <trkpt lat="48.01432" lon="-3.48691">
        <ele>101.1</ele>
        <time>2025-02-26T15:14:57Z</time>
      </trkpt>
      <trkpt lat="48.01432" lon="-3.48689">
        <ele>101.1</ele>
        <time>2025-02-26T15:14:58Z</time>
      </trkpt>
      <trkpt lat="48.01433" lon="-3.48687">
        <ele>101.2</ele>
        <time>2025-02-26T15:14:59Z</time>
      </trkpt>
      <trkpt lat="48.01433" lon="-3.48685">
        <ele>101.2</ele>
        <time>2025-02-26T15:15:00Z</time>
      </trkpt>
      <trkpt lat="48.01434" lon="-3.48683">
        <ele>101.2</ele>
        <time>2025-02-26T15:15:01Z</time>
      </trkpt>
      <trkpt lat="48.01435" lon="-3.48681">
        <ele>101.3</ele>
        <time>2025-02-26T15:15:02Z</time>
      </trkpt>
      <trkpt lat="48.01437" lon="-3.4868">
        <ele>101.5</ele>
        <time>2025-02-26T15:15:03Z</time>
      </trkpt>
      <trkpt lat="48.01438" lon="-3.48679">
        <ele>101.6</ele>
        <time>2025-02-26T15:15:04Z</time>
      </trkpt>
      <trkpt lat="48.01439" lon="-3.48679">
        <ele>101.6</ele>
        <time>2025-02-26T15:15:05Z</time>
      </trkpt>
      <trkpt lat="48.01441" lon="-3.4868">
        <ele>101.7</ele>
        <time>2025-02-26T15:15:06Z</time>
      </trkpt>
      <trkpt lat="48.01442" lon="-3.4868">
        <ele>101.8</ele>
        <time>2025-02-26T15:15:07Z</time>
      </trkpt>
      <trkpt lat="48.01443" lon="-3.4868">
        <ele>101.9</ele>
        <time>2025-02-26T15:15:08Z</time>
      </trkpt>
      <trkpt lat="48.01444" lon="-3.48681">
        <ele>102</ele>
        <time>2025-02-26T15:15:09Z</time>
      </trkpt>
      <trkpt lat="48.01445" lon="-3.48681">
        <ele>102</ele>
        <time>2025-02-26T15:15:10Z</time>
      </trkpt>
      <trkpt lat="48.01446" lon="-3.48682">
        <ele>102.1</ele>
        <time>2025-02-26T15:15:11Z</time>
      </trkpt>
      <trkpt lat="48.01447" lon="-3.48682">
        <ele>102.2</ele>
        <time>2025-02-26T15:15:12Z</time>
      </trkpt>
      <trkpt lat="48.01448" lon="-3.48683">
        <ele>102.3</ele>
        <time>2025-02-26T15:15:13Z</time>
      </trkpt>
      <trkpt lat="48.0145" lon="-3.48683">
        <ele>102.5</ele>
        <time>2025-02-26T15:15:14Z</time>
      </trkpt>
      <trkpt lat="48.01451" lon="-3.48683">
        <ele>102.6</ele>
        <time>2025-02-26T15:15:15Z</time>
      </trkpt>
      <trkpt lat="48.01453" lon="-3.48683">
        <ele>102.7</ele>
        <time>2025-02-26T15:15:16Z</time>
      </trkpt>
      <trkpt lat="48.01454" lon="-3.48684">
        <ele>102.8</ele>
        <time>2025-02-26T15:15:17Z</time>
      </trkpt>
      <trkpt lat="48.01455" lon="-3.48683">
        <ele>102.9</ele>
        <time>2025-02-26T15:15:18Z</time>
      </trkpt>
      <trkpt lat="48.01456" lon="-3.48683">
        <ele>103</ele>
        <time>2025-02-26T15:15:19Z</time>
      </trkpt>
      <trkpt lat="48.01457" lon="-3.48683">
        <ele>103.1</ele>
        <time>2025-02-26T15:15:20Z</time>
      </trkpt>
      <trkpt lat="48.01458" lon="-3.48684">
        <ele>103.2</ele>
        <time>2025-02-26T15:15:21Z</time>
      </trkpt>
      <trkpt lat="48.01459" lon="-3.48683">
        <ele>103.3</ele>
        <time>2025-02-26T15:15:22Z</time>
      </trkpt>
      <trkpt lat="48.0146" lon="-3.48683">
        <ele>103.4</ele>
        <time>2025-02-26T15:15:23Z</time>
      </trkpt>
      <trkpt lat="48.01461" lon="-3.48683">
        <ele>103.4</ele>
        <time>2025-02-26T15:15:24Z</time>
      </trkpt>
      <trkpt lat="48.01462" lon="-3.48684">
        <ele>103.5</ele>
        <time>2025-02-26T15:15:25Z</time>
      </trkpt>
      <trkpt lat="48.01463" lon="-3.48684">
        <ele>103.6</ele>
        <time>2025-02-26T15:15:26Z</time>
      </trkpt>
      <trkpt lat="48.01464" lon="-3.48684">
        <ele>103.7</ele>
        <time>2025-02-26T15:15:27Z</time>
      </trkpt>
      <trkpt lat="48.01465" lon="-3.48684">
        <ele>103.8</ele>
        <time>2025-02-26T15:15:28Z</time>
      </trkpt>
      <trkpt lat="48.01466" lon="-3.48685">
        <ele>103.8</ele>
        <time>2025-02-26T15:15:29Z</time>
      </trkpt>
      <trkpt lat="48.01467" lon="-3.48686">
        <ele>103.8</ele>
        <time>2025-02-26T15:15:30Z</time>
      </trkpt>
      <trkpt lat="48.01467" lon="-3.48687">
        <ele>103.9</ele>
        <time>2025-02-26T15:15:31Z</time>
      </trkpt>
      <trkpt lat="48.01469" lon="-3.48687">
        <ele>104</ele>
        <time>2025-02-26T15:15:32Z</time>
      </trkpt>
      <trkpt lat="48.01469" lon="-3.48688">
        <ele>104</ele>
        <time>2025-02-26T15:15:33Z</time>
      </trkpt>
      <trkpt lat="48.0147" lon="-3.4869">
        <ele>104</ele>
        <time>2025-02-26T15:15:34Z</time>
      </trkpt>
      <trkpt lat="48.01471" lon="-3.48692">
        <ele>104</ele>
        <time>2025-02-26T15:15:35Z</time>
      </trkpt>
      <trkpt lat="48.01472" lon="-3.48692">
        <ele>104.1</ele>
        <time>2025-02-26T15:15:36Z</time>
      </trkpt>
      <trkpt lat="48.01473" lon="-3.48693">
        <ele>104.1</ele>
        <time>2025-02-26T15:15:37Z</time>
      </trkpt>
      <trkpt lat="48.01474" lon="-3.48695">
        <ele>104.1</ele>
        <time>2025-02-26T15:15:38Z</time>
      </trkpt>
      <trkpt lat="48.01474" lon="-3.48697">
        <ele>104.2</ele>
        <time>2025-02-26T15:15:39Z</time>
      </trkpt>
      <trkpt lat="48.01475" lon="-3.48698">
        <ele>104.2</ele>
        <time>2025-02-26T15:15:40Z</time>
      </trkpt>
      <trkpt lat="48.01476" lon="-3.48699">
        <ele>104.3</ele>
        <time>2025-02-26T15:15:41Z</time>
      </trkpt>
      <trkpt lat="48.01477" lon="-3.487">
        <ele>104.3</ele>
        <time>2025-02-26T15:15:42Z</time>
      </trkpt>
      <trkpt lat="48.01478" lon="-3.48701">
        <ele>104.4</ele>
        <time>2025-02-26T15:15:43Z</time>
      </trkpt>
      <trkpt lat="48.01479" lon="-3.48702">
        <ele>104.5</ele>
        <time>2025-02-26T15:15:44Z</time>
      </trkpt>
      <trkpt lat="48.0148" lon="-3.48703">
        <ele>104.5</ele>
        <time>2025-02-26T15:15:45Z</time>
      </trkpt>
      <trkpt lat="48.01481" lon="-3.48703">
        <ele>104.6</ele>
        <time>2025-02-26T15:15:46Z</time>
      </trkpt>
      <trkpt lat="48.01481" lon="-3.48705">
        <ele>104.7</ele>
        <time>2025-02-26T15:15:47Z</time>
      </trkpt>
      <trkpt lat="48.01482" lon="-3.48707">
        <ele>104.7</ele>
        <time>2025-02-26T15:15:48Z</time>
      </trkpt>
      <trkpt lat="48.01483" lon="-3.48709">
        <ele>104.7</ele>
        <time>2025-02-26T15:15:49Z</time>
      </trkpt>
      <trkpt lat="48.01484" lon="-3.4871">
        <ele>104.8</ele>
        <time>2025-02-26T15:15:50Z</time>
      </trkpt>
      <trkpt lat="48.01485" lon="-3.48711">
        <ele>104.9</ele>
        <time>2025-02-26T15:15:51Z</time>
      </trkpt>
      <trkpt lat="48.01486" lon="-3.48712">
        <ele>105</ele>
        <time>2025-02-26T15:15:52Z</time>
      </trkpt>
      <trkpt lat="48.01487" lon="-3.48713">
        <ele>105</ele>
        <time>2025-02-26T15:15:53Z</time>
      </trkpt>
      <trkpt lat="48.01487" lon="-3.48714">
        <ele>105.1</ele>
        <time>2025-02-26T15:15:54Z</time>
      </trkpt>
      <trkpt lat="48.01488" lon="-3.48714">
        <ele>105.2</ele>
        <time>2025-02-26T15:15:55Z</time>
      </trkpt>
      <trkpt lat="48.0149" lon="-3.48715">
        <ele>105.2</ele>
        <time>2025-02-26T15:15:56Z</time>
      </trkpt>
      <trkpt lat="48.0149" lon="-3.48716">
        <ele>105.3</ele>
        <time>2025-02-26T15:15:57Z</time>
      </trkpt>
      <trkpt lat="48.01491" lon="-3.48716">
        <ele>105.3</ele>
        <time>2025-02-26T15:15:58Z</time>
      </trkpt>
      <trkpt lat="48.01492" lon="-3.48716">
        <ele>105.4</ele>
        <time>2025-02-26T15:15:59Z</time>
      </trkpt>
      <trkpt lat="48.01493" lon="-3.48716">
        <ele>105.5</ele>
        <time>2025-02-26T15:16:00Z</time>
      </trkpt>
      <trkpt lat="48.01494" lon="-3.48717">
        <ele>105.5</ele>
        <time>2025-02-26T15:16:01Z</time>
      </trkpt>
      <trkpt lat="48.01495" lon="-3.48716">
        <ele>105.6</ele>
        <time>2025-02-26T15:16:02Z</time>
      </trkpt>
      <trkpt lat="48.01496" lon="-3.48717">
        <ele>105.7</ele>
        <time>2025-02-26T15:16:03Z</time>
      </trkpt>
      <trkpt lat="48.01497" lon="-3.48717">
        <ele>105.8</ele>
        <time>2025-02-26T15:16:04Z</time>
      </trkpt>
      <trkpt lat="48.01498" lon="-3.48716">
        <ele>105.9</ele>
        <time>2025-02-26T15:16:05Z</time>
      </trkpt>
      <trkpt lat="48.015" lon="-3.48716">
        <ele>106</ele>
        <time>2025-02-26T15:16:06Z</time>
      </trkpt>
      <trkpt lat="48.01501" lon="-3.48715">
        <ele>106.1</ele>
        <time>2025-02-26T15:16:07Z</time>
      </trkpt>
      <trkpt lat="48.01501" lon="-3.48713">
        <ele>106.1</ele>
        <time>2025-02-26T15:16:08Z</time>
      </trkpt>
      <trkpt lat="48.01503" lon="-3.48712">
        <ele>106.3</ele>
        <time>2025-02-26T15:16:09Z</time>
      </trkpt>
      <trkpt lat="48.01503" lon="-3.4871">
        <ele>106.3</ele>
        <time>2025-02-26T15:16:10Z</time>
      </trkpt>
      <trkpt lat="48.01503" lon="-3.48709">
        <ele>106.3</ele>
        <time>2025-02-26T15:16:11Z</time>
      </trkpt>
      <trkpt lat="48.01503" lon="-3.48708">
        <ele>106.4</ele>
        <time>2025-02-26T15:16:12Z</time>
      </trkpt>
      <trkpt lat="48.01504" lon="-3.48707">
        <ele>106.4</ele>
        <time>2025-02-26T15:16:13Z</time>
      </trkpt>
      <trkpt lat="48.01504" lon="-3.48706">
        <ele>106.4</ele>
        <time>2025-02-26T15:16:14Z</time>
      </trkpt>
      <trkpt lat="48.01505" lon="-3.48705">
        <ele>106.5</ele>
        <time>2025-02-26T15:16:15Z</time>
      </trkpt>
      <trkpt lat="48.01505" lon="-3.48704">
        <ele>106.6</ele>
        <time>2025-02-26T15:16:16Z</time>
      </trkpt>
      <trkpt lat="48.01506" lon="-3.48702">
        <ele>106.6</ele>
        <time>2025-02-26T15:16:17Z</time>
      </trkpt>
      <trkpt lat="48.01506" lon="-3.48701">
        <ele>106.7</ele>
        <time>2025-02-26T15:16:18Z</time>
      </trkpt>
      <trkpt lat="48.01507" lon="-3.48699">
        <ele>106.7</ele>
        <time>2025-02-26T15:16:19Z</time>
      </trkpt>
      <trkpt lat="48.01507" lon="-3.48698">
        <ele>106.8</ele>
        <time>2025-02-26T15:16:20Z</time>
      </trkpt>
      <trkpt lat="48.01508" lon="-3.48696">
        <ele>106.8</ele>
        <time>2025-02-26T15:16:21Z</time>
      </trkpt>
      <trkpt lat="48.01508" lon="-3.48695">
        <ele>106.9</ele>
        <time>2025-02-26T15:16:22Z</time>
      </trkpt>
      <trkpt lat="48.01509" lon="-3.48693">
        <ele>106.9</ele>
        <time>2025-02-26T15:16:23Z</time>
      </trkpt>
      <trkpt lat="48.01509" lon="-3.48692">
        <ele>107</ele>
        <time>2025-02-26T15:16:24Z</time>
      </trkpt>
      <trkpt lat="48.01509" lon="-3.48691">
        <ele>107.1</ele>
        <time>2025-02-26T15:16:25Z</time>
      </trkpt>
      <trkpt lat="48.0151" lon="-3.48689">
        <ele>107.2</ele>
        <time>2025-02-26T15:16:26Z</time>
      </trkpt>
      <trkpt lat="48.01511" lon="-3.48688">
        <ele>107.3</ele>
        <time>2025-02-26T15:16:27Z</time>
      </trkpt>
      <trkpt lat="48.01512" lon="-3.48686">
        <ele>107.4</ele>
        <time>2025-02-26T15:16:28Z</time>
      </trkpt>
      <trkpt lat="48.01513" lon="-3.48685">
        <ele>107.5</ele>
        <time>2025-02-26T15:16:29Z</time>
      </trkpt>
      <trkpt lat="48.01514" lon="-3.48684">
        <ele>107.7</ele>
        <time>2025-02-26T15:16:30Z</time>
      </trkpt>
      <trkpt lat="48.01514" lon="-3.48683">
        <ele>107.8</ele>
        <time>2025-02-26T15:16:31Z</time>
      </trkpt>
      <trkpt lat="48.01515" lon="-3.48682">
        <ele>107.8</ele>
        <time>2025-02-26T15:16:32Z</time>
      </trkpt>
      <trkpt lat="48.01516" lon="-3.48681">
        <ele>107.9</ele>
        <time>2025-02-26T15:16:33Z</time>
      </trkpt>
      <trkpt lat="48.01516" lon="-3.4868">
        <ele>108</ele>
        <time>2025-02-26T15:16:34Z</time>
      </trkpt>
      <trkpt lat="48.01518" lon="-3.4868">
        <ele>108.1</ele>
        <time>2025-02-26T15:16:35Z</time>
      </trkpt>
      <trkpt lat="48.01519" lon="-3.4868">
        <ele>108.2</ele>
        <time>2025-02-26T15:16:36Z</time>
      </trkpt>
      <trkpt lat="48.0152" lon="-3.48679">
        <ele>108.3</ele>
        <time>2025-02-26T15:16:37Z</time>
      </trkpt>
      <trkpt lat="48.01521" lon="-3.4868">
        <ele>108.4</ele>
        <time>2025-02-26T15:16:38Z</time>
      </trkpt>
      <trkpt lat="48.01522" lon="-3.4868">
        <ele>108.5</ele>
        <time>2025-02-26T15:16:39Z</time>
      </trkpt>
      <trkpt lat="48.01524" lon="-3.4868">
        <ele>108.6</ele>
        <time>2025-02-26T15:16:40Z</time>
      </trkpt>
      <trkpt lat="48.01525" lon="-3.4868">
        <ele>108.7</ele>
        <time>2025-02-26T15:16:41Z</time>
      </trkpt>
      <trkpt lat="48.01526" lon="-3.48681">
        <ele>108.8</ele>
        <time>2025-02-26T15:16:42Z</time>
      </trkpt>
      <trkpt lat="48.01527" lon="-3.4868">
        <ele>108.9</ele>
        <time>2025-02-26T15:16:43Z</time>
      </trkpt>
      <trkpt lat="48.01528" lon="-3.4868">
        <ele>109</ele>
        <time>2025-02-26T15:16:44Z</time>
      </trkpt>
      <trkpt lat="48.01529" lon="-3.4868">
        <ele>109.2</ele>
        <time>2025-02-26T15:16:45Z</time>
      </trkpt>
      <trkpt lat="48.0153" lon="-3.48679">
        <ele>109.3</ele>
        <time>2025-02-26T15:16:46Z</time>
      </trkpt>
      <trkpt lat="48.01531" lon="-3.48679">
        <ele>109.4</ele>
        <time>2025-02-26T15:16:47Z</time>
      </trkpt>
      <trkpt lat="48.01532" lon="-3.48679">
        <ele>109.5</ele>
        <time>2025-02-26T15:16:48Z</time>
      </trkpt>
      <trkpt lat="48.01534" lon="-3.48679">
        <ele>109.6</ele>
        <time>2025-02-26T15:16:49Z</time>
      </trkpt>
      <trkpt lat="48.01535" lon="-3.48679">
        <ele>109.7</ele>
        <time>2025-02-26T15:16:50Z</time>
      </trkpt>
      <trkpt lat="48.01536" lon="-3.48679">
        <ele>109.9</ele>
        <time>2025-02-26T15:16:51Z</time>
      </trkpt>
      <trkpt lat="48.01537" lon="-3.48679">
        <ele>110</ele>
        <time>2025-02-26T15:16:52Z</time>
      </trkpt>
      <trkpt lat="48.01538" lon="-3.48679">
        <ele>110.1</ele>
        <time>2025-02-26T15:16:53Z</time>
      </trkpt>
      <trkpt lat="48.01539" lon="-3.48678">
        <ele>110.2</ele>
        <time>2025-02-26T15:16:54Z</time>
      </trkpt>
      <trkpt lat="48.0154" lon="-3.48678">
        <ele>110.3</ele>
        <time>2025-02-26T15:16:55Z</time>
      </trkpt>
      <trkpt lat="48.01541" lon="-3.48678">
        <ele>110.5</ele>
        <time>2025-02-26T15:16:56Z</time>
      </trkpt>
      <trkpt lat="48.01542" lon="-3.48678">
        <ele>110.6</ele>
        <time>2025-02-26T15:16:57Z</time>
      </trkpt>
      <trkpt lat="48.01544" lon="-3.48677">
        <ele>110.7</ele>
        <time>2025-02-26T15:16:58Z</time>
      </trkpt>
      <trkpt lat="48.01545" lon="-3.48677">
        <ele>110.8</ele>
        <time>2025-02-26T15:16:59Z</time>
      </trkpt>
      <trkpt lat="48.01546" lon="-3.48676">
        <ele>110.9</ele>
        <time>2025-02-26T15:17:00Z</time>
      </trkpt>
      <trkpt lat="48.01547" lon="-3.48676">
        <ele>111.1</ele>
        <time>2025-02-26T15:17:01Z</time>
      </trkpt>
      <trkpt lat="48.01548" lon="-3.48676">
        <ele>111.2</ele>
        <time>2025-02-26T15:17:02Z</time>
      </trkpt>
      <trkpt lat="48.01549" lon="-3.48675">
        <ele>111.3</ele>
        <time>2025-02-26T15:17:03Z</time>
      </trkpt>
      <trkpt lat="48.0155" lon="-3.48676">
        <ele>111.4</ele>
        <time>2025-02-26T15:17:04Z</time>
      </trkpt>
      <trkpt lat="48.01551" lon="-3.48676">
        <ele>111.5</ele>
        <time>2025-02-26T15:17:05Z</time>
      </trkpt>
      <trkpt lat="48.01553" lon="-3.48677">
        <ele>111.7</ele>
        <time>2025-02-26T15:17:06Z</time>
      </trkpt>
      <trkpt lat="48.01554" lon="-3.48677">
        <ele>111.8</ele>
        <time>2025-02-26T15:17:07Z</time>
      </trkpt>
      <trkpt lat="48.01555" lon="-3.48677">
        <ele>111.9</ele>
        <time>2025-02-26T15:17:08Z</time>
      </trkpt>
      <trkpt lat="48.01556" lon="-3.48677">
        <ele>112</ele>
        <time>2025-02-26T15:17:09Z</time>
      </trkpt>
      <trkpt lat="48.01557" lon="-3.48677">
        <ele>112.1</ele>
        <time>2025-02-26T15:17:10Z</time>
      </trkpt>
      <trkpt lat="48.01558" lon="-3.48676">
        <ele>112.1</ele>
        <time>2025-02-26T15:17:11Z</time>
      </trkpt>
      <trkpt lat="48.01559" lon="-3.48676">
        <ele>112.1</ele>
        <time>2025-02-26T15:17:12Z</time>
      </trkpt>
      <trkpt lat="48.0156" lon="-3.48675">
        <ele>112.2</ele>
        <time>2025-02-26T15:17:13Z</time>
      </trkpt>
      <trkpt lat="48.01561" lon="-3.48675">
        <ele>112.2</ele>
        <time>2025-02-26T15:17:14Z</time>
      </trkpt>
      <trkpt lat="48.01562" lon="-3.48675">
        <ele>112.2</ele>
        <time>2025-02-26T15:17:15Z</time>
      </trkpt>
      <trkpt lat="48.01563" lon="-3.48675">
        <ele>112.3</ele>
        <time>2025-02-26T15:17:16Z</time>
      </trkpt>
      <trkpt lat="48.01564" lon="-3.48674">
        <ele>112.3</ele>
        <time>2025-02-26T15:17:17Z</time>
      </trkpt>
      <trkpt lat="48.01565" lon="-3.48673">
        <ele>112.3</ele>
        <time>2025-02-26T15:17:18Z</time>
      </trkpt>
      <trkpt lat="48.01566" lon="-3.48672">
        <ele>112.4</ele>
        <time>2025-02-26T15:17:19Z</time>
      </trkpt>
      <trkpt lat="48.01567" lon="-3.48672">
        <ele>112.4</ele>
        <time>2025-02-26T15:17:20Z</time>
      </trkpt>
      <trkpt lat="48.01568" lon="-3.48672">
        <ele>112.5</ele>
        <time>2025-02-26T15:17:21Z</time>
      </trkpt>
      <trkpt lat="48.0157" lon="-3.48672">
        <ele>112.5</ele>
        <time>2025-02-26T15:17:22Z</time>
      </trkpt>
      <trkpt lat="48.01571" lon="-3.48672">
        <ele>112.6</ele>
        <time>2025-02-26T15:17:23Z</time>
      </trkpt>
      <trkpt lat="48.01572" lon="-3.48672">
        <ele>112.6</ele>
        <time>2025-02-26T15:17:24Z</time>
      </trkpt>
      <trkpt lat="48.01573" lon="-3.48673">
        <ele>112.6</ele>
        <time>2025-02-26T15:17:25Z</time>
      </trkpt>
      <trkpt lat="48.01574" lon="-3.48673">
        <ele>112.7</ele>
        <time>2025-02-26T15:17:26Z</time>
      </trkpt>
      <trkpt lat="48.01575" lon="-3.48673">
        <ele>112.7</ele>
        <time>2025-02-26T15:17:27Z</time>
      </trkpt>
      <trkpt lat="48.01576" lon="-3.48673">
        <ele>112.7</ele>
        <time>2025-02-26T15:17:28Z</time>
      </trkpt>
      <trkpt lat="48.01577" lon="-3.48672">
        <ele>112.8</ele>
        <time>2025-02-26T15:17:29Z</time>
      </trkpt>
      <trkpt lat="48.01578" lon="-3.48672">
        <ele>112.8</ele>
        <time>2025-02-26T15:17:30Z</time>
      </trkpt>
      <trkpt lat="48.01579" lon="-3.48672">
        <ele>112.8</ele>
        <time>2025-02-26T15:17:31Z</time>
      </trkpt>
      <trkpt lat="48.01579" lon="-3.48671">
        <ele>112.9</ele>
        <time>2025-02-26T15:17:32Z</time>
      </trkpt>
      <trkpt lat="48.0158" lon="-3.4867">
        <ele>112.9</ele>
        <time>2025-02-26T15:17:33Z</time>
      </trkpt>
      <trkpt lat="48.01581" lon="-3.4867">
        <ele>112.9</ele>
        <time>2025-02-26T15:17:34Z</time>
      </trkpt>
      <trkpt lat="48.01582" lon="-3.48669">
        <ele>113</ele>
        <time>2025-02-26T15:17:35Z</time>
      </trkpt>
      <trkpt lat="48.01583" lon="-3.4867">
        <ele>113</ele>
        <time>2025-02-26T15:17:36Z</time>
      </trkpt>
      <trkpt lat="48.01584" lon="-3.48669">
        <ele>113</ele>
        <time>2025-02-26T15:17:37Z</time>
      </trkpt>
      <trkpt lat="48.01585" lon="-3.48669">
        <ele>113</ele>
        <time>2025-02-26T15:17:38Z</time>
      </trkpt>
      <trkpt lat="48.01586" lon="-3.4867">
        <ele>113</ele>
        <time>2025-02-26T15:17:39Z</time>
      </trkpt>
      <trkpt lat="48.01586" lon="-3.48669">
        <ele>113</ele>
        <time>2025-02-26T15:17:40Z</time>
      </trkpt>
      <trkpt lat="48.01587" lon="-3.48669">
        <ele>113</ele>
        <time>2025-02-26T15:17:41Z</time>
      </trkpt>
      <trkpt lat="48.01589" lon="-3.48669">
        <ele>113</ele>
        <time>2025-02-26T15:17:42Z</time>
      </trkpt>
      <trkpt lat="48.0159" lon="-3.48668">
        <ele>113</ele>
        <time>2025-02-26T15:17:43Z</time>
      </trkpt>
      <trkpt lat="48.01591" lon="-3.48668">
        <ele>113</ele>
        <time>2025-02-26T15:17:44Z</time>
      </trkpt>
      <trkpt lat="48.01592" lon="-3.48668">
        <ele>113</ele>
        <time>2025-02-26T15:17:45Z</time>
      </trkpt>
      <trkpt lat="48.01593" lon="-3.48667">
        <ele>113</ele>
        <time>2025-02-26T15:17:46Z</time>
      </trkpt>
      <trkpt lat="48.01594" lon="-3.48667">
        <ele>113</ele>
        <time>2025-02-26T15:17:47Z</time>
      </trkpt>
      <trkpt lat="48.01596" lon="-3.48667">
        <ele>113</ele>
        <time>2025-02-26T15:17:48Z</time>
      </trkpt>
      <trkpt lat="48.01597" lon="-3.48667">
        <ele>113</ele>
        <time>2025-02-26T15:17:49Z</time>
      </trkpt>
      <trkpt lat="48.01598" lon="-3.48667">
        <ele>113</ele>
        <time>2025-02-26T15:17:50Z</time>
      </trkpt>
      <trkpt lat="48.016" lon="-3.48666">
        <ele>113</ele>
        <time>2025-02-26T15:17:51Z</time>
      </trkpt>
      <trkpt lat="48.01602" lon="-3.48666">
        <ele>113</ele>
        <time>2025-02-26T15:17:52Z</time>
      </trkpt>
      <trkpt lat="48.01604" lon="-3.48665">
        <ele>113</ele>
        <time>2025-02-26T15:17:53Z</time>
      </trkpt>
      <trkpt lat="48.01605" lon="-3.48665">
        <ele>113</ele>
        <time>2025-02-26T15:17:54Z</time>
      </trkpt>
      <trkpt lat="48.01607" lon="-3.48665">
        <ele>113</ele>
        <time>2025-02-26T15:17:55Z</time>
      </trkpt>
      <trkpt lat="48.01608" lon="-3.48664">
        <ele>113</ele>
        <time>2025-02-26T15:17:56Z</time>
      </trkpt>
      <trkpt lat="48.01609" lon="-3.48663">
        <ele>113</ele>
        <time>2025-02-26T15:17:57Z</time>
      </trkpt>
      <trkpt lat="48.0161" lon="-3.48663">
        <ele>113</ele>
        <time>2025-02-26T15:17:58Z</time>
      </trkpt>
      <trkpt lat="48.01611" lon="-3.48663">
        <ele>113</ele>
        <time>2025-02-26T15:17:59Z</time>
      </trkpt>
      <trkpt lat="48.01612" lon="-3.48662">
        <ele>113</ele>
        <time>2025-02-26T15:18:00Z</time>
      </trkpt>
      <trkpt lat="48.01613" lon="-3.48661">
        <ele>113</ele>
        <time>2025-02-26T15:18:01Z</time>
      </trkpt>
      <trkpt lat="48.01614" lon="-3.4866">
        <ele>113</ele>
        <time>2025-02-26T15:18:02Z</time>
      </trkpt>
      <trkpt lat="48.01615" lon="-3.4866">
        <ele>113</ele>
        <time>2025-02-26T15:18:03Z</time>
      </trkpt>
      <trkpt lat="48.01615" lon="-3.48659">
        <ele>113</ele>
        <time>2025-02-26T15:18:04Z</time>
      </trkpt>
      <trkpt lat="48.01616" lon="-3.48659">
        <ele>113</ele>
        <time>2025-02-26T15:18:05Z</time>
      </trkpt>
      <trkpt lat="48.01618" lon="-3.4866">
        <ele>113</ele>
        <time>2025-02-26T15:18:06Z</time>
      </trkpt>
      <trkpt lat="48.01619" lon="-3.48661">
        <ele>113</ele>
        <time>2025-02-26T15:18:07Z</time>
      </trkpt>
      <trkpt lat="48.0162" lon="-3.48661">
        <ele>113</ele>
        <time>2025-02-26T15:18:08Z</time>
      </trkpt>
      <trkpt lat="48.01621" lon="-3.48661">
        <ele>113</ele>
        <time>2025-02-26T15:18:09Z</time>
      </trkpt>
      <trkpt lat="48.01622" lon="-3.48662">
        <ele>113</ele>
        <time>2025-02-26T15:18:10Z</time>
      </trkpt>
      <trkpt lat="48.01623" lon="-3.48664">
        <ele>113</ele>
        <time>2025-02-26T15:18:11Z</time>
      </trkpt>
      <trkpt lat="48.01625" lon="-3.48665">
        <ele>113</ele>
        <time>2025-02-26T15:18:12Z</time>
      </trkpt>
      <trkpt lat="48.01626" lon="-3.48665">
        <ele>113</ele>
        <time>2025-02-26T15:18:13Z</time>
      </trkpt>
      <trkpt lat="48.01627" lon="-3.48667">
        <ele>113</ele>
        <time>2025-02-26T15:18:14Z</time>
      </trkpt>
      <trkpt lat="48.01628" lon="-3.48667">
        <ele>113</ele>
        <time>2025-02-26T15:18:15Z</time>
      </trkpt>
      <trkpt lat="48.01629" lon="-3.48667">
        <ele>113</ele>
        <time>2025-02-26T15:18:16Z</time>
      </trkpt>
      <trkpt lat="48.0163" lon="-3.48667">
        <ele>113</ele>
        <time>2025-02-26T15:18:17Z</time>
      </trkpt>
      <trkpt lat="48.01631" lon="-3.48667">
        <ele>113</ele>
        <time>2025-02-26T15:18:18Z</time>
      </trkpt>
      <trkpt lat="48.01631" lon="-3.48667">
        <ele>113</ele>
        <time>2025-02-26T15:18:19Z</time>
      </trkpt>
      <trkpt lat="48.01632" lon="-3.48668">
        <ele>113</ele>
        <time>2025-02-26T15:18:20Z</time>
      </trkpt>
      <trkpt lat="48.01633" lon="-3.48667">
        <ele>113</ele>
        <time>2025-02-26T15:18:21Z</time>
      </trkpt>
      <trkpt lat="48.01635" lon="-3.48668">
        <ele>113</ele>
        <time>2025-02-26T15:18:22Z</time>
      </trkpt>
      <trkpt lat="48.01636" lon="-3.48668">
        <ele>113</ele>
        <time>2025-02-26T15:18:23Z</time>
      </trkpt>
      <trkpt lat="48.01637" lon="-3.48669">
        <ele>113</ele>
        <time>2025-02-26T15:18:24Z</time>
      </trkpt>
      <trkpt lat="48.01637" lon="-3.48669">
        <ele>113</ele>
        <time>2025-02-26T15:18:25Z</time>
      </trkpt>
      <trkpt lat="48.01638" lon="-3.4867">
        <ele>113</ele>
        <time>2025-02-26T15:18:26Z</time>
      </trkpt>
      <trkpt lat="48.01639" lon="-3.48671">
        <ele>113</ele>
        <time>2025-02-26T15:18:27Z</time>
      </trkpt>
      <trkpt lat="48.0164" lon="-3.48671">
        <ele>113</ele>
        <time>2025-02-26T15:18:28Z</time>
      </trkpt>
      <trkpt lat="48.01641" lon="-3.48672">
        <ele>113</ele>
        <time>2025-02-26T15:18:29Z</time>
      </trkpt>
      <trkpt lat="48.01642" lon="-3.48672">
        <ele>113</ele>
        <time>2025-02-26T15:18:30Z</time>
      </trkpt>
      <trkpt lat="48.01643" lon="-3.48672">
        <ele>113</ele>
        <time>2025-02-26T15:18:31Z</time>
      </trkpt>
      <trkpt lat="48.01643" lon="-3.48672">
        <ele>113</ele>
        <time>2025-02-26T15:18:32Z</time>
      </trkpt>
      <trkpt lat="48.01644" lon="-3.48672">
        <ele>113</ele>
        <time>2025-02-26T15:18:33Z</time>
      </trkpt>
      <trkpt lat="48.01644" lon="-3.48672">
        <ele>113</ele>
        <time>2025-02-26T15:18:34Z</time>
      </trkpt>
      <trkpt lat="48.01644" lon="-3.48672">
        <ele>113</ele>
        <time>2025-02-26T15:18:35Z</time>
      </trkpt>
      <trkpt lat="48.01644" lon="-3.48672">
        <ele>113</ele>
        <time>2025-02-26T15:18:36Z</time>
      </trkpt>
      <trkpt lat="48.01645" lon="-3.48672">
        <ele>113</ele>
        <time>2025-02-26T15:18:37Z</time>
      </trkpt>
      <trkpt lat="48.01646" lon="-3.48671">
        <ele>113</ele>
        <time>2025-02-26T15:18:38Z</time>
      </trkpt>
      <trkpt lat="48.01646" lon="-3.48673">
        <ele>113</ele>
        <time>2025-02-26T15:18:39Z</time>
      </trkpt>
      <trkpt lat="48.01646" lon="-3.48674">
        <ele>113</ele>
        <time>2025-02-26T15:18:40Z</time>
      </trkpt>
      <trkpt lat="48.01646" lon="-3.48675">
        <ele>113</ele>
        <time>2025-02-26T15:18:41Z</time>
      </trkpt>
      <trkpt lat="48.01645" lon="-3.48676">
        <ele>113</ele>
        <time>2025-02-26T15:18:42Z</time>
      </trkpt>
      <trkpt lat="48.01644" lon="-3.48676">
        <ele>113</ele>
        <time>2025-02-26T15:18:43Z</time>
      </trkpt>
      <trkpt lat="48.01644" lon="-3.48676">
        <ele>113</ele>
        <time>2025-02-26T15:18:44Z</time>
      </trkpt>
      <trkpt lat="48.01644" lon="-3.48676">
        <ele>113</ele>
        <time>2025-02-26T15:18:45Z</time>
      </trkpt>
      <trkpt lat="48.01644" lon="-3.48676">
        <ele>113</ele>
        <time>2025-02-26T15:18:46Z</time>
      </trkpt>
      <trkpt lat="48.01643" lon="-3.48675">
        <ele>113</ele>
        <time>2025-02-26T15:18:47Z</time>
      </trkpt>
      <trkpt lat="48.01643" lon="-3.48675">
        <ele>113</ele>
        <time>2025-02-26T15:18:48Z</time>
      </trkpt>
      <trkpt lat="48.01642" lon="-3.48675">
        <ele>113</ele>
        <time>2025-02-26T15:18:49Z</time>
      </trkpt>
      <trkpt lat="48.01642" lon="-3.48676">
        <ele>113</ele>
        <time>2025-02-26T15:18:50Z</time>
      </trkpt>
      <trkpt lat="48.01642" lon="-3.48676">
        <ele>113</ele>
        <time>2025-02-26T15:18:51Z</time>
      </trkpt>
      <trkpt lat="48.01642" lon="-3.48676">
        <ele>113</ele>
        <time>2025-02-26T15:18:52Z</time>
      </trkpt>
      <trkpt lat="48.01642" lon="-3.48675">
        <ele>113</ele>
        <time>2025-02-26T15:18:53Z</time>
      </trkpt>
      <trkpt lat="48.01642" lon="-3.48675">
        <ele>113</ele>
        <time>2025-02-26T15:18:54Z</time>
      </trkpt>
      <trkpt lat="48.01642" lon="-3.48675">
        <ele>113</ele>
        <time>2025-02-26T15:18:55Z</time>
      </trkpt>
      <trkpt lat="48.01642" lon="-3.48675">
        <ele>113</ele>
        <time>2025-02-26T15:18:56Z</time>
      </trkpt>
      <trkpt lat="48.01642" lon="-3.48675">
        <ele>113</ele>
        <time>2025-02-26T15:18:57Z</time>
      </trkpt>
      <trkpt lat="48.01642" lon="-3.48675">
        <ele>113</ele>
        <time>2025-02-26T15:18:58Z</time>
      </trkpt>
      <trkpt lat="48.01642" lon="-3.48675">
        <ele>113</ele>
        <time>2025-02-26T15:18:59Z</time>
      </trkpt>
      <trkpt lat="48.01642" lon="-3.48675">
        <ele>113</ele>
        <time>2025-02-26T15:19:00Z</time>
      </trkpt>
      <trkpt lat="48.01642" lon="-3.48675">
        <ele>113</ele>
        <time>2025-02-26T15:19:01Z</time>
      </trkpt>
      <trkpt lat="48.01642" lon="-3.48675">
        <ele>113</ele>
        <time>2025-02-26T15:19:02Z</time>
      </trkpt>
      <trkpt lat="48.01642" lon="-3.48675">
        <ele>113</ele>
        <time>2025-02-26T15:19:03Z</time>
      </trkpt>
      <trkpt lat="48.01642" lon="-3.48675">
        <ele>113</ele>
        <time>2025-02-26T15:19:04Z</time>
      </trkpt>
      <trkpt lat="48.01642" lon="-3.48675">
        <ele>113</ele>
        <time>2025-02-26T15:19:05Z</time>
      </trkpt>
      <trkpt lat="48.01642" lon="-3.48675">
        <ele>113</ele>
        <time>2025-02-26T15:19:06Z</time>
      </trkpt>
      <trkpt lat="48.01642" lon="-3.48674">
        <ele>113</ele>
        <time>2025-02-26T15:19:07Z</time>
      </trkpt>
      <trkpt lat="48.01642" lon="-3.48674">
        <ele>113</ele>
        <time>2025-02-26T15:19:08Z</time>
      </trkpt>
      <trkpt lat="48.01642" lon="-3.48674">
        <ele>113</ele>
        <time>2025-02-26T15:19:09Z</time>
      </trkpt>
      <trkpt lat="48.01642" lon="-3.48674">
        <ele>113</ele>
        <time>2025-02-26T15:19:10Z</time>
      </trkpt>
      <trkpt lat="48.01642" lon="-3.48674">
        <ele>113</ele>
        <time>2025-02-26T15:19:11Z</time>
      </trkpt>
      <trkpt lat="48.01642" lon="-3.48674">
        <ele>113</ele>
        <time>2025-02-26T15:19:12Z</time>
      </trkpt>
      <trkpt lat="48.01642" lon="-3.48674">
        <ele>113</ele>
        <time>2025-02-26T15:19:13Z</time>
      </trkpt>
      <trkpt lat="48.01642" lon="-3.48674">
        <ele>113</ele>
        <time>2025-02-26T15:19:14Z</time>
      </trkpt>
      <trkpt lat="48.01642" lon="-3.48674">
        <ele>113</ele>
        <time>2025-02-26T15:19:15Z</time>
      </trkpt>
      <trkpt lat="48.01642" lon="-3.48674">
        <ele>113</ele>
        <time>2025-02-26T15:19:16Z</time>
      </trkpt>
      <trkpt lat="48.01642" lon="-3.48675">
        <ele>113</ele>
        <time>2025-02-26T15:19:17Z</time>
      </trkpt>
      <trkpt lat="48.01642" lon="-3.48675">
        <ele>113</ele>
        <time>2025-02-26T15:19:18Z</time>
      </trkpt>
      <trkpt lat="48.01642" lon="-3.48675">
        <ele>113</ele>
        <time>2025-02-26T15:19:19Z</time>
      </trkpt>
      <trkpt lat="48.01642" lon="-3.48675">
        <ele>113</ele>
        <time>2025-02-26T15:19:20Z</time>
      </trkpt>
      <trkpt lat="48.01642" lon="-3.48675">
        <ele>113</ele>
        <time>2025-02-26T15:19:21Z</time>
      </trkpt>
      <trkpt lat="48.01642" lon="-3.48675">
        <ele>113</ele>
        <time>2025-02-26T15:19:22Z</time>
      </trkpt>
      <trkpt lat="48.01642" lon="-3.48675">
        <ele>113</ele>
        <time>2025-02-26T15:19:23Z</time>
      </trkpt>
      <trkpt lat="48.01641" lon="-3.48675">
        <ele>113</ele>
        <time>2025-02-26T15:19:24Z</time>
      </trkpt>
      <trkpt lat="48.01641" lon="-3.48675">
        <ele>113</ele>
        <time>2025-02-26T15:19:25Z</time>
      </trkpt>
      <trkpt lat="48.01641" lon="-3.48675">
        <ele>113</ele>
        <time>2025-02-26T15:19:26Z</time>
      </trkpt>
      <trkpt lat="48.01641" lon="-3.48675">
        <ele>113</ele>
        <time>2025-02-26T15:19:27Z</time>
      </trkpt>
      <trkpt lat="48.01641" lon="-3.48675">
        <ele>113</ele>
        <time>2025-02-26T15:19:28Z</time>
      </trkpt>
      <trkpt lat="48.01641" lon="-3.48675">
        <ele>113</ele>
        <time>2025-02-26T15:19:29Z</time>
      </trkpt>
      <trkpt lat="48.01641" lon="-3.48675">
        <ele>113</ele>
        <time>2025-02-26T15:19:30Z</time>
      </trkpt>
      <trkpt lat="48.01641" lon="-3.48675">
        <ele>113</ele>
        <time>2025-02-26T15:19:31Z</time>
      </trkpt>
      <trkpt lat="48.01641" lon="-3.48675">
        <ele>113</ele>
        <time>2025-02-26T15:19:32Z</time>
      </trkpt>
      <trkpt lat="48.01641" lon="-3.48675">
        <ele>113</ele>
        <time>2025-02-26T15:19:33Z</time>
      </trkpt>
      <trkpt lat="48.01641" lon="-3.48675">
        <ele>113</ele>
        <time>2025-02-26T15:19:34Z</time>
      </trkpt>
      <trkpt lat="48.01641" lon="-3.48675">
        <ele>113</ele>
        <time>2025-02-26T15:19:35Z</time>
      </trkpt>
      <trkpt lat="48.01641" lon="-3.48675">
        <ele>113</ele>
        <time>2025-02-26T15:19:36Z</time>
      </trkpt>
      <trkpt lat="48.01641" lon="-3.48675">
        <ele>113</ele>
        <time>2025-02-26T15:19:37Z</time>
      </trkpt>
      <trkpt lat="48.01641" lon="-3.48675">
        <ele>113</ele>
        <time>2025-02-26T15:19:38Z</time>
      </trkpt>
      <trkpt lat="48.01641" lon="-3.48675">
        <ele>113</ele>
        <time>2025-02-26T15:19:39Z</time>
      </trkpt>
      <trkpt lat="48.01641" lon="-3.48675">
        <ele>113</ele>
        <time>2025-02-26T15:19:40Z</time>
      </trkpt>
      <trkpt lat="48.01641" lon="-3.48675">
        <ele>113</ele>
        <time>2025-02-26T15:19:41Z</time>
      </trkpt>
      <trkpt lat="48.01641" lon="-3.48675">
        <ele>113</ele>
        <time>2025-02-26T15:19:42Z</time>
      </trkpt>
      <trkpt lat="48.01641" lon="-3.48675">
        <ele>113</ele>
        <time>2025-02-26T15:19:43Z</time>
      </trkpt>
      <trkpt lat="48.01641" lon="-3.48675">
        <ele>113</ele>
        <time>2025-02-26T15:19:44Z</time>
      </trkpt>
      <trkpt lat="48.01641" lon="-3.48675">
        <ele>113</ele>
        <time>2025-02-26T15:19:45Z</time>
      </trkpt>
      <trkpt lat="48.01641" lon="-3.48675">
        <ele>113</ele>
        <time>2025-02-26T15:19:46Z</time>
      </trkpt>
      <trkpt lat="48.01641" lon="-3.48675">
        <ele>113</ele>
        <time>2025-02-26T15:19:47Z</time>
      </trkpt>
      <trkpt lat="48.01641" lon="-3.48675">
        <ele>113</ele>
        <time>2025-02-26T15:19:48Z</time>
      </trkpt>
      <trkpt lat="48.01641" lon="-3.48676">
        <ele>113</ele>
        <time>2025-02-26T15:19:49Z</time>
      </trkpt>
      <trkpt lat="48.01641" lon="-3.48675">
        <ele>113</ele>
        <time>2025-02-26T15:19:50Z</time>
      </trkpt>
      <trkpt lat="48.01641" lon="-3.48675">
        <ele>113</ele>
        <time>2025-02-26T15:19:51Z</time>
      </trkpt>
      <trkpt lat="48.01641" lon="-3.48675">
        <ele>113</ele>
        <time>2025-02-26T15:19:52Z</time>
      </trkpt>
      <trkpt lat="48.01641" lon="-3.48675">
        <ele>113</ele>
        <time>2025-02-26T15:19:53Z</time>
      </trkpt>
      <trkpt lat="48.01641" lon="-3.48675">
        <ele>113</ele>
        <time>2025-02-26T15:19:54Z</time>
      </trkpt>
      <trkpt lat="48.01641" lon="-3.48674">
        <ele>113</ele>
        <time>2025-02-26T15:19:55Z</time>
      </trkpt>
      <trkpt lat="48.01642" lon="-3.48673">
        <ele>113</ele>
        <time>2025-02-26T15:19:56Z</time>
      </trkpt>
      <trkpt lat="48.01642" lon="-3.48673">
        <ele>113</ele>
        <time>2025-02-26T15:19:57Z</time>
      </trkpt>
      <trkpt lat="48.01643" lon="-3.48672">
        <ele>113</ele>
        <time>2025-02-26T15:19:58Z</time>
      </trkpt>
      <trkpt lat="48.01643" lon="-3.48672">
        <ele>113</ele>
        <time>2025-02-26T15:19:59Z</time>
      </trkpt>
      <trkpt lat="48.01643" lon="-3.48672">
        <ele>113</ele>
        <time>2025-02-26T15:20:00Z</time>
      </trkpt>
      <trkpt lat="48.01643" lon="-3.48672">
        <ele>113</ele>
        <time>2025-02-26T15:20:01Z</time>
      </trkpt>
      <trkpt lat="48.01643" lon="-3.48672">
        <ele>113</ele>
        <time>2025-02-26T15:20:02Z</time>
      </trkpt>
      <trkpt lat="48.01643" lon="-3.48672">
        <ele>113</ele>
        <time>2025-02-26T15:20:03Z</time>
      </trkpt>
      <trkpt lat="48.01643" lon="-3.48672">
        <ele>113</ele>
        <time>2025-02-26T15:20:04Z</time>
      </trkpt>
      <trkpt lat="48.01644" lon="-3.48672">
        <ele>113</ele>
        <time>2025-02-26T15:20:05Z</time>
      </trkpt>
      <trkpt lat="48.01644" lon="-3.48672">
        <ele>113</ele>
        <time>2025-02-26T15:20:06Z</time>
      </trkpt>
      <trkpt lat="48.01644" lon="-3.48672">
        <ele>113</ele>
        <time>2025-02-26T15:20:07Z</time>
      </trkpt>
      <trkpt lat="48.01644" lon="-3.48672">
        <ele>113</ele>
        <time>2025-02-26T15:20:08Z</time>
      </trkpt>
      <trkpt lat="48.01644" lon="-3.48672">
        <ele>113</ele>
        <time>2025-02-26T15:20:09Z</time>
      </trkpt>
      <trkpt lat="48.01644" lon="-3.48672">
        <ele>113</ele>
        <time>2025-02-26T15:20:10Z</time>
      </trkpt>
      <trkpt lat="48.01643" lon="-3.48672">
        <ele>113</ele>
        <time>2025-02-26T15:20:11Z</time>
      </trkpt>
      <trkpt lat="48.01644" lon="-3.48672">
        <ele>113</ele>
        <time>2025-02-26T15:20:12Z</time>
      </trkpt>
      <trkpt lat="48.01644" lon="-3.48672">
        <ele>113</ele>
        <time>2025-02-26T15:20:13Z</time>
      </trkpt>
      <trkpt lat="48.01645" lon="-3.48673">
        <ele>113</ele>
        <time>2025-02-26T15:20:14Z</time>
      </trkpt>
      <trkpt lat="48.01645" lon="-3.48674">
        <ele>113</ele>
        <time>2025-02-26T15:20:15Z</time>
      </trkpt>
      <trkpt lat="48.01646" lon="-3.48675">
        <ele>113</ele>
        <time>2025-02-26T15:20:16Z</time>
      </trkpt>
      <trkpt lat="48.01646" lon="-3.48675">
        <ele>113</ele>
        <time>2025-02-26T15:20:17Z</time>
      </trkpt>
      <trkpt lat="48.01647" lon="-3.48675">
        <ele>113</ele>
        <time>2025-02-26T15:20:18Z</time>
      </trkpt>
      <trkpt lat="48.01648" lon="-3.48675">
        <ele>113</ele>
        <time>2025-02-26T15:20:19Z</time>
      </trkpt>
      <trkpt lat="48.01648" lon="-3.48676">
        <ele>113</ele>
        <time>2025-02-26T15:20:20Z</time>
      </trkpt>
      <trkpt lat="48.01649" lon="-3.48676">
        <ele>113</ele>
        <time>2025-02-26T15:20:21Z</time>
      </trkpt>
      <trkpt lat="48.0165" lon="-3.48676">
        <ele>113</ele>
        <time>2025-02-26T15:20:22Z</time>
      </trkpt>
      <trkpt lat="48.01651" lon="-3.48677">
        <ele>113</ele>
        <time>2025-02-26T15:20:23Z</time>
      </trkpt>
      <trkpt lat="48.01653" lon="-3.48678">
        <ele>113</ele>
        <time>2025-02-26T15:20:24Z</time>
      </trkpt>
      <trkpt lat="48.01654" lon="-3.48679">
        <ele>113</ele>
        <time>2025-02-26T15:20:25Z</time>
      </trkpt>
      <trkpt lat="48.01656" lon="-3.48679">
        <ele>113</ele>
        <time>2025-02-26T15:20:26Z</time>
      </trkpt>
      <trkpt lat="48.01656" lon="-3.4868">
        <ele>113</ele>
        <time>2025-02-26T15:20:27Z</time>
      </trkpt>
      <trkpt lat="48.01657" lon="-3.48681">
        <ele>113</ele>
        <time>2025-02-26T15:20:28Z</time>
      </trkpt>
      <trkpt lat="48.01657" lon="-3.48682">
        <ele>113</ele>
        <time>2025-02-26T15:20:29Z</time>
      </trkpt>
      <trkpt lat="48.01658" lon="-3.48682">
        <ele>113</ele>
        <time>2025-02-26T15:20:30Z</time>
      </trkpt>
      <trkpt lat="48.01659" lon="-3.48683">
        <ele>113</ele>
        <time>2025-02-26T15:20:31Z</time>
      </trkpt>
      <trkpt lat="48.0166" lon="-3.48684">
        <ele>113</ele>
        <time>2025-02-26T15:20:32Z</time>
      </trkpt>
      <trkpt lat="48.01661" lon="-3.48685">
        <ele>113</ele>
        <time>2025-02-26T15:20:33Z</time>
      </trkpt>
      <trkpt lat="48.01662" lon="-3.48685">
        <ele>113</ele>
        <time>2025-02-26T15:20:34Z</time>
      </trkpt>
      <trkpt lat="48.01664" lon="-3.48685">
        <ele>113</ele>
        <time>2025-02-26T15:20:35Z</time>
      </trkpt>
      <trkpt lat="48.01665" lon="-3.48686">
        <ele>113</ele>
        <time>2025-02-26T15:20:36Z</time>
      </trkpt>
      <trkpt lat="48.01666" lon="-3.48686">
        <ele>113</ele>
        <time>2025-02-26T15:20:37Z</time>
      </trkpt>
      <trkpt lat="48.01667" lon="-3.48687">
        <ele>113</ele>
        <time>2025-02-26T15:20:38Z</time>
      </trkpt>
      <trkpt lat="48.01668" lon="-3.48687">
        <ele>113</ele>
        <time>2025-02-26T15:20:39Z</time>
      </trkpt>
      <trkpt lat="48.0167" lon="-3.48687">
        <ele>113</ele>
        <time>2025-02-26T15:20:40Z</time>
      </trkpt>
      <trkpt lat="48.0167" lon="-3.48688">
        <ele>113</ele>
        <time>2025-02-26T15:20:41Z</time>
      </trkpt>
      <trkpt lat="48.01672" lon="-3.48688">
        <ele>113</ele>
        <time>2025-02-26T15:20:42Z</time>
      </trkpt>
      <trkpt lat="48.01673" lon="-3.48688">
        <ele>113</ele>
        <time>2025-02-26T15:20:43Z</time>
      </trkpt>
      <trkpt lat="48.01674" lon="-3.48688">
        <ele>112.9</ele>
        <time>2025-02-26T15:20:44Z</time>
      </trkpt>
      <trkpt lat="48.01674" lon="-3.48689">
        <ele>112.9</ele>
        <time>2025-02-26T15:20:45Z</time>
      </trkpt>
      <trkpt lat="48.01675" lon="-3.48689">
        <ele>112.9</ele>
        <time>2025-02-26T15:20:46Z</time>
      </trkpt>
      <trkpt lat="48.01676" lon="-3.48689">
        <ele>112.9</ele>
        <time>2025-02-26T15:20:47Z</time>
      </trkpt>
      <trkpt lat="48.01677" lon="-3.4869">
        <ele>112.9</ele>
        <time>2025-02-26T15:20:48Z</time>
      </trkpt>
      <trkpt lat="48.01678" lon="-3.4869">
        <ele>112.9</ele>
        <time>2025-02-26T15:20:49Z</time>
      </trkpt>
      <trkpt lat="48.01679" lon="-3.48691">
        <ele>112.9</ele>
        <time>2025-02-26T15:20:50Z</time>
      </trkpt>
      <trkpt lat="48.0168" lon="-3.48692">
        <ele>113</ele>
        <time>2025-02-26T15:20:51Z</time>
      </trkpt>
      <trkpt lat="48.01681" lon="-3.48692">
        <ele>113</ele>
        <time>2025-02-26T15:20:52Z</time>
      </trkpt>
      <trkpt lat="48.01682" lon="-3.48692">
        <ele>113</ele>
        <time>2025-02-26T15:20:53Z</time>
      </trkpt>
      <trkpt lat="48.01682" lon="-3.48692">
        <ele>112.9</ele>
        <time>2025-02-26T15:20:54Z</time>
      </trkpt>
      <trkpt lat="48.01684" lon="-3.48692">
        <ele>112.9</ele>
        <time>2025-02-26T15:20:55Z</time>
      </trkpt>
      <trkpt lat="48.01685" lon="-3.48693">
        <ele>113</ele>
        <time>2025-02-26T15:20:56Z</time>
      </trkpt>
      <trkpt lat="48.01686" lon="-3.48693">
        <ele>113</ele>
        <time>2025-02-26T15:20:57Z</time>
      </trkpt>
      <trkpt lat="48.01687" lon="-3.48694">
        <ele>113</ele>
        <time>2025-02-26T15:20:58Z</time>
      </trkpt>
      <trkpt lat="48.01688" lon="-3.48695">
        <ele>113</ele>
        <time>2025-02-26T15:20:59Z</time>
      </trkpt>
      <trkpt lat="48.01689" lon="-3.48695">
        <ele>113</ele>
        <time>2025-02-26T15:21:00Z</time>
      </trkpt>
      <trkpt lat="48.0169" lon="-3.48696">
        <ele>112.9</ele>
        <time>2025-02-26T15:21:01Z</time>
      </trkpt>
      <trkpt lat="48.01691" lon="-3.48697">
        <ele>112.9</ele>
        <time>2025-02-26T15:21:02Z</time>
      </trkpt>
      <trkpt lat="48.01692" lon="-3.48697">
        <ele>112.9</ele>
        <time>2025-02-26T15:21:03Z</time>
      </trkpt>
      <trkpt lat="48.01693" lon="-3.48698">
        <ele>112.9</ele>
        <time>2025-02-26T15:21:04Z</time>
      </trkpt>
      <trkpt lat="48.01695" lon="-3.48698">
        <ele>112.8</ele>
        <time>2025-02-26T15:21:05Z</time>
      </trkpt>
      <trkpt lat="48.01696" lon="-3.48699">
        <ele>112.7</ele>
        <time>2025-02-26T15:21:06Z</time>
      </trkpt>
      <trkpt lat="48.01697" lon="-3.48699">
        <ele>112.7</ele>
        <time>2025-02-26T15:21:07Z</time>
      </trkpt>
      <trkpt lat="48.01698" lon="-3.48699">
        <ele>112.6</ele>
        <time>2025-02-26T15:21:08Z</time>
      </trkpt>
      <trkpt lat="48.01699" lon="-3.487">
        <ele>112.5</ele>
        <time>2025-02-26T15:21:09Z</time>
      </trkpt>
      <trkpt lat="48.01701" lon="-3.48701">
        <ele>112.4</ele>
        <time>2025-02-26T15:21:10Z</time>
      </trkpt>
      <trkpt lat="48.01702" lon="-3.48701">
        <ele>112.3</ele>
        <time>2025-02-26T15:21:11Z</time>
      </trkpt>
      <trkpt lat="48.01703" lon="-3.48701">
        <ele>112.2</ele>
        <time>2025-02-26T15:21:12Z</time>
      </trkpt>
      <trkpt lat="48.01704" lon="-3.48702">
        <ele>112.1</ele>
        <time>2025-02-26T15:21:13Z</time>
      </trkpt>
      <trkpt lat="48.01705" lon="-3.48702">
        <ele>112.1</ele>
        <time>2025-02-26T15:21:14Z</time>
      </trkpt>
      <trkpt lat="48.01706" lon="-3.48702">
        <ele>112</ele>
        <time>2025-02-26T15:21:15Z</time>
      </trkpt>
      <trkpt lat="48.01707" lon="-3.48702">
        <ele>112</ele>
        <time>2025-02-26T15:21:16Z</time>
      </trkpt>
      <trkpt lat="48.01707" lon="-3.48702">
        <ele>111.9</ele>
        <time>2025-02-26T15:21:17Z</time>
      </trkpt>
      <trkpt lat="48.01709" lon="-3.48703">
        <ele>111.8</ele>
        <time>2025-02-26T15:21:18Z</time>
      </trkpt>
      <trkpt lat="48.0171" lon="-3.48703">
        <ele>111.8</ele>
        <time>2025-02-26T15:21:19Z</time>
      </trkpt>
      <trkpt lat="48.01711" lon="-3.48702">
        <ele>111.7</ele>
        <time>2025-02-26T15:21:20Z</time>
      </trkpt>
      <trkpt lat="48.01712" lon="-3.48703">
        <ele>111.6</ele>
        <time>2025-02-26T15:21:21Z</time>
      </trkpt>
      <trkpt lat="48.01713" lon="-3.48702">
        <ele>111.6</ele>
        <time>2025-02-26T15:21:22Z</time>
      </trkpt>
      <trkpt lat="48.01714" lon="-3.48702">
        <ele>111.5</ele>
        <time>2025-02-26T15:21:23Z</time>
      </trkpt>
      <trkpt lat="48.01715" lon="-3.48702">
        <ele>111.4</ele>
        <time>2025-02-26T15:21:24Z</time>
      </trkpt>
      <trkpt lat="48.01716" lon="-3.48702">
        <ele>111.4</ele>
        <time>2025-02-26T15:21:25Z</time>
      </trkpt>
      <trkpt lat="48.01717" lon="-3.48702">
        <ele>111.3</ele>
        <time>2025-02-26T15:21:26Z</time>
      </trkpt>
      <trkpt lat="48.01718" lon="-3.48702">
        <ele>111.3</ele>
        <time>2025-02-26T15:21:27Z</time>
      </trkpt>
      <trkpt lat="48.01719" lon="-3.48702">
        <ele>111.2</ele>
        <time>2025-02-26T15:21:28Z</time>
      </trkpt>
      <trkpt lat="48.0172" lon="-3.48702">
        <ele>111.1</ele>
        <time>2025-02-26T15:21:29Z</time>
      </trkpt>
      <trkpt lat="48.01722" lon="-3.48702">
        <ele>111</ele>
        <time>2025-02-26T15:21:30Z</time>
      </trkpt>
      <trkpt lat="48.01723" lon="-3.48703">
        <ele>111</ele>
        <time>2025-02-26T15:21:31Z</time>
      </trkpt>
      <trkpt lat="48.01724" lon="-3.48703">
        <ele>110.9</ele>
        <time>2025-02-26T15:21:32Z</time>
      </trkpt>
      <trkpt lat="48.01725" lon="-3.48703">
        <ele>110.8</ele>
        <time>2025-02-26T15:21:33Z</time>
      </trkpt>
      <trkpt lat="48.01726" lon="-3.48703">
        <ele>110.8</ele>
        <time>2025-02-26T15:21:34Z</time>
      </trkpt>
      <trkpt lat="48.01727" lon="-3.48703">
        <ele>110.7</ele>
        <time>2025-02-26T15:21:35Z</time>
      </trkpt>
      <trkpt lat="48.01728" lon="-3.48703">
        <ele>110.6</ele>
        <time>2025-02-26T15:21:36Z</time>
      </trkpt>
      <trkpt lat="48.01729" lon="-3.48704">
        <ele>110.6</ele>
        <time>2025-02-26T15:21:37Z</time>
      </trkpt>
      <trkpt lat="48.01731" lon="-3.48703">
        <ele>110.5</ele>
        <time>2025-02-26T15:21:38Z</time>
      </trkpt>
      <trkpt lat="48.01732" lon="-3.48704">
        <ele>110.4</ele>
        <time>2025-02-26T15:21:39Z</time>
      </trkpt>
      <trkpt lat="48.01733" lon="-3.48704">
        <ele>110.4</ele>
        <time>2025-02-26T15:21:40Z</time>
      </trkpt>
      <trkpt lat="48.01734" lon="-3.48704">
        <ele>110.3</ele>
        <time>2025-02-26T15:21:41Z</time>
      </trkpt>
      <trkpt lat="48.01735" lon="-3.48704">
        <ele>110.3</ele>
        <time>2025-02-26T15:21:42Z</time>
      </trkpt>
      <trkpt lat="48.01736" lon="-3.48704">
        <ele>110.2</ele>
        <time>2025-02-26T15:21:43Z</time>
      </trkpt>
      <trkpt lat="48.01736" lon="-3.48703">
        <ele>110.1</ele>
        <time>2025-02-26T15:21:44Z</time>
      </trkpt>
      <trkpt lat="48.01737" lon="-3.48703">
        <ele>110.1</ele>
        <time>2025-02-26T15:21:45Z</time>
      </trkpt>
      <trkpt lat="48.01738" lon="-3.48703">
        <ele>110</ele>
        <time>2025-02-26T15:21:46Z</time>
      </trkpt>
      <trkpt lat="48.01739" lon="-3.48704">
        <ele>110</ele>
        <time>2025-02-26T15:21:47Z</time>
      </trkpt>
      <trkpt lat="48.01741" lon="-3.48704">
        <ele>109.9</ele>
        <time>2025-02-26T15:21:48Z</time>
      </trkpt>
      <trkpt lat="48.01742" lon="-3.48705">
        <ele>109.8</ele>
        <time>2025-02-26T15:21:49Z</time>
      </trkpt>
      <trkpt lat="48.01744" lon="-3.48705">
        <ele>109.8</ele>
        <time>2025-02-26T15:21:50Z</time>
      </trkpt>
      <trkpt lat="48.01745" lon="-3.48705">
        <ele>109.7</ele>
        <time>2025-02-26T15:21:51Z</time>
      </trkpt>
      <trkpt lat="48.01746" lon="-3.48705">
        <ele>109.6</ele>
        <time>2025-02-26T15:21:52Z</time>
      </trkpt>
      <trkpt lat="48.01747" lon="-3.48706">
        <ele>109.6</ele>
        <time>2025-02-26T15:21:53Z</time>
      </trkpt>
      <trkpt lat="48.01748" lon="-3.48706">
        <ele>109.6</ele>
        <time>2025-02-26T15:21:54Z</time>
      </trkpt>
      <trkpt lat="48.01749" lon="-3.48706">
        <ele>109.5</ele>
        <time>2025-02-26T15:21:55Z</time>
      </trkpt>
      <trkpt lat="48.0175" lon="-3.48706">
        <ele>109.4</ele>
        <time>2025-02-26T15:21:56Z</time>
      </trkpt>
      <trkpt lat="48.01751" lon="-3.48705">
        <ele>109.3</ele>
        <time>2025-02-26T15:21:57Z</time>
      </trkpt>
      <trkpt lat="48.01752" lon="-3.48705">
        <ele>109.2</ele>
        <time>2025-02-26T15:21:58Z</time>
      </trkpt>
      <trkpt lat="48.01753" lon="-3.48704">
        <ele>109</ele>
        <time>2025-02-26T15:21:59Z</time>
      </trkpt>
      <trkpt lat="48.01754" lon="-3.48704">
        <ele>108.9</ele>
        <time>2025-02-26T15:22:00Z</time>
      </trkpt>
      <trkpt lat="48.01756" lon="-3.48704">
        <ele>108.8</ele>
        <time>2025-02-26T15:22:01Z</time>
      </trkpt>
      <trkpt lat="48.01757" lon="-3.48704">
        <ele>108.6</ele>
        <time>2025-02-26T15:22:02Z</time>
      </trkpt>
      <trkpt lat="48.01758" lon="-3.48704">
        <ele>108.5</ele>
        <time>2025-02-26T15:22:03Z</time>
      </trkpt>
      <trkpt lat="48.01759" lon="-3.48704">
        <ele>108.4</ele>
        <time>2025-02-26T15:22:04Z</time>
      </trkpt>
      <trkpt lat="48.0176" lon="-3.48704">
        <ele>108.3</ele>
        <time>2025-02-26T15:22:05Z</time>
      </trkpt>
      <trkpt lat="48.01761" lon="-3.48704">
        <ele>108.2</ele>
        <time>2025-02-26T15:22:06Z</time>
      </trkpt>
      <trkpt lat="48.01762" lon="-3.48704">
        <ele>108</ele>
        <time>2025-02-26T15:22:07Z</time>
      </trkpt>
      <trkpt lat="48.01763" lon="-3.48704">
        <ele>107.9</ele>
        <time>2025-02-26T15:22:08Z</time>
      </trkpt>
      <trkpt lat="48.01765" lon="-3.48705">
        <ele>107.8</ele>
        <time>2025-02-26T15:22:09Z</time>
      </trkpt>
      <trkpt lat="48.01766" lon="-3.48705">
        <ele>107.7</ele>
        <time>2025-02-26T15:22:10Z</time>
      </trkpt>
      <trkpt lat="48.01767" lon="-3.48705">
        <ele>107.5</ele>
        <time>2025-02-26T15:22:11Z</time>
      </trkpt>
      <trkpt lat="48.01768" lon="-3.48706">
        <ele>107.4</ele>
        <time>2025-02-26T15:22:12Z</time>
      </trkpt>
      <trkpt lat="48.01769" lon="-3.48706">
        <ele>107.3</ele>
        <time>2025-02-26T15:22:13Z</time>
      </trkpt>
      <trkpt lat="48.01771" lon="-3.48706">
        <ele>107.2</ele>
        <time>2025-02-26T15:22:14Z</time>
      </trkpt>
      <trkpt lat="48.01772" lon="-3.48707">
        <ele>107.1</ele>
        <time>2025-02-26T15:22:15Z</time>
      </trkpt>
      <trkpt lat="48.01773" lon="-3.48706">
        <ele>107</ele>
        <time>2025-02-26T15:22:16Z</time>
      </trkpt>
      <trkpt lat="48.01774" lon="-3.48705">
        <ele>106.8</ele>
        <time>2025-02-26T15:22:17Z</time>
      </trkpt>
      <trkpt lat="48.01775" lon="-3.48705">
        <ele>106.7</ele>
        <time>2025-02-26T15:22:18Z</time>
      </trkpt>
      <trkpt lat="48.01776" lon="-3.48705">
        <ele>106.6</ele>
        <time>2025-02-26T15:22:19Z</time>
      </trkpt>
      <trkpt lat="48.01777" lon="-3.48705">
        <ele>106.5</ele>
        <time>2025-02-26T15:22:20Z</time>
      </trkpt>
      <trkpt lat="48.01778" lon="-3.48706">
        <ele>106.4</ele>
        <time>2025-02-26T15:22:21Z</time>
      </trkpt>
      <trkpt lat="48.01779" lon="-3.48706">
        <ele>106.2</ele>
        <time>2025-02-26T15:22:22Z</time>
      </trkpt>
      <trkpt lat="48.0178" lon="-3.48706">
        <ele>106</ele>
        <time>2025-02-26T15:22:23Z</time>
      </trkpt>
      <trkpt lat="48.01781" lon="-3.48706">
        <ele>105.8</ele>
        <time>2025-02-26T15:22:24Z</time>
      </trkpt>
      <trkpt lat="48.01782" lon="-3.48707">
        <ele>105.7</ele>
        <time>2025-02-26T15:22:25Z</time>
      </trkpt>
      <trkpt lat="48.01783" lon="-3.48707">
        <ele>105.5</ele>
        <time>2025-02-26T15:22:26Z</time>
      </trkpt>
      <trkpt lat="48.01784" lon="-3.48707">
        <ele>105.3</ele>
        <time>2025-02-26T15:22:27Z</time>
      </trkpt>
      <trkpt lat="48.01785" lon="-3.48707">
        <ele>105.1</ele>
        <time>2025-02-26T15:22:28Z</time>
      </trkpt>
      <trkpt lat="48.01786" lon="-3.48707">
        <ele>104.9</ele>
        <time>2025-02-26T15:22:29Z</time>
      </trkpt>
      <trkpt lat="48.01787" lon="-3.48706">
        <ele>104.7</ele>
        <time>2025-02-26T15:22:30Z</time>
      </trkpt>
      <trkpt lat="48.01789" lon="-3.48706">
        <ele>104.5</ele>
        <time>2025-02-26T15:22:31Z</time>
      </trkpt>
      <trkpt lat="48.0179" lon="-3.48707">
        <ele>104.3</ele>
        <time>2025-02-26T15:22:32Z</time>
      </trkpt>
      <trkpt lat="48.01791" lon="-3.48707">
        <ele>104.1</ele>
        <time>2025-02-26T15:22:33Z</time>
      </trkpt>
      <trkpt lat="48.01792" lon="-3.48707">
        <ele>103.9</ele>
        <time>2025-02-26T15:22:34Z</time>
      </trkpt>
      <trkpt lat="48.01793" lon="-3.48707">
        <ele>103.7</ele>
        <time>2025-02-26T15:22:35Z</time>
      </trkpt>
      <trkpt lat="48.01794" lon="-3.48707">
        <ele>103.5</ele>
        <time>2025-02-26T15:22:36Z</time>
      </trkpt>
      <trkpt lat="48.01795" lon="-3.48708">
        <ele>103.3</ele>
        <time>2025-02-26T15:22:37Z</time>
      </trkpt>
      <trkpt lat="48.01797" lon="-3.48708">
        <ele>103.1</ele>
        <time>2025-02-26T15:22:38Z</time>
      </trkpt>
      <trkpt lat="48.01798" lon="-3.48707">
        <ele>103</ele>
        <time>2025-02-26T15:22:39Z</time>
      </trkpt>
      <trkpt lat="48.01799" lon="-3.48707">
        <ele>102.8</ele>
        <time>2025-02-26T15:22:40Z</time>
      </trkpt>
      <trkpt lat="48.018" lon="-3.48707">
        <ele>102.6</ele>
        <time>2025-02-26T15:22:41Z</time>
      </trkpt>
      <trkpt lat="48.01801" lon="-3.48707">
        <ele>102.4</ele>
        <time>2025-02-26T15:22:42Z</time>
      </trkpt>
      <trkpt lat="48.01802" lon="-3.48706">
        <ele>102.2</ele>
        <time>2025-02-26T15:22:43Z</time>
      </trkpt>
      <trkpt lat="48.01804" lon="-3.48707">
        <ele>101.9</ele>
        <time>2025-02-26T15:22:44Z</time>
      </trkpt>
      <trkpt lat="48.01805" lon="-3.48707">
        <ele>101.7</ele>
        <time>2025-02-26T15:22:45Z</time>
      </trkpt>
      <trkpt lat="48.01806" lon="-3.48707">
        <ele>101.5</ele>
        <time>2025-02-26T15:22:46Z</time>
      </trkpt>
      <trkpt lat="48.01807" lon="-3.48707">
        <ele>101.4</ele>
        <time>2025-02-26T15:22:47Z</time>
      </trkpt>
      <trkpt lat="48.01808" lon="-3.48707">
        <ele>101.3</ele>
        <time>2025-02-26T15:22:48Z</time>
      </trkpt>
      <trkpt lat="48.01809" lon="-3.48707">
        <ele>101.2</ele>
        <time>2025-02-26T15:22:49Z</time>
      </trkpt>
      <trkpt lat="48.0181" lon="-3.48707">
        <ele>101</ele>
        <time>2025-02-26T15:22:50Z</time>
      </trkpt>
      <trkpt lat="48.01811" lon="-3.48707">
        <ele>100.9</ele>
        <time>2025-02-26T15:22:51Z</time>
      </trkpt>
      <trkpt lat="48.01812" lon="-3.48706">
        <ele>100.7</ele>
        <time>2025-02-26T15:22:52Z</time>
      </trkpt>
      <trkpt lat="48.01813" lon="-3.48706">
        <ele>100.6</ele>
        <time>2025-02-26T15:22:53Z</time>
      </trkpt>
      <trkpt lat="48.01814" lon="-3.48705">
        <ele>100.6</ele>
        <time>2025-02-26T15:22:54Z</time>
      </trkpt>
      <trkpt lat="48.01814" lon="-3.48704">
        <ele>100.5</ele>
        <time>2025-02-26T15:22:55Z</time>
      </trkpt>
      <trkpt lat="48.01815" lon="-3.48704">
        <ele>100.4</ele>
        <time>2025-02-26T15:22:56Z</time>
      </trkpt>
      <trkpt lat="48.01816" lon="-3.48704">
        <ele>100.3</ele>
        <time>2025-02-26T15:22:57Z</time>
      </trkpt>
      <trkpt lat="48.01817" lon="-3.48704">
        <ele>100.2</ele>
        <time>2025-02-26T15:22:58Z</time>
      </trkpt>
      <trkpt lat="48.01817" lon="-3.48704">
        <ele>100.1</ele>
        <time>2025-02-26T15:22:59Z</time>
      </trkpt>
      <trkpt lat="48.01818" lon="-3.48704">
        <ele>100</ele>
        <time>2025-02-26T15:23:00Z</time>
      </trkpt>
      <trkpt lat="48.01819" lon="-3.48703">
        <ele>99.9</ele>
        <time>2025-02-26T15:23:01Z</time>
      </trkpt>
      <trkpt lat="48.0182" lon="-3.48703">
        <ele>99.8</ele>
        <time>2025-02-26T15:23:02Z</time>
      </trkpt>
      <trkpt lat="48.0182" lon="-3.48704">
        <ele>99.7</ele>
        <time>2025-02-26T15:23:03Z</time>
      </trkpt>
      <trkpt lat="48.01821" lon="-3.48704">
        <ele>99.6</ele>
        <time>2025-02-26T15:23:04Z</time>
      </trkpt>
      <trkpt lat="48.01821" lon="-3.48705">
        <ele>99.6</ele>
        <time>2025-02-26T15:23:05Z</time>
      </trkpt>
      <trkpt lat="48.01822" lon="-3.48705">
        <ele>99.5</ele>
        <time>2025-02-26T15:23:06Z</time>
      </trkpt>
      <trkpt lat="48.01822" lon="-3.48705">
        <ele>99.4</ele>
        <time>2025-02-26T15:23:07Z</time>
      </trkpt>
      <trkpt lat="48.01823" lon="-3.48705">
        <ele>99.4</ele>
        <time>2025-02-26T15:23:08Z</time>
      </trkpt>
      <trkpt lat="48.01824" lon="-3.48705">
        <ele>99.2</ele>
        <time>2025-02-26T15:23:09Z</time>
      </trkpt>
      <trkpt lat="48.01825" lon="-3.48706">
        <ele>99.1</ele>
        <time>2025-02-26T15:23:10Z</time>
      </trkpt>
      <trkpt lat="48.01826" lon="-3.48706">
        <ele>99</ele>
        <time>2025-02-26T15:23:11Z</time>
      </trkpt>
      <trkpt lat="48.01826" lon="-3.48706">
        <ele>98.9</ele>
        <time>2025-02-26T15:23:12Z</time>
      </trkpt>
      <trkpt lat="48.01827" lon="-3.48706">
        <ele>98.8</ele>
        <time>2025-02-26T15:23:13Z</time>
      </trkpt>
      <trkpt lat="48.01828" lon="-3.48707">
        <ele>98.7</ele>
        <time>2025-02-26T15:23:14Z</time>
      </trkpt>
      <trkpt lat="48.01829" lon="-3.48707">
        <ele>98.6</ele>
        <time>2025-02-26T15:23:15Z</time>
      </trkpt>
      <trkpt lat="48.0183" lon="-3.48707">
        <ele>98.4</ele>
        <time>2025-02-26T15:23:16Z</time>
      </trkpt>
      <trkpt lat="48.01831" lon="-3.48707">
        <ele>98.3</ele>
        <time>2025-02-26T15:23:17Z</time>
      </trkpt>
      <trkpt lat="48.01832" lon="-3.48707">
        <ele>98.2</ele>
        <time>2025-02-26T15:23:18Z</time>
      </trkpt>
      <trkpt lat="48.01833" lon="-3.48708">
        <ele>98</ele>
        <time>2025-02-26T15:23:19Z</time>
      </trkpt>
      <trkpt lat="48.01834" lon="-3.48708">
        <ele>97.9</ele>
        <time>2025-02-26T15:23:20Z</time>
      </trkpt>
      <trkpt lat="48.01835" lon="-3.48709">
        <ele>97.8</ele>
        <time>2025-02-26T15:23:21Z</time>
      </trkpt>
      <trkpt lat="48.01836" lon="-3.4871">
        <ele>97.7</ele>
        <time>2025-02-26T15:23:22Z</time>
      </trkpt>
      <trkpt lat="48.01837" lon="-3.4871">
        <ele>97.5</ele>
        <time>2025-02-26T15:23:23Z</time>
      </trkpt>
      <trkpt lat="48.01838" lon="-3.4871">
        <ele>97.4</ele>
        <time>2025-02-26T15:23:24Z</time>
      </trkpt>
      <trkpt lat="48.01839" lon="-3.48711">
        <ele>97.3</ele>
        <time>2025-02-26T15:23:25Z</time>
      </trkpt>
      <trkpt lat="48.0184" lon="-3.48711">
        <ele>97.2</ele>
        <time>2025-02-26T15:23:26Z</time>
      </trkpt>
      <trkpt lat="48.01841" lon="-3.48712">
        <ele>97</ele>
        <time>2025-02-26T15:23:27Z</time>
      </trkpt>
      <trkpt lat="48.01842" lon="-3.48713">
        <ele>96.9</ele>
        <time>2025-02-26T15:23:28Z</time>
      </trkpt>
      <trkpt lat="48.01843" lon="-3.48713">
        <ele>96.8</ele>
        <time>2025-02-26T15:23:29Z</time>
      </trkpt>
      <trkpt lat="48.01844" lon="-3.48713">
        <ele>96.6</ele>
        <time>2025-02-26T15:23:30Z</time>
      </trkpt>
      <trkpt lat="48.01845" lon="-3.48712">
        <ele>96.5</ele>
        <time>2025-02-26T15:23:31Z</time>
      </trkpt>
      <trkpt lat="48.01846" lon="-3.48712">
        <ele>96.4</ele>
        <time>2025-02-26T15:23:32Z</time>
      </trkpt>
      <trkpt lat="48.01847" lon="-3.48712">
        <ele>96.3</ele>
        <time>2025-02-26T15:23:33Z</time>
      </trkpt>
      <trkpt lat="48.01848" lon="-3.48712">
        <ele>96.1</ele>
        <time>2025-02-26T15:23:34Z</time>
      </trkpt>
      <trkpt lat="48.01848" lon="-3.48712">
        <ele>96</ele>
        <time>2025-02-26T15:23:35Z</time>
      </trkpt>
      <trkpt lat="48.01849" lon="-3.48712">
        <ele>95.9</ele>
        <time>2025-02-26T15:23:36Z</time>
      </trkpt>
      <trkpt lat="48.0185" lon="-3.48712">
        <ele>95.8</ele>
        <time>2025-02-26T15:23:37Z</time>
      </trkpt>
      <trkpt lat="48.01851" lon="-3.48712">
        <ele>95.7</ele>
        <time>2025-02-26T15:23:38Z</time>
      </trkpt>
      <trkpt lat="48.01852" lon="-3.48712">
        <ele>95.5</ele>
        <time>2025-02-26T15:23:39Z</time>
      </trkpt>
      <trkpt lat="48.01853" lon="-3.48713">
        <ele>95.4</ele>
        <time>2025-02-26T15:23:40Z</time>
      </trkpt>
      <trkpt lat="48.01854" lon="-3.48713">
        <ele>95.3</ele>
        <time>2025-02-26T15:23:41Z</time>
      </trkpt>
      <trkpt lat="48.01855" lon="-3.48714">
        <ele>95.2</ele>
        <time>2025-02-26T15:23:42Z</time>
      </trkpt>
      <trkpt lat="48.01855" lon="-3.48714">
        <ele>95.1</ele>
        <time>2025-02-26T15:23:43Z</time>
      </trkpt>
      <trkpt lat="48.01856" lon="-3.48715">
        <ele>95</ele>
        <time>2025-02-26T15:23:44Z</time>
      </trkpt>
      <trkpt lat="48.01857" lon="-3.48715">
        <ele>94.9</ele>
        <time>2025-02-26T15:23:45Z</time>
      </trkpt>
      <trkpt lat="48.01857" lon="-3.48716">
        <ele>94.8</ele>
        <time>2025-02-26T15:23:46Z</time>
      </trkpt>
      <trkpt lat="48.01858" lon="-3.48716">
        <ele>94.6</ele>
        <time>2025-02-26T15:23:47Z</time>
      </trkpt>
      <trkpt lat="48.01859" lon="-3.48716">
        <ele>94.5</ele>
        <time>2025-02-26T15:23:48Z</time>
      </trkpt>
      <trkpt lat="48.0186" lon="-3.48716">
        <ele>94.4</ele>
        <time>2025-02-26T15:23:49Z</time>
      </trkpt>
      <trkpt lat="48.01861" lon="-3.48716">
        <ele>94.3</ele>
        <time>2025-02-26T15:23:50Z</time>
      </trkpt>
      <trkpt lat="48.01862" lon="-3.48716">
        <ele>94.1</ele>
        <time>2025-02-26T15:23:51Z</time>
      </trkpt>
      <trkpt lat="48.01863" lon="-3.48716">
        <ele>94</ele>
        <time>2025-02-26T15:23:52Z</time>
      </trkpt>
      <trkpt lat="48.01864" lon="-3.48716">
        <ele>93.9</ele>
        <time>2025-02-26T15:23:53Z</time>
      </trkpt>
      <trkpt lat="48.01865" lon="-3.48716">
        <ele>93.8</ele>
        <time>2025-02-26T15:23:54Z</time>
      </trkpt>
      <trkpt lat="48.01866" lon="-3.48717">
        <ele>93.6</ele>
        <time>2025-02-26T15:23:55Z</time>
      </trkpt>
      <trkpt lat="48.01867" lon="-3.48717">
        <ele>93.5</ele>
        <time>2025-02-26T15:23:56Z</time>
      </trkpt>
      <trkpt lat="48.01868" lon="-3.48717">
        <ele>93.4</ele>
        <time>2025-02-26T15:23:57Z</time>
      </trkpt>
      <trkpt lat="48.01869" lon="-3.48717">
        <ele>93.3</ele>
        <time>2025-02-26T15:23:58Z</time>
      </trkpt>
      <trkpt lat="48.0187" lon="-3.48717">
        <ele>93.1</ele>
        <time>2025-02-26T15:23:59Z</time>
      </trkpt>
      <trkpt lat="48.01871" lon="-3.48717">
        <ele>93</ele>
        <time>2025-02-26T15:24:00Z</time>
      </trkpt>
      <trkpt lat="48.01872" lon="-3.48718">
        <ele>92.9</ele>
        <time>2025-02-26T15:24:01Z</time>
      </trkpt>
      <trkpt lat="48.01873" lon="-3.48719">
        <ele>92.8</ele>
        <time>2025-02-26T15:24:02Z</time>
      </trkpt>
      <trkpt lat="48.01874" lon="-3.48719">
        <ele>92.7</ele>
        <time>2025-02-26T15:24:03Z</time>
      </trkpt>
      <trkpt lat="48.01875" lon="-3.48719">
        <ele>92.6</ele>
        <time>2025-02-26T15:24:04Z</time>
      </trkpt>
      <trkpt lat="48.01876" lon="-3.48719">
        <ele>92.5</ele>
        <time>2025-02-26T15:24:05Z</time>
      </trkpt>
      <trkpt lat="48.01877" lon="-3.48719">
        <ele>92.4</ele>
        <time>2025-02-26T15:24:06Z</time>
      </trkpt>
      <trkpt lat="48.01878" lon="-3.48719">
        <ele>92.3</ele>
        <time>2025-02-26T15:24:07Z</time>
      </trkpt>
      <trkpt lat="48.01878" lon="-3.48719">
        <ele>92.2</ele>
        <time>2025-02-26T15:24:08Z</time>
      </trkpt>
      <trkpt lat="48.01879" lon="-3.48719">
        <ele>92.1</ele>
        <time>2025-02-26T15:24:09Z</time>
      </trkpt>
      <trkpt lat="48.0188" lon="-3.48719">
        <ele>92</ele>
        <time>2025-02-26T15:24:10Z</time>
      </trkpt>
      <trkpt lat="48.01881" lon="-3.48719">
        <ele>91.9</ele>
        <time>2025-02-26T15:24:11Z</time>
      </trkpt>
      <trkpt lat="48.01882" lon="-3.48719">
        <ele>91.8</ele>
        <time>2025-02-26T15:24:12Z</time>
      </trkpt>
      <trkpt lat="48.01883" lon="-3.48719">
        <ele>91.7</ele>
        <time>2025-02-26T15:24:13Z</time>
      </trkpt>
      <trkpt lat="48.01884" lon="-3.48719">
        <ele>91.5</ele>
        <time>2025-02-26T15:24:14Z</time>
      </trkpt>
      <trkpt lat="48.01885" lon="-3.48719">
        <ele>91.4</ele>
        <time>2025-02-26T15:24:15Z</time>
      </trkpt>
      <trkpt lat="48.01886" lon="-3.4872">
        <ele>91.3</ele>
        <time>2025-02-26T15:24:16Z</time>
      </trkpt>
      <trkpt lat="48.01887" lon="-3.4872">
        <ele>91.2</ele>
        <time>2025-02-26T15:24:17Z</time>
      </trkpt>
      <trkpt lat="48.01888" lon="-3.4872">
        <ele>91.1</ele>
        <time>2025-02-26T15:24:18Z</time>
      </trkpt>
      <trkpt lat="48.01889" lon="-3.48719">
        <ele>91</ele>
        <time>2025-02-26T15:24:19Z</time>
      </trkpt>
      <trkpt lat="48.0189" lon="-3.48719">
        <ele>90.9</ele>
        <time>2025-02-26T15:24:20Z</time>
      </trkpt>
      <trkpt lat="48.01891" lon="-3.48719">
        <ele>90.8</ele>
        <time>2025-02-26T15:24:21Z</time>
      </trkpt>
      <trkpt lat="48.01892" lon="-3.4872">
        <ele>90.8</ele>
        <time>2025-02-26T15:24:22Z</time>
      </trkpt>
      <trkpt lat="48.01893" lon="-3.4872">
        <ele>90.7</ele>
        <time>2025-02-26T15:24:23Z</time>
      </trkpt>
      <trkpt lat="48.01894" lon="-3.4872">
        <ele>90.6</ele>
        <time>2025-02-26T15:24:24Z</time>
      </trkpt>
      <trkpt lat="48.01895" lon="-3.4872">
        <ele>90.5</ele>
        <time>2025-02-26T15:24:25Z</time>
      </trkpt>
      <trkpt lat="48.01896" lon="-3.4872">
        <ele>90.4</ele>
        <time>2025-02-26T15:24:26Z</time>
      </trkpt>
      <trkpt lat="48.01898" lon="-3.48721">
        <ele>90.4</ele>
        <time>2025-02-26T15:24:27Z</time>
      </trkpt>
      <trkpt lat="48.01899" lon="-3.48721">
        <ele>90.3</ele>
        <time>2025-02-26T15:24:28Z</time>
      </trkpt>
      <trkpt lat="48.019" lon="-3.48721">
        <ele>90.2</ele>
        <time>2025-02-26T15:24:29Z</time>
      </trkpt>
      <trkpt lat="48.01901" lon="-3.48721">
        <ele>90.1</ele>
        <time>2025-02-26T15:24:30Z</time>
      </trkpt>
      <trkpt lat="48.01902" lon="-3.4872">
        <ele>90</ele>
        <time>2025-02-26T15:24:31Z</time>
      </trkpt>
      <trkpt lat="48.01904" lon="-3.48721">
        <ele>89.9</ele>
        <time>2025-02-26T15:24:32Z</time>
      </trkpt>
      <trkpt lat="48.01905" lon="-3.48721">
        <ele>89.8</ele>
        <time>2025-02-26T15:24:33Z</time>
      </trkpt>
      <trkpt lat="48.01906" lon="-3.48721">
        <ele>89.8</ele>
        <time>2025-02-26T15:24:34Z</time>
      </trkpt>
      <trkpt lat="48.01907" lon="-3.48721">
        <ele>89.7</ele>
        <time>2025-02-26T15:24:35Z</time>
      </trkpt>
      <trkpt lat="48.01908" lon="-3.48721">
        <ele>89.6</ele>
        <time>2025-02-26T15:24:36Z</time>
      </trkpt>
      <trkpt lat="48.01909" lon="-3.48722">
        <ele>89.5</ele>
        <time>2025-02-26T15:24:37Z</time>
      </trkpt>
      <trkpt lat="48.0191" lon="-3.48722">
        <ele>89.5</ele>
        <time>2025-02-26T15:24:38Z</time>
      </trkpt>
      <trkpt lat="48.01911" lon="-3.48723">
        <ele>89.4</ele>
        <time>2025-02-26T15:24:39Z</time>
      </trkpt>
      <trkpt lat="48.01912" lon="-3.48723">
        <ele>89.3</ele>
        <time>2025-02-26T15:24:40Z</time>
      </trkpt>
      <trkpt lat="48.01913" lon="-3.48723">
        <ele>89.2</ele>
        <time>2025-02-26T15:24:41Z</time>
      </trkpt>
      <trkpt lat="48.01914" lon="-3.48724">
        <ele>89.2</ele>
        <time>2025-02-26T15:24:42Z</time>
      </trkpt>
      <trkpt lat="48.01915" lon="-3.48724">
        <ele>89.1</ele>
        <time>2025-02-26T15:24:43Z</time>
      </trkpt>
      <trkpt lat="48.01916" lon="-3.48724">
        <ele>89</ele>
        <time>2025-02-26T15:24:44Z</time>
      </trkpt>
      <trkpt lat="48.01917" lon="-3.48724">
        <ele>89</ele>
        <time>2025-02-26T15:24:45Z</time>
      </trkpt>
      <trkpt lat="48.01917" lon="-3.48724">
        <ele>88.9</ele>
        <time>2025-02-26T15:24:46Z</time>
      </trkpt>
      <trkpt lat="48.01918" lon="-3.48724">
        <ele>88.9</ele>
        <time>2025-02-26T15:24:47Z</time>
      </trkpt>
      <trkpt lat="48.01918" lon="-3.48724">
        <ele>88.9</ele>
        <time>2025-02-26T15:24:48Z</time>
      </trkpt>
      <trkpt lat="48.01918" lon="-3.48724">
        <ele>88.9</ele>
        <time>2025-02-26T15:24:49Z</time>
      </trkpt>
      <trkpt lat="48.01918" lon="-3.48724">
        <ele>88.9</ele>
        <time>2025-02-26T15:24:50Z</time>
      </trkpt>
      <trkpt lat="48.01917" lon="-3.48725">
        <ele>88.9</ele>
        <time>2025-02-26T15:24:51Z</time>
      </trkpt>
      <trkpt lat="48.01917" lon="-3.48725">
        <ele>88.9</ele>
        <time>2025-02-26T15:24:52Z</time>
      </trkpt>
      <trkpt lat="48.01916" lon="-3.48727">
        <ele>88.9</ele>
        <time>2025-02-26T15:24:53Z</time>
      </trkpt>
      <trkpt lat="48.01915" lon="-3.48729">
        <ele>88.9</ele>
        <time>2025-02-26T15:24:54Z</time>
      </trkpt>
      <trkpt lat="48.01914" lon="-3.4873">
        <ele>88.9</ele>
        <time>2025-02-26T15:24:55Z</time>
      </trkpt>
      <trkpt lat="48.01914" lon="-3.48732">
        <ele>88.9</ele>
        <time>2025-02-26T15:24:56Z</time>
      </trkpt>
      <trkpt lat="48.01914" lon="-3.48734">
        <ele>88.9</ele>
        <time>2025-02-26T15:24:57Z</time>
      </trkpt>
      <trkpt lat="48.01913" lon="-3.48735">
        <ele>88.9</ele>
        <time>2025-02-26T15:24:58Z</time>
      </trkpt>
      <trkpt lat="48.01912" lon="-3.48736">
        <ele>88.9</ele>
        <time>2025-02-26T15:24:59Z</time>
      </trkpt>
      <trkpt lat="48.01912" lon="-3.48738">
        <ele>88.9</ele>
        <time>2025-02-26T15:25:00Z</time>
      </trkpt>
      <trkpt lat="48.01912" lon="-3.48739">
        <ele>88.9</ele>
        <time>2025-02-26T15:25:01Z</time>
      </trkpt>
      <trkpt lat="48.01911" lon="-3.48741">
        <ele>88.9</ele>
        <time>2025-02-26T15:25:02Z</time>
      </trkpt>
      <trkpt lat="48.0191" lon="-3.48742">
        <ele>89</ele>
        <time>2025-02-26T15:25:03Z</time>
      </trkpt>
      <trkpt lat="48.01909" lon="-3.48745">
        <ele>88.9</ele>
        <time>2025-02-26T15:25:04Z</time>
      </trkpt>
      <trkpt lat="48.01909" lon="-3.48746">
        <ele>88.9</ele>
        <time>2025-02-26T15:25:05Z</time>
      </trkpt>
      <trkpt lat="48.01909" lon="-3.48748">
        <ele>88.9</ele>
        <time>2025-02-26T15:25:06Z</time>
      </trkpt>
      <trkpt lat="48.01908" lon="-3.48749">
        <ele>88.9</ele>
        <time>2025-02-26T15:25:07Z</time>
      </trkpt>
      <trkpt lat="48.01908" lon="-3.48751">
        <ele>89</ele>
        <time>2025-02-26T15:25:08Z</time>
      </trkpt>
      <trkpt lat="48.01907" lon="-3.48752">
        <ele>89</ele>
        <time>2025-02-26T15:25:09Z</time>
      </trkpt>
      <trkpt lat="48.01907" lon="-3.48754">
        <ele>89</ele>
        <time>2025-02-26T15:25:10Z</time>
      </trkpt>
      <trkpt lat="48.01906" lon="-3.48755">
        <ele>89</ele>
        <time>2025-02-26T15:25:11Z</time>
      </trkpt>
      <trkpt lat="48.01906" lon="-3.48757">
        <ele>89</ele>
        <time>2025-02-26T15:25:12Z</time>
      </trkpt>
      <trkpt lat="48.01905" lon="-3.48758">
        <ele>89.1</ele>
        <time>2025-02-26T15:25:13Z</time>
      </trkpt>
      <trkpt lat="48.01905" lon="-3.48759">
        <ele>89.1</ele>
        <time>2025-02-26T15:25:14Z</time>
      </trkpt>
      <trkpt lat="48.01904" lon="-3.48761">
        <ele>89.2</ele>
        <time>2025-02-26T15:25:15Z</time>
      </trkpt>
      <trkpt lat="48.01904" lon="-3.48762">
        <ele>89.2</ele>
        <time>2025-02-26T15:25:16Z</time>
      </trkpt>
      <trkpt lat="48.01904" lon="-3.48764">
        <ele>89.2</ele>
        <time>2025-02-26T15:25:17Z</time>
      </trkpt>
      <trkpt lat="48.01903" lon="-3.48766">
        <ele>89.2</ele>
        <time>2025-02-26T15:25:18Z</time>
      </trkpt>
      <trkpt lat="48.01903" lon="-3.48767">
        <ele>89.2</ele>
        <time>2025-02-26T15:25:19Z</time>
      </trkpt>
      <trkpt lat="48.01902" lon="-3.48769">
        <ele>89.2</ele>
        <time>2025-02-26T15:25:20Z</time>
      </trkpt>
      <trkpt lat="48.01901" lon="-3.48771">
        <ele>89.2</ele>
        <time>2025-02-26T15:25:21Z</time>
      </trkpt>
      <trkpt lat="48.01901" lon="-3.48772">
        <ele>89.3</ele>
        <time>2025-02-26T15:25:22Z</time>
      </trkpt>
      <trkpt lat="48.01901" lon="-3.48773">
        <ele>89.3</ele>
        <time>2025-02-26T15:25:23Z</time>
      </trkpt>
      <trkpt lat="48.019" lon="-3.48773">
        <ele>89.3</ele>
        <time>2025-02-26T15:25:24Z</time>
      </trkpt>
      <trkpt lat="48.019" lon="-3.48774">
        <ele>89.3</ele>
        <time>2025-02-26T15:25:25Z</time>
      </trkpt>
      <trkpt lat="48.019" lon="-3.48775">
        <ele>89.3</ele>
        <time>2025-02-26T15:25:26Z</time>
      </trkpt>
      <trkpt lat="48.019" lon="-3.48776">
        <ele>89.3</ele>
        <time>2025-02-26T15:25:27Z</time>
      </trkpt>
      <trkpt lat="48.01899" lon="-3.48778">
        <ele>89.3</ele>
        <time>2025-02-26T15:25:28Z</time>
      </trkpt>
      <trkpt lat="48.01899" lon="-3.48779">
        <ele>89.3</ele>
        <time>2025-02-26T15:25:29Z</time>
      </trkpt>
      <trkpt lat="48.01899" lon="-3.48779">
        <ele>89.2</ele>
        <time>2025-02-26T15:25:30Z</time>
      </trkpt>
      <trkpt lat="48.01898" lon="-3.4878">
        <ele>89.2</ele>
        <time>2025-02-26T15:25:31Z</time>
      </trkpt>
      <trkpt lat="48.01898" lon="-3.48782">
        <ele>89.2</ele>
        <time>2025-02-26T15:25:32Z</time>
      </trkpt>
      <trkpt lat="48.01898" lon="-3.48783">
        <ele>89.2</ele>
        <time>2025-02-26T15:25:33Z</time>
      </trkpt>
      <trkpt lat="48.01897" lon="-3.48783">
        <ele>89.2</ele>
        <time>2025-02-26T15:25:34Z</time>
      </trkpt>
      <trkpt lat="48.01897" lon="-3.48784">
        <ele>89.2</ele>
        <time>2025-02-26T15:25:35Z</time>
      </trkpt>
      <trkpt lat="48.01896" lon="-3.48784">
        <ele>89.3</ele>
        <time>2025-02-26T15:25:36Z</time>
      </trkpt>
      <trkpt lat="48.01895" lon="-3.48785">
        <ele>89.3</ele>
        <time>2025-02-26T15:25:37Z</time>
      </trkpt>
      <trkpt lat="48.01895" lon="-3.48786">
        <ele>89.3</ele>
        <time>2025-02-26T15:25:38Z</time>
      </trkpt>
      <trkpt lat="48.01894" lon="-3.48787">
        <ele>89.3</ele>
        <time>2025-02-26T15:25:39Z</time>
      </trkpt>
      <trkpt lat="48.01893" lon="-3.48788">
        <ele>89.3</ele>
        <time>2025-02-26T15:25:40Z</time>
      </trkpt>
      <trkpt lat="48.01892" lon="-3.48789">
        <ele>89.4</ele>
        <time>2025-02-26T15:25:41Z</time>
      </trkpt>
      <trkpt lat="48.01892" lon="-3.4879">
        <ele>89.4</ele>
        <time>2025-02-26T15:25:42Z</time>
      </trkpt>
      <trkpt lat="48.01892" lon="-3.4879">
        <ele>89.4</ele>
        <time>2025-02-26T15:25:43Z</time>
      </trkpt>
      <trkpt lat="48.01891" lon="-3.48792">
        <ele>89.3</ele>
        <time>2025-02-26T15:25:44Z</time>
      </trkpt>
      <trkpt lat="48.0189" lon="-3.48794">
        <ele>89.4</ele>
        <time>2025-02-26T15:25:45Z</time>
      </trkpt>
      <trkpt lat="48.0189" lon="-3.48795">
        <ele>89.3</ele>
        <time>2025-02-26T15:25:46Z</time>
      </trkpt>
      <trkpt lat="48.0189" lon="-3.48797">
        <ele>89.2</ele>
        <time>2025-02-26T15:25:47Z</time>
      </trkpt>
      <trkpt lat="48.0189" lon="-3.48798">
        <ele>89.2</ele>
        <time>2025-02-26T15:25:48Z</time>
      </trkpt>
      <trkpt lat="48.0189" lon="-3.488">
        <ele>89.2</ele>
        <time>2025-02-26T15:25:49Z</time>
      </trkpt>
      <trkpt lat="48.0189" lon="-3.48802">
        <ele>89.1</ele>
        <time>2025-02-26T15:25:50Z</time>
      </trkpt>
      <trkpt lat="48.0189" lon="-3.48804">
        <ele>89</ele>
        <time>2025-02-26T15:25:51Z</time>
      </trkpt>
      <trkpt lat="48.0189" lon="-3.48806">
        <ele>88.9</ele>
        <time>2025-02-26T15:25:52Z</time>
      </trkpt>
      <trkpt lat="48.0189" lon="-3.48808">
        <ele>89</ele>
        <time>2025-02-26T15:25:53Z</time>
      </trkpt>
      <trkpt lat="48.01889" lon="-3.48809">
        <ele>89</ele>
        <time>2025-02-26T15:25:54Z</time>
      </trkpt>
      <trkpt lat="48.01889" lon="-3.48811">
        <ele>89</ele>
        <time>2025-02-26T15:25:55Z</time>
      </trkpt>
      <trkpt lat="48.01889" lon="-3.48813">
        <ele>89</ele>
        <time>2025-02-26T15:25:56Z</time>
      </trkpt>
      <trkpt lat="48.01889" lon="-3.48815">
        <ele>89</ele>
        <time>2025-02-26T15:25:57Z</time>
      </trkpt>
      <trkpt lat="48.01888" lon="-3.48817">
        <ele>89.1</ele>
        <time>2025-02-26T15:25:58Z</time>
      </trkpt>
      <trkpt lat="48.01887" lon="-3.48818">
        <ele>89.2</ele>
        <time>2025-02-26T15:25:59Z</time>
      </trkpt>
      <trkpt lat="48.01888" lon="-3.48816">
        <ele>89.1</ele>
        <time>2025-02-26T15:26:00Z</time>
      </trkpt>
      <trkpt lat="48.01888" lon="-3.48817">
        <ele>89.1</ele>
        <time>2025-02-26T15:26:01Z</time>
      </trkpt>
      <trkpt lat="48.01888" lon="-3.48817">
        <ele>89.1</ele>
        <time>2025-02-26T15:26:02Z</time>
      </trkpt>
      <trkpt lat="48.01887" lon="-3.48819">
        <ele>89.2</ele>
        <time>2025-02-26T15:26:03Z</time>
      </trkpt>
      <trkpt lat="48.01886" lon="-3.4882">
        <ele>89.3</ele>
        <time>2025-02-26T15:26:04Z</time>
      </trkpt>
      <trkpt lat="48.01886" lon="-3.48822">
        <ele>89.3</ele>
        <time>2025-02-26T15:26:05Z</time>
      </trkpt>
      <trkpt lat="48.01886" lon="-3.48823">
        <ele>89.3</ele>
        <time>2025-02-26T15:26:06Z</time>
      </trkpt>
      <trkpt lat="48.01886" lon="-3.48825">
        <ele>89.3</ele>
        <time>2025-02-26T15:26:07Z</time>
      </trkpt>
      <trkpt lat="48.01885" lon="-3.48826">
        <ele>89.5</ele>
        <time>2025-02-26T15:26:08Z</time>
      </trkpt>
      <trkpt lat="48.01884" lon="-3.48827">
        <ele>89.5</ele>
        <time>2025-02-26T15:26:09Z</time>
      </trkpt>
      <trkpt lat="48.01884" lon="-3.48829">
        <ele>89.5</ele>
        <time>2025-02-26T15:26:10Z</time>
      </trkpt>
      <trkpt lat="48.01884" lon="-3.48831">
        <ele>89.5</ele>
        <time>2025-02-26T15:26:11Z</time>
      </trkpt>
      <trkpt lat="48.01884" lon="-3.48833">
        <ele>89.5</ele>
        <time>2025-02-26T15:26:12Z</time>
      </trkpt>
      <trkpt lat="48.01883" lon="-3.48834">
        <ele>89.6</ele>
        <time>2025-02-26T15:26:13Z</time>
      </trkpt>
      <trkpt lat="48.01882" lon="-3.48835">
        <ele>89.6</ele>
        <time>2025-02-26T15:26:14Z</time>
      </trkpt>
      <trkpt lat="48.01882" lon="-3.48837">
        <ele>89.6</ele>
        <time>2025-02-26T15:26:15Z</time>
      </trkpt>
      <trkpt lat="48.01882" lon="-3.48839">
        <ele>89.5</ele>
        <time>2025-02-26T15:26:16Z</time>
      </trkpt>
      <trkpt lat="48.01882" lon="-3.48841">
        <ele>89.5</ele>
        <time>2025-02-26T15:26:17Z</time>
      </trkpt>
      <trkpt lat="48.01881" lon="-3.48843">
        <ele>89.5</ele>
        <time>2025-02-26T15:26:18Z</time>
      </trkpt>
      <trkpt lat="48.01881" lon="-3.48844">
        <ele>89.5</ele>
        <time>2025-02-26T15:26:19Z</time>
      </trkpt>
      <trkpt lat="48.01881" lon="-3.48846">
        <ele>89.4</ele>
        <time>2025-02-26T15:26:20Z</time>
      </trkpt>
      <trkpt lat="48.01881" lon="-3.48848">
        <ele>89.3</ele>
        <time>2025-02-26T15:26:21Z</time>
      </trkpt>
      <trkpt lat="48.01881" lon="-3.4885">
        <ele>89.3</ele>
        <time>2025-02-26T15:26:22Z</time>
      </trkpt>
      <trkpt lat="48.01881" lon="-3.48852">
        <ele>89.3</ele>
        <time>2025-02-26T15:26:23Z</time>
      </trkpt>
      <trkpt lat="48.0188" lon="-3.48853">
        <ele>89.2</ele>
        <time>2025-02-26T15:26:24Z</time>
      </trkpt>
      <trkpt lat="48.0188" lon="-3.48855">
        <ele>89.2</ele>
        <time>2025-02-26T15:26:25Z</time>
      </trkpt>
      <trkpt lat="48.0188" lon="-3.48857">
        <ele>89.2</ele>
        <time>2025-02-26T15:26:26Z</time>
      </trkpt>
      <trkpt lat="48.01879" lon="-3.48858">
        <ele>89.1</ele>
        <time>2025-02-26T15:26:27Z</time>
      </trkpt>
      <trkpt lat="48.0188" lon="-3.4886">
        <ele>89.1</ele>
        <time>2025-02-26T15:26:28Z</time>
      </trkpt>
      <trkpt lat="48.01879" lon="-3.48862">
        <ele>89.1</ele>
        <time>2025-02-26T15:26:29Z</time>
      </trkpt>
      <trkpt lat="48.01878" lon="-3.48864">
        <ele>89.2</ele>
        <time>2025-02-26T15:26:30Z</time>
      </trkpt>
      <trkpt lat="48.01878" lon="-3.48865">
        <ele>89.3</ele>
        <time>2025-02-26T15:26:31Z</time>
      </trkpt>
      <trkpt lat="48.01877" lon="-3.48867">
        <ele>89.5</ele>
        <time>2025-02-26T15:26:32Z</time>
      </trkpt>
      <trkpt lat="48.01876" lon="-3.48869">
        <ele>89.6</ele>
        <time>2025-02-26T15:26:33Z</time>
      </trkpt>
      <trkpt lat="48.01876" lon="-3.48871">
        <ele>89.7</ele>
        <time>2025-02-26T15:26:34Z</time>
      </trkpt>
      <trkpt lat="48.01875" lon="-3.48872">
        <ele>89.9</ele>
        <time>2025-02-26T15:26:35Z</time>
      </trkpt>
      <trkpt lat="48.01875" lon="-3.48874">
        <ele>89.9</ele>
        <time>2025-02-26T15:26:36Z</time>
      </trkpt>
      <trkpt lat="48.01876" lon="-3.48876">
        <ele>90</ele>
        <time>2025-02-26T15:26:37Z</time>
      </trkpt>
      <trkpt lat="48.01875" lon="-3.48878">
        <ele>90.1</ele>
        <time>2025-02-26T15:26:38Z</time>
      </trkpt>
      <trkpt lat="48.01875" lon="-3.48879">
        <ele>90.2</ele>
        <time>2025-02-26T15:26:39Z</time>
      </trkpt>
      <trkpt lat="48.01875" lon="-3.48881">
        <ele>90.2</ele>
        <time>2025-02-26T15:26:40Z</time>
      </trkpt>
      <trkpt lat="48.01875" lon="-3.48882">
        <ele>90.3</ele>
        <time>2025-02-26T15:26:41Z</time>
      </trkpt>
      <trkpt lat="48.01875" lon="-3.48884">
        <ele>90.4</ele>
        <time>2025-02-26T15:26:42Z</time>
      </trkpt>
      <trkpt lat="48.01874" lon="-3.48885">
        <ele>90.4</ele>
        <time>2025-02-26T15:26:43Z</time>
      </trkpt>
      <trkpt lat="48.01874" lon="-3.48886">
        <ele>90.5</ele>
        <time>2025-02-26T15:26:44Z</time>
      </trkpt>
      <trkpt lat="48.01874" lon="-3.48888">
        <ele>90.5</ele>
        <time>2025-02-26T15:26:45Z</time>
      </trkpt>
      <trkpt lat="48.01875" lon="-3.4889">
        <ele>90.6</ele>
        <time>2025-02-26T15:26:46Z</time>
      </trkpt>
      <trkpt lat="48.01875" lon="-3.48891">
        <ele>90.6</ele>
        <time>2025-02-26T15:26:47Z</time>
      </trkpt>
      <trkpt lat="48.01874" lon="-3.48893">
        <ele>90.6</ele>
        <time>2025-02-26T15:26:48Z</time>
      </trkpt>
      <trkpt lat="48.01874" lon="-3.48894">
        <ele>90.7</ele>
        <time>2025-02-26T15:26:49Z</time>
      </trkpt>
      <trkpt lat="48.01874" lon="-3.48896">
        <ele>90.7</ele>
        <time>2025-02-26T15:26:50Z</time>
      </trkpt>
      <trkpt lat="48.01874" lon="-3.48898">
        <ele>90.8</ele>
        <time>2025-02-26T15:26:51Z</time>
      </trkpt>
      <trkpt lat="48.01873" lon="-3.48899">
        <ele>90.8</ele>
        <time>2025-02-26T15:26:52Z</time>
      </trkpt>
      <trkpt lat="48.01874" lon="-3.489">
        <ele>90.8</ele>
        <time>2025-02-26T15:26:53Z</time>
      </trkpt>
      <trkpt lat="48.01873" lon="-3.48902">
        <ele>90.9</ele>
        <time>2025-02-26T15:26:54Z</time>
      </trkpt>
      <trkpt lat="48.01874" lon="-3.48904">
        <ele>90.9</ele>
        <time>2025-02-26T15:26:55Z</time>
      </trkpt>
      <trkpt lat="48.01874" lon="-3.48905">
        <ele>90.9</ele>
        <time>2025-02-26T15:26:56Z</time>
      </trkpt>
      <trkpt lat="48.01873" lon="-3.48906">
        <ele>91</ele>
        <time>2025-02-26T15:26:57Z</time>
      </trkpt>
      <trkpt lat="48.01873" lon="-3.48908">
        <ele>91</ele>
        <time>2025-02-26T15:26:58Z</time>
      </trkpt>
      <trkpt lat="48.01874" lon="-3.48909">
        <ele>91</ele>
        <time>2025-02-26T15:26:59Z</time>
      </trkpt>
      <trkpt lat="48.01874" lon="-3.4891">
        <ele>91</ele>
        <time>2025-02-26T15:27:00Z</time>
      </trkpt>
      <trkpt lat="48.01874" lon="-3.48912">
        <ele>91</ele>
        <time>2025-02-26T15:27:01Z</time>
      </trkpt>
      <trkpt lat="48.01874" lon="-3.48914">
        <ele>91</ele>
        <time>2025-02-26T15:27:02Z</time>
      </trkpt>
      <trkpt lat="48.01874" lon="-3.48916">
        <ele>91.1</ele>
        <time>2025-02-26T15:27:03Z</time>
      </trkpt>
      <trkpt lat="48.01874" lon="-3.48917">
        <ele>91.1</ele>
        <time>2025-02-26T15:27:04Z</time>
      </trkpt>
      <trkpt lat="48.01874" lon="-3.48919">
        <ele>91.2</ele>
        <time>2025-02-26T15:27:05Z</time>
      </trkpt>
      <trkpt lat="48.01874" lon="-3.48921">
        <ele>91.3</ele>
        <time>2025-02-26T15:27:06Z</time>
      </trkpt>
      <trkpt lat="48.01874" lon="-3.48922">
        <ele>91.4</ele>
        <time>2025-02-26T15:27:07Z</time>
      </trkpt>
      <trkpt lat="48.01873" lon="-3.48924">
        <ele>91.5</ele>
        <time>2025-02-26T15:27:08Z</time>
      </trkpt>
      <trkpt lat="48.01874" lon="-3.48926">
        <ele>91.6</ele>
        <time>2025-02-26T15:27:09Z</time>
      </trkpt>
      <trkpt lat="48.01873" lon="-3.48928">
        <ele>91.7</ele>
        <time>2025-02-26T15:27:10Z</time>
      </trkpt>
      <trkpt lat="48.01874" lon="-3.48929">
        <ele>91.8</ele>
        <time>2025-02-26T15:27:11Z</time>
      </trkpt>
      <trkpt lat="48.01874" lon="-3.48931">
        <ele>91.9</ele>
        <time>2025-02-26T15:27:12Z</time>
      </trkpt>
      <trkpt lat="48.01874" lon="-3.48933">
        <ele>91.9</ele>
        <time>2025-02-26T15:27:13Z</time>
      </trkpt>
      <trkpt lat="48.01874" lon="-3.48934">
        <ele>92</ele>
        <time>2025-02-26T15:27:14Z</time>
      </trkpt>
      <trkpt lat="48.01874" lon="-3.48936">
        <ele>92.1</ele>
        <time>2025-02-26T15:27:15Z</time>
      </trkpt>
      <trkpt lat="48.01874" lon="-3.48937">
        <ele>92.2</ele>
        <time>2025-02-26T15:27:16Z</time>
      </trkpt>
      <trkpt lat="48.01874" lon="-3.48939">
        <ele>92.3</ele>
        <time>2025-02-26T15:27:17Z</time>
      </trkpt>
      <trkpt lat="48.01875" lon="-3.48941">
        <ele>92.3</ele>
        <time>2025-02-26T15:27:18Z</time>
      </trkpt>
      <trkpt lat="48.01875" lon="-3.48943">
        <ele>92.4</ele>
        <time>2025-02-26T15:27:19Z</time>
      </trkpt>
      <trkpt lat="48.01874" lon="-3.48944">
        <ele>92.6</ele>
        <time>2025-02-26T15:27:20Z</time>
      </trkpt>
      <trkpt lat="48.01874" lon="-3.48946">
        <ele>92.7</ele>
        <time>2025-02-26T15:27:21Z</time>
      </trkpt>
      <trkpt lat="48.01874" lon="-3.48947">
        <ele>92.8</ele>
        <time>2025-02-26T15:27:22Z</time>
      </trkpt>
      <trkpt lat="48.01875" lon="-3.48949">
        <ele>92.8</ele>
        <time>2025-02-26T15:27:23Z</time>
      </trkpt>
      <trkpt lat="48.01875" lon="-3.48951">
        <ele>92.9</ele>
        <time>2025-02-26T15:27:24Z</time>
      </trkpt>
      <trkpt lat="48.01875" lon="-3.48953">
        <ele>92.9</ele>
        <time>2025-02-26T15:27:25Z</time>
      </trkpt>
      <trkpt lat="48.01876" lon="-3.48955">
        <ele>93</ele>
        <time>2025-02-26T15:27:26Z</time>
      </trkpt>
      <trkpt lat="48.01876" lon="-3.48957">
        <ele>93.1</ele>
        <time>2025-02-26T15:27:27Z</time>
      </trkpt>
      <trkpt lat="48.01876" lon="-3.48958">
        <ele>93.2</ele>
        <time>2025-02-26T15:27:28Z</time>
      </trkpt>
      <trkpt lat="48.01876" lon="-3.4896">
        <ele>93.2</ele>
        <time>2025-02-26T15:27:29Z</time>
      </trkpt>
      <trkpt lat="48.01877" lon="-3.48962">
        <ele>93.3</ele>
        <time>2025-02-26T15:27:30Z</time>
      </trkpt>
      <trkpt lat="48.01877" lon="-3.48963">
        <ele>93.3</ele>
        <time>2025-02-26T15:27:31Z</time>
      </trkpt>
      <trkpt lat="48.01878" lon="-3.48965">
        <ele>93.4</ele>
        <time>2025-02-26T15:27:32Z</time>
      </trkpt>
      <trkpt lat="48.01878" lon="-3.48966">
        <ele>93.5</ele>
        <time>2025-02-26T15:27:33Z</time>
      </trkpt>
      <trkpt lat="48.01878" lon="-3.48968">
        <ele>93.5</ele>
        <time>2025-02-26T15:27:34Z</time>
      </trkpt>
      <trkpt lat="48.01878" lon="-3.4897">
        <ele>93.7</ele>
        <time>2025-02-26T15:27:35Z</time>
      </trkpt>
      <trkpt lat="48.01877" lon="-3.48971">
        <ele>93.8</ele>
        <time>2025-02-26T15:27:36Z</time>
      </trkpt>
      <trkpt lat="48.01877" lon="-3.48973">
        <ele>93.9</ele>
        <time>2025-02-26T15:27:37Z</time>
      </trkpt>
      <trkpt lat="48.01877" lon="-3.48974">
        <ele>93.9</ele>
        <time>2025-02-26T15:27:38Z</time>
      </trkpt>
      <trkpt lat="48.01878" lon="-3.48976">
        <ele>93.9</ele>
        <time>2025-02-26T15:27:39Z</time>
      </trkpt>
      <trkpt lat="48.01878" lon="-3.48977">
        <ele>94</ele>
        <time>2025-02-26T15:27:40Z</time>
      </trkpt>
      <trkpt lat="48.01879" lon="-3.48979">
        <ele>94</ele>
        <time>2025-02-26T15:27:41Z</time>
      </trkpt>
      <trkpt lat="48.01878" lon="-3.48981">
        <ele>94.1</ele>
        <time>2025-02-26T15:27:42Z</time>
      </trkpt>
      <trkpt lat="48.01879" lon="-3.48982">
        <ele>94.1</ele>
        <time>2025-02-26T15:27:43Z</time>
      </trkpt>
      <trkpt lat="48.01879" lon="-3.48984">
        <ele>94.1</ele>
        <time>2025-02-26T15:27:44Z</time>
      </trkpt>
      <trkpt lat="48.0188" lon="-3.48985">
        <ele>94.1</ele>
        <time>2025-02-26T15:27:45Z</time>
      </trkpt>
      <trkpt lat="48.0188" lon="-3.48986">
        <ele>94.1</ele>
        <time>2025-02-26T15:27:46Z</time>
      </trkpt>
      <trkpt lat="48.0188" lon="-3.48988">
        <ele>94.2</ele>
        <time>2025-02-26T15:27:47Z</time>
      </trkpt>
      <trkpt lat="48.01879" lon="-3.4899">
        <ele>94.3</ele>
        <time>2025-02-26T15:27:48Z</time>
      </trkpt>
      <trkpt lat="48.0188" lon="-3.48992">
        <ele>94.4</ele>
        <time>2025-02-26T15:27:49Z</time>
      </trkpt>
      <trkpt lat="48.0188" lon="-3.48993">
        <ele>94.4</ele>
        <time>2025-02-26T15:27:50Z</time>
      </trkpt>
      <trkpt lat="48.0188" lon="-3.48995">
        <ele>94.4</ele>
        <time>2025-02-26T15:27:51Z</time>
      </trkpt>
      <trkpt lat="48.0188" lon="-3.48996">
        <ele>94.5</ele>
        <time>2025-02-26T15:27:52Z</time>
      </trkpt>
      <trkpt lat="48.0188" lon="-3.48998">
        <ele>94.6</ele>
        <time>2025-02-26T15:27:53Z</time>
      </trkpt>
      <trkpt lat="48.0188" lon="-3.49">
        <ele>94.6</ele>
        <time>2025-02-26T15:27:54Z</time>
      </trkpt>
      <trkpt lat="48.0188" lon="-3.49001">
        <ele>94.6</ele>
        <time>2025-02-26T15:27:55Z</time>
      </trkpt>
      <trkpt lat="48.0188" lon="-3.49002">
        <ele>94.7</ele>
        <time>2025-02-26T15:27:56Z</time>
      </trkpt>
      <trkpt lat="48.01881" lon="-3.49004">
        <ele>94.7</ele>
        <time>2025-02-26T15:27:57Z</time>
      </trkpt>
      <trkpt lat="48.01881" lon="-3.49005">
        <ele>94.8</ele>
        <time>2025-02-26T15:27:58Z</time>
      </trkpt>
      <trkpt lat="48.01882" lon="-3.49007">
        <ele>94.8</ele>
        <time>2025-02-26T15:27:59Z</time>
      </trkpt>
      <trkpt lat="48.01881" lon="-3.49009">
        <ele>94.9</ele>
        <time>2025-02-26T15:28:00Z</time>
      </trkpt>
      <trkpt lat="48.01882" lon="-3.49011">
        <ele>94.9</ele>
        <time>2025-02-26T15:28:01Z</time>
      </trkpt>
      <trkpt lat="48.01882" lon="-3.49012">
        <ele>94.9</ele>
        <time>2025-02-26T15:28:02Z</time>
      </trkpt>
      <trkpt lat="48.01884" lon="-3.49014">
        <ele>94.9</ele>
        <time>2025-02-26T15:28:03Z</time>
      </trkpt>
      <trkpt lat="48.01884" lon="-3.49015">
        <ele>94.9</ele>
        <time>2025-02-26T15:28:04Z</time>
      </trkpt>
      <trkpt lat="48.01885" lon="-3.49016">
        <ele>94.9</ele>
        <time>2025-02-26T15:28:05Z</time>
      </trkpt>
      <trkpt lat="48.01885" lon="-3.49018">
        <ele>94.9</ele>
        <time>2025-02-26T15:28:06Z</time>
      </trkpt>
      <trkpt lat="48.01885" lon="-3.49019">
        <ele>95</ele>
        <time>2025-02-26T15:28:07Z</time>
      </trkpt>
      <trkpt lat="48.01886" lon="-3.49021">
        <ele>95</ele>
        <time>2025-02-26T15:28:08Z</time>
      </trkpt>
      <trkpt lat="48.01887" lon="-3.49022">
        <ele>94.9</ele>
        <time>2025-02-26T15:28:09Z</time>
      </trkpt>
      <trkpt lat="48.01887" lon="-3.49023">
        <ele>94.9</ele>
        <time>2025-02-26T15:28:10Z</time>
      </trkpt>
      <trkpt lat="48.01888" lon="-3.49024">
        <ele>94.9</ele>
        <time>2025-02-26T15:28:11Z</time>
      </trkpt>
      <trkpt lat="48.01888" lon="-3.49026">
        <ele>95</ele>
        <time>2025-02-26T15:28:12Z</time>
      </trkpt>
      <trkpt lat="48.01889" lon="-3.49028">
        <ele>95</ele>
        <time>2025-02-26T15:28:13Z</time>
      </trkpt>
      <trkpt lat="48.0189" lon="-3.49029">
        <ele>94.9</ele>
        <time>2025-02-26T15:28:14Z</time>
      </trkpt>
      <trkpt lat="48.01891" lon="-3.4903">
        <ele>94.8</ele>
        <time>2025-02-26T15:28:15Z</time>
      </trkpt>
      <trkpt lat="48.01892" lon="-3.49031">
        <ele>94.7</ele>
        <time>2025-02-26T15:28:16Z</time>
      </trkpt>
      <trkpt lat="48.01892" lon="-3.49033">
        <ele>94.7</ele>
        <time>2025-02-26T15:28:17Z</time>
      </trkpt>
      <trkpt lat="48.01893" lon="-3.49035">
        <ele>94.6</ele>
        <time>2025-02-26T15:28:18Z</time>
      </trkpt>
      <trkpt lat="48.01894" lon="-3.49036">
        <ele>94.5</ele>
        <time>2025-02-26T15:28:19Z</time>
      </trkpt>
      <trkpt lat="48.01894" lon="-3.49038">
        <ele>94.5</ele>
        <time>2025-02-26T15:28:20Z</time>
      </trkpt>
      <trkpt lat="48.01894" lon="-3.49039">
        <ele>94.5</ele>
        <time>2025-02-26T15:28:21Z</time>
      </trkpt>
      <trkpt lat="48.01895" lon="-3.49041">
        <ele>94.5</ele>
        <time>2025-02-26T15:28:22Z</time>
      </trkpt>
      <trkpt lat="48.01895" lon="-3.49042">
        <ele>94.4</ele>
        <time>2025-02-26T15:28:23Z</time>
      </trkpt>
      <trkpt lat="48.01896" lon="-3.49043">
        <ele>94.4</ele>
        <time>2025-02-26T15:28:24Z</time>
      </trkpt>
      <trkpt lat="48.01896" lon="-3.49044">
        <ele>94.4</ele>
        <time>2025-02-26T15:28:25Z</time>
      </trkpt>
      <trkpt lat="48.01896" lon="-3.49045">
        <ele>94.4</ele>
        <time>2025-02-26T15:28:26Z</time>
      </trkpt>
      <trkpt lat="48.01897" lon="-3.49047">
        <ele>94.3</ele>
        <time>2025-02-26T15:28:27Z</time>
      </trkpt>
      <trkpt lat="48.01897" lon="-3.49048">
        <ele>94.3</ele>
        <time>2025-02-26T15:28:28Z</time>
      </trkpt>
      <trkpt lat="48.01898" lon="-3.49049">
        <ele>94.3</ele>
        <time>2025-02-26T15:28:29Z</time>
      </trkpt>
      <trkpt lat="48.01899" lon="-3.49051">
        <ele>94.2</ele>
        <time>2025-02-26T15:28:30Z</time>
      </trkpt>
      <trkpt lat="48.019" lon="-3.49052">
        <ele>94.2</ele>
        <time>2025-02-26T15:28:31Z</time>
      </trkpt>
      <trkpt lat="48.019" lon="-3.49053">
        <ele>94.2</ele>
        <time>2025-02-26T15:28:32Z</time>
      </trkpt>
      <trkpt lat="48.019" lon="-3.49055">
        <ele>94.2</ele>
        <time>2025-02-26T15:28:33Z</time>
      </trkpt>
      <trkpt lat="48.01901" lon="-3.49056">
        <ele>94.2</ele>
        <time>2025-02-26T15:28:34Z</time>
      </trkpt>
      <trkpt lat="48.01902" lon="-3.49058">
        <ele>94.2</ele>
        <time>2025-02-26T15:28:35Z</time>
      </trkpt>
      <trkpt lat="48.01902" lon="-3.49059">
        <ele>94.2</ele>
        <time>2025-02-26T15:28:36Z</time>
      </trkpt>
      <trkpt lat="48.01902" lon="-3.49061">
        <ele>94.3</ele>
        <time>2025-02-26T15:28:37Z</time>
      </trkpt>
      <trkpt lat="48.01902" lon="-3.49063">
        <ele>94.3</ele>
        <time>2025-02-26T15:28:38Z</time>
      </trkpt>
      <trkpt lat="48.01902" lon="-3.49064">
        <ele>94.3</ele>
        <time>2025-02-26T15:28:39Z</time>
      </trkpt>
      <trkpt lat="48.01903" lon="-3.49065">
        <ele>94.3</ele>
        <time>2025-02-26T15:28:40Z</time>
      </trkpt>
      <trkpt lat="48.01903" lon="-3.49067">
        <ele>94.4</ele>
        <time>2025-02-26T15:28:41Z</time>
      </trkpt>
      <trkpt lat="48.01903" lon="-3.49068">
        <ele>94.4</ele>
        <time>2025-02-26T15:28:42Z</time>
      </trkpt>
      <trkpt lat="48.01904" lon="-3.4907">
        <ele>94.5</ele>
        <time>2025-02-26T15:28:43Z</time>
      </trkpt>
      <trkpt lat="48.01904" lon="-3.49071">
        <ele>94.5</ele>
        <time>2025-02-26T15:28:44Z</time>
      </trkpt>
      <trkpt lat="48.01905" lon="-3.49072">
        <ele>94.5</ele>
        <time>2025-02-26T15:28:45Z</time>
      </trkpt>
      <trkpt lat="48.01906" lon="-3.49073">
        <ele>94.4</ele>
        <time>2025-02-26T15:28:46Z</time>
      </trkpt>
      <trkpt lat="48.01906" lon="-3.49075">
        <ele>94.5</ele>
        <time>2025-02-26T15:28:47Z</time>
      </trkpt>
      <trkpt lat="48.01906" lon="-3.49076">
        <ele>94.5</ele>
        <time>2025-02-26T15:28:48Z</time>
      </trkpt>
      <trkpt lat="48.01907" lon="-3.49078">
        <ele>94.5</ele>
        <time>2025-02-26T15:28:49Z</time>
      </trkpt>
      <trkpt lat="48.01908" lon="-3.49079">
        <ele>94.5</ele>
        <time>2025-02-26T15:28:50Z</time>
      </trkpt>
      <trkpt lat="48.01909" lon="-3.49079">
        <ele>94.4</ele>
        <time>2025-02-26T15:28:51Z</time>
      </trkpt>
      <trkpt lat="48.0191" lon="-3.4908">
        <ele>94.4</ele>
        <time>2025-02-26T15:28:52Z</time>
      </trkpt>
      <trkpt lat="48.01911" lon="-3.49082">
        <ele>94.4</ele>
        <time>2025-02-26T15:28:53Z</time>
      </trkpt>
      <trkpt lat="48.01912" lon="-3.49083">
        <ele>94.4</ele>
        <time>2025-02-26T15:28:54Z</time>
      </trkpt>
      <trkpt lat="48.01912" lon="-3.49085">
        <ele>94.4</ele>
        <time>2025-02-26T15:28:55Z</time>
      </trkpt>
      <trkpt lat="48.01913" lon="-3.49086">
        <ele>94.4</ele>
        <time>2025-02-26T15:28:56Z</time>
      </trkpt>
      <trkpt lat="48.01913" lon="-3.49088">
        <ele>94.4</ele>
        <time>2025-02-26T15:28:57Z</time>
      </trkpt>
      <trkpt lat="48.01914" lon="-3.4909">
        <ele>94.4</ele>
        <time>2025-02-26T15:28:58Z</time>
      </trkpt>
      <trkpt lat="48.01915" lon="-3.49091">
        <ele>94.4</ele>
        <time>2025-02-26T15:28:59Z</time>
      </trkpt>
      <trkpt lat="48.01916" lon="-3.49093">
        <ele>94.4</ele>
        <time>2025-02-26T15:29:00Z</time>
      </trkpt>
      <trkpt lat="48.01917" lon="-3.49094">
        <ele>94.4</ele>
        <time>2025-02-26T15:29:01Z</time>
      </trkpt>
      <trkpt lat="48.01918" lon="-3.49095">
        <ele>94.4</ele>
        <time>2025-02-26T15:29:02Z</time>
      </trkpt>
      <trkpt lat="48.01918" lon="-3.49096">
        <ele>94.4</ele>
        <time>2025-02-26T15:29:03Z</time>
      </trkpt>
      <trkpt lat="48.01919" lon="-3.49098">
        <ele>94.4</ele>
        <time>2025-02-26T15:29:04Z</time>
      </trkpt>
      <trkpt lat="48.0192" lon="-3.49099">
        <ele>94.5</ele>
        <time>2025-02-26T15:29:05Z</time>
      </trkpt>
      <trkpt lat="48.0192" lon="-3.49101">
        <ele>94.5</ele>
        <time>2025-02-26T15:29:06Z</time>
      </trkpt>
      <trkpt lat="48.01921" lon="-3.49102">
        <ele>94.5</ele>
        <time>2025-02-26T15:29:07Z</time>
      </trkpt>
      <trkpt lat="48.01921" lon="-3.49103">
        <ele>94.5</ele>
        <time>2025-02-26T15:29:08Z</time>
      </trkpt>
      <trkpt lat="48.01922" lon="-3.49104">
        <ele>94.6</ele>
        <time>2025-02-26T15:29:09Z</time>
      </trkpt>
      <trkpt lat="48.01923" lon="-3.49106">
        <ele>94.6</ele>
        <time>2025-02-26T15:29:10Z</time>
      </trkpt>
      <trkpt lat="48.01924" lon="-3.49107">
        <ele>94.6</ele>
        <time>2025-02-26T15:29:11Z</time>
      </trkpt>
      <trkpt lat="48.01924" lon="-3.49109">
        <ele>94.6</ele>
        <time>2025-02-26T15:29:12Z</time>
      </trkpt>
      <trkpt lat="48.01924" lon="-3.4911">
        <ele>94.7</ele>
        <time>2025-02-26T15:29:13Z</time>
      </trkpt>
      <trkpt lat="48.01924" lon="-3.49111">
        <ele>94.7</ele>
        <time>2025-02-26T15:29:14Z</time>
      </trkpt>
      <trkpt lat="48.01925" lon="-3.49113">
        <ele>94.8</ele>
        <time>2025-02-26T15:29:15Z</time>
      </trkpt>
      <trkpt lat="48.01926" lon="-3.49114">
        <ele>94.9</ele>
        <time>2025-02-26T15:29:16Z</time>
      </trkpt>
      <trkpt lat="48.01927" lon="-3.49115">
        <ele>94.9</ele>
        <time>2025-02-26T15:29:17Z</time>
      </trkpt>
      <trkpt lat="48.01928" lon="-3.49115">
        <ele>94.9</ele>
        <time>2025-02-26T15:29:18Z</time>
      </trkpt>
      <trkpt lat="48.0193" lon="-3.49116">
        <ele>94.9</ele>
        <time>2025-02-26T15:29:19Z</time>
      </trkpt>
      <trkpt lat="48.01931" lon="-3.49118">
        <ele>95</ele>
        <time>2025-02-26T15:29:20Z</time>
      </trkpt>
      <trkpt lat="48.01931" lon="-3.49119">
        <ele>95.1</ele>
        <time>2025-02-26T15:29:21Z</time>
      </trkpt>
      <trkpt lat="48.01932" lon="-3.4912">
        <ele>95.1</ele>
        <time>2025-02-26T15:29:22Z</time>
      </trkpt>
      <trkpt lat="48.01933" lon="-3.49121">
        <ele>95.2</ele>
        <time>2025-02-26T15:29:23Z</time>
      </trkpt>
      <trkpt lat="48.01933" lon="-3.49123">
        <ele>95.3</ele>
        <time>2025-02-26T15:29:24Z</time>
      </trkpt>
      <trkpt lat="48.01934" lon="-3.49125">
        <ele>95.4</ele>
        <time>2025-02-26T15:29:25Z</time>
      </trkpt>
      <trkpt lat="48.01935" lon="-3.49126">
        <ele>95.4</ele>
        <time>2025-02-26T15:29:26Z</time>
      </trkpt>
      <trkpt lat="48.01935" lon="-3.49128">
        <ele>95.5</ele>
        <time>2025-02-26T15:29:27Z</time>
      </trkpt>
      <trkpt lat="48.01936" lon="-3.49129">
        <ele>95.6</ele>
        <time>2025-02-26T15:29:28Z</time>
      </trkpt>
      <trkpt lat="48.01936" lon="-3.4913">
        <ele>95.6</ele>
        <time>2025-02-26T15:29:29Z</time>
      </trkpt>
      <trkpt lat="48.01937" lon="-3.49131">
        <ele>95.7</ele>
        <time>2025-02-26T15:29:30Z</time>
      </trkpt>
      <trkpt lat="48.01938" lon="-3.49133">
        <ele>95.8</ele>
        <time>2025-02-26T15:29:31Z</time>
      </trkpt>
      <trkpt lat="48.01938" lon="-3.49135">
        <ele>96</ele>
        <time>2025-02-26T15:29:32Z</time>
      </trkpt>
      <trkpt lat="48.01938" lon="-3.49136">
        <ele>96</ele>
        <time>2025-02-26T15:29:33Z</time>
      </trkpt>
      <trkpt lat="48.01938" lon="-3.49138">
        <ele>96.1</ele>
        <time>2025-02-26T15:29:34Z</time>
      </trkpt>
      <trkpt lat="48.01939" lon="-3.49139">
        <ele>96.2</ele>
        <time>2025-02-26T15:29:35Z</time>
      </trkpt>
      <trkpt lat="48.0194" lon="-3.4914">
        <ele>96.2</ele>
        <time>2025-02-26T15:29:36Z</time>
      </trkpt>
      <trkpt lat="48.01941" lon="-3.49141">
        <ele>96.3</ele>
        <time>2025-02-26T15:29:37Z</time>
      </trkpt>
      <trkpt lat="48.01941" lon="-3.49143">
        <ele>96.4</ele>
        <time>2025-02-26T15:29:38Z</time>
      </trkpt>
      <trkpt lat="48.01942" lon="-3.49144">
        <ele>96.4</ele>
        <time>2025-02-26T15:29:39Z</time>
      </trkpt>
      <trkpt lat="48.01942" lon="-3.49145">
        <ele>96.5</ele>
        <time>2025-02-26T15:29:40Z</time>
      </trkpt>
      <trkpt lat="48.01943" lon="-3.49147">
        <ele>96.6</ele>
        <time>2025-02-26T15:29:41Z</time>
      </trkpt>
      <trkpt lat="48.01943" lon="-3.49148">
        <ele>96.7</ele>
        <time>2025-02-26T15:29:42Z</time>
      </trkpt>
      <trkpt lat="48.01944" lon="-3.4915">
        <ele>96.8</ele>
        <time>2025-02-26T15:29:43Z</time>
      </trkpt>
      <trkpt lat="48.01944" lon="-3.49151">
        <ele>96.9</ele>
        <time>2025-02-26T15:29:44Z</time>
      </trkpt>
      <trkpt lat="48.01945" lon="-3.49153">
        <ele>97</ele>
        <time>2025-02-26T15:29:45Z</time>
      </trkpt>
      <trkpt lat="48.01946" lon="-3.49154">
        <ele>97.1</ele>
        <time>2025-02-26T15:29:46Z</time>
      </trkpt>
      <trkpt lat="48.01947" lon="-3.49155">
        <ele>97.1</ele>
        <time>2025-02-26T15:29:47Z</time>
      </trkpt>
      <trkpt lat="48.01947" lon="-3.49157">
        <ele>97.2</ele>
        <time>2025-02-26T15:29:48Z</time>
      </trkpt>
      <trkpt lat="48.01948" lon="-3.49158">
        <ele>97.3</ele>
        <time>2025-02-26T15:29:49Z</time>
      </trkpt>
      <trkpt lat="48.01949" lon="-3.4916">
        <ele>97.3</ele>
        <time>2025-02-26T15:29:50Z</time>
      </trkpt>
      <trkpt lat="48.0195" lon="-3.49161">
        <ele>97.4</ele>
        <time>2025-02-26T15:29:51Z</time>
      </trkpt>
      <trkpt lat="48.01951" lon="-3.49162">
        <ele>97.4</ele>
        <time>2025-02-26T15:29:52Z</time>
      </trkpt>
      <trkpt lat="48.01952" lon="-3.49163">
        <ele>97.5</ele>
        <time>2025-02-26T15:29:53Z</time>
      </trkpt>
      <trkpt lat="48.01953" lon="-3.49164">
        <ele>97.5</ele>
        <time>2025-02-26T15:29:54Z</time>
      </trkpt>
      <trkpt lat="48.01954" lon="-3.49166">
        <ele>97.6</ele>
        <time>2025-02-26T15:29:55Z</time>
      </trkpt>
      <trkpt lat="48.01955" lon="-3.49166">
        <ele>97.6</ele>
        <time>2025-02-26T15:29:56Z</time>
      </trkpt>
      <trkpt lat="48.01955" lon="-3.49168">
        <ele>97.7</ele>
        <time>2025-02-26T15:29:57Z</time>
      </trkpt>
      <trkpt lat="48.01956" lon="-3.49169">
        <ele>97.7</ele>
        <time>2025-02-26T15:29:58Z</time>
      </trkpt>
      <trkpt lat="48.01956" lon="-3.4917">
        <ele>97.7</ele>
        <time>2025-02-26T15:29:59Z</time>
      </trkpt>
      <trkpt lat="48.01957" lon="-3.49172">
        <ele>97.7</ele>
        <time>2025-02-26T15:30:00Z</time>
      </trkpt>
      <trkpt lat="48.01957" lon="-3.49173">
        <ele>97.8</ele>
        <time>2025-02-26T15:30:01Z</time>
      </trkpt>
      <trkpt lat="48.01958" lon="-3.49174">
        <ele>97.8</ele>
        <time>2025-02-26T15:30:02Z</time>
      </trkpt>
      <trkpt lat="48.01958" lon="-3.49175">
        <ele>97.8</ele>
        <time>2025-02-26T15:30:03Z</time>
      </trkpt>
      <trkpt lat="48.01959" lon="-3.49177">
        <ele>97.8</ele>
        <time>2025-02-26T15:30:04Z</time>
      </trkpt>
      <trkpt lat="48.0196" lon="-3.49178">
        <ele>97.9</ele>
        <time>2025-02-26T15:30:05Z</time>
      </trkpt>
      <trkpt lat="48.0196" lon="-3.49179">
        <ele>97.9</ele>
        <time>2025-02-26T15:30:06Z</time>
      </trkpt>
      <trkpt lat="48.0196" lon="-3.49181">
        <ele>97.9</ele>
        <time>2025-02-26T15:30:07Z</time>
      </trkpt>
      <trkpt lat="48.01961" lon="-3.49182">
        <ele>97.9</ele>
        <time>2025-02-26T15:30:08Z</time>
      </trkpt>
      <trkpt lat="48.01961" lon="-3.49183">
        <ele>98</ele>
        <time>2025-02-26T15:30:09Z</time>
      </trkpt>
      <trkpt lat="48.01962" lon="-3.49184">
        <ele>98</ele>
        <time>2025-02-26T15:30:10Z</time>
      </trkpt>
      <trkpt lat="48.01963" lon="-3.49185">
        <ele>98</ele>
        <time>2025-02-26T15:30:11Z</time>
      </trkpt>
      <trkpt lat="48.01964" lon="-3.49186">
        <ele>98</ele>
        <time>2025-02-26T15:30:12Z</time>
      </trkpt>
      <trkpt lat="48.01965" lon="-3.49187">
        <ele>98</ele>
        <time>2025-02-26T15:30:13Z</time>
      </trkpt>
      <trkpt lat="48.01966" lon="-3.49188">
        <ele>98</ele>
        <time>2025-02-26T15:30:14Z</time>
      </trkpt>
      <trkpt lat="48.01967" lon="-3.49189">
        <ele>98</ele>
        <time>2025-02-26T15:30:15Z</time>
      </trkpt>
      <trkpt lat="48.01968" lon="-3.4919">
        <ele>98</ele>
        <time>2025-02-26T15:30:16Z</time>
      </trkpt>
      <trkpt lat="48.01969" lon="-3.4919">
        <ele>98</ele>
        <time>2025-02-26T15:30:17Z</time>
      </trkpt>
      <trkpt lat="48.0197" lon="-3.49191">
        <ele>98</ele>
        <time>2025-02-26T15:30:18Z</time>
      </trkpt>
      <trkpt lat="48.0197" lon="-3.49193">
        <ele>98</ele>
        <time>2025-02-26T15:30:19Z</time>
      </trkpt>
      <trkpt lat="48.01971" lon="-3.49195">
        <ele>98.1</ele>
        <time>2025-02-26T15:30:20Z</time>
      </trkpt>
      <trkpt lat="48.01971" lon="-3.49197">
        <ele>98.1</ele>
        <time>2025-02-26T15:30:21Z</time>
      </trkpt>
      <trkpt lat="48.01971" lon="-3.49198">
        <ele>98.2</ele>
        <time>2025-02-26T15:30:22Z</time>
      </trkpt>
      <trkpt lat="48.01971" lon="-3.492">
        <ele>98.2</ele>
        <time>2025-02-26T15:30:23Z</time>
      </trkpt>
      <trkpt lat="48.01972" lon="-3.49201">
        <ele>98.3</ele>
        <time>2025-02-26T15:30:24Z</time>
      </trkpt>
      <trkpt lat="48.01972" lon="-3.49203">
        <ele>98.3</ele>
        <time>2025-02-26T15:30:25Z</time>
      </trkpt>
      <trkpt lat="48.01972" lon="-3.49205">
        <ele>98.4</ele>
        <time>2025-02-26T15:30:26Z</time>
      </trkpt>
      <trkpt lat="48.01973" lon="-3.49206">
        <ele>98.4</ele>
        <time>2025-02-26T15:30:27Z</time>
      </trkpt>
      <trkpt lat="48.01974" lon="-3.49207">
        <ele>98.4</ele>
        <time>2025-02-26T15:30:28Z</time>
      </trkpt>
      <trkpt lat="48.01975" lon="-3.49209">
        <ele>98.4</ele>
        <time>2025-02-26T15:30:29Z</time>
      </trkpt>
      <trkpt lat="48.01976" lon="-3.49211">
        <ele>98.4</ele>
        <time>2025-02-26T15:30:30Z</time>
      </trkpt>
      <trkpt lat="48.01976" lon="-3.49212">
        <ele>98.4</ele>
        <time>2025-02-26T15:30:31Z</time>
      </trkpt>
      <trkpt lat="48.01977" lon="-3.49213">
        <ele>98.4</ele>
        <time>2025-02-26T15:30:32Z</time>
      </trkpt>
      <trkpt lat="48.01978" lon="-3.49215">
        <ele>98.5</ele>
        <time>2025-02-26T15:30:33Z</time>
      </trkpt>
      <trkpt lat="48.01979" lon="-3.49216">
        <ele>98.5</ele>
        <time>2025-02-26T15:30:34Z</time>
      </trkpt>
      <trkpt lat="48.0198" lon="-3.49216">
        <ele>98.4</ele>
        <time>2025-02-26T15:30:35Z</time>
      </trkpt>
      <trkpt lat="48.01981" lon="-3.49217">
        <ele>98.4</ele>
        <time>2025-02-26T15:30:36Z</time>
      </trkpt>
      <trkpt lat="48.01981" lon="-3.49218">
        <ele>98.5</ele>
        <time>2025-02-26T15:30:37Z</time>
      </trkpt>
      <trkpt lat="48.01982" lon="-3.4922">
        <ele>98.6</ele>
        <time>2025-02-26T15:30:38Z</time>
      </trkpt>
      <trkpt lat="48.01983" lon="-3.49221">
        <ele>98.6</ele>
        <time>2025-02-26T15:30:39Z</time>
      </trkpt>
      <trkpt lat="48.01984" lon="-3.49223">
        <ele>98.6</ele>
        <time>2025-02-26T15:30:40Z</time>
      </trkpt>
      <trkpt lat="48.01984" lon="-3.49224">
        <ele>98.6</ele>
        <time>2025-02-26T15:30:41Z</time>
      </trkpt>
      <trkpt lat="48.01985" lon="-3.49225">
        <ele>98.7</ele>
        <time>2025-02-26T15:30:42Z</time>
      </trkpt>
      <trkpt lat="48.01985" lon="-3.49227">
        <ele>98.7</ele>
        <time>2025-02-26T15:30:43Z</time>
      </trkpt>
      <trkpt lat="48.01986" lon="-3.49228">
        <ele>98.7</ele>
        <time>2025-02-26T15:30:44Z</time>
      </trkpt>
      <trkpt lat="48.01986" lon="-3.4923">
        <ele>98.8</ele>
        <time>2025-02-26T15:30:45Z</time>
      </trkpt>
      <trkpt lat="48.01987" lon="-3.49231">
        <ele>98.8</ele>
        <time>2025-02-26T15:30:46Z</time>
      </trkpt>
      <trkpt lat="48.01987" lon="-3.49233">
        <ele>98.8</ele>
        <time>2025-02-26T15:30:47Z</time>
      </trkpt>
      <trkpt lat="48.01988" lon="-3.49234">
        <ele>98.9</ele>
        <time>2025-02-26T15:30:48Z</time>
      </trkpt>
      <trkpt lat="48.01988" lon="-3.49236">
        <ele>98.9</ele>
        <time>2025-02-26T15:30:49Z</time>
      </trkpt>
      <trkpt lat="48.01989" lon="-3.49237">
        <ele>98.9</ele>
        <time>2025-02-26T15:30:50Z</time>
      </trkpt>
      <trkpt lat="48.01989" lon="-3.49238">
        <ele>99</ele>
        <time>2025-02-26T15:30:51Z</time>
      </trkpt>
      <trkpt lat="48.01989" lon="-3.4924">
        <ele>99</ele>
        <time>2025-02-26T15:30:52Z</time>
      </trkpt>
      <trkpt lat="48.0199" lon="-3.49242">
        <ele>99.1</ele>
        <time>2025-02-26T15:30:53Z</time>
      </trkpt>
      <trkpt lat="48.0199" lon="-3.49243">
        <ele>99.1</ele>
        <time>2025-02-26T15:30:54Z</time>
      </trkpt>
      <trkpt lat="48.01991" lon="-3.49244">
        <ele>99.1</ele>
        <time>2025-02-26T15:30:55Z</time>
      </trkpt>
      <trkpt lat="48.01992" lon="-3.49246">
        <ele>99.1</ele>
        <time>2025-02-26T15:30:56Z</time>
      </trkpt>
      <trkpt lat="48.01993" lon="-3.49247">
        <ele>99.2</ele>
        <time>2025-02-26T15:30:57Z</time>
      </trkpt>
      <trkpt lat="48.01993" lon="-3.49249">
        <ele>99.2</ele>
        <time>2025-02-26T15:30:58Z</time>
      </trkpt>
      <trkpt lat="48.01994" lon="-3.4925">
        <ele>99.2</ele>
        <time>2025-02-26T15:30:59Z</time>
      </trkpt>
      <trkpt lat="48.01994" lon="-3.49252">
        <ele>99.3</ele>
        <time>2025-02-26T15:31:00Z</time>
      </trkpt>
      <trkpt lat="48.01995" lon="-3.49253">
        <ele>99.3</ele>
        <time>2025-02-26T15:31:01Z</time>
      </trkpt>
      <trkpt lat="48.01996" lon="-3.49253">
        <ele>99.3</ele>
        <time>2025-02-26T15:31:02Z</time>
      </trkpt>
      <trkpt lat="48.01997" lon="-3.49256">
        <ele>99.3</ele>
        <time>2025-02-26T15:31:03Z</time>
      </trkpt>
      <trkpt lat="48.01997" lon="-3.49257">
        <ele>99.4</ele>
        <time>2025-02-26T15:31:04Z</time>
      </trkpt>
      <trkpt lat="48.01997" lon="-3.49259">
        <ele>99.4</ele>
        <time>2025-02-26T15:31:05Z</time>
      </trkpt>
      <trkpt lat="48.01998" lon="-3.4926">
        <ele>99.5</ele>
        <time>2025-02-26T15:31:06Z</time>
      </trkpt>
      <trkpt lat="48.01998" lon="-3.49262">
        <ele>99.5</ele>
        <time>2025-02-26T15:31:07Z</time>
      </trkpt>
      <trkpt lat="48.01999" lon="-3.49264">
        <ele>99.5</ele>
        <time>2025-02-26T15:31:08Z</time>
      </trkpt>
      <trkpt lat="48.02" lon="-3.49265">
        <ele>99.5</ele>
        <time>2025-02-26T15:31:09Z</time>
      </trkpt>
      <trkpt lat="48.02001" lon="-3.49265">
        <ele>99.5</ele>
        <time>2025-02-26T15:31:10Z</time>
      </trkpt>
      <trkpt lat="48.02002" lon="-3.49267">
        <ele>99.5</ele>
        <time>2025-02-26T15:31:11Z</time>
      </trkpt>
      <trkpt lat="48.02002" lon="-3.49268">
        <ele>99.6</ele>
        <time>2025-02-26T15:31:12Z</time>
      </trkpt>
      <trkpt lat="48.02003" lon="-3.49269">
        <ele>99.6</ele>
        <time>2025-02-26T15:31:13Z</time>
      </trkpt>
      <trkpt lat="48.02004" lon="-3.4927">
        <ele>99.6</ele>
        <time>2025-02-26T15:31:14Z</time>
      </trkpt>
      <trkpt lat="48.02005" lon="-3.49271">
        <ele>99.6</ele>
        <time>2025-02-26T15:31:15Z</time>
      </trkpt>
      <trkpt lat="48.02006" lon="-3.49272">
        <ele>99.6</ele>
        <time>2025-02-26T15:31:16Z</time>
      </trkpt>
      <trkpt lat="48.02007" lon="-3.49273">
        <ele>99.6</ele>
        <time>2025-02-26T15:31:17Z</time>
      </trkpt>
      <trkpt lat="48.02007" lon="-3.49274">
        <ele>99.6</ele>
        <time>2025-02-26T15:31:18Z</time>
      </trkpt>
      <trkpt lat="48.02007" lon="-3.49276">
        <ele>99.7</ele>
        <time>2025-02-26T15:31:19Z</time>
      </trkpt>
      <trkpt lat="48.02007" lon="-3.49277">
        <ele>99.7</ele>
        <time>2025-02-26T15:31:20Z</time>
      </trkpt>
      <trkpt lat="48.02008" lon="-3.49279">
        <ele>99.7</ele>
        <time>2025-02-26T15:31:21Z</time>
      </trkpt>
      <trkpt lat="48.02008" lon="-3.49281">
        <ele>99.7</ele>
        <time>2025-02-26T15:31:22Z</time>
      </trkpt>
      <trkpt lat="48.02009" lon="-3.49282">
        <ele>99.7</ele>
        <time>2025-02-26T15:31:23Z</time>
      </trkpt>
      <trkpt lat="48.0201" lon="-3.49283">
        <ele>99.6</ele>
        <time>2025-02-26T15:31:24Z</time>
      </trkpt>
      <trkpt lat="48.02011" lon="-3.49285">
        <ele>99.6</ele>
        <time>2025-02-26T15:31:25Z</time>
      </trkpt>
      <trkpt lat="48.02011" lon="-3.49286">
        <ele>99.6</ele>
        <time>2025-02-26T15:31:26Z</time>
      </trkpt>
      <trkpt lat="48.02011" lon="-3.49288">
        <ele>99.6</ele>
        <time>2025-02-26T15:31:27Z</time>
      </trkpt>
      <trkpt lat="48.02011" lon="-3.49289">
        <ele>99.6</ele>
        <time>2025-02-26T15:31:28Z</time>
      </trkpt>
      <trkpt lat="48.02011" lon="-3.49291">
        <ele>99.6</ele>
        <time>2025-02-26T15:31:29Z</time>
      </trkpt>
      <trkpt lat="48.02012" lon="-3.49292">
        <ele>99.6</ele>
        <time>2025-02-26T15:31:30Z</time>
      </trkpt>
      <trkpt lat="48.02014" lon="-3.49293">
        <ele>99.5</ele>
        <time>2025-02-26T15:31:31Z</time>
      </trkpt>
      <trkpt lat="48.02014" lon="-3.49294">
        <ele>99.5</ele>
        <time>2025-02-26T15:31:32Z</time>
      </trkpt>
      <trkpt lat="48.02015" lon="-3.49295">
        <ele>99.4</ele>
        <time>2025-02-26T15:31:33Z</time>
      </trkpt>
      <trkpt lat="48.02016" lon="-3.49296">
        <ele>99.4</ele>
        <time>2025-02-26T15:31:34Z</time>
      </trkpt>
      <trkpt lat="48.02017" lon="-3.49297">
        <ele>99.4</ele>
        <time>2025-02-26T15:31:35Z</time>
      </trkpt>
      <trkpt lat="48.02018" lon="-3.49298">
        <ele>99.4</ele>
        <time>2025-02-26T15:31:36Z</time>
      </trkpt>
      <trkpt lat="48.02019" lon="-3.49299">
        <ele>99.3</ele>
        <time>2025-02-26T15:31:37Z</time>
      </trkpt>
      <trkpt lat="48.02019" lon="-3.49301">
        <ele>99.3</ele>
        <time>2025-02-26T15:31:38Z</time>
      </trkpt>
      <trkpt lat="48.0202" lon="-3.49302">
        <ele>99.3</ele>
        <time>2025-02-26T15:31:39Z</time>
      </trkpt>
      <trkpt lat="48.02021" lon="-3.49303">
        <ele>99.3</ele>
        <time>2025-02-26T15:31:40Z</time>
      </trkpt>
      <trkpt lat="48.02021" lon="-3.49304">
        <ele>99.2</ele>
        <time>2025-02-26T15:31:41Z</time>
      </trkpt>
      <trkpt lat="48.02022" lon="-3.49305">
        <ele>99.2</ele>
        <time>2025-02-26T15:31:42Z</time>
      </trkpt>
      <trkpt lat="48.02023" lon="-3.49305">
        <ele>99.2</ele>
        <time>2025-02-26T15:31:43Z</time>
      </trkpt>
      <trkpt lat="48.02024" lon="-3.49307">
        <ele>99.2</ele>
        <time>2025-02-26T15:31:44Z</time>
      </trkpt>
      <trkpt lat="48.02024" lon="-3.49308">
        <ele>99.1</ele>
        <time>2025-02-26T15:31:45Z</time>
      </trkpt>
      <trkpt lat="48.02025" lon="-3.49309">
        <ele>99.1</ele>
        <time>2025-02-26T15:31:46Z</time>
      </trkpt>
      <trkpt lat="48.02025" lon="-3.4931">
        <ele>99.1</ele>
        <time>2025-02-26T15:31:47Z</time>
      </trkpt>
      <trkpt lat="48.02027" lon="-3.49311">
        <ele>99</ele>
        <time>2025-02-26T15:31:48Z</time>
      </trkpt>
      <trkpt lat="48.02028" lon="-3.49311">
        <ele>99</ele>
        <time>2025-02-26T15:31:49Z</time>
      </trkpt>
      <trkpt lat="48.02029" lon="-3.49312">
        <ele>99</ele>
        <time>2025-02-26T15:31:50Z</time>
      </trkpt>
      <trkpt lat="48.02029" lon="-3.49313">
        <ele>98.9</ele>
        <time>2025-02-26T15:31:51Z</time>
      </trkpt>
      <trkpt lat="48.0203" lon="-3.49314">
        <ele>98.9</ele>
        <time>2025-02-26T15:31:52Z</time>
      </trkpt>
      <trkpt lat="48.0203" lon="-3.49315">
        <ele>98.9</ele>
        <time>2025-02-26T15:31:53Z</time>
      </trkpt>
      <trkpt lat="48.02031" lon="-3.49316">
        <ele>98.9</ele>
        <time>2025-02-26T15:31:54Z</time>
      </trkpt>
      <trkpt lat="48.02031" lon="-3.49318">
        <ele>98.9</ele>
        <time>2025-02-26T15:31:55Z</time>
      </trkpt>
      <trkpt lat="48.02032" lon="-3.49319">
        <ele>98.8</ele>
        <time>2025-02-26T15:31:56Z</time>
      </trkpt>
      <trkpt lat="48.02033" lon="-3.4932">
        <ele>98.8</ele>
        <time>2025-02-26T15:31:57Z</time>
      </trkpt>
      <trkpt lat="48.02034" lon="-3.49321">
        <ele>98.8</ele>
        <time>2025-02-26T15:31:58Z</time>
      </trkpt>
      <trkpt lat="48.02034" lon="-3.49323">
        <ele>98.8</ele>
        <time>2025-02-26T15:31:59Z</time>
      </trkpt>
      <trkpt lat="48.02035" lon="-3.49324">
        <ele>98.7</ele>
        <time>2025-02-26T15:32:00Z</time>
      </trkpt>
      <trkpt lat="48.02036" lon="-3.49324">
        <ele>98.7</ele>
        <time>2025-02-26T15:32:01Z</time>
      </trkpt>
      <trkpt lat="48.02037" lon="-3.49326">
        <ele>98.7</ele>
        <time>2025-02-26T15:32:02Z</time>
      </trkpt>
      <trkpt lat="48.02037" lon="-3.49327">
        <ele>98.7</ele>
        <time>2025-02-26T15:32:03Z</time>
      </trkpt>
      <trkpt lat="48.02038" lon="-3.49328">
        <ele>98.6</ele>
        <time>2025-02-26T15:32:04Z</time>
      </trkpt>
      <trkpt lat="48.02039" lon="-3.49329">
        <ele>98.6</ele>
        <time>2025-02-26T15:32:05Z</time>
      </trkpt>
      <trkpt lat="48.0204" lon="-3.4933">
        <ele>98.6</ele>
        <time>2025-02-26T15:32:06Z</time>
      </trkpt>
      <trkpt lat="48.0204" lon="-3.49332">
        <ele>98.5</ele>
        <time>2025-02-26T15:32:07Z</time>
      </trkpt>
      <trkpt lat="48.02042" lon="-3.49332">
        <ele>98.5</ele>
        <time>2025-02-26T15:32:08Z</time>
      </trkpt>
      <trkpt lat="48.02043" lon="-3.49334">
        <ele>98.5</ele>
        <time>2025-02-26T15:32:09Z</time>
      </trkpt>
      <trkpt lat="48.02043" lon="-3.49334">
        <ele>98.4</ele>
        <time>2025-02-26T15:32:10Z</time>
      </trkpt>
      <trkpt lat="48.02044" lon="-3.49336">
        <ele>98.4</ele>
        <time>2025-02-26T15:32:11Z</time>
      </trkpt>
      <trkpt lat="48.02045" lon="-3.49337">
        <ele>98.4</ele>
        <time>2025-02-26T15:32:12Z</time>
      </trkpt>
      <trkpt lat="48.02046" lon="-3.49339">
        <ele>98.4</ele>
        <time>2025-02-26T15:32:13Z</time>
      </trkpt>
      <trkpt lat="48.02046" lon="-3.49339">
        <ele>98.3</ele>
        <time>2025-02-26T15:32:14Z</time>
      </trkpt>
      <trkpt lat="48.02047" lon="-3.4934">
        <ele>98.3</ele>
        <time>2025-02-26T15:32:15Z</time>
      </trkpt>
      <trkpt lat="48.02048" lon="-3.49341">
        <ele>98.3</ele>
        <time>2025-02-26T15:32:16Z</time>
      </trkpt>
      <trkpt lat="48.02049" lon="-3.49342">
        <ele>98.2</ele>
        <time>2025-02-26T15:32:17Z</time>
      </trkpt>
      <trkpt lat="48.0205" lon="-3.49343">
        <ele>98.2</ele>
        <time>2025-02-26T15:32:18Z</time>
      </trkpt>
      <trkpt lat="48.02051" lon="-3.49343">
        <ele>98.2</ele>
        <time>2025-02-26T15:32:19Z</time>
      </trkpt>
      <trkpt lat="48.02052" lon="-3.49344">
        <ele>98.1</ele>
        <time>2025-02-26T15:32:20Z</time>
      </trkpt>
      <trkpt lat="48.02052" lon="-3.49346">
        <ele>98.1</ele>
        <time>2025-02-26T15:32:21Z</time>
      </trkpt>
      <trkpt lat="48.02053" lon="-3.49347">
        <ele>98.1</ele>
        <time>2025-02-26T15:32:22Z</time>
      </trkpt>
      <trkpt lat="48.02054" lon="-3.49348">
        <ele>98</ele>
        <time>2025-02-26T15:32:23Z</time>
      </trkpt>
      <trkpt lat="48.02055" lon="-3.49348">
        <ele>98</ele>
        <time>2025-02-26T15:32:24Z</time>
      </trkpt>
      <trkpt lat="48.02056" lon="-3.49349">
        <ele>98</ele>
        <time>2025-02-26T15:32:25Z</time>
      </trkpt>
      <trkpt lat="48.02057" lon="-3.4935">
        <ele>98</ele>
        <time>2025-02-26T15:32:26Z</time>
      </trkpt>
      <trkpt lat="48.02058" lon="-3.49351">
        <ele>97.9</ele>
        <time>2025-02-26T15:32:27Z</time>
      </trkpt>
      <trkpt lat="48.02059" lon="-3.49351">
        <ele>97.9</ele>
        <time>2025-02-26T15:32:28Z</time>
      </trkpt>
      <trkpt lat="48.0206" lon="-3.49351">
        <ele>97.8</ele>
        <time>2025-02-26T15:32:29Z</time>
      </trkpt>
      <trkpt lat="48.02061" lon="-3.49352">
        <ele>97.8</ele>
        <time>2025-02-26T15:32:30Z</time>
      </trkpt>
      <trkpt lat="48.02062" lon="-3.49352">
        <ele>97.8</ele>
        <time>2025-02-26T15:32:31Z</time>
      </trkpt>
      <trkpt lat="48.02063" lon="-3.49353">
        <ele>97.7</ele>
        <time>2025-02-26T15:32:32Z</time>
      </trkpt>
      <trkpt lat="48.02064" lon="-3.49354">
        <ele>97.7</ele>
        <time>2025-02-26T15:32:33Z</time>
      </trkpt>
      <trkpt lat="48.02064" lon="-3.49355">
        <ele>97.7</ele>
        <time>2025-02-26T15:32:34Z</time>
      </trkpt>
      <trkpt lat="48.02065" lon="-3.49356">
        <ele>97.7</ele>
        <time>2025-02-26T15:32:35Z</time>
      </trkpt>
      <trkpt lat="48.02066" lon="-3.49356">
        <ele>97.6</ele>
        <time>2025-02-26T15:32:36Z</time>
      </trkpt>
      <trkpt lat="48.02068" lon="-3.49357">
        <ele>97.6</ele>
        <time>2025-02-26T15:32:37Z</time>
      </trkpt>
      <trkpt lat="48.02069" lon="-3.49358">
        <ele>97.5</ele>
        <time>2025-02-26T15:32:38Z</time>
      </trkpt>
      <trkpt lat="48.0207" lon="-3.49359">
        <ele>97.5</ele>
        <time>2025-02-26T15:32:39Z</time>
      </trkpt>
      <trkpt lat="48.02071" lon="-3.4936">
        <ele>97.4</ele>
        <time>2025-02-26T15:32:40Z</time>
      </trkpt>
      <trkpt lat="48.02072" lon="-3.49362">
        <ele>97.5</ele>
        <time>2025-02-26T15:32:41Z</time>
      </trkpt>
      <trkpt lat="48.02073" lon="-3.49364">
        <ele>97.5</ele>
        <time>2025-02-26T15:32:42Z</time>
      </trkpt>
      <trkpt lat="48.02074" lon="-3.49365">
        <ele>97.5</ele>
        <time>2025-02-26T15:32:43Z</time>
      </trkpt>
      <trkpt lat="48.02075" lon="-3.49365">
        <ele>97.4</ele>
        <time>2025-02-26T15:32:44Z</time>
      </trkpt>
      <trkpt lat="48.02076" lon="-3.49365">
        <ele>97.4</ele>
        <time>2025-02-26T15:32:45Z</time>
      </trkpt>
      <trkpt lat="48.02078" lon="-3.49365">
        <ele>97.4</ele>
        <time>2025-02-26T15:32:46Z</time>
      </trkpt>
      <trkpt lat="48.02079" lon="-3.49366">
        <ele>97.3</ele>
        <time>2025-02-26T15:32:47Z</time>
      </trkpt>
      <trkpt lat="48.0208" lon="-3.49366">
        <ele>97.3</ele>
        <time>2025-02-26T15:32:48Z</time>
      </trkpt>
      <trkpt lat="48.02081" lon="-3.49365">
        <ele>97.2</ele>
        <time>2025-02-26T15:32:49Z</time>
      </trkpt>
      <trkpt lat="48.02082" lon="-3.49366">
        <ele>97.2</ele>
        <time>2025-02-26T15:32:50Z</time>
      </trkpt>
      <trkpt lat="48.02083" lon="-3.49367">
        <ele>97.2</ele>
        <time>2025-02-26T15:32:51Z</time>
      </trkpt>
      <trkpt lat="48.02083" lon="-3.49368">
        <ele>97.2</ele>
        <time>2025-02-26T15:32:52Z</time>
      </trkpt>
      <trkpt lat="48.02084" lon="-3.49369">
        <ele>97.2</ele>
        <time>2025-02-26T15:32:53Z</time>
      </trkpt>
      <trkpt lat="48.02086" lon="-3.4937">
        <ele>97.2</ele>
        <time>2025-02-26T15:32:54Z</time>
      </trkpt>
      <trkpt lat="48.02087" lon="-3.4937">
        <ele>97.1</ele>
        <time>2025-02-26T15:32:55Z</time>
      </trkpt>
      <trkpt lat="48.02088" lon="-3.49371">
        <ele>97.1</ele>
        <time>2025-02-26T15:32:56Z</time>
      </trkpt>
      <trkpt lat="48.02089" lon="-3.49372">
        <ele>97.1</ele>
        <time>2025-02-26T15:32:57Z</time>
      </trkpt>
      <trkpt lat="48.02091" lon="-3.49373">
        <ele>97</ele>
        <time>2025-02-26T15:32:58Z</time>
      </trkpt>
      <trkpt lat="48.02092" lon="-3.49373">
        <ele>96.9</ele>
        <time>2025-02-26T15:32:59Z</time>
      </trkpt>
      <trkpt lat="48.02093" lon="-3.49374">
        <ele>96.9</ele>
        <time>2025-02-26T15:33:00Z</time>
      </trkpt>
      <trkpt lat="48.02094" lon="-3.49375">
        <ele>96.9</ele>
        <time>2025-02-26T15:33:01Z</time>
      </trkpt>
      <trkpt lat="48.02095" lon="-3.49376">
        <ele>96.9</ele>
        <time>2025-02-26T15:33:02Z</time>
      </trkpt>
      <trkpt lat="48.02096" lon="-3.49376">
        <ele>96.9</ele>
        <time>2025-02-26T15:33:03Z</time>
      </trkpt>
      <trkpt lat="48.02097" lon="-3.49376">
        <ele>96.8</ele>
        <time>2025-02-26T15:33:04Z</time>
      </trkpt>
      <trkpt lat="48.02098" lon="-3.49377">
        <ele>96.8</ele>
        <time>2025-02-26T15:33:05Z</time>
      </trkpt>
      <trkpt lat="48.021" lon="-3.49378">
        <ele>96.8</ele>
        <time>2025-02-26T15:33:06Z</time>
      </trkpt>
      <trkpt lat="48.02101" lon="-3.49377">
        <ele>96.7</ele>
        <time>2025-02-26T15:33:07Z</time>
      </trkpt>
      <trkpt lat="48.02102" lon="-3.49377">
        <ele>96.6</ele>
        <time>2025-02-26T15:33:08Z</time>
      </trkpt>
      <trkpt lat="48.02103" lon="-3.49378">
        <ele>96.6</ele>
        <time>2025-02-26T15:33:09Z</time>
      </trkpt>
      <trkpt lat="48.02104" lon="-3.49378">
        <ele>96.6</ele>
        <time>2025-02-26T15:33:10Z</time>
      </trkpt>
      <trkpt lat="48.02105" lon="-3.49378">
        <ele>96.5</ele>
        <time>2025-02-26T15:33:11Z</time>
      </trkpt>
      <trkpt lat="48.02106" lon="-3.49378">
        <ele>96.5</ele>
        <time>2025-02-26T15:33:12Z</time>
      </trkpt>
      <trkpt lat="48.02107" lon="-3.49379">
        <ele>96.5</ele>
        <time>2025-02-26T15:33:13Z</time>
      </trkpt>
      <trkpt lat="48.02108" lon="-3.49379">
        <ele>96.4</ele>
        <time>2025-02-26T15:33:14Z</time>
      </trkpt>
      <trkpt lat="48.02109" lon="-3.49379">
        <ele>96.4</ele>
        <time>2025-02-26T15:33:15Z</time>
      </trkpt>
      <trkpt lat="48.0211" lon="-3.4938">
        <ele>96.4</ele>
        <time>2025-02-26T15:33:16Z</time>
      </trkpt>
      <trkpt lat="48.02112" lon="-3.4938">
        <ele>96.4</ele>
        <time>2025-02-26T15:33:17Z</time>
      </trkpt>
      <trkpt lat="48.02113" lon="-3.4938">
        <ele>96.4</ele>
        <time>2025-02-26T15:33:18Z</time>
      </trkpt>
      <trkpt lat="48.02114" lon="-3.49381">
        <ele>96.4</ele>
        <time>2025-02-26T15:33:19Z</time>
      </trkpt>
      <trkpt lat="48.02115" lon="-3.49382">
        <ele>96.5</ele>
        <time>2025-02-26T15:33:20Z</time>
      </trkpt>
      <trkpt lat="48.02115" lon="-3.49383">
        <ele>96.6</ele>
        <time>2025-02-26T15:33:21Z</time>
      </trkpt>
      <trkpt lat="48.02116" lon="-3.49384">
        <ele>96.6</ele>
        <time>2025-02-26T15:33:22Z</time>
      </trkpt>
      <trkpt lat="48.02117" lon="-3.49385">
        <ele>96.7</ele>
        <time>2025-02-26T15:33:23Z</time>
      </trkpt>
      <trkpt lat="48.02119" lon="-3.49386">
        <ele>96.8</ele>
        <time>2025-02-26T15:33:24Z</time>
      </trkpt>
      <trkpt lat="48.0212" lon="-3.49386">
        <ele>96.8</ele>
        <time>2025-02-26T15:33:25Z</time>
      </trkpt>
      <trkpt lat="48.02121" lon="-3.49387">
        <ele>96.8</ele>
        <time>2025-02-26T15:33:26Z</time>
      </trkpt>
      <trkpt lat="48.02122" lon="-3.49388">
        <ele>96.9</ele>
        <time>2025-02-26T15:33:27Z</time>
      </trkpt>
      <trkpt lat="48.02123" lon="-3.49389">
        <ele>97</ele>
        <time>2025-02-26T15:33:28Z</time>
      </trkpt>
      <trkpt lat="48.02124" lon="-3.4939">
        <ele>97.1</ele>
        <time>2025-02-26T15:33:29Z</time>
      </trkpt>
      <trkpt lat="48.02125" lon="-3.49391">
        <ele>97.1</ele>
        <time>2025-02-26T15:33:30Z</time>
      </trkpt>
      <trkpt lat="48.02126" lon="-3.49392">
        <ele>97.1</ele>
        <time>2025-02-26T15:33:31Z</time>
      </trkpt>
      <trkpt lat="48.02127" lon="-3.49392">
        <ele>97.1</ele>
        <time>2025-02-26T15:33:32Z</time>
      </trkpt>
      <trkpt lat="48.02129" lon="-3.49391">
        <ele>97.1</ele>
        <time>2025-02-26T15:33:33Z</time>
      </trkpt>
      <trkpt lat="48.0213" lon="-3.49391">
        <ele>97.1</ele>
        <time>2025-02-26T15:33:34Z</time>
      </trkpt>
      <trkpt lat="48.02131" lon="-3.49392">
        <ele>97.1</ele>
        <time>2025-02-26T15:33:35Z</time>
      </trkpt>
      <trkpt lat="48.02132" lon="-3.49393">
        <ele>97.1</ele>
        <time>2025-02-26T15:33:36Z</time>
      </trkpt>
      <trkpt lat="48.02133" lon="-3.49394">
        <ele>97.2</ele>
        <time>2025-02-26T15:33:37Z</time>
      </trkpt>
      <trkpt lat="48.02134" lon="-3.49395">
        <ele>97.2</ele>
        <time>2025-02-26T15:33:38Z</time>
      </trkpt>
      <trkpt lat="48.02135" lon="-3.49396">
        <ele>97.2</ele>
        <time>2025-02-26T15:33:39Z</time>
      </trkpt>
      <trkpt lat="48.02137" lon="-3.49396">
        <ele>97.2</ele>
        <time>2025-02-26T15:33:40Z</time>
      </trkpt>
      <trkpt lat="48.02138" lon="-3.49395">
        <ele>97.2</ele>
        <time>2025-02-26T15:33:41Z</time>
      </trkpt>
      <trkpt lat="48.02139" lon="-3.49396">
        <ele>97.2</ele>
        <time>2025-02-26T15:33:42Z</time>
      </trkpt>
      <trkpt lat="48.0214" lon="-3.49395">
        <ele>97.2</ele>
        <time>2025-02-26T15:33:43Z</time>
      </trkpt>
      <trkpt lat="48.02141" lon="-3.49396">
        <ele>97.2</ele>
        <time>2025-02-26T15:33:44Z</time>
      </trkpt>
      <trkpt lat="48.02142" lon="-3.49396">
        <ele>97.3</ele>
        <time>2025-02-26T15:33:45Z</time>
      </trkpt>
      <trkpt lat="48.02143" lon="-3.49396">
        <ele>97.3</ele>
        <time>2025-02-26T15:33:46Z</time>
      </trkpt>
      <trkpt lat="48.02144" lon="-3.49396">
        <ele>97.3</ele>
        <time>2025-02-26T15:33:47Z</time>
      </trkpt>
      <trkpt lat="48.02145" lon="-3.49396">
        <ele>97.3</ele>
        <time>2025-02-26T15:33:48Z</time>
      </trkpt>
      <trkpt lat="48.02146" lon="-3.49396">
        <ele>97.3</ele>
        <time>2025-02-26T15:33:49Z</time>
      </trkpt>
      <trkpt lat="48.02148" lon="-3.49397">
        <ele>97.3</ele>
        <time>2025-02-26T15:33:50Z</time>
      </trkpt>
      <trkpt lat="48.02149" lon="-3.49397">
        <ele>97.3</ele>
        <time>2025-02-26T15:33:51Z</time>
      </trkpt>
      <trkpt lat="48.0215" lon="-3.49398">
        <ele>97.3</ele>
        <time>2025-02-26T15:33:52Z</time>
      </trkpt>
      <trkpt lat="48.02151" lon="-3.49398">
        <ele>97.3</ele>
        <time>2025-02-26T15:33:53Z</time>
      </trkpt>
      <trkpt lat="48.02153" lon="-3.49399">
        <ele>97.3</ele>
        <time>2025-02-26T15:33:54Z</time>
      </trkpt>
      <trkpt lat="48.02154" lon="-3.49399">
        <ele>97.4</ele>
        <time>2025-02-26T15:33:55Z</time>
      </trkpt>
      <trkpt lat="48.02155" lon="-3.494">
        <ele>97.4</ele>
        <time>2025-02-26T15:33:56Z</time>
      </trkpt>
      <trkpt lat="48.02156" lon="-3.49399">
        <ele>97.4</ele>
        <time>2025-02-26T15:33:57Z</time>
      </trkpt>
      <trkpt lat="48.02157" lon="-3.49399">
        <ele>97.4</ele>
        <time>2025-02-26T15:33:58Z</time>
      </trkpt>
      <trkpt lat="48.02158" lon="-3.494">
        <ele>97.4</ele>
        <time>2025-02-26T15:33:59Z</time>
      </trkpt>
      <trkpt lat="48.0216" lon="-3.494">
        <ele>97.4</ele>
        <time>2025-02-26T15:34:00Z</time>
      </trkpt>
      <trkpt lat="48.02161" lon="-3.494">
        <ele>97.4</ele>
        <time>2025-02-26T15:34:01Z</time>
      </trkpt>
      <trkpt lat="48.02162" lon="-3.49401">
        <ele>97.4</ele>
        <time>2025-02-26T15:34:02Z</time>
      </trkpt>
      <trkpt lat="48.02163" lon="-3.49401">
        <ele>97.4</ele>
        <time>2025-02-26T15:34:03Z</time>
      </trkpt>
      <trkpt lat="48.02164" lon="-3.49401">
        <ele>97.4</ele>
        <time>2025-02-26T15:34:04Z</time>
      </trkpt>
      <trkpt lat="48.02165" lon="-3.49402">
        <ele>97.5</ele>
        <time>2025-02-26T15:34:05Z</time>
      </trkpt>
      <trkpt lat="48.02165" lon="-3.49403">
        <ele>97.5</ele>
        <time>2025-02-26T15:34:06Z</time>
      </trkpt>
      <trkpt lat="48.02166" lon="-3.49405">
        <ele>97.6</ele>
        <time>2025-02-26T15:34:07Z</time>
      </trkpt>
      <trkpt lat="48.02167" lon="-3.49406">
        <ele>97.6</ele>
        <time>2025-02-26T15:34:08Z</time>
      </trkpt>
      <trkpt lat="48.02166" lon="-3.49411">
        <ele>97.8</ele>
        <time>2025-02-26T15:34:09Z</time>
      </trkpt>
      <trkpt lat="48.02166" lon="-3.49414">
        <ele>97.9</ele>
        <time>2025-02-26T15:34:10Z</time>
      </trkpt>
      <trkpt lat="48.02166" lon="-3.49416">
        <ele>98</ele>
        <time>2025-02-26T15:34:11Z</time>
      </trkpt>
      <trkpt lat="48.02165" lon="-3.49417">
        <ele>98</ele>
        <time>2025-02-26T15:34:12Z</time>
      </trkpt>
      <trkpt lat="48.02165" lon="-3.49419">
        <ele>98.1</ele>
        <time>2025-02-26T15:34:13Z</time>
      </trkpt>
      <trkpt lat="48.02165" lon="-3.4942">
        <ele>98.1</ele>
        <time>2025-02-26T15:34:14Z</time>
      </trkpt>
      <trkpt lat="48.02166" lon="-3.49421">
        <ele>98.2</ele>
        <time>2025-02-26T15:34:15Z</time>
      </trkpt>
      <trkpt lat="48.02167" lon="-3.49421">
        <ele>98.2</ele>
        <time>2025-02-26T15:34:16Z</time>
      </trkpt>
      <trkpt lat="48.02168" lon="-3.49421">
        <ele>98.2</ele>
        <time>2025-02-26T15:34:17Z</time>
      </trkpt>
      <trkpt lat="48.02169" lon="-3.49421">
        <ele>98.2</ele>
        <time>2025-02-26T15:34:18Z</time>
      </trkpt>
      <trkpt lat="48.0217" lon="-3.49421">
        <ele>98.2</ele>
        <time>2025-02-26T15:34:19Z</time>
      </trkpt>
      <trkpt lat="48.02171" lon="-3.49421">
        <ele>98.2</ele>
        <time>2025-02-26T15:34:20Z</time>
      </trkpt>
      <trkpt lat="48.02172" lon="-3.49422">
        <ele>98.2</ele>
        <time>2025-02-26T15:34:21Z</time>
      </trkpt>
      <trkpt lat="48.02173" lon="-3.49422">
        <ele>98.2</ele>
        <time>2025-02-26T15:34:22Z</time>
      </trkpt>
      <trkpt lat="48.02174" lon="-3.49422">
        <ele>98.2</ele>
        <time>2025-02-26T15:34:23Z</time>
      </trkpt>
      <trkpt lat="48.02175" lon="-3.49421">
        <ele>98.2</ele>
        <time>2025-02-26T15:34:24Z</time>
      </trkpt>
      <trkpt lat="48.02177" lon="-3.49421">
        <ele>98.2</ele>
        <time>2025-02-26T15:34:25Z</time>
      </trkpt>
      <trkpt lat="48.02178" lon="-3.49422">
        <ele>98.2</ele>
        <time>2025-02-26T15:34:26Z</time>
      </trkpt>
      <trkpt lat="48.02179" lon="-3.49422">
        <ele>98.3</ele>
        <time>2025-02-26T15:34:27Z</time>
      </trkpt>
      <trkpt lat="48.0218" lon="-3.49423">
        <ele>98.3</ele>
        <time>2025-02-26T15:34:28Z</time>
      </trkpt>
      <trkpt lat="48.0218" lon="-3.49424">
        <ele>98.4</ele>
        <time>2025-02-26T15:34:29Z</time>
      </trkpt>
      <trkpt lat="48.02182" lon="-3.49424">
        <ele>98.4</ele>
        <time>2025-02-26T15:34:30Z</time>
      </trkpt>
      <trkpt lat="48.02183" lon="-3.49424">
        <ele>98.4</ele>
        <time>2025-02-26T15:34:31Z</time>
      </trkpt>
      <trkpt lat="48.02184" lon="-3.49424">
        <ele>98.4</ele>
        <time>2025-02-26T15:34:32Z</time>
      </trkpt>
      <trkpt lat="48.02185" lon="-3.49425">
        <ele>98.5</ele>
        <time>2025-02-26T15:34:33Z</time>
      </trkpt>
      <trkpt lat="48.02186" lon="-3.49426">
        <ele>98.6</ele>
        <time>2025-02-26T15:34:34Z</time>
      </trkpt>
      <trkpt lat="48.02187" lon="-3.49427">
        <ele>98.6</ele>
        <time>2025-02-26T15:34:35Z</time>
      </trkpt>
      <trkpt lat="48.02188" lon="-3.49427">
        <ele>98.7</ele>
        <time>2025-02-26T15:34:36Z</time>
      </trkpt>
      <trkpt lat="48.02189" lon="-3.49428">
        <ele>98.7</ele>
        <time>2025-02-26T15:34:37Z</time>
      </trkpt>
      <trkpt lat="48.0219" lon="-3.49428">
        <ele>98.7</ele>
        <time>2025-02-26T15:34:38Z</time>
      </trkpt>
      <trkpt lat="48.02192" lon="-3.49427">
        <ele>98.7</ele>
        <time>2025-02-26T15:34:39Z</time>
      </trkpt>
      <trkpt lat="48.02193" lon="-3.49428">
        <ele>98.8</ele>
        <time>2025-02-26T15:34:40Z</time>
      </trkpt>
      <trkpt lat="48.02194" lon="-3.49429">
        <ele>98.9</ele>
        <time>2025-02-26T15:34:41Z</time>
      </trkpt>
      <trkpt lat="48.02195" lon="-3.4943">
        <ele>99</ele>
        <time>2025-02-26T15:34:42Z</time>
      </trkpt>
      <trkpt lat="48.02196" lon="-3.4943">
        <ele>98.9</ele>
        <time>2025-02-26T15:34:43Z</time>
      </trkpt>
      <trkpt lat="48.02197" lon="-3.4943">
        <ele>99</ele>
        <time>2025-02-26T15:34:44Z</time>
      </trkpt>
      <trkpt lat="48.02198" lon="-3.49431">
        <ele>99</ele>
        <time>2025-02-26T15:34:45Z</time>
      </trkpt>
      <trkpt lat="48.02199" lon="-3.49431">
        <ele>99</ele>
        <time>2025-02-26T15:34:46Z</time>
      </trkpt>
      <trkpt lat="48.022" lon="-3.49432">
        <ele>99.1</ele>
        <time>2025-02-26T15:34:47Z</time>
      </trkpt>
      <trkpt lat="48.02201" lon="-3.49433">
        <ele>99.2</ele>
        <time>2025-02-26T15:34:48Z</time>
      </trkpt>
      <trkpt lat="48.02202" lon="-3.49433">
        <ele>99.2</ele>
        <time>2025-02-26T15:34:49Z</time>
      </trkpt>
      <trkpt lat="48.02203" lon="-3.49434">
        <ele>99.2</ele>
        <time>2025-02-26T15:34:50Z</time>
      </trkpt>
      <trkpt lat="48.02204" lon="-3.49434">
        <ele>99.3</ele>
        <time>2025-02-26T15:34:51Z</time>
      </trkpt>
      <trkpt lat="48.02206" lon="-3.49432">
        <ele>99.1</ele>
        <time>2025-02-26T15:34:52Z</time>
      </trkpt>
      <trkpt lat="48.02207" lon="-3.49432">
        <ele>99.1</ele>
        <time>2025-02-26T15:34:53Z</time>
      </trkpt>
      <trkpt lat="48.02208" lon="-3.49433">
        <ele>99.2</ele>
        <time>2025-02-26T15:34:54Z</time>
      </trkpt>
      <trkpt lat="48.02209" lon="-3.49434">
        <ele>99.2</ele>
        <time>2025-02-26T15:34:55Z</time>
      </trkpt>
      <trkpt lat="48.0221" lon="-3.49435">
        <ele>99.3</ele>
        <time>2025-02-26T15:34:56Z</time>
      </trkpt>
      <trkpt lat="48.02211" lon="-3.49436">
        <ele>99.4</ele>
        <time>2025-02-26T15:34:57Z</time>
      </trkpt>
      <trkpt lat="48.02212" lon="-3.49436">
        <ele>99.4</ele>
        <time>2025-02-26T15:34:58Z</time>
      </trkpt>
      <trkpt lat="48.02213" lon="-3.49438">
        <ele>99.5</ele>
        <time>2025-02-26T15:34:59Z</time>
      </trkpt>
      <trkpt lat="48.02214" lon="-3.49438">
        <ele>99.5</ele>
        <time>2025-02-26T15:35:00Z</time>
      </trkpt>
      <trkpt lat="48.02215" lon="-3.49439">
        <ele>99.6</ele>
        <time>2025-02-26T15:35:01Z</time>
      </trkpt>
      <trkpt lat="48.02215" lon="-3.4944">
        <ele>99.7</ele>
        <time>2025-02-26T15:35:02Z</time>
      </trkpt>
      <trkpt lat="48.02216" lon="-3.49441">
        <ele>99.7</ele>
        <time>2025-02-26T15:35:03Z</time>
      </trkpt>
      <trkpt lat="48.02218" lon="-3.49441">
        <ele>99.7</ele>
        <time>2025-02-26T15:35:04Z</time>
      </trkpt>
      <trkpt lat="48.02219" lon="-3.49441">
        <ele>99.7</ele>
        <time>2025-02-26T15:35:05Z</time>
      </trkpt>
      <trkpt lat="48.0222" lon="-3.49442">
        <ele>99.8</ele>
        <time>2025-02-26T15:35:06Z</time>
      </trkpt>
      <trkpt lat="48.02221" lon="-3.49443">
        <ele>99.9</ele>
        <time>2025-02-26T15:35:07Z</time>
      </trkpt>
      <trkpt lat="48.02222" lon="-3.49443">
        <ele>99.9</ele>
        <time>2025-02-26T15:35:08Z</time>
      </trkpt>
      <trkpt lat="48.02223" lon="-3.49444">
        <ele>100</ele>
        <time>2025-02-26T15:35:09Z</time>
      </trkpt>
      <trkpt lat="48.02224" lon="-3.49445">
        <ele>100</ele>
        <time>2025-02-26T15:35:10Z</time>
      </trkpt>
      <trkpt lat="48.02225" lon="-3.49446">
        <ele>100.1</ele>
        <time>2025-02-26T15:35:11Z</time>
      </trkpt>
      <trkpt lat="48.02226" lon="-3.49448">
        <ele>100.1</ele>
        <time>2025-02-26T15:35:12Z</time>
      </trkpt>
      <trkpt lat="48.02227" lon="-3.49449">
        <ele>100.1</ele>
        <time>2025-02-26T15:35:13Z</time>
      </trkpt>
      <trkpt lat="48.02228" lon="-3.4945">
        <ele>100.2</ele>
        <time>2025-02-26T15:35:14Z</time>
      </trkpt>
      <trkpt lat="48.02228" lon="-3.49452">
        <ele>100.3</ele>
        <time>2025-02-26T15:35:15Z</time>
      </trkpt>
      <trkpt lat="48.02228" lon="-3.49454">
        <ele>100.3</ele>
        <time>2025-02-26T15:35:16Z</time>
      </trkpt>
      <trkpt lat="48.02228" lon="-3.49456">
        <ele>100.4</ele>
        <time>2025-02-26T15:35:17Z</time>
      </trkpt>
      <trkpt lat="48.02229" lon="-3.49457">
        <ele>100.4</ele>
        <time>2025-02-26T15:35:18Z</time>
      </trkpt>
      <trkpt lat="48.0223" lon="-3.49458">
        <ele>100.5</ele>
        <time>2025-02-26T15:35:19Z</time>
      </trkpt>
      <trkpt lat="48.02231" lon="-3.49459">
        <ele>100.5</ele>
        <time>2025-02-26T15:35:20Z</time>
      </trkpt>
      <trkpt lat="48.02232" lon="-3.49459">
        <ele>100.5</ele>
        <time>2025-02-26T15:35:21Z</time>
      </trkpt>
      <trkpt lat="48.02233" lon="-3.49459">
        <ele>100.5</ele>
        <time>2025-02-26T15:35:22Z</time>
      </trkpt>
      <trkpt lat="48.02234" lon="-3.4946">
        <ele>100.6</ele>
        <time>2025-02-26T15:35:23Z</time>
      </trkpt>
      <trkpt lat="48.02235" lon="-3.49462">
        <ele>100.6</ele>
        <time>2025-02-26T15:35:24Z</time>
      </trkpt>
      <trkpt lat="48.02236" lon="-3.49463">
        <ele>100.7</ele>
        <time>2025-02-26T15:35:25Z</time>
      </trkpt>
      <trkpt lat="48.02237" lon="-3.49463">
        <ele>100.7</ele>
        <time>2025-02-26T15:35:26Z</time>
      </trkpt>
      <trkpt lat="48.02238" lon="-3.49465">
        <ele>100.7</ele>
        <time>2025-02-26T15:35:27Z</time>
      </trkpt>
      <trkpt lat="48.02238" lon="-3.49467">
        <ele>100.8</ele>
        <time>2025-02-26T15:35:28Z</time>
      </trkpt>
      <trkpt lat="48.02238" lon="-3.49468">
        <ele>100.9</ele>
        <time>2025-02-26T15:35:29Z</time>
      </trkpt>
      <trkpt lat="48.02239" lon="-3.4947">
        <ele>100.9</ele>
        <time>2025-02-26T15:35:30Z</time>
      </trkpt>
      <trkpt lat="48.02239" lon="-3.49472">
        <ele>101</ele>
        <time>2025-02-26T15:35:31Z</time>
      </trkpt>
      <trkpt lat="48.02239" lon="-3.49474">
        <ele>101</ele>
        <time>2025-02-26T15:35:32Z</time>
      </trkpt>
      <trkpt lat="48.02239" lon="-3.49476">
        <ele>101.1</ele>
        <time>2025-02-26T15:35:33Z</time>
      </trkpt>
      <trkpt lat="48.02239" lon="-3.49477">
        <ele>101.1</ele>
        <time>2025-02-26T15:35:34Z</time>
      </trkpt>
      <trkpt lat="48.02239" lon="-3.49479">
        <ele>101.2</ele>
        <time>2025-02-26T15:35:35Z</time>
      </trkpt>
      <trkpt lat="48.02239" lon="-3.49481">
        <ele>101.2</ele>
        <time>2025-02-26T15:35:36Z</time>
      </trkpt>
      <trkpt lat="48.02239" lon="-3.49483">
        <ele>101.2</ele>
        <time>2025-02-26T15:35:37Z</time>
      </trkpt>
      <trkpt lat="48.02239" lon="-3.49485">
        <ele>101.3</ele>
        <time>2025-02-26T15:35:38Z</time>
      </trkpt>
      <trkpt lat="48.02239" lon="-3.49486">
        <ele>101.3</ele>
        <time>2025-02-26T15:35:39Z</time>
      </trkpt>
      <trkpt lat="48.02239" lon="-3.49488">
        <ele>101.3</ele>
        <time>2025-02-26T15:35:40Z</time>
      </trkpt>
      <trkpt lat="48.02239" lon="-3.4949">
        <ele>101.4</ele>
        <time>2025-02-26T15:35:41Z</time>
      </trkpt>
      <trkpt lat="48.02239" lon="-3.49492">
        <ele>101.4</ele>
        <time>2025-02-26T15:35:42Z</time>
      </trkpt>
      <trkpt lat="48.02239" lon="-3.49494">
        <ele>101.5</ele>
        <time>2025-02-26T15:35:43Z</time>
      </trkpt>
      <trkpt lat="48.02239" lon="-3.49495">
        <ele>101.5</ele>
        <time>2025-02-26T15:35:44Z</time>
      </trkpt>
      <trkpt lat="48.02239" lon="-3.49497">
        <ele>101.5</ele>
        <time>2025-02-26T15:35:45Z</time>
      </trkpt>
      <trkpt lat="48.02239" lon="-3.49499">
        <ele>101.6</ele>
        <time>2025-02-26T15:35:46Z</time>
      </trkpt>
      <trkpt lat="48.02239" lon="-3.495">
        <ele>101.6</ele>
        <time>2025-02-26T15:35:47Z</time>
      </trkpt>
      <trkpt lat="48.02239" lon="-3.49502">
        <ele>101.6</ele>
        <time>2025-02-26T15:35:48Z</time>
      </trkpt>
      <trkpt lat="48.02239" lon="-3.49504">
        <ele>101.7</ele>
        <time>2025-02-26T15:35:49Z</time>
      </trkpt>
      <trkpt lat="48.02239" lon="-3.49505">
        <ele>101.7</ele>
        <time>2025-02-26T15:35:50Z</time>
      </trkpt>
      <trkpt lat="48.02239" lon="-3.49507">
        <ele>101.7</ele>
        <time>2025-02-26T15:35:51Z</time>
      </trkpt>
      <trkpt lat="48.02239" lon="-3.49509">
        <ele>101.7</ele>
        <time>2025-02-26T15:35:52Z</time>
      </trkpt>
      <trkpt lat="48.02239" lon="-3.4951">
        <ele>101.8</ele>
        <time>2025-02-26T15:35:53Z</time>
      </trkpt>
      <trkpt lat="48.02239" lon="-3.49512">
        <ele>101.8</ele>
        <time>2025-02-26T15:35:54Z</time>
      </trkpt>
      <trkpt lat="48.02239" lon="-3.49514">
        <ele>101.8</ele>
        <time>2025-02-26T15:35:55Z</time>
      </trkpt>
      <trkpt lat="48.02238" lon="-3.49515">
        <ele>101.8</ele>
        <time>2025-02-26T15:35:56Z</time>
      </trkpt>
      <trkpt lat="48.02238" lon="-3.49517">
        <ele>101.8</ele>
        <time>2025-02-26T15:35:57Z</time>
      </trkpt>
      <trkpt lat="48.02238" lon="-3.49519">
        <ele>101.9</ele>
        <time>2025-02-26T15:35:58Z</time>
      </trkpt>
      <trkpt lat="48.02238" lon="-3.4952">
        <ele>101.9</ele>
        <time>2025-02-26T15:35:59Z</time>
      </trkpt>
      <trkpt lat="48.02238" lon="-3.49522">
        <ele>101.9</ele>
        <time>2025-02-26T15:36:00Z</time>
      </trkpt>
      <trkpt lat="48.02239" lon="-3.49524">
        <ele>101.9</ele>
        <time>2025-02-26T15:36:01Z</time>
      </trkpt>
      <trkpt lat="48.02239" lon="-3.49526">
        <ele>102</ele>
        <time>2025-02-26T15:36:02Z</time>
      </trkpt>
      <trkpt lat="48.02239" lon="-3.49528">
        <ele>102</ele>
        <time>2025-02-26T15:36:03Z</time>
      </trkpt>
      <trkpt lat="48.02239" lon="-3.49529">
        <ele>102</ele>
        <time>2025-02-26T15:36:04Z</time>
      </trkpt>
      <trkpt lat="48.02239" lon="-3.49531">
        <ele>102</ele>
        <time>2025-02-26T15:36:05Z</time>
      </trkpt>
      <trkpt lat="48.02239" lon="-3.49533">
        <ele>102</ele>
        <time>2025-02-26T15:36:06Z</time>
      </trkpt>
      <trkpt lat="48.02238" lon="-3.49535">
        <ele>102</ele>
        <time>2025-02-26T15:36:07Z</time>
      </trkpt>
      <trkpt lat="48.02238" lon="-3.49537">
        <ele>102</ele>
        <time>2025-02-26T15:36:08Z</time>
      </trkpt>
      <trkpt lat="48.02238" lon="-3.49539">
        <ele>102</ele>
        <time>2025-02-26T15:36:09Z</time>
      </trkpt>
      <trkpt lat="48.02239" lon="-3.49541">
        <ele>102</ele>
        <time>2025-02-26T15:36:10Z</time>
      </trkpt>
      <trkpt lat="48.02238" lon="-3.49544">
        <ele>102</ele>
        <time>2025-02-26T15:36:11Z</time>
      </trkpt>
      <trkpt lat="48.02238" lon="-3.49546">
        <ele>102</ele>
        <time>2025-02-26T15:36:12Z</time>
      </trkpt>
      <trkpt lat="48.02239" lon="-3.49548">
        <ele>102</ele>
        <time>2025-02-26T15:36:13Z</time>
      </trkpt>
      <trkpt lat="48.0224" lon="-3.4955">
        <ele>102</ele>
        <time>2025-02-26T15:36:14Z</time>
      </trkpt>
      <trkpt lat="48.0224" lon="-3.49551">
        <ele>102</ele>
        <time>2025-02-26T15:36:15Z</time>
      </trkpt>
      <trkpt lat="48.0224" lon="-3.49553">
        <ele>102</ele>
        <time>2025-02-26T15:36:16Z</time>
      </trkpt>
      <trkpt lat="48.0224" lon="-3.49554">
        <ele>102</ele>
        <time>2025-02-26T15:36:17Z</time>
      </trkpt>
      <trkpt lat="48.0224" lon="-3.49556">
        <ele>102</ele>
        <time>2025-02-26T15:36:18Z</time>
      </trkpt>
      <trkpt lat="48.0224" lon="-3.49558">
        <ele>102</ele>
        <time>2025-02-26T15:36:19Z</time>
      </trkpt>
      <trkpt lat="48.0224" lon="-3.49559">
        <ele>102</ele>
        <time>2025-02-26T15:36:20Z</time>
      </trkpt>
      <trkpt lat="48.0224" lon="-3.49561">
        <ele>101.9</ele>
        <time>2025-02-26T15:36:21Z</time>
      </trkpt>
      <trkpt lat="48.0224" lon="-3.49563">
        <ele>101.9</ele>
        <time>2025-02-26T15:36:22Z</time>
      </trkpt>
      <trkpt lat="48.02239" lon="-3.49565">
        <ele>101.9</ele>
        <time>2025-02-26T15:36:23Z</time>
      </trkpt>
      <trkpt lat="48.02239" lon="-3.49567">
        <ele>101.8</ele>
        <time>2025-02-26T15:36:24Z</time>
      </trkpt>
      <trkpt lat="48.02238" lon="-3.49568">
        <ele>101.8</ele>
        <time>2025-02-26T15:36:25Z</time>
      </trkpt>
      <trkpt lat="48.02238" lon="-3.49571">
        <ele>101.8</ele>
        <time>2025-02-26T15:36:26Z</time>
      </trkpt>
      <trkpt lat="48.02239" lon="-3.49572">
        <ele>101.7</ele>
        <time>2025-02-26T15:36:27Z</time>
      </trkpt>
      <trkpt lat="48.02238" lon="-3.49574">
        <ele>101.7</ele>
        <time>2025-02-26T15:36:28Z</time>
      </trkpt>
      <trkpt lat="48.02238" lon="-3.49576">
        <ele>101.7</ele>
        <time>2025-02-26T15:36:29Z</time>
      </trkpt>
      <trkpt lat="48.02237" lon="-3.49577">
        <ele>101.6</ele>
        <time>2025-02-26T15:36:30Z</time>
      </trkpt>
      <trkpt lat="48.02237" lon="-3.49579">
        <ele>101.6</ele>
        <time>2025-02-26T15:36:31Z</time>
      </trkpt>
      <trkpt lat="48.02237" lon="-3.49581">
        <ele>101.6</ele>
        <time>2025-02-26T15:36:32Z</time>
      </trkpt>
      <trkpt lat="48.02237" lon="-3.49583">
        <ele>101.5</ele>
        <time>2025-02-26T15:36:33Z</time>
      </trkpt>
      <trkpt lat="48.02237" lon="-3.49584">
        <ele>101.5</ele>
        <time>2025-02-26T15:36:34Z</time>
      </trkpt>
      <trkpt lat="48.02237" lon="-3.49586">
        <ele>101.5</ele>
        <time>2025-02-26T15:36:35Z</time>
      </trkpt>
      <trkpt lat="48.02237" lon="-3.49588">
        <ele>101.5</ele>
        <time>2025-02-26T15:36:36Z</time>
      </trkpt>
      <trkpt lat="48.02236" lon="-3.4959">
        <ele>101.5</ele>
        <time>2025-02-26T15:36:37Z</time>
      </trkpt>
      <trkpt lat="48.02236" lon="-3.49592">
        <ele>101.5</ele>
        <time>2025-02-26T15:36:38Z</time>
      </trkpt>
      <trkpt lat="48.02236" lon="-3.49593">
        <ele>101.5</ele>
        <time>2025-02-26T15:36:39Z</time>
      </trkpt>
      <trkpt lat="48.02236" lon="-3.49595">
        <ele>101.5</ele>
        <time>2025-02-26T15:36:40Z</time>
      </trkpt>
      <trkpt lat="48.02236" lon="-3.49597">
        <ele>101.5</ele>
        <time>2025-02-26T15:36:41Z</time>
      </trkpt>
      <trkpt lat="48.02236" lon="-3.49599">
        <ele>101.5</ele>
        <time>2025-02-26T15:36:42Z</time>
      </trkpt>
      <trkpt lat="48.02235" lon="-3.49601">
        <ele>101.5</ele>
        <time>2025-02-26T15:36:43Z</time>
      </trkpt>
      <trkpt lat="48.02235" lon="-3.49602">
        <ele>101.4</ele>
        <time>2025-02-26T15:36:44Z</time>
      </trkpt>
      <trkpt lat="48.02235" lon="-3.49604">
        <ele>101.4</ele>
        <time>2025-02-26T15:36:45Z</time>
      </trkpt>
      <trkpt lat="48.02235" lon="-3.49606">
        <ele>101.4</ele>
        <time>2025-02-26T15:36:46Z</time>
      </trkpt>
      <trkpt lat="48.02234" lon="-3.49608">
        <ele>101.4</ele>
        <time>2025-02-26T15:36:47Z</time>
      </trkpt>
      <trkpt lat="48.02233" lon="-3.4961">
        <ele>101.4</ele>
        <time>2025-02-26T15:36:48Z</time>
      </trkpt>
      <trkpt lat="48.02232" lon="-3.49612">
        <ele>101.3</ele>
        <time>2025-02-26T15:36:49Z</time>
      </trkpt>
      <trkpt lat="48.02232" lon="-3.49614">
        <ele>101.2</ele>
        <time>2025-02-26T15:36:50Z</time>
      </trkpt>
      <trkpt lat="48.02231" lon="-3.49616">
        <ele>101.2</ele>
        <time>2025-02-26T15:36:51Z</time>
      </trkpt>
      <trkpt lat="48.02231" lon="-3.49617">
        <ele>101.1</ele>
        <time>2025-02-26T15:36:52Z</time>
      </trkpt>
      <trkpt lat="48.02231" lon="-3.4962">
        <ele>101</ele>
        <time>2025-02-26T15:36:53Z</time>
      </trkpt>
      <trkpt lat="48.0223" lon="-3.49621">
        <ele>100.9</ele>
        <time>2025-02-26T15:36:54Z</time>
      </trkpt>
      <trkpt lat="48.0223" lon="-3.49623">
        <ele>100.8</ele>
        <time>2025-02-26T15:36:55Z</time>
      </trkpt>
      <trkpt lat="48.02229" lon="-3.49624">
        <ele>100.8</ele>
        <time>2025-02-26T15:36:56Z</time>
      </trkpt>
      <trkpt lat="48.02229" lon="-3.49626">
        <ele>100.7</ele>
        <time>2025-02-26T15:36:57Z</time>
      </trkpt>
      <trkpt lat="48.02228" lon="-3.49628">
        <ele>100.6</ele>
        <time>2025-02-26T15:36:58Z</time>
      </trkpt>
      <trkpt lat="48.02228" lon="-3.49629">
        <ele>100.5</ele>
        <time>2025-02-26T15:36:59Z</time>
      </trkpt>
      <trkpt lat="48.02228" lon="-3.49631">
        <ele>100.5</ele>
        <time>2025-02-26T15:37:00Z</time>
      </trkpt>
      <trkpt lat="48.02228" lon="-3.49633">
        <ele>100.4</ele>
        <time>2025-02-26T15:37:01Z</time>
      </trkpt>
      <trkpt lat="48.02227" lon="-3.49635">
        <ele>100.3</ele>
        <time>2025-02-26T15:37:02Z</time>
      </trkpt>
      <trkpt lat="48.02226" lon="-3.49636">
        <ele>100.2</ele>
        <time>2025-02-26T15:37:03Z</time>
      </trkpt>
      <trkpt lat="48.02225" lon="-3.49638">
        <ele>100.2</ele>
        <time>2025-02-26T15:37:04Z</time>
      </trkpt>
      <trkpt lat="48.02225" lon="-3.49639">
        <ele>100.1</ele>
        <time>2025-02-26T15:37:05Z</time>
      </trkpt>
      <trkpt lat="48.02224" lon="-3.4964">
        <ele>100</ele>
        <time>2025-02-26T15:37:06Z</time>
      </trkpt>
      <trkpt lat="48.02223" lon="-3.49642">
        <ele>99.9</ele>
        <time>2025-02-26T15:37:07Z</time>
      </trkpt>
      <trkpt lat="48.02223" lon="-3.49643">
        <ele>99.7</ele>
        <time>2025-02-26T15:37:08Z</time>
      </trkpt>
      <trkpt lat="48.02222" lon="-3.49644">
        <ele>99.6</ele>
        <time>2025-02-26T15:37:09Z</time>
      </trkpt>
      <trkpt lat="48.02221" lon="-3.49645">
        <ele>99.6</ele>
        <time>2025-02-26T15:37:10Z</time>
      </trkpt>
      <trkpt lat="48.0222" lon="-3.49646">
        <ele>99.4</ele>
        <time>2025-02-26T15:37:11Z</time>
      </trkpt>
      <trkpt lat="48.02219" lon="-3.49647">
        <ele>99.3</ele>
        <time>2025-02-26T15:37:12Z</time>
      </trkpt>
      <trkpt lat="48.02218" lon="-3.49649">
        <ele>99.2</ele>
        <time>2025-02-26T15:37:13Z</time>
      </trkpt>
      <trkpt lat="48.02218" lon="-3.4965">
        <ele>99.1</ele>
        <time>2025-02-26T15:37:14Z</time>
      </trkpt>
      <trkpt lat="48.02217" lon="-3.49652">
        <ele>99</ele>
        <time>2025-02-26T15:37:15Z</time>
      </trkpt>
      <trkpt lat="48.02216" lon="-3.49654">
        <ele>98.8</ele>
        <time>2025-02-26T15:37:16Z</time>
      </trkpt>
      <trkpt lat="48.02216" lon="-3.49656">
        <ele>98.7</ele>
        <time>2025-02-26T15:37:17Z</time>
      </trkpt>
      <trkpt lat="48.02217" lon="-3.49658">
        <ele>98.6</ele>
        <time>2025-02-26T15:37:18Z</time>
      </trkpt>
      <trkpt lat="48.02216" lon="-3.4966">
        <ele>98.5</ele>
        <time>2025-02-26T15:37:19Z</time>
      </trkpt>
      <trkpt lat="48.02215" lon="-3.49661">
        <ele>98.4</ele>
        <time>2025-02-26T15:37:20Z</time>
      </trkpt>
      <trkpt lat="48.02215" lon="-3.49663">
        <ele>98.2</ele>
        <time>2025-02-26T15:37:21Z</time>
      </trkpt>
      <trkpt lat="48.02214" lon="-3.49664">
        <ele>98.2</ele>
        <time>2025-02-26T15:37:22Z</time>
      </trkpt>
      <trkpt lat="48.02213" lon="-3.49666">
        <ele>98.1</ele>
        <time>2025-02-26T15:37:23Z</time>
      </trkpt>
      <trkpt lat="48.02212" lon="-3.49667">
        <ele>98</ele>
        <time>2025-02-26T15:37:24Z</time>
      </trkpt>
      <trkpt lat="48.02212" lon="-3.49669">
        <ele>97.9</ele>
        <time>2025-02-26T15:37:25Z</time>
      </trkpt>
      <trkpt lat="48.02211" lon="-3.4967">
        <ele>97.9</ele>
        <time>2025-02-26T15:37:26Z</time>
      </trkpt>
      <trkpt lat="48.02211" lon="-3.49672">
        <ele>97.8</ele>
        <time>2025-02-26T15:37:27Z</time>
      </trkpt>
      <trkpt lat="48.02211" lon="-3.49674">
        <ele>97.7</ele>
        <time>2025-02-26T15:37:28Z</time>
      </trkpt>
      <trkpt lat="48.0221" lon="-3.49675">
        <ele>97.7</ele>
        <time>2025-02-26T15:37:29Z</time>
      </trkpt>
      <trkpt lat="48.02211" lon="-3.49678">
        <ele>97.6</ele>
        <time>2025-02-26T15:37:30Z</time>
      </trkpt>
      <trkpt lat="48.02212" lon="-3.49679">
        <ele>97.6</ele>
        <time>2025-02-26T15:37:31Z</time>
      </trkpt>
      <trkpt lat="48.02213" lon="-3.4968">
        <ele>97.5</ele>
        <time>2025-02-26T15:37:32Z</time>
      </trkpt>
      <trkpt lat="48.02214" lon="-3.49681">
        <ele>97.5</ele>
        <time>2025-02-26T15:37:33Z</time>
      </trkpt>
      <trkpt lat="48.02215" lon="-3.49683">
        <ele>97.4</ele>
        <time>2025-02-26T15:37:34Z</time>
      </trkpt>
      <trkpt lat="48.02215" lon="-3.49684">
        <ele>97.4</ele>
        <time>2025-02-26T15:37:35Z</time>
      </trkpt>
      <trkpt lat="48.02216" lon="-3.49686">
        <ele>97.3</ele>
        <time>2025-02-26T15:37:36Z</time>
      </trkpt>
      <trkpt lat="48.02217" lon="-3.49686">
        <ele>97.3</ele>
        <time>2025-02-26T15:37:37Z</time>
      </trkpt>
      <trkpt lat="48.02219" lon="-3.49686">
        <ele>97.3</ele>
        <time>2025-02-26T15:37:38Z</time>
      </trkpt>
      <trkpt lat="48.02221" lon="-3.49686">
        <ele>97.3</ele>
        <time>2025-02-26T15:37:39Z</time>
      </trkpt>
      <trkpt lat="48.02222" lon="-3.49686">
        <ele>97.3</ele>
        <time>2025-02-26T15:37:40Z</time>
      </trkpt>
      <trkpt lat="48.02223" lon="-3.49685">
        <ele>97.4</ele>
        <time>2025-02-26T15:37:41Z</time>
      </trkpt>
      <trkpt lat="48.02224" lon="-3.49687">
        <ele>97.4</ele>
        <time>2025-02-26T15:37:42Z</time>
      </trkpt>
      <trkpt lat="48.02226" lon="-3.49687">
        <ele>97.5</ele>
        <time>2025-02-26T15:37:43Z</time>
      </trkpt>
      <trkpt lat="48.02227" lon="-3.49687">
        <ele>97.6</ele>
        <time>2025-02-26T15:37:44Z</time>
      </trkpt>
      <trkpt lat="48.02228" lon="-3.49688">
        <ele>97.7</ele>
        <time>2025-02-26T15:37:45Z</time>
      </trkpt>
      <trkpt lat="48.02229" lon="-3.49688">
        <ele>97.7</ele>
        <time>2025-02-26T15:37:46Z</time>
      </trkpt>
      <trkpt lat="48.0223" lon="-3.49688">
        <ele>97.8</ele>
        <time>2025-02-26T15:37:47Z</time>
      </trkpt>
      <trkpt lat="48.02232" lon="-3.49688">
        <ele>97.9</ele>
        <time>2025-02-26T15:37:48Z</time>
      </trkpt>
      <trkpt lat="48.02233" lon="-3.49688">
        <ele>98</ele>
        <time>2025-02-26T15:37:49Z</time>
      </trkpt>
      <trkpt lat="48.02235" lon="-3.49688">
        <ele>98.1</ele>
        <time>2025-02-26T15:37:50Z</time>
      </trkpt>
      <trkpt lat="48.02236" lon="-3.49688">
        <ele>98.2</ele>
        <time>2025-02-26T15:37:51Z</time>
      </trkpt>
      <trkpt lat="48.02237" lon="-3.49689">
        <ele>98.3</ele>
        <time>2025-02-26T15:37:52Z</time>
      </trkpt>
      <trkpt lat="48.02238" lon="-3.49689">
        <ele>98.3</ele>
        <time>2025-02-26T15:37:53Z</time>
      </trkpt>
      <trkpt lat="48.02239" lon="-3.49689">
        <ele>98.4</ele>
        <time>2025-02-26T15:37:54Z</time>
      </trkpt>
      <trkpt lat="48.0224" lon="-3.49689">
        <ele>98.5</ele>
        <time>2025-02-26T15:37:55Z</time>
      </trkpt>
      <trkpt lat="48.02242" lon="-3.49689">
        <ele>98.6</ele>
        <time>2025-02-26T15:37:56Z</time>
      </trkpt>
      <trkpt lat="48.02243" lon="-3.49689">
        <ele>98.7</ele>
        <time>2025-02-26T15:37:57Z</time>
      </trkpt>
      <trkpt lat="48.02244" lon="-3.4969">
        <ele>98.7</ele>
        <time>2025-02-26T15:37:58Z</time>
      </trkpt>
      <trkpt lat="48.02245" lon="-3.49689">
        <ele>98.8</ele>
        <time>2025-02-26T15:37:59Z</time>
      </trkpt>
      <trkpt lat="48.02247" lon="-3.4969">
        <ele>98.9</ele>
        <time>2025-02-26T15:38:00Z</time>
      </trkpt>
      <trkpt lat="48.02248" lon="-3.4969">
        <ele>99</ele>
        <time>2025-02-26T15:38:01Z</time>
      </trkpt>
      <trkpt lat="48.02249" lon="-3.49691">
        <ele>99</ele>
        <time>2025-02-26T15:38:02Z</time>
      </trkpt>
      <trkpt lat="48.0225" lon="-3.49692">
        <ele>99.1</ele>
        <time>2025-02-26T15:38:03Z</time>
      </trkpt>
      <trkpt lat="48.02251" lon="-3.49693">
        <ele>99.1</ele>
        <time>2025-02-26T15:38:04Z</time>
      </trkpt>
      <trkpt lat="48.02252" lon="-3.49693">
        <ele>99.1</ele>
        <time>2025-02-26T15:38:05Z</time>
      </trkpt>
      <trkpt lat="48.02253" lon="-3.49694">
        <ele>99.1</ele>
        <time>2025-02-26T15:38:06Z</time>
      </trkpt>
      <trkpt lat="48.02254" lon="-3.49695">
        <ele>99.1</ele>
        <time>2025-02-26T15:38:07Z</time>
      </trkpt>
      <trkpt lat="48.02254" lon="-3.49697">
        <ele>99.1</ele>
        <time>2025-02-26T15:38:08Z</time>
      </trkpt>
      <trkpt lat="48.02255" lon="-3.49698">
        <ele>99.1</ele>
        <time>2025-02-26T15:38:09Z</time>
      </trkpt>
      <trkpt lat="48.02256" lon="-3.49699">
        <ele>99.1</ele>
        <time>2025-02-26T15:38:10Z</time>
      </trkpt>
      <trkpt lat="48.02257" lon="-3.49699">
        <ele>99.1</ele>
        <time>2025-02-26T15:38:11Z</time>
      </trkpt>
      <trkpt lat="48.02258" lon="-3.497">
        <ele>99.1</ele>
        <time>2025-02-26T15:38:12Z</time>
      </trkpt>
      <trkpt lat="48.02259" lon="-3.49702">
        <ele>99.1</ele>
        <time>2025-02-26T15:38:13Z</time>
      </trkpt>
      <trkpt lat="48.0226" lon="-3.49703">
        <ele>99</ele>
        <time>2025-02-26T15:38:14Z</time>
      </trkpt>
      <trkpt lat="48.02261" lon="-3.49704">
        <ele>99</ele>
        <time>2025-02-26T15:38:15Z</time>
      </trkpt>
      <trkpt lat="48.02261" lon="-3.49706">
        <ele>99</ele>
        <time>2025-02-26T15:38:16Z</time>
      </trkpt>
      <trkpt lat="48.02262" lon="-3.49707">
        <ele>99</ele>
        <time>2025-02-26T15:38:17Z</time>
      </trkpt>
      <trkpt lat="48.02263" lon="-3.49708">
        <ele>99</ele>
        <time>2025-02-26T15:38:18Z</time>
      </trkpt>
      <trkpt lat="48.02264" lon="-3.49708">
        <ele>99</ele>
        <time>2025-02-26T15:38:19Z</time>
      </trkpt>
      <trkpt lat="48.02266" lon="-3.49709">
        <ele>99</ele>
        <time>2025-02-26T15:38:20Z</time>
      </trkpt>
      <trkpt lat="48.02266" lon="-3.4971">
        <ele>99</ele>
        <time>2025-02-26T15:38:21Z</time>
      </trkpt>
      <trkpt lat="48.02267" lon="-3.49711">
        <ele>99</ele>
        <time>2025-02-26T15:38:22Z</time>
      </trkpt>
      <trkpt lat="48.02268" lon="-3.49712">
        <ele>99</ele>
        <time>2025-02-26T15:38:23Z</time>
      </trkpt>
      <trkpt lat="48.02269" lon="-3.49713">
        <ele>99</ele>
        <time>2025-02-26T15:38:24Z</time>
      </trkpt>
      <trkpt lat="48.02269" lon="-3.49714">
        <ele>99</ele>
        <time>2025-02-26T15:38:25Z</time>
      </trkpt>
      <trkpt lat="48.0227" lon="-3.49715">
        <ele>99</ele>
        <time>2025-02-26T15:38:26Z</time>
      </trkpt>
      <trkpt lat="48.02271" lon="-3.49716">
        <ele>99</ele>
        <time>2025-02-26T15:38:27Z</time>
      </trkpt>
      <trkpt lat="48.02272" lon="-3.49718">
        <ele>98.9</ele>
        <time>2025-02-26T15:38:28Z</time>
      </trkpt>
      <trkpt lat="48.02273" lon="-3.49719">
        <ele>98.9</ele>
        <time>2025-02-26T15:38:29Z</time>
      </trkpt>
      <trkpt lat="48.02273" lon="-3.4972">
        <ele>98.9</ele>
        <time>2025-02-26T15:38:30Z</time>
      </trkpt>
      <trkpt lat="48.02274" lon="-3.49722">
        <ele>98.9</ele>
        <time>2025-02-26T15:38:31Z</time>
      </trkpt>
      <trkpt lat="48.02275" lon="-3.49724">
        <ele>98.9</ele>
        <time>2025-02-26T15:38:32Z</time>
      </trkpt>
      <trkpt lat="48.02275" lon="-3.49726">
        <ele>98.9</ele>
        <time>2025-02-26T15:38:33Z</time>
      </trkpt>
      <trkpt lat="48.02276" lon="-3.49727">
        <ele>98.9</ele>
        <time>2025-02-26T15:38:34Z</time>
      </trkpt>
      <trkpt lat="48.02276" lon="-3.49728">
        <ele>98.9</ele>
        <time>2025-02-26T15:38:35Z</time>
      </trkpt>
      <trkpt lat="48.02277" lon="-3.49729">
        <ele>99</ele>
        <time>2025-02-26T15:38:36Z</time>
      </trkpt>
      <trkpt lat="48.02277" lon="-3.49732">
        <ele>99</ele>
        <time>2025-02-26T15:38:37Z</time>
      </trkpt>
      <trkpt lat="48.02276" lon="-3.49734">
        <ele>99</ele>
        <time>2025-02-26T15:38:38Z</time>
      </trkpt>
      <trkpt lat="48.02276" lon="-3.49735">
        <ele>98.9</ele>
        <time>2025-02-26T15:38:39Z</time>
      </trkpt>
      <trkpt lat="48.02277" lon="-3.49737">
        <ele>99</ele>
        <time>2025-02-26T15:38:40Z</time>
      </trkpt>
      <trkpt lat="48.02277" lon="-3.49739">
        <ele>99</ele>
        <time>2025-02-26T15:38:41Z</time>
      </trkpt>
      <trkpt lat="48.02278" lon="-3.4974">
        <ele>99</ele>
        <time>2025-02-26T15:38:42Z</time>
      </trkpt>
      <trkpt lat="48.02278" lon="-3.49742">
        <ele>99</ele>
        <time>2025-02-26T15:38:43Z</time>
      </trkpt>
      <trkpt lat="48.02279" lon="-3.49743">
        <ele>99.1</ele>
        <time>2025-02-26T15:38:44Z</time>
      </trkpt>
      <trkpt lat="48.02279" lon="-3.49745">
        <ele>99.1</ele>
        <time>2025-02-26T15:38:45Z</time>
      </trkpt>
      <trkpt lat="48.02279" lon="-3.49747">
        <ele>99.1</ele>
        <time>2025-02-26T15:38:46Z</time>
      </trkpt>
      <trkpt lat="48.0228" lon="-3.49748">
        <ele>99.1</ele>
        <time>2025-02-26T15:38:47Z</time>
      </trkpt>
      <trkpt lat="48.0228" lon="-3.4975">
        <ele>99.1</ele>
        <time>2025-02-26T15:38:48Z</time>
      </trkpt>
      <trkpt lat="48.02281" lon="-3.49751">
        <ele>99.2</ele>
        <time>2025-02-26T15:38:49Z</time>
      </trkpt>
      <trkpt lat="48.02281" lon="-3.49752">
        <ele>99.3</ele>
        <time>2025-02-26T15:38:50Z</time>
      </trkpt>
      <trkpt lat="48.02282" lon="-3.49754">
        <ele>99.4</ele>
        <time>2025-02-26T15:38:51Z</time>
      </trkpt>
      <trkpt lat="48.02283" lon="-3.49755">
        <ele>99.5</ele>
        <time>2025-02-26T15:38:52Z</time>
      </trkpt>
      <trkpt lat="48.02283" lon="-3.49757">
        <ele>99.6</ele>
        <time>2025-02-26T15:38:53Z</time>
      </trkpt>
      <trkpt lat="48.02283" lon="-3.49759">
        <ele>99.6</ele>
        <time>2025-02-26T15:38:54Z</time>
      </trkpt>
      <trkpt lat="48.02284" lon="-3.49761">
        <ele>99.7</ele>
        <time>2025-02-26T15:38:55Z</time>
      </trkpt>
      <trkpt lat="48.02285" lon="-3.49762">
        <ele>99.8</ele>
        <time>2025-02-26T15:38:56Z</time>
      </trkpt>
      <trkpt lat="48.02285" lon="-3.49763">
        <ele>99.9</ele>
        <time>2025-02-26T15:38:57Z</time>
      </trkpt>
      <trkpt lat="48.02286" lon="-3.49765">
        <ele>99.9</ele>
        <time>2025-02-26T15:38:58Z</time>
      </trkpt>
      <trkpt lat="48.02286" lon="-3.49767">
        <ele>100</ele>
        <time>2025-02-26T15:38:59Z</time>
      </trkpt>
      <trkpt lat="48.02287" lon="-3.49769">
        <ele>100.1</ele>
        <time>2025-02-26T15:39:00Z</time>
      </trkpt>
      <trkpt lat="48.02286" lon="-3.49771">
        <ele>100.1</ele>
        <time>2025-02-26T15:39:01Z</time>
      </trkpt>
      <trkpt lat="48.02286" lon="-3.49772">
        <ele>100.2</ele>
        <time>2025-02-26T15:39:02Z</time>
      </trkpt>
      <trkpt lat="48.02287" lon="-3.49774">
        <ele>100.2</ele>
        <time>2025-02-26T15:39:03Z</time>
      </trkpt>
      <trkpt lat="48.02287" lon="-3.49775">
        <ele>100.3</ele>
        <time>2025-02-26T15:39:04Z</time>
      </trkpt>
      <trkpt lat="48.02286" lon="-3.49777">
        <ele>100.3</ele>
        <time>2025-02-26T15:39:05Z</time>
      </trkpt>
      <trkpt lat="48.02286" lon="-3.49779">
        <ele>100.3</ele>
        <time>2025-02-26T15:39:06Z</time>
      </trkpt>
      <trkpt lat="48.02286" lon="-3.49781">
        <ele>100.3</ele>
        <time>2025-02-26T15:39:07Z</time>
      </trkpt>
      <trkpt lat="48.02286" lon="-3.49782">
        <ele>100.3</ele>
        <time>2025-02-26T15:39:08Z</time>
      </trkpt>
      <trkpt lat="48.02286" lon="-3.49784">
        <ele>100.3</ele>
        <time>2025-02-26T15:39:09Z</time>
      </trkpt>
      <trkpt lat="48.02285" lon="-3.49785">
        <ele>100.2</ele>
        <time>2025-02-26T15:39:10Z</time>
      </trkpt>
      <trkpt lat="48.02284" lon="-3.49787">
        <ele>100.2</ele>
        <time>2025-02-26T15:39:11Z</time>
      </trkpt>
      <trkpt lat="48.02284" lon="-3.49789">
        <ele>100.2</ele>
        <time>2025-02-26T15:39:12Z</time>
      </trkpt>
      <trkpt lat="48.02283" lon="-3.4979">
        <ele>100.2</ele>
        <time>2025-02-26T15:39:13Z</time>
      </trkpt>
      <trkpt lat="48.02282" lon="-3.49791">
        <ele>100.1</ele>
        <time>2025-02-26T15:39:14Z</time>
      </trkpt>
      <trkpt lat="48.02281" lon="-3.49793">
        <ele>100.1</ele>
        <time>2025-02-26T15:39:15Z</time>
      </trkpt>
      <trkpt lat="48.0228" lon="-3.49794">
        <ele>100.1</ele>
        <time>2025-02-26T15:39:16Z</time>
      </trkpt>
      <trkpt lat="48.02279" lon="-3.49795">
        <ele>100</ele>
        <time>2025-02-26T15:39:17Z</time>
      </trkpt>
      <trkpt lat="48.02278" lon="-3.49796">
        <ele>100</ele>
        <time>2025-02-26T15:39:18Z</time>
      </trkpt>
      <trkpt lat="48.02277" lon="-3.49798">
        <ele>100</ele>
        <time>2025-02-26T15:39:19Z</time>
      </trkpt>
      <trkpt lat="48.02277" lon="-3.498">
        <ele>100</ele>
        <time>2025-02-26T15:39:20Z</time>
      </trkpt>
      <trkpt lat="48.02277" lon="-3.49802">
        <ele>100</ele>
        <time>2025-02-26T15:39:21Z</time>
      </trkpt>
      <trkpt lat="48.02277" lon="-3.49804">
        <ele>100</ele>
        <time>2025-02-26T15:39:22Z</time>
      </trkpt>
      <trkpt lat="48.02276" lon="-3.49806">
        <ele>99.9</ele>
        <time>2025-02-26T15:39:23Z</time>
      </trkpt>
      <trkpt lat="48.02275" lon="-3.49807">
        <ele>99.9</ele>
        <time>2025-02-26T15:39:24Z</time>
      </trkpt>
      <trkpt lat="48.02274" lon="-3.49809">
        <ele>99.9</ele>
        <time>2025-02-26T15:39:25Z</time>
      </trkpt>
      <trkpt lat="48.02274" lon="-3.4981">
        <ele>99.8</ele>
        <time>2025-02-26T15:39:26Z</time>
      </trkpt>
      <trkpt lat="48.02273" lon="-3.49812">
        <ele>99.8</ele>
        <time>2025-02-26T15:39:27Z</time>
      </trkpt>
      <trkpt lat="48.02273" lon="-3.49814">
        <ele>99.8</ele>
        <time>2025-02-26T15:39:28Z</time>
      </trkpt>
      <trkpt lat="48.02272" lon="-3.49816">
        <ele>99.8</ele>
        <time>2025-02-26T15:39:29Z</time>
      </trkpt>
      <trkpt lat="48.02272" lon="-3.49817">
        <ele>99.8</ele>
        <time>2025-02-26T15:39:30Z</time>
      </trkpt>
      <trkpt lat="48.02271" lon="-3.49819">
        <ele>99.8</ele>
        <time>2025-02-26T15:39:31Z</time>
      </trkpt>
      <trkpt lat="48.02271" lon="-3.4982">
        <ele>99.7</ele>
        <time>2025-02-26T15:39:32Z</time>
      </trkpt>
      <trkpt lat="48.0227" lon="-3.49822">
        <ele>99.7</ele>
        <time>2025-02-26T15:39:33Z</time>
      </trkpt>
      <trkpt lat="48.0227" lon="-3.49824">
        <ele>99.7</ele>
        <time>2025-02-26T15:39:34Z</time>
      </trkpt>
      <trkpt lat="48.02269" lon="-3.49826">
        <ele>99.7</ele>
        <time>2025-02-26T15:39:35Z</time>
      </trkpt>
      <trkpt lat="48.02269" lon="-3.49827">
        <ele>99.7</ele>
        <time>2025-02-26T15:39:36Z</time>
      </trkpt>
      <trkpt lat="48.02268" lon="-3.49829">
        <ele>99.7</ele>
        <time>2025-02-26T15:39:37Z</time>
      </trkpt>
      <trkpt lat="48.02268" lon="-3.49831">
        <ele>99.6</ele>
        <time>2025-02-26T15:39:38Z</time>
      </trkpt>
      <trkpt lat="48.02267" lon="-3.49833">
        <ele>99.6</ele>
        <time>2025-02-26T15:39:39Z</time>
      </trkpt>
      <trkpt lat="48.02266" lon="-3.49835">
        <ele>99.6</ele>
        <time>2025-02-26T15:39:40Z</time>
      </trkpt>
      <trkpt lat="48.02265" lon="-3.49837">
        <ele>99.7</ele>
        <time>2025-02-26T15:39:41Z</time>
      </trkpt>
      <trkpt lat="48.02264" lon="-3.49838">
        <ele>99.8</ele>
        <time>2025-02-26T15:39:42Z</time>
      </trkpt>
      <trkpt lat="48.02263" lon="-3.4984">
        <ele>99.8</ele>
        <time>2025-02-26T15:39:43Z</time>
      </trkpt>
      <trkpt lat="48.02262" lon="-3.49842">
        <ele>99.9</ele>
        <time>2025-02-26T15:39:44Z</time>
      </trkpt>
      <trkpt lat="48.02261" lon="-3.49843">
        <ele>99.9</ele>
        <time>2025-02-26T15:39:45Z</time>
      </trkpt>
      <trkpt lat="48.02261" lon="-3.49844">
        <ele>100</ele>
        <time>2025-02-26T15:39:46Z</time>
      </trkpt>
      <trkpt lat="48.0226" lon="-3.49846">
        <ele>100.1</ele>
        <time>2025-02-26T15:39:47Z</time>
      </trkpt>
      <trkpt lat="48.0226" lon="-3.49847">
        <ele>100.2</ele>
        <time>2025-02-26T15:39:48Z</time>
      </trkpt>
      <trkpt lat="48.02259" lon="-3.49849">
        <ele>100.2</ele>
        <time>2025-02-26T15:39:49Z</time>
      </trkpt>
      <trkpt lat="48.02258" lon="-3.4985">
        <ele>100.3</ele>
        <time>2025-02-26T15:39:50Z</time>
      </trkpt>
      <trkpt lat="48.02258" lon="-3.49851">
        <ele>100.4</ele>
        <time>2025-02-26T15:39:51Z</time>
      </trkpt>
      <trkpt lat="48.02258" lon="-3.49853">
        <ele>100.5</ele>
        <time>2025-02-26T15:39:52Z</time>
      </trkpt>
      <trkpt lat="48.02258" lon="-3.49855">
        <ele>100.6</ele>
        <time>2025-02-26T15:39:53Z</time>
      </trkpt>
      <trkpt lat="48.02257" lon="-3.49856">
        <ele>100.7</ele>
        <time>2025-02-26T15:39:54Z</time>
      </trkpt>
      <trkpt lat="48.02257" lon="-3.49857">
        <ele>100.8</ele>
        <time>2025-02-26T15:39:55Z</time>
      </trkpt>
      <trkpt lat="48.02256" lon="-3.49859">
        <ele>100.9</ele>
        <time>2025-02-26T15:39:56Z</time>
      </trkpt>
      <trkpt lat="48.02256" lon="-3.4986">
        <ele>100.9</ele>
        <time>2025-02-26T15:39:57Z</time>
      </trkpt>
      <trkpt lat="48.02255" lon="-3.49862">
        <ele>101</ele>
        <time>2025-02-26T15:39:58Z</time>
      </trkpt>
      <trkpt lat="48.02255" lon="-3.49863">
        <ele>101.1</ele>
        <time>2025-02-26T15:39:59Z</time>
      </trkpt>
      <trkpt lat="48.02254" lon="-3.49864">
        <ele>101.1</ele>
        <time>2025-02-26T15:40:00Z</time>
      </trkpt>
      <trkpt lat="48.02254" lon="-3.49866">
        <ele>101.2</ele>
        <time>2025-02-26T15:40:01Z</time>
      </trkpt>
      <trkpt lat="48.02253" lon="-3.49867">
        <ele>101.2</ele>
        <time>2025-02-26T15:40:02Z</time>
      </trkpt>
      <trkpt lat="48.02253" lon="-3.49869">
        <ele>101.3</ele>
        <time>2025-02-26T15:40:03Z</time>
      </trkpt>
      <trkpt lat="48.02252" lon="-3.4987">
        <ele>101.3</ele>
        <time>2025-02-26T15:40:04Z</time>
      </trkpt>
      <trkpt lat="48.02252" lon="-3.49871">
        <ele>101.4</ele>
        <time>2025-02-26T15:40:05Z</time>
      </trkpt>
      <trkpt lat="48.02252" lon="-3.49873">
        <ele>101.4</ele>
        <time>2025-02-26T15:40:06Z</time>
      </trkpt>
      <trkpt lat="48.02252" lon="-3.49874">
        <ele>101.5</ele>
        <time>2025-02-26T15:40:07Z</time>
      </trkpt>
      <trkpt lat="48.02251" lon="-3.49876">
        <ele>101.5</ele>
        <time>2025-02-26T15:40:08Z</time>
      </trkpt>
      <trkpt lat="48.0225" lon="-3.49877">
        <ele>101.6</ele>
        <time>2025-02-26T15:40:09Z</time>
      </trkpt>
      <trkpt lat="48.0225" lon="-3.49879">
        <ele>101.6</ele>
        <time>2025-02-26T15:40:10Z</time>
      </trkpt>
      <trkpt lat="48.0225" lon="-3.4988">
        <ele>101.7</ele>
        <time>2025-02-26T15:40:11Z</time>
      </trkpt>
      <trkpt lat="48.02249" lon="-3.49882">
        <ele>101.7</ele>
        <time>2025-02-26T15:40:12Z</time>
      </trkpt>
      <trkpt lat="48.02249" lon="-3.49883">
        <ele>101.8</ele>
        <time>2025-02-26T15:40:13Z</time>
      </trkpt>
      <trkpt lat="48.02249" lon="-3.49885">
        <ele>101.8</ele>
        <time>2025-02-26T15:40:14Z</time>
      </trkpt>
      <trkpt lat="48.02249" lon="-3.49886">
        <ele>101.9</ele>
        <time>2025-02-26T15:40:15Z</time>
      </trkpt>
      <trkpt lat="48.02249" lon="-3.49887">
        <ele>101.9</ele>
        <time>2025-02-26T15:40:16Z</time>
      </trkpt>
      <trkpt lat="48.02248" lon="-3.49889">
        <ele>102</ele>
        <time>2025-02-26T15:40:17Z</time>
      </trkpt>
      <trkpt lat="48.02248" lon="-3.4989">
        <ele>102</ele>
        <time>2025-02-26T15:40:18Z</time>
      </trkpt>
      <trkpt lat="48.02247" lon="-3.49891">
        <ele>102.1</ele>
        <time>2025-02-26T15:40:19Z</time>
      </trkpt>
      <trkpt lat="48.02247" lon="-3.49892">
        <ele>102.1</ele>
        <time>2025-02-26T15:40:20Z</time>
      </trkpt>
      <trkpt lat="48.02246" lon="-3.49894">
        <ele>102.2</ele>
        <time>2025-02-26T15:40:21Z</time>
      </trkpt>
      <trkpt lat="48.02245" lon="-3.49895">
        <ele>102.3</ele>
        <time>2025-02-26T15:40:22Z</time>
      </trkpt>
      <trkpt lat="48.02245" lon="-3.49896">
        <ele>102.3</ele>
        <time>2025-02-26T15:40:23Z</time>
      </trkpt>
      <trkpt lat="48.02245" lon="-3.49898">
        <ele>102.4</ele>
        <time>2025-02-26T15:40:24Z</time>
      </trkpt>
      <trkpt lat="48.02244" lon="-3.499">
        <ele>102.5</ele>
        <time>2025-02-26T15:40:25Z</time>
      </trkpt>
      <trkpt lat="48.02244" lon="-3.49901">
        <ele>102.5</ele>
        <time>2025-02-26T15:40:26Z</time>
      </trkpt>
      <trkpt lat="48.02244" lon="-3.49903">
        <ele>102.6</ele>
        <time>2025-02-26T15:40:27Z</time>
      </trkpt>
      <trkpt lat="48.02244" lon="-3.49905">
        <ele>102.7</ele>
        <time>2025-02-26T15:40:28Z</time>
      </trkpt>
      <trkpt lat="48.02244" lon="-3.49906">
        <ele>102.8</ele>
        <time>2025-02-26T15:40:29Z</time>
      </trkpt>
      <trkpt lat="48.02243" lon="-3.49908">
        <ele>102.9</ele>
        <time>2025-02-26T15:40:30Z</time>
      </trkpt>
      <trkpt lat="48.02242" lon="-3.49909">
        <ele>102.9</ele>
        <time>2025-02-26T15:40:31Z</time>
      </trkpt>
      <trkpt lat="48.02241" lon="-3.4991">
        <ele>103</ele>
        <time>2025-02-26T15:40:32Z</time>
      </trkpt>
      <trkpt lat="48.0224" lon="-3.49912">
        <ele>103.1</ele>
        <time>2025-02-26T15:40:33Z</time>
      </trkpt>
      <trkpt lat="48.0224" lon="-3.49913">
        <ele>103.2</ele>
        <time>2025-02-26T15:40:34Z</time>
      </trkpt>
      <trkpt lat="48.0224" lon="-3.49915">
        <ele>103.3</ele>
        <time>2025-02-26T15:40:35Z</time>
      </trkpt>
      <trkpt lat="48.02239" lon="-3.49917">
        <ele>103.4</ele>
        <time>2025-02-26T15:40:36Z</time>
      </trkpt>
      <trkpt lat="48.02239" lon="-3.49919">
        <ele>103.5</ele>
        <time>2025-02-26T15:40:37Z</time>
      </trkpt>
      <trkpt lat="48.02239" lon="-3.4992">
        <ele>103.6</ele>
        <time>2025-02-26T15:40:38Z</time>
      </trkpt>
      <trkpt lat="48.02238" lon="-3.49921">
        <ele>103.6</ele>
        <time>2025-02-26T15:40:39Z</time>
      </trkpt>
      <trkpt lat="48.02238" lon="-3.49923">
        <ele>103.7</ele>
        <time>2025-02-26T15:40:40Z</time>
      </trkpt>
      <trkpt lat="48.02237" lon="-3.49924">
        <ele>103.7</ele>
        <time>2025-02-26T15:40:41Z</time>
      </trkpt>
      <trkpt lat="48.02237" lon="-3.49925">
        <ele>103.8</ele>
        <time>2025-02-26T15:40:42Z</time>
      </trkpt>
      <trkpt lat="48.02236" lon="-3.49926">
        <ele>103.8</ele>
        <time>2025-02-26T15:40:43Z</time>
      </trkpt>
      <trkpt lat="48.02236" lon="-3.49928">
        <ele>103.9</ele>
        <time>2025-02-26T15:40:44Z</time>
      </trkpt>
      <trkpt lat="48.02235" lon="-3.4993">
        <ele>104</ele>
        <time>2025-02-26T15:40:45Z</time>
      </trkpt>
      <trkpt lat="48.02236" lon="-3.49931">
        <ele>104</ele>
        <time>2025-02-26T15:40:46Z</time>
      </trkpt>
      <trkpt lat="48.02235" lon="-3.49933">
        <ele>104.1</ele>
        <time>2025-02-26T15:40:47Z</time>
      </trkpt>
      <trkpt lat="48.02235" lon="-3.49934">
        <ele>104.1</ele>
        <time>2025-02-26T15:40:48Z</time>
      </trkpt>
      <trkpt lat="48.02235" lon="-3.49937">
        <ele>104.2</ele>
        <time>2025-02-26T15:40:49Z</time>
      </trkpt>
      <trkpt lat="48.02234" lon="-3.49939">
        <ele>104.2</ele>
        <time>2025-02-26T15:40:50Z</time>
      </trkpt>
      <trkpt lat="48.02234" lon="-3.49941">
        <ele>104.3</ele>
        <time>2025-02-26T15:40:51Z</time>
      </trkpt>
      <trkpt lat="48.02234" lon="-3.49942">
        <ele>104.3</ele>
        <time>2025-02-26T15:40:52Z</time>
      </trkpt>
      <trkpt lat="48.02234" lon="-3.49943">
        <ele>104.4</ele>
        <time>2025-02-26T15:40:53Z</time>
      </trkpt>
      <trkpt lat="48.02234" lon="-3.49945">
        <ele>104.4</ele>
        <time>2025-02-26T15:40:54Z</time>
      </trkpt>
      <trkpt lat="48.02235" lon="-3.49946">
        <ele>104.5</ele>
        <time>2025-02-26T15:40:55Z</time>
      </trkpt>
      <trkpt lat="48.02235" lon="-3.49947">
        <ele>104.5</ele>
        <time>2025-02-26T15:40:56Z</time>
      </trkpt>
      <trkpt lat="48.02236" lon="-3.49948">
        <ele>104.6</ele>
        <time>2025-02-26T15:40:57Z</time>
      </trkpt>
      <trkpt lat="48.02237" lon="-3.49949">
        <ele>104.6</ele>
        <time>2025-02-26T15:40:58Z</time>
      </trkpt>
      <trkpt lat="48.02238" lon="-3.4995">
        <ele>104.6</ele>
        <time>2025-02-26T15:40:59Z</time>
      </trkpt>
      <trkpt lat="48.02239" lon="-3.49951">
        <ele>104.7</ele>
        <time>2025-02-26T15:41:00Z</time>
      </trkpt>
      <trkpt lat="48.02239" lon="-3.49952">
        <ele>104.7</ele>
        <time>2025-02-26T15:41:01Z</time>
      </trkpt>
      <trkpt lat="48.0224" lon="-3.49953">
        <ele>104.7</ele>
        <time>2025-02-26T15:41:02Z</time>
      </trkpt>
      <trkpt lat="48.0224" lon="-3.49954">
        <ele>104.8</ele>
        <time>2025-02-26T15:41:03Z</time>
      </trkpt>
      <trkpt lat="48.02241" lon="-3.49956">
        <ele>104.8</ele>
        <time>2025-02-26T15:41:04Z</time>
      </trkpt>
      <trkpt lat="48.02242" lon="-3.49956">
        <ele>104.8</ele>
        <time>2025-02-26T15:41:05Z</time>
      </trkpt>
      <trkpt lat="48.02243" lon="-3.49957">
        <ele>104.9</ele>
        <time>2025-02-26T15:41:06Z</time>
      </trkpt>
      <trkpt lat="48.02243" lon="-3.49959">
        <ele>104.9</ele>
        <time>2025-02-26T15:41:07Z</time>
      </trkpt>
      <trkpt lat="48.02244" lon="-3.4996">
        <ele>104.9</ele>
        <time>2025-02-26T15:41:08Z</time>
      </trkpt>
      <trkpt lat="48.02245" lon="-3.49962">
        <ele>104.9</ele>
        <time>2025-02-26T15:41:09Z</time>
      </trkpt>
      <trkpt lat="48.02245" lon="-3.49963">
        <ele>104.9</ele>
        <time>2025-02-26T15:41:10Z</time>
      </trkpt>
      <trkpt lat="48.02246" lon="-3.49965">
        <ele>105</ele>
        <time>2025-02-26T15:41:11Z</time>
      </trkpt>
      <trkpt lat="48.02247" lon="-3.49966">
        <ele>105</ele>
        <time>2025-02-26T15:41:12Z</time>
      </trkpt>
      <trkpt lat="48.02247" lon="-3.49967">
        <ele>105</ele>
        <time>2025-02-26T15:41:13Z</time>
      </trkpt>
      <trkpt lat="48.02248" lon="-3.49968">
        <ele>105</ele>
        <time>2025-02-26T15:41:14Z</time>
      </trkpt>
      <trkpt lat="48.02248" lon="-3.4997">
        <ele>105</ele>
        <time>2025-02-26T15:41:15Z</time>
      </trkpt>
      <trkpt lat="48.02248" lon="-3.49972">
        <ele>105</ele>
        <time>2025-02-26T15:41:16Z</time>
      </trkpt>
      <trkpt lat="48.02249" lon="-3.49974">
        <ele>105</ele>
        <time>2025-02-26T15:41:17Z</time>
      </trkpt>
      <trkpt lat="48.02249" lon="-3.49975">
        <ele>105</ele>
        <time>2025-02-26T15:41:18Z</time>
      </trkpt>
      <trkpt lat="48.0225" lon="-3.49976">
        <ele>105</ele>
        <time>2025-02-26T15:41:19Z</time>
      </trkpt>
      <trkpt lat="48.02251" lon="-3.49977">
        <ele>105</ele>
        <time>2025-02-26T15:41:20Z</time>
      </trkpt>
      <trkpt lat="48.02252" lon="-3.49979">
        <ele>105.1</ele>
        <time>2025-02-26T15:41:21Z</time>
      </trkpt>
      <trkpt lat="48.02252" lon="-3.4998">
        <ele>105.1</ele>
        <time>2025-02-26T15:41:22Z</time>
      </trkpt>
      <trkpt lat="48.02253" lon="-3.49981">
        <ele>105.1</ele>
        <time>2025-02-26T15:41:23Z</time>
      </trkpt>
      <trkpt lat="48.02254" lon="-3.49982">
        <ele>105.1</ele>
        <time>2025-02-26T15:41:24Z</time>
      </trkpt>
      <trkpt lat="48.02254" lon="-3.49984">
        <ele>105.2</ele>
        <time>2025-02-26T15:41:25Z</time>
      </trkpt>
      <trkpt lat="48.02255" lon="-3.49985">
        <ele>105.2</ele>
        <time>2025-02-26T15:41:26Z</time>
      </trkpt>
      <trkpt lat="48.02256" lon="-3.49987">
        <ele>105.2</ele>
        <time>2025-02-26T15:41:27Z</time>
      </trkpt>
      <trkpt lat="48.02256" lon="-3.49989">
        <ele>105.2</ele>
        <time>2025-02-26T15:41:28Z</time>
      </trkpt>
      <trkpt lat="48.02257" lon="-3.4999">
        <ele>105.2</ele>
        <time>2025-02-26T15:41:29Z</time>
      </trkpt>
      <trkpt lat="48.02257" lon="-3.49992">
        <ele>105.3</ele>
        <time>2025-02-26T15:41:30Z</time>
      </trkpt>
      <trkpt lat="48.02258" lon="-3.49993">
        <ele>105.3</ele>
        <time>2025-02-26T15:41:31Z</time>
      </trkpt>
      <trkpt lat="48.02259" lon="-3.49994">
        <ele>105.3</ele>
        <time>2025-02-26T15:41:32Z</time>
      </trkpt>
      <trkpt lat="48.0226" lon="-3.49995">
        <ele>105.3</ele>
        <time>2025-02-26T15:41:33Z</time>
      </trkpt>
      <trkpt lat="48.0226" lon="-3.49996">
        <ele>105.4</ele>
        <time>2025-02-26T15:41:34Z</time>
      </trkpt>
      <trkpt lat="48.02261" lon="-3.49998">
        <ele>105.4</ele>
        <time>2025-02-26T15:41:35Z</time>
      </trkpt>
      <trkpt lat="48.02261" lon="-3.5">
        <ele>105.4</ele>
        <time>2025-02-26T15:41:36Z</time>
      </trkpt>
      <trkpt lat="48.02261" lon="-3.50001">
        <ele>105.4</ele>
        <time>2025-02-26T15:41:37Z</time>
      </trkpt>
      <trkpt lat="48.02262" lon="-3.50002">
        <ele>105.5</ele>
        <time>2025-02-26T15:41:38Z</time>
      </trkpt>
      <trkpt lat="48.02263" lon="-3.50004">
        <ele>105.5</ele>
        <time>2025-02-26T15:41:39Z</time>
      </trkpt>
      <trkpt lat="48.02263" lon="-3.50006">
        <ele>105.5</ele>
        <time>2025-02-26T15:41:40Z</time>
      </trkpt>
      <trkpt lat="48.02263" lon="-3.50008">
        <ele>105.6</ele>
        <time>2025-02-26T15:41:41Z</time>
      </trkpt>
      <trkpt lat="48.02265" lon="-3.50009">
        <ele>105.7</ele>
        <time>2025-02-26T15:41:42Z</time>
      </trkpt>
      <trkpt lat="48.02265" lon="-3.50011">
        <ele>105.7</ele>
        <time>2025-02-26T15:41:43Z</time>
      </trkpt>
      <trkpt lat="48.02265" lon="-3.50012">
        <ele>105.8</ele>
        <time>2025-02-26T15:41:44Z</time>
      </trkpt>
      <trkpt lat="48.02267" lon="-3.50013">
        <ele>105.9</ele>
        <time>2025-02-26T15:41:45Z</time>
      </trkpt>
      <trkpt lat="48.02267" lon="-3.50014">
        <ele>105.9</ele>
        <time>2025-02-26T15:41:46Z</time>
      </trkpt>
      <trkpt lat="48.02268" lon="-3.50015">
        <ele>106</ele>
        <time>2025-02-26T15:41:47Z</time>
      </trkpt>
      <trkpt lat="48.02268" lon="-3.50017">
        <ele>106</ele>
        <time>2025-02-26T15:41:48Z</time>
      </trkpt>
      <trkpt lat="48.02269" lon="-3.50018">
        <ele>106.1</ele>
        <time>2025-02-26T15:41:49Z</time>
      </trkpt>
      <trkpt lat="48.02269" lon="-3.5002">
        <ele>106.2</ele>
        <time>2025-02-26T15:41:50Z</time>
      </trkpt>
      <trkpt lat="48.0227" lon="-3.50021">
        <ele>106.2</ele>
        <time>2025-02-26T15:41:51Z</time>
      </trkpt>
      <trkpt lat="48.0227" lon="-3.50022">
        <ele>106.3</ele>
        <time>2025-02-26T15:41:52Z</time>
      </trkpt>
      <trkpt lat="48.02271" lon="-3.50023">
        <ele>106.4</ele>
        <time>2025-02-26T15:41:53Z</time>
      </trkpt>
      <trkpt lat="48.02271" lon="-3.50025">
        <ele>106.4</ele>
        <time>2025-02-26T15:41:54Z</time>
      </trkpt>
      <trkpt lat="48.02271" lon="-3.50027">
        <ele>106.5</ele>
        <time>2025-02-26T15:41:55Z</time>
      </trkpt>
      <trkpt lat="48.02272" lon="-3.50028">
        <ele>106.6</ele>
        <time>2025-02-26T15:41:56Z</time>
      </trkpt>
      <trkpt lat="48.02272" lon="-3.5003">
        <ele>106.6</ele>
        <time>2025-02-26T15:41:57Z</time>
      </trkpt>
      <trkpt lat="48.02273" lon="-3.50031">
        <ele>106.7</ele>
        <time>2025-02-26T15:41:58Z</time>
      </trkpt>
      <trkpt lat="48.02274" lon="-3.50031">
        <ele>106.7</ele>
        <time>2025-02-26T15:41:59Z</time>
      </trkpt>
      <trkpt lat="48.02275" lon="-3.50033">
        <ele>106.8</ele>
        <time>2025-02-26T15:42:00Z</time>
      </trkpt>
      <trkpt lat="48.02276" lon="-3.50034">
        <ele>106.9</ele>
        <time>2025-02-26T15:42:01Z</time>
      </trkpt>
      <trkpt lat="48.02276" lon="-3.50036">
        <ele>106.9</ele>
        <time>2025-02-26T15:42:02Z</time>
      </trkpt>
      <trkpt lat="48.02276" lon="-3.50038">
        <ele>106.9</ele>
        <time>2025-02-26T15:42:03Z</time>
      </trkpt>
      <trkpt lat="48.02278" lon="-3.50039">
        <ele>107</ele>
        <time>2025-02-26T15:42:04Z</time>
      </trkpt>
      <trkpt lat="48.02278" lon="-3.5004">
        <ele>107</ele>
        <time>2025-02-26T15:42:05Z</time>
      </trkpt>
      <trkpt lat="48.02279" lon="-3.50041">
        <ele>107.1</ele>
        <time>2025-02-26T15:42:06Z</time>
      </trkpt>
      <trkpt lat="48.0228" lon="-3.50042">
        <ele>107.1</ele>
        <time>2025-02-26T15:42:07Z</time>
      </trkpt>
      <trkpt lat="48.0228" lon="-3.50043">
        <ele>107.1</ele>
        <time>2025-02-26T15:42:08Z</time>
      </trkpt>
      <trkpt lat="48.02281" lon="-3.50044">
        <ele>107.2</ele>
        <time>2025-02-26T15:42:09Z</time>
      </trkpt>
      <trkpt lat="48.02282" lon="-3.50044">
        <ele>107.3</ele>
        <time>2025-02-26T15:42:10Z</time>
      </trkpt>
      <trkpt lat="48.02283" lon="-3.50045">
        <ele>107.3</ele>
        <time>2025-02-26T15:42:11Z</time>
      </trkpt>
      <trkpt lat="48.02284" lon="-3.50046">
        <ele>107.4</ele>
        <time>2025-02-26T15:42:12Z</time>
      </trkpt>
      <trkpt lat="48.02286" lon="-3.50046">
        <ele>107.5</ele>
        <time>2025-02-26T15:42:13Z</time>
      </trkpt>
      <trkpt lat="48.02287" lon="-3.50046">
        <ele>107.5</ele>
        <time>2025-02-26T15:42:14Z</time>
      </trkpt>
      <trkpt lat="48.02288" lon="-3.50045">
        <ele>107.6</ele>
        <time>2025-02-26T15:42:15Z</time>
      </trkpt>
      <trkpt lat="48.02289" lon="-3.50046">
        <ele>107.6</ele>
        <time>2025-02-26T15:42:16Z</time>
      </trkpt>
      <trkpt lat="48.02289" lon="-3.50046">
        <ele>107.7</ele>
        <time>2025-02-26T15:42:17Z</time>
      </trkpt>
      <trkpt lat="48.0229" lon="-3.50046">
        <ele>107.7</ele>
        <time>2025-02-26T15:42:18Z</time>
      </trkpt>
      <trkpt lat="48.02291" lon="-3.50047">
        <ele>107.8</ele>
        <time>2025-02-26T15:42:19Z</time>
      </trkpt>
      <trkpt lat="48.02293" lon="-3.50047">
        <ele>107.9</ele>
        <time>2025-02-26T15:42:20Z</time>
      </trkpt>
      <trkpt lat="48.02294" lon="-3.50046">
        <ele>107.9</ele>
        <time>2025-02-26T15:42:21Z</time>
      </trkpt>
      <trkpt lat="48.02294" lon="-3.50045">
        <ele>108</ele>
        <time>2025-02-26T15:42:22Z</time>
      </trkpt>
      <trkpt lat="48.02295" lon="-3.50044">
        <ele>108</ele>
        <time>2025-02-26T15:42:23Z</time>
      </trkpt>
      <trkpt lat="48.02296" lon="-3.50043">
        <ele>108</ele>
        <time>2025-02-26T15:42:24Z</time>
      </trkpt>
      <trkpt lat="48.02297" lon="-3.50043">
        <ele>108.1</ele>
        <time>2025-02-26T15:42:25Z</time>
      </trkpt>
      <trkpt lat="48.02298" lon="-3.50043">
        <ele>108.1</ele>
        <time>2025-02-26T15:42:26Z</time>
      </trkpt>
      <trkpt lat="48.02299" lon="-3.50043">
        <ele>108.2</ele>
        <time>2025-02-26T15:42:27Z</time>
      </trkpt>
      <trkpt lat="48.023" lon="-3.50042">
        <ele>108.2</ele>
        <time>2025-02-26T15:42:28Z</time>
      </trkpt>
      <trkpt lat="48.02301" lon="-3.50042">
        <ele>108.3</ele>
        <time>2025-02-26T15:42:29Z</time>
      </trkpt>
      <trkpt lat="48.02302" lon="-3.50042">
        <ele>108.3</ele>
        <time>2025-02-26T15:42:30Z</time>
      </trkpt>
      <trkpt lat="48.02303" lon="-3.50043">
        <ele>108.4</ele>
        <time>2025-02-26T15:42:31Z</time>
      </trkpt>
      <trkpt lat="48.02304" lon="-3.50042">
        <ele>108.5</ele>
        <time>2025-02-26T15:42:32Z</time>
      </trkpt>
      <trkpt lat="48.02305" lon="-3.50042">
        <ele>108.5</ele>
        <time>2025-02-26T15:42:33Z</time>
      </trkpt>
      <trkpt lat="48.02307" lon="-3.50041">
        <ele>108.6</ele>
        <time>2025-02-26T15:42:34Z</time>
      </trkpt>
      <trkpt lat="48.02308" lon="-3.5004">
        <ele>108.6</ele>
        <time>2025-02-26T15:42:35Z</time>
      </trkpt>
      <trkpt lat="48.02309" lon="-3.5004">
        <ele>108.7</ele>
        <time>2025-02-26T15:42:36Z</time>
      </trkpt>
      <trkpt lat="48.0231" lon="-3.5004">
        <ele>108.8</ele>
        <time>2025-02-26T15:42:37Z</time>
      </trkpt>
      <trkpt lat="48.02311" lon="-3.50041">
        <ele>108.9</ele>
        <time>2025-02-26T15:42:38Z</time>
      </trkpt>
      <trkpt lat="48.02312" lon="-3.5004">
        <ele>108.9</ele>
        <time>2025-02-26T15:42:39Z</time>
      </trkpt>
      <trkpt lat="48.02313" lon="-3.5004">
        <ele>109</ele>
        <time>2025-02-26T15:42:40Z</time>
      </trkpt>
      <trkpt lat="48.02314" lon="-3.5004">
        <ele>109.1</ele>
        <time>2025-02-26T15:42:41Z</time>
      </trkpt>
      <trkpt lat="48.02316" lon="-3.50039">
        <ele>109.1</ele>
        <time>2025-02-26T15:42:42Z</time>
      </trkpt>
      <trkpt lat="48.02317" lon="-3.50039">
        <ele>109.2</ele>
        <time>2025-02-26T15:42:43Z</time>
      </trkpt>
      <trkpt lat="48.02317" lon="-3.50039">
        <ele>109.2</ele>
        <time>2025-02-26T15:42:44Z</time>
      </trkpt>
      <trkpt lat="48.02318" lon="-3.50038">
        <ele>109.3</ele>
        <time>2025-02-26T15:42:45Z</time>
      </trkpt>
      <trkpt lat="48.02319" lon="-3.5004">
        <ele>109.4</ele>
        <time>2025-02-26T15:42:46Z</time>
      </trkpt>
      <trkpt lat="48.0232" lon="-3.5004">
        <ele>109.5</ele>
        <time>2025-02-26T15:42:47Z</time>
      </trkpt>
      <trkpt lat="48.02321" lon="-3.50039">
        <ele>109.5</ele>
        <time>2025-02-26T15:42:48Z</time>
      </trkpt>
      <trkpt lat="48.02322" lon="-3.50039">
        <ele>109.6</ele>
        <time>2025-02-26T15:42:49Z</time>
      </trkpt>
      <trkpt lat="48.02323" lon="-3.50039">
        <ele>109.7</ele>
        <time>2025-02-26T15:42:50Z</time>
      </trkpt>
      <trkpt lat="48.02324" lon="-3.50039">
        <ele>109.8</ele>
        <time>2025-02-26T15:42:51Z</time>
      </trkpt>
      <trkpt lat="48.02325" lon="-3.5004">
        <ele>109.8</ele>
        <time>2025-02-26T15:42:52Z</time>
      </trkpt>
      <trkpt lat="48.02326" lon="-3.5004">
        <ele>109.9</ele>
        <time>2025-02-26T15:42:53Z</time>
      </trkpt>
      <trkpt lat="48.02328" lon="-3.50039">
        <ele>110</ele>
        <time>2025-02-26T15:42:54Z</time>
      </trkpt>
      <trkpt lat="48.02329" lon="-3.50039">
        <ele>110.1</ele>
        <time>2025-02-26T15:42:55Z</time>
      </trkpt>
      <trkpt lat="48.0233" lon="-3.5004">
        <ele>110.2</ele>
        <time>2025-02-26T15:42:56Z</time>
      </trkpt>
      <trkpt lat="48.02331" lon="-3.5004">
        <ele>110.3</ele>
        <time>2025-02-26T15:42:57Z</time>
      </trkpt>
      <trkpt lat="48.02332" lon="-3.5004">
        <ele>110.3</ele>
        <time>2025-02-26T15:42:58Z</time>
      </trkpt>
      <trkpt lat="48.02333" lon="-3.5004">
        <ele>110.4</ele>
        <time>2025-02-26T15:42:59Z</time>
      </trkpt>
      <trkpt lat="48.02334" lon="-3.50041">
        <ele>110.5</ele>
        <time>2025-02-26T15:43:00Z</time>
      </trkpt>
      <trkpt lat="48.02335" lon="-3.50041">
        <ele>110.6</ele>
        <time>2025-02-26T15:43:01Z</time>
      </trkpt>
      <trkpt lat="48.02337" lon="-3.50041">
        <ele>110.7</ele>
        <time>2025-02-26T15:43:02Z</time>
      </trkpt>
      <trkpt lat="48.02338" lon="-3.50041">
        <ele>110.8</ele>
        <time>2025-02-26T15:43:03Z</time>
      </trkpt>
      <trkpt lat="48.02339" lon="-3.50041">
        <ele>110.9</ele>
        <time>2025-02-26T15:43:04Z</time>
      </trkpt>
      <trkpt lat="48.0234" lon="-3.50042">
        <ele>111</ele>
        <time>2025-02-26T15:43:05Z</time>
      </trkpt>
      <trkpt lat="48.02341" lon="-3.50042">
        <ele>111.1</ele>
        <time>2025-02-26T15:43:06Z</time>
      </trkpt>
      <trkpt lat="48.02342" lon="-3.50042">
        <ele>111.1</ele>
        <time>2025-02-26T15:43:07Z</time>
      </trkpt>
      <trkpt lat="48.02343" lon="-3.50042">
        <ele>111.2</ele>
        <time>2025-02-26T15:43:08Z</time>
      </trkpt>
      <trkpt lat="48.02344" lon="-3.50041">
        <ele>111.2</ele>
        <time>2025-02-26T15:43:09Z</time>
      </trkpt>
      <trkpt lat="48.02345" lon="-3.50041">
        <ele>111.3</ele>
        <time>2025-02-26T15:43:10Z</time>
      </trkpt>
      <trkpt lat="48.02346" lon="-3.50042">
        <ele>111.4</ele>
        <time>2025-02-26T15:43:11Z</time>
      </trkpt>
      <trkpt lat="48.02347" lon="-3.50042">
        <ele>111.5</ele>
        <time>2025-02-26T15:43:12Z</time>
      </trkpt>
      <trkpt lat="48.02348" lon="-3.50042">
        <ele>111.6</ele>
        <time>2025-02-26T15:43:13Z</time>
      </trkpt>
      <trkpt lat="48.02349" lon="-3.50043">
        <ele>111.6</ele>
        <time>2025-02-26T15:43:14Z</time>
      </trkpt>
      <trkpt lat="48.0235" lon="-3.50044">
        <ele>111.8</ele>
        <time>2025-02-26T15:43:15Z</time>
      </trkpt>
      <trkpt lat="48.02351" lon="-3.50045">
        <ele>111.9</ele>
        <time>2025-02-26T15:43:16Z</time>
      </trkpt>
      <trkpt lat="48.02352" lon="-3.50046">
        <ele>112</ele>
        <time>2025-02-26T15:43:17Z</time>
      </trkpt>
      <trkpt lat="48.02353" lon="-3.50046">
        <ele>112</ele>
        <time>2025-02-26T15:43:18Z</time>
      </trkpt>
      <trkpt lat="48.02353" lon="-3.50045">
        <ele>112.1</ele>
        <time>2025-02-26T15:43:19Z</time>
      </trkpt>
      <trkpt lat="48.02355" lon="-3.50045">
        <ele>112.1</ele>
        <time>2025-02-26T15:43:20Z</time>
      </trkpt>
      <trkpt lat="48.02356" lon="-3.50045">
        <ele>112.2</ele>
        <time>2025-02-26T15:43:21Z</time>
      </trkpt>
      <trkpt lat="48.02357" lon="-3.50046">
        <ele>112.3</ele>
        <time>2025-02-26T15:43:22Z</time>
      </trkpt>
      <trkpt lat="48.02358" lon="-3.50046">
        <ele>112.4</ele>
        <time>2025-02-26T15:43:23Z</time>
      </trkpt>
      <trkpt lat="48.02358" lon="-3.50046">
        <ele>112.5</ele>
        <time>2025-02-26T15:43:24Z</time>
      </trkpt>
      <trkpt lat="48.02359" lon="-3.50046">
        <ele>112.5</ele>
        <time>2025-02-26T15:43:25Z</time>
      </trkpt>
      <trkpt lat="48.0236" lon="-3.50046">
        <ele>112.6</ele>
        <time>2025-02-26T15:43:26Z</time>
      </trkpt>
      <trkpt lat="48.02361" lon="-3.50045">
        <ele>112.6</ele>
        <time>2025-02-26T15:43:27Z</time>
      </trkpt>
      <trkpt lat="48.02361" lon="-3.50046">
        <ele>112.6</ele>
        <time>2025-02-26T15:43:28Z</time>
      </trkpt>
      <trkpt lat="48.02362" lon="-3.50045">
        <ele>112.6</ele>
        <time>2025-02-26T15:43:29Z</time>
      </trkpt>
      <trkpt lat="48.02362" lon="-3.50045">
        <ele>112.7</ele>
        <time>2025-02-26T15:43:30Z</time>
      </trkpt>
      <trkpt lat="48.02363" lon="-3.50046">
        <ele>112.7</ele>
        <time>2025-02-26T15:43:31Z</time>
      </trkpt>
      <trkpt lat="48.02364" lon="-3.50045">
        <ele>112.7</ele>
        <time>2025-02-26T15:43:32Z</time>
      </trkpt>
      <trkpt lat="48.02364" lon="-3.50045">
        <ele>112.7</ele>
        <time>2025-02-26T15:43:33Z</time>
      </trkpt>
      <trkpt lat="48.02365" lon="-3.50045">
        <ele>112.8</ele>
        <time>2025-02-26T15:43:34Z</time>
      </trkpt>
      <trkpt lat="48.02366" lon="-3.50045">
        <ele>112.8</ele>
        <time>2025-02-26T15:43:35Z</time>
      </trkpt>
      <trkpt lat="48.02367" lon="-3.50044">
        <ele>112.8</ele>
        <time>2025-02-26T15:43:36Z</time>
      </trkpt>
      <trkpt lat="48.02368" lon="-3.50044">
        <ele>112.8</ele>
        <time>2025-02-26T15:43:37Z</time>
      </trkpt>
      <trkpt lat="48.02369" lon="-3.50044">
        <ele>112.8</ele>
        <time>2025-02-26T15:43:38Z</time>
      </trkpt>
      <trkpt lat="48.0237" lon="-3.50043">
        <ele>112.9</ele>
        <time>2025-02-26T15:43:39Z</time>
      </trkpt>
      <trkpt lat="48.02371" lon="-3.50044">
        <ele>112.9</ele>
        <time>2025-02-26T15:43:40Z</time>
      </trkpt>
      <trkpt lat="48.02372" lon="-3.50044">
        <ele>113</ele>
        <time>2025-02-26T15:43:41Z</time>
      </trkpt>
      <trkpt lat="48.02373" lon="-3.50043">
        <ele>113</ele>
        <time>2025-02-26T15:43:42Z</time>
      </trkpt>
      <trkpt lat="48.02373" lon="-3.50042">
        <ele>113</ele>
        <time>2025-02-26T15:43:43Z</time>
      </trkpt>
      <trkpt lat="48.02374" lon="-3.50041">
        <ele>113</ele>
        <time>2025-02-26T15:43:44Z</time>
      </trkpt>
      <trkpt lat="48.02376" lon="-3.5004">
        <ele>113</ele>
        <time>2025-02-26T15:43:45Z</time>
      </trkpt>
      <trkpt lat="48.02376" lon="-3.50041">
        <ele>113</ele>
        <time>2025-02-26T15:43:46Z</time>
      </trkpt>
      <trkpt lat="48.02377" lon="-3.50042">
        <ele>113.1</ele>
        <time>2025-02-26T15:43:47Z</time>
      </trkpt>
      <trkpt lat="48.02378" lon="-3.50041">
        <ele>113.1</ele>
        <time>2025-02-26T15:43:48Z</time>
      </trkpt>
      <trkpt lat="48.02379" lon="-3.50041">
        <ele>113.1</ele>
        <time>2025-02-26T15:43:49Z</time>
      </trkpt>
      <trkpt lat="48.02381" lon="-3.5004">
        <ele>113.1</ele>
        <time>2025-02-26T15:43:50Z</time>
      </trkpt>
      <trkpt lat="48.02383" lon="-3.50039">
        <ele>113.2</ele>
        <time>2025-02-26T15:43:51Z</time>
      </trkpt>
      <trkpt lat="48.02383" lon="-3.50038">
        <ele>113.2</ele>
        <time>2025-02-26T15:43:52Z</time>
      </trkpt>
      <trkpt lat="48.02384" lon="-3.50036">
        <ele>113.1</ele>
        <time>2025-02-26T15:43:53Z</time>
      </trkpt>
      <trkpt lat="48.02385" lon="-3.50035">
        <ele>113.1</ele>
        <time>2025-02-26T15:43:54Z</time>
      </trkpt>
      <trkpt lat="48.02386" lon="-3.50034">
        <ele>113.1</ele>
        <time>2025-02-26T15:43:55Z</time>
      </trkpt>
      <trkpt lat="48.02387" lon="-3.50032">
        <ele>113.1</ele>
        <time>2025-02-26T15:43:56Z</time>
      </trkpt>
      <trkpt lat="48.02388" lon="-3.50031">
        <ele>113.1</ele>
        <time>2025-02-26T15:43:57Z</time>
      </trkpt>
      <trkpt lat="48.0239" lon="-3.50031">
        <ele>113.1</ele>
        <time>2025-02-26T15:43:58Z</time>
      </trkpt>
      <trkpt lat="48.02391" lon="-3.5003">
        <ele>113.2</ele>
        <time>2025-02-26T15:43:59Z</time>
      </trkpt>
      <trkpt lat="48.02392" lon="-3.5003">
        <ele>113.2</ele>
        <time>2025-02-26T15:44:00Z</time>
      </trkpt>
      <trkpt lat="48.02392" lon="-3.5003">
        <ele>113.2</ele>
        <time>2025-02-26T15:44:01Z</time>
      </trkpt>
      <trkpt lat="48.02393" lon="-3.5003">
        <ele>113.2</ele>
        <time>2025-02-26T15:44:02Z</time>
      </trkpt>
      <trkpt lat="48.02394" lon="-3.50031">
        <ele>113.3</ele>
        <time>2025-02-26T15:44:03Z</time>
      </trkpt>
      <trkpt lat="48.02396" lon="-3.50032">
        <ele>113.4</ele>
        <time>2025-02-26T15:44:04Z</time>
      </trkpt>
      <trkpt lat="48.02397" lon="-3.50032">
        <ele>113.4</ele>
        <time>2025-02-26T15:44:05Z</time>
      </trkpt>
      <trkpt lat="48.02398" lon="-3.50032">
        <ele>113.5</ele>
        <time>2025-02-26T15:44:06Z</time>
      </trkpt>
      <trkpt lat="48.02399" lon="-3.50033">
        <ele>113.5</ele>
        <time>2025-02-26T15:44:07Z</time>
      </trkpt>
      <trkpt lat="48.024" lon="-3.50033">
        <ele>113.6</ele>
        <time>2025-02-26T15:44:08Z</time>
      </trkpt>
      <trkpt lat="48.02401" lon="-3.50033">
        <ele>113.6</ele>
        <time>2025-02-26T15:44:09Z</time>
      </trkpt>
      <trkpt lat="48.02403" lon="-3.50033">
        <ele>113.7</ele>
        <time>2025-02-26T15:44:10Z</time>
      </trkpt>
      <trkpt lat="48.02404" lon="-3.50033">
        <ele>113.7</ele>
        <time>2025-02-26T15:44:11Z</time>
      </trkpt>
      <trkpt lat="48.02405" lon="-3.50033">
        <ele>113.8</ele>
        <time>2025-02-26T15:44:12Z</time>
      </trkpt>
      <trkpt lat="48.02406" lon="-3.50032">
        <ele>113.8</ele>
        <time>2025-02-26T15:44:13Z</time>
      </trkpt>
      <trkpt lat="48.02407" lon="-3.50032">
        <ele>113.8</ele>
        <time>2025-02-26T15:44:14Z</time>
      </trkpt>
      <trkpt lat="48.02408" lon="-3.50032">
        <ele>113.8</ele>
        <time>2025-02-26T15:44:15Z</time>
      </trkpt>
      <trkpt lat="48.02409" lon="-3.50032">
        <ele>113.9</ele>
        <time>2025-02-26T15:44:16Z</time>
      </trkpt>
      <trkpt lat="48.0241" lon="-3.50032">
        <ele>113.9</ele>
        <time>2025-02-26T15:44:17Z</time>
      </trkpt>
      <trkpt lat="48.02411" lon="-3.50032">
        <ele>114</ele>
        <time>2025-02-26T15:44:18Z</time>
      </trkpt>
      <trkpt lat="48.02412" lon="-3.50032">
        <ele>114</ele>
        <time>2025-02-26T15:44:19Z</time>
      </trkpt>
      <trkpt lat="48.02413" lon="-3.50032">
        <ele>114</ele>
        <time>2025-02-26T15:44:20Z</time>
      </trkpt>
      <trkpt lat="48.02414" lon="-3.50032">
        <ele>114.1</ele>
        <time>2025-02-26T15:44:21Z</time>
      </trkpt>
      <trkpt lat="48.02415" lon="-3.50033">
        <ele>114.1</ele>
        <time>2025-02-26T15:44:22Z</time>
      </trkpt>
      <trkpt lat="48.02417" lon="-3.50034">
        <ele>114.2</ele>
        <time>2025-02-26T15:44:23Z</time>
      </trkpt>
      <trkpt lat="48.02418" lon="-3.50035">
        <ele>114.3</ele>
        <time>2025-02-26T15:44:24Z</time>
      </trkpt>
      <trkpt lat="48.02419" lon="-3.50035">
        <ele>114.3</ele>
        <time>2025-02-26T15:44:25Z</time>
      </trkpt>
      <trkpt lat="48.0242" lon="-3.50036">
        <ele>114.4</ele>
        <time>2025-02-26T15:44:26Z</time>
      </trkpt>
      <trkpt lat="48.02421" lon="-3.50036">
        <ele>114.4</ele>
        <time>2025-02-26T15:44:27Z</time>
      </trkpt>
      <trkpt lat="48.02422" lon="-3.50036">
        <ele>114.4</ele>
        <time>2025-02-26T15:44:28Z</time>
      </trkpt>
      <trkpt lat="48.02424" lon="-3.50036">
        <ele>114.5</ele>
        <time>2025-02-26T15:44:29Z</time>
      </trkpt>
      <trkpt lat="48.02425" lon="-3.50036">
        <ele>114.5</ele>
        <time>2025-02-26T15:44:30Z</time>
      </trkpt>
      <trkpt lat="48.02426" lon="-3.50037">
        <ele>114.5</ele>
        <time>2025-02-26T15:44:31Z</time>
      </trkpt>
      <trkpt lat="48.02427" lon="-3.50038">
        <ele>114.6</ele>
        <time>2025-02-26T15:44:32Z</time>
      </trkpt>
      <trkpt lat="48.02428" lon="-3.50038">
        <ele>114.6</ele>
        <time>2025-02-26T15:44:33Z</time>
      </trkpt>
      <trkpt lat="48.02429" lon="-3.50038">
        <ele>114.7</ele>
        <time>2025-02-26T15:44:34Z</time>
      </trkpt>
      <trkpt lat="48.02431" lon="-3.50039">
        <ele>114.7</ele>
        <time>2025-02-26T15:44:35Z</time>
      </trkpt>
      <trkpt lat="48.02432" lon="-3.5004">
        <ele>114.7</ele>
        <time>2025-02-26T15:44:36Z</time>
      </trkpt>
      <trkpt lat="48.02433" lon="-3.5004">
        <ele>114.8</ele>
        <time>2025-02-26T15:44:37Z</time>
      </trkpt>
      <trkpt lat="48.02434" lon="-3.50041">
        <ele>114.8</ele>
        <time>2025-02-26T15:44:38Z</time>
      </trkpt>
      <trkpt lat="48.02436" lon="-3.50041">
        <ele>114.8</ele>
        <time>2025-02-26T15:44:39Z</time>
      </trkpt>
      <trkpt lat="48.02437" lon="-3.50041">
        <ele>114.9</ele>
        <time>2025-02-26T15:44:40Z</time>
      </trkpt>
      <trkpt lat="48.02438" lon="-3.50042">
        <ele>114.9</ele>
        <time>2025-02-26T15:44:41Z</time>
      </trkpt>
      <trkpt lat="48.02439" lon="-3.50043">
        <ele>114.9</ele>
        <time>2025-02-26T15:44:42Z</time>
      </trkpt>
      <trkpt lat="48.0244" lon="-3.50044">
        <ele>114.9</ele>
        <time>2025-02-26T15:44:43Z</time>
      </trkpt>
      <trkpt lat="48.02441" lon="-3.50044">
        <ele>114.9</ele>
        <time>2025-02-26T15:44:44Z</time>
      </trkpt>
      <trkpt lat="48.02442" lon="-3.50044">
        <ele>115</ele>
        <time>2025-02-26T15:44:45Z</time>
      </trkpt>
      <trkpt lat="48.02443" lon="-3.50044">
        <ele>115</ele>
        <time>2025-02-26T15:44:46Z</time>
      </trkpt>
      <trkpt lat="48.02444" lon="-3.50045">
        <ele>115</ele>
        <time>2025-02-26T15:44:47Z</time>
      </trkpt>
      <trkpt lat="48.02445" lon="-3.50045">
        <ele>115</ele>
        <time>2025-02-26T15:44:48Z</time>
      </trkpt>
      <trkpt lat="48.02446" lon="-3.50046">
        <ele>115</ele>
        <time>2025-02-26T15:44:49Z</time>
      </trkpt>
      <trkpt lat="48.02447" lon="-3.50046">
        <ele>114.9</ele>
        <time>2025-02-26T15:44:50Z</time>
      </trkpt>
      <trkpt lat="48.02447" lon="-3.50048">
        <ele>114.9</ele>
        <time>2025-02-26T15:44:51Z</time>
      </trkpt>
      <trkpt lat="48.02449" lon="-3.50048">
        <ele>114.8</ele>
        <time>2025-02-26T15:44:52Z</time>
      </trkpt>
      <trkpt lat="48.0245" lon="-3.50048">
        <ele>114.8</ele>
        <time>2025-02-26T15:44:53Z</time>
      </trkpt>
      <trkpt lat="48.02451" lon="-3.50049">
        <ele>114.8</ele>
        <time>2025-02-26T15:44:54Z</time>
      </trkpt>
      <trkpt lat="48.02451" lon="-3.50049">
        <ele>114.8</ele>
        <time>2025-02-26T15:44:55Z</time>
      </trkpt>
      <trkpt lat="48.02452" lon="-3.5005">
        <ele>114.7</ele>
        <time>2025-02-26T15:44:56Z</time>
      </trkpt>
      <trkpt lat="48.02453" lon="-3.5005">
        <ele>114.7</ele>
        <time>2025-02-26T15:44:57Z</time>
      </trkpt>
      <trkpt lat="48.02454" lon="-3.5005">
        <ele>114.6</ele>
        <time>2025-02-26T15:44:58Z</time>
      </trkpt>
      <trkpt lat="48.02455" lon="-3.50051">
        <ele>114.6</ele>
        <time>2025-02-26T15:44:59Z</time>
      </trkpt>
      <trkpt lat="48.02456" lon="-3.50052">
        <ele>114.6</ele>
        <time>2025-02-26T15:45:00Z</time>
      </trkpt>
      <trkpt lat="48.02457" lon="-3.50052">
        <ele>114.5</ele>
        <time>2025-02-26T15:45:01Z</time>
      </trkpt>
      <trkpt lat="48.02459" lon="-3.50052">
        <ele>114.5</ele>
        <time>2025-02-26T15:45:02Z</time>
      </trkpt>
      <trkpt lat="48.0246" lon="-3.50052">
        <ele>114.4</ele>
        <time>2025-02-26T15:45:03Z</time>
      </trkpt>
      <trkpt lat="48.02461" lon="-3.50052">
        <ele>114.4</ele>
        <time>2025-02-26T15:45:04Z</time>
      </trkpt>
      <trkpt lat="48.02462" lon="-3.50052">
        <ele>114.4</ele>
        <time>2025-02-26T15:45:05Z</time>
      </trkpt>
      <trkpt lat="48.02464" lon="-3.50053">
        <ele>114.3</ele>
        <time>2025-02-26T15:45:06Z</time>
      </trkpt>
      <trkpt lat="48.02465" lon="-3.50054">
        <ele>114.3</ele>
        <time>2025-02-26T15:45:07Z</time>
      </trkpt>
      <trkpt lat="48.02466" lon="-3.50055">
        <ele>114.2</ele>
        <time>2025-02-26T15:45:08Z</time>
      </trkpt>
      <trkpt lat="48.02467" lon="-3.50055">
        <ele>114.2</ele>
        <time>2025-02-26T15:45:09Z</time>
      </trkpt>
      <trkpt lat="48.02468" lon="-3.50055">
        <ele>114.1</ele>
        <time>2025-02-26T15:45:10Z</time>
      </trkpt>
      <trkpt lat="48.02469" lon="-3.50055">
        <ele>114.1</ele>
        <time>2025-02-26T15:45:11Z</time>
      </trkpt>
      <trkpt lat="48.0247" lon="-3.50055">
        <ele>114.1</ele>
        <time>2025-02-26T15:45:12Z</time>
      </trkpt>
      <trkpt lat="48.02472" lon="-3.50056">
        <ele>114</ele>
        <time>2025-02-26T15:45:13Z</time>
      </trkpt>
      <trkpt lat="48.02473" lon="-3.50056">
        <ele>114</ele>
        <time>2025-02-26T15:45:14Z</time>
      </trkpt>
      <trkpt lat="48.02474" lon="-3.50056">
        <ele>114</ele>
        <time>2025-02-26T15:45:15Z</time>
      </trkpt>
      <trkpt lat="48.02475" lon="-3.50057">
        <ele>114</ele>
        <time>2025-02-26T15:45:16Z</time>
      </trkpt>
      <trkpt lat="48.02476" lon="-3.50058">
        <ele>114</ele>
        <time>2025-02-26T15:45:17Z</time>
      </trkpt>
      <trkpt lat="48.02477" lon="-3.50058">
        <ele>114</ele>
        <time>2025-02-26T15:45:18Z</time>
      </trkpt>
      <trkpt lat="48.02479" lon="-3.50059">
        <ele>114</ele>
        <time>2025-02-26T15:45:19Z</time>
      </trkpt>
      <trkpt lat="48.0248" lon="-3.50059">
        <ele>114</ele>
        <time>2025-02-26T15:45:20Z</time>
      </trkpt>
      <trkpt lat="48.02481" lon="-3.50059">
        <ele>114</ele>
        <time>2025-02-26T15:45:21Z</time>
      </trkpt>
      <trkpt lat="48.02482" lon="-3.50059">
        <ele>114</ele>
        <time>2025-02-26T15:45:22Z</time>
      </trkpt>
      <trkpt lat="48.02483" lon="-3.50062">
        <ele>113.9</ele>
        <time>2025-02-26T15:45:23Z</time>
      </trkpt>
      <trkpt lat="48.02484" lon="-3.50063">
        <ele>113.9</ele>
        <time>2025-02-26T15:45:24Z</time>
      </trkpt>
      <trkpt lat="48.02485" lon="-3.50063">
        <ele>113.9</ele>
        <time>2025-02-26T15:45:25Z</time>
      </trkpt>
      <trkpt lat="48.02487" lon="-3.50064">
        <ele>113.9</ele>
        <time>2025-02-26T15:45:26Z</time>
      </trkpt>
      <trkpt lat="48.02488" lon="-3.50064">
        <ele>113.8</ele>
        <time>2025-02-26T15:45:27Z</time>
      </trkpt>
      <trkpt lat="48.02489" lon="-3.50065">
        <ele>113.8</ele>
        <time>2025-02-26T15:45:28Z</time>
      </trkpt>
      <trkpt lat="48.0249" lon="-3.50066">
        <ele>113.8</ele>
        <time>2025-02-26T15:45:29Z</time>
      </trkpt>
      <trkpt lat="48.02491" lon="-3.50067">
        <ele>113.7</ele>
        <time>2025-02-26T15:45:30Z</time>
      </trkpt>
      <trkpt lat="48.02492" lon="-3.50067">
        <ele>113.7</ele>
        <time>2025-02-26T15:45:31Z</time>
      </trkpt>
      <trkpt lat="48.02493" lon="-3.50068">
        <ele>113.7</ele>
        <time>2025-02-26T15:45:32Z</time>
      </trkpt>
      <trkpt lat="48.02494" lon="-3.50069">
        <ele>113.6</ele>
        <time>2025-02-26T15:45:33Z</time>
      </trkpt>
      <trkpt lat="48.02495" lon="-3.5007">
        <ele>113.6</ele>
        <time>2025-02-26T15:45:34Z</time>
      </trkpt>
      <trkpt lat="48.02497" lon="-3.50071">
        <ele>113.5</ele>
        <time>2025-02-26T15:45:35Z</time>
      </trkpt>
      <trkpt lat="48.02498" lon="-3.50072">
        <ele>113.5</ele>
        <time>2025-02-26T15:45:36Z</time>
      </trkpt>
      <trkpt lat="48.02498" lon="-3.50073">
        <ele>113.4</ele>
        <time>2025-02-26T15:45:37Z</time>
      </trkpt>
      <trkpt lat="48.02499" lon="-3.50074">
        <ele>113.3</ele>
        <time>2025-02-26T15:45:38Z</time>
      </trkpt>
      <trkpt lat="48.025" lon="-3.50076">
        <ele>113.3</ele>
        <time>2025-02-26T15:45:39Z</time>
      </trkpt>
      <trkpt lat="48.02501" lon="-3.50077">
        <ele>113.3</ele>
        <time>2025-02-26T15:45:40Z</time>
      </trkpt>
      <trkpt lat="48.02502" lon="-3.50077">
        <ele>113.3</ele>
        <time>2025-02-26T15:45:41Z</time>
      </trkpt>
      <trkpt lat="48.02503" lon="-3.50078">
        <ele>113.3</ele>
        <time>2025-02-26T15:45:42Z</time>
      </trkpt>
      <trkpt lat="48.02504" lon="-3.50079">
        <ele>113.3</ele>
        <time>2025-02-26T15:45:43Z</time>
      </trkpt>
      <trkpt lat="48.02505" lon="-3.50081">
        <ele>113.3</ele>
        <time>2025-02-26T15:45:44Z</time>
      </trkpt>
      <trkpt lat="48.02506" lon="-3.50082">
        <ele>113.2</ele>
        <time>2025-02-26T15:45:45Z</time>
      </trkpt>
      <trkpt lat="48.02507" lon="-3.50083">
        <ele>113.2</ele>
        <time>2025-02-26T15:45:46Z</time>
      </trkpt>
      <trkpt lat="48.02507" lon="-3.50084">
        <ele>113.2</ele>
        <time>2025-02-26T15:45:47Z</time>
      </trkpt>
      <trkpt lat="48.02508" lon="-3.50087">
        <ele>113.2</ele>
        <time>2025-02-26T15:45:48Z</time>
      </trkpt>
      <trkpt lat="48.02509" lon="-3.50088">
        <ele>113.1</ele>
        <time>2025-02-26T15:45:49Z</time>
      </trkpt>
      <trkpt lat="48.02509" lon="-3.5009">
        <ele>113.1</ele>
        <time>2025-02-26T15:45:50Z</time>
      </trkpt>
      <trkpt lat="48.0251" lon="-3.50091">
        <ele>113.1</ele>
        <time>2025-02-26T15:45:51Z</time>
      </trkpt>
      <trkpt lat="48.02511" lon="-3.50091">
        <ele>113.1</ele>
        <time>2025-02-26T15:45:52Z</time>
      </trkpt>
      <trkpt lat="48.02513" lon="-3.50092">
        <ele>113.2</ele>
        <time>2025-02-26T15:45:53Z</time>
      </trkpt>
      <trkpt lat="48.02513" lon="-3.50093">
        <ele>113.1</ele>
        <time>2025-02-26T15:45:54Z</time>
      </trkpt>
      <trkpt lat="48.02514" lon="-3.50095">
        <ele>113.1</ele>
        <time>2025-02-26T15:45:55Z</time>
      </trkpt>
      <trkpt lat="48.02515" lon="-3.50096">
        <ele>113.1</ele>
        <time>2025-02-26T15:45:56Z</time>
      </trkpt>
      <trkpt lat="48.02516" lon="-3.50098">
        <ele>113</ele>
        <time>2025-02-26T15:45:57Z</time>
      </trkpt>
      <trkpt lat="48.02516" lon="-3.50099">
        <ele>113</ele>
        <time>2025-02-26T15:45:58Z</time>
      </trkpt>
      <trkpt lat="48.02517" lon="-3.501">
        <ele>113</ele>
        <time>2025-02-26T15:45:59Z</time>
      </trkpt>
      <trkpt lat="48.02518" lon="-3.50101">
        <ele>113</ele>
        <time>2025-02-26T15:46:00Z</time>
      </trkpt>
      <trkpt lat="48.02519" lon="-3.50102">
        <ele>113</ele>
        <time>2025-02-26T15:46:01Z</time>
      </trkpt>
      <trkpt lat="48.02519" lon="-3.50104">
        <ele>112.9</ele>
        <time>2025-02-26T15:46:02Z</time>
      </trkpt>
      <trkpt lat="48.02519" lon="-3.50107">
        <ele>112.8</ele>
        <time>2025-02-26T15:46:03Z</time>
      </trkpt>
      <trkpt lat="48.0252" lon="-3.50109">
        <ele>112.8</ele>
        <time>2025-02-26T15:46:04Z</time>
      </trkpt>
      <trkpt lat="48.0252" lon="-3.50111">
        <ele>112.7</ele>
        <time>2025-02-26T15:46:05Z</time>
      </trkpt>
      <trkpt lat="48.0252" lon="-3.50113">
        <ele>112.6</ele>
        <time>2025-02-26T15:46:06Z</time>
      </trkpt>
      <trkpt lat="48.0252" lon="-3.50115">
        <ele>112.5</ele>
        <time>2025-02-26T15:46:07Z</time>
      </trkpt>
      <trkpt lat="48.0252" lon="-3.50116">
        <ele>112.4</ele>
        <time>2025-02-26T15:46:08Z</time>
      </trkpt>
      <trkpt lat="48.0252" lon="-3.50118">
        <ele>112.3</ele>
        <time>2025-02-26T15:46:09Z</time>
      </trkpt>
      <trkpt lat="48.0252" lon="-3.50119">
        <ele>112.2</ele>
        <time>2025-02-26T15:46:10Z</time>
      </trkpt>
      <trkpt lat="48.02521" lon="-3.50121">
        <ele>112.1</ele>
        <time>2025-02-26T15:46:11Z</time>
      </trkpt>
      <trkpt lat="48.0252" lon="-3.50123">
        <ele>112</ele>
        <time>2025-02-26T15:46:12Z</time>
      </trkpt>
      <trkpt lat="48.02521" lon="-3.50124">
        <ele>111.9</ele>
        <time>2025-02-26T15:46:13Z</time>
      </trkpt>
      <trkpt lat="48.02521" lon="-3.50126">
        <ele>111.8</ele>
        <time>2025-02-26T15:46:14Z</time>
      </trkpt>
      <trkpt lat="48.02521" lon="-3.50127">
        <ele>111.7</ele>
        <time>2025-02-26T15:46:15Z</time>
      </trkpt>
      <trkpt lat="48.02521" lon="-3.50129">
        <ele>111.6</ele>
        <time>2025-02-26T15:46:16Z</time>
      </trkpt>
      <trkpt lat="48.02522" lon="-3.5013">
        <ele>111.6</ele>
        <time>2025-02-26T15:46:17Z</time>
      </trkpt>
      <trkpt lat="48.02523" lon="-3.50131">
        <ele>111.5</ele>
        <time>2025-02-26T15:46:18Z</time>
      </trkpt>
      <trkpt lat="48.02524" lon="-3.50133">
        <ele>111.4</ele>
        <time>2025-02-26T15:46:19Z</time>
      </trkpt>
      <trkpt lat="48.02525" lon="-3.50134">
        <ele>111.3</ele>
        <time>2025-02-26T15:46:20Z</time>
      </trkpt>
      <trkpt lat="48.02525" lon="-3.50136">
        <ele>111.2</ele>
        <time>2025-02-26T15:46:21Z</time>
      </trkpt>
      <trkpt lat="48.02526" lon="-3.50138">
        <ele>111.1</ele>
        <time>2025-02-26T15:46:22Z</time>
      </trkpt>
      <trkpt lat="48.02527" lon="-3.50139">
        <ele>111</ele>
        <time>2025-02-26T15:46:23Z</time>
      </trkpt>
      <trkpt lat="48.02527" lon="-3.50141">
        <ele>110.9</ele>
        <time>2025-02-26T15:46:24Z</time>
      </trkpt>
      <trkpt lat="48.02528" lon="-3.50143">
        <ele>110.7</ele>
        <time>2025-02-26T15:46:25Z</time>
      </trkpt>
      <trkpt lat="48.02529" lon="-3.50144">
        <ele>110.7</ele>
        <time>2025-02-26T15:46:26Z</time>
      </trkpt>
      <trkpt lat="48.0253" lon="-3.50145">
        <ele>110.7</ele>
        <time>2025-02-26T15:46:27Z</time>
      </trkpt>
      <trkpt lat="48.02531" lon="-3.50145">
        <ele>110.8</ele>
        <time>2025-02-26T15:46:28Z</time>
      </trkpt>
      <trkpt lat="48.02532" lon="-3.50146">
        <ele>110.8</ele>
        <time>2025-02-26T15:46:29Z</time>
      </trkpt>
      <trkpt lat="48.02533" lon="-3.50147">
        <ele>110.8</ele>
        <time>2025-02-26T15:46:30Z</time>
      </trkpt>
      <trkpt lat="48.02535" lon="-3.50148">
        <ele>110.8</ele>
        <time>2025-02-26T15:46:31Z</time>
      </trkpt>
      <trkpt lat="48.02536" lon="-3.50149">
        <ele>110.8</ele>
        <time>2025-02-26T15:46:32Z</time>
      </trkpt>
      <trkpt lat="48.02537" lon="-3.5015">
        <ele>110.7</ele>
        <time>2025-02-26T15:46:33Z</time>
      </trkpt>
      <trkpt lat="48.02537" lon="-3.50151">
        <ele>110.6</ele>
        <time>2025-02-26T15:46:34Z</time>
      </trkpt>
      <trkpt lat="48.02539" lon="-3.50152">
        <ele>110.7</ele>
        <time>2025-02-26T15:46:35Z</time>
      </trkpt>
      <trkpt lat="48.0254" lon="-3.50152">
        <ele>110.7</ele>
        <time>2025-02-26T15:46:36Z</time>
      </trkpt>
      <trkpt lat="48.02541" lon="-3.50152">
        <ele>110.8</ele>
        <time>2025-02-26T15:46:37Z</time>
      </trkpt>
      <trkpt lat="48.02542" lon="-3.50153">
        <ele>110.8</ele>
        <time>2025-02-26T15:46:38Z</time>
      </trkpt>
      <trkpt lat="48.02543" lon="-3.50154">
        <ele>110.8</ele>
        <time>2025-02-26T15:46:39Z</time>
      </trkpt>
      <trkpt lat="48.02544" lon="-3.50155">
        <ele>110.7</ele>
        <time>2025-02-26T15:46:40Z</time>
      </trkpt>
      <trkpt lat="48.02545" lon="-3.50155">
        <ele>110.7</ele>
        <time>2025-02-26T15:46:41Z</time>
      </trkpt>
      <trkpt lat="48.02546" lon="-3.50156">
        <ele>110.7</ele>
        <time>2025-02-26T15:46:42Z</time>
      </trkpt>
      <trkpt lat="48.02548" lon="-3.50155">
        <ele>110.8</ele>
        <time>2025-02-26T15:46:43Z</time>
      </trkpt>
      <trkpt lat="48.02549" lon="-3.50155">
        <ele>110.9</ele>
        <time>2025-02-26T15:46:44Z</time>
      </trkpt>
      <trkpt lat="48.0255" lon="-3.50155">
        <ele>110.9</ele>
        <time>2025-02-26T15:46:45Z</time>
      </trkpt>
      <trkpt lat="48.02551" lon="-3.50156">
        <ele>111</ele>
        <time>2025-02-26T15:46:46Z</time>
      </trkpt>
      <trkpt lat="48.02552" lon="-3.50156">
        <ele>111</ele>
        <time>2025-02-26T15:46:47Z</time>
      </trkpt>
      <trkpt lat="48.02554" lon="-3.50156">
        <ele>111.1</ele>
        <time>2025-02-26T15:46:48Z</time>
      </trkpt>
      <trkpt lat="48.02555" lon="-3.50155">
        <ele>111.2</ele>
        <time>2025-02-26T15:46:49Z</time>
      </trkpt>
      <trkpt lat="48.02556" lon="-3.50155">
        <ele>111.3</ele>
        <time>2025-02-26T15:46:50Z</time>
      </trkpt>
      <trkpt lat="48.02557" lon="-3.50154">
        <ele>111.3</ele>
        <time>2025-02-26T15:46:51Z</time>
      </trkpt>
      <trkpt lat="48.02558" lon="-3.50154">
        <ele>111.3</ele>
        <time>2025-02-26T15:46:52Z</time>
      </trkpt>
      <trkpt lat="48.0256" lon="-3.50154">
        <ele>111.3</ele>
        <time>2025-02-26T15:46:53Z</time>
      </trkpt>
      <trkpt lat="48.02561" lon="-3.50154">
        <ele>111.3</ele>
        <time>2025-02-26T15:46:54Z</time>
      </trkpt>
      <trkpt lat="48.02562" lon="-3.50154">
        <ele>111.2</ele>
        <time>2025-02-26T15:46:55Z</time>
      </trkpt>
      <trkpt lat="48.02563" lon="-3.50154">
        <ele>111.2</ele>
        <time>2025-02-26T15:46:56Z</time>
      </trkpt>
      <trkpt lat="48.02564" lon="-3.50153">
        <ele>111.3</ele>
        <time>2025-02-26T15:46:57Z</time>
      </trkpt>
      <trkpt lat="48.02565" lon="-3.50152">
        <ele>111.4</ele>
        <time>2025-02-26T15:46:58Z</time>
      </trkpt>
      <trkpt lat="48.02567" lon="-3.50152">
        <ele>111.4</ele>
        <time>2025-02-26T15:46:59Z</time>
      </trkpt>
      <trkpt lat="48.02568" lon="-3.50152">
        <ele>111.4</ele>
        <time>2025-02-26T15:47:00Z</time>
      </trkpt>
      <trkpt lat="48.02569" lon="-3.50153">
        <ele>111.2</ele>
        <time>2025-02-26T15:47:01Z</time>
      </trkpt>
      <trkpt lat="48.0257" lon="-3.50153">
        <ele>111.2</ele>
        <time>2025-02-26T15:47:02Z</time>
      </trkpt>
      <trkpt lat="48.02571" lon="-3.50153">
        <ele>111.1</ele>
        <time>2025-02-26T15:47:03Z</time>
      </trkpt>
      <trkpt lat="48.02573" lon="-3.50153">
        <ele>111.1</ele>
        <time>2025-02-26T15:47:04Z</time>
      </trkpt>
      <trkpt lat="48.02574" lon="-3.50153">
        <ele>111.2</ele>
        <time>2025-02-26T15:47:05Z</time>
      </trkpt>
      <trkpt lat="48.02575" lon="-3.50152">
        <ele>111.2</ele>
        <time>2025-02-26T15:47:06Z</time>
      </trkpt>
      <trkpt lat="48.02576" lon="-3.50152">
        <ele>111.3</ele>
        <time>2025-02-26T15:47:07Z</time>
      </trkpt>
      <trkpt lat="48.02577" lon="-3.50151">
        <ele>111.3</ele>
        <time>2025-02-26T15:47:08Z</time>
      </trkpt>
      <trkpt lat="48.02578" lon="-3.5015">
        <ele>111.4</ele>
        <time>2025-02-26T15:47:09Z</time>
      </trkpt>
      <trkpt lat="48.02579" lon="-3.5015">
        <ele>111.5</ele>
        <time>2025-02-26T15:47:10Z</time>
      </trkpt>
      <trkpt lat="48.0258" lon="-3.50149">
        <ele>111.5</ele>
        <time>2025-02-26T15:47:11Z</time>
      </trkpt>
      <trkpt lat="48.02581" lon="-3.50149">
        <ele>111.5</ele>
        <time>2025-02-26T15:47:12Z</time>
      </trkpt>
      <trkpt lat="48.02582" lon="-3.50148">
        <ele>111.7</ele>
        <time>2025-02-26T15:47:13Z</time>
      </trkpt>
      <trkpt lat="48.02583" lon="-3.50148">
        <ele>111.7</ele>
        <time>2025-02-26T15:47:14Z</time>
      </trkpt>
      <trkpt lat="48.02584" lon="-3.50148">
        <ele>111.6</ele>
        <time>2025-02-26T15:47:15Z</time>
      </trkpt>
      <trkpt lat="48.02585" lon="-3.50149">
        <ele>111.4</ele>
        <time>2025-02-26T15:47:16Z</time>
      </trkpt>
      <trkpt lat="48.02586" lon="-3.50149">
        <ele>111.3</ele>
        <time>2025-02-26T15:47:17Z</time>
      </trkpt>
      <trkpt lat="48.02587" lon="-3.5015">
        <ele>111.1</ele>
        <time>2025-02-26T15:47:18Z</time>
      </trkpt>
      <trkpt lat="48.02588" lon="-3.5015">
        <ele>111</ele>
        <time>2025-02-26T15:47:19Z</time>
      </trkpt>
      <trkpt lat="48.02589" lon="-3.5015">
        <ele>110.9</ele>
        <time>2025-02-26T15:47:20Z</time>
      </trkpt>
      <trkpt lat="48.0259" lon="-3.5015">
        <ele>110.9</ele>
        <time>2025-02-26T15:47:21Z</time>
      </trkpt>
      <trkpt lat="48.02591" lon="-3.5015">
        <ele>110.9</ele>
        <time>2025-02-26T15:47:22Z</time>
      </trkpt>
      <trkpt lat="48.02592" lon="-3.5015">
        <ele>110.8</ele>
        <time>2025-02-26T15:47:23Z</time>
      </trkpt>
      <trkpt lat="48.02593" lon="-3.50148">
        <ele>110.9</ele>
        <time>2025-02-26T15:47:24Z</time>
      </trkpt>
      <trkpt lat="48.02594" lon="-3.50148">
        <ele>110.9</ele>
        <time>2025-02-26T15:47:25Z</time>
      </trkpt>
      <trkpt lat="48.02595" lon="-3.50147">
        <ele>111</ele>
        <time>2025-02-26T15:47:26Z</time>
      </trkpt>
      <trkpt lat="48.02596" lon="-3.50146">
        <ele>111.1</ele>
        <time>2025-02-26T15:47:27Z</time>
      </trkpt>
      <trkpt lat="48.02597" lon="-3.50145">
        <ele>111.2</ele>
        <time>2025-02-26T15:47:28Z</time>
      </trkpt>
      <trkpt lat="48.02597" lon="-3.50143">
        <ele>111.4</ele>
        <time>2025-02-26T15:47:29Z</time>
      </trkpt>
      <trkpt lat="48.02598" lon="-3.50142">
        <ele>111.5</ele>
        <time>2025-02-26T15:47:30Z</time>
      </trkpt>
      <trkpt lat="48.02599" lon="-3.50142">
        <ele>111.5</ele>
        <time>2025-02-26T15:47:31Z</time>
      </trkpt>
      <trkpt lat="48.026" lon="-3.50141">
        <ele>111.5</ele>
        <time>2025-02-26T15:47:32Z</time>
      </trkpt>
      <trkpt lat="48.02601" lon="-3.5014">
        <ele>111.6</ele>
        <time>2025-02-26T15:47:33Z</time>
      </trkpt>
      <trkpt lat="48.02601" lon="-3.50138">
        <ele>111.8</ele>
        <time>2025-02-26T15:47:34Z</time>
      </trkpt>
      <trkpt lat="48.02602" lon="-3.50137">
        <ele>112</ele>
        <time>2025-02-26T15:47:35Z</time>
      </trkpt>
      <trkpt lat="48.02603" lon="-3.50136">
        <ele>112.1</ele>
        <time>2025-02-26T15:47:36Z</time>
      </trkpt>
      <trkpt lat="48.02604" lon="-3.50135">
        <ele>112.1</ele>
        <time>2025-02-26T15:47:37Z</time>
      </trkpt>
      <trkpt lat="48.02604" lon="-3.50134">
        <ele>112.2</ele>
        <time>2025-02-26T15:47:38Z</time>
      </trkpt>
      <trkpt lat="48.02605" lon="-3.50133">
        <ele>112.3</ele>
        <time>2025-02-26T15:47:39Z</time>
      </trkpt>
      <trkpt lat="48.02606" lon="-3.50132">
        <ele>112.5</ele>
        <time>2025-02-26T15:47:40Z</time>
      </trkpt>
      <trkpt lat="48.02607" lon="-3.50131">
        <ele>112.7</ele>
        <time>2025-02-26T15:47:41Z</time>
      </trkpt>
      <trkpt lat="48.02607" lon="-3.5013">
        <ele>112.8</ele>
        <time>2025-02-26T15:47:42Z</time>
      </trkpt>
      <trkpt lat="48.02608" lon="-3.5013">
        <ele>112.7</ele>
        <time>2025-02-26T15:47:43Z</time>
      </trkpt>
      <trkpt lat="48.02609" lon="-3.50129">
        <ele>112.8</ele>
        <time>2025-02-26T15:47:44Z</time>
      </trkpt>
      <trkpt lat="48.0261" lon="-3.50128">
        <ele>113.1</ele>
        <time>2025-02-26T15:47:45Z</time>
      </trkpt>
      <trkpt lat="48.0261" lon="-3.50126">
        <ele>113.3</ele>
        <time>2025-02-26T15:47:46Z</time>
      </trkpt>
      <trkpt lat="48.0261" lon="-3.50124">
        <ele>113.6</ele>
        <time>2025-02-26T15:47:47Z</time>
      </trkpt>
      <trkpt lat="48.02611" lon="-3.50123">
        <ele>113.9</ele>
        <time>2025-02-26T15:47:48Z</time>
      </trkpt>
      <trkpt lat="48.02612" lon="-3.50122">
        <ele>114</ele>
        <time>2025-02-26T15:47:49Z</time>
      </trkpt>
      <trkpt lat="48.02613" lon="-3.50121">
        <ele>114</ele>
        <time>2025-02-26T15:47:50Z</time>
      </trkpt>
      <trkpt lat="48.02614" lon="-3.5012">
        <ele>114.1</ele>
        <time>2025-02-26T15:47:51Z</time>
      </trkpt>
      <trkpt lat="48.02614" lon="-3.50119">
        <ele>114.2</ele>
        <time>2025-02-26T15:47:52Z</time>
      </trkpt>
      <trkpt lat="48.02615" lon="-3.50118">
        <ele>114.2</ele>
        <time>2025-02-26T15:47:53Z</time>
      </trkpt>
      <trkpt lat="48.02616" lon="-3.50118">
        <ele>114.1</ele>
        <time>2025-02-26T15:47:54Z</time>
      </trkpt>
      <trkpt lat="48.02617" lon="-3.50117">
        <ele>114.1</ele>
        <time>2025-02-26T15:47:55Z</time>
      </trkpt>
      <trkpt lat="48.02618" lon="-3.50116">
        <ele>114.1</ele>
        <time>2025-02-26T15:47:56Z</time>
      </trkpt>
      <trkpt lat="48.02619" lon="-3.50115">
        <ele>114.3</ele>
        <time>2025-02-26T15:47:57Z</time>
      </trkpt>
      <trkpt lat="48.0262" lon="-3.50113">
        <ele>114.4</ele>
        <time>2025-02-26T15:47:58Z</time>
      </trkpt>
      <trkpt lat="48.0262" lon="-3.50112">
        <ele>114.5</ele>
        <time>2025-02-26T15:47:59Z</time>
      </trkpt>
      <trkpt lat="48.02621" lon="-3.50111">
        <ele>114.5</ele>
        <time>2025-02-26T15:48:00Z</time>
      </trkpt>
      <trkpt lat="48.02622" lon="-3.50111">
        <ele>114.4</ele>
        <time>2025-02-26T15:48:01Z</time>
      </trkpt>
      <trkpt lat="48.02623" lon="-3.5011">
        <ele>114.4</ele>
        <time>2025-02-26T15:48:02Z</time>
      </trkpt>
      <trkpt lat="48.02624" lon="-3.50108">
        <ele>114.4</ele>
        <time>2025-02-26T15:48:03Z</time>
      </trkpt>
      <trkpt lat="48.02625" lon="-3.50107">
        <ele>114.3</ele>
        <time>2025-02-26T15:48:04Z</time>
      </trkpt>
      <trkpt lat="48.02626" lon="-3.50107">
        <ele>114.3</ele>
        <time>2025-02-26T15:48:05Z</time>
      </trkpt>
      <trkpt lat="48.02626" lon="-3.50107">
        <ele>114.2</ele>
        <time>2025-02-26T15:48:06Z</time>
      </trkpt>
      <trkpt lat="48.02626" lon="-3.50107">
        <ele>114.2</ele>
        <time>2025-02-26T15:48:07Z</time>
      </trkpt>
      <trkpt lat="48.02626" lon="-3.50108">
        <ele>114.2</ele>
        <time>2025-02-26T15:48:08Z</time>
      </trkpt>
      <trkpt lat="48.02626" lon="-3.50105">
        <ele>114.4</ele>
        <time>2025-02-26T15:48:09Z</time>
      </trkpt>
      <trkpt lat="48.02626" lon="-3.50103">
        <ele>114.6</ele>
        <time>2025-02-26T15:48:10Z</time>
      </trkpt>
      <trkpt lat="48.02627" lon="-3.50102">
        <ele>114.6</ele>
        <time>2025-02-26T15:48:11Z</time>
      </trkpt>
      <trkpt lat="48.02628" lon="-3.50101">
        <ele>114.6</ele>
        <time>2025-02-26T15:48:12Z</time>
      </trkpt>
      <trkpt lat="48.02629" lon="-3.501">
        <ele>114.5</ele>
        <time>2025-02-26T15:48:13Z</time>
      </trkpt>
      <trkpt lat="48.0263" lon="-3.50099">
        <ele>114.7</ele>
        <time>2025-02-26T15:48:14Z</time>
      </trkpt>
      <trkpt lat="48.02631" lon="-3.50098">
        <ele>114.7</ele>
        <time>2025-02-26T15:48:15Z</time>
      </trkpt>
      <trkpt lat="48.02631" lon="-3.50097">
        <ele>114.7</ele>
        <time>2025-02-26T15:48:16Z</time>
      </trkpt>
      <trkpt lat="48.02632" lon="-3.50096">
        <ele>114.7</ele>
        <time>2025-02-26T15:48:17Z</time>
      </trkpt>
      <trkpt lat="48.02633" lon="-3.50095">
        <ele>114.8</ele>
        <time>2025-02-26T15:48:18Z</time>
      </trkpt>
      <trkpt lat="48.02633" lon="-3.50093">
        <ele>115</ele>
        <time>2025-02-26T15:48:19Z</time>
      </trkpt>
      <trkpt lat="48.02633" lon="-3.50092">
        <ele>115.2</ele>
        <time>2025-02-26T15:48:20Z</time>
      </trkpt>
      <trkpt lat="48.02634" lon="-3.50091">
        <ele>115.2</ele>
        <time>2025-02-26T15:48:21Z</time>
      </trkpt>
      <trkpt lat="48.02636" lon="-3.5009">
        <ele>115.2</ele>
        <time>2025-02-26T15:48:22Z</time>
      </trkpt>
      <trkpt lat="48.02637" lon="-3.5009">
        <ele>115.2</ele>
        <time>2025-02-26T15:48:23Z</time>
      </trkpt>
      <trkpt lat="48.02638" lon="-3.50088">
        <ele>115.4</ele>
        <time>2025-02-26T15:48:24Z</time>
      </trkpt>
      <trkpt lat="48.02638" lon="-3.50087">
        <ele>115.5</ele>
        <time>2025-02-26T15:48:25Z</time>
      </trkpt>
      <trkpt lat="48.02639" lon="-3.50086">
        <ele>115.7</ele>
        <time>2025-02-26T15:48:26Z</time>
      </trkpt>
      <trkpt lat="48.02639" lon="-3.50084">
        <ele>115.9</ele>
        <time>2025-02-26T15:48:27Z</time>
      </trkpt>
      <trkpt lat="48.02639" lon="-3.50082">
        <ele>115.9</ele>
        <time>2025-02-26T15:48:28Z</time>
      </trkpt>
      <trkpt lat="48.02639" lon="-3.50081">
        <ele>116</ele>
        <time>2025-02-26T15:48:29Z</time>
      </trkpt>
      <trkpt lat="48.02639" lon="-3.50081">
        <ele>116</ele>
        <time>2025-02-26T15:48:30Z</time>
      </trkpt>
      <trkpt lat="48.02639" lon="-3.50081">
        <ele>116</ele>
        <time>2025-02-26T15:48:31Z</time>
      </trkpt>
      <trkpt lat="48.02639" lon="-3.50081">
        <ele>116</ele>
        <time>2025-02-26T15:48:32Z</time>
      </trkpt>
      <trkpt lat="48.02639" lon="-3.50081">
        <ele>116</ele>
        <time>2025-02-26T15:48:33Z</time>
      </trkpt>
      <trkpt lat="48.02639" lon="-3.50081">
        <ele>116</ele>
        <time>2025-02-26T15:48:34Z</time>
      </trkpt>
      <trkpt lat="48.02639" lon="-3.50081">
        <ele>116</ele>
        <time>2025-02-26T15:48:35Z</time>
      </trkpt>
      <trkpt lat="48.02639" lon="-3.50081">
        <ele>116</ele>
        <time>2025-02-26T15:48:36Z</time>
      </trkpt>
      <trkpt lat="48.02639" lon="-3.50081">
        <ele>116</ele>
        <time>2025-02-26T15:48:37Z</time>
      </trkpt>
      <trkpt lat="48.02639" lon="-3.50081">
        <ele>116</ele>
        <time>2025-02-26T15:48:38Z</time>
      </trkpt>
      <trkpt lat="48.0264" lon="-3.5008">
        <ele>115.8</ele>
        <time>2025-02-26T15:48:39Z</time>
      </trkpt>
      <trkpt lat="48.02641" lon="-3.50078">
        <ele>115.7</ele>
        <time>2025-02-26T15:48:40Z</time>
      </trkpt>
      <trkpt lat="48.02642" lon="-3.50077">
        <ele>115.5</ele>
        <time>2025-02-26T15:48:41Z</time>
      </trkpt>
      <trkpt lat="48.02642" lon="-3.50076">
        <ele>115.5</ele>
        <time>2025-02-26T15:48:42Z</time>
      </trkpt>
      <trkpt lat="48.02642" lon="-3.50074">
        <ele>115.5</ele>
        <time>2025-02-26T15:48:43Z</time>
      </trkpt>
      <trkpt lat="48.02642" lon="-3.50073">
        <ele>115.5</ele>
        <time>2025-02-26T15:48:44Z</time>
      </trkpt>
      <trkpt lat="48.02643" lon="-3.50071">
        <ele>115.3</ele>
        <time>2025-02-26T15:48:45Z</time>
      </trkpt>
      <trkpt lat="48.02644" lon="-3.50069">
        <ele>115.3</ele>
        <time>2025-02-26T15:48:46Z</time>
      </trkpt>
      <trkpt lat="48.02645" lon="-3.50068">
        <ele>115.1</ele>
        <time>2025-02-26T15:48:47Z</time>
      </trkpt>
      <trkpt lat="48.02645" lon="-3.50066">
        <ele>115</ele>
        <time>2025-02-26T15:48:48Z</time>
      </trkpt>
      <trkpt lat="48.02646" lon="-3.50064">
        <ele>115</ele>
        <time>2025-02-26T15:48:49Z</time>
      </trkpt>
      <trkpt lat="48.02646" lon="-3.50063">
        <ele>114.9</ele>
        <time>2025-02-26T15:48:50Z</time>
      </trkpt>
      <trkpt lat="48.02647" lon="-3.50063">
        <ele>114.8</ele>
        <time>2025-02-26T15:48:51Z</time>
      </trkpt>
      <trkpt lat="48.02647" lon="-3.50064">
        <ele>114.7</ele>
        <time>2025-02-26T15:48:52Z</time>
      </trkpt>
      <trkpt lat="48.02647" lon="-3.50064">
        <ele>114.7</ele>
        <time>2025-02-26T15:48:53Z</time>
      </trkpt>
      <trkpt lat="48.02647" lon="-3.50064">
        <ele>114.7</ele>
        <time>2025-02-26T15:48:54Z</time>
      </trkpt>
      <trkpt lat="48.02648" lon="-3.50062">
        <ele>114.7</ele>
        <time>2025-02-26T15:48:55Z</time>
      </trkpt>
      <trkpt lat="48.02648" lon="-3.50062">
        <ele>114.7</ele>
        <time>2025-02-26T15:48:56Z</time>
      </trkpt>
      <trkpt lat="48.02649" lon="-3.5006">
        <ele>114.5</ele>
        <time>2025-02-26T15:48:57Z</time>
      </trkpt>
      <trkpt lat="48.02649" lon="-3.50059">
        <ele>114.5</ele>
        <time>2025-02-26T15:48:58Z</time>
      </trkpt>
      <trkpt lat="48.0265" lon="-3.50058">
        <ele>114.4</ele>
        <time>2025-02-26T15:48:59Z</time>
      </trkpt>
      <trkpt lat="48.02651" lon="-3.50058">
        <ele>114.2</ele>
        <time>2025-02-26T15:49:00Z</time>
      </trkpt>
      <trkpt lat="48.02651" lon="-3.50058">
        <ele>114.2</ele>
        <time>2025-02-26T15:49:01Z</time>
      </trkpt>
      <trkpt lat="48.02651" lon="-3.50058">
        <ele>114.2</ele>
        <time>2025-02-26T15:49:02Z</time>
      </trkpt>
      <trkpt lat="48.02651" lon="-3.50058">
        <ele>114.2</ele>
        <time>2025-02-26T15:49:03Z</time>
      </trkpt>
      <trkpt lat="48.02651" lon="-3.50058">
        <ele>114.2</ele>
        <time>2025-02-26T15:49:04Z</time>
      </trkpt>
      <trkpt lat="48.02651" lon="-3.50058">
        <ele>114.2</ele>
        <time>2025-02-26T15:49:05Z</time>
      </trkpt>
      <trkpt lat="48.02651" lon="-3.50059">
        <ele>114.1</ele>
        <time>2025-02-26T15:49:06Z</time>
      </trkpt>
      <trkpt lat="48.02652" lon="-3.50059">
        <ele>114</ele>
        <time>2025-02-26T15:49:07Z</time>
      </trkpt>
      <trkpt lat="48.02653" lon="-3.50059">
        <ele>113.9</ele>
        <time>2025-02-26T15:49:08Z</time>
      </trkpt>
      <trkpt lat="48.02655" lon="-3.5006">
        <ele>113.6</ele>
        <time>2025-02-26T15:49:09Z</time>
      </trkpt>
      <trkpt lat="48.02656" lon="-3.5006">
        <ele>113.4</ele>
        <time>2025-02-26T15:49:10Z</time>
      </trkpt>
      <trkpt lat="48.02657" lon="-3.5006">
        <ele>113.3</ele>
        <time>2025-02-26T15:49:11Z</time>
      </trkpt>
      <trkpt lat="48.02658" lon="-3.5006">
        <ele>113.1</ele>
        <time>2025-02-26T15:49:12Z</time>
      </trkpt>
      <trkpt lat="48.02659" lon="-3.5006">
        <ele>112.9</ele>
        <time>2025-02-26T15:49:13Z</time>
      </trkpt>
      <trkpt lat="48.0266" lon="-3.50061">
        <ele>112.8</ele>
        <time>2025-02-26T15:49:14Z</time>
      </trkpt>
      <trkpt lat="48.02661" lon="-3.50061">
        <ele>112.6</ele>
        <time>2025-02-26T15:49:15Z</time>
      </trkpt>
      <trkpt lat="48.02663" lon="-3.50061">
        <ele>112.4</ele>
        <time>2025-02-26T15:49:16Z</time>
      </trkpt>
      <trkpt lat="48.02664" lon="-3.50061">
        <ele>112.3</ele>
        <time>2025-02-26T15:49:17Z</time>
      </trkpt>
      <trkpt lat="48.02665" lon="-3.50062">
        <ele>112</ele>
        <time>2025-02-26T15:49:18Z</time>
      </trkpt>
      <trkpt lat="48.02666" lon="-3.50063">
        <ele>111.8</ele>
        <time>2025-02-26T15:49:19Z</time>
      </trkpt>
      <trkpt lat="48.02667" lon="-3.50064">
        <ele>111.7</ele>
        <time>2025-02-26T15:49:20Z</time>
      </trkpt>
      <trkpt lat="48.02668" lon="-3.50064">
        <ele>111.7</ele>
        <time>2025-02-26T15:49:21Z</time>
      </trkpt>
      <trkpt lat="48.02669" lon="-3.50064">
        <ele>111.7</ele>
        <time>2025-02-26T15:49:22Z</time>
      </trkpt>
      <trkpt lat="48.0267" lon="-3.50064">
        <ele>111.7</ele>
        <time>2025-02-26T15:49:23Z</time>
      </trkpt>
      <trkpt lat="48.02671" lon="-3.50064">
        <ele>111.7</ele>
        <time>2025-02-26T15:49:24Z</time>
      </trkpt>
      <trkpt lat="48.02672" lon="-3.50065">
        <ele>111.7</ele>
        <time>2025-02-26T15:49:25Z</time>
      </trkpt>
      <trkpt lat="48.02673" lon="-3.50065">
        <ele>111.7</ele>
        <time>2025-02-26T15:49:26Z</time>
      </trkpt>
      <trkpt lat="48.02674" lon="-3.50064">
        <ele>111.7</ele>
        <time>2025-02-26T15:49:27Z</time>
      </trkpt>
      <trkpt lat="48.02676" lon="-3.50065">
        <ele>111.7</ele>
        <time>2025-02-26T15:49:28Z</time>
      </trkpt>
      <trkpt lat="48.02677" lon="-3.50065">
        <ele>111.7</ele>
        <time>2025-02-26T15:49:29Z</time>
      </trkpt>
      <trkpt lat="48.02679" lon="-3.50066">
        <ele>111.6</ele>
        <time>2025-02-26T15:49:30Z</time>
      </trkpt>
      <trkpt lat="48.0268" lon="-3.50067">
        <ele>111.6</ele>
        <time>2025-02-26T15:49:31Z</time>
      </trkpt>
      <trkpt lat="48.02681" lon="-3.50067">
        <ele>111.6</ele>
        <time>2025-02-26T15:49:32Z</time>
      </trkpt>
      <trkpt lat="48.02682" lon="-3.50067">
        <ele>111.6</ele>
        <time>2025-02-26T15:49:33Z</time>
      </trkpt>
      <trkpt lat="48.02683" lon="-3.50066">
        <ele>111.6</ele>
        <time>2025-02-26T15:49:34Z</time>
      </trkpt>
      <trkpt lat="48.02684" lon="-3.50066">
        <ele>111.6</ele>
        <time>2025-02-26T15:49:35Z</time>
      </trkpt>
      <trkpt lat="48.02684" lon="-3.50067">
        <ele>111.6</ele>
        <time>2025-02-26T15:49:36Z</time>
      </trkpt>
      <trkpt lat="48.02684" lon="-3.50068">
        <ele>111.5</ele>
        <time>2025-02-26T15:49:37Z</time>
      </trkpt>
      <trkpt lat="48.02685" lon="-3.50069">
        <ele>111.5</ele>
        <time>2025-02-26T15:49:38Z</time>
      </trkpt>
      <trkpt lat="48.02686" lon="-3.50069">
        <ele>111.5</ele>
        <time>2025-02-26T15:49:39Z</time>
      </trkpt>
      <trkpt lat="48.02686" lon="-3.50069">
        <ele>111.5</ele>
        <time>2025-02-26T15:49:40Z</time>
      </trkpt>
      <trkpt lat="48.02687" lon="-3.50069">
        <ele>111.5</ele>
        <time>2025-02-26T15:49:41Z</time>
      </trkpt>
      <trkpt lat="48.02688" lon="-3.50068">
        <ele>111.5</ele>
        <time>2025-02-26T15:49:42Z</time>
      </trkpt>
      <trkpt lat="48.02688" lon="-3.50068">
        <ele>111.6</ele>
        <time>2025-02-26T15:49:43Z</time>
      </trkpt>
      <trkpt lat="48.02689" lon="-3.50067">
        <ele>111.6</ele>
        <time>2025-02-26T15:49:44Z</time>
      </trkpt>
      <trkpt lat="48.0269" lon="-3.50067">
        <ele>111.6</ele>
        <time>2025-02-26T15:49:45Z</time>
      </trkpt>
      <trkpt lat="48.0269" lon="-3.50067">
        <ele>111.6</ele>
        <time>2025-02-26T15:49:46Z</time>
      </trkpt>
      <trkpt lat="48.02691" lon="-3.50068">
        <ele>111.6</ele>
        <time>2025-02-26T15:49:47Z</time>
      </trkpt>
      <trkpt lat="48.02692" lon="-3.50068">
        <ele>111.6</ele>
        <time>2025-02-26T15:49:48Z</time>
      </trkpt>
      <trkpt lat="48.02693" lon="-3.50069">
        <ele>111.5</ele>
        <time>2025-02-26T15:49:49Z</time>
      </trkpt>
      <trkpt lat="48.02693" lon="-3.50068">
        <ele>111.6</ele>
        <time>2025-02-26T15:49:50Z</time>
      </trkpt>
      <trkpt lat="48.02694" lon="-3.50068">
        <ele>111.6</ele>
        <time>2025-02-26T15:49:51Z</time>
      </trkpt>
      <trkpt lat="48.02695" lon="-3.50069">
        <ele>111.6</ele>
        <time>2025-02-26T15:49:52Z</time>
      </trkpt>
      <trkpt lat="48.02695" lon="-3.5007">
        <ele>111.6</ele>
        <time>2025-02-26T15:49:53Z</time>
      </trkpt>
      <trkpt lat="48.02697" lon="-3.5007">
        <ele>111.6</ele>
        <time>2025-02-26T15:49:54Z</time>
      </trkpt>
      <trkpt lat="48.02697" lon="-3.5007">
        <ele>111.7</ele>
        <time>2025-02-26T15:49:55Z</time>
      </trkpt>
      <trkpt lat="48.02698" lon="-3.5007">
        <ele>111.8</ele>
        <time>2025-02-26T15:49:56Z</time>
      </trkpt>
      <trkpt lat="48.02699" lon="-3.50069">
        <ele>111.9</ele>
        <time>2025-02-26T15:49:57Z</time>
      </trkpt>
      <trkpt lat="48.027" lon="-3.50068">
        <ele>111.9</ele>
        <time>2025-02-26T15:49:58Z</time>
      </trkpt>
      <trkpt lat="48.02701" lon="-3.50068">
        <ele>112</ele>
        <time>2025-02-26T15:49:59Z</time>
      </trkpt>
      <trkpt lat="48.02702" lon="-3.50067">
        <ele>112.1</ele>
        <time>2025-02-26T15:50:00Z</time>
      </trkpt>
      <trkpt lat="48.02702" lon="-3.50065">
        <ele>112.2</ele>
        <time>2025-02-26T15:50:01Z</time>
      </trkpt>
      <trkpt lat="48.02703" lon="-3.50064">
        <ele>112.3</ele>
        <time>2025-02-26T15:50:02Z</time>
      </trkpt>
      <trkpt lat="48.02704" lon="-3.50063">
        <ele>112.4</ele>
        <time>2025-02-26T15:50:03Z</time>
      </trkpt>
      <trkpt lat="48.02704" lon="-3.50061">
        <ele>112.5</ele>
        <time>2025-02-26T15:50:04Z</time>
      </trkpt>
      <trkpt lat="48.02704" lon="-3.5006">
        <ele>112.6</ele>
        <time>2025-02-26T15:50:05Z</time>
      </trkpt>
      <trkpt lat="48.02706" lon="-3.50058">
        <ele>112.7</ele>
        <time>2025-02-26T15:50:06Z</time>
      </trkpt>
      <trkpt lat="48.02707" lon="-3.50058">
        <ele>112.8</ele>
        <time>2025-02-26T15:50:07Z</time>
      </trkpt>
      <trkpt lat="48.02708" lon="-3.50057">
        <ele>112.9</ele>
        <time>2025-02-26T15:50:08Z</time>
      </trkpt>
      <trkpt lat="48.02708" lon="-3.50056">
        <ele>113</ele>
        <time>2025-02-26T15:50:09Z</time>
      </trkpt>
      <trkpt lat="48.02709" lon="-3.50056">
        <ele>113.1</ele>
        <time>2025-02-26T15:50:10Z</time>
      </trkpt>
      <trkpt lat="48.0271" lon="-3.50054">
        <ele>113.2</ele>
        <time>2025-02-26T15:50:11Z</time>
      </trkpt>
      <trkpt lat="48.02711" lon="-3.50053">
        <ele>113.3</ele>
        <time>2025-02-26T15:50:12Z</time>
      </trkpt>
      <trkpt lat="48.02712" lon="-3.50052">
        <ele>113.4</ele>
        <time>2025-02-26T15:50:13Z</time>
      </trkpt>
      <trkpt lat="48.02712" lon="-3.50051">
        <ele>113.5</ele>
        <time>2025-02-26T15:50:14Z</time>
      </trkpt>
      <trkpt lat="48.02713" lon="-3.50051">
        <ele>113.7</ele>
        <time>2025-02-26T15:50:15Z</time>
      </trkpt>
      <trkpt lat="48.02714" lon="-3.5005">
        <ele>113.8</ele>
        <time>2025-02-26T15:50:16Z</time>
      </trkpt>
      <trkpt lat="48.02715" lon="-3.50049">
        <ele>113.9</ele>
        <time>2025-02-26T15:50:17Z</time>
      </trkpt>
      <trkpt lat="48.02716" lon="-3.50049">
        <ele>114</ele>
        <time>2025-02-26T15:50:18Z</time>
      </trkpt>
      <trkpt lat="48.02716" lon="-3.50047">
        <ele>114.1</ele>
        <time>2025-02-26T15:50:19Z</time>
      </trkpt>
      <trkpt lat="48.02717" lon="-3.50047">
        <ele>114.2</ele>
        <time>2025-02-26T15:50:20Z</time>
      </trkpt>
      <trkpt lat="48.02718" lon="-3.50048">
        <ele>114.2</ele>
        <time>2025-02-26T15:50:21Z</time>
      </trkpt>
      <trkpt lat="48.02719" lon="-3.50048">
        <ele>114.3</ele>
        <time>2025-02-26T15:50:22Z</time>
      </trkpt>
      <trkpt lat="48.0272" lon="-3.50048">
        <ele>114.4</ele>
        <time>2025-02-26T15:50:23Z</time>
      </trkpt>
      <trkpt lat="48.02721" lon="-3.50047">
        <ele>114.5</ele>
        <time>2025-02-26T15:50:24Z</time>
      </trkpt>
      <trkpt lat="48.02722" lon="-3.50046">
        <ele>114.6</ele>
        <time>2025-02-26T15:50:25Z</time>
      </trkpt>
      <trkpt lat="48.02723" lon="-3.50045">
        <ele>114.8</ele>
        <time>2025-02-26T15:50:26Z</time>
      </trkpt>
      <trkpt lat="48.02724" lon="-3.50045">
        <ele>114.9</ele>
        <time>2025-02-26T15:50:27Z</time>
      </trkpt>
      <trkpt lat="48.02725" lon="-3.50045">
        <ele>115</ele>
        <time>2025-02-26T15:50:28Z</time>
      </trkpt>
      <trkpt lat="48.02726" lon="-3.50046">
        <ele>115.1</ele>
        <time>2025-02-26T15:50:29Z</time>
      </trkpt>
      <trkpt lat="48.02727" lon="-3.50046">
        <ele>115.2</ele>
        <time>2025-02-26T15:50:30Z</time>
      </trkpt>
      <trkpt lat="48.02728" lon="-3.50046">
        <ele>115.2</ele>
        <time>2025-02-26T15:50:31Z</time>
      </trkpt>
      <trkpt lat="48.02729" lon="-3.50046">
        <ele>115.4</ele>
        <time>2025-02-26T15:50:32Z</time>
      </trkpt>
      <trkpt lat="48.0273" lon="-3.50047">
        <ele>115.4</ele>
        <time>2025-02-26T15:50:33Z</time>
      </trkpt>
      <trkpt lat="48.02732" lon="-3.50047">
        <ele>115.5</ele>
        <time>2025-02-26T15:50:34Z</time>
      </trkpt>
      <trkpt lat="48.02732" lon="-3.50046">
        <ele>115.6</ele>
        <time>2025-02-26T15:50:35Z</time>
      </trkpt>
      <trkpt lat="48.02734" lon="-3.50047">
        <ele>115.7</ele>
        <time>2025-02-26T15:50:36Z</time>
      </trkpt>
      <trkpt lat="48.02735" lon="-3.50046">
        <ele>115.8</ele>
        <time>2025-02-26T15:50:37Z</time>
      </trkpt>
      <trkpt lat="48.02736" lon="-3.50047">
        <ele>115.9</ele>
        <time>2025-02-26T15:50:38Z</time>
      </trkpt>
      <trkpt lat="48.02737" lon="-3.50047">
        <ele>116</ele>
        <time>2025-02-26T15:50:39Z</time>
      </trkpt>
      <trkpt lat="48.02738" lon="-3.50047">
        <ele>116.1</ele>
        <time>2025-02-26T15:50:40Z</time>
      </trkpt>
      <trkpt lat="48.02738" lon="-3.50047">
        <ele>116.2</ele>
        <time>2025-02-26T15:50:41Z</time>
      </trkpt>
      <trkpt lat="48.02739" lon="-3.50047">
        <ele>116.3</ele>
        <time>2025-02-26T15:50:42Z</time>
      </trkpt>
      <trkpt lat="48.0274" lon="-3.50049">
        <ele>116.2</ele>
        <time>2025-02-26T15:50:43Z</time>
      </trkpt>
      <trkpt lat="48.02741" lon="-3.5005">
        <ele>116.3</ele>
        <time>2025-02-26T15:50:44Z</time>
      </trkpt>
      <trkpt lat="48.02742" lon="-3.5005">
        <ele>116.4</ele>
        <time>2025-02-26T15:50:45Z</time>
      </trkpt>
      <trkpt lat="48.02743" lon="-3.50051">
        <ele>116.5</ele>
        <time>2025-02-26T15:50:46Z</time>
      </trkpt>
      <trkpt lat="48.02744" lon="-3.50052">
        <ele>116.5</ele>
        <time>2025-02-26T15:50:47Z</time>
      </trkpt>
      <trkpt lat="48.02744" lon="-3.50052">
        <ele>116.5</ele>
        <time>2025-02-26T15:50:48Z</time>
      </trkpt>
      <trkpt lat="48.02745" lon="-3.50053">
        <ele>116.6</ele>
        <time>2025-02-26T15:50:49Z</time>
      </trkpt>
      <trkpt lat="48.02746" lon="-3.50053">
        <ele>116.7</ele>
        <time>2025-02-26T15:50:50Z</time>
      </trkpt>
      <trkpt lat="48.02747" lon="-3.50053">
        <ele>116.8</ele>
        <time>2025-02-26T15:50:51Z</time>
      </trkpt>
      <trkpt lat="48.02748" lon="-3.50052">
        <ele>116.9</ele>
        <time>2025-02-26T15:50:52Z</time>
      </trkpt>
      <trkpt lat="48.02749" lon="-3.50053">
        <ele>116.9</ele>
        <time>2025-02-26T15:50:53Z</time>
      </trkpt>
      <trkpt lat="48.02749" lon="-3.50054">
        <ele>117</ele>
        <time>2025-02-26T15:50:54Z</time>
      </trkpt>
      <trkpt lat="48.0275" lon="-3.50054">
        <ele>117.1</ele>
        <time>2025-02-26T15:50:55Z</time>
      </trkpt>
      <trkpt lat="48.02751" lon="-3.50055">
        <ele>117.1</ele>
        <time>2025-02-26T15:50:56Z</time>
      </trkpt>
      <trkpt lat="48.02752" lon="-3.50056">
        <ele>117.2</ele>
        <time>2025-02-26T15:50:57Z</time>
      </trkpt>
      <trkpt lat="48.02753" lon="-3.50057">
        <ele>117.2</ele>
        <time>2025-02-26T15:50:58Z</time>
      </trkpt>
      <trkpt lat="48.02753" lon="-3.50058">
        <ele>117.3</ele>
        <time>2025-02-26T15:50:59Z</time>
      </trkpt>
      <trkpt lat="48.02754" lon="-3.50059">
        <ele>117.3</ele>
        <time>2025-02-26T15:51:00Z</time>
      </trkpt>
      <trkpt lat="48.02755" lon="-3.50059">
        <ele>117.4</ele>
        <time>2025-02-26T15:51:01Z</time>
      </trkpt>
      <trkpt lat="48.02756" lon="-3.5006">
        <ele>117.5</ele>
        <time>2025-02-26T15:51:02Z</time>
      </trkpt>
      <trkpt lat="48.02757" lon="-3.50061">
        <ele>117.6</ele>
        <time>2025-02-26T15:51:03Z</time>
      </trkpt>
      <trkpt lat="48.02758" lon="-3.50061">
        <ele>117.7</ele>
        <time>2025-02-26T15:51:04Z</time>
      </trkpt>
      <trkpt lat="48.02759" lon="-3.50062">
        <ele>117.7</ele>
        <time>2025-02-26T15:51:05Z</time>
      </trkpt>
      <trkpt lat="48.0276" lon="-3.50062">
        <ele>117.8</ele>
        <time>2025-02-26T15:51:06Z</time>
      </trkpt>
      <trkpt lat="48.02761" lon="-3.50062">
        <ele>117.9</ele>
        <time>2025-02-26T15:51:07Z</time>
      </trkpt>
      <trkpt lat="48.02762" lon="-3.50061">
        <ele>118.1</ele>
        <time>2025-02-26T15:51:08Z</time>
      </trkpt>
      <trkpt lat="48.02764" lon="-3.50061">
        <ele>118.3</ele>
        <time>2025-02-26T15:51:09Z</time>
      </trkpt>
      <trkpt lat="48.02765" lon="-3.50061">
        <ele>118.4</ele>
        <time>2025-02-26T15:51:10Z</time>
      </trkpt>
      <trkpt lat="48.02766" lon="-3.50061">
        <ele>118.5</ele>
        <time>2025-02-26T15:51:11Z</time>
      </trkpt>
      <trkpt lat="48.02767" lon="-3.50061">
        <ele>118.6</ele>
        <time>2025-02-26T15:51:12Z</time>
      </trkpt>
      <trkpt lat="48.02768" lon="-3.50061">
        <ele>118.7</ele>
        <time>2025-02-26T15:51:13Z</time>
      </trkpt>
      <trkpt lat="48.02769" lon="-3.50061">
        <ele>118.8</ele>
        <time>2025-02-26T15:51:14Z</time>
      </trkpt>
      <trkpt lat="48.0277" lon="-3.50062">
        <ele>118.9</ele>
        <time>2025-02-26T15:51:15Z</time>
      </trkpt>
      <trkpt lat="48.02771" lon="-3.50063">
        <ele>119</ele>
        <time>2025-02-26T15:51:16Z</time>
      </trkpt>
      <trkpt lat="48.02772" lon="-3.50062">
        <ele>119.1</ele>
        <time>2025-02-26T15:51:17Z</time>
      </trkpt>
      <trkpt lat="48.02772" lon="-3.50064">
        <ele>119.1</ele>
        <time>2025-02-26T15:51:18Z</time>
      </trkpt>
      <trkpt lat="48.02773" lon="-3.50065">
        <ele>119.2</ele>
        <time>2025-02-26T15:51:19Z</time>
      </trkpt>
      <trkpt lat="48.02774" lon="-3.50066">
        <ele>119.3</ele>
        <time>2025-02-26T15:51:20Z</time>
      </trkpt>
      <trkpt lat="48.02775" lon="-3.50066">
        <ele>119.3</ele>
        <time>2025-02-26T15:51:21Z</time>
      </trkpt>
      <trkpt lat="48.02776" lon="-3.50067">
        <ele>119.4</ele>
        <time>2025-02-26T15:51:22Z</time>
      </trkpt>
      <trkpt lat="48.02777" lon="-3.50068">
        <ele>119.4</ele>
        <time>2025-02-26T15:51:23Z</time>
      </trkpt>
      <trkpt lat="48.02777" lon="-3.50069">
        <ele>119.4</ele>
        <time>2025-02-26T15:51:24Z</time>
      </trkpt>
      <trkpt lat="48.02778" lon="-3.5007">
        <ele>119.5</ele>
        <time>2025-02-26T15:51:25Z</time>
      </trkpt>
      <trkpt lat="48.02779" lon="-3.5007">
        <ele>119.6</ele>
        <time>2025-02-26T15:51:26Z</time>
      </trkpt>
      <trkpt lat="48.0278" lon="-3.5007">
        <ele>119.7</ele>
        <time>2025-02-26T15:51:27Z</time>
      </trkpt>
      <trkpt lat="48.0278" lon="-3.5007">
        <ele>119.7</ele>
        <time>2025-02-26T15:51:28Z</time>
      </trkpt>
      <trkpt lat="48.02781" lon="-3.50071">
        <ele>119.8</ele>
        <time>2025-02-26T15:51:29Z</time>
      </trkpt>
      <trkpt lat="48.02782" lon="-3.50072">
        <ele>119.9</ele>
        <time>2025-02-26T15:51:30Z</time>
      </trkpt>
      <trkpt lat="48.02783" lon="-3.50073">
        <ele>119.9</ele>
        <time>2025-02-26T15:51:31Z</time>
      </trkpt>
      <trkpt lat="48.02784" lon="-3.50074">
        <ele>120</ele>
        <time>2025-02-26T15:51:32Z</time>
      </trkpt>
      <trkpt lat="48.02784" lon="-3.50075">
        <ele>120</ele>
        <time>2025-02-26T15:51:33Z</time>
      </trkpt>
      <trkpt lat="48.02785" lon="-3.50076">
        <ele>120</ele>
        <time>2025-02-26T15:51:34Z</time>
      </trkpt>
      <trkpt lat="48.02786" lon="-3.50077">
        <ele>120.1</ele>
        <time>2025-02-26T15:51:35Z</time>
      </trkpt>
      <trkpt lat="48.02787" lon="-3.50077">
        <ele>120.2</ele>
        <time>2025-02-26T15:51:36Z</time>
      </trkpt>
      <trkpt lat="48.02788" lon="-3.50077">
        <ele>120.3</ele>
        <time>2025-02-26T15:51:37Z</time>
      </trkpt>
      <trkpt lat="48.02789" lon="-3.50078">
        <ele>120.4</ele>
        <time>2025-02-26T15:51:38Z</time>
      </trkpt>
      <trkpt lat="48.0279" lon="-3.50079">
        <ele>120.5</ele>
        <time>2025-02-26T15:51:39Z</time>
      </trkpt>
      <trkpt lat="48.02791" lon="-3.5008">
        <ele>120.5</ele>
        <time>2025-02-26T15:51:40Z</time>
      </trkpt>
      <trkpt lat="48.02791" lon="-3.50081">
        <ele>120.6</ele>
        <time>2025-02-26T15:51:41Z</time>
      </trkpt>
      <trkpt lat="48.02793" lon="-3.50081">
        <ele>120.7</ele>
        <time>2025-02-26T15:51:42Z</time>
      </trkpt>
      <trkpt lat="48.02793" lon="-3.50082">
        <ele>120.7</ele>
        <time>2025-02-26T15:51:43Z</time>
      </trkpt>
      <trkpt lat="48.02795" lon="-3.50083">
        <ele>120.8</ele>
        <time>2025-02-26T15:51:44Z</time>
      </trkpt>
      <trkpt lat="48.02796" lon="-3.50084">
        <ele>120.9</ele>
        <time>2025-02-26T15:51:45Z</time>
      </trkpt>
      <trkpt lat="48.02797" lon="-3.50084">
        <ele>121</ele>
        <time>2025-02-26T15:51:46Z</time>
      </trkpt>
      <trkpt lat="48.02797" lon="-3.50085">
        <ele>121.1</ele>
        <time>2025-02-26T15:51:47Z</time>
      </trkpt>
      <trkpt lat="48.02798" lon="-3.50086">
        <ele>121.2</ele>
        <time>2025-02-26T15:51:48Z</time>
      </trkpt>
      <trkpt lat="48.02799" lon="-3.50086">
        <ele>121.3</ele>
        <time>2025-02-26T15:51:49Z</time>
      </trkpt>
      <trkpt lat="48.02799" lon="-3.50087">
        <ele>121.3</ele>
        <time>2025-02-26T15:51:50Z</time>
      </trkpt>
      <trkpt lat="48.028" lon="-3.50088">
        <ele>121.4</ele>
        <time>2025-02-26T15:51:51Z</time>
      </trkpt>
      <trkpt lat="48.028" lon="-3.50089">
        <ele>121.4</ele>
        <time>2025-02-26T15:51:52Z</time>
      </trkpt>
      <trkpt lat="48.028" lon="-3.5009">
        <ele>121.4</ele>
        <time>2025-02-26T15:51:53Z</time>
      </trkpt>
      <trkpt lat="48.02801" lon="-3.5009">
        <ele>121.5</ele>
        <time>2025-02-26T15:51:54Z</time>
      </trkpt>
      <trkpt lat="48.02802" lon="-3.5009">
        <ele>121.6</ele>
        <time>2025-02-26T15:51:55Z</time>
      </trkpt>
      <trkpt lat="48.02802" lon="-3.50091">
        <ele>121.6</ele>
        <time>2025-02-26T15:51:56Z</time>
      </trkpt>
      <trkpt lat="48.02803" lon="-3.50092">
        <ele>121.7</ele>
        <time>2025-02-26T15:51:57Z</time>
      </trkpt>
      <trkpt lat="48.02803" lon="-3.50093">
        <ele>121.7</ele>
        <time>2025-02-26T15:51:58Z</time>
      </trkpt>
      <trkpt lat="48.02804" lon="-3.50093">
        <ele>121.8</ele>
        <time>2025-02-26T15:51:59Z</time>
      </trkpt>
      <trkpt lat="48.02804" lon="-3.50094">
        <ele>121.9</ele>
        <time>2025-02-26T15:52:00Z</time>
      </trkpt>
      <trkpt lat="48.02805" lon="-3.50095">
        <ele>121.9</ele>
        <time>2025-02-26T15:52:01Z</time>
      </trkpt>
      <trkpt lat="48.02805" lon="-3.50096">
        <ele>122</ele>
        <time>2025-02-26T15:52:02Z</time>
      </trkpt>
      <trkpt lat="48.02806" lon="-3.50097">
        <ele>122</ele>
        <time>2025-02-26T15:52:03Z</time>
      </trkpt>
      <trkpt lat="48.02806" lon="-3.50098">
        <ele>122.1</ele>
        <time>2025-02-26T15:52:04Z</time>
      </trkpt>
      <trkpt lat="48.02807" lon="-3.50099">
        <ele>122.1</ele>
        <time>2025-02-26T15:52:05Z</time>
      </trkpt>
      <trkpt lat="48.02808" lon="-3.501">
        <ele>122.2</ele>
        <time>2025-02-26T15:52:06Z</time>
      </trkpt>
      <trkpt lat="48.02808" lon="-3.501">
        <ele>122.3</ele>
        <time>2025-02-26T15:52:07Z</time>
      </trkpt>
      <trkpt lat="48.02809" lon="-3.50101">
        <ele>122.4</ele>
        <time>2025-02-26T15:52:08Z</time>
      </trkpt>
      <trkpt lat="48.0281" lon="-3.50101">
        <ele>122.5</ele>
        <time>2025-02-26T15:52:09Z</time>
      </trkpt>
      <trkpt lat="48.0281" lon="-3.50102">
        <ele>122.5</ele>
        <time>2025-02-26T15:52:10Z</time>
      </trkpt>
      <trkpt lat="48.02811" lon="-3.50103">
        <ele>122.6</ele>
        <time>2025-02-26T15:52:11Z</time>
      </trkpt>
      <trkpt lat="48.02812" lon="-3.50103">
        <ele>122.6</ele>
        <time>2025-02-26T15:52:12Z</time>
      </trkpt>
      <trkpt lat="48.02812" lon="-3.50104">
        <ele>122.7</ele>
        <time>2025-02-26T15:52:13Z</time>
      </trkpt>
      <trkpt lat="48.02813" lon="-3.50105">
        <ele>122.8</ele>
        <time>2025-02-26T15:52:14Z</time>
      </trkpt>
      <trkpt lat="48.02814" lon="-3.50106">
        <ele>122.9</ele>
        <time>2025-02-26T15:52:15Z</time>
      </trkpt>
      <trkpt lat="48.02815" lon="-3.50106">
        <ele>123</ele>
        <time>2025-02-26T15:52:16Z</time>
      </trkpt>
      <trkpt lat="48.02816" lon="-3.50106">
        <ele>123.1</ele>
        <time>2025-02-26T15:52:17Z</time>
      </trkpt>
      <trkpt lat="48.02817" lon="-3.50107">
        <ele>123.2</ele>
        <time>2025-02-26T15:52:18Z</time>
      </trkpt>
      <trkpt lat="48.02818" lon="-3.50108">
        <ele>123.3</ele>
        <time>2025-02-26T15:52:19Z</time>
      </trkpt>
      <trkpt lat="48.02818" lon="-3.50109">
        <ele>123.4</ele>
        <time>2025-02-26T15:52:20Z</time>
      </trkpt>
      <trkpt lat="48.02819" lon="-3.5011">
        <ele>123.4</ele>
        <time>2025-02-26T15:52:21Z</time>
      </trkpt>
      <trkpt lat="48.02819" lon="-3.50111">
        <ele>123.5</ele>
        <time>2025-02-26T15:52:22Z</time>
      </trkpt>
      <trkpt lat="48.0282" lon="-3.50112">
        <ele>123.6</ele>
        <time>2025-02-26T15:52:23Z</time>
      </trkpt>
      <trkpt lat="48.02821" lon="-3.50113">
        <ele>123.7</ele>
        <time>2025-02-26T15:52:24Z</time>
      </trkpt>
      <trkpt lat="48.02822" lon="-3.50114">
        <ele>123.8</ele>
        <time>2025-02-26T15:52:25Z</time>
      </trkpt>
      <trkpt lat="48.02823" lon="-3.50114">
        <ele>123.9</ele>
        <time>2025-02-26T15:52:26Z</time>
      </trkpt>
      <trkpt lat="48.02823" lon="-3.50115">
        <ele>124</ele>
        <time>2025-02-26T15:52:27Z</time>
      </trkpt>
      <trkpt lat="48.02824" lon="-3.50116">
        <ele>124.1</ele>
        <time>2025-02-26T15:52:28Z</time>
      </trkpt>
      <trkpt lat="48.02825" lon="-3.50116">
        <ele>124.1</ele>
        <time>2025-02-26T15:52:29Z</time>
      </trkpt>
      <trkpt lat="48.02825" lon="-3.50117">
        <ele>124.2</ele>
        <time>2025-02-26T15:52:30Z</time>
      </trkpt>
      <trkpt lat="48.02826" lon="-3.50118">
        <ele>124.3</ele>
        <time>2025-02-26T15:52:31Z</time>
      </trkpt>
      <trkpt lat="48.02827" lon="-3.50119">
        <ele>124.3</ele>
        <time>2025-02-26T15:52:32Z</time>
      </trkpt>
      <trkpt lat="48.02827" lon="-3.50119">
        <ele>124.4</ele>
        <time>2025-02-26T15:52:33Z</time>
      </trkpt>
      <trkpt lat="48.02828" lon="-3.50119">
        <ele>124.5</ele>
        <time>2025-02-26T15:52:34Z</time>
      </trkpt>
      <trkpt lat="48.02828" lon="-3.50121">
        <ele>124.5</ele>
        <time>2025-02-26T15:52:35Z</time>
      </trkpt>
      <trkpt lat="48.02828" lon="-3.50122">
        <ele>124.5</ele>
        <time>2025-02-26T15:52:36Z</time>
      </trkpt>
      <trkpt lat="48.02829" lon="-3.50122">
        <ele>124.6</ele>
        <time>2025-02-26T15:52:37Z</time>
      </trkpt>
      <trkpt lat="48.02829" lon="-3.50124">
        <ele>124.6</ele>
        <time>2025-02-26T15:52:38Z</time>
      </trkpt>
      <trkpt lat="48.02829" lon="-3.50124">
        <ele>124.6</ele>
        <time>2025-02-26T15:52:39Z</time>
      </trkpt>
      <trkpt lat="48.0283" lon="-3.50125">
        <ele>124.7</ele>
        <time>2025-02-26T15:52:40Z</time>
      </trkpt>
      <trkpt lat="48.02831" lon="-3.50125">
        <ele>124.7</ele>
        <time>2025-02-26T15:52:41Z</time>
      </trkpt>
      <trkpt lat="48.02831" lon="-3.50126">
        <ele>124.8</ele>
        <time>2025-02-26T15:52:42Z</time>
      </trkpt>
      <trkpt lat="48.02831" lon="-3.50127">
        <ele>124.8</ele>
        <time>2025-02-26T15:52:43Z</time>
      </trkpt>
      <trkpt lat="48.02832" lon="-3.50128">
        <ele>124.8</ele>
        <time>2025-02-26T15:52:44Z</time>
      </trkpt>
      <trkpt lat="48.02832" lon="-3.50129">
        <ele>124.9</ele>
        <time>2025-02-26T15:52:45Z</time>
      </trkpt>
      <trkpt lat="48.02832" lon="-3.5013">
        <ele>124.9</ele>
        <time>2025-02-26T15:52:46Z</time>
      </trkpt>
      <trkpt lat="48.02832" lon="-3.50131">
        <ele>124.9</ele>
        <time>2025-02-26T15:52:47Z</time>
      </trkpt>
      <trkpt lat="48.02832" lon="-3.50132">
        <ele>124.9</ele>
        <time>2025-02-26T15:52:48Z</time>
      </trkpt>
      <trkpt lat="48.02833" lon="-3.50133">
        <ele>125</ele>
        <time>2025-02-26T15:52:49Z</time>
      </trkpt>
      <trkpt lat="48.02834" lon="-3.50133">
        <ele>125</ele>
        <time>2025-02-26T15:52:50Z</time>
      </trkpt>
      <trkpt lat="48.02834" lon="-3.50134">
        <ele>125</ele>
        <time>2025-02-26T15:52:51Z</time>
      </trkpt>
      <trkpt lat="48.02834" lon="-3.50134">
        <ele>125</ele>
        <time>2025-02-26T15:52:52Z</time>
      </trkpt>
      <trkpt lat="48.02834" lon="-3.50135">
        <ele>125.1</ele>
        <time>2025-02-26T15:52:53Z</time>
      </trkpt>
      <trkpt lat="48.02834" lon="-3.50136">
        <ele>125.1</ele>
        <time>2025-02-26T15:52:54Z</time>
      </trkpt>
      <trkpt lat="48.02834" lon="-3.50137">
        <ele>125.1</ele>
        <time>2025-02-26T15:52:55Z</time>
      </trkpt>
      <trkpt lat="48.02836" lon="-3.50138">
        <ele>125.2</ele>
        <time>2025-02-26T15:52:56Z</time>
      </trkpt>
      <trkpt lat="48.02836" lon="-3.50139">
        <ele>125.2</ele>
        <time>2025-02-26T15:52:57Z</time>
      </trkpt>
      <trkpt lat="48.02836" lon="-3.5014">
        <ele>125.2</ele>
        <time>2025-02-26T15:52:58Z</time>
      </trkpt>
      <trkpt lat="48.02836" lon="-3.5014">
        <ele>125.2</ele>
        <time>2025-02-26T15:52:59Z</time>
      </trkpt>
      <trkpt lat="48.02837" lon="-3.50141">
        <ele>125.3</ele>
        <time>2025-02-26T15:53:00Z</time>
      </trkpt>
      <trkpt lat="48.02837" lon="-3.50142">
        <ele>125.4</ele>
        <time>2025-02-26T15:53:01Z</time>
      </trkpt>
      <trkpt lat="48.02837" lon="-3.50142">
        <ele>125.3</ele>
        <time>2025-02-26T15:53:02Z</time>
      </trkpt>
      <trkpt lat="48.02837" lon="-3.50142">
        <ele>125.4</ele>
        <time>2025-02-26T15:53:03Z</time>
      </trkpt>
      <trkpt lat="48.02838" lon="-3.50143">
        <ele>125.5</ele>
        <time>2025-02-26T15:53:04Z</time>
      </trkpt>
      <trkpt lat="48.02839" lon="-3.50143">
        <ele>125.6</ele>
        <time>2025-02-26T15:53:05Z</time>
      </trkpt>
      <trkpt lat="48.0284" lon="-3.50144">
        <ele>125.7</ele>
        <time>2025-02-26T15:53:06Z</time>
      </trkpt>
      <trkpt lat="48.02841" lon="-3.50145">
        <ele>125.8</ele>
        <time>2025-02-26T15:53:07Z</time>
      </trkpt>
      <trkpt lat="48.02842" lon="-3.50146">
        <ele>125.9</ele>
        <time>2025-02-26T15:53:08Z</time>
      </trkpt>
      <trkpt lat="48.02843" lon="-3.50146">
        <ele>126</ele>
        <time>2025-02-26T15:53:09Z</time>
      </trkpt>
      <trkpt lat="48.02844" lon="-3.50148">
        <ele>126.1</ele>
        <time>2025-02-26T15:53:10Z</time>
      </trkpt>
      <trkpt lat="48.02845" lon="-3.50149">
        <ele>126.2</ele>
        <time>2025-02-26T15:53:11Z</time>
      </trkpt>
      <trkpt lat="48.02845" lon="-3.5015">
        <ele>126.3</ele>
        <time>2025-02-26T15:53:12Z</time>
      </trkpt>
      <trkpt lat="48.02846" lon="-3.50151">
        <ele>126.4</ele>
        <time>2025-02-26T15:53:13Z</time>
      </trkpt>
      <trkpt lat="48.02847" lon="-3.50152">
        <ele>126.4</ele>
        <time>2025-02-26T15:53:14Z</time>
      </trkpt>
      <trkpt lat="48.02848" lon="-3.50153">
        <ele>126.5</ele>
        <time>2025-02-26T15:53:15Z</time>
      </trkpt>
      <trkpt lat="48.02848" lon="-3.50153">
        <ele>126.6</ele>
        <time>2025-02-26T15:53:16Z</time>
      </trkpt>
      <trkpt lat="48.02849" lon="-3.50155">
        <ele>126.7</ele>
        <time>2025-02-26T15:53:17Z</time>
      </trkpt>
      <trkpt lat="48.02849" lon="-3.50156">
        <ele>126.7</ele>
        <time>2025-02-26T15:53:18Z</time>
      </trkpt>
      <trkpt lat="48.02848" lon="-3.50158">
        <ele>126.8</ele>
        <time>2025-02-26T15:53:19Z</time>
      </trkpt>
      <trkpt lat="48.02848" lon="-3.50159">
        <ele>126.7</ele>
        <time>2025-02-26T15:53:20Z</time>
      </trkpt>
      <trkpt lat="48.02847" lon="-3.50159">
        <ele>126.7</ele>
        <time>2025-02-26T15:53:21Z</time>
      </trkpt>
      <trkpt lat="48.02846" lon="-3.5016">
        <ele>126.7</ele>
        <time>2025-02-26T15:53:22Z</time>
      </trkpt>
      <trkpt lat="48.02846" lon="-3.5016">
        <ele>126.7</ele>
        <time>2025-02-26T15:53:23Z</time>
      </trkpt>
      <trkpt lat="48.02845" lon="-3.5016">
        <ele>126.6</ele>
        <time>2025-02-26T15:53:24Z</time>
      </trkpt>
      <trkpt lat="48.02845" lon="-3.50159">
        <ele>126.5</ele>
        <time>2025-02-26T15:53:25Z</time>
      </trkpt>
      <trkpt lat="48.02845" lon="-3.50159">
        <ele>126.5</ele>
        <time>2025-02-26T15:53:26Z</time>
      </trkpt>
      <trkpt lat="48.02845" lon="-3.50158">
        <ele>126.5</ele>
        <time>2025-02-26T15:53:27Z</time>
      </trkpt>
      <trkpt lat="48.02845" lon="-3.50158">
        <ele>126.5</ele>
        <time>2025-02-26T15:53:28Z</time>
      </trkpt>
      <trkpt lat="48.02845" lon="-3.50158">
        <ele>126.6</ele>
        <time>2025-02-26T15:53:29Z</time>
      </trkpt>
      <trkpt lat="48.02845" lon="-3.50158">
        <ele>126.6</ele>
        <time>2025-02-26T15:53:30Z</time>
      </trkpt>
      <trkpt lat="48.02845" lon="-3.50158">
        <ele>126.6</ele>
        <time>2025-02-26T15:53:31Z</time>
      </trkpt>
      <trkpt lat="48.02845" lon="-3.50158">
        <ele>126.6</ele>
        <time>2025-02-26T15:53:32Z</time>
      </trkpt>
      <trkpt lat="48.02845" lon="-3.50158">
        <ele>126.6</ele>
        <time>2025-02-26T15:53:33Z</time>
      </trkpt>
      <trkpt lat="48.02845" lon="-3.50158">
        <ele>126.6</ele>
        <time>2025-02-26T15:53:34Z</time>
      </trkpt>
      <trkpt lat="48.02845" lon="-3.50158">
        <ele>126.6</ele>
        <time>2025-02-26T15:53:35Z</time>
      </trkpt>
      <trkpt lat="48.02845" lon="-3.50159">
        <ele>126.6</ele>
        <time>2025-02-26T15:53:36Z</time>
      </trkpt>
      <trkpt lat="48.02846" lon="-3.50158">
        <ele>126.6</ele>
        <time>2025-02-26T15:53:37Z</time>
      </trkpt>
      <trkpt lat="48.02846" lon="-3.50158">
        <ele>126.6</ele>
        <time>2025-02-26T15:53:38Z</time>
      </trkpt>
      <trkpt lat="48.02846" lon="-3.50158">
        <ele>126.6</ele>
        <time>2025-02-26T15:53:39Z</time>
      </trkpt>
      <trkpt lat="48.02846" lon="-3.50158">
        <ele>126.6</ele>
        <time>2025-02-26T15:53:40Z</time>
      </trkpt>
      <trkpt lat="48.02846" lon="-3.50158">
        <ele>126.6</ele>
        <time>2025-02-26T15:53:41Z</time>
      </trkpt>
      <trkpt lat="48.02846" lon="-3.50158">
        <ele>126.6</ele>
        <time>2025-02-26T15:53:42Z</time>
      </trkpt>
      <trkpt lat="48.02847" lon="-3.50157">
        <ele>126.6</ele>
        <time>2025-02-26T15:53:43Z</time>
      </trkpt>
      <trkpt lat="48.02847" lon="-3.50157">
        <ele>126.6</ele>
        <time>2025-02-26T15:53:44Z</time>
      </trkpt>
      <trkpt lat="48.02847" lon="-3.50157">
        <ele>126.6</ele>
        <time>2025-02-26T15:53:45Z</time>
      </trkpt>
      <trkpt lat="48.02848" lon="-3.50156">
        <ele>126.6</ele>
        <time>2025-02-26T15:53:46Z</time>
      </trkpt>
      <trkpt lat="48.02848" lon="-3.50156">
        <ele>126.6</ele>
        <time>2025-02-26T15:53:47Z</time>
      </trkpt>
      <trkpt lat="48.02848" lon="-3.50156">
        <ele>126.7</ele>
        <time>2025-02-26T15:53:48Z</time>
      </trkpt>
      <trkpt lat="48.02848" lon="-3.50155">
        <ele>126.6</ele>
        <time>2025-02-26T15:53:49Z</time>
      </trkpt>
      <trkpt lat="48.02846" lon="-3.50154">
        <ele>126.5</ele>
        <time>2025-02-26T15:53:50Z</time>
      </trkpt>
      <trkpt lat="48.02846" lon="-3.50154">
        <ele>126.4</ele>
        <time>2025-02-26T15:53:51Z</time>
      </trkpt>
      <trkpt lat="48.02846" lon="-3.50153">
        <ele>126.4</ele>
        <time>2025-02-26T15:53:52Z</time>
      </trkpt>
      <trkpt lat="48.02844" lon="-3.50153">
        <ele>126.3</ele>
        <time>2025-02-26T15:53:53Z</time>
      </trkpt>
      <trkpt lat="48.02844" lon="-3.50152">
        <ele>126.2</ele>
        <time>2025-02-26T15:53:54Z</time>
      </trkpt>
      <trkpt lat="48.02844" lon="-3.50153">
        <ele>126.3</ele>
        <time>2025-02-26T15:53:55Z</time>
      </trkpt>
      <trkpt lat="48.02844" lon="-3.50152">
        <ele>126.3</ele>
        <time>2025-02-26T15:53:56Z</time>
      </trkpt>
      <trkpt lat="48.02844" lon="-3.50152">
        <ele>126.2</ele>
        <time>2025-02-26T15:53:57Z</time>
      </trkpt>
      <trkpt lat="48.02844" lon="-3.50151">
        <ele>126.2</ele>
        <time>2025-02-26T15:53:58Z</time>
      </trkpt>
      <trkpt lat="48.02845" lon="-3.5015">
        <ele>126.2</ele>
        <time>2025-02-26T15:53:59Z</time>
      </trkpt>
      <trkpt lat="48.02846" lon="-3.50148">
        <ele>126.2</ele>
        <time>2025-02-26T15:54:00Z</time>
      </trkpt>
      <trkpt lat="48.02846" lon="-3.50145">
        <ele>126.1</ele>
        <time>2025-02-26T15:54:01Z</time>
      </trkpt>
      <trkpt lat="48.02846" lon="-3.50143">
        <ele>126.1</ele>
        <time>2025-02-26T15:54:02Z</time>
      </trkpt>
      <trkpt lat="48.02847" lon="-3.50141">
        <ele>126</ele>
        <time>2025-02-26T15:54:03Z</time>
      </trkpt>
      <trkpt lat="48.02847" lon="-3.50139">
        <ele>126</ele>
        <time>2025-02-26T15:54:04Z</time>
      </trkpt>
      <trkpt lat="48.02846" lon="-3.50139">
        <ele>125.9</ele>
        <time>2025-02-26T15:54:05Z</time>
      </trkpt>
      <trkpt lat="48.02845" lon="-3.50139">
        <ele>125.9</ele>
        <time>2025-02-26T15:54:06Z</time>
      </trkpt>
      <trkpt lat="48.02845" lon="-3.50139">
        <ele>125.8</ele>
        <time>2025-02-26T15:54:07Z</time>
      </trkpt>
      <trkpt lat="48.02845" lon="-3.50137">
        <ele>125.8</ele>
        <time>2025-02-26T15:54:08Z</time>
      </trkpt>
      <trkpt lat="48.02845" lon="-3.50137">
        <ele>125.8</ele>
        <time>2025-02-26T15:54:09Z</time>
      </trkpt>
      <trkpt lat="48.02845" lon="-3.50137">
        <ele>125.8</ele>
        <time>2025-02-26T15:54:10Z</time>
      </trkpt>
      <trkpt lat="48.02845" lon="-3.50137">
        <ele>125.8</ele>
        <time>2025-02-26T15:54:11Z</time>
      </trkpt>
      <trkpt lat="48.02845" lon="-3.50137">
        <ele>125.8</ele>
        <time>2025-02-26T15:54:12Z</time>
      </trkpt>
      <trkpt lat="48.02845" lon="-3.50137">
        <ele>125.8</ele>
        <time>2025-02-26T15:54:13Z</time>
      </trkpt>
      <trkpt lat="48.02845" lon="-3.50137">
        <ele>125.8</ele>
        <time>2025-02-26T15:54:14Z</time>
      </trkpt>
      <trkpt lat="48.02845" lon="-3.50137">
        <ele>125.8</ele>
        <time>2025-02-26T15:54:15Z</time>
      </trkpt>
      <trkpt lat="48.02845" lon="-3.50137">
        <ele>125.8</ele>
        <time>2025-02-26T15:54:16Z</time>
      </trkpt>
      <trkpt lat="48.02845" lon="-3.50137">
        <ele>125.8</ele>
        <time>2025-02-26T15:54:17Z</time>
      </trkpt>
      <trkpt lat="48.02845" lon="-3.50137">
        <ele>125.8</ele>
        <time>2025-02-26T15:54:18Z</time>
      </trkpt>
      <trkpt lat="48.02845" lon="-3.50137">
        <ele>125.8</ele>
        <time>2025-02-26T15:54:19Z</time>
      </trkpt>
      <trkpt lat="48.02845" lon="-3.50137">
        <ele>125.8</ele>
        <time>2025-02-26T15:54:20Z</time>
      </trkpt>
      <trkpt lat="48.02845" lon="-3.50137">
        <ele>125.8</ele>
        <time>2025-02-26T15:54:21Z</time>
      </trkpt>
      <trkpt lat="48.02845" lon="-3.50137">
        <ele>125.8</ele>
        <time>2025-02-26T15:54:22Z</time>
      </trkpt>
      <trkpt lat="48.02845" lon="-3.50137">
        <ele>125.8</ele>
        <time>2025-02-26T15:54:23Z</time>
      </trkpt>
      <trkpt lat="48.02845" lon="-3.50137">
        <ele>125.8</ele>
        <time>2025-02-26T15:54:24Z</time>
      </trkpt>
      <trkpt lat="48.02845" lon="-3.50137">
        <ele>125.8</ele>
        <time>2025-02-26T15:54:25Z</time>
      </trkpt>
      <trkpt lat="48.02845" lon="-3.50138">
        <ele>125.8</ele>
        <time>2025-02-26T15:54:26Z</time>
      </trkpt>
      <trkpt lat="48.02845" lon="-3.5014">
        <ele>125.9</ele>
        <time>2025-02-26T15:54:27Z</time>
      </trkpt>
      <trkpt lat="48.02846" lon="-3.50142">
        <ele>126</ele>
        <time>2025-02-26T15:54:28Z</time>
      </trkpt>
      <trkpt lat="48.02845" lon="-3.50143">
        <ele>126</ele>
        <time>2025-02-26T15:54:29Z</time>
      </trkpt>
      <trkpt lat="48.02845" lon="-3.50144">
        <ele>126.1</ele>
        <time>2025-02-26T15:54:30Z</time>
      </trkpt>
      <trkpt lat="48.02845" lon="-3.50146">
        <ele>126.1</ele>
        <time>2025-02-26T15:54:31Z</time>
      </trkpt>
      <trkpt lat="48.02845" lon="-3.50147">
        <ele>126.1</ele>
        <time>2025-02-26T15:54:32Z</time>
      </trkpt>
      <trkpt lat="48.02845" lon="-3.50148">
        <ele>126.2</ele>
        <time>2025-02-26T15:54:33Z</time>
      </trkpt>
      <trkpt lat="48.02845" lon="-3.50149">
        <ele>126.2</ele>
        <time>2025-02-26T15:54:34Z</time>
      </trkpt>
      <trkpt lat="48.02845" lon="-3.50149">
        <ele>126.2</ele>
        <time>2025-02-26T15:54:35Z</time>
      </trkpt>
      <trkpt lat="48.02846" lon="-3.5015">
        <ele>126.3</ele>
        <time>2025-02-26T15:54:36Z</time>
      </trkpt>
      <trkpt lat="48.02846" lon="-3.5015">
        <ele>126.3</ele>
        <time>2025-02-26T15:54:37Z</time>
      </trkpt>
      <trkpt lat="48.02846" lon="-3.5015">
        <ele>126.3</ele>
        <time>2025-02-26T15:54:38Z</time>
      </trkpt>
      <trkpt lat="48.02847" lon="-3.50151">
        <ele>126.4</ele>
        <time>2025-02-26T15:54:39Z</time>
      </trkpt>
      <trkpt lat="48.02847" lon="-3.50151">
        <ele>126.4</ele>
        <time>2025-02-26T15:54:40Z</time>
      </trkpt>
      <trkpt lat="48.02847" lon="-3.50151">
        <ele>126.4</ele>
        <time>2025-02-26T15:54:41Z</time>
      </trkpt>
      <trkpt lat="48.02847" lon="-3.50151">
        <ele>126.4</ele>
        <time>2025-02-26T15:54:42Z</time>
      </trkpt>
      <trkpt lat="48.02847" lon="-3.50151">
        <ele>126.4</ele>
        <time>2025-02-26T15:54:43Z</time>
      </trkpt>
      <trkpt lat="48.02847" lon="-3.50151">
        <ele>126.4</ele>
        <time>2025-02-26T15:54:44Z</time>
      </trkpt>
      <trkpt lat="48.02847" lon="-3.50151">
        <ele>126.4</ele>
        <time>2025-02-26T15:54:45Z</time>
      </trkpt>
      <trkpt lat="48.02847" lon="-3.50153">
        <ele>126.5</ele>
        <time>2025-02-26T15:54:46Z</time>
      </trkpt>
      <trkpt lat="48.02847" lon="-3.50154">
        <ele>126.5</ele>
        <time>2025-02-26T15:54:47Z</time>
      </trkpt>
      <trkpt lat="48.02848" lon="-3.50155">
        <ele>126.7</ele>
        <time>2025-02-26T15:54:48Z</time>
      </trkpt>
      <trkpt lat="48.02849" lon="-3.50156">
        <ele>126.8</ele>
        <time>2025-02-26T15:54:49Z</time>
      </trkpt>
      <trkpt lat="48.0285" lon="-3.50157">
        <ele>126.9</ele>
        <time>2025-02-26T15:54:50Z</time>
      </trkpt>
      <trkpt lat="48.0285" lon="-3.50158">
        <ele>126.9</ele>
        <time>2025-02-26T15:54:51Z</time>
      </trkpt>
      <trkpt lat="48.02851" lon="-3.50159">
        <ele>127</ele>
        <time>2025-02-26T15:54:52Z</time>
      </trkpt>
      <trkpt lat="48.02852" lon="-3.5016">
        <ele>127.1</ele>
        <time>2025-02-26T15:54:53Z</time>
      </trkpt>
      <trkpt lat="48.02851" lon="-3.50162">
        <ele>127.1</ele>
        <time>2025-02-26T15:54:54Z</time>
      </trkpt>
      <trkpt lat="48.02851" lon="-3.50162">
        <ele>127.1</ele>
        <time>2025-02-26T15:54:55Z</time>
      </trkpt>
      <trkpt lat="48.02851" lon="-3.50164">
        <ele>127.1</ele>
        <time>2025-02-26T15:54:56Z</time>
      </trkpt>
      <trkpt lat="48.02851" lon="-3.50165">
        <ele>127.2</ele>
        <time>2025-02-26T15:54:57Z</time>
      </trkpt>
      <trkpt lat="48.02851" lon="-3.50167">
        <ele>127.3</ele>
        <time>2025-02-26T15:54:58Z</time>
      </trkpt>
      <trkpt lat="48.02852" lon="-3.50168">
        <ele>127.3</ele>
        <time>2025-02-26T15:54:59Z</time>
      </trkpt>
      <trkpt lat="48.02853" lon="-3.50169">
        <ele>127.4</ele>
        <time>2025-02-26T15:55:00Z</time>
      </trkpt>
      <trkpt lat="48.02853" lon="-3.5017">
        <ele>127.4</ele>
        <time>2025-02-26T15:55:01Z</time>
      </trkpt>
      <trkpt lat="48.02854" lon="-3.5017">
        <ele>127.5</ele>
        <time>2025-02-26T15:55:02Z</time>
      </trkpt>
      <trkpt lat="48.02855" lon="-3.50171">
        <ele>127.6</ele>
        <time>2025-02-26T15:55:03Z</time>
      </trkpt>
      <trkpt lat="48.02857" lon="-3.50172">
        <ele>127.7</ele>
        <time>2025-02-26T15:55:04Z</time>
      </trkpt>
      <trkpt lat="48.02858" lon="-3.50172">
        <ele>127.8</ele>
        <time>2025-02-26T15:55:05Z</time>
      </trkpt>
      <trkpt lat="48.02859" lon="-3.50173">
        <ele>127.9</ele>
        <time>2025-02-26T15:55:06Z</time>
      </trkpt>
      <trkpt lat="48.02861" lon="-3.50174">
        <ele>128</ele>
        <time>2025-02-26T15:55:07Z</time>
      </trkpt>
      <trkpt lat="48.02862" lon="-3.50174">
        <ele>128.1</ele>
        <time>2025-02-26T15:55:08Z</time>
      </trkpt>
      <trkpt lat="48.02863" lon="-3.50174">
        <ele>128.2</ele>
        <time>2025-02-26T15:55:09Z</time>
      </trkpt>
      <trkpt lat="48.02864" lon="-3.50174">
        <ele>128.2</ele>
        <time>2025-02-26T15:55:10Z</time>
      </trkpt>
      <trkpt lat="48.02865" lon="-3.50174">
        <ele>128.2</ele>
        <time>2025-02-26T15:55:11Z</time>
      </trkpt>
      <trkpt lat="48.02866" lon="-3.50174">
        <ele>128.3</ele>
        <time>2025-02-26T15:55:12Z</time>
      </trkpt>
      <trkpt lat="48.02867" lon="-3.50174">
        <ele>128.4</ele>
        <time>2025-02-26T15:55:13Z</time>
      </trkpt>
      <trkpt lat="48.02868" lon="-3.50174">
        <ele>128.5</ele>
        <time>2025-02-26T15:55:14Z</time>
      </trkpt>
      <trkpt lat="48.02869" lon="-3.50174">
        <ele>128.5</ele>
        <time>2025-02-26T15:55:15Z</time>
      </trkpt>
      <trkpt lat="48.0287" lon="-3.50176">
        <ele>128.6</ele>
        <time>2025-02-26T15:55:16Z</time>
      </trkpt>
      <trkpt lat="48.0287" lon="-3.50177">
        <ele>128.6</ele>
        <time>2025-02-26T15:55:17Z</time>
      </trkpt>
      <trkpt lat="48.02871" lon="-3.50177">
        <ele>128.7</ele>
        <time>2025-02-26T15:55:18Z</time>
      </trkpt>
      <trkpt lat="48.02872" lon="-3.50178">
        <ele>128.8</ele>
        <time>2025-02-26T15:55:19Z</time>
      </trkpt>
      <trkpt lat="48.02873" lon="-3.50177">
        <ele>128.9</ele>
        <time>2025-02-26T15:55:20Z</time>
      </trkpt>
      <trkpt lat="48.02874" lon="-3.50177">
        <ele>128.9</ele>
        <time>2025-02-26T15:55:21Z</time>
      </trkpt>
      <trkpt lat="48.02875" lon="-3.50178">
        <ele>129</ele>
        <time>2025-02-26T15:55:22Z</time>
      </trkpt>
      <trkpt lat="48.02876" lon="-3.50178">
        <ele>129.1</ele>
        <time>2025-02-26T15:55:23Z</time>
      </trkpt>
      <trkpt lat="48.02877" lon="-3.50178">
        <ele>129.1</ele>
        <time>2025-02-26T15:55:24Z</time>
      </trkpt>
      <trkpt lat="48.02878" lon="-3.50178">
        <ele>129.2</ele>
        <time>2025-02-26T15:55:25Z</time>
      </trkpt>
      <trkpt lat="48.02879" lon="-3.50179">
        <ele>129.3</ele>
        <time>2025-02-26T15:55:26Z</time>
      </trkpt>
      <trkpt lat="48.0288" lon="-3.50179">
        <ele>129.3</ele>
        <time>2025-02-26T15:55:27Z</time>
      </trkpt>
      <trkpt lat="48.02881" lon="-3.5018">
        <ele>129.4</ele>
        <time>2025-02-26T15:55:28Z</time>
      </trkpt>
      <trkpt lat="48.02881" lon="-3.50181">
        <ele>129.4</ele>
        <time>2025-02-26T15:55:29Z</time>
      </trkpt>
      <trkpt lat="48.02882" lon="-3.50182">
        <ele>129.5</ele>
        <time>2025-02-26T15:55:30Z</time>
      </trkpt>
      <trkpt lat="48.02883" lon="-3.50182">
        <ele>129.6</ele>
        <time>2025-02-26T15:55:31Z</time>
      </trkpt>
      <trkpt lat="48.02884" lon="-3.50182">
        <ele>129.6</ele>
        <time>2025-02-26T15:55:32Z</time>
      </trkpt>
      <trkpt lat="48.02885" lon="-3.50182">
        <ele>129.7</ele>
        <time>2025-02-26T15:55:33Z</time>
      </trkpt>
      <trkpt lat="48.02886" lon="-3.50183">
        <ele>129.8</ele>
        <time>2025-02-26T15:55:34Z</time>
      </trkpt>
      <trkpt lat="48.02886" lon="-3.50183">
        <ele>129.8</ele>
        <time>2025-02-26T15:55:35Z</time>
      </trkpt>
      <trkpt lat="48.02887" lon="-3.50185">
        <ele>129.9</ele>
        <time>2025-02-26T15:55:36Z</time>
      </trkpt>
      <trkpt lat="48.02888" lon="-3.50185">
        <ele>129.9</ele>
        <time>2025-02-26T15:55:37Z</time>
      </trkpt>
      <trkpt lat="48.02889" lon="-3.50186">
        <ele>130</ele>
        <time>2025-02-26T15:55:38Z</time>
      </trkpt>
      <trkpt lat="48.02891" lon="-3.50185">
        <ele>130.1</ele>
        <time>2025-02-26T15:55:39Z</time>
      </trkpt>
      <trkpt lat="48.02892" lon="-3.50186">
        <ele>130.2</ele>
        <time>2025-02-26T15:55:40Z</time>
      </trkpt>
      <trkpt lat="48.02893" lon="-3.50186">
        <ele>130.3</ele>
        <time>2025-02-26T15:55:41Z</time>
      </trkpt>
      <trkpt lat="48.02894" lon="-3.50186">
        <ele>130.4</ele>
        <time>2025-02-26T15:55:42Z</time>
      </trkpt>
      <trkpt lat="48.02895" lon="-3.50185">
        <ele>130.4</ele>
        <time>2025-02-26T15:55:43Z</time>
      </trkpt>
      <trkpt lat="48.02896" lon="-3.50186">
        <ele>130.5</ele>
        <time>2025-02-26T15:55:44Z</time>
      </trkpt>
      <trkpt lat="48.02897" lon="-3.50186">
        <ele>130.6</ele>
        <time>2025-02-26T15:55:45Z</time>
      </trkpt>
      <trkpt lat="48.02898" lon="-3.50187">
        <ele>130.6</ele>
        <time>2025-02-26T15:55:46Z</time>
      </trkpt>
      <trkpt lat="48.02899" lon="-3.50188">
        <ele>130.7</ele>
        <time>2025-02-26T15:55:47Z</time>
      </trkpt>
      <trkpt lat="48.029" lon="-3.50189">
        <ele>130.8</ele>
        <time>2025-02-26T15:55:48Z</time>
      </trkpt>
      <trkpt lat="48.02901" lon="-3.5019">
        <ele>130.9</ele>
        <time>2025-02-26T15:55:49Z</time>
      </trkpt>
      <trkpt lat="48.02902" lon="-3.50191">
        <ele>130.9</ele>
        <time>2025-02-26T15:55:50Z</time>
      </trkpt>
      <trkpt lat="48.02903" lon="-3.50191">
        <ele>131</ele>
        <time>2025-02-26T15:55:51Z</time>
      </trkpt>
      <trkpt lat="48.02904" lon="-3.50193">
        <ele>131.1</ele>
        <time>2025-02-26T15:55:52Z</time>
      </trkpt>
      <trkpt lat="48.02905" lon="-3.50193">
        <ele>131.2</ele>
        <time>2025-02-26T15:55:53Z</time>
      </trkpt>
      <trkpt lat="48.02907" lon="-3.50193">
        <ele>131.3</ele>
        <time>2025-02-26T15:55:54Z</time>
      </trkpt>
      <trkpt lat="48.02908" lon="-3.50193">
        <ele>131.4</ele>
        <time>2025-02-26T15:55:55Z</time>
      </trkpt>
      <trkpt lat="48.02909" lon="-3.50194">
        <ele>131.4</ele>
        <time>2025-02-26T15:55:56Z</time>
      </trkpt>
      <trkpt lat="48.0291" lon="-3.50194">
        <ele>131.5</ele>
        <time>2025-02-26T15:55:57Z</time>
      </trkpt>
      <trkpt lat="48.02911" lon="-3.50195">
        <ele>131.6</ele>
        <time>2025-02-26T15:55:58Z</time>
      </trkpt>
      <trkpt lat="48.02912" lon="-3.50195">
        <ele>131.7</ele>
        <time>2025-02-26T15:55:59Z</time>
      </trkpt>
      <trkpt lat="48.02913" lon="-3.50196">
        <ele>131.7</ele>
        <time>2025-02-26T15:56:00Z</time>
      </trkpt>
      <trkpt lat="48.02914" lon="-3.50196">
        <ele>131.8</ele>
        <time>2025-02-26T15:56:01Z</time>
      </trkpt>
      <trkpt lat="48.02915" lon="-3.50196">
        <ele>131.9</ele>
        <time>2025-02-26T15:56:02Z</time>
      </trkpt>
      <trkpt lat="48.02916" lon="-3.50196">
        <ele>132</ele>
        <time>2025-02-26T15:56:03Z</time>
      </trkpt>
      <trkpt lat="48.02917" lon="-3.50197">
        <ele>132</ele>
        <time>2025-02-26T15:56:04Z</time>
      </trkpt>
      <trkpt lat="48.02918" lon="-3.50198">
        <ele>132.1</ele>
        <time>2025-02-26T15:56:05Z</time>
      </trkpt>
      <trkpt lat="48.02919" lon="-3.50199">
        <ele>132.2</ele>
        <time>2025-02-26T15:56:06Z</time>
      </trkpt>
      <trkpt lat="48.0292" lon="-3.502">
        <ele>132.2</ele>
        <time>2025-02-26T15:56:07Z</time>
      </trkpt>
      <trkpt lat="48.0292" lon="-3.50201">
        <ele>132.3</ele>
        <time>2025-02-26T15:56:08Z</time>
      </trkpt>
      <trkpt lat="48.02921" lon="-3.50201">
        <ele>132.3</ele>
        <time>2025-02-26T15:56:09Z</time>
      </trkpt>
      <trkpt lat="48.02922" lon="-3.50202">
        <ele>132.4</ele>
        <time>2025-02-26T15:56:10Z</time>
      </trkpt>
      <trkpt lat="48.02923" lon="-3.50203">
        <ele>132.5</ele>
        <time>2025-02-26T15:56:11Z</time>
      </trkpt>
      <trkpt lat="48.02924" lon="-3.50204">
        <ele>132.5</ele>
        <time>2025-02-26T15:56:12Z</time>
      </trkpt>
      <trkpt lat="48.02925" lon="-3.50204">
        <ele>132.6</ele>
        <time>2025-02-26T15:56:13Z</time>
      </trkpt>
      <trkpt lat="48.02926" lon="-3.50204">
        <ele>132.7</ele>
        <time>2025-02-26T15:56:14Z</time>
      </trkpt>
      <trkpt lat="48.02927" lon="-3.50204">
        <ele>132.7</ele>
        <time>2025-02-26T15:56:15Z</time>
      </trkpt>
      <trkpt lat="48.02928" lon="-3.50205">
        <ele>132.8</ele>
        <time>2025-02-26T15:56:16Z</time>
      </trkpt>
      <trkpt lat="48.02929" lon="-3.50206">
        <ele>132.9</ele>
        <time>2025-02-26T15:56:17Z</time>
      </trkpt>
      <trkpt lat="48.0293" lon="-3.50208">
        <ele>133</ele>
        <time>2025-02-26T15:56:18Z</time>
      </trkpt>
      <trkpt lat="48.02931" lon="-3.50209">
        <ele>133</ele>
        <time>2025-02-26T15:56:19Z</time>
      </trkpt>
      <trkpt lat="48.02932" lon="-3.50209">
        <ele>133.1</ele>
        <time>2025-02-26T15:56:20Z</time>
      </trkpt>
      <trkpt lat="48.02933" lon="-3.5021">
        <ele>133.2</ele>
        <time>2025-02-26T15:56:21Z</time>
      </trkpt>
      <trkpt lat="48.02934" lon="-3.50211">
        <ele>133.3</ele>
        <time>2025-02-26T15:56:22Z</time>
      </trkpt>
      <trkpt lat="48.02935" lon="-3.50212">
        <ele>133.3</ele>
        <time>2025-02-26T15:56:23Z</time>
      </trkpt>
      <trkpt lat="48.02936" lon="-3.50212">
        <ele>133.4</ele>
        <time>2025-02-26T15:56:24Z</time>
      </trkpt>
      <trkpt lat="48.02937" lon="-3.50213">
        <ele>133.4</ele>
        <time>2025-02-26T15:56:25Z</time>
      </trkpt>
      <trkpt lat="48.02938" lon="-3.50214">
        <ele>133.5</ele>
        <time>2025-02-26T15:56:26Z</time>
      </trkpt>
      <trkpt lat="48.02938" lon="-3.50215">
        <ele>133.6</ele>
        <time>2025-02-26T15:56:27Z</time>
      </trkpt>
      <trkpt lat="48.02939" lon="-3.50216">
        <ele>133.6</ele>
        <time>2025-02-26T15:56:28Z</time>
      </trkpt>
      <trkpt lat="48.0294" lon="-3.50217">
        <ele>133.6</ele>
        <time>2025-02-26T15:56:29Z</time>
      </trkpt>
      <trkpt lat="48.0294" lon="-3.50218">
        <ele>133.7</ele>
        <time>2025-02-26T15:56:30Z</time>
      </trkpt>
      <trkpt lat="48.02941" lon="-3.50218">
        <ele>133.8</ele>
        <time>2025-02-26T15:56:31Z</time>
      </trkpt>
      <trkpt lat="48.02942" lon="-3.50218">
        <ele>133.9</ele>
        <time>2025-02-26T15:56:32Z</time>
      </trkpt>
      <trkpt lat="48.02944" lon="-3.50218">
        <ele>133.9</ele>
        <time>2025-02-26T15:56:33Z</time>
      </trkpt>
      <trkpt lat="48.02945" lon="-3.50219">
        <ele>134</ele>
        <time>2025-02-26T15:56:34Z</time>
      </trkpt>
      <trkpt lat="48.02946" lon="-3.5022">
        <ele>134.1</ele>
        <time>2025-02-26T15:56:35Z</time>
      </trkpt>
      <trkpt lat="48.02946" lon="-3.50221">
        <ele>134.1</ele>
        <time>2025-02-26T15:56:36Z</time>
      </trkpt>
      <trkpt lat="48.02947" lon="-3.50222">
        <ele>134.2</ele>
        <time>2025-02-26T15:56:37Z</time>
      </trkpt>
      <trkpt lat="48.02948" lon="-3.50223">
        <ele>134.3</ele>
        <time>2025-02-26T15:56:38Z</time>
      </trkpt>
      <trkpt lat="48.02949" lon="-3.50223">
        <ele>134.3</ele>
        <time>2025-02-26T15:56:39Z</time>
      </trkpt>
      <trkpt lat="48.0295" lon="-3.50224">
        <ele>134.4</ele>
        <time>2025-02-26T15:56:40Z</time>
      </trkpt>
      <trkpt lat="48.02952" lon="-3.50224">
        <ele>134.5</ele>
        <time>2025-02-26T15:56:41Z</time>
      </trkpt>
      <trkpt lat="48.02953" lon="-3.50224">
        <ele>134.6</ele>
        <time>2025-02-26T15:56:42Z</time>
      </trkpt>
      <trkpt lat="48.02954" lon="-3.50225">
        <ele>134.7</ele>
        <time>2025-02-26T15:56:43Z</time>
      </trkpt>
      <trkpt lat="48.02955" lon="-3.50226">
        <ele>134.8</ele>
        <time>2025-02-26T15:56:44Z</time>
      </trkpt>
      <trkpt lat="48.02956" lon="-3.50227">
        <ele>134.9</ele>
        <time>2025-02-26T15:56:45Z</time>
      </trkpt>
      <trkpt lat="48.02957" lon="-3.50227">
        <ele>134.9</ele>
        <time>2025-02-26T15:56:46Z</time>
      </trkpt>
      <trkpt lat="48.02959" lon="-3.50227">
        <ele>135</ele>
        <time>2025-02-26T15:56:47Z</time>
      </trkpt>
      <trkpt lat="48.0296" lon="-3.50228">
        <ele>135.1</ele>
        <time>2025-02-26T15:56:48Z</time>
      </trkpt>
      <trkpt lat="48.02961" lon="-3.50229">
        <ele>135.2</ele>
        <time>2025-02-26T15:56:49Z</time>
      </trkpt>
      <trkpt lat="48.02961" lon="-3.50231">
        <ele>135.2</ele>
        <time>2025-02-26T15:56:50Z</time>
      </trkpt>
      <trkpt lat="48.02962" lon="-3.50232">
        <ele>135.3</ele>
        <time>2025-02-26T15:56:51Z</time>
      </trkpt>
      <trkpt lat="48.02963" lon="-3.50233">
        <ele>135.3</ele>
        <time>2025-02-26T15:56:52Z</time>
      </trkpt>
      <trkpt lat="48.02964" lon="-3.50234">
        <ele>135.4</ele>
        <time>2025-02-26T15:56:53Z</time>
      </trkpt>
      <trkpt lat="48.02965" lon="-3.50235">
        <ele>135.5</ele>
        <time>2025-02-26T15:56:54Z</time>
      </trkpt>
      <trkpt lat="48.02966" lon="-3.50236">
        <ele>135.6</ele>
        <time>2025-02-26T15:56:55Z</time>
      </trkpt>
      <trkpt lat="48.02967" lon="-3.50236">
        <ele>135.6</ele>
        <time>2025-02-26T15:56:56Z</time>
      </trkpt>
      <trkpt lat="48.02968" lon="-3.50237">
        <ele>135.7</ele>
        <time>2025-02-26T15:56:57Z</time>
      </trkpt>
      <trkpt lat="48.02969" lon="-3.50238">
        <ele>135.8</ele>
        <time>2025-02-26T15:56:58Z</time>
      </trkpt>
      <trkpt lat="48.0297" lon="-3.50238">
        <ele>135.8</ele>
        <time>2025-02-26T15:56:59Z</time>
      </trkpt>
      <trkpt lat="48.02971" lon="-3.50239">
        <ele>135.9</ele>
        <time>2025-02-26T15:57:00Z</time>
      </trkpt>
      <trkpt lat="48.02972" lon="-3.5024">
        <ele>136</ele>
        <time>2025-02-26T15:57:01Z</time>
      </trkpt>
      <trkpt lat="48.02974" lon="-3.5024">
        <ele>136.1</ele>
        <time>2025-02-26T15:57:02Z</time>
      </trkpt>
      <trkpt lat="48.02975" lon="-3.5024">
        <ele>136.2</ele>
        <time>2025-02-26T15:57:03Z</time>
      </trkpt>
      <trkpt lat="48.02976" lon="-3.50241">
        <ele>136.3</ele>
        <time>2025-02-26T15:57:04Z</time>
      </trkpt>
      <trkpt lat="48.02977" lon="-3.50243">
        <ele>136.3</ele>
        <time>2025-02-26T15:57:05Z</time>
      </trkpt>
      <trkpt lat="48.02978" lon="-3.50243">
        <ele>136.4</ele>
        <time>2025-02-26T15:57:06Z</time>
      </trkpt>
      <trkpt lat="48.02978" lon="-3.50244">
        <ele>136.4</ele>
        <time>2025-02-26T15:57:07Z</time>
      </trkpt>
      <trkpt lat="48.02979" lon="-3.50245">
        <ele>136.5</ele>
        <time>2025-02-26T15:57:08Z</time>
      </trkpt>
      <trkpt lat="48.0298" lon="-3.50246">
        <ele>136.6</ele>
        <time>2025-02-26T15:57:09Z</time>
      </trkpt>
      <trkpt lat="48.02981" lon="-3.50247">
        <ele>136.6</ele>
        <time>2025-02-26T15:57:10Z</time>
      </trkpt>
      <trkpt lat="48.02981" lon="-3.50249">
        <ele>136.7</ele>
        <time>2025-02-26T15:57:11Z</time>
      </trkpt>
      <trkpt lat="48.02982" lon="-3.5025">
        <ele>136.7</ele>
        <time>2025-02-26T15:57:12Z</time>
      </trkpt>
      <trkpt lat="48.02983" lon="-3.50251">
        <ele>136.8</ele>
        <time>2025-02-26T15:57:13Z</time>
      </trkpt>
      <trkpt lat="48.02984" lon="-3.50251">
        <ele>136.9</ele>
        <time>2025-02-26T15:57:14Z</time>
      </trkpt>
      <trkpt lat="48.02986" lon="-3.50252">
        <ele>137</ele>
        <time>2025-02-26T15:57:15Z</time>
      </trkpt>
      <trkpt lat="48.02987" lon="-3.50253">
        <ele>137.1</ele>
        <time>2025-02-26T15:57:16Z</time>
      </trkpt>
      <trkpt lat="48.02988" lon="-3.50253">
        <ele>137.2</ele>
        <time>2025-02-26T15:57:17Z</time>
      </trkpt>
      <trkpt lat="48.02989" lon="-3.50254">
        <ele>137.3</ele>
        <time>2025-02-26T15:57:18Z</time>
      </trkpt>
      <trkpt lat="48.0299" lon="-3.50255">
        <ele>137.4</ele>
        <time>2025-02-26T15:57:19Z</time>
      </trkpt>
      <trkpt lat="48.02992" lon="-3.50256">
        <ele>137.4</ele>
        <time>2025-02-26T15:57:20Z</time>
      </trkpt>
      <trkpt lat="48.02993" lon="-3.50256">
        <ele>137.5</ele>
        <time>2025-02-26T15:57:21Z</time>
      </trkpt>
      <trkpt lat="48.02994" lon="-3.50256">
        <ele>137.6</ele>
        <time>2025-02-26T15:57:22Z</time>
      </trkpt>
      <trkpt lat="48.02995" lon="-3.50257">
        <ele>137.7</ele>
        <time>2025-02-26T15:57:23Z</time>
      </trkpt>
      <trkpt lat="48.02995" lon="-3.50259">
        <ele>137.7</ele>
        <time>2025-02-26T15:57:24Z</time>
      </trkpt>
      <trkpt lat="48.02996" lon="-3.5026">
        <ele>137.8</ele>
        <time>2025-02-26T15:57:25Z</time>
      </trkpt>
      <trkpt lat="48.02997" lon="-3.5026">
        <ele>137.8</ele>
        <time>2025-02-26T15:57:26Z</time>
      </trkpt>
      <trkpt lat="48.02998" lon="-3.50261">
        <ele>137.9</ele>
        <time>2025-02-26T15:57:27Z</time>
      </trkpt>
      <trkpt lat="48.03" lon="-3.50261">
        <ele>138</ele>
        <time>2025-02-26T15:57:28Z</time>
      </trkpt>
      <trkpt lat="48.03001" lon="-3.50262">
        <ele>138</ele>
        <time>2025-02-26T15:57:29Z</time>
      </trkpt>
      <trkpt lat="48.03002" lon="-3.50262">
        <ele>138.1</ele>
        <time>2025-02-26T15:57:30Z</time>
      </trkpt>
      <trkpt lat="48.03003" lon="-3.50263">
        <ele>138.1</ele>
        <time>2025-02-26T15:57:31Z</time>
      </trkpt>
      <trkpt lat="48.03004" lon="-3.50264">
        <ele>138.1</ele>
        <time>2025-02-26T15:57:32Z</time>
      </trkpt>
      <trkpt lat="48.03005" lon="-3.50265">
        <ele>138.2</ele>
        <time>2025-02-26T15:57:33Z</time>
      </trkpt>
      <trkpt lat="48.03006" lon="-3.50267">
        <ele>138.2</ele>
        <time>2025-02-26T15:57:34Z</time>
      </trkpt>
      <trkpt lat="48.03006" lon="-3.50268">
        <ele>138.2</ele>
        <time>2025-02-26T15:57:35Z</time>
      </trkpt>
      <trkpt lat="48.03007" lon="-3.50269">
        <ele>138.3</ele>
        <time>2025-02-26T15:57:36Z</time>
      </trkpt>
      <trkpt lat="48.03008" lon="-3.5027">
        <ele>138.3</ele>
        <time>2025-02-26T15:57:37Z</time>
      </trkpt>
      <trkpt lat="48.03009" lon="-3.50271">
        <ele>138.3</ele>
        <time>2025-02-26T15:57:38Z</time>
      </trkpt>
      <trkpt lat="48.0301" lon="-3.50272">
        <ele>138.4</ele>
        <time>2025-02-26T15:57:39Z</time>
      </trkpt>
      <trkpt lat="48.0301" lon="-3.50274">
        <ele>138.4</ele>
        <time>2025-02-26T15:57:40Z</time>
      </trkpt>
      <trkpt lat="48.03011" lon="-3.50276">
        <ele>138.4</ele>
        <time>2025-02-26T15:57:41Z</time>
      </trkpt>
      <trkpt lat="48.03012" lon="-3.50276">
        <ele>138.4</ele>
        <time>2025-02-26T15:57:42Z</time>
      </trkpt>
      <trkpt lat="48.03013" lon="-3.50277">
        <ele>138.5</ele>
        <time>2025-02-26T15:57:43Z</time>
      </trkpt>
      <trkpt lat="48.03014" lon="-3.50277">
        <ele>138.5</ele>
        <time>2025-02-26T15:57:44Z</time>
      </trkpt>
      <trkpt lat="48.03016" lon="-3.50277">
        <ele>138.6</ele>
        <time>2025-02-26T15:57:45Z</time>
      </trkpt>
      <trkpt lat="48.03017" lon="-3.50278">
        <ele>138.6</ele>
        <time>2025-02-26T15:57:46Z</time>
      </trkpt>
      <trkpt lat="48.03018" lon="-3.50278">
        <ele>138.7</ele>
        <time>2025-02-26T15:57:47Z</time>
      </trkpt>
      <trkpt lat="48.03019" lon="-3.50278">
        <ele>138.7</ele>
        <time>2025-02-26T15:57:48Z</time>
      </trkpt>
      <trkpt lat="48.03021" lon="-3.50277">
        <ele>138.7</ele>
        <time>2025-02-26T15:57:49Z</time>
      </trkpt>
      <trkpt lat="48.03022" lon="-3.50276">
        <ele>138.8</ele>
        <time>2025-02-26T15:57:50Z</time>
      </trkpt>
      <trkpt lat="48.03023" lon="-3.50277">
        <ele>138.8</ele>
        <time>2025-02-26T15:57:51Z</time>
      </trkpt>
      <trkpt lat="48.03024" lon="-3.50276">
        <ele>138.9</ele>
        <time>2025-02-26T15:57:52Z</time>
      </trkpt>
      <trkpt lat="48.03025" lon="-3.50276">
        <ele>138.9</ele>
        <time>2025-02-26T15:57:53Z</time>
      </trkpt>
      <trkpt lat="48.03026" lon="-3.50275">
        <ele>138.9</ele>
        <time>2025-02-26T15:57:54Z</time>
      </trkpt>
      <trkpt lat="48.03027" lon="-3.50274">
        <ele>139</ele>
        <time>2025-02-26T15:57:55Z</time>
      </trkpt>
      <trkpt lat="48.03028" lon="-3.50272">
        <ele>139</ele>
        <time>2025-02-26T15:57:56Z</time>
      </trkpt>
      <trkpt lat="48.03028" lon="-3.50271">
        <ele>139</ele>
        <time>2025-02-26T15:57:57Z</time>
      </trkpt>
      <trkpt lat="48.03029" lon="-3.50269">
        <ele>139.1</ele>
        <time>2025-02-26T15:57:58Z</time>
      </trkpt>
      <trkpt lat="48.03029" lon="-3.50267">
        <ele>139.1</ele>
        <time>2025-02-26T15:57:59Z</time>
      </trkpt>
      <trkpt lat="48.0303" lon="-3.50265">
        <ele>139.1</ele>
        <time>2025-02-26T15:58:00Z</time>
      </trkpt>
      <trkpt lat="48.0303" lon="-3.50264">
        <ele>139.2</ele>
        <time>2025-02-26T15:58:01Z</time>
      </trkpt>
      <trkpt lat="48.03031" lon="-3.50262">
        <ele>139.2</ele>
        <time>2025-02-26T15:58:02Z</time>
      </trkpt>
      <trkpt lat="48.03031" lon="-3.5026">
        <ele>139.3</ele>
        <time>2025-02-26T15:58:03Z</time>
      </trkpt>
      <trkpt lat="48.03032" lon="-3.50259">
        <ele>139.3</ele>
        <time>2025-02-26T15:58:04Z</time>
      </trkpt>
      <trkpt lat="48.03032" lon="-3.50258">
        <ele>139.3</ele>
        <time>2025-02-26T15:58:05Z</time>
      </trkpt>
      <trkpt lat="48.03032" lon="-3.50256">
        <ele>139.3</ele>
        <time>2025-02-26T15:58:06Z</time>
      </trkpt>
      <trkpt lat="48.03032" lon="-3.50255">
        <ele>139.3</ele>
        <time>2025-02-26T15:58:07Z</time>
      </trkpt>
      <trkpt lat="48.03032" lon="-3.50253">
        <ele>139.3</ele>
        <time>2025-02-26T15:58:08Z</time>
      </trkpt>
      <trkpt lat="48.03032" lon="-3.50251">
        <ele>139.3</ele>
        <time>2025-02-26T15:58:09Z</time>
      </trkpt>
      <trkpt lat="48.03032" lon="-3.5025">
        <ele>139.3</ele>
        <time>2025-02-26T15:58:10Z</time>
      </trkpt>
      <trkpt lat="48.03032" lon="-3.50248">
        <ele>139.3</ele>
        <time>2025-02-26T15:58:11Z</time>
      </trkpt>
      <trkpt lat="48.03032" lon="-3.50246">
        <ele>139.3</ele>
        <time>2025-02-26T15:58:12Z</time>
      </trkpt>
      <trkpt lat="48.03032" lon="-3.50244">
        <ele>139.3</ele>
        <time>2025-02-26T15:58:13Z</time>
      </trkpt>
      <trkpt lat="48.03033" lon="-3.50243">
        <ele>139.3</ele>
        <time>2025-02-26T15:58:14Z</time>
      </trkpt>
      <trkpt lat="48.03033" lon="-3.50241">
        <ele>139.4</ele>
        <time>2025-02-26T15:58:15Z</time>
      </trkpt>
      <trkpt lat="48.03034" lon="-3.50239">
        <ele>139.4</ele>
        <time>2025-02-26T15:58:16Z</time>
      </trkpt>
      <trkpt lat="48.03034" lon="-3.50237">
        <ele>139.4</ele>
        <time>2025-02-26T15:58:17Z</time>
      </trkpt>
      <trkpt lat="48.03034" lon="-3.50235">
        <ele>139.5</ele>
        <time>2025-02-26T15:58:18Z</time>
      </trkpt>
      <trkpt lat="48.03034" lon="-3.50233">
        <ele>139.4</ele>
        <time>2025-02-26T15:58:19Z</time>
      </trkpt>
      <trkpt lat="48.03034" lon="-3.50232">
        <ele>139.4</ele>
        <time>2025-02-26T15:58:20Z</time>
      </trkpt>
      <trkpt lat="48.03034" lon="-3.5023">
        <ele>139.4</ele>
        <time>2025-02-26T15:58:21Z</time>
      </trkpt>
      <trkpt lat="48.03034" lon="-3.50228">
        <ele>139.5</ele>
        <time>2025-02-26T15:58:22Z</time>
      </trkpt>
      <trkpt lat="48.03035" lon="-3.50227">
        <ele>139.5</ele>
        <time>2025-02-26T15:58:23Z</time>
      </trkpt>
      <trkpt lat="48.03035" lon="-3.50225">
        <ele>139.5</ele>
        <time>2025-02-26T15:58:24Z</time>
      </trkpt>
      <trkpt lat="48.03036" lon="-3.50224">
        <ele>139.6</ele>
        <time>2025-02-26T15:58:25Z</time>
      </trkpt>
      <trkpt lat="48.03036" lon="-3.50222">
        <ele>139.6</ele>
        <time>2025-02-26T15:58:26Z</time>
      </trkpt>
      <trkpt lat="48.03036" lon="-3.50221">
        <ele>139.6</ele>
        <time>2025-02-26T15:58:27Z</time>
      </trkpt>
      <trkpt lat="48.03036" lon="-3.50219">
        <ele>139.6</ele>
        <time>2025-02-26T15:58:28Z</time>
      </trkpt>
      <trkpt lat="48.03036" lon="-3.50217">
        <ele>139.6</ele>
        <time>2025-02-26T15:58:29Z</time>
      </trkpt>
      <trkpt lat="48.03036" lon="-3.50215">
        <ele>139.6</ele>
        <time>2025-02-26T15:58:30Z</time>
      </trkpt>
      <trkpt lat="48.03037" lon="-3.50213">
        <ele>139.6</ele>
        <time>2025-02-26T15:58:31Z</time>
      </trkpt>
      <trkpt lat="48.03038" lon="-3.50212">
        <ele>139.7</ele>
        <time>2025-02-26T15:58:32Z</time>
      </trkpt>
      <trkpt lat="48.03038" lon="-3.5021">
        <ele>139.7</ele>
        <time>2025-02-26T15:58:33Z</time>
      </trkpt>
      <trkpt lat="48.03038" lon="-3.50208">
        <ele>139.7</ele>
        <time>2025-02-26T15:58:34Z</time>
      </trkpt>
      <trkpt lat="48.03038" lon="-3.50206">
        <ele>139.7</ele>
        <time>2025-02-26T15:58:35Z</time>
      </trkpt>
      <trkpt lat="48.03038" lon="-3.50204">
        <ele>139.8</ele>
        <time>2025-02-26T15:58:36Z</time>
      </trkpt>
      <trkpt lat="48.03038" lon="-3.50203">
        <ele>139.8</ele>
        <time>2025-02-26T15:58:37Z</time>
      </trkpt>
      <trkpt lat="48.03039" lon="-3.50201">
        <ele>139.8</ele>
        <time>2025-02-26T15:58:38Z</time>
      </trkpt>
      <trkpt lat="48.03038" lon="-3.502">
        <ele>139.8</ele>
        <time>2025-02-26T15:58:39Z</time>
      </trkpt>
      <trkpt lat="48.03039" lon="-3.50198">
        <ele>139.8</ele>
        <time>2025-02-26T15:58:40Z</time>
      </trkpt>
      <trkpt lat="48.03039" lon="-3.50197">
        <ele>139.8</ele>
        <time>2025-02-26T15:58:41Z</time>
      </trkpt>
      <trkpt lat="48.0304" lon="-3.50195">
        <ele>139.8</ele>
        <time>2025-02-26T15:58:42Z</time>
      </trkpt>
      <trkpt lat="48.0304" lon="-3.50194">
        <ele>139.8</ele>
        <time>2025-02-26T15:58:43Z</time>
      </trkpt>
      <trkpt lat="48.0304" lon="-3.50192">
        <ele>139.8</ele>
        <time>2025-02-26T15:58:44Z</time>
      </trkpt>
      <trkpt lat="48.0304" lon="-3.5019">
        <ele>139.7</ele>
        <time>2025-02-26T15:58:45Z</time>
      </trkpt>
      <trkpt lat="48.03039" lon="-3.50188">
        <ele>139.6</ele>
        <time>2025-02-26T15:58:46Z</time>
      </trkpt>
      <trkpt lat="48.03039" lon="-3.50187">
        <ele>139.5</ele>
        <time>2025-02-26T15:58:47Z</time>
      </trkpt>
      <trkpt lat="48.0304" lon="-3.50185">
        <ele>139.5</ele>
        <time>2025-02-26T15:58:48Z</time>
      </trkpt>
      <trkpt lat="48.0304" lon="-3.50183">
        <ele>139.5</ele>
        <time>2025-02-26T15:58:49Z</time>
      </trkpt>
      <trkpt lat="48.0304" lon="-3.50181">
        <ele>139.4</ele>
        <time>2025-02-26T15:58:50Z</time>
      </trkpt>
      <trkpt lat="48.03041" lon="-3.5018">
        <ele>139.4</ele>
        <time>2025-02-26T15:58:51Z</time>
      </trkpt>
      <trkpt lat="48.03041" lon="-3.50178">
        <ele>139.4</ele>
        <time>2025-02-26T15:58:52Z</time>
      </trkpt>
      <trkpt lat="48.03042" lon="-3.50177">
        <ele>139.4</ele>
        <time>2025-02-26T15:58:53Z</time>
      </trkpt>
      <trkpt lat="48.03042" lon="-3.50175">
        <ele>139.3</ele>
        <time>2025-02-26T15:58:54Z</time>
      </trkpt>
      <trkpt lat="48.03042" lon="-3.50174">
        <ele>139.3</ele>
        <time>2025-02-26T15:58:55Z</time>
      </trkpt>
      <trkpt lat="48.03043" lon="-3.50173">
        <ele>139.3</ele>
        <time>2025-02-26T15:58:56Z</time>
      </trkpt>
      <trkpt lat="48.03043" lon="-3.50171">
        <ele>139.3</ele>
        <time>2025-02-26T15:58:57Z</time>
      </trkpt>
      <trkpt lat="48.03044" lon="-3.5017">
        <ele>139.2</ele>
        <time>2025-02-26T15:58:58Z</time>
      </trkpt>
      <trkpt lat="48.03044" lon="-3.50168">
        <ele>139.2</ele>
        <time>2025-02-26T15:58:59Z</time>
      </trkpt>
      <trkpt lat="48.03044" lon="-3.50166">
        <ele>139.1</ele>
        <time>2025-02-26T15:59:00Z</time>
      </trkpt>
      <trkpt lat="48.03044" lon="-3.50165">
        <ele>139</ele>
        <time>2025-02-26T15:59:01Z</time>
      </trkpt>
      <trkpt lat="48.03044" lon="-3.50163">
        <ele>138.9</ele>
        <time>2025-02-26T15:59:02Z</time>
      </trkpt>
      <trkpt lat="48.03044" lon="-3.50161">
        <ele>138.8</ele>
        <time>2025-02-26T15:59:03Z</time>
      </trkpt>
      <trkpt lat="48.03044" lon="-3.50159">
        <ele>138.7</ele>
        <time>2025-02-26T15:59:04Z</time>
      </trkpt>
      <trkpt lat="48.03043" lon="-3.50158">
        <ele>138.6</ele>
        <time>2025-02-26T15:59:05Z</time>
      </trkpt>
      <trkpt lat="48.03044" lon="-3.50156">
        <ele>138.5</ele>
        <time>2025-02-26T15:59:06Z</time>
      </trkpt>
      <trkpt lat="48.03044" lon="-3.50154">
        <ele>138.5</ele>
        <time>2025-02-26T15:59:07Z</time>
      </trkpt>
      <trkpt lat="48.03045" lon="-3.50153">
        <ele>138.4</ele>
        <time>2025-02-26T15:59:08Z</time>
      </trkpt>
      <trkpt lat="48.03045" lon="-3.50152">
        <ele>138.4</ele>
        <time>2025-02-26T15:59:09Z</time>
      </trkpt>
      <trkpt lat="48.03045" lon="-3.5015">
        <ele>138.3</ele>
        <time>2025-02-26T15:59:10Z</time>
      </trkpt>
      <trkpt lat="48.03046" lon="-3.50148">
        <ele>138.2</ele>
        <time>2025-02-26T15:59:11Z</time>
      </trkpt>
      <trkpt lat="48.03045" lon="-3.50146">
        <ele>138.1</ele>
        <time>2025-02-26T15:59:12Z</time>
      </trkpt>
      <trkpt lat="48.03046" lon="-3.50145">
        <ele>138</ele>
        <time>2025-02-26T15:59:13Z</time>
      </trkpt>
      <trkpt lat="48.03046" lon="-3.50143">
        <ele>137.9</ele>
        <time>2025-02-26T15:59:14Z</time>
      </trkpt>
      <trkpt lat="48.03046" lon="-3.50141">
        <ele>137.8</ele>
        <time>2025-02-26T15:59:15Z</time>
      </trkpt>
      <trkpt lat="48.03047" lon="-3.50139">
        <ele>137.7</ele>
        <time>2025-02-26T15:59:16Z</time>
      </trkpt>
      <trkpt lat="48.03047" lon="-3.50138">
        <ele>137.7</ele>
        <time>2025-02-26T15:59:17Z</time>
      </trkpt>
      <trkpt lat="48.03047" lon="-3.50136">
        <ele>137.7</ele>
        <time>2025-02-26T15:59:18Z</time>
      </trkpt>
      <trkpt lat="48.03048" lon="-3.50134">
        <ele>137.7</ele>
        <time>2025-02-26T15:59:19Z</time>
      </trkpt>
      <trkpt lat="48.03049" lon="-3.50133">
        <ele>137.7</ele>
        <time>2025-02-26T15:59:20Z</time>
      </trkpt>
      <trkpt lat="48.03049" lon="-3.50132">
        <ele>137.8</ele>
        <time>2025-02-26T15:59:21Z</time>
      </trkpt>
      <trkpt lat="48.0305" lon="-3.5013">
        <ele>137.8</ele>
        <time>2025-02-26T15:59:22Z</time>
      </trkpt>
      <trkpt lat="48.0305" lon="-3.50129">
        <ele>137.8</ele>
        <time>2025-02-26T15:59:23Z</time>
      </trkpt>
      <trkpt lat="48.03051" lon="-3.50128">
        <ele>137.8</ele>
        <time>2025-02-26T15:59:24Z</time>
      </trkpt>
      <trkpt lat="48.03051" lon="-3.50128">
        <ele>137.8</ele>
        <time>2025-02-26T15:59:25Z</time>
      </trkpt>
      <trkpt lat="48.03053" lon="-3.50127">
        <ele>137.9</ele>
        <time>2025-02-26T15:59:26Z</time>
      </trkpt>
      <trkpt lat="48.03053" lon="-3.50125">
        <ele>137.9</ele>
        <time>2025-02-26T15:59:27Z</time>
      </trkpt>
      <trkpt lat="48.03053" lon="-3.50125">
        <ele>137.9</ele>
        <time>2025-02-26T15:59:28Z</time>
      </trkpt>
      <trkpt lat="48.03053" lon="-3.50125">
        <ele>137.9</ele>
        <time>2025-02-26T15:59:29Z</time>
      </trkpt>
      <trkpt lat="48.03054" lon="-3.50124">
        <ele>137.9</ele>
        <time>2025-02-26T15:59:30Z</time>
      </trkpt>
      <trkpt lat="48.03054" lon="-3.50124">
        <ele>137.9</ele>
        <time>2025-02-26T15:59:31Z</time>
      </trkpt>
      <trkpt lat="48.03054" lon="-3.50124">
        <ele>137.9</ele>
        <time>2025-02-26T15:59:32Z</time>
      </trkpt>
      <trkpt lat="48.03054" lon="-3.50124">
        <ele>137.9</ele>
        <time>2025-02-26T15:59:33Z</time>
      </trkpt>
      <trkpt lat="48.03054" lon="-3.50125">
        <ele>138</ele>
        <time>2025-02-26T15:59:34Z</time>
      </trkpt>
      <trkpt lat="48.03055" lon="-3.50126">
        <ele>138</ele>
        <time>2025-02-26T15:59:35Z</time>
      </trkpt>
      <trkpt lat="48.03056" lon="-3.50127">
        <ele>138</ele>
        <time>2025-02-26T15:59:36Z</time>
      </trkpt>
      <trkpt lat="48.03057" lon="-3.50128">
        <ele>138</ele>
        <time>2025-02-26T15:59:37Z</time>
      </trkpt>
      <trkpt lat="48.03058" lon="-3.50128">
        <ele>138.1</ele>
        <time>2025-02-26T15:59:38Z</time>
      </trkpt>
      <trkpt lat="48.03059" lon="-3.50129">
        <ele>138.1</ele>
        <time>2025-02-26T15:59:39Z</time>
      </trkpt>
      <trkpt lat="48.0306" lon="-3.50129">
        <ele>138.1</ele>
        <time>2025-02-26T15:59:40Z</time>
      </trkpt>
      <trkpt lat="48.03061" lon="-3.5013">
        <ele>138.1</ele>
        <time>2025-02-26T15:59:41Z</time>
      </trkpt>
      <trkpt lat="48.03061" lon="-3.5013">
        <ele>138.1</ele>
        <time>2025-02-26T15:59:42Z</time>
      </trkpt>
      <trkpt lat="48.03063" lon="-3.5013">
        <ele>138.2</ele>
        <time>2025-02-26T15:59:43Z</time>
      </trkpt>
      <trkpt lat="48.03063" lon="-3.50131">
        <ele>138.2</ele>
        <time>2025-02-26T15:59:44Z</time>
      </trkpt>
      <trkpt lat="48.03065" lon="-3.50131">
        <ele>138.2</ele>
        <time>2025-02-26T15:59:45Z</time>
      </trkpt>
      <trkpt lat="48.03066" lon="-3.50132">
        <ele>138.3</ele>
        <time>2025-02-26T15:59:46Z</time>
      </trkpt>
      <trkpt lat="48.03067" lon="-3.50132">
        <ele>138.3</ele>
        <time>2025-02-26T15:59:47Z</time>
      </trkpt>
      <trkpt lat="48.03067" lon="-3.50134">
        <ele>138.3</ele>
        <time>2025-02-26T15:59:48Z</time>
      </trkpt>
      <trkpt lat="48.03069" lon="-3.50134">
        <ele>138.4</ele>
        <time>2025-02-26T15:59:49Z</time>
      </trkpt>
      <trkpt lat="48.0307" lon="-3.50134">
        <ele>138.4</ele>
        <time>2025-02-26T15:59:50Z</time>
      </trkpt>
      <trkpt lat="48.03071" lon="-3.50134">
        <ele>138.5</ele>
        <time>2025-02-26T15:59:51Z</time>
      </trkpt>
      <trkpt lat="48.03072" lon="-3.50134">
        <ele>138.5</ele>
        <time>2025-02-26T15:59:52Z</time>
      </trkpt>
      <trkpt lat="48.03073" lon="-3.50134">
        <ele>138.5</ele>
        <time>2025-02-26T15:59:53Z</time>
      </trkpt>
      <trkpt lat="48.03074" lon="-3.50135">
        <ele>138.6</ele>
        <time>2025-02-26T15:59:54Z</time>
      </trkpt>
      <trkpt lat="48.03075" lon="-3.50135">
        <ele>138.6</ele>
        <time>2025-02-26T15:59:55Z</time>
      </trkpt>
      <trkpt lat="48.03076" lon="-3.50136">
        <ele>138.7</ele>
        <time>2025-02-26T15:59:56Z</time>
      </trkpt>
      <trkpt lat="48.03077" lon="-3.50136">
        <ele>138.7</ele>
        <time>2025-02-26T15:59:57Z</time>
      </trkpt>
      <trkpt lat="48.03078" lon="-3.50137">
        <ele>138.8</ele>
        <time>2025-02-26T15:59:58Z</time>
      </trkpt>
      <trkpt lat="48.03079" lon="-3.50137">
        <ele>138.8</ele>
        <time>2025-02-26T15:59:59Z</time>
      </trkpt>
      <trkpt lat="48.0308" lon="-3.50138">
        <ele>138.9</ele>
        <time>2025-02-26T16:00:00Z</time>
      </trkpt>
      <trkpt lat="48.03081" lon="-3.50139">
        <ele>138.9</ele>
        <time>2025-02-26T16:00:01Z</time>
      </trkpt>
      <trkpt lat="48.03083" lon="-3.50139">
        <ele>139</ele>
        <time>2025-02-26T16:00:02Z</time>
      </trkpt>
      <trkpt lat="48.03084" lon="-3.50139">
        <ele>139</ele>
        <time>2025-02-26T16:00:03Z</time>
      </trkpt>
      <trkpt lat="48.03085" lon="-3.5014">
        <ele>139</ele>
        <time>2025-02-26T16:00:04Z</time>
      </trkpt>
      <trkpt lat="48.03085" lon="-3.50141">
        <ele>139.1</ele>
        <time>2025-02-26T16:00:05Z</time>
      </trkpt>
      <trkpt lat="48.03087" lon="-3.5014">
        <ele>139</ele>
        <time>2025-02-26T16:00:06Z</time>
      </trkpt>
      <trkpt lat="48.03088" lon="-3.50139">
        <ele>139</ele>
        <time>2025-02-26T16:00:07Z</time>
      </trkpt>
      <trkpt lat="48.03089" lon="-3.50139">
        <ele>139</ele>
        <time>2025-02-26T16:00:08Z</time>
      </trkpt>
      <trkpt lat="48.0309" lon="-3.5014">
        <ele>139.1</ele>
        <time>2025-02-26T16:00:09Z</time>
      </trkpt>
      <trkpt lat="48.03091" lon="-3.50141">
        <ele>139.1</ele>
        <time>2025-02-26T16:00:10Z</time>
      </trkpt>
      <trkpt lat="48.03092" lon="-3.50141">
        <ele>139.1</ele>
        <time>2025-02-26T16:00:11Z</time>
      </trkpt>
      <trkpt lat="48.03093" lon="-3.50141">
        <ele>139.1</ele>
        <time>2025-02-26T16:00:12Z</time>
      </trkpt>
      <trkpt lat="48.03094" lon="-3.50141">
        <ele>139.1</ele>
        <time>2025-02-26T16:00:13Z</time>
      </trkpt>
      <trkpt lat="48.03095" lon="-3.50142">
        <ele>139.1</ele>
        <time>2025-02-26T16:00:14Z</time>
      </trkpt>
      <trkpt lat="48.03096" lon="-3.50142">
        <ele>139.1</ele>
        <time>2025-02-26T16:00:15Z</time>
      </trkpt>
      <trkpt lat="48.03097" lon="-3.50142">
        <ele>139.1</ele>
        <time>2025-02-26T16:00:16Z</time>
      </trkpt>
      <trkpt lat="48.03098" lon="-3.50143">
        <ele>139.2</ele>
        <time>2025-02-26T16:00:17Z</time>
      </trkpt>
      <trkpt lat="48.03099" lon="-3.50144">
        <ele>139.2</ele>
        <time>2025-02-26T16:00:18Z</time>
      </trkpt>
      <trkpt lat="48.031" lon="-3.50145">
        <ele>139.2</ele>
        <time>2025-02-26T16:00:19Z</time>
      </trkpt>
      <trkpt lat="48.03101" lon="-3.50145">
        <ele>139.2</ele>
        <time>2025-02-26T16:00:20Z</time>
      </trkpt>
      <trkpt lat="48.03102" lon="-3.50145">
        <ele>139.2</ele>
        <time>2025-02-26T16:00:21Z</time>
      </trkpt>
      <trkpt lat="48.03103" lon="-3.50147">
        <ele>139.3</ele>
        <time>2025-02-26T16:00:22Z</time>
      </trkpt>
      <trkpt lat="48.03104" lon="-3.50148">
        <ele>139.3</ele>
        <time>2025-02-26T16:00:23Z</time>
      </trkpt>
      <trkpt lat="48.03105" lon="-3.50149">
        <ele>139.4</ele>
        <time>2025-02-26T16:00:24Z</time>
      </trkpt>
      <trkpt lat="48.03106" lon="-3.5015">
        <ele>139.4</ele>
        <time>2025-02-26T16:00:25Z</time>
      </trkpt>
      <trkpt lat="48.03107" lon="-3.50151">
        <ele>139.4</ele>
        <time>2025-02-26T16:00:26Z</time>
      </trkpt>
      <trkpt lat="48.03108" lon="-3.50152">
        <ele>139.5</ele>
        <time>2025-02-26T16:00:27Z</time>
      </trkpt>
      <trkpt lat="48.03108" lon="-3.50153">
        <ele>139.5</ele>
        <time>2025-02-26T16:00:28Z</time>
      </trkpt>
      <trkpt lat="48.03109" lon="-3.50154">
        <ele>139.5</ele>
        <time>2025-02-26T16:00:29Z</time>
      </trkpt>
      <trkpt lat="48.0311" lon="-3.50155">
        <ele>139.6</ele>
        <time>2025-02-26T16:00:30Z</time>
      </trkpt>
      <trkpt lat="48.0311" lon="-3.50157">
        <ele>139.6</ele>
        <time>2025-02-26T16:00:31Z</time>
      </trkpt>
      <trkpt lat="48.03111" lon="-3.50158">
        <ele>139.7</ele>
        <time>2025-02-26T16:00:32Z</time>
      </trkpt>
      <trkpt lat="48.03111" lon="-3.50159">
        <ele>139.7</ele>
        <time>2025-02-26T16:00:33Z</time>
      </trkpt>
      <trkpt lat="48.03113" lon="-3.5016">
        <ele>139.8</ele>
        <time>2025-02-26T16:00:34Z</time>
      </trkpt>
      <trkpt lat="48.03114" lon="-3.5016">
        <ele>139.9</ele>
        <time>2025-02-26T16:00:35Z</time>
      </trkpt>
      <trkpt lat="48.03115" lon="-3.50161">
        <ele>139.9</ele>
        <time>2025-02-26T16:00:36Z</time>
      </trkpt>
      <trkpt lat="48.03116" lon="-3.50161">
        <ele>140</ele>
        <time>2025-02-26T16:00:37Z</time>
      </trkpt>
      <trkpt lat="48.03117" lon="-3.50161">
        <ele>140</ele>
        <time>2025-02-26T16:00:38Z</time>
      </trkpt>
      <trkpt lat="48.03118" lon="-3.50161">
        <ele>140</ele>
        <time>2025-02-26T16:00:39Z</time>
      </trkpt>
      <trkpt lat="48.03119" lon="-3.50162">
        <ele>140.1</ele>
        <time>2025-02-26T16:00:40Z</time>
      </trkpt>
      <trkpt lat="48.0312" lon="-3.50162">
        <ele>140.2</ele>
        <time>2025-02-26T16:00:41Z</time>
      </trkpt>
      <trkpt lat="48.03121" lon="-3.50162">
        <ele>140.2</ele>
        <time>2025-02-26T16:00:42Z</time>
      </trkpt>
      <trkpt lat="48.03122" lon="-3.50162">
        <ele>140.2</ele>
        <time>2025-02-26T16:00:43Z</time>
      </trkpt>
      <trkpt lat="48.03123" lon="-3.50162">
        <ele>140.3</ele>
        <time>2025-02-26T16:00:44Z</time>
      </trkpt>
      <trkpt lat="48.03124" lon="-3.50162">
        <ele>140.3</ele>
        <time>2025-02-26T16:00:45Z</time>
      </trkpt>
      <trkpt lat="48.03125" lon="-3.50162">
        <ele>140.3</ele>
        <time>2025-02-26T16:00:46Z</time>
      </trkpt>
      <trkpt lat="48.03127" lon="-3.50162">
        <ele>140.4</ele>
        <time>2025-02-26T16:00:47Z</time>
      </trkpt>
      <trkpt lat="48.03128" lon="-3.50161">
        <ele>140.4</ele>
        <time>2025-02-26T16:00:48Z</time>
      </trkpt>
      <trkpt lat="48.03129" lon="-3.50161">
        <ele>140.5</ele>
        <time>2025-02-26T16:00:49Z</time>
      </trkpt>
      <trkpt lat="48.0313" lon="-3.50161">
        <ele>140.5</ele>
        <time>2025-02-26T16:00:50Z</time>
      </trkpt>
      <trkpt lat="48.03132" lon="-3.50161">
        <ele>140.5</ele>
        <time>2025-02-26T16:00:51Z</time>
      </trkpt>
      <trkpt lat="48.03133" lon="-3.50161">
        <ele>140.6</ele>
        <time>2025-02-26T16:00:52Z</time>
      </trkpt>
      <trkpt lat="48.03134" lon="-3.50161">
        <ele>140.6</ele>
        <time>2025-02-26T16:00:53Z</time>
      </trkpt>
      <trkpt lat="48.03135" lon="-3.50161">
        <ele>140.7</ele>
        <time>2025-02-26T16:00:54Z</time>
      </trkpt>
      <trkpt lat="48.03136" lon="-3.50162">
        <ele>140.7</ele>
        <time>2025-02-26T16:00:55Z</time>
      </trkpt>
      <trkpt lat="48.03137" lon="-3.50161">
        <ele>140.7</ele>
        <time>2025-02-26T16:00:56Z</time>
      </trkpt>
      <trkpt lat="48.03138" lon="-3.50162">
        <ele>140.8</ele>
        <time>2025-02-26T16:00:57Z</time>
      </trkpt>
      <trkpt lat="48.03139" lon="-3.50161">
        <ele>140.8</ele>
        <time>2025-02-26T16:00:58Z</time>
      </trkpt>
      <trkpt lat="48.0314" lon="-3.50162">
        <ele>140.9</ele>
        <time>2025-02-26T16:00:59Z</time>
      </trkpt>
      <trkpt lat="48.03141" lon="-3.50162">
        <ele>140.9</ele>
        <time>2025-02-26T16:01:00Z</time>
      </trkpt>
      <trkpt lat="48.03142" lon="-3.50162">
        <ele>140.9</ele>
        <time>2025-02-26T16:01:01Z</time>
      </trkpt>
      <trkpt lat="48.03144" lon="-3.50162">
        <ele>141</ele>
        <time>2025-02-26T16:01:02Z</time>
      </trkpt>
      <trkpt lat="48.03145" lon="-3.50162">
        <ele>141</ele>
        <time>2025-02-26T16:01:03Z</time>
      </trkpt>
      <trkpt lat="48.03146" lon="-3.50162">
        <ele>141.1</ele>
        <time>2025-02-26T16:01:04Z</time>
      </trkpt>
      <trkpt lat="48.03147" lon="-3.50162">
        <ele>141.1</ele>
        <time>2025-02-26T16:01:05Z</time>
      </trkpt>
      <trkpt lat="48.03148" lon="-3.50161">
        <ele>141.1</ele>
        <time>2025-02-26T16:01:06Z</time>
      </trkpt>
      <trkpt lat="48.03149" lon="-3.50161">
        <ele>141.2</ele>
        <time>2025-02-26T16:01:07Z</time>
      </trkpt>
      <trkpt lat="48.03151" lon="-3.50161">
        <ele>141.2</ele>
        <time>2025-02-26T16:01:08Z</time>
      </trkpt>
      <trkpt lat="48.03152" lon="-3.50161">
        <ele>141.3</ele>
        <time>2025-02-26T16:01:09Z</time>
      </trkpt>
      <trkpt lat="48.03153" lon="-3.50161">
        <ele>141.3</ele>
        <time>2025-02-26T16:01:10Z</time>
      </trkpt>
      <trkpt lat="48.03154" lon="-3.50161">
        <ele>141.3</ele>
        <time>2025-02-26T16:01:11Z</time>
      </trkpt>
      <trkpt lat="48.03155" lon="-3.50162">
        <ele>141.4</ele>
        <time>2025-02-26T16:01:12Z</time>
      </trkpt>
      <trkpt lat="48.03156" lon="-3.50161">
        <ele>141.4</ele>
        <time>2025-02-26T16:01:13Z</time>
      </trkpt>
      <trkpt lat="48.03157" lon="-3.50161">
        <ele>141.5</ele>
        <time>2025-02-26T16:01:14Z</time>
      </trkpt>
      <trkpt lat="48.03158" lon="-3.50162">
        <ele>141.5</ele>
        <time>2025-02-26T16:01:15Z</time>
      </trkpt>
      <trkpt lat="48.03159" lon="-3.50163">
        <ele>141.6</ele>
        <time>2025-02-26T16:01:16Z</time>
      </trkpt>
      <trkpt lat="48.0316" lon="-3.50163">
        <ele>141.6</ele>
        <time>2025-02-26T16:01:17Z</time>
      </trkpt>
      <trkpt lat="48.03161" lon="-3.50162">
        <ele>141.6</ele>
        <time>2025-02-26T16:01:18Z</time>
      </trkpt>
      <trkpt lat="48.03163" lon="-3.50162">
        <ele>141.7</ele>
        <time>2025-02-26T16:01:19Z</time>
      </trkpt>
      <trkpt lat="48.03164" lon="-3.50162">
        <ele>141.7</ele>
        <time>2025-02-26T16:01:20Z</time>
      </trkpt>
      <trkpt lat="48.03165" lon="-3.50163">
        <ele>141.8</ele>
        <time>2025-02-26T16:01:21Z</time>
      </trkpt>
      <trkpt lat="48.03166" lon="-3.50164">
        <ele>141.9</ele>
        <time>2025-02-26T16:01:22Z</time>
      </trkpt>
      <trkpt lat="48.03167" lon="-3.50164">
        <ele>141.9</ele>
        <time>2025-02-26T16:01:23Z</time>
      </trkpt>
      <trkpt lat="48.03168" lon="-3.50165">
        <ele>142</ele>
        <time>2025-02-26T16:01:24Z</time>
      </trkpt>
      <trkpt lat="48.03169" lon="-3.50165">
        <ele>142</ele>
        <time>2025-02-26T16:01:25Z</time>
      </trkpt>
      <trkpt lat="48.03171" lon="-3.50165">
        <ele>142.1</ele>
        <time>2025-02-26T16:01:26Z</time>
      </trkpt>
      <trkpt lat="48.03172" lon="-3.50165">
        <ele>142.1</ele>
        <time>2025-02-26T16:01:27Z</time>
      </trkpt>
      <trkpt lat="48.03173" lon="-3.50165">
        <ele>142.1</ele>
        <time>2025-02-26T16:01:28Z</time>
      </trkpt>
      <trkpt lat="48.03174" lon="-3.50165">
        <ele>142.2</ele>
        <time>2025-02-26T16:01:29Z</time>
      </trkpt>
      <trkpt lat="48.03175" lon="-3.50166">
        <ele>142.3</ele>
        <time>2025-02-26T16:01:30Z</time>
      </trkpt>
      <trkpt lat="48.03176" lon="-3.50166">
        <ele>142.3</ele>
        <time>2025-02-26T16:01:31Z</time>
      </trkpt>
      <trkpt lat="48.03176" lon="-3.50168">
        <ele>142.4</ele>
        <time>2025-02-26T16:01:32Z</time>
      </trkpt>
      <trkpt lat="48.03177" lon="-3.50169">
        <ele>142.5</ele>
        <time>2025-02-26T16:01:33Z</time>
      </trkpt>
      <trkpt lat="48.03178" lon="-3.50169">
        <ele>142.5</ele>
        <time>2025-02-26T16:01:34Z</time>
      </trkpt>
      <trkpt lat="48.0318" lon="-3.5017">
        <ele>142.6</ele>
        <time>2025-02-26T16:01:35Z</time>
      </trkpt>
      <trkpt lat="48.03181" lon="-3.5017">
        <ele>142.6</ele>
        <time>2025-02-26T16:01:36Z</time>
      </trkpt>
      <trkpt lat="48.03183" lon="-3.5017">
        <ele>142.7</ele>
        <time>2025-02-26T16:01:37Z</time>
      </trkpt>
      <trkpt lat="48.03184" lon="-3.50171">
        <ele>142.8</ele>
        <time>2025-02-26T16:01:38Z</time>
      </trkpt>
      <trkpt lat="48.03185" lon="-3.50172">
        <ele>142.8</ele>
        <time>2025-02-26T16:01:39Z</time>
      </trkpt>
      <trkpt lat="48.03186" lon="-3.50173">
        <ele>142.9</ele>
        <time>2025-02-26T16:01:40Z</time>
      </trkpt>
      <trkpt lat="48.03187" lon="-3.50174">
        <ele>143</ele>
        <time>2025-02-26T16:01:41Z</time>
      </trkpt>
      <trkpt lat="48.03188" lon="-3.50174">
        <ele>143</ele>
        <time>2025-02-26T16:01:42Z</time>
      </trkpt>
      <trkpt lat="48.03189" lon="-3.50174">
        <ele>143.1</ele>
        <time>2025-02-26T16:01:43Z</time>
      </trkpt>
      <trkpt lat="48.0319" lon="-3.50176">
        <ele>143.1</ele>
        <time>2025-02-26T16:01:44Z</time>
      </trkpt>
      <trkpt lat="48.03191" lon="-3.50176">
        <ele>143.2</ele>
        <time>2025-02-26T16:01:45Z</time>
      </trkpt>
      <trkpt lat="48.03192" lon="-3.50176">
        <ele>143.2</ele>
        <time>2025-02-26T16:01:46Z</time>
      </trkpt>
      <trkpt lat="48.03193" lon="-3.50177">
        <ele>143.3</ele>
        <time>2025-02-26T16:01:47Z</time>
      </trkpt>
      <trkpt lat="48.03193" lon="-3.50178">
        <ele>143.4</ele>
        <time>2025-02-26T16:01:48Z</time>
      </trkpt>
      <trkpt lat="48.03193" lon="-3.50178">
        <ele>143.4</ele>
        <time>2025-02-26T16:01:49Z</time>
      </trkpt>
      <trkpt lat="48.03193" lon="-3.50178">
        <ele>143.4</ele>
        <time>2025-02-26T16:01:50Z</time>
      </trkpt>
      <trkpt lat="48.03193" lon="-3.50179">
        <ele>143.4</ele>
        <time>2025-02-26T16:01:51Z</time>
      </trkpt>
      <trkpt lat="48.03192" lon="-3.5018">
        <ele>143.4</ele>
        <time>2025-02-26T16:01:52Z</time>
      </trkpt>
      <trkpt lat="48.03191" lon="-3.50181">
        <ele>143.4</ele>
        <time>2025-02-26T16:01:53Z</time>
      </trkpt>
      <trkpt lat="48.03191" lon="-3.50181">
        <ele>143.4</ele>
        <time>2025-02-26T16:01:54Z</time>
      </trkpt>
      <trkpt lat="48.03191" lon="-3.50182">
        <ele>143.5</ele>
        <time>2025-02-26T16:01:55Z</time>
      </trkpt>
      <trkpt lat="48.03191" lon="-3.50184">
        <ele>143.5</ele>
        <time>2025-02-26T16:01:56Z</time>
      </trkpt>
      <trkpt lat="48.0319" lon="-3.50186">
        <ele>143.5</ele>
        <time>2025-02-26T16:01:57Z</time>
      </trkpt>
      <trkpt lat="48.03189" lon="-3.50187">
        <ele>143.5</ele>
        <time>2025-02-26T16:01:58Z</time>
      </trkpt>
      <trkpt lat="48.03189" lon="-3.50188">
        <ele>143.6</ele>
        <time>2025-02-26T16:01:59Z</time>
      </trkpt>
      <trkpt lat="48.03188" lon="-3.5019">
        <ele>143.6</ele>
        <time>2025-02-26T16:02:00Z</time>
      </trkpt>
      <trkpt lat="48.03187" lon="-3.50191">
        <ele>143.6</ele>
        <time>2025-02-26T16:02:01Z</time>
      </trkpt>
      <trkpt lat="48.03187" lon="-3.50193">
        <ele>143.7</ele>
        <time>2025-02-26T16:02:02Z</time>
      </trkpt>
      <trkpt lat="48.03186" lon="-3.50194">
        <ele>143.7</ele>
        <time>2025-02-26T16:02:03Z</time>
      </trkpt>
      <trkpt lat="48.03185" lon="-3.50195">
        <ele>143.7</ele>
        <time>2025-02-26T16:02:04Z</time>
      </trkpt>
      <trkpt lat="48.03184" lon="-3.50196">
        <ele>143.7</ele>
        <time>2025-02-26T16:02:05Z</time>
      </trkpt>
      <trkpt lat="48.03183" lon="-3.50198">
        <ele>143.7</ele>
        <time>2025-02-26T16:02:06Z</time>
      </trkpt>
      <trkpt lat="48.03183" lon="-3.50199">
        <ele>143.8</ele>
        <time>2025-02-26T16:02:07Z</time>
      </trkpt>
      <trkpt lat="48.03182" lon="-3.502">
        <ele>143.8</ele>
        <time>2025-02-26T16:02:08Z</time>
      </trkpt>
      <trkpt lat="48.03182" lon="-3.50202">
        <ele>143.8</ele>
        <time>2025-02-26T16:02:09Z</time>
      </trkpt>
      <trkpt lat="48.03181" lon="-3.50203">
        <ele>143.8</ele>
        <time>2025-02-26T16:02:10Z</time>
      </trkpt>
      <trkpt lat="48.03181" lon="-3.50205">
        <ele>143.9</ele>
        <time>2025-02-26T16:02:11Z</time>
      </trkpt>
      <trkpt lat="48.0318" lon="-3.50206">
        <ele>143.9</ele>
        <time>2025-02-26T16:02:12Z</time>
      </trkpt>
      <trkpt lat="48.03179" lon="-3.50207">
        <ele>143.9</ele>
        <time>2025-02-26T16:02:13Z</time>
      </trkpt>
      <trkpt lat="48.03179" lon="-3.50209">
        <ele>143.9</ele>
        <time>2025-02-26T16:02:14Z</time>
      </trkpt>
      <trkpt lat="48.03178" lon="-3.5021">
        <ele>144</ele>
        <time>2025-02-26T16:02:15Z</time>
      </trkpt>
      <trkpt lat="48.03177" lon="-3.50212">
        <ele>144</ele>
        <time>2025-02-26T16:02:16Z</time>
      </trkpt>
      <trkpt lat="48.03177" lon="-3.50214">
        <ele>144</ele>
        <time>2025-02-26T16:02:17Z</time>
      </trkpt>
      <trkpt lat="48.03176" lon="-3.50215">
        <ele>144.1</ele>
        <time>2025-02-26T16:02:18Z</time>
      </trkpt>
      <trkpt lat="48.03175" lon="-3.50216">
        <ele>144.1</ele>
        <time>2025-02-26T16:02:19Z</time>
      </trkpt>
      <trkpt lat="48.03174" lon="-3.50216">
        <ele>144.1</ele>
        <time>2025-02-26T16:02:20Z</time>
      </trkpt>
      <trkpt lat="48.03174" lon="-3.50217">
        <ele>144.1</ele>
        <time>2025-02-26T16:02:21Z</time>
      </trkpt>
      <trkpt lat="48.03173" lon="-3.50218">
        <ele>144.1</ele>
        <time>2025-02-26T16:02:22Z</time>
      </trkpt>
      <trkpt lat="48.03173" lon="-3.5022">
        <ele>144.1</ele>
        <time>2025-02-26T16:02:23Z</time>
      </trkpt>
      <trkpt lat="48.03173" lon="-3.50221">
        <ele>144.2</ele>
        <time>2025-02-26T16:02:24Z</time>
      </trkpt>
      <trkpt lat="48.03173" lon="-3.50222">
        <ele>144.2</ele>
        <time>2025-02-26T16:02:25Z</time>
      </trkpt>
      <trkpt lat="48.03173" lon="-3.50224">
        <ele>144.2</ele>
        <time>2025-02-26T16:02:26Z</time>
      </trkpt>
      <trkpt lat="48.03172" lon="-3.50225">
        <ele>144.2</ele>
        <time>2025-02-26T16:02:27Z</time>
      </trkpt>
      <trkpt lat="48.03171" lon="-3.50227">
        <ele>144.2</ele>
        <time>2025-02-26T16:02:28Z</time>
      </trkpt>
      <trkpt lat="48.03172" lon="-3.50229">
        <ele>144.2</ele>
        <time>2025-02-26T16:02:29Z</time>
      </trkpt>
      <trkpt lat="48.03171" lon="-3.50231">
        <ele>144.2</ele>
        <time>2025-02-26T16:02:30Z</time>
      </trkpt>
      <trkpt lat="48.0317" lon="-3.50232">
        <ele>144.2</ele>
        <time>2025-02-26T16:02:31Z</time>
      </trkpt>
      <trkpt lat="48.0317" lon="-3.50234">
        <ele>144.2</ele>
        <time>2025-02-26T16:02:32Z</time>
      </trkpt>
      <trkpt lat="48.0317" lon="-3.50235">
        <ele>144.2</ele>
        <time>2025-02-26T16:02:33Z</time>
      </trkpt>
      <trkpt lat="48.03169" lon="-3.50237">
        <ele>144.1</ele>
        <time>2025-02-26T16:02:34Z</time>
      </trkpt>
      <trkpt lat="48.03169" lon="-3.50238">
        <ele>144.1</ele>
        <time>2025-02-26T16:02:35Z</time>
      </trkpt>
      <trkpt lat="48.03168" lon="-3.5024">
        <ele>144.1</ele>
        <time>2025-02-26T16:02:36Z</time>
      </trkpt>
      <trkpt lat="48.03168" lon="-3.50241">
        <ele>144.1</ele>
        <time>2025-02-26T16:02:37Z</time>
      </trkpt>
      <trkpt lat="48.03168" lon="-3.50243">
        <ele>144.1</ele>
        <time>2025-02-26T16:02:38Z</time>
      </trkpt>
      <trkpt lat="48.03168" lon="-3.50245">
        <ele>144.1</ele>
        <time>2025-02-26T16:02:39Z</time>
      </trkpt>
      <trkpt lat="48.03167" lon="-3.50247">
        <ele>144</ele>
        <time>2025-02-26T16:02:40Z</time>
      </trkpt>
      <trkpt lat="48.03167" lon="-3.50248">
        <ele>144</ele>
        <time>2025-02-26T16:02:41Z</time>
      </trkpt>
      <trkpt lat="48.03167" lon="-3.5025">
        <ele>144</ele>
        <time>2025-02-26T16:02:42Z</time>
      </trkpt>
      <trkpt lat="48.03166" lon="-3.50251">
        <ele>144</ele>
        <time>2025-02-26T16:02:43Z</time>
      </trkpt>
      <trkpt lat="48.03166" lon="-3.50253">
        <ele>144</ele>
        <time>2025-02-26T16:02:44Z</time>
      </trkpt>
      <trkpt lat="48.03165" lon="-3.50254">
        <ele>144</ele>
        <time>2025-02-26T16:02:45Z</time>
      </trkpt>
      <trkpt lat="48.03165" lon="-3.50256">
        <ele>144</ele>
        <time>2025-02-26T16:02:46Z</time>
      </trkpt>
      <trkpt lat="48.03164" lon="-3.50257">
        <ele>144</ele>
        <time>2025-02-26T16:02:47Z</time>
      </trkpt>
      <trkpt lat="48.03164" lon="-3.50259">
        <ele>144.1</ele>
        <time>2025-02-26T16:02:48Z</time>
      </trkpt>
      <trkpt lat="48.03163" lon="-3.5026">
        <ele>144.1</ele>
        <time>2025-02-26T16:02:49Z</time>
      </trkpt>
      <trkpt lat="48.03163" lon="-3.50262">
        <ele>144.1</ele>
        <time>2025-02-26T16:02:50Z</time>
      </trkpt>
      <trkpt lat="48.03162" lon="-3.50263">
        <ele>144.1</ele>
        <time>2025-02-26T16:02:51Z</time>
      </trkpt>
      <trkpt lat="48.03162" lon="-3.50265">
        <ele>144.1</ele>
        <time>2025-02-26T16:02:52Z</time>
      </trkpt>
      <trkpt lat="48.03161" lon="-3.50266">
        <ele>144.1</ele>
        <time>2025-02-26T16:02:53Z</time>
      </trkpt>
      <trkpt lat="48.03161" lon="-3.50268">
        <ele>144.1</ele>
        <time>2025-02-26T16:02:54Z</time>
      </trkpt>
      <trkpt lat="48.03161" lon="-3.5027">
        <ele>144.1</ele>
        <time>2025-02-26T16:02:55Z</time>
      </trkpt>
      <trkpt lat="48.0316" lon="-3.50271">
        <ele>144.1</ele>
        <time>2025-02-26T16:02:56Z</time>
      </trkpt>
      <trkpt lat="48.0316" lon="-3.50273">
        <ele>144.1</ele>
        <time>2025-02-26T16:02:57Z</time>
      </trkpt>
      <trkpt lat="48.0316" lon="-3.50274">
        <ele>144.2</ele>
        <time>2025-02-26T16:02:58Z</time>
      </trkpt>
      <trkpt lat="48.03159" lon="-3.50275">
        <ele>144.1</ele>
        <time>2025-02-26T16:02:59Z</time>
      </trkpt>
      <trkpt lat="48.03159" lon="-3.50277">
        <ele>144.2</ele>
        <time>2025-02-26T16:03:00Z</time>
      </trkpt>
      <trkpt lat="48.03159" lon="-3.50278">
        <ele>144.2</ele>
        <time>2025-02-26T16:03:01Z</time>
      </trkpt>
      <trkpt lat="48.0316" lon="-3.5028">
        <ele>144.2</ele>
        <time>2025-02-26T16:03:02Z</time>
      </trkpt>
      <trkpt lat="48.0316" lon="-3.50282">
        <ele>144.3</ele>
        <time>2025-02-26T16:03:03Z</time>
      </trkpt>
      <trkpt lat="48.03161" lon="-3.50283">
        <ele>144.3</ele>
        <time>2025-02-26T16:03:04Z</time>
      </trkpt>
      <trkpt lat="48.03162" lon="-3.50284">
        <ele>144.4</ele>
        <time>2025-02-26T16:03:05Z</time>
      </trkpt>
      <trkpt lat="48.03163" lon="-3.50284">
        <ele>144.5</ele>
        <time>2025-02-26T16:03:06Z</time>
      </trkpt>
      <trkpt lat="48.03163" lon="-3.50284">
        <ele>144.6</ele>
        <time>2025-02-26T16:03:07Z</time>
      </trkpt>
      <trkpt lat="48.03164" lon="-3.50285">
        <ele>144.7</ele>
        <time>2025-02-26T16:03:08Z</time>
      </trkpt>
      <trkpt lat="48.03165" lon="-3.50286">
        <ele>144.8</ele>
        <time>2025-02-26T16:03:09Z</time>
      </trkpt>
      <trkpt lat="48.03166" lon="-3.50287">
        <ele>144.9</ele>
        <time>2025-02-26T16:03:10Z</time>
      </trkpt>
      <trkpt lat="48.03166" lon="-3.50287">
        <ele>145</ele>
        <time>2025-02-26T16:03:11Z</time>
      </trkpt>
      <trkpt lat="48.03167" lon="-3.50288">
        <ele>145</ele>
        <time>2025-02-26T16:03:12Z</time>
      </trkpt>
      <trkpt lat="48.03168" lon="-3.50289">
        <ele>145</ele>
        <time>2025-02-26T16:03:13Z</time>
      </trkpt>
      <trkpt lat="48.03169" lon="-3.50289">
        <ele>145.1</ele>
        <time>2025-02-26T16:03:14Z</time>
      </trkpt>
      <trkpt lat="48.0317" lon="-3.50288">
        <ele>145.1</ele>
        <time>2025-02-26T16:03:15Z</time>
      </trkpt>
      <trkpt lat="48.03171" lon="-3.50288">
        <ele>145.2</ele>
        <time>2025-02-26T16:03:16Z</time>
      </trkpt>
      <trkpt lat="48.03172" lon="-3.50289">
        <ele>145.2</ele>
        <time>2025-02-26T16:03:17Z</time>
      </trkpt>
      <trkpt lat="48.03173" lon="-3.50289">
        <ele>145.2</ele>
        <time>2025-02-26T16:03:18Z</time>
      </trkpt>
      <trkpt lat="48.03174" lon="-3.50289">
        <ele>145.3</ele>
        <time>2025-02-26T16:03:19Z</time>
      </trkpt>
      <trkpt lat="48.03175" lon="-3.50289">
        <ele>145.3</ele>
        <time>2025-02-26T16:03:20Z</time>
      </trkpt>
      <trkpt lat="48.03176" lon="-3.50289">
        <ele>145.3</ele>
        <time>2025-02-26T16:03:21Z</time>
      </trkpt>
      <trkpt lat="48.03177" lon="-3.5029">
        <ele>145.4</ele>
        <time>2025-02-26T16:03:22Z</time>
      </trkpt>
      <trkpt lat="48.03178" lon="-3.5029">
        <ele>145.4</ele>
        <time>2025-02-26T16:03:23Z</time>
      </trkpt>
      <trkpt lat="48.0318" lon="-3.5029">
        <ele>145.5</ele>
        <time>2025-02-26T16:03:24Z</time>
      </trkpt>
      <trkpt lat="48.03181" lon="-3.5029">
        <ele>145.5</ele>
        <time>2025-02-26T16:03:25Z</time>
      </trkpt>
      <trkpt lat="48.03182" lon="-3.5029">
        <ele>145.6</ele>
        <time>2025-02-26T16:03:26Z</time>
      </trkpt>
      <trkpt lat="48.03184" lon="-3.5029">
        <ele>145.6</ele>
        <time>2025-02-26T16:03:27Z</time>
      </trkpt>
      <trkpt lat="48.03185" lon="-3.50291">
        <ele>145.6</ele>
        <time>2025-02-26T16:03:28Z</time>
      </trkpt>
      <trkpt lat="48.03185" lon="-3.50291">
        <ele>145.7</ele>
        <time>2025-02-26T16:03:29Z</time>
      </trkpt>
      <trkpt lat="48.03186" lon="-3.50292">
        <ele>145.7</ele>
        <time>2025-02-26T16:03:30Z</time>
      </trkpt>
      <trkpt lat="48.03187" lon="-3.50292">
        <ele>145.7</ele>
        <time>2025-02-26T16:03:31Z</time>
      </trkpt>
      <trkpt lat="48.03188" lon="-3.50292">
        <ele>145.8</ele>
        <time>2025-02-26T16:03:32Z</time>
      </trkpt>
      <trkpt lat="48.0319" lon="-3.50292">
        <ele>145.8</ele>
        <time>2025-02-26T16:03:33Z</time>
      </trkpt>
      <trkpt lat="48.03191" lon="-3.50292">
        <ele>145.9</ele>
        <time>2025-02-26T16:03:34Z</time>
      </trkpt>
      <trkpt lat="48.03192" lon="-3.50292">
        <ele>145.9</ele>
        <time>2025-02-26T16:03:35Z</time>
      </trkpt>
      <trkpt lat="48.03193" lon="-3.50292">
        <ele>146</ele>
        <time>2025-02-26T16:03:36Z</time>
      </trkpt>
      <trkpt lat="48.03195" lon="-3.50293">
        <ele>146</ele>
        <time>2025-02-26T16:03:37Z</time>
      </trkpt>
      <trkpt lat="48.03196" lon="-3.50293">
        <ele>146</ele>
        <time>2025-02-26T16:03:38Z</time>
      </trkpt>
      <trkpt lat="48.03197" lon="-3.50293">
        <ele>146.1</ele>
        <time>2025-02-26T16:03:39Z</time>
      </trkpt>
      <trkpt lat="48.03198" lon="-3.50294">
        <ele>146.1</ele>
        <time>2025-02-26T16:03:40Z</time>
      </trkpt>
      <trkpt lat="48.03199" lon="-3.50296">
        <ele>146.1</ele>
        <time>2025-02-26T16:03:41Z</time>
      </trkpt>
      <trkpt lat="48.03199" lon="-3.50297">
        <ele>146.2</ele>
        <time>2025-02-26T16:03:42Z</time>
      </trkpt>
      <trkpt lat="48.03199" lon="-3.50299">
        <ele>146.2</ele>
        <time>2025-02-26T16:03:43Z</time>
      </trkpt>
      <trkpt lat="48.032" lon="-3.50301">
        <ele>146.2</ele>
        <time>2025-02-26T16:03:44Z</time>
      </trkpt>
      <trkpt lat="48.032" lon="-3.50302">
        <ele>146.2</ele>
        <time>2025-02-26T16:03:45Z</time>
      </trkpt>
      <trkpt lat="48.03199" lon="-3.50304">
        <ele>146.2</ele>
        <time>2025-02-26T16:03:46Z</time>
      </trkpt>
      <trkpt lat="48.03199" lon="-3.50306">
        <ele>146.2</ele>
        <time>2025-02-26T16:03:47Z</time>
      </trkpt>
      <trkpt lat="48.032" lon="-3.50307">
        <ele>146.2</ele>
        <time>2025-02-26T16:03:48Z</time>
      </trkpt>
      <trkpt lat="48.032" lon="-3.50309">
        <ele>146.2</ele>
        <time>2025-02-26T16:03:49Z</time>
      </trkpt>
      <trkpt lat="48.032" lon="-3.50311">
        <ele>146.2</ele>
        <time>2025-02-26T16:03:50Z</time>
      </trkpt>
      <trkpt lat="48.032" lon="-3.50312">
        <ele>146.2</ele>
        <time>2025-02-26T16:03:51Z</time>
      </trkpt>
      <trkpt lat="48.032" lon="-3.50314">
        <ele>146.2</ele>
        <time>2025-02-26T16:03:52Z</time>
      </trkpt>
      <trkpt lat="48.03201" lon="-3.50316">
        <ele>146.2</ele>
        <time>2025-02-26T16:03:53Z</time>
      </trkpt>
      <trkpt lat="48.03201" lon="-3.50318">
        <ele>146.3</ele>
        <time>2025-02-26T16:03:54Z</time>
      </trkpt>
      <trkpt lat="48.03201" lon="-3.50319">
        <ele>146.2</ele>
        <time>2025-02-26T16:03:55Z</time>
      </trkpt>
      <trkpt lat="48.03201" lon="-3.5032">
        <ele>146.2</ele>
        <time>2025-02-26T16:03:56Z</time>
      </trkpt>
      <trkpt lat="48.03201" lon="-3.50322">
        <ele>146.2</ele>
        <time>2025-02-26T16:03:57Z</time>
      </trkpt>
      <trkpt lat="48.03201" lon="-3.50324">
        <ele>146.2</ele>
        <time>2025-02-26T16:03:58Z</time>
      </trkpt>
      <trkpt lat="48.03202" lon="-3.50326">
        <ele>146.3</ele>
        <time>2025-02-26T16:03:59Z</time>
      </trkpt>
      <trkpt lat="48.03202" lon="-3.50327">
        <ele>146.3</ele>
        <time>2025-02-26T16:04:00Z</time>
      </trkpt>
      <trkpt lat="48.03202" lon="-3.50329">
        <ele>146.3</ele>
        <time>2025-02-26T16:04:01Z</time>
      </trkpt>
      <trkpt lat="48.03203" lon="-3.50331">
        <ele>146.3</ele>
        <time>2025-02-26T16:04:02Z</time>
      </trkpt>
      <trkpt lat="48.03203" lon="-3.50333">
        <ele>146.3</ele>
        <time>2025-02-26T16:04:03Z</time>
      </trkpt>
      <trkpt lat="48.03203" lon="-3.50335">
        <ele>146.4</ele>
        <time>2025-02-26T16:04:04Z</time>
      </trkpt>
      <trkpt lat="48.03204" lon="-3.50337">
        <ele>146.4</ele>
        <time>2025-02-26T16:04:05Z</time>
      </trkpt>
      <trkpt lat="48.03204" lon="-3.50338">
        <ele>146.5</ele>
        <time>2025-02-26T16:04:06Z</time>
      </trkpt>
      <trkpt lat="48.03205" lon="-3.5034">
        <ele>146.6</ele>
        <time>2025-02-26T16:04:07Z</time>
      </trkpt>
      <trkpt lat="48.03206" lon="-3.50341">
        <ele>146.7</ele>
        <time>2025-02-26T16:04:08Z</time>
      </trkpt>
      <trkpt lat="48.03207" lon="-3.50343">
        <ele>146.8</ele>
        <time>2025-02-26T16:04:09Z</time>
      </trkpt>
      <trkpt lat="48.03207" lon="-3.50344">
        <ele>146.9</ele>
        <time>2025-02-26T16:04:10Z</time>
      </trkpt>
      <trkpt lat="48.03208" lon="-3.50346">
        <ele>146.9</ele>
        <time>2025-02-26T16:04:11Z</time>
      </trkpt>
      <trkpt lat="48.03209" lon="-3.50348">
        <ele>147</ele>
        <time>2025-02-26T16:04:12Z</time>
      </trkpt>
      <trkpt lat="48.0321" lon="-3.50349">
        <ele>147.1</ele>
        <time>2025-02-26T16:04:13Z</time>
      </trkpt>
      <trkpt lat="48.0321" lon="-3.50351">
        <ele>147.2</ele>
        <time>2025-02-26T16:04:14Z</time>
      </trkpt>
      <trkpt lat="48.0321" lon="-3.50352">
        <ele>147.2</ele>
        <time>2025-02-26T16:04:15Z</time>
      </trkpt>
      <trkpt lat="48.03211" lon="-3.50353">
        <ele>147.3</ele>
        <time>2025-02-26T16:04:16Z</time>
      </trkpt>
      <trkpt lat="48.03212" lon="-3.50354">
        <ele>147.4</ele>
        <time>2025-02-26T16:04:17Z</time>
      </trkpt>
      <trkpt lat="48.03214" lon="-3.50354">
        <ele>147.4</ele>
        <time>2025-02-26T16:04:18Z</time>
      </trkpt>
      <trkpt lat="48.03215" lon="-3.50353">
        <ele>147.5</ele>
        <time>2025-02-26T16:04:19Z</time>
      </trkpt>
      <trkpt lat="48.03217" lon="-3.50352">
        <ele>147.5</ele>
        <time>2025-02-26T16:04:20Z</time>
      </trkpt>
      <trkpt lat="48.03218" lon="-3.50351">
        <ele>147.5</ele>
        <time>2025-02-26T16:04:21Z</time>
      </trkpt>
      <trkpt lat="48.03219" lon="-3.5035">
        <ele>147.5</ele>
        <time>2025-02-26T16:04:22Z</time>
      </trkpt>
      <trkpt lat="48.0322" lon="-3.50348">
        <ele>147.4</ele>
        <time>2025-02-26T16:04:23Z</time>
      </trkpt>
      <trkpt lat="48.03221" lon="-3.50346">
        <ele>147.4</ele>
        <time>2025-02-26T16:04:24Z</time>
      </trkpt>
      <trkpt lat="48.03221" lon="-3.50345">
        <ele>147.4</ele>
        <time>2025-02-26T16:04:25Z</time>
      </trkpt>
      <trkpt lat="48.03222" lon="-3.50344">
        <ele>147.4</ele>
        <time>2025-02-26T16:04:26Z</time>
      </trkpt>
      <trkpt lat="48.03223" lon="-3.50343">
        <ele>147.4</ele>
        <time>2025-02-26T16:04:27Z</time>
      </trkpt>
      <trkpt lat="48.03224" lon="-3.50342">
        <ele>147.4</ele>
        <time>2025-02-26T16:04:28Z</time>
      </trkpt>
      <trkpt lat="48.03225" lon="-3.5034">
        <ele>147.4</ele>
        <time>2025-02-26T16:04:29Z</time>
      </trkpt>
      <trkpt lat="48.03226" lon="-3.5034">
        <ele>147.5</ele>
        <time>2025-02-26T16:04:30Z</time>
      </trkpt>
      <trkpt lat="48.03228" lon="-3.50338">
        <ele>147.5</ele>
        <time>2025-02-26T16:04:31Z</time>
      </trkpt>
      <trkpt lat="48.03229" lon="-3.50337">
        <ele>147.6</ele>
        <time>2025-02-26T16:04:32Z</time>
      </trkpt>
      <trkpt lat="48.0323" lon="-3.50335">
        <ele>147.6</ele>
        <time>2025-02-26T16:04:33Z</time>
      </trkpt>
      <trkpt lat="48.03231" lon="-3.50333">
        <ele>147.6</ele>
        <time>2025-02-26T16:04:34Z</time>
      </trkpt>
      <trkpt lat="48.03231" lon="-3.50332">
        <ele>147.6</ele>
        <time>2025-02-26T16:04:35Z</time>
      </trkpt>
      <trkpt lat="48.03232" lon="-3.5033">
        <ele>147.7</ele>
        <time>2025-02-26T16:04:36Z</time>
      </trkpt>
      <trkpt lat="48.03233" lon="-3.50329">
        <ele>147.8</ele>
        <time>2025-02-26T16:04:37Z</time>
      </trkpt>
      <trkpt lat="48.03234" lon="-3.50329">
        <ele>147.9</ele>
        <time>2025-02-26T16:04:38Z</time>
      </trkpt>
      <trkpt lat="48.03236" lon="-3.50328">
        <ele>148</ele>
        <time>2025-02-26T16:04:39Z</time>
      </trkpt>
      <trkpt lat="48.03237" lon="-3.50327">
        <ele>148</ele>
        <time>2025-02-26T16:04:40Z</time>
      </trkpt>
      <trkpt lat="48.03238" lon="-3.50326">
        <ele>148.1</ele>
        <time>2025-02-26T16:04:41Z</time>
      </trkpt>
      <trkpt lat="48.03239" lon="-3.50326">
        <ele>148.2</ele>
        <time>2025-02-26T16:04:42Z</time>
      </trkpt>
      <trkpt lat="48.0324" lon="-3.50325">
        <ele>148.3</ele>
        <time>2025-02-26T16:04:43Z</time>
      </trkpt>
      <trkpt lat="48.03241" lon="-3.50323">
        <ele>148.3</ele>
        <time>2025-02-26T16:04:44Z</time>
      </trkpt>
      <trkpt lat="48.03241" lon="-3.50322">
        <ele>148.4</ele>
        <time>2025-02-26T16:04:45Z</time>
      </trkpt>
      <trkpt lat="48.03242" lon="-3.50322">
        <ele>148.4</ele>
        <time>2025-02-26T16:04:46Z</time>
      </trkpt>
      <trkpt lat="48.03243" lon="-3.50321">
        <ele>148.5</ele>
        <time>2025-02-26T16:04:47Z</time>
      </trkpt>
      <trkpt lat="48.03243" lon="-3.50319">
        <ele>148.5</ele>
        <time>2025-02-26T16:04:48Z</time>
      </trkpt>
      <trkpt lat="48.03243" lon="-3.50317">
        <ele>148.5</ele>
        <time>2025-02-26T16:04:49Z</time>
      </trkpt>
      <trkpt lat="48.03244" lon="-3.50315">
        <ele>148.5</ele>
        <time>2025-02-26T16:04:50Z</time>
      </trkpt>
      <trkpt lat="48.03244" lon="-3.50314">
        <ele>148.6</ele>
        <time>2025-02-26T16:04:51Z</time>
      </trkpt>
      <trkpt lat="48.03245" lon="-3.50312">
        <ele>148.6</ele>
        <time>2025-02-26T16:04:52Z</time>
      </trkpt>
      <trkpt lat="48.03245" lon="-3.5031">
        <ele>148.6</ele>
        <time>2025-02-26T16:04:53Z</time>
      </trkpt>
      <trkpt lat="48.03245" lon="-3.50309">
        <ele>148.7</ele>
        <time>2025-02-26T16:04:54Z</time>
      </trkpt>
      <trkpt lat="48.03246" lon="-3.50307">
        <ele>148.7</ele>
        <time>2025-02-26T16:04:55Z</time>
      </trkpt>
      <trkpt lat="48.03246" lon="-3.50305">
        <ele>148.7</ele>
        <time>2025-02-26T16:04:56Z</time>
      </trkpt>
      <trkpt lat="48.03246" lon="-3.50303">
        <ele>148.6</ele>
        <time>2025-02-26T16:04:57Z</time>
      </trkpt>
      <trkpt lat="48.03245" lon="-3.50301">
        <ele>148.5</ele>
        <time>2025-02-26T16:04:58Z</time>
      </trkpt>
      <trkpt lat="48.03245" lon="-3.50299">
        <ele>148.5</ele>
        <time>2025-02-26T16:04:59Z</time>
      </trkpt>
      <trkpt lat="48.03245" lon="-3.50298">
        <ele>148.4</ele>
        <time>2025-02-26T16:05:00Z</time>
      </trkpt>
      <trkpt lat="48.03245" lon="-3.50296">
        <ele>148.4</ele>
        <time>2025-02-26T16:05:01Z</time>
      </trkpt>
      <trkpt lat="48.03246" lon="-3.50294">
        <ele>148.3</ele>
        <time>2025-02-26T16:05:02Z</time>
      </trkpt>
      <trkpt lat="48.03246" lon="-3.50292">
        <ele>148.3</ele>
        <time>2025-02-26T16:05:03Z</time>
      </trkpt>
      <trkpt lat="48.03246" lon="-3.5029">
        <ele>148.2</ele>
        <time>2025-02-26T16:05:04Z</time>
      </trkpt>
      <trkpt lat="48.03246" lon="-3.50289">
        <ele>148.2</ele>
        <time>2025-02-26T16:05:05Z</time>
      </trkpt>
      <trkpt lat="48.03246" lon="-3.50287">
        <ele>148.2</ele>
        <time>2025-02-26T16:05:06Z</time>
      </trkpt>
      <trkpt lat="48.03247" lon="-3.50286">
        <ele>148.1</ele>
        <time>2025-02-26T16:05:07Z</time>
      </trkpt>
      <trkpt lat="48.03247" lon="-3.50284">
        <ele>148.1</ele>
        <time>2025-02-26T16:05:08Z</time>
      </trkpt>
      <trkpt lat="48.03248" lon="-3.50282">
        <ele>148.1</ele>
        <time>2025-02-26T16:05:09Z</time>
      </trkpt>
      <trkpt lat="48.03248" lon="-3.50281">
        <ele>148</ele>
        <time>2025-02-26T16:05:10Z</time>
      </trkpt>
      <trkpt lat="48.03249" lon="-3.50279">
        <ele>148</ele>
        <time>2025-02-26T16:05:11Z</time>
      </trkpt>
      <trkpt lat="48.03249" lon="-3.50277">
        <ele>148</ele>
        <time>2025-02-26T16:05:12Z</time>
      </trkpt>
      <trkpt lat="48.03249" lon="-3.50276">
        <ele>148</ele>
        <time>2025-02-26T16:05:13Z</time>
      </trkpt>
      <trkpt lat="48.03249" lon="-3.50274">
        <ele>148</ele>
        <time>2025-02-26T16:05:14Z</time>
      </trkpt>
      <trkpt lat="48.0325" lon="-3.50272">
        <ele>148</ele>
        <time>2025-02-26T16:05:15Z</time>
      </trkpt>
      <trkpt lat="48.0325" lon="-3.50269">
        <ele>148</ele>
        <time>2025-02-26T16:05:16Z</time>
      </trkpt>
      <trkpt lat="48.03251" lon="-3.50268">
        <ele>148</ele>
        <time>2025-02-26T16:05:17Z</time>
      </trkpt>
      <trkpt lat="48.03251" lon="-3.50266">
        <ele>148</ele>
        <time>2025-02-26T16:05:18Z</time>
      </trkpt>
      <trkpt lat="48.03251" lon="-3.50265">
        <ele>148</ele>
        <time>2025-02-26T16:05:19Z</time>
      </trkpt>
      <trkpt lat="48.03252" lon="-3.50263">
        <ele>148.1</ele>
        <time>2025-02-26T16:05:20Z</time>
      </trkpt>
      <trkpt lat="48.03252" lon="-3.50261">
        <ele>148.1</ele>
        <time>2025-02-26T16:05:21Z</time>
      </trkpt>
      <trkpt lat="48.03252" lon="-3.50259">
        <ele>148.1</ele>
        <time>2025-02-26T16:05:22Z</time>
      </trkpt>
      <trkpt lat="48.03251" lon="-3.50258">
        <ele>148.1</ele>
        <time>2025-02-26T16:05:23Z</time>
      </trkpt>
      <trkpt lat="48.03252" lon="-3.50256">
        <ele>148.1</ele>
        <time>2025-02-26T16:05:24Z</time>
      </trkpt>
      <trkpt lat="48.03252" lon="-3.50255">
        <ele>148.1</ele>
        <time>2025-02-26T16:05:25Z</time>
      </trkpt>
      <trkpt lat="48.03252" lon="-3.50253">
        <ele>148.1</ele>
        <time>2025-02-26T16:05:26Z</time>
      </trkpt>
      <trkpt lat="48.03253" lon="-3.50251">
        <ele>148.1</ele>
        <time>2025-02-26T16:05:27Z</time>
      </trkpt>
      <trkpt lat="48.03253" lon="-3.50249">
        <ele>148.1</ele>
        <time>2025-02-26T16:05:28Z</time>
      </trkpt>
      <trkpt lat="48.03253" lon="-3.50247">
        <ele>148</ele>
        <time>2025-02-26T16:05:29Z</time>
      </trkpt>
      <trkpt lat="48.03254" lon="-3.50246">
        <ele>148</ele>
        <time>2025-02-26T16:05:30Z</time>
      </trkpt>
      <trkpt lat="48.03254" lon="-3.50244">
        <ele>147.9</ele>
        <time>2025-02-26T16:05:31Z</time>
      </trkpt>
      <trkpt lat="48.03254" lon="-3.50242">
        <ele>147.9</ele>
        <time>2025-02-26T16:05:32Z</time>
      </trkpt>
      <trkpt lat="48.03254" lon="-3.5024">
        <ele>147.8</ele>
        <time>2025-02-26T16:05:33Z</time>
      </trkpt>
      <trkpt lat="48.03255" lon="-3.50239">
        <ele>147.8</ele>
        <time>2025-02-26T16:05:34Z</time>
      </trkpt>
      <trkpt lat="48.03255" lon="-3.50237">
        <ele>147.8</ele>
        <time>2025-02-26T16:05:35Z</time>
      </trkpt>
      <trkpt lat="48.03256" lon="-3.50235">
        <ele>147.8</ele>
        <time>2025-02-26T16:05:36Z</time>
      </trkpt>
      <trkpt lat="48.03256" lon="-3.50234">
        <ele>147.7</ele>
        <time>2025-02-26T16:05:37Z</time>
      </trkpt>
      <trkpt lat="48.03256" lon="-3.50232">
        <ele>147.7</ele>
        <time>2025-02-26T16:05:38Z</time>
      </trkpt>
      <trkpt lat="48.03257" lon="-3.5023">
        <ele>147.7</ele>
        <time>2025-02-26T16:05:39Z</time>
      </trkpt>
      <trkpt lat="48.03258" lon="-3.50228">
        <ele>147.7</ele>
        <time>2025-02-26T16:05:40Z</time>
      </trkpt>
      <trkpt lat="48.03258" lon="-3.50227">
        <ele>147.7</ele>
        <time>2025-02-26T16:05:41Z</time>
      </trkpt>
      <trkpt lat="48.03258" lon="-3.50225">
        <ele>147.7</ele>
        <time>2025-02-26T16:05:42Z</time>
      </trkpt>
      <trkpt lat="48.03258" lon="-3.50224">
        <ele>147.6</ele>
        <time>2025-02-26T16:05:43Z</time>
      </trkpt>
      <trkpt lat="48.03259" lon="-3.50222">
        <ele>147.6</ele>
        <time>2025-02-26T16:05:44Z</time>
      </trkpt>
      <trkpt lat="48.0326" lon="-3.5022">
        <ele>147.7</ele>
        <time>2025-02-26T16:05:45Z</time>
      </trkpt>
      <trkpt lat="48.0326" lon="-3.50219">
        <ele>147.7</ele>
        <time>2025-02-26T16:05:46Z</time>
      </trkpt>
      <trkpt lat="48.0326" lon="-3.50218">
        <ele>147.7</ele>
        <time>2025-02-26T16:05:47Z</time>
      </trkpt>
      <trkpt lat="48.03261" lon="-3.50217">
        <ele>147.7</ele>
        <time>2025-02-26T16:05:48Z</time>
      </trkpt>
      <trkpt lat="48.03261" lon="-3.50215">
        <ele>147.7</ele>
        <time>2025-02-26T16:05:49Z</time>
      </trkpt>
      <trkpt lat="48.03262" lon="-3.50213">
        <ele>147.7</ele>
        <time>2025-02-26T16:05:50Z</time>
      </trkpt>
      <trkpt lat="48.03262" lon="-3.50212">
        <ele>147.7</ele>
        <time>2025-02-26T16:05:51Z</time>
      </trkpt>
      <trkpt lat="48.03262" lon="-3.5021">
        <ele>147.7</ele>
        <time>2025-02-26T16:05:52Z</time>
      </trkpt>
      <trkpt lat="48.03262" lon="-3.50208">
        <ele>147.6</ele>
        <time>2025-02-26T16:05:53Z</time>
      </trkpt>
      <trkpt lat="48.03262" lon="-3.50207">
        <ele>147.6</ele>
        <time>2025-02-26T16:05:54Z</time>
      </trkpt>
      <trkpt lat="48.03263" lon="-3.50205">
        <ele>147.6</ele>
        <time>2025-02-26T16:05:55Z</time>
      </trkpt>
      <trkpt lat="48.03262" lon="-3.50203">
        <ele>147.6</ele>
        <time>2025-02-26T16:05:56Z</time>
      </trkpt>
      <trkpt lat="48.03262" lon="-3.50202">
        <ele>147.6</ele>
        <time>2025-02-26T16:05:57Z</time>
      </trkpt>
      <trkpt lat="48.03263" lon="-3.502">
        <ele>147.6</ele>
        <time>2025-02-26T16:05:58Z</time>
      </trkpt>
      <trkpt lat="48.03264" lon="-3.50198">
        <ele>147.6</ele>
        <time>2025-02-26T16:05:59Z</time>
      </trkpt>
      <trkpt lat="48.03264" lon="-3.50196">
        <ele>147.5</ele>
        <time>2025-02-26T16:06:00Z</time>
      </trkpt>
      <trkpt lat="48.03264" lon="-3.50194">
        <ele>147.5</ele>
        <time>2025-02-26T16:06:01Z</time>
      </trkpt>
      <trkpt lat="48.03264" lon="-3.50193">
        <ele>147.4</ele>
        <time>2025-02-26T16:06:02Z</time>
      </trkpt>
      <trkpt lat="48.03264" lon="-3.50191">
        <ele>147.4</ele>
        <time>2025-02-26T16:06:03Z</time>
      </trkpt>
      <trkpt lat="48.03265" lon="-3.50189">
        <ele>147.3</ele>
        <time>2025-02-26T16:06:04Z</time>
      </trkpt>
      <trkpt lat="48.03265" lon="-3.50187">
        <ele>147.3</ele>
        <time>2025-02-26T16:06:05Z</time>
      </trkpt>
      <trkpt lat="48.03265" lon="-3.50186">
        <ele>147.2</ele>
        <time>2025-02-26T16:06:06Z</time>
      </trkpt>
      <trkpt lat="48.03266" lon="-3.50184">
        <ele>147.2</ele>
        <time>2025-02-26T16:06:07Z</time>
      </trkpt>
      <trkpt lat="48.03266" lon="-3.50182">
        <ele>147.1</ele>
        <time>2025-02-26T16:06:08Z</time>
      </trkpt>
      <trkpt lat="48.03266" lon="-3.5018">
        <ele>147.1</ele>
        <time>2025-02-26T16:06:09Z</time>
      </trkpt>
      <trkpt lat="48.03266" lon="-3.50179">
        <ele>147</ele>
        <time>2025-02-26T16:06:10Z</time>
      </trkpt>
      <trkpt lat="48.03266" lon="-3.50177">
        <ele>147</ele>
        <time>2025-02-26T16:06:11Z</time>
      </trkpt>
      <trkpt lat="48.03267" lon="-3.50175">
        <ele>146.9</ele>
        <time>2025-02-26T16:06:12Z</time>
      </trkpt>
      <trkpt lat="48.03267" lon="-3.50174">
        <ele>146.9</ele>
        <time>2025-02-26T16:06:13Z</time>
      </trkpt>
      <trkpt lat="48.03267" lon="-3.50172">
        <ele>146.8</ele>
        <time>2025-02-26T16:06:14Z</time>
      </trkpt>
      <trkpt lat="48.03267" lon="-3.5017">
        <ele>146.8</ele>
        <time>2025-02-26T16:06:15Z</time>
      </trkpt>
      <trkpt lat="48.03268" lon="-3.50168">
        <ele>146.7</ele>
        <time>2025-02-26T16:06:16Z</time>
      </trkpt>
      <trkpt lat="48.03268" lon="-3.50167">
        <ele>146.6</ele>
        <time>2025-02-26T16:06:17Z</time>
      </trkpt>
      <trkpt lat="48.03268" lon="-3.50165">
        <ele>146.6</ele>
        <time>2025-02-26T16:06:18Z</time>
      </trkpt>
      <trkpt lat="48.03268" lon="-3.50163">
        <ele>146.6</ele>
        <time>2025-02-26T16:06:19Z</time>
      </trkpt>
      <trkpt lat="48.03269" lon="-3.50161">
        <ele>146.6</ele>
        <time>2025-02-26T16:06:20Z</time>
      </trkpt>
      <trkpt lat="48.0327" lon="-3.5016">
        <ele>146.6</ele>
        <time>2025-02-26T16:06:21Z</time>
      </trkpt>
      <trkpt lat="48.03271" lon="-3.50158">
        <ele>146.7</ele>
        <time>2025-02-26T16:06:22Z</time>
      </trkpt>
      <trkpt lat="48.03271" lon="-3.50156">
        <ele>146.7</ele>
        <time>2025-02-26T16:06:23Z</time>
      </trkpt>
      <trkpt lat="48.03272" lon="-3.50155">
        <ele>146.7</ele>
        <time>2025-02-26T16:06:24Z</time>
      </trkpt>
      <trkpt lat="48.03273" lon="-3.50154">
        <ele>146.8</ele>
        <time>2025-02-26T16:06:25Z</time>
      </trkpt>
      <trkpt lat="48.03275" lon="-3.50153">
        <ele>146.8</ele>
        <time>2025-02-26T16:06:26Z</time>
      </trkpt>
      <trkpt lat="48.03276" lon="-3.50152">
        <ele>146.9</ele>
        <time>2025-02-26T16:06:27Z</time>
      </trkpt>
      <trkpt lat="48.03277" lon="-3.50151">
        <ele>147</ele>
        <time>2025-02-26T16:06:28Z</time>
      </trkpt>
      <trkpt lat="48.03278" lon="-3.50151">
        <ele>147</ele>
        <time>2025-02-26T16:06:29Z</time>
      </trkpt>
      <trkpt lat="48.03279" lon="-3.50151">
        <ele>147.1</ele>
        <time>2025-02-26T16:06:30Z</time>
      </trkpt>
      <trkpt lat="48.0328" lon="-3.50151">
        <ele>147.1</ele>
        <time>2025-02-26T16:06:31Z</time>
      </trkpt>
      <trkpt lat="48.03281" lon="-3.50151">
        <ele>147.2</ele>
        <time>2025-02-26T16:06:32Z</time>
      </trkpt>
      <trkpt lat="48.03282" lon="-3.50152">
        <ele>147.2</ele>
        <time>2025-02-26T16:06:33Z</time>
      </trkpt>
      <trkpt lat="48.03283" lon="-3.50152">
        <ele>147.3</ele>
        <time>2025-02-26T16:06:34Z</time>
      </trkpt>
      <trkpt lat="48.03284" lon="-3.50153">
        <ele>147.3</ele>
        <time>2025-02-26T16:06:35Z</time>
      </trkpt>
      <trkpt lat="48.03285" lon="-3.50153">
        <ele>147.4</ele>
        <time>2025-02-26T16:06:36Z</time>
      </trkpt>
      <trkpt lat="48.03287" lon="-3.50152">
        <ele>147.5</ele>
        <time>2025-02-26T16:06:37Z</time>
      </trkpt>
      <trkpt lat="48.03288" lon="-3.50153">
        <ele>147.5</ele>
        <time>2025-02-26T16:06:38Z</time>
      </trkpt>
      <trkpt lat="48.03289" lon="-3.50153">
        <ele>147.6</ele>
        <time>2025-02-26T16:06:39Z</time>
      </trkpt>
      <trkpt lat="48.0329" lon="-3.50153">
        <ele>147.7</ele>
        <time>2025-02-26T16:06:40Z</time>
      </trkpt>
      <trkpt lat="48.03291" lon="-3.50154">
        <ele>147.7</ele>
        <time>2025-02-26T16:06:41Z</time>
      </trkpt>
      <trkpt lat="48.03293" lon="-3.50154">
        <ele>147.8</ele>
        <time>2025-02-26T16:06:42Z</time>
      </trkpt>
      <trkpt lat="48.03294" lon="-3.50154">
        <ele>147.9</ele>
        <time>2025-02-26T16:06:43Z</time>
      </trkpt>
      <trkpt lat="48.03295" lon="-3.50154">
        <ele>148</ele>
        <time>2025-02-26T16:06:44Z</time>
      </trkpt>
      <trkpt lat="48.03296" lon="-3.50154">
        <ele>148</ele>
        <time>2025-02-26T16:06:45Z</time>
      </trkpt>
      <trkpt lat="48.03297" lon="-3.50154">
        <ele>148</ele>
        <time>2025-02-26T16:06:46Z</time>
      </trkpt>
      <trkpt lat="48.03298" lon="-3.50154">
        <ele>148.1</ele>
        <time>2025-02-26T16:06:47Z</time>
      </trkpt>
      <trkpt lat="48.03299" lon="-3.50152">
        <ele>148.1</ele>
        <time>2025-02-26T16:06:48Z</time>
      </trkpt>
      <trkpt lat="48.033" lon="-3.50151">
        <ele>148.1</ele>
        <time>2025-02-26T16:06:49Z</time>
      </trkpt>
      <trkpt lat="48.03301" lon="-3.5015">
        <ele>148.2</ele>
        <time>2025-02-26T16:06:50Z</time>
      </trkpt>
      <trkpt lat="48.03302" lon="-3.5015">
        <ele>148.2</ele>
        <time>2025-02-26T16:06:51Z</time>
      </trkpt>
      <trkpt lat="48.03302" lon="-3.50148">
        <ele>148.2</ele>
        <time>2025-02-26T16:06:52Z</time>
      </trkpt>
      <trkpt lat="48.03304" lon="-3.50148">
        <ele>148.2</ele>
        <time>2025-02-26T16:06:53Z</time>
      </trkpt>
      <trkpt lat="48.03305" lon="-3.50147">
        <ele>148.2</ele>
        <time>2025-02-26T16:06:54Z</time>
      </trkpt>
      <trkpt lat="48.03305" lon="-3.50145">
        <ele>148.2</ele>
        <time>2025-02-26T16:06:55Z</time>
      </trkpt>
      <trkpt lat="48.03306" lon="-3.50144">
        <ele>148.2</ele>
        <time>2025-02-26T16:06:56Z</time>
      </trkpt>
      <trkpt lat="48.03306" lon="-3.50142">
        <ele>148.1</ele>
        <time>2025-02-26T16:06:57Z</time>
      </trkpt>
      <trkpt lat="48.03306" lon="-3.5014">
        <ele>148</ele>
        <time>2025-02-26T16:06:58Z</time>
      </trkpt>
      <trkpt lat="48.03306" lon="-3.50138">
        <ele>148</ele>
        <time>2025-02-26T16:06:59Z</time>
      </trkpt>
      <trkpt lat="48.03306" lon="-3.50135">
        <ele>148</ele>
        <time>2025-02-26T16:07:00Z</time>
      </trkpt>
      <trkpt lat="48.03306" lon="-3.50134">
        <ele>148</ele>
        <time>2025-02-26T16:07:01Z</time>
      </trkpt>
      <trkpt lat="48.03307" lon="-3.50132">
        <ele>148</ele>
        <time>2025-02-26T16:07:02Z</time>
      </trkpt>
      <trkpt lat="48.03307" lon="-3.5013">
        <ele>148</ele>
        <time>2025-02-26T16:07:03Z</time>
      </trkpt>
      <trkpt lat="48.03307" lon="-3.50129">
        <ele>148.1</ele>
        <time>2025-02-26T16:07:04Z</time>
      </trkpt>
      <trkpt lat="48.03307" lon="-3.50127">
        <ele>148.1</ele>
        <time>2025-02-26T16:07:05Z</time>
      </trkpt>
      <trkpt lat="48.03307" lon="-3.50126">
        <ele>148.1</ele>
        <time>2025-02-26T16:07:06Z</time>
      </trkpt>
      <trkpt lat="48.03307" lon="-3.50124">
        <ele>148.1</ele>
        <time>2025-02-26T16:07:07Z</time>
      </trkpt>
      <trkpt lat="48.03307" lon="-3.50122">
        <ele>148.1</ele>
        <time>2025-02-26T16:07:08Z</time>
      </trkpt>
      <trkpt lat="48.03308" lon="-3.5012">
        <ele>148.1</ele>
        <time>2025-02-26T16:07:09Z</time>
      </trkpt>
      <trkpt lat="48.03308" lon="-3.50119">
        <ele>148.1</ele>
        <time>2025-02-26T16:07:10Z</time>
      </trkpt>
      <trkpt lat="48.03308" lon="-3.50117">
        <ele>148.1</ele>
        <time>2025-02-26T16:07:11Z</time>
      </trkpt>
      <trkpt lat="48.03308" lon="-3.50116">
        <ele>148.1</ele>
        <time>2025-02-26T16:07:12Z</time>
      </trkpt>
      <trkpt lat="48.03309" lon="-3.50114">
        <ele>148.1</ele>
        <time>2025-02-26T16:07:13Z</time>
      </trkpt>
      <trkpt lat="48.03309" lon="-3.50112">
        <ele>148.1</ele>
        <time>2025-02-26T16:07:14Z</time>
      </trkpt>
      <trkpt lat="48.03309" lon="-3.5011">
        <ele>148.1</ele>
        <time>2025-02-26T16:07:15Z</time>
      </trkpt>
      <trkpt lat="48.03309" lon="-3.50108">
        <ele>148</ele>
        <time>2025-02-26T16:07:16Z</time>
      </trkpt>
      <trkpt lat="48.03308" lon="-3.50107">
        <ele>147.9</ele>
        <time>2025-02-26T16:07:17Z</time>
      </trkpt>
      <trkpt lat="48.03308" lon="-3.50105">
        <ele>147.9</ele>
        <time>2025-02-26T16:07:18Z</time>
      </trkpt>
      <trkpt lat="48.03308" lon="-3.50103">
        <ele>147.8</ele>
        <time>2025-02-26T16:07:19Z</time>
      </trkpt>
      <trkpt lat="48.03308" lon="-3.50101">
        <ele>147.7</ele>
        <time>2025-02-26T16:07:20Z</time>
      </trkpt>
      <trkpt lat="48.03308" lon="-3.50099">
        <ele>147.7</ele>
        <time>2025-02-26T16:07:21Z</time>
      </trkpt>
      <trkpt lat="48.03308" lon="-3.50097">
        <ele>147.6</ele>
        <time>2025-02-26T16:07:22Z</time>
      </trkpt>
      <trkpt lat="48.03308" lon="-3.50095">
        <ele>147.5</ele>
        <time>2025-02-26T16:07:23Z</time>
      </trkpt>
      <trkpt lat="48.03308" lon="-3.50094">
        <ele>147.5</ele>
        <time>2025-02-26T16:07:24Z</time>
      </trkpt>
      <trkpt lat="48.03308" lon="-3.50092">
        <ele>147.4</ele>
        <time>2025-02-26T16:07:25Z</time>
      </trkpt>
      <trkpt lat="48.03308" lon="-3.5009">
        <ele>147.3</ele>
        <time>2025-02-26T16:07:26Z</time>
      </trkpt>
      <trkpt lat="48.03308" lon="-3.50089">
        <ele>147.3</ele>
        <time>2025-02-26T16:07:27Z</time>
      </trkpt>
      <trkpt lat="48.03308" lon="-3.50087">
        <ele>147.2</ele>
        <time>2025-02-26T16:07:28Z</time>
      </trkpt>
      <trkpt lat="48.03308" lon="-3.50085">
        <ele>147.2</ele>
        <time>2025-02-26T16:07:29Z</time>
      </trkpt>
      <trkpt lat="48.03308" lon="-3.50084">
        <ele>147.1</ele>
        <time>2025-02-26T16:07:30Z</time>
      </trkpt>
      <trkpt lat="48.03308" lon="-3.50082">
        <ele>147</ele>
        <time>2025-02-26T16:07:31Z</time>
      </trkpt>
      <trkpt lat="48.03308" lon="-3.5008">
        <ele>147</ele>
        <time>2025-02-26T16:07:32Z</time>
      </trkpt>
      <trkpt lat="48.03308" lon="-3.50079">
        <ele>146.9</ele>
        <time>2025-02-26T16:07:33Z</time>
      </trkpt>
      <trkpt lat="48.03308" lon="-3.50077">
        <ele>146.8</ele>
        <time>2025-02-26T16:07:34Z</time>
      </trkpt>
      <trkpt lat="48.03308" lon="-3.50075">
        <ele>146.8</ele>
        <time>2025-02-26T16:07:35Z</time>
      </trkpt>
      <trkpt lat="48.03307" lon="-3.50073">
        <ele>146.7</ele>
        <time>2025-02-26T16:07:36Z</time>
      </trkpt>
      <trkpt lat="48.03307" lon="-3.50071">
        <ele>146.6</ele>
        <time>2025-02-26T16:07:37Z</time>
      </trkpt>
      <trkpt lat="48.03307" lon="-3.50069">
        <ele>146.5</ele>
        <time>2025-02-26T16:07:38Z</time>
      </trkpt>
      <trkpt lat="48.03307" lon="-3.50067">
        <ele>146.5</ele>
        <time>2025-02-26T16:07:39Z</time>
      </trkpt>
      <trkpt lat="48.03307" lon="-3.50066">
        <ele>146.4</ele>
        <time>2025-02-26T16:07:40Z</time>
      </trkpt>
      <trkpt lat="48.03308" lon="-3.50064">
        <ele>146.4</ele>
        <time>2025-02-26T16:07:41Z</time>
      </trkpt>
      <trkpt lat="48.03308" lon="-3.50062">
        <ele>146.3</ele>
        <time>2025-02-26T16:07:42Z</time>
      </trkpt>
      <trkpt lat="48.03308" lon="-3.5006">
        <ele>146.2</ele>
        <time>2025-02-26T16:07:43Z</time>
      </trkpt>
      <trkpt lat="48.03308" lon="-3.50058">
        <ele>146.2</ele>
        <time>2025-02-26T16:07:44Z</time>
      </trkpt>
      <trkpt lat="48.03307" lon="-3.50056">
        <ele>146.1</ele>
        <time>2025-02-26T16:07:45Z</time>
      </trkpt>
      <trkpt lat="48.03307" lon="-3.50055">
        <ele>146</ele>
        <time>2025-02-26T16:07:46Z</time>
      </trkpt>
      <trkpt lat="48.03307" lon="-3.50053">
        <ele>145.9</ele>
        <time>2025-02-26T16:07:47Z</time>
      </trkpt>
      <trkpt lat="48.03307" lon="-3.50051">
        <ele>145.9</ele>
        <time>2025-02-26T16:07:48Z</time>
      </trkpt>
      <trkpt lat="48.03307" lon="-3.50049">
        <ele>145.8</ele>
        <time>2025-02-26T16:07:49Z</time>
      </trkpt>
      <trkpt lat="48.03307" lon="-3.50047">
        <ele>145.8</ele>
        <time>2025-02-26T16:07:50Z</time>
      </trkpt>
      <trkpt lat="48.03308" lon="-3.50045">
        <ele>145.7</ele>
        <time>2025-02-26T16:07:51Z</time>
      </trkpt>
      <trkpt lat="48.03308" lon="-3.50044">
        <ele>145.7</ele>
        <time>2025-02-26T16:07:52Z</time>
      </trkpt>
      <trkpt lat="48.03308" lon="-3.50042">
        <ele>145.6</ele>
        <time>2025-02-26T16:07:53Z</time>
      </trkpt>
      <trkpt lat="48.03308" lon="-3.5004">
        <ele>145.5</ele>
        <time>2025-02-26T16:07:54Z</time>
      </trkpt>
      <trkpt lat="48.03308" lon="-3.50039">
        <ele>145.5</ele>
        <time>2025-02-26T16:07:55Z</time>
      </trkpt>
      <trkpt lat="48.03308" lon="-3.50037">
        <ele>145.4</ele>
        <time>2025-02-26T16:07:56Z</time>
      </trkpt>
      <trkpt lat="48.03308" lon="-3.50036">
        <ele>145.4</ele>
        <time>2025-02-26T16:07:57Z</time>
      </trkpt>
      <trkpt lat="48.03308" lon="-3.50034">
        <ele>145.3</ele>
        <time>2025-02-26T16:07:58Z</time>
      </trkpt>
      <trkpt lat="48.03308" lon="-3.50032">
        <ele>145.2</ele>
        <time>2025-02-26T16:07:59Z</time>
      </trkpt>
      <trkpt lat="48.03308" lon="-3.50031">
        <ele>145.2</ele>
        <time>2025-02-26T16:08:00Z</time>
      </trkpt>
      <trkpt lat="48.03309" lon="-3.50029">
        <ele>145.1</ele>
        <time>2025-02-26T16:08:01Z</time>
      </trkpt>
      <trkpt lat="48.03309" lon="-3.50027">
        <ele>145.1</ele>
        <time>2025-02-26T16:08:02Z</time>
      </trkpt>
      <trkpt lat="48.03309" lon="-3.50025">
        <ele>144.9</ele>
        <time>2025-02-26T16:08:03Z</time>
      </trkpt>
      <trkpt lat="48.03309" lon="-3.50023">
        <ele>144.8</ele>
        <time>2025-02-26T16:08:04Z</time>
      </trkpt>
      <trkpt lat="48.0331" lon="-3.50021">
        <ele>144.8</ele>
        <time>2025-02-26T16:08:05Z</time>
      </trkpt>
      <trkpt lat="48.0331" lon="-3.5002">
        <ele>144.6</ele>
        <time>2025-02-26T16:08:06Z</time>
      </trkpt>
      <trkpt lat="48.0331" lon="-3.50018">
        <ele>144.6</ele>
        <time>2025-02-26T16:08:07Z</time>
      </trkpt>
      <trkpt lat="48.0331" lon="-3.50016">
        <ele>144.5</ele>
        <time>2025-02-26T16:08:08Z</time>
      </trkpt>
      <trkpt lat="48.0331" lon="-3.50015">
        <ele>144.4</ele>
        <time>2025-02-26T16:08:09Z</time>
      </trkpt>
      <trkpt lat="48.03311" lon="-3.50013">
        <ele>144.3</ele>
        <time>2025-02-26T16:08:10Z</time>
      </trkpt>
      <trkpt lat="48.03311" lon="-3.50011">
        <ele>144.2</ele>
        <time>2025-02-26T16:08:11Z</time>
      </trkpt>
      <trkpt lat="48.03311" lon="-3.50009">
        <ele>144.1</ele>
        <time>2025-02-26T16:08:12Z</time>
      </trkpt>
      <trkpt lat="48.03311" lon="-3.50007">
        <ele>144</ele>
        <time>2025-02-26T16:08:13Z</time>
      </trkpt>
      <trkpt lat="48.03311" lon="-3.50005">
        <ele>143.9</ele>
        <time>2025-02-26T16:08:14Z</time>
      </trkpt>
      <trkpt lat="48.0331" lon="-3.50003">
        <ele>143.7</ele>
        <time>2025-02-26T16:08:15Z</time>
      </trkpt>
      <trkpt lat="48.0331" lon="-3.50002">
        <ele>143.6</ele>
        <time>2025-02-26T16:08:16Z</time>
      </trkpt>
      <trkpt lat="48.0331" lon="-3.5">
        <ele>143.5</ele>
        <time>2025-02-26T16:08:17Z</time>
      </trkpt>
      <trkpt lat="48.03311" lon="-3.49998">
        <ele>143.4</ele>
        <time>2025-02-26T16:08:18Z</time>
      </trkpt>
      <trkpt lat="48.0331" lon="-3.49996">
        <ele>143.3</ele>
        <time>2025-02-26T16:08:19Z</time>
      </trkpt>
      <trkpt lat="48.0331" lon="-3.49995">
        <ele>143.2</ele>
        <time>2025-02-26T16:08:20Z</time>
      </trkpt>
      <trkpt lat="48.0331" lon="-3.49993">
        <ele>143.1</ele>
        <time>2025-02-26T16:08:21Z</time>
      </trkpt>
      <trkpt lat="48.0331" lon="-3.49991">
        <ele>143.1</ele>
        <time>2025-02-26T16:08:22Z</time>
      </trkpt>
      <trkpt lat="48.0331" lon="-3.49989">
        <ele>143.1</ele>
        <time>2025-02-26T16:08:23Z</time>
      </trkpt>
      <trkpt lat="48.0331" lon="-3.49987">
        <ele>143</ele>
        <time>2025-02-26T16:08:24Z</time>
      </trkpt>
      <trkpt lat="48.0331" lon="-3.49986">
        <ele>142.9</ele>
        <time>2025-02-26T16:08:25Z</time>
      </trkpt>
      <trkpt lat="48.0331" lon="-3.49984">
        <ele>142.8</ele>
        <time>2025-02-26T16:08:26Z</time>
      </trkpt>
      <trkpt lat="48.03309" lon="-3.49983">
        <ele>142.7</ele>
        <time>2025-02-26T16:08:27Z</time>
      </trkpt>
      <trkpt lat="48.0331" lon="-3.49981">
        <ele>142.6</ele>
        <time>2025-02-26T16:08:28Z</time>
      </trkpt>
      <trkpt lat="48.0331" lon="-3.49979">
        <ele>142.6</ele>
        <time>2025-02-26T16:08:29Z</time>
      </trkpt>
      <trkpt lat="48.0331" lon="-3.49978">
        <ele>142.5</ele>
        <time>2025-02-26T16:08:30Z</time>
      </trkpt>
      <trkpt lat="48.0331" lon="-3.49976">
        <ele>142.5</ele>
        <time>2025-02-26T16:08:31Z</time>
      </trkpt>
      <trkpt lat="48.0331" lon="-3.49975">
        <ele>142.5</ele>
        <time>2025-02-26T16:08:32Z</time>
      </trkpt>
      <trkpt lat="48.03311" lon="-3.49974">
        <ele>142.4</ele>
        <time>2025-02-26T16:08:33Z</time>
      </trkpt>
      <trkpt lat="48.03311" lon="-3.49972">
        <ele>142.4</ele>
        <time>2025-02-26T16:08:34Z</time>
      </trkpt>
      <trkpt lat="48.03311" lon="-3.4997">
        <ele>142.3</ele>
        <time>2025-02-26T16:08:35Z</time>
      </trkpt>
      <trkpt lat="48.03312" lon="-3.49969">
        <ele>142.3</ele>
        <time>2025-02-26T16:08:36Z</time>
      </trkpt>
      <trkpt lat="48.03312" lon="-3.49968">
        <ele>142.3</ele>
        <time>2025-02-26T16:08:37Z</time>
      </trkpt>
      <trkpt lat="48.03312" lon="-3.49967">
        <ele>142.3</ele>
        <time>2025-02-26T16:08:38Z</time>
      </trkpt>
      <trkpt lat="48.03312" lon="-3.49965">
        <ele>142.2</ele>
        <time>2025-02-26T16:08:39Z</time>
      </trkpt>
      <trkpt lat="48.03313" lon="-3.49964">
        <ele>142.2</ele>
        <time>2025-02-26T16:08:40Z</time>
      </trkpt>
      <trkpt lat="48.03314" lon="-3.49963">
        <ele>142.3</ele>
        <time>2025-02-26T16:08:41Z</time>
      </trkpt>
      <trkpt lat="48.03315" lon="-3.49962">
        <ele>142.3</ele>
        <time>2025-02-26T16:08:42Z</time>
      </trkpt>
      <trkpt lat="48.03316" lon="-3.49962">
        <ele>142.4</ele>
        <time>2025-02-26T16:08:43Z</time>
      </trkpt>
      <trkpt lat="48.03318" lon="-3.49962">
        <ele>142.5</ele>
        <time>2025-02-26T16:08:44Z</time>
      </trkpt>
      <trkpt lat="48.03319" lon="-3.49963">
        <ele>142.6</ele>
        <time>2025-02-26T16:08:45Z</time>
      </trkpt>
      <trkpt lat="48.0332" lon="-3.49963">
        <ele>142.7</ele>
        <time>2025-02-26T16:08:46Z</time>
      </trkpt>
      <trkpt lat="48.03321" lon="-3.49962">
        <ele>142.8</ele>
        <time>2025-02-26T16:08:47Z</time>
      </trkpt>
      <trkpt lat="48.03322" lon="-3.49962">
        <ele>142.8</ele>
        <time>2025-02-26T16:08:48Z</time>
      </trkpt>
      <trkpt lat="48.03323" lon="-3.49961">
        <ele>142.9</ele>
        <time>2025-02-26T16:08:49Z</time>
      </trkpt>
      <trkpt lat="48.03325" lon="-3.49961">
        <ele>143</ele>
        <time>2025-02-26T16:08:50Z</time>
      </trkpt>
      <trkpt lat="48.03326" lon="-3.49961">
        <ele>143</ele>
        <time>2025-02-26T16:08:51Z</time>
      </trkpt>
      <trkpt lat="48.03327" lon="-3.4996">
        <ele>143.1</ele>
        <time>2025-02-26T16:08:52Z</time>
      </trkpt>
      <trkpt lat="48.03328" lon="-3.49961">
        <ele>143.2</ele>
        <time>2025-02-26T16:08:53Z</time>
      </trkpt>
      <trkpt lat="48.03329" lon="-3.49961">
        <ele>143.3</ele>
        <time>2025-02-26T16:08:54Z</time>
      </trkpt>
      <trkpt lat="48.03329" lon="-3.49961">
        <ele>143.2</ele>
        <time>2025-02-26T16:08:55Z</time>
      </trkpt>
      <trkpt lat="48.0333" lon="-3.4996">
        <ele>143.3</ele>
        <time>2025-02-26T16:08:56Z</time>
      </trkpt>
      <trkpt lat="48.03331" lon="-3.4996">
        <ele>143.4</ele>
        <time>2025-02-26T16:08:57Z</time>
      </trkpt>
      <trkpt lat="48.03332" lon="-3.4996">
        <ele>143.5</ele>
        <time>2025-02-26T16:08:58Z</time>
      </trkpt>
      <trkpt lat="48.03334" lon="-3.4996">
        <ele>143.6</ele>
        <time>2025-02-26T16:08:59Z</time>
      </trkpt>
      <trkpt lat="48.03336" lon="-3.4996">
        <ele>143.7</ele>
        <time>2025-02-26T16:09:00Z</time>
      </trkpt>
      <trkpt lat="48.03337" lon="-3.49961">
        <ele>143.8</ele>
        <time>2025-02-26T16:09:01Z</time>
      </trkpt>
      <trkpt lat="48.03339" lon="-3.49961">
        <ele>143.9</ele>
        <time>2025-02-26T16:09:02Z</time>
      </trkpt>
      <trkpt lat="48.0334" lon="-3.49961">
        <ele>143.9</ele>
        <time>2025-02-26T16:09:03Z</time>
      </trkpt>
      <trkpt lat="48.03341" lon="-3.49961">
        <ele>144</ele>
        <time>2025-02-26T16:09:04Z</time>
      </trkpt>
      <trkpt lat="48.03343" lon="-3.49961">
        <ele>144.1</ele>
        <time>2025-02-26T16:09:05Z</time>
      </trkpt>
      <trkpt lat="48.03344" lon="-3.49961">
        <ele>144.1</ele>
        <time>2025-02-26T16:09:06Z</time>
      </trkpt>
      <trkpt lat="48.03345" lon="-3.49961">
        <ele>144.2</ele>
        <time>2025-02-26T16:09:07Z</time>
      </trkpt>
      <trkpt lat="48.03347" lon="-3.4996">
        <ele>144.3</ele>
        <time>2025-02-26T16:09:08Z</time>
      </trkpt>
      <trkpt lat="48.03349" lon="-3.4996">
        <ele>144.3</ele>
        <time>2025-02-26T16:09:09Z</time>
      </trkpt>
      <trkpt lat="48.0335" lon="-3.4996">
        <ele>144.4</ele>
        <time>2025-02-26T16:09:10Z</time>
      </trkpt>
      <trkpt lat="48.0335" lon="-3.49959">
        <ele>144.4</ele>
        <time>2025-02-26T16:09:11Z</time>
      </trkpt>
      <trkpt lat="48.03351" lon="-3.49959">
        <ele>144.4</ele>
        <time>2025-02-26T16:09:12Z</time>
      </trkpt>
      <trkpt lat="48.03351" lon="-3.49958">
        <ele>144.5</ele>
        <time>2025-02-26T16:09:13Z</time>
      </trkpt>
      <trkpt lat="48.03352" lon="-3.49958">
        <ele>144.5</ele>
        <time>2025-02-26T16:09:14Z</time>
      </trkpt>
      <trkpt lat="48.03354" lon="-3.49957">
        <ele>144.6</ele>
        <time>2025-02-26T16:09:15Z</time>
      </trkpt>
      <trkpt lat="48.03355" lon="-3.49957">
        <ele>144.7</ele>
        <time>2025-02-26T16:09:16Z</time>
      </trkpt>
      <trkpt lat="48.03357" lon="-3.49956">
        <ele>144.8</ele>
        <time>2025-02-26T16:09:17Z</time>
      </trkpt>
      <trkpt lat="48.03359" lon="-3.49956">
        <ele>144.9</ele>
        <time>2025-02-26T16:09:18Z</time>
      </trkpt>
      <trkpt lat="48.0336" lon="-3.49957">
        <ele>144.9</ele>
        <time>2025-02-26T16:09:19Z</time>
      </trkpt>
      <trkpt lat="48.03361" lon="-3.49957">
        <ele>145</ele>
        <time>2025-02-26T16:09:20Z</time>
      </trkpt>
      <trkpt lat="48.03362" lon="-3.49957">
        <ele>145</ele>
        <time>2025-02-26T16:09:21Z</time>
      </trkpt>
      <trkpt lat="48.03363" lon="-3.49957">
        <ele>145.1</ele>
        <time>2025-02-26T16:09:22Z</time>
      </trkpt>
      <trkpt lat="48.03364" lon="-3.49956">
        <ele>145.2</ele>
        <time>2025-02-26T16:09:23Z</time>
      </trkpt>
      <trkpt lat="48.03365" lon="-3.49957">
        <ele>145.2</ele>
        <time>2025-02-26T16:09:24Z</time>
      </trkpt>
      <trkpt lat="48.03367" lon="-3.49957">
        <ele>145.3</ele>
        <time>2025-02-26T16:09:25Z</time>
      </trkpt>
      <trkpt lat="48.03368" lon="-3.49956">
        <ele>145.3</ele>
        <time>2025-02-26T16:09:26Z</time>
      </trkpt>
      <trkpt lat="48.03369" lon="-3.49956">
        <ele>145.4</ele>
        <time>2025-02-26T16:09:27Z</time>
      </trkpt>
      <trkpt lat="48.0337" lon="-3.49956">
        <ele>145.4</ele>
        <time>2025-02-26T16:09:28Z</time>
      </trkpt>
      <trkpt lat="48.03371" lon="-3.49955">
        <ele>145.5</ele>
        <time>2025-02-26T16:09:29Z</time>
      </trkpt>
      <trkpt lat="48.03372" lon="-3.49955">
        <ele>145.5</ele>
        <time>2025-02-26T16:09:30Z</time>
      </trkpt>
      <trkpt lat="48.03373" lon="-3.49954">
        <ele>145.6</ele>
        <time>2025-02-26T16:09:31Z</time>
      </trkpt>
      <trkpt lat="48.03374" lon="-3.49954">
        <ele>145.6</ele>
        <time>2025-02-26T16:09:32Z</time>
      </trkpt>
      <trkpt lat="48.03375" lon="-3.49954">
        <ele>145.7</ele>
        <time>2025-02-26T16:09:33Z</time>
      </trkpt>
      <trkpt lat="48.03376" lon="-3.49953">
        <ele>145.7</ele>
        <time>2025-02-26T16:09:34Z</time>
      </trkpt>
      <trkpt lat="48.03378" lon="-3.49953">
        <ele>145.8</ele>
        <time>2025-02-26T16:09:35Z</time>
      </trkpt>
      <trkpt lat="48.03379" lon="-3.49952">
        <ele>145.8</ele>
        <time>2025-02-26T16:09:36Z</time>
      </trkpt>
      <trkpt lat="48.0338" lon="-3.49952">
        <ele>145.9</ele>
        <time>2025-02-26T16:09:37Z</time>
      </trkpt>
      <trkpt lat="48.03381" lon="-3.49951">
        <ele>145.9</ele>
        <time>2025-02-26T16:09:38Z</time>
      </trkpt>
      <trkpt lat="48.03382" lon="-3.49951">
        <ele>145.9</ele>
        <time>2025-02-26T16:09:39Z</time>
      </trkpt>
      <trkpt lat="48.03383" lon="-3.4995">
        <ele>145.9</ele>
        <time>2025-02-26T16:09:40Z</time>
      </trkpt>
      <trkpt lat="48.03384" lon="-3.4995">
        <ele>146</ele>
        <time>2025-02-26T16:09:41Z</time>
      </trkpt>
      <trkpt lat="48.03385" lon="-3.4995">
        <ele>146</ele>
        <time>2025-02-26T16:09:42Z</time>
      </trkpt>
      <trkpt lat="48.03386" lon="-3.4995">
        <ele>146.1</ele>
        <time>2025-02-26T16:09:43Z</time>
      </trkpt>
      <trkpt lat="48.03387" lon="-3.49949">
        <ele>146.1</ele>
        <time>2025-02-26T16:09:44Z</time>
      </trkpt>
      <trkpt lat="48.03388" lon="-3.49948">
        <ele>146.1</ele>
        <time>2025-02-26T16:09:45Z</time>
      </trkpt>
      <trkpt lat="48.03389" lon="-3.49947">
        <ele>146.1</ele>
        <time>2025-02-26T16:09:46Z</time>
      </trkpt>
      <trkpt lat="48.0339" lon="-3.49947">
        <ele>146.1</ele>
        <time>2025-02-26T16:09:47Z</time>
      </trkpt>
      <trkpt lat="48.03391" lon="-3.49947">
        <ele>146.2</ele>
        <time>2025-02-26T16:09:48Z</time>
      </trkpt>
      <trkpt lat="48.03392" lon="-3.49946">
        <ele>146.3</ele>
        <time>2025-02-26T16:09:49Z</time>
      </trkpt>
      <trkpt lat="48.03393" lon="-3.49946">
        <ele>146.3</ele>
        <time>2025-02-26T16:09:50Z</time>
      </trkpt>
      <trkpt lat="48.03393" lon="-3.49945">
        <ele>146.3</ele>
        <time>2025-02-26T16:09:51Z</time>
      </trkpt>
      <trkpt lat="48.03394" lon="-3.49944">
        <ele>146.4</ele>
        <time>2025-02-26T16:09:52Z</time>
      </trkpt>
      <trkpt lat="48.03395" lon="-3.49943">
        <ele>146.5</ele>
        <time>2025-02-26T16:09:53Z</time>
      </trkpt>
      <trkpt lat="48.03396" lon="-3.49942">
        <ele>146.5</ele>
        <time>2025-02-26T16:09:54Z</time>
      </trkpt>
      <trkpt lat="48.03397" lon="-3.49942">
        <ele>146.6</ele>
        <time>2025-02-26T16:09:55Z</time>
      </trkpt>
      <trkpt lat="48.03398" lon="-3.49941">
        <ele>146.7</ele>
        <time>2025-02-26T16:09:56Z</time>
      </trkpt>
      <trkpt lat="48.03399" lon="-3.4994">
        <ele>146.7</ele>
        <time>2025-02-26T16:09:57Z</time>
      </trkpt>
      <trkpt lat="48.034" lon="-3.4994">
        <ele>146.8</ele>
        <time>2025-02-26T16:09:58Z</time>
      </trkpt>
      <trkpt lat="48.03401" lon="-3.4994">
        <ele>146.9</ele>
        <time>2025-02-26T16:09:59Z</time>
      </trkpt>
      <trkpt lat="48.03401" lon="-3.4994">
        <ele>146.9</ele>
        <time>2025-02-26T16:10:00Z</time>
      </trkpt>
      <trkpt lat="48.03401" lon="-3.4994">
        <ele>146.9</ele>
        <time>2025-02-26T16:10:01Z</time>
      </trkpt>
      <trkpt lat="48.03401" lon="-3.4994">
        <ele>146.9</ele>
        <time>2025-02-26T16:10:02Z</time>
      </trkpt>
      <trkpt lat="48.03401" lon="-3.4994">
        <ele>146.9</ele>
        <time>2025-02-26T16:10:03Z</time>
      </trkpt>
      <trkpt lat="48.03402" lon="-3.4994">
        <ele>147</ele>
        <time>2025-02-26T16:10:04Z</time>
      </trkpt>
      <trkpt lat="48.03404" lon="-3.49939">
        <ele>147.1</ele>
        <time>2025-02-26T16:10:05Z</time>
      </trkpt>
      <trkpt lat="48.03404" lon="-3.49938">
        <ele>147.1</ele>
        <time>2025-02-26T16:10:06Z</time>
      </trkpt>
      <trkpt lat="48.03405" lon="-3.49937">
        <ele>147.2</ele>
        <time>2025-02-26T16:10:07Z</time>
      </trkpt>
      <trkpt lat="48.03406" lon="-3.49937">
        <ele>147.2</ele>
        <time>2025-02-26T16:10:08Z</time>
      </trkpt>
      <trkpt lat="48.03407" lon="-3.49937">
        <ele>147.3</ele>
        <time>2025-02-26T16:10:09Z</time>
      </trkpt>
      <trkpt lat="48.03408" lon="-3.49936">
        <ele>147.4</ele>
        <time>2025-02-26T16:10:10Z</time>
      </trkpt>
      <trkpt lat="48.03409" lon="-3.49936">
        <ele>147.4</ele>
        <time>2025-02-26T16:10:11Z</time>
      </trkpt>
      <trkpt lat="48.0341" lon="-3.49935">
        <ele>147.5</ele>
        <time>2025-02-26T16:10:12Z</time>
      </trkpt>
      <trkpt lat="48.0341" lon="-3.49935">
        <ele>147.5</ele>
        <time>2025-02-26T16:10:13Z</time>
      </trkpt>
      <trkpt lat="48.0341" lon="-3.49935">
        <ele>147.5</ele>
        <time>2025-02-26T16:10:14Z</time>
      </trkpt>
      <trkpt lat="48.0341" lon="-3.49935">
        <ele>147.5</ele>
        <time>2025-02-26T16:10:15Z</time>
      </trkpt>
      <trkpt lat="48.03411" lon="-3.49934">
        <ele>147.6</ele>
        <time>2025-02-26T16:10:16Z</time>
      </trkpt>
      <trkpt lat="48.03412" lon="-3.49933">
        <ele>147.7</ele>
        <time>2025-02-26T16:10:17Z</time>
      </trkpt>
      <trkpt lat="48.03413" lon="-3.49933">
        <ele>147.7</ele>
        <time>2025-02-26T16:10:18Z</time>
      </trkpt>
      <trkpt lat="48.03414" lon="-3.49932">
        <ele>147.8</ele>
        <time>2025-02-26T16:10:19Z</time>
      </trkpt>
      <trkpt lat="48.03415" lon="-3.49932">
        <ele>147.9</ele>
        <time>2025-02-26T16:10:20Z</time>
      </trkpt>
      <trkpt lat="48.03416" lon="-3.49932">
        <ele>147.9</ele>
        <time>2025-02-26T16:10:21Z</time>
      </trkpt>
      <trkpt lat="48.03417" lon="-3.49931">
        <ele>148</ele>
        <time>2025-02-26T16:10:22Z</time>
      </trkpt>
      <trkpt lat="48.03418" lon="-3.4993">
        <ele>148</ele>
        <time>2025-02-26T16:10:23Z</time>
      </trkpt>
      <trkpt lat="48.03419" lon="-3.4993">
        <ele>148.1</ele>
        <time>2025-02-26T16:10:24Z</time>
      </trkpt>
      <trkpt lat="48.0342" lon="-3.49929">
        <ele>148.1</ele>
        <time>2025-02-26T16:10:25Z</time>
      </trkpt>
      <trkpt lat="48.03421" lon="-3.49929">
        <ele>148.1</ele>
        <time>2025-02-26T16:10:26Z</time>
      </trkpt>
      <trkpt lat="48.03422" lon="-3.49928">
        <ele>148.2</ele>
        <time>2025-02-26T16:10:27Z</time>
      </trkpt>
      <trkpt lat="48.03423" lon="-3.49927">
        <ele>148.2</ele>
        <time>2025-02-26T16:10:28Z</time>
      </trkpt>
      <trkpt lat="48.03424" lon="-3.49926">
        <ele>148.3</ele>
        <time>2025-02-26T16:10:29Z</time>
      </trkpt>
      <trkpt lat="48.03425" lon="-3.49926">
        <ele>148.3</ele>
        <time>2025-02-26T16:10:30Z</time>
      </trkpt>
      <trkpt lat="48.03426" lon="-3.49927">
        <ele>148.3</ele>
        <time>2025-02-26T16:10:31Z</time>
      </trkpt>
      <trkpt lat="48.03427" lon="-3.49926">
        <ele>148.4</ele>
        <time>2025-02-26T16:10:32Z</time>
      </trkpt>
      <trkpt lat="48.03429" lon="-3.49925">
        <ele>148.4</ele>
        <time>2025-02-26T16:10:33Z</time>
      </trkpt>
      <trkpt lat="48.0343" lon="-3.49924">
        <ele>148.5</ele>
        <time>2025-02-26T16:10:34Z</time>
      </trkpt>
      <trkpt lat="48.03432" lon="-3.49923">
        <ele>148.5</ele>
        <time>2025-02-26T16:10:35Z</time>
      </trkpt>
      <trkpt lat="48.03433" lon="-3.49922">
        <ele>148.6</ele>
        <time>2025-02-26T16:10:36Z</time>
      </trkpt>
      <trkpt lat="48.03434" lon="-3.49921">
        <ele>148.6</ele>
        <time>2025-02-26T16:10:37Z</time>
      </trkpt>
      <trkpt lat="48.03436" lon="-3.49919">
        <ele>148.7</ele>
        <time>2025-02-26T16:10:38Z</time>
      </trkpt>
      <trkpt lat="48.03439" lon="-3.49918">
        <ele>148.8</ele>
        <time>2025-02-26T16:10:39Z</time>
      </trkpt>
      <trkpt lat="48.03441" lon="-3.49917">
        <ele>148.9</ele>
        <time>2025-02-26T16:10:40Z</time>
      </trkpt>
      <trkpt lat="48.03443" lon="-3.49916">
        <ele>149</ele>
        <time>2025-02-26T16:10:41Z</time>
      </trkpt>
      <trkpt lat="48.03445" lon="-3.49915">
        <ele>149</ele>
        <time>2025-02-26T16:10:42Z</time>
      </trkpt>
      <trkpt lat="48.03447" lon="-3.49915">
        <ele>149.1</ele>
        <time>2025-02-26T16:10:43Z</time>
      </trkpt>
      <trkpt lat="48.03449" lon="-3.49915">
        <ele>149.1</ele>
        <time>2025-02-26T16:10:44Z</time>
      </trkpt>
      <trkpt lat="48.03451" lon="-3.49914">
        <ele>149.2</ele>
        <time>2025-02-26T16:10:45Z</time>
      </trkpt>
      <trkpt lat="48.03454" lon="-3.49914">
        <ele>149.3</ele>
        <time>2025-02-26T16:10:46Z</time>
      </trkpt>
      <trkpt lat="48.03456" lon="-3.49914">
        <ele>149.4</ele>
        <time>2025-02-26T16:10:47Z</time>
      </trkpt>
      <trkpt lat="48.03458" lon="-3.49914">
        <ele>149.5</ele>
        <time>2025-02-26T16:10:48Z</time>
      </trkpt>
      <trkpt lat="48.03461" lon="-3.49914">
        <ele>149.6</ele>
        <time>2025-02-26T16:10:49Z</time>
      </trkpt>
      <trkpt lat="48.03463" lon="-3.49915">
        <ele>149.7</ele>
        <time>2025-02-26T16:10:50Z</time>
      </trkpt>
      <trkpt lat="48.03465" lon="-3.49914">
        <ele>149.7</ele>
        <time>2025-02-26T16:10:51Z</time>
      </trkpt>
      <trkpt lat="48.03466" lon="-3.49912">
        <ele>149.8</ele>
        <time>2025-02-26T16:10:52Z</time>
      </trkpt>
      <trkpt lat="48.03467" lon="-3.4991">
        <ele>149.8</ele>
        <time>2025-02-26T16:10:53Z</time>
      </trkpt>
      <trkpt lat="48.03468" lon="-3.49909">
        <ele>149.8</ele>
        <time>2025-02-26T16:10:54Z</time>
      </trkpt>
      <trkpt lat="48.03468" lon="-3.49907">
        <ele>149.8</ele>
        <time>2025-02-26T16:10:55Z</time>
      </trkpt>
      <trkpt lat="48.03469" lon="-3.49905">
        <ele>149.9</ele>
        <time>2025-02-26T16:10:56Z</time>
      </trkpt>
      <trkpt lat="48.0347" lon="-3.49903">
        <ele>149.9</ele>
        <time>2025-02-26T16:10:57Z</time>
      </trkpt>
      <trkpt lat="48.03472" lon="-3.49903">
        <ele>150</ele>
        <time>2025-02-26T16:10:58Z</time>
      </trkpt>
      <trkpt lat="48.03473" lon="-3.49901">
        <ele>150</ele>
        <time>2025-02-26T16:10:59Z</time>
      </trkpt>
      <trkpt lat="48.03475" lon="-3.49899">
        <ele>150.1</ele>
        <time>2025-02-26T16:11:00Z</time>
      </trkpt>
      <trkpt lat="48.03478" lon="-3.49898">
        <ele>150.2</ele>
        <time>2025-02-26T16:11:01Z</time>
      </trkpt>
      <trkpt lat="48.0348" lon="-3.49897">
        <ele>150.3</ele>
        <time>2025-02-26T16:11:02Z</time>
      </trkpt>
      <trkpt lat="48.03483" lon="-3.49894">
        <ele>150.4</ele>
        <time>2025-02-26T16:11:03Z</time>
      </trkpt>
      <trkpt lat="48.03485" lon="-3.49893">
        <ele>150.5</ele>
        <time>2025-02-26T16:11:04Z</time>
      </trkpt>
      <trkpt lat="48.03488" lon="-3.49892">
        <ele>150.6</ele>
        <time>2025-02-26T16:11:05Z</time>
      </trkpt>
      <trkpt lat="48.0349" lon="-3.49889">
        <ele>150.7</ele>
        <time>2025-02-26T16:11:06Z</time>
      </trkpt>
      <trkpt lat="48.03493" lon="-3.49887">
        <ele>150.7</ele>
        <time>2025-02-26T16:11:07Z</time>
      </trkpt>
      <trkpt lat="48.03495" lon="-3.49886">
        <ele>150.8</ele>
        <time>2025-02-26T16:11:08Z</time>
      </trkpt>
      <trkpt lat="48.03497" lon="-3.49883">
        <ele>150.9</ele>
        <time>2025-02-26T16:11:09Z</time>
      </trkpt>
      <trkpt lat="48.03499" lon="-3.49881">
        <ele>150.9</ele>
        <time>2025-02-26T16:11:10Z</time>
      </trkpt>
      <trkpt lat="48.035" lon="-3.49879">
        <ele>151</ele>
        <time>2025-02-26T16:11:11Z</time>
      </trkpt>
      <trkpt lat="48.03502" lon="-3.49876">
        <ele>151.1</ele>
        <time>2025-02-26T16:11:12Z</time>
      </trkpt>
      <trkpt lat="48.03504" lon="-3.49875">
        <ele>151.1</ele>
        <time>2025-02-26T16:11:13Z</time>
      </trkpt>
      <trkpt lat="48.03506" lon="-3.49874">
        <ele>151.2</ele>
        <time>2025-02-26T16:11:14Z</time>
      </trkpt>
      <trkpt lat="48.03508" lon="-3.49873">
        <ele>151.3</ele>
        <time>2025-02-26T16:11:15Z</time>
      </trkpt>
      <trkpt lat="48.0351" lon="-3.49871">
        <ele>151.4</ele>
        <time>2025-02-26T16:11:16Z</time>
      </trkpt>
      <trkpt lat="48.03512" lon="-3.49869">
        <ele>151.4</ele>
        <time>2025-02-26T16:11:17Z</time>
      </trkpt>
      <trkpt lat="48.03514" lon="-3.49867">
        <ele>151.5</ele>
        <time>2025-02-26T16:11:18Z</time>
      </trkpt>
      <trkpt lat="48.03515" lon="-3.49866">
        <ele>151.6</ele>
        <time>2025-02-26T16:11:19Z</time>
      </trkpt>
      <trkpt lat="48.03518" lon="-3.49864">
        <ele>151.6</ele>
        <time>2025-02-26T16:11:20Z</time>
      </trkpt>
      <trkpt lat="48.0352" lon="-3.49862">
        <ele>151.7</ele>
        <time>2025-02-26T16:11:21Z</time>
      </trkpt>
      <trkpt lat="48.03522" lon="-3.49861">
        <ele>151.8</ele>
        <time>2025-02-26T16:11:22Z</time>
      </trkpt>
      <trkpt lat="48.03523" lon="-3.4986">
        <ele>151.8</ele>
        <time>2025-02-26T16:11:23Z</time>
      </trkpt>
      <trkpt lat="48.03524" lon="-3.49859">
        <ele>151.8</ele>
        <time>2025-02-26T16:11:24Z</time>
      </trkpt>
      <trkpt lat="48.03524" lon="-3.49858">
        <ele>151.9</ele>
        <time>2025-02-26T16:11:25Z</time>
      </trkpt>
      <trkpt lat="48.03525" lon="-3.49858">
        <ele>151.9</ele>
        <time>2025-02-26T16:11:26Z</time>
      </trkpt>
      <trkpt lat="48.03526" lon="-3.49858">
        <ele>151.9</ele>
        <time>2025-02-26T16:11:27Z</time>
      </trkpt>
      <trkpt lat="48.03527" lon="-3.49858">
        <ele>152</ele>
        <time>2025-02-26T16:11:28Z</time>
      </trkpt>
      <trkpt lat="48.03527" lon="-3.49855">
        <ele>152</ele>
        <time>2025-02-26T16:11:29Z</time>
      </trkpt>
      <trkpt lat="48.03525" lon="-3.49856">
        <ele>151.9</ele>
        <time>2025-02-26T16:11:30Z</time>
      </trkpt>
      <trkpt lat="48.03525" lon="-3.49856">
        <ele>151.9</ele>
        <time>2025-02-26T16:11:31Z</time>
      </trkpt>
      <trkpt lat="48.03525" lon="-3.49856">
        <ele>151.9</ele>
        <time>2025-02-26T16:11:32Z</time>
      </trkpt>
      <trkpt lat="48.03524" lon="-3.49856">
        <ele>151.9</ele>
        <time>2025-02-26T16:11:33Z</time>
      </trkpt>
      <trkpt lat="48.03524" lon="-3.49856">
        <ele>151.9</ele>
        <time>2025-02-26T16:11:34Z</time>
      </trkpt>
      <trkpt lat="48.03525" lon="-3.49855">
        <ele>151.9</ele>
        <time>2025-02-26T16:11:35Z</time>
      </trkpt>
      <trkpt lat="48.03526" lon="-3.49854">
        <ele>151.9</ele>
        <time>2025-02-26T16:11:36Z</time>
      </trkpt>
      <trkpt lat="48.03529" lon="-3.49858">
        <ele>152</ele>
        <time>2025-02-26T16:11:37Z</time>
      </trkpt>
      <trkpt lat="48.03531" lon="-3.49857">
        <ele>151.9</ele>
        <time>2025-02-26T16:11:38Z</time>
      </trkpt>
      <trkpt lat="48.03533" lon="-3.49856">
        <ele>151.8</ele>
        <time>2025-02-26T16:11:39Z</time>
      </trkpt>
      <trkpt lat="48.03533" lon="-3.49854">
        <ele>151.8</ele>
        <time>2025-02-26T16:11:40Z</time>
      </trkpt>
      <trkpt lat="48.03533" lon="-3.49854">
        <ele>151.8</ele>
        <time>2025-02-26T16:11:41Z</time>
      </trkpt>
      <trkpt lat="48.03535" lon="-3.49852">
        <ele>151.7</ele>
        <time>2025-02-26T16:11:42Z</time>
      </trkpt>
      <trkpt lat="48.03537" lon="-3.49851">
        <ele>151.7</ele>
        <time>2025-02-26T16:11:43Z</time>
      </trkpt>
      <trkpt lat="48.03538" lon="-3.4985">
        <ele>151.6</ele>
        <time>2025-02-26T16:11:44Z</time>
      </trkpt>
      <trkpt lat="48.03538" lon="-3.49849">
        <ele>151.6</ele>
        <time>2025-02-26T16:11:45Z</time>
      </trkpt>
      <trkpt lat="48.03539" lon="-3.49848">
        <ele>151.6</ele>
        <time>2025-02-26T16:11:46Z</time>
      </trkpt>
      <trkpt lat="48.0354" lon="-3.49847">
        <ele>151.5</ele>
        <time>2025-02-26T16:11:47Z</time>
      </trkpt>
      <trkpt lat="48.03541" lon="-3.49846">
        <ele>151.5</ele>
        <time>2025-02-26T16:11:48Z</time>
      </trkpt>
      <trkpt lat="48.03542" lon="-3.49845">
        <ele>151.5</ele>
        <time>2025-02-26T16:11:49Z</time>
      </trkpt>
      <trkpt lat="48.03543" lon="-3.49843">
        <ele>151.5</ele>
        <time>2025-02-26T16:11:50Z</time>
      </trkpt>
      <trkpt lat="48.03543" lon="-3.49841">
        <ele>151.5</ele>
        <time>2025-02-26T16:11:51Z</time>
      </trkpt>
      <trkpt lat="48.03543" lon="-3.4984">
        <ele>151.5</ele>
        <time>2025-02-26T16:11:52Z</time>
      </trkpt>
      <trkpt lat="48.03543" lon="-3.49839">
        <ele>151.5</ele>
        <time>2025-02-26T16:11:53Z</time>
      </trkpt>
      <trkpt lat="48.03544" lon="-3.49838">
        <ele>151.4</ele>
        <time>2025-02-26T16:11:54Z</time>
      </trkpt>
      <trkpt lat="48.03545" lon="-3.49838">
        <ele>151.4</ele>
        <time>2025-02-26T16:11:55Z</time>
      </trkpt>
      <trkpt lat="48.03547" lon="-3.49837">
        <ele>151.3</ele>
        <time>2025-02-26T16:11:56Z</time>
      </trkpt>
      <trkpt lat="48.03547" lon="-3.49836">
        <ele>151.3</ele>
        <time>2025-02-26T16:11:57Z</time>
      </trkpt>
      <trkpt lat="48.03548" lon="-3.49835">
        <ele>151.3</ele>
        <time>2025-02-26T16:11:58Z</time>
      </trkpt>
      <trkpt lat="48.03549" lon="-3.49834">
        <ele>151.2</ele>
        <time>2025-02-26T16:11:59Z</time>
      </trkpt>
      <trkpt lat="48.0355" lon="-3.49833">
        <ele>151.2</ele>
        <time>2025-02-26T16:12:00Z</time>
      </trkpt>
      <trkpt lat="48.03552" lon="-3.49831">
        <ele>151.2</ele>
        <time>2025-02-26T16:12:01Z</time>
      </trkpt>
      <trkpt lat="48.03552" lon="-3.4983">
        <ele>151.2</ele>
        <time>2025-02-26T16:12:02Z</time>
      </trkpt>
      <trkpt lat="48.03553" lon="-3.49829">
        <ele>151.2</ele>
        <time>2025-02-26T16:12:03Z</time>
      </trkpt>
      <trkpt lat="48.03554" lon="-3.49827">
        <ele>151.3</ele>
        <time>2025-02-26T16:12:04Z</time>
      </trkpt>
      <trkpt lat="48.03556" lon="-3.49828">
        <ele>151.2</ele>
        <time>2025-02-26T16:12:05Z</time>
      </trkpt>
      <trkpt lat="48.03557" lon="-3.49829">
        <ele>151.2</ele>
        <time>2025-02-26T16:12:06Z</time>
      </trkpt>
      <trkpt lat="48.03558" lon="-3.49829">
        <ele>151.2</ele>
        <time>2025-02-26T16:12:07Z</time>
      </trkpt>
      <trkpt lat="48.03559" lon="-3.4983">
        <ele>151.2</ele>
        <time>2025-02-26T16:12:08Z</time>
      </trkpt>
      <trkpt lat="48.03561" lon="-3.49832">
        <ele>151.2</ele>
        <time>2025-02-26T16:12:09Z</time>
      </trkpt>
      <trkpt lat="48.03562" lon="-3.49834">
        <ele>151.2</ele>
        <time>2025-02-26T16:12:10Z</time>
      </trkpt>
      <trkpt lat="48.03562" lon="-3.49835">
        <ele>151.2</ele>
        <time>2025-02-26T16:12:11Z</time>
      </trkpt>
      <trkpt lat="48.03563" lon="-3.49838">
        <ele>151.2</ele>
        <time>2025-02-26T16:12:12Z</time>
      </trkpt>
      <trkpt lat="48.03563" lon="-3.4984">
        <ele>151.2</ele>
        <time>2025-02-26T16:12:13Z</time>
      </trkpt>
      <trkpt lat="48.03563" lon="-3.49842">
        <ele>151.2</ele>
        <time>2025-02-26T16:12:14Z</time>
      </trkpt>
      <trkpt lat="48.03563" lon="-3.49843">
        <ele>151.2</ele>
        <time>2025-02-26T16:12:15Z</time>
      </trkpt>
      <trkpt lat="48.03563" lon="-3.49844">
        <ele>151.2</ele>
        <time>2025-02-26T16:12:16Z</time>
      </trkpt>
      <trkpt lat="48.03563" lon="-3.49846">
        <ele>151.1</ele>
        <time>2025-02-26T16:12:17Z</time>
      </trkpt>
      <trkpt lat="48.03563" lon="-3.49846">
        <ele>151.1</ele>
        <time>2025-02-26T16:12:18Z</time>
      </trkpt>
      <trkpt lat="48.03563" lon="-3.49846">
        <ele>151.1</ele>
        <time>2025-02-26T16:12:19Z</time>
      </trkpt>
      <trkpt lat="48.03563" lon="-3.49846">
        <ele>151.1</ele>
        <time>2025-02-26T16:12:20Z</time>
      </trkpt>
      <trkpt lat="48.03563" lon="-3.49846">
        <ele>151.1</ele>
        <time>2025-02-26T16:12:21Z</time>
      </trkpt>
      <trkpt lat="48.03563" lon="-3.49846">
        <ele>151.1</ele>
        <time>2025-02-26T16:12:22Z</time>
      </trkpt>
      <trkpt lat="48.03563" lon="-3.49846">
        <ele>151.1</ele>
        <time>2025-02-26T16:12:23Z</time>
      </trkpt>
      <trkpt lat="48.03563" lon="-3.49846">
        <ele>151.1</ele>
        <time>2025-02-26T16:12:24Z</time>
      </trkpt>
      <trkpt lat="48.03563" lon="-3.49846">
        <ele>151.1</ele>
        <time>2025-02-26T16:12:25Z</time>
      </trkpt>
      <trkpt lat="48.03563" lon="-3.49846">
        <ele>151.1</ele>
        <time>2025-02-26T16:12:26Z</time>
      </trkpt>
      <trkpt lat="48.03563" lon="-3.49846">
        <ele>151.2</ele>
        <time>2025-02-26T16:12:27Z</time>
      </trkpt>
      <trkpt lat="48.03563" lon="-3.49846">
        <ele>151.2</ele>
        <time>2025-02-26T16:12:28Z</time>
      </trkpt>
      <trkpt lat="48.03563" lon="-3.49846">
        <ele>151.2</ele>
        <time>2025-02-26T16:12:29Z</time>
      </trkpt>
      <trkpt lat="48.03563" lon="-3.49846">
        <ele>151.2</ele>
        <time>2025-02-26T16:12:30Z</time>
      </trkpt>
      <trkpt lat="48.03563" lon="-3.49846">
        <ele>151.2</ele>
        <time>2025-02-26T16:12:31Z</time>
      </trkpt>
    </trkseg>
  </trk>
</gpx>